Date StartTime U_cm/s V_cm/s W_cm/s Ustd_cm/s Vstd_cm/s Wstd_cm/s Uvar_(cm/s)^2 Vvar_(cm/s)^2 Wvar_(cm/s)^2 KE_(m/s)^2 TurbulentKE_(m/s)^2 HorizWindSpeed_cm/s FrictionSpeec_cm/s DragCoef SpeedOfSound_m/s SonicTemperature_C Pressure_mb 
01/01/2021  00:00:00       36.880       52.856       13.975       42.005       54.005       31.947     1764.428     2916.537     1020.623        0.502        0.285       64.451       33.675        0.273      331.654       -0.192      866.055
01/01/2021  00:01:00       49.388       89.345        3.036       53.038       49.346       35.853     2813.061     2435.061     1285.466        0.848        0.327      102.087       36.002        0.124      331.729       -0.068      866.054
01/01/2021  00:02:00       51.460       88.272        3.178       56.313       55.433       41.383     3171.206     3072.788     1712.524        0.920        0.398      102.176       34.542        0.114      331.870        0.165      866.066
01/01/2021  00:03:00       49.411      102.338        4.535       56.750       50.965       33.700     3220.511     2597.427     1135.716        0.994        0.348      113.642       30.159        0.070      331.982        0.349      866.093
01/01/2021  00:04:00       67.722       99.492        2.502       51.722       61.074       37.874     2675.199     3729.994     1434.439        1.116        0.392      120.353       37.544        0.097      331.989        0.359      866.128
01/01/2021  00:05:00       48.210      109.847        7.028       45.311       56.113       31.890     2053.065     3148.706     1016.951        1.033        0.311      119.961       30.194        0.063      332.013        0.401      866.140
01/01/2021  00:06:00       49.292      116.550        3.974       49.898       45.959       33.321     2489.797     2112.242     1110.297        1.087        0.286      126.545       27.060        0.046      332.061        0.478      866.131
01/01/2021  00:07:00       43.760      121.744        7.194       49.127       59.576       30.326     2413.463     3549.296      919.668        1.183        0.344      129.369       32.260        0.062      332.029        0.426      866.131
01/01/2021  00:08:00       36.598      114.683       15.612       43.862       56.109       35.603     1923.914     3148.204     1267.574        1.054        0.317      120.381       33.259        0.076      332.180        0.675      866.137
01/01/2021  00:09:00       41.337       87.365        4.740       48.085       44.327       25.763     2312.170     1964.921      663.710        0.715        0.247       96.651       28.831        0.089      332.097        0.539      866.156
01/01/2021  00:10:00       18.903       45.677        4.652       41.553       44.838       28.298     1726.659     2010.443      800.772        0.350        0.227       49.434       28.889        0.342      331.881        0.182      866.180
01/01/2021  00:11:00      -28.055       37.346       -1.563       47.171       47.640       32.808     2225.145     2269.609     1076.378        0.388        0.279       46.710       32.475        0.483      331.232       -0.884      866.191
01/01/2021  00:12:00      -16.116       24.041        0.213       53.623       47.918       34.349     2875.432     2296.176     1179.840        0.359        0.318       28.943       33.733        1.358      331.283       -0.800      866.194
01/01/2021  00:13:00      -23.233       32.742        3.301       42.514       53.309       37.585     1807.412     2841.860     1412.644        0.384        0.303       40.148       40.619        1.024      331.199       -0.940      866.181
01/01/2021  00:14:00      -29.735       49.372       -9.050       43.938       48.238       33.588     1930.585     2326.932     1128.169        0.439        0.269       57.634       33.911        0.346      331.197       -0.944      866.160
01/01/2021  00:15:00      -10.142       45.496       -5.875       55.136       46.338       30.528     3040.024     2147.229      931.941        0.416        0.306       46.613       30.713        0.434      331.441       -0.544      866.143
01/01/2021  00:16:00       43.625       56.185       13.096       58.125       54.967       32.892     3378.468     3021.361     1081.857        0.636        0.374       71.134       34.646        0.237      331.791        0.035      866.128
01/01/2021  00:17:00       52.958       59.780        6.573       59.089       52.484       35.282     3491.562     2754.591     1244.800        0.695        0.375       79.864       34.989        0.192      331.968        0.326      866.113
01/01/2021  00:18:00       66.527       70.968        3.489       56.273       57.425       41.176     3166.635     3297.593     1695.501        0.882        0.408       97.274       42.243        0.189      332.004        0.384      866.108
01/01/2021  00:19:00       60.427       50.588        4.434       57.821       49.060       34.224     3343.250     2406.899     1171.256        0.657        0.346       78.807       34.648        0.193      331.888        0.192      866.121
01/01/2021  00:20:00       56.594       54.695        0.894       57.593       50.624       35.985     3316.963     2562.812     1294.950        0.668        0.359       78.704       33.008        0.176      331.978        0.342      866.126
01/01/2021  00:21:00       17.080       39.648       -0.907       62.172       58.461       34.370     3865.357     3417.707     1181.309        0.516        0.423       43.171       32.924        0.582      331.585       -0.305      866.132
01/01/2021  00:22:00       11.593       22.638       15.192       37.948       47.006       30.162     1440.026     2209.579      909.720        0.272        0.228       25.434       35.593        1.958      331.097       -1.108      866.127
01/01/2021  00:23:00       -6.751       15.355        6.160       54.205       44.967       32.600     2938.190     2022.059     1062.734        0.317        0.301       16.773       32.955        3.860      331.205       -0.930      866.128
01/01/2021  00:24:00       -7.224       44.898        8.999       44.874       55.598       33.892     2013.700     3091.083     1148.670        0.420        0.313       45.476       40.244        0.783      331.234       -0.882      866.120
01/01/2021  00:25:00      -23.915       30.086        5.838       40.505       48.501       28.183     1640.688     2352.350      794.271        0.315        0.239       38.433       33.588        0.764      331.385       -0.635      866.104
01/01/2021  00:26:00       -6.164       29.449        9.233       47.499       57.190       35.917     2256.150     3270.678     1290.026        0.390        0.341       30.088       40.873        1.845      331.381       -0.640      866.067
01/01/2021  00:27:00        1.934       21.706        6.237       30.511       41.024       26.107      930.917     1682.931      681.580        0.190        0.165       21.792       33.283        2.333      331.233       -0.884      866.037
01/01/2021  00:28:00       11.173       26.829       16.045       36.514       50.789       29.162     1333.271     2579.516      850.413        0.293        0.238       29.063       39.081        1.808      331.305       -0.767      866.001
01/01/2021  00:29:00       -6.931       38.226       15.771       35.127       57.788       34.144     1233.901     3339.403     1165.840        0.375        0.287       38.849       44.272        1.299      331.368       -0.660      865.989
01/01/2021  00:30:00      -19.926       28.960        2.069       43.053       47.187       31.812     1853.591     2226.638     1011.994        0.317        0.255       35.153       33.531        0.910      331.318       -0.744      866.002
01/01/2021  00:31:00      -25.264       38.133        0.549       44.539       48.772       31.844     1983.715     2378.751     1014.054        0.373        0.269       45.743       35.795        0.612      331.334       -0.720      866.030
01/01/2021  00:32:00       -5.154       45.970        0.548       53.267       52.381       34.192     2837.375     2743.756     1169.060        0.444        0.338       46.258       37.472        0.656      331.353       -0.687      866.058
01/01/2021  00:33:00      -13.153       43.596        2.042       55.485       53.740       35.347     3078.615     2887.951     1249.387        0.465        0.361       45.536       37.148        0.666      331.407       -0.600      866.062
01/01/2021  00:34:00      -36.412       32.565       -2.547       47.387       42.274       29.450     2245.529     1787.132      867.307        0.365        0.245       48.850       29.347        0.361      331.290       -0.791      866.063
01/01/2021  00:35:00      -38.307       52.204        1.799       52.375       52.445       32.483     2743.113     2750.521     1055.135        0.537        0.327       64.751       36.510        0.318      331.293       -0.785      866.053
01/01/2021  00:36:00      -19.073       38.198        0.514       41.659       49.313       33.356     1735.464     2431.760     1112.632        0.355        0.264       42.695       36.571        0.734      331.240       -0.871      866.050
01/01/2021  00:37:00      -13.813       39.147        1.655       51.480       53.360       30.491     2650.227     2847.298      929.700        0.408        0.321       41.513       35.494        0.731      331.180       -0.972      866.048
01/01/2021  00:38:00        1.286       43.796        0.339       45.941       46.837       34.068     2110.605     2193.744     1160.641        0.369        0.273       43.815       35.879        0.671      331.295       -0.782      866.052
01/01/2021  00:39:00       26.236       50.333        1.710       48.135       46.240       33.801     2316.934     2138.105     1142.517        0.441        0.280       56.760       32.447        0.327      331.561       -0.346      866.054
01/01/2021  00:40:00       64.913       61.782        7.252       52.281       47.500       35.370     2733.331     2256.266     1251.025        0.716        0.312       89.614       35.123        0.154      331.804        0.054      866.042
01/01/2021  00:41:00       64.204       63.479        1.613       55.274       55.643       36.797     3055.227     3096.160     1354.015        0.783        0.375       90.287       38.745        0.184      331.831        0.100      866.027
01/01/2021  00:42:00       72.702       68.842        3.935       56.931       52.740       38.093     3241.135     2781.553     1451.041        0.876        0.374      100.124       38.382        0.147      331.885        0.189      866.003
01/01/2021  00:43:00       54.867       43.575        1.890       52.180       50.123       36.293     2722.712     2512.289     1317.215        0.573        0.328       70.066       37.430        0.285      331.837        0.110      865.989
01/01/2021  00:44:00        6.474       24.536       -1.108       52.331       48.266       32.550     2738.508     2329.620     1059.489        0.339        0.306       25.376       34.236        1.820      331.423       -0.571      865.973
01/01/2021  00:45:00       -6.859       29.217        6.007       42.905       45.716       31.150     1840.818     2089.941      970.337        0.292        0.245       30.011       33.946        1.279      331.239       -0.874      865.960
01/01/2021  00:46:00       -3.063       28.975        6.969       41.125       54.625       33.239     1691.298     2983.929     1104.801        0.334        0.289       29.136       41.076        1.987      331.522       -0.408      865.949
01/01/2021  00:47:00       -9.018       22.545        5.097       40.008       49.292       29.299     1600.615     2429.656      858.436        0.275        0.244       24.282       36.243        2.228      331.313       -0.754      865.956
01/01/2021  00:48:00        1.054       25.867       13.535       33.556       48.949       30.348     1126.036     2396.010      921.001        0.265        0.222       25.889       37.578        2.107      331.363       -0.670      865.974
01/01/2021  00:49:00      -31.685       21.783       12.875       37.306       56.268       32.608     1391.739     3166.035     1063.283        0.363        0.281       38.450       41.646        1.173      331.375       -0.650      865.992
01/01/2021  00:50:00       -9.095       27.724       11.124       39.644       49.395       30.754     1571.613     2439.908      945.809        0.297        0.248       29.178       34.266        1.379      331.242       -0.870      866.001
01/01/2021  00:51:00      -39.368       19.991        9.866       50.177       51.778       32.340     2517.706     2680.910     1045.892        0.414        0.312       44.153       36.929        0.700      331.253       -0.851      866.019
01/01/2021  00:52:00      -50.663       24.087        5.628       57.133       56.971       38.689     3264.124     3245.690     1496.858        0.559        0.400       56.097       41.755        0.554      331.183       -0.966      866.017
01/01/2021  00:53:00      -35.037        0.874       16.539       53.565       50.481       29.814     2869.241     2548.321      888.900        0.390        0.315       35.048       35.385        1.019      331.081       -1.135      866.026
01/01/2021  00:54:00      -32.500        7.270       11.875       64.791       55.747       35.833     4197.831     3107.707     1283.975        0.492        0.429       33.304       41.556        1.557      331.124       -1.064      866.044
01/01/2021  00:55:00       -2.568       34.472       21.449       42.923       57.937       35.218     1842.358     3356.712     1240.340        0.405        0.322       34.567       44.878        1.685      331.022       -1.230      866.067
01/01/2021  00:56:00      -19.078       21.840       17.220       45.562       50.320       30.675     2075.904     2532.144      940.938        0.334        0.277       28.999       38.303        1.745      330.966       -1.321      866.085
01/01/2021  00:57:00      -29.217       22.830       21.537       51.688       51.110       31.344     2671.700     2612.260      982.450        0.405        0.313       37.078       41.475        1.251      331.027       -1.222      866.104
01/01/2021  00:58:00      -24.526       23.180       19.323       37.192       53.156       31.231     1383.248     2825.611      975.397        0.335        0.259       33.747       37.699        1.248      331.029       -1.219      866.121
01/01/2021  00:59:00      -45.853       14.943       18.390       41.733       55.124       33.419     1741.642     3038.698     1116.840        0.428        0.295       48.227       39.296        0.664      331.020       -1.233      866.126
01/01/2021  01:00:00      -42.371       23.870       11.718       39.882       47.119       30.017     1590.536     2220.167      901.037        0.361        0.236       48.632       33.507        0.475      330.913       -1.408      866.126
01/01/2021  01:01:00      -54.172       34.290        0.520       38.825       50.459       29.754     1507.404     2546.125      885.295        0.452        0.247       64.113       37.617        0.344      330.920       -1.398      866.122
01/01/2021  01:02:00      -70.710       36.902       -0.304       45.675       51.001       31.736     2086.187     2601.148     1007.147        0.603        0.285       79.760       37.058        0.216      330.936       -1.371      866.125
01/01/2021  01:03:00      -82.804       48.331        3.132       50.882       57.326       31.039     2588.975     3286.272      963.398        0.802        0.342       95.876       38.260        0.159      330.898       -1.433      866.141
01/01/2021  01:04:00      -43.462       20.981       14.411       54.767       53.664       31.979     2999.475     2879.877     1022.688        0.472        0.345       48.261       38.925        0.651      330.806       -1.586      866.166
01/01/2021  01:05:00        6.702       22.706       23.837       33.362       51.428       28.741     1113.011     2644.877      826.057        0.286        0.229       23.674       38.441        2.637      330.755       -1.669      866.188
01/01/2021  01:06:00      -25.678       28.011        6.011       36.627       53.555       33.253     1341.573     2868.163     1105.757        0.340        0.266       37.999       40.484        1.135      330.819       -1.563      866.203
01/01/2021  01:07:00      -68.900       26.382        9.664       31.019       47.971       28.918      962.149     2301.191      836.271        0.482        0.205       73.778       36.124        0.240      330.837       -1.534      866.202
01/01/2021  01:08:00      -32.515       32.480        0.146       43.738       54.373       31.066     1912.988     2956.396      965.119        0.397        0.292       45.958       36.708        0.638      330.844       -1.522      866.194
01/01/2021  01:09:00      -16.167       25.457       11.579       25.893       46.553       25.302      670.447     2167.153      640.216        0.226        0.174       30.157       34.157        1.283      330.817       -1.567      866.182
01/01/2021  01:10:00      -24.904       44.199        8.172       32.004       48.019       28.774     1024.252     2305.795      827.920        0.340        0.208       50.733       37.681        0.552      330.927       -1.387      866.163
01/01/2021  01:11:00      -28.074       32.304        6.308       32.342       48.760       27.637     1045.979     2377.494      763.801        0.303        0.209       42.798       36.695        0.735      330.846       -1.520      866.149
01/01/2021  01:12:00      -51.838       29.052        1.166       30.799       46.072       25.542      948.574     2122.591      652.371        0.363        0.186       59.424       33.377        0.315      330.843       -1.525      866.142
01/01/2021  01:13:00      -60.302       47.259        2.062       36.937       52.854       32.112     1364.332     2793.520     1031.208        0.553        0.259       76.614       41.041        0.287      330.876       -1.469      866.143
01/01/2021  01:14:00      -74.785       46.235        4.429       33.967       49.816       30.508     1153.767     2481.682      930.716        0.616        0.228       87.923       37.503        0.182      330.743       -1.688      866.140
01/01/2021  01:15:00      -69.180       46.487        1.568       34.396       55.583       32.592     1183.091     3089.508     1062.219        0.614        0.267       83.349       41.885        0.253      330.715       -1.734      866.133
01/01/2021  01:16:00      -14.955       25.263       14.769       44.051       50.752       30.738     1940.507     2575.737      944.800        0.327        0.273       29.358       40.069        1.863      330.723       -1.720      866.127
01/01/2021  01:17:00        7.356       16.876        9.784       35.249       54.366       30.847     1242.458     2955.631      951.551        0.279        0.257       18.409       41.763        5.146      330.699       -1.761      866.118
01/01/2021  01:18:00       11.871       29.422       15.890       30.821       49.105       28.064      949.941     2411.326      787.599        0.270        0.207       31.726       37.932        1.429      330.658       -1.827      866.111
01/01/2021  01:19:00        0.398       20.067        7.283       29.992       46.413       26.395      899.492     2154.192      696.707        0.210        0.188       20.071       34.961        3.034      330.629       -1.876      866.114
01/01/2021  01:20:00      -15.838       13.926        5.594       26.645       45.972       27.700      709.948     2113.401      767.300        0.203        0.180       21.090       34.129        2.619      330.641       -1.856      866.134
01/01/2021  01:21:00      -10.455       26.321        5.917       34.677       53.438       34.465     1202.510     2855.636     1187.816        0.304        0.262       28.322       37.647        1.767      330.705       -1.750      866.154
01/01/2021  01:22:00      -29.559       31.749       -0.697       35.913       50.664       30.037     1289.766     2566.850      902.225        0.332        0.238       43.379       35.397        0.666      330.917       -1.403      866.169
01/01/2021  01:23:00       -9.890       18.573        8.343       36.937       54.565       33.232     1364.374     2977.286     1104.351        0.298        0.272       21.042       42.973        4.171      330.817       -1.567      866.181
01/01/2021  01:24:00      -11.965       17.247       16.679       33.560       46.417       26.824     1126.269     2154.537      719.530        0.236        0.200       20.991       34.549        2.709      330.698       -1.763      866.189
01/01/2021  01:25:00      -37.036       14.761        8.593       41.354       51.379       30.112     1710.189     2639.849      906.705        0.346        0.263       39.869       37.392        0.880      330.732       -1.707      866.199
01/01/2021  01:26:00      -89.623       28.365        5.195       31.746       43.190       27.266     1007.786     1865.386      743.459        0.624        0.181       94.005       34.657        0.136      330.684       -1.785      866.213
01/01/2021  01:27:00      -41.283       25.695        8.269       50.235       48.225       27.498     2523.536     2325.606      756.136        0.402        0.280       48.626       33.387        0.471      330.826       -1.553      866.242
01/01/2021  01:28:00       -0.529       20.152       14.041       38.754       52.384       31.493     1501.866     2744.087      991.789        0.292        0.262       20.159       40.626        4.061      330.939       -1.367      866.254
01/01/2021  01:29:00      -22.239       15.733       10.197       39.553       59.417       31.750     1564.460     3530.339     1008.062        0.347        0.305       27.241       40.613        2.223      330.901       -1.429      866.261
01/01/2021  01:30:00      -27.836       20.125       21.271       33.528       47.031       27.022     1124.112     2211.877      730.206        0.285        0.203       34.350       34.461        1.007      330.855       -1.505      866.264
01/01/2021  01:31:00      -44.169       11.930       11.123       44.070       56.600       33.737     1942.133     3203.569     1138.214        0.425        0.314       45.752       40.636        0.789      330.859       -1.497      866.253
01/01/2021  01:32:00      -88.429        5.979       10.270       48.480       54.523       33.851     2350.290     2972.721     1145.857        0.721        0.323       88.631       33.646        0.144      330.732       -1.707      866.241
01/01/2021  01:33:00      -38.064       25.125       10.663       63.991       59.400       36.316     4094.893     3528.311     1318.849        0.557        0.447       45.608       42.862        0.883      330.641       -1.854      866.243
01/01/2021  01:34:00      -53.160        6.513        2.458       60.747       57.718       31.230     3690.140     3331.337      975.339        0.543        0.400       53.557       35.307        0.435      330.589       -1.941      866.253
01/01/2021  01:35:00     -104.209       38.934       -0.454       45.810       46.722       36.290     2098.572     2182.923     1316.980        0.899        0.280      111.244       28.914        0.068      330.545       -2.014      866.265
01/01/2021  01:36:00      -42.269       21.527       18.162       66.071       52.441       33.529     4365.384     2750.099     1124.212        0.541        0.412       47.435       38.345        0.653      330.472       -2.133      866.270
01/01/2021  01:37:00      -31.990       18.354       15.294       46.314       58.171       33.120     2144.941     3383.848     1096.961        0.411        0.331       36.882       38.144        1.070      330.488       -2.107      866.284
01/01/2021  01:38:00      -29.415       -0.985       20.141       48.600       47.978       26.234     2361.948     2301.921      688.242        0.331        0.268       29.432       32.969        1.255      330.478       -2.123      866.305
01/01/2021  01:39:00      -65.825       18.004       13.113       40.196       44.729       31.048     1615.739     2000.655      963.973        0.470        0.229       68.243       33.268        0.238      330.562       -1.986      866.321
01/01/2021  01:40:00      -39.897       14.662       16.743       52.568       53.303       31.493     2763.357     2841.157      991.817        0.434        0.330       42.506       39.613        0.869      330.535       -2.032      866.319
01/01/2021  01:41:00      -41.072       27.225       11.925       42.590       56.421       29.809     1813.867     3183.317      888.552        0.423        0.294       49.276       39.622        0.647      330.463       -2.149      866.305
01/01/2021  01:42:00      -77.448       25.926        2.822       38.230       48.234       30.276     1461.549     2326.564      916.625        0.569        0.235       81.673       35.756        0.192      330.568       -1.974      866.288
01/01/2021  01:43:00      -22.694       33.618       20.222       45.115       49.906       31.556     2035.379     2490.636      995.777        0.379        0.276       40.561       41.156        1.030      330.560       -1.989      866.281
01/01/2021  01:44:00      -25.783        7.839        8.928       41.021       49.672       29.952     1682.683     2467.347      897.102        0.293        0.252       26.948       37.843        1.972      330.518       -2.057      866.282
01/01/2021  01:45:00      -27.700        5.680       10.426       32.676       41.022       25.124     1067.749     1682.830      631.213        0.214        0.169       28.276       30.442        1.159      330.494       -2.097      866.298
01/01/2021  01:46:00      -12.860       20.524        9.798       44.361       43.943       29.010     1967.904     1930.975      841.568        0.271        0.237       24.220       32.463        1.796      330.470       -2.136      866.319
01/01/2021  01:47:00       -8.913        5.295       12.078       28.183       39.583       26.134      794.290     1566.784      683.004        0.165        0.152       10.367       30.584        8.703      330.409       -2.236      866.337
01/01/2021  01:48:00      -10.750        9.503       15.031       36.200       38.715       22.991     1310.411     1498.813      528.582        0.188        0.167       14.348       29.312        4.173      330.510       -2.071      866.343
01/01/2021  01:49:00      -77.470       14.315        5.455       43.734       47.450       26.885     1912.640     2251.511      722.805        0.556        0.244       78.781       33.687        0.183      330.582       -1.953      866.340
01/01/2021  01:50:00      -23.295       21.680       17.881       53.429       52.294       28.074     2854.621     2734.711      788.131        0.385        0.319       31.823       35.464        1.242      330.604       -1.915      866.330
01/01/2021  01:51:00      -38.556       14.468        1.848      181.149       41.441       88.198    32815.137     1717.361     7778.869        2.200        2.116       41.181      121.019        8.636      330.597       -1.927      866.315
01/01/2021  01:52:00      -37.452       19.037        3.831      171.319       44.376       84.791    29350.177     1969.256     7189.565        2.014        1.925       42.013      114.038        7.368      330.580       -1.955      866.311
01/01/2021  01:53:00      -45.575       31.006       11.489       37.865       55.619       30.892     1433.789     3093.441      954.341        0.432        0.274       55.122       41.515        0.567      330.544       -2.016      866.302
01/01/2021  01:54:00      -59.175       34.453        7.202       28.129       46.148       27.134      791.268     2129.603      736.256        0.420        0.183       68.474       36.234        0.280      330.525       -2.046      866.297
01/01/2021  01:55:00      -43.088       32.362       -1.218      174.639       48.956       88.788    30498.618     2396.717     7883.226        2.183        2.039       53.888      117.672        4.768      330.545       -2.013      866.297
01/01/2021  01:56:00      -44.534       18.095        9.796       45.210       46.692       29.869     2043.923     2180.114      892.145        0.376        0.256       48.070       35.991        0.561      330.575       -1.965      866.287
01/01/2021  01:57:00      -60.645       11.260        9.515       43.310       45.578       32.490     1875.752     2077.361     1055.572        0.445        0.250       61.681       35.980        0.340      330.415       -2.227      866.275
01/01/2021  01:58:00      -32.434       18.273       14.313       47.068       46.747       29.735     2215.362     2185.295      884.190        0.344        0.264       37.227       36.547        0.964      330.414       -2.229      866.278
01/01/2021  01:59:00      -22.893       25.833       12.809       43.177       56.111       29.685     1864.267     3148.454      881.198        0.362        0.295       34.517       39.164        1.287      330.465       -2.146      866.281
01/01/2021  02:00:00      -53.817        7.022       13.987       39.735       49.729       28.483     1578.867     2472.964      811.280        0.400        0.243       54.273       34.057        0.394      330.511       -2.069      866.286
01/01/2021  02:01:00      -61.350       17.882       17.756       54.302       55.006       31.436     2948.732     3025.648      988.192        0.568        0.348       63.903       39.052        0.373      330.539       -2.023      866.292
01/01/2021  02:02:00      -35.145       16.366       16.263       38.028       52.073       31.918     1446.118     2711.640     1018.747        0.347        0.259       38.769       37.466        0.934      330.540       -2.022      866.297
01/01/2021  02:03:00      -48.003       13.485       13.438       32.223       45.338       25.652     1038.337     2055.518      658.028        0.321        0.188       49.861       31.540        0.400      330.509       -2.073      866.301
01/01/2021  02:04:00      -72.642       27.099       10.218       47.600       46.342       27.310     2265.807     2147.608      745.850        0.564        0.258       77.532       35.479        0.209      330.511       -2.071      866.288
01/01/2021  02:05:00      -66.413       36.901        4.691       42.958       55.871       30.403     1845.410     3121.606      924.369        0.584        0.295       75.976       38.706        0.260      330.477       -2.126      866.268
01/01/2021  02:06:00      -88.191       41.725        2.778      143.440       48.305       67.460    20575.011     2333.404     4550.811        1.849        1.373       97.564       91.038        0.871      330.530       -2.038      866.253
01/01/2021  02:07:00      -75.764       47.647       10.000       43.390       48.698       34.646     1882.721     2371.498     1200.340        0.678        0.273       89.501       31.235        0.122      330.533       -2.033      866.245
01/01/2021  02:08:00      -61.496       29.059        7.892       49.447       50.741       30.814     2445.007     2574.699      949.529        0.533        0.298       68.016       29.140        0.184      330.485       -2.113      866.249
01/01/2021  02:09:00      -10.129       30.623        7.958       38.623       44.007       29.157     1491.757     1936.634      850.119        0.269        0.214       32.254       34.319        1.132      330.472       -2.133      866.249
01/01/2021  02:10:00      -25.759       40.103       -2.244       32.189       45.737       27.152     1036.116     2091.840      737.250        0.307        0.193       47.664       32.719        0.471      330.509       -2.072      866.247
01/01/2021  02:11:00      -31.257       22.266       -4.247      178.872       38.858       89.595    31995.170     1509.962     8027.188        2.150        2.077       38.376      120.207        9.811      330.583       -1.949      866.249
01/01/2021  02:12:00       40.692       16.740        3.412      272.348       54.156      134.762    74173.562     2932.881    18160.847        4.859        4.763       44.000      186.320       17.931      330.625       -1.879      866.257
01/01/2021  02:13:00      -33.675       22.869        2.623       31.161       47.480       25.724      971.004     2254.369      661.747        0.277        0.194       40.706       30.913        0.577      330.650       -1.841      866.272
01/01/2021  02:14:00      -12.434       23.086        7.960       32.672       41.322       23.242     1067.476     1707.541      540.175        0.203        0.166       26.221       29.482        1.264      330.665       -1.817      866.271
01/01/2021  02:15:00        1.708       44.781       11.056       25.617       48.146       25.886      656.219     2318.067      670.075        0.289        0.182       44.813       34.200        0.582      330.759       -1.662      866.258
01/01/2021  02:16:00       22.968       65.899        3.569       34.836       48.383       29.566     1213.524     2340.879      874.176        0.465        0.221       69.787       35.261        0.255      331.071       -1.152      866.245
01/01/2021  02:17:00       29.044       59.310        8.165       40.397       44.413       29.271     1631.915     1972.504      856.785        0.444        0.223       66.039       34.991        0.281      331.119       -1.072      866.237
01/01/2021  02:18:00       18.094       50.903        0.771       49.858       43.185       32.001     2485.849     1864.941     1024.055        0.415        0.269       54.023       29.507        0.298      331.102       -1.099      866.226
01/01/2021  02:19:00       27.247       49.737       -8.957      205.075       46.920      100.003    42055.953     2201.472    10000.546        2.877        2.713       56.711      137.384        5.869      331.103       -1.097      866.215
01/01/2021  02:20:00       14.216       15.156       15.503       40.488       48.861       32.150     1639.270     2387.363     1033.638        0.287        0.253       20.779       34.940        2.827      330.857       -1.500      866.197
01/01/2021  02:21:00        7.720       15.753       13.086       23.339       39.539       22.801      544.716     1563.317      519.868        0.155        0.131       17.543       30.416        3.006      330.798       -1.597      866.170
01/01/2021  02:22:00        9.481       23.773       11.911       23.445       35.861       21.074      549.649     1286.000      444.130        0.154        0.114       25.594       26.067        1.037      331.014       -1.244      866.154
01/01/2021  02:23:00       -1.368       23.654       15.836       24.191       42.113       22.977      585.205     1773.545      527.944        0.185        0.144       23.694       32.225        1.850      331.037       -1.205      866.144
01/01/2021  02:24:00      -31.861       27.674       10.070       39.042       42.014       25.646     1524.272     1765.147      657.696        0.291        0.197       42.202       32.929        0.609      330.881       -1.461      866.153
01/01/2021  02:25:00      -12.263       14.798        7.708       43.159       44.998       26.268     1862.698     2024.784      690.031        0.250        0.229       19.219       32.414        2.845      330.842       -1.526      866.173
01/01/2021  02:26:00      -42.144        5.853       13.151       45.304       45.562       29.380     2052.425     2075.908      863.172        0.349        0.250       42.548       35.159        0.683      330.806       -1.584      866.188
01/01/2021  02:27:00      -73.412       -4.811        0.229      142.148       43.078       73.852    20205.938     1855.735     5454.108        1.646        1.376       73.569       91.963        1.563      330.954       -1.341      866.196
01/01/2021  02:28:00      -46.710       12.797        9.614       47.897       59.535       31.790     2294.087     3544.359     1010.621        0.464        0.342       48.432       35.717        0.544      330.876       -1.468      866.190
01/01/2021  02:29:00      -41.396       12.215       18.213       50.668       54.577       31.370     2567.293     2978.656      984.097        0.436        0.327       43.160       35.621        0.681      330.828       -1.551      866.172
01/01/2021  02:30:00      -50.919       -1.853       10.556       47.387       47.189       36.529     2245.511     2226.789     1334.352        0.426        0.290       50.952       30.695        0.363      330.837       -1.534      866.160
01/01/2021  02:31:00       -0.733       11.066       15.077      167.731       49.506       82.323    28133.549     2450.837     6777.143        1.885        1.868       11.090      109.855       98.123      330.923       -1.392      866.171
01/01/2021  02:32:00      -26.901        0.223       14.373       55.190       54.525       33.566     3045.925     2972.933     1126.707        0.404        0.357       26.902       38.377        2.035      330.893       -1.441      866.197
01/01/2021  02:33:00      -34.821       -5.996       13.911       62.557       57.418       38.974     3913.324     3296.822     1518.965        0.508        0.436       35.333       37.987        1.156      330.750       -1.676      866.212
01/01/2021  02:34:00      -85.614        0.840       10.373       54.561       52.059       31.819     2976.947     2710.093     1012.427        0.707        0.335       85.619       33.759        0.155      330.556       -1.995      866.235
01/01/2021  02:35:00      -74.279        6.534        5.451      179.937       54.002       91.218    32377.428     2916.246     8320.700        2.459        2.181       74.566      114.360        2.352      330.505       -2.076      866.252
01/01/2021  02:36:00      -89.915       34.662       12.140       57.294       61.452       34.543     3282.596     3776.347     1193.245        0.884        0.413       96.365       36.827        0.146      330.437       -2.190      866.276
01/01/2021  02:37:00      -14.751        3.623        6.913       60.683       53.062       33.948     3682.391     2815.610     1152.498        0.396        0.383       15.190       40.557        7.129      330.447       -2.174      866.290
01/01/2021  02:38:00      -52.177       17.882       13.960       69.833       57.324       37.476     4876.709     3286.004     1404.415        0.640        0.478       55.156       46.201        0.702      330.343       -2.345      866.298
01/01/2021  02:39:00      -15.046       32.493       19.461       49.140       51.085       32.515     2414.739     2609.695     1057.252        0.387        0.304       35.808       40.791        1.298      330.278       -2.452      866.304
01/01/2021  02:40:00      -53.313       35.501        7.417       40.918       50.235       28.892     1674.267     2523.521      834.725        0.459        0.252       64.052       37.366        0.340      330.174       -2.623      866.300
01/01/2021  02:41:00      -48.858       23.358       17.274       57.136       56.269       32.454     3264.557     3166.145     1053.291        0.536        0.374       54.155       39.731        0.538      330.140       -2.679      866.287
01/01/2021  02:42:00      -52.949        9.255        5.430       41.652       38.787       24.692     1734.929     1504.424      609.693        0.338        0.192       53.752       27.166        0.255      330.218       -2.550      866.288
01/01/2021  02:43:00      -69.295       23.098        7.976       45.887       50.078       28.073     2105.580     2507.792      788.072        0.540        0.270       73.043       34.542        0.224      330.224       -2.541      866.306
01/01/2021  02:44:00      -76.443       61.465        4.314      220.256       48.473      109.268    48512.775     2349.669    11939.558        3.621        3.140       98.090      147.718        2.268      330.245       -2.503      866.327
01/01/2021  02:45:00     -100.562       57.094        4.235       46.912       40.133       28.039     2200.691     1610.620      786.207        0.899        0.230      115.640       28.247        0.060      330.180       -2.611      866.355
01/01/2021  02:46:00     -130.760       47.222       -0.044       49.555       45.486       31.343     2455.728     2069.008      982.374        1.242        0.275      139.025       35.814        0.066      330.234       -2.524      866.389
01/01/2021  02:47:00      -74.458       16.644        2.885       51.054       45.298       30.994     2606.516     2051.932      960.621        0.572        0.281       76.296       35.317        0.214      330.257       -2.487      866.403
01/01/2021  02:48:00      -59.259       37.457       10.571       40.717       51.433       30.327     1657.846     2645.324      919.726        0.512        0.261       70.105       34.357        0.240      330.241       -2.513      866.415
01/01/2021  02:49:00      -72.295       56.932        3.870       41.333       46.064       26.908     1708.453     2121.872      724.041        0.652        0.228       92.020       34.878        0.144      330.259       -2.482      866.412
01/01/2021  02:50:00      -83.392       41.333       -7.185       29.868       44.604       27.780      892.079     1989.528      771.741        0.618        0.183       93.073       33.334        0.128      330.340       -2.349      866.406
01/01/2021  02:51:00     -100.380       55.375       -0.754       37.127       46.640       29.135     1378.389     2175.333      848.867        0.877        0.220      114.641       33.774        0.087      330.377       -2.290      866.402
01/01/2021  02:52:00      -85.603       44.801       -1.985       36.355       42.177       30.070     1321.711     1778.887      904.208        0.667        0.200       96.618       30.589        0.100      330.439       -2.188      866.401
01/01/2021  02:53:00      -71.141       14.461       -4.931      132.256       46.520       67.725    17491.765     2164.142     4586.735        1.476        1.212       72.596       81.535        1.261      330.408       -2.237      866.400
01/01/2021  02:54:00      -76.898       12.022        5.963       50.898       50.511       41.578     2590.609     2551.350     1728.737        0.648        0.344       77.832       38.600        0.246      330.398       -2.254      866.389
01/01/2021  02:55:00      -68.971       27.655       12.110       72.716       53.889       34.750     5287.577     2903.981     1207.562        0.753        0.470       74.308       40.262        0.294      330.392       -2.266      866.377
01/01/2021  02:56:00     -105.621        9.825       -3.014      241.886       59.784      120.011    58508.603     3574.072    14402.585        4.386        3.824      106.077      162.308        2.341      330.512       -2.067      866.347
01/01/2021  02:57:00      -24.773       18.037       18.585       49.884       59.953       37.154     2488.407     3594.414     1380.424        0.437        0.373       30.643       40.728        1.766      330.419       -2.221      866.320
01/01/2021  02:58:00     -100.304      -23.966        3.899       71.403       58.746       35.440     5098.373     3451.093     1255.988        1.023        0.490      103.127       37.584        0.133      330.490       -2.103      866.304
01/01/2021  02:59:00      -74.395       -3.736       -2.800      251.255       59.537      115.989    63128.952     3544.673    13453.426        4.282        4.006       74.488      157.117        4.449      330.586       -1.946      866.294
01/01/2021  03:00:00     -154.408      -14.486      -18.156      260.173       63.293      128.141    67689.970     4005.973    16420.143        5.623        4.406      155.086      170.779        1.213      330.525       -2.047      866.292
01/01/2021  03:01:00     -155.825      -28.545      -14.853      177.981       50.379       92.083    31677.407     2538.072     8479.288        3.400        2.135      158.418      115.045        0.527      330.464       -2.146      866.292
01/01/2021  03:02:00     -150.396       -9.410       -9.424      269.473       57.911      129.829    72615.551     3353.688    16855.634        5.779        4.641      150.690      178.636        1.405      330.418       -2.221      866.283
01/01/2021  03:03:00     -168.468      -31.220      -10.913      173.034       57.780       78.546    29940.743     3338.582     6169.522        3.445        1.972      171.336      100.004        0.341      330.282       -2.448      866.266
01/01/2021  03:04:00     -216.634      -20.760       -5.947       74.874       50.840       40.616     5606.063     2584.695     1649.632        2.862        0.492      217.627       17.539        0.006      330.157       -2.652      866.241
01/01/2021  03:05:00     -187.185      -28.882        0.498       74.017       62.849       45.130     5478.546     3949.996     2036.739        2.367        0.573      189.400       37.144        0.038      330.159       -2.648      866.220
01/01/2021  03:06:00     -122.039      -10.450       -2.431       81.977       56.354       39.383     6720.164     3175.738     1550.991        1.323        0.572      122.486       38.581        0.099      330.159       -2.647      866.206
01/01/2021  03:07:00     -120.501        7.764       -3.620      161.972       70.906       82.468    26235.046     5027.676     6801.030        2.632        1.903      120.751      100.640        0.695      330.255       -2.489      866.211
01/01/2021  03:08:00     -108.487       -4.479        8.815       55.165       55.518       31.420     3043.211     3082.211      987.187        0.949        0.356      108.579       33.117        0.093      330.265       -2.474      866.221
01/01/2021  03:09:00      -99.973       31.016      -11.870      156.329       34.680       79.125    24438.840     1202.721     6260.744        2.149        1.595      104.674      105.241        1.011      330.276       -2.455      866.238
01/01/2021  03:10:00      -79.736       39.891        1.471       37.944       47.756       29.801     1439.718     2280.660      888.121        0.628        0.230       89.157       31.986        0.129      330.255       -2.489      866.265
01/01/2021  03:11:00     -108.400       43.223       -8.835       37.473       44.471       29.400     1404.255     1977.666      864.361        0.897        0.212      116.699       29.705        0.065      330.168       -2.632      866.290
01/01/2021  03:12:00       -0.879        0.076       11.148       59.342       46.945       30.051     3521.467     2203.863      903.033        0.338        0.331        0.882       34.517     1532.126      330.205       -2.569      866.319
01/01/2021  03:13:00      -89.810       25.641        3.490       85.267       45.750       35.068     7270.523     2093.021     1229.751        0.966        0.530       93.399       44.105        0.223      330.238       -2.517      866.342
01/01/2021  03:14:00     -172.597       31.338        2.890       51.674       44.898       31.132     2670.191     2015.854      969.203        1.822        0.283      175.419       23.509        0.018      330.202       -2.578      866.356
01/01/2021  03:15:00      -68.900       32.845        5.769      193.415       58.934       88.861    37409.375     3473.158     7896.208        2.731        2.439       76.328      118.000        2.390      330.257       -2.485      866.365
01/01/2021  03:16:00     -126.062       24.092       -4.815      236.363       44.308      111.627    55867.236     1963.190    12460.559        4.338        3.515      128.343      156.459        1.486      330.246       -2.502      866.365
01/01/2021  03:17:00      -80.311       35.530       17.479      172.029       45.771       80.974    29593.805     2095.025     6556.797        2.312        1.912       87.820      102.595        1.365      330.179       -2.614      866.369
01/01/2021  03:18:00      -74.012       -1.997       10.607       44.862       48.975       27.226     2012.622     2398.520      741.239        0.537        0.258       74.039       31.098        0.176      330.198       -2.582      866.353
01/01/2021  03:19:00      -62.792       16.859       11.595       49.567       45.774       31.469     2456.875     2095.231      990.300        0.495        0.277       65.016       35.932        0.305      330.199       -2.581      866.337
01/01/2021  03:20:00     -105.713       44.846       -3.334      135.976       48.875       66.989    18489.594     2388.779     4487.465        1.928        1.268      114.832       87.100        0.575      330.189       -2.598      866.320
01/01/2021  03:21:00      -64.258       14.237        9.277       59.040       43.658       33.250     3485.664     1906.041     1105.546        0.546        0.325       65.817       37.421        0.323      330.172       -2.626      866.300
01/01/2021  03:22:00     -103.517       34.245        7.754       31.419       53.623       26.979      987.166     2875.386      727.879        0.827        0.230      109.034       30.173        0.077      330.190       -2.596      866.287
01/01/2021  03:23:00      -46.757       -3.387        8.085       54.395       45.529       30.434     2958.847     2072.863      926.235        0.411        0.298       46.880       37.138        0.628      330.222       -2.542      866.301
01/01/2021  03:24:00      -58.402       18.767        5.455       42.722       38.218       28.442     1825.163     1460.629      808.938        0.394        0.205       61.343       29.813        0.236      330.165       -2.636      866.313
01/01/2021  03:25:00     -101.720       20.663        8.605       52.611       41.033       30.228     2767.919     1683.744      913.703        0.811        0.268      103.797       32.110        0.096      330.193       -2.591      866.320
01/01/2021  03:26:00      -88.863       14.796        2.079       55.416       39.279       24.494     3070.986     1542.812      599.963        0.667        0.261       90.087       28.667        0.101      330.156       -2.652      866.316
01/01/2021  03:27:00     -115.438       22.030        3.721       42.696       40.903       27.320     1822.941     1673.016      746.370        0.903        0.212      117.522       28.167        0.057      330.190       -2.596      866.313
01/01/2021  03:28:00     -104.997       31.663        1.093       46.493       40.019       28.365     2161.628     1601.507      804.567        0.830        0.228      109.667       31.765        0.084      330.161       -2.645      866.331
01/01/2021  03:29:00     -110.971       61.000       -3.664       46.439       47.003       28.024     2156.589     2209.298      785.352        1.060        0.258      126.632       29.150        0.053      330.148       -2.664      866.341
01/01/2021  03:30:00     -117.176       63.976        9.563       41.778       43.103       27.393     1745.431     1857.901      750.402        1.113        0.218      133.503       30.410        0.052      330.071       -2.791      866.344
01/01/2021  03:31:00      -75.215       35.612       12.216       55.521       46.130       31.504     3082.579     2127.970      992.533        0.664        0.310       83.220       34.062        0.168      330.098       -2.746      866.347
01/01/2021  03:32:00      -73.406       25.761       -5.514      166.937       41.541       80.929    27868.085     1725.642     6549.493        2.111        1.807       77.795      107.181        1.898      330.107       -2.732      866.358
01/01/2021  03:33:00      -10.380       11.610        9.660       46.297       46.039       26.815     2143.379     2119.547      719.023        0.266        0.249       15.574       31.136        3.997      330.104       -2.737      866.373
01/01/2021  03:34:00       -6.395        7.373       -7.510       39.292       40.416       26.861     1543.859     1633.454      721.531        0.202        0.195        9.760       31.872       10.665      330.176       -2.620      866.393
01/01/2021  03:35:00      -10.390       17.614        8.557      132.273       39.129       64.949    17496.048     1531.060     4218.401        1.186        1.162       20.450       86.619       17.941      330.141       -2.676      866.414
01/01/2021  03:36:00      -14.140      -19.628       11.862       35.438       42.539       23.323     1255.827     1809.537      543.980        0.217        0.180       24.191       22.514        0.866      330.176       -2.618      866.429
01/01/2021  03:37:00       10.631       15.686       11.542       32.485       38.665       24.074     1055.250     1494.975      579.578        0.181        0.156       18.950       28.548        2.270      330.148       -2.665      866.441
01/01/2021  03:38:00       -5.141      -10.871        5.126       26.635       36.575       23.894      709.403     1337.717      570.941        0.139        0.131       12.025       21.350        3.152      330.144       -2.671      866.450
01/01/2021  03:39:00       20.060       18.011       -5.705      168.427       48.242       81.334    28367.609     2327.294     6615.283        1.903        1.866       26.960      112.175       17.313      330.122       -2.706      866.455
01/01/2021  03:40:00      -20.715      -21.941        7.219       36.230       39.817       28.318     1312.641     1585.421      801.901        0.233        0.185       30.175       26.069        0.746      330.132       -2.692      866.461
01/01/2021  03:41:00      -52.398       -2.026        1.752      202.875       38.957       99.214    41158.079     1517.665     9843.442        2.762        2.626       52.437      136.750        6.801      330.184       -2.605      866.454
01/01/2021  03:42:00      -47.903      -18.605        1.966       42.787       45.206       27.372     1830.760     2043.559      749.231        0.363        0.231       51.389       34.066        0.439      330.166       -2.637      866.446
01/01/2021  03:43:00      -67.126      -15.935        4.813       34.288       41.148       24.982     1175.657     1693.150      624.094        0.414        0.175       68.991       27.453        0.158      330.113       -2.722      866.441
01/01/2021  03:44:00      -57.933      -17.052        8.237       46.461       38.994       25.084     2158.589     1520.500      629.195        0.401        0.215       60.391       31.719        0.276      330.102       -2.740      866.447
01/01/2021  03:45:00      -77.001      -13.827        3.636       51.296       40.722       24.699     2631.317     1658.265      610.064        0.552        0.245       78.233       30.508        0.152      330.090       -2.760      866.447
01/01/2021  03:46:00     -121.330       10.629       -2.630       32.387       42.277       26.326     1048.895     1787.366      693.059        0.918        0.176      121.795       26.865        0.049      329.913       -3.050      866.465
01/01/2021  03:47:00      -13.112        6.578       15.508       45.623       41.036       27.726     2081.466     1683.927      768.745        0.249        0.227       14.669       30.543        4.335      329.968       -2.960      866.481
01/01/2021  03:48:00      -42.056       28.142        5.972      149.781       55.897       72.227    22434.397     3124.442     5216.735        1.668        1.539       50.603       91.455        3.266      329.989       -2.925      866.500
01/01/2021  03:49:00      -39.409       24.657       10.901       49.413       37.784       25.833     2441.639     1427.597      667.357        0.341        0.227       46.487       26.880        0.334      329.865       -3.128      866.507
01/01/2021  03:50:00      -91.700        5.835        0.308      159.249       33.481       79.428    25360.338     1120.974     6308.814        2.061        1.640       91.885       98.825        1.157      329.934       -3.015      866.503
01/01/2021  03:51:00     -135.097        8.961       -3.195       29.475       35.473       20.750      868.802     1258.308      430.573        1.045        0.128      135.394       23.210        0.029      329.829       -3.187      866.504
01/01/2021  03:52:00      -68.017       22.312        4.541       42.335       35.484       21.047     1792.256     1259.098      442.987        0.432        0.175       71.583       22.948        0.103      329.839       -3.171      866.503
01/01/2021  03:53:00      -11.153       19.377       16.822       30.618       43.220       28.202      937.441     1867.952      795.366        0.219        0.180       22.358       29.717        1.767      329.833       -3.181      866.501
01/01/2021  03:54:00      -87.957       17.623       -6.481      172.850       34.578       82.720    29877.223     1195.628     6842.627        2.299        1.896       89.706      111.554        1.546      329.880       -3.102      866.506
01/01/2021  03:55:00      -51.237       10.394        5.502       41.812       47.539       28.349     1748.277     2259.995      803.686        0.379        0.241       52.280       34.176        0.427      329.843       -3.164      866.504
01/01/2021  03:56:00      -37.716        5.616        5.826       70.396       41.423       26.923     4955.594     1715.862      724.845        0.444        0.370       38.132       34.644        0.825      329.912       -3.051      866.505
01/01/2021  03:57:00      -49.786       12.628       -5.276      274.545       35.993      126.548    75374.727     1295.522    16014.416        4.766        4.634       51.363      181.162       12.440      330.004       -2.897      866.513
01/01/2021  03:58:00      -51.754       14.171        8.473       46.015       38.161       25.983     2117.376     1456.293      675.104        0.360        0.212       53.659       28.155        0.275      329.908       -3.057      866.525
01/01/2021  03:59:00      -59.930       23.962       -4.632      186.408       45.318       90.553    34747.766     2053.711     8199.826        2.458        2.250       64.543      120.485        3.485      329.938       -3.008      866.548
01/01/2021  04:00:00      -14.618       17.519       -7.922      329.442       39.611      159.841   108531.952     1569.003    25549.011        6.809        6.782       22.817      224.709       96.993      330.008       -2.890      866.566
01/01/2021  04:01:00      -98.053       11.414        4.575       30.947       37.419       22.752      957.744     1400.151      517.656        0.632        0.144       98.715       25.819        0.068      329.863       -3.132      866.571
01/01/2021  04:02:00       20.460       22.647       14.170      204.726       37.762       96.923    41912.672     1425.964     9394.003        2.692        2.637       30.521      133.401       19.104      329.898       -3.072      866.581
01/01/2021  04:03:00      -46.537       -7.294       -3.105      222.892       33.093      105.111    49680.846     1095.159    11048.281        3.201        3.091       47.106      148.775        9.975      329.800       -3.233      866.583
01/01/2021  04:04:00      -17.734       -1.214       -2.037      286.698       36.199      137.608    82195.594     1310.384    18935.858        5.136        5.122       17.775      194.289      119.470      329.931       -3.016      866.574
01/01/2021  04:05:00      -30.683      -12.567       -4.328      186.490       39.286       90.581    34778.435     1543.351     8204.960        2.281        2.226       33.156      126.102       14.465      329.897       -3.074      866.571
01/01/2021  04:06:00      -28.598      -27.564       -5.813       22.950       32.466       16.867      526.687     1054.028      284.511        0.174        0.093       39.719       19.347        0.237      329.943       -3.000      866.564
01/01/2021  04:07:00      -20.978       -5.870       -1.351       31.757       36.250       19.208     1008.489     1314.098      368.933        0.158        0.135       21.784       22.187        1.037      330.034       -2.851      866.557
01/01/2021  04:08:00      -29.657        5.842        3.312       22.575       28.751       19.442      509.640      826.628      378.001        0.132        0.086       30.227       21.224        0.493      329.960       -2.971      866.553
01/01/2021  04:09:00      -63.929       25.351       -4.537       19.816       32.250       19.394      392.691     1040.093      376.134        0.328        0.090       68.772       25.162        0.134      329.905       -3.063      866.546
01/01/2021  04:10:00      -33.860       -0.843       -0.098       24.134       35.176       20.589      582.437     1237.357      423.898        0.169        0.112       33.870       25.661        0.574      329.876       -3.112      866.544
01/01/2021  04:11:00      -22.319        2.242       12.915       31.261       33.297       19.396      977.265     1108.702      376.206        0.157        0.123       22.431       23.553        1.102      329.910       -3.054      866.525
01/01/2021  04:12:00      -69.192        7.381       -1.322       21.396       34.516       18.824      457.804     1191.379      354.357        0.342        0.100       69.584       21.903        0.099      329.907       -3.060      866.491
01/01/2021  04:13:00      -48.346       15.648       -5.699      172.625       29.197       84.171    29799.492      852.449     7084.809        2.017        1.887       50.816      117.329        5.331      329.911       -3.051      866.446
01/01/2021  04:14:00      -27.779        9.713        4.201       28.546       31.586       16.643      814.881      997.652      276.979        0.149        0.104       29.428       21.759        0.547      329.860       -3.136      866.408
01/01/2021  04:15:00       11.383       -6.728       -3.136       14.385       21.739       13.398      206.926      472.569      179.517        0.052        0.043       13.223       15.352        1.348      330.034       -2.852      866.397
01/01/2021  04:16:00       33.871        1.632      -13.595      269.976       25.470      130.392    72887.293      648.701    17002.099        4.592        4.527       33.910      186.612       30.285      330.257       -2.484      866.394
01/01/2021  04:17:00       54.854       42.792      -12.347      173.922       37.898       84.723    30248.744     1436.273     7178.067        2.192        1.943       69.571      118.311        2.892      330.433       -2.196      866.403
01/01/2021  04:18:00       58.763       48.126      -18.134      342.127       36.706      166.391   117050.991     1347.346    27685.842        7.606        7.304       75.956      236.453        9.691      330.463       -2.143      866.420
01/01/2021  04:19:00        6.067       26.965       12.137       18.899       31.397       18.168      357.156      985.756      330.082        0.129        0.084       27.639       21.928        0.629      330.145       -2.670      866.430
01/01/2021  04:20:00      -10.163        1.994        3.116       17.034       25.747       15.225      290.148      662.899      231.802        0.065        0.059       10.357       19.373        3.499      330.031       -2.856      866.438
01/01/2021  04:21:00       24.615       16.089      -16.010      298.359       23.560      140.713    89018.340      555.084    19800.051        5.522        5.469       29.407      204.016       48.131      330.035       -2.846      866.445
01/01/2021  04:22:00      -19.159       -2.966        1.122       13.881       24.709       11.800      192.688      610.529      139.242        0.066        0.047       19.387       16.311        0.708      329.891       -3.086      866.446
01/01/2021  04:23:00       14.181        3.167       -1.042      188.646       27.995       90.900    35587.382      783.710     8262.788        2.241        2.232       14.530      128.930       78.734      329.954       -2.982      866.437
01/01/2021  04:24:00        3.427        1.090       -6.996      185.774       21.001       88.927    34511.801      441.042     7908.018        2.145        2.143        3.596      127.482     1256.644      330.018       -2.876      866.423
01/01/2021  04:25:00      -20.242       16.778      -10.420      224.395       22.620      104.638    50353.174      511.653    10949.122        3.129        3.091       26.291      152.256       33.538      330.019       -2.873      866.424
01/01/2021  04:26:00      -22.709        8.122       -1.900      163.866       32.571       76.958    26852.009     1060.901     5922.563        1.720        1.692       24.118      108.973       20.416      329.985       -2.932      866.419
01/01/2021  04:27:00      -27.518        1.431        2.412      211.537       36.636      104.879    44747.988     1342.232    10999.681        2.892        2.854       27.555      144.317       27.431      329.895       -3.078      866.421
01/01/2021  04:28:00      -37.781      -22.447       -1.837      200.403       32.147       97.507    40161.262     1033.457     9507.599        2.631        2.535       43.947      136.173        9.601      329.922       -3.033      866.435
01/01/2021  04:29:00      -14.963      -13.953       10.189       37.398       29.661       21.965     1398.633      879.795      482.469        0.164        0.138       20.459       18.012        0.775      329.853       -3.147      866.467
01/01/2021  04:30:00       -3.770       -2.924       -7.043      246.958       30.263      118.557    60988.453      915.822    14055.662        3.800        3.798        4.771      167.035     1225.487      329.889       -3.087      866.500
01/01/2021  04:31:00       -3.566       -8.525       -2.707      227.061       36.803      113.004    51556.831     1354.458    12769.974        3.287        3.284        9.241      156.601      287.171      329.890       -3.085      866.526
01/01/2021  04:32:00      -44.611       22.503      -13.653      231.203       20.032      110.070    53454.926      401.269    12115.343        3.431        3.299       49.965      158.546       10.069      329.746       -3.319      866.529
01/01/2021  04:33:00      -51.614       36.878       -1.545       23.941       28.686       17.125      573.157      822.904      293.255        0.286        0.084       63.435       22.525        0.126      329.873       -3.114      866.512
01/01/2021  04:34:00       31.158        1.667       -4.100      289.267       36.450      139.067    83675.683     1328.566    19339.725        5.265        5.217       31.202      196.389       39.615      329.919       -3.037      866.498
01/01/2021  04:35:00       27.980       -4.088       -9.096      237.274       24.262      114.540    56298.869      588.634    13119.381        3.543        3.500       28.277      163.769       33.542      329.943       -2.999      866.493
01/01/2021  04:36:00        5.008        4.156       -3.409      186.003       28.213       91.079    34597.080      795.973     8295.469        2.186        2.184        6.508      128.323      388.837      329.885       -3.095      866.501
01/01/2021  04:37:00        2.049      -18.613       -1.197      179.397       18.686       86.042    32183.224      349.176     7403.293        2.014        1.997       18.726      122.714       42.945      330.034       -2.851      866.513
01/01/2021  04:38:00       -3.424       19.104        0.811       13.498       17.546       13.245      182.200      307.861      175.428        0.052        0.033       19.409       12.041        0.385      329.836       -3.174      866.531
01/01/2021  04:39:00       30.902        2.095       -7.608      153.162       27.863       73.928    23458.501      776.352     5465.411        1.535        1.485       30.973      103.401       11.145      329.747       -3.320      866.537
01/01/2021  04:40:00       46.104      -13.660      -17.852      294.220       19.547      141.922    86565.326      382.082    20141.817        5.484        5.354       48.085      203.715       17.948      329.701       -3.394      866.526
01/01/2021  04:41:00       10.573       16.334      -21.198      316.490       19.934      152.701   100166.127      397.366    23317.724        6.233        6.194       19.457      218.783      126.432      329.726       -3.354      866.520
01/01/2021  04:42:00      -25.279        3.298       -6.577       31.058       32.668       17.231      964.629     1067.215      296.901        0.151        0.116       25.493       18.719        0.539      329.681       -3.430      866.524
01/01/2021  04:43:00       17.274      -29.132       -9.132      185.430       21.057       89.424    34384.315      443.408     7996.701        2.202        2.141       33.868      127.479       14.168      329.833       -3.179      866.546
01/01/2021  04:44:00       26.701        4.243      -21.535      334.777       21.902      159.854   112075.924      479.707    25553.183        6.962        6.905       27.036      230.531       72.707      329.888       -3.085      866.575
01/01/2021  04:45:00        3.629        2.165        1.973      154.508       18.456       75.286    23872.807      340.638     5668.051        1.495        1.494        4.226      106.796      638.765      329.687       -3.420      866.586
01/01/2021  04:46:00       18.757       -5.970       -8.679      180.851       10.890       85.581    32707.102      118.591     7324.179        2.030        2.007       19.684      123.873       39.602      329.729       -3.350      866.587
01/01/2021  04:47:00       11.439       -9.611       -0.686      135.031       13.604       66.722    18233.469      185.056     4451.809        1.154        1.144       14.941       93.979       39.565      329.787       -3.255      866.583
01/01/2021  04:48:00        3.145       13.978       -0.322        8.929       13.174        8.524       79.721      173.543       72.653        0.027        0.016       14.327        6.417        0.201      329.682       -3.428      866.574
01/01/2021  04:49:00       42.758       19.413      -17.333      340.069       12.588      162.281   115646.728      158.450    26335.062        7.229        7.107       46.959      234.588       24.956      329.827       -3.186      866.568
01/01/2021  04:50:00       24.336        9.725      -19.559      275.463       24.352      132.593    75879.884      593.030    17580.875        4.754        4.703       26.207      189.978       52.551      329.679       -3.428      866.574
01/01/2021  04:51:00       15.471       20.248       -1.229      191.572       19.617       93.109    36699.784      384.838     8669.202        2.319        2.288       25.482      132.700       27.119      329.580       -3.594      866.585
01/01/2021  04:52:00      -12.917        9.257        2.270       30.059       25.549       17.753      903.569      652.758      315.183        0.106        0.094       15.891       16.042        1.019      329.562       -3.624      866.595
01/01/2021  04:53:00       41.328      -13.267      -13.266      291.545       21.035      140.253    84998.544      442.477    19670.947        5.356        5.256       43.405      201.095       21.464      329.713       -3.374      866.610
01/01/2021  04:54:00       -7.111       -8.524        6.280       18.629       25.959       16.014      347.035      673.861      256.440        0.072        0.064       11.101       12.640        1.297      329.607       -3.552      866.623
01/01/2021  04:55:00        4.807      -12.995        8.003      181.547       28.688       87.767    32959.486      822.978     7702.992        2.086        2.074       13.855      123.943       80.023      329.666       -3.452      866.629
01/01/2021  04:56:00       -5.722       -7.312       -1.341      215.365       13.368      103.471    46382.183      178.704    10706.328        2.867        2.863        9.284      147.630      252.837      329.698       -3.400      866.623
01/01/2021  04:57:00      -13.313      -11.914       -5.148      178.766       26.074       86.661    31957.331      679.832     7510.044        2.024        2.007       17.866      122.002       46.634      329.725       -3.356      866.605
01/01/2021  04:58:00       14.845       10.261      -11.050      240.475       17.588      114.177    57828.322      309.347    13036.497        3.580        3.559       18.046      165.106       83.704      329.633       -3.506      866.584
01/01/2021  04:59:00        7.336       11.329      -13.442      255.151       14.724      122.478    65102.222      216.795    15000.966        4.032        4.016       13.497      176.188      170.416      329.710       -3.383      866.553
01/01/2021  05:00:00        5.283       14.872       -5.198      236.845        7.075      112.745    56095.511       50.060    12711.482        3.455        3.443       15.782      163.189      106.916      329.596       -3.567      866.513
01/01/2021  05:01:00       -4.191       11.007       -6.090      161.016       16.045       77.344    25926.165      257.446     5982.106        1.616        1.608       11.778      110.877       88.624      329.555       -3.632      866.482
01/01/2021  05:02:00       48.865        0.743      -20.577      354.969       15.001      170.321   126002.754      225.041    29009.149        7.899        7.762       48.871      245.574       25.250      329.817       -3.203      866.482
01/01/2021  05:03:00       11.869        1.910       -3.440       10.680       12.390        9.919      114.061      153.521       98.391        0.026        0.018       12.022        6.425        0.286      329.524       -3.688      866.495
01/01/2021  05:04:00        1.519       13.779       -5.051      209.426       15.176      100.096    43859.169      230.298    10019.236        2.715        2.705       13.862      144.458      108.596      329.481       -3.754      866.526
01/01/2021  05:05:00      -33.638       21.181       -9.437      228.730       18.359      109.739    52317.594      337.045    12042.561        3.317        3.235       39.751      157.278       15.654      329.651       -3.477      866.544
01/01/2021  05:06:00        7.749        1.438       -3.466      214.371       15.893      102.108    45954.807      252.588    10426.099        2.834        2.832        7.882      146.726      346.567      329.622       -3.524      866.574
01/01/2021  05:07:00       24.176       -9.862       -9.171      207.848       20.103       99.383    43200.744      404.114     9876.999        2.711        2.674       26.110      142.340       29.719      329.654       -3.472      866.598
01/01/2021  05:08:00      -24.280       -8.761      -13.198      290.309       28.091      142.191    84279.328      789.128    20218.219        5.304        5.264       25.812      200.690       60.451      329.695       -3.404      866.622
01/01/2021  05:09:00      -59.628       18.065        0.051      208.498       32.922       98.489    43471.283     1083.863     9700.137        2.906        2.713       62.304      139.133        4.987      329.550       -3.643      866.640
01/01/2021  05:10:00      -43.170        0.907        4.804      178.017       29.816       84.130    31690.087      889.018     7077.868        2.076        1.983       43.179      117.218        7.370      329.582       -3.589      866.663
01/01/2021  05:11:00      -50.865        1.659      -19.680      319.898       33.573      152.494   102334.742     1127.159    23254.308        6.482        6.336       50.892      218.573       18.446      329.674       -3.436      866.683
01/01/2021  05:12:00      -55.023       15.266      -11.624      353.938       35.539      166.376   125271.861     1263.031    27681.080        7.877        7.711       57.102      239.878       17.648      329.479       -3.755      866.686
01/01/2021  05:13:00       -6.308       20.989       -5.642      331.090       29.664      154.663   109620.504      879.942    23920.632        6.744        6.721       21.916      222.928      103.464      329.448       -3.806      866.672
01/01/2021  05:14:00      -42.921       14.740      -22.346      400.478       30.745      192.262   160382.676      945.226    36964.518       10.038        9.915       45.381      275.224       36.781      329.572       -3.601      866.656
01/01/2021  05:15:00     -105.019        6.164       -8.387      190.380       39.896       92.457    36244.473     1591.673     8548.284        2.875        2.319      105.199      129.619        1.518      329.385       -3.912      866.653
01/01/2021  05:16:00      -54.554        3.946        8.524       55.792       35.299       24.294     3112.742     1246.004      590.219        0.401        0.247       54.697       15.945        0.085      329.389       -3.907      866.653
01/01/2021  05:17:00       -9.668      -12.211      -16.372      338.986       29.322      160.787   114911.736      859.764    25852.517        7.104        7.081       15.575      230.063      218.193      329.533       -3.669      866.669
01/01/2021  05:18:00      -48.112       -7.207      -19.038      319.621       21.365      151.957   102157.330      456.474    23090.951        6.419        6.285       48.648      217.120       19.919      329.513       -3.702      866.688
01/01/2021  05:19:00      -43.739       16.882      -14.656      229.583       28.075      103.076    52708.421      788.178    10624.714        3.325        3.206       46.884      148.236        9.997      329.411       -3.870      866.693
01/01/2021  05:20:00      -83.153        8.523      -10.963      269.575       19.205      128.809    72670.573      368.835    16591.642        4.835        4.482       83.589      184.162        4.854      329.400       -3.887      866.687
01/01/2021  05:21:00       23.869       -1.424      -15.589      325.667       28.354      154.607   106058.843      803.944    23903.309        6.576        6.538       23.911      221.948       86.159      329.545       -3.648      866.688
01/01/2021  05:22:00       41.641       -6.559      -28.788      398.582       28.225      188.609   158867.716      796.643    35573.390        9.888        9.762       42.155      272.649       41.833      329.521       -3.686      866.687
01/01/2021  05:23:00       36.548       -6.623        5.324      188.533       28.577       91.588    35544.780      816.647     8388.329        2.307        2.237       37.143      129.463       12.149      329.439       -3.824      866.694
01/01/2021  05:24:00       32.769        4.093      -11.330      287.187       16.865      137.788    82476.554      284.441    18985.522        5.146        5.087       33.024      197.908       35.915      329.485       -3.747      866.713
01/01/2021  05:25:00      -16.974       -0.612       -6.469      187.731       19.167       90.304    35242.928      367.363     8154.740        2.204        2.188       16.985      127.086       55.987      329.378       -3.924      866.719
01/01/2021  05:26:00      -34.606       -0.256      -14.639      268.625       23.210      127.240    72159.456      538.713    16189.896        4.513        4.444       34.607      182.279       27.743      329.482       -3.754      866.716
01/01/2021  05:27:00       12.019       -0.826      -22.505      386.364       24.657      183.550   149277.165      607.962    33690.622        9.207        9.179       12.048      264.736      482.863      329.628       -3.511      866.703
01/01/2021  05:28:00       24.122      -11.020       -5.543      258.267       16.184      124.275    66701.624      261.922    15444.173        4.155        4.120       26.520      178.376       45.241      329.580       -3.592      866.704
01/01/2021  05:29:00       25.531       -4.863      -12.752      299.965       16.386      142.641    89978.940      268.517    20346.442        5.569        5.530       25.990      205.842       62.727      329.608       -3.545      866.711
01/01/2021  05:30:00       28.014      -18.335      -14.875      319.393       16.438      151.722   102012.030      270.207    23019.430        6.330        6.265       33.481      219.725       43.069      329.702       -3.392      866.714
01/01/2021  05:31:00       17.023       -5.188       -9.806      268.526       17.221      129.740    72106.394      296.573    16832.385        4.480        4.462       17.796      185.939      109.170      329.600       -3.559      866.722
01/01/2021  05:32:00      -14.961        5.480       -6.754      163.768       17.062       78.014    26820.032      291.109     6086.198        1.674        1.660       15.933      111.793       49.232      329.461       -3.789      866.719
01/01/2021  05:33:00      -35.603       22.174        2.264       25.751       11.648       13.658      663.119      135.677      186.528        0.137        0.049       41.943       15.940        0.144      329.350       -3.972      866.712
01/01/2021  05:34:00       -1.221        6.320       -2.501      177.747        8.406       86.612    31593.905       70.658     7501.615        1.960        1.958        6.437      122.583      362.697      329.428       -3.841      866.709
01/01/2021  05:35:00      -29.001       -2.007       -6.320       14.490       17.656       12.077      209.962      311.736      145.865        0.078        0.033       29.071        8.203        0.080      329.499       -3.728      866.710
01/01/2021  05:36:00       -0.486      -20.344      -12.078      205.543       17.175       99.830    42247.722      294.978     9966.092        2.652        2.625       20.350      142.775       49.224      329.641       -3.494      866.701
01/01/2021  05:37:00       37.232      -11.881      -25.423      349.019       19.551      166.588   121814.333      382.225    27751.488        7.603        7.497       39.081      240.486       37.865      329.643       -3.486      866.695
01/01/2021  05:38:00      -43.805      -22.840       -5.673      166.630       16.634       83.154    27765.543      276.680     6914.626        1.871        1.748       49.401      114.571        5.379      329.498       -3.727      866.683
01/01/2021  05:39:00      -53.473      -19.945       -8.945      175.301       26.885       84.175    30730.491      722.816     7085.466        2.093        1.927       57.072      118.585        4.317      329.530       -3.676      866.680
01/01/2021  05:40:00      -13.898        8.608      -22.902      371.082       25.131      173.288   137701.555      631.555    30028.715        8.454        8.418       16.348      251.252      236.200      329.619       -3.526      866.680
01/01/2021  05:41:00        9.773       -9.875      -14.358      376.008       44.710      177.256   141382.199     1998.968    31419.738        8.756        8.740       13.893      255.830      339.074      329.681       -3.424      866.675
01/01/2021  05:42:00      -24.249       -3.100       14.398       26.827       31.087       18.454      719.690      966.421      340.536        0.142        0.101       24.446        7.656        0.098      329.445       -3.816      866.649
01/01/2021  05:43:00      -59.046       14.958       -8.483      223.380       18.091      106.391    49898.713      327.267    11319.047        3.265        3.077       60.911      150.937        6.141      329.381       -3.918      866.626
01/01/2021  05:44:00      -47.085        5.894      -29.628      387.899       27.498      185.802   150465.313      756.152    34522.303        9.440        9.287       47.453      267.402       31.755      329.542       -3.650      866.614
01/01/2021  05:45:00      -40.238       -1.607      -10.873      164.189       26.368       78.065    26957.900      695.265     6094.154        1.774        1.687       40.270      111.080        7.609      329.377       -3.925      866.619
01/01/2021  05:46:00      -12.577        1.395      -18.576      350.333       20.861      166.016   122732.996      435.194    27561.201        7.558        7.536       12.654      239.808      359.153      329.555       -3.631      866.623
01/01/2021  05:47:00      -24.126       -6.735      -10.750      236.513       24.402      111.803    55938.598      595.452    12499.993        3.487        3.452       25.048      160.057       40.832      329.444       -3.814      866.618
01/01/2021  05:48:00       13.013       -8.452      -25.865      397.768       24.120      190.372   158219.742      581.782    36241.442        9.793        9.752       15.517      273.983      311.786      329.544       -3.648      866.609
01/01/2021  05:49:00      -16.479        4.445      -12.210      278.782       29.046      133.273    77719.595      843.681    17761.627        4.836        4.816       17.068      189.876      123.762      329.318       -4.019      866.597
01/01/2021  05:50:00      -14.225      -13.462       -1.422      180.181       22.911       87.110    32465.065      524.906     7588.109        2.047        2.029       19.585      122.180       38.919      329.319       -4.021      866.590
01/01/2021  05:51:00      -78.535        4.654        5.825       27.261       28.919       19.558      743.185      836.309      382.518        0.409        0.098       78.673       16.646        0.045      329.173       -4.259      866.581
01/01/2021  05:52:00      -20.269       22.076      -16.789      350.473       32.164      164.324   122831.325     1034.538    27002.276        7.599        7.543       29.970      237.942       63.034      329.319       -4.018      866.567
01/01/2021  05:53:00      -51.432       12.537      -13.861      280.213       31.417      133.141    78519.463      987.019    17726.488        5.009        4.862       52.938      191.520       13.088      329.327       -4.006      866.555
01/01/2021  05:54:00      -31.890        3.459       -6.493      218.454       32.810      105.192    47722.217     1076.470    11065.340        3.045        2.993       32.077      149.070       21.596      329.336       -3.992      866.535
01/01/2021  05:55:00      -73.419       20.386       -6.754      182.848       25.153       88.580    33433.360      632.655     7846.427        2.387        2.096       76.197      124.991        2.691      329.212       -4.195      866.515
01/01/2021  05:56:00      -62.167        0.092        1.122      174.637       26.417       82.441    30498.157      697.842     6796.531        2.092        1.900       62.167      116.044        3.484      329.321       -4.017      866.498
01/01/2021  05:57:00      -80.684        9.797       -7.932      185.461       28.646       91.580    34395.662      820.595     8386.871        2.513        2.180       81.277      126.106        2.407      329.245       -4.140      866.495
01/01/2021  05:58:00      -25.564        5.333      -21.304      430.413       31.524      203.214   185255.372      993.772    41295.952       11.429       11.377       26.115      293.365      126.196      329.447       -3.804      866.491
01/01/2021  05:59:00      -97.000        1.257        0.717       39.152       26.808       17.971     1532.889      718.666      322.947        0.599        0.129       97.009       16.387        0.029      329.185       -4.240      866.497
01/01/2021  06:00:00      -34.586       -0.480      -13.101      338.738       28.371      156.086   114743.143      804.917    24362.938        7.061        6.996       34.589      226.723       42.965      329.317       -4.021      866.514
01/01/2021  06:01:00      -24.360       -5.680       -3.921      203.573       22.411       97.706    41442.033      502.252     9546.382        2.605        2.575       25.014      137.663       30.289      329.270       -4.100      866.532
01/01/2021  06:02:00        7.179        6.556      -24.657      371.238       29.125      178.191   137817.502      848.241    31752.058        8.552        8.521        9.722      255.660      691.546      329.393       -3.896      866.526
01/01/2021  06:03:00      -18.283       -3.812      -25.167      362.552       22.967      174.842   131443.627      527.476    30569.720        8.173        8.127       18.676      250.625      180.083      329.416       -3.859      866.521
01/01/2021  06:04:00       -3.651      -17.667      -16.262      232.505       26.483      110.281    54058.345      701.369    12161.845        3.374        3.346       18.040      158.527       77.218      329.328       -4.004      866.501
01/01/2021  06:05:00       21.249       -1.061      -31.811      402.247       23.548      192.656   161802.400      554.519    37116.148       10.043        9.974       21.275      277.243      169.814      329.407       -3.871      866.482
01/01/2021  06:06:00     -108.073        1.479       -0.821       34.655       29.009       20.751     1200.968      841.511      430.613        0.708        0.124      108.083       17.128        0.025      329.096       -4.385      866.472
01/01/2021  06:07:00      -72.559       -2.514      -15.744      288.738       25.115      137.655    83369.794      630.754    18948.874        5.421        5.147       72.602      196.442        7.321      329.129       -4.329      866.492
01/01/2021  06:08:00      -21.269        6.889      -14.252      381.239       33.867      180.834   145342.817     1146.947    32700.813        8.991        8.960       22.357      259.304      134.523      329.153       -4.289      866.519
01/01/2021  06:09:00      -53.775       20.098       -6.431      271.163       29.593      131.564    73529.178      875.747    17309.057        4.751        4.586       57.408      186.337       10.535      328.998       -4.544      866.548
01/01/2021  06:10:00      -56.927       16.406      -28.987      399.530       16.707      190.255   159624.491      279.115    36196.823       10.018        9.805       59.243      274.886       21.529      329.173       -4.255      866.561
01/01/2021  06:11:00      -83.795       18.396        2.355      128.637       28.107       64.244    16547.535      790.024     4127.244        1.441        1.073       85.790       84.486        0.970      329.001       -4.540      866.554
01/01/2021  06:12:00      -43.020       17.117      -32.200      443.598       32.259      212.726   196778.819     1040.663    45252.505       12.307       12.154       46.300      305.944       43.664      329.241       -4.142      866.527
01/01/2021  06:13:00      -62.068       26.188      -24.203      404.108       21.061      190.996   163303.643      443.568    36479.308       10.263       10.011       67.366      276.523       16.849      329.143       -4.303      866.499
01/01/2021  06:14:00     -106.201       27.514      -10.579      174.705       21.388       83.902    30521.775      457.444     7039.605        2.507        1.901      109.707      118.225        1.161      328.952       -4.620      866.482
01/01/2021  06:15:00      -94.307       20.722       -8.327       33.084       19.172       17.070     1094.561      367.582      291.372        0.557        0.088       96.557       16.668        0.030      328.942       -4.638      866.472
01/01/2021  06:16:00      -34.687       12.083      -31.299      425.755       34.425      204.212   181267.681     1185.078    41702.506       11.319       11.208       36.731      292.867       63.573      329.264       -4.104      866.478
01/01/2021  06:17:00       43.021        9.376      -24.744      396.015       24.103      192.542   156827.760      580.955    37072.595        9.847        9.724       44.031      275.265       39.083      329.221       -4.177      866.494
01/01/2021  06:18:00       17.440        5.043       -5.937      190.014       12.422       90.766    36105.294      154.300     8238.464        2.242        2.225       18.155      130.920       52.004      329.032       -4.486      866.523
01/01/2021  06:19:00        1.966      -12.139       -1.540      180.669       17.453       87.206    32641.337      304.594     7604.949        2.034        2.028       12.297      124.135      101.899      329.034       -4.484      866.536
01/01/2021  06:20:00       15.201        9.720      -21.545      374.129       21.365      179.380   139972.516      456.481    32177.204        8.666        8.630       18.043      258.392      205.087      329.152       -4.290      866.537
01/01/2021  06:21:00       -0.418       -1.814      -34.656      409.506       15.017      193.715   167694.836      225.501    37525.662       10.328       10.272        1.862      280.753    22743.809      329.219       -4.177      866.528
01/01/2021  06:22:00      -53.993       11.196      -26.267      358.184       12.570      170.004   128295.479      158.011    28901.382        8.051        7.868       55.142      245.901       19.886      329.170       -4.260      866.517
01/01/2021  06:23:00        2.842       -5.127      -19.945      364.724       20.436      172.686   133023.395      417.615    29820.549        8.181        8.163        5.862      249.186     1807.051      329.220       -4.179      866.518
01/01/2021  06:24:00      -15.928       -0.810      -13.055      320.189       20.166      152.013   102521.187      406.682    23108.038        6.320        6.302       15.948      219.077      188.695      329.179       -4.246      866.552
01/01/2021  06:25:00      -45.964        4.185       -2.291      164.714       25.896       81.307    27130.698      670.628     6610.763        1.827        1.721       46.154      112.183        5.908      329.105       -4.371      866.600
01/01/2021  06:26:00      -44.060        8.336       -6.322      200.476       23.782       92.929    40190.731      565.573     8635.716        2.571        2.470       44.841      133.618        8.879      329.088       -4.397      866.627
01/01/2021  06:27:00      -35.790       -0.756      -18.548      403.571       28.257      194.979   162869.515      798.473    38016.777       10.161       10.084       35.798      277.083       59.910      329.209       -4.195      866.620
01/01/2021  06:28:00      -80.754       -5.146      -16.478      317.361       40.639      150.357   100718.089     1651.490    22607.349        6.587        6.249       80.918      207.052        6.547      329.089       -4.395      866.608
01/01/2021  06:29:00     -129.517        7.504      -19.673      375.127       49.711      179.931   140720.412     2471.166    32375.021        9.635        8.778      129.734      255.731        3.886      329.037       -4.478      866.602
01/01/2021  06:30:00     -140.592       19.139       -5.862      286.306       46.714      132.045    81971.299     2182.224    17435.941        6.086        5.079      141.889      188.220        1.760      328.900       -4.704      866.617
01/01/2021  06:31:00      -93.059       17.198      -17.211      339.834       43.748      165.651   115487.205     1913.874    27440.125        7.702        7.242       94.635      231.565        5.987      328.928       -4.657      866.637
01/01/2021  06:32:00     -135.895       45.965       -8.022      212.763       37.587      103.364    45267.959     1412.779    10684.045        3.899        2.868      143.459      143.077        0.995      328.801       -4.866      866.643
01/01/2021  06:33:00      -60.795       -0.290        4.598      210.389       35.429      102.978    44263.626     1255.204    10604.458        2.991        2.806       60.795      142.041        5.459      328.844       -4.796      866.645
01/01/2021  06:34:00      -13.543       -0.723      -28.897      447.416       34.886      214.148   200181.285     1217.055    45859.183       12.408       12.363       13.562      306.456      510.577      329.085       -4.398      866.641
01/01/2021  06:35:00      -56.399        4.282      -17.540      295.263       21.778      140.051    87180.354      474.284    19614.337        5.536        5.363       56.561      201.596       12.704      328.951       -4.620      866.633
01/01/2021  06:36:00      -68.464       17.116        1.119       27.864       25.471       18.750      776.420      648.785      351.556        0.338        0.089       70.571       13.511        0.037      328.823       -4.830      866.620
01/01/2021  06:37:00      -13.902      -14.249       -8.676      234.170       26.732      112.893    54835.792      714.583    12744.829        3.437        3.415       19.907      159.557       64.240      329.025       -4.498      866.611
01/01/2021  06:38:00       24.926        6.418      -10.313      336.415       20.354      160.524   113175.274      414.294    25767.999        7.003        6.968       25.739      231.010       80.553      329.044       -4.466      866.619
01/01/2021  06:39:00      -36.416      -10.164      -15.409      324.130       31.132      152.186   105060.579      969.200    23160.487        6.540        6.460       37.808      220.268       33.942      329.074       -4.419      866.628
01/01/2021  06:40:00      -15.293       -3.839      -16.914      332.783       36.289      158.962   110744.584     1316.893    25268.792        6.890        6.867       15.768      226.159      205.731      329.125       -4.334      866.622
01/01/2021  06:41:00      -82.376       -2.477      -13.355      240.292       35.812      114.045    57740.353     1282.499    13006.287        3.948        3.601       82.414      161.418        3.836      329.048       -4.463      866.606
01/01/2021  06:42:00      -27.033       -5.921      -27.424      440.706       30.358      204.739   194221.415      921.632    41918.219       11.924       11.853       27.674      297.000      115.182      329.167       -4.264      866.571
01/01/2021  06:43:00       -8.873       -0.205      -28.205      377.632       36.807      182.374   142605.636     1354.720    33260.437        8.901        8.861        8.875      259.920      857.703      329.181       -4.241      866.555
01/01/2021  06:44:00     -101.789       29.256       -4.676       28.360       27.913       21.704      804.302      779.117      471.058        0.665        0.103      105.910       16.397        0.024      328.889       -4.725      866.568
01/01/2021  06:45:00      -80.003       62.427      -35.717      358.760       19.009      170.654   128708.583      361.358    29122.876        8.485        7.910      101.477      246.299        5.891      329.016       -4.511      866.585
01/01/2021  06:46:00      -58.021       39.333      -54.094      547.299       23.374      259.442   299535.924      546.350    67310.325       18.754       18.370       70.096      375.318       28.669      329.277       -4.080      866.609
01/01/2021  06:47:00     -104.420       17.626      -18.036      323.367       38.715      147.295   104566.451     1498.833    21695.834        6.962        6.388      105.897      214.588        4.106      329.088       -4.394      866.613
01/01/2021  06:48:00     -101.395        2.386        1.426       59.820       40.812       23.642     3578.429     1665.586      558.929        0.804        0.290      101.423       22.413        0.049      328.993       -4.554      866.603
01/01/2021  06:49:00      -80.615       39.433       -8.126      258.199       40.611      125.513    66666.533     1649.220    15753.454        4.608        4.203       89.742      175.048        3.805      328.963       -4.601      866.575
01/01/2021  06:50:00      -90.794       49.089      -13.721      140.092       25.329       66.678    19625.692      641.534     4445.961        1.777        1.236      103.215       92.587        0.805      329.009       -4.526      866.559
01/01/2021  06:51:00       26.799       -0.181      -31.261      393.144       24.646      186.433   154561.838      607.436    34757.322        9.577        9.496       26.800      268.863      100.648      329.245       -4.137      866.546
01/01/2021  06:52:00      -71.632        6.030      -19.599      199.741       35.543       97.976    39896.602     1263.280     9599.343        2.814        2.538       71.886      134.462        3.499      329.140       -4.313      866.529
01/01/2021  06:53:00      -66.154       17.246      -34.374      326.809       23.752      156.658   106803.864      564.142    24541.642        6.885        6.595       68.365      225.112       10.843      329.244       -4.139      866.503
01/01/2021  06:54:00      -72.926       23.701      -10.705       20.406       21.970       17.622      416.402      482.692      310.522        0.360        0.060       76.681       13.095        0.029      329.060       -4.445      866.477
01/01/2021  06:55:00        0.425       -4.105      -25.483      364.201       23.075      173.373   132642.453      532.451    30058.299        8.191        8.162        4.127      250.169     3674.679      329.273       -4.093      866.467
01/01/2021  06:56:00       19.659      -19.584      -29.775      352.450       16.032      168.416   124220.670      257.009    28363.835        7.722        7.642       27.749      243.064       76.726      329.362       -3.947      866.470
01/01/2021  06:57:00      -15.995        1.870        1.158       23.268       15.205        9.975      541.394      231.191       99.508        0.057        0.044       16.104        7.010        0.189      329.175       -4.256      866.483
01/01/2021  06:58:00       -5.430       11.197      -37.346      432.071       17.689      207.271   186685.000      312.886    42961.318       11.570       11.498       12.444      298.134      573.999      329.320       -4.012      866.485
01/01/2021  06:59:00      -57.956       36.770      -21.575      327.994       22.172      154.214   107580.326      491.576    23781.860        6.849        6.593       68.637      223.980       10.649      329.225       -4.171      866.482
01/01/2021  07:00:00      -30.670        4.501       -9.409      197.870       28.421       94.045    39152.495      807.758     8844.409        2.492        2.440       30.998      133.316       18.496      329.197       -4.220      866.469
01/01/2021  07:01:00       -6.710      -65.552      -35.703      194.767       37.374       93.609    37934.149     1396.829     8762.675        2.684        2.405       65.895      131.991        4.012      329.282       -4.079      866.470
01/01/2021  07:02:00       -0.072      -10.901      -10.463       26.700       40.442       15.064      712.869     1635.516      226.923        0.140        0.129       10.901       17.865        2.686      329.184       -4.244      866.467
01/01/2021  07:03:00       19.760        8.377      -25.048      287.518       16.261      138.597    82666.480      264.422    19209.118        5.159        5.107       21.462      199.169       86.119      329.265       -4.108      866.444
01/01/2021  07:04:00      -70.512       30.219       -5.239       20.463       27.819       13.326      418.742      773.886      177.579        0.364        0.069       76.715       10.687        0.019      329.231       -4.165      866.413
01/01/2021  07:05:00      -13.042       26.787      -34.056      387.626       20.288      185.208   150253.624      411.590    34301.978        9.347        9.248       29.793      267.517       80.624      329.228       -4.166      866.409
01/01/2021  07:06:00       31.765       -6.952      -36.681      441.482       17.479      211.127   194905.986      305.501    44574.805       12.104       11.989       32.517      304.940       87.944      329.402       -3.878      866.428
01/01/2021  07:07:00       21.934       -3.206      -44.825      481.461       26.400      233.180   231804.454      696.965    54372.844       14.462       14.344       22.167      334.139      227.218      329.535       -3.660      866.444
01/01/2021  07:08:00      -24.724       -1.745      -18.117      343.505       47.128      163.546   117995.382     2221.079    26747.148        7.392        7.348       24.786      232.556       88.035      329.244       -4.140      866.439
01/01/2021  07:09:00       26.441        2.550        3.623      314.214       35.058      149.847    98730.330     1229.096    22454.131        6.154        6.121       26.563      210.902       63.037      329.244       -4.139      866.442
01/01/2021  07:10:00      -22.404        6.675       -4.328      186.757       28.481       91.714    34878.256      811.185     8411.499        2.232        2.205       23.377      123.752       28.024      329.144       -4.308      866.463
01/01/2021  07:11:00      -68.139      -13.299        2.963      173.708       35.302       82.958    30174.626     1246.212     6882.002        2.156        1.915       69.425      111.846        2.595      329.187       -4.238      866.482
01/01/2021  07:12:00      -38.766        3.180        5.653      217.283       31.964      104.150    47211.918     1021.717    10847.149        3.030        2.954       38.897      140.551       13.057      329.165       -4.273      866.480
01/01/2021  07:13:00      -53.489       -2.723       -7.206      215.760       28.509      102.512    46552.400      812.741    10508.618        3.038        2.894       53.558      144.926        7.322      329.134       -4.322      866.482
01/01/2021  07:14:00      -68.805       -8.658        1.966       48.510       27.501       22.340     2353.230      756.304      499.090        0.421        0.180       69.347       27.293        0.155      329.117       -4.351      866.485
01/01/2021  07:15:00      -43.482       -9.530       -6.577      238.501       25.980      112.070    56882.561      674.981    12559.737        3.606        3.506       44.514      160.689       13.031      329.107       -4.367      866.488
01/01/2021  07:16:00       -1.600       -5.298       -1.592      183.716       18.337       88.125    33751.470      336.247     7766.059        2.093        2.093        5.534      124.841      508.832      329.060       -4.442      866.488
01/01/2021  07:17:00       15.182       -1.198      -15.992      381.401       29.487      180.007   145466.799      869.463    32402.485        8.957        8.937       15.229      258.183      287.401      329.165       -4.267      866.499
01/01/2021  07:18:00      -29.224      -22.301      -11.693      303.257       38.226      142.281    91964.539     1461.262    20243.899        5.755        5.683       36.761      201.363       30.004      329.084       -4.401      866.494
01/01/2021  07:19:00      -14.140      -22.589      -15.523      388.718       48.953      179.719   151101.851     2396.402    32298.961        9.333        9.290       26.650      261.116       96.000      329.137       -4.315      866.506
01/01/2021  07:20:00      -35.186        0.236      -25.150      398.291       22.567      189.217   158635.437      509.270    35803.041        9.837        9.747       35.187      272.554       59.998      329.122       -4.338      866.532
01/01/2021  07:21:00      -77.095       -6.749      -10.109      186.953       24.743       89.560    34951.421      612.210     8020.953        2.483        2.179       77.390      126.895        2.689      329.015       -4.516      866.551
01/01/2021  07:22:00      -28.777       -3.416       -9.064      232.833       26.893      107.375    54211.017      723.241    11529.316        3.368        3.323       28.979      156.711       29.243      329.084       -4.402      866.548
01/01/2021  07:23:00       -4.976      -21.241       -2.522      235.020       26.213      111.449    55234.417      687.131    12420.874        3.440        3.417       21.816      158.384       52.708      329.119       -4.347      866.532
01/01/2021  07:24:00       29.025      -34.799      -26.116      290.954       20.314      138.783    84653.991      412.656    19260.737        5.351        5.216       45.315      200.330       19.544      329.281       -4.081      866.509
01/01/2021  07:25:00       11.293       -2.607      -10.658      340.626       16.077      161.947   116025.830      258.454    26226.798        7.135        7.126       11.590      232.795      403.449      329.273       -4.093      866.473
01/01/2021  07:26:00      -24.567      -10.622       -8.887      215.799       28.925      100.603    46569.149      836.651    10120.906        2.915        2.876       26.765      142.758       28.450      329.188       -4.233      866.445
01/01/2021  07:27:00       56.182      -36.081      -49.322      438.896       29.180      211.634   192629.691      851.472    44789.030       12.253       11.914       66.770      303.975       20.726      329.453       -3.795      866.446
01/01/2021  07:28:00      -30.662       -3.625        0.720       22.531       18.509       15.515      507.661      342.569      240.717        0.102        0.055       30.875       12.320        0.159      329.216       -4.189      866.467
01/01/2021  07:29:00       38.228       -2.368      -19.915      419.322       27.094      200.033   175830.572      734.090    40013.201       10.917       10.829       38.301      288.559       56.761      329.361       -3.946      866.489
01/01/2021  07:30:00       12.428       -2.848      -22.935      442.124       33.724      212.284   195473.941     1137.323    45064.640       12.113       12.084       12.750      304.415      570.085      329.355       -3.956      866.498
01/01/2021  07:31:00      -24.637       -3.975       -4.204      263.647       36.801      126.644    69509.863     1354.312    16038.735        4.375        4.345       24.956      177.054       50.335      329.148       -4.298      866.505
01/01/2021  07:32:00      -40.282        3.538       -5.903      298.836       23.810      138.382    89303.208      566.892    19149.633        5.532        5.451       40.437      199.301       24.292      329.237       -4.152      866.505
01/01/2021  07:33:00      -24.154        9.042        0.502      225.236       32.203      110.574    50731.173     1037.039    12226.593        3.232        3.200       25.791      154.360       35.822      329.200       -4.214      866.498
01/01/2021  07:34:00      -20.654        9.823      -21.859      359.217       26.035      172.379   129037.207      677.840    29714.430        8.018        7.971       22.871      247.191      116.813      329.334       -3.992      866.487
01/01/2021  07:35:00       11.372       14.490      -16.012      350.031       34.344      168.326   122521.828     1179.493    28333.512        7.628        7.602       18.419      240.632      170.668      329.423       -3.846      866.466
01/01/2021  07:36:00      -39.289       20.230        7.403       36.858       42.603       25.577     1358.532     1815.047      654.169        0.292        0.191       44.192       32.728        0.548      329.281       -4.084      866.422
01/01/2021  07:37:00       43.608        1.678      -15.004      325.096       47.180      154.229   105687.121     2225.948    23786.529        6.689        6.585       43.640      220.207       25.462      329.587       -3.580      866.398
01/01/2021  07:38:00       13.606       21.134       -1.034      262.527       44.970      131.876    68920.376     2022.313    17391.171        4.446        4.417       25.135      181.477       52.129      329.536       -3.663      866.395
01/01/2021  07:39:00        7.748       26.940       -7.483      370.397       57.003      181.407   137193.703     3249.294    32908.556        8.706        8.668       28.032      255.085       82.805      329.540       -3.656      866.412
01/01/2021  07:40:00        4.556       18.360      -13.493      393.797       48.248      190.317   155075.732     2327.862    36220.491        9.704        9.681       18.917      270.360      204.252      329.547       -3.642      866.431
01/01/2021  07:41:00      -40.764       22.120        7.325       30.339       46.087       27.366      920.459     2123.986      748.913        0.300        0.190       46.379       35.522        0.587      329.341       -3.985      866.431
01/01/2021  07:42:00       27.872       26.565       -0.574      360.358       55.773      176.925   129858.049     3110.631    31302.293        8.284        8.214       38.504      248.608       41.689      329.604       -3.551      866.418
01/01/2021  07:43:00       12.975       34.813       15.170      233.913       56.857      109.557    54715.359     3232.672    12002.778        3.577        3.498       37.153      150.910       16.499      329.442       -3.817      866.382
01/01/2021  07:44:00      -38.681       25.982        0.197      171.633       43.840       86.590    29457.724     1921.940     7497.851        2.052        1.944       46.597      116.640        6.266      329.392       -3.902      866.335
01/01/2021  07:45:00      -12.264       23.519        9.649      185.809       53.689       85.179    34525.137     2882.458     7255.534        2.272        2.233       26.524      118.888       20.090      329.528       -3.678      866.302
01/01/2021  07:46:00       21.679       33.709        2.386      263.856       48.257      131.179    69620.149     2328.774    17207.997        4.537        4.458       40.078      181.778       20.571      329.537       -3.664      866.294
01/01/2021  07:47:00        2.781       53.802       17.957       29.974       47.108       27.241      898.423     2219.186      742.081        0.354        0.193       53.873       35.639        0.438      329.394       -3.900      866.313
01/01/2021  07:48:00      -24.317       56.340        5.572      174.103       50.909       88.307    30312.012     2591.726     7798.147        2.224        2.035       61.364      117.417        3.661      329.437       -3.828      866.337
01/01/2021  07:49:00      -36.524       41.021        2.439      235.137       48.896      114.582    55289.285     2390.850    13128.930        3.690        3.540       54.925      158.457        8.323      329.491       -3.738      866.366
01/01/2021  07:50:00      -64.483       21.698       -3.892      174.907       43.068       90.785    30592.508     1854.843     8241.962        2.266        2.034       68.035      119.391        3.079      329.404       -3.881      866.404
01/01/2021  07:51:00      -96.475       52.788        5.011       42.219       51.405       35.096     1782.421     2642.489     1231.739        0.889        0.283      109.973       40.018        0.132      329.297       -4.057      866.422
01/01/2021  07:52:00      -89.719       54.491        2.207       40.979       59.657       35.725     1679.289     3559.001     1276.292        0.877        0.326      104.971       42.751        0.166      329.279       -4.086      866.424
01/01/2021  07:53:00      -55.080       45.156        6.918      178.959       61.911       84.603    32026.333     3833.024     7157.638        2.406        2.151       71.224      111.512        2.451      329.363       -3.948      866.401
01/01/2021  07:54:00        4.864       34.497       14.323      158.782       57.472       80.758    25211.710     3302.997     6521.909        1.822        1.752       34.839      101.750        8.530      329.424       -3.847      866.376
01/01/2021  07:55:00      -36.512       31.047        4.986       34.101       52.941       29.699     1162.872     2802.709      882.013        0.358        0.242       47.927       39.604        0.683      329.399       -3.891      866.363
01/01/2021  07:56:00       -4.877       21.602        6.009       31.446       41.249       23.920      988.872     1701.506      572.183        0.189        0.163       22.146       29.102        1.727      329.486       -3.749      866.367
01/01/2021  07:57:00       10.373       41.055        1.131      171.349       37.455       84.335    29360.379     1402.840     7112.315        1.983        1.894       42.346      115.607        7.453      329.524       -3.686      866.382
01/01/2021  07:58:00       -6.699       59.078        2.153       48.687       38.573       28.452     2370.395     1487.910      809.491        0.410        0.233       59.457       24.275        0.167      329.530       -3.678      866.408
01/01/2021  07:59:00      -23.119       57.525        2.696       46.674       53.792       30.691     2178.443     2893.528      941.925        0.493        0.301       61.996       33.622        0.294      329.455       -3.800      866.428
01/01/2021  08:00:00      -13.586       24.886       -1.606       46.909       42.432       28.687     2200.414     1800.464      822.957        0.281        0.241       28.353       25.499        0.809      329.370       -3.937      866.448
01/01/2021  08:01:00      -64.078       36.496      -14.811       56.567       44.184       33.419     3199.788     1952.190     1116.852        0.596        0.313       73.743       30.142        0.167      329.429       -3.841      866.444
01/01/2021  08:02:00      -77.982       39.646      -12.768       42.137       47.034       29.223     1775.490     2212.156      853.981        0.633        0.242       87.481       27.919        0.102      329.408       -3.876      866.418
01/01/2021  08:03:00      -53.561       34.373       -6.165       39.058       42.964       27.135     1525.553     1845.936      736.314        0.410        0.205       63.642       26.444        0.173      329.450       -3.807      866.406
01/01/2021  08:04:00       -3.957       49.956        5.353       39.151       41.291       28.155     1532.835     1704.935      792.727        0.328        0.202       50.112       28.420        0.322      329.544       -3.653      866.406
01/01/2021  08:05:00       49.862       47.372        0.618      210.879       40.097      103.579    44469.799     1607.760    10728.706        3.076        2.840       68.777      144.264        4.400      329.885       -3.094      866.412
01/01/2021  08:06:00      102.789       52.636      -15.104      215.319       35.839       98.437    46362.254     1284.415     9689.766        3.544        2.867      115.483      142.002        1.512      329.806       -3.224      866.427
01/01/2021  08:07:00      115.183       44.976      -22.166      255.785       28.147      122.584    65425.917      792.276    15026.761        4.850        4.062      123.652      175.514        2.015      329.773       -3.276      866.450
01/01/2021  08:08:00       71.200       50.971      -18.948      263.050       38.786      125.890    69195.204     1504.385    15848.294        4.727        4.327       87.564      179.521        4.203      329.918       -3.040      866.461
01/01/2021  08:09:00       -4.976       24.966      -10.849       40.578       20.069       23.380     1646.586      402.757      546.617        0.168        0.130       25.457       25.560        1.008      329.769       -3.286      866.447
01/01/2021  08:10:00        0.154       24.362       -7.947       45.430       22.734       27.512     2063.886      516.844      756.911        0.200        0.167       24.362       30.762        1.594      329.820       -3.201      866.450
01/01/2021  08:11:00      -10.260       -7.442       -3.285       36.221       24.320       18.184     1311.931      591.460      330.655        0.120        0.112       12.675       22.297        3.095      329.826       -3.192      866.457
01/01/2021  08:12:00      -11.147       -8.841      -11.192       50.479       26.864       24.896     2548.164      721.666      619.804        0.211        0.194       14.228       32.057        5.077      329.881       -3.101      866.471
01/01/2021  08:13:00      -16.894        5.698       -6.348       38.894       12.539       21.159     1512.774      157.236      447.687        0.124        0.106       17.829       23.538        1.743      330.013       -2.887      866.490
01/01/2021  08:14:00      -20.671       17.638      -14.372       40.640       14.165       21.451     1651.613      200.651      460.131        0.163        0.116       27.174       27.355        1.013      329.921       -3.037      866.495
01/01/2021  08:15:00      -12.352       13.541      -11.272       37.513       16.274       20.430     1407.226      264.847      417.396        0.128        0.104       18.328       25.504        1.936      330.007       -2.895      866.511
01/01/2021  08:16:00       -2.512        0.873       -6.879       42.370       22.981       23.637     1795.184      528.137      558.715        0.147        0.144        2.660       28.676      116.248      330.088       -2.763      866.510
01/01/2021  08:17:00        6.052       -6.618       -8.330       44.994       17.760       20.556     2024.465      315.408      422.553        0.146        0.138        8.968       23.538        6.889      330.244       -2.508      866.519
01/01/2021  08:18:00       -9.276      -20.740       -7.233       48.722       14.103       25.958     2373.826      198.882      673.818        0.191        0.162       22.720       27.752        1.492      330.293       -2.427      866.532
01/01/2021  08:19:00      -31.167      -27.429      -25.184       46.488       11.699       23.097     2161.110      136.866      533.459        0.259        0.142       41.518       30.311        0.533      330.299       -2.417      866.545
01/01/2021  08:20:00      -10.436      -29.624      -28.676       50.717       14.196       23.872     2572.169      201.519      569.875        0.258        0.167       31.408       32.248        1.054      330.345       -2.342      866.556
01/01/2021  08:21:00      -21.129      -10.346      -16.609       50.294       13.039       24.266     2529.499      170.027      588.818        0.206        0.164       23.526       33.750        2.058      330.440       -2.187      866.559
01/01/2021  08:22:00       -8.413        6.451       -9.761       45.172        9.975       27.236     2040.475       99.492      741.826        0.154        0.144       10.601       31.828        9.014      330.403       -2.246      866.578
01/01/2021  08:23:00       -6.138      -19.609      -13.018       44.267       10.112       23.148     1959.540      102.254      535.828        0.159        0.130       20.548       30.061        2.140      330.536       -2.028      866.597
01/01/2021  08:24:00      -10.118      -14.690      -12.058       49.661       16.579       25.985     2466.240      274.869      675.211        0.194        0.171       17.838       32.618        3.344      330.503       -2.083      866.613
01/01/2021  08:25:00        8.178       -9.486       -5.212       48.626       16.013       28.707     2364.448      256.423      824.099        0.181        0.172       12.525       29.993        5.734      330.751       -1.675      866.605
01/01/2021  08:26:00      -38.449      -37.765      -12.291       53.499       13.925       25.808     2862.180      193.908      666.040        0.339        0.186       53.894       25.391        0.222      330.556       -1.996      866.606
01/01/2021  08:27:00      -40.600       -7.502      -18.127       45.983        9.636       20.548     2114.419       92.845      422.216        0.233        0.131       41.287       27.018        0.428      330.502       -2.085      866.612
01/01/2021  08:28:00      -39.700      -13.373      -15.284       45.207       14.463       21.233     2043.639      209.177      450.850        0.235        0.135       41.892       26.154        0.390      330.581       -1.955      866.624
01/01/2021  08:29:00      -27.168      -27.843      -18.606       51.205       22.617       23.340     2621.953      511.513      544.765        0.277        0.184       38.902       26.783        0.474      330.640       -1.858      866.628
01/01/2021  08:30:00      -38.288      -12.084      -21.253       58.198       26.485       30.838     3386.966      701.473      951.005        0.355        0.252       40.150       35.005        0.760      330.543       -2.016      866.630
01/01/2021  08:31:00      -45.219      -15.788      -10.543       48.286       22.981       25.776     2331.540      528.109      664.408        0.296        0.176       47.896       24.032        0.252      330.576       -1.962      866.633
01/01/2021  08:32:00      -28.505       -4.920       -5.018       58.796       32.038       24.231     3456.974     1026.408      587.139        0.297        0.254       28.927       12.100        0.175      330.673       -1.803      866.646
01/01/2021  08:33:00      -95.967      -36.401      -13.677       53.298       33.504       32.556     2840.668     1122.522     1059.871        0.787        0.251      102.638       15.740        0.024      330.581       -1.955      866.664
01/01/2021  08:34:00     -116.970       -7.363       -7.173       50.166       26.201       30.533     2516.625      686.512      932.251        0.896        0.207      117.201       19.683        0.028      330.550       -2.004      866.671
01/01/2021  08:35:00     -148.413      -43.191      -25.677       50.562       26.741       27.353     2556.547      715.066      748.214        1.428        0.201      154.570       17.703        0.013      330.479       -2.123      866.670
01/01/2021  08:36:00     -110.895      -36.972      -22.846       57.274       42.839       27.482     3280.327     1835.178      755.250        1.003        0.294      116.896       26.719        0.052      330.582       -1.954      866.669
01/01/2021  08:37:00      -67.147      -16.036       -3.059       55.840       27.281       28.486     3118.146      744.249      811.473        0.472        0.234       69.035       14.542        0.044      330.721       -1.724      866.680
01/01/2021  08:38:00      -88.852      -42.170      -26.661       53.870       32.222       30.610     2901.992     1038.280      936.965        0.763        0.244       98.351       20.146        0.042      330.583       -1.952      866.681
01/01/2021  08:39:00      -68.683      -34.000      -14.705       55.225       39.936       35.805     3049.806     1594.849     1282.007        0.601        0.296       76.638       25.873        0.114      330.571       -1.971      866.677
01/01/2021  08:40:00      -95.386      -32.458      -15.720       50.402       27.286       28.065     2540.357      744.520      787.646        0.723        0.204      100.757       22.993        0.052      330.550       -2.005      866.675
01/01/2021  08:41:00      -98.671       -1.890      -14.531       56.100       20.199       25.497     3147.176      407.990      650.117        0.708        0.210       98.689       15.899        0.026      330.622       -1.889      866.681
01/01/2021  08:42:00      -52.227      -38.744       -7.116       55.746       39.606       28.265     3107.586     1568.650      798.902        0.488        0.274       65.029       25.647        0.156      330.691       -1.774      866.695
01/01/2021  08:43:00      -25.752      -32.476       -7.297       48.971       42.131       28.241     2398.119     1775.018      797.565        0.337        0.249       41.447       22.896        0.305      330.517       -2.061      866.686
01/01/2021  08:44:00     -129.675      -27.960      -10.898       62.418       38.121       32.914     3896.039     1453.235     1083.343        1.207        0.322      132.655       12.149        0.008      330.441       -2.184      866.674
01/01/2021  08:45:00      -81.771      -12.747      -12.510       51.765       24.759       20.573     2679.651      612.983      423.265        0.536        0.186       82.759       21.382        0.067      330.466       -2.142      866.680
01/01/2021  08:46:00      -27.718      -12.131       -2.064       42.810       22.483       26.169     1832.717      505.472      684.791        0.197        0.151       30.256       19.119        0.399      330.677       -1.797      866.688
01/01/2021  08:47:00       -6.419       -3.996       -9.432       52.968       36.072       32.343     2805.659     1301.221     1046.071        0.265        0.258        7.561       33.503       19.632      330.604       -1.916      866.705
01/01/2021  08:48:00      -41.917       -5.807        5.841       63.638       31.516       27.909     4049.825      993.247      778.915        0.382        0.291       42.318       13.832        0.107      330.653       -1.837      866.711
01/01/2021  08:49:00      -72.334      -10.771      -17.823       54.488       19.643       25.961     2968.956      385.863      673.951        0.485        0.201       73.132       33.665        0.212      330.544       -2.016      866.720
01/01/2021  08:50:00      -68.605      -13.612      -18.216       51.407       26.824       27.769     2642.722      719.522      771.114        0.468        0.207       69.942       19.108        0.075      330.589       -1.940      866.739
01/01/2021  08:51:00      -39.844       16.458      -11.236       50.595       29.031       24.846     2559.900      842.785      617.332        0.300        0.201       43.109       21.172        0.241      330.607       -1.912      866.763
01/01/2021  08:52:00       -9.393       -4.631       -7.196       53.497       24.988       25.262     2861.936      624.397      638.183        0.214        0.206       10.473       33.145       10.017      330.708       -1.746      866.796
01/01/2021  08:53:00       -6.035        1.075       -5.964       39.617       17.545       22.449     1569.519      307.817      503.969        0.123        0.119        6.130       21.693       12.523      330.805       -1.586      866.820
01/01/2021  08:54:00      -17.170        0.107       -1.368       40.353       13.699       22.699     1628.389      187.663      515.252        0.131        0.117       17.171       21.690        1.596      330.809       -1.580      866.835
01/01/2021  08:55:00      -57.928       16.117      -14.130       41.654       15.687       20.669     1735.050      246.070      427.195        0.311        0.120       60.128       22.391        0.139      330.750       -1.678      866.828
01/01/2021  08:56:00      -59.872        5.274       -6.434       40.533       16.626       20.431     1642.955      276.432      417.429        0.299        0.117       60.104       20.882        0.121      330.809       -1.582      866.816
01/01/2021  08:57:00      -22.229       -3.924      -10.192       43.883       12.215       23.371     1925.721      149.198      546.226        0.162        0.131       22.572       24.097        1.140      330.931       -1.381      866.808
01/01/2021  08:58:00        5.636       -4.061        1.975       39.180        7.122       21.100     1535.096       50.718      445.222        0.104        0.102        6.947       23.364       11.311      331.262       -0.836      866.799
01/01/2021  08:59:00       -1.358        6.830       -4.601       29.022       14.679       16.293      842.304      215.472      265.469        0.070        0.066        6.964       16.902        5.891      331.068       -1.154      866.803
01/01/2021  09:00:00       37.944       40.376       -0.187       50.902       30.706       22.127     2590.968      942.854      489.607        0.355        0.201       55.407       32.242        0.339      331.377       -0.647      866.803
01/01/2021  09:01:00       51.316       23.167      -10.211       55.967       27.793       26.307     3132.261      772.433      692.049        0.393        0.230       56.303       33.484        0.354      331.431       -0.559      866.813
01/01/2021  09:02:00       43.111      -34.087      -22.570       42.889       35.539       27.186     1839.477     1262.988      739.056        0.368        0.192       54.959       28.295        0.265      331.714       -0.092      866.825
01/01/2021  09:03:00       52.970       -6.727      -15.673       56.405       30.196       30.095     3181.488      911.824      905.715        0.405        0.250       53.395       36.323        0.463      331.817        0.078      866.831
01/01/2021  09:04:00       37.222       -9.178      -12.786       43.079       24.476       25.517     1855.808      599.098      651.105        0.237        0.155       38.336       26.756        0.487      331.663       -0.175      866.849
01/01/2021  09:05:00       35.663        9.499      -15.319       47.449       35.161       25.943     2251.408     1236.266      673.051        0.288        0.208       36.906       32.570        0.779      331.799        0.049      866.871
01/01/2021  09:06:00        9.101       30.240       -3.237       37.825       20.232       26.966     1430.760      409.336      727.183        0.179        0.128       31.580       29.317        0.862      331.741       -0.049      866.886
01/01/2021  09:07:00       57.608       60.186      -20.208       52.622       21.306       28.134     2769.095      453.963      791.499        0.568        0.201       83.312       34.663        0.173      331.728       -0.070      866.909
01/01/2021  09:08:00       26.251        5.603       -1.711       56.535       46.011       31.936     3196.251     2117.054     1019.907        0.353        0.317       26.842       30.640        1.303      331.844        0.121      866.940
01/01/2021  09:09:00       62.123      -82.264      -32.210       58.553       31.791       30.513     3428.399     1010.645      931.047        0.852        0.269      103.086       36.978        0.129      331.791        0.035      866.968
01/01/2021  09:10:00       70.700      -55.488      -30.964       51.072       24.355       25.057     2608.361      593.151      627.843        0.643        0.191       89.874       32.589        0.131      331.500       -0.445      866.972
01/01/2021  09:11:00       54.247       12.994       -9.182       48.982       19.600       26.944     2399.263      384.157      725.963        0.335        0.175       55.782       32.224        0.334      331.736       -0.056      866.964
01/01/2021  09:12:00       -0.745      -27.525       -7.228       46.851       23.099       24.048     2195.006      533.558      578.283        0.206        0.165       27.535       21.445        0.607      331.867        0.159      866.954
01/01/2021  09:13:00      -19.085       -0.261      -18.867       43.377       22.025       20.929     1881.569      485.099      438.014        0.176        0.140       19.087       19.890        1.086      331.727       -0.072      866.943
01/01/2021  09:14:00       -2.958      -64.737      -23.123       79.349       33.525       36.911     6296.305     1123.901     1362.430        0.676        0.439       64.804       31.226        0.232      331.742       -0.047      866.930
01/01/2021  09:15:00      -25.974      -39.468      -31.699       64.019       37.758       30.093     4098.429     1425.640      905.614        0.483        0.321       47.248       38.473        0.663      331.679       -0.151      866.911
01/01/2021  09:16:00      -30.067      -20.857       -8.100       60.919       36.975       41.409     3711.089     1367.169     1714.718        0.410        0.340       36.593       25.518        0.486      331.584       -0.306      866.884
01/01/2021  09:17:00      -24.881      -10.069       -7.732       54.479       28.275       28.502     2967.967      799.479      812.354        0.268        0.229       26.841       24.973        0.866      331.643       -0.210      866.864
01/01/2021  09:18:00      -25.078        9.064       -0.324       63.665       42.853       37.492     4053.244     1836.341     1405.651        0.400        0.365       26.666       32.152        1.454      331.538       -0.383      866.848
01/01/2021  09:19:00       -4.266      -61.956      -28.571       63.708       50.983       33.256     4058.695     2599.226     1105.948        0.622        0.388       62.102       35.099        0.319      331.798        0.045      866.834
01/01/2021  09:20:00      -17.401      -38.260       -8.433       52.292       39.256       29.316     2734.499     1541.050      859.402        0.349        0.257       42.031       24.787        0.348      331.753       -0.028      866.826
01/01/2021  09:21:00      -53.264      -50.171      -29.301       46.715       39.646       26.727     2182.254     1571.837      714.315        0.534        0.223       73.172       16.850        0.053      331.621       -0.246      866.823
01/01/2021  09:22:00        5.477       -1.511      -13.466       53.322       34.663       26.739     2843.254     1201.490      714.963        0.249        0.238        5.682       14.565        6.571      331.671       -0.163      866.814
01/01/2021  09:23:00       -0.308      -19.441      -12.294       55.998       36.981       34.927     3135.784     1367.581     1219.864        0.312        0.286       19.443       26.615        1.874      331.553       -0.358      866.813
01/01/2021  09:24:00      -42.124      -33.618      -20.827       59.022       30.031       26.218     3483.579      901.858      687.358        0.420        0.254       53.895       18.809        0.122      331.339       -0.708      866.812
01/01/2021  09:25:00       -5.610      -10.451      -19.149       45.609       31.061       30.918     2080.142      964.811      955.911        0.225        0.200       11.862       22.711        3.666      331.565       -0.338      866.805
01/01/2021  09:26:00       -9.883      -22.706      -26.577       43.776       19.013       21.915     1916.355      361.476      480.288        0.204        0.138       24.763       23.204        0.878      331.632       -0.228      866.788
01/01/2021  09:27:00       -6.633      -10.192      -12.069       47.851       22.713       24.079     2289.756      515.869      579.775        0.184        0.169       12.161       23.192        3.637      331.738       -0.052      866.786
01/01/2021  09:28:00      -34.049      -41.313      -10.565       36.826       35.485       26.044     1356.159     1259.181      678.307        0.313        0.165       53.535       21.925        0.168      331.567       -0.334      866.797
01/01/2021  09:29:00       13.341        4.849       -9.013       34.719       14.556       21.777     1205.399      211.888      474.220        0.109        0.095       14.195       18.353        1.672      331.746       -0.039      866.812
01/01/2021  09:30:00       17.695      -10.313      -12.630       46.022       39.788       27.439     2118.043     1583.099      752.894        0.252        0.223       20.481       28.548        1.943      331.853        0.135      866.823
01/01/2021  09:31:00      -16.203        6.138       -1.396       35.571       17.179       17.270     1265.290      295.105      298.244        0.108        0.093       17.326       14.803        0.730      331.773        0.005      866.846
01/01/2021  09:32:00       12.932      -34.598      -16.184       73.193       57.214       27.735     5357.173     3273.460      769.244        0.551        0.470       36.936       40.970        1.230      331.669       -0.167      866.870
01/01/2021  09:33:00      124.067     -108.122      -41.130       46.897       36.828       24.991     2199.284     1356.300      624.566        1.648        0.209      164.569       29.436        0.032      331.749       -0.037      866.884
01/01/2021  09:34:00       97.159     -117.476      -37.743       60.979       48.420       33.239     3718.422     2344.508     1104.825        1.591        0.358      152.448       34.103        0.050      331.827        0.095      866.888
01/01/2021  09:35:00      112.775      -47.327      -27.711       63.165       40.242       33.426     3989.831     1619.384     1117.318        1.122        0.336      122.303       37.111        0.092      331.950        0.296      866.884
01/01/2021  09:36:00       32.779      -37.459       -9.483       69.970       39.775       35.775     4895.817     1582.016     1279.849        0.516        0.388       49.776       44.145        0.787      332.254        0.797      866.882
01/01/2021  09:37:00      -25.079      -20.965       -6.290       32.815       20.837       18.447     1076.839      434.162      340.277        0.148        0.093       32.687       11.428        0.122      331.932        0.265      866.893
01/01/2021  09:38:00        6.383      -32.059      -15.947       46.030       27.616       26.114     2118.803      762.652      681.928        0.244        0.178       32.689       27.682        0.717      332.079        0.509      866.922
01/01/2021  09:39:00       47.908      -98.211      -29.456       70.492       64.155       28.747     4969.159     4115.825      826.402        1.136        0.496      109.273       34.662        0.101      332.103        0.547      866.934
01/01/2021  09:40:00       90.323      -91.965      -31.947       55.300       43.403       30.536     3058.061     1883.850      932.444        1.175        0.294      128.903       36.015        0.078      331.858        0.145      866.945
01/01/2021  09:41:00       62.643      -96.365      -32.613       54.171       41.785       27.153     2934.505     1746.013      737.260        0.984        0.271      114.936       32.902        0.082      331.904        0.221      866.953
01/01/2021  09:42:00       96.116     -134.170      -40.048       56.319       50.888       31.947     3171.814     2589.586     1020.582        1.781        0.339      165.045       35.380        0.046      331.734       -0.060      866.946
01/01/2021  09:43:00       92.004      -31.268      -31.524       57.424       63.046       36.278     3297.470     3974.799     1316.068        0.951        0.429       97.172       30.950        0.101      331.973        0.335      866.939
01/01/2021  09:44:00       32.351      -25.805      -10.404       56.147       42.567       40.042     3152.481     1811.912     1603.334        0.419        0.328       41.383       35.985        0.756      332.405        1.048      866.925
01/01/2021  09:45:00      -23.392      -11.541       -4.350       37.768       43.936       26.009     1426.396     1930.348      676.479        0.237        0.202       26.085       17.877        0.470      332.156        0.636      866.911
01/01/2021  09:46:00       41.307        7.157      -25.480       59.369       65.364       42.432     3524.699     4272.404     1800.461        0.600        0.480       41.922       39.796        0.901      332.512        1.223      866.894
01/01/2021  09:47:00       82.526        2.169      -16.587       74.153       61.060       39.462     5498.706     3728.263     1557.253        0.893        0.539       82.554       40.279        0.238      332.397        1.034      866.882
01/01/2021  09:48:00       37.895      -22.730       -8.367       66.965       63.996       41.336     4484.272     4095.448     1708.629        0.615        0.514       44.190       38.865        0.774      332.418        1.067      866.899
01/01/2021  09:49:00       30.199      -25.272      -11.820       78.977       77.099       45.047     6237.410     5944.309     2029.217        0.795        0.711       39.378       35.756        0.824      332.210        0.724      866.906
01/01/2021  09:50:00      129.997     -150.897      -46.575       64.785       65.438       29.647     4197.128     4282.124      878.963        2.560        0.468      199.171       34.451        0.030      331.943        0.283      866.898
01/01/2021  09:51:00      126.490     -174.927      -45.818       59.940       33.211       32.127     3592.786     1102.945     1032.136        2.721        0.286      215.868       37.010        0.029      331.827        0.092      866.899
01/01/2021  09:52:00      139.685     -166.832      -50.910       51.440       34.553       26.158     2646.056     1193.942      684.257        2.723        0.226      217.589       28.622        0.017      331.858        0.142      866.900
01/01/2021  09:53:00      114.855     -117.336      -42.393       69.197       61.578       40.986     4788.263     3791.881     1679.865        1.951        0.513      164.193       48.676        0.088      331.968        0.323      866.918
01/01/2021  09:54:00      109.160     -133.528      -46.695       66.583       36.787       30.395     4433.295     1353.304      923.866        1.932        0.336      172.469       38.375        0.050      331.870        0.164      866.951
01/01/2021  09:55:00      111.616     -134.118      -45.990       59.168       40.670       32.451     3500.821     1654.077     1053.067        1.938        0.310      174.487       36.828        0.045      332.021        0.413      866.967
01/01/2021  09:56:00      131.794      -87.240      -40.137       51.638       24.935       24.110     2666.474      621.741      581.280        1.523        0.193      158.052       30.309        0.037      331.867        0.159      866.972
01/01/2021  09:57:00       97.753       -3.374      -30.082       63.141       52.384       35.126     3986.820     2744.121     1233.829        0.922        0.398       97.811       40.086        0.168      332.194        0.698      866.971
01/01/2021  09:58:00       80.538        1.840      -28.832       80.521       43.320       40.263     6483.551     1876.646     1621.074        0.865        0.499       80.559       47.927        0.354      332.191        0.693      866.958
01/01/2021  09:59:00      -37.350        4.310        2.715       41.400       35.548       21.844     1713.971     1263.667      477.174        0.244        0.173       37.598       21.849        0.338      332.287        0.853      866.946
01/01/2021  10:00:00       55.825      -67.787      -21.161       69.781       53.525       29.474     4869.399     2864.933      868.728        0.838        0.430       87.815       43.219        0.242      332.184        0.682      866.947
01/01/2021  10:01:00       94.019      -41.371      -26.996       52.714       46.369       29.251     2778.814     2150.063      855.593        0.853        0.289      102.719       34.037        0.110      332.315        0.898      866.953
01/01/2021  10:02:00      110.915      -12.856      -18.236       80.908       47.287       44.211     6546.130     2236.090     1954.584        1.177        0.537      111.658       43.456        0.151      332.431        1.090      866.937
01/01/2021  10:03:00       67.524        4.743      -17.907       72.522       69.177       50.752     5259.499     4785.472     2575.741        0.876        0.631       67.690       50.882        0.565      332.686        1.509      866.932
01/01/2021  10:04:00      168.494       79.334      -37.926       56.352       43.307       30.350     3175.503     1875.507      921.104        2.105        0.299      186.237       31.651        0.029      332.114        0.565      866.923
01/01/2021  10:05:00       76.247       40.766      -17.921       66.067       53.458       37.054     4364.796     2857.719     1373.024        0.819        0.430       86.461       42.213        0.238      332.375        0.996      866.912
01/01/2021  10:06:00      139.838       26.804      -22.627      101.114       64.565       42.268    10223.954     4168.580     1786.575        1.848        0.809      142.384       53.707        0.142      332.242        0.776      866.894
01/01/2021  10:07:00      152.923       16.241      -31.098       71.825       55.111       36.405     5158.804     3037.232     1325.317        1.707        0.476      153.783       37.630        0.060      332.290        0.855      866.880
01/01/2021  10:08:00       88.291      -15.536      -15.093       72.425       50.797       37.185     5245.357     2580.291     1382.733        0.873        0.460       89.648       38.312        0.183      332.561        1.303      866.855
01/01/2021  10:09:00      100.289       46.941      -25.579       76.581       57.770       33.497     5864.580     3337.403     1122.057        1.162        0.516      110.731       34.635        0.098      332.526        1.245      866.844
01/01/2021  10:10:00       57.949       26.348      -22.660       73.597       35.266       32.495     5416.576     1243.699     1055.913        0.614        0.386       63.658       41.763        0.430      332.488        1.184      866.820
01/01/2021  10:11:00       32.346       35.226      -10.766       53.061       27.479       26.980     2815.491      755.120      727.894        0.335        0.215       47.824       32.288        0.456      332.592        1.354      866.807
01/01/2021  10:12:00       11.694       -8.993        3.361       61.006       33.187       32.037     3721.720     1101.354     1026.363        0.304        0.292       14.752       32.846        4.958      332.931        1.915      866.794
01/01/2021  10:13:00       26.195      -74.122      -30.155       52.962       46.404       38.934     2804.962     2153.362     1515.863        0.678        0.324       78.614       33.024        0.176      332.888        1.844      866.797
01/01/2021  10:14:00       65.116     -114.927      -35.691       64.059       43.122       33.809     4103.581     1859.508     1143.081        1.291        0.355      132.092       38.566        0.085      332.521        1.237      866.809
01/01/2021  10:15:00       48.683        6.584      -19.253       80.494       57.705       39.905     6479.360     3329.879     1592.375        0.709        0.570       49.126       47.760        0.945      332.668        1.482      866.817
01/01/2021  10:16:00      139.551       -7.721      -16.253       65.785       41.364       45.119     4327.623     1710.967     2035.746        1.393        0.404      139.765       48.081        0.118      332.306        0.882      866.834
01/01/2021  10:17:00      117.396       59.018      -31.524       58.766       46.957       30.141     3453.430     2204.938      908.456        1.241        0.328      131.396       35.610        0.073      332.228        0.753      866.859
01/01/2021  10:18:00       50.052       54.890       -7.397       53.685       32.836       30.240     2882.123     1078.232      914.464        0.522        0.244       74.284       34.732        0.219      332.413        1.060      866.882
01/01/2021  10:19:00       11.796       10.360      -16.108       45.669       27.992       23.110     2085.652      783.565      534.093        0.195        0.170       15.699       25.843        2.710      332.657        1.462      866.877
01/01/2021  10:20:00        2.271       23.767        3.071       26.797       15.990       14.384      718.090      255.681      206.913        0.088        0.059       23.875       15.381        0.415      332.745        1.608      866.880
01/01/2021  10:21:00      -23.004       -0.925       -2.186       27.838       25.487       16.209      774.957      649.577      262.746        0.111        0.084       23.023       15.779        0.470      332.831        1.750      866.879
01/01/2021  10:22:00       55.067      -89.776      -19.903       81.448       32.926       29.467     6633.754     1084.104      868.293        1.004        0.429      105.319       44.325        0.177      332.586        1.345      866.869
01/01/2021  10:23:00       78.483     -106.662      -33.530       60.188       40.333       26.917     3622.648     1626.739      724.549        1.232        0.299      132.425       32.584        0.061      332.511        1.221      866.863
01/01/2021  10:24:00      -36.481      -88.586      -16.497       53.666       35.314       33.822     2880.018     1247.051     1143.947        0.736        0.264       95.804       21.324        0.050      332.714        1.557      866.853
01/01/2021  10:25:00      -47.686      -12.086      -19.256       34.910       23.875       21.716     1218.705      570.030      471.576        0.253        0.113       49.193        9.648        0.038      332.691        1.519      866.845
01/01/2021  10:26:00      -45.714      -28.141      -15.873       34.306       38.925       20.721     1176.869     1515.158      429.362        0.313        0.156       53.681       11.112        0.043      332.562        1.305      866.849
01/01/2021  10:27:00      -16.834      -40.962      -23.803       55.534       40.474       33.098     3084.080     1638.162     1095.477        0.417        0.291       44.286       22.100        0.249      332.814        1.721      866.855
01/01/2021  10:28:00      -55.281      -26.242        3.442       27.480       32.549       18.672      755.143     1059.448      348.632        0.296        0.108       61.193       14.810        0.059      332.588        1.349      866.838
01/01/2021  10:29:00      -13.350      -36.010       11.702       57.405       35.837       32.045     3295.389     1284.314     1026.895        0.361        0.280       38.405       16.333        0.181      332.777        1.661      866.820
01/01/2021  10:30:00      -60.407      -19.761      -25.079       45.442       27.433       24.658     2064.985      752.579      608.026        0.405        0.171       63.557       25.520        0.161      332.626        1.412      866.793
01/01/2021  10:31:00      -26.328      -38.833      -29.250       50.696       55.683       41.275     2570.096     3100.650     1703.634        0.521        0.369       46.916       40.124        0.731      332.827        1.743      866.760
01/01/2021  10:32:00      -45.543      -27.813      -17.136       53.438       47.969       30.221     2855.664     2300.987      913.297        0.460        0.303       53.364       28.224        0.280      332.763        1.639      866.739
01/01/2021  10:33:00      -32.457       -8.584       -8.646       33.740       30.041       23.607     1138.390      902.464      557.302        0.190        0.130       33.573       15.350        0.209      332.519        1.235      866.726
01/01/2021  10:34:00       -3.487      -14.780       -5.109       32.973       30.270       19.088     1087.251      916.283      364.357        0.131        0.118       15.186       22.491        2.193      332.584        1.342      866.702
01/01/2021  10:35:00      -21.847       40.006       -6.323       24.847       21.260       20.716      617.376      451.969      429.147        0.181        0.075       45.583       17.151        0.142      332.452        1.124      866.681
01/01/2021  10:36:00      -15.170       26.136       -6.827       17.251       11.317       13.585      297.582      128.066      184.539        0.078        0.031       30.219       11.493        0.145      332.380        1.005      866.660
01/01/2021  10:37:00       19.360       11.395      -15.308       41.099       17.209       22.777     1689.110      296.137      518.793        0.162        0.125       22.465       25.332        1.272      332.800        1.698      866.641
01/01/2021  10:38:00       35.459       34.348       -8.173       38.121       17.158       25.269     1453.190      294.409      638.498        0.244        0.119       49.368       25.857        0.274      332.856        1.791      866.615
01/01/2021  10:39:00      -34.746       48.655       -8.533       42.092       34.188       29.316     1771.719     1168.806      859.425        0.372        0.190       59.788       23.622        0.156      332.745        1.607      866.592
01/01/2021  10:40:00        5.009       -3.068      -19.569       48.165       60.233       27.193     2319.863     3628.005      739.479        0.355        0.334        5.873       29.493       25.215      332.641        1.435      866.567
01/01/2021  10:41:00      101.683      -94.317      -38.343       36.328       28.858       21.430     1319.727      832.797      459.247        1.166        0.131      138.691       21.645        0.024      332.633        1.423      866.541
01/01/2021  10:42:00       72.904     -110.789      -23.888       61.025       35.640       28.672     3724.048     1270.218      822.085        1.199        0.291      132.624       27.677        0.044      332.797        1.692      866.513
01/01/2021  10:43:00       -8.367      -17.343       -5.994       40.628       25.267       25.627     1650.655      638.413      656.765        0.168        0.147       19.256       21.135        1.205      333.071        2.147      866.505
01/01/2021  10:44:00       21.341      -18.265      -18.199       40.832       29.152       22.328     1667.289      849.820      498.560        0.207        0.151       28.090       19.525        0.483      332.841        1.765      866.492
01/01/2021  10:45:00      -20.169       -3.370       -0.158       31.113       29.063       15.939      968.044      844.677      254.054        0.124        0.103       20.449       12.982        0.403      333.104        2.199      866.476
01/01/2021  10:46:00       34.933       -4.777      -11.648       48.919       57.725       22.568     2393.020     3332.157      509.295        0.381        0.312       35.258       19.105        0.294      332.980        1.995      866.464
01/01/2021  10:47:00      -22.986        8.892       -0.868       27.439       22.838       18.133      752.900      521.589      328.800        0.111        0.080       24.646       13.933        0.320      332.987        2.007      866.447
01/01/2021  10:48:00      -33.986      -11.880       -5.643       32.750       31.241       16.317     1072.538      976.005      266.241        0.182        0.116       36.002        9.855        0.075      332.916        1.890      866.443
01/01/2021  10:49:00        3.029      -67.595      -14.892       35.417       23.711       23.876     1254.384      562.221      570.077        0.359        0.119       67.663       20.396        0.091      333.300        2.525      866.448
01/01/2021  10:50:00      -28.293       -1.763       -5.172       28.142       21.936       19.938      791.982      481.197      397.524        0.125        0.084       28.348       13.808        0.237      333.328        2.570      866.460
01/01/2021  10:51:00       -1.184       36.477        9.270       32.375       32.049       24.286     1048.121     1027.134      589.803        0.204        0.133       36.497       16.623        0.207      333.455        2.781      866.463
01/01/2021  10:52:00       -4.383       30.778       -2.394       15.076       26.863       15.608      227.283      721.597      243.611        0.108        0.060       31.089       13.255        0.182      333.176        2.320      866.462
01/01/2021  10:53:00        5.968      -15.655       -2.424       25.032       18.603       15.662      626.585      346.086      245.290        0.075        0.061       16.754        4.373        0.068      333.541        2.922      866.456
01/01/2021  10:54:00      -25.211      -31.102       -3.325       25.429       14.953       16.458      646.628      223.589      270.877        0.138        0.057       40.037        6.808        0.029      333.079        2.160      866.457
01/01/2021  10:55:00      -23.864      -31.573       -2.206       32.799       50.641       21.267     1075.795     2564.496      452.301        0.283        0.205       39.577       17.811        0.203      333.324        2.564      866.459
01/01/2021  10:56:00        1.569       -7.555        6.003       42.298       36.106       33.240     1789.127     1303.675     1104.906        0.215        0.210        7.716       19.316        6.266      333.544        2.930      866.458
01/01/2021  10:57:00      -30.830       13.750       -8.444       52.544       40.294       29.521     2760.859     1623.598      871.476        0.323        0.263       33.757       19.310        0.327      333.126        2.238      866.447
01/01/2021  10:58:00      -21.547      -24.161        6.159       54.626       39.209       29.680     2983.956     1537.322      880.890        0.324        0.270       32.373       21.413        0.438      333.265        2.466      866.422
01/01/2021  10:59:00      -20.083      -30.606       -0.651       52.738       62.207       26.166     2781.333     3869.722      684.651        0.434        0.367       36.607       24.599        0.452      333.232        2.412      866.365
01/01/2021  11:00:00      -24.902       17.627        8.924       30.382       26.694       16.403      923.051      712.561      269.057        0.146        0.095       30.509       10.057        0.109      333.659        3.118      866.309
01/01/2021  11:01:00       23.791       42.554       -6.144       41.109       36.687       31.265     1689.910     1345.959      977.518        0.321        0.201       48.753       29.434        0.365      333.564        2.963      866.256
01/01/2021  11:02:00       23.965       75.467       -4.037       48.540       30.405       20.227     2356.111      924.490      409.125        0.499        0.184       79.181       24.331        0.094      333.458        2.787      866.208
01/01/2021  11:03:00       25.842       -4.855       -8.262       49.674       38.195       26.685     2467.484     1458.826      712.097        0.270        0.232       26.294       21.252        0.653      333.542        2.927      866.162
01/01/2021  11:04:00      101.752      -69.719      -18.828       51.736       49.007       30.980     2676.646     2401.719      959.754        1.080        0.302      123.346       37.815        0.094      333.343        2.597      866.125
01/01/2021  11:05:00      112.018     -105.575      -33.582       38.129       32.656       23.439     1453.800     1066.420      549.403        1.395        0.153      153.929       22.370        0.021      333.082        2.164      866.094
01/01/2021  11:06:00       73.306     -100.441      -28.794       39.348       39.775       23.878     1548.246     1582.089      570.136        0.999        0.185      124.346       23.947        0.037      333.291        2.508      866.061
01/01/2021  11:07:00       89.275      -76.481      -29.523       71.492       71.077       28.482     5111.143     5051.884      811.198        1.283        0.549      117.556       26.738        0.052      333.444        2.762      866.040
01/01/2021  11:08:00       39.315      -81.293      -16.876       59.939       61.489       34.116     3592.645     3780.879     1163.915        0.849        0.427       90.300       34.009        0.142      333.572        2.975      866.013
01/01/2021  11:09:00       70.634      -75.533      -19.085       46.991       69.595       25.740     2208.161     4843.529      662.522        0.938        0.386      103.414       21.149        0.042      333.505        2.865      865.994
01/01/2021  11:10:00      130.127       70.633      -24.853       48.443       42.160       33.015     2346.752     1777.433     1090.019        1.388        0.261      148.061       28.969        0.038      333.126        2.236      865.993
01/01/2021  11:11:00       99.196       69.714      -11.451       35.665       31.890       21.031     1272.004     1016.970      442.292        0.878        0.137      121.243       15.644        0.017      333.131        2.246      865.994
01/01/2021  11:12:00       88.197       58.034      -12.809       45.176       41.749       24.658     2040.907     1742.983      608.025        0.785        0.220      105.578       13.494        0.016      333.329        2.574      865.979
01/01/2021  11:13:00       89.761       49.979      -16.099       44.918       56.380       30.274     2017.642     3178.697      916.506        0.846        0.306      102.737       20.994        0.042      333.305        2.533      865.962
01/01/2021  11:14:00       45.782       33.564      -16.800       34.629       36.495       20.717     1199.194     1331.883      429.195        0.323        0.148       56.768       16.546        0.085      333.444        2.763      865.925
01/01/2021  11:15:00       72.594       60.531      -14.236       35.907       18.692       15.871     1289.296      349.386      251.891        0.551        0.095       94.519       18.701        0.039      333.180        2.325      865.893
01/01/2021  11:16:00       12.885       18.603      -11.425       51.594       66.178       23.680     2661.991     4379.555      560.732        0.412        0.380       22.629       19.507        0.743      333.503        2.861      865.869
01/01/2021  11:17:00       33.123      -32.095       -4.257       47.994       52.999       27.687     2303.441     2808.898      766.595        0.401        0.294       46.122       21.981        0.227      333.712        3.206      865.872
01/01/2021  11:18:00        3.123      -30.803       -3.701       39.596       35.659       32.626     1567.858     1271.545     1064.436        0.244        0.195       30.961       21.696        0.491      333.893        3.507      865.848
01/01/2021  11:19:00      -16.929       -2.357      -11.953       37.937       26.630       17.918     1439.197      709.155      321.071        0.145        0.123       17.092       11.063        0.419      333.548        2.936      865.830
01/01/2021  11:20:00       22.635      -18.320      -10.791       49.030       49.698       34.479     2403.982     2469.921     1188.767        0.351        0.303       29.120       22.857        0.616      333.694        3.177      865.806
01/01/2021  11:21:00      -16.299       -5.727      -16.120       55.550       49.276       22.513     3085.814     2428.098      506.826        0.329        0.301       17.276       21.769        1.588      333.658        3.119      865.791
01/01/2021  11:22:00       64.573      -68.227      -31.763       57.049       66.514       21.034     3254.560     4424.138      442.448        0.898        0.406       93.939       17.221        0.034      333.503        2.860      865.778
01/01/2021  11:23:00       79.967      -49.195      -13.917       66.558       60.969       38.937     4429.983     3717.202     1516.080        0.933        0.483       93.887       40.488        0.186      333.543        2.928      865.744
01/01/2021  11:24:00       65.299      -70.889      -32.275       55.865       64.875       29.855     3120.915     4208.817      891.317        0.927        0.411       96.381       35.878        0.139      333.427        2.736      865.705
01/01/2021  11:25:00       34.587      -35.743      -20.404       49.143       50.597       29.085     2415.035     2560.106      845.963        0.435        0.291       49.738       29.338        0.348      333.807        3.364      865.677
01/01/2021  11:26:00      -16.620      -34.624      -19.193       52.114       38.869       24.618     2715.886     1510.837      606.056        0.334        0.242       38.406       20.990        0.299      333.761        3.287      865.655
01/01/2021  11:27:00       21.316        9.985      -11.822       38.986       28.949       21.079     1519.890      838.058      444.317        0.175        0.140       23.538       23.459        0.993      333.929        3.567      865.640
01/01/2021  11:28:00        5.891       -9.553       -8.201       38.294       40.256       24.259     1466.414     1620.533      588.505        0.193        0.184       11.223       19.586        3.045      333.882        3.489      865.635
01/01/2021  11:29:00      -47.735       34.285       -6.115       49.190       35.848       20.627     2419.695     1285.056      425.490        0.381        0.207       58.771       18.091        0.095      333.732        3.240      865.616
01/01/2021  11:30:00      -68.113       36.104        1.142       65.834       36.421       26.635     4334.181     1326.503      709.409        0.616        0.319       77.090       14.172        0.034      333.583        2.995      865.604
01/01/2021  11:31:00      -66.594       34.740       -3.351       46.575       42.570       22.112     2169.214     1812.182      488.926        0.506        0.224       75.111       15.410        0.042      333.606        3.032      865.585
01/01/2021  11:32:00      -38.096        8.806       -2.851       31.016       18.214       16.407      961.975      331.760      269.196        0.155        0.078       39.100       17.428        0.199      333.451        2.775      865.562
01/01/2021  11:33:00      -39.090       28.426       -1.782       30.080       14.913       14.738      904.792      222.397      217.207        0.184        0.067       48.333       10.607        0.048      333.410        2.706      865.529
01/01/2021  11:34:00      -35.139        0.106        4.306       40.047       35.352       21.758     1603.751     1249.765      473.418        0.229        0.166       35.139       18.933        0.290      333.643        3.092      865.501
01/01/2021  11:35:00      -16.115       11.910        2.571       34.776       35.580       23.441     1209.394     1265.924      549.489        0.172        0.151       20.039        7.524        0.141      333.819        3.383      865.465
01/01/2021  11:36:00       -8.187       31.995       -8.401       29.140       29.085       18.774      849.156      845.951      352.482        0.160        0.102       33.026       13.194        0.160      333.778        3.318      865.427
01/01/2021  11:37:00      -25.704       28.137        6.444       27.708       39.344       23.273      767.734     1547.965      541.632        0.217        0.143       38.110       18.400        0.233      333.896        3.512      865.386
01/01/2021  11:38:00       -6.175      -29.780       -5.946       68.800       45.059       25.761     4733.415     2030.333      663.652        0.419        0.371       30.413       32.516        1.143      333.878        3.481      865.343
01/01/2021  11:39:00       66.352     -100.248      -22.198       50.326       44.182       31.922     2532.670     1952.088     1019.034        1.022        0.275      120.217       31.477        0.069      333.806        3.363      865.303
01/01/2021  11:40:00       75.147     -108.973      -26.433       63.197       57.277       38.709     3993.916     3280.662     1498.397        1.349        0.439      132.371       37.584        0.081      333.762        3.289      865.264
01/01/2021  11:41:00       64.912      -98.515      -39.293       64.575       42.492       29.377     4169.904     1805.597      862.996        1.115        0.342      117.977       25.284        0.046      333.698        3.184      865.231
01/01/2021  11:42:00       44.587     -116.504      -22.313       54.580       42.612       24.773     2979.026     1815.780      613.693        1.073        0.270      124.745       21.196        0.029      333.847        3.429      865.211
01/01/2021  11:43:00       62.261      -15.754       -9.839       57.230       55.697       40.404     3275.249     3102.108     1632.523        0.611        0.400       64.223       40.361        0.395      333.948        3.597      865.205
01/01/2021  11:44:00       49.051      -23.075       -8.718       58.856       48.846       36.222     3464.007     2385.928     1312.007        0.509        0.358       54.207       30.433        0.315      333.787        3.332      865.212
01/01/2021  11:45:00       39.031      -34.211      -19.176       54.589       40.644       25.338     2979.916     1651.944      642.001        0.417        0.264       51.902       24.473        0.222      333.864        3.461      865.216
01/01/2021  11:46:00        4.307      -12.336      -15.253       41.556       38.807       28.923     1726.942     1505.961      836.562        0.224        0.203       13.066       16.243        1.545      334.037        3.747      865.223
01/01/2021  11:47:00       -1.601       -5.367       -3.611       35.886       22.725       18.830     1287.833      516.409      354.567        0.110        0.108        5.601       18.760       11.218      334.023        3.722      865.220
01/01/2021  11:48:00       37.300      -50.152      -26.561       71.033       55.776       27.505     5045.731     3111.010      756.542        0.676        0.446       62.502       37.795        0.366      333.931        3.570      865.210
01/01/2021  11:49:00      105.052      -58.575      -24.924       42.676       32.365       27.511     1821.259     1047.525      756.852        0.936        0.181      120.279       26.678        0.049      333.633        3.076      865.201
01/01/2021  11:50:00      122.089      -75.549      -25.726       53.931       40.102       35.634     2908.585     1608.138     1269.774        1.353        0.289      143.573       38.583        0.072      333.578        2.984      865.183
01/01/2021  11:51:00       37.562      -45.059      -10.218       45.655       32.516       23.809     2084.409     1057.297      566.866        0.363        0.185       58.661       26.033        0.197      333.631        3.073      865.173
01/01/2021  11:52:00      126.193     -106.295      -32.925       43.662       36.641       22.284     1906.360     1342.587      496.573        1.603        0.187      164.995       22.035        0.018      333.613        3.042      865.157
01/01/2021  11:53:00       66.197      -24.049      -27.294       48.480       71.708       31.767     2350.322     5141.993     1009.117        0.710        0.425       70.430       26.960        0.147      333.932        3.571      865.140
01/01/2021  11:54:00       86.961       51.568      -19.582       62.812       43.935       27.102     3945.396     1930.310      734.512        0.861        0.331      101.101       27.582        0.074      333.765        3.295      865.146
01/01/2021  11:55:00       92.834       63.476      -18.728       59.473       35.109       28.529     3537.047     1232.652      813.878        0.929        0.279      112.461       31.361        0.078      333.701        3.188      865.165
01/01/2021  11:56:00       13.315        9.547       -4.157       36.484       28.104       24.787     1331.104      789.855      614.400        0.151        0.137       16.384       22.677        1.916      333.894        3.507      865.176
01/01/2021  11:57:00        0.886       -0.117      -13.404       50.478       15.603       26.138     2548.012      243.448      683.201        0.183        0.174        0.893       33.378     1396.098      333.940        3.585      865.158
01/01/2021  11:58:00       28.662       21.496        4.968       52.041       25.625       30.671     2708.268      656.643      940.722        0.281        0.215       35.827       36.925        1.062      334.111        3.869      865.129
01/01/2021  11:59:00       -7.559       26.465       -9.031       43.373       16.256       22.021     1881.232      264.264      484.931        0.173        0.132       27.523       23.840        0.750      333.690        3.170      865.100
01/01/2021  12:00:00        6.500        9.640       -0.582       38.926        9.080       22.287     1515.222       82.443      496.698        0.111        0.105       11.627       25.956        4.984      333.977        3.646      865.068
01/01/2021  12:01:00        6.189       10.605      -13.879       49.347       19.242       23.254     2435.163      370.237      540.727        0.184        0.167       12.279       28.571        5.414      333.937        3.580      865.052
01/01/2021  12:02:00       90.667      -49.604      -17.083       56.709       36.289       32.862     3215.933     1316.861     1079.937        0.829        0.281      103.349       38.357        0.138      333.820        3.386      865.026
01/01/2021  12:03:00       79.902      -61.334      -25.577       53.194       35.759       38.028     2829.550     1278.678     1446.114        0.818        0.278      100.728       35.853        0.127      333.844        3.425      864.999
01/01/2021  12:04:00       64.652      -52.327      -26.660       59.448       52.000       33.344     3534.121     2704.020     1111.854        0.749        0.367       83.174       37.811        0.207      334.057        3.778      864.991
01/01/2021  12:05:00       17.170      -60.254      -30.620       47.462       25.576       23.173     2252.660      654.109      536.984        0.415        0.172       62.653       25.529        0.166      334.027        3.729      864.991
01/01/2021  12:06:00       50.981      -82.413      -16.562       50.874       39.356       31.385     2588.171     1548.895      985.014        0.739        0.256       96.907       35.261        0.132      334.008        3.697      864.992
01/01/2021  12:07:00       -3.925       -5.668      -20.150       43.286       44.481       29.868     1873.672     1978.563      892.126        0.260        0.237        6.894       30.189       19.176      334.168        3.962      864.989
01/01/2021  12:08:00       16.265      -79.535      -21.940       58.383       32.570       31.430     3408.528     1060.826      987.858        0.626        0.273       81.181       25.821        0.101      334.159        3.947      864.979
01/01/2021  12:09:00       -1.465      -35.218       -5.417       52.371       33.337       29.958     2742.740     1111.367      897.475        0.301        0.238       35.249       28.286        0.644      334.147        3.929      864.967
01/01/2021  12:10:00      -26.072       -4.785      -13.064       49.374       19.238       28.234     2437.743      370.109      797.149        0.224        0.180       26.507       31.142        1.380      334.107        3.862      864.948
01/01/2021  12:11:00      -38.061      -31.666      -18.303       48.813       35.749       21.189     2382.753     1278.012      448.986        0.345        0.205       49.512       29.675        0.359      334.182        3.986      864.924
01/01/2021  12:12:00      -12.784      -37.698       -6.869       41.932       32.451       26.245     1758.282     1053.074      688.815        0.257        0.175       39.806       23.571        0.351      334.212        4.035      864.910
01/01/2021  12:13:00       -6.063      -49.818      -19.976       51.702       48.644       24.851     2673.087     2366.229      617.556        0.429        0.283       50.186       27.254        0.295      334.240        4.083      864.896
01/01/2021  12:14:00      -27.529        5.438      -13.293       42.017       27.996       24.070     1765.391      783.757      579.380        0.205        0.156       28.061       24.353        0.753      334.299        4.181      864.880
01/01/2021  12:15:00        6.191       29.870      -15.259       45.562       15.757       24.687     2075.917      248.271      609.449        0.205        0.147       30.504       28.082        0.848      334.296        4.174      864.859
01/01/2021  12:16:00        9.121      -32.144      -26.380       48.740       40.880       23.920     2375.632     1671.135      572.176        0.321        0.231       33.413       28.453        0.725      334.267        4.129      864.846
01/01/2021  12:17:00       29.056      -47.283      -40.451       64.636       38.691       30.680     4177.749     1496.982      941.250        0.566        0.331       55.497       33.511        0.365      334.056        3.776      864.834
01/01/2021  12:18:00       55.005      -46.198      -13.248       55.720       38.743       27.082     3104.709     1501.055      733.461        0.534        0.267       71.832       30.184        0.177      334.004        3.691      864.824
01/01/2021  12:19:00       30.403      -70.132      -15.787       65.343       43.084       33.896     4269.693     1856.198     1148.917        0.668        0.364       76.439       38.461        0.253      334.198        4.012      864.810
01/01/2021  12:20:00        8.773      -15.296       -3.752       54.868       26.095       29.360     3010.525      680.974      862.017        0.244        0.228       17.633       31.858        3.264      334.387        4.326      864.794
01/01/2021  12:21:00       43.174       -3.015      -18.177       54.804       50.447       37.658     3003.468     2544.930     1418.108        0.458        0.348       43.279       36.467        0.710      334.301        4.183      864.778
01/01/2021  12:22:00       75.462      -58.152      -28.728       44.877       28.754       21.451     2013.950      826.811      460.143        0.660        0.165       95.268       25.312        0.071      333.976        3.644      864.759
01/01/2021  12:23:00       85.730      -91.514      -27.511       59.309       35.675       28.527     3517.580     1272.736      813.781        1.104        0.280      125.397       33.711        0.072      334.041        3.753      864.729
01/01/2021  12:24:00       77.832      -91.437      -32.593       45.278       39.598       24.432     2050.140     1567.971      596.938        0.985        0.211      120.077       23.222        0.037      333.855        3.443      864.699
01/01/2021  12:25:00       96.891      -82.644      -26.502       45.056       29.882       24.092     2030.022      892.921      580.434        1.021        0.175      127.350       28.835        0.051      333.852        3.438      864.668
01/01/2021  12:26:00      103.574      -76.594      -22.423       57.346       48.070       30.775     3288.590     2310.694      947.125        1.182        0.327      128.818       36.726        0.081      334.001        3.685      864.636
01/01/2021  12:27:00      102.976      -64.232      -33.094       50.141       42.241       24.716     2514.083     1784.262      610.875        1.037        0.245      121.367       26.648        0.048      333.947        3.596      864.593
01/01/2021  12:28:00       53.458      -17.697      -17.390       52.026       20.547       28.011     2706.723      422.168      784.626        0.369        0.196       56.311       34.254        0.370      334.002        3.687      864.568
01/01/2021  12:29:00       34.239       -6.013       -4.649       48.786       30.649       26.990     2380.052      939.382      728.468        0.264        0.202       34.763       32.676        0.884      334.295        4.173      864.547
01/01/2021  12:30:00       84.692      -75.697      -26.154       52.235       32.541       27.456     2728.546     1058.912      753.852        0.906        0.227      113.590       33.133        0.085      334.141        3.918      864.534
01/01/2021  12:31:00       77.676     -131.324      -28.357       53.337       34.702       29.391     2844.791     1204.257      863.832        1.450        0.246      152.577       34.080        0.050      334.178        3.979      864.519
01/01/2021  12:32:00       42.029      -40.540      -24.502       56.763       66.232       33.772     3222.016     4386.688     1140.517        0.638        0.437       58.395       32.128        0.303      334.437        4.410      864.515
01/01/2021  12:33:00       68.882       35.380      -22.203       62.079       39.861       30.847     3853.790     1588.912      951.541        0.644        0.320       77.437       31.883        0.170      334.259        4.114      864.533
01/01/2021  12:34:00       67.445       24.373      -18.819       49.722       52.271       26.366     2472.255     2732.272      695.177        0.570        0.295       71.714       26.918        0.141      334.221        4.051      864.539
01/01/2021  12:35:00       57.645       26.683      -21.091       46.142       47.181       28.687     2129.041     2226.020      822.931        0.483        0.259       63.522       25.140        0.157      334.186        3.992      864.540
01/01/2021  12:36:00       95.724       28.728      -15.347       67.762       48.081       28.779     4591.755     2311.786      828.207        0.898        0.387       99.942       34.085        0.116      334.156        3.942      864.533
01/01/2021  12:37:00      127.780       42.530      -12.564       51.456       28.137       28.944     2647.769      791.714      837.740        1.128        0.214      134.672       23.963        0.032      334.036        3.742      864.523
01/01/2021  12:38:00      126.544       42.881      -14.540       54.122       36.879       28.265     2929.140     1360.037      798.892        1.157        0.254      133.612       28.010        0.044      333.977        3.646      864.515
01/01/2021  12:39:00      123.238       35.502      -20.872       56.455       48.949       28.337     3187.198     2396.033      802.982        1.163        0.319      128.250       30.912        0.058      334.097        3.845      864.497
01/01/2021  12:40:00      102.813       35.548      -27.915       52.241       44.717       31.177     2729.137     1999.604      972.034        0.916        0.285      108.785       28.697        0.070      334.331        4.233      864.478
01/01/2021  12:41:00       68.651       81.044      -16.097       49.102       21.894       28.795     2410.961      479.349      829.167        0.763        0.186      106.213       31.768        0.089      334.083        3.822      864.462
01/01/2021  12:42:00       80.535       64.237      -21.411       57.509       26.342       27.136     3307.242      693.914      736.353        0.790        0.237      103.016       29.426        0.082      334.241        4.083      864.445
01/01/2021  12:43:00       82.646       39.026      -14.560       55.418       26.021       28.520     3071.142      677.094      813.394        0.656        0.228       91.397       36.409        0.159      334.342        4.251      864.441
01/01/2021  12:44:00       41.646       54.756       -6.088       47.697       28.118       26.580     2275.003      790.638      706.472        0.427        0.189       68.794       29.574        0.185      334.347        4.260      864.432
01/01/2021  12:45:00      -12.452       43.803       -9.570       46.502       46.611       34.466     2162.443     2172.605     1187.900        0.384        0.276       45.539       29.576        0.422      334.230        4.066      864.418
01/01/2021  12:46:00       10.558       22.080       -1.869       53.463       26.314       28.355     2858.272      692.406      803.998        0.248        0.218       24.474       30.603        1.564      334.510        4.529      864.386
01/01/2021  12:47:00       50.228       43.892      -18.370       58.688       21.876       26.206     3444.241      478.571      686.772        0.470        0.230       66.704       32.983        0.244      334.345        4.256      864.351
01/01/2021  12:48:00       34.607       49.737      -17.465       62.878       31.310       30.294     3953.590      980.286      917.726        0.491        0.293       60.592       29.661        0.240      334.238        4.078      864.319
01/01/2021  12:49:00        0.796       46.463      -15.040       47.945       23.973       24.802     2298.690      574.700      615.148        0.294        0.174       46.470       27.878        0.360      334.208        4.030      864.274
01/01/2021  12:50:00       17.847       44.297       -0.687       41.739       24.080       24.502     1742.102      579.824      600.336        0.260        0.146       47.757       23.699        0.246      334.437        4.410      864.247
01/01/2021  12:51:00        1.913       35.678       -6.021       40.023       31.681       23.721     1601.821     1003.707      562.674        0.224        0.158       35.729       22.254        0.388      334.508        4.529      864.234
01/01/2021  12:52:00       29.101      -14.521      -20.462       47.384       43.492       29.990     2245.244     1891.588      899.396        0.326        0.252       32.523       32.972        1.028      334.737        4.907      864.228
01/01/2021  12:53:00       78.107       19.641      -18.036       44.154       38.594       28.324     1949.535     1489.483      802.233        0.553        0.212       80.539       27.673        0.118      334.612        4.700      864.221
01/01/2021  12:54:00      106.201       64.185      -16.558       45.007       21.152       21.566     2025.645      447.409      465.088        0.930        0.147      124.090       19.414        0.024      334.142        3.920      864.213
01/01/2021  12:55:00      116.806       63.958      -23.184       41.485       25.567       20.163     1720.990      653.671      406.546        1.053        0.139      133.170       24.146        0.033      334.054        3.775      864.198
01/01/2021  12:56:00       75.215       49.918      -29.548       43.263       35.049       20.839     1871.686     1228.418      434.252        0.628        0.177       90.272       24.280        0.072      334.287        4.159      864.181
01/01/2021  12:57:00       54.875      -15.078      -17.861       54.872       58.682       35.983     3010.913     3443.615     1294.758        0.565        0.387       56.909       39.432        0.480      334.546        4.590      864.171
01/01/2021  12:58:00      114.395      -83.027      -27.237       36.367       25.806       22.299     1322.524      665.952      497.228        1.160        0.124      141.350       20.715        0.021      334.164        3.955      864.164
01/01/2021  12:59:00       39.121      -69.671      -16.398       48.903       22.226       23.107     2391.538      494.015      533.937        0.504        0.171       79.903       24.541        0.094      334.189        3.996      864.151
01/01/2021  13:00:00        1.479       -4.983       -6.039       60.380       33.874       26.442     3645.800     1147.446      699.186        0.278        0.275        5.198       32.535       39.175      334.686        4.822      864.149
01/01/2021  13:01:00       29.749      -62.837       -9.048       58.017       67.743       29.917     3365.967     4589.083      895.005        0.688        0.443       69.524       32.636        0.220      334.562        4.616      864.157
01/01/2021  13:02:00       74.268       66.808      -14.390       48.640       25.448       24.621     2365.801      647.597      606.209        0.690        0.181       99.895       29.880        0.089      334.293        4.171      864.189
01/01/2021  13:03:00       51.042       46.710      -13.708       31.668       11.441       14.368     1002.893      130.907      206.448        0.316        0.067       69.189       18.806        0.074      334.261        4.117      864.196
01/01/2021  13:04:00       26.251       33.092       -6.420       42.026       20.623       20.651     1766.187      425.289      426.480        0.222        0.131       42.240       26.488        0.393      334.544        4.588      864.183
01/01/2021  13:05:00       56.917       41.816       -7.085       40.881       33.718       20.729     1671.232     1136.877      429.671        0.414        0.162       70.627       21.983        0.097      334.619        4.712      864.159
01/01/2021  13:06:00       98.101       57.160      -10.783       53.657       33.085       24.321     2879.046     1094.606      591.487        0.879        0.228      113.539       28.811        0.064      334.421        4.383      864.128
01/01/2021  13:07:00       56.863       40.195       -9.174       41.009       41.499       24.600     1681.770     1722.146      605.162        0.447        0.200       69.635       20.987        0.091      334.725        4.887      864.121
01/01/2021  13:08:00       57.478       30.380      -12.234       44.303       52.248       31.094     1962.782     2729.803      966.834        0.502        0.283       65.013       25.143        0.150      334.712        4.866      864.101
01/01/2021  13:09:00       66.770       40.170       -6.667       63.324       61.752       31.095     4009.956     3813.316      966.880        0.745        0.440       77.922       28.906        0.138      334.642        4.748      864.074
01/01/2021  13:10:00       85.880       52.049      -11.261       54.243       42.812       27.559     2942.290     1832.858      759.485        0.787        0.277      100.421       28.174        0.079      334.666        4.790      864.052
01/01/2021  13:11:00       53.823       21.339      -19.216       50.243       41.093       26.142     2524.378     1688.619      683.415        0.431        0.245       57.899       28.836        0.248      334.859        5.109      864.044
01/01/2021  13:12:00       63.123       36.842       -8.517       52.111       25.888       26.606     2715.516      670.188      707.859        0.475        0.205       73.088       32.002        0.192      334.748        4.926      864.048
01/01/2021  13:13:00       34.162       30.386       -1.396       38.586       19.318       18.252     1488.859      373.191      333.148        0.214        0.110       45.720       18.519        0.164      334.697        4.841      864.048
01/01/2021  13:14:00       62.352      -19.562      -19.735       52.615       55.778       30.059     2768.325     3111.179      903.542        0.572        0.339       65.348       32.376        0.245      334.988        5.324      864.034
01/01/2021  13:15:00        3.110        3.469      -10.016       38.188       32.869       21.303     1458.322     1080.382      453.804        0.156        0.150        4.658       13.095        7.902      335.020        5.377      864.042
01/01/2021  13:16:00       26.112      -74.570      -22.158       38.488       30.470       17.901     1481.315      928.444      320.454        0.473        0.137       79.010       23.063        0.085      334.437        4.410      864.049
01/01/2021  13:17:00       35.877      -62.475      -16.694       33.399       31.818       20.363     1115.495     1012.355      414.649        0.401        0.127       72.044       19.924        0.076      334.709        4.861      864.044
01/01/2021  13:18:00        3.647      -21.460      -16.208       42.528       39.498       23.390     1808.589     1560.098      547.101        0.233        0.196       21.768       18.364        0.712      334.883        5.149      864.020
01/01/2021  13:19:00       29.348      -44.374       -7.539       45.466       39.182       30.572     2067.190     1535.224      934.676        0.371        0.227       53.201       31.229        0.345      334.988        5.325      864.006
01/01/2021  13:20:00       13.031        8.990       -7.521       33.153       25.370       18.553     1099.106      643.622      344.211        0.120        0.104       15.831       16.048        1.028      335.053        5.432      864.027
01/01/2021  13:21:00        0.596       23.586        4.375       34.645       14.368       17.900     1200.285      206.439      320.427        0.115        0.086       23.593       18.977        0.647      334.966        5.288      864.043
01/01/2021  13:22:00       39.643       16.929        2.239       35.832       24.263       16.761     1283.916      588.672      280.923        0.201        0.108       43.107       17.669        0.168      334.985        5.319      864.037
01/01/2021  13:23:00       23.185       46.883        7.988       41.219       24.931       16.235     1699.035      621.556      263.577        0.269        0.129       52.303       15.301        0.086      334.762        4.949      864.034
01/01/2021  13:24:00       37.567       50.462       -7.464       45.913       35.626       21.367     2108.026     1269.247      456.552        0.392        0.192       62.910       20.827        0.110      334.654        4.770      864.029
01/01/2021  13:25:00       72.045       12.344       -8.680       64.616       40.779       22.200     4175.194     1662.919      492.829        0.587        0.317       73.095       24.456        0.112      334.760        4.945      864.020
01/01/2021  13:26:00       80.880       40.838       -3.456       46.925       43.587       29.415     2201.998     1899.851      865.250        0.659        0.248       90.605       28.689        0.100      334.747        4.923      864.004
01/01/2021  13:27:00       49.033       -5.503      -19.113       48.557       63.193       30.039     2357.817     3993.393      902.358        0.503        0.363       49.341       32.043        0.422      334.753        4.932      863.994
01/01/2021  13:28:00       65.525      -44.152      -21.989       56.579       27.704       22.510     3201.162      767.505      506.712        0.560        0.224       79.012       30.878        0.153      334.549        4.595      863.998
01/01/2021  13:29:00        5.648      -23.900       -3.176       60.126       48.289       27.020     3615.105     2331.793      730.059        0.364        0.334       24.558       23.306        0.901      334.744        4.920      864.010
01/01/2021  13:30:00       54.080      -50.071      -12.179       59.838       54.982       39.176     3580.559     3023.071     1534.760        0.686        0.407       73.700       41.636        0.319      334.788        4.993      864.018
01/01/2021  13:31:00       93.025       34.388      -30.194       41.419       27.383       22.869     1715.549      749.851      522.972        0.687        0.149       99.177       25.646        0.067      334.489        4.494      864.033
01/01/2021  13:32:00       65.892       41.649      -16.887       42.157        9.543       18.888     1777.192       91.064      356.758        0.429        0.111       77.952       27.049        0.120      334.443        4.418      864.047
01/01/2021  13:33:00        9.464        1.517      -16.444       40.020       32.284       23.181     1601.581     1042.253      537.340        0.177        0.159        9.584       25.546        7.104      334.687        4.823      864.055
01/01/2021  13:34:00       19.901       -5.618       -9.017       41.477       32.821       31.392     1720.316     1077.234      985.476        0.215        0.189       20.679       30.335        2.152      334.917        5.206      864.038
01/01/2021  13:35:00       57.908      -32.076      -26.732       46.595       44.173       23.007     2171.067     1951.286      529.300        0.487        0.233       66.198       20.443        0.095      334.806        5.022      864.015
01/01/2021  13:36:00       43.719       51.237       -2.980       44.355       33.595       27.879     1967.379     1128.623      777.222        0.421        0.194       67.354       20.858        0.096      334.952        5.266      863.998
01/01/2021  13:37:00        2.935        4.003       -3.582       42.011       40.742       26.618     1764.882     1659.949      708.529        0.208        0.207        4.964       26.849       29.257      334.864        5.118      863.994
01/01/2021  13:38:00       13.471       -5.808        3.120       48.197       23.491       19.094     2322.990      551.807      364.573        0.173        0.162       14.670       16.544        1.272      334.935        5.236      863.975
01/01/2021  13:39:00        3.627       13.694       -6.810       41.528       14.115       17.611     1724.559      199.233      310.158        0.124        0.112       14.166       24.322        2.948      334.813        5.032      863.947
01/01/2021  13:40:00       -0.573       16.380       -6.990       40.736       19.110       20.854     1659.452      365.173      434.884        0.139        0.123       16.390       26.482        2.611      334.977        5.307      863.925
01/01/2021  13:41:00       -4.876       13.215      -23.529       37.034       23.521       20.244     1371.503      553.234      409.839        0.154        0.117       14.086       18.126        1.656      334.886        5.156      863.924
01/01/2021  13:42:00       33.273       40.548       -2.876       29.949       16.909       20.621      896.930      285.924      425.227        0.218        0.080       52.453        6.178        0.014      334.861        5.113      863.939
01/01/2021  13:43:00       41.753       35.887       -5.050       40.851       40.135       25.626     1668.809     1610.815      656.710        0.350        0.197       55.056       28.978        0.277      334.888        5.159      863.948
01/01/2021  13:44:00       34.237       39.005       -8.661       34.245       24.156       19.670     1172.733      583.495      386.922        0.246        0.107       51.900       20.727        0.159      334.805        5.020      863.938
01/01/2021  13:45:00       35.761        5.616       -7.552       47.878       30.788       27.130     2292.336      947.920      736.048        0.267        0.199       36.200       24.364        0.453      334.965        5.286      863.906
01/01/2021  13:46:00       -9.927      -13.912       -5.106       49.079       58.179       27.995     2408.722     3384.847      783.705        0.345        0.329       17.090       25.111        2.159      335.025        5.385      863.861
01/01/2021  13:47:00       92.451      -66.349      -20.355       41.824       32.056       22.462     1749.212     1027.584      504.538        0.832        0.164      113.795       23.833        0.044      334.657        4.774      863.844
01/01/2021  13:48:00       49.083       16.270        0.701       42.932       53.437       27.860     1843.194     2855.490      776.202        0.407        0.274       51.709       20.248        0.153      334.722        4.881      863.848
01/01/2021  13:49:00      119.802       37.932      -10.180       46.333       48.908       24.158     2146.716     2392.037      583.606        1.051        0.256      125.664       11.365        0.008      334.712        4.866      863.835
01/01/2021  13:50:00       71.638        5.664      -11.987       51.671       62.441       27.687     2669.889     3898.860      766.571        0.632        0.367       71.862       25.371        0.125      335.056        5.437      863.816
01/01/2021  13:51:00      133.785       31.683      -19.305       42.347       49.072       23.911     1793.304     2408.073      571.755        1.202        0.239      137.485       22.513        0.027      334.748        4.924      863.802
01/01/2021  13:52:00       87.924       29.083      -10.955       42.094       39.818       23.013     1771.865     1585.499      529.616        0.629        0.194       92.609       19.830        0.046      334.830        5.062      863.778
01/01/2021  13:53:00       48.235        6.279       -7.780       56.595       34.942       29.081     3203.014     1220.942      845.721        0.385        0.263       48.642       31.369        0.416      335.014        5.368      863.759
01/01/2021  13:54:00       59.437       45.779      -12.762       65.309       35.226       28.357     4265.312     1240.899      804.119        0.605        0.316       75.023       29.521        0.155      334.904        5.184      863.746
01/01/2021  13:55:00       65.046       35.576       -8.878       57.963       46.919       28.735     3359.754     2201.394      825.714        0.598        0.319       74.139       21.850        0.087      335.063        5.449      863.735
01/01/2021  13:56:00       24.996      -33.934      -21.064       50.483       53.866       28.551     2548.573     2901.528      815.141        0.424        0.313       42.146       31.732        0.567      335.034        5.399      863.721
01/01/2021  13:57:00       31.004      -50.803      -19.579       42.623       46.611       22.367     1816.684     2172.587      500.269        0.421        0.224       59.516       18.039        0.092      335.130        5.559      863.700
01/01/2021  13:58:00       96.084      -81.107      -31.712       56.504       44.816       25.662     3192.652     2008.469      658.523        1.134        0.293      125.740       28.420        0.051      334.917        5.207      863.693
01/01/2021  13:59:00       54.290      -36.044       -9.277       53.019       47.951       29.772     2811.008     2299.342      886.355        0.516        0.300       65.166       26.345        0.163      335.054        5.434      863.677
01/01/2021  14:00:00      137.941     -103.502      -34.947       52.720       52.499       29.856     2779.390     2756.100      891.403        1.869        0.321      172.454       30.402        0.031      334.831        5.064      863.647
01/01/2021  14:01:00       67.349      -21.749      -10.056       60.986       61.939       43.182     3719.340     3836.388     1864.679        0.726        0.471       70.774       31.602        0.199      334.929        5.226      863.645
01/01/2021  14:02:00       70.976      -42.717      -32.715       50.889       55.593       29.526     2589.664     3090.632      871.763        0.724        0.328       82.839       28.976        0.122      334.839        5.076      863.659
01/01/2021  14:03:00       66.370      -27.406      -22.255       62.348       57.995       34.459     3887.280     3363.435     1187.453        0.704        0.422       71.806       35.340        0.242      334.984        5.317      863.684
01/01/2021  14:04:00       70.117       -2.217      -24.913       40.192       45.045       30.012     1615.403     2029.046      900.718        0.504        0.227       70.152       19.603        0.078      335.004        5.350      863.719
01/01/2021  14:05:00       81.866       25.401      -10.328       44.330       43.087       26.610     1965.128     1856.479      708.080        0.599        0.226       85.716       24.512        0.082      334.778        4.975      863.732
01/01/2021  14:06:00       40.327       -1.836       -8.041       50.722       27.795       26.083     2572.732      772.547      680.317        0.286        0.201       40.368       31.569        0.612      334.969        5.293      863.734
01/01/2021  14:07:00       47.643       34.237       -2.940       50.495       28.994       27.871     2549.714      840.654      776.769        0.381        0.208       58.669       29.389        0.251      334.918        5.206      863.740
01/01/2021  14:08:00       38.939       51.193       -6.818       39.953       25.433       24.952     1596.203      646.831      622.605        0.352        0.143       64.319       26.451        0.169      334.796        5.005      863.729
01/01/2021  14:09:00       40.083       45.537       -8.685       41.208       18.253       20.167     1698.116      333.187      406.720        0.310        0.122       60.666       26.370        0.189      334.772        4.966      863.721
01/01/2021  14:10:00       82.051       43.203      -13.432       50.158       19.729       23.171     2515.841      389.245      536.905        0.611        0.172       92.730       30.864        0.111      334.823        5.051      863.705
01/01/2021  14:11:00       42.433        5.255       -4.450       67.065       46.611       29.587     4497.711     2172.583      875.408        0.470        0.377       42.757       34.206        0.640      335.109        5.525      863.683
01/01/2021  14:12:00      105.247       -7.546      -30.251       48.038       46.462       24.871     2307.629     2158.677      618.569        0.857        0.254      105.517        7.884        0.006      334.881        5.147      863.679
01/01/2021  14:13:00       13.540       11.381        9.602       41.275       37.115       24.131     1703.641     1377.542      582.286        0.203        0.183       17.688       20.153        1.298      334.972        5.298      863.684
01/01/2021  14:14:00       44.509        8.259      -19.953       53.379       38.464       23.960     2849.356     1479.478      574.071        0.367        0.245       45.269       31.101        0.472      334.897        5.173      863.686
01/01/2021  14:15:00       60.407       21.464      -16.732       59.070       39.386       24.907     3489.272     1551.229      620.348        0.502        0.283       64.107       23.047        0.129      334.937        5.240      863.720
01/01/2021  14:16:00       90.917       30.813       -8.332       53.852       34.177       25.872     2900.025     1168.049      669.353        0.701        0.237       95.996       31.518        0.108      334.915        5.204      863.748
01/01/2021  14:17:00       90.187       41.383      -16.906       50.647       31.070       23.740     2565.100      965.368      563.584        0.711        0.205       99.228       27.927        0.079      334.911        5.197      863.755
01/01/2021  14:18:00       62.259      -56.178      -27.854       47.230       43.260       28.623     2230.649     1871.411      819.288        0.636        0.246       83.858       28.772        0.118      335.129        5.559      863.729
01/01/2021  14:19:00       48.519      -35.185      -17.962       67.014       77.494       39.834     4490.915     6005.310     1586.715        0.800        0.604       59.934       41.806        0.487      335.198        5.673      863.697
01/01/2021  14:20:00       96.680      -66.894      -25.622       67.420       55.870       40.472     4545.413     3121.476     1637.967        1.189        0.465      117.566       42.288        0.129      335.026        5.388      863.681
01/01/2021  14:21:00       79.639       21.935      -38.672       55.278       65.959       26.103     3055.619     4350.634      681.360        0.820        0.404       82.605       27.648        0.112      334.934        5.235      863.674
01/01/2021  14:22:00       82.793       23.451      -36.844       48.971       65.897       29.479     2398.178     4342.464      869.021        0.818        0.380       86.050       17.418        0.041      334.942        5.248      863.651
01/01/2021  14:23:00       55.310      -48.298      -14.986       50.842       70.219       31.391     2584.866     4930.746      985.405        0.706        0.425       73.430       30.678        0.175      335.070        5.460      863.641
01/01/2021  14:24:00       61.161      -43.488      -16.433       48.110       50.728       28.525     2314.575     2573.345      813.694        0.580        0.285       75.045       26.580        0.125      335.150        5.595      863.637
01/01/2021  14:25:00       -8.831       -4.406       -1.878       45.562       41.905       34.392     2075.877     1756.064     1182.801        0.256        0.251        9.869       24.688        6.257      335.278        5.804      863.626
01/01/2021  14:26:00      -15.559        0.029       -7.837       48.542       27.316       22.925     2356.368      746.164      525.561        0.197        0.181       15.559       23.431        2.268      335.379        5.974      863.603
01/01/2021  14:27:00       -6.636        9.725       -5.596       39.199       35.857       25.710     1536.586     1285.752      661.003        0.183        0.174       11.773       17.545        2.221      335.384        5.982      863.581
01/01/2021  14:28:00       -5.086      -40.083      -25.860       43.644       42.655       30.138     1904.760     1819.486      908.292        0.347        0.232       40.404       31.228        0.597      335.390        5.991      863.568
01/01/2021  14:29:00       18.002       -1.434        1.696       49.911       36.806       38.697     2491.124     1354.681     1497.492        0.283        0.267       18.059       35.897        3.951      335.298        5.839      863.579
01/01/2021  14:30:00       48.425      -48.199      -12.246       46.052       43.954       25.539     2120.793     1931.971      652.225        0.476        0.235       68.323       28.107        0.169      334.927        5.224      863.591
01/01/2021  14:31:00       32.236      -90.521      -25.279       38.531       33.088       25.107     1484.635     1094.834      630.342        0.654        0.160       96.090       25.307        0.069      335.187        5.654      863.589
01/01/2021  14:32:00        0.565      -34.000       -6.920       34.870       33.326       21.265     1215.888     1110.643      452.187        0.199        0.139       34.005       22.736        0.447      335.274        5.799      863.587
01/01/2021  14:33:00       39.675       34.973      -14.709       38.303       19.872       20.104     1467.082      394.877      404.175        0.264        0.113       52.889       22.309        0.178      335.022        5.381      863.589
01/01/2021  14:34:00       39.071       45.348        3.812       42.910       19.465       22.026     1841.292      378.868      485.123        0.315        0.135       59.858       23.444        0.153      335.123        5.547      863.591
01/01/2021  14:35:00       -2.588      -15.382       -8.203       51.663       30.149       17.585     2669.095      908.982      309.243        0.210        0.194       15.599       16.772        1.156      335.235        5.734      863.602
01/01/2021  14:36:00       -6.159      -14.240       -7.052       43.807       30.714       27.475     1919.074      943.344      754.868        0.195        0.181       15.515       18.663        1.447      335.354        5.933      863.600
01/01/2021  14:37:00       30.547       21.638        3.069       51.491       47.102       26.268     2651.284     2218.565      689.990        0.348        0.278       37.435       24.046        0.413      335.347        5.920      863.593
01/01/2021  14:38:00       46.634        8.137       -9.223       64.170       61.733       34.597     4117.749     3810.932     1196.932        0.572        0.456       47.339       31.579        0.445      335.216        5.702      863.569
01/01/2021  14:39:00       33.774      -12.863       -5.350       56.112       50.720       29.084     3148.501     2572.484      845.886        0.395        0.328       36.141       24.421        0.457      335.221        5.711      863.546
01/01/2021  14:40:00       62.958       37.272      -14.307       41.917       39.955       22.956     1757.047     1596.426      526.972        0.472        0.194       73.163       17.780        0.059      335.109        5.524      863.543
01/01/2021  14:41:00       43.487       24.460       -9.814       38.187       36.794       22.143     1458.272     1353.830      490.295        0.294        0.165       49.894       19.848        0.158      334.992        5.331      863.550
01/01/2021  14:42:00       27.486       26.962       -2.534       36.989       30.679       17.464     1368.169      941.214      305.007        0.205        0.131       38.503       19.625        0.260      334.998        5.340      863.532
01/01/2021  14:43:00       53.790       19.334      -14.034       36.543       46.983       21.247     1335.384     2207.367      451.415        0.373        0.200       57.159       21.978        0.148      335.064        5.451      863.484
01/01/2021  14:44:00       48.436      -35.882      -18.593       40.620       39.311       23.210     1650.013     1545.336      538.712        0.386        0.187       60.279       17.920        0.088      335.226        5.718      863.421
01/01/2021  14:45:00       37.379      -14.596      -17.538       37.129       39.321       25.298     1378.571     1546.144      639.973        0.274        0.178       40.127       23.882        0.354      335.345        5.916      863.362
01/01/2021  14:46:00       55.793     -143.951      -25.797       56.865       65.668       32.682     3233.597     4312.341     1068.141        1.656        0.431      154.385       36.230        0.055      335.268        5.789      863.341
01/01/2021  14:47:00       93.956     -133.348      -39.212       37.776       33.919       27.344     1427.046     1150.467      747.707        1.574        0.166      163.124       23.072        0.020      335.150        5.593      863.367
01/01/2021  14:48:00       55.161      -95.751      -19.457       53.170       35.634       28.467     2827.047     1269.777      810.388        0.875        0.245      110.504       24.051        0.047      335.222        5.713      863.383
01/01/2021  14:49:00       63.538      -65.054      -39.171       57.341       52.046       29.764     3287.978     2708.763      885.889        0.834        0.344       90.935       31.201        0.118      335.131        5.560      863.392
01/01/2021  14:50:00       44.145      -58.126      -18.910       57.688       47.041       32.252     3327.879     2212.875     1040.183        0.613        0.329       72.989       32.264        0.195      335.428        6.054      863.383
01/01/2021  14:51:00       62.211        0.323      -22.640       60.901       43.085       34.422     3708.874     1856.332     1184.901        0.556        0.338       62.212       33.075        0.283      335.367        5.953      863.359
01/01/2021  14:52:00       52.372       -7.220       -1.913       73.927       61.007       40.790     5465.134     3721.832     1663.784        0.682        0.543       52.867       44.822        0.719      335.380        5.975      863.329
01/01/2021  14:53:00      113.283       21.707      -22.079       62.759       46.938       33.943     3938.747     2203.223     1152.133        1.054        0.365      115.344       36.139        0.098      335.153        5.597      863.304
01/01/2021  14:54:00       81.801        2.901      -21.366       61.440       47.445       35.466     3774.814     2250.992     1257.832        0.722        0.364       81.853       28.337        0.120      335.128        5.555      863.309
01/01/2021  14:55:00       81.686       46.826      -12.203       29.972       22.554       15.972      898.292      508.703      255.112        0.534        0.083       94.156       16.640        0.031      334.915        5.204      863.336
01/01/2021  14:56:00       45.555       -5.804       -5.991       45.614       46.609       25.223     2080.659     2172.418      636.196        0.352        0.244       45.923       22.636        0.243      335.191        5.661      863.367
01/01/2021  14:57:00       76.674      -72.989      -18.255       61.469       61.721       33.570     3778.489     3809.441     1126.931        1.013        0.436      105.860       32.646        0.095      335.254        5.765      863.397
01/01/2021  14:58:00       60.122      -18.794       -9.405       67.299       56.535       36.268     4529.112     3196.211     1315.332        0.655        0.452       62.991       38.407        0.372      335.177        5.639      863.397
01/01/2021  14:59:00       96.191      -37.926      -16.934       81.729       65.962       58.955     6679.638     4350.929     3475.709        1.274        0.725      103.398       56.172        0.295      335.266        5.785      863.370
01/01/2021  15:00:00      106.672      -47.861      -25.376       59.154       73.029       39.263     3499.149     5333.196     1541.575        1.234        0.519      116.917       37.855        0.105      335.284        5.813      863.344
01/01/2021  15:01:00       91.589      -42.363      -34.292       52.806       52.661       30.657     2788.459     2773.214      939.822        0.893        0.325      100.912       29.271        0.084      335.319        5.872      863.345
01/01/2021  15:02:00       42.775      -30.174       -9.328       68.903       48.452       32.024     4747.678     2347.592     1025.508        0.547        0.406       52.347       34.106        0.424      335.297        5.836      863.366
01/01/2021  15:03:00       86.065     -103.371      -12.621       74.265       75.740       44.037     5515.279     5736.472     1939.300        1.572        0.660      134.509       55.270        0.169      335.175        5.634      863.390
01/01/2021  15:04:00      108.235     -210.239      -45.435       42.792       25.192       24.529     1831.181      634.616      601.660        3.052        0.153      236.464       26.642        0.013      334.995        5.332      863.385
01/01/2021  15:05:00      111.295     -197.032      -41.041       41.227       26.094       21.212     1699.666      680.916      449.940        2.786        0.142      226.293       22.697        0.010      334.986        5.319      863.383
01/01/2021  15:06:00      112.067     -159.837      -46.749       50.106       27.189       23.618     2510.591      739.216      557.804        2.205        0.190      195.210       29.564        0.023      335.047        5.422      863.394
01/01/2021  15:07:00      106.040      -74.072      -27.936       44.759       43.531       26.308     2003.334     1894.905      692.111        1.105        0.230      129.349       29.303        0.051      335.027        5.388      863.400
01/01/2021  15:08:00       64.831      -70.341      -29.731       57.726       55.000       30.629     3332.335     3024.968      938.138        0.866        0.365       95.660       33.773        0.125      335.223        5.715      863.398
01/01/2021  15:09:00       75.040      -99.194      -29.618       68.078       38.502       31.220     4634.659     1482.379      974.674        1.172        0.355      124.380       40.223        0.105      335.284        5.816      863.378
01/01/2021  15:10:00       84.744     -102.177      -30.212       56.734       72.346       26.238     3218.757     5233.975      688.421        1.384        0.457      132.747       34.431        0.067      335.211        5.693      863.363
01/01/2021  15:11:00      118.088     -140.914      -42.837       51.346       40.712       25.129     2636.371     1657.498      631.477        2.028        0.246      183.852       31.216        0.029      335.050        5.426      863.341
01/01/2021  15:12:00      122.432     -158.590      -41.416       66.594       46.985       29.775     4434.759     2207.566      886.580        2.469        0.376      200.351       37.835        0.036      335.106        5.518      863.322
01/01/2021  15:13:00      105.196     -153.933      -42.095       58.245       28.919       28.286     3392.501      836.311      800.107        2.078        0.251      186.445       35.143        0.036      335.034        5.400      863.319
01/01/2021  15:14:00      125.642     -138.665      -39.213       58.117       61.668       33.727     3377.643     3802.928     1137.498        2.243        0.416      187.120       32.357        0.030      335.195        5.666      863.323
01/01/2021  15:15:00      159.642     -191.679      -57.847       59.301       24.504       25.639     3516.571      600.437      657.365        3.517        0.239      249.452       36.102        0.021      335.028        5.386      863.339
01/01/2021  15:16:00      148.541      -95.269      -59.718       64.300       66.045       27.641     4134.447     4361.940      764.029        2.198        0.463      176.467       33.780        0.037      335.075        5.467      863.318
01/01/2021  15:17:00      104.334      -97.238      -35.438       62.922       91.294       32.280     3959.231     8334.605     1041.967        1.746        0.667      142.621       39.676        0.077      335.145        5.584      863.276
01/01/2021  15:18:00      151.493     -182.360      -46.946       55.182       36.800       25.238     3045.051     1354.207      636.962        3.172        0.252      237.077       30.339        0.016      335.068        5.453      863.238
01/01/2021  15:19:00      176.336     -168.433      -55.429       59.865       48.768       28.030     3583.845     2378.332      785.662        3.464        0.337      243.853       32.287        0.018      335.050        5.424      863.218
01/01/2021  15:20:00      118.981     -143.583      -38.431       51.115       39.347       25.184     2612.707     1548.204      634.235        2.052        0.240      186.474       30.073        0.026      335.065        5.452      863.227
01/01/2021  15:21:00       96.652      -93.630      -33.356       39.810       25.697       21.362     1584.817      660.351      456.325        1.096        0.135      134.567       23.073        0.029      335.098        5.507      863.244
01/01/2021  15:22:00      112.219     -203.698      -36.632       45.820       64.084       28.344     2099.460     4106.761      803.360        3.122        0.350      232.564       29.998        0.017      335.145        5.581      863.256
01/01/2021  15:23:00      140.211     -244.652      -48.684       31.928       25.569       21.954     1019.409      653.786      481.970        4.202        0.108      281.981       17.067        0.004      335.061        5.441      863.245
01/01/2021  15:24:00      164.209     -213.702      -47.496       48.130       43.745       23.833     2316.535     1913.656      567.996        3.984        0.240      269.505       24.456        0.008      335.068        5.453      863.224
01/01/2021  15:25:00      124.300     -205.443      -46.893       50.642       40.278       25.974     2564.654     1622.299      674.652        3.236        0.243      240.120       28.097        0.014      335.094        5.496      863.209
01/01/2021  15:26:00      110.718      -83.775      -25.840       74.515       85.766       40.442     5552.493     7355.756     1635.567        1.724        0.727      138.840       51.736        0.139      335.240        5.742      863.192
01/01/2021  15:27:00      109.937     -168.165      -39.999       35.687       22.183       18.467     1273.559      492.067      341.040        2.204        0.105      200.912       19.095        0.009      335.120        5.543      863.174
01/01/2021  15:28:00      119.432     -125.695      -38.397       55.776       44.746       26.316     3110.959     2002.206      692.539        1.867        0.290      173.387       27.682        0.025      335.276        5.802      863.156
01/01/2021  15:29:00      122.730     -190.735      -43.286       51.086       37.956       28.093     2609.735     1440.629      789.242        2.908        0.242      226.809       31.837        0.020      335.198        5.669      863.146
01/01/2021  15:30:00      111.127     -142.579      -37.228       64.866       53.645       34.785     4207.636     2877.735     1210.006        2.118        0.415      180.770       42.466        0.055      335.199        5.674      863.131
01/01/2021  15:31:00       68.773     -102.630      -21.190       48.499       42.897       31.552     2352.184     1840.191      995.534        1.045        0.259      123.542       30.843        0.062      335.227        5.719      863.136
01/01/2021  15:32:00       58.659      -50.435      -17.677       52.059       31.325       27.930     2710.170      981.226      780.090        0.538        0.224       77.360       31.895        0.170      335.278        5.805      863.167
01/01/2021  15:33:00       16.892      -61.864      -31.434       51.649       30.154       21.129     2667.600      909.291      446.443        0.456        0.201       64.129       28.648        0.200      335.373        5.963      863.203
01/01/2021  15:34:00      -21.108       -8.605        1.053       38.948       20.637       23.531     1516.926      425.889      553.692        0.151        0.125       22.795       15.977        0.491      335.456        6.100      863.232
01/01/2021  15:35:00       18.127      -49.734       -6.729       58.502       40.686       31.224     3422.495     1655.320      974.954        0.445        0.303       52.934       30.358        0.329      335.382        5.978      863.217
01/01/2021  15:36:00       32.139      -13.027       -9.579       55.462       37.387       27.925     3075.981     1397.819      779.819        0.327        0.263       34.679       29.985        0.748      335.471        6.128      863.175
01/01/2021  15:37:00      -17.620      -13.251       10.730       37.986       29.696       26.504     1442.915      881.832      702.437        0.181        0.151       22.047       22.689        1.059      335.532        6.227      863.129
01/01/2021  15:38:00       13.004      -39.831      -16.433       64.405       60.406       27.755     4148.038     3648.848      770.342        0.529        0.428       41.900       34.719        0.687      335.457        6.103      863.103
01/01/2021  15:39:00       63.091      -27.018      -14.578       78.779       49.592       33.754     6206.131     2459.323     1139.337        0.736        0.490       68.633       40.658        0.351      335.382        5.978      863.108
01/01/2021  15:40:00       37.645      -37.473       -9.425       47.889       44.347       28.775     2293.403     1966.616      828.007        0.400        0.254       53.117       26.557        0.250      335.390        5.992      863.125
01/01/2021  15:41:00       72.394      -62.040      -23.097       35.970       22.511       17.081     1293.807      506.728      291.751        0.586        0.105       95.341       22.720        0.057      335.044        5.419      863.139
01/01/2021  15:42:00       47.221      -24.664      -18.222       45.567       51.151       26.959     2076.369     2616.415      726.791        0.429        0.271       53.274       31.637        0.353      335.214        5.700      863.136
01/01/2021  15:43:00       53.768      -80.597      -18.458       50.619       20.324       25.033     2562.314      413.084      626.639        0.666        0.180       96.886       31.259        0.104      335.241        5.743      863.123
01/01/2021  15:44:00       41.321      -46.738      -16.822       60.482       30.624       28.499     3658.047      937.851      812.216        0.479        0.270       62.385       32.479        0.271      335.363        5.947      863.099
01/01/2021  15:45:00       98.786      -82.429      -34.384       46.986       46.809       26.924     2207.690     2191.062      724.899        1.143        0.256      128.659       27.015        0.044      335.290        5.825      863.057
01/01/2021  15:46:00      122.300     -147.861      -35.591       58.216       40.340       31.405     3389.082     1627.295      986.287        2.204        0.300      191.886       36.111        0.035      335.289        5.822      863.009
01/01/2021  15:47:00      113.063     -138.079      -30.744       58.681       56.428       38.565     3443.517     3184.114     1487.258        2.045        0.406      178.463       35.639        0.040      335.278        5.804      862.978
01/01/2021  15:48:00       88.390      -89.363      -33.414       58.200       59.939       32.228     3387.239     3592.701     1038.669        1.247        0.401      125.692       32.009        0.065      335.322        5.878      862.945
01/01/2021  15:49:00       97.266     -136.028      -33.894       60.736       49.572       34.233     3688.913     2457.395     1171.877        1.821        0.366      167.225       39.081        0.055      335.316        5.868      862.912
01/01/2021  15:50:00      134.405     -134.450      -44.922       59.015       55.981       28.382     3482.786     3133.847      805.561        2.279        0.371      190.109       32.308        0.029      335.246        5.751      862.865
01/01/2021  15:51:00       64.779      -79.765      -28.922       63.646       44.692       36.056     4050.855     1997.380     1300.000        0.937        0.367      102.756       37.374        0.132      335.352        5.927      862.826
01/01/2021  15:52:00      -19.772      -42.076        3.020       65.460       36.949       38.372     4285.032     1365.263     1472.405        0.465        0.356       46.490       33.742        0.527      335.424        6.048      862.815
01/01/2021  15:53:00       53.863      -90.621      -22.290       78.310       78.337       31.524     6132.434     6136.761      993.755        1.243        0.663      105.420       44.929        0.182      335.316        5.868      862.841
01/01/2021  15:54:00      121.251     -112.491      -38.222       60.697       80.329       25.867     3684.144     6452.767      669.095        1.981        0.540      165.397       29.104        0.031      335.151        5.594      862.867
01/01/2021  15:55:00      109.082      -92.123      -25.042       55.899       31.917       35.362     3124.739     1018.664     1250.463        1.320        0.270      142.778       37.106        0.068      335.239        5.740      862.907
01/01/2021  15:56:00      111.126     -128.653      -36.996       55.628       33.380       28.480     3094.519     1114.204      811.138        1.764        0.251      170.002       36.535        0.046      335.231        5.727      862.919
01/01/2021  15:57:00      100.315      -98.019      -39.573       60.345       50.829       26.291     3641.562     2583.608      691.222        1.408        0.346      140.253       28.157        0.040      335.330        5.892      862.900
01/01/2021  15:58:00       69.417      -77.000      -40.003       64.407       48.890       33.634     4148.214     2390.247     1131.246        1.001        0.383      103.671       31.343        0.091      335.382        5.977      862.904
01/01/2021  15:59:00       69.607      -49.915      -20.256       63.999       37.699       32.177     4095.920     1421.238     1035.338        0.715        0.328       85.655       35.819        0.175      335.298        5.839      862.940
01/01/2021  16:00:00      110.454     -112.677      -32.562       56.021       51.537       28.044     3138.333     2656.095      786.486        1.627        0.329      157.785       32.609        0.043      335.230        5.726      862.968
01/01/2021  16:01:00      119.223     -133.469      -39.608       50.543       12.188       22.799     2554.630      148.558      519.783        1.841        0.161      178.964       31.846        0.032      335.106        5.520      862.975
01/01/2021  16:02:00      111.031      -87.356      -30.222       52.903       28.376       26.605     2798.745      805.195      707.809        1.259        0.216      141.276       33.541        0.056      335.136        5.569      862.981
01/01/2021  16:03:00      100.658      -74.727      -29.051       62.048       56.726       30.839     3849.907     3217.895      951.061        1.229        0.401      125.364       37.591        0.090      335.223        5.714      862.952
01/01/2021  16:04:00       39.402      -35.819       -7.356       54.969       62.652       39.848     3021.561     3925.228     1587.857        0.571        0.427       53.249       35.638        0.448      335.328        5.887      862.897
01/01/2021  16:05:00       55.549      -60.204       -6.959       57.297       58.091       40.898     3282.921     3374.517     1672.620        0.754        0.417       81.916       39.532        0.233      335.357        5.936      862.859
01/01/2021  16:06:00      117.762     -116.412      -36.199       60.454       48.096       33.307     3654.735     2313.225     1109.379        1.790        0.354      165.589       36.068        0.047      335.256        5.767      862.843
01/01/2021  16:07:00      108.291     -150.146      -30.347       52.218       39.472       30.207     2726.746     1558.058      912.473        2.019        0.260      185.123       30.434        0.027      335.281        5.808      862.849
01/01/2021  16:08:00      109.213     -125.190      -31.412       43.038       34.437       26.325     1852.231     1185.897      693.019        1.616        0.187      166.132       25.147        0.023      335.223        5.713      862.863
01/01/2021  16:09:00       54.538      -57.095      -24.007       69.558       49.680       29.110     4838.361     2468.068      847.383        0.748        0.408       78.957       34.757        0.194      335.241        5.744      862.852
01/01/2021  16:10:00       85.166      -79.939      -33.263       48.868       40.291       25.253     2388.088     1623.373      637.729        0.970        0.232      116.806       28.178        0.058      335.333        5.896      862.824
01/01/2021  16:11:00      118.149     -137.486      -36.955       52.505       49.617       31.193     2756.784     2461.829      973.002        2.021        0.310      181.277       33.674        0.035      335.236        5.734      862.783
01/01/2021  16:12:00       94.775     -129.611      -37.996       59.957       35.713       23.558     3594.858     1275.384      554.979        1.632        0.271      160.566       32.711        0.042      335.237        5.737      862.753
01/01/2021  16:13:00      153.832     -105.802      -42.132       53.039       46.477       33.327     2813.149     2160.099     1110.706        2.136        0.304      186.705       31.593        0.029      335.200        5.675      862.731
01/01/2021  16:14:00      132.207     -124.498      -42.597       48.979       50.793       29.131     2398.955     2579.946      848.620        2.031        0.291      181.600       29.554        0.026      335.175        5.633      862.707
01/01/2021  16:15:00      117.714     -125.192      -28.161       58.857       49.161       31.518     3464.138     2416.781      993.359        1.860        0.344      171.842       34.408        0.040      335.224        5.715      862.704
01/01/2021  16:16:00       75.078     -121.952      -23.297       48.054       42.193       27.224     2309.207     1780.279      741.146        1.294        0.242      143.209       29.197        0.042      335.276        5.802      862.716
01/01/2021  16:17:00      101.625     -132.975      -31.963       40.341       41.909       21.297     1627.433     1756.348      453.572        1.643        0.192      167.362       22.297        0.018      335.256        5.768      862.742
01/01/2021  16:18:00       81.693     -109.097      -19.394       41.883       37.018       26.411     1754.192     1370.337      697.565        1.139        0.191      136.293       25.155        0.034      335.237        5.737      862.754
01/01/2021  16:19:00      118.193      -86.624      -30.374       44.264       56.751       26.261     1959.291     3220.721      689.643        1.413        0.293      146.538       28.559        0.038      335.201        5.678      862.725
01/01/2021  16:20:00      117.529      -86.942      -27.078       60.875       57.807       35.604     3705.713     3341.606     1267.623        1.521        0.416      146.191       37.850        0.067      335.229        5.723      862.672
01/01/2021  16:21:00      126.039     -123.754      -34.314       61.206       68.416       33.270     3746.140     4680.805     1106.890        2.095        0.477      176.638       32.361        0.034      335.164        5.616      862.636
01/01/2021  16:22:00      123.368     -195.168      -41.661       52.294       47.455       26.800     2734.699     2251.991      718.259        3.037        0.285      230.890       31.720        0.019      335.186        5.651      862.632
01/01/2021  16:23:00      118.383     -161.181      -41.454       60.963       28.794       25.034     3716.463      829.082      626.709        2.344        0.259      199.985       30.461        0.023      335.185        5.652      862.623
01/01/2021  16:24:00      118.825     -149.347      -36.194       52.735       36.775       23.766     2780.943     1352.400      564.823        2.121        0.235      190.850       31.082        0.027      335.225        5.719      862.620
01/01/2021  16:25:00      128.829     -118.155      -44.242       55.317       41.999       27.231     3059.992     1763.893      741.513        1.904        0.278      174.807       33.089        0.036      335.302        5.844      862.622
01/01/2021  16:26:00       66.183      -71.759      -19.490       58.464       53.486       35.765     3418.023     2860.762     1279.152        0.873        0.378       97.619       40.481        0.172      335.363        5.946      862.640
01/01/2021  16:27:00       61.010      -61.610      -19.388       56.335       54.913       33.492     3173.680     3015.435     1121.736        0.760        0.366       86.706       37.425        0.186      335.351        5.926      862.638
01/01/2021  16:28:00       22.718      -28.613      -12.455       63.696       41.020       30.440     4057.143     1682.620      926.611        0.408        0.333       36.535       29.000        0.630      335.273        5.797      862.643
01/01/2021  16:29:00      -14.079      -32.781       -9.265       52.384       29.372       26.851     2744.132      862.716      720.955        0.284        0.216       35.677       19.914        0.312      335.319        5.872      862.665
01/01/2021  16:30:00       -1.231       -6.767       -3.385       61.511       26.255       29.465     3783.544      689.327      868.207        0.270        0.267        6.878       38.219       30.881      335.310        5.858      862.655
01/01/2021  16:31:00        1.238      -15.589       -7.841       49.769       30.603       23.845     2476.909      936.569      568.583        0.214        0.199       15.638       31.220        3.986      335.300        5.842      862.602
01/01/2021  16:32:00       75.959      -40.662      -27.845       64.051       46.815       33.178     4102.490     2191.647     1100.800        0.780        0.370       86.158       40.186        0.218      335.292        5.829      862.534
01/01/2021  16:33:00       55.903      -30.885      -16.867       69.358       64.821       37.494     4810.475     4201.827     1405.768        0.739        0.521       63.868       41.188        0.416      335.290        5.824      862.484
01/01/2021  16:34:00       95.867     -115.213      -36.341       58.637       35.490       32.401     3438.295     1259.539     1049.844        1.477        0.287      149.882       38.634        0.066      335.296        5.834      862.503
01/01/2021  16:35:00      108.078     -118.703      -35.550       54.085       35.014       27.020     2925.144     1225.991      730.107        1.596        0.244      160.534       31.868        0.039      335.299        5.839      862.551
01/01/2021  16:36:00       72.722      -42.612      -25.142       51.315       38.691       26.764     2633.198     1496.968      716.335        0.629        0.242       84.287       32.226        0.146      335.239        5.740      862.627
01/01/2021  16:37:00       35.060        5.672       -5.811       59.198       26.206       31.132     3504.372      686.734      969.220        0.323        0.258       35.516       39.495        1.237      335.245        5.752      862.688
01/01/2021  16:38:00        2.702      -25.756      -11.035       50.774       24.742       27.180     2577.996      612.180      738.746        0.236        0.196       25.897       30.800        1.414      335.274        5.800      862.675
01/01/2021  16:39:00      -17.950      -32.729       -5.596       50.021       27.520       22.474     2502.123      757.346      505.060        0.259        0.188       37.328       23.872        0.409      335.300        5.842      862.626
01/01/2021  16:40:00       -5.568       11.934       -0.383       48.811       19.818       23.888     2382.481      392.767      570.633        0.176        0.167       13.169       24.583        3.485      335.282        5.811      862.580
01/01/2021  16:41:00       58.534      -63.180      -15.839       55.375       29.707       30.150     3066.377      882.509      909.027        0.626        0.243       86.128       33.654        0.153      335.308        5.855      862.556
01/01/2021  16:42:00      -27.549      -11.345       -0.330       45.843       37.588       25.586     2101.614     1412.844      654.638        0.253        0.208       29.794       32.053        1.157      335.165        5.617      862.547
01/01/2021  16:43:00      -17.801       12.396       -1.036       32.375       25.010       23.977     1048.130      625.506      574.901        0.136        0.112       21.692       19.844        0.837      335.231        5.726      862.523
01/01/2021  16:44:00        7.314      -21.755       -9.066       50.753       32.980       30.890     2575.875     1087.663      954.208        0.261        0.231       22.951       31.486        1.882      335.299        5.841      862.488
01/01/2021  16:45:00        3.117      -14.118        6.468       44.797       24.526       24.697     2006.769      601.517      609.944        0.173        0.161       14.458       24.968        2.982      335.225        5.719      862.484
01/01/2021  16:46:00        6.283       -1.471       -0.326       39.119       17.730       23.414     1530.330      314.363      548.212        0.122        0.120        6.453       24.464       14.375      335.182        5.648      862.479
01/01/2021  16:47:00       21.499      -15.500       -4.887       47.146       32.405       29.241     2222.732     1050.103      855.055        0.243        0.206       26.504       31.824        1.442      335.207        5.689      862.478
01/01/2021  16:48:00       23.173       -4.989       -5.686       46.597       23.702       25.070     2171.261      561.786      628.527        0.198        0.168       23.704       28.959        1.493      335.146        5.587      862.485
01/01/2021  16:49:00       19.642      -42.823      -16.999       52.721       21.166       23.265     2779.469      447.997      541.268        0.314        0.188       47.113       29.283        0.386      335.253        5.762      862.512
01/01/2021  16:50:00       22.957        6.385       -1.871       40.845       15.448       24.813     1668.304      238.636      615.665        0.155        0.126       23.828       28.740        1.455      335.154        5.601      862.539
01/01/2021  16:51:00      -22.491        3.011       -8.686       40.665       17.604       23.821     1653.675      309.905      567.417        0.156        0.127       22.692       17.764        0.613      335.145        5.586      862.565
01/01/2021  16:52:00      -16.839       -1.143       -5.379       40.464       14.268       22.742     1637.359      203.580      517.194        0.134        0.118       16.878       23.270        1.901      335.220        5.710      862.607
01/01/2021  16:53:00       11.420        5.916      -10.185       42.418       12.263       22.998     1799.278      150.386      528.927        0.137        0.124       12.861       28.748        4.996      335.085        5.486      862.635
01/01/2021  16:54:00       38.490       24.471       -6.856       45.432       14.142       22.211     2064.044      200.005      493.318        0.244        0.138       45.611       30.054        0.434      335.065        5.452      862.639
01/01/2021  16:55:00       14.182       13.874      -11.196       36.704       17.897       19.624     1347.190      320.294      385.108        0.129        0.103       19.839       24.614        1.539      334.963        5.283      862.626
01/01/2021  16:56:00       14.231      -25.759      -10.578       42.363        7.847       19.580     1794.610       61.583      383.393        0.161        0.112       29.429       26.806        0.830      335.074        5.468      862.611
01/01/2021  16:57:00       11.933      -33.920      -14.630       51.002       11.274       23.120     2601.181      127.103      534.539        0.238        0.163       35.957       31.848        0.784      335.129        5.558      862.620
01/01/2021  16:58:00       14.106      -44.864      -13.103       48.202       12.586       22.558     2323.412      158.410      508.858        0.269        0.150       47.029       31.858        0.459      335.102        5.514      862.631
01/01/2021  16:59:00       30.177      -25.889      -15.228       40.101       12.486       20.610     1608.128      155.910      424.773        0.200        0.109       39.761       23.669        0.354      335.144        5.583      862.630
01/01/2021  17:00:00      -21.997        9.765       -4.681       30.732        7.573       16.447      944.433       57.346      270.507        0.094        0.064       24.068       20.628        0.735      334.993        5.332      862.630
01/01/2021  17:01:00      -24.570        3.813       -2.208       33.674       20.263       15.727     1133.921      410.603      247.352        0.121        0.090       24.864       19.846        0.637      334.941        5.247      862.617
01/01/2021  17:02:00       -3.188      -10.859       -2.489       36.719       10.819       17.500     1348.293      117.060      306.235        0.095        0.089       11.318       24.032        4.509      334.937        5.240      862.599
01/01/2021  17:03:00       12.455      -28.274       -7.754       41.208       15.967       20.157     1698.077      254.954      406.305        0.169        0.118       30.896       26.723        0.748      335.006        5.355      862.546
01/01/2021  17:04:00       15.973        0.367       -7.044       35.511       26.267       19.066     1261.010      689.952      363.519        0.131        0.116       15.978       22.819        2.040      334.884        5.152      862.488
01/01/2021  17:05:00       11.436       -1.270       -7.606       35.163       13.094       18.489     1236.458      171.452      341.839        0.097        0.087       11.506       24.246        4.440      334.813        5.034      862.459
01/01/2021  17:06:00        0.980      -31.849      -18.322       57.109       18.925       21.337     3261.429      358.146      455.285        0.271        0.204       31.864       29.661        0.867      334.958        5.274      862.478
01/01/2021  17:07:00       -0.887       -8.800       -3.895       40.162       14.484       20.578     1612.948      209.789      423.462        0.117        0.112        8.844       22.413        6.422      334.695        4.836      862.536
01/01/2021  17:08:00      -30.732       15.188       -8.824       40.040        6.617       20.703     1603.167       43.789      428.605        0.166        0.104       34.280       26.814        0.612      334.519        4.546      862.574
01/01/2021  17:09:00      -67.531       31.671      -10.015       28.566       20.449       16.193      815.996      418.176      262.215        0.358        0.075       74.589       11.299        0.023      334.691        4.830      862.621
01/01/2021  17:10:00      -72.275       10.319       -8.692       33.454       24.280       16.396     1119.200      589.522      268.819        0.369        0.099       73.008       13.954        0.037      334.540        4.579      862.676
01/01/2021  17:11:00      -49.590        2.430      -10.125       35.850       26.534       19.759     1285.251      704.038      390.410        0.247        0.119       49.649       14.370        0.084      334.474        4.471      862.684
01/01/2021  17:12:00      -56.443       10.160       -5.999       28.934       21.917       20.839      837.157      480.342      434.277        0.254        0.088       57.351        9.927        0.030      334.504        4.521      862.659
01/01/2021  17:13:00      -50.162        2.805       -9.341       31.444       18.343       16.924      988.741      336.468      286.410        0.211        0.081       50.241       15.742        0.098      334.503        4.520      862.609
01/01/2021  17:14:00      -23.904       14.716       -5.063       38.600        9.221       19.328     1489.925       85.028      373.560        0.138        0.097       28.071       21.677        0.596      334.533        4.569      862.548
01/01/2021  17:15:00      -15.663      -10.913       -4.330       32.750       15.263       16.856     1072.550      232.960      284.137        0.099        0.079       19.090       14.550        0.581      334.650        4.762      862.502
01/01/2021  17:16:00      -11.292       -0.350       -1.831       20.251        6.883        9.470      410.107       47.375       89.683        0.034        0.027       11.297        9.316        0.680      334.635        4.736      862.466
01/01/2021  17:17:00      -19.243       -5.070       -4.936       25.283        9.355       12.436      639.250       87.517      154.661        0.065        0.044       19.899       14.276        0.515      334.643        4.751      862.444
01/01/2021  17:18:00      -34.079       -8.672       -7.080       28.532       14.439       14.987      814.051      208.486      224.602        0.127        0.062       35.165       13.605        0.150      334.476        4.474      862.440
01/01/2021  17:19:00      -25.441      -23.350       -8.802       36.381       12.324       20.703     1323.585      151.885      428.625        0.159        0.095       34.532       19.364        0.314      334.347        4.260      862.471
01/01/2021  17:20:00        4.876        2.798       -5.458       27.827       12.462       13.432      774.346      155.296      180.406        0.059        0.056        5.622       14.989        7.110      334.196        4.009      862.504
01/01/2021  17:21:00      -21.115       17.798        0.754       30.828       21.468       21.642      950.371      460.857      468.396        0.132        0.094       27.615        9.620        0.121      334.109        3.864      862.516
01/01/2021  17:22:00     -105.125       18.829      -13.894       44.977       22.597       16.171     2022.908      510.644      261.509        0.720        0.140      106.798        8.864        0.007      334.054        3.773      862.509
01/01/2021  17:23:00      -71.034        7.607       -5.078       50.548       24.003       22.333     2555.065      576.165      498.779        0.438        0.182       71.440       17.970        0.063      334.015        3.709      862.514
01/01/2021  17:24:00        0.498      -15.561       -7.602       37.766       27.367       18.415     1426.252      748.946      339.120        0.141        0.126       15.569       15.090        0.939      333.975        3.643      862.503
01/01/2021  17:25:00      -14.277      -15.179       -5.431       37.816       17.860       20.988     1430.015      318.977      440.501        0.133        0.109       20.838       19.007        0.832      334.039        3.750      862.498
01/01/2021  17:26:00      -17.210      -18.998      -13.973       39.788       19.586       18.882     1583.084      383.625      356.520        0.159        0.116       25.634       19.060        0.553      334.061        3.785      862.482
01/01/2021  17:27:00      -35.813        8.879       -3.409       28.084       11.500       15.571      788.695      132.249      242.458        0.127        0.058       36.898       13.091        0.126      334.002        3.690      862.469
01/01/2021  17:28:00      -30.724        6.897       -8.107       25.141        7.471       11.573      632.075       55.809      133.935        0.094        0.041       31.489       14.793        0.221      334.008        3.700      862.457
01/01/2021  17:29:00      -26.055       12.411       -3.543       25.089        6.751        9.530      629.482       45.570       90.815        0.081        0.038       28.860       13.265        0.211      334.052        3.769      862.457
01/01/2021  17:30:00      -32.401        6.571      -10.966       21.978        9.442       12.121      483.022       89.150      146.916        0.097        0.036       33.061       14.508        0.193      334.172        3.970      862.463
01/01/2021  17:31:00      -31.887        1.182       -2.659       22.567       11.713       15.739      509.269      137.196      247.709        0.096        0.045       31.909       14.103        0.195      334.133        3.903      862.482
01/01/2021  17:32:00      -63.178       10.375      -10.134       24.931       12.838       10.260      621.552      164.824      105.268        0.255        0.045       64.024        6.330        0.010      334.071        3.802      862.521
01/01/2021  17:33:00      -88.709       10.130      -13.949       35.518       27.417       13.206     1261.545      751.711      174.388        0.518        0.109       89.286        9.558        0.011      334.006        3.696      862.571
01/01/2021  17:34:00      -43.664       -0.937      -12.095       48.637       21.058       18.909     2365.574      443.436      357.560        0.261        0.158       43.674       10.493        0.058      333.935        3.579      862.585
01/01/2021  17:35:00      -76.295       25.822       -2.592       44.457       24.942       15.049     1976.383      622.091      226.471        0.466        0.141       80.547       10.724        0.018      333.839        3.418      862.580
01/01/2021  17:36:00      -53.711        6.468        1.980       41.033       27.036       22.746     1683.707      730.967      517.381        0.293        0.147       54.099       23.083        0.182      333.855        3.445      862.581
01/01/2021  17:37:00      -86.932        1.629       -2.429       56.974       27.422       19.392     3246.038      751.945      376.036        0.597        0.219       86.947       21.362        0.060      333.755        3.278      862.593
01/01/2021  17:38:00      -46.359        5.049        0.761       72.922       22.123       22.474     5317.672      489.443      505.074        0.424        0.316       46.634       24.518        0.276      333.673        3.142      862.616
01/01/2021  17:39:00      -44.748       -6.464        3.389       51.734       36.034       24.070     2676.390     1298.446      579.358        0.330        0.228       45.212       10.644        0.055      333.664        3.128      862.630
01/01/2021  17:40:00       -5.811        7.911       -4.589       52.212       26.715       29.090     2726.053      713.713      846.235        0.220        0.214        9.815       16.324        2.766      333.621        3.057      862.627
01/01/2021  17:41:00      -44.340        4.062       -7.349       52.641       38.094       28.784     2771.062     1451.172      828.538        0.354        0.253       44.526       10.333        0.054      333.593        3.010      862.605
01/01/2021  17:42:00       -4.030       -4.663       -4.319       48.497       30.448       23.884     2351.931      927.057      570.454        0.195        0.192        6.163       12.126        3.872      333.567        2.966      862.607
01/01/2021  17:43:00       -9.884      -25.334      -26.201       41.811       29.840       16.325     1748.147      890.423      266.517        0.216        0.145       27.194       16.757        0.380      333.619        3.054      862.614
01/01/2021  17:44:00       17.192      -32.564      -13.342       23.692       11.978       12.361      561.289      143.477      152.783        0.120        0.043       36.823       14.242        0.150      333.786        3.328      862.629
01/01/2021  17:45:00       18.268       -5.165      -12.097       26.960        9.947       15.085      726.865       98.947      227.547        0.078        0.053       18.984       16.076        0.717      333.714        3.211      862.626
01/01/2021  17:46:00        7.698        2.104        1.605       25.154        8.060       14.228      632.714       64.958      202.430        0.048        0.045        7.980       17.706        4.923      333.559        2.955      862.618
01/01/2021  17:47:00        7.590       -4.566       -1.873       19.935        7.486       12.092      397.415       56.041      146.223        0.034        0.030        8.858       11.969        1.826      333.600        3.022      862.617
01/01/2021  17:48:00       -5.936       -3.412       -3.757       27.774       11.672       18.366      771.372      136.228      337.316        0.065        0.062        6.847       13.690        3.998      333.540        2.923      862.647
01/01/2021  17:49:00       -7.225       -0.075       -4.154       31.073       10.943       14.445      965.551      119.748      208.663        0.068        0.065        7.226       19.113        6.996      333.531        2.908      862.658
01/01/2021  17:50:00       -5.527       -0.145       -0.072       28.224        7.716       15.429      796.578       59.543      238.044        0.056        0.055        5.529       14.783        7.149      333.600        3.022      862.643
01/01/2021  17:51:00        1.332       14.265       -9.396       22.810       11.589       13.453      520.293      134.295      180.992        0.056        0.042       14.327       14.947        1.088      333.580        2.988      862.609
01/01/2021  17:52:00      -27.236       -1.448       -7.035       37.579       24.989       17.116     1412.180      624.473      292.951        0.156        0.116       27.275       12.097        0.197      333.676        3.148      862.602
01/01/2021  17:53:00      -15.753        5.140        6.096       44.781       24.716       24.081     2005.357      610.903      579.882        0.175        0.160       16.571       19.577        1.396      333.411        2.707      862.641
01/01/2021  17:54:00        6.273        2.741        0.235       30.109       14.677       21.688      906.528      215.403      470.375        0.082        0.080        6.846       16.480        5.795      333.318        2.555      862.649
01/01/2021  17:55:00       13.093       12.728      -10.463       34.932       22.186       17.852     1220.262      492.213      318.704        0.124        0.102       18.260       21.485        1.384      333.522        2.892      862.620
01/01/2021  17:56:00        7.456       39.686       -4.629       32.829       23.691       12.489     1077.755      561.268      155.976        0.172        0.090       40.381       11.824        0.086      334.072        3.803      862.625
01/01/2021  17:57:00      -39.023       11.525      -10.652       18.258       11.632       10.945      333.372      135.292      119.786        0.118        0.029       40.690        6.405        0.025      333.673        3.142      862.658
01/01/2021  17:58:00      -29.180       -0.125      -16.178       22.125       13.641       13.002      489.502      186.080      169.041        0.098        0.042       29.180        8.689        0.089      333.468        2.802      862.703
01/01/2021  17:59:00      -40.997       -1.602       -1.360       24.244       15.561       12.428      587.749      242.152      154.467        0.133        0.049       41.028        9.188        0.050      333.454        2.780      862.759
01/01/2021  18:00:00     -112.071        2.819      -17.735       26.373       22.346       12.727      695.529      499.328      161.989        0.712        0.068      112.106        8.372        0.006      333.317        2.552      862.823
01/01/2021  18:01:00      -64.723       37.256       -4.341       41.303       30.032       15.967     1705.898      901.898      254.937        0.423        0.143       74.680       15.161        0.041      333.303        2.530      862.861
01/01/2021  18:02:00        5.355       37.442       -6.774       24.578       19.146       11.707      604.081      366.558      137.059        0.129        0.055       37.823       12.204        0.104      333.611        3.040      862.844
01/01/2021  18:03:00      -10.391       16.000        1.799       21.364       30.243       14.895      456.414      914.634      221.850        0.098        0.080       19.078        4.893        0.066      333.748        3.268      862.901
01/01/2021  18:04:00      -80.569       13.863      -12.291       67.685       28.442       22.905     4581.289      808.926      524.656        0.637        0.296       81.753       26.705        0.107      333.379        2.657      862.973
01/01/2021  18:05:00     -109.981       24.874      -19.707       61.884       33.958       25.648     3829.614     1153.162      657.825        0.937        0.282      112.759       16.115        0.020      333.295        2.515      863.018
01/01/2021  18:06:00      -85.084       25.077      -15.640       54.981       31.277       19.207     3022.923      978.237      368.918        0.624        0.219       88.703       15.958        0.032      333.279        2.489      863.018
01/01/2021  18:07:00      -30.168       40.334       -3.963       34.660       20.950       15.626     1201.300      438.920      244.166        0.222        0.094       50.368       14.826        0.087      333.394        2.679      862.978
01/01/2021  18:08:00       -8.069        4.905        5.596       36.746       22.482       18.616     1350.235      505.441      346.551        0.116        0.110        9.442       10.769        1.301      333.434        2.745      862.967
01/01/2021  18:09:00       19.394        8.633       -2.639       25.956       25.130       19.808      673.693      631.500      392.369        0.108        0.085       21.229       15.320        0.521      333.295        2.515      862.985
01/01/2021  18:10:00       43.780       17.685       -5.172       31.766       22.595       16.436     1009.108      510.513      270.141        0.202        0.089       47.216       12.210        0.067      333.609        3.038      862.969
01/01/2021  18:11:00       15.703       87.994        0.290       29.150       45.858       24.909      849.722     2102.944      620.452        0.578        0.179       89.385       23.397        0.069      333.927        3.564      862.969
01/01/2021  18:12:00      -54.426      -18.912      -11.611       27.837       25.886       18.838      774.902      670.080      354.861        0.263        0.090       57.618        7.746        0.018      333.243        2.431      863.005
01/01/2021  18:13:00      -73.652       25.542      -15.408       23.605       16.777       13.743      557.194      281.461      188.859        0.367        0.051       77.955        8.127        0.011      333.182        2.329      863.012
01/01/2021  18:14:00      -71.903       11.206      -20.621       35.463       21.768       16.185     1257.643      473.828      261.942        0.386        0.100       72.771        8.020        0.012      333.152        2.280      863.015
01/01/2021  18:15:00      -33.414        3.497       -4.511       39.739       28.294       16.905     1579.225      800.559      285.776        0.191        0.133       33.597        9.442        0.079      333.190        2.342      863.014
01/01/2021  18:16:00       17.397       99.000       -5.874       29.206       53.381       16.665      853.017     2849.574      277.715        0.706        0.199      100.517       12.611        0.016      333.752        3.274      862.974
01/01/2021  18:17:00       -8.630       80.742       -5.385       35.650       55.093       17.707     1270.950     3035.276      313.552        0.562        0.231       81.202       13.464        0.027      333.883        3.491      862.956
01/01/2021  18:18:00      -48.196       10.401       -9.681       22.048       24.917       15.752      486.122      620.874      248.128        0.194        0.068       49.306        8.658        0.031      333.388        2.671      862.997
01/01/2021  18:19:00      -59.495       11.032      -10.222       25.116       17.378        8.944      630.834      302.002       79.991        0.239        0.051       60.509        5.881        0.009      333.360        2.625      863.024
01/01/2021  18:20:00      -18.750       16.784        0.282       33.761       18.368       12.942     1139.838      337.378      167.484        0.114        0.082       25.165       11.048        0.193      333.417        2.719      863.007
01/01/2021  18:21:00       12.279       42.019        1.217       24.015       20.951       17.016      576.743      438.927      289.554        0.161        0.065       43.776       14.337        0.107      333.923        3.558      863.002
01/01/2021  18:22:00       -7.253       38.885        1.609       21.888       34.702       14.291      479.102     1204.198      204.243        0.173        0.094       39.556        6.611        0.028      333.763        3.292      863.001
01/01/2021  18:23:00       -0.307       99.006       -0.589       27.827       36.510       17.941      774.337     1332.951      321.867        0.612        0.121       99.007       12.949        0.017      333.910        3.535      862.972
01/01/2021  18:24:00       38.015      141.176      -15.342       26.577       31.454       16.808      706.352      989.365      282.501        1.179        0.099      146.205       14.637        0.010      334.263        4.121      862.977
01/01/2021  18:25:00       75.911       68.706      -14.043       42.356       29.292       18.729     1794.026      858.049      350.761        0.684        0.150      102.387       20.656        0.041      334.173        3.971      862.973
01/01/2021  18:26:00      121.265       56.391      -14.534       35.640       31.616       21.440     1270.228      999.546      459.666        1.041        0.136      133.735       20.890        0.024      333.992        3.671      862.907
01/01/2021  18:27:00       33.726       22.112        2.454       32.451       27.967       14.885     1053.058      782.155      221.571        0.184        0.103       40.328       15.049        0.139      333.852        3.440      862.894
01/01/2021  18:28:00       43.943      103.724       -4.125       31.573       47.922       18.585      996.833     2296.552      345.410        0.817        0.182      112.648       16.542        0.022      334.005        3.692      862.882
01/01/2021  18:29:00       24.748      145.926       -9.398       18.531       34.248       16.869      343.399     1172.943      284.574        1.190        0.090      148.010       11.360        0.006      334.206        4.025      862.927
01/01/2021  18:30:00       23.227       68.698       -3.929       32.148       25.350       20.785     1033.514      642.618      432.003        0.369        0.105       72.519       14.930        0.042      333.956        3.612      862.954
01/01/2021  18:31:00       41.066       92.671        0.837       27.333       23.161       14.676      747.071      536.449      215.372        0.589        0.075      101.362        9.806        0.009      334.101        3.850      862.943
01/01/2021  18:32:00       -0.964       15.361        6.836       11.262       24.807        9.423      126.843      615.368       88.784        0.056        0.042       15.391        5.411        0.124      333.930        3.569      862.962
01/01/2021  18:33:00       47.132       25.536       -3.374       23.195       14.813       11.648      538.030      219.422      135.673        0.189        0.045       53.605       12.013        0.050      333.914        3.542      862.958
01/01/2021  18:34:00       51.301       30.086       -8.759       26.681       19.919       14.546      711.856      396.773      211.577        0.247        0.066       59.472       12.970        0.048      333.965        3.626      862.948
01/01/2021  18:35:00       78.701       47.585      -19.087       23.866       26.421       19.915      569.597      698.082      396.602        0.524        0.083       91.968        9.780        0.011      334.014        3.707      862.915
01/01/2021  18:36:00       32.586       27.600        0.805       35.779       23.491       16.967     1280.146      551.821      287.879        0.197        0.106       42.704       18.482        0.187      333.791        3.339      862.928
01/01/2021  18:37:00       -5.733       12.295        7.622       23.369       28.132       14.756      546.097      791.403      217.742        0.090        0.078       13.566       12.370        0.831      333.685        3.163      862.964
01/01/2021  18:38:00      -50.848       20.575       -6.523       25.709       12.651       10.882      660.936      160.042      118.412        0.200        0.047       54.853       12.508        0.052      333.282        2.494      862.972
01/01/2021  18:39:00      -43.253      -19.692      -14.380       24.198       16.412       11.100      585.548      269.364      123.208        0.172        0.049       47.524       11.805        0.062      333.367        2.636      862.997
01/01/2021  18:40:00      -45.450      -11.675       -6.551       42.675       14.718       19.597     1821.164      216.621      384.039        0.233        0.121       46.926       10.010        0.046      333.323        2.563      863.021
01/01/2021  18:41:00      -62.641       -5.418       -0.319       37.526       16.679       14.697     1408.187      278.193      216.007        0.293        0.095       62.875       11.693        0.035      333.343        2.596      863.053
01/01/2021  18:42:00       83.385        0.396      -19.398       76.977       34.077       23.471     5925.481     1161.232      550.896        0.748        0.382       83.386       32.430        0.151      333.514        2.877      863.007
01/01/2021  18:43:00      146.517      -11.281      -11.079       93.529       60.158       42.809     8747.752     3618.970     1832.597        1.796        0.710      146.950       49.359        0.113      333.612        3.039      862.870
01/01/2021  18:44:00      111.612       36.667       -3.634       74.796       38.509       36.345     5594.440     1482.966     1320.949        1.110        0.420      117.481       36.503        0.097      333.578        2.984      862.896
01/01/2021  18:45:00      -78.813        9.788       -7.801       49.718       23.854       18.675     2471.888      568.999      348.749        0.488        0.169       79.418        2.755        0.001      333.333        2.578      862.996
01/01/2021  18:46:00     -154.496      -30.271      -21.312       81.950       50.317       37.914     6715.757     2531.833     1437.455        1.796        0.534      157.434       35.733        0.052      333.311        2.541      863.082
01/01/2021  18:47:00     -172.688      -27.525      -10.960      116.326       75.342       49.806    13531.709     5676.361     2480.660        2.619        1.084      174.868       57.818        0.109      333.293        2.511      863.103
01/01/2021  18:48:00      -45.072       22.242        8.206       50.831       52.991       36.990     2583.745     2808.047     1368.244        0.468        0.338       50.261       32.524        0.419      333.424        2.730      863.077
01/01/2021  18:49:00       26.278        2.069       -9.055       46.932       29.266       23.361     2202.585      856.511      545.733        0.219        0.180       26.359       23.121        0.769      333.639        3.086      863.028
01/01/2021  18:50:00       14.960        6.044       -8.721       27.491       22.333       14.104      755.749      498.755      198.922        0.089        0.073       16.135       13.437        0.694      333.581        2.990      863.038
01/01/2021  18:51:00       33.443       28.983       -3.702       24.829       19.599       14.039      616.503      384.125      197.089        0.158        0.060       44.254       13.553        0.094      333.769        3.302      863.045
01/01/2021  18:52:00       -9.061       42.096        1.586       24.771       17.146        9.694      613.624      294.000       93.978        0.143        0.050       43.060        8.615        0.040      333.909        3.532      863.007
01/01/2021  18:53:00      -22.903      -17.396       -5.392       45.865       23.559       16.701     2103.622      555.004      278.912        0.190        0.147       28.761       23.077        0.644      333.528        2.903      863.078
01/01/2021  18:54:00        7.986      -45.197      -11.756       34.345       23.204       17.741     1179.609      538.405      314.754        0.214        0.102       45.897       17.744        0.149      333.750        3.270      863.108
01/01/2021  18:55:00      -76.114      -18.188       -6.531       37.898       21.309       14.612     1436.243      454.091      213.509        0.413        0.105       78.257       11.167        0.020      333.666        3.133      863.112
01/01/2021  18:56:00       13.527        7.019       -1.575       49.486       32.371       22.611     2448.869     1047.899      511.237        0.212        0.200       15.240       10.609        0.485      333.623        3.059      863.128
01/01/2021  18:57:00       32.885       15.100        0.011       47.525       41.487       35.351     2258.646     1721.176     1249.705        0.327        0.261       36.186       28.331        0.613      333.694        3.176      863.041
01/01/2021  18:58:00       29.936       -6.857        1.618       30.912       21.599       20.090      955.566      466.497      403.589        0.139        0.091       30.712       18.200        0.351      333.785        3.329      863.071
01/01/2021  18:59:00      144.519       36.581      -10.184       58.617       35.226       17.553     3435.969     1240.864      308.125        1.366        0.249      149.077       16.619        0.012      333.818        3.382      863.056
01/01/2021  19:00:00       79.378      -35.638      -17.670       50.373       45.289       24.487     2537.393     2051.090      599.604        0.653        0.259       87.011       17.609        0.041      333.643        3.093      863.024
01/01/2021  19:01:00      -51.991      -27.324      -14.565       27.207       26.126       16.498      740.204      682.583      272.170        0.268        0.085       58.734       13.691        0.054      333.529        2.904      863.100
01/01/2021  19:02:00      -79.493       17.732      -17.391       32.042       24.234       16.230     1026.683      587.309      263.397        0.441        0.094       81.447       12.460        0.023      333.401        2.691      863.137
01/01/2021  19:03:00      -53.913       40.463       -6.443       28.836       30.961       16.558      831.499      958.570      274.178        0.332        0.103       67.408       15.063        0.050      333.340        2.591      863.142
01/01/2021  19:04:00       24.883       82.425       -3.784       70.060       30.011       24.062     4908.466      900.675      578.987        0.691        0.319       86.099       29.725        0.119      333.738        3.251      863.121
01/01/2021  19:05:00      139.133       12.827       -8.988       62.367       41.766       32.165     3889.670     1744.425     1034.599        1.313        0.333      139.723       36.980        0.070      333.785        3.327      863.045
01/01/2021  19:06:00       89.115      -11.194       -7.387       60.815       47.786       32.473     3698.437     2283.467     1054.525        0.758        0.352       89.815       23.445        0.068      333.794        3.343      862.982
01/01/2021  19:07:00       90.440      -40.876      -32.785       75.265       75.821       41.365     5664.765     5748.896     1711.022        1.202        0.656       99.249       41.817        0.178      333.816        3.379      862.962
01/01/2021  19:08:00       75.718     -133.733      -20.963       63.019       56.188       37.196     3971.397     3157.099     1383.547        1.628        0.426      153.680       44.221        0.083      333.890        3.500      863.081
01/01/2021  19:09:00       94.686      -74.389      -29.667       56.131       72.309       32.209     3150.664     5228.614     1037.449        1.240        0.471      120.413       30.325        0.063      333.909        3.533      863.025
01/01/2021  19:10:00       27.434      -27.692      -12.960       37.281       54.515       27.938     1389.889     2971.896      780.518        0.341        0.257       38.980       21.844        0.314      333.862        3.455      863.028
01/01/2021  19:11:00      106.145        7.032       -6.851       89.671       57.067       30.789     8040.883     3256.609      947.945        1.180        0.612      106.378       46.294        0.189      333.895        3.509      863.018
01/01/2021  19:12:00       88.571       -3.609       -3.466      109.406       73.700       55.956    11969.736     5431.729     3131.041        1.420        1.027       88.645       48.402        0.298      333.821        3.387      862.932
01/01/2021  19:13:00       65.729       -9.577       -3.370       57.717       54.795       43.611     3331.262     3002.521     1901.877        0.633        0.412       66.423       30.485        0.211      333.902        3.521      863.034
01/01/2021  19:14:00       52.293      -41.639      -10.727       55.092       54.256       30.092     3035.175     2943.745      905.547        0.573        0.344       66.846       29.726        0.198      333.831        3.404      863.093
01/01/2021  19:15:00       97.813      -33.414      -10.852       59.003       52.164       29.756     3481.398     2721.040      885.405        0.894        0.354      103.363       30.967        0.090      333.685        3.162      863.064
01/01/2021  19:16:00      123.060       -8.990      -14.206       72.770       41.328       31.799     5295.418     1707.976     1011.166        1.172        0.401      123.388       27.933        0.051      333.660        3.120      862.969
01/01/2021  19:17:00      103.231      -16.908       -7.836       59.292       43.145       29.624     3515.484     1861.515      877.576        0.863        0.313      104.606       29.573        0.080      333.659        3.118      862.952
01/01/2021  19:18:00      106.928      -39.329      -20.830       63.799       64.277       40.242     4070.259     4131.490     1619.380        1.162        0.491      113.931       38.166        0.112      333.532        2.907      862.982
01/01/2021  19:19:00       62.179     -114.665      -23.381       57.187       59.613       27.231     3270.355     3553.752      741.515        1.256        0.378      130.439       18.322        0.020      333.538        2.918      863.045
01/01/2021  19:20:00       27.636      -10.195       -4.513       33.037       29.100       21.099     1091.429      846.783      445.165        0.164        0.119       29.457       16.965        0.332      333.598        3.017      863.055
01/01/2021  19:21:00       31.866      -12.020       -7.938       37.259       37.166       21.010     1388.264     1381.345      441.406        0.222        0.161       34.058       18.760        0.303      333.758        3.283      862.985
01/01/2021  19:22:00        8.672       -4.320       -2.319       36.299       37.200       24.927     1317.632     1383.837      621.337        0.171        0.166        9.689       10.203        1.109      333.660        3.120      862.930
01/01/2021  19:23:00       18.922      -47.723      -11.222       35.978       32.479       24.726     1294.392     1054.874      611.368        0.286        0.148       51.337       23.176        0.204      333.730        3.237      862.954
01/01/2021  19:24:00       44.483     -110.481      -21.450       44.761       38.144       26.990     2003.567     1454.960      728.440        0.942        0.209      119.100       22.753        0.036      333.774        3.309      863.039
01/01/2021  19:25:00        4.381       -6.541      -24.001       27.231       40.770       13.274      741.500     1662.221      176.194        0.161        0.129        7.873        9.180        1.360      333.594        3.013      863.024
01/01/2021  19:26:00       64.390       24.172       -9.250       44.503       28.402       15.027     1980.548      806.697      225.815        0.391        0.151       68.777       10.452        0.023      333.710        3.203      862.941
01/01/2021  19:27:00       39.572       -1.450      -11.128       53.380       58.604       32.751     2849.418     3434.375     1072.646        0.452        0.368       39.599       25.576        0.417      333.649        3.104      862.910
01/01/2021  19:28:00       74.988      -54.581      -24.663       36.339       52.547       23.456     1320.536     2761.231      550.204        0.692        0.232       92.748       14.635        0.025      333.597        3.017      862.914
01/01/2021  19:29:00       65.298      -30.052      -14.984       39.690       51.683       29.444     1575.313     2671.113      866.933        0.525        0.256       71.881       22.947        0.102      333.622        3.057      862.960
01/01/2021  19:30:00       67.852      -15.272      -15.512       46.442       54.660       30.901     2156.900     2987.712      954.860        0.559        0.305       69.550       24.828        0.127      333.607        3.034      863.018
01/01/2021  19:31:00       61.564       49.956       -2.313       30.669       42.979       19.084      940.611     1847.202      364.188        0.472        0.158       79.283        9.852        0.015      333.364        2.629      863.014
01/01/2021  19:32:00       32.966       61.887        0.284       27.091       21.599       17.161      733.935      466.538      294.486        0.321        0.075       70.119       15.357        0.048      333.267        2.470      863.014
01/01/2021  19:33:00        0.141       84.528       -4.386       24.228       27.329       15.621      586.996      746.900      244.025        0.437        0.079       84.528       14.371        0.029      333.352        2.611      863.039
01/01/2021  19:34:00      -16.790       40.143       -7.518       20.108       24.497       15.431      404.314      600.122      238.120        0.160        0.062       43.513        7.283        0.028      333.234        2.415      863.084
01/01/2021  19:35:00        8.281       53.731       -8.691       25.477       17.678       15.950      649.092      312.517      254.417        0.212        0.061       54.365       11.143        0.042      333.313        2.546      863.121
01/01/2021  19:36:00       68.152       55.359       -2.857       38.210       22.953       18.116     1459.974      526.829      328.193        0.502        0.116       87.803       18.687        0.045      333.556        2.949      863.083
01/01/2021  19:37:00       92.760       34.049      -14.738       39.491       37.359       18.850     1559.536     1395.665      355.313        0.665        0.166       98.812       17.216        0.030      333.553        2.943      862.993
01/01/2021  19:38:00       82.171       31.782       -8.717       19.235       26.374       13.710      369.973      695.569      187.973        0.455        0.063       88.103        8.775        0.010      333.472        2.809      862.976
01/01/2021  19:39:00      122.260       26.876      -12.957       39.128       29.606       19.504     1531.030      876.497      380.418        0.931        0.139      125.179       20.275        0.026      333.547        2.932      862.972
01/01/2021  19:40:00      135.950       31.159      -11.214       55.463       40.437       23.124     3076.178     1635.145      534.736        1.241        0.262      139.475       23.044        0.027      333.637        3.082      862.921
01/01/2021  19:41:00       73.204       15.042       -6.757       58.109       48.350       28.222     3376.616     2337.735      796.458        0.607        0.326       74.733       28.128        0.142      333.674        3.144      862.903
01/01/2021  19:42:00       38.502       18.796       -0.486       46.188       46.236       29.983     2133.350     2137.757      899.005        0.350        0.259       42.845       25.084        0.343      333.598        3.018      862.903
01/01/2021  19:43:00       42.569        6.896      -18.024       34.884       44.507       28.150     1216.862     1980.894      792.436        0.309        0.200       43.124       19.082        0.196      333.558        2.952      862.872
01/01/2021  19:44:00       40.116        2.871      -12.246       49.567       53.209       23.114     2456.918     2831.239      534.249        0.379        0.291       40.218       11.510        0.082      333.502        2.860      862.876
01/01/2021  19:45:00      123.319       11.486       -4.866       38.242       36.862       24.771     1462.423     1358.836      613.578        0.940        0.172      123.853       16.459        0.018      333.544        2.928      862.817
01/01/2021  19:46:00      151.884       12.443       -5.011       58.836       43.021       31.613     3461.713     1850.831      999.390        1.478        0.316      152.393       33.848        0.049      333.552        2.942      862.774
01/01/2021  19:47:00       81.412        9.200      -15.396       49.156       48.687       29.364     2416.312     2370.452      862.252        0.630        0.282       81.930       10.336        0.016      333.574        2.977      862.756
01/01/2021  19:48:00       74.879      -34.881      -18.478       44.990       37.151       21.739     2024.114     1380.173      472.597        0.552        0.194       82.605       24.618        0.089      333.624        3.061      862.790
01/01/2021  19:49:00       76.758      -15.915        0.359       62.885       43.309       30.344     3954.535     1875.637      920.755        0.645        0.338       78.391       27.053        0.119      333.534        2.911      862.741
01/01/2021  19:50:00       95.601       37.295      -10.627       48.152       42.521       22.689     2318.570     1807.994      514.778        0.764        0.232      102.618       20.588        0.040      333.548        2.936      862.730
01/01/2021  19:51:00       74.423       64.674       -3.470       35.762       24.314       14.187     1278.930      591.150      201.278        0.590        0.104       98.598       14.116        0.020      333.499        2.854      862.761
01/01/2021  19:52:00       77.741       23.835       -1.870       28.644       26.281       16.530      820.474      690.701      273.251        0.420        0.089       81.313       14.301        0.031      333.442        2.759      862.750
01/01/2021  19:53:00       73.070       14.836      -12.562       45.622       33.494       22.920     2081.336     1121.834      525.321        0.472        0.186       74.561       22.609        0.092      333.534        2.911      862.764
01/01/2021  19:54:00       48.879       -8.873      -15.395       36.072       41.787       25.304     1301.174     1746.169      640.270        0.320        0.184       49.678       20.593        0.172      333.405        2.700      862.730
01/01/2021  19:55:00       42.771       12.746       -9.823       45.821       35.441       21.180     2099.580     1256.038      448.603        0.295        0.190       44.630       24.772        0.308      333.405        2.698      862.715
01/01/2021  19:56:00       25.871       17.874       -2.601       20.814       16.565       12.303      433.240      274.408      151.375        0.093        0.043       31.445       10.905        0.120      333.382        2.661      862.718
01/01/2021  19:57:00       59.075       23.942        0.151       39.027       19.075       15.232     1523.074      363.851      232.025        0.309        0.106       63.742       19.706        0.096      333.579        2.986      862.688
01/01/2021  19:58:00       50.573        7.086       -0.034       33.837       16.191       15.929     1144.912      262.148      253.746        0.213        0.083       51.067       17.960        0.124      333.578        2.984      862.628
01/01/2021  19:59:00       77.428      -51.052      -29.474       38.329       45.078       22.800     1469.147     2032.050      519.836        0.674        0.201       92.744       25.470        0.075      333.588        3.000      862.630
01/01/2021  20:00:00      110.503      -47.860      -38.782       43.887       49.443       34.753     1926.048     2444.629     1207.778        1.079        0.279      120.422       27.224        0.051      333.367        2.635      862.537
01/01/2021  20:01:00      127.848       14.902      -16.294       64.094       64.091       36.291     4108.050     4107.628     1317.012        1.318        0.477      128.714       21.175        0.027      333.538        2.918      862.400
01/01/2021  20:02:00       86.881      -14.076        3.912       66.421       55.588       43.204     4411.702     3089.993     1866.626        0.856        0.468       88.014       22.780        0.067      333.373        2.645      862.283
01/01/2021  20:03:00      -24.271      -34.214       -5.970       63.633       34.711       31.445     4049.201     1204.866      988.782        0.402        0.312       41.948       18.421        0.193      333.387        2.668      862.520
01/01/2021  20:04:00      -87.833      -13.835        4.382       69.990       37.903       35.837     4898.662     1436.648     1284.321        0.777        0.381       88.916       37.197        0.175      333.344        2.597      862.716
01/01/2021  20:05:00        3.014       23.523       -8.419       61.452       27.905       18.884     3776.312      778.675      356.624        0.277        0.246       23.716       22.056        0.865      333.501        2.858      862.609
01/01/2021  20:06:00       92.324        9.801       -9.223       72.748       56.737       48.557     5292.302     3219.130     2357.816        0.978        0.543       92.842       45.231        0.237      333.671        3.139      862.349
01/01/2021  20:07:00       61.182      -11.441      -18.032       69.605       77.184       40.690     4844.873     5957.297     1655.675        0.833        0.623       62.242       36.430        0.343      333.626        3.064      862.223
01/01/2021  20:08:00       34.283       17.152       -7.967       33.807       27.774       15.839     1142.945      771.375      250.882        0.185        0.108       38.334       12.490        0.106      333.522        2.892      862.368
01/01/2021  20:09:00      -24.466       -1.116       -2.591       22.373       20.601       16.215      500.550      424.383      262.924        0.090        0.059       24.491        9.858        0.162      333.369        2.638      862.550
01/01/2021  20:10:00      -28.172      -21.116      -15.061       29.278       18.903       16.020      857.212      357.330      256.645        0.147        0.074       35.207       10.239        0.085      333.298        2.520      862.657
01/01/2021  20:11:00       13.302       17.279      -18.903       26.618       31.688       14.432      708.492     1004.146      208.269        0.138        0.096       21.806       14.040        0.415      333.351        2.609      862.537
01/01/2021  20:12:00       74.181       23.565       -6.045       57.365       21.385       18.890     3290.725      457.304      356.817        0.510        0.205       77.834       19.125        0.060      333.574        2.978      862.344
01/01/2021  20:13:00      119.135        3.934       -5.508       72.825       68.130       49.492     5303.547     4641.734     2449.448        1.331        0.620      119.200       44.266        0.138      333.416        2.717      862.078
01/01/2021  20:14:00       89.203       14.579        0.974       76.038       60.406       42.492     5781.775     3648.910     1805.565        0.970        0.562       90.386       43.460        0.231      333.079        2.159      861.971
01/01/2021  20:15:00      -25.871       24.005      -11.238       62.474       28.697       19.417     3903.011      823.539      377.032        0.324        0.255       35.292       12.756        0.131      333.033        2.083      862.234
01/01/2021  20:16:00      -83.117       -4.412       -7.937       86.230       40.477       38.742     7435.592     1638.385     1500.976        0.878        0.529       83.234       41.599        0.250      332.914        1.885      862.568
01/01/2021  20:17:00       12.756      -20.592        4.160       37.019       31.151       26.534     1370.410      970.361      704.049        0.182        0.152       24.223       13.724        0.321      333.130        2.242      862.502
01/01/2021  20:18:00       75.033       -0.105      -16.138       63.085       51.378       37.382     3979.747     2639.738     1397.420        0.695        0.401       75.033       39.445        0.276      333.249        2.440      862.200
01/01/2021  20:19:00       82.986      -83.146      -40.517       70.013       89.845       42.605     4901.772     8072.089     1815.204        1.511        0.739      117.473       35.939        0.094      333.409        2.705      862.146
01/01/2021  20:20:00      103.705      -87.437      -24.441       67.475       56.741       31.738     4552.902     3219.485     1007.282        1.389        0.439      135.646       43.247        0.102      333.400        2.690      862.226
01/01/2021  20:21:00      -42.763       46.698       -9.872       38.675       28.794       19.211     1495.737      829.102      369.058        0.340        0.135       63.320       10.089        0.025      333.204        2.365      862.394
01/01/2021  20:22:00      -22.971       65.067       -1.839       34.014       29.540       17.493     1156.985      872.583      306.014        0.355        0.117       69.003       13.275        0.037      333.298        2.522      862.446
01/01/2021  20:23:00      -46.720       87.403        4.387       29.261       33.212       18.999      856.204     1103.062      360.969        0.608        0.116       99.106       14.790        0.022      333.277        2.486      862.425
01/01/2021  20:24:00      -34.956      153.010       -7.495       24.048       30.391       17.625      578.294      923.615      310.646        1.325        0.091      156.953       16.733        0.011      333.355        2.615      862.340
01/01/2021  20:25:00       59.512      136.408      -12.027       49.606       50.024       23.503     2460.759     2502.362      552.396        1.390        0.276      148.825       19.230        0.017      333.404        2.696      862.236
01/01/2021  20:26:00       55.440       72.475        2.819       46.653       27.288       22.522     2176.534      744.651      507.239        0.588        0.171       91.248       20.897        0.052      333.383        2.661      862.296
01/01/2021  20:27:00       11.663      111.918       -0.720       29.577       29.233       17.238      874.770      854.595      297.147        0.734        0.101      112.525       13.889        0.015      333.574        2.978      862.441
01/01/2021  20:28:00       30.380       76.914       -0.498       47.684       28.340       15.806     2273.803      803.173      249.834        0.508        0.166       82.697        9.932        0.014      333.360        2.624      862.434
01/01/2021  20:29:00       63.926       28.332       -7.108       58.949       59.677       41.016     3474.931     3561.312     1682.337        0.683        0.436       69.923       40.229        0.331      333.382        2.660      862.261
01/01/2021  20:30:00       -9.808      -30.996      -20.300       69.717       54.278       28.319     4860.440     2946.153      801.980        0.504        0.430       32.510       23.325        0.515      333.203        2.364      862.113
01/01/2021  20:31:00      -81.467       -0.778      -15.165       48.435       41.785       22.451     2345.906     1745.946      504.027        0.573        0.230       81.471       21.156        0.067      333.325        2.567      862.185
01/01/2021  20:32:00     -148.705       55.304      -12.059       41.769       44.133       25.981     1744.616     1947.701      675.000        1.484        0.218      158.656       17.551        0.012      333.061        2.130      862.371
01/01/2021  20:33:00     -153.404       45.242      -14.850       38.012       42.624       31.076     1444.940     1816.766      965.710        1.501        0.211      159.936       23.143        0.021      332.972        1.982      862.417
01/01/2021  20:34:00     -131.131       29.046      -13.308       56.449       39.358       29.388     3186.434     1549.052      863.663        1.191        0.280      134.309       18.530        0.019      332.845        1.773      862.485
01/01/2021  20:35:00      -57.151       31.907       -2.849       43.057       29.460       24.037     1853.872      867.882      577.777        0.380        0.165       65.454        9.308        0.020      332.728        1.579      862.411
01/01/2021  20:36:00       35.677       25.198       -8.689       36.285       29.721       15.793     1316.568      883.354      249.415        0.222        0.122       43.678       18.255        0.175      332.903        1.869      862.247
01/01/2021  20:37:00       53.621       79.978       -7.367       35.062       25.585       16.040     1229.336      654.603      257.295        0.573        0.107       96.290       14.560        0.023      333.119        2.225      862.127
01/01/2021  20:38:00      -24.897       44.636       -6.921       49.501       38.340       22.654     2450.360     1469.951      513.203        0.355        0.222       51.110        9.842        0.037      332.823        1.736      862.202
01/01/2021  20:39:00       35.339      -34.567      -12.270       56.211       43.885       28.963     3159.635     1925.906      838.832        0.426        0.296       49.434       19.688        0.159      332.848        1.777      862.381
01/01/2021  20:40:00       -8.095       -2.104       -0.539       44.040       26.500       26.040     1939.478      702.255      678.084        0.169        0.166        8.364       14.656        3.070      332.881        1.833      862.428
01/01/2021  20:41:00       95.962       37.089      -26.052       64.226       40.528       26.224     4124.985     1642.549      687.695        0.886        0.323      102.881       21.407        0.043      332.931        1.914      862.227
01/01/2021  20:42:00       53.014       61.632       -5.111       41.685       23.815       17.238     1737.671      567.133      297.137        0.462        0.130       81.296       14.039        0.030      332.843        1.770      862.077
01/01/2021  20:43:00      -49.705       49.287      -13.146       47.416       53.112       17.528     2248.291     2820.896      307.239        0.522        0.269       69.999       17.860        0.065      332.789        1.682      862.109
01/01/2021  20:44:00      -11.458       -0.951       -7.019       83.732       47.080       39.343     7010.978     2216.566     1547.878        0.548        0.539       11.497       35.684        9.633      332.503        1.207      862.299
01/01/2021  20:45:00     -142.352       71.956      -15.589       57.203       61.411       28.415     3272.196     3771.338      807.393        1.677        0.393      159.504       31.528        0.039      332.586        1.345      862.323
01/01/2021  20:46:00     -120.558       39.922      -22.495       48.082       51.883       22.360     2311.887     2691.801      499.982        1.107        0.275      126.996       25.033        0.039      332.519        1.234      862.249
01/01/2021  20:47:00       -7.890      -27.583      -12.875       37.446       38.754       25.676     1402.213     1501.896      659.237        0.228        0.178       28.690       12.727        0.197      332.488        1.183      862.351
01/01/2021  20:48:00        0.804       16.611       -4.104       33.463       21.274       17.161     1119.794      452.574      294.497        0.108        0.093       16.630       18.284        1.209      332.446        1.115      862.292
01/01/2021  20:49:00      -16.774       54.826       -5.448       28.778       28.745       14.213      828.170      826.270      202.012        0.259        0.093       57.335       13.895        0.059      332.553        1.291      862.254
01/01/2021  20:50:00       70.244      129.254      -11.271       66.828       46.485       29.421     4465.941     2160.851      865.590        1.463        0.375      147.108       24.954        0.029      332.832        1.751      862.096
01/01/2021  20:51:00       69.320       61.773        8.966       97.044       53.555       31.137     9417.455     2868.186      969.540        1.098        0.663       92.850       27.452        0.087      332.710        1.548      861.955
01/01/2021  20:52:00      -25.900        3.162        2.931       71.301       48.085       41.947     5083.848     2312.179     1759.588        0.492        0.458       26.093       29.627        1.289      332.810        1.712      862.238
01/01/2021  20:53:00     -264.962      -34.676       -6.493       70.570       51.759       37.461     4980.176     2679.026     1403.357        4.025        0.453      267.222       15.484        0.003      332.639        1.428      862.398
01/01/2021  20:54:00     -165.434      -21.567       -0.912       75.131       67.006       35.708     5644.602     4489.799     1275.048        1.962        0.570      166.834       34.746        0.043      332.817        1.725      862.293
01/01/2021  20:55:00       13.713       42.969        3.832       45.094       24.315       19.681     2033.428      591.216      387.332        0.253        0.151       45.104       12.684        0.079      333.160        2.293      862.115
01/01/2021  20:56:00       -4.769       98.368       -0.315       28.000       28.252       15.937      783.995      798.176      253.999        0.577        0.092       98.483       10.134        0.011      333.160        2.293      862.098
01/01/2021  20:57:00      -13.150      139.251       -5.426       35.612       30.389       17.900     1268.210      923.505      320.425        1.105        0.126      139.870       11.162        0.006      333.439        2.755      862.182
01/01/2021  20:58:00       32.022       51.923        9.347       28.078       59.517       20.227      788.386     3542.248      409.147        0.427        0.237       61.004       16.074        0.069      333.625        3.062      862.298
01/01/2021  20:59:00       49.067      -13.451      -14.407       26.947       63.101       22.715      726.136     3981.706      515.992        0.401        0.261       50.877       16.418        0.104      333.240        2.424      862.345
01/01/2021  21:00:00       74.220       34.551       -6.919       48.232       42.940       24.944     2326.331     1843.865      622.196        0.577        0.240       81.868       27.087        0.109      332.996        2.021      862.178
01/01/2021  21:01:00      -69.121       40.267      -15.590       67.454       32.336       23.401     4550.052     1045.613      547.623        0.639        0.307       79.995        8.301        0.011      332.806        1.709      862.172
01/01/2021  21:02:00     -153.523       11.654       -6.915       77.494       61.889       30.976     6005.250     3830.268      959.488        1.727        0.540      153.965       27.221        0.031      332.425        1.076      862.293
01/01/2021  21:03:00      -68.743        7.575        1.100       62.317       33.941       23.541     3883.386     1151.963      554.190        0.519        0.279       69.159        4.589        0.004      332.516        1.230      862.174
01/01/2021  21:04:00      -24.883       21.198       -4.883       26.587       32.432       14.902      706.888     1051.840      222.084        0.154        0.099       32.689        8.075        0.061      332.927        1.909      862.191
01/01/2021  21:05:00        1.746      -42.937      -12.539       28.416       23.096       15.834      807.463      533.410      250.710        0.180        0.080       42.972       16.396        0.146      332.918        1.893      862.212
01/01/2021  21:06:00        9.867       19.097       -7.652       20.675       26.789       16.185      427.448      717.651      261.954        0.096        0.070       21.496       18.544        0.744      333.502        2.859      862.262
01/01/2021  21:07:00       14.814       55.432        4.378       29.213       31.499       17.723      853.394      992.201      314.111        0.274        0.108       57.377       10.561        0.034      333.738        3.250      862.276
01/01/2021  21:08:00      -18.313      103.507       -5.354       22.548       25.803       15.392      508.404      665.788      236.928        0.624        0.071      105.114        8.722        0.007      333.804        3.360      862.239
01/01/2021  21:09:00      -79.932       58.653       -9.270       36.709       38.344       16.516     1347.548     1470.238      272.768        0.650        0.155       99.143       15.252        0.024      333.186        2.336      862.243
01/01/2021  21:10:00      -20.143       39.080       -3.531       31.941       34.337       18.781     1020.211     1179.007      352.728        0.225        0.128       43.965       10.390        0.056      333.030        2.079      862.229
01/01/2021  21:11:00       69.771       35.129        0.140       36.848       59.058       18.158     1357.746     3487.819      329.702        0.564        0.259       78.116       14.132        0.033      333.640        3.089      862.208
01/01/2021  21:12:00        2.353        3.008        6.584       22.861       21.679       16.857      522.623      469.958      284.143        0.067        0.064        3.819       16.820       19.398      333.390        2.673      862.223
01/01/2021  21:13:00      -29.121        3.968      -13.670       25.990       26.752       21.161      675.480      715.671      447.774        0.144        0.092       29.390       19.831        0.455      332.931        1.915      862.231
01/01/2021  21:14:00      -47.400      -30.991       -7.286       22.684       15.160       12.540      514.544      229.816      157.245        0.208        0.045       56.632        7.307        0.017      332.996        2.022      862.193
01/01/2021  21:15:00      -82.414       -4.912       -6.569       48.077       34.505       31.082     2311.358     1190.570      966.090        0.566        0.223       82.560       25.696        0.097      332.776        1.659      862.265
01/01/2021  21:16:00      -86.818      -10.961        1.854       56.937       41.642       32.402     3241.830     1734.088     1049.915        0.684        0.301       87.508       27.939        0.102      332.723        1.572      862.405
01/01/2021  21:17:00      -65.210       -0.719       -0.802       49.334       21.067       17.323     2433.794      443.834      300.097        0.371        0.159       65.214       17.873        0.075      333.003        2.035      862.399
01/01/2021  21:18:00       71.990       11.255       -7.430       58.466       42.652       26.559     3418.315     1819.177      705.386        0.565        0.297       72.864       18.124        0.062      333.403        2.694      862.331
01/01/2021  21:19:00      165.025       -6.679        5.651       89.672       49.530       46.906     8041.057     2453.187     2200.193        2.000        0.635      165.160       41.651        0.064      333.750        3.267      862.236
01/01/2021  21:20:00      129.789       -4.020       -0.622      100.940       55.315       48.035    10188.966     3059.705     2307.374        1.621        0.778      129.851       53.771        0.171      333.526        2.897      862.184
01/01/2021  21:21:00       93.038      -17.019       -6.359       92.642       59.379       50.497     8582.508     3525.847     2549.912        1.182        0.733       94.581       40.966        0.188      333.243        2.430      862.163
01/01/2021  21:22:00       74.537       -8.931        5.147       52.559       45.204       37.355     2762.407     2043.391     1395.374        0.593        0.310       75.070       33.554        0.200      333.879        3.483      862.227
01/01/2021  21:23:00      -79.224       25.189       -8.102       41.062       25.778       19.313     1686.095      664.495      373.001        0.485        0.136       83.132       18.576        0.050      333.250        2.442      862.378
01/01/2021  21:24:00     -109.094       55.052      -12.631       89.086       53.475       34.301     7936.391     2859.579     1176.572        1.353        0.599      122.198       15.863        0.017      333.346        2.600      862.454
01/01/2021  21:25:00     -148.495      136.610      -13.069       37.958       36.835       26.467     1440.824     1356.849      700.495        2.219        0.175      201.775       23.186        0.013      333.680        3.151      862.489
01/01/2021  21:26:00      -59.999       38.567       -6.233       46.110       35.884       21.250     2126.112     1287.666      451.542        0.449        0.193       71.325       23.987        0.113      333.455        2.780      862.554
01/01/2021  21:27:00      102.545       16.324      -11.616       59.912       45.192       24.561     3589.460     2042.318      603.233        0.857        0.312      103.836       17.336        0.028      333.991        3.671      862.504
01/01/2021  21:28:00      190.073       18.163       -8.671       38.926       46.832       25.562     1515.217     2193.261      653.407        2.045        0.218      190.939       15.034        0.006      333.979        3.648      862.428
01/01/2021  21:29:00       92.429       52.618       -4.109       46.733       31.510       22.414     2183.980      992.899      502.375        0.750        0.184      106.356       23.407        0.048      333.822        3.390      862.483
01/01/2021  21:30:00       60.571       39.476       -3.035       27.609       36.924       15.885      762.232     1363.370      252.342        0.381        0.119       72.300       16.370        0.051      333.727        3.233      862.512
01/01/2021  21:31:00       33.216        2.230      -12.393       30.244       29.942       15.182      914.719      896.539      230.479        0.165        0.102       33.291       15.621        0.220      333.583        2.992      862.572
01/01/2021  21:32:00       31.308        6.246       -5.010       24.892       14.053       13.524      619.596      197.498      182.894        0.102        0.050       31.925       13.712        0.184      333.523        2.893      862.591
01/01/2021  21:33:00        2.925       12.092       -0.869       16.075       12.056       10.951      258.396      145.348      119.918        0.034        0.026       12.441        8.335        0.449      333.516        2.883      862.626
01/01/2021  21:34:00      -19.107      -27.425       -8.944       24.598       11.459       13.297      605.068      131.314      176.821        0.105        0.046       33.425        8.771        0.069      333.582        2.993      862.680
01/01/2021  21:35:00       52.483       32.050       -9.166       39.893       36.287       12.616     1591.433     1316.760      159.163        0.347        0.153       61.496       17.610        0.082      333.445        2.764      862.566
01/01/2021  21:36:00      -36.097       21.558       -7.264       52.407       32.857       19.198     2746.487     1079.575      368.563        0.301        0.210       42.044       19.018        0.205      333.328        2.572      862.509
01/01/2021  21:37:00       -9.150       -1.500       13.364       47.250       42.755       31.356     2232.535     1828.006      983.201        0.265        0.252        9.272       19.984        4.646      333.101        2.196      862.660
01/01/2021  21:38:00       42.922     -108.930      -36.818       70.026       58.504       30.318     4903.663     3422.774      919.161        1.215        0.462      117.082       28.934        0.061      333.246        2.434      862.671
01/01/2021  21:39:00      177.191     -177.534      -65.394       52.546       88.222       41.526     2761.115     7783.072     1724.401        3.973        0.613      250.829       41.054        0.027      333.338        2.584      862.572
01/01/2021  21:40:00       82.766     -109.844      -20.133      100.079       62.764       43.817    10015.845     3939.358     1919.904        1.759        0.794      137.535       57.580        0.175      333.547        2.932      862.585
01/01/2021  21:41:00       13.226      -21.620       -7.457       51.268       40.667       27.841     2628.449     1653.845      775.097        0.288        0.253       25.345       26.398        1.085      333.447        2.768      862.708
01/01/2021  21:42:00      -83.649      -32.814        6.066       97.788       47.200       39.013     9562.484     2227.871     1522.040        1.071        0.666       89.855       44.677        0.247      333.352        2.611      862.788
01/01/2021  21:43:00     -100.663      -31.698       -8.039       74.026       43.323       22.428     5479.821     1876.854      503.015        0.953        0.393      105.535       10.123        0.009      333.350        2.605      862.769
01/01/2021  21:44:00       82.587      -25.074      -26.479       59.344       53.926       45.496     3521.768     2908.051     2069.857        0.832        0.425       86.309       41.735        0.234      333.562        2.957      862.668
01/01/2021  21:45:00       67.964      -53.054      -29.559       69.136       61.431       47.185     4779.808     3773.752     2226.381        0.954        0.539       86.219       44.188        0.263      333.349        2.605      862.652
01/01/2021  21:46:00      114.064     -118.526      -32.005       54.651       52.726       29.116     2986.680     2780.068      847.744        1.735        0.331      164.496       26.908        0.027      333.469        2.805      862.686
01/01/2021  21:47:00       95.084      -40.925      -18.669       56.252       63.367       36.731     3164.255     4015.419     1349.190        0.979        0.426      103.517       28.118        0.074      333.456        2.781      862.624
01/01/2021  21:48:00       83.121      -51.948       -9.767       55.265       73.936       33.776     3054.178     5466.594     1140.808        0.968        0.483       98.019       30.065        0.094      333.708        3.199      862.635
01/01/2021  21:49:00      -12.749      -24.059       -2.207       36.123       35.236       19.242     1304.872     1241.592      370.260        0.183        0.146       27.228       13.283        0.238      333.496        2.850      862.682
01/01/2021  21:50:00      117.800      -46.826      -12.259       50.742       40.524       24.030     2574.771     1642.216      577.425        1.051        0.240      126.766       24.904        0.039      333.932        3.572      862.688
01/01/2021  21:51:00       52.323     -100.926      -34.843       68.627       56.589       32.011     4709.665     3202.370     1024.687        1.154        0.447      113.683       31.016        0.074      333.601        3.022      862.701
01/01/2021  21:52:00       78.842     -111.524      -29.304       65.893       58.746       34.846     4341.886     3451.077     1214.212        1.426        0.450      136.578       30.677        0.050      333.640        3.087      862.729
01/01/2021  21:53:00      105.692     -136.886      -37.565       48.064       42.417       28.453     2310.176     1799.173      809.595        1.812        0.246      172.941       27.272        0.025      333.470        2.805      862.772
01/01/2021  21:54:00      -27.660      -34.785       -5.325       73.984       64.324       28.758     5473.692     4137.545      827.013        0.622        0.522       44.442       16.760        0.142      333.315        2.550      862.824
01/01/2021  21:55:00     -248.711       24.001        3.545      152.195      105.756       51.606    23163.327    11184.360     2663.227        4.972        1.851      249.866       45.891        0.034      333.049        2.108      862.904
01/01/2021  21:56:00     -264.444       38.119        8.526      128.069       74.951       51.242    16401.696     5617.719     2625.702        4.805        1.232      267.177       48.666        0.033      333.027        2.071      862.955
01/01/2021  21:57:00      -66.665       -1.285       12.056       68.635       41.894       35.222     4710.718     1755.129     1240.578        0.615        0.385       66.678       31.707        0.226      333.095        2.185      862.971
01/01/2021  21:58:00       36.639      -17.032      -12.533       25.157       29.229       17.974      632.854      854.324      323.065        0.180        0.091       40.404       19.736        0.239      333.178        2.321      862.937
01/01/2021  21:59:00       79.030      -83.973      -25.986       45.249       33.511       19.255     2047.495     1122.957      370.771        0.876        0.177      115.313       22.932        0.040      333.574        2.979      862.923
01/01/2021  22:00:00      -19.995      -41.051      -21.679       82.695       49.884       21.539     6838.397     2488.390      463.909        0.617        0.490       45.662       17.521        0.147      333.576        2.982      862.906
01/01/2021  22:01:00        8.745      -25.008      -21.489      140.268       41.714       27.590    19675.160     1740.082      761.190        1.167        1.109       26.493       39.117        2.180      334.267        4.128      862.933
01/01/2021  22:02:00       33.541        3.477      -31.626       72.971       80.373       35.892     5324.746     6459.785     1288.236        0.760        0.654       33.721       32.954        0.955      334.106        3.859      862.942
01/01/2021  22:03:00      -67.215       23.278       -3.161       54.068       51.565       29.930     2923.338     2658.982      895.798        0.577        0.324       71.131       13.593        0.037      333.776        3.313      863.013
01/01/2021  22:04:00       39.437      -24.863      -14.682       50.005       40.820       20.735     2500.473     1666.270      429.954        0.349        0.230       46.620       20.067        0.185      333.959        3.614      862.990
01/01/2021  22:05:00       -2.045      -11.637      -21.391       66.837       49.169       28.354     4467.228     2417.621      803.949        0.414        0.384       11.815       24.783        4.400      333.883        3.491      863.020
01/01/2021  22:06:00      -41.840      -24.957        2.992       98.242       73.375       49.686     9651.466     5383.890     2468.692        0.994        0.875       48.717       47.799        0.963      333.654        3.111      863.140
01/01/2021  22:07:00      -61.223       39.398        1.967       48.875       36.784       20.775     2388.794     1353.062      431.595        0.474        0.209       72.805       17.239        0.056      333.479        2.820      863.156
01/01/2021  22:08:00      -46.707       23.349       -1.558       29.927       27.794       13.175      895.602      772.515      173.581        0.229        0.092       52.218       11.733        0.050      333.456        2.783      863.193
01/01/2021  22:09:00      -10.665       52.090       -6.695       19.735       28.920       12.574      389.478      836.377      158.099        0.213        0.069       53.170        6.385        0.014      333.489        2.838      863.239
01/01/2021  22:10:00       23.426        3.992        5.945       27.255       19.067       14.101      742.832      363.542      198.847        0.095        0.065       23.764        8.160        0.118      333.685        3.163      863.227
01/01/2021  22:11:00       46.644       15.392       -0.737       40.467       39.087       21.827     1637.599     1527.806      476.411        0.303        0.182       49.118       17.548        0.128      333.652        3.107      863.183
01/01/2021  22:12:00       63.718      -39.619      -30.117       38.615       60.846       23.291     1491.126     3702.230      542.464        0.614        0.287       75.032       24.362        0.105      333.503        2.859      863.171
01/01/2021  22:13:00       52.542      -74.598      -15.893       42.837       25.880       20.732     1835.051      669.764      429.820        0.576        0.147       91.244       21.127        0.054      333.715        3.212      863.198
01/01/2021  22:14:00       52.739     -103.941      -12.452       45.851       27.278       23.451     2102.318      744.080      549.940        0.857        0.170      116.556       27.499        0.056      333.910        3.534      863.197
01/01/2021  22:15:00       -7.573      -48.719        4.885       50.109       44.440       24.729     2510.899     1974.915      611.515        0.377        0.255       49.304       18.639        0.143      333.708        3.201      863.217
01/01/2021  22:16:00     -116.979       -5.694       -2.481       65.549       31.597       27.830     4296.634      998.387      774.512        0.989        0.303      117.118       22.753        0.038      333.480        2.823      863.248
01/01/2021  22:17:00      -88.826      -14.483       -5.202       37.668       35.665       23.122     1418.876     1271.994      534.639        0.568        0.161       89.999       17.135        0.036      333.626        3.066      863.298
01/01/2021  22:18:00       17.069       -4.466       -8.006       48.731       14.027       15.957     2374.734      196.749      254.612        0.160        0.141       17.644       21.405        1.472      333.579        2.986      863.295
01/01/2021  22:19:00       71.207      -11.499      -13.840       49.212       46.844       30.964     2421.838     2194.339      958.786        0.548        0.279       72.130       31.307        0.188      333.550        2.938      863.250
01/01/2021  22:20:00       92.769     -143.058      -28.299       44.290       55.524       34.008     1961.638     3082.926     1156.516        1.804        0.310      170.504       32.581        0.037      333.595        3.011      863.204
01/01/2021  22:21:00       20.486      -92.000      -22.723       70.158       38.098       34.129     4922.152     1451.470     1164.784        0.847        0.377       94.254       16.674        0.031      333.679        3.153      863.220
01/01/2021  22:22:00      -15.745      -26.214      -14.792       36.952       26.094       18.424     1365.429      680.877      339.456        0.177        0.119       30.579       11.953        0.153      333.664        3.127      863.257
01/01/2021  22:23:00      -86.507      -52.021      -14.435       50.548       74.132       27.576     2555.142     5495.562      760.424        0.960        0.441      100.944       25.217        0.062      333.716        3.213      863.252
01/01/2021  22:24:00     -144.402      -75.482      -18.691       73.418       75.113       42.617     5390.174     5642.016     1816.228        1.987        0.642      162.940       35.150        0.047      333.744        3.258      863.269
01/01/2021  22:25:00        4.052      -13.760       -3.128       79.809       53.792       35.883     6369.442     2893.608     1287.554        0.538        0.528       14.344       28.003        3.811      333.608        3.034      863.285
01/01/2021  22:26:00      114.660      -91.120      -41.170       57.886       77.565       37.000     3350.755     6016.292     1369.034        1.694        0.537      146.458       31.214        0.045      333.945        3.593      863.183
01/01/2021  22:27:00       63.316      -14.671       -4.787       77.096       59.406       44.611     5943.841     3529.090     1990.102        0.785        0.573       64.994       44.162        0.462      333.997        3.678      863.133
01/01/2021  22:28:00       31.892        0.816        1.458       77.753       35.533       19.313     6045.578     1262.598      372.998        0.435        0.384       31.902       15.514        0.236      334.357        4.277      863.189
01/01/2021  22:29:00      -47.083       25.574       -8.642       42.611       43.397       22.595     1815.666     1883.275      510.525        0.358        0.210       53.580       16.567        0.096      333.687        3.166      863.242
01/01/2021  22:30:00      -44.386       -2.126       13.050      101.967       51.356       38.725    10397.240     2637.455     1499.635        0.834        0.727       44.437       43.352        0.952      333.353        2.611      863.315
01/01/2021  22:31:00      -24.889      -44.117       -4.627       61.679       40.946       23.682     3804.328     1676.554      560.823        0.431        0.302       50.653       20.426        0.163      333.715        3.214      863.342
01/01/2021  22:32:00       67.721      -23.889      -10.543       54.492       52.374       34.899     2969.357     2742.996     1217.930        0.610        0.347       71.811       35.248        0.241      333.680        3.155      863.319
01/01/2021  22:33:00       -2.975       -2.625       -2.941       44.907       49.170       22.054     2016.657     2417.732      486.395        0.247        0.246        3.967       22.021       30.812      333.691        3.170      863.296
01/01/2021  22:34:00     -173.106       44.853      -24.876       70.578       39.173       24.024     4981.301     1534.534      577.154        1.984        0.355      178.822       14.265        0.006      333.431        2.740      863.353
01/01/2021  22:35:00     -144.296       13.266       -8.780       87.228       62.110       42.876     7608.765     3857.616     1838.379        1.719        0.665      144.905       39.820        0.076      333.186        2.334      863.460
01/01/2021  22:36:00     -168.474       79.336       -2.331       88.408       54.363       37.341     7815.919     2955.290     1394.358        2.342        0.608      186.219       29.811        0.026      333.370        2.639      863.550
01/01/2021  22:37:00       65.589       46.789      -12.698       51.750       43.991       26.517     2678.073     1935.246      703.157        0.598        0.266       80.568       23.240        0.083      333.712        3.207      863.548
01/01/2021  22:38:00       81.442       29.669       -8.861       55.685       54.504       28.144     3100.828     2970.705      792.089        0.723        0.343       86.678       22.999        0.070      333.875        3.479      863.543
01/01/2021  22:39:00       58.086        8.437      -12.154       66.501       57.488       51.022     4422.415     3304.863     2603.201        0.696        0.517       58.695       40.214        0.469      333.636        3.081      863.517
01/01/2021  22:40:00       49.077       11.893       -1.683       58.803       51.236       33.801     3457.809     2625.172     1142.483        0.489        0.361       50.498       30.325        0.361      334.122        3.887      863.542
01/01/2021  22:41:00       16.205      100.766       -7.909       30.960       32.666       21.287      958.514     1067.071      453.134        0.648        0.124      102.060       17.772        0.030      333.821        3.388      863.616
01/01/2021  22:42:00      -99.531       46.685      -11.407       47.631       21.502       19.707     2268.673      462.355      388.357        0.767        0.156      109.936       21.348        0.038      333.489        2.836      863.655
01/01/2021  22:43:00     -131.102       60.539      -13.835       57.607       37.177       27.460     3318.620     1382.134      754.049        1.325        0.273      144.405       30.441        0.044      333.638        3.083      863.723
01/01/2021  22:44:00     -123.492       66.467       -7.241       57.555       44.226       22.962     3312.619     1955.970      527.233        1.276        0.290      140.243       25.882        0.034      334.024        3.725      863.740
01/01/2021  22:45:00       56.514      196.940      -21.077       62.074       42.998       23.768     3853.207     1848.860      564.901        2.434        0.313      204.889       18.635        0.008      335.163        5.612      863.756
01/01/2021  22:46:00      127.991       43.160      -22.201       62.417       57.860       28.057     3895.837     3347.741      787.177        1.338        0.402      135.073       20.880        0.024      334.514        4.536      863.691
01/01/2021  22:47:00      131.922       43.857        9.271       87.639       73.606       44.776     7680.537     5417.792     2004.890        1.725        0.755      139.021       39.150        0.079      334.589        4.659      863.599
01/01/2021  22:48:00       69.062      131.775       -6.138       68.041       50.553       29.187     4629.645     2555.624      851.880        1.510        0.402      148.775       25.321        0.029      334.847        5.089      863.608
01/01/2021  22:49:00      -22.265       84.590      -12.441       67.804       71.686       24.291     4597.394     5138.926      590.035        0.906        0.516       87.472       30.257        0.120      334.453        4.437      863.619
01/01/2021  22:50:00       86.358       67.404      -16.731       74.209       75.577       36.943     5506.995     5711.831     1364.800        1.243        0.629      109.549       26.582        0.059      334.702        4.848      863.609
01/01/2021  22:51:00      223.736      111.374       -8.465      105.025       93.266       48.320    11030.346     8698.498     2334.786        4.229        1.103      249.924       55.109        0.049      335.113        5.528      863.591
01/01/2021  22:52:00      185.895       78.753      -12.611       66.110       68.091       39.009     4370.512     4636.378     1521.710        2.572        0.526      201.889       21.313        0.011      334.708        4.856      863.677
01/01/2021  22:53:00       10.158       -3.162       12.533       52.529       16.941       21.703     2759.335      286.990      471.025        0.189        0.176       10.639       24.524        5.314      334.556        4.606      863.727
01/01/2021  22:54:00      121.702       50.153      -10.770       61.342       60.343       30.893     3762.871     3641.268      954.402        1.290        0.418      131.631       27.241        0.043      334.724        4.885      863.751
01/01/2021  22:55:00       58.479        9.142        0.131       65.568       68.764       46.084     4299.107     4728.522     2123.695        0.732        0.558       59.189       38.192        0.416      334.666        4.790      863.683
01/01/2021  22:56:00      121.314       14.372        2.866      117.324       75.997       65.505    13764.911     5775.532     4290.927        1.938        1.192      122.162       58.886        0.232      334.592        4.664      863.614
01/01/2021  22:57:00      162.523       26.610        3.853      129.214       80.572       60.996    16696.256     6491.843     3720.573        2.702        1.345      164.687       67.351        0.167      334.447        4.422      863.598
01/01/2021  22:58:00      126.568      146.264       -9.000       80.992       74.933       40.334     6559.721     5615.014     1626.871        2.564        0.690      193.423       36.499        0.036      335.020        5.376      863.654
01/01/2021  22:59:00      213.759       99.807      -20.904      102.568       97.191       46.949    10520.168     9446.114     2204.211        3.913        1.109      235.912       17.176        0.005      335.836        6.731      863.694
01/01/2021  23:00:00      144.665       32.496      -16.274       70.406       64.243       36.954     4957.048     4127.124     1365.576        1.635        0.522      148.269       24.933        0.028      335.793        6.662      863.707
01/01/2021  23:01:00       64.796       67.073       -6.936       55.583       32.663       23.931     3089.437     1066.877      572.711        0.674        0.236       93.259       20.534        0.048      335.422        6.044      863.719
01/01/2021  23:02:00       48.963       92.685       -2.542       46.511       35.855       27.293     2163.250     1285.595      744.921        0.759        0.210      104.823       29.484        0.079      335.536        6.235      863.705
01/01/2021  23:03:00       42.344      123.563      -13.529       52.867       56.654       35.103     2794.875     3209.721     1232.248        1.224        0.362      130.617       33.399        0.065      335.509        6.190      863.688
01/01/2021  23:04:00       -5.374       83.874      -13.358       39.940       37.060       20.357     1595.197     1373.461      414.400        0.531        0.169       84.046       19.357        0.053      335.318        5.872      863.658
01/01/2021  23:05:00       17.094       26.718       -3.573       37.080       18.476       17.335     1374.919      341.354      300.517        0.152        0.101       31.719       12.236        0.149      335.181        5.644      863.621
01/01/2021  23:06:00       84.911       78.732      -13.108       34.518       26.290       22.769     1191.513      691.169      518.418        0.799        0.120      115.796       22.659        0.038      335.221        5.711      863.588
01/01/2021  23:07:00       98.060       85.318      -10.538       30.068       25.328       16.024      904.105      641.492      256.774        0.940        0.090      129.981       11.008        0.007      335.376        5.968      863.555
01/01/2021  23:08:00      132.152       82.754       -7.920       28.694       20.306       16.877      823.361      412.337      284.823        1.295        0.076      155.924       15.991        0.011      335.372        5.961      863.509
01/01/2021  23:09:00      128.348       38.073      -12.091       51.292       48.998       26.331     2630.838     2400.788      693.313        1.190        0.286      133.876       17.385        0.017      335.401        6.010      863.481
01/01/2021  23:10:00       97.889       -5.793      -15.850       72.062       68.683       33.997     5192.937     4717.320     1155.763        1.046        0.553       98.060       37.380        0.145      335.762        6.612      863.476
01/01/2021  23:11:00      102.354      -46.359      -20.649       66.172       68.933       44.189     4378.709     4751.779     1952.711        1.207        0.554      112.363       47.011        0.175      335.860        6.773      863.464
01/01/2021  23:12:00      137.183      -57.583      -18.906       58.904       57.517       37.673     3469.645     3308.177     1419.264        1.534        0.410      148.778       33.961        0.052      335.746        6.584      863.467
01/01/2021  23:13:00       28.712       -4.408       -5.961       36.978       37.831       28.793     1367.369     1431.147      829.058        0.225        0.181       29.049       22.444        0.597      335.764        6.615      863.475
01/01/2021  23:14:00       25.703        6.201       11.079       30.206       31.585       18.020      912.425      997.631      324.737        0.153        0.112       26.440       15.851        0.359      335.764        6.616      863.516
01/01/2021  23:15:00      -44.925       49.489       -8.373       40.703       20.624       15.224     1656.725      425.369      231.771        0.343        0.116       66.839       10.582        0.025      335.426        6.052      863.566
01/01/2021  23:16:00      -53.804       56.899       -7.816       36.754       26.013       15.631     1350.865      676.691      244.330        0.423        0.114       78.309        3.370        0.002      335.072        5.462      863.613
01/01/2021  23:17:00       29.713      145.042      -16.043       40.448       37.843       18.958     1636.078     1432.058      359.421        1.280        0.171      148.055       19.678        0.018      335.707        6.519      863.622
01/01/2021  23:18:00       75.271      126.156      -19.396       31.778       39.046       20.391     1009.844     1524.624      415.803        1.245        0.148      146.905       19.113        0.017      335.776        6.635      863.608
01/01/2021  23:19:00       89.409       32.481      -10.662       53.610       56.154       26.261     2874.037     3153.280      689.654        0.794        0.336       95.126       23.648        0.062      335.429        6.057      863.577
01/01/2021  23:20:00        0.245       29.672        5.310       72.972       35.028       32.042     5324.975     1226.968     1026.683        0.424        0.379       29.673       28.663        0.933      335.291        5.827      863.580
01/01/2021  23:21:00     -108.813       39.154      -12.236       50.313       38.442       20.226     2531.357     1477.825      409.107        0.897        0.221      115.643       15.804        0.019      335.054        5.433      863.608
01/01/2021  23:22:00      -68.361      128.256      -11.140       35.696       22.909       24.687     1274.197      524.809      609.439        1.183        0.120      145.336       10.958        0.006      335.830        6.725      863.646
01/01/2021  23:23:00       34.826      122.135      -18.828       74.085       57.138       31.771     5488.514     3264.724     1009.382        1.312        0.488      127.003       26.595        0.044      335.823        6.713      863.691
01/01/2021  23:24:00      126.584      150.247      -20.961       65.168       66.736       31.720     4246.895     4453.739     1006.187        2.437        0.485      196.463       30.464        0.024      335.608        6.353      863.742
01/01/2021  23:25:00       19.680        6.036       -6.066       32.501       45.017       24.750     1056.286     2026.557      612.578        0.208        0.185       20.585       20.952        1.036      335.496        6.168      863.781
01/01/2021  23:26:00       54.132       56.852       -8.106       38.171       37.098       19.609     1457.007     1376.293      384.527        0.472        0.161       78.501       19.073        0.059      335.554        6.266      863.797
01/01/2021  23:27:00       45.391       19.016      -12.593       47.120       29.684       22.653     2220.256      881.115      513.172        0.310        0.181       49.214       25.622        0.271      335.418        6.037      863.832
01/01/2021  23:28:00      112.873       38.361      -16.887       66.649       42.867       31.684     4442.146     1837.605     1003.888        1.089        0.364      119.214       26.798        0.051      335.491        6.159      863.857
01/01/2021  23:29:00       86.727        7.757      -17.147       59.099       63.454       35.122     3492.737     4026.354     1233.564        0.831        0.438       87.073       23.534        0.073      335.466        6.118      863.818
01/01/2021  23:30:00       82.338      -45.217      -14.059       50.682       47.578       29.666     2568.685     2263.703      880.080        0.737        0.286       93.937       28.700        0.093      335.545        6.250      863.836
01/01/2021  23:31:00       62.770       35.327      -11.978       47.896       39.872       24.673     2294.060     1589.751      608.758        0.491        0.225       72.028       28.872        0.161      335.586        6.319      863.912
01/01/2021  23:32:00       98.169       29.066       -8.965       34.421       18.728       16.501     1184.777      350.738      272.287        0.618        0.090      102.382       11.701        0.013      335.530        6.224      863.932
01/01/2021  23:33:00       59.376       41.776      -12.270       40.314       38.855       28.158     1625.215     1509.709      792.875        0.467        0.196       72.600       20.317        0.078      335.659        6.439      863.884
01/01/2021  23:34:00       59.673       89.275      -10.101       58.640       96.810       35.545     3438.701     9372.209     1263.427        1.285        0.704      107.382       29.908        0.078      335.545        6.249      863.747
01/01/2021  23:35:00      -48.438       85.032      -18.767       85.637       51.551       25.529     7333.724     2657.496      651.719        1.028        0.532       97.860       26.302        0.072      335.714        6.533      863.731
01/01/2021  23:36:00      -44.953        5.858       -3.345       81.562       49.351       32.646     6652.421     2435.515     1065.791        0.611        0.508       45.333       27.358        0.364      335.687        6.487      863.776
01/01/2021  23:37:00      -47.852       69.597       -5.529       85.527       61.845       30.414     7314.895     3824.788      925.001        0.961        0.603       84.461       19.197        0.052      335.473        6.129      863.806
01/01/2021  23:38:00     -111.142       92.263       -9.480       48.579       50.013       25.028     2359.939     2501.328      626.406        1.322        0.274      144.447       21.458        0.022      335.545        6.249      863.820
01/01/2021  23:39:00      -67.962     -106.865      -16.161       65.224       98.600       43.906     4254.162     9721.891     1927.744        1.610        0.795      126.645       34.134        0.073      335.849        6.755      863.812
01/01/2021  23:40:00      -77.426      -33.654       -8.822       49.837       51.849       31.701     2483.724     2688.302     1004.925        0.669        0.309       84.423       28.809        0.116      335.934        6.897      863.766
01/01/2021  23:41:00      -23.214       25.391       -4.799       64.975       31.675       19.400     4221.783     1003.334      376.378        0.340        0.280       34.403        7.608        0.049      335.906        6.851      863.731
01/01/2021  23:42:00      -91.821       17.366       -6.449       49.516       36.001       20.599     2451.877     1296.037      424.299        0.647        0.209       93.448       10.331        0.012      335.842        6.746      863.736
01/01/2021  23:43:00     -111.526        2.252       -4.598       68.871       51.133       34.658     4743.210     2614.576     1201.177        1.051        0.428      111.548       26.749        0.058      335.591        6.326      863.750
01/01/2021  23:44:00      -87.291       -0.214        7.162       66.266       44.379       28.581     4391.129     1969.525      816.874        0.742        0.359       87.291       27.849        0.102      335.467        6.121      863.763
01/01/2021  23:45:00      -31.011       -2.672        2.942       47.276       28.916       22.764     2235.052      836.129      518.181        0.228        0.179       31.126       13.177        0.179      335.541        6.243      863.739
01/01/2021  23:46:00      -69.926        2.200      -10.281       29.436       22.993       16.822      866.483      528.697      282.969        0.334        0.084       69.961       12.695        0.033      335.682        6.478      863.736
01/01/2021  23:47:00      -35.771      -12.436       -1.600       45.312       27.372       23.793     2053.179      749.225      566.086        0.240        0.168       37.871       12.845        0.115      335.548        6.254      863.738
01/01/2021  23:48:00      -81.082      -18.631        4.072       40.040       28.239       22.337     1603.165      797.454      498.938        0.492        0.145       83.196        8.943        0.012      335.700        6.510      863.716
01/01/2021  23:49:00     -136.287      -88.063      -12.432       93.382       84.613       29.818     8720.270     7159.364      889.106        2.162        0.838      162.263       27.109        0.028      335.820        6.707      863.690
01/01/2021  23:50:00     -154.318      -31.296        2.431       96.950       46.402       38.182     9399.327     2153.146     1457.902        1.890        0.651      157.460       28.066        0.032      335.715        6.531      863.690
01/01/2021  23:51:00      -83.767      -26.832      -11.216       47.767       31.521       26.212     2281.715      993.543      687.047        0.591        0.198       87.959       11.135        0.016      335.715        6.533      863.673
01/01/2021  23:52:00      -42.486      -31.335        7.530       66.604       37.410       27.447     4436.146     1399.530      753.322        0.471        0.329       52.792       10.664        0.041      335.642        6.412      863.645
01/01/2021  23:53:00      126.753     -140.149      -42.325       74.067       61.793       32.475     5485.854     3818.324     1054.606        2.393        0.518      188.965       34.190        0.033      335.039        5.407      863.619
01/01/2021  23:54:00       94.384     -109.634      -25.028       48.763       46.357       29.025     2377.803     2148.928      842.425        1.346        0.268      144.665       34.519        0.057      334.947        5.257      863.606
01/01/2021  23:55:00       68.614     -117.897      -28.644       71.583       47.413       28.743     5124.135     2247.976      826.169        1.381        0.410      136.410       33.775        0.061      334.974        5.300      863.607
01/01/2021  23:56:00        2.156      -79.983      -24.443       63.927       60.059       32.389     4086.613     3607.094     1049.051        0.787        0.437       80.012       18.332        0.052      334.875        5.137      863.607
01/01/2021  23:57:00      -21.982      -68.494      -15.955       50.629       45.827       29.957     2563.332     2100.072      897.441        0.549        0.278       71.934       19.543        0.074      334.691        4.830      863.620
01/01/2021  23:58:00       -1.686      -82.133      -19.843       58.674       52.315       37.551     3442.678     2736.816     1410.058        0.736        0.379       82.150       33.249        0.164      334.593        4.668      863.582
01/01/2021  23:59:00       -8.917      -40.524      -20.782       68.122       39.854       27.562     4640.555     1588.342      759.654        0.457        0.349       41.493       29.520        0.506      334.468        4.460      863.573
01/02/2021  00:00:00      -23.921      -56.609      -11.190       40.427       36.943       28.179     1634.367     1364.815      794.042        0.385        0.190       61.456       19.269        0.098      334.457        4.443      863.564
01/02/2021  00:01:00       -2.443      -52.894      -11.649       52.144       33.787       28.353     2718.990     1141.556      803.897        0.380        0.233       52.950       15.548        0.086      334.442        4.419      863.535
01/02/2021  00:02:00      -19.261      -38.346      -19.331       45.250       20.615       22.836     2047.582      424.985      521.470        0.260        0.150       42.911       27.660        0.415      334.427        4.392      863.488
01/02/2021  00:03:00        2.026        5.713       -8.296       50.267       24.915       25.734     2526.821      620.769      662.234        0.196        0.190        6.062       27.271       20.240      334.413        4.370      863.439
01/02/2021  00:04:00      -19.167       11.218        1.040       51.107       17.530       27.097     2611.911      307.303      734.242        0.207        0.183       22.209       26.364        1.409      334.415        4.373      863.384
01/02/2021  00:05:00      -67.903       29.684      -10.869       31.326       19.844       19.774      981.316      393.787      391.002        0.369        0.088       74.108       14.029        0.036      334.288        4.162      863.368
01/02/2021  00:06:00      -48.601       14.845       -4.626       49.515       29.470       27.364     2451.778      868.459      748.802        0.334        0.203       50.818       18.981        0.140      334.301        4.182      863.355
01/02/2021  00:07:00      -67.817      -18.221      -10.789       44.112       33.709       28.723     1945.876     1136.324      824.996        0.448        0.195       70.222       11.989        0.029      334.354        4.274      863.327
01/02/2021  00:08:00      -19.495       -9.651        0.359       52.988       33.494       28.890     2807.736     1121.832      834.637        0.262        0.238       21.753       17.306        0.633      334.387        4.328      863.311
01/02/2021  00:09:00     -125.148      -23.188      -10.673       76.649       33.529       35.610     5875.086     1124.222     1268.050        1.229        0.413      127.278       34.396        0.073      334.543        4.584      863.320
01/02/2021  00:10:00      -39.773      -17.978       -3.260       53.005       27.877       23.578     2809.527      777.145      555.927        0.303        0.207       43.647       15.441        0.125      334.542        4.581      863.318
01/02/2021  00:11:00      -29.253      -20.988       -5.752       33.474       24.797       16.861     1120.522      614.874      284.295        0.167        0.101       36.003       20.728        0.331      334.574        4.636      863.279
01/02/2021  00:12:00      -78.900      -51.556       -3.666       45.660       33.771       26.561     2084.841     1140.492      705.472        0.641        0.197       94.251       19.854        0.044      334.781        4.982      863.252
01/02/2021  00:13:00      -15.933      -23.533       -4.911       43.253       25.107       22.509     1870.789      630.364      506.667        0.192        0.150       28.419       16.734        0.347      334.759        4.943      863.242
01/02/2021  00:14:00      -25.446      -13.015       -0.056       53.312       29.771       22.486     2842.207      886.331      505.635        0.252        0.212       28.582       11.888        0.173      334.746        4.921      863.256
01/02/2021  00:15:00      -60.656      -28.672        4.613       48.568       42.920       29.539     2358.830     1842.155      872.563        0.480        0.254       67.091       18.042        0.072      334.639        4.744      863.311
01/02/2021  00:16:00     -143.825     -165.748      -25.277       55.302       57.972       33.322     3058.267     3360.723     1110.366        2.816        0.376      219.449       20.196        0.008      334.697        4.838      863.355
01/02/2021  00:17:00      -52.255      -79.701      -28.673       69.504       38.281       25.756     4830.770     1465.439      663.374        0.843        0.348       95.304       20.956        0.048      334.719        4.877      863.393
01/02/2021  00:18:00      -54.310      -30.041       -6.327       28.998       33.420       28.986      840.889     1116.865      840.206        0.334        0.140       62.065       21.977        0.125      334.775        4.971      863.422
01/02/2021  00:19:00      -27.107       -8.104        2.785       47.217       33.096       25.816     2229.471     1095.367      666.483        0.240        0.200       28.293       15.607        0.304      334.634        4.735      863.454
01/02/2021  00:20:00      -45.460      -31.671       -4.806       56.974       34.542       29.075     3246.031     1193.180      845.370        0.419        0.264       55.404       18.623        0.113      334.523        4.550      863.480
01/02/2021  00:21:00      -64.982      -10.820       -6.197       50.725       38.350       28.093     2573.020     1470.739      789.211        0.460        0.242       65.877       14.486        0.048      334.502        4.518      863.498
01/02/2021  00:22:00      -50.001       -1.727       -0.344       60.892       31.561       27.985     3707.778      996.116      783.179        0.399        0.274       50.031       18.772        0.141      334.500        4.515      863.498
01/02/2021  00:23:00      -66.743      -36.954       -7.230       35.712       39.317       21.926     1275.336     1545.831      480.760        0.459        0.165       76.291       12.115        0.025      334.669        4.794      863.477
01/02/2021  00:24:00      -61.163      -54.313      -11.003       33.479       32.206       17.110     1120.861     1037.198      292.753        0.463        0.123       81.797        6.687        0.007      334.714        4.868      863.468
01/02/2021  00:25:00     -114.667      -55.565       -5.443       64.611       44.026       31.344     4174.574     1938.249      982.446        1.168        0.355      127.421       28.779        0.051      334.763        4.951      863.484
01/02/2021  00:26:00      -98.979      -45.444      -14.609       56.838       68.745       35.715     3230.609     4725.916     1275.578        1.065        0.462      108.913       29.261        0.072      334.684        4.819      863.504
01/02/2021  00:27:00      -83.022       -5.984      -13.392       83.037       44.209       30.999     6895.168     1954.414      960.924        0.846        0.491       83.238       18.206        0.048      334.560        4.611      863.467
01/02/2021  00:28:00      -47.051       -6.781        2.162       39.144       21.607       20.974     1532.246      466.864      439.918        0.235        0.122       47.537       19.368        0.166      334.513        4.534      863.417
01/02/2021  00:29:00      -32.508      -16.420       -5.900       51.154       25.904       23.113     2616.778      671.019      534.229        0.259        0.191       36.419       12.643        0.121      334.572        4.632      863.429
01/02/2021  00:30:00      -89.775       25.261       -2.185       39.318       30.876       19.697     1545.943      953.345      387.967        0.579        0.144       93.262       10.659        0.013      334.479        4.478      863.496
01/02/2021  00:31:00      -76.658        5.833       -3.788       45.850       21.668       19.993     2102.235      469.497      399.730        0.445        0.149       76.880       16.209        0.044      334.406        4.359      863.535
01/02/2021  00:32:00      -96.760        1.831       -1.056       45.560       19.766       17.497     2075.732      390.684      306.156        0.607        0.139       96.777       17.759        0.034      334.419        4.380      863.565
01/02/2021  00:33:00      -58.276       19.076        2.869       26.844       25.192       18.162      720.616      634.661      329.869        0.273        0.084       61.319       10.798        0.031      334.371        4.302      863.576
01/02/2021  00:34:00      -54.505       -0.474      -11.450       29.601       15.250       14.240      876.241      232.553      202.766        0.221        0.066       54.507       14.492        0.071      334.430        4.398      863.602
01/02/2021  00:35:00      -28.784       14.604       -5.945       20.001        7.222       10.222      400.026       52.160      104.492        0.082        0.028       32.276       11.456        0.126      334.439        4.414      863.646
01/02/2021  00:36:00      -17.211       13.066       -0.859       35.984       16.842       13.929     1294.834      283.660      194.005        0.112        0.089       21.609       12.259        0.322      334.456        4.442      863.709
01/02/2021  00:37:00        8.990        2.689       -1.871       21.798       10.877       11.185      475.165      118.310      125.111        0.040        0.036        9.384       13.003        1.920      334.556        4.606      863.772
01/02/2021  00:38:00       -7.080       34.417       -0.455       29.197       28.132       14.098      852.453      791.396      198.759        0.154        0.092       35.138       17.660        0.253      334.508        4.528      863.812
01/02/2021  00:39:00       35.173       40.901       -1.213       31.248       23.409       16.632      976.414      547.978      276.633        0.236        0.090       53.945       17.289        0.103      334.501        4.516      863.840
01/02/2021  00:40:00       61.736       49.146       -9.772       36.026       12.465       18.438     1297.887      155.382      339.978        0.406        0.090       78.909       23.405        0.088      334.471        4.465      863.867
01/02/2021  00:41:00       60.443       33.303       -7.009       33.234       16.563       15.982     1104.501      274.340      255.426        0.322        0.082       69.011       20.897        0.092      334.471        4.467      863.887
01/02/2021  00:42:00        9.738       35.179       -2.648       24.316       19.631       17.125      591.272      385.380      293.275        0.130        0.063       36.502       15.237        0.174      334.528        4.560      863.901
01/02/2021  00:43:00       10.864       29.214        1.281       34.106       16.305       17.322     1163.187      265.838      300.055        0.135        0.086       31.168       17.510        0.316      334.410        4.364      863.923
01/02/2021  00:44:00      -23.406       83.881       -6.063       30.192       26.522       17.055      911.571      703.441      290.881        0.476        0.095       87.085       14.427        0.027      334.778        4.978      863.944
01/02/2021  00:45:00      -18.403       41.165       -2.181       27.266       25.042       13.599      743.410      627.114      184.945        0.180        0.078       45.092        8.002        0.031      334.836        5.071      863.969
01/02/2021  00:46:00       30.802       20.416        4.693       33.513       13.759       14.267     1123.151      189.300      203.561        0.145        0.076       36.954       18.830        0.260      334.969        5.294      864.009
01/02/2021  00:47:00      -55.896       17.775      -10.344       27.545       20.805        8.055      758.741      432.859       64.879        0.240        0.063       58.654        7.213        0.015      334.773        4.967      864.084
01/02/2021  00:48:00      -82.179        1.690      -14.820       41.655       25.942       14.753     1735.136      672.984      217.655        0.480        0.131       82.197       17.047        0.043      334.415        4.373      864.134
01/02/2021  00:49:00      -32.321      -11.600       -7.504       37.848       12.869       16.474     1432.497      165.604      271.400        0.155        0.093       34.340       19.966        0.338      334.475        4.474      864.169
01/02/2021  00:50:00      -38.051      -14.460       -5.665       37.856        7.837       16.100     1433.102       61.419      259.197        0.172        0.088       40.706       19.345        0.226      334.793        5.001      864.177
01/02/2021  00:51:00      -20.614        1.382       -2.369       21.558       18.009       11.452      464.731      324.330      131.143        0.068        0.046       20.660        8.769        0.180      334.868        5.126      864.192
01/02/2021  00:52:00        3.634       29.506       -4.464       23.571        9.229       10.082      555.594       85.176      101.656        0.082        0.037       29.729       13.810        0.216      334.792        4.999      864.213
01/02/2021  00:53:00       -2.864       44.697       -6.436       26.981       29.526       18.317      727.961      871.773      335.524        0.199        0.097       44.788       17.830        0.158      335.051        5.430      864.234
01/02/2021  00:54:00      -36.106       11.579       -9.391       45.489       43.859       21.425     2069.285     1923.642      459.033        0.299        0.223       37.917       15.156        0.160      334.927        5.223      864.271
01/02/2021  00:55:00      -27.682       15.860       -3.673       23.839       12.857       10.879      568.312      165.308      118.362        0.094        0.043       31.903        9.605        0.091      334.722        4.884      864.314
01/02/2021  00:56:00      -36.260       29.535       -0.535       35.449       20.304       15.767     1256.640      412.261      248.608        0.205        0.096       46.766       13.735        0.086      334.575        4.636      864.372
01/02/2021  00:57:00       -6.352       31.423       -1.694       38.500       16.247       20.365     1482.228      263.970      414.713        0.160        0.108       32.058       17.300        0.291      334.903        5.183      864.427
01/02/2021  00:58:00        5.742       53.435       -0.330       23.654       25.809       13.348      559.513      666.106      178.156        0.215        0.070       53.743       11.578        0.046      335.158        5.604      864.476
01/02/2021  00:59:00       48.190       32.815       -3.291       27.864       13.370       14.619      776.405      178.766      213.706        0.229        0.058       58.302       14.319        0.060      335.241        5.744      864.494
01/02/2021  01:00:00       -2.169       17.852       -0.587       35.545       18.483       16.818     1263.427      341.608      282.862        0.111        0.094       17.984       16.518        0.844      335.227        5.723      864.503
01/02/2021  01:01:00        2.244       37.914      -14.396       42.626       32.452       21.004     1817.006     1053.113      441.165        0.248        0.166       37.981        9.243        0.059      335.316        5.869      864.509
01/02/2021  01:02:00       25.847       54.144      -16.844       31.189       37.887       23.403      972.776     1435.445      547.711        0.342        0.148       59.997       12.160        0.041      335.394        5.998      864.510
01/02/2021  01:03:00      -11.991       86.001      -10.956       56.551       53.140       27.669     3198.063     2823.884      765.558        0.722        0.339       86.833       34.642        0.159      335.354        5.932      864.493
01/02/2021  01:04:00        3.184      159.734      -10.146       46.567       54.309       28.612     2168.449     2949.516      818.637        1.578        0.297      159.766       24.065        0.023      335.453        6.095      864.485
01/02/2021  01:05:00       14.535       91.810       -4.347       34.877       29.695       22.837     1216.398      881.789      521.528        0.564        0.131       92.954       20.479        0.049      335.584        6.314      864.475
01/02/2021  01:06:00        1.690       57.451        3.264       31.664       27.802       16.461     1002.602      772.967      270.962        0.268        0.102       57.476       14.000        0.059      335.431        6.058      864.502
01/02/2021  01:07:00        3.424       44.546       -7.602       46.124       21.949       20.889     2127.400      481.757      436.347        0.255        0.152       44.677       20.249        0.205      335.401        6.009      864.519
01/02/2021  01:08:00      -14.297       59.307        2.458       44.189       31.288       22.906     1952.651      978.945      524.662        0.359        0.173       61.006       11.486        0.035      335.346        5.918      864.536
01/02/2021  01:09:00      -29.222       74.162       -5.174       30.172       25.836       17.644      910.353      667.493      311.314        0.413        0.094       79.712       15.468        0.038      335.363        5.947      864.546
01/02/2021  01:10:00      -95.451       -0.414      -14.800       94.631       75.588       31.466     8955.079     5713.492      990.130        1.249        0.783       95.452       23.559        0.061      335.445        6.083      864.574
01/02/2021  01:11:00      -15.636      -46.931       -5.291       85.645       83.369       45.732     7335.077     6950.405     2091.382        0.942        0.819       49.467       38.903        0.618      335.576        6.301      864.578
01/02/2021  01:12:00      -65.444        9.156        1.460       79.022       48.270       34.386     6244.402     2330.036     1182.391        0.706        0.488       66.081       41.444        0.393      335.492        6.160      864.598
01/02/2021  01:13:00     -151.492       39.831      -16.313       51.800       51.486       28.744     2683.280     2650.851      826.237        1.548        0.308      156.641       26.003        0.028      335.323        5.878      864.608
01/02/2021  01:14:00     -133.226       30.637      -28.336       46.062       32.421       22.266     2121.672     1051.119      495.790        1.158        0.183      136.703       12.410        0.008      335.200        5.677      864.660
01/02/2021  01:15:00      -38.960       -5.817       -8.482       54.108       44.720       30.827     2927.729     1999.880      950.292        0.375        0.294       39.392       15.122        0.147      335.206        5.686      864.703
01/02/2021  01:16:00      -62.835      -11.748      -11.695       56.913       36.845       30.438     3239.143     1357.578      926.475        0.487        0.276       63.924       20.660        0.104      335.203        5.682      864.731
01/02/2021  01:17:00      -39.889      -13.276      -12.055       47.285       29.760       23.020     2235.831      885.643      529.918        0.278        0.183       42.040       17.293        0.169      335.159        5.609      864.750
01/02/2021  01:18:00      -31.966      143.114      -17.829       48.582       97.376       36.642     2360.186     9482.027     1342.670        1.750        0.659      146.640       34.989        0.057      335.209        5.690      864.752
01/02/2021  01:19:00      -30.826      154.757       -9.375       41.990       37.513       28.050     1763.175     1407.219      786.805        1.447        0.198      157.797       14.016        0.008      335.326        5.884      864.765
01/02/2021  01:20:00      -32.929      191.690      -11.771       53.160       67.933       35.791     2826.011     4614.839     1281.030        2.334        0.436      194.497       28.667        0.022      335.418        6.036      864.761
01/02/2021  01:21:00      -85.618      180.745      -18.481       67.040       56.336       34.845     4494.344     3173.775     1214.155        2.461        0.444      199.998       26.498        0.018      335.451        6.091      864.734
01/02/2021  01:22:00      -80.107      247.807      -10.750       59.723       93.088       37.667     3566.862     8665.420     1418.813        4.079        0.683      260.433       38.745        0.022      335.478        6.136      864.715
01/02/2021  01:23:00      -45.506       97.268      -19.499       69.773       89.411       42.584     4868.305     7994.343     1813.383        1.329        0.734      107.386       36.350        0.115      335.522        6.211      864.714
01/02/2021  01:24:00       29.639      113.506       -6.855       50.838       59.784       24.080     2584.527     3574.073      579.862        1.027        0.337      117.312       20.763        0.031      335.525        6.216      864.714
01/02/2021  01:25:00       61.694      146.561       -6.720       47.924       63.670       31.654     2296.668     4053.888     1001.946        1.634        0.368      159.017       34.497        0.047      335.575        6.301      864.692
01/02/2021  01:26:00       93.498       66.593       -8.750       48.314       34.341       26.444     2334.247     1179.332      699.292        0.873        0.211      114.789       27.082        0.056      335.462        6.112      864.685
01/02/2021  01:27:00      107.835       61.943      -19.754       44.156       30.859       23.213     1949.724      952.301      538.854        0.965        0.172      124.360       26.622        0.046      335.391        5.992      864.679
01/02/2021  01:28:00       54.324       12.265      -11.953       50.758       39.830       26.321     2576.369     1586.449      692.786        0.405        0.243       55.692       30.483        0.300      335.317        5.869      864.686
01/02/2021  01:29:00       39.334       -3.367       -9.536       52.479       53.336       31.245     2754.062     2844.724      976.248        0.411        0.329       39.478       25.942        0.432      335.134        5.565      864.685
01/02/2021  01:30:00       64.975       54.163      -11.038       49.102       49.032       31.029     2411.001     2404.135      962.789        0.653        0.289       84.589       25.153        0.088      334.877        5.140      864.688
01/02/2021  01:31:00       77.545       32.236       -8.061       51.849       48.033       27.465     2688.333     2307.165      754.341        0.643        0.287       83.979       30.340        0.131      334.757        4.939      864.705
01/02/2021  01:32:00      122.931       18.710      -21.064       40.089       15.172       22.007     1607.126      230.196      484.312        0.911        0.116      124.347       25.571        0.042      334.930        5.228      864.723
01/02/2021  01:33:00      134.965       45.491      -15.724       46.456       17.431       24.007     2158.127      303.826      576.328        1.178        0.152      142.425       30.699        0.046      334.904        5.184      864.710
01/02/2021  01:34:00      152.822       59.003      -13.853       51.926       23.317       27.185     2696.261      543.661      739.032        1.550        0.199      163.817       32.041        0.038      334.729        4.893      864.651
01/02/2021  01:35:00      144.166       32.560      -12.333       55.313       28.058       29.460     3059.532      787.228      867.897        1.335        0.236      147.797       33.542        0.052      334.674        4.802      864.610
01/02/2021  01:36:00      129.090       44.591      -15.728       57.009       30.826       30.427     3250.007      950.230      925.813        1.201        0.256      136.574       35.140        0.066      334.689        4.826      864.627
01/02/2021  01:37:00      151.815       41.595      -14.253       46.800       25.745       29.444     2190.256      662.807      866.960        1.435        0.186      157.410       29.963        0.036      334.660        4.778      864.642
01/02/2021  01:38:00      156.598       35.154      -14.523       79.065       32.804       36.470     6251.318     1076.082     1330.031        1.731        0.433      160.495       41.882        0.068      334.753        4.932      864.644
01/02/2021  01:39:00       68.532       10.661      -22.141       49.290       67.487       30.366     2429.499     4554.444      922.065        0.660        0.395       69.357       26.161        0.142      334.804        5.018      864.658
01/02/2021  01:40:00       78.030      -75.925      -27.134       54.274       33.931       29.027     2945.664     1151.287      842.539        0.876        0.247      108.873       35.212        0.105      334.867        5.124      864.694
01/02/2021  01:41:00       72.465     -105.091      -25.763       58.252       28.360       28.131     3393.335      804.309      791.328        1.097        0.249      127.653       34.749        0.074      334.697        4.839      864.728
01/02/2021  01:42:00       -2.008      -30.306      -16.340       53.990       25.406       34.345     2914.909      645.466     1179.571        0.296        0.237       30.372       27.543        0.822      334.712        4.867      864.748
01/02/2021  01:43:00       11.264      -21.068        0.352       39.945       25.509       28.304     1595.577      650.702      801.121        0.181        0.152       23.890       28.620        1.435      334.676        4.807      864.778
01/02/2021  01:44:00      -21.791      -25.353      -16.709       48.520       19.595       19.984     2354.167      383.955      399.380        0.227        0.157       33.431       19.340        0.335      334.726        4.889      864.798
01/02/2021  01:45:00      -15.467       -0.654      -10.512       50.244       18.306       23.316     2524.494      335.101      543.619        0.188        0.170       15.481       24.786        2.564      334.743        4.917      864.813
01/02/2021  01:46:00       -9.721        3.855       -7.857       40.436       32.516       24.316     1635.080     1057.268      591.283        0.173        0.164       10.458       15.858        2.300      334.778        4.975      864.832
01/02/2021  01:47:00       -7.389      -27.562      -14.084       46.126       25.447       21.957     2127.596      647.542      482.091        0.213        0.163       28.535       22.626        0.629      334.753        4.933      864.844
01/02/2021  01:48:00      -10.223        2.880      -10.303       48.509       29.209       27.164     2353.166      853.175      737.871        0.208        0.197       10.621       27.374        6.642      334.707        4.856      864.852
01/02/2021  01:49:00       21.746      -29.655      -11.927       43.728       21.535       23.098     1912.173      463.774      533.519        0.220        0.145       36.774       27.475        0.558      334.789        4.995      864.846
01/02/2021  01:50:00        9.031       -7.717       -3.527       37.936       18.238       20.248     1439.122      332.623      409.992        0.117        0.109       11.879       21.327        3.223      334.740        4.913      864.842
01/02/2021  01:51:00       -2.041       -2.178       -6.904       37.265       26.882       20.489     1388.646      722.631      419.816        0.129        0.127        2.985       23.255       60.681      334.781        4.980      864.835
01/02/2021  01:52:00        9.071      -11.548        5.314       40.444       25.021       25.512     1635.709      626.035      650.873        0.158        0.146       14.685       18.525        1.591      334.749        4.927      864.860
01/02/2021  01:53:00      -51.155      -29.398       -2.360       57.033       44.279       27.074     3252.815     1960.616      733.025        0.472        0.297       59.000       18.935        0.103      334.735        4.904      864.910
01/02/2021  01:54:00     -130.227      -12.346       -8.676       61.236       43.010       25.506     3749.898     1849.845      650.577        1.172        0.313      130.811       11.676        0.008      334.689        4.827      864.936
01/02/2021  01:55:00     -121.880      -33.321      -23.479       44.720       28.487       24.497     1999.914      811.533      600.104        0.996        0.171      126.353       25.912        0.042      334.737        4.907      864.944
01/02/2021  01:56:00      -63.550       -9.964      -13.535       45.653       31.240       23.056     2084.153      975.936      531.564        0.396        0.180       64.326       16.559        0.066      334.820        5.047      864.947
01/02/2021  01:57:00      -70.429      -18.839       -0.317       51.839       39.031       22.494     2687.249     1523.458      505.990        0.501        0.236       72.905       15.966        0.048      334.902        5.182      864.967
01/02/2021  01:58:00      -57.668       -6.414       -2.470       43.749       29.906       22.138     1913.987      894.353      490.103        0.333        0.165       58.023       16.355        0.079      334.770        4.962      864.994
01/02/2021  01:59:00      -97.487       12.431       -3.028       38.376       22.655       22.641     1472.687      513.250      512.609        0.608        0.125       98.276        9.959        0.010      334.786        4.988      865.019
01/02/2021  02:00:00      -80.975       -9.695       -2.041       48.915       29.592       25.245     2392.682      875.689      637.294        0.528        0.195       81.554        9.356        0.013      334.886        5.155      865.047
01/02/2021  02:01:00      -39.594      -20.538       -6.792       44.495       17.095       25.479     1979.818      292.245      649.200        0.248        0.146       44.603       13.421        0.091      334.948        5.258      865.039
01/02/2021  02:02:00     -121.165       -7.648      -10.606       40.729       22.355       19.731     1658.869      499.759      389.303        0.870        0.127      121.407       11.710        0.009      334.938        5.241      865.028
01/02/2021  02:03:00     -140.544      -65.975      -24.293       51.669       67.118       27.899     2669.696     4504.808      778.348        1.632        0.398      155.258       18.298        0.014      335.415        6.032      865.010
01/02/2021  02:04:00     -211.954      -13.503       -8.394      115.915       89.606       54.364    13436.311     8029.159     2955.394        3.479        1.221      212.383       50.486        0.057      335.761        6.608      865.000
01/02/2021  02:05:00      -83.832        8.976       -7.678       74.383       66.963       44.214     5532.895     4484.002     1954.910        0.957        0.599       84.312       32.309        0.147      335.669        6.455      865.008
01/02/2021  02:06:00     -158.244       44.512        2.584      126.660       88.067       51.515    16042.869     7755.842     2653.813        2.674        1.323      164.385       44.040        0.072      335.521        6.209      865.033
01/02/2021  02:07:00     -143.466       71.528      -25.801       61.337       51.970       45.686     3762.197     2700.876     2087.254        1.746        0.428      160.308       22.665        0.020      335.235        5.733      865.051
01/02/2021  02:08:00     -172.126       13.914      -16.269      119.088       64.746       37.100    14181.852     4191.997     1376.443        2.491        0.988      172.687       30.606        0.031      335.207        5.687      865.081
01/02/2021  02:09:00     -139.056      -12.119       -4.130      104.617       60.735       39.102    10944.650     3688.743     1528.988        1.783        0.808      139.583       41.338        0.088      335.281        5.809      865.101
01/02/2021  02:10:00     -165.819      -73.171      -17.073      128.484      137.666       59.364    16508.107    18951.894     3524.063        3.605        1.949      181.245       65.883        0.132      335.779        6.637      865.084
01/02/2021  02:11:00      -55.045       27.926       -0.624       70.951       47.634       32.518     5034.102     2269.030     1057.404        0.608        0.418       61.724       18.990        0.095      335.675        6.467      865.125
01/02/2021  02:12:00       33.549      -96.299      -24.487       57.885       48.580       22.812     3350.633     2360.029      520.370        0.861        0.312      101.975       26.390        0.067      335.072        5.464      865.158
01/02/2021  02:13:00      124.852      -76.218      -53.380       52.118       63.483       38.894     2716.313     4030.046     1512.748        1.625        0.413      146.278       29.126        0.040      334.656        4.769      865.136
01/02/2021  02:14:00       86.116     -109.039      -21.466       54.364       67.672       38.804     2955.420     4579.448     1505.784        1.440        0.452      138.944       36.137        0.068      334.704        4.852      865.147
01/02/2021  02:15:00       87.935     -103.380      -16.197       52.000       45.111       31.082     2704.047     2035.029      966.071        1.219        0.285      135.720       26.731        0.039      334.826        5.055      865.155
01/02/2021  02:16:00       -9.693      -50.945      -12.005       54.119       68.173       33.021     2928.825     4647.588     1090.363        0.575        0.433       51.859       32.890        0.402      334.742        4.915      865.170
01/02/2021  02:17:00      -12.417       36.463       -8.712       37.323       18.962       20.078     1393.033      359.575      403.116        0.186        0.108       38.519       17.292        0.202      334.768        4.957      865.206
01/02/2021  02:18:00        9.349       21.616       -4.168       30.285       27.694       17.872      917.180      766.981      319.397        0.129        0.100       23.551       15.324        0.423      334.711        4.864      865.211
01/02/2021  02:19:00       66.412      -35.732       -4.408       50.474       45.017       30.587     2547.672     2026.550      935.551        0.561        0.275       75.414       30.325        0.162      334.791        4.998      865.154
01/02/2021  02:20:00       67.455       -2.199      -14.167       48.929       41.652       26.458     2394.043     1734.850      700.031        0.479        0.241       67.491       25.079        0.138      334.611        4.697      865.084
01/02/2021  02:21:00       20.034      -73.334      -20.148       70.283       51.065       29.322     4939.684     2607.648      859.808        0.729        0.420       76.021       34.933        0.211      334.611        4.697      865.110
01/02/2021  02:22:00       80.592     -121.528      -30.550      103.894       86.803       32.231    10794.062     7534.704     1038.824        2.078        0.968      145.823       45.916        0.099      334.539        4.575      865.120
01/02/2021  02:23:00       80.599      -71.035      -27.475       55.750       55.915       33.761     3108.051     3126.468     1139.801        0.983        0.369      107.434       29.904        0.077      334.431        4.400      865.076
01/02/2021  02:24:00       77.592      -98.201      -18.218       47.381       53.267       30.090     2244.953     2837.367      905.420        1.099        0.299      125.156       27.305        0.048      334.525        4.555      865.017
01/02/2021  02:25:00       32.504      -87.400      -23.822       48.221       29.513       21.301     2325.222      871.007      453.733        0.646        0.182       93.248       26.362        0.080      334.572        4.633      864.989
01/02/2021  02:26:00       61.709     -111.783      -23.594       59.102       27.156       29.869     3493.080      737.449      892.187        1.099        0.256      127.685       35.457        0.077      334.711        4.864      864.970
01/02/2021  02:27:00       75.469      -61.541      -14.681       53.819       46.182       26.101     2896.468     2132.805      681.255        0.770        0.286       97.380       30.474        0.098      334.684        4.818      864.919
01/02/2021  02:28:00      113.742     -117.192      -30.180       50.372       40.856       28.584     2537.332     1669.247      817.022        1.630        0.251      163.313       33.013        0.041      334.796        5.005      864.889
01/02/2021  02:29:00       92.505     -100.067      -31.690       59.575       53.992       34.885     3549.145     2915.188     1216.984        1.363        0.384      136.274       37.117        0.074      334.692        4.830      864.878
01/02/2021  02:30:00      105.808     -122.980      -31.100       38.931       20.566       19.490     1515.640      422.967      379.867        1.480        0.116      162.233       24.982        0.024      334.695        4.838      864.885
01/02/2021  02:31:00      127.159      -92.991      -33.809       55.264       47.384       28.802     3054.080     2245.215      829.543        1.604        0.306      157.533       34.147        0.047      334.698        4.842      864.894
01/02/2021  02:32:00       62.651      -33.044      -27.929       62.600       45.254       32.808     3918.715     2047.939     1076.346        0.642        0.352       70.831       37.814        0.285      334.636        4.738      864.869
01/02/2021  02:33:00      -34.866       27.521      -13.144       55.697       25.428       21.909     3102.180      646.583      479.984        0.319        0.211       44.419        7.313        0.027      334.477        4.475      864.851
01/02/2021  02:34:00      -53.754       19.692       -7.513       44.323       34.210       21.768     1964.485     1170.336      473.864        0.347        0.180       57.247       14.785        0.067      334.215        4.040      864.876
01/02/2021  02:35:00        0.183       13.765        0.012       45.698       41.016       24.341     2088.353     1682.301      592.503        0.228        0.218       13.766       10.119        0.540      334.257        4.109      864.870
01/02/2021  02:36:00        6.471       44.003       -2.436       28.328       16.761       17.052      802.488      280.919      290.786        0.168        0.069       44.476       18.788        0.178      334.616        4.707      864.834
01/02/2021  02:37:00      -50.640       40.372       -6.252       41.300       23.019       13.050     1705.712      529.877      170.308        0.332        0.120       64.764        9.172        0.020      334.308        4.194      864.842
01/02/2021  02:38:00       -0.843       23.078        1.702       24.471       37.317       16.045      598.850     1392.564      257.456        0.139        0.112       23.093       11.675        0.256      334.293        4.171      864.852
01/02/2021  02:39:00       17.028       63.689       -9.013       45.149       44.710       18.883     2038.450     1998.949      356.580        0.441        0.220       65.926       19.529        0.088      334.250        4.098      864.871
01/02/2021  02:40:00       54.338       87.655       -6.080       44.844       40.732       24.460     2011.008     1659.135      598.281        0.747        0.213      103.131       26.191        0.064      334.171        3.967      864.840
01/02/2021  02:41:00       80.839      128.719      -18.460       42.638       52.374       28.553     1818.012     2743.047      815.285        1.441        0.269      151.998       25.658        0.028      334.339        4.246      864.807
01/02/2021  02:42:00       73.188       21.273      -11.145       66.796       51.544       38.061     4461.655     2656.804     1448.626        0.725        0.428       76.217       37.394        0.241      334.119        3.881      864.776
01/02/2021  02:43:00      -35.157       46.213        3.320       35.825       33.010       21.076     1283.422     1089.672      444.193        0.310        0.141       58.066       15.168        0.068      334.005        3.693      864.825
01/02/2021  02:44:00       -0.322       21.099      -12.143       27.725       28.418       18.885      768.666      807.582      356.643        0.126        0.097       21.102       16.614        0.620      333.997        3.679      864.869
01/02/2021  02:45:00      114.136       14.039      -13.450       65.757       52.769       31.966     4324.021     2784.569     1021.820        1.077        0.407      114.997       31.670        0.076      334.186        3.993      864.866
01/02/2021  02:46:00       91.544       -0.289      -11.121       64.373       41.904       30.468     4143.825     1755.943      928.299        0.766        0.341       91.544       29.944        0.107      334.291        4.166      864.861
01/02/2021  02:47:00       47.149       31.546      -13.576       47.911       23.168       22.072     2295.478      536.759      487.181        0.336        0.166       56.729       19.539        0.119      334.193        4.003      864.871
01/02/2021  02:48:00      110.976       38.186       -8.207       43.303       26.066       22.262     1875.123      679.459      495.575        0.845        0.153      117.362       27.103        0.053      334.368        4.294      864.895
01/02/2021  02:49:00       86.379       38.652       -8.249       41.039       23.760       22.296     1684.230      564.544      497.118        0.588        0.137       94.632       22.903        0.059      334.349        4.264      864.909
01/02/2021  02:50:00       51.995       -3.510      -15.754       40.150       38.948       19.600     1612.061     1516.937      384.149        0.324        0.176       52.113       18.873        0.131      334.275        4.142      864.916
01/02/2021  02:51:00      -40.363       17.205       -5.321       24.220       12.640       14.030      586.596      159.772      196.855        0.145        0.047       43.877       14.406        0.108      334.260        4.116      864.972
01/02/2021  02:52:00       35.988       -6.307       -5.905       36.082       19.306       16.354     1301.920      372.719      267.461        0.166        0.097       36.536       15.654        0.184      334.305        4.189      864.984
01/02/2021  02:53:00      103.084      -33.965      -31.349       75.286       57.216       41.914     5667.983     3273.677     1756.785        1.173        0.535      108.535       42.948        0.157      334.268        4.128      864.942
01/02/2021  02:54:00      142.208      -80.572      -45.292       71.752       75.641       37.707     5148.299     5721.624     1421.810        2.053        0.615      163.447       39.766        0.059      334.303        4.186      864.898
01/02/2021  02:55:00       92.562     -192.722      -23.398       68.055       80.227       46.875     4631.458     6436.430     2197.266        2.976        0.663      213.798       53.512        0.063      334.071        3.797      864.911
01/02/2021  02:56:00      180.401     -256.406      -61.254       55.549       54.515       27.623     3085.673     2971.930      763.055        5.443        0.341      313.511       30.017        0.009      333.991        3.664      864.897
01/02/2021  02:57:00      182.883     -135.796      -41.728       69.524       60.678       43.650     4833.554     3681.846     1905.333        3.202        0.521      227.786       43.139        0.036      333.960        3.614      864.865
01/02/2021  02:58:00       87.452      -82.489      -25.185       49.127       53.496       27.016     2413.446     2861.808      729.842        1.054        0.300      120.218       26.166        0.047      334.148        3.931      864.848
01/02/2021  02:59:00       35.005      -16.267      -11.568       49.134       41.562       30.838     2414.113     1727.402      950.965        0.336        0.255       38.600       15.189        0.155      334.132        3.902      864.810
01/02/2021  03:00:00       71.055     -110.804      -28.775       73.010       43.216       24.809     5330.416     1867.637      615.494        1.298        0.391      131.629       22.417        0.029      334.120        3.882      864.780
01/02/2021  03:01:00      122.793     -184.706      -32.523       53.701       78.226       37.099     2883.757     6119.232     1376.314        3.031        0.519      221.798       37.211        0.028      334.084        3.819      864.763
01/02/2021  03:02:00      102.783     -155.032      -34.988       66.698       94.315       27.621     4448.560     8895.341      762.943        2.496        0.705      186.008       37.527        0.041      334.011        3.700      864.737
01/02/2021  03:03:00       11.992      -41.049      -20.437       72.200       53.549       25.222     5212.882     2867.499      636.171        0.548        0.436       42.765       20.257        0.224      333.856        3.445      864.688
01/02/2021  03:04:00       -1.547      -11.887      -10.584       31.337       22.311       16.455      982.000      497.770      270.775        0.100        0.088       11.988       12.343        1.060      333.766        3.296      864.705
01/02/2021  03:05:00      -38.270       -6.392       -4.789       59.644       39.027       22.494     3557.350     1523.071      505.976        0.356        0.279       38.800       22.212        0.328      333.760        3.287      864.753
01/02/2021  03:06:00     -107.834      -57.231       -2.341       72.366       53.278       28.533     5236.831     2838.537      814.160        1.190        0.444      122.080       23.518        0.037      333.798        3.349      864.779
01/02/2021  03:07:00      -21.946      -11.094       -9.166       34.472       32.926       17.450     1188.348     1084.103      304.492        0.163        0.129       24.591       16.884        0.471      333.823        3.390      864.737
01/02/2021  03:08:00      -10.366       61.462       -3.335       34.957       16.889       15.757     1222.024      285.242      248.293        0.283        0.088       62.330       13.528        0.047      333.751        3.272      864.642
01/02/2021  03:09:00       12.419       30.500        0.108       30.582       20.810       18.351      935.262      433.051      336.769        0.139        0.085       32.931       20.682        0.394      333.679        3.152      864.664
01/02/2021  03:10:00       50.766      -10.540      -22.374       63.353       68.224       37.329     4013.649     4654.580     1393.482        0.662        0.503       51.848       41.274        0.634      333.732        3.240      864.671
01/02/2021  03:11:00       76.218       28.645      -30.005       72.133       85.669       49.142     5203.106     7339.134     2414.982        1.124        0.748       81.423       28.638        0.124      333.801        3.354      864.626
01/02/2021  03:12:00      108.568      -42.266      -42.794       81.707       79.316       49.325     6675.958     6291.028     2432.946        1.540        0.770      116.505       47.185        0.164      333.758        3.283      864.600
01/02/2021  03:13:00      118.755      -23.557       -0.027       88.867       86.434       54.985     7897.422     7470.760     3023.336        1.652        0.920      121.069       55.336        0.209      333.634        3.077      864.632
01/02/2021  03:14:00      109.405        4.422       -0.239       91.792       57.395       41.936     8425.739     3294.198     1758.632        1.273        0.674      109.495       43.176        0.155      333.560        2.954      864.648
01/02/2021  03:15:00      156.917       13.894       -8.976       85.466       57.572       40.901     7304.446     3314.499     1672.884        1.859        0.615      157.531       44.622        0.080      333.494        2.844      864.655
01/02/2021  03:16:00      198.019       34.236      -13.674       57.171       46.293       30.987     3268.486     2143.061      960.172        2.347        0.319      200.956       30.520        0.023      333.422        2.725      864.640
01/02/2021  03:17:00      147.173       89.467      -10.592       41.269       37.123       27.061     1703.104     1378.126      732.312        1.679        0.191      172.233       24.443        0.020      333.329        2.572      864.586
01/02/2021  03:18:00       73.444       69.634       -8.430       49.008       35.759       24.910     2401.781     1278.689      620.484        0.731        0.215      101.207       22.731        0.050      333.569        2.969      864.595
01/02/2021  03:19:00       71.191      100.025       -9.452       41.457       30.522       18.403     1718.680      931.611      338.675        0.908        0.149      122.772       18.787        0.023      333.336        2.585      864.634
01/02/2021  03:20:00      115.018       77.909      -18.316       42.092       23.535       19.907     1771.761      553.875      396.288        1.118        0.136      138.921       18.995        0.019      333.314        2.548      864.609
01/02/2021  03:21:00      130.510      102.145      -18.074       36.324       21.227       22.905     1319.467      450.602      524.642        1.504        0.115      165.730       11.416        0.005      333.394        2.680      864.618
01/02/2021  03:22:00       38.107       66.646       -2.686       35.007       20.372       21.065     1225.518      415.025      443.724        0.399        0.104       76.771       19.525        0.065      333.393        2.679      864.625
01/02/2021  03:23:00        8.380       36.846       -0.549       29.204       18.368       10.620      852.886      337.374      112.776        0.137        0.065       37.787        6.172        0.027      333.448        2.769      864.630
01/02/2021  03:24:00      -58.691       13.070       -6.383       34.697       21.986       16.952     1203.880      483.401      287.387        0.282        0.099       60.129       10.780        0.032      333.136        2.253      864.654
01/02/2021  03:25:00      -34.797       33.159       -3.422       43.669       24.478       18.246     1907.005      599.148      332.931        0.258        0.142       48.067       16.285        0.115      333.172        2.312      864.675
01/02/2021  03:26:00      136.172       34.233      -10.882       79.709       24.792       19.219     6353.558      614.639      369.382        1.358        0.367      140.409       25.944        0.034      333.634        3.077      864.641
01/02/2021  03:27:00      127.782       -5.342      -16.140       94.604       79.707       44.974     8949.875     6353.159     2022.673        1.697        0.866      127.894       42.140        0.109      333.549        2.936      864.568
01/02/2021  03:28:00       26.742      -16.021       -6.372       58.761       56.209       35.918     3452.902     3159.456     1290.088        0.446        0.395       31.174       30.714        0.971      333.634        3.078      864.573
01/02/2021  03:29:00      -87.502        9.343       -8.936       31.832       35.696       21.580     1013.283     1274.221      465.697        0.529        0.138       88.000       13.447        0.023      333.502        2.859      864.607
01/02/2021  03:30:00      -24.057        8.243       -2.768       49.319       36.773       14.803     2432.382     1352.256      219.137        0.233        0.200       25.430        7.916        0.097      333.488        2.835      864.600
01/02/2021  03:31:00       60.033      -27.980      -20.594       70.304       46.044       32.438     4942.601     2120.023     1052.252        0.646        0.406       66.233       33.358        0.254      333.703        3.193      864.542
01/02/2021  03:32:00      102.707      -31.318      -34.248       90.572       72.006       49.417     8203.231     5184.918     2442.065        1.426        0.792      107.376       52.106        0.235      333.719        3.218      864.467
01/02/2021  03:33:00       70.839      -92.200      -19.442       61.260       71.715       43.734     3752.823     5143.053     1912.664        1.235        0.540      116.271       28.031        0.058      333.692        3.174      864.440
01/02/2021  03:34:00       78.523      -95.105      -13.622       71.345       73.034       37.351     5090.100     5333.963     1395.101        1.361        0.591      123.332       41.003        0.111      333.776        3.312      864.445
01/02/2021  03:35:00       62.431     -155.727      -22.070       46.803       58.533       27.957     2190.545     3426.077      781.608        1.752        0.320      167.775       25.093        0.022      334.004        3.691      864.497
01/02/2021  03:36:00      117.983      -99.606      -25.858       49.577       63.805       36.193     2457.861     4071.072     1309.912        1.617        0.392      154.407       28.413        0.034      333.813        3.373      864.504
01/02/2021  03:37:00       67.557      -34.224       -3.746       85.775       87.477       57.676     7357.390     7652.229     3326.556        1.204        0.917       75.731       51.501        0.462      333.742        3.255      864.445
01/02/2021  03:38:00       25.296      -58.822       -2.420       73.023      121.805       56.564     5332.351    14836.484     3199.485        1.373        1.168       64.031       53.495        0.698      333.910        3.534      864.417
01/02/2021  03:39:00      -13.682      -70.543      -10.972       96.476       94.177       36.479     9307.654     8869.326     1330.744        1.239        0.975       71.858       25.737        0.128      333.909        3.534      864.525
01/02/2021  03:40:00     -187.200       32.979      -13.789       63.478       57.231       35.581     4029.397     3275.339     1266.014        2.244        0.429      190.082       23.564        0.015      333.274        2.478      864.554
01/02/2021  03:41:00     -163.288      106.062      -17.208       88.317       70.041       40.405     7799.967     4905.713     1632.539        2.627        0.717      194.711       23.430        0.014      333.754        3.273      864.552
01/02/2021  03:42:00       26.994       27.307      -15.825       59.689       76.364       34.711     3562.753     5831.425     1204.863        0.616        0.530       38.397       24.027        0.392      334.764        4.954      864.492
01/02/2021  03:43:00      122.035      -21.098      -22.337       86.798       78.873       54.280     7533.939     6221.002     2946.286        1.627        0.835      123.845       45.654        0.136      335.030        5.393      864.426
01/02/2021  03:44:00      122.024      -66.911      -38.433       62.126       69.537       24.343     3859.650     4835.442      592.594        1.506        0.464      139.165       33.152        0.057      334.927        5.221      864.439
01/02/2021  03:45:00       44.112      -89.794      -36.055       61.968       58.792       32.761     3840.008     3456.460     1073.271        0.984        0.418      100.045       30.223        0.091      334.695        4.837      864.435
01/02/2021  03:46:00       82.027     -119.820      -24.157       62.596       59.199       28.288     3918.315     3504.476      800.190        1.494        0.411      145.208       24.649        0.029      334.363        4.285      864.454
01/02/2021  03:47:00       83.939       -4.813       -1.782       59.120       63.834       41.510     3495.166     4074.741     1723.060        0.818        0.465       84.077       25.706        0.093      334.155        3.940      864.431
01/02/2021  03:48:00       56.898       -0.442      -19.383       60.018       83.868       44.817     3602.186     7033.879     2008.590        0.813        0.632       56.900       38.781        0.465      334.065        3.791      864.388
01/02/2021  03:49:00       55.225      -28.060       -4.980       55.198       68.817       37.136     3046.770     4735.721     1379.058        0.651        0.458       61.945       28.917        0.218      334.037        3.747      864.389
01/02/2021  03:50:00       68.833        8.032      -28.158       53.232       76.157       52.994     2833.685     5799.882     2808.396        0.852        0.572       69.300       28.040        0.164      333.869        3.466      864.390
01/02/2021  03:51:00      100.347     -138.589      -33.325       83.477       79.738       43.360     6968.442     6358.129     1880.051        2.279        0.760      171.104       40.409        0.056      334.191        3.999      864.392
01/02/2021  03:52:00       93.482     -129.537      -29.716       67.160       73.369       43.130     4510.412     5383.007     1860.222        1.908        0.588      159.746       38.903        0.059      334.935        5.235      864.432
01/02/2021  03:53:00      150.310     -140.458      -45.308       83.396      100.824       45.765     6954.920    10165.483     2094.396        3.179        0.961      205.722       38.184        0.034      334.825        5.050      864.457
01/02/2021  03:54:00      138.057      -40.976       -2.104      119.333       91.889       64.955    14240.337     8443.554     4219.177        2.382        1.345      144.009       67.031        0.217      333.860        3.450      864.465
01/02/2021  03:55:00      129.778       -4.902      -14.268       84.152       81.300       54.129     7081.609     6609.706     2929.989        1.684        0.831      129.871       47.994        0.137      333.398        2.687      864.460
01/02/2021  03:56:00      131.973       11.694       -7.390       63.347       52.697       34.269     4012.856     2776.949     1174.337        1.278        0.398      132.490       30.947        0.055      333.268        2.471      864.474
01/02/2021  03:57:00       41.442       30.754      -13.957       45.736       36.389       21.249     2091.780     1324.125      451.525        0.336        0.193       51.607       12.121        0.055      333.210        2.375      864.526
01/02/2021  03:58:00       13.489      -38.852       -3.031       60.263       33.543       39.309     3631.638     1125.114     1545.194        0.400        0.315       41.127       14.998        0.133      333.360        2.624      864.586
01/02/2021  03:59:00      -27.363      -16.857       -3.096       43.112       18.429       21.463     1858.681      339.627      460.656        0.185        0.133       32.139       11.972        0.139      333.360        2.623      864.646
01/02/2021  04:00:00      -87.754      122.113      -13.913       44.916       55.762       29.182     2017.492     3109.402      851.615        1.439        0.299      150.374       18.247        0.015      333.493        2.842      864.654
01/02/2021  04:01:00      -69.796      112.701       -7.028       55.075       68.183       28.897     3033.225     4648.929      835.052        1.307        0.426      132.563       24.237        0.033      333.630        3.072      864.651
01/02/2021  04:02:00       -1.203      136.499       -5.384       48.419       51.403       31.648     2344.379     2642.268     1001.607        1.232        0.299      136.504       28.118        0.042      333.689        3.168      864.653
01/02/2021  04:03:00      121.818      108.690      -22.722       42.027       41.232       25.931     1766.235     1700.060      672.409        1.565        0.207      163.258       16.215        0.010      333.845        3.425      864.633
01/02/2021  04:04:00       41.210       27.371      -32.416       60.569       62.058       41.479     3668.569     3851.209     1720.490        0.637        0.462       49.471       43.612        0.777      333.916        3.546      864.630
01/02/2021  04:05:00       58.472      -59.640       -6.816       62.337       65.085       38.725     3885.901     4236.076     1499.596        0.832        0.481       83.522       33.298        0.159      333.793        3.341      864.678
01/02/2021  04:06:00       77.913      -48.912      -10.979       59.382       87.470       36.532     3526.180     7650.947     1334.566        1.054        0.626       91.994       37.303        0.164      333.769        3.301      864.663
01/02/2021  04:07:00       -2.482      -88.628      -12.867       52.997       74.508       30.350     2808.693     5551.490      921.107        0.865        0.464       88.663       25.849        0.085      333.687        3.166      864.672
01/02/2021  04:08:00      -11.242      -40.361       -7.461       39.343       31.326       21.917     1547.878      981.311      480.335        0.241        0.150       41.898       16.075        0.147      333.674        3.145      864.712
01/02/2021  04:09:00       52.021      -36.635       -7.015       44.078       40.344       22.891     1942.830     1627.624      523.995        0.410        0.205       63.627       23.876        0.141      333.552        2.942      864.750
01/02/2021  04:10:00      112.044      -81.087      -28.896       79.679       97.118       44.813     6348.697     9431.864     2008.231        1.887        0.889      138.308       57.089        0.170      333.446        2.764      864.760
01/02/2021  04:11:00      167.571      -10.953      -41.293      127.118      125.856       67.143    16159.014    15839.790     4508.154        3.320        1.825      167.929       56.007        0.111      333.597        3.013      864.690
01/02/2021  04:12:00      153.224      -29.258      -34.109      145.836      122.112      105.948    21268.161    14911.280    11224.943        3.644        2.370      155.992       98.645        0.400      333.604        3.026      864.622
01/02/2021  04:13:00      147.013       -5.609      -12.864      140.490       97.857       78.499    19737.467     9575.979     6162.158        2.864        1.774      147.120       75.891        0.266      333.454        2.778      864.629
01/02/2021  04:14:00      165.026      -11.181       -6.427       77.126       64.926       41.682     5948.484     4215.332     1737.397        1.965        0.595      165.404       37.003        0.050      333.476        2.815      864.734
01/02/2021  04:15:00       23.718      108.657      -18.223      117.491       91.703       32.234    13804.192     8409.375     1039.003        1.797        1.163      111.215       39.928        0.129      333.437        2.749      864.820
01/02/2021  04:16:00      -19.031     -103.815       -8.108       48.980       57.574       36.898     2398.997     3314.805     1361.442        0.914        0.354      105.545       21.583        0.042      333.700        3.188      864.876
01/02/2021  04:17:00       60.028      -48.280       -5.920       45.083       58.229       37.453     2032.488     3390.574     1402.738        0.640        0.341       77.035       25.591        0.110      333.790        3.335      864.843
01/02/2021  04:18:00       37.066      -27.533       -5.134       44.572       26.820       25.254     1986.664      719.337      637.772        0.275        0.167       46.173       17.039        0.136      333.918        3.549      864.774
01/02/2021  04:19:00      -15.031      -67.763      -10.511       58.347       36.122       26.918     3404.368     1304.808      724.587        0.518        0.272       69.410       20.596        0.088      333.818        3.383      864.766
01/02/2021  04:20:00     -138.987       44.672      -19.530       59.396       47.446       37.112     3527.873     2251.090     1377.335        1.442        0.358      145.990       33.776        0.054      333.406        2.699      864.789
01/02/2021  04:21:00     -112.330       95.360      -11.225       81.960       54.803       25.320     6717.439     3003.413      641.124        1.610        0.518      147.349       21.333        0.021      333.542        2.924      864.798
01/02/2021  04:22:00       22.892      172.901      -16.276       55.016       49.839       25.736     3026.797     2483.929      662.328        1.843        0.309      174.410       27.788        0.025      333.952        3.602      864.784
01/02/2021  04:23:00      107.525       26.773       -8.787       49.405       68.132       30.518     2440.867     4641.945      931.333        1.018        0.401      110.808       14.859        0.018      333.854        3.443      864.762
01/02/2021  04:24:00       20.873       -1.875       -2.178       30.536       54.527       23.431      932.462     2973.225      548.992        0.245        0.223       20.957       16.897        0.650      333.996        3.678      864.799
01/02/2021  04:25:00       51.042     -104.914      -22.064       57.358       91.792       35.750     3289.888     8425.726     1278.087        1.354        0.650      116.671       35.131        0.091      334.258        4.111      864.838
01/02/2021  04:26:00       24.120      -76.066        0.984       62.451       77.886       33.811     3900.115     6066.214     1143.165        0.874        0.555       79.798       36.259        0.206      334.391        4.332      864.875
01/02/2021  04:27:00      -32.400      -55.663      -17.016       32.899       56.022       19.141     1082.358     3138.434      366.391        0.451        0.229       64.406       24.154        0.141      333.943        3.590      864.870
01/02/2021  04:28:00      -23.267      -58.871      -20.589       52.871       40.304       24.919     2795.344     1624.426      620.974        0.473        0.252       63.302       11.633        0.034      334.106        3.859      864.911
01/02/2021  04:29:00      -20.598      -46.214       11.814       48.037       46.054       29.941     2307.536     2120.969      896.452        0.401        0.266       50.597       29.144        0.332      333.956        3.611      864.940
01/02/2021  04:30:00       51.057      -47.682      -18.280       58.716       44.955       35.432     3447.541     2020.966     1255.434        0.597        0.336       69.860       38.877        0.310      333.885        3.493      864.912
01/02/2021  04:31:00       55.168      -64.308      -10.622       29.486       53.693       21.375      869.418     2882.887      456.893        0.575        0.210       84.729       23.784        0.079      333.788        3.332      864.898
01/02/2021  04:32:00       81.916      -83.057      -14.716       38.320       55.070       23.833     1468.440     3032.753      568.022        0.945        0.253      116.657       30.842        0.070      333.874        3.474      864.898
01/02/2021  04:33:00       40.123       -2.267       -5.849       28.264       44.514       22.123      798.828     1981.491      489.427        0.246        0.163       40.187       24.335        0.367      334.000        3.685      864.916
01/02/2021  04:34:00       22.767       53.800        7.940       25.213       38.029       13.754      635.677     1446.219      189.165        0.287        0.114       58.419       12.033        0.042      333.855        3.444      864.948
01/02/2021  04:35:00       45.793       63.536       -5.739       26.430       21.780       13.985      698.559      474.386      195.580        0.377        0.068       78.319       10.183        0.017      334.118        3.880      864.925
01/02/2021  04:36:00      117.532       59.023       -9.627       28.523       26.954       16.069      813.588      726.497      258.204        0.959        0.090      131.520        8.680        0.004      334.085        3.825      864.881
01/02/2021  04:37:00       52.373        3.710        0.197       33.741       25.686       19.126     1138.443      659.757      365.799        0.246        0.108       52.504       18.886        0.129      333.981        3.653      864.883
01/02/2021  04:38:00       29.853       -1.593       -0.008       34.781       49.026       23.777     1209.713     2403.582      565.338        0.254        0.209       29.896       21.999        0.542      334.283        4.153      864.911
01/02/2021  04:39:00       63.893       -3.844       -3.441       40.253       59.175       26.681     1620.290     3501.709      711.888        0.497        0.292       64.008       21.422        0.112      334.367        4.293      864.891
01/02/2021  04:40:00       15.522        7.246       -1.458       33.207       30.094       20.617     1102.733      905.632      425.062        0.136        0.122       17.130       20.750        1.467      334.253        4.105      864.889
01/02/2021  04:41:00      -24.250       40.977       -2.366       29.391       21.818       18.907      863.839      476.034      357.466        0.198        0.085       47.615       15.366        0.104      334.145        3.926      864.900
01/02/2021  04:42:00        2.740       54.799       -1.996       35.676       14.509       11.055     1272.776      210.500      122.221        0.231        0.080       54.867       12.535        0.052      334.135        3.908      864.893
01/02/2021  04:43:00        1.660        7.973        4.423       26.536       23.997       11.297      704.175      575.836      127.616        0.075        0.070        8.144        2.628        0.104      334.111        3.868      864.872
01/02/2021  04:44:00       58.292      -72.939      -19.733       38.007       40.665       16.561     1444.499     1653.679      274.283        0.624        0.169       93.371       23.257        0.062      334.243        4.089      864.835
01/02/2021  04:45:00       59.418      -61.131      -23.167       32.045       54.727       27.132     1026.883     2995.049      736.145        0.628        0.238       85.249       16.622        0.038      334.052        3.770      864.794
01/02/2021  04:46:00       51.880     -113.893      -11.423       57.548       62.040       31.790     3311.787     3848.914     1010.611        1.198        0.409      125.152       37.267        0.089      334.179        3.980      864.804
01/02/2021  04:47:00       17.175      -60.582       -9.951       46.147       41.400       26.752     2129.522     1713.959      715.690        0.431        0.228       62.969       26.267        0.174      334.268        4.128      864.830
01/02/2021  04:48:00      -14.174       17.067       -2.360       17.306       16.922        9.824      299.508      286.369       96.504        0.059        0.034       22.185        7.293        0.108      334.052        3.771      864.832
01/02/2021  04:49:00        2.864        5.916        0.223       16.656        5.597        8.674      277.419       31.323       75.233        0.021        0.019        6.573       10.835        2.718      333.949        3.600      864.794
01/02/2021  04:50:00      -14.281       14.343       -4.467       19.246       20.145        8.832      370.404      405.820       77.998        0.064        0.043       20.240        7.398        0.134      334.309        4.196      864.773
01/02/2021  04:51:00      -28.779       41.417       -2.173       20.147       17.826       12.971      405.920      317.762      168.240        0.172        0.045       50.434       11.991        0.057      334.511        4.532      864.766
01/02/2021  04:52:00      -12.201       43.653       -5.228       21.258       16.390        9.252      451.904      268.625       85.595        0.144        0.040       45.326        5.525        0.015      334.376        4.308      864.750
01/02/2021  04:53:00      -10.275       37.740       -1.507       16.981       16.681       13.327      288.347      278.243      177.613        0.114        0.037       39.114        3.159        0.007      334.812        5.032      864.719
01/02/2021  04:54:00      -96.491       34.183      -13.869       22.922       19.045       12.612      525.404      362.709      159.071        0.586        0.052      102.367       10.879        0.011      334.171        3.970      864.692
01/02/2021  04:55:00     -113.465      -34.006      -14.398       42.630       38.500       22.872     1817.283     1482.218      523.109        0.903        0.191      118.451       18.295        0.024      334.032        3.738      864.730
01/02/2021  04:56:00      -84.258       -3.158        0.769       63.049       36.071       27.703     3975.158     1301.086      767.466        0.658        0.302       84.317       24.724        0.086      333.950        3.602      864.773
01/02/2021  04:57:00      -15.000      -11.838        1.201       46.376       21.590       18.856     2150.754      466.116      355.554        0.167        0.149       19.109       17.413        0.830      334.051        3.768      864.791
01/02/2021  04:58:00       82.505       20.758      -15.162       30.411       19.423       26.064      924.847      377.262      679.353        0.472        0.099       85.077        9.587        0.013      334.624        4.719      864.767
01/02/2021  04:59:00       84.663       12.209      -11.646       23.172       21.529       12.387      536.923      463.492      153.431        0.430        0.058       85.539       11.605        0.018      334.118        3.879      864.766
01/02/2021  05:00:00       30.987       -6.512       -8.464       29.480       18.715       14.347      869.080      350.240      205.825        0.125        0.071       31.664       12.099        0.146      334.149        3.932      864.781
01/02/2021  05:01:00     -111.459       58.695      -15.787       83.509       62.027       23.715     6973.817     3847.385      562.389        1.375        0.569      125.969       27.331        0.047      333.967        3.628      864.819
01/02/2021  05:02:00     -192.820      122.406      -29.526       51.798       55.697       29.491     2682.986     3102.206      869.698        2.984        0.333      228.392       30.796        0.018      333.889        3.497      864.808
01/02/2021  05:03:00      -63.543       51.344      -17.446       66.145       32.328       23.460     4375.099     1045.110      550.384        0.647        0.299       81.694       25.646        0.099      333.958        3.616      864.787
01/02/2021  05:04:00       25.875      -15.395       -8.169       41.283       31.906       20.691     1704.253     1018.016      428.107        0.206        0.158       30.109       26.094        0.751      334.127        3.895      864.761
01/02/2021  05:05:00       78.722      -68.808      -26.159       48.848       67.335       32.537     2386.082     4534.013     1058.672        0.980        0.399      104.554       34.715        0.110      334.011        3.701      864.756
01/02/2021  05:06:00      138.031      -83.810      -55.806       59.382       70.481       36.700     3526.198     4967.624     1346.870        1.951        0.492      161.483       25.199        0.024      334.064        3.790      864.725
01/02/2021  05:07:00      160.166     -156.917      -56.519       62.598       58.743       35.282     3918.452     3450.752     1244.848        3.104        0.431      224.223       29.658        0.017      334.050        3.763      864.716
01/02/2021  05:08:00      115.639      -29.078      -33.019       95.793       88.158       58.917     9176.256     7771.779     3471.204        1.786        1.021      119.238       43.465        0.133      334.072        3.802      864.688
01/02/2021  05:09:00       72.332       -2.102       -4.339       95.014       70.592       52.570     9027.697     4983.207     2763.578        1.101        0.839       72.363       47.489        0.431      333.853        3.439      864.684
01/02/2021  05:10:00       98.384      -31.326       -8.005       63.645       71.708       40.827     4050.689     5141.983     1666.883        1.079        0.543      103.251       25.036        0.059      333.614        3.044      864.665
01/02/2021  05:11:00       90.942      -46.796      -28.517       59.060       64.209       44.549     3488.072     4122.826     1984.651        1.043        0.480      102.276       35.985        0.124      333.701        3.189      864.654
01/02/2021  05:12:00      130.933      -51.588      -36.755       53.562       72.371       37.398     2868.899     5237.507     1398.642        1.533        0.475      140.730       23.993        0.029      333.656        3.114      864.637
01/02/2021  05:13:00       99.495      -41.704      -36.102       59.834       64.496       38.440     3580.068     4159.793     1477.630        1.108        0.461      107.881       33.208        0.095      333.626        3.064      864.595
01/02/2021  05:14:00      141.991     -115.203      -48.766       42.096       64.561       28.822     1772.067     4168.078      830.725        2.129        0.339      182.847       28.592        0.024      333.446        2.763      864.578
01/02/2021  05:15:00      166.459     -197.593      -53.994       52.766       59.960       33.466     2784.275     3595.257     1119.966        3.858        0.375      258.364       33.462        0.017      333.605        3.025      864.553
01/02/2021  05:16:00      103.813     -159.285      -29.254       66.047       73.620       38.244     4362.147     5419.964     1462.605        2.412        0.562      190.128       46.354        0.059      333.698        3.181      864.512
01/02/2021  05:17:00        3.978     -107.372      -28.686       58.259       49.363       18.063     3394.148     2436.743      326.284        0.926        0.308      107.446       12.831        0.014      333.753        3.275      864.529
01/02/2021  05:18:00      -30.703      -42.191      -12.796       45.156       36.489       20.034     2039.084     1331.434      401.370        0.333        0.189       52.181       12.250        0.055      333.564        2.960      864.579
01/02/2021  05:19:00       10.163       28.460       -7.986       35.452       14.875       13.967     1256.867      221.255      195.089        0.132        0.084       30.220        7.282        0.058      333.338        2.589      864.574
01/02/2021  05:20:00       -0.134       27.617        4.662       29.994       17.945       13.424      899.657      322.017      180.207        0.109        0.070       27.617       14.688        0.283      333.511        2.875      864.552
01/02/2021  05:21:00      -28.235      -19.171      -12.333       29.559       37.432       14.550      873.714     1401.189      211.708        0.190        0.124       34.129       13.749        0.162      333.542        2.927      864.545
01/02/2021  05:22:00      -64.261      -49.017      -16.288       28.516       16.075       15.285      813.153      258.396      233.636        0.405        0.065       80.821        7.187        0.008      333.632        3.074      864.551
01/02/2021  05:23:00     -115.885      -30.382      -14.941       57.491       41.166       28.420     3305.216     1694.622      807.690        1.019        0.290      119.802       22.209        0.034      333.547        2.933      864.574
01/02/2021  05:24:00     -186.638      -51.773       -9.344       88.098       57.237       43.219     7761.252     3276.048     1867.885        2.525        0.645      193.686       43.715        0.051      333.490        2.836      864.584
01/02/2021  05:25:00     -232.129      -59.807      -18.006       81.822       46.208       42.225     6694.788     2135.197     1782.953        3.420        0.531      239.710       41.852        0.030      333.529        2.898      864.621
01/02/2021  05:26:00      -82.061     -102.744       -9.396       72.918       42.647       31.560     5317.085     1818.747      996.058        1.275        0.407      131.493       31.026        0.056      333.825        3.394      864.622
01/02/2021  05:27:00      108.772      -79.916      -48.601       67.380       75.202       42.046     4540.130     5655.391     1767.832        1.627        0.598      134.974       43.295        0.103      333.767        3.297      864.558
01/02/2021  05:28:00      105.454     -125.535      -38.932       47.690       57.438       32.202     2274.327     3299.111     1036.986        1.750        0.331      163.950       25.270        0.024      333.630        3.069      864.511
01/02/2021  05:29:00       95.184     -109.683      -28.805       55.744       49.188       29.213     3107.405     2419.450      853.397        1.415        0.319      145.225       28.930        0.040      333.791        3.338      864.472
01/02/2021  05:30:00      -17.822      -49.130       -2.067       82.181       66.693       41.467     6753.779     4448.009     1719.484        0.783        0.646       52.262       33.019        0.399      333.809        3.367      864.494
01/02/2021  05:31:00     -130.883      -32.185        5.910       84.833       60.078       39.347     7196.676     3609.382     1548.206        1.527        0.618      134.782       38.742        0.083      333.572        2.974      864.490
01/02/2021  05:32:00       50.376      -56.121      -15.368       50.023       39.051       28.650     2502.305     1524.950      820.846        0.538        0.242       75.414       33.213        0.194      333.689        3.169      864.428
01/02/2021  05:33:00       49.884      -62.628      -13.057       35.602       38.210       21.604     1267.534     1460.018      466.737        0.489        0.160       80.067       25.362        0.100      333.576        2.981      864.417
01/02/2021  05:34:00      -59.270       11.552      -11.929       51.347       47.172       27.398     2636.523     2225.226      750.654        0.470        0.281       60.385       19.504        0.104      333.420        2.723      864.462
01/02/2021  05:35:00     -116.968       26.656       -5.506       46.729       44.115       28.379     2183.637     1946.164      805.364        0.968        0.247      119.967       17.975        0.022      333.078        2.156      864.487
01/02/2021  05:36:00      -67.561       20.460       -8.054       37.686       29.198       22.282     1420.208      852.503      496.508        0.391        0.138       70.591       13.527        0.037      333.011        2.046      864.470
01/02/2021  05:37:00      -71.722       27.742      -15.207       37.146       18.535       20.066     1379.789      343.531      402.631        0.413        0.106       76.900       14.988        0.038      333.123        2.231      864.450
01/02/2021  05:38:00      -41.157        7.603       -8.730       61.349       38.513       22.887     3763.760     1483.283      523.823        0.380        0.289       41.853       17.099        0.167      333.112        2.214      864.443
01/02/2021  05:39:00       18.600       -2.453        5.440       60.749       24.328       29.549     3690.383      591.862      873.121        0.277        0.258       18.761       22.454        1.432      333.076        2.153      864.449
01/02/2021  05:40:00       19.987      -19.810        1.824       68.764       30.077       29.016     4728.538      904.598      841.908        0.363        0.324       28.141       16.119        0.328      333.136        2.253      864.456
01/02/2021  05:41:00      -77.151      -34.920        1.974       41.151       24.139       16.863     1693.370      582.687      284.350        0.487        0.128       84.686        5.354        0.004      333.192        2.346      864.463
01/02/2021  05:42:00      -13.371       -9.415        1.991       28.046       26.083       14.961      786.581      680.305      223.841        0.098        0.085       16.353       11.682        0.510      333.368        2.637      864.469
01/02/2021  05:43:00        2.009       22.675       10.871       30.508       16.778       21.055      930.742      281.497      443.313        0.115        0.083       22.764       23.185        1.037      333.209        2.373      864.475
01/02/2021  05:44:00        1.328       -7.477        0.801       31.350       14.439       16.581      982.811      208.495      274.943        0.076        0.073        7.594       18.024        5.634      333.173        2.313      864.484
01/02/2021  05:45:00       23.264        8.115       -8.126       35.410       22.968       18.806     1253.887      527.517      353.661        0.140        0.107       24.639       23.300        0.894      333.168        2.305      864.475
01/02/2021  05:46:00        1.357       54.296       -3.332       16.693       15.324       10.304      278.648      234.818      106.170        0.179        0.031       54.313       10.414        0.037      333.272        2.478      864.464
01/02/2021  05:47:00      -30.194       25.862       -0.120       28.455       20.997       14.121      809.703      440.854      199.414        0.151        0.072       39.756        7.425        0.035      333.012        2.048      864.484
01/02/2021  05:48:00      -35.699       13.891       -4.207       22.081       13.213        9.033      487.592      174.588       81.604        0.111        0.037       38.306        9.559        0.062      332.952        1.950      864.516
01/02/2021  05:49:00      -18.361       10.155       -1.817       21.412        9.382       11.882      458.494       88.014      141.178        0.057        0.034       20.982       12.431        0.351      333.059        2.127      864.543
01/02/2021  05:50:00       24.144      -34.996      -12.842       36.119       23.187       17.040     1304.583      537.621      290.370        0.205        0.107       42.517       23.618        0.309      333.214        2.382      864.556
01/02/2021  05:51:00       23.051      -51.450       -4.594       52.100       26.327       23.382     2714.445      693.110      546.737        0.358        0.198       56.378       28.779        0.261      333.177        2.322      864.551
01/02/2021  05:52:00       14.899      -25.698       10.220       43.722       32.781       26.901     1911.655     1074.600      723.680        0.235        0.185       29.705       19.549        0.433      333.278        2.488      864.547
01/02/2021  05:53:00      -17.674      -17.411       -0.151       31.620       17.030       22.208      999.818      290.031      493.178        0.120        0.089       24.810       17.335        0.488      333.198        2.356      864.581
01/02/2021  05:54:00      -17.185      -12.171       -8.111       29.499       16.641       20.002      870.171      276.932      400.088        0.103        0.077       21.058       19.506        0.858      333.068        2.139      864.620
01/02/2021  05:55:00      -29.821      -10.399      -15.762       32.804       12.226       14.080     1076.097      149.486      198.240        0.133        0.071       31.582       15.829        0.251      333.004        2.035      864.643
01/02/2021  05:56:00      -31.702      -28.452       -8.085       42.057       21.462       24.144     1768.772      460.638      582.952        0.235        0.141       42.597       14.303        0.113      333.162        2.297      864.676
01/02/2021  05:57:00       -0.958      -11.176        0.603       31.482       33.097       19.252      991.101     1095.401      370.630        0.129        0.123       11.217       15.316        1.865      333.003        2.033      864.688
01/02/2021  05:58:00      -50.436        1.343       -2.084       53.906       24.799       19.239     2905.834      614.996      370.149        0.322        0.195       50.453       18.456        0.134      332.913        1.887      864.661
01/02/2021  05:59:00      -66.024        4.604       -2.214       45.758       37.194       21.008     2093.796     1383.373      441.344        0.415        0.196       66.184        4.932        0.006      332.647        1.445      864.626
01/02/2021  06:00:00      -50.340       25.612       -5.563       32.622       27.838       17.047     1064.216      774.972      290.584        0.267        0.106       56.481       11.378        0.041      332.630        1.418      864.617
01/02/2021  06:01:00      -35.009       26.635       -4.239       26.774       13.564       15.154      716.824      183.986      229.651        0.154        0.057       43.989       12.790        0.085      332.717        1.562      864.654
01/02/2021  06:02:00      -10.118       13.731       -3.826       35.313       12.925       18.795     1247.015      167.063      353.255        0.104        0.088       17.057       21.387        1.572      332.834        1.756      864.711
01/02/2021  06:03:00       10.096      -16.037       -8.670       31.434       12.985       17.074      988.067      168.615      291.524        0.094        0.072       18.951       21.930        1.339      332.902        1.868      864.741
01/02/2021  06:04:00       45.271      -50.718      -19.338       42.398       13.068       21.643     1797.561      170.762      468.401        0.372        0.122       67.983       29.178        0.184      332.962        1.967      864.682
01/02/2021  06:05:00       56.314      -39.956      -16.205       44.191       31.122       23.986     1952.823      968.561      575.319        0.426        0.175       69.048       30.401        0.194      332.998        2.026      864.646
01/02/2021  06:06:00       56.798      -30.733      -10.903       45.580       29.515       21.732     2077.540      871.148      472.269        0.385        0.171       64.580       27.247        0.178      333.024        2.068      864.604
01/02/2021  06:07:00        2.765      -20.631       -3.490       42.585       30.100       24.990     1813.468      905.998      624.520        0.189        0.167       20.815       24.509        1.386      332.928        1.911      864.586
01/02/2021  06:08:00       -6.111       -9.462       13.736       35.516       28.038       25.561     1261.412      786.129      653.388        0.151        0.135       11.263       23.952        4.522      333.027        2.073      864.586
01/02/2021  06:09:00       24.430      -10.131        1.860       45.317       35.113       20.490     2053.604     1232.936      419.852        0.220        0.185       26.448       19.896        0.566      332.995        2.021      864.584
01/02/2021  06:10:00      101.478       41.514       -5.008       38.043       22.196       18.509     1447.273      492.647      342.575        0.716        0.114      109.641       22.865        0.043      333.089        2.177      864.564
01/02/2021  06:11:00       72.619       93.911       -4.131       39.783       31.557       23.581     1582.713      995.865      556.082        0.862        0.157      118.713       21.976        0.034      332.828        1.745      864.531
01/02/2021  06:12:00       59.922      172.032      -22.431       28.758       39.136       19.363      827.017     1531.650      374.926        1.821        0.137      182.169       14.416        0.006      333.100        2.193      864.487
01/02/2021  06:13:00       49.964       97.727       -8.236       37.075       47.421       25.236     1374.546     2248.785      636.867        0.819        0.213      109.758       24.814        0.051      333.065        2.136      864.468
01/02/2021  06:14:00       47.688       74.328       -1.191       25.943       24.188       18.229      673.030      585.047      332.312        0.469        0.080       88.311       13.440        0.023      333.013        2.051      864.452
01/02/2021  06:15:00       54.908       71.486        0.811       30.490       30.408       20.117      929.648      924.635      404.692        0.519        0.113       90.140       16.749        0.035      333.047        2.106      864.435
01/02/2021  06:16:00       44.413       68.595        0.555       32.298       26.809       24.046     1043.159      718.718      578.231        0.451        0.117       81.718       19.769        0.059      332.998        2.025      864.414
01/02/2021  06:17:00       27.774       60.502       -3.904       23.707       19.629       12.433      562.030      385.295      154.570        0.277        0.055       66.572        9.444        0.020      332.998        2.027      864.412
01/02/2021  06:18:00      -52.867       33.707       -9.489       53.001       36.773       17.044     2809.140     1352.261      290.485        0.424        0.223       62.698       15.762        0.063      332.712        1.552      864.442
01/02/2021  06:19:00     -134.621       38.805       -8.498       60.217       43.145       29.708     3626.055     1861.525      882.575        1.303        0.319      140.102       20.773        0.022      332.254        0.796      864.495
01/02/2021  06:20:00     -128.918       19.260       -4.913       47.726       40.265       20.917     2277.812     1621.302      437.529        1.067        0.217      130.349        7.301        0.003      332.356        0.965      864.561
01/02/2021  06:21:00     -109.682       10.137       -7.570       60.913       40.954       27.395     3710.343     1677.227      750.460        0.916        0.307      110.149        8.183        0.006      332.411        1.055      864.630
01/02/2021  06:22:00     -139.749       41.809        3.000       56.206       41.173       29.312     3159.144     1695.222      859.199        1.350        0.286      145.869       28.441        0.038      332.390        1.019      864.688
01/02/2021  06:23:00     -169.770       52.783      -19.645       53.608       35.915       27.146     2873.853     1289.861      736.904        1.845        0.245      177.786       20.881        0.014      332.414        1.060      864.733
01/02/2021  06:24:00     -110.266       21.735        7.043       54.718       41.667       32.435     2994.093     1736.105     1052.009        0.923        0.289      112.388       23.981        0.046      332.317        0.903      864.752
01/02/2021  06:25:00      -74.328       47.163       -4.304       48.922       38.926       24.750     2393.395     1515.228      612.564        0.614        0.226       88.028        8.492        0.009      332.475        1.162      864.769
01/02/2021  06:26:00      -82.423       77.486      -12.575       34.905       25.914       16.066     1218.363      671.511      258.121        0.755        0.107      113.127       12.457        0.012      332.862        1.800      864.755
01/02/2021  06:27:00      -83.648       43.208       -7.870       23.305       21.387       15.310      543.129      457.409      234.392        0.508        0.062       94.149        7.427        0.006      332.953        1.951      864.734
01/02/2021  06:28:00       -2.912      -22.286        5.725       43.061       24.515       24.043     1854.264      601.006      578.090        0.178        0.152       22.475       12.590        0.314      332.884        1.839      864.736
01/02/2021  06:29:00       -4.323        3.219       -7.242       46.007       39.645       24.532     2116.653     1571.695      601.806        0.218        0.215        5.390       21.645       16.126      332.664        1.472      864.756
01/02/2021  06:30:00       16.671       -9.673        0.522       48.706       38.332       28.218     2372.263     1469.333      796.231        0.250        0.232       19.274       19.472        1.021      332.444        1.112      864.775
01/02/2021  06:31:00     -107.475       18.523       -2.265       58.719       34.573       23.080     3447.968     1195.300      532.706        0.854        0.259      109.060        6.197        0.003      332.376        0.997      864.802
01/02/2021  06:32:00      -96.703       38.403        5.115       47.354       24.798       21.652     2242.396      614.960      468.804        0.709        0.166      104.050       15.997        0.024      332.366        0.983      864.805
01/02/2021  06:33:00     -109.071       38.656      -13.151       23.318       19.242       16.963      543.707      370.266      287.752        0.738        0.060      115.719       12.151        0.011      332.597        1.364      864.806
01/02/2021  06:34:00      -82.327       45.117       -7.615       16.599       13.979       11.418      275.535      195.412      130.379        0.474        0.030       93.879        5.890        0.004      332.706        1.542      864.781
01/02/2021  06:35:00      -53.235       37.620        0.388       27.501       16.812       17.377      756.306      282.628      301.949        0.279        0.067       65.186        8.861        0.018      332.748        1.612      864.718
01/02/2021  06:36:00       -9.059       44.399       -3.101       29.364       19.733       16.139      862.217      389.399      260.478        0.179        0.076       45.313       13.042        0.083      332.925        1.904      864.649
01/02/2021  06:37:00       16.974       36.580       -1.078       23.386       24.980       14.094      546.925      623.982      198.651        0.150        0.068       40.327       12.917        0.103      333.085        2.168      864.609
01/02/2021  06:38:00       -8.694       80.881        0.267       18.061       32.717       18.736      326.185     1070.414      351.027        0.418        0.087       81.347       10.204        0.016      333.616        3.048      864.600
01/02/2021  06:39:00       19.014       91.511       -3.535       31.069       35.103       15.871      965.292     1232.187      251.888        0.560        0.122       93.465       10.632        0.013      333.607        3.034      864.627
01/02/2021  06:40:00       15.805       70.119       -0.926       26.398       29.929       11.693      696.843      895.758      136.726        0.345        0.086       71.879        7.505        0.011      333.596        3.015      864.654
01/02/2021  06:41:00       83.435       34.087       -9.153       29.270       38.974       15.399      856.729     1518.974      237.134        0.541        0.131       90.129       13.895        0.024      333.559        2.953      864.671
01/02/2021  06:42:00       78.855       35.000       -9.166       22.229       18.602       12.976      494.129      346.027      168.381        0.427        0.050       86.274        7.659        0.008      332.914        1.887      864.665
01/02/2021  06:43:00       60.343       34.937       -2.460       26.706       35.557       13.113      713.236     1264.283      171.956        0.351        0.107       69.727       13.189        0.036      333.081        2.163      864.658
01/02/2021  06:44:00       67.601       44.444      -12.727       41.689       23.388       21.387     1738.004      547.013      457.417        0.472        0.137       80.902       23.126        0.082      332.554        1.293      864.683
01/02/2021  06:45:00       41.883       38.739       -6.723       30.158       16.236       17.992      909.535      263.596      323.705        0.240        0.075       57.052       15.647        0.075      332.391        1.022      864.710
01/02/2021  06:46:00       54.057       28.977      -12.461       40.091       14.094       18.286     1607.282      198.640      334.374        0.303        0.107       61.334       23.388        0.145      332.426        1.080      864.737
01/02/2021  06:47:00       19.308       16.968       -7.338       43.265       18.658       21.396     1871.819      348.106      457.793        0.170        0.134       25.704       27.673        1.159      332.461        1.139      864.744
01/02/2021  06:48:00       10.942       34.252       -3.955       34.448       11.906       17.714     1186.638      141.764      313.779        0.148        0.082       35.957       22.410        0.388      332.583        1.337      864.736
01/02/2021  06:49:00       30.834       74.878        0.372       33.581       42.735       21.562     1127.687     1826.310      464.899        0.499        0.171       80.978       15.991        0.039      332.738        1.596      864.733
01/02/2021  06:50:00       49.615       99.244       -4.625       35.574       37.330       22.075     1265.513     1393.539      487.284        0.774        0.157      110.955       18.460        0.028      332.794        1.687      864.728
01/02/2021  06:51:00       65.148       90.811      -11.966       47.219       32.249       24.736     2229.636     1039.992      611.857        0.826        0.194      111.763       22.159        0.039      332.763        1.636      864.716
01/02/2021  06:52:00       75.205       65.751       -6.154       41.801       20.964       24.096     1747.326      439.503      580.627        0.639        0.138       99.895       21.589        0.047      332.736        1.594      864.703
01/02/2021  06:53:00       34.234       45.612       -2.812       31.437       26.833       16.621      988.271      719.986      276.260        0.262        0.099       57.030       18.334        0.103      332.717        1.562      864.682
01/02/2021  06:54:00       19.251       57.684       -1.749       24.613       19.553       15.888      605.788      382.321      252.439        0.247        0.062       60.812       16.202        0.071      332.800        1.698      864.677
01/02/2021  06:55:00        6.513       32.197       -4.335       22.946       23.130       10.757      526.502      534.992      115.714        0.114        0.059       32.849        9.357        0.081      332.757        1.627      864.681
01/02/2021  06:56:00      -42.419        6.192       -9.349       22.088       11.125       12.155      487.878      123.764      147.752        0.134        0.038       42.869       13.032        0.092      332.519        1.236      864.688
01/02/2021  06:57:00      -24.524       14.485       -1.114       36.401       17.446       20.027     1325.031      304.376      401.061        0.142        0.102       28.482       20.986        0.543      332.422        1.074      864.697
01/02/2021  06:58:00      -27.195        1.231       -7.589       37.418       21.754       19.614     1400.130      473.223      384.692        0.153        0.113       27.223       22.439        0.679      332.577        1.330      864.701
01/02/2021  06:59:00       -0.171        3.351        0.668       45.475       11.465       21.308     2067.934      131.436      454.020        0.133        0.133        3.355       27.432       66.838      332.711        1.551      864.698
01/02/2021  07:00:00       30.495      -11.971       -7.220       46.157       17.034       22.543     2130.444      290.162      508.202        0.203        0.146       32.760       28.656        0.765      332.928        1.909      864.695
01/02/2021  07:01:00       65.544       17.889       -7.436       45.620       19.433       22.493     2081.227      377.648      505.927        0.382        0.148       67.941       28.346        0.174      333.212        2.377      864.674
01/02/2021  07:02:00       61.147       13.276       -3.032       39.147       21.608       20.052     1532.496      466.919      402.099        0.316        0.120       62.572       22.565        0.130      333.089        2.176      864.649
01/02/2021  07:03:00       69.526       13.673       -1.805       32.664       16.202       19.467     1066.956      262.504      378.950        0.337        0.085       70.858       21.871        0.095      332.896        1.857      864.611
01/02/2021  07:04:00       87.468       29.227      -10.986       41.226       24.007       21.070     1699.589      576.342      443.930        0.567        0.136       92.222       23.905        0.067      333.013        2.049      864.586
01/02/2021  07:05:00       73.035       25.845       -6.779       24.200       19.180       15.320      585.632      367.860      234.687        0.362        0.059       77.473       10.589        0.019      333.069        2.143      864.565
01/02/2021  07:06:00       62.813       15.558       -3.448       25.982       19.546       15.377      675.054      382.046      236.463        0.275        0.065       64.711       15.773        0.059      333.032        2.081      864.543
01/02/2021  07:07:00       47.028       17.291       -9.609       33.370       26.105       20.326     1113.556      681.454      413.142        0.241        0.110       50.106       11.843        0.056      332.761        1.633      864.521
01/02/2021  07:08:00       12.972      -14.374      -15.291       36.797       22.831       19.330     1353.990      521.263      373.662        0.143        0.112       19.362       22.782        1.385      332.670        1.482      864.509
01/02/2021  07:09:00       55.441      -67.048      -16.458       42.279       21.984       20.903     1787.480      483.279      436.915        0.527        0.135       87.001       24.856        0.082      332.908        1.877      864.503
01/02/2021  07:10:00       17.285      -71.134        1.865       32.750       20.889       22.677     1072.560      436.345      514.260        0.369        0.101       73.204       22.818        0.097      333.290        2.508      864.498
01/02/2021  07:11:00      -21.964       -2.085      -12.677       39.020       25.260       18.684     1522.549      638.088      349.095        0.158        0.125       22.063       17.339        0.618      332.736        1.592      864.496
01/02/2021  07:12:00      -55.926        6.198      -11.220       24.594       12.745       13.146      604.863      162.433      172.816        0.212        0.047       56.269       11.662        0.043      332.410        1.055      864.500
01/02/2021  07:13:00      -49.774       15.449       -7.890       24.727       21.652       17.533      611.444      468.798      307.393        0.208        0.069       52.116       15.277        0.086      332.353        0.959      864.503
01/02/2021  07:14:00      -70.504       17.499      -11.866       39.345       21.669       18.971     1548.064      469.558      359.891        0.390        0.119       72.643       14.788        0.041      332.267        0.820      864.509
01/02/2021  07:15:00      -97.434       14.739      -14.541       33.715       25.472       22.185     1136.695      648.843      492.176        0.610        0.114       98.542       15.017        0.023      332.230        0.757      864.508
01/02/2021  07:16:00     -114.713       34.482      -11.744       30.635       27.216       20.990      938.526      740.685      440.590        0.830        0.106      119.784       12.043        0.010      332.106        0.553      864.505
01/02/2021  07:17:00      -95.639       33.406       -9.512       46.824       36.120       24.340     2192.490     1304.650      592.434        0.722        0.204      101.305       18.123        0.032      332.091        0.528      864.503
01/02/2021  07:18:00      -60.964        3.824       -5.133       44.899       32.140       22.520     2015.940     1032.995      507.149        0.366        0.178       61.084        8.043        0.017      332.065        0.486      864.510
01/02/2021  07:19:00      -71.179        5.834      -12.536       39.858       27.813       22.920     1588.622      773.582      525.342        0.407        0.144       71.418       21.365        0.089      332.153        0.629      864.507
01/02/2021  07:20:00      -42.289        4.458      -16.336       62.410       24.172       27.897     3894.949      584.291      778.243        0.367        0.263       42.523       32.099        0.570      332.223        0.746      864.506
01/02/2021  07:21:00      -87.152       20.311       -8.380       37.492       29.665       23.257     1405.657      880.039      540.876        0.545        0.141       89.488       19.833        0.049      332.157        0.636      864.492
01/02/2021  07:22:00      -91.457       21.701      -12.438       39.565       25.451       28.574     1565.394      647.745      816.474        0.601        0.151       93.996       13.655        0.021      332.097        0.540      864.480
01/02/2021  07:23:00      -63.669       32.583       -3.328       36.196       28.791       22.913     1310.186      828.943      525.004        0.389        0.133       71.523       18.325        0.066      332.158        0.638      864.461
01/02/2021  07:24:00      -24.999        8.767      -10.118       36.873       20.842       19.322     1359.604      434.406      373.344        0.149        0.108       26.491       21.261        0.644      332.346        0.947      864.438
01/02/2021  07:25:00      -29.296        9.070       -8.232       39.685       17.430       19.542     1574.869      303.797      381.897        0.163        0.113       30.668       23.495        0.587      332.495        1.194      864.425
01/02/2021  07:26:00      -56.152       18.343      -15.363       37.751       31.620       21.943     1425.102      999.808      481.488        0.332        0.145       59.072       20.500        0.120      332.482        1.173      864.442
01/02/2021  07:27:00      -50.748      -18.159      -16.494       39.566       27.179       20.706     1565.430      738.700      428.728        0.295        0.137       53.899       18.239        0.115      332.184        0.682      864.475
01/02/2021  07:28:00      -56.301       -1.285       -9.573       47.252       32.825       24.980     2232.767     1077.449      624.002        0.360        0.197       56.316       16.662        0.088      332.150        0.626      864.506
01/02/2021  07:29:00      -77.248       18.165       -5.728       35.878       43.931       22.953     1287.252     1929.946      526.850        0.504        0.187       79.355       17.070        0.046      332.012        0.398      864.527
01/02/2021  07:30:00      -86.370       27.228       -6.711       46.873       28.362       23.590     2197.085      804.430      556.496        0.590        0.178       90.560       22.782        0.063      332.070        0.494      864.529
01/02/2021  07:31:00      -69.532       33.596       -2.362       38.584       25.241       21.368     1488.705      637.113      456.576        0.428        0.129       77.223       14.300        0.034      332.135        0.602      864.521
01/02/2021  07:32:00      -82.299       30.472       -9.188       29.285       17.866       17.211      857.590      319.190      296.235        0.463        0.074       87.759       12.989        0.022      332.289        0.854      864.521
01/02/2021  07:33:00      -66.912       15.958      -22.999       37.253       14.166       18.726     1387.797      200.675      350.658        0.360        0.097       68.789       22.343        0.105      332.175        0.667      864.533
01/02/2021  07:34:00      -87.960        0.667      -14.458       69.042       39.092       27.541     4766.817     1528.195      758.501        0.750        0.353       87.963       17.003        0.037      331.929        0.261      864.559
01/02/2021  07:35:00      -33.010      -19.738       -4.031       79.192       39.403       33.889     6271.436     1552.584     1148.434        0.523        0.449       38.461       17.694        0.212      332.019        0.411      864.584
01/02/2021  07:36:00      -70.791       27.967      -18.440       78.634       36.663       29.117     6183.347     1344.183      847.807        0.725        0.419       76.115       22.110        0.084      331.992        0.365      864.616
01/02/2021  07:37:00     -115.684       31.893       -9.806       77.463       53.051       30.533     6000.550     2814.430      932.269        1.212        0.487      119.999       22.739        0.036      332.014        0.402      864.653
01/02/2021  07:38:00     -135.904       24.828      -22.948       66.718       45.753       27.908     4451.301     2093.333      778.854        1.347        0.366      138.153       24.325        0.031      332.047        0.455      864.675
01/02/2021  07:39:00      -71.302       -5.695      -13.064       87.555       47.881       39.322     7665.955     2292.634     1546.245        0.839        0.575       71.529       34.501        0.233      331.983        0.349      864.709
01/02/2021  07:40:00      -35.568       22.717      -10.948       62.497       35.715       23.401     3905.857     1275.580      547.590        0.381        0.286       42.204       12.931        0.094      332.046        0.454      864.727
01/02/2021  07:41:00      -67.025       51.770        2.060       49.060       33.189       20.804     2406.890     1101.519      432.794        0.556        0.197       84.690       13.504        0.025      332.229        0.757      864.720
01/02/2021  07:42:00      -33.936       19.255       -7.057       32.497       18.660       15.716     1056.080      348.202      247.000        0.161        0.083       39.018       14.443        0.137      332.255        0.798      864.706
01/02/2021  07:43:00      -29.142       29.199       -5.535       21.847       13.146       14.533      477.272      172.813      211.217        0.130        0.043       41.254        9.633        0.055      332.435        1.094      864.698
01/02/2021  07:44:00      -33.293       32.696       -4.482       15.169        6.203        8.773      230.104       38.472       76.965        0.127        0.017       46.663        9.624        0.043      332.687        1.512      864.690
01/02/2021  07:45:00       -7.452       10.702       -3.560       25.725       11.225       11.151      661.789      125.994      124.349        0.055        0.046       13.041       15.947        1.495      333.259        2.458      864.693
01/02/2021  07:46:00       35.330       -8.114       -6.474       26.321       13.053       13.720      692.779      170.393      188.237        0.120        0.053       36.250       17.303        0.228      333.359        2.624      864.701
01/02/2021  07:47:00       37.691      -12.716       -8.173       19.535       14.822       12.429      381.623      219.679      154.474        0.120        0.038       39.779       11.141        0.078      333.138        2.257      864.692
01/02/2021  07:48:00       32.701        2.576       -9.570       26.109       21.914       15.246      681.657      480.218      232.444        0.128        0.070       32.803       15.170        0.214      333.022        2.064      864.693
01/02/2021  07:49:00       13.809       19.092       -2.160       25.910       13.185       15.483      671.339      173.847      239.731        0.082        0.054       23.563       15.209        0.417      333.207        2.372      864.709
01/02/2021  07:50:00      -65.772       31.881      -13.292       38.957       22.789       15.291     1517.681      519.357      233.826        0.389        0.114       73.091        9.550        0.017      332.486        1.180      864.739
01/02/2021  07:51:00      -65.020       49.202       -2.063       51.692       40.786       32.165     2672.110     1663.494     1034.578        0.601        0.269       81.538       22.478        0.076      332.309        0.887      864.759
01/02/2021  07:52:00        4.908       45.217       -4.376       42.436       22.893       18.680     1800.817      524.088      348.936        0.238        0.134       45.483       19.410        0.182      332.806        1.707      864.780
01/02/2021  07:53:00       40.915       43.180       -1.195       35.269       16.922       12.129     1243.901      286.365      147.116        0.261        0.084       59.486       13.316        0.050      333.376        2.650      864.803
01/02/2021  07:54:00      -68.869      -13.307      -16.652       37.524       32.578       19.361     1408.017     1061.300      374.838        0.402        0.142       70.142       13.818        0.039      332.527        1.247      864.839
01/02/2021  07:55:00      -52.012       21.116      -13.440       60.397       33.675       28.549     3647.771     1133.995      815.046        0.446        0.280       56.135       19.417        0.120      332.282        0.843      864.879
01/02/2021  07:56:00      -77.803       -4.930      -23.062       57.926       32.306       21.965     3355.368     1043.701      482.474        0.574        0.244       77.959       11.033        0.020      332.530        1.252      864.911
01/02/2021  07:57:00      -47.372        0.180       -8.125       49.811       19.829       22.586     2481.137      393.193      510.132        0.285        0.169       47.373       22.582        0.227      332.613        1.390      864.947
01/02/2021  07:58:00      -80.771       10.758       -5.640       42.205       22.871       19.100     1781.276      523.075      364.799        0.467        0.133       81.484       11.007        0.018      332.706        1.544      864.977
01/02/2021  07:59:00      -66.159       24.380       -1.708       44.911       23.490       19.226     2017.010      551.769      369.622        0.396        0.147       70.508       10.352        0.022      332.787        1.676      864.994
01/02/2021  08:00:00      -95.218       42.580       -9.521       27.162       12.724       17.465      737.782      161.891      305.029        0.609        0.060      104.305       13.011        0.016      332.855        1.789      864.982
01/02/2021  08:01:00      -70.548       40.109       -6.091       40.119       15.556       19.753     1609.559      241.987      390.165        0.443        0.112       81.153       20.894        0.066      333.008        2.042      864.968
01/02/2021  08:02:00      -88.132       20.000       -6.834       35.374       16.535       21.969     1251.317      273.391      482.625        0.511        0.100       90.373       11.927        0.017      333.087        2.171      864.952
01/02/2021  08:03:00      -51.228        1.399       -5.518       55.143       20.522       21.820     3040.753      421.151      476.129        0.330        0.197       51.247       16.982        0.110      333.124        2.234      864.937
01/02/2021  08:04:00      -51.606       10.560       -7.187       45.452       12.262       22.339     2065.871      150.352      499.049        0.277        0.136       52.675       25.320        0.231      333.100        2.194      864.930
01/02/2021  08:05:00      -58.792        8.016      -13.965       41.895       10.800       22.212     1755.218      116.637      493.393        0.304        0.118       59.336       28.116        0.225      333.201        2.360      864.947
01/02/2021  08:06:00      -72.732       26.771      -12.464       37.196       10.250       15.133     1383.565      105.056      229.014        0.394        0.086       77.502       19.562        0.064      333.035        2.086      864.971
01/02/2021  08:07:00      -24.818       -0.751      -12.049       47.096        5.262       20.439     2218.017       27.686      417.750        0.171        0.133       24.830       27.816        1.255      333.416        2.716      864.979
01/02/2021  08:08:00       -4.657      -12.524       -7.429       37.095        7.080       19.257     1376.059       50.127      370.831        0.101        0.090       13.361       25.365        3.604      333.559        2.956      864.979
01/02/2021  08:09:00        6.951      -42.161      -11.466       34.229       10.862       21.878     1171.641      117.978      478.626        0.186        0.088       42.730       24.156        0.320      333.559        2.954      864.970
01/02/2021  08:10:00       48.491      -42.869      -21.636       47.053       35.139       25.038     2214.027     1234.728      626.918        0.437        0.204       64.723       28.167        0.189      333.633        3.075      864.951
01/02/2021  08:11:00       82.897      -90.601      -27.649       32.843       19.253       16.891     1078.679      370.677      285.318        0.879        0.087      122.803       20.101        0.027      333.469        2.803      864.927
01/02/2021  08:12:00       61.691      -71.298      -23.305       37.281       36.583       25.826     1389.898     1338.347      666.983        0.641        0.170       94.283       19.417        0.042      333.444        2.763      864.919
01/02/2021  08:13:00        5.327      -28.638      -13.070       52.689       37.316       23.184     2776.134     1392.519      537.506        0.286        0.235       29.129       27.325        0.880      333.203        2.363      864.919
01/02/2021  08:14:00        8.545        5.422       -9.715       48.159       12.241       23.895     2319.304      149.833      570.949        0.162        0.152       10.120       31.023        9.398      333.141        2.262      864.940
01/02/2021  08:15:00      -20.548       34.515      -11.278       50.238       11.404       20.548     2523.884      130.058      422.212        0.241        0.154       40.169       28.835        0.515      333.070        2.143      864.963
01/02/2021  08:16:00      -18.660       30.260      -11.628       41.092        8.821       19.749     1688.518       77.813      390.013        0.178        0.108       35.551       26.111        0.539      333.207        2.370      864.975
01/02/2021  08:17:00       14.913       23.103       -6.814       38.489       13.889       17.702     1481.404      192.899      313.365        0.139        0.099       27.499       24.317        0.782      333.362        2.628      864.969
01/02/2021  08:18:00       50.095       51.019      -12.798       30.061       13.107       14.917      903.669      171.799      222.507        0.329        0.065       71.501       18.979        0.070      333.343        2.594      864.970
01/02/2021  08:19:00       30.169       15.898       -9.292       53.728       14.867       27.937     2886.668      221.022      780.498        0.257        0.194       34.101       36.516        1.147      333.486        2.832      864.989
01/02/2021  08:20:00       45.209       30.713      -12.349       56.272       30.244       28.985     3166.587      914.700      840.156        0.403        0.246       54.654       35.198        0.415      333.385        2.665      864.984
01/02/2021  08:21:00       44.254       13.332      -18.953       44.053       55.417       29.381     1940.633     3070.991      863.259        0.418        0.294       46.219       27.328        0.350      333.267        2.471      864.962
01/02/2021  08:22:00       48.476       -3.767      -12.900       49.884       51.810       31.322     2488.388     2684.294      981.098        0.434        0.308       48.623       32.739        0.453      333.311        2.543      864.941
01/02/2021  08:23:00       38.340      -10.952       -9.165       45.386       46.495       25.289     2059.861     2161.807      639.548        0.327        0.243       39.874       24.797        0.387      333.334        2.581      864.956
01/02/2021  08:24:00      141.313       35.371      -20.846       41.987       32.754       23.118     1762.897     1072.837      534.429        1.251        0.169      145.673       23.010        0.025      333.089        2.174      864.993
01/02/2021  08:25:00      118.373       23.375       -8.594       56.027       31.777       29.260     3139.011     1009.806      856.167        0.982        0.250      120.659       33.751        0.078      333.047        2.105      865.036
01/02/2021  08:26:00      151.208       34.023      -15.768       56.284       36.619       32.484     3167.872     1340.934     1055.218        1.492        0.278      154.988       32.871        0.045      332.990        2.012      865.058
01/02/2021  08:27:00      117.003       14.716      -13.330       70.961       44.066       37.950     5035.501     1941.853     1440.166        1.125        0.421      117.924       38.699        0.108      333.198        2.355      865.080
01/02/2021  08:28:00      142.817       25.055      -14.816       68.411       39.643       39.922     4680.125     1571.602     1593.736        1.454        0.392      144.998       42.348        0.085      333.171        2.312      865.096
01/02/2021  08:29:00      115.139       32.155      -22.240       62.356       44.064       33.097     3888.281     1941.599     1095.444        1.085        0.346      119.545       33.695        0.079      333.154        2.282      865.114
01/02/2021  08:30:00      124.958       51.630      -30.926       50.761       20.975       32.219     2576.696      439.970     1038.083        1.164        0.203      135.204       33.542        0.062      333.122        2.230      865.144
01/02/2021  08:31:00       41.442       24.593      -10.514       56.251       45.943       24.132     3164.196     2110.754      582.352        0.414        0.293       48.190       30.843        0.410      333.237        2.419      865.210
01/02/2021  08:32:00       -0.478      -39.653      -12.043       60.915       26.187       28.654     3710.670      685.763      821.025        0.347        0.261       39.656       36.221        0.834      333.354        2.614      865.297
01/02/2021  08:33:00       78.637       29.949      -20.202       56.634       21.590       26.826     3207.455      466.132      719.620        0.594        0.220       84.147       37.117        0.195      333.149        2.275      865.351
01/02/2021  08:34:00       92.268       59.202      -24.198       55.929       16.508       26.663     3128.038      272.528      710.912        0.836        0.206      109.628       37.053        0.114      333.072        2.145      865.373
01/02/2021  08:35:00      140.980       71.715      -19.930       45.088       17.219       24.411     2032.971      296.478      595.912        1.417        0.146      158.172       28.858        0.033      333.040        2.095      865.371
01/02/2021  08:36:00      117.262       48.312      -16.994       36.220       22.211       21.762     1311.911      493.309      473.605        0.933        0.114      126.825       22.730        0.032      333.064        2.134      865.382
01/02/2021  08:37:00       73.757       27.488      -15.247       48.804       32.557       26.835     2381.849     1059.937      720.105        0.529        0.208       78.712       29.016        0.136      333.304        2.530      865.402
01/02/2021  08:38:00      107.176       57.201      -28.382       54.677       15.155       26.155     2989.581      229.659      684.100        0.973        0.195      121.485       35.673        0.086      333.209        2.375      865.419
01/02/2021  08:39:00       96.414       33.155      -21.643       54.569       22.922       28.136     2977.787      525.404      791.647        0.758        0.215      101.956       37.536        0.136      333.333        2.578      865.419
01/02/2021  08:40:00       53.128      -18.235      -17.442       55.088       53.458       29.278     3034.671     2857.763      857.188        0.510        0.337       56.171       34.821        0.384      333.549        2.937      865.400
01/02/2021  08:41:00      102.294      -57.011      -31.231       66.957       36.498       35.432     4483.240     1332.122     1255.397        1.088        0.354      117.108       44.434        0.144      333.570        2.971      865.386
01/02/2021  08:42:00      100.365       -2.246      -37.029       63.177       69.486       29.604     3991.379     4828.281      876.370        1.057        0.485      100.390       31.927        0.101      333.567        2.966      865.388
01/02/2021  08:43:00       66.416        4.609       -6.190       63.710       48.296       39.368     4058.943     2332.519     1549.838        0.620        0.397       66.576       41.206        0.383      333.704        3.194      865.394
01/02/2021  08:44:00       53.759       -6.667      -15.869       62.951       47.012       33.324     3962.865     2210.173     1110.468        0.523        0.364       54.171       39.726        0.538      333.701        3.188      865.420
01/02/2021  08:45:00       91.094      -13.735      -11.500       72.442       43.071       38.302     5247.809     1855.124     1467.013        0.859        0.428       92.124       39.326        0.182      333.623        3.059      865.434
01/02/2021  08:46:00      113.957      -52.177      -33.883       74.985       70.192       43.466     5622.760     4926.934     1889.286        1.465        0.622      125.334       46.251        0.136      333.679        3.151      865.439
01/02/2021  08:47:00       67.360      -16.020      -26.543       63.796       65.381       39.663     4069.975     4274.698     1573.160        0.771        0.496       69.239       34.697        0.251      333.693        3.173      865.458
01/02/2021  08:48:00      114.505      -54.763      -31.166       67.642       70.049       38.546     4575.409     4906.818     1485.767        1.402        0.548      126.927       38.561        0.092      333.606        3.033      865.490
01/02/2021  08:49:00       94.032      -34.233      -20.290       77.085       59.926       48.148     5942.036     3591.104     2318.207        1.114        0.593      100.070       45.329        0.205      333.470        2.806      865.502
01/02/2021  08:50:00      135.939      -10.848      -20.968       81.664       56.868       48.147     6669.050     3233.935     2318.140        1.563        0.611      136.371       51.382        0.142      333.341        2.593      865.505
01/02/2021  08:51:00      118.815      -21.926       -9.690       89.564       58.085       50.346     8021.745     3373.826     2534.766        1.431        0.697      120.821       54.308        0.202      333.297        2.518      865.484
01/02/2021  08:52:00       90.830      -29.534      -13.823       63.709       49.685       32.798     4058.843     2468.558     1075.739        0.846        0.380       95.510       32.720        0.117      333.319        2.555      865.451
01/02/2021  08:53:00       78.919       -2.160      -17.502       74.479       61.394       44.313     5547.132     3769.210     1963.632        0.891        0.564       78.949       42.125        0.285      333.401        2.690      865.423
01/02/2021  08:54:00      111.854      -12.880      -11.927       93.981       72.356       53.538     8832.464     5235.326     2866.318        1.487        0.847      112.593       56.765        0.254      333.213        2.380      865.393
01/02/2021  08:55:00      102.457      -10.164      -11.375      106.120       61.659       56.477    11261.388     3801.880     3189.651        1.449        0.913      102.960       57.041        0.307      333.231        2.410      865.372
01/02/2021  08:56:00       57.138       -6.293        1.484       89.892       57.382       50.885     8080.583     3292.640     2589.249        0.863        0.698       57.484       57.928        1.016      333.370        2.639      865.364
01/02/2021  08:57:00       91.466       21.740      -18.486       68.515       60.387       39.338     4694.311     3646.552     1547.456        0.953        0.494       94.014       42.722        0.206      333.458        2.787      865.370
01/02/2021  08:58:00       79.279        6.602      -30.466       75.388       55.267       38.042     5683.378     3054.443     1447.210        0.872        0.509       79.554       43.187        0.295      333.431        2.741      865.362
01/02/2021  08:59:00       31.481      -33.355      -25.157       57.493       30.155       35.777     3305.490      909.336     1280.019        0.411        0.275       45.865       37.548        0.670      333.601        3.021      865.359
01/02/2021  09:00:00       88.611      -45.991      -24.315       62.627       34.087       31.197     3922.111     1161.947      973.234        0.831        0.303       99.836       36.733        0.135      333.640        3.088      865.353
01/02/2021  09:01:00      121.170     -104.403      -33.121       53.560       31.143       28.257     2868.627      969.868      798.438        1.566        0.232      159.945       32.986        0.043      333.464        2.796      865.328
01/02/2021  09:02:00      103.591     -114.417      -28.770       62.937       57.933       35.174     3961.110     3356.290     1237.229        1.660        0.428      154.345       42.363        0.075      333.447        2.765      865.321
01/02/2021  09:03:00      113.117     -177.346      -45.198       56.163       32.771       26.074     3154.290     1073.923      679.876        2.560        0.245      210.350       34.013        0.026      333.332        2.575      865.335
01/02/2021  09:04:00      101.817     -130.629      -38.730       65.557       24.125       25.905     4297.656      582.024      671.072        1.724        0.278      165.622       37.559        0.051      333.327        2.569      865.363
01/02/2021  09:05:00       93.480      -80.132      -33.906       62.303       43.724       32.934     3881.715     1911.816     1084.653        1.159        0.344      123.125       37.724        0.094      333.544        2.926      865.394
01/02/2021  09:06:00      114.288      -32.193      -27.637       68.933       67.006       49.756     4751.776     4489.745     2475.679        1.329        0.586      118.736       46.081        0.151      333.678        3.149      865.429
01/02/2021  09:07:00       95.163       -8.344      -27.502       83.771       66.906       45.977     7017.526     4476.375     2113.896        1.174        0.680       95.528       50.455        0.279      333.921        3.554      865.438
01/02/2021  09:08:00       78.291      -13.062      -21.882       65.890       57.585       42.245     4341.477     3316.010     1784.663        0.811        0.472       79.373       38.736        0.238      333.951        3.603      865.437
01/02/2021  09:09:00       76.226        8.807      -34.197       74.826       63.966       41.460     5598.984     4091.652     1718.962        0.923        0.570       76.733       35.901        0.219      333.885        3.493      865.426
01/02/2021  09:10:00       67.855      -29.883      -14.986       79.858       86.093       52.324     6377.336     7412.087     2737.826        1.112        0.826       74.144       53.376        0.518      334.000        3.684      865.430
01/02/2021  09:11:00      146.201       -2.779      -20.263       89.674       57.578       50.186     8041.425     3315.194     2518.677        1.783        0.694      146.227       54.760        0.140      333.486        2.832      865.457
01/02/2021  09:12:00       91.850       -9.399      -21.327       69.616       67.610       48.710     4846.440     4571.131     2372.711        1.038        0.590       92.329       41.460        0.202      333.540        2.922      865.479
01/02/2021  09:13:00      115.624      -61.912      -22.254       54.131       33.967       31.404     2930.143     1153.725      986.213        1.138        0.254      131.157       33.468        0.065      333.454        2.779      865.487
01/02/2021  09:14:00      119.711       -9.088      -19.609       83.669       41.456       40.887     7000.447     1718.630     1671.753        1.259        0.520      120.055       37.486        0.097      333.702        3.190      865.494
01/02/2021  09:15:00      117.353        1.680      -19.414       70.269       57.687       49.841     4937.763     3327.828     2484.132        1.245        0.537      117.365       45.619        0.151      333.822        3.388      865.503
01/02/2021  09:16:00      122.621      -12.265      -32.680       80.349       58.037       52.116     6456.003     3368.269     2716.126        1.439        0.627      123.233       49.607        0.162      333.794        3.342      865.501
01/02/2021  09:17:00      132.904      -20.334      -30.679       85.205       64.593       50.802     7259.973     4172.274     2580.857        1.651        0.701      134.450       56.053        0.174      333.679        3.153      865.484
01/02/2021  09:18:00      109.061       -7.172      -20.849       74.320       52.442       41.925     5523.417     2750.141     1757.719        1.120        0.502      109.297       44.313        0.164      333.609        3.038      865.493
01/02/2021  09:19:00      167.316       27.751      -18.581       70.191       40.167       36.701     4926.785     1613.383     1346.938        1.850        0.394      169.602       40.001        0.056      333.512        2.874      865.541
01/02/2021  09:20:00       95.014       -1.681      -18.009       88.340       45.862       40.485     7803.890     2103.299     1639.007        1.045        0.577       95.029       51.919        0.299      333.761        3.286      865.580
01/02/2021  09:21:00      122.918       33.451      -17.705       71.393       35.309       31.608     5096.936     1246.730      999.090        1.194        0.367      127.389       40.391        0.101      333.638        3.084      865.617
01/02/2021  09:22:00       62.222        5.153      -17.049       61.331       49.264       44.704     3761.541     2426.983     1998.473        0.619        0.409       62.435       38.021        0.371      333.923        3.557      865.625
01/02/2021  09:23:00      102.452        2.442       -9.432       70.709       43.491       37.606     4999.831     1891.470     1414.183        0.945        0.415      102.481       42.010        0.168      333.718        3.216      865.640
01/02/2021  09:24:00       89.961      -14.093      -24.797       70.710       56.997       39.155     4999.965     3248.651     1533.085        0.934        0.489       91.058       41.473        0.207      333.996        3.677      865.704
01/02/2021  09:25:00       98.120      -17.380      -38.234       62.711       50.524       35.650     3932.706     2552.666     1270.925        0.957        0.388       99.648       35.655        0.128      333.968        3.630      865.735
01/02/2021  09:26:00       74.799      -33.287      -40.474       53.872       44.834       27.869     2902.139     2010.128      776.692        0.701        0.284       81.872       30.176        0.136      333.798        3.349      865.725
01/02/2021  09:27:00       85.143      -27.188      -34.900       53.887       42.481       26.850     2903.802     1804.616      720.919        0.732        0.271       89.379       30.018        0.113      333.701        3.188      865.739
01/02/2021  09:28:00       97.856        5.107      -29.491       49.811       46.756       32.442     2481.108     2186.111     1052.497        0.809        0.286       97.990       28.276        0.083      333.727        3.232      865.749
01/02/2021  09:29:00      106.192      -15.549      -25.690       59.413       34.943       28.904     3529.959     1221.017      835.466        0.888        0.279      107.324       36.317        0.115      333.661        3.123      865.752
01/02/2021  09:30:00       89.086       10.978      -23.500       51.677       41.890       31.672     2670.504     1754.804     1003.126        0.702        0.271       89.760       35.795        0.159      333.770        3.303      865.763
01/02/2021  09:31:00       83.428       12.570      -24.440       54.666       34.040       28.145     2988.381     1158.721      792.158        0.633        0.247       84.369       33.323        0.156      333.797        3.348      865.809
01/02/2021  09:32:00       44.893       19.559      -17.568       51.896       37.350       25.708     2693.197     1395.005      660.925        0.373        0.237       48.968       30.820        0.396      333.881        3.486      865.858
01/02/2021  09:33:00       39.907       50.182       -6.258       50.311       25.861       28.526     2531.203      668.776      813.732        0.408        0.201       64.116       33.054        0.266      333.897        3.515      865.928
01/02/2021  09:34:00       40.252       -9.627       -4.712       52.409       62.819       33.800     2746.728     3946.211     1142.440        0.478        0.392       41.388       35.161        0.722      334.121        3.883      865.982
01/02/2021  09:35:00       82.724      -22.022      -32.848       61.830       32.181       28.859     3822.888     1035.645      832.837        0.705        0.285       85.605       34.991        0.167      334.267        4.126      865.995
01/02/2021  09:36:00       81.194      -57.346      -26.439       55.997       25.897       26.819     3135.656      670.634      719.277        0.755        0.226       99.403       33.696        0.115      333.967        3.628      865.970
01/02/2021  09:37:00       -4.547      -45.527       -7.180       58.737       35.248       23.561     3450.011     1242.434      555.118        0.370        0.262       45.754       23.177        0.257      334.197        4.011      865.934
01/02/2021  09:38:00      -41.704      -34.993       -4.494       26.833       31.091       20.247      719.993      966.625      409.932        0.254        0.105       54.440       12.505        0.053      334.173        3.971      865.889
01/02/2021  09:39:00      -55.535        5.198        3.867       44.911       28.783       18.819     2017.001      828.455      354.157        0.316        0.160       55.778        9.437        0.029      334.208        4.030      865.875
01/02/2021  09:40:00      -84.923      -30.363        0.840       57.046       35.765       26.233     3254.266     1279.165      688.188        0.668        0.261       90.187       22.993        0.065      334.130        3.899      865.888
01/02/2021  09:41:00     -105.672        3.775       -0.327       59.063       41.875       27.377     3488.477     1753.485      749.487        0.858        0.300      105.739       25.100        0.056      334.082        3.820      865.919
01/02/2021  09:42:00     -108.449       -0.475       -3.105       46.606       34.790       25.702     2172.130     1210.354      660.575        0.791        0.202      108.450       20.988        0.037      333.974        3.642      865.961
01/02/2021  09:43:00      -87.328      -10.490       -4.742       29.746       30.295       14.564      884.833      917.766      212.106        0.489        0.101       87.956       11.564        0.017      334.018        3.714      865.982
01/02/2021  09:44:00      -83.682       -3.873       -7.386       27.968       24.304       14.672      782.185      590.704      215.280        0.433        0.079       83.771       11.870        0.020      334.074        3.807      865.974
01/02/2021  09:45:00      -99.368      -51.239       -9.674       41.566       42.947       21.158     1727.716     1844.476      447.682        0.831        0.201      111.801       19.481        0.030      334.060        3.784      865.957
01/02/2021  09:46:00      -79.770      -92.528       -6.837       36.033       36.564       27.385     1298.351     1336.937      749.923        0.918        0.169      122.166       18.476        0.023      334.125        3.893      865.940
01/02/2021  09:47:00      -97.611      -56.677       -6.373       46.071       39.640       28.175     2122.535     1571.323      793.806        0.863        0.224      112.872       18.240        0.026      334.185        3.991      865.899
01/02/2021  09:48:00      -57.911      -37.190      -12.557       36.804       30.090       20.704     1354.515      905.397      428.649        0.379        0.134       68.825       14.872        0.047      334.310        4.199      865.840
01/02/2021  09:49:00      -23.312      -12.297       -7.177       26.006       36.792       26.918      676.301     1353.672      724.604        0.175        0.138       26.356       20.684        0.616      334.438        4.412      865.805
01/02/2021  09:50:00      -35.996       11.029       -2.709       33.140       29.187       21.421     1098.247      851.881      458.848        0.192        0.120       37.647       10.875        0.083      334.321        4.217      865.812
01/02/2021  09:51:00      -27.819       -6.254       11.546       42.388       39.341       30.630     1796.719     1547.706      938.198        0.261        0.214       28.513       13.242        0.216      334.560        4.614      865.854
01/02/2021  09:52:00      -62.517      -19.162        8.280       62.195       34.200       29.180     3868.263     1169.623      851.445        0.512        0.294       65.388       28.321        0.188      334.652        4.767      865.915
01/02/2021  09:53:00      -50.121      -39.941       -9.876       41.995       43.604       25.508     1763.616     1901.266      650.649        0.426        0.216       64.089       18.131        0.080      334.603        4.685      865.974
01/02/2021  09:54:00      -45.786       -2.013       -0.645       41.212       41.842       24.836     1698.420     1750.730      616.840        0.308        0.203       45.831       17.379        0.144      334.627        4.725      866.019
01/02/2021  09:55:00      -21.339      -59.028      -19.236       62.297       53.118       26.469     3880.955     2821.469      700.625        0.585        0.370       62.767       33.282        0.281      334.696        4.839      866.047
01/02/2021  09:56:00      -68.263      -15.451      -12.256       40.894       24.126       20.394     1672.300      582.047      415.905        0.386        0.134       69.990        9.150        0.017      334.658        4.774      866.063
01/02/2021  09:57:00      -37.571        3.451       -9.661       30.007       36.331       24.484      900.400     1319.936      599.452        0.217        0.141       37.729       21.670        0.330      334.720        4.879      866.086
01/02/2021  09:58:00        8.248       -2.018       -4.663       33.784       27.283       23.173     1141.347      744.377      536.980        0.126        0.121        8.491       10.279        1.465      334.776        4.974      866.109
01/02/2021  09:59:00        3.357      -23.678      -14.878       32.627       32.586       16.899     1064.496     1061.872      285.574        0.160        0.121       23.915       13.952        0.340      334.775        4.971      866.148
01/02/2021  10:00:00      -42.367      -43.755       -6.547       43.174       56.431       27.179     1863.995     3184.407      738.682        0.477        0.289       60.905       20.982        0.119      334.594        4.670      866.199
01/02/2021  10:01:00     -102.744      -27.836       -6.016       72.362       36.657       31.508     5236.319     1343.705      992.732        0.947        0.379      106.448       26.966        0.064      334.570        4.630      866.252
01/02/2021  10:02:00      -97.370      -17.025        0.011       47.457       37.595       22.803     2252.171     1413.353      519.991        0.698        0.209       98.847       16.590        0.028      334.614        4.703      866.302
01/02/2021  10:03:00     -154.146      -23.299      -17.099       41.359       34.911       26.594     1710.595     1218.748      707.239        1.412        0.182      155.897        5.764        0.001      334.434        4.403      866.332
01/02/2021  10:04:00      -94.418       11.038       -2.565       32.444       34.166       21.647     1052.617     1167.318      468.572        0.587        0.134       95.061       19.875        0.044      334.502        4.518      866.365
01/02/2021  10:05:00     -172.403       -9.023       -9.001       75.463       39.910       28.956     5694.684     1592.786      838.468        1.900        0.406      172.639       16.406        0.009      334.561        4.613      866.382
01/02/2021  10:06:00      -90.512        4.820       10.488       70.420       52.859       41.459     4958.987     2794.096     1718.876        0.890        0.474       90.640       41.386        0.208      334.756        4.939      866.394
01/02/2021  10:07:00      -90.895       44.246        0.958       54.159       54.481       21.326     2933.150     2968.228      454.791        0.829        0.318      101.092       22.296        0.049      334.711        4.864      866.399
01/02/2021  10:08:00      -64.068       41.827       -4.747       39.846       51.801       15.268     1587.687     2683.337      233.097        0.519        0.225       76.513        8.427        0.012      334.758        4.943      866.397
01/02/2021  10:09:00      -30.637      -22.622        3.559       41.236       24.345       24.402     1700.368      592.692      595.471        0.218        0.144       38.084       20.078        0.278      334.959        5.276      866.419
01/02/2021  10:10:00     -141.040      -41.850      -10.481       80.918       55.241       34.614     6547.789     3051.563     1198.151        1.627        0.540      147.118       38.424        0.068      334.676        4.804      866.443
01/02/2021  10:11:00     -157.857      -40.361        4.791       87.631       64.354       46.676     7679.248     4141.458     2178.671        2.028        0.700      162.935       45.166        0.077      334.713        4.865      866.474
01/02/2021  10:12:00     -149.765      -28.837       -3.805       57.326       43.575       31.425     3286.250     1898.822      987.561        1.472        0.309      152.516       26.332        0.030      334.760        4.944      866.469
01/02/2021  10:13:00     -100.497      -16.590       -2.657       40.733       37.755       27.012     1659.188     1425.454      729.673        0.710        0.191      101.857       24.063        0.056      334.761        4.947      866.432
01/02/2021  10:14:00      -76.031      -14.089       -7.615       45.843       32.333       21.822     2101.596     1045.442      476.216        0.483        0.181       77.325       17.018        0.048      334.854        5.101      866.365
01/02/2021  10:15:00       -5.075      -25.287        1.901       21.413       17.844       18.670      458.528      318.420      348.575        0.090        0.056       25.792       14.670        0.324      334.931        5.231      866.315
01/02/2021  10:16:00      -75.698      -31.496      -10.852       47.142       27.838       24.367     2222.362      774.933      593.757        0.521        0.180       81.989       18.056        0.048      334.836        5.072      866.296
01/02/2021  10:17:00      -74.598      -10.093       -4.977       29.094       30.305       18.904      846.468      918.392      357.366        0.391        0.106       75.278       16.355        0.047      334.844        5.084      866.327
01/02/2021  10:18:00      -68.189       -3.611       -5.344       47.420       33.778       19.731     2248.666     1140.984      389.318        0.423        0.189       68.285       16.899        0.061      335.020        5.377      866.358
01/02/2021  10:19:00      -16.068      -26.069       -1.991       37.647       23.753       19.322     1417.283      564.219      373.339        0.165        0.118       30.623       15.194        0.246      335.150        5.594      866.388
01/02/2021  10:20:00      -35.783      -10.762       -6.060       34.838       28.737       19.129     1213.707      825.815      365.910        0.192        0.120       37.366       14.604        0.153      335.129        5.557      866.403
01/02/2021  10:21:00      -16.835       -9.211       -2.786       36.807       31.451       18.969     1354.741      989.152      359.837        0.154        0.135       19.190       14.729        0.589      335.171        5.629      866.429
01/02/2021  10:22:00      -10.371      -17.285       -7.702       46.066       28.529       19.867     2122.083      813.882      394.712        0.190        0.167       20.158       19.372        0.924      335.224        5.716      866.443
01/02/2021  10:23:00      -18.462        0.703       -0.395       29.555       10.374       16.049      873.488      107.624      257.561        0.079        0.062       18.475       17.098        0.856      335.122        5.547      866.434
01/02/2021  10:24:00        0.119        3.235       -8.933       21.109       11.338       10.870      445.583      128.553      118.162        0.039        0.035        3.237       12.673       15.329      335.153        5.598      866.398
01/02/2021  10:25:00      -22.965       15.929       -4.822       27.709       12.154       11.652      767.780      147.715      135.773        0.093        0.053       27.948       10.559        0.143      335.096        5.503      866.356
01/02/2021  10:26:00      -51.200       28.058       -8.809       16.144       16.576       14.511      260.629      274.751      210.557        0.212        0.037       58.384        7.315        0.016      335.076        5.471      866.334
01/02/2021  10:27:00      -56.870       38.434       -7.372       31.813       22.278       16.774     1012.089      496.315      281.368        0.328        0.089       68.640        4.183        0.004      335.154        5.600      866.319
01/02/2021  10:28:00      -36.172       97.309       -7.724       32.859       28.761       22.203     1079.715      827.198      492.954        0.662        0.120      103.815       11.554        0.012      335.263        5.781      866.321
01/02/2021  10:29:00       -0.826      111.405       -4.048       27.513       38.211       23.487      756.969     1460.090      551.626        0.760        0.138      111.408       17.448        0.025      335.286        5.818      866.319
01/02/2021  10:30:00        3.308        3.771        3.684       39.118       26.610       20.029     1530.203      708.086      401.161        0.134        0.132        5.016        9.855        3.860      335.580        6.309      866.339
01/02/2021  10:31:00       15.577       35.744      -12.310       23.898       15.934       19.410      571.103      253.881      376.740        0.144        0.060       38.991       16.419        0.177      335.553        6.262      866.362
01/02/2021  10:32:00       -2.684        9.303       -8.260       30.268       14.857       12.991      916.157      220.742      168.777        0.073        0.065        9.683        3.092        0.102      335.561        6.276      866.365
01/02/2021  10:33:00      -30.373      -34.201      -12.348       21.155       15.470       11.260      447.524      239.320      126.781        0.153        0.041       45.741        7.595        0.028      335.466        6.118      866.378
01/02/2021  10:34:00      -37.166      -12.753       -8.705       22.082       21.874       15.479      487.622      478.486      239.592        0.141        0.060       39.293       10.235        0.068      335.478        6.137      866.399
01/02/2021  10:35:00      -46.385       -1.480       -7.956       32.308       21.728       16.095     1043.829      472.122      259.060        0.200        0.089       46.409        8.192        0.031      335.539        6.239      866.415
01/02/2021  10:36:00      -42.489       13.770       -3.635       31.172       13.482       10.747      971.695      181.761      115.498        0.164        0.063       44.664       12.094        0.073      335.479        6.139      866.426
01/02/2021  10:37:00       10.246       25.909      -11.742       38.191       27.628       18.650     1458.561      763.306      347.817        0.174        0.128       27.862       15.317        0.302      335.720        6.541      866.422
01/02/2021  10:38:00       20.966      -21.312       -9.419       38.215       51.861       28.244     1460.368     2689.571      797.737        0.296        0.247       29.896       19.675        0.433      336.099        7.173      866.404
01/02/2021  10:39:00       67.116       14.337      -17.154       46.355       48.268       32.219     2148.801     2329.822     1038.054        0.526        0.276       68.630       22.584        0.108      336.025        7.051      866.375
01/02/2021  10:40:00      113.255        4.775      -18.345       47.104       43.403       26.320     2218.765     1883.856      692.734        0.899        0.240      113.355       19.242        0.029      335.828        6.723      866.329
01/02/2021  10:41:00      109.830       28.256      -12.299       40.447       36.754       23.449     1635.959     1350.865      549.861        0.827        0.177      113.406       23.019        0.041      335.696        6.502      866.295
01/02/2021  10:42:00       85.239       36.644      -20.581       36.524       25.341       18.438     1333.984      642.169      339.976        0.567        0.116       92.782       11.422        0.015      335.668        6.454      866.301
01/02/2021  10:43:00       42.698       26.159       -7.277       25.897       30.758       18.440      670.671      946.081      340.038        0.226        0.098       50.074        9.442        0.036      335.729        6.556      866.333
01/02/2021  10:44:00       16.581        6.808        2.141       16.023       24.102       12.951      256.726      580.924      167.723        0.067        0.050       17.924        8.007        0.200      335.981        6.977      866.341
01/02/2021  10:45:00        1.478        8.122        5.213       20.935       26.161       16.658      438.287      684.422      277.488        0.075        0.070        8.256        7.399        0.803      336.254        7.431      866.335
01/02/2021  10:46:00       -9.317      -50.372       -4.108       34.783       29.631       25.479     1209.851      878.006      649.156        0.269        0.137       51.226       14.635        0.082      336.334        7.566      866.322
01/02/2021  10:47:00       58.664      -26.227      -20.185       61.885       48.467       38.989     3829.714     2349.077     1520.141        0.612        0.385       64.259       37.569        0.342      336.175        7.299      866.346
01/02/2021  10:48:00       85.068      -27.493      -22.902       47.398       62.098       29.082     2246.616     3856.121      845.787        0.773        0.347       89.400       23.018        0.066      336.055        7.101      866.377
01/02/2021  10:49:00       57.566       10.873      -10.463       68.771       60.949       47.580     4729.469     3714.830     2263.891        0.712        0.535       58.584       45.371        0.600      336.128        7.222      866.397
01/02/2021  10:50:00       74.536        8.735      -11.367       62.217       69.491       48.007     3870.938     4829.040     2304.646        0.838        0.550       75.046       39.693        0.280      336.126        7.216      866.407
01/02/2021  10:51:00       90.328        3.126        1.175       66.473       56.899       42.513     4418.664     3237.464     1807.329        0.881        0.473       90.382       30.347        0.113      336.178        7.305      866.400
01/02/2021  10:52:00       86.409      -26.536       -6.961       77.689       48.818       41.248     6035.633     2383.228     1701.409        0.917        0.506       90.391       47.866        0.280      336.111        7.193      866.373
01/02/2021  10:53:00      160.021       -2.041      -32.172       58.941       40.467       30.557     3473.987     1637.577      933.754        1.634        0.302      160.034       28.588        0.032      335.949        6.923      866.349
01/02/2021  10:54:00      117.950      -11.813      -21.092       47.623       56.710       27.424     2267.979     3216.039      752.067        1.037        0.312      118.540        8.444        0.005      336.037        7.069      866.334
01/02/2021  10:55:00       71.949      -40.806      -16.480       69.666       36.836       28.615     4853.312     1356.908      818.819        0.707        0.351       82.715       30.344        0.135      336.190        7.326      866.319
01/02/2021  10:56:00       66.623      -38.472      -32.713       50.930       63.978       40.279     2593.838     4093.181     1622.422        0.765        0.415       76.934       33.699        0.192      336.368        7.624      866.320
01/02/2021  10:57:00      122.029        1.101      -19.415       87.606       63.027       39.357     7674.755     3972.372     1548.979        1.423        0.660      122.034       32.487        0.071      336.144        7.248      866.314
01/02/2021  10:58:00      112.836       -0.056      -24.896       72.800       83.491       37.655     5299.852     6970.829     1417.880        1.352        0.684      112.836       30.328        0.072      336.070        7.124      866.332
01/02/2021  10:59:00       55.399      -16.294       -2.821       90.526       54.961       35.899     8194.968     3020.683     1288.741        0.792        0.625       57.745       42.473        0.541      335.948        6.922      866.363
01/02/2021  11:00:00       11.428      -28.513        1.279       45.691       42.158       39.992     2087.680     1777.261     1599.384        0.320        0.273       30.718       34.955        1.295      336.157        7.270      866.390
01/02/2021  11:01:00       41.882      -27.381       -2.118       41.733       48.437       33.063     1741.603     2346.167     1093.130        0.384        0.259       50.038       29.273        0.342      335.990        6.991      866.417
01/02/2021  11:02:00       -9.208      -36.010       -1.588       34.182       30.222       17.920     1168.390      913.348      321.110        0.189        0.120       37.168       17.630        0.225      336.109        7.191      866.441
01/02/2021  11:03:00       49.928       18.918       -8.468       49.776       38.138       19.916     2477.684     1454.529      396.635        0.362        0.216       53.392       14.061        0.069      335.988        6.988      866.463
01/02/2021  11:04:00      114.309       65.218      -15.158       22.199       24.635       14.721      492.814      606.905      216.714        0.943        0.066      131.605       12.401        0.009      335.738        6.574      866.478
01/02/2021  11:05:00      125.578       38.084      -13.497       35.548       35.176       19.820     1263.664     1237.349      392.824        1.015        0.145      131.226       13.707        0.011      335.813        6.696      866.489
01/02/2021  11:06:00       85.507      -31.136      -16.054       32.141       31.725       28.845     1033.029     1006.447      832.042        0.570        0.144       91.000       21.862        0.058      335.989        6.990      866.499
01/02/2021  11:07:00       29.312       16.431       -6.510       33.228       45.515       23.272     1104.116     2071.583      541.597        0.244        0.186       33.603       16.225        0.233      336.248        7.421      866.515
01/02/2021  11:08:00       19.539        2.771      -23.832       33.380       49.637       30.434     1114.199     2463.864      926.210        0.273        0.225       19.734       20.106        1.038      336.238        7.405      866.526
01/02/2021  11:09:00       45.337        9.326      -19.947       34.771       56.047       27.286     1208.997     3141.256      744.537        0.382        0.255       46.286       18.789        0.165      336.169        7.289      866.513
01/02/2021  11:10:00       96.230      -20.964      -14.110       73.775       45.619       39.298     5442.792     2081.060     1544.299        0.948        0.453       98.487       31.074        0.100      335.989        6.990      866.481
01/02/2021  11:11:00       56.735       16.596      -11.286       68.312       63.092       49.652     4666.499     3980.587     2465.313        0.736        0.556       59.112       42.304        0.512      335.995        7.000      866.458
01/02/2021  11:12:00       59.967        5.894       -4.856       81.663       43.641       42.269     6668.791     1904.508     1786.681        0.700        0.518       60.256       44.629        0.549      335.971        6.960      866.433
01/02/2021  11:13:00       78.500      -22.432       -1.559       75.005       47.167       39.654     5625.715     2224.746     1572.473        0.804        0.471       81.643       40.107        0.241      335.969        6.956      866.420
01/02/2021  11:14:00       99.184       -0.099       -6.295       41.043       37.184       29.140     1684.540     1382.616      849.124        0.690        0.196       99.184       27.087        0.075      335.970        6.959      866.398
01/02/2021  11:15:00       84.534       -9.413       -6.411       47.364       45.319       31.348     2243.304     2053.795      982.670        0.628        0.264       85.056       27.994        0.108      336.108        7.189      866.347
01/02/2021  11:16:00      153.715      -49.292      -24.013       55.814       37.373       26.406     3115.198     1396.758      697.266        1.592        0.260      161.425       13.054        0.007      336.021        7.040      866.286
01/02/2021  11:17:00      137.112      -34.706      -27.867       63.809       57.010       38.732     4071.540     3250.186     1500.139        1.480        0.441      141.436       30.054        0.045      336.224        7.382      866.210
01/02/2021  11:18:00       82.640        1.453      -11.623       63.062       54.894       44.041     3976.825     3013.348     1939.621        0.795        0.446       82.653       36.289        0.193      336.218        7.371      866.157
01/02/2021  11:19:00       42.869       -1.632       -2.414       44.300       44.925       30.710     1962.455     2018.244      943.111        0.338        0.246       42.900       13.259        0.096      336.186        7.317      866.182
01/02/2021  11:20:00       62.448      -43.142       -6.474       38.010       24.813       21.342     1444.734      615.673      455.490        0.416        0.126       75.901       16.257        0.046      336.028        7.056      866.205
01/02/2021  11:21:00       20.475      -18.518        1.868       38.174       47.459       17.551     1457.289     2252.385      308.037        0.239        0.201       27.607       21.208        0.590      336.170        7.291      866.227
01/02/2021  11:22:00       29.234        3.155        1.231       41.435       41.975       20.898     1716.862     1761.907      436.742        0.239        0.196       29.404       20.078        0.466      336.225        7.384      866.209
01/02/2021  11:23:00       42.233       19.446        0.305       59.663       40.624       24.292     3559.621     1650.282      590.123        0.398        0.290       46.495       24.512        0.278      336.180        7.308      866.176
01/02/2021  11:24:00       39.557        4.948       -3.031       42.881       20.915       21.653     1838.774      437.424      468.837        0.217        0.137       39.865       22.142        0.308      336.057        7.102      866.133
01/02/2021  11:25:00       12.204       -7.057        8.383       37.144       31.809       26.039     1379.643     1011.804      678.031        0.167        0.153       14.097       18.449        1.713      336.393        7.665      866.061
01/02/2021  11:26:00       36.051      -39.294      -29.434       52.467       65.454       37.852     2752.755     4284.189     1432.809        0.609        0.423       53.326       27.346        0.263      336.451        7.762      865.987
01/02/2021  11:27:00       29.878       -9.841      -10.853       53.108       52.559       30.822     2820.502     2762.401      949.981        0.382        0.327       31.457       19.099        0.369      336.378        7.640      865.938
01/02/2021  11:28:00       22.120        8.982       -9.191       46.324       47.537       32.642     2145.937     2259.723     1065.514        0.306        0.274       23.875       24.231        1.030      336.475        7.803      865.928
01/02/2021  11:29:00       48.548      -43.472      -14.882       53.608       72.035       27.501     2873.834     5188.978      756.310        0.664        0.441       65.167       23.686        0.132      336.421        7.710      865.928
01/02/2021  11:30:00       76.520     -114.227      -27.757       45.414       47.973       30.254     2062.445     2301.364      915.299        1.248        0.264      137.489       23.394        0.029      336.268        7.455      865.923
01/02/2021  11:31:00       89.451       24.693      -12.043       57.441       60.020       25.382     3299.418     3602.371      644.229        0.815        0.377       92.796       25.953        0.078      336.292        7.495      865.929
01/02/2021  11:32:00       79.110       68.297      -13.387       31.142       16.644       16.255      969.825      277.033      264.229        0.631        0.076      104.513       15.547        0.022      336.011        7.025      865.938
01/02/2021  11:33:00       42.006       38.732       -7.393       26.550       28.935       15.689      704.911      837.210      246.153        0.255        0.089       57.137       15.546        0.074      336.066        7.117      865.939
01/02/2021  11:34:00       23.303       12.278        0.627       32.925       26.106       15.626     1084.067      681.522      244.163        0.135        0.100       26.340       19.187        0.531      336.291        7.493      865.943
01/02/2021  11:35:00       36.715       51.156      -14.128       34.008       24.120       23.424     1156.525      581.769      548.673        0.323        0.114       62.968       11.512        0.033      336.261        7.443      865.945
01/02/2021  11:36:00       75.798       68.181       -9.156       36.239       22.638       20.803     1313.290      512.498      432.754        0.637        0.113      101.951       17.138        0.028      336.193        7.330      865.948
01/02/2021  11:37:00       45.957       31.118      -12.716       26.451       10.378       12.722      699.648      107.703      161.849        0.211        0.048       55.501       15.896        0.082      336.071        7.127      865.930
01/02/2021  11:38:00       14.602        5.134       -7.387       30.547        8.874       17.750      933.144       78.751      315.061        0.081        0.066       15.478       21.540        1.937      336.448        7.756      865.923
01/02/2021  11:39:00       13.267       14.823       -3.371       13.486        8.463       14.124      181.874       71.618      199.491        0.043        0.023       19.893        7.034        0.125      336.380        7.644      865.927
01/02/2021  11:40:00       -1.436       19.154       -7.708       29.794       11.087       11.317      887.682      122.919      128.082        0.078        0.057       19.208        9.534        0.246      336.344        7.584      865.939
01/02/2021  11:41:00       -6.487      -16.056       -6.445       19.778       27.982       16.433      391.177      782.970      270.028        0.089        0.072       17.317        9.969        0.331      336.669        8.127      865.933
01/02/2021  11:42:00      -24.176      -58.391      -14.185       40.415       23.185       26.967     1633.353      537.526      727.207        0.355        0.145       63.198       12.299        0.038      336.655        8.104      865.926
01/02/2021  11:43:00       18.910      -53.180       -4.852       48.918       32.059       31.952     2392.930     1027.778     1020.962        0.382        0.222       56.442       31.789        0.317      336.626        8.055      865.937
01/02/2021  11:44:00      -49.212      -10.867       -9.510       21.973       26.636       14.582      482.805      709.474      212.630        0.202        0.070       50.397       12.655        0.063      336.501        7.845      865.957
01/02/2021  11:45:00      -12.787       11.392        3.996       45.463       21.384       19.239     2066.889      457.270      370.142        0.160        0.145       17.126       20.481        1.430      336.551        7.930      865.980
01/02/2021  11:46:00        1.553       -2.399       -1.822       29.396       19.957       17.805      864.119      398.298      317.026        0.080        0.079        2.858       10.636       13.854      336.729        8.226      865.991
01/02/2021  11:47:00        5.218      -17.591        3.587       24.583       26.471       22.461      604.345      700.727      504.498        0.108        0.090       18.349       20.312        1.225      337.031        8.731      866.005
01/02/2021  11:48:00       54.385      -27.023      -16.029       34.630       36.026       16.717     1199.246     1297.874      279.454        0.336        0.139       60.729       16.092        0.070      336.652        8.097      866.009
01/02/2021  11:49:00      -17.665      -13.226        0.558       29.632       28.778       22.038      878.061      828.152      485.658        0.134        0.110       22.068       15.101        0.468      336.655        8.102      866.015
01/02/2021  11:50:00       -3.361      -13.115        4.355       16.936       22.527       14.599      286.812      507.458      213.122        0.060        0.050       13.538       11.326        0.700      336.851        8.431      866.006
01/02/2021  11:51:00      -49.966      -19.561       -1.440       27.068       28.985       18.703      732.681      840.155      349.813        0.240        0.096       53.659       10.715        0.040      336.662        8.114      865.990
01/02/2021  11:52:00      -67.636      -45.812       -5.901       24.486       43.255       19.318      599.583     1871.028      373.189        0.478        0.142       81.690       20.156        0.061      336.564        7.951      865.954
01/02/2021  11:53:00      -76.739      -33.200       -4.818       33.939       39.706       24.528     1151.844     1576.581      601.632        0.517        0.167       83.613       19.314        0.053      336.653        8.100      865.925
01/02/2021  11:54:00      -35.822      -21.831        6.385       41.985       30.627       17.811     1762.736      937.991      317.229        0.241        0.151       41.950       13.737        0.107      336.761        8.280      865.896
01/02/2021  11:55:00      -17.573      -14.806       -9.070       34.174       30.923       20.071     1167.867      956.231      402.844        0.157        0.126       22.979       13.984        0.370      336.892        8.498      865.866
01/02/2021  11:56:00       -7.812      -26.490      -13.941       43.033       41.593       20.978     1851.804     1729.962      440.075        0.249        0.201       27.618       23.158        0.703      336.835        8.402      865.849
01/02/2021  11:57:00       32.564       -0.614        4.559       39.350       33.196       26.537     1548.449     1101.969      704.234        0.222        0.168       32.570       25.221        0.600      336.963        8.617      865.822
01/02/2021  11:58:00      -31.077       23.154      -11.325       24.114       25.664       14.511      581.500      658.643      210.556        0.154        0.073       38.755        8.427        0.047      336.790        8.328      865.810
01/02/2021  11:59:00       -3.714       41.409       -5.828       35.242       23.693       19.306     1241.989      561.351      372.721        0.197        0.109       41.575        7.338        0.031      336.827        8.391      865.801
01/02/2021  12:00:00       76.346        6.290      -19.520       41.796       38.281       19.542     1746.937     1465.438      381.881        0.492        0.180       76.604       20.501        0.072      336.790        8.328      865.796
01/02/2021  12:01:00       66.898      -17.259      -20.947       50.151       35.984       25.420     2515.131     1294.869      646.168        0.483        0.223       69.089       23.359        0.114      336.830        8.393      865.795
01/02/2021  12:02:00       20.236        8.319      -12.690       27.533       59.035       25.300      758.050     3485.158      640.109        0.276        0.244       21.880       19.649        0.806      337.069        8.794      865.805
01/02/2021  12:03:00       -0.945       14.140       12.535       22.750       52.978       21.742      517.575     2806.658      472.732        0.208        0.190       14.172       14.838        1.096      337.153        8.935      865.828
01/02/2021  12:04:00        3.615      -16.954       -4.598       26.958       28.290       17.528      726.736      800.346      307.241        0.108        0.092       17.335       16.070        0.859      337.096        8.839      865.825
01/02/2021  12:05:00       18.200        5.029        2.566       35.754       49.656       22.944     1278.346     2465.753      526.429        0.232        0.214       18.882       15.941        0.713      337.164        8.953      865.816
01/02/2021  12:06:00       70.692      -32.226      -13.318       35.383       36.957       30.263     1251.983     1365.801      915.863        0.487        0.177       77.691       22.324        0.083      337.021        8.714      865.764
01/02/2021  12:07:00      105.188     -186.225      -40.152       37.327       28.692       20.613     1393.338      823.220      424.890        2.500        0.132      213.879       19.541        0.008      336.741        8.245      865.703
01/02/2021  12:08:00       97.781     -155.647      -34.271       19.940       26.269       13.430      397.600      690.069      180.356        1.811        0.063      183.813        9.606        0.003      336.746        8.255      865.678
01/02/2021  12:09:00       81.912      -60.771      -26.426       39.782       71.015       26.371     1582.577     5043.150      695.404        0.921        0.366      101.993       22.395        0.048      337.083        8.817      865.674
01/02/2021  12:10:00       68.334       69.965       -9.829       62.266       54.951       36.357     3877.085     3019.634     1321.864        0.894        0.411       97.799       41.521        0.180      337.182        8.983      865.665
01/02/2021  12:11:00       73.187       66.346      -20.719       63.010       42.096       32.263     3970.302     1772.039     1040.901        0.848        0.339       98.783       18.903        0.037      337.240        9.081      865.598
01/02/2021  12:12:00       68.863     -101.651      -30.720       63.746       73.003       32.719     4063.496     5329.440     1070.552        1.324        0.523      122.780       29.284        0.057      337.278        9.144      865.521
01/02/2021  12:13:00      127.965      -58.217      -37.122       56.357       43.774       18.297     3176.133     1916.178      334.786        1.328        0.271      140.586       13.251        0.009      337.125        8.888      865.482
01/02/2021  12:14:00       68.603      -15.812      -30.563       58.899       65.039       37.485     3469.128     4230.065     1405.157        0.750        0.455       70.401       31.125        0.195      337.302        9.185      865.423
01/02/2021  12:15:00       77.011      -73.810      -15.629       53.122       88.165       37.962     2821.959     7773.048     1441.098        1.183        0.602      106.671       33.022        0.096      337.287        9.158      865.355
01/02/2021  12:16:00       96.862      -88.771      -28.430       49.922       67.094       37.641     2492.245     4501.543     1416.830        1.324        0.421      131.387       25.297        0.037      337.325        9.223      865.334
01/02/2021  12:17:00       54.769        1.076       -4.304       58.840       35.163       29.608     3462.202     1236.425      876.614        0.430        0.279       54.779       21.463        0.154      337.377        9.308      865.359
01/02/2021  12:18:00        0.468       47.136        0.112       26.584       35.990       18.373      706.733     1295.311      337.564        0.228        0.117       47.138       13.908        0.087      337.293        9.169      865.398
01/02/2021  12:19:00        8.812      -14.701       -1.436       37.075       34.273       24.614     1374.525     1174.661      605.860        0.172        0.158       17.140       16.500        0.927      337.382        9.318      865.407
01/02/2021  12:20:00     -117.194      -32.253        1.914       88.995       61.825       38.329     7920.130     3822.304     1469.120        1.399        0.661      121.551       42.796        0.124      337.351        9.264      865.379
01/02/2021  12:21:00     -140.435      -47.185       -2.407       93.725       54.803       35.730     8784.444     3003.360     1276.643        1.751        0.653      148.150       30.537        0.042      337.318        9.208      865.341
01/02/2021  12:22:00      -45.268      -10.769       11.387       59.476       50.369       36.599     3537.366     2537.010     1339.515        0.485        0.371       46.531       22.672        0.237      337.448        9.429      865.295
01/02/2021  12:23:00      -32.244       22.046        7.317       36.459       25.979       18.925     1329.294      674.911      358.169        0.197        0.118       39.060        3.260        0.007      337.423        9.386      865.270
01/02/2021  12:24:00       -5.158      -18.020        2.559       29.031       45.080       22.096      842.822     2032.178      488.248        0.186        0.168       18.743       12.662        0.456      337.569        9.631      865.256
01/02/2021  12:25:00       63.407      -45.239      -25.955       43.562       65.988       30.428     1897.657     4354.433      925.834        0.696        0.359       77.891       28.138        0.130      337.510        9.532      865.244
01/02/2021  12:26:00      111.180     -155.743      -35.004       38.103       40.687       23.910     1451.853     1655.416      571.709        2.076        0.184      191.355       23.413        0.015      337.117        8.873      865.232
01/02/2021  12:27:00       53.294      -76.675      -16.313       26.769       28.030       15.519      716.562      785.658      240.827        0.536        0.087       93.377       14.793        0.025      337.296        9.175      865.245
01/02/2021  12:28:00        8.782      -11.573      -11.022       26.061       25.526       12.090      679.166      651.585      146.172        0.090        0.074       14.528       12.429        0.732      337.439        9.413      865.264
01/02/2021  12:29:00       15.940      -40.091      -18.654       44.587       61.629       20.065     1987.965     3798.078      402.615        0.420        0.309       43.143       26.045        0.364      337.519        9.548      865.262
01/02/2021  12:30:00      -30.793       -4.730       -2.022       31.020       34.817       18.192      962.262     1212.222      330.939        0.174        0.125       31.154       13.888        0.199      337.485        9.491      865.266
01/02/2021  12:31:00      -12.242      -15.859        4.212       27.757       18.502       17.487      770.458      342.332      305.787        0.092        0.071       20.034        3.801        0.036      337.612        9.703      865.239
01/02/2021  12:32:00       44.343      -43.256      -24.069       50.540       51.237       30.188     2554.270     2625.245      911.345        0.525        0.305       61.947       21.395        0.119      337.595        9.675      865.209
01/02/2021  12:33:00       60.732      -47.663      -16.758       58.744       51.729       28.198     3450.829     2675.939      795.112        0.658        0.346       77.202       21.701        0.079      337.550        9.600      865.188
01/02/2021  12:34:00      -33.567      -32.291        0.191       37.223       28.322       21.161     1385.518      802.112      447.782        0.240        0.132       46.577       17.700        0.144      337.651        9.768      865.169
01/02/2021  12:35:00      -51.544      -52.055      -17.575       32.133       36.709       23.987     1032.510     1347.568      575.372        0.431        0.148       73.256       12.268        0.028      337.580        9.651      865.140
01/02/2021  12:36:00       37.170      -96.880      -26.384       92.828       65.863       30.910     8617.066     4337.954      955.400        1.268        0.696      103.766       34.791        0.112      337.523        9.554      865.110
01/02/2021  12:37:00      149.706     -196.129      -60.229       45.369       69.927       27.475     2058.308     4889.785      754.864        3.610        0.385      246.736       25.110        0.010      337.340        9.242      865.058
01/02/2021  12:38:00      158.488     -122.896      -55.437       40.622       50.867       26.786     1650.147     2587.461      717.499        2.412        0.248      200.554       19.429        0.009      337.272        9.133      864.987
01/02/2021  12:39:00       96.866      -81.637      -40.799       40.563       53.182       20.572     1645.317     2828.297      423.196        1.130        0.245      126.679       10.769        0.007      337.417        9.378      864.917
01/02/2021  12:40:00       93.735     -128.748      -32.719       29.398       42.972       15.512      864.269     1846.561      240.622        1.469        0.148      159.255       16.963        0.011      337.306        9.191      864.881
01/02/2021  12:41:00       94.522     -162.486      -25.089       41.738       42.087       22.449     1742.088     1771.306      503.953        1.999        0.201      187.979       17.064        0.008      337.391        9.331      864.858
01/02/2021  12:42:00       47.752     -158.477      -24.049       70.184       50.589       33.201     4925.726     2559.294     1102.288        1.828        0.429      165.515       10.472        0.004      337.492        9.500      864.847
01/02/2021  12:43:00      -21.760      -36.186       -3.917       55.166       46.901       24.616     3043.308     2199.747      605.945        0.382        0.292       42.225        8.496        0.040      337.640        9.751      864.859
01/02/2021  12:44:00      -19.645      -17.963       -3.012       44.668       37.759       21.254     1995.214     1425.759      451.736        0.229        0.194       26.620       13.359        0.252      337.753        9.939      864.863
01/02/2021  12:45:00      -60.872      -33.454       -6.374       54.092       50.256       28.251     2925.894     2525.680      798.112        0.556        0.312       69.459       25.912        0.139      337.655        9.775      864.860
01/02/2021  12:46:00      -36.247      -10.361       -6.977       48.298       48.156       32.204     2332.740     2318.980     1037.094        0.358        0.284       37.699       22.863        0.368      337.695        9.843      864.842
01/02/2021  12:47:00      -95.304      -49.937       11.570       61.773       64.280       35.041     3815.926     4131.974     1227.901        1.044        0.459      107.594       32.812        0.093      337.557        9.611      864.809
01/02/2021  12:48:00      -83.101      -88.389      -31.390       49.183       48.166       22.268     2418.998     2319.971      495.869        1.047        0.262      121.319       13.335        0.012      337.468        9.462      864.769
01/02/2021  12:49:00       77.841     -101.337      -38.108       54.762       62.977       35.335     2998.875     3966.098     1248.569        1.300        0.411      127.783       23.718        0.034      337.660        9.784      864.719
01/02/2021  12:50:00       71.841      -72.365      -19.592       46.725       60.205       33.695     2183.262     3624.587     1135.385        0.886        0.347      101.969       27.950        0.075      337.564        9.624      864.657
01/02/2021  12:51:00      -62.433      -16.400      -15.344       46.616       37.293       29.249     2173.058     1390.801      855.532        0.441        0.221       64.551       26.731        0.171      337.585        9.657      864.621
01/02/2021  12:52:00      -66.132      -19.201        6.766       66.973       54.937       33.097     4485.404     3018.128     1095.425        0.669        0.430       68.863       33.922        0.243      337.653        9.773      864.609
01/02/2021  12:53:00     -152.878       13.255        6.970      127.842       92.745       50.545    16343.549     8601.617     2554.778        2.554        1.375      153.452       53.549        0.122      337.565        9.623      864.596
01/02/2021  12:54:00     -143.005        0.097       11.586       80.189       63.659       40.376     6430.229     4052.443     1630.191        1.635        0.606      143.005       37.530        0.069      337.610        9.699      864.568
01/02/2021  12:55:00     -140.438      -29.664       -7.686       82.584       49.137       36.691     6820.181     2414.448     1346.264        1.562        0.529      143.537       41.383        0.083      337.590        9.666      864.508
01/02/2021  12:56:00      -98.027      -71.650       -3.883       71.806       81.653       40.184     5156.137     6667.149     1614.719        1.410        0.672      121.421       36.415        0.090      337.515        9.539      864.467
01/02/2021  12:57:00      -77.472      -86.905       -8.701       43.365       51.254       28.309     1880.555     2626.955      801.381        0.947        0.265      116.423       26.691        0.053      337.404        9.355      864.414
01/02/2021  12:58:00       29.381      -86.451      -32.150       66.897       62.747       30.628     4475.180     3937.145      938.072        0.936        0.468       91.307       30.159        0.109      337.558        9.614      864.351
01/02/2021  12:59:00       88.901      -71.225      -37.453       71.810      105.405       31.077     5156.676    11110.182      965.784        1.580        0.862      113.914       38.846        0.116      337.554        9.604      864.283
01/02/2021  13:00:00      139.480     -149.734      -51.897       37.940       69.893       28.425     1439.465     4884.978      807.980        2.585        0.357      204.634       25.839        0.016      337.447        9.425      864.205
01/02/2021  13:01:00       33.657      -44.185      -17.751       87.264       53.278       27.445     7615.047     2838.559      753.219        0.730        0.560       55.544       32.207        0.336      337.582        9.653      864.140
01/02/2021  13:02:00      -51.228      -45.718      -21.215       48.486       72.007       33.395     2350.891     5184.992     1115.241        0.691        0.433       68.662       27.890        0.165      337.665        9.794      864.094
01/02/2021  13:03:00       75.671     -107.647      -22.077       99.085       92.830       49.019     9817.786     8617.440     2402.881        1.932        1.042      131.582       49.822        0.143      337.787        9.995      864.073
01/02/2021  13:04:00        9.020      -62.961      -17.287       48.737       47.716       26.713     2375.343     2276.821      713.568        0.485        0.268       63.604       29.949        0.222      338.015       10.379      864.051
01/02/2021  13:05:00      116.669     -135.249      -39.367       81.103       77.180       41.616     6577.754     5956.821     1731.877        2.386        0.713      178.617       37.746        0.045      337.933       10.239      863.978
01/02/2021  13:06:00      128.562     -197.956      -40.124       89.614      124.688       53.316     8030.601    15547.103     2842.606        4.187        1.321      236.040       52.466        0.049      337.872       10.138      863.891
01/02/2021  13:07:00       40.526     -137.158      -24.024      105.140      103.117       47.803    11054.398    10633.184     2285.164        2.250        1.199      143.020       49.039        0.118      337.934       10.242      863.867
01/02/2021  13:08:00      -92.096      -75.626      -18.955       88.459       92.716       44.067     7824.988     8596.336     1941.902        1.646        0.918      119.168       38.058        0.102      337.779        9.982      863.864
01/02/2021  13:09:00     -315.731      -95.022      -29.695      146.209      135.968       69.417    21377.119    18487.389     4818.666        7.713        2.234      329.720       55.758        0.029      337.654        9.771      863.832
01/02/2021  13:10:00     -469.003      -75.645      -23.483      193.049      107.748       76.989    37268.057    11609.635     5927.230       14.051        2.740      475.064       67.078        0.020      337.652        9.768      863.721
01/02/2021  13:11:00     -297.326      -62.981       -4.871      185.564      105.639       83.120    34434.029    11159.597     6908.990        7.244        2.625      303.924       90.685        0.089      337.699        9.846      863.675
01/02/2021  13:12:00     -283.607     -109.352      -23.177      100.699      132.283       66.954    10140.258    17498.699     4482.845        6.252        1.606      303.958       52.316        0.030      337.702        9.851      863.645
01/02/2021  13:13:00     -341.483      -71.048      -15.921      194.045      147.570       79.766    37653.383    21776.882     6362.542        9.384        3.290      348.796       90.074        0.067      337.744        9.922      863.586
01/02/2021  13:14:00     -184.321      -99.160      -11.974      146.954      182.455       63.099    21595.491    33290.004     3981.535        5.140        2.943      209.301       63.083        0.091      337.770        9.965      863.567
01/02/2021  13:15:00     -154.015      -84.106      -17.952      124.615      103.003       57.144    15529.023    10609.588     3265.409        3.025        1.470      175.484       53.778        0.094      337.763        9.954      863.543
01/02/2021  13:16:00      -85.227      -56.594      -20.315       96.667      101.994       49.437     9344.543    10402.775     2444.033        1.653        1.110      102.306       41.541        0.165      337.848       10.099      863.519
01/02/2021  13:17:00     -152.606     -123.168      -32.235      131.713       97.034       50.489    17348.354     9415.594     2549.125        3.440        1.466      196.109       47.633        0.059      337.860       10.117      863.462
01/02/2021  13:18:00     -187.499      -89.693       -9.224      126.302       94.884       64.330    15952.089     9002.908     4138.316        3.618        1.455      207.848       59.950        0.083      337.734        9.906      863.410
01/02/2021  13:19:00     -102.637      -51.160        0.411      114.030       79.680       51.240    13002.746     6348.854     2625.513        1.756        1.099      114.681       53.676        0.219      337.767        9.962      863.367
01/02/2021  13:20:00      -96.013      -24.543      -10.125      116.820       60.411       46.767    13646.901     3649.439     2187.182        1.470        0.974       99.101       24.273        0.060      337.830       10.069      863.349
01/02/2021  13:21:00      -70.171      -64.739      -21.138       44.356       61.987       26.360     1967.475     3842.351      694.825        0.803        0.325       95.473       20.543        0.046      337.873       10.139      863.349
01/02/2021  13:22:00       -7.214      -92.975      -20.311       67.877       97.803       43.486     4607.221     9565.357     1891.034        1.258        0.803       93.254       52.072        0.312      337.996       10.347      863.393
01/02/2021  13:23:00      -58.889      -91.554      -16.799       88.826       69.781       43.233     7890.098     4869.331     1869.107        1.338        0.731      108.858       29.342        0.073      337.998       10.350      863.437
01/02/2021  13:24:00      -26.204        5.559        2.077       33.826       46.689       20.052     1144.187     2179.817      402.078        0.222        0.186       26.787        9.913        0.137      338.092       10.508      863.480
01/02/2021  13:25:00      -45.782        1.840        9.226       74.132       37.350       24.883     5495.554     1394.992      619.154        0.485        0.375       45.819       24.467        0.285      337.959       10.285      863.507
01/02/2021  13:26:00      -52.739     -103.126      -22.067       68.921       51.961       33.396     4750.120     2699.926     1115.279        1.123        0.428      115.829       14.084        0.015      337.844       10.092      863.524
01/02/2021  13:27:00      -34.757      -28.295      -10.067       35.484       43.013       32.599     1259.090     1850.077     1062.715        0.314        0.209       44.818       19.466        0.189      337.903       10.192      863.530
01/02/2021  13:28:00       31.365      -92.342      -16.788       91.580       71.591       37.222     8386.937     5125.237     1385.474        1.234        0.745       97.524       30.486        0.098      337.881       10.153      863.528
01/02/2021  13:29:00       -2.416      -56.676      -33.150       92.028       65.102       41.771     8469.131     4238.270     1744.788        0.938        0.723       56.728       25.888        0.208      337.834       10.075      863.545
01/02/2021  13:30:00      -52.065       -7.681       -1.185       48.474       33.295       26.656     2349.762     1108.578      710.566        0.347        0.208       52.628       19.860        0.142      337.834       10.076      863.572
01/02/2021  13:31:00      -34.648      -20.333        4.829       53.193       35.425       22.740     2829.455     1254.904      517.113        0.312        0.230       40.174        9.926        0.061      337.794       10.009      863.569
01/02/2021  13:32:00       15.501        6.110       -7.732       44.846       42.016       19.805     2011.205     1765.356      392.238        0.225        0.208       16.661       22.767        1.867      337.830       10.069      863.582
01/02/2021  13:33:00       84.229     -103.072      -24.487       29.511       42.570       21.404      870.895     1812.177      458.128        1.073        0.157      133.110       12.688        0.009      337.582        9.652      863.599
01/02/2021  13:34:00        3.357      -65.614      -25.183      101.161       50.813       27.634    10233.607     2581.969      763.629        0.926        0.679       65.700       33.387        0.258      337.711        9.871      863.636
01/02/2021  13:35:00      -74.328      -56.588      -18.641       48.775       32.313       26.777     2378.986     1044.141      717.034        0.661        0.207       93.417       25.252        0.073      337.824       10.057      863.682
01/02/2021  13:36:00      -57.091      -33.711      -13.554       58.945       38.729       32.344     3474.548     1499.963     1046.147        0.530        0.301       66.301       18.426        0.077      337.849       10.100      863.722
01/02/2021  13:37:00      -79.228      -55.374      -20.014       73.935       55.698       39.152     5466.402     3102.235     1532.912        0.992        0.505       96.661       19.126        0.039      337.747        9.929      863.730
01/02/2021  13:38:00     -146.911      -82.200      -13.801       63.415       58.040       33.416     4021.415     3368.599     1116.640        1.852        0.425      168.344       35.197        0.044      337.594        9.672      863.734
01/02/2021  13:39:00     -170.883      -75.985       -7.387       86.962       77.607       41.332     7562.354     6022.834     1708.339        2.516        0.765      187.015       29.384        0.025      337.548        9.593      863.755
01/02/2021  13:40:00      -71.430      -27.606       -7.240      102.551       46.684       40.109    10516.804     2179.407     1608.769        1.011        0.715       76.579       29.146        0.145      337.623        9.722      863.783
01/02/2021  13:41:00       32.887      -93.106      -32.263       57.274       68.928       22.907     3280.266     4751.048      524.730        0.967        0.428       98.743       17.349        0.031      337.774        9.975      863.772
01/02/2021  13:42:00      -22.325      -92.605      -36.098       83.533       47.879       23.964     6977.794     2292.367      574.265        1.011        0.492       95.258       28.882        0.092      337.768        9.965      863.795
01/02/2021  13:43:00       13.511      -47.747      -20.844       78.626       56.053       24.482     6181.993     3141.913      599.380        0.641        0.496       49.622       19.775        0.159      337.739        9.915      863.799
01/02/2021  13:44:00      156.681      -81.288      -54.796       78.229       76.516       41.689     6119.851     5854.638     1737.983        2.393        0.686      176.512       43.253        0.060      337.673        9.804      863.752
01/02/2021  13:45:00      178.554      -95.282      -64.245      118.513      125.038       57.818    14045.359    15634.510     3342.949        3.905        1.651      202.386       49.209        0.059      337.729        9.897      863.682
01/02/2021  13:46:00      151.336      -17.464      -27.599      119.305       90.747       63.678    14233.707     8235.022     4054.901        2.524        1.326      152.341       65.391        0.184      337.929       10.232      863.681
01/02/2021  13:47:00      129.340      -25.813      -30.297       77.201       91.673       49.652     5959.967     8403.977     2465.330        1.757        0.841      131.890       34.714        0.069      337.998       10.350      863.621
01/02/2021  13:48:00      118.159      -72.684      -42.712      128.359      102.314       37.603    16476.083    10468.070     1414.011        2.471        1.418      138.725       15.633        0.013      338.003       10.357      863.610
01/02/2021  13:49:00      153.386     -156.623      -31.013       91.775      102.498       54.013     8422.597    10505.761     2917.441        3.543        1.092      219.221       66.745        0.093      337.918       10.215      863.631
01/02/2021  13:50:00      162.057     -287.911      -47.764       86.580      135.338       47.398     7496.155    18316.331     2246.574        6.974        1.403      330.387       30.528        0.009      337.727        9.892      863.632
01/02/2021  13:51:00      197.365     -169.340      -40.507       87.755      139.015       55.536     7700.918    19325.252     3084.222        4.968        1.506      260.056       58.988        0.051      337.615        9.705      863.642
01/02/2021  13:52:00      173.514     -165.864      -49.468      101.065      140.801       51.836    10214.220    19824.903     2686.926        4.639        1.636      240.037       63.714        0.070      337.631        9.733      863.638
01/02/2021  13:53:00      168.215     -214.536      -37.256       97.500      152.710       59.591     9506.240    23320.423     3551.092        5.604        1.819      272.621       58.591        0.046      337.601        9.682      863.628
01/02/2021  13:54:00      210.680     -249.159      -56.654       95.905      141.495       55.300     9197.694    20020.903     3058.116        7.097        1.614      326.292       69.038        0.045      337.579        9.646      863.623
01/02/2021  13:55:00      143.824     -155.508      -36.152       65.308      114.501       46.786     4265.081    13110.392     2188.906        3.287        0.978      211.821       48.529        0.052      337.619        9.713      863.669
01/02/2021  13:56:00      222.103      -90.684      -38.610      106.346      119.790       56.065    11309.569    14349.686     3143.303        4.392        1.440      239.903       61.699        0.066      337.578        9.644      863.654
01/02/2021  13:57:00        9.509      -69.359        8.168       82.446       83.387       45.699     6797.367     6953.338     2088.417        1.040        0.792       70.007       43.834        0.392      337.677        9.812      863.647
01/02/2021  13:58:00      102.004     -153.406      -13.665       72.404       74.968       44.809     5242.376     5620.147     2007.818        2.349        0.644      184.223       37.648        0.042      337.889       10.166      863.661
01/02/2021  13:59:00       51.088     -129.645      -14.924       68.701       59.549       39.099     4719.894     3546.076     1528.732        1.472        0.490      139.348       34.183        0.060      337.919       10.218      863.662
01/02/2021  14:00:00      -13.056      -91.538      -13.801       83.473       68.321       29.454     6967.733     4667.807      867.515        1.062        0.625       92.465       17.018        0.034      337.864       10.124      863.677
01/02/2021  14:01:00       -7.110        1.690       -7.168       18.751        9.473       14.673      351.604       89.743      215.310        0.038        0.033        7.308        7.133        0.953      337.724        9.890      863.691
01/02/2021  14:02:00      -35.025      -11.178       -4.681       38.909       26.158       20.994     1513.904      684.224      440.752        0.201        0.132       36.766       16.358        0.198      337.885       10.161      863.674
01/02/2021  14:03:00      -31.225       -6.622       -0.563       43.606       25.609       18.199     1901.451      655.827      331.195        0.195        0.144       31.920       10.026        0.099      337.869       10.134      863.677
01/02/2021  14:04:00      -78.387      -56.680      -18.687       65.051       57.440       36.411     4231.592     3299.297     1325.733        0.928        0.443       96.732       32.252        0.111      338.004       10.362      863.694
01/02/2021  14:05:00      -19.102      -12.148      -14.821       67.925       59.526       21.173     4613.763     3543.375      448.311        0.467        0.430       22.637       15.551        0.472      338.068       10.467      863.716
01/02/2021  14:06:00       38.605       51.313      -15.555       54.152       34.987       23.458     2932.427     1224.111      550.275        0.454        0.235       64.213       20.227        0.099      338.055       10.444      863.701
01/02/2021  14:07:00       18.671      -25.051       -2.105       39.719       27.492       28.949     1577.616      755.824      838.032        0.208        0.159       31.244       30.078        0.927      338.133       10.577      863.719
01/02/2021  14:08:00      -21.994      -55.450      -19.846       56.863       48.235       31.180     3233.415     2326.644      972.200        0.524        0.327       59.653       31.700        0.282      338.142       10.592      863.747
01/02/2021  14:09:00       49.906      -44.389      -20.368       50.478       63.096       28.709     2548.051     3981.042      824.205        0.611        0.368       66.791       22.624        0.115      338.007       10.365      863.752
01/02/2021  14:10:00        4.823        2.436        3.939       46.901       33.883       28.220     2199.684     1148.060      796.378        0.209        0.207        5.403       16.146        8.930      337.750        9.936      863.750
01/02/2021  14:11:00       43.996       28.128       -2.492       61.157       60.504       24.395     3740.155     3660.728      595.137        0.536        0.400       52.219       22.283        0.182      337.713        9.873      863.759
01/02/2021  14:12:00      -44.072      -20.266       -7.788       73.184       40.533       25.581     5355.928     1642.897      654.373        0.503        0.383       48.508       20.452        0.178      337.758        9.948      863.773
01/02/2021  14:13:00       42.672      -55.699      -18.327       52.253       51.192       27.518     2730.351     2620.573      757.243        0.568        0.305       70.166       26.809        0.146      337.828       10.065      863.768
01/02/2021  14:14:00       64.368     -104.772      -30.254       60.779       41.384       25.634     3694.058     1712.600      657.110        1.105        0.303      122.965       31.649        0.066      337.800       10.019      863.745
01/02/2021  14:15:00      104.348      -62.241      -24.874       58.345       63.568       31.044     3404.126     4040.838      963.718        1.189        0.420      121.501       29.031        0.057      337.765        9.959      863.718
01/02/2021  14:16:00      100.991      -41.579      -22.015       97.433       62.420       33.462     9493.125     3896.274     1119.679        1.346        0.725      109.215       35.875        0.108      337.703        9.855      863.686
01/02/2021  14:17:00      124.017      -43.942       -9.089      103.398       65.352       49.222    10691.209     4270.846     2422.759        1.739        0.869      131.572       50.530        0.147      337.689        9.831      863.646
01/02/2021  14:18:00      118.803      -44.937      -15.329       86.523       65.308       42.799     7486.184     4265.072     1831.719        1.497        0.679      127.018       41.487        0.107      337.699        9.849      863.614
01/02/2021  14:19:00      126.855       -1.714       -6.185       94.975       48.322       54.289     9020.228     2335.013     2947.292        1.521        0.715      126.866       49.655        0.153      337.679        9.814      863.559
01/02/2021  14:20:00      101.443      -13.828      -24.455       66.891       93.394       35.570     4474.347     8722.460     1265.223        1.277        0.723      102.381       26.172        0.065      337.720        9.884      863.505
01/02/2021  14:21:00       87.207      -24.097      -24.615       55.328       74.702       33.345     3061.230     5580.331     1111.922        0.927        0.488       90.475       27.848        0.095      337.817       10.047      863.475
01/02/2021  14:22:00      122.618      -18.635      -16.715       61.207       45.872       33.193     3746.251     2104.216     1101.745        1.131        0.348      124.026       15.470        0.016      337.701        9.852      863.443
01/02/2021  14:23:00       63.824      -17.746       -7.075       51.121       44.816       35.335     2613.385     2008.493     1248.535        0.515        0.294       66.245       35.107        0.281      337.706        9.860      863.413
01/02/2021  14:24:00       98.864      -28.574      -12.398       59.679       37.883       31.196     3561.538     1435.091      973.202        0.836        0.298      102.910       33.800        0.108      337.669        9.800      863.403
01/02/2021  14:25:00      105.828      -23.419       -6.364       62.790       31.639       33.257     3942.620     1001.016     1106.039        0.892        0.302      108.388       37.927        0.122      337.654        9.774      863.392
01/02/2021  14:26:00       62.375       -9.671        1.833       50.761       30.826       30.978     2576.721      950.237      959.627        0.424        0.224       63.120       33.077        0.275      337.711        9.870      863.359
01/02/2021  14:27:00        7.898      -17.626      -10.313       41.434       33.534       22.614     1716.770     1124.519      511.390        0.192        0.168       19.315       25.588        1.755      337.748        9.931      863.325
01/02/2021  14:28:00       16.504      -56.619       -9.860       51.726       28.495       19.468     2675.539      811.975      378.986        0.372        0.193       58.975       20.369        0.119      337.764        9.959      863.296
01/02/2021  14:29:00        9.078      -15.373       -2.172       28.103       26.279       15.563      789.783      690.576      242.222        0.102        0.086       17.853       15.277        0.732      337.816       10.045      863.258
01/02/2021  14:30:00      -16.446      -46.876      -11.249       53.952       31.577       29.658     2910.845      997.078      879.592        0.369        0.239       49.678       27.067        0.297      337.810       10.035      863.221
01/02/2021  14:31:00      -29.368      -27.254       -6.180       29.835       29.936       17.864      890.137      896.177      319.111        0.187        0.105       40.066       10.854        0.073      337.780        9.984      863.214
01/02/2021  14:32:00      -27.340       -4.070        0.094       26.249       19.217       18.312      689.015      369.295      335.346        0.108        0.070       27.641        7.087        0.066      337.873       10.141      863.222
01/02/2021  14:33:00      -13.225       -8.579       -4.133       31.961       24.761       18.256     1021.501      613.108      333.280        0.112        0.098       15.764       17.643        1.253      337.880       10.152      863.227
01/02/2021  14:34:00       -2.316      -14.841       -0.770       42.190       13.475       19.299     1779.992      181.574      372.458        0.128        0.117       15.021       21.141        1.981      337.905       10.194      863.225
01/02/2021  14:35:00      -28.526      -13.533       -8.411       32.387       13.633       15.892     1048.887      185.849      252.571        0.128        0.074       31.573       10.119        0.103      337.782        9.988      863.212
01/02/2021  14:36:00        6.547       -0.638       -5.035       28.853        4.523       14.837      832.505       20.456      220.147        0.057        0.054        6.578       20.000        9.245      337.928       10.234      863.197
01/02/2021  14:37:00       12.852       17.783       -0.563       28.650       24.153       16.987      820.815      583.354      288.574        0.109        0.085       21.941       15.505        0.499      337.866       10.129      863.203
01/02/2021  14:38:00       11.100       -2.963       -0.509       25.899       20.378       17.053      670.773      415.275      290.791        0.075        0.069       11.488       11.083        0.931      337.919       10.220      863.208
01/02/2021  14:39:00       29.351       -7.531      -11.706       41.957       31.783       25.170     1760.420     1010.181      633.519        0.223        0.170       30.302       25.528        0.710      337.873       10.143      863.191
01/02/2021  14:40:00       12.374       -5.344       -5.954       42.920       36.014       28.700     1842.087     1297.036      823.681        0.209        0.198       13.479       25.265        3.513      337.915       10.211      863.165
01/02/2021  14:41:00       46.077      -22.783       -4.167       56.158       34.302       23.875     3153.670     1176.645      570.029        0.378        0.245       51.402       23.094        0.202      337.900       10.187      863.154
01/02/2021  14:42:00       36.074      -56.312      -15.175       49.380       51.870       25.825     2438.390     2690.544      666.919        0.525        0.290       66.876       23.110        0.119      337.870       10.136      863.147
01/02/2021  14:43:00       60.351      -52.524      -13.515       34.977       44.759       19.502     1223.379     2003.408      380.333        0.509        0.180       80.006       20.208        0.064      337.833       10.074      863.138
01/02/2021  14:44:00       56.083      -30.816       -9.262       39.368       31.876       23.498     1549.847     1016.090      552.155        0.365        0.156       63.992       18.166        0.081      337.868       10.132      863.126
01/02/2021  14:45:00       51.293      -80.328       -9.735       33.495       39.046       20.693     1121.892     1524.625      428.196        0.613        0.154       95.307       20.679        0.047      337.923       10.226      863.116
01/02/2021  14:46:00       65.650      -59.787      -17.554       27.025       38.947       18.238      730.348     1516.854      332.632        0.539        0.129       88.794       19.720        0.049      337.870       10.136      863.136
01/02/2021  14:47:00       68.936      -88.266      -15.621       34.168       35.227       24.502     1167.418     1240.976      600.324        0.790        0.150      111.996       21.575        0.037      337.887       10.165      863.174
01/02/2021  14:48:00       35.666      -40.381      -14.513       35.746       44.355       24.083     1277.807     1967.377      579.983        0.347        0.191       53.877       25.113        0.217      337.935       10.245      863.199
01/02/2021  14:49:00       97.104      -89.185      -25.938       36.738       47.211       21.969     1349.664     2228.916      482.657        1.106        0.203      131.845       19.594        0.022      337.924       10.227      863.217
01/02/2021  14:50:00       81.662      -57.272      -30.862       53.803       73.543       32.847     2894.730     5408.536     1078.922        1.014        0.469       99.743       31.158        0.098      337.934       10.242      863.204
01/02/2021  14:51:00       45.295       -8.567       -3.552       54.572       62.065       44.733     2978.055     3852.069     2001.042        0.548        0.442       46.098       31.375        0.463      337.924       10.227      863.158
01/02/2021  14:52:00       77.990      -10.384       -6.388       73.235       54.263       50.755     5363.353     2944.504     2576.080        0.856        0.544       78.678       49.015        0.388      337.912       10.208      863.120
01/02/2021  14:53:00       84.714       31.938      -23.434       55.492       73.171       37.883     3079.354     5354.044     1435.095        0.930        0.493       90.534       37.290        0.170      337.899       10.185      863.110
01/02/2021  14:54:00       67.475        4.551       -5.279       58.370       67.878       48.153     3407.066     4607.405     2318.722        0.747        0.517       67.628       39.876        0.348      338.000       10.355      863.106
01/02/2021  14:55:00       26.418       -9.397        7.286       74.085       75.607       67.375     5488.583     5716.373     4539.339        0.829        0.787       28.040       58.583        4.365      337.983       10.325      863.113
01/02/2021  14:56:00       43.193       -5.119      -15.770       72.754       75.691       49.527     5293.142     5729.171     2452.920        0.780        0.674       43.495       44.216        1.033      337.968       10.300      863.121
01/02/2021  14:57:00       57.273       -6.897        4.389       68.705       64.823       51.608     4720.437     4202.082     2663.385        0.746        0.579       57.687       43.859        0.578      338.066       10.464      863.126
01/02/2021  14:58:00      138.869      -54.634      -21.417       62.327       59.270       36.722     3884.651     3512.975     1348.471        1.574        0.437      149.230       26.646        0.032      337.944       10.259      863.090
01/02/2021  14:59:00       58.670      -26.140       -9.885       61.387       67.297       40.286     3768.421     4528.951     1622.996        0.707        0.496       64.230       40.775        0.403      338.038       10.418      863.066
01/02/2021  15:00:00       77.027      -22.854      -13.498       53.829       51.239       26.228     2897.580     2625.385      687.892        0.642        0.311       80.345       12.356        0.024      337.981       10.323      863.051
01/02/2021  15:01:00       19.909      -22.034       -1.038       40.226       44.549       22.677     1618.127     1984.652      514.227        0.250        0.206       29.697       18.409        0.384      337.990       10.337      863.042
01/02/2021  15:02:00      107.484       11.783      -14.698       33.352       30.598       17.433     1112.357      936.238      303.922        0.713        0.118      108.128       15.824        0.021      337.873       10.142      863.027
01/02/2021  15:03:00       19.365       -1.149       -2.581       42.266       44.969       24.140     1786.453     2022.193      582.757        0.239        0.220       19.399       19.205        0.980      337.937       10.248      862.995
01/02/2021  15:04:00       53.469      -48.389      -18.861       28.137       31.677       20.616      791.695     1003.421      425.032        0.389        0.111       72.114       17.861        0.061      337.984       10.328      862.943
01/02/2021  15:05:00       58.064        2.002      -20.974       43.274       39.489       22.724     1872.602     1559.374      516.359        0.388        0.197       58.099       22.629        0.152      337.921       10.221      862.893
01/02/2021  15:06:00      -21.138      -40.452       -9.295       39.967       29.303       17.779     1597.324      858.639      316.091        0.247        0.139       45.642       11.093        0.059      338.024       10.394      862.883
01/02/2021  15:07:00      -18.368      -52.016       -7.424       56.758       36.440       24.627     3221.509     1327.899      606.501        0.413        0.258       55.164       21.736        0.155      338.036       10.414      862.883
01/02/2021  15:08:00        2.079      -53.009      -31.501       56.699       35.014       16.552     3214.830     1225.992      273.962        0.426        0.236       53.050        8.960        0.029      338.050       10.439      862.869
01/02/2021  15:09:00       25.819      -40.704       -5.787       27.814       45.020       23.663      773.622     2026.764      559.957        0.286        0.168       48.202       24.819        0.265      338.064       10.461      862.854
01/02/2021  15:10:00       46.317      -66.536      -11.239       30.693       31.635       20.647      942.083     1000.773      426.303        0.453        0.118       81.070       21.554        0.071      337.967       10.299      862.836
01/02/2021  15:11:00       86.363      -79.797      -19.192       32.693       38.022       26.683     1068.807     1445.635      711.973        0.871        0.161      117.584       24.424        0.043      337.997       10.350      862.834
01/02/2021  15:12:00       83.237      -76.700      -18.358       35.941       36.575       17.905     1291.761     1337.731      320.605        0.805        0.148      113.187       15.599        0.019      338.012       10.376      862.863
01/02/2021  15:13:00       29.282      -61.966       -4.341       38.278       38.237       24.724     1465.234     1462.083      611.276        0.413        0.177       68.536       23.966        0.122      338.042       10.425      862.896
01/02/2021  15:14:00      -13.238      -36.577      -11.863       28.953       31.371       18.568      838.250      984.166      344.781        0.191        0.108       38.899       18.258        0.220      337.979       10.320      862.913
01/02/2021  15:15:00       51.302      -42.836       -9.323       39.593       30.075       21.277     1567.605      904.476      452.717        0.374        0.146       66.835       21.965        0.108      338.040       10.423      862.914
01/02/2021  15:16:00       30.487      -11.648       -7.840       27.503       30.402       17.700      756.407      924.303      313.273        0.156        0.100       32.637       14.835        0.207      338.034       10.411      862.923
01/02/2021  15:17:00       40.231      -21.035      -18.964       40.331       33.517       26.078     1626.613     1123.410      680.048        0.292        0.172       45.399       24.735        0.297      338.091       10.508      862.935
01/02/2021  15:18:00       14.474       -1.365       -1.684       27.074       19.867       20.959      732.997      394.688      439.295        0.089        0.078       14.538       12.123        0.695      338.076       10.482      862.963
01/02/2021  15:19:00        8.615       -1.920        3.982       21.820       17.009       14.899      476.094      289.291      221.983        0.054        0.049        8.826       13.702        2.410      338.038       10.419      862.983
01/02/2021  15:20:00       -6.700      -16.842       -7.046       30.064       16.909       19.324      903.829      285.926      373.423        0.097        0.078       18.126       15.302        0.713      338.007       10.364      862.977
01/02/2021  15:21:00      -29.909       -0.257        2.171       36.652       34.397       20.412     1343.334     1183.159      416.648        0.192        0.147       29.910       14.982        0.251      337.916       10.213      862.967
01/02/2021  15:22:00      -54.266      -26.262       -5.003       52.112       34.574       25.614     2715.638     1195.390      656.080        0.411        0.228       60.286       12.208        0.041      338.023       10.392      862.961
01/02/2021  15:23:00     -106.651      -37.504       -0.536       69.516       41.256       27.214     4832.525     1702.081      740.604        1.003        0.364      113.053       29.890        0.070      337.987       10.332      862.969
01/02/2021  15:24:00     -117.192      -80.488       -7.062       55.023       42.494       25.459     3027.476     1805.762      648.144        1.287        0.274      142.169       17.872        0.016      338.010       10.373      862.995
01/02/2021  15:25:00      -36.403      -18.700       -1.702       49.114       54.093       28.442     2412.232     2926.011      808.927        0.391        0.307       40.925       22.839        0.311      338.234       10.746      862.992
01/02/2021  15:26:00      -74.651       17.633       -5.597       51.060       42.526       27.607     2607.102     1808.455      762.168        0.555        0.259       76.706       24.711        0.104      338.406       11.036      863.021
01/02/2021  15:27:00     -124.753       68.547      -16.807       48.311       51.176       30.593     2333.960     2618.993      935.940        1.322        0.294      142.345       23.863        0.028      338.395       11.017      863.040
01/02/2021  15:28:00      -80.389       21.381       -5.935       58.784       32.015       29.974     3455.583     1024.945      898.449        0.617        0.269       83.184       22.494        0.073      338.259       10.787      863.050
01/02/2021  15:29:00      -33.319      113.247      -10.587       33.995       55.565       26.831     1155.661     3087.480      719.914        0.950        0.248      118.047       23.866        0.041      338.289       10.840      863.049
01/02/2021  15:30:00      -53.480       75.548       -7.665       31.941       31.347       19.530     1020.235      982.634      381.440        0.550        0.119       92.562       15.050        0.026      338.449       11.109      863.054
01/02/2021  15:31:00     -114.086       15.626       -6.534       47.983       32.162       27.400     2302.405     1034.374      750.742        0.869        0.204      115.152       17.590        0.023      338.347       10.937      863.064
01/02/2021  15:32:00      -55.466      -27.758       -8.922       52.084       38.188       15.118     2712.738     1458.349      228.558        0.416        0.220       62.023       11.333        0.033      338.241       10.758      863.071
01/02/2021  15:33:00     -108.153      -19.964      -14.503       68.846       33.642       27.470     4739.798     1131.785      754.605        0.946        0.331      109.980       16.279        0.022      338.265       10.799      863.078
01/02/2021  15:34:00     -100.280      -49.023       -4.253       58.202       47.139       27.839     3387.526     2222.105      774.999        0.943        0.319      111.621       27.882        0.062      338.277       10.819      863.080
01/02/2021  15:35:00     -128.702      -84.954      -19.939       70.321       92.215       38.920     4945.091     8503.596     1514.789        1.957        0.748      154.212       28.328        0.034      338.172       10.641      863.078
01/02/2021  15:36:00      -51.198      -72.384       -4.601       62.437       48.084       28.418     3898.335     2312.084      807.555        0.745        0.351       88.661       17.939        0.041      338.189       10.672      863.081
01/02/2021  15:37:00      -23.950      -67.663      -16.248       71.322       39.490       27.093     5086.832     1559.439      734.035        0.640        0.369       71.777       24.128        0.113      338.243       10.762      863.080
01/02/2021  15:38:00      -40.104       -0.205       -3.801       43.183       25.866       22.152     1864.751      669.037      490.713        0.232        0.151       40.105       21.074        0.276      338.273       10.810      863.080
01/02/2021  15:39:00       11.734        6.971       -0.604       27.123       15.009       13.841      735.682      225.275      191.573        0.067        0.058       13.648        7.183        0.277      338.259       10.790      863.090
01/02/2021  15:40:00       54.793      -12.616       -5.948       63.121       46.783       32.785     3984.318     2188.638     1074.848        0.522        0.362       56.227       31.239        0.309      338.076       10.482      863.102
01/02/2021  15:41:00       42.916      -26.019      -10.433       45.813       36.256       27.479     2098.818     1314.519      755.106        0.340        0.208       50.188       22.803        0.206      337.953       10.275      863.109
01/02/2021  15:42:00       72.452      -19.447        0.616       57.989       36.225       31.276     3362.734     1312.254      978.194        0.564        0.283       75.016       35.786        0.228      337.949       10.269      863.112
01/02/2021  15:43:00       64.244      -30.646       -2.959       49.671       32.354       31.147     2467.253     1046.806      970.152        0.478        0.224       71.179       32.251        0.205      337.943       10.258      863.088
01/02/2021  15:44:00       46.800      -81.420      -23.300       37.787       39.301       21.140     1427.877     1544.583      446.896        0.639        0.171       93.912       18.740        0.040      338.033       10.411      863.083
01/02/2021  15:45:00       58.361      -75.322      -23.676       33.326       35.494       16.035     1110.641     1259.846      257.123        0.613        0.131       95.286       21.280        0.050      337.979       10.318      863.095
01/02/2021  15:46:00       80.306      -19.994      -20.486       42.893       42.233       25.235     1839.823     1783.604      636.826        0.576        0.213       82.758       25.216        0.093      337.951       10.272      863.079
01/02/2021  15:47:00       60.709       40.194       -3.566       60.005       44.408       27.782     3600.588     1972.077      771.819        0.583        0.317       72.809       19.609        0.073      337.913       10.208      863.040
01/02/2021  15:48:00       11.548       -9.139       -1.537       46.777       47.740       28.186     2188.060     2279.154      794.456        0.274        0.263       14.727       23.535        2.554      337.906       10.197      862.973
01/02/2021  15:49:00      -15.045      -41.234       -4.076       57.707       41.657       35.084     3330.126     1735.268     1230.902        0.412        0.315       43.892       30.190        0.473      337.982       10.325      862.940
01/02/2021  15:50:00       66.191      -36.867        1.527       63.635       72.710       47.517     4049.444     5286.687     2257.844        0.867        0.580       75.766       36.382        0.231      337.991       10.340      862.946
01/02/2021  15:51:00      120.543       -0.289       -9.121       55.703       44.349       38.835     3102.789     1966.871     1508.118        1.059        0.329      120.543       35.482        0.087      337.917       10.213      862.963
01/02/2021  15:52:00       90.890      -15.079       -3.705       69.431       31.298       36.826     4820.600      979.560     1356.177        0.783        0.358       92.133       40.538        0.194      337.949       10.266      862.983
01/02/2021  15:53:00       90.093      -10.609       -4.957       64.455       33.226       39.173     4154.449     1103.985     1534.488        0.752        0.340       90.715       36.962        0.166      337.940       10.252      862.953
01/02/2021  15:54:00       61.752      -15.191      -12.777       49.810       51.577       34.219     2481.047     2660.168     1170.966        0.526        0.316       63.593       27.475        0.187      337.992       10.341      862.921
01/02/2021  15:55:00       62.874       -5.393      -13.868       55.947       43.395       25.608     3130.097     1883.086      655.758        0.492        0.283       63.105       23.423        0.138      337.997       10.348      862.899
01/02/2021  15:56:00      104.902       35.679       -4.308       72.690       43.336       29.871     5283.865     1877.973      892.294        1.017        0.403      110.804       35.572        0.103      337.949       10.268      862.884
01/02/2021  15:57:00      148.224       50.992       -5.605       65.009       41.483       35.506     4226.221     1720.802     1260.699        1.590        0.360      156.750       37.455        0.057      337.957       10.281      862.892
01/02/2021  15:58:00      144.887       45.266      -12.953       43.061       32.856       26.659     1854.269     1079.486      710.717        1.343        0.182      151.793       24.065        0.025      337.948       10.266      862.907
01/02/2021  15:59:00      117.807       86.409      -10.230       43.882       40.746       30.443     1925.627     1660.262      926.775        1.298        0.226      146.100       22.490        0.024      337.942       10.256      862.930
01/02/2021  16:00:00       91.315       95.800       -6.201       66.423       50.148       39.352     4412.060     2514.844     1548.583        1.301        0.424      132.348       41.881        0.100      338.030       10.403      862.926
01/02/2021  16:01:00      118.797      108.014      -20.064       35.675       33.080       27.463     1272.680     1094.299      754.231        1.465        0.156      160.561       21.423        0.018      338.022       10.391      862.894
01/02/2021  16:02:00       79.014       84.735      -12.089       35.351       27.118       21.281     1249.707      735.402      452.890        0.800        0.122      115.859       15.531        0.018      338.007       10.366      862.843
01/02/2021  16:03:00      110.880      112.724      -16.523       54.538       33.780       28.647     2974.388     1141.116      820.639        1.510        0.247      158.117       26.672        0.028      337.996       10.349      862.819
01/02/2021  16:04:00       98.203      112.210      -14.242       49.257       49.844       33.675     2426.279     2484.403     1133.988        1.424        0.302      149.114       32.776        0.048      338.008       10.368      862.829
01/02/2021  16:05:00       97.481       94.030      -11.141       54.208       48.252       32.752     2938.485     2328.280     1072.685        1.240        0.317      135.441       34.573        0.065      338.009       10.369      862.857
01/02/2021  16:06:00       71.991       99.863      -16.451       36.960       31.523       23.188     1366.006      993.706      537.706        0.916        0.145      123.107       20.404        0.027      338.001       10.357      862.887
01/02/2021  16:07:00       77.885      151.287      -18.205       40.763       43.868       24.893     1661.649     1924.423      619.678        1.674        0.210      170.159       25.288        0.022      338.111       10.541      862.893
01/02/2021  16:08:00       68.534       77.200      -11.497       40.250       31.408       26.475     1620.060      986.479      700.937        0.705        0.165      103.232       25.351        0.060      338.014       10.379      862.904
01/02/2021  16:09:00       96.556      119.527      -17.634       51.266       37.273       32.443     2628.181     1389.291     1052.540        1.449        0.254      153.654       33.285        0.047      337.994       10.344      862.933
01/02/2021  16:10:00      148.444       94.734      -22.118       52.591       36.688       26.016     2765.851     1346.032      676.825        1.814        0.239      176.097       23.138        0.017      337.996       10.346      862.980
01/02/2021  16:11:00       93.878       86.911       -4.345       60.274       44.732       32.565     3632.949     2000.917     1060.507        1.154        0.335      127.932       34.998        0.075      338.001       10.356      863.007
01/02/2021  16:12:00      146.939       95.128      -17.343       55.424       33.620       26.727     3071.791     1130.308      714.306        1.793        0.246      175.044       30.383        0.030      338.049       10.435      863.025
01/02/2021  16:13:00      150.448       48.899      -23.081       59.240       56.739       32.977     3509.340     3219.266     1087.481        1.669        0.391      158.195       23.548        0.022      338.015       10.380      863.029
01/02/2021  16:14:00      139.911       46.122      -14.249       90.104       74.586       38.324     8118.812     5563.102     1468.753        1.852        0.758      147.317       31.816        0.047      337.951       10.271      863.042
01/02/2021  16:15:00      134.512      176.600      -16.940       73.915       66.188       44.281     5463.449     4380.900     1960.763        3.068        0.590      221.993       43.059        0.038      338.049       10.433      863.082
01/02/2021  16:16:00       61.414       99.582       -9.215       44.104       58.429       27.177     1945.200     3413.894      738.593        0.993        0.305      116.997       27.495        0.055      338.150       10.606      863.122
01/02/2021  16:17:00       26.887        3.461      -16.210       33.589       58.939       29.205     1128.250     3473.824      852.947        0.323        0.273       27.109       21.767        0.645      338.083       10.493      863.103
01/02/2021  16:18:00       73.358      -10.205      -22.816       61.293       55.280       35.576     3756.851     3055.877     1265.666        0.704        0.404       74.064       34.192        0.213      338.063       10.460      863.061
01/02/2021  16:19:00       44.307      -38.595      -29.149       43.721       57.856       30.869     1911.547     3347.318      952.868        0.526        0.311       58.759       25.934        0.195      338.061       10.455      863.028
01/02/2021  16:20:00       54.788      -17.084      -21.119       40.174       49.564       26.219     1613.937     2456.548      687.443        0.425        0.238       57.390       20.960        0.133      338.086       10.498      863.006
01/02/2021  16:21:00       50.494       25.636       -1.323       44.963       51.924       34.180     2021.647     2696.091     1168.291        0.455        0.294       56.629       27.302        0.232      338.061       10.456      862.992
01/02/2021  16:22:00       74.126       78.413       -6.683       54.334       47.176       31.394     2952.220     2225.530      985.602        0.892        0.308      107.904       33.014        0.094      337.986       10.329      863.003
01/02/2021  16:23:00       50.153      163.057      -19.862       62.749       45.892       29.633     3937.434     2106.077      878.125        1.821        0.346      170.596       30.794        0.033      338.000       10.354      863.022
01/02/2021  16:24:00      -30.937       87.252      -12.884       51.177       48.527       26.364     2619.128     2354.906      695.057        0.720        0.283       92.575       20.123        0.047      338.129       10.572      863.047
01/02/2021  16:25:00      -75.908        8.563       -4.123       51.849       19.740       25.809     2688.289      389.681      666.094        0.480        0.187       76.389       26.579        0.121      337.844       10.092      863.098
01/02/2021  16:26:00      -84.394       28.627       -5.158       56.266       29.506       27.426     3165.897      870.614      752.204        0.638        0.239       89.117       16.714        0.035      337.905       10.195      863.146
01/02/2021  16:27:00      -96.296        1.042       -4.663       54.520       27.923       24.898     2972.406      779.671      619.897        0.683        0.219       96.301       18.703        0.038      337.750        9.934      863.171
01/02/2021  16:28:00      -82.444       -0.769        2.187       58.823       26.795       27.291     3460.100      717.951      744.781        0.586        0.246       82.448       14.158        0.029      337.756        9.945      863.157
01/02/2021  16:29:00      -61.125        6.680       -4.315       46.101       35.335       23.215     2125.327     1248.566      538.946        0.386        0.196       61.489       15.271        0.062      337.836       10.081      863.125
01/02/2021  16:30:00      -66.461       39.639      -26.405       69.878       35.635       23.245     4882.939     1269.832      540.341        0.669        0.335       77.384       23.260        0.090      337.926       10.231      863.107
01/02/2021  16:31:00     -136.581       41.883      -13.459       44.064       38.841       21.076     1941.642     1508.588      444.200        1.224        0.195      142.858       10.173        0.005      337.871       10.137      863.110
01/02/2021  16:32:00     -105.301        2.900      -10.176      105.427       47.470       35.958    11114.951     2253.431     1292.972        1.293        0.733      105.341       40.708        0.149      337.774        9.974      863.125
01/02/2021  16:33:00     -209.074       22.161       -4.585       74.894       53.434       39.114     5609.133     2855.227     1529.941        2.711        0.500      210.245       34.226        0.027      337.708        9.861      863.135
01/02/2021  16:34:00     -117.823       18.105       -3.669       91.009       47.626       43.110     8282.664     2268.262     1858.433        1.331        0.620      119.206       42.881        0.129      337.650        9.767      863.151
01/02/2021  16:35:00     -116.739       58.726       -1.030       60.046       44.393       33.823     3605.582     1970.776     1143.964        1.190        0.336      130.678       27.898        0.046      337.778        9.982      863.144
01/02/2021  16:36:00      -57.050       36.160        4.078       91.716       63.151       34.729     8411.903     3988.030     1206.075        0.909        0.680       67.544       32.602        0.233      337.810       10.036      863.137
01/02/2021  16:37:00     -192.639      102.837      -20.824       70.328       69.743       40.663     4945.969     4864.128     1653.443        2.979        0.573      218.369       33.497        0.024      338.016       10.378      863.127
01/02/2021  16:38:00     -110.685       12.811       -0.112       81.058       55.311       38.197     6570.432     3059.340     1459.021        1.175        0.554      111.424       30.898        0.077      337.787        9.996      863.122
01/02/2021  16:39:00      -84.117       49.284        7.206      106.486       58.777       48.268    11339.212     3454.680     2329.835        1.334        0.856       97.491       48.984        0.252      337.729        9.899      863.138
01/02/2021  16:40:00     -105.844        3.172        4.937      128.791       60.413       49.569    16587.194     3649.736     2457.104        1.696        1.135      105.892       48.923        0.213      337.729        9.900      863.168
01/02/2021  16:41:00     -183.068       -1.110        0.728      101.064       61.477       47.508    10213.994     3779.421     2256.991        2.488        0.813      183.071       39.531        0.047      337.709        9.865      863.209
01/02/2021  16:42:00     -119.148        7.045       -7.192       71.152       66.521       32.652     5062.611     4425.103     1066.173        1.242        0.528      119.356       17.634        0.022      337.672        9.804      863.214
01/02/2021  16:43:00     -137.215      -32.332       -8.635       84.523       59.496       40.141     7144.088     3539.812     1611.271        1.612        0.615      140.973       25.333        0.032      337.667        9.794      863.184
01/02/2021  16:44:00     -128.947      -40.622       -1.360       82.870       45.607       44.046     6867.454     2080.000     1940.047        1.458        0.544      135.194       37.428        0.077      337.670        9.800      863.146
01/02/2021  16:45:00     -136.103       -5.902        2.120      125.322       80.409       55.697    15705.530     6465.620     3102.118        2.191        1.264      136.231       52.562        0.149      337.645        9.759      863.147
01/02/2021  16:46:00     -264.844      -79.471      -15.576      152.644      107.139       78.350    23300.307    11478.822     6138.750        5.880        2.046      276.510       77.996        0.080      337.755        9.942      863.125
01/02/2021  16:47:00     -178.078       -8.123        8.014      166.466       84.008       68.158    27710.951     7057.418     4645.526        3.562        1.971      178.263       79.973        0.201      337.742        9.919      863.136
01/02/2021  16:48:00     -220.276       72.355       -3.188       85.229       59.998       45.902     7263.932     3599.804     2106.981        3.337        0.649      231.855       44.202        0.036      337.794       10.007      863.158
01/02/2021  16:49:00     -122.049       36.051      -11.556       69.538       57.001       30.625     4835.473     3249.126      937.915        1.267        0.451      127.262       27.012        0.045      337.833       10.074      863.161
01/02/2021  16:50:00      -97.565      -29.858      -15.758       85.216       52.668       41.607     7261.708     2773.943     1731.156        1.121        0.588      102.031       45.006        0.195      337.799       10.016      863.150
01/02/2021  16:51:00      -71.724       22.955       -3.507       58.160       28.505       26.775     3382.594      812.514      716.908        0.530        0.246       75.307       16.620        0.049      337.769        9.967      863.162
01/02/2021  16:52:00     -146.269       19.796       -4.001       84.112       47.631       33.190     7074.861     2268.695     1101.551        1.612        0.522      147.603       18.149        0.015      337.704        9.857      863.178
01/02/2021  16:53:00     -212.667       49.460       -6.560       87.183       95.094       48.060     7600.921     9042.844     2309.738        3.333        0.948      218.343       46.858        0.046      337.774        9.972      863.164
01/02/2021  16:54:00     -236.450      -22.684      -17.989      160.266      111.489       50.108    25685.111    12429.900     2510.788        4.868        2.031      237.536       48.930        0.042      337.869       10.131      863.115
01/02/2021  16:55:00     -196.008       49.518       12.730      177.467      109.403       60.346    31494.592    11968.949     3641.682        4.406        2.355      202.166       57.310        0.080      337.741        9.916      863.101
01/02/2021  16:56:00     -302.170       99.384      -20.616      166.193      144.912       75.733    27619.984    20999.426     5735.539        7.797        2.718      318.094       77.506        0.059      337.783        9.987      863.086
01/02/2021  16:57:00     -251.816      -21.889       -3.981      162.282      139.541       61.842    26335.574    19471.568     3824.490        5.676        2.482      252.765       61.061        0.058      337.770        9.966      863.099
01/02/2021  16:58:00     -178.419      -64.956        3.518      132.404      100.176       67.925    17530.749    10035.146     4613.853        3.412        1.609      189.875       59.386        0.098      337.815       10.042      863.123
01/02/2021  16:59:00     -372.373     -110.255      -23.232      171.684      119.091       75.977    29475.338    14182.665     5772.448       10.038        2.472      388.353       88.968        0.052      337.842       10.084      863.129
01/02/2021  17:00:00     -267.399      -12.950       -1.832      179.187      129.393       67.768    32107.872    16742.518     4592.495        6.255        2.672      267.713       55.771        0.043      337.742        9.919      863.144
01/02/2021  17:01:00     -289.703      -48.742      -27.476      169.840      103.478       68.213    28845.471    10707.748     4653.017        6.562        2.210      293.775       82.758        0.079      337.727        9.893      863.161
01/02/2021  17:02:00     -181.228       11.161        4.679      116.208       91.304       58.070    13504.286     8336.474     3372.147        2.910        1.261      181.572       55.193        0.092      337.676        9.809      863.152
01/02/2021  17:03:00     -224.560       69.329       -4.796      111.804       75.559       49.436    12500.245     5709.207     2443.947        3.795        1.033      235.018       53.417        0.052      337.663        9.787      863.154
01/02/2021  17:04:00     -125.842        4.112        2.698       98.610       79.773       45.210     9723.922     6363.757     2043.901        1.699        0.907      125.909       44.121        0.123      337.782        9.988      863.158
01/02/2021  17:05:00     -192.864       17.359       -1.649       82.167       53.571       36.004     6751.435     2869.823     1296.254        2.421        0.546      193.643       33.421        0.030      337.637        9.743      863.184
01/02/2021  17:06:00     -105.757       28.980       -1.793       93.329       60.595       45.240     8710.230     3671.716     2046.683        1.322        0.721      109.656       33.328        0.092      337.662        9.787      863.202
01/02/2021  17:07:00     -125.019       20.031       -6.773       94.906       64.834       45.076     9007.142     4203.402     2031.847        1.566        0.762      126.614       36.779        0.084      337.564        9.620      863.209
01/02/2021  17:08:00     -260.691      -21.385      -11.236      126.056       86.030       58.955    15890.161     7401.139     3475.656        4.765        1.338      261.566       54.403        0.043      337.649        9.762      863.199
01/02/2021  17:09:00     -160.144      -12.612       -9.476      133.974       84.033       61.914    17949.053     7061.584     3833.348        2.736        1.442      160.640       54.375        0.115      337.661        9.784      863.148
01/02/2021  17:10:00     -140.745      -16.388       -1.114      137.376       93.024       47.786    18872.062     8653.381     2283.471        2.494        1.490      141.696       61.262        0.187      337.717        9.879      863.135
01/02/2021  17:11:00     -134.705      -25.375       -8.939      155.698       71.333       53.904    24241.971     5088.424     2905.653        2.555        1.612      137.074       64.064        0.218      337.677        9.811      863.142
01/02/2021  17:12:00     -110.327       42.728      -16.436      138.223       79.470       46.234    19105.621     6315.439     2137.606        2.091        1.378      118.312       32.399        0.075      337.654        9.773      863.181
01/02/2021  17:13:00     -128.701      -43.323        6.585      139.194      102.775       46.230    19375.096    10562.667     2137.198        2.527        1.604      135.797       53.740        0.157      337.609        9.696      863.211
01/02/2021  17:14:00     -329.057       -6.770      -15.109      136.099      119.497       65.886    18522.920    14279.626     4340.923        7.284        1.857      329.126       59.130        0.032      337.727        9.893      863.252
01/02/2021  17:15:00      -67.491       36.933        6.720       73.453       80.366       37.015     5395.332     6458.709     1370.088        0.959        0.661       76.936       32.676        0.180      337.927       10.230      863.257
01/02/2021  17:16:00      -94.004       16.555       -2.061       59.228       67.993       37.647     3507.966     4623.047     1417.295        0.933        0.477       95.451       20.896        0.048      337.823       10.057      863.273
01/02/2021  17:17:00     -117.979       50.389       -0.491       77.549       55.903       36.185     6013.920     3125.131     1309.374        1.345        0.522      128.289       22.446        0.031      337.704        9.857      863.291
01/02/2021  17:18:00     -113.161       37.232        4.267       56.356       52.749       31.616     3175.997     2782.508      999.582        1.058        0.348      119.128       24.234        0.041      337.689        9.834      863.298
01/02/2021  17:19:00      -92.960      -17.256       -0.836       87.706       54.170       36.838     7692.268     2934.378     1357.037        1.046        0.599       94.548       18.009        0.036      337.557        9.611      863.353
01/02/2021  17:20:00     -127.965       -1.533       -7.086       64.048       46.676       34.668     4102.091     2178.683     1201.863        1.195        0.374      127.974       23.578        0.034      337.541        9.585      863.389
01/02/2021  17:21:00     -115.027        1.782       -8.930       88.890       64.029       44.798     7901.396     4099.697     2006.868        1.366        0.700      115.041       36.891        0.103      337.495        9.506      863.421
01/02/2021  17:22:00     -221.685      -77.201      -12.804      150.499      114.474       60.836    22649.912    13104.325     3700.960        4.735        1.973      234.743       62.420        0.071      337.535        9.570      863.392
01/02/2021  17:23:00     -278.623       -3.988      -14.749      177.024      140.981       82.664    31337.655    19875.606     6833.399        6.794        2.902      278.651       73.387        0.069      337.571        9.633      863.392
01/02/2021  17:24:00     -128.231      -12.320       13.363      135.403       69.918       54.968    18334.025     4888.494     3021.506        2.150        1.312      128.821       62.456        0.235      337.556        9.606      863.403
01/02/2021  17:25:00     -189.377      -51.734      -12.562      117.471       74.215       59.990    13799.409     5507.842     3598.770        3.080        1.145      196.316       56.467        0.083      337.515        9.539      863.405
01/02/2021  17:26:00     -129.239       10.174       -7.164      139.041       49.201       48.138    19332.318     2420.717     2317.233        2.046        1.204      129.639       56.147        0.188      337.540        9.580      863.399
01/02/2021  17:27:00      -90.558      -28.224      -13.641       81.850       58.144       35.393     6699.393     3380.715     1252.667        1.026        0.567       94.855       24.994        0.069      337.552        9.602      863.375
01/02/2021  17:28:00     -113.791       -2.523       -4.746      104.628       56.041       48.353    10946.963     3140.633     2337.994        1.470        0.821      113.819       34.937        0.094      337.514        9.538      863.371
01/02/2021  17:29:00     -127.851      -20.049       -4.579       93.811       91.493       45.166     8800.472     8370.899     2039.971        1.799        0.961      129.413       35.505        0.075      337.476        9.474      863.379
01/02/2021  17:30:00     -174.451       58.986       11.119      151.379       87.377       59.263    22915.649     7634.781     3512.122        3.404        1.703      184.154       53.979        0.086      337.505        9.523      863.374
01/02/2021  17:31:00     -291.175       37.483       -8.783      130.627       79.579       55.404    17063.379     6332.795     3069.622        5.636        1.323      293.578       49.223        0.028      337.477        9.474      863.349
01/02/2021  17:32:00     -276.563      -14.604      -26.723      162.147       69.154       57.857    26291.673     4782.327     3347.426        5.591        1.721      276.948       61.134        0.049      337.516        9.541      863.331
01/02/2021  17:33:00     -230.925       13.375       -5.540      129.709       70.720       50.962    16824.552     5001.332     2597.081        3.897        1.221      231.312       42.980        0.035      337.517        9.541      863.328
01/02/2021  17:34:00     -231.802       72.004       -2.348      102.656       77.172       61.279    10538.155     5955.516     3755.059        3.958        1.012      242.727       51.255        0.045      337.489        9.492      863.356
01/02/2021  17:35:00     -151.071       30.795        7.591      120.544       89.669       49.655    14530.792     8040.523     2465.657        2.443        1.252      154.178       46.107        0.089      337.491        9.499      863.351
01/02/2021  17:36:00     -259.020       32.008       -6.265      118.000       86.130       60.931    13924.109     7418.293     3712.552        4.660        1.253      260.991       44.181        0.029      337.492        9.500      863.332
01/02/2021  17:37:00      -85.212       10.038       10.355      112.057       89.227       58.156    12556.833     7961.369     3382.073        1.568        1.195       85.801       57.746        0.453      337.502        9.517      863.333
01/02/2021  17:38:00     -164.422      -17.718       -7.459       94.424       77.683       54.911     8915.819     6034.688     3015.245        2.268        0.898      165.374       48.464        0.086      337.409        9.360      863.341
01/02/2021  17:39:00     -241.988      -18.974      -14.111      136.773       75.299       56.458    18706.922     5670.007     3187.460        4.333        1.378      242.731       66.942        0.076      337.439        9.410      863.360
01/02/2021  17:40:00     -237.013      -25.043       -4.909      145.761       99.300       76.258    21246.291     9860.576     5815.278        4.687        1.846      238.332       68.285        0.082      337.466        9.456      863.366
01/02/2021  17:41:00     -220.743       15.784      -24.700      130.897       89.608       40.060    17134.095     8029.675     1604.768        3.817        1.338      221.306       19.103        0.007      337.449        9.427      863.372
01/02/2021  17:42:00     -214.430      -36.529      -21.001      186.217       86.893       57.205    34676.846     7550.408     3272.431        4.662        2.275      217.519       60.309        0.077      337.487        9.491      863.373
01/02/2021  17:43:00     -292.162       31.595       -6.687      135.060       84.693       47.419    18241.097     7172.888     2248.584        5.703        1.383      293.866       51.034        0.030      337.394        9.335      863.362
01/02/2021  17:44:00     -300.113      143.807      -10.368      113.192       88.293       67.712    12812.508     7795.685     4584.938        6.802        1.260      332.789       55.989        0.028      337.457        9.440      863.351
01/02/2021  17:45:00     -146.685       38.333        4.048      105.896       85.331       55.336    11213.920     7281.309     3062.042        2.228        1.078      151.611       53.375        0.124      337.428        9.391      863.356
01/02/2021  17:46:00      -66.609       22.465        2.024      118.825       78.415       56.542    14119.356     6148.864     3196.984        1.420        1.173       70.296       41.063        0.341      337.508        9.528      863.370
01/02/2021  17:47:00     -107.309      -34.325       -4.774      137.008       87.842       53.505    18771.225     7716.289     2862.811        2.103        1.468      112.665       52.082        0.214      337.453        9.435      863.367
01/02/2021  17:48:00     -161.444       33.072       -7.866      137.419       87.117       54.710    18883.859     7589.407     2993.179        2.834        1.473      164.797       51.955        0.099      337.407        9.359      863.386
01/02/2021  17:49:00     -181.467        9.577      -20.870      110.886       90.549       56.407    12295.648     8199.183     3181.776        2.856        1.184      181.719       45.737        0.063      337.402        9.349      863.421
01/02/2021  17:50:00     -251.239       35.938       -9.744      123.188       87.322       60.455    15175.298     7625.090     3654.778        4.548        1.323      253.796       52.711        0.043      337.455        9.437      863.438
01/02/2021  17:51:00     -118.733       -5.987       -1.936      134.198       59.136       47.340    18009.039     3497.064     2241.091        1.894        1.187      118.884       51.178        0.185      337.445        9.423      863.447
01/02/2021  17:52:00     -305.156       74.864       -2.101      131.687       80.095       62.846    17341.406     6415.163     3949.648        6.321        1.385      314.205       58.707        0.035      337.422        9.381      863.453
01/02/2021  17:53:00     -160.469      -26.049       -4.654      141.983       73.928       56.264    20159.247     5465.323     3165.618        2.761        1.440      162.569       63.699        0.154      337.394        9.334      863.447
01/02/2021  17:54:00     -119.441       11.983        3.914       96.922       83.483       48.741     9393.866     6969.386     2375.703        1.658        0.937      120.040       39.821        0.110      337.455        9.439      863.435
01/02/2021  17:55:00     -281.883       26.196       -7.834      122.607       83.141       62.047    15032.535     6912.387     3849.794        5.299        1.290      283.098       56.846        0.040      337.445        9.421      863.447
01/02/2021  17:56:00     -332.215       82.473       -8.914      171.914      104.453       67.672    29554.439    10910.400     4579.558        8.114        2.252      342.299       77.667        0.051      337.444        9.419      863.476
01/02/2021  17:57:00     -275.131        6.987       -9.993      141.202      100.837       67.351    19938.004    10168.109     4536.129        5.524        1.732      275.219       61.807        0.050      337.434        9.401      863.476
01/02/2021  17:58:00     -185.301       17.390        7.450      114.121       73.174       49.978    13023.558     5354.497     2497.803        2.778        1.044      186.116       37.338        0.040      337.457        9.442      863.470
01/02/2021  17:59:00     -188.133       18.495       -7.251      164.872      107.703       69.358    27182.692    11599.917     4810.463        3.968        2.180      189.040       78.777        0.174      337.402        9.350      863.445
01/02/2021  18:00:00     -162.536       47.347       -5.858      125.720       95.327       58.835    15805.524     9087.182     3461.505        2.852        1.418      169.292       51.307        0.092      337.533        9.571      863.408
01/02/2021  18:01:00     -234.110       20.157       -3.295      112.001      114.664       54.915    12544.288    13147.881     3015.711        4.196        1.435      234.976       53.248        0.051      337.446        9.421      863.416
01/02/2021  18:02:00     -302.222       64.951      -12.760      156.968      113.058       69.041    24638.819    12782.009     4766.614        6.894        2.109      309.123       67.651        0.048      337.436        9.406      863.450
01/02/2021  18:03:00     -144.864      -23.858        5.524      161.135      127.749       71.530    25964.490    16319.921     5116.558        3.448        2.370      146.815       70.482        0.230      337.453        9.435      863.500
01/02/2021  18:04:00     -131.470       14.605        6.597      143.708      126.143       63.465    20651.876    15912.174     4027.814        2.906        2.030      132.279       42.588        0.104      337.444        9.419      863.524
01/02/2021  18:05:00     -220.260       60.103       -2.708      181.335      100.201       65.293    32882.524    10040.296     4263.156        4.965        2.359      228.313       61.979        0.074      337.460        9.447      863.537
01/02/2021  18:06:00     -148.908       64.619       14.223      223.669       99.556       67.998    50028.004     9911.356     4623.681        4.554        3.228      162.325       80.251        0.244      337.472        9.466      863.531
01/02/2021  18:07:00     -186.626       36.944       -4.232      172.584       88.041       51.258    29785.260     7751.303     2627.340        3.818        2.008      190.248       51.086        0.072      337.501        9.515      863.502
01/02/2021  18:08:00     -246.973        0.593      -25.333      183.683       93.352       67.470    33739.615     8714.515     4552.193        5.431        2.350      246.974       59.805        0.059      337.479        9.479      863.493
01/02/2021  18:09:00     -416.418        9.458      -10.620      159.053       98.198       62.619    25297.737     9642.752     3921.201       10.623        1.943      416.526       57.182        0.019      337.490        9.496      863.494
01/02/2021  18:10:00     -193.824       32.913        7.051      124.060       81.435       60.812    15390.931     6631.726     3698.141        3.221        1.286      196.599       46.991        0.057      337.520        9.547      863.525
01/02/2021  18:11:00     -237.235        7.760       -1.983      122.883      108.507       62.637    15100.323    11773.830     3923.366        4.356        1.540      237.362       50.405        0.045      337.478        9.476      863.532
01/02/2021  18:12:00     -210.269       40.155       -5.533      176.870      114.027       76.802    31283.009    13002.271     5898.598        4.801        2.509      214.069       58.922        0.076      337.502        9.515      863.523
01/02/2021  18:13:00     -297.451       21.922       -7.322      145.345      121.106       73.455    21125.238    14666.556     5395.675        6.509        2.059      298.258       75.059        0.063      337.475        9.471      863.531
01/02/2021  18:14:00     -113.801       27.419      -13.470      135.368       81.524       59.405    18324.418     6646.141     3528.996        2.119        1.425      117.058       43.315        0.137      337.469        9.461      863.527
01/02/2021  18:15:00     -203.862       75.497        1.271      153.846       82.969       62.215    23668.568     6883.862     3870.644        4.083        1.721      217.393       64.060        0.087      337.537        9.574      863.508
01/02/2021  18:16:00     -141.359       -1.375       -6.141      153.207       79.267       55.805    23472.517     6283.194     3114.162        2.644        1.643      141.365       53.168        0.141      337.502        9.518      863.484
01/02/2021  18:17:00     -237.684       41.010        5.405      136.245       98.031       63.624    18562.581     9610.041     4047.994        4.521        1.611      241.196       64.117        0.071      337.501        9.513      863.469
01/02/2021  18:18:00     -130.786       17.196       14.414      150.636       94.373       66.799    22691.075     8906.333     4462.054        2.683        1.803      131.911       70.580        0.286      337.549        9.596      863.468
01/02/2021  18:19:00     -180.263       36.034        2.269      128.240       96.196       60.437    16445.496     9253.744     3652.652        3.157        1.468      183.829       49.770        0.073      337.532        9.565      863.460
01/02/2021  18:20:00     -267.397       47.228       -5.271      172.723      103.598       63.341    29833.164    10732.516     4012.076        5.916        2.229      271.536       64.666        0.057      337.541        9.582      863.461
01/02/2021  18:21:00     -143.871       32.725       -0.213      103.795       87.907       54.513    10773.451     7727.635     2971.682        2.162        1.074      147.546       54.859        0.138      337.572        9.633      863.482
01/02/2021  18:22:00      -99.613       39.712        4.176       90.630       62.308       41.343     8213.731     3882.336     1709.240        1.266        0.690      107.237       37.356        0.121      337.599        9.681      863.488
01/02/2021  18:23:00     -153.859       42.010        0.918      103.093       78.496       54.105    10628.219     6161.672     2927.388        2.257        0.986      159.491       51.536        0.104      337.552        9.601      863.488
01/02/2021  18:24:00     -117.613        0.735       17.000      135.279       91.342       61.269    18300.319     8343.325     3753.880        2.225        1.520      117.615       51.461        0.191      337.502        9.518      863.495
01/02/2021  18:25:00     -127.592       40.644       15.493      133.672       60.611       47.407    17868.335     3673.693     2247.390        2.098        1.189      133.909       46.568        0.121      337.518        9.543      863.537
01/02/2021  18:26:00     -176.778      -47.428      -13.493      162.192       97.628       82.144    26306.257     9531.196     6747.682        3.812        2.129      183.029       76.760        0.176      337.535        9.572      863.575
01/02/2021  18:27:00     -339.929      -64.367       -3.342      194.253      110.056       69.035    37734.400    12112.358     4765.897        8.715        2.731      345.969       70.103        0.041      337.548        9.593      863.571
01/02/2021  18:28:00     -118.213      -39.450      -16.838      126.406       96.647       51.713    15978.481     9340.680     2674.263        2.190        1.400      124.622       38.329        0.095      337.555        9.607      863.535
01/02/2021  18:29:00     -182.406      -55.766      -29.915       83.412       79.053       54.963     6957.604     6249.449     3020.915        2.675        0.811      190.740       29.067        0.023      337.587        9.658      863.502
01/02/2021  18:30:00     -125.585     -114.992      -29.043       96.550       80.087       32.785     9321.963     6413.954     1074.842        2.332        0.841      170.278       26.236        0.024      337.623        9.721      863.488
01/02/2021  18:31:00     -139.948     -146.449      -34.197       67.164       95.746       39.826     4510.999     9167.363     1586.090        2.873        0.763      202.565       27.452        0.018      337.586        9.657      863.576
01/02/2021  18:32:00      -80.201     -123.593      -28.823       81.956       51.346       42.132     6716.769     2636.405     1775.115        1.683        0.556      147.334       25.060        0.029      337.709        9.864      863.688
01/02/2021  18:33:00      -98.993      -72.989      -19.223       69.999       64.330       43.572     4899.879     4138.341     1898.476        1.321        0.547      122.992       24.974        0.041      337.605        9.692      863.713
01/02/2021  18:34:00      -19.153      -86.877      -37.221      123.925       72.503       47.690    15357.456     5256.616     2274.372        1.609        1.144       88.963       57.337        0.415      337.652        9.769      863.661
01/02/2021  18:35:00       52.079     -136.627      -49.430      107.792       62.435       32.057    11619.117     3898.141     1027.650        2.018        0.827      146.216       27.817        0.036      337.599        9.681      863.617
01/02/2021  18:36:00       31.023      -87.063      -26.496      101.310       83.658       44.855    10263.653     6998.652     2011.952        1.426        0.964       92.425       57.300        0.384      337.597        9.677      863.599
01/02/2021  18:37:00       62.229     -121.588      -39.900       90.570       35.765       30.086     8202.836     1279.126      905.180        1.532        0.519      136.587       35.003        0.066      337.547        9.594      863.606
01/02/2021  18:38:00       59.162      -73.276      -15.563       56.328       38.505       34.449     3172.812     1482.663     1186.744        0.748        0.292       94.178       34.181        0.132      337.497        9.509      863.620
01/02/2021  18:39:00        6.982       -0.242      -11.768       64.992       24.770       30.719     4223.937      613.574      943.642        0.298        0.289        6.986       32.698       21.909      337.473        9.470      863.624
01/02/2021  18:40:00      -11.505        1.988       -5.988       48.054       29.814       23.031     2309.165      888.871      530.416        0.195        0.186       11.676       28.546        5.977      337.525        9.557      863.617
01/02/2021  18:41:00       58.147      -33.470      -21.444       54.336       35.271       24.483     2952.366     1244.059      599.427        0.488        0.240       67.092       31.756        0.224      337.439        9.414      863.614
01/02/2021  18:42:00       52.341      -60.574      -14.662       60.173       49.688       32.426     3620.769     2468.909     1051.432        0.688        0.357       80.055       36.586        0.209      337.418        9.378      863.618
01/02/2021  18:43:00       82.000      -59.921      -20.463       64.222       50.314       33.794     4124.510     2531.503     1142.030        0.926        0.390      101.561       36.930        0.132      337.404        9.354      863.601
01/02/2021  18:44:00       86.290      -61.404      -13.375       65.851       46.019       35.220     4336.309     2117.711     1240.444        0.954        0.385      105.908       40.692        0.148      337.424        9.388      863.618
01/02/2021  18:45:00       23.117      -55.293      -18.253       82.238       65.654       32.122     6763.032     4310.474     1031.853        0.801        0.605       59.931       40.209        0.450      337.403        9.352      863.661
01/02/2021  18:46:00       18.487      -33.057      -18.186       58.210       31.787       26.173     3388.370     1010.397      685.046        0.342        0.254       37.875       31.424        0.688      337.385        9.324      863.719
01/02/2021  18:47:00        8.677        8.682       -5.463       50.989       17.020       22.295     2599.856      289.687      497.053        0.178        0.169       12.274       26.469        4.650      337.377        9.309      863.742
01/02/2021  18:48:00      -35.844       51.145       -3.062       58.872       28.112       22.040     3465.962      790.289      485.781        0.432        0.237       62.455       10.536        0.028      337.370        9.297      863.751
01/02/2021  18:49:00      -95.014       13.328       -7.890       59.237       25.089       23.725     3509.024      629.463      562.883        0.698        0.235       95.945       13.473        0.020      337.446        9.426      863.761
01/02/2021  18:50:00       57.601       22.844      -17.319       68.113       24.013       22.665     4639.349      576.644      513.704        0.493        0.286       61.965       32.756        0.279      337.414        9.372      863.725
01/02/2021  18:51:00       88.007      -35.211      -29.533       52.275       30.495       25.582     2732.630      929.949      654.414        0.709        0.216       94.790       32.099        0.115      337.358        9.279      863.666
01/02/2021  18:52:00       30.114       14.973       -9.121       47.131       19.719       26.386     2221.338      388.855      696.199        0.226        0.165       33.631       32.372        0.927      337.356        9.274      863.645
01/02/2021  18:53:00      104.640      -49.036      -37.667       51.021       35.072       31.603     2603.127     1230.031      998.755        0.980        0.242      115.560       35.962        0.097      337.394        9.338      863.616
01/02/2021  18:54:00       77.798      -82.516      -42.446       62.676       42.449       26.423     3928.290     1801.914      698.172        1.054        0.321      113.408       31.840        0.079      337.392        9.334      863.615
01/02/2021  18:55:00       11.591      -49.295      -18.788       81.056       45.778       31.379     6570.074     2095.666      984.645        0.628        0.483       50.639       29.430        0.338      337.449        9.429      863.621
01/02/2021  18:56:00        6.509       52.659       -5.271       60.606       38.893       33.995     3673.051     1512.659     1155.655        0.459        0.317       53.059       34.334        0.419      337.521        9.552      863.661
01/02/2021  18:57:00      -23.017       98.395      -10.683       67.162       45.353       27.715     4510.719     2056.864      768.117        0.883        0.367      101.051       16.232        0.026      337.505        9.524      863.688
01/02/2021  18:58:00      -76.230       17.033      -26.375       52.493       18.445       24.496     2755.560      340.212      600.030        0.525        0.185       78.110       23.376        0.090      337.461        9.450      863.697
01/02/2021  18:59:00      -84.278       66.391      -10.357       54.358       42.764       30.640     2954.811     1828.769      938.808        0.867        0.286      107.288       23.001        0.046      337.420        9.381      863.699
01/02/2021  19:00:00      -66.367       31.203       -4.496       44.570       33.704       26.678     1986.446     1135.934      711.711        0.462        0.192       73.337       19.748        0.073      337.470        9.466      863.704
01/02/2021  19:01:00        0.588       59.542      -11.020       54.737       40.980       23.731     2996.173     1679.330      563.139        0.445        0.262       59.545       17.271        0.084      337.454        9.437      863.677
01/02/2021  19:02:00       93.175       -0.171      -21.314       54.811       51.548       30.743     3004.244     2657.219      945.121        0.787        0.330       93.175       31.153        0.112      337.426        9.391      863.636
01/02/2021  19:03:00       14.920        1.160        3.150       49.898       28.077       35.647     2489.826      788.342     1270.712        0.239        0.227       14.965       35.328        5.573      337.399        9.346      863.618
01/02/2021  19:04:00       55.708       34.452      -13.766       68.647       31.916       25.022     4712.360     1018.639      626.102        0.542        0.318       65.501       35.166        0.288      337.340        9.249      863.598
01/02/2021  19:05:00       71.034       11.466      -14.942       84.497       54.408       40.211     7139.661     2960.236     1616.906        0.856        0.586       71.953       45.325        0.397      337.252        9.101      863.532
01/02/2021  19:06:00       -6.939       44.871       -5.200       47.603       54.509       26.476     2266.005     2971.231      700.974        0.401        0.297       45.404       25.290        0.310      337.226        9.057      863.552
01/02/2021  19:07:00       -0.965       46.774       -8.948       38.516       29.688       22.993     1483.450      881.363      528.690        0.258        0.145       46.784       25.539        0.298      337.391        9.331      863.569
01/02/2021  19:08:00       76.346       28.868      -11.958       54.953       37.075       25.082     3019.817     1374.566      629.128        0.591        0.251       81.621       30.289        0.138      337.305        9.190      863.570
01/02/2021  19:09:00       12.682      -10.130      -22.439       58.688       93.198       33.540     3444.314     8685.871     1124.949        0.701        0.663       16.231       41.800        6.632      337.364        9.288      863.612
01/02/2021  19:10:00      -92.790       -5.792      -42.987      173.219      115.732       75.768    30004.655    13393.871     5740.755        2.980        2.457       92.971       46.862        0.254      337.310        9.194      863.617
01/02/2021  19:11:00      -97.096       60.788        1.147      100.067      122.327       58.357    10013.342    14963.786     3405.507        2.075        1.419      114.555       60.612        0.280      337.368        9.293      863.604
01/02/2021  19:12:00        9.212      -98.970      -28.216       74.447       59.778       38.978     5542.401     3573.383     1519.296        1.065        0.532       99.398       39.193        0.155      337.418        9.378      863.592
01/02/2021  19:13:00      -35.469       -2.556        1.143       73.591       61.502       40.776     5415.589     3782.484     1662.703        0.606        0.543       35.561       33.189        0.871      337.326        9.224      863.605
01/02/2021  19:14:00      101.943      -44.106      -27.680       70.666       73.558       41.580     4993.690     5410.789     1728.878        1.262        0.607      111.076       33.253        0.090      337.307        9.193      863.621
01/02/2021  19:15:00      -13.564      -41.815      -32.597       74.668       75.867       41.572     5575.376     5755.761     1728.222        0.802        0.653       43.960       32.454        0.545      337.280        9.148      863.635
01/02/2021  19:16:00      -78.211     -154.534      -27.812       69.295       57.100       36.399     4801.843     3260.354     1324.875        2.008        0.469      173.198       21.893        0.016      337.232        9.067      863.631
01/02/2021  19:17:00      -19.197     -104.024      -17.321       61.637       69.701       30.296     3799.098     4858.263      917.874        1.053        0.479      105.781       29.224        0.076      337.244        9.086      863.666
01/02/2021  19:18:00      -14.063       28.171      -11.911       57.198       57.141       26.865     3271.584     3265.042      721.727        0.419        0.363       31.486       24.017        0.582      337.242        9.085      863.680
01/02/2021  19:19:00      -30.934      100.163       -0.854       71.226       86.620       39.077     5073.113     7502.953     1527.011        1.254        0.705      104.831       27.685        0.070      337.253        9.101      863.714
01/02/2021  19:20:00      -35.217       66.587      -27.750       99.326       73.698       37.662     9865.569     5431.453     1418.425        1.158        0.836       75.327       25.663        0.116      337.285        9.158      863.671
01/02/2021  19:21:00     -114.645       55.547        6.512      127.511       73.058       49.687    16259.051     5337.422     2468.784        2.016        1.203      127.393       27.810        0.048      337.267        9.127      863.623
01/02/2021  19:22:00     -209.822      -12.289      -10.799       94.558      118.739       52.282     8941.126    14099.049     2733.360        3.503        1.289      210.181       39.048        0.035      337.134        8.898      863.592
01/02/2021  19:23:00     -124.012       19.683       13.837       97.144      108.988       58.219     9436.942    11878.397     3389.468        2.033        1.235      125.565       50.474        0.162      337.190        8.998      863.592
01/02/2021  19:24:00     -159.063      -19.964        4.415      126.489      107.784       55.451    15999.409    11617.458     3074.820        2.820        1.535      160.311       54.355        0.115      337.116        8.869      863.612
01/02/2021  19:25:00     -194.378     -223.815      -42.259      115.987       67.733       42.602    13453.067     4587.770     1814.902        5.475        0.993      296.439       27.224        0.008      337.182        8.978      863.582
01/02/2021  19:26:00     -322.677      -85.772      -29.688      116.914      103.804       65.367    13668.934    10775.201     4272.870        7.053        1.436      333.883       47.903        0.021      337.062        8.777      863.580
01/02/2021  19:27:00     -186.339     -187.982      -33.595       78.078      112.192       41.505     6096.115    12587.064     1722.654        4.579        1.020      264.687       24.611        0.009      337.084        8.815      863.558
01/02/2021  19:28:00     -263.456      -48.662      -27.114      162.363       96.721       61.070    26361.812     9354.905     3729.567        5.597        1.972      267.912       61.875        0.053      337.042        8.746      863.558
01/02/2021  19:29:00     -310.976      -72.822      -12.967      126.534      148.555       75.214    16010.945    22068.664     5657.158        7.295        2.187      319.389       57.963        0.033      337.049        8.756      863.557
01/02/2021  19:30:00     -222.665      -92.054      -26.389      145.761      108.172       56.521    21246.305    11701.252     3194.618        4.744        1.807      240.944       57.986        0.058      337.098        8.839      863.501
01/02/2021  19:31:00     -165.929      -61.646       -0.720      158.669      114.005       69.123    25175.864    12997.216     4777.931        3.713        2.148      177.010       60.393        0.116      337.070        8.793      863.499
01/02/2021  19:32:00     -191.282       14.877       -0.854      231.667      110.898       78.864    53669.693    12298.389     6219.489        5.448        3.609      191.860       63.880        0.111      337.044        8.749      863.499
01/02/2021  19:33:00     -390.965      -81.129      -26.914      151.876      123.175       88.276    23066.239    15172.021     7792.658       10.309        2.302      399.293       82.357        0.043      337.043        8.747      863.476
01/02/2021  19:34:00     -238.486      -66.298      -27.767      126.421       93.661       62.752    15982.225     8772.346     3937.793        4.536        1.435      247.529       61.078        0.061      337.032        8.729      863.477
01/02/2021  19:35:00     -109.806       16.097       -0.956      176.180      100.049       76.504    31039.497    10009.865     5852.914        2.960        2.345      110.980       73.858        0.443      337.008        8.691      863.476
01/02/2021  19:36:00     -207.476      -54.676       -5.718      132.421      121.031       65.827    17535.374    14648.562     4333.239        4.128        1.826      214.560       51.973        0.059      337.032        8.727      863.461
01/02/2021  19:37:00     -205.804      -64.928       -4.200      189.422      135.696       78.493    35880.860    18413.308     6161.197        5.351        3.023      215.803       86.142        0.159      337.047        8.754      863.440
01/02/2021  19:38:00     -162.167       76.399       18.707      152.209      105.393       75.369    23167.483    11107.773     5680.424        3.621        1.998      179.262       52.310        0.085      337.048        8.756      863.433
01/02/2021  19:39:00     -201.724      -73.092      -17.720      113.707      109.179       55.328    12929.367    11920.087     3061.163        3.712        1.396      214.558       57.672        0.072      337.060        8.774      863.410
01/02/2021  19:40:00     -252.558      -84.157      -10.942      162.010      149.954       61.559    26247.276    22486.301     3789.487        6.174        2.626      266.211       73.796        0.077      337.029        8.725      863.402
01/02/2021  19:41:00     -282.332       21.037      -19.609       96.428       77.643       48.734     9298.376     6028.398     2374.988        4.912        0.885      283.114       37.975        0.018      336.970        8.625      863.441
01/02/2021  19:42:00     -366.489      -55.274      -27.976      127.134      117.535       74.609    16162.940    13814.536     5566.553        8.684        1.777      370.633       63.963        0.030      336.994        8.664      863.444
01/02/2021  19:43:00     -383.841      -27.875      -18.822      123.868      125.951       60.456    15343.279    15863.629     3654.946        9.166        1.743      384.851       43.454        0.013      337.008        8.688      863.456
01/02/2021  19:44:00     -161.289      -46.505       -2.832       95.044       96.719       36.898     9033.397     9354.612     1361.499        2.396        0.987      167.860       25.189        0.023      337.016        8.703      863.481
01/02/2021  19:45:00     -401.329     -132.512      -28.493      287.805      141.692       96.332    82831.462    20076.574     9279.828       14.579        5.609      422.639       96.312        0.052      337.020        8.709      863.493
01/02/2021  19:46:00     -267.035      -46.580      -16.141      178.432      134.007       76.487    31837.885    17957.885     5850.195        6.468        2.782      271.068       69.623        0.066      336.983        8.647      863.493
01/02/2021  19:47:00     -196.354      -90.100       -9.726      180.519      120.071       82.186    32587.049    14416.928     6754.552        5.025        2.688      216.039       82.594        0.146      337.014        8.700      863.447
01/02/2021  19:48:00     -324.494      -19.140      -18.624      176.289      106.694       66.025    31077.789    11383.538     4359.364        7.640        2.341      325.058       59.647        0.034      336.977        8.637      863.402
01/02/2021  19:49:00     -278.653      -32.044      -10.835      211.166      145.198       88.912    44590.962    21082.424     7905.287        7.617        3.679      280.489       90.398        0.104      336.990        8.659      863.378
01/02/2021  19:50:00     -320.225      -54.808      -10.537      242.419      147.423       95.658    58766.793    21733.676     9150.543        9.764        4.483      324.881       86.648        0.071      336.990        8.658      863.355
01/02/2021  19:51:00     -177.529      -42.645      -16.031      143.501      114.187       71.717    20592.461    13038.643     5143.332        3.617        1.939      182.579       66.534        0.133      336.989        8.659      863.370
01/02/2021  19:52:00     -345.409      -60.675      -20.994      193.178       97.841       71.974    37317.681     9572.898     5180.243        8.774        2.604      350.698       54.596        0.024      337.033        8.731      863.359
01/02/2021  19:53:00     -198.956      -47.526       -8.816      135.253       99.321       69.074    18293.328     9864.592     4771.276        3.742        1.646      204.554       59.521        0.085      337.002        8.679      863.350
01/02/2021  19:54:00     -252.607      -61.222      -28.400      254.971      137.128       98.144    65010.182    18804.108     9632.285        8.089        4.672      259.920       96.946        0.139      337.020        8.710      863.329
01/02/2021  19:55:00     -177.026      -32.255       -6.858      199.891      114.580       77.991    39956.537    13128.478     6082.663        4.578        2.958      179.940       70.575        0.154      337.013        8.697      863.336
01/02/2021  19:56:00     -236.891       -6.648      -30.573      197.747      130.306       83.439    39103.846    16979.544     6962.142        6.006        3.152      236.984       72.670        0.094      337.011        8.694      863.325
01/02/2021  19:57:00     -373.236      -46.920      -21.425      218.506      129.660       87.142    47745.053    16811.831     7593.724       10.704        3.608      376.174       92.447        0.060      337.036        8.734      863.318
01/02/2021  19:58:00     -235.197      -43.481        1.163      135.587      127.617       77.134    18383.911    16286.126     5949.695        4.891        2.031      239.182       67.532        0.080      337.034        8.733      863.296
01/02/2021  19:59:00     -117.097      -45.302      -10.718      100.667      144.394       56.721    10133.933    20849.517     3217.273        2.503        1.710      125.555       43.497        0.120      337.056        8.770      863.282
01/02/2021  20:00:00     -177.310       79.943       -9.836      142.258      109.321       67.713    20237.342    11951.071     4585.090        3.734        1.839      194.499       69.179        0.127      337.005        8.684      863.295
01/02/2021  20:01:00     -289.353       39.523      -14.384      169.368      124.115       77.327    28685.521    15404.585     5979.529        6.777        2.503      292.039       78.112        0.072      337.009        8.689      863.286
01/02/2021  20:02:00     -266.270       68.360        7.476      146.258      103.281       73.681    21391.543    10667.009     5428.830        5.655        1.874      274.905       79.634        0.084      337.006        8.686      863.250
01/02/2021  20:03:00     -145.023        6.353       -4.623      131.755       83.726       64.756    17359.256     7009.978     4193.378        2.482        1.428      145.162       68.943        0.226      336.997        8.670      863.237
01/02/2021  20:04:00     -177.621       75.228      -10.574      194.860      165.466       82.902    37970.404    27379.150     6872.810        5.476        3.611      192.895       92.882        0.232      337.011        8.694      863.220
01/02/2021  20:05:00     -123.505      -13.827      -15.611      172.016       82.062       58.302    29589.590     6734.204     3399.117        2.770        1.986      124.277       61.424        0.244      337.002        8.682      863.225
01/02/2021  20:06:00     -156.083      -17.874        9.688      139.670      103.606       70.412    19507.656    10734.219     4957.801        2.998        1.760      157.103       64.194        0.167      336.989        8.656      863.234
01/02/2021  20:07:00      -78.317       29.125        7.645      115.541      103.216       59.589    13349.644    10653.582     3550.806        1.729        1.378       83.557       44.646        0.285      336.988        8.658      863.249
01/02/2021  20:08:00     -273.955       28.571       -3.987      131.394       97.864       59.214    17264.353     9577.377     3506.292        5.311        1.517      275.441       46.845        0.029      336.958        8.604      863.240
01/02/2021  20:09:00     -260.171       21.395      -12.857      188.335       98.377       61.997    35469.938     9678.101     3843.655        5.864        2.450      261.049       60.137        0.053      336.957        8.603      863.254
01/02/2021  20:10:00     -228.420      -14.280      -10.775      208.653      138.880       81.688    43536.099    19287.753     6672.889        6.098        3.475      228.866       78.939        0.119      336.961        8.611      863.260
01/02/2021  20:11:00     -263.382      -45.303       -6.608      185.652      101.904       76.761    34466.674    10384.334     5892.307        6.109        2.537      267.250       84.186        0.099      336.975        8.635      863.292
01/02/2021  20:12:00     -268.660       37.495       -1.050      217.730      109.868       69.536    47406.268    12071.008     4835.317        6.894        3.216      271.264       90.562        0.111      336.979        8.640      863.305
01/02/2021  20:13:00     -294.878       -2.176       -4.954      140.387      104.480       70.239    19708.477    10916.090     4933.567        6.126        1.778      294.886       64.662        0.048      336.985        8.650      863.316
01/02/2021  20:14:00     -289.815       37.804      -27.939      192.001      146.780       82.109    36864.571    21544.266     6741.825        7.566        3.258      292.270       69.947        0.057      336.999        8.673      863.319
01/02/2021  20:15:00     -286.151       48.449      -10.320      150.046      126.847       63.191    22513.680    16090.098     3993.106        6.346        2.130      290.223       57.044        0.039      336.996        8.670      863.330
01/02/2021  20:16:00      -98.545       12.140        0.011      142.562      103.419       67.418    20323.921    10695.430     4545.165        2.270        1.778       99.290       43.261        0.190      337.023        8.715      863.335
01/02/2021  20:17:00     -200.128       19.081        6.177      190.560       99.838       78.152    36313.203     9967.699     6107.693        4.641        2.619      201.035       87.314        0.189      337.034        8.732      863.362
01/02/2021  20:18:00     -199.009       30.262       12.646      129.711      109.614       68.757    16824.929    12015.289     4727.464        3.712        1.678      201.296       64.058        0.101      337.051        8.759      863.385
01/02/2021  20:19:00     -254.534       26.317       -9.711      144.135      132.628       83.225    20774.875    17590.070     6926.417        5.542        2.265      255.891       64.516        0.064      337.013        8.697      863.411
01/02/2021  20:20:00     -179.822       43.382       -0.289      211.156      109.802       77.096    44586.697    12056.434     5943.829        4.839        3.129      184.980       87.811        0.225      337.066        8.787      863.435
01/02/2021  20:21:00     -232.564       37.098       -6.009      190.565      115.466       66.991    36315.135    13332.455     4487.752        5.481        2.707      235.504       60.510        0.066      337.035        8.735      863.433
01/02/2021  20:22:00     -228.290      -50.453      -15.096      194.236       84.068       65.280    37727.754     7067.495     4261.528        5.196        2.453      233.798       58.897        0.063      337.036        8.735      863.448
01/02/2021  20:23:00     -232.741       15.545      -20.004      205.398       94.597       61.588    42188.233     8948.602     3793.094        5.486        2.746      233.259       63.411        0.074      337.032        8.729      863.423
01/02/2021  20:24:00      -55.598      -30.999       -8.106      151.070      105.006       65.231    22822.270    11026.218     4255.060        2.110        1.905       63.656       34.151        0.288      337.033        8.731      863.374
01/02/2021  20:25:00     -241.886       45.654       -1.940      221.817      130.157       69.981    49202.664    16940.964     4897.286        6.580        3.552      246.157       76.193        0.096      337.004        8.683      863.352
01/02/2021  20:26:00     -398.640       52.010       -4.957      204.066      120.825       75.911    41643.099    14598.683     5762.484       11.181        3.100      402.018       81.356        0.041      336.991        8.661      863.341
01/02/2021  20:27:00     -425.535       28.811        0.266      231.849      154.166       88.781    53754.081    23767.036     7882.154       13.364        4.270      426.509       98.941        0.054      337.004        8.682      863.318
01/02/2021  20:28:00     -297.228       29.109      -12.874      229.784      118.143       71.352    52800.787    13957.863     5091.178        8.059        3.592      298.650       93.903        0.099      337.018        8.706      863.314
01/02/2021  20:29:00     -227.213       16.591       -3.514      171.239      120.595       88.025    29322.831    14543.197     7748.419        5.175        2.581      227.818       79.789        0.123      336.997        8.670      863.338
01/02/2021  20:30:00     -217.302        3.582      -12.277      257.702      112.463       82.189    66410.411    12648.030     6755.111        6.658        4.291      217.331       86.193        0.157      336.991        8.662      863.326
01/02/2021  20:31:00     -198.345       -7.203        0.756      190.677      146.214       93.156    36357.891    21378.553     8677.953        5.289        3.321      198.476       97.183        0.240      337.011        8.693      863.278
01/02/2021  20:32:00     -150.844      -21.134       -1.158      115.832      105.558       56.495    13417.003    11142.512     3191.656        2.547        1.388      152.317       53.010        0.121      337.059        8.776      863.229
01/02/2021  20:33:00     -188.105      -20.523       -4.379      109.290       91.891       63.379    11944.290     8443.931     4016.909        3.011        1.220      189.221       51.949        0.075      337.031        8.726      863.202
01/02/2021  20:34:00     -264.927       47.118        7.797      159.042       98.242       70.802    25294.382     9651.543     5012.973        5.620        1.998      269.084       78.471        0.085      337.026        8.718      863.223
01/02/2021  20:35:00     -220.082       41.568      -11.188      189.537      128.819       60.549    35924.376    16594.241     3666.168        5.322        2.809      223.974       60.392        0.073      336.987        8.655      863.257
01/02/2021  20:36:00     -312.719       80.235       -4.814      157.724      142.873       64.910    24876.996    20412.615     4213.331        7.687        2.475      322.848       69.249        0.046      337.033        8.729      863.293
01/02/2021  20:37:00     -173.765       26.108      -17.211       80.066      123.383       52.919     6410.625    15223.473     2800.384        2.780        1.222      175.716       43.249        0.061      337.013        8.697      863.308
01/02/2021  20:38:00     -306.146       32.604       -7.530      188.374      109.930       61.340    35484.730    12084.658     3762.627        7.308        2.567      307.877       70.570        0.053      336.966        8.618      863.300
01/02/2021  20:39:00     -177.222       19.543      -11.456      167.297       65.025       52.404    27988.284     4228.220     2746.202        3.343        1.748      178.296       36.258        0.041      337.011        8.695      863.317
01/02/2021  20:40:00     -119.084       33.215       -2.974       98.021       85.930       44.550     9608.170     7384.004     1984.708        1.713        0.949      123.630       35.805        0.084      337.085        8.819      863.339
01/02/2021  20:41:00     -173.387       29.884      -17.872      135.078       83.706       57.739    18245.992     7006.692     3333.771        2.992        1.429      175.943       56.281        0.102      337.028        8.725      863.365
01/02/2021  20:42:00     -244.740       57.044        2.776      170.985      104.196       68.358    29235.956    10856.892     4672.829        5.395        2.238      251.300       52.820        0.044      337.042        8.747      863.374
01/02/2021  20:43:00     -195.365      -25.632      -13.497      106.051       64.599       54.262    11246.919     4172.967     2944.396        2.868        0.918      197.039       41.564        0.044      337.046        8.750      863.382
01/02/2021  20:44:00     -185.101       52.563      -19.923      110.779       76.483       59.015    12271.929     5849.589     3482.728        2.951        1.080      192.419       49.246        0.066      337.002        8.678      863.415
01/02/2021  20:45:00     -137.261       58.808        1.762       91.998      110.358       53.786     8463.608    12178.972     2892.964        2.291        1.177      149.329       37.825        0.064      337.086        8.821      863.433
01/02/2021  20:46:00     -186.301       20.438       -0.929      124.439       81.560       50.025    15485.022     6652.013     2502.546        2.988        1.232      187.419       36.973        0.039      337.052        8.764      863.441
01/02/2021  20:47:00     -312.858       45.639       -8.579      151.983       79.514       51.737    23098.710     6322.466     2676.738        6.606        1.605      316.169       51.365        0.026      337.043        8.748      863.419
01/02/2021  20:48:00     -315.697       96.227       -1.879      180.087       96.016       69.937    32431.449     9219.051     4891.205        7.772        2.327      330.037       71.767        0.047      337.033        8.733      863.383
01/02/2021  20:49:00     -231.928       83.643       -7.377      146.866      124.681       73.876    21569.635    15545.259     5457.618        5.170        2.129      246.549       64.079        0.068      337.037        8.737      863.378
01/02/2021  20:50:00     -435.489       70.685      -20.987      157.721      122.094       78.806    24875.992    14907.049     6210.311       12.053        2.300      441.188       85.293        0.037      337.000        8.675      863.379
01/02/2021  20:51:00     -336.347       66.220       -4.986      173.814      137.639       84.956    30211.253    18944.440     7217.458        8.694        2.819      342.804       76.090        0.049      336.982        8.645      863.397
01/02/2021  20:52:00     -151.316       32.449       13.534      171.868       95.021       70.295    29538.576     9029.028     4941.456        3.381        2.175      154.756       77.340        0.250      337.012        8.697      863.398
01/02/2021  20:53:00     -337.870        2.539      -16.285      129.232       91.033       65.797    16700.954     8287.019     4329.219        7.187        1.466      337.880       53.396        0.025      336.974        8.633      863.358
01/02/2021  20:54:00     -106.896       15.172        9.640      111.453       87.762       52.223    12421.696     7702.250     2727.260        1.730        1.143      107.968       39.007        0.131      337.047        8.755      863.348
01/02/2021  20:55:00     -128.605       -4.394      -13.899      106.502       68.531       49.610    11342.644     4696.480     2461.128        1.762        0.925      128.680       48.714        0.143      337.029        8.725      863.318
01/02/2021  20:56:00        3.705      -23.759        1.835       78.228       82.819       59.494     6119.604     6858.905     3539.549        0.855        0.826       24.046       34.261        2.030      337.005        8.687      863.298
01/02/2021  20:57:00     -274.034       54.212      -19.364      187.546      171.937       82.727    35173.678    29562.500     6843.775        7.498        3.579      279.345       74.204        0.071      336.997        8.671      863.274
01/02/2021  20:58:00     -361.085       47.912        5.159      180.739      107.239       67.934    32666.440    11500.257     4615.062        9.073        2.439      364.250       69.878        0.037      337.009        8.692      863.293
01/02/2021  20:59:00     -241.842       62.447      -12.017      126.111       99.676       51.788    15904.095     9935.280     2681.949        4.552        1.426      249.774       51.393        0.042      336.980        8.641      863.294
01/02/2021  21:00:00     -308.476       16.930       -5.907      185.980      109.290       77.522    34588.537    11944.294     6009.666        7.400        2.627      308.940       79.020        0.065      337.004        8.681      863.259
01/02/2021  21:01:00     -269.746       40.811       -4.862      125.195      101.987       68.428    15673.777    10401.289     4682.450        5.260        1.538      272.816       56.660        0.043      336.999        8.673      863.271
01/02/2021  21:02:00     -135.410       30.190        4.261      144.483       90.687       60.847    20875.379     8224.216     3702.356        2.603        1.640      138.734       47.681        0.118      337.082        8.814      863.280
01/02/2021  21:03:00      -79.890       39.315        0.598      199.804       96.632       65.549    39921.504     9337.764     4296.688        3.073        2.678       89.040       69.988        0.618      337.046        8.754      863.262
01/02/2021  21:04:00     -122.858       45.239      -15.687      198.189      101.218       74.321    39278.974    10245.005     5523.572        3.621        2.752      130.923       74.362        0.323      337.042        8.745      863.196
01/02/2021  21:05:00     -111.046      -14.715        8.682      155.400      123.815       73.975    24149.297    15330.159     5472.234        2.878        2.248      112.017       72.946        0.424      337.026        8.719      863.147
01/02/2021  21:06:00     -153.615       33.551       -2.340      124.893       86.276       51.462    15598.230     7443.485     2648.319        2.520        1.285      157.236       44.751        0.081      337.011        8.694      863.065
01/02/2021  21:07:00     -353.651       96.427       -2.012      183.906       93.080       62.441    33821.519     8663.799     3898.873        9.037        2.319      366.561       67.280        0.034      336.995        8.667      863.068
01/02/2021  21:08:00     -281.196       90.285        9.610      106.089       84.216       58.981    11254.857     7092.371     3478.774        5.457        1.091      295.334       49.412        0.028      337.024        8.713      863.074
01/02/2021  21:09:00     -304.049       72.539       18.417      218.747      118.663       73.767    47850.393    14080.950     5441.548        8.270        3.369      312.583       73.736        0.056      337.025        8.718      863.075
01/02/2021  21:10:00     -297.734       66.199       -3.334      151.651      106.909       68.586    22997.929    11429.509     4704.000        6.608        1.957      305.005       71.873        0.056      337.056        8.769      863.061
01/02/2021  21:11:00     -346.065       99.602       -2.404      154.518       97.580       73.826    23875.957     9521.790     5450.259        8.426        1.942      360.113       70.474        0.038      337.030        8.726      863.032
01/02/2021  21:12:00     -308.573       46.241       -5.438      146.700      109.794       60.079    21521.022    12054.743     3609.525        6.728        1.859      312.019       59.673        0.037      337.007        8.685      863.029
01/02/2021  21:13:00     -325.162        3.612       -9.431      150.947       93.394       74.216    22784.925     8722.530     5507.942        7.142        1.851      325.182       71.472        0.048      336.997        8.671      863.018
01/02/2021  21:14:00     -259.396       45.405       -4.122      174.548       69.075       53.375    30466.933     4771.385     2848.942        5.372        1.904      263.340       43.177        0.027      337.014        8.699      863.004
01/02/2021  21:15:00     -392.533       94.516       10.438      200.448      111.719       82.052    40179.246    12481.052     6732.539       11.125        2.970      403.751       79.488        0.039      337.026        8.718      862.998
01/02/2021  21:16:00     -223.673       24.287      -28.719      131.710       78.831       53.547    17347.477     6214.270     2867.307        3.893        1.321      224.987       50.974        0.051      336.999        8.672      863.012
01/02/2021  21:17:00     -293.196        3.814       -9.031      182.622      108.909       81.330    33350.715    11861.122     6614.632        6.893        2.591      293.220       85.851        0.086      337.034        8.733      863.009
01/02/2021  21:18:00     -242.701        1.165       -6.010      141.964       81.932       57.776    20153.797     6712.933     3338.121        4.457        1.510      242.704       50.690        0.044      336.999        8.674      863.025
01/02/2021  21:19:00     -310.921        1.128      -26.024      206.393      146.286       84.989    42598.053    21399.532     7223.172        8.427        3.561      310.923       92.555        0.089      337.013        8.698      863.039
01/02/2021  21:20:00     -287.656        4.618      -24.156      189.288      123.805       80.649    35830.025    15327.780     6504.325        7.049        2.883      287.693       87.300        0.092      337.012        8.696      863.047
01/02/2021  21:21:00     -261.419      -18.453       -7.201      204.249      117.916       75.815    41717.645    13904.120     5747.890        6.504        3.068      262.069       81.025        0.096      337.027        8.721      863.091
01/02/2021  21:22:00     -356.854      -68.868      -14.031      251.965      123.261       88.081    63486.587    15193.329     7758.302       10.934        4.322      363.439      118.681        0.107      337.049        8.757      863.115
01/02/2021  21:23:00     -287.793     -141.774      -40.684      112.461      113.961       69.025    12647.479    12987.115     4764.493        6.748        1.520      320.819       50.867        0.025      337.093        8.829      863.161
01/02/2021  21:24:00     -294.134      -65.511      -20.635      125.216      137.819       64.026    15679.153    18994.000     4099.289        6.499        1.939      301.341       63.704        0.045      337.065        8.784      863.193
01/02/2021  21:25:00     -417.447       16.574      -33.728      195.048      118.729       66.663    38043.642    14096.631     4443.967       11.612        2.829      417.776       67.160        0.026      337.046        8.753      863.258
01/02/2021  21:26:00     -266.921      -34.369      -11.477      180.179      122.113       73.286    32464.561    14911.612     5370.772        6.264        2.637      269.124       86.663        0.104      337.060        8.776      863.289
01/02/2021  21:27:00     -213.129      -34.127      -15.793      125.569      117.474       67.784    15767.583    13800.065     4594.677        4.049        1.708      215.844       50.739        0.055      337.083        8.812      863.272
01/02/2021  21:28:00     -180.135      -87.384      -22.053      111.050      107.868       56.527    12332.177    11635.454     3195.268        3.386        1.358      200.211       38.841        0.038      337.098        8.839      863.307
01/02/2021  21:29:00     -192.697     -107.761      -18.898      101.442       83.103       40.688    10290.499     6906.037     1655.519        3.397        0.943      220.782       23.941        0.012      337.089        8.824      863.329
01/02/2021  21:30:00     -137.550      -65.545       -6.335      105.031       92.436       40.985    11031.465     8544.366     1679.743        2.225        1.063      152.369       27.000        0.031      337.107        8.855      863.268
01/02/2021  21:31:00     -264.431      -82.683      -28.879      187.614      106.695       75.439    35198.906    11383.775     5690.972        6.492        2.614      277.057       70.658        0.065      337.105        8.851      863.250
01/02/2021  21:32:00     -274.377        5.022        0.066      177.508       96.338       70.458    31508.959     9281.016     4964.322        6.052        2.288      274.423       71.817        0.068      337.124        8.882      863.250
01/02/2021  21:33:00     -410.884     -105.013      -12.805      204.666      132.417       95.005    41888.243    17534.255     9026.016       12.422        3.422      424.091       95.476        0.051      337.178        8.976      863.244
01/02/2021  21:34:00     -470.884      -88.369      -26.285      191.641      154.420      108.838    36726.410    23845.563    11845.722       15.131        3.621      479.105      107.293        0.050      337.156        8.936      863.233
01/02/2021  21:35:00     -313.223      -60.028      -22.588      154.070      101.967       58.288    23737.486    10397.265     3397.435        6.987        1.877      318.923       50.679        0.025      337.141        8.911      863.199
01/02/2021  21:36:00     -203.900      -52.456      -10.657      135.337       80.474       59.323    18316.173     6476.036     3519.220        3.637        1.416      210.539       54.539        0.067      337.156        8.936      863.175
01/02/2021  21:37:00     -336.645       12.505      -32.007      208.000      129.786       94.212    43263.994    16844.338     8875.994        9.173        3.449      336.877       90.716        0.073      337.159        8.941      863.206
01/02/2021  21:38:00     -310.256      -19.469       -0.993      174.845      138.848      103.924    30570.679    19278.803    10800.240        7.863        3.032      310.866      110.154        0.126      337.177        8.974      863.183
01/02/2021  21:39:00     -267.148     -101.497      -17.643      119.719      143.966       64.643    14332.755    20726.113     4178.698        6.060        1.962      285.779       55.274        0.037      337.198        9.008      863.216
01/02/2021  21:40:00     -201.071     -134.104      -25.013       81.501      112.994       49.886     6642.460    12767.585     2488.617        4.046        1.095      241.688       27.882        0.013      337.213        9.033      863.253
01/02/2021  21:41:00     -106.655      -79.925        6.864      136.285      146.624       80.697    18573.586    21498.726     6511.995        3.219        2.329      133.279       67.011        0.253      337.257        9.108      863.278
01/02/2021  21:42:00     -146.800     -157.513      -14.020      155.911       97.379       55.817    24308.300     9482.622     3115.572        4.172        1.845      215.316       46.686        0.047      337.267        9.125      863.315
01/02/2021  21:43:00        2.230     -169.264      -32.811      112.529       90.655       69.821    12662.671     8218.371     4874.996        2.774        1.288      169.279       57.534        0.116      337.325        9.220      863.343
01/02/2021  21:44:00        2.229     -117.415      -54.019      104.885       77.514       42.833    11000.767     6008.463     1834.634        1.777        0.942      117.436       33.174        0.080      337.239        9.078      863.299
01/02/2021  21:45:00       10.672     -169.541      -43.430      116.604       76.116       47.016    13596.432     5793.580     2210.476        2.617        1.080      169.877       46.821        0.076      337.360        9.280      863.279
01/02/2021  21:46:00       68.087     -128.484      -40.739       95.798       62.956       49.965     9177.235     3963.427     2496.532        1.922        0.782      145.409       15.752        0.012      337.204        9.021      863.284
01/02/2021  21:47:00       97.348     -122.216      -33.208       69.381       47.197       31.107     4813.784     2227.525      967.669        1.676        0.400      156.248       43.198        0.076      337.171        8.964      863.328
01/02/2021  21:48:00       68.216      -92.833      -46.397       72.512       53.069       29.429     5258.028     2816.336      866.066        1.218        0.447      115.202       27.667        0.058      337.173        8.967      863.407
01/02/2021  21:49:00      -10.588       -3.594      -12.256       46.687       36.182       25.069     2179.708     1309.116      628.455        0.220        0.206       11.181       25.678        5.274      337.195        9.005      863.470
01/02/2021  21:50:00       89.281       28.858      -32.935       88.498       38.288       31.964     7831.954     1465.992     1021.701        1.010        0.516       93.829       40.463        0.186      337.158        8.943      863.461
01/02/2021  21:51:00      -29.594      -18.760       -5.657       52.359       43.856       31.023     2741.450     1923.343      962.432        0.344        0.281       35.039       30.179        0.742      337.149        8.927      863.462
01/02/2021  21:52:00      -21.133        1.091       -5.325       38.826       13.381       21.006     1507.476      179.048      441.260        0.130        0.106       21.161       24.607        1.352      337.200        9.015      863.464
01/02/2021  21:53:00      -46.704      -31.668      -13.942       60.507       42.805       24.740     3661.071     1832.293      612.082        0.474        0.305       56.428       24.245        0.185      337.160        8.947      863.477
01/02/2021  21:54:00       -0.934       50.633       -6.563       62.965       67.738       31.981     3964.535     4588.393     1022.793        0.609        0.479       50.641       32.418        0.410      337.118        8.876      863.469
01/02/2021  21:55:00       82.067        3.174      -18.885       59.991       35.557       28.280     3598.973     1264.308      799.776        0.638        0.283       82.129       33.221        0.164      337.079        8.810      863.457
01/02/2021  21:56:00       75.421       44.429      -17.210       56.619       39.548       29.206     3205.724     1564.061      852.962        0.679        0.281       87.535       36.177        0.171      337.143        8.917      863.471
01/02/2021  21:57:00       36.129       33.157      -11.336      107.729       66.165       38.178    11605.499     4377.812     1457.575        0.998        0.872       49.037       44.000        0.805      337.171        8.964      863.461
01/02/2021  21:58:00       38.722      -26.366      -38.286      101.243       88.098       39.583    10250.091     7761.320     1566.786        1.161        0.979       46.846       16.831        0.129      337.137        8.907      863.429
01/02/2021  21:59:00     -118.173      -13.115      -15.521      154.780       72.892       71.038    23956.749     5313.234     5046.392        2.434        1.716      118.898       41.569        0.122      337.127        8.889      863.455
01/02/2021  22:00:00     -106.609      -60.516      -20.542       86.108       67.173       44.303     7414.559     4512.191     1962.758        1.467        0.694      122.587       33.227        0.073      337.181        8.981      863.490
01/02/2021  22:01:00     -106.622      -10.105      -17.955       85.989       90.852       45.459     7394.126     8254.099     2066.536        1.475        0.886      107.099       32.233        0.091      337.135        8.904      863.519
01/02/2021  22:02:00      -59.781     -102.055      -24.797      115.995       84.793       41.387    13454.898     7189.778     1712.856        1.848        1.118      118.275       29.785        0.063      337.180        8.979      863.508
01/02/2021  22:03:00      -87.437       -9.223       -1.165      101.811       63.741       44.672    10365.514     4062.860     1995.553        1.207        0.821       87.922       20.584        0.055      337.102        8.847      863.505
01/02/2021  22:04:00      -33.038      -54.971      -25.219       82.356       52.173       41.924     6782.575     2722.055     1757.626        0.800        0.563       64.136       32.848        0.262      337.173        8.968      863.504
01/02/2021  22:05:00     -199.755     -143.831      -12.824      137.317      172.329       57.380    18856.020    29697.154     3292.513        5.629        2.592      246.150       64.977        0.070      337.098        8.839      863.504
01/02/2021  22:06:00      -77.488      -74.997       -5.021       91.566       59.522       44.910     8384.385     3542.891     2016.953        1.280        0.697      107.838       23.183        0.046      337.122        8.883      863.542
01/02/2021  22:07:00     -125.011     -122.873      -14.384       63.389       73.864       48.901     4018.186     5455.911     2391.318        2.140        0.593      175.287       35.728        0.042      337.166        8.954      863.593
01/02/2021  22:08:00      -17.965      -48.545       -8.300       82.112       51.207       37.485     6742.452     2622.167     1405.110        0.676        0.538       51.763       32.381        0.391      337.157        8.940      863.614
01/02/2021  22:09:00      -28.352     -190.049      -31.370      108.830      115.795       48.855    11844.040    13408.579     2386.805        3.277        1.382      192.152       38.390        0.040      337.203        9.018      863.624
01/02/2021  22:10:00      128.318     -197.244      -49.126      105.644      118.596       45.326    11160.751    14065.045     2054.479        4.253        1.364      235.310       55.034        0.055      337.136        8.903      863.603
01/02/2021  22:11:00     -135.425      -39.650      -24.645      113.390       66.827       41.075    12857.248     4465.845     1687.165        1.976        0.951      141.110       33.630        0.057      337.107        8.855      863.648
01/02/2021  22:12:00     -145.551      -67.268       -3.812       73.310       65.841       47.676     5374.390     4335.100     2272.957        1.885        0.599      160.343       40.149        0.063      337.080        8.811      863.607
01/02/2021  22:13:00      -40.596      -89.289      -25.559      107.263      111.837       42.155    11505.413    12507.512     1777.058        1.803        1.289       98.085       38.604        0.155      337.149        8.928      863.603
01/02/2021  22:14:00     -118.694      -43.289       -5.517      148.640      116.097       50.439    22093.709    13478.629     2544.083        2.705        1.906      126.341       36.501        0.083      337.129        8.893      863.599
01/02/2021  22:15:00     -264.953      -71.663      -12.779      137.846      137.362       67.694    19001.448    18868.306     4582.414        5.897        2.123      274.474       37.528        0.019      337.031        8.727      863.606
01/02/2021  22:16:00     -282.556      -19.383      -19.629      198.708      163.447       69.552    39484.749    26715.075     4837.430        7.580        3.552      283.220       62.653        0.049      337.040        8.741      863.624
01/02/2021  22:17:00     -279.438     -137.721      -16.963      208.573      148.251       80.190    43502.897    21978.297     6430.425        8.461        3.596      311.533       95.943        0.095      337.052        8.764      863.594
01/02/2021  22:18:00     -240.695      -53.855        1.617      171.280       92.884       63.780    29336.779     8627.488     4067.933        5.143        2.102      246.646       82.720        0.112      337.030        8.724      863.645
01/02/2021  22:19:00     -178.839       -8.103        1.749      203.436      134.263       77.634    41386.303    18026.471     6026.985        4.873        3.272      179.022       84.026        0.220      337.018        8.707      863.658
01/02/2021  22:20:00     -263.723       20.802      -22.212      215.764      123.248       64.292    46554.207    15190.131     4133.440        6.816        3.294      264.542       72.606        0.075      337.000        8.675      863.658
01/02/2021  22:21:00     -319.783        1.405       -7.097      229.355      100.471       72.106    52603.693    10094.356     5199.219        8.509        3.395      319.786       92.607        0.084      336.986        8.652      863.663
01/02/2021  22:22:00     -297.314       62.643      -18.655      198.035      174.635       73.199    39217.781    30497.520     5358.130        8.385        3.754      303.841       83.610        0.076      336.984        8.649      863.638
01/02/2021  22:23:00     -347.358       36.479       -8.674      198.292      159.294       77.651    39319.813    25374.670     6029.660        9.638        3.536      349.268       81.790        0.055      336.965        8.617      863.609
01/02/2021  22:24:00     -225.917       43.471       -0.605      132.598      111.411       62.187    17582.226    12412.411     3867.194        4.339        1.693      230.061       58.928        0.066      336.982        8.645      863.624
01/02/2021  22:25:00     -206.277       27.199       11.589      165.455      135.826       66.943    27375.449    18448.672     4481.338        4.685        2.515      208.062       71.417        0.118      336.971        8.627      863.606
01/02/2021  22:26:00     -316.587       33.665      -25.185      119.895       95.312       54.423    14374.750     9084.352     2961.889        6.420        1.321      318.372       52.253        0.027      336.945        8.583      863.577
01/02/2021  22:27:00     -297.297       50.936       -3.968      201.839      129.995       67.194    40739.027    16898.738     4515.052        7.656        3.108      301.629       59.728        0.039      336.946        8.585      863.578
01/02/2021  22:28:00     -207.858      -81.309      -28.930      123.990      141.900       72.744    15373.483    20135.530     5291.733        4.572        2.040      223.195       62.330        0.078      336.965        8.616      863.558
01/02/2021  22:29:00     -243.798      -31.722       -5.874      233.271      155.043       81.272    54415.271    24038.447     6605.214        7.275        4.253      245.853       91.687        0.139      336.949        8.590      863.560
01/02/2021  22:30:00     -324.885      -42.029      -39.806      196.991      181.598       83.747    38805.574    32977.836     7013.515        9.383        3.940      327.592       77.548        0.056      336.947        8.587      863.531
01/02/2021  22:31:00     -296.957      -77.040      -24.622      174.398      141.283       94.844    30414.757    19960.807     8995.340        7.703        2.969      306.787       96.303        0.099      336.948        8.589      863.512
01/02/2021  22:32:00     -424.656      -75.882      -35.969      235.336      179.832      108.847    55382.828    32339.543    11847.719       14.346        4.979      431.382      105.119        0.059      336.954        8.599      863.526
01/02/2021  22:33:00     -431.917     -103.544      -14.492      263.224      155.945       98.429    69287.134    24318.912     9688.254       15.037        5.165      444.155      116.137        0.068      336.944        8.582      863.536
01/02/2021  22:34:00     -309.816       13.766       -1.573      229.574      198.273      108.607    52704.291    39312.141    11795.484        9.997        5.191      310.122      100.237        0.104      336.944        8.582      863.503
01/02/2021  22:35:00     -406.090      -75.053      -22.471      229.209      188.292       95.669    52536.664    35454.006     9152.650       13.407        4.857      412.967      107.669        0.068      336.929        8.558      863.499
01/02/2021  22:36:00     -456.338       -0.763      -25.791      207.677      132.973       96.085    43129.716    17681.856     9232.395       13.946        3.502      456.339       82.991        0.033      336.904        8.516      863.551
01/02/2021  22:37:00     -268.046       12.435       -6.156      182.742      100.645       59.575    33394.625    10129.478     3549.231        5.955        2.354      268.334       56.777        0.045      336.906        8.521      863.607
01/02/2021  22:38:00     -339.755      -91.121      -13.695      235.437      152.942       86.066    55430.607    23391.190     7407.395       10.506        4.311      351.762       93.281        0.070      336.902        8.511      863.612
01/02/2021  22:39:00     -159.212       67.879      -12.811      141.582      113.520       58.834    20045.435    12886.680     3461.409        3.325        1.820      173.079       46.891        0.073      336.935        8.567      863.641
01/02/2021  22:40:00     -186.701       82.256       -2.313      121.908      112.375       65.193    14861.456    12628.089     4250.085        3.668        1.587      204.018       61.570        0.091      336.948        8.590      863.657
01/02/2021  22:41:00     -155.143        0.105        1.405      156.761      142.463       64.023    24574.130    20295.833     4099.000        3.651        2.448      155.143       72.993        0.221      336.916        8.535      863.692
01/02/2021  22:42:00     -137.499        8.040       -7.683      154.847      102.364       63.862    23977.497    10478.358     4078.382        2.877        1.927      137.734       55.563        0.163      336.861        8.446      863.714
01/02/2021  22:43:00     -208.441       33.636      -22.898      152.324      116.540       58.982    23202.665    13581.488     3478.888        4.267        2.013      211.137       31.349        0.022      336.863        8.449      863.705
01/02/2021  22:44:00     -162.440      -25.350       -5.130       93.843      136.611       43.839     8806.495    18662.514     1921.863        2.822        1.470      164.407       30.619        0.035      336.886        8.486      863.688
01/02/2021  22:45:00     -178.883      -47.999      -11.918      113.124       91.436       49.592    12796.942     8360.486     2459.376        2.903        1.181      185.210       39.147        0.045      336.839        8.408      863.639
01/02/2021  22:46:00     -279.333      104.007      -20.836      121.643      101.800       60.066    14796.960    10363.291     3607.917        5.902        1.438      298.068       43.814        0.022      336.845        8.416      863.637
01/02/2021  22:47:00     -199.411      -33.420       -8.557      139.214       77.582       52.932    19380.433     6018.984     2801.823        3.457        1.410      202.192       55.474        0.075      336.816        8.370      863.659
01/02/2021  22:48:00     -259.977        2.094      -33.464      171.988       82.889       55.338    29580.033     6870.566     3062.267        5.410        1.976      259.986       64.944        0.062      336.816        8.368      863.635
01/02/2021  22:49:00     -124.059       -5.902      -23.425       91.921       52.972       41.987     8449.540     2806.083     1762.931        1.449        0.651      124.199       16.202        0.017      336.840        8.411      863.669
01/02/2021  22:50:00      -92.507       35.942       -6.362       78.660       73.834       49.377     6187.441     5451.424     2438.106        1.198        0.704       99.244       35.080        0.125      336.840        8.412      863.680
01/02/2021  22:51:00     -163.896        2.879       -8.625      112.028       84.486       53.498    12550.344     7137.884     2862.004        2.474        1.128      163.922       34.806        0.045      336.813        8.365      863.688
01/02/2021  22:52:00     -188.731       38.143       -6.792      146.504       91.644       63.025    21463.563     8398.538     3972.151        3.547        1.692      192.546       69.481        0.130      336.826        8.385      863.697
01/02/2021  22:53:00     -160.583       20.097       -4.979      106.532      125.806       51.411    11349.101    15827.249     2643.042        2.801        1.491      161.836       56.763        0.123      336.893        8.498      863.679
01/02/2021  22:54:00     -284.259      -51.922      -21.008      126.113      128.789       70.644    15904.414    16586.650     4990.598        6.070        1.874      288.962       51.274        0.031      336.822        8.377      863.679
01/02/2021  22:55:00     -131.986      -27.532      -19.762      120.026      130.089       68.328    14406.233    16923.031     4668.697        2.728        1.800      134.827       50.146        0.138      336.832        8.395      863.630
01/02/2021  22:56:00     -164.945      -14.360      -10.560       97.738       80.493       46.214     9552.782     6479.158     2135.701        2.284        0.908      165.569       35.734        0.047      336.854        8.431      863.667
01/02/2021  22:57:00     -206.113      -39.394      -14.576       89.206      107.581       37.719     7957.747    11573.761     1422.714        3.260        1.048      209.844       17.009        0.007      336.845        8.418      863.702
01/02/2021  22:58:00     -125.391        7.876       -5.766      102.391       65.811       40.433    10483.895     4331.153     1634.827        1.613        0.822      125.638       28.574        0.052      336.877        8.473      863.680
01/02/2021  22:59:00     -177.634       -1.962      -17.906      115.159       57.760       35.784    13261.511     3336.169     1280.516        2.487        0.894      177.645       23.513        0.018      336.876        8.469      863.688
01/02/2021  23:00:00     -111.854       59.188       -6.215       88.900       88.872       44.510     7903.217     7898.185     1981.172        1.691        0.889      126.548       21.236        0.028      336.938        8.573      863.717
01/02/2021  23:01:00     -221.498       14.707       -6.498      152.150      111.651       71.850    23149.685    12465.837     5162.376        4.504        2.039      221.986       60.532        0.074      336.911        8.529      863.741
01/02/2021  23:02:00        1.074        2.396      -19.885       78.570       58.661       41.392     6173.179     3441.149     1713.330        0.586        0.566        2.626       20.077       58.467      336.982        8.648      863.753
01/02/2021  23:03:00     -166.557       51.604      -15.193      166.501       86.747       50.854    27722.614     7525.092     2586.137        3.423        1.892      174.368       52.736        0.091      336.919        8.542      863.782
01/02/2021  23:04:00     -259.676      -16.387       -1.227      129.358       85.519       54.347    16733.415     7313.547     2953.579        4.735        1.350      260.193       51.742        0.040      336.938        8.571      863.783
01/02/2021  23:05:00     -254.395       59.652       -3.001      186.234      126.243       66.614    34683.084    15937.180     4437.434        6.166        2.753      261.295       64.719        0.061      336.950        8.592      863.781
01/02/2021  23:06:00     -306.287      -42.776        1.191      186.483      150.846       80.761    34776.025    22754.435     6522.420        7.983        3.203      309.260       83.573        0.073      336.965        8.616      863.745
01/02/2021  23:07:00     -347.562       33.733      -23.212      199.376      143.911       71.291    39750.971    20710.287     5082.427        9.400        3.277      349.195       69.368        0.039      336.982        8.645      863.732
01/02/2021  23:08:00     -360.205       32.065       -7.814      209.521      195.564      113.628    43898.940    38245.310    12911.367       11.293        4.753      361.630      126.427        0.122      336.984        8.648      863.692
01/02/2021  23:09:00     -449.870       36.354      -12.358      245.725      129.480       90.191    60380.781    16765.082     8134.397       14.455        4.264      451.337       98.322        0.047      336.993        8.664      863.651
01/02/2021  23:10:00     -407.918       33.234       -5.557      208.351      137.915       80.281    43410.305    19020.452     6445.082       11.819        3.444      409.270       87.933        0.046      336.965        8.616      863.668
01/02/2021  23:11:00     -363.653       25.645       -6.495      228.761      118.520       95.030    52331.788    14047.044     9030.631       10.416        3.770      364.557      103.954        0.081      336.965        8.618      863.660
01/02/2021  23:12:00     -204.443       67.913      -21.258      151.485      167.520       57.451    22947.828    28062.868     3300.624        5.057        2.716      215.428       59.751        0.077      336.981        8.645      863.672
01/02/2021  23:13:00     -349.359       48.225       -9.826      261.147      129.503       76.061    68197.517    16770.938     5785.227       10.759        4.538      352.672       84.247        0.057      336.965        8.617      863.661
01/02/2021  23:14:00     -368.772      -35.392      -15.329      325.424      234.887      124.690   105900.563    55172.134    15547.594       15.701        8.831      370.467      153.379        0.171      336.969        8.622      863.665
01/02/2021  23:15:00     -307.959      -70.657      -22.009      240.958      139.345       92.758    58060.748    19416.992     8604.129        9.318        4.304      315.961       91.952        0.085      336.970        8.625      863.690
01/02/2021  23:16:00     -315.564       71.092       -1.355      171.573      115.882       71.448    29437.217    13428.644     5104.751        7.629        2.399      323.473       79.725        0.061      336.943        8.580      863.698
01/02/2021  23:17:00     -447.136       10.447      -13.331      228.205      198.526       87.810    52077.575    39412.730     7710.658       14.969        4.960      447.258       87.304        0.038      336.929        8.556      863.701
01/02/2021  23:18:00     -376.002       73.033       -6.272      184.145      186.630      114.003    33909.248    34830.650    12996.743       11.423        4.087      383.029      103.494        0.073      336.961        8.610      863.649
01/02/2021  23:19:00     -323.377        8.659        4.637      232.444      143.226       96.285    54030.215    20513.673     9270.722        9.422        4.191      323.493      111.923        0.120      336.928        8.556      863.663
01/02/2021  23:20:00     -177.016       -9.762        4.636      165.265      119.534       87.862    27312.510    14288.302     7719.686        4.038        2.466      177.285       90.845        0.263      336.941        8.577      863.659
01/02/2021  23:21:00     -262.068      -59.307      -18.355      187.639      110.483       82.178    35208.304    12206.578     6753.219        6.334        2.708      268.694       85.539        0.101      336.917        8.539      863.645
01/02/2021  23:22:00     -295.108       29.754      -23.724      239.984      199.988       97.355    57592.474    39995.187     9477.970        9.778        5.353      296.604       96.628        0.106      336.933        8.563      863.633
01/02/2021  23:23:00     -326.527      -14.630       -2.254      276.329      186.052       99.243    76357.521    34615.361     9849.095       11.380        6.041      326.855      116.426        0.127      336.935        8.567      863.610
01/02/2021  23:24:00     -275.753      -24.826      -12.049      238.274      162.453       92.284    56774.305    26390.935     8516.335        8.422        4.584      276.868       91.646        0.110      336.965        8.617      863.605
01/02/2021  23:25:00     -394.878      -51.112      -15.186      201.986      137.715       90.390    40798.258    18965.368     8170.408       11.334        3.397      398.172       92.818        0.054      336.948        8.589      863.614
01/02/2021  23:26:00     -498.304     -111.759      -39.017      277.046      147.183      101.184    76754.647    21662.721    10238.213       18.546        5.433      510.683      101.584        0.040      336.941        8.577      863.644
01/02/2021  23:27:00     -501.740      -42.727      -28.617      211.251      168.762       88.903    44627.171    28480.471     7903.775       16.768        4.051      503.556       72.177        0.021      336.934        8.566      863.670
01/02/2021  23:28:00     -313.634      -33.291       -5.121      310.206      187.870       99.765    96227.812    35295.079     9953.070       12.046        7.074      315.395      122.277        0.150      336.958        8.606      863.654
01/02/2021  23:29:00     -328.873       38.049        9.433      224.194      168.031       94.340    50263.074    28234.326     8900.006        9.853        4.370      331.067       99.459        0.090      336.962        8.613      863.661
01/02/2021  23:30:00     -200.500       -6.477       -6.350      166.508      120.512       67.976    27725.002    14523.058     4620.687        4.357        2.343      200.605       76.741        0.146      336.956        8.603      863.686
01/02/2021  23:31:00     -163.980       35.718       -1.886      118.414      137.788       64.479    14021.950    18985.504     4157.504        3.266        1.858      167.825       37.856        0.051      336.955        8.601      863.686
01/02/2021  23:32:00     -199.591       36.403       -1.844      176.174      109.669       70.357    31037.373    12027.223     4950.086        4.458        2.401      202.884       82.164        0.164      336.901        8.512      863.695
01/02/2021  23:33:00     -260.617      -33.506      -10.676      183.889      147.655       93.007    33815.176    21801.859     8650.302        6.670        3.213      262.762       76.761        0.085      336.881        8.477      863.676
01/02/2021  23:34:00     -428.841       -9.061      -35.247      177.854      165.406       93.354    31632.187    27359.288     8714.930       12.645        3.385      428.937       85.356        0.040      336.858        8.439      863.654
01/02/2021  23:35:00     -182.589      -17.625      -12.994      153.476       88.860       66.817    23554.862     7896.149     4464.530        3.486        1.796      183.437       59.767        0.106      336.875        8.468      863.726
01/02/2021  23:36:00     -353.235       52.776       -8.868      211.528      154.231       81.105    44744.213    23787.193     6578.029       10.136        3.755      357.156       86.116        0.058      336.830        8.391      863.743
01/02/2021  23:37:00     -266.411       68.768        0.313      168.104      144.996       72.133    28259.014    21023.802     5203.175        6.508        2.724      275.144       69.472        0.064      336.842        8.412      863.756
01/02/2021  23:38:00     -207.858        0.882       -8.251      112.844      122.004       61.358    12733.661    14884.880     3764.854        3.732        1.569      207.860       53.341        0.066      336.824        8.382      863.794
01/02/2021  23:39:00     -316.936       76.727      -20.208      214.696      159.005       77.856    46094.323    25282.601     6061.496        9.207        3.872      326.091       78.221        0.058      336.805        8.349      863.814
01/02/2021  23:40:00     -172.855       57.722       -2.624      197.048      114.336       72.421    38828.012    13072.789     5244.803        4.517        2.857      182.238       72.789        0.160      336.827        8.388      863.816
01/02/2021  23:41:00     -390.490      -18.796      -18.762      175.610      130.797       83.053    30838.940    17107.779     6897.757       10.400        2.742      390.942       82.195        0.044      336.806        8.351      863.806
01/02/2021  23:42:00     -293.916      -37.530       14.515      242.825      148.737      107.700    58963.931    22122.786    11599.390        9.033        4.634      296.303      120.017        0.164      336.817        8.371      863.827
01/02/2021  23:43:00     -344.836      160.967       -8.124      171.654      138.490       85.940    29465.228    19179.472     7385.624       10.045        2.802      380.556       82.091        0.047      336.841        8.411      863.803
01/02/2021  23:44:00     -418.566       56.213       -1.744      191.712      137.760       90.474    36753.657    18977.893     8185.547       12.112        3.196      422.324       88.217        0.044      336.757        8.270      863.814
01/02/2021  23:45:00     -408.681       49.301       -6.753      172.453      123.915       77.744    29740.171    15354.912     6044.065       11.031        2.557      411.644       80.167        0.038      336.741        8.244      863.857
01/02/2021  23:46:00     -351.151       22.745        9.106      223.664      122.905       88.652    50025.495    15105.653     7859.119        9.843        3.650      351.887      103.244        0.086      336.744        8.249      863.822
01/02/2021  23:47:00     -303.506       72.252        7.208      260.900      117.381       86.112    68068.999    13778.253     7415.268        9.331        4.463      311.987      107.563        0.119      336.716        8.203      863.818
01/02/2021  23:48:00     -340.912       11.196      -23.191      239.742      203.769      106.002    57476.060    41521.856    11236.404       11.354        5.512      341.095      115.286        0.114      336.760        8.276      863.769
01/02/2021  23:49:00     -282.397      -24.857      -14.567      175.349      154.123       79.814    30747.141    23753.908     6370.266        7.071        3.044      283.489       75.247        0.070      336.750        8.259      863.775
01/02/2021  23:50:00     -284.164       13.021       -8.557      191.827      135.238       77.663    36797.433    18289.196     6031.603        7.104        3.056      284.463       62.651        0.049      336.770        8.291      863.769
01/02/2021  23:51:00      -95.601      -27.710       -1.923      180.686      130.476       73.938    32647.481    17024.094     5466.822        3.251        2.757       99.536       48.387        0.236      336.793        8.332      863.794
01/02/2021  23:52:00     -331.330      -41.027      -27.353      290.299      206.197       91.938    84273.559    42517.039     8452.629       12.370        6.762      333.860      110.573        0.110      336.781        8.311      863.766
01/02/2021  23:53:00     -264.790       -2.314      -13.700      232.172      200.073      112.868    53903.681    40029.085    12739.154        8.847        5.334      264.800      127.112        0.230      336.829        8.390      863.788
01/02/2021  23:54:00     -503.336       44.737      -18.761      259.824      158.571       98.074    67508.754    25144.725     9618.578       17.896        5.114      505.320      108.210        0.046      336.820        8.376      863.773
01/02/2021  23:55:00     -419.701      -23.553       -8.937      256.614      179.949      106.682    65850.958    32381.508    11380.987       14.317        5.481      420.361      109.715        0.068      336.825        8.382      863.741
01/02/2021  23:56:00     -353.680      -46.479      -21.316      269.819      147.531      103.297    72802.203    21765.283    10670.252       11.645        5.262      356.721       87.559        0.060      336.820        8.376      863.746
01/02/2021  23:57:00     -403.498        7.297       -8.407      227.808      173.080      105.506    51896.535    29956.535    11131.547       12.794        4.649      403.564       92.848        0.053      336.839        8.407      863.739
01/02/2021  23:58:00     -215.224      -70.122      -12.322      230.208      158.698       90.629    52995.910    25184.999     8213.615        6.887        4.320      226.360       85.652        0.143      336.838        8.404      863.751
01/02/2021  23:59:00     -371.625      -57.635      -33.496      135.540      145.455       65.329    18371.022    21157.222     4267.892        9.316        2.190      376.067       58.995        0.025      336.805        8.351      863.767
01/03/2021  00:00:00     -114.183      -13.116      -18.315      191.738      124.330       93.582    36763.646    15457.922     8757.680        3.725        3.049      114.934      100.537        0.765      336.812        8.363      863.776
01/03/2021  00:01:00     -267.385      -20.668      -19.672      250.042      149.555      110.252    62521.098    22366.656    12155.477        8.466        4.852      268.183      116.123        0.187      336.769        8.290      863.786
01/03/2021  00:02:00     -213.770       75.375       -4.000      255.758      149.762       80.769    65412.289    22428.567     6523.555        7.286        4.718      226.670       76.431        0.114      336.774        8.300      863.776
01/03/2021  00:03:00     -253.043        7.520       11.788      141.380      107.144       71.254    19988.283    11479.936     5077.203        5.038        1.827      253.155       73.875        0.085      336.730        8.225      863.777
01/03/2021  00:04:00     -288.179      -56.611      -19.372      154.113      114.418       67.589    23750.839    13091.591     4568.250        6.401        2.071      293.686       67.627        0.053      336.704        8.181      863.767
01/03/2021  00:05:00     -376.383        3.196       -8.495      202.540      120.972       76.777    41022.426    14634.105     5894.663       10.164        3.078      376.397       72.079        0.037      336.676        8.134      863.750
01/03/2021  00:06:00     -276.444       36.302        4.749      175.375      114.887       74.670    30756.529    13198.967     5575.674        6.364        2.477      278.817       71.004        0.065      336.672        8.128      863.771
01/03/2021  00:07:00     -363.409       47.964      -21.095      209.423      166.021       89.995    43857.981    27563.062     8099.125       10.715        3.976      366.561       74.712        0.042      336.709        8.189      863.756
01/03/2021  00:08:00     -334.379      -92.830      -16.560      301.392      160.374      105.712    90837.254    25719.675    11174.960       12.419        6.387      347.026      123.248        0.126      336.700        8.176      863.746
01/03/2021  00:09:00     -512.791       -0.065      -42.308      249.730      183.412      102.418    62365.260    33639.821    10489.367       18.560        5.325      512.791      109.592        0.046      336.700        8.174      863.743
01/03/2021  00:10:00     -360.117      -36.750      -22.400      234.148      146.855       80.730    54825.260    21566.487     6517.364       10.720        4.145      361.987       87.677        0.059      336.722        8.212      863.734
01/03/2021  00:11:00     -167.624       32.937        6.313      197.819      117.372       69.634    39132.265    13776.148     4848.857        4.348        2.888      170.829       87.458        0.262      336.760        8.278      863.715
01/03/2021  00:12:00     -164.682       -3.537       13.673      167.569      128.360       72.127    28079.511    16476.359     5202.277        3.853        2.488      164.720       83.344        0.256      336.701        8.178      863.718
01/03/2021  00:13:00     -237.729      -19.219      -12.005      154.790       95.764       54.982    23959.904     9170.754     3023.039        4.658        1.808      238.505       53.426        0.050      336.666        8.118      863.712
01/03/2021  00:14:00     -290.763      -28.881      -24.142      164.592      160.812       73.767    27090.534    25860.350     5441.617        7.216        2.920      292.194       63.556        0.047      336.689        8.156      863.711
01/03/2021  00:15:00     -497.038      -30.985      -56.024      211.708      144.634       95.312    44820.418    20918.860     9084.360       16.297        3.741      498.003       84.640        0.029      336.665        8.116      863.708
01/03/2021  00:16:00     -312.926      -59.968      -21.048      226.106      188.834       95.736    51123.859    35658.391     9165.386        9.893        4.797      318.620       96.133        0.091      336.684        8.148      863.687
01/03/2021  00:17:00     -310.256      -67.271       -1.449      243.806      165.428       99.367    59441.171    27366.440     9873.820        9.871        4.834      317.465      104.520        0.108      336.681        8.145      863.641
01/03/2021  00:18:00     -280.986      -26.972      -15.437      264.733      191.748      107.024    70083.580    36767.426    11454.113        9.909        5.915      282.278      121.379        0.185      336.674        8.132      863.623
01/03/2021  00:19:00     -371.021       11.929       -2.783      205.205      162.007       96.835    42109.163    26246.377     9376.959       10.775        3.887      371.212       99.847        0.072      336.644        8.082      863.619
01/03/2021  00:20:00     -346.746      -37.666       -8.304      192.069      146.502       80.213    36890.432    21462.908     6434.077        9.324        3.239      348.786       89.856        0.066      336.642        8.079      863.644
01/03/2021  00:21:00     -474.326       46.421      -11.782      286.156      191.029      107.898    81885.409    36492.140    11641.910       17.862        6.501      476.593      104.162        0.048      336.637        8.070      863.649
01/03/2021  00:22:00     -182.909       -5.669       -2.498      208.277      144.174       99.882    43379.121    20786.188     9976.357        5.380        3.707      182.997      103.820        0.322      336.669        8.124      863.657
01/03/2021  00:23:00     -437.918        9.951      -11.432      209.154      160.777       94.030    43745.530    25849.340     8841.580       13.520        3.922      438.031       99.148        0.051      336.618        8.038      863.660
01/03/2021  00:24:00     -522.812      -59.067      -44.092      241.816      185.393      104.252    58475.193    34370.426    10868.521       19.122        5.186      526.139      102.733        0.038      336.636        8.069      863.644
01/03/2021  00:25:00     -246.095      -26.606       -2.528      246.921      126.666       90.700    60969.994    16044.185     8226.484        7.324        4.262      247.529       96.795        0.153      336.637        8.071      863.630
01/03/2021  00:26:00     -298.128      -10.266       -4.340      326.584      175.462      121.624   106656.825    30786.892    14792.499       12.059        7.612      298.305       92.232        0.096      336.636        8.070      863.627
01/03/2021  00:27:00     -435.043      -99.619      -27.658      192.896      129.038       98.664    37208.702    16650.731     9734.606       13.176        3.180      446.303      101.714        0.052      336.614        8.031      863.601
01/03/2021  00:28:00     -178.696       14.189       -4.082      172.097      125.522       71.540    29617.438    15755.794     5117.917        4.131        2.525      179.259       76.908        0.184      336.623        8.047      863.583
01/03/2021  00:29:00     -248.191      -17.640      -15.757      183.022      113.274       81.138    33496.937    12831.035     6583.384        5.752        2.646      248.817       60.570        0.059      336.593        7.997      863.554
01/03/2021  00:30:00     -331.932      -33.362       -6.178      240.629      163.242      107.584    57902.293    26648.075    11574.337       10.371        4.806      333.604       97.119        0.085      336.598        8.006      863.543
01/03/2021  00:31:00     -273.813       22.329        0.507      257.266      186.591      102.778    66186.010    34816.267    10563.285        9.349        5.578      274.722      102.530        0.139      336.600        8.009      863.493
01/03/2021  00:32:00     -423.243       92.806      -14.731      210.099      155.872       98.860    44141.799    24296.093     9773.354       13.307        3.911      433.298       98.313        0.051      336.593        7.998      863.474
01/03/2021  00:33:00     -514.871       26.737       -4.100      332.458      190.251      109.094   110528.379    36195.624    11901.398       21.219        7.931      515.565      111.843        0.047      336.646        8.085      863.469
01/03/2021  00:34:00     -459.710      -92.097       -0.448      268.619      227.917      132.830    72156.322    51946.119    17643.880       18.075        7.087      468.844      140.174        0.089      336.634        8.065      863.481
01/03/2021  00:35:00     -419.346      -43.316      -37.291      341.897      222.180      120.386   116893.744    49364.070    14492.880       17.989        9.038      421.577      127.732        0.092      336.635        8.068      863.496
01/03/2021  00:36:00     -257.791      -33.430      -29.733      255.379      162.900      117.123    65218.667    26536.342    13717.904        8.694        5.274      259.950      122.435        0.222      336.615        8.034      863.511
01/03/2021  00:37:00     -420.758       14.886       -1.589      297.594      175.386      126.394    88562.005    30760.279    15975.386       15.625        6.765      421.021      131.841        0.098      336.588        7.990      863.481
01/03/2021  00:38:00     -389.792       12.854      -15.607      239.163      135.255       84.127    57198.786    18293.799     7077.284       11.744        4.128      390.004       89.646        0.053      336.563        7.948      863.480
01/03/2021  00:39:00     -350.006       34.001      -19.928      227.705      203.455       98.167    51849.599    41393.768     9636.708       11.345        5.144      351.654       88.831        0.064      336.542        7.912      863.462
01/03/2021  00:40:00     -365.477      -52.571      -25.125      249.071      180.126      117.863    62036.283    32445.205    13891.569       12.265        5.419      369.238      118.516        0.103      336.545        7.916      863.438
01/03/2021  00:41:00     -476.692        8.048      -10.587      257.436      153.070       97.415    66273.466    23430.359     9489.777       16.328        4.960      476.760       98.712        0.043      336.527        7.887      863.431
01/03/2021  00:42:00     -567.128      -79.149      -34.745      373.165      172.656      129.783   139252.089    29810.132    16843.543       25.747        9.295      572.624      132.584        0.054      336.543        7.913      863.417
01/03/2021  00:43:00     -535.097      -36.295      -27.271      235.722      168.914      104.610    55565.041    28532.046    10943.302       19.169        4.752      536.326      107.343        0.040      336.539        7.907      863.408
01/03/2021  00:44:00     -388.408      -20.091      -17.314      338.240      193.394      144.455   114406.257    37401.047    20867.305       16.208        8.634      388.928      167.617        0.186      336.539        7.904      863.422
01/03/2021  00:45:00     -407.960       10.576      -28.762      240.287      170.931       97.541    57737.954    29217.276     9514.161       13.190        4.823      408.097      110.494        0.073      336.540        7.908      863.441
01/03/2021  00:46:00     -370.662       -9.049      -18.501      250.544      150.254      104.677    62772.336    22576.122    10957.191       11.704        4.815      370.773      115.279        0.097      336.528        7.888      863.408
01/03/2021  00:47:00     -490.108      -47.873      -46.029      322.803      211.617      121.173   104201.611    44781.571    14682.813       20.411        8.183      492.441      131.356        0.071      336.504        7.847      863.394
01/03/2021  00:48:00     -476.605      -42.519      -14.412      260.456      166.915      116.435    67837.211    27860.682    13557.141       16.919        5.463      478.498      119.947        0.063      336.491        7.826      863.397
01/03/2021  00:49:00     -124.292        8.542        4.465      263.028      169.166       93.331    69183.731    28617.214     8710.631        6.100        5.326      124.586       83.124        0.445      336.535        7.899      863.372
01/03/2021  00:50:00     -419.333       -9.795      -14.293      215.125      182.217       92.738    46278.599    33203.053     8600.392       13.209        4.404      419.447      103.962        0.061      336.485        7.814      863.378
01/03/2021  00:51:00     -123.505       -0.724       -5.390      188.930      170.281      103.163    35694.410    28995.545    10642.585        4.529        3.767      123.507       77.263        0.391      336.493        7.829      863.372
01/03/2021  00:52:00     -335.722      111.741        5.960      231.784      211.121      112.050    53723.859    44572.263    12555.264       11.802        5.543      353.830      108.880        0.095      336.494        7.830      863.362
01/03/2021  00:53:00     -405.874        1.165       -4.987      318.717      168.868       99.425   101580.461    28516.271     9885.429       15.234        6.999      405.876      115.913        0.082      336.465        7.780      863.357
01/03/2021  00:54:00     -500.613       34.653       -5.117      288.496      213.806      132.000    83229.966    45713.199    17423.946       19.907        7.318      501.811      147.262        0.086      336.464        7.779      863.376
01/03/2021  00:55:00     -497.948       -0.693       10.541      324.307      206.321      135.251   105175.144    42568.159    18292.781       20.701        8.302      497.949      139.916        0.079      336.491        7.824      863.398
01/03/2021  00:56:00     -566.716      -14.658      -21.790      281.346      256.101      124.370    79155.840    65587.774    15467.795       24.100        8.011      566.906      127.158        0.050      336.474        7.796      863.371
01/03/2021  00:57:00     -306.759      -37.988      -13.248      259.573      164.784      108.086    67378.260    27153.793    11682.654       10.094        5.311      309.102      121.476        0.154      336.464        7.779      863.413
01/03/2021  00:58:00     -575.978      -16.818        2.950      332.749      199.633      132.621   110721.958    39853.147    17588.406       25.007        8.408      576.224      141.472        0.060      336.466        7.782      863.407
01/03/2021  00:59:00     -538.599     -115.117      -26.470      264.660      199.425      110.946    70044.996    39770.223    12309.114       21.306        6.106      550.764      118.577        0.046      336.456        7.765      863.430
01/03/2021  01:00:00     -554.140      -63.113      -11.975      291.477      219.912      135.881    84959.004    48361.120    18463.561       23.146        7.589      557.722      147.938        0.070      336.447        7.750      863.417
01/03/2021  01:01:00     -622.413      -10.482      -21.953      262.025      185.491      123.727    68657.139    34406.758    15308.437       25.316        5.919      622.501      112.447        0.033      336.444        7.744      863.397
01/03/2021  01:02:00     -474.056       90.756      -12.129      316.258      184.302      116.710   100019.161    33967.374    13621.142       19.033        7.380      482.665      134.800        0.078      336.469        7.788      863.374
01/03/2021  01:03:00     -552.988     -122.422      -22.200      341.447      234.814      138.316   116585.764    55137.574    19131.289       25.602        9.543      566.377      167.537        0.088      336.447        7.751      863.317
01/03/2021  01:04:00     -437.473       -8.749       -8.083      315.311      182.490      117.397    99421.197    33302.638    13782.081       16.898        7.325      437.561      120.878        0.076      336.435        7.732      863.329
01/03/2021  01:05:00     -441.783      -10.394      -11.467      352.191      190.231      130.394   124038.840    36187.655    17002.636       18.628        8.861      441.906      152.408        0.119      336.423        7.712      863.273
01/03/2021  01:06:00     -396.396      -57.058       -1.282      268.986      167.533      122.091    72353.416    28067.236    14906.254       13.783        5.766      400.481      119.962        0.090      336.420        7.705      863.296
01/03/2021  01:07:00     -359.750       30.975        3.141      266.459      138.508       98.930    71000.299    19184.369     9787.198       11.516        4.999      361.081      120.421        0.111      336.414        7.695      863.270
01/03/2021  01:08:00     -518.898      -34.076      -33.783      297.861      157.697      104.772    88720.881    24868.322    10977.090       19.803        6.228      520.015      112.675        0.047      336.410        7.689      863.249
01/03/2021  01:09:00     -370.752      -65.719      -15.671      355.561      192.813      120.496   126423.466    37177.012    14519.319       16.003        8.906      376.532      134.185        0.127      336.427        7.717      863.230
01/03/2021  01:10:00     -424.955     -117.644      -17.782      286.243      165.369      109.859    81935.106    27346.884    12069.103       15.802        6.068      440.939      109.477        0.062      336.418        7.701      863.202
01/03/2021  01:11:00     -415.571      -13.428      -12.916      286.275      170.796      127.614    81953.395    29171.257    16285.310       15.020        6.370      415.788      136.389        0.108      336.405        7.681      863.215
01/03/2021  01:12:00     -337.370      -51.474       25.972      255.888      175.434      115.852    65478.744    30777.085    13421.653       11.339        5.484      341.275      118.213        0.120      336.413        7.693      863.209
01/03/2021  01:13:00     -467.230      -32.293       -9.050      281.810      196.797      112.025    79416.784    38728.984    12549.609       17.503        6.535      468.344       95.508        0.042      336.394        7.663      863.194
01/03/2021  01:14:00     -614.101      -54.729      -12.631      320.993      189.012      129.289   103036.543    35725.548    16715.709       26.784        7.774      616.534      145.269        0.056      336.360        7.606      863.202
01/03/2021  01:15:00     -401.270       -9.773      -21.018      346.106      189.831      120.623   119789.594    36035.853    14549.902       16.593        8.519      401.389      139.804        0.121      336.375        7.630      863.214
01/03/2021  01:16:00     -191.591      -12.914       12.169      228.494      179.025      119.915    52209.395    32049.909    14379.635        6.781        4.932      192.026      119.450        0.387      336.383        7.644      863.253
01/03/2021  01:17:00     -511.558      -96.494      -40.675      340.982      206.656      117.769   116268.911    42706.769    13869.456       22.271        8.642      520.579      115.725        0.049      336.371        7.623      863.239
01/03/2021  01:18:00     -359.274      -14.329      -23.304      286.843      173.740      112.103    82278.687    30185.658    12567.068       12.740        6.252      359.560      106.478        0.088      336.356        7.599      863.280
01/03/2021  01:19:00     -237.613      -67.954       12.154      266.745      176.368      124.084    71152.898    31105.775    15396.864        8.941        5.883      247.139      128.939        0.272      336.372        7.626      863.309
01/03/2021  01:20:00     -234.789      -18.339      -16.374      290.583      170.222      115.525    84438.354    28975.418    13346.039        9.122        6.338      235.504      120.022        0.260      336.383        7.644      863.304
01/03/2021  01:21:00     -202.543       77.908        7.471      210.662      153.293       88.560    44378.658    23498.703     7842.911        6.142        3.786      217.010       99.068        0.208      336.397        7.668      863.320
01/03/2021  01:22:00     -302.536      -52.156      -35.666      144.502      123.525       79.858    20880.947    15258.528     6377.300        6.901        2.126      306.999       51.262        0.028      336.383        7.642      863.350
01/03/2021  01:23:00     -428.931       43.548      -25.972      234.605      146.499      102.686    55039.538    21462.020    10544.375       13.678        4.352      431.136       90.984        0.045      336.372        7.626      863.353
01/03/2021  01:24:00     -402.945       37.341       -5.927      204.578      152.770       92.696    41851.960    23338.643     8592.467       11.877        3.689      404.672       88.761        0.048      336.361        7.607      863.358
01/03/2021  01:25:00     -257.520       31.342        9.675      187.118      118.263       85.644    35013.032    13986.216     7334.968        6.185        2.817      259.420       81.147        0.098      336.390        7.657      863.337
01/03/2021  01:26:00     -316.300      108.133        4.632      179.285      139.213       82.415    32143.227    19380.178     6792.263        8.503        2.916      334.272       79.669        0.057      336.397        7.668      863.353
01/03/2021  01:27:00     -360.437       45.569      -24.892      239.171      139.837       83.330    57202.995    19554.430     6943.935       10.814        4.185      363.306       93.352        0.066      336.349        7.586      863.381
01/03/2021  01:28:00     -233.086       34.078       -5.868      207.448      123.160       85.000    43034.664    15168.297     7224.984        6.046        3.271      235.564       36.483        0.024      336.410        7.689      863.422
01/03/2021  01:29:00     -445.097      -21.191      -18.673      245.641      181.994      100.741    60339.743    33121.922    10148.768       15.124        5.181      445.601      104.897        0.055      336.344        7.578      863.464
01/03/2021  01:30:00     -235.189        0.036       -6.589      186.306      152.208       91.630    34709.970    23167.254     8396.074        6.080        3.314      235.189       81.734        0.121      336.341        7.576      863.503
01/03/2021  01:31:00     -314.409       -2.885        7.063      220.459      169.390      110.352    48602.167    28693.131    12177.587        9.417        4.474      314.422       99.034        0.099      336.301        7.507      863.490
01/03/2021  01:32:00     -331.729        1.687       -6.239      153.230      133.975       73.073    23479.310    17949.283     5339.607        7.842        2.338      331.733       68.833        0.043      336.290        7.489      863.462
01/03/2021  01:33:00     -286.773       -9.220       -4.466      206.647      141.911       74.246    42702.936    20138.606     5512.539        7.533        3.418      286.922       89.426        0.097      336.320        7.539      863.461
01/03/2021  01:34:00     -300.451       68.613      -17.856      249.426      161.338      108.622    62213.382    26029.893    11798.736        9.765        5.002      308.186      125.412        0.166      336.289        7.486      863.473
01/03/2021  01:35:00     -278.611       -1.895       -2.117      272.608      124.569       97.631    74315.237    15517.458     9531.750        8.848        4.968      278.618      109.373        0.154      336.278        7.469      863.516
01/03/2021  01:36:00     -435.810       -6.963       -7.302      216.966      161.767      104.933    47074.170    26168.420    11011.018       13.712        4.213      435.865      114.963        0.070      336.251        7.424      863.524
01/03/2021  01:37:00     -492.219       71.808      -23.117      243.013      153.608       99.958    59055.482    23595.331     9991.505       17.029        4.632      497.430      110.554        0.049      336.257        7.434      863.532
01/03/2021  01:38:00     -330.041       73.832      -20.062      185.897      112.066       75.592    34557.768    12558.775     5714.171        8.379        2.642      338.199       79.747        0.056      336.263        7.443      863.578
01/03/2021  01:39:00     -408.371       35.910      -13.901      207.664      145.996       88.777    43124.266    21314.722     7881.393       12.027        3.616      409.947       83.022        0.041      336.231        7.390      863.593
01/03/2021  01:40:00     -394.923       49.917      -15.733      201.931      161.131       78.190    40776.241    25963.133     6113.599       11.576        3.643      398.065       81.599        0.042      336.269        7.453      863.577
01/03/2021  01:41:00     -322.459      -13.351      -33.595      252.469      155.194       90.102    63740.354    24085.251     8118.310       10.059        4.797      322.735       82.049        0.065      336.240        7.406      863.576
01/03/2021  01:42:00     -322.354       45.622        7.501      229.938      136.620       78.733    52871.430    18664.966     6198.878        9.188        3.887      325.566       88.400        0.074      336.242        7.410      863.567
01/03/2021  01:43:00     -400.621       79.519       18.172      322.950      168.609      101.139   104296.495    28429.099    10229.076       15.502        7.148      408.437      125.256        0.094      336.231        7.391      863.574
01/03/2021  01:44:00     -439.383       46.965       -8.888      232.293      156.422       88.513    53960.049    24467.931     7834.493       14.078        4.313      441.886       88.071        0.040      336.225        7.379      863.588
01/03/2021  01:45:00     -447.599       67.534      -14.916      275.822      191.875       94.069    76077.883    36815.991     8848.989       16.341        6.087      452.665      100.355        0.049      336.202        7.342      863.588
01/03/2021  01:46:00     -413.064      128.604       15.120      222.371      173.440       86.754    49448.675    30081.294     7526.297       13.720        4.353      432.621       90.774        0.044      336.199        7.338      863.573
01/03/2021  01:47:00     -269.655       23.060        7.465      273.502      156.122       96.928    74803.490    24373.926     9395.025        9.091        5.429      270.639      107.997        0.159      336.185        7.314      863.570
01/03/2021  01:48:00     -275.515       27.010        6.668      254.523      159.602       95.840    64781.929    25472.866     9185.358        8.804        4.972      276.835       73.933        0.071      336.196        7.332      863.512
01/03/2021  01:49:00     -380.274       10.439        8.265      243.072      193.474      100.708    59083.879    37432.380    10142.064       12.570        5.333      380.417       86.884        0.052      336.193        7.327      863.514
01/03/2021  01:50:00     -364.443      -27.040       -1.858      205.200      150.610       88.884    42107.239    22683.376     7900.435       10.311        3.635      365.444       88.099        0.058      336.168        7.286      863.532
01/03/2021  01:51:00     -205.129       19.421        4.098      201.998      112.936       74.717    40803.227    12754.492     5582.608        5.079        2.957      206.047       79.940        0.151      336.202        7.342      863.511
01/03/2021  01:52:00     -417.695      110.618       -0.174      228.293      140.237      100.138    52117.905    19666.477    10027.669       13.424        4.091      432.095       99.657        0.053      336.184        7.313      863.479
01/03/2021  01:53:00     -289.368       15.596      -21.907      202.654      148.302       87.563    41068.779    21993.498     7667.333        7.758        3.536      289.788       82.103        0.080      336.190        7.323      863.440
01/03/2021  01:54:00     -292.791       12.114      -10.834      181.195      129.549       71.976    32831.715    16782.880     5180.566        7.038        2.740      293.042       61.779        0.044      336.183        7.311      863.505
01/03/2021  01:55:00     -206.286       36.685       -8.933      231.109      134.099       97.275    53411.425    17982.579     9462.402        6.240        4.043      209.522       80.284        0.147      336.213        7.360      863.504
01/03/2021  01:56:00     -172.506        8.950       10.007      213.063      131.773       87.920    45395.788    17364.191     7729.915        5.020        3.524      172.738       84.658        0.240      336.212        7.361      863.504
01/03/2021  01:57:00     -419.022       85.250        5.450      223.099      161.918       84.416    49772.976    26217.312     7126.101       13.298        4.156      427.606       91.638        0.046      336.292        7.491      863.448
01/03/2021  01:58:00     -391.001       48.358      -13.666      214.863      148.255       81.942    46166.027    21979.575     6714.445       11.512        3.743      393.980       83.317        0.045      336.374        7.629      863.487
01/03/2021  01:59:00     -295.159       35.085       -9.885      240.872      108.770      102.425    58019.308    11830.993    10490.861        8.438        4.017      297.237      109.851        0.137      336.329        7.553      863.515
01/03/2021  02:00:00     -323.890       15.671      -10.805      241.451      144.698       88.022    58298.450    20937.519     7747.881        9.611        4.349      324.269      107.876        0.111      336.370        7.623      863.540
01/03/2021  02:01:00     -389.055       50.200        6.752      210.120      136.420       91.614    44150.251    18610.301     8393.172       11.253        3.558      392.281      102.347        0.068      336.357        7.599      863.542
01/03/2021  02:02:00     -446.129       99.603       10.885      279.985      156.736       91.851    78391.527    24566.055     8436.524       16.021        5.570      457.113      108.552        0.056      336.429        7.722      863.572
01/03/2021  02:03:00     -330.796       53.997        8.444      180.987      110.596       71.625    32756.184    12231.391     5130.122        8.125        2.506      335.174       73.510        0.048      336.398        7.668      863.606
01/03/2021  02:04:00     -222.570       88.594        4.606      243.802      149.725       79.040    59439.559    22417.506     6247.325        7.274        4.405      239.555       88.596        0.137      336.410        7.689      863.666
01/03/2021  02:05:00     -313.941      100.734       -4.304      208.427      132.292       87.081    43441.607    17501.207     7583.121        8.861        3.426      329.707       82.244        0.062      336.449        7.755      863.745
01/03/2021  02:06:00     -403.604      -10.144      -14.562      224.506      154.401       92.747    50403.077    23839.768     8601.989       12.301        4.142      403.731       78.764        0.038      336.410        7.690      863.785
01/03/2021  02:07:00     -127.233        5.822        3.787      142.378      107.064       74.718    20271.613    11462.724     5582.818        2.677        1.866      127.366       71.890        0.319      336.393        7.661      863.811
01/03/2021  02:08:00     -236.860       56.433      -12.059      256.284      139.013       77.601    65681.420    19324.741     6021.954        7.521        4.551      243.490       87.551        0.129      336.399        7.670      863.864
01/03/2021  02:09:00     -246.541       75.499       14.759      209.015      132.131       90.621    43687.360    17458.732     8212.100        6.801        3.468      257.843       74.120        0.083      336.391        7.658      863.927
01/03/2021  02:10:00     -423.955       25.246      -20.467      219.942      123.455       93.000    48374.607    15241.079     8648.916       12.651        3.613      424.706       88.852        0.044      336.373        7.628      863.978
01/03/2021  02:11:00     -450.447       28.614        1.948      225.266      149.840       90.717    50744.593    22451.915     8229.597       14.256        4.071      451.355       95.353        0.045      336.355        7.597      864.000
01/03/2021  02:12:00     -407.331      -49.416      -16.917      243.951      143.705       82.945    59512.096    20651.110     6879.883       12.783        4.352      410.318       88.569        0.047      336.349        7.586      864.029
01/03/2021  02:13:00     -259.956       16.719      -27.605      249.970      194.495       92.503    62484.822    37828.309     8556.781        8.872        5.443      260.493       77.153        0.088      336.406        7.682      864.057
01/03/2021  02:14:00     -312.736       17.326        6.331      240.825      145.995       80.113    57996.721    21314.554     6418.043        9.192        4.286      313.216       85.734        0.075      336.430        7.724      864.053
01/03/2021  02:15:00     -269.798       -7.084       -9.847      255.622      126.195       91.366    65342.574    15925.169     8347.774        8.126        4.481      269.891       95.091        0.124      336.388        7.654      864.047
01/03/2021  02:16:00     -312.040      -45.429      -21.602      202.363      111.408       87.898    40950.707    12411.843     7726.070        8.048        3.054      315.329       84.762        0.072      336.354        7.596      864.037
01/03/2021  02:17:00     -408.308        6.000      -11.348      246.452      145.141       90.681    60738.668    21065.856     8223.102       12.843        4.501      408.352       73.763        0.033      336.313        7.527      864.054
01/03/2021  02:18:00     -191.925      -26.959        2.693      205.761      132.542      100.216    42337.784    17567.291    10043.162        5.374        3.497      193.809       95.172        0.241      336.380        7.640      864.052
01/03/2021  02:19:00     -197.010      -18.033      -18.458      208.293      118.602       86.118    43385.989    14066.380     7416.383        5.216        3.243      197.833       61.451        0.096      336.422        7.711      864.012
01/03/2021  02:20:00     -289.798      -86.654      -12.156      244.119      142.833      103.549    59593.920    20401.281    10722.427        9.116        4.536      302.476      114.531        0.143      336.378        7.636      864.011
01/03/2021  02:21:00     -381.777      -70.800      -20.518      181.703      117.049       83.974    33015.862    13700.426     7051.550       10.247        2.688      388.286       91.259        0.055      336.362        7.609      864.001
01/03/2021  02:22:00     -333.691       22.166      -13.349      138.453      118.459       72.506    19169.137    14032.617     5257.130        7.523        1.923      334.426       71.682        0.046      336.322        7.542      863.995
01/03/2021  02:23:00     -254.414      -33.901       -5.839      208.431      117.723       74.241    43443.468    13858.691     5511.799        6.435        3.141      256.663       82.599        0.104      336.351        7.589      863.968
01/03/2021  02:24:00     -203.132      -55.170       -7.581      205.754      119.401       94.475    42334.806    14256.609     8925.546        5.493        3.276      210.491       94.432        0.201      336.332        7.560      863.917
01/03/2021  02:25:00     -422.472      -39.947      -12.736      300.444      172.094      111.657    90266.754    29616.267    12467.386       15.627        6.618      424.356      105.710        0.062      336.310        7.521      863.890
01/03/2021  02:26:00     -425.814      -49.107      -15.217      256.787      137.961      105.246    65939.806    19033.118    11076.770       13.998        4.802      428.636      121.104        0.080      336.295        7.498      863.863
01/03/2021  02:27:00     -377.075      -44.015      -20.285      292.120      196.507      115.248    85334.097    38615.031    13281.999       14.085        6.862      379.635      114.105        0.090      336.334        7.562      863.841
01/03/2021  02:28:00     -369.875      -55.115       -8.929      250.914      146.767       97.720    62957.961    21540.586     9549.201       11.697        4.702      373.959      113.358        0.092      336.388        7.652      863.886
01/03/2021  02:29:00     -325.054      -33.904      -25.545      254.958      140.804       99.299    65003.475    19825.801     9860.321       10.105        4.734      326.817      107.861        0.109      336.371        7.624      863.890
01/03/2021  02:30:00     -106.431        0.547      -14.220      215.326      176.588       97.760    46365.147    31183.282     9556.966        4.930        4.355      106.432       84.013        0.623      336.403        7.679      863.936
01/03/2021  02:31:00     -451.056     -103.671      -19.113      274.951      203.213      127.837    75598.017    41295.485    16342.219       17.387        6.662      462.816      146.722        0.101      336.462        7.775      863.876
01/03/2021  02:32:00     -429.038      -19.974      -20.355      175.640      136.053       95.653    30849.551    18510.550     9149.476       12.169        2.925      429.503       83.908        0.038      336.398        7.669      863.816
01/03/2021  02:33:00     -368.670      -13.391      -16.285      241.958      128.211       83.616    58543.506    16438.004     6991.627       10.915        4.099      368.913       88.946        0.058      336.405        7.681      863.780
01/03/2021  02:34:00     -339.057      -32.846      -12.300      359.290      201.525      139.919   129089.007    40612.162    19577.283       15.269        9.464      340.644      163.285        0.230      336.378        7.633      863.783
01/03/2021  02:35:00     -442.193       34.190      -26.756      290.581      200.409      116.421    84437.199    40163.941    13553.805       16.776        6.908      443.513      127.950        0.083      336.360        7.604      863.834
01/03/2021  02:36:00     -240.761       43.017        2.465      303.068      166.329      110.615    91850.374    27665.448    12235.721        9.576        6.588      244.573      129.039        0.278      336.379        7.637      863.878
01/03/2021  02:37:00     -310.188      -11.004      -32.674      223.627      158.218       91.588    50008.929    25032.958     8388.440        9.040        4.172      310.383       95.685        0.095      336.381        7.640      863.928
01/03/2021  02:38:00      -82.464      -11.255       -9.761      233.722      186.219       94.723    54625.880    34677.631     8972.535        5.263        4.914       83.229       73.804        0.786      336.381        7.641      863.961
01/03/2021  02:39:00     -325.456      -18.102      -24.431      302.728      173.392      110.589    91643.942    30064.792    12229.839       12.036        6.697      325.959      130.943        0.161      336.328        7.553      864.000
01/03/2021  02:40:00     -405.829       65.919       -8.155      224.492      186.193      100.563    50396.738    34667.938    10112.955       13.212        4.759      411.148      109.044        0.070      336.309        7.520      864.040
01/03/2021  02:41:00     -304.745      137.383        0.312      280.175      184.357      101.386    78498.120    33987.484    10279.216       11.723        6.138      334.281      107.086        0.103      336.299        7.506      864.122
01/03/2021  02:42:00     -346.906       19.855      -33.252      222.405      152.694       84.865    49463.992    23315.544     7202.068       10.090        3.999      347.473       56.868        0.027      336.271        7.458      864.174
01/03/2021  02:43:00     -484.422       79.068        7.994      269.936      188.667      105.258    72865.293    35595.380    11079.200       18.023        5.977      490.832      108.483        0.049      336.274        7.462      864.247
01/03/2021  02:44:00     -550.463       86.852       -8.383      297.313      187.115      102.507    88394.816    35012.154    10507.586       22.224        6.696      557.272      116.209        0.043      336.284        7.477      864.279
01/03/2021  02:45:00     -439.040       21.504      -22.683      235.256      162.657      106.600    55345.409    26457.247    11363.517       14.343        4.658      439.567      113.174        0.066      336.263        7.444      864.320
01/03/2021  02:46:00     -389.975       98.763        8.441      326.639      210.208      121.595   106693.125    44187.584    14785.360       16.375        8.283      402.287      124.841        0.096      336.258        7.437      864.353
01/03/2021  02:47:00     -499.775       64.227       -4.219      263.577      221.134      132.448    69472.964    48900.220    17542.401       19.489        6.796      503.885      139.139        0.076      336.265        7.445      864.367
01/03/2021  02:48:00     -431.156       -5.326      -13.072      275.560      203.230      122.540    75933.164    41302.602    15016.097       15.914        6.613      431.188      124.517        0.083      336.273        7.461      864.384
01/03/2021  02:49:00     -398.942      -24.137       -5.604      320.384      206.816      141.248   102646.087    42772.847    19950.902       16.253        8.268      399.671      137.801        0.119      336.295        7.497      864.345
01/03/2021  02:50:00     -436.503        4.291      -12.882      379.536      222.156      152.715   144047.771    49353.463    23321.859       20.367       10.836      436.524      175.962        0.162      336.322        7.543      864.335
01/03/2021  02:51:00     -404.673       -5.794       -4.520      316.154      208.580      118.499    99953.244    43505.419    14042.011       16.062        7.875      404.714      119.473        0.087      336.319        7.536      864.321
01/03/2021  02:52:00     -481.645      -22.275      -30.245      272.545      192.275      124.935    74280.555    36969.722    15608.822       18.010        6.343      482.160      137.501        0.081      336.290        7.490      864.291
01/03/2021  02:53:00     -322.903       11.947        3.672      299.612      225.436      125.530    89767.538    50821.414    15757.695       13.035        7.817      323.124      140.952        0.190      336.268        7.452      864.301
01/03/2021  02:54:00     -423.887      -31.384      -17.713      373.951      170.334      133.837   139839.521    29013.788    17912.453       18.383        9.338      425.047      147.136        0.120      336.247        7.418      864.323
01/03/2021  02:55:00     -397.653       95.657       -1.553      270.970      171.631      107.989    73424.619    29457.157    11661.680       14.089        5.727      408.997      105.467        0.066      336.218        7.368      864.340
01/03/2021  02:56:00     -336.543       33.693      -20.434      309.236      179.532      114.058    95626.645    32231.840    13009.253       12.781        7.043      338.225       97.132        0.082      336.216        7.367      864.334
01/03/2021  02:57:00     -313.934      -39.651        2.756      273.911      205.102      126.412    75027.038    42066.694    15979.901       11.658        6.654      316.428      111.195        0.123      336.217        7.367      864.359
01/03/2021  02:58:00     -315.699        6.134       -7.478      278.275      195.541      123.503    77436.846    38236.464    15253.077       11.531        6.546      315.759      118.569        0.141      336.216        7.365      864.361
01/03/2021  02:59:00     -485.650      -56.007      -18.883      360.090      213.503      137.416   129664.524    45583.630    18883.116       21.670        9.707      488.869      136.005        0.077      336.232        7.393      864.327
01/03/2021  03:00:00     -339.587      -17.003       11.248      321.795      223.312      138.064   103552.009    49868.364    19061.684       14.407        8.624      340.012      151.308        0.198      336.254        7.428      864.288
01/03/2021  03:01:00     -484.291      -24.348      -39.399      421.101      182.991      142.527   177326.191    33485.862    20313.815       23.385       11.556      484.903      142.751        0.087      336.280        7.472      864.265
01/03/2021  03:02:00     -434.245       52.741      -11.995      388.680      239.628      123.435   151072.420    57421.721    15236.176       20.756       11.187      437.436      130.469        0.089      336.270        7.455      864.263
01/03/2021  03:03:00     -519.120      -21.550      -26.343      235.489      174.770      112.562    55455.164    30544.682    12670.104       18.464        4.933      519.567      119.082        0.053      336.232        7.394      864.244
01/03/2021  03:04:00     -482.458       -0.976       19.703      289.087      225.642      126.645    83571.371    50914.243    16038.993       19.181        7.526      482.459      134.718        0.078      336.267        7.451      864.163
01/03/2021  03:05:00     -469.352       17.999        3.128      270.123      194.717      125.337    72966.440    37914.536    15709.432       17.358        6.330      469.697      120.909        0.066      336.297        7.500      864.143
01/03/2021  03:06:00     -247.183      -30.845      -18.480      298.452      187.579      104.659    89073.881    35185.997    10953.567        9.877        6.761      249.100      119.967        0.232      336.259        7.437      864.107
01/03/2021  03:07:00     -289.258       -6.830       -1.301      294.095      172.232      121.399    86491.882    29663.945    14737.766       10.728        6.545      289.339      134.838        0.217      336.236        7.399      864.101
01/03/2021  03:08:00     -584.082       18.178       -1.894      326.388      195.706      127.478   106528.935    38300.677    16250.653       25.125        8.054      584.365      148.123        0.064      336.280        7.472      864.024
01/03/2021  03:09:00     -547.154      -18.801      -33.665      293.265      190.836      127.314    86004.356    36418.205    16208.973       21.972        6.932      547.477      119.596        0.048      336.315        7.529      863.996
01/03/2021  03:10:00     -354.183      -83.698      -24.180      281.050      196.111      112.888    78989.332    38459.578    12743.617       13.159        6.510      363.938      125.972        0.120      336.301        7.508      863.940
01/03/2021  03:11:00     -460.559        9.481       -6.674      283.825      194.018      110.385    80556.372    37642.939    12184.873       17.129        6.519      460.656      124.183        0.073      336.248        7.418      863.956
01/03/2021  03:12:00     -239.832      -59.829        2.442      226.471      158.921       96.659    51288.989    25255.758     9343.046        7.348        4.294      247.182       92.423        0.140      336.263        7.444      864.007
01/03/2021  03:13:00     -287.775       -6.285       -6.465      255.835      165.401      106.654    65451.747    27357.607    11375.105        9.352        5.209      287.843      105.199        0.134      336.258        7.435      864.054
01/03/2021  03:14:00     -419.595       -9.382      -10.080      419.444      187.653      120.223   175933.588    35213.553    14453.538       20.088       11.280      419.700      138.352        0.109      336.258        7.436      864.143
01/03/2021  03:15:00     -303.758       33.696       -0.332      241.761      158.218       93.823    58448.153    25033.021     8802.804        9.282        4.614      305.621       97.693        0.102      336.266        7.447      864.214
01/03/2021  03:16:00     -372.082      -21.525       -5.094      303.444      197.352      111.649    92078.298    38947.635    12465.517       14.118        7.175      372.704       98.439        0.070      336.242        7.409      864.269
01/03/2021  03:17:00     -155.824      -39.923      -15.768      256.884      174.814      121.468    65989.588    30559.931    14754.357        6.869        5.565      160.857      115.418        0.515      336.274        7.462      864.320
01/03/2021  03:18:00     -345.795       51.899      -10.579      219.797      137.395       82.371    48310.693    18877.513     6784.927        9.816        3.699      349.668       51.758        0.022      336.226        7.382      864.330
01/03/2021  03:19:00     -461.050      102.557      -11.743      281.198      194.593      109.629    79072.239    37866.396    12018.539       17.606        6.448      472.319      110.511        0.055      336.215        7.364      864.318
01/03/2021  03:20:00     -285.516       10.086       -8.134      248.624      156.332      102.414    61813.808    24439.643    10488.635        8.919        4.837      285.694      115.865        0.164      336.203        7.344      864.336
01/03/2021  03:21:00     -233.552      -43.620        4.559      241.940      157.771      101.183    58535.122    24891.844    10237.960        7.505        4.683      237.591      111.684        0.221      336.189        7.320      864.341
01/03/2021  03:22:00     -470.485      -67.980        5.940      325.794      199.153      130.665   106141.862    39662.079    17073.339       19.441        8.144      475.371      146.156        0.095      336.189        7.321      864.344
01/03/2021  03:23:00     -353.406       25.541      -25.042      284.088      178.197       91.977    80706.219    31754.256     8459.788       12.352        6.046      354.328       80.113        0.051      336.166        7.283      864.366
01/03/2021  03:24:00     -401.976       -4.476        2.401      324.466      167.192      121.552   105278.478    27953.278    14774.895       15.478        7.400      402.001      139.136        0.120      336.168        7.285      864.317
01/03/2021  03:25:00     -328.223       52.343        6.914      242.853      165.055      102.920    58977.545    27243.269    10592.462       10.364        4.841      332.370      110.255        0.110      336.171        7.290      864.275
01/03/2021  03:26:00     -204.846        4.221       14.277      235.175      155.640      108.121    55307.116    24223.791    11690.098        6.668        4.561      204.890      101.798        0.247      336.195        7.331      864.228
01/03/2021  03:27:00     -444.720        0.427       -1.989      336.206      217.634      121.448   113034.600    47364.468    14749.512       18.643        8.757      444.720      114.406        0.066      336.187        7.318      864.164
01/03/2021  03:28:00     -489.802      -14.427      -13.969      383.869      215.169      132.803   147355.264    46297.821    17636.593       22.575       10.564      490.014      141.866        0.084      336.202        7.341      864.103
01/03/2021  03:29:00     -502.251      -82.858      -10.401      354.963      183.043      123.464   125998.591    33504.722    15243.332       21.695        8.737      509.040      128.813        0.064      336.191        7.323      864.043
01/03/2021  03:30:00     -297.150       50.479       12.037      278.482      163.422      107.679    77552.459    26706.823    11594.825       10.340        5.793      301.407      112.700        0.140      336.177        7.300      864.015
01/03/2021  03:31:00     -514.947      -46.079      -14.626      398.704      164.666      112.296   158965.247    27114.856    12610.338       23.305        9.935      517.004      147.163        0.081      336.164        7.279      863.957
01/03/2021  03:32:00     -252.708      -16.471        2.762      326.370      197.444      134.004   106517.122    38984.224    17957.159       11.376        8.173      253.244      135.449        0.286      336.155        7.263      863.910
01/03/2021  03:33:00     -209.547      -79.941      -18.453      298.973      164.146      115.090    89384.693    26943.788    13245.786        9.008        6.479      224.278      116.080        0.268      336.150        7.257      863.911
01/03/2021  03:34:00     -417.280       36.480      -14.386      268.221      162.198      100.756    71942.453    26308.138    10151.786       14.201        5.420      418.872      119.228        0.081      336.127        7.217      863.919
01/03/2021  03:35:00     -348.893       29.598       -8.823      224.410      246.388      120.286    50359.791    60707.183    14468.796       12.408        6.277      350.146      127.772        0.133      336.125        7.214      863.888
01/03/2021  03:36:00     -462.062       46.206      -26.518      241.949      206.904      112.826    58539.143    42809.311    12729.760       16.518        5.704      464.367       96.792        0.043      336.144        7.244      863.886
01/03/2021  03:37:00     -464.657       23.529       11.313      304.541      196.469      129.665    92745.454    38600.049    16812.991       18.234        7.408      465.252      147.220        0.100      336.166        7.282      863.919
01/03/2021  03:38:00     -399.609       33.317       -2.972      330.048      205.889      133.625   108931.762    42390.329    17855.550       16.496        8.459      400.996      135.391        0.114      336.158        7.269      863.908
01/03/2021  03:39:00     -440.026       77.219       -1.084      243.545      176.691      101.928    59314.397    31219.764    10389.315       15.023        5.046      446.750       76.116        0.029      336.127        7.217      863.878
01/03/2021  03:40:00     -400.532       43.358       15.927      277.314      221.456      122.646    76903.163    49042.865    15041.960       15.174        7.049      402.872      124.076        0.095      336.136        7.233      863.886
01/03/2021  03:41:00     -278.889        2.159       -1.820      242.472      153.571      119.649    58792.514    23583.929    14315.773        8.722        4.835      278.897      121.953        0.191      336.129        7.219      863.937
01/03/2021  03:42:00     -371.808       46.439      -15.085      280.234      216.745      123.761    78530.835    46978.487    15316.741       14.070        7.041      374.697       99.792        0.071      336.092        7.159      863.974
01/03/2021  03:43:00     -447.859       98.042      -19.562      317.302      205.900       96.122   100680.548    42394.782     9239.453       18.141        7.616      458.465       84.612        0.034      336.079        7.138      864.044
01/03/2021  03:44:00     -354.947       13.860      -32.406      336.735      205.448      123.045   113390.790    42209.007    15140.155       14.895        8.537      355.218      121.857        0.118      336.085        7.146      864.064
01/03/2021  03:45:00     -312.067       45.219       -7.736      231.716      184.148       95.286    53692.531    33910.449     9079.438        9.807        4.834      315.326       70.290        0.050      336.087        7.151      864.084
01/03/2021  03:46:00     -291.551       -0.567      -20.058      310.490      175.213      121.459    96404.321    30699.646    14752.181       11.360        7.093      291.552      119.426        0.168      336.096        7.166      864.071
01/03/2021  03:47:00     -476.529       21.396       -5.913      354.663      257.888      146.758   125785.627    66506.292    21537.972       22.065       10.691      477.009      173.918        0.133      336.122        7.209      864.047
01/03/2021  03:48:00     -572.162      -28.042      -42.517      343.006      214.047      137.779   117653.347    45816.074    18982.993       25.617        9.123      572.848      156.920        0.075      336.114        7.196      864.036
01/03/2021  03:49:00     -289.426      -33.274      -19.861      348.837      197.943      126.722   121687.532    39181.248    16058.382       13.106        8.846      291.332      154.266        0.280      336.155        7.263      864.022
01/03/2021  03:50:00     -225.854      -63.229      -12.516      261.358      177.001      116.447    68308.097    31329.397    13560.011        8.416        5.660      234.537      119.100        0.258      336.169        7.287      864.002
01/03/2021  03:51:00     -364.374      -15.530      -14.652      268.178      190.913      107.658    71919.383    36447.787    11590.174       12.656        5.998      364.705       93.866        0.066      336.149        7.253      863.959
01/03/2021  03:52:00     -284.602      -11.756      -20.112      288.453      191.717      134.097    83204.849    36755.278    17981.969       10.971        6.897      284.844      139.619        0.240      336.136        7.231      863.900
01/03/2021  03:53:00     -331.322       37.458      -15.675      209.446      153.265       88.434    43867.419    23490.297     7820.629        9.328        3.759      333.433       85.311        0.065      336.102        7.176      863.955
01/03/2021  03:54:00     -402.188       -1.640      -41.655      268.035      225.099      110.773    71842.814    50669.775    12270.768       14.911        6.739      402.191      104.387        0.067      336.067        7.118      863.994
01/03/2021  03:55:00     -215.938      -38.597       -1.752      248.378      164.531      122.313    61691.386    27070.517    14960.499        7.590        5.186      219.360      129.587        0.349      336.056        7.098      864.059
01/03/2021  03:56:00     -290.519      -35.283      -11.314      276.869      169.981      106.196    76656.439    28893.408    11277.682       10.128        5.841      292.654      118.707        0.165      336.053        7.093      864.054
01/03/2021  03:57:00     -408.261        9.970      -14.913      275.886      181.806      108.705    76112.887    33053.463    11816.786       14.396        6.049      408.383      115.808        0.080      336.051        7.090      864.150
01/03/2021  03:58:00     -500.227       37.841      -18.174      278.787      156.132      100.532    77722.432    24377.289    10106.644       18.207        5.610      501.657      104.772        0.044      336.018        7.035      864.205
01/03/2021  03:59:00     -331.212       10.966      -24.145      280.723      144.048       97.894    78805.426    20749.883     9583.147       10.975        5.457      331.393      100.787        0.092      336.000        7.005      864.175
01/03/2021  04:00:00     -383.454       94.595        5.943      294.646      163.756      122.014    86816.047    26816.150    14887.346       14.224        6.426      394.950      128.511        0.106      335.989        6.988      864.142
01/03/2021  04:01:00     -414.944       70.503      -10.498      279.038      172.517       96.968    77862.079    29762.219     9402.801       14.712        5.851      420.891      114.219        0.074      335.989        6.987      864.169
01/03/2021  04:02:00     -262.521        3.189        8.399      351.615      139.348      113.804   123632.835    19417.777    12951.304       11.247        7.800      262.540      125.784        0.230      335.992        6.993      864.218
01/03/2021  04:03:00     -359.971      -44.007      -19.050      227.536      132.516       95.268    51772.561    17560.516     9075.951       10.513        3.920      362.651      110.615        0.093      335.975        6.964      864.246
01/03/2021  04:04:00     -348.357        1.112        5.485      249.171      159.353      107.290    62086.107    25393.223    11511.169       11.017        4.950      348.359      115.343        0.110      335.981        6.974      864.277
01/03/2021  04:05:00     -423.447        1.187      -16.232      230.353      170.621      104.692    53062.384    29111.525    10960.488       13.633        4.657      423.449       99.388        0.055      335.983        6.976      864.253
01/03/2021  04:06:00     -241.065      -10.012      -22.525      245.252      161.210       82.127    60148.602    25988.799     6744.918        7.578        4.644      241.273       93.260        0.149      336.008        7.018      864.214
01/03/2021  04:07:00     -289.286      -49.152      -25.700      187.128      157.710       95.308    35016.872    24872.601     9083.667        7.785        3.449      293.432       90.487        0.095      335.968        6.951      864.239
01/03/2021  04:08:00     -243.068      -13.614       28.921      241.992      147.830       99.856    58559.887    21853.643     9971.288        7.522        4.519      243.449      115.333        0.224      335.985        6.980      864.241
01/03/2021  04:09:00     -284.843      -47.027       -4.264      219.723      166.207      111.983    48278.114    27624.878    12540.171        8.588        4.422      288.699      118.443        0.168      336.038        7.068      864.240
01/03/2021  04:10:00     -324.332        6.784        4.178      313.948      189.318      110.693    98563.398    35841.355    12252.858       12.592        7.333      324.403      122.431        0.142      336.070        7.122      864.274
01/03/2021  04:11:00     -241.598       11.128       -2.226      236.532      155.136       89.598    55947.279    24067.305     8027.846        7.325        4.402      241.854      100.560        0.173      336.087        7.151      864.350
01/03/2021  04:12:00     -362.190      -35.627      -16.871      302.478      133.248       96.860    91493.186    17754.990     9381.814       12.566        5.931      363.938      124.335        0.117      336.063        7.110      864.449
01/03/2021  04:13:00     -270.672       39.958       -5.445      193.744      160.939       83.140    37536.734    25901.264     6912.238        7.260        3.518      273.606       70.665        0.067      336.000        7.006      864.486
01/03/2021  04:14:00     -336.552      -50.972       -0.007      269.242      185.825      121.296    72491.064    34530.871    14712.723       11.877        6.087      340.390      123.052        0.131      335.992        6.992      864.522
01/03/2021  04:15:00     -434.060       13.244        9.081      301.230      171.591      110.783    90739.811    29443.623    12272.792       16.053        6.623      434.262      121.901        0.079      335.940        6.905      864.582
01/03/2021  04:16:00     -294.150      -15.777        2.761      252.972      159.650      107.212    63995.042    25487.975    11494.313        9.386        5.049      294.573      112.466        0.146      335.947        6.917      864.633
01/03/2021  04:17:00     -567.448       56.656       -0.721      334.296      217.751      115.437   111753.531    47415.450    13325.613       24.881        8.625      570.269      122.160        0.046      335.918        6.868      864.674
01/03/2021  04:18:00     -368.751       25.760      -31.558      343.518      172.134      111.798   118004.573    29630.207    12498.894       14.885        8.007      369.650      105.234        0.081      335.945        6.913      864.699
01/03/2021  04:19:00     -418.669        1.692      -12.831      300.801      173.516      119.814    90481.402    30107.805    14355.481       15.517        6.747      418.673      138.196        0.109      335.945        6.913      864.682
01/03/2021  04:20:00     -356.609       15.813        0.182      359.797      186.169      125.566   129453.958    34658.770    15766.795       15.361        8.994      356.960      141.771        0.158      335.946        6.915      864.681
01/03/2021  04:21:00     -371.106       -0.024      -27.052      391.023      213.562      136.164   152899.184    45608.738    18540.709       17.770       10.852      371.106      151.475        0.167      335.928        6.885      864.668
01/03/2021  04:22:00     -467.172       12.675      -22.509      303.576      166.009      109.275    92158.411    27559.114    11941.003       17.526        6.583      467.344      120.471        0.066      335.929        6.887      864.705
01/03/2021  04:23:00     -353.690      -62.433      -29.136      227.565      187.222      113.172    51785.650    35052.151    12807.829       11.472        4.982      359.158      111.493        0.096      335.925        6.880      864.695
01/03/2021  04:24:00     -425.384       52.460      -13.752      302.892      221.647      109.000    91743.578    49127.232    11881.009       16.829        7.638      428.607      111.463        0.068      335.894        6.829      864.680
01/03/2021  04:25:00     -317.491       16.635      -12.189      299.490      164.649      119.231    89694.149    27109.407    14215.975       11.609        6.551      317.927      116.599        0.135      335.874        6.796      864.685
01/03/2021  04:26:00     -465.166      -19.227      -25.957      279.538      192.841      108.530    78141.404    37187.703    11778.773       17.224        6.355      465.563      119.609        0.066      335.854        6.762      864.669
01/03/2021  04:27:00     -340.285       24.622       -0.790      291.368      148.051      100.448    84895.255    21918.966    10089.706       11.663        5.845      341.175      126.166        0.137      335.868        6.786      864.634
01/03/2021  04:28:00     -245.319       -5.874        6.786      316.210      190.132      102.957    99988.787    36150.187    10600.176       10.347        7.337      245.389       97.769        0.159      335.867        6.784      864.634
01/03/2021  04:29:00     -448.800       13.871        1.098      256.753      183.689      111.398    65922.164    33741.643    12409.512       15.682        5.604      449.014       91.523        0.042      335.872        6.792      864.613
01/03/2021  04:30:00     -357.716       53.439      -35.501      291.103      162.349      111.111    84740.798    26357.067    12345.764       12.773        6.172      361.686       99.520        0.076      335.868        6.786      864.621
01/03/2021  04:31:00     -214.654      -66.306      -14.643      284.518      136.750       94.510    80950.425    18700.572     8932.230        7.961        5.429      224.661      106.998        0.227      335.860        6.771      864.605
01/03/2021  04:32:00     -328.186       89.059       14.122      280.709      146.103      107.245    78797.440    21345.952    11501.391       11.372        5.582      340.055      118.534        0.122      335.832        6.726      864.591
01/03/2021  04:33:00     -373.663       -6.960      -15.056      277.937      165.071      109.900    77248.907    27248.559    12078.028       12.821        5.829      373.728      105.921        0.080      335.844        6.746      864.540
01/03/2021  04:34:00     -293.885      105.999      -23.872      180.697      190.018       88.790    32651.368    36106.903     7883.733        8.739        3.832      312.417       71.102        0.052      335.842        6.741      864.534
01/03/2021  04:35:00     -255.904       65.526        7.039      230.282      148.587       92.323    53029.772    22078.178     8523.593        7.671        4.182      264.160       88.672        0.113      335.830        6.723      864.553
01/03/2021  04:36:00     -350.834       81.867       -3.882      264.473      183.784      100.463    69946.014    33776.547    10092.806       12.178        5.691      360.259       99.258        0.076      335.823        6.709      864.533
01/03/2021  04:37:00     -293.617      -23.312      -16.660      261.470      162.724      100.721    68366.569    26478.965    10144.671        9.599        5.250      294.541      102.014        0.120      335.810        6.689      864.505
01/03/2021  04:38:00     -357.016       -2.682        1.891      309.405      172.599      115.924    95731.420    29790.463    13438.277       13.319        6.948      357.026      141.726        0.158      335.804        6.678      864.435
01/03/2021  04:39:00     -375.890      -62.174      -14.276      350.346      168.149      123.689   122742.054    28273.936    15298.924       15.580        8.316      380.997      123.143        0.104      335.825        6.714      864.374
01/03/2021  04:40:00     -379.662       -7.806       -3.432      327.633      198.096      116.283   107343.476    39242.004    13521.806       15.213        8.005      379.742      123.727        0.106      335.846        6.750      864.373
01/03/2021  04:41:00     -212.970       30.105       -4.770      339.342      136.132       98.666   115153.264    18532.029     9734.912        9.482        7.171      215.087      109.139        0.257      335.861        6.775      864.411
01/03/2021  04:42:00     -264.092       -8.113      -13.426      255.165      171.046      110.793    65109.256    29256.844    12275.140        8.829        5.332      264.217      116.801        0.195      335.857        6.767      864.404
01/03/2021  04:43:00     -320.521        0.423      -29.264      289.423      174.707      111.322    83765.936    30522.578    12392.485       11.511        6.334      320.522      105.885        0.109      335.861        6.773      864.351
01/03/2021  04:44:00     -223.433      -11.751        0.406      295.433      153.528       94.907    87280.587    23570.922     9007.398        8.493        5.993      223.742       96.152        0.185      335.856        6.766      864.327
01/03/2021  04:45:00     -335.895      -36.871       -5.175      241.328      178.591      103.924    58239.232    31894.837    10800.143       10.755        5.047      337.913       89.984        0.071      335.860        6.771      864.278
01/03/2021  04:46:00     -258.954       -7.030      -30.713      258.952      141.709       94.632    67055.920    20081.426     8955.146        8.205        4.805      259.049      110.565        0.182      335.852        6.758      864.262
01/03/2021  04:47:00     -477.929      -86.270      -26.643      286.666      163.099      104.117    82177.346    26601.197    10840.266       17.807        5.981      485.653       93.171        0.037      335.855        6.763      864.208
01/03/2021  04:48:00     -187.687       73.954       22.089      231.769      114.931       87.544    53717.101    13209.025     7664.009        5.787        3.730      201.731      104.247        0.267      335.844        6.745      864.150
01/03/2021  04:49:00     -226.195       10.760       -4.506      246.564      176.493       87.924    60793.901    31149.937     7730.658        7.547        4.984      226.451       84.864        0.140      335.845        6.748      864.103
01/03/2021  04:50:00     -428.572       35.350      -24.745      305.432      166.381       92.660    93288.887    27682.755     8585.921       15.752        6.478      430.028      109.511        0.065      335.835        6.731      864.044
01/03/2021  04:51:00     -316.868      -31.682        7.580      239.221      148.018      107.293    57226.750    21909.360    11511.782        9.604        4.532      318.448      103.354        0.105      335.818        6.702      864.026
01/03/2021  04:52:00     -289.134       12.123        7.004      303.294      155.821       98.871    91987.322    24280.031     9775.484       10.489        6.302      289.388      110.295        0.145      335.804        6.681      864.069
01/03/2021  04:53:00     -458.720       39.478      -34.030      312.872      162.423      100.942    97889.072    26381.290    10189.235       17.377        6.723      460.415      113.805        0.061      335.793        6.660      864.110
01/03/2021  04:54:00     -219.290        6.946      -10.481      192.851      163.850      107.066    37191.413    26846.763    11463.169        6.186        3.775      219.400       99.730        0.207      335.794        6.662      864.192
01/03/2021  04:55:00     -301.700       33.678        2.349      241.794      147.057       93.867    58464.449    21625.706     8810.987        9.051        4.445      303.574      104.541        0.119      335.840        6.739      864.201
01/03/2021  04:56:00     -249.566       53.359       -5.139      207.055      100.617       73.962    42871.862    10123.767     5470.372        6.180        2.923      255.207       87.300        0.117      335.823        6.710      864.211
01/03/2021  04:57:00     -401.464       38.913      -21.569      240.870      146.897       80.259    58018.342    21578.675     6441.555       12.458        4.302      403.346       90.999        0.051      335.802        6.675      864.206
01/03/2021  04:58:00     -303.574      -28.706       -2.023      172.127      116.998       74.530    29627.845    13688.456     5554.664        7.092        2.444      304.928       50.816        0.028      335.773        6.628      864.212
01/03/2021  04:59:00     -421.630       81.972      -10.416      189.776      147.684       88.179    36014.770    21810.553     7775.496       12.509        3.280      429.525       78.943        0.034      335.777        6.634      864.212
01/03/2021  05:00:00     -299.108        9.265      -14.606      204.122      128.904       92.778    41665.782    16616.327     8607.723        7.831        3.344      299.252       76.420        0.065      335.751        6.592      864.215
01/03/2021  05:01:00     -361.894      102.526        0.741      178.609      123.044       79.799    31901.182    15139.899     6367.899        9.743        2.670      376.137       76.335        0.041      335.766        6.615      864.226
01/03/2021  05:02:00     -343.354       52.392        4.726      165.965      117.215       73.285    27544.284    13739.449     5370.638        8.365        2.333      347.329       79.069        0.052      335.755        6.598      864.234
01/03/2021  05:03:00     -256.625       51.402       12.104      218.643      123.829       81.422    47804.623    15333.648     6629.478        6.919        3.488      261.722       87.847        0.113      335.713        6.528      864.271
01/03/2021  05:04:00     -309.680       82.717       -0.060      178.304      106.748       73.351    31792.463    11395.210     5380.329        7.565        2.428      320.536       68.844        0.046      335.699        6.502      864.268
01/03/2021  05:05:00     -418.365       66.820       -1.022      169.471      121.895       79.805    28720.280    14858.425     6368.830       11.471        2.497      423.668       82.548        0.038      335.728        6.551      864.266
01/03/2021  05:06:00     -161.842       44.837       -9.627      191.625      111.357       77.582    36720.156    12400.417     6018.939        4.171        2.757      167.938       67.397        0.161      335.754        6.597      864.227
01/03/2021  05:07:00     -144.413      -27.140       -4.872      221.623      114.952       83.338    49116.770    13213.992     6945.218        4.543        3.464      146.941       93.447        0.404      335.759        6.604      864.248
01/03/2021  05:08:00     -203.728       53.744      -10.636      202.380      138.994       76.196    40957.631    19319.313     5805.884        5.528        3.304      210.698       67.927        0.104      335.791        6.658      864.253
01/03/2021  05:09:00     -354.168       38.009      -21.291      238.290      129.248       89.415    56781.917    16704.985     7995.089       10.439        4.074      356.202       94.057        0.070      335.797        6.668      864.265
01/03/2021  05:10:00     -290.677       38.563      -16.681      244.139      148.524      104.080    59604.061    22059.440    10832.678        8.936        4.625      293.224       99.733        0.116      335.809        6.686      864.253
01/03/2021  05:11:00     -298.489       89.501       10.444      207.041      157.848       93.429    42865.884    24916.086     8728.941        8.685        3.826      311.618       94.154        0.091      335.814        6.695      864.248
01/03/2021  05:12:00     -354.264       93.165      -14.705      167.398      123.783       79.291    28022.140    15322.333     6286.993        9.200        2.482      366.310       62.821        0.029      335.835        6.731      864.243
01/03/2021  05:13:00     -227.521       31.537      -16.426      131.426       93.636       56.595    17272.830     8767.698     3202.980        4.113        1.462      229.696       52.847        0.053      335.831        6.725      864.230
01/03/2021  05:14:00     -259.669       68.970      -45.572      158.356       94.400       78.527    25076.774     8911.366     6166.498        5.720        2.008      268.672       73.221        0.074      335.826        6.715      864.255
01/03/2021  05:15:00     -164.980       11.644      -12.728      195.039      107.924       67.571    38040.192    11647.572     4565.776        4.087        2.713      165.390       70.607        0.182      335.823        6.712      864.308
01/03/2021  05:16:00     -135.404       -7.735        0.441      208.356      109.903       71.796    43412.028    12078.654     5154.618        3.951        3.032      135.625       73.342        0.292      335.826        6.717      864.357
01/03/2021  05:17:00     -130.655       63.786      -29.570      199.296      122.157       63.571    39718.993    14922.442     4041.314        4.034        2.934      145.394       45.043        0.096      335.839        6.736      864.380
01/03/2021  05:18:00     -263.032       41.917      -14.900      200.871      130.226       93.597    40349.051    16958.895     8760.310        6.860        3.303      266.351       74.012        0.077      335.823        6.711      864.400
01/03/2021  05:19:00     -218.484       62.470       -2.140      157.351      133.200       69.313    24759.474    17742.223     4804.261        4.946        2.365      227.239       55.612        0.060      335.817        6.699      864.387
01/03/2021  05:20:00     -273.603       83.950       -8.546      176.399      121.302       73.593    31116.581    14714.066     5415.858        6.660        2.562      286.192       71.056        0.062      335.808        6.685      864.360
01/03/2021  05:21:00     -224.167       48.236       -6.731      191.074      116.988       68.681    36509.401    13686.091     4717.081        5.376        2.746      229.298       69.058        0.091      335.801        6.673      864.392
01/03/2021  05:22:00     -211.353       26.877       -8.125      215.260      135.097       78.012    46336.659    18251.100     6085.938        5.805        3.534      213.055       58.769        0.076      335.809        6.686      864.425
01/03/2021  05:23:00     -361.316      -16.275      -17.153      210.821      115.104       81.776    44445.415    13248.842     6687.340        9.773        3.219      361.682       81.292        0.051      335.795        6.664      864.467
01/03/2021  05:24:00     -446.471       27.482       -1.202      242.696      135.419       90.726    58901.367    18338.391     8231.250       14.276        4.274      447.316       86.836        0.038      335.790        6.655      864.456
01/03/2021  05:25:00     -351.552       23.809      -10.772      197.600      101.422       67.137    39045.747    10286.323     4507.315        8.904        2.692      352.358       56.538        0.026      335.785        6.648      864.475
01/03/2021  05:26:00     -409.771       30.491      -30.576      170.893       96.085       62.198    29204.459     9232.245     3868.630       10.603        2.115      410.904       56.178        0.019      335.775        6.630      864.478
01/03/2021  05:27:00     -276.798      123.808       -6.411      182.796      149.535       83.507    33414.337    22360.668     6973.410        7.735        3.137      303.225       88.386        0.085      335.768        6.620      864.505
01/03/2021  05:28:00     -263.683       66.253        0.003      196.342      134.945       76.112    38550.179    18210.189     5793.077        6.822        3.128      271.879       70.603        0.067      335.751        6.592      864.460
01/03/2021  05:29:00     -415.685       59.718      -29.496      123.715      102.697       71.598    15305.447    10546.667     5126.217       10.410        1.549      419.952       60.425        0.021      335.730        6.554      864.454
01/03/2021  05:30:00     -375.559       22.268       13.751      158.992      111.887       75.843    25278.611    12518.593     5752.143        9.263        2.177      376.218       81.309        0.047      335.707        6.515      864.444
01/03/2021  05:31:00     -197.703       62.860      -12.523      163.697       94.403       58.294    26796.758     8911.930     3398.162        4.114        1.955      207.456       52.544        0.064      335.699        6.503      864.474
01/03/2021  05:32:00     -276.308       25.265      -14.651      119.906       81.498       57.533    14377.561     6641.857     3309.999        5.076        1.216      277.461       57.869        0.044      335.679        6.470      864.503
01/03/2021  05:33:00     -204.076      -12.262       -1.241      160.961       87.386       64.491    25908.495     7636.342     4159.088        3.974        1.885      204.445       60.704        0.088      335.654        6.430      864.530
01/03/2021  05:34:00     -250.830       65.652      -15.242      179.361      102.630       63.271    32170.445    10532.941     4003.249        5.707        2.335      259.280       50.185        0.037      335.632        6.391      864.540
01/03/2021  05:35:00     -259.380       48.853       -4.590      192.866      127.225       81.616    37197.175    16186.315     6661.187        6.485        3.002      263.941       71.666        0.074      335.622        6.376      864.550
01/03/2021  05:36:00     -240.668       70.151      -10.820      142.492      117.516       64.296    20303.907    13810.107     4134.007        5.060        1.912      250.683       65.955        0.069      335.605        6.347      864.553
01/03/2021  05:37:00     -256.740       60.000        1.481      168.987      107.931       70.127    28556.721    11649.028     4917.846        5.731        2.256      263.658       61.950        0.055      335.562        6.275      864.588
01/03/2021  05:38:00     -268.870       20.395      -17.569      123.970      111.017       60.848    15368.543    12324.727     3702.453        5.220        1.570      269.642       50.853        0.036      335.568        6.286      864.624
01/03/2021  05:39:00     -125.646       14.748      -21.384      148.326      101.628       52.641    22000.475    10328.337     2771.036        2.577        1.755      126.509       40.329        0.102      335.546        6.250      864.638
01/03/2021  05:40:00     -371.409       53.094       -9.409      120.551      104.280       70.947    14532.467    10874.293     5033.472        8.564        1.522      375.185       56.180        0.022      335.502        6.175      864.642
01/03/2021  05:41:00     -183.749        6.938       13.143      205.119      110.878       77.974    42073.918    12293.893     6079.996        4.720        3.022      183.880       86.813        0.223      335.577        6.303      864.648
01/03/2021  05:42:00     -360.166       44.886      -16.220      162.882      112.939       70.922    26530.547    12755.256     5029.945        8.815        2.216      362.952       65.199        0.032      335.586        6.315      864.636
01/03/2021  05:43:00     -289.910       73.288        1.704      163.064      105.246       64.038    26589.787    11076.811     4100.882        6.559        2.088      299.030       64.531        0.047      335.540        6.240      864.647
01/03/2021  05:44:00     -212.464       21.974       -5.394      212.267      105.041       73.664    45057.344    11033.699     5426.394        5.357        3.076      213.597       71.177        0.111      335.548        6.252      864.674
01/03/2021  05:45:00     -155.023       36.667      -11.394      188.285       97.885       58.824    35451.095     9581.544     3460.245        3.699        2.425      159.300       49.085        0.095      335.531        6.225      864.649
01/03/2021  05:46:00     -301.348       90.279      -20.651      182.333      109.531       71.134    33245.290    11996.964     5060.033        7.483        2.515      314.581       71.164        0.051      335.462        6.108      864.632
01/03/2021  05:47:00     -295.347       90.368       -1.866      139.676      108.236       64.532    19509.355    11714.959     4164.315        6.539        1.769      308.862       50.454        0.027      335.434        6.062      864.647
01/03/2021  05:48:00     -173.109       22.676      -18.015      205.303       95.974       71.210    42149.488     9211.023     5070.800        4.361        2.822      174.588       73.552        0.177      335.419        6.038      864.661
01/03/2021  05:49:00     -117.979       11.438      -22.528      183.189      129.107       74.309    33558.187    16668.504     5521.753        3.514        2.787      118.532       79.943        0.455      335.455        6.096      864.652
01/03/2021  05:50:00     -211.498       72.638      -17.397      175.259       96.824       61.268    30715.862     9374.969     3753.821        4.707        2.192      223.624       67.645        0.092      335.472        6.127      864.654
01/03/2021  05:51:00     -139.421        6.476       -1.344      150.910       93.754       68.015    22773.884     8789.889     4626.013        2.783        1.809      139.571       51.306        0.135      335.454        6.096      864.662
01/03/2021  05:52:00     -355.173       83.593      -44.487      168.065      122.299       62.921    28245.834    14957.105     3959.083        9.113        2.358      364.878       64.299        0.031      335.467        6.118      864.689
01/03/2021  05:53:00     -192.550       40.189        0.592      147.217       87.389       66.139    21672.936     7636.875     4374.426        3.618        1.684      196.700       59.506        0.092      335.435        6.064      864.743
01/03/2021  05:54:00     -268.038       34.328      -22.851      199.108      112.553       78.273    39643.921    12668.168     6126.621        6.598        2.922      270.227       78.838        0.085      335.439        6.071      864.787
01/03/2021  05:55:00     -170.336       -7.498      -12.897      165.609      121.603       89.430    27426.349    14787.339     7997.639        3.971        2.511      170.501       53.845        0.100      335.440        6.074      864.789
01/03/2021  05:56:00     -153.128       69.861      -18.373      174.590      106.049       69.206    30481.779    11246.351     4789.441        3.758        2.326      168.312       59.971        0.127      335.521        6.208      864.787
01/03/2021  05:57:00     -198.852      -23.144      -10.903      189.309      113.959       79.187    35837.983    12986.707     6270.612        4.763        2.755      200.194       79.515        0.158      335.450        6.089      864.803
01/03/2021  05:58:00     -175.764       33.603      -21.976      186.902      125.524       75.853    34932.207    15756.304     5753.612        4.446        2.822      178.947       75.693        0.179      335.453        6.094      864.792
01/03/2021  05:59:00     -287.337       51.103      -17.270      182.202      129.548       73.729    33197.449    16782.633     5435.931        7.043        2.771      291.846       72.254        0.061      335.479        6.138      864.776
01/03/2021  06:00:00     -239.307      111.908      -26.287      175.062      131.111       61.245    30646.596    17189.974     3750.942        6.102        2.579      264.180       59.730        0.051      335.480        6.140      864.765
01/03/2021  06:01:00     -135.203       39.190       -8.727      142.066       74.933       74.645    20182.802     5614.943     5571.846        2.562        1.568      140.769       84.130        0.357      335.437        6.069      864.779
01/03/2021  06:02:00     -222.308       70.474      -19.600      204.461       94.209       59.001    41804.097     8875.245     3481.156        5.445        2.708      233.211       72.819        0.097      335.521        6.208      864.795
01/03/2021  06:03:00     -142.157       12.171       -5.872      153.225      103.307       53.518    23477.889    10672.313     2864.155        2.869        1.851      142.677       42.968        0.091      335.503        6.177      864.808
01/03/2021  06:04:00     -233.765       79.379      -18.421      135.260       72.827       58.919    18295.314     5303.714     3471.501        4.417        1.354      246.874       56.034        0.052      335.506        6.182      864.786
01/03/2021  06:05:00     -106.891       16.550      -39.462      121.362      104.309       55.417    14728.740    10880.387     3071.049        2.096        1.434      108.165       47.845        0.196      335.467        6.117      864.781
01/03/2021  06:06:00     -137.536        1.409      -26.965      137.271      109.683       58.628    18843.210    12030.317     3437.198        2.697        1.716      137.543       50.614        0.135      335.522        6.208      864.792
01/03/2021  06:07:00      -85.728       15.834        4.660      109.886       97.454       59.173    12074.896     9497.342     3501.479        1.634        1.254       87.178       40.952        0.221      335.478        6.137      864.817
01/03/2021  06:08:00     -127.668      100.580      -19.944      142.713       74.460       47.359    20367.120     5544.257     2242.898        2.748        1.408      162.528       41.728        0.066      335.562        6.276      864.822
01/03/2021  06:09:00     -201.465      112.610      -29.240      116.609      137.974       58.810    13597.720    19036.741     3458.657        4.510        1.805      230.801       52.953        0.053      335.607        6.350      864.844
01/03/2021  06:10:00     -167.477       44.297      -25.485      162.150       93.340       51.235    26292.702     8712.342     2625.031        3.414        1.882      173.236       36.837        0.045      335.592        6.326      864.865
01/03/2021  06:11:00     -167.853       69.708       -6.700      131.880       92.209       57.959    17392.373     8502.550     3359.251        3.116        1.463      181.752       32.302        0.032      335.615        6.366      864.894
01/03/2021  06:12:00       13.844      -20.005       -0.044       97.240       96.688       52.334     9455.554     9348.549     2738.866        1.106        1.077       24.329       45.233        3.457      335.598        6.337      864.915
01/03/2021  06:13:00      -96.536      130.807      -14.195      108.176       96.388       56.839    11702.023     9290.578     3230.721        2.542        1.211      162.572       49.747        0.094      335.686        6.483      864.935
01/03/2021  06:14:00      -90.731       51.010      -20.966       98.889       87.318       65.884     9778.939     7624.385     4340.678        1.650        1.087      104.087       51.332        0.243      335.662        6.443      864.954
01/03/2021  06:15:00       10.722       47.400        2.295       89.148      104.221       64.776     7947.298    10862.055     4195.992        1.268        1.150       48.598       36.278        0.557      335.656        6.434      864.986
01/03/2021  06:16:00     -270.049       29.018      -16.578      185.700      110.650       52.711    34484.563    12243.450     2778.432        6.176        2.475      271.603       33.445        0.015      335.638        6.401      865.034
01/03/2021  06:17:00     -162.403       15.670       -0.690      173.835       97.580       69.696    30218.756     9521.910     4857.514        3.560        2.230      163.157       76.334        0.219      335.656        6.434      865.032
01/03/2021  06:18:00      -73.961      -13.301       -2.909      135.666      100.533       54.001    18405.130    10106.801     2916.092        1.853        1.571       75.148       49.770        0.439      335.586        6.316      864.993
01/03/2021  06:19:00     -325.274       82.246      -17.819      125.746       81.131       63.788    15811.994     6582.283     4068.860        6.967        1.323      335.510       60.345        0.032      335.586        6.315      864.942
01/03/2021  06:20:00     -208.289       44.069       -8.958      146.202       84.496       59.815    21374.980     7139.535     3577.789        3.874        1.605      212.900       53.835        0.064      335.569        6.288      864.877
01/03/2021  06:21:00     -249.534       19.804      -10.618      182.261      103.845       57.958    33218.994    10783.808     3359.158        5.506        2.368      250.319       31.480        0.016      335.519        6.204      864.848
01/03/2021  06:22:00     -210.156       56.804       -9.881      194.668      108.707       68.623    37895.664    11817.175     4709.126        5.094        2.721      217.698       56.730        0.068      335.516        6.199      864.820
01/03/2021  06:23:00     -407.372       48.732      -21.008      133.774       91.037       60.792    17895.611     8287.727     3695.668        9.932        1.494      410.276       32.589        0.006      335.537        6.234      864.776
01/03/2021  06:24:00     -241.515       42.310      -15.330      199.599      122.068       64.218    39839.781    14900.595     4124.012        5.960        2.943      245.193       72.075        0.086      335.615        6.365      864.697
01/03/2021  06:25:00     -225.467        5.067       -6.827      217.934      109.277       72.566    47495.412    11941.532     5265.772        5.779        3.235      225.524       85.545        0.144      335.566        6.283      864.644
01/03/2021  06:26:00     -270.112       13.129       -2.078      147.637       98.338       74.522    21796.741     9670.407     5553.498        5.507        1.851      270.430       70.642        0.068      335.586        6.316      864.621
01/03/2021  06:27:00     -321.701       82.719       -1.086      159.901      109.611       66.599    25568.473    12014.560     4435.481        7.617        2.101      332.166       64.898        0.038      335.646        6.415      864.597
01/03/2021  06:28:00     -163.683       64.798        5.903      199.568      114.074       84.728    39827.462    13012.974     7178.839        4.551        3.001      176.042       82.562        0.220      335.647        6.418      864.589
01/03/2021  06:29:00     -265.404       41.416       -7.884      264.337      139.380       97.460    69874.007    19426.699     9498.418        8.549        4.940      268.616       93.516        0.121      335.733        6.561      864.561
01/03/2021  06:30:00     -438.558       80.684       -2.629      170.177      136.715       86.475    28960.262    18690.985     7477.953       12.698        2.756      445.918       90.211        0.041      335.718        6.535      864.530
01/03/2021  06:31:00     -227.738       10.640      -23.132      199.663      108.111       69.205    39865.169    11688.085     4789.266        5.442        2.817      227.987       51.991        0.052      335.658        6.435      864.540
01/03/2021  06:32:00     -198.254       55.275        0.230      199.167      135.493       77.880    39667.357    18358.458     6065.272        5.321        3.205      205.816       87.475        0.181      335.647        6.417      864.573
01/03/2021  06:33:00     -209.632       27.083      -26.905      224.935      124.010       67.048    50595.900    15378.548     4495.434        5.792        3.523      211.374       70.857        0.112      335.731        6.558      864.579
01/03/2021  06:34:00     -276.723       43.072      -17.018      201.100      102.017       74.381    40441.248    10407.395     5532.572        6.754        2.819      280.055       95.021        0.115      335.727        6.553      864.598
01/03/2021  06:35:00     -348.661       75.641       -6.925      133.402      116.082       75.985    17796.016    13474.977     5773.671        8.218        1.852      356.772       65.798        0.034      335.639        6.404      864.633
01/03/2021  06:36:00     -241.092       22.811        4.547      168.539       97.354       63.876    28405.361     9477.726     4080.177        5.031        2.098      242.169       57.190        0.056      335.621        6.374      864.652
01/03/2021  06:37:00     -305.931       60.211       -8.132      157.206      116.113       63.206    24713.668    13482.301     3994.947        6.973        2.110      311.800       45.827        0.022      335.660        6.440      864.681
01/03/2021  06:38:00     -240.850       32.366       -5.029      147.994       88.088       62.288    21902.352     7759.522     3879.787        4.630        1.677      243.015       47.387        0.038      335.600        6.339      864.691
01/03/2021  06:39:00     -346.555       52.561      -14.956      134.186       96.073       63.107    18005.838     9230.092     3982.476        7.715        1.561      350.518       45.195        0.017      335.660        6.438      864.707
01/03/2021  06:40:00     -312.400       88.728        1.024      216.314      146.510       88.621    46791.803    21465.151     7853.747        9.077        3.806      324.756       84.912        0.068      335.758        6.601      864.721
01/03/2021  06:41:00     -333.892       35.810        9.795      195.068      106.500       77.215    38051.621    11342.164     5962.114        8.410        2.768      335.807       81.612        0.059      335.848        6.750      864.741
01/03/2021  06:42:00     -157.198        4.596      -21.286      164.135       96.741       71.907    26940.345     9358.884     5170.649        3.332        2.073      157.265       78.332        0.248      335.786        6.651      864.785
01/03/2021  06:43:00     -319.652       66.100       -9.978      203.438      127.643       73.272    41387.109    16292.661     5368.747        8.483        3.152      326.415       68.870        0.045      335.753        6.595      864.797
01/03/2021  06:44:00     -221.609       74.446      -33.698      151.182       98.324       54.865    22856.115     9667.638     3010.115        4.565        1.777      233.779       40.307        0.030      335.700        6.507      864.807
01/03/2021  06:45:00      -74.883       34.629       12.160      136.374      134.745       76.985    18597.976    18156.264     5926.672        2.481        2.134       82.503       52.642        0.407      335.730        6.557      864.788
01/03/2021  06:46:00     -268.005       45.676      -11.525      139.831      108.419       67.355    19552.608    11754.751     4536.681        5.494        1.792      271.869       57.703        0.045      335.669        6.454      864.788
01/03/2021  06:47:00     -283.042       56.604      -36.040      140.381      128.280       74.541    19706.706    16455.851     5556.404        6.316        2.086      288.647       57.036        0.039      335.769        6.621      864.814
01/03/2021  06:48:00     -244.160       33.543      -28.498      111.456       77.865       41.969    12422.418     6063.032     1761.394        4.089        1.012      246.453       37.071        0.023      335.720        6.541      864.837
01/03/2021  06:49:00     -147.326      -24.018      -13.622      102.064       63.596       50.728    10417.125     4044.437     2573.380        1.975        0.852      149.271       45.953        0.095      335.667        6.451      864.854
01/03/2021  06:50:00      -92.369       84.587      -34.323       83.945       70.987       40.075     7046.789     5039.189     1606.016        1.528        0.685      125.248       28.103        0.050      335.631        6.392      864.860
01/03/2021  06:51:00     -116.151       92.941      -24.425       94.467       80.945       47.202     8924.088     6552.035     2228.037        2.021        0.885      148.758       32.028        0.046      335.613        6.361      864.858
01/03/2021  06:52:00     -135.539       51.650      -28.496      139.929       98.751       47.210    19580.188     9751.804     2228.771        2.670        1.578      145.046       56.329        0.151      335.601        6.342      864.848
01/03/2021  06:53:00      -38.007       44.864      -14.904      101.964       67.962       41.087    10396.616     4618.826     1688.115        1.019        0.835       58.799       35.550        0.366      335.602        6.345      864.859
01/03/2021  06:54:00      -58.320       58.839      -34.026       82.084       86.025       40.351     6737.833     7400.318     1628.188        1.189        0.788       82.845       31.567        0.145      335.636        6.402      864.872
01/03/2021  06:55:00     -150.570      206.173      -24.656       96.243      108.491       58.744     9262.654    11770.218     3450.896        4.513        1.224      255.301       33.805        0.018      335.672        6.459      864.906
01/03/2021  06:56:00      -67.758        8.969      -10.644      132.129       90.473       50.648    17458.140     8185.387     2565.201        1.649        1.410       68.349       19.971        0.085      335.627        6.386      864.934
01/03/2021  06:57:00      -33.078      132.439       -6.301       72.849       69.846       49.958     5306.931     4878.475     2495.811        1.567        0.634      136.508       23.499        0.030      335.677        6.469      864.945
01/03/2021  06:58:00      -71.251       76.658      -16.953       58.925       46.040       31.042     3472.182     2119.667      963.595        0.890        0.328      104.658       21.158        0.041      335.670        6.458      864.950
01/03/2021  06:59:00     -242.438       68.394      -20.381      135.722       82.302       49.092    18420.355     6773.609     2410.009        4.573        1.380      251.901       31.684        0.016      335.593        6.326      865.006
01/03/2021  07:00:00     -135.149       21.989      -21.844      124.714       77.926       49.260    15553.600     6072.422     2426.541        2.163        1.203      136.926       27.918        0.042      335.575        6.299      865.031
01/03/2021  07:01:00     -172.161       71.086       -9.251      179.685       75.963       58.347    32286.733     5770.378     3404.394        3.811        2.073      186.259       50.289        0.073      335.590        6.324      865.022
01/03/2021  07:02:00     -172.764       34.909       -4.613      204.714      106.038       64.709    41907.818    11244.019     4187.295        4.420        2.867      176.256       30.326        0.030      335.621        6.374      865.036
01/03/2021  07:03:00        0.288       -5.798       -0.059       96.446       85.216       56.893     9301.792     7261.759     3236.852        0.991        0.990        5.805       28.673       24.395      335.577        6.303      865.063
01/03/2021  07:04:00     -117.013       51.019      -14.961      123.572       68.569       48.798    15269.961     4701.697     2381.221        1.943        1.118      127.652       59.533        0.218      335.594        6.330      865.096
01/03/2021  07:05:00       -8.052       24.450       -3.790       70.074       53.295       32.032     4910.417     2840.329     1026.036        0.472        0.439       25.742       18.501        0.517      335.614        6.365      865.122
01/03/2021  07:06:00      -93.900      156.189      -17.068      137.920      128.200       56.754    19022.054    16435.342     3221.054        3.608        1.934      182.242       44.867        0.061      335.641        6.406      865.143
01/03/2021  07:07:00     -104.943      103.385      -15.828       79.440       87.710       42.614     6310.684     7693.104     1815.916        1.888        0.791      147.315       35.234        0.057      335.701        6.509      865.152
01/03/2021  07:08:00      -61.329       30.345       -2.396      119.284      110.256       70.019    14228.624    12156.302     4902.699        1.798        1.564       68.425       66.981        0.958      335.671        6.458      865.180
01/03/2021  07:09:00      -81.287       22.582      -24.126      146.004      106.020       58.008    21317.085    11240.265     3364.883        2.180        1.796       84.365       56.102        0.442      335.631        6.392      865.149
01/03/2021  07:10:00      -73.072       62.432      -10.662       84.000       53.478       43.727     7056.033     2859.851     1912.074        1.059        0.591       96.111       39.686        0.171      335.558        6.270      865.153
01/03/2021  07:11:00     -116.453      102.273      -12.630       99.185       65.294       44.926     9837.660     4263.259     2018.381        2.015        0.806      154.987       16.980        0.012      335.588        6.321      865.124
01/03/2021  07:12:00      -21.419      168.674      -19.511      123.711       95.548       47.599    15304.417     9129.432     2265.704        2.799        1.335      170.029       48.138        0.080      335.715        6.531      865.098
01/03/2021  07:13:00      -79.558      108.049      -25.483       77.895       62.142       33.892     6067.582     3861.669     1148.641        1.486        0.554      134.179       14.463        0.012      335.695        6.500      865.147
01/03/2021  07:14:00      -66.316       67.532      -10.650       76.700       65.497       44.156     5882.959     4289.859     1949.719        1.059        0.606       94.649       13.261        0.020      335.619        6.373      865.190
01/03/2021  07:15:00      -80.219      176.851      -18.568      102.077      117.217       48.963    10419.671    13739.891     2397.333        3.230        1.328      194.194       28.641        0.022      335.707        6.519      865.242
01/03/2021  07:16:00     -108.980      210.843      -18.780       69.414      109.926       55.106     4818.359    12083.684     3036.711        3.831        0.997      237.342       36.369        0.023      335.784        6.647      865.304
01/03/2021  07:17:00     -172.851      230.601      -36.718       91.092      107.433       54.595     8297.701    11541.801     2980.609        5.361        1.141      288.191       22.324        0.006      335.811        6.691      865.313
01/03/2021  07:18:00     -136.592      180.756      -27.217      133.538      100.646       65.627    17832.278    10129.569     4306.921        4.216        1.613      226.561       38.948        0.030      335.768        6.619      865.331
01/03/2021  07:19:00      -81.808      249.369      -16.922       99.495      113.884       53.837     9899.174    12969.663     2898.369        4.746        1.288      262.445       35.813        0.019      335.765        6.613      865.344
01/03/2021  07:20:00     -173.938      255.855      -38.711      155.900      128.811       54.913    24304.791    16592.395     3015.490        7.055        2.196      309.381       42.709        0.019      335.735        6.563      865.372
01/03/2021  07:21:00     -171.844      239.318      -19.840      129.006      137.278       63.264    16642.560    18845.285     4002.352        6.334        1.975      294.624       48.707        0.027      335.713        6.527      865.401
01/03/2021  07:22:00      -58.103       69.540      -22.717      109.230      104.598       60.387    11931.152    10940.686     3646.591        1.762        1.326       90.618       43.252        0.228      335.692        6.494      865.412
01/03/2021  07:23:00      -87.992      124.557      -29.272      113.719       82.652       72.269    12932.068     6831.297     5222.838        2.454        1.249      152.503       40.001        0.069      335.715        6.532      865.381
01/03/2021  07:24:00     -132.571      247.336      -25.848      120.332       74.661       53.156    14479.815     5574.234     2825.602        5.114        1.144      280.625       14.568        0.003      335.783        6.643      865.386
01/03/2021  07:25:00     -133.356      116.868      -24.937       70.235       79.106       34.045     4932.961     6257.744     1159.036        2.220        0.617      177.319       12.915        0.005      335.753        6.595      865.404
01/03/2021  07:26:00     -122.663       95.432      -20.773      130.978      129.038       55.459    17155.227    16650.772     3075.709        3.073        1.844      155.414       21.609        0.019      335.723        6.545      865.428
01/03/2021  07:27:00     -142.776      121.357      -20.606      111.994      110.795       65.033    12542.681    12275.541     4229.273        3.229        1.452      187.384       58.547        0.098      335.739        6.572      865.450
01/03/2021  07:28:00     -130.550      347.460      -34.242       87.954       95.537       51.877     7735.896     9127.317     2691.215        7.925        0.978      371.176       37.283        0.010      335.605        6.346      865.462
01/03/2021  07:29:00      -82.979      261.223      -13.095       98.367      107.836       50.205     9675.988    11628.633     2520.505        4.955        1.191      274.085       27.186        0.010      335.468        6.118      865.476
01/03/2021  07:30:00      -49.951      299.192       -8.936       98.577      105.459       52.491     9717.336    11121.702     2755.357        5.784        1.180      303.333       50.984        0.028      335.438        6.069      865.459
01/03/2021  07:31:00     -125.190      207.325      -13.731      145.068      130.748       55.389    21044.729    17094.975     3067.951        5.002        2.060      242.191       48.019        0.039      335.581        6.307      865.439
01/03/2021  07:32:00      -54.608       92.434      -12.916      108.876      103.361       69.392    11854.037    10683.571     4815.192        1.952        1.368      107.360       58.226        0.294      335.657        6.435      865.421
01/03/2021  07:33:00     -107.286       89.493      -20.107      123.961       76.361       59.991    15366.281     5831.031     3598.866        2.235        1.240      139.711       59.577        0.182      335.655        6.432      865.392
01/03/2021  07:34:00     -121.556       63.898      -24.930      165.650      109.796       66.029    27439.955    12055.200     4359.894        3.166        2.193      137.327       75.820        0.305      335.726        6.549      865.382
01/03/2021  07:35:00     -246.222       58.540      -23.443      238.393      129.743       89.453    56831.032    16833.294     8001.904        7.312        4.083      253.085       93.241        0.136      335.783        6.643      865.369
01/03/2021  07:36:00     -413.476      117.232      -29.018      170.236      122.896       75.974    28980.325    15103.403     5772.097       11.769        2.493      429.774       63.254        0.022      335.843        6.743      865.380
01/03/2021  07:37:00     -224.677       80.362      -36.729      130.317      103.703       63.382    16982.528    10754.214     4017.293        4.501        1.588      238.616       52.135        0.048      335.865        6.781      865.370
01/03/2021  07:38:00     -146.288       55.068       -9.245      132.488      117.678       65.760    17553.083    13848.194     4324.357        3.011        1.786      156.309       48.053        0.095      335.808        6.686      865.361
01/03/2021  07:39:00      -38.658       34.053       -9.366      144.758      107.629       62.966    20954.749    11584.037     3964.754        1.961        1.825       51.517       30.284        0.346      335.824        6.714      865.353
01/03/2021  07:40:00     -250.812       34.917      -12.362      244.004      145.345       80.500    59537.784    21125.047     6480.313        7.569        4.357      253.231       87.156        0.118      335.841        6.740      865.352
01/03/2021  07:41:00     -392.387       82.862       -9.368      180.043      151.966       96.406    32415.517    23093.563     9294.166       11.285        3.240      401.040       64.908        0.026      335.888        6.819      865.353
01/03/2021  07:42:00     -367.084       47.598      -21.805      296.656      157.527       87.736    88005.034    24814.812     7697.590       12.898        6.026      370.157       98.504        0.071      335.909        6.854      865.375
01/03/2021  07:43:00     -423.888       87.240       -9.485      268.639      178.492       92.514    72166.932    31859.549     8558.914       14.996        5.629      432.773       98.319        0.052      335.924        6.877      865.409
01/03/2021  07:44:00     -306.609       51.069      -31.615      206.668      138.754       80.013    42711.791    19252.768     6402.064        8.298        3.418      310.833       62.368        0.040      336.005        7.014      865.409
01/03/2021  07:45:00     -232.244       50.171      -10.400      165.875      119.517       69.369    27514.618    14284.261     4812.080        5.158        2.331      237.602       61.286        0.067      335.965        6.949      865.436
01/03/2021  07:46:00     -357.379      106.209      -10.502      251.940      146.828       85.583    63473.791    21558.603     7324.368       11.571        4.618      372.828      107.249        0.083      335.992        6.993      865.447
01/03/2021  07:47:00     -377.624      128.685      -16.739      189.259      145.063       90.937    35819.088    21043.229     8269.485       11.227        3.257      398.948       90.968        0.052      336.021        7.040      865.473
01/03/2021  07:48:00     -353.341       58.247       -6.065      247.361      159.823       88.941    61187.220    25543.311     7910.576       11.144        4.732      358.110       81.911        0.052      335.995        6.996      865.534
01/03/2021  07:49:00     -321.307       15.553        4.498      215.376      129.454       91.355    46386.906    16758.237     8345.656        8.748        3.575      321.684       80.210        0.062      336.001        7.008      865.572
01/03/2021  07:50:00     -220.061       36.135        1.523      124.732      122.116       70.395    15558.194    14912.213     4955.396        4.257        1.771      223.008       50.470        0.051      336.027        7.048      865.638
01/03/2021  07:51:00     -193.345       74.264      -13.972      142.403       91.696       67.463    20278.701     8408.163     4551.224        3.816        1.662      207.117       70.046        0.114      335.997        7.001      865.699
01/03/2021  07:52:00     -373.549       48.078      -14.628      213.247      147.198       93.817    45474.122    21667.143     8801.555       10.899        3.797      376.631       96.059        0.065      336.043        7.077      865.753
01/03/2021  07:53:00     -427.901      102.232      -23.389      203.211      190.805       94.109    41294.695    36406.683     8856.426       14.031        4.328      439.944       75.554        0.029      336.087        7.149      865.784
01/03/2021  07:54:00     -214.844       70.277        7.717      182.564      144.716       88.697    33329.553    20942.745     7867.187        5.663        3.107      226.046       71.701        0.101      336.128        7.217      865.815
01/03/2021  07:55:00     -440.733       53.329      -18.138      179.401      153.780       82.817    32184.859    23648.207     6858.704       13.004        3.135      443.948       84.958        0.037      336.056        7.098      865.830
01/03/2021  07:56:00     -273.733        0.678      -30.826      166.987      105.875       68.205    27884.495    11209.565     4651.966        5.980        2.187      273.733       48.654        0.032      336.015        7.031      865.874
01/03/2021  07:57:00     -258.289       52.557        0.839      196.812      119.566       75.844    38734.784    14295.963     5752.242        6.412        2.939      263.582       81.078        0.095      336.031        7.057      865.931
01/03/2021  07:58:00     -155.130       49.287       21.937      214.393      109.579       71.833    45964.336    12007.485     5159.924        4.504        3.157      162.771       75.526        0.215      336.108        7.186      865.991
01/03/2021  07:59:00     -185.054       40.053      -13.250      182.096      104.565       75.300    33159.026    10933.796     5670.071        4.288        2.488      189.339       70.227        0.138      336.081        7.140      866.047
01/03/2021  08:00:00     -292.997       13.520      -38.542      199.291      121.601       80.901    39716.830    14786.766     6544.957        7.427        3.052      293.309       78.168        0.071      336.116        7.198      866.069
01/03/2021  08:01:00     -415.635       86.999      -10.469      174.783      148.900       83.037    30549.152    22171.177     6895.079       12.001        2.981      424.642       54.551        0.017      336.086        7.148      866.058
01/03/2021  08:02:00     -276.847       78.636      -32.048      195.186      129.346       61.703    38097.412    16730.377     3807.268        7.123        2.932      287.799       45.511        0.025      336.102        7.175      866.054
01/03/2021  08:03:00     -184.841       85.738      -16.969      201.860      118.483       80.525    40747.346    14038.328     6484.212        5.152        3.063      203.758       85.375        0.176      336.131        7.224      866.096
01/03/2021  08:04:00      -38.127       -3.055       -9.243      214.625      133.953       80.831    46063.950    17943.529     6533.586        3.603        3.527       38.250       61.206        2.561      336.133        7.229      866.135
01/03/2021  08:05:00     -115.044       11.745      -16.091      141.108      119.244       69.981    19911.459    14219.156     4897.312        2.632        1.951      115.642       70.603        0.373      336.125        7.213      866.172
01/03/2021  08:06:00     -218.148       47.828      -11.976      148.184       93.832       59.541    21958.485     8804.527     3545.118        4.216        1.715      223.330       58.579        0.069      336.138        7.237      866.198
01/03/2021  08:07:00     -135.911       97.815      -27.493      109.117       82.781       45.950    11906.530     6852.644     2111.373        2.483        1.044      167.450       43.826        0.069      336.104        7.179      866.194
01/03/2021  08:08:00     -288.906       75.798      -12.765      203.903      130.401       71.253    41576.466    17004.547     5076.941        7.650        3.183      298.684       41.964        0.020      336.147        7.252      866.217
01/03/2021  08:09:00     -279.999       50.264        9.386      117.443       96.054       65.749    13792.974     9226.444     4322.988        5.417        1.367      284.475       56.298        0.039      336.125        7.214      866.248
01/03/2021  08:10:00     -224.720      111.658      -21.201      121.386      132.755       54.560    14734.600    17624.002     2976.794        4.937        1.767      250.931       63.727        0.064      336.116        7.198      866.252
01/03/2021  08:11:00     -282.530       86.430      -28.488      153.616      110.216       59.182    23597.981    12147.604     3502.562        6.367        1.962      295.455       56.554        0.037      336.062        7.109      866.219
01/03/2021  08:12:00     -392.953       98.849      -12.185      132.779      111.316       70.053    17630.138    12391.290     4907.421        9.962        1.746      405.195       60.504        0.022      336.103        7.176      866.192
01/03/2021  08:13:00     -185.543       52.861      -10.430      144.934      119.214       53.852    21005.827    14211.965     2900.058        3.772        1.906      192.926       51.966        0.073      336.282        7.474      866.178
01/03/2021  08:14:00     -238.404       56.874      -29.187      117.558       96.164       54.500    13819.770     9247.518     2970.286        4.347        1.302      245.094       30.055        0.015      336.211        7.358      866.185
01/03/2021  08:15:00     -254.381       72.954        2.087      198.568      115.006       68.674    39429.133    13226.327     4716.073        6.369        2.869      264.635       69.773        0.070      336.216        7.365      866.169
01/03/2021  08:16:00     -189.440       33.473       -2.051      162.520      138.928       71.925    26412.880    19300.947     5173.169        4.394        2.544      192.374       66.390        0.119      336.235        7.397      866.134
01/03/2021  08:17:00     -337.383       42.721      -13.080      237.738      143.885       86.144    56519.201    20702.998     7420.709       10.021        4.232      340.077       78.550        0.053      336.235        7.398      866.142
01/03/2021  08:18:00     -253.028       61.245       13.546      162.966      125.340       78.172    26557.780    15710.060     6110.917        5.816        2.419      260.335       73.246        0.079      336.319        7.538      866.145
01/03/2021  08:19:00     -241.739       44.720        3.337      173.145      125.188       73.903    29979.344    15672.047     5461.645        5.577        2.556      245.840       68.322        0.077      336.263        7.444      866.134
01/03/2021  08:20:00     -201.621       76.558      -16.667      128.440       81.324       63.423    16496.906     6613.546     4022.517        3.696        1.357      215.667       54.277        0.063      336.326        7.550      866.152
01/03/2021  08:21:00     -223.069       90.133       -2.003      135.600      105.323       56.373    18387.262    11092.851     3177.921        4.527        1.633      240.591       42.912        0.032      336.289        7.488      866.126
01/03/2021  08:22:00     -181.191       46.455      -18.136      120.541       91.473       50.481    14530.204     8367.236     2548.301        3.038        1.272      187.052       39.224        0.044      336.278        7.470      866.087
01/03/2021  08:23:00     -179.059       54.055      -17.599      116.945       78.704       56.764    13676.120     6194.372     3222.198        2.919        1.155      187.041       40.140        0.046      336.284        7.478      866.045
01/03/2021  08:24:00     -209.902       20.400      -25.736       84.625       60.959       46.662     7161.320     3715.963     2177.351        2.909        0.653      210.891       12.861        0.004      336.303        7.511      866.032
01/03/2021  08:25:00     -118.510       16.294        0.358      145.873       98.571       70.680    21278.967     9716.191     4995.622        2.514        1.800      119.625       49.122        0.169      336.383        7.647      866.067
01/03/2021  08:26:00     -350.363       14.717      -26.545      163.761      159.934       64.612    26817.828    25579.035     4174.717        9.011        2.829      350.672       44.819        0.016      336.266        7.449      866.123
01/03/2021  08:27:00     -228.526       77.267      -25.131      124.741       87.509       55.822    15560.437     7657.860     3116.086        4.257        1.317      241.235       49.354        0.042      336.316        7.533      866.162
01/03/2021  08:28:00     -305.013      -15.366      -16.416      225.657       98.875       77.026    50920.974     9776.313     5932.970        8.007        3.332      305.399       70.740        0.054      336.290        7.491      866.177
01/03/2021  08:29:00     -217.697       16.429      -17.538      118.116       88.196       49.706    13951.320     7778.546     2470.716        3.608        1.210      218.316       29.716        0.019      336.383        7.646      866.187
01/03/2021  08:30:00     -320.216      123.944      -25.142      100.591      118.941       47.374    10118.529    14147.069     2244.333        7.252        1.325      343.366       29.400        0.007      336.332        7.558      866.233
01/03/2021  08:31:00     -138.831        7.793       -8.132      156.085      105.056       68.943    24362.496    11036.718     4753.176        2.977        2.008      139.050       68.571        0.243      336.329        7.554      866.248
01/03/2021  08:32:00      -95.387       25.878      -10.350      149.718      106.806       84.166    22415.587    11407.558     7083.931        2.538        2.045       98.835       60.773        0.378      336.370        7.624      866.223
01/03/2021  08:33:00     -317.385      100.700      -37.243      174.883      119.355       63.141    30584.003    14245.732     3986.728        8.053        2.441      332.977       45.932        0.019      336.307        7.519      866.180
01/03/2021  08:34:00     -326.857       77.312      -24.565      156.352      118.862       60.399    24446.024    14128.284     3648.017        7.781        2.111      335.876       48.027        0.020      336.312        7.526      866.163
01/03/2021  08:35:00     -224.617      109.599       -6.964      127.482       93.600       60.215    16251.636     8760.886     3625.788        4.557        1.432      249.930       57.842        0.054      336.409        7.688      866.210
01/03/2021  08:36:00     -274.862       81.655       -1.625      161.451      109.204       72.676    26066.443    11925.494     5281.848        6.274        2.164      286.735       78.942        0.076      336.410        7.690      866.232
01/03/2021  08:37:00     -271.764       21.549       10.532      198.740      111.246       78.538    39497.476    12375.569     6168.294        6.622        2.902      272.617       68.513        0.063      336.348        7.586      866.199
01/03/2021  08:38:00     -233.865       -8.439      -12.054      154.033      103.666       63.678    23726.226    10746.682     4054.835        4.671        1.926      234.017       65.771        0.079      336.342        7.577      866.170
01/03/2021  08:39:00     -223.254       77.560      -13.955       91.124       85.960       48.276     8303.537     7389.065     2330.567        3.703        0.901      236.343       41.170        0.030      336.429        7.722      866.147
01/03/2021  08:40:00     -203.033      100.567      -11.593      158.025      125.182       71.856    24971.954    15670.525     5163.268        4.863        2.290      226.574       70.327        0.096      336.505        7.848      866.150
01/03/2021  08:41:00     -157.256       21.780      -14.195      175.087      125.638       80.995    30655.529    15785.031     6560.126        3.919        2.650      158.758       79.720        0.252      336.452        7.761      866.186
01/03/2021  08:42:00     -208.614      -12.496      -21.579      217.399      127.820       83.216    47262.280    16338.044     6924.981        5.732        3.526      208.988       88.672        0.180      336.361        7.608      866.194
01/03/2021  08:43:00     -202.320       16.885       -2.164      230.716      135.276       77.288    53229.819    18299.584     5973.415        5.935        3.875      203.023       82.643        0.166      336.356        7.600      866.221
01/03/2021  08:44:00     -338.897       36.145       -6.409      211.433      187.925       89.932    44703.935    35315.691     8087.785       10.213        4.405      340.819       93.367        0.075      336.390        7.657      866.246
01/03/2021  08:45:00     -343.894      101.037        3.471      193.398      118.375       77.686    37402.661    14012.613     6035.106        9.295        2.873      358.429       74.246        0.043      336.375        7.631      866.305
01/03/2021  08:46:00     -246.781       36.340       -3.133      154.015      116.763       75.393    23720.536    13633.609     5684.082        5.263        2.152      249.443       62.327        0.062      336.424        7.714      866.345
01/03/2021  08:47:00     -213.384       35.292        1.732      140.483      102.729       69.734    19735.514    10553.341     4862.813        4.096        1.758      216.282       54.629        0.064      336.494        7.832      866.384
01/03/2021  08:48:00     -379.500      -21.373      -15.160      168.561      118.941       78.449    28412.923    14147.007     6154.216        9.670        2.436      380.101       83.442        0.048      336.422        7.709      866.429
01/03/2021  08:49:00     -297.930       38.071       -2.706      162.027      100.573       64.078    26252.657    10114.894     4105.935        6.534        2.024      300.353       53.449        0.032      336.432        7.726      866.470
01/03/2021  08:50:00     -193.385       -0.193      -13.466       88.632      101.159       57.953     7855.706    10233.082     3358.601        2.951        1.072      193.385       46.307        0.057      336.441        7.742      866.483
01/03/2021  08:51:00     -229.076       28.435        5.914      199.211      143.574       79.458    39684.866    20613.511     6313.520        5.995        3.331      230.834       91.773        0.158      336.443        7.745      866.521
01/03/2021  08:52:00     -428.424       23.770      -33.694      151.213      134.051       76.533    22865.429    17969.633     5857.246       11.596        2.335      429.083       70.507        0.027      336.377        7.632      866.478
01/03/2021  08:53:00     -161.317       76.600      -12.529      126.597       97.982       62.342    16026.706     9600.527     3886.511        3.077        1.476      178.580       54.371        0.093      336.438        7.737      866.455
01/03/2021  08:54:00     -236.225       67.868       13.113      143.794      103.123       67.614    20676.848    10634.277     4571.635        4.822        1.794      245.781       63.619        0.067      336.453        7.760      866.456
01/03/2021  08:55:00     -315.441      120.233        5.400      175.532      105.131       75.294    30811.376    11052.454     5669.180        8.075        2.377      337.578       75.360        0.050      336.425        7.715      866.459
01/03/2021  08:56:00     -121.536       40.248      -12.257      117.715      108.984       61.996    13856.709    11877.457     3843.531        2.305        1.479      128.027       11.741        0.008      336.545        7.916      866.461
01/03/2021  08:57:00     -122.134       34.704       -0.881       77.720       79.687       43.195     6040.369     6350.005     1865.791        1.519        0.713      126.969       12.314        0.009      336.574        7.967      866.446
01/03/2021  08:58:00      -83.859        7.560       -2.185       89.317       68.411       44.832     7977.543     4680.036     2009.936        1.088        0.733       84.199       23.054        0.075      336.547        7.922      866.457
01/03/2021  08:59:00     -227.040       24.331       -5.097      101.183       70.054       48.485    10237.992     4907.501     2350.747        3.483        0.875      228.340       41.873        0.034      336.437        7.735      866.449
01/03/2021  09:00:00     -183.776      -64.291      -25.195       88.674      122.898       51.119     7863.087    15103.850     2613.194        3.206        1.279      194.697       35.845        0.034      336.439        7.737      866.436
01/03/2021  09:01:00      -77.732       -0.086       -7.636       94.602       91.982       54.740     8949.611     8460.676     2996.514        1.325        1.020       77.732       34.496        0.197      336.512        7.862      866.426
01/03/2021  09:02:00     -178.793       53.953        3.043       91.266       90.954       53.687     8329.478     8272.654     2882.246        2.718        0.974      186.756       44.762        0.057      336.480        7.806      866.455
01/03/2021  09:03:00     -292.705       78.645      -10.442      169.745      118.312       71.297    28813.496    13997.762     5083.244        6.992        2.395      303.087       70.085        0.053      336.466        7.783      866.471
01/03/2021  09:04:00     -352.654       24.354      -21.092      158.537      138.192       58.618    25134.138    19096.926     3436.021        8.653        2.383      353.494       45.180        0.016      336.415        7.698      866.494
01/03/2021  09:05:00     -330.549       34.029      -39.767      138.590      126.892       68.194    19207.052    16101.685     4650.489        7.597        1.998      332.296       58.040        0.031      336.438        7.736      866.507
01/03/2021  09:06:00     -195.503        8.279      -10.165      126.146      109.882       58.512    15912.939    12073.951     3423.665        3.489        1.571      195.678       59.981        0.094      336.472        7.793      866.554
01/03/2021  09:07:00     -185.642       34.811      -24.121       81.308       66.528       36.876     6611.009     4425.927     1359.807        2.432        0.620      188.878       26.224        0.019      336.516        7.869      866.613
01/03/2021  09:08:00      -76.798      -19.445        4.565       99.347       69.381       46.249     9869.914     4813.742     2138.982        1.156        0.841       79.221       33.025        0.174      336.587        7.989      866.648
01/03/2021  09:09:00     -139.079       19.654       -4.985      150.891       92.840       52.893    22768.034     8619.179     2797.697        2.696        1.709      140.461       57.604        0.168      336.514        7.864      866.665
01/03/2021  09:10:00     -240.713       30.623      -44.155       94.147      133.497       44.957     8863.660    17821.390     2021.161        4.476        1.435      242.653       29.058        0.014      336.440        7.740      866.679
01/03/2021  09:11:00      -64.082        2.157      -18.391       87.460       96.108       46.464     7649.208     9236.833     2158.929        1.174        0.952       64.118       38.761        0.365      336.498        7.841      866.703
01/03/2021  09:12:00     -253.896      -23.859      -32.031      182.207      109.123       72.716    33199.330    11907.745     5287.578        5.822        2.520      255.015       80.602        0.100      336.485        7.814      866.721
01/03/2021  09:13:00     -164.547       77.621        1.432      120.327      111.778       62.849    14478.648    12494.311     3950.042        3.201        1.546      181.936       38.508        0.045      336.585        7.985      866.765
01/03/2021  09:14:00     -174.571       -2.795       -6.856      103.361       91.255       62.772    10683.433     8327.437     3940.298        2.674        1.148      174.594       54.925        0.099      336.464        7.779      866.788
01/03/2021  09:15:00     -350.424       86.877      -23.673      185.358      170.113       67.895    34357.455    28938.600     4609.682        9.939        3.395      361.032       75.213        0.043      336.485        7.815      866.763
01/03/2021  09:16:00     -187.508       34.823      -12.446      143.734       86.884       43.763    20659.377     7548.897     1915.187        3.332        1.506      190.714       26.424        0.019      336.552        7.931      866.731
01/03/2021  09:17:00     -279.297       71.558       -6.587      129.685       89.170       63.636    16818.209     7951.355     4049.563        5.599        1.441      288.318       66.600        0.053      336.483        7.812      866.678
01/03/2021  09:18:00     -160.756        4.536      -10.186      132.225       84.514       47.418    17483.430     7142.583     2248.506        2.641        1.344      160.820       39.809        0.061      336.466        7.784      866.664
01/03/2021  09:19:00     -228.510       58.818      -11.393      204.680      142.013       81.110    41893.892    20167.571     6578.862        6.221        3.432      235.958       74.492        0.100      336.550        7.924      866.664
01/03/2021  09:20:00     -245.020       35.035       -1.614      210.728      120.976       73.446    44406.134    14635.285     5394.314        6.284        3.222      247.512       85.333        0.119      336.494        7.832      866.628
01/03/2021  09:21:00     -228.133      -11.920      -21.509      201.602      115.557       68.862    40643.413    13353.507     4741.927        5.568        2.937      228.444       66.718        0.085      336.445        7.749      866.595
01/03/2021  09:22:00     -236.411      -98.172       -0.530      244.107      152.684       79.219    59588.356    23312.304     6275.654        7.733        4.459      255.984       98.008        0.147      336.498        7.838      866.557
01/03/2021  09:23:00     -199.702      -73.719       -7.976      169.273      136.623       70.151    28653.302    18665.874     4921.161        4.880        2.612      212.875       76.219        0.128      336.509        7.855      866.533
01/03/2021  09:24:00     -241.496       -5.149      -27.083       82.203      110.294       49.672     6757.406    12164.688     2467.337        4.023        1.069      241.551       32.903        0.019      336.544        7.914      866.533
01/03/2021  09:25:00     -249.876       25.792      -13.192      125.970      121.371       43.835    15868.497    14730.963     1921.499        4.789        1.626      251.204       35.955        0.020      336.542        7.911      866.560
01/03/2021  09:26:00     -241.100      -21.596      -15.806      181.319      144.211       86.249    32876.657    20796.793     7438.849        5.997        3.056      242.065       93.015        0.148      336.579        7.974      866.542
01/03/2021  09:27:00     -404.338       60.309       -4.367      209.088      134.989       72.461    43717.642    18221.954     5250.630       11.715        3.360      408.811       80.021        0.038      336.575        7.967      866.572
01/03/2021  09:28:00     -216.602       -3.915       -7.953      114.043       94.061       56.343    13005.781     8847.499     3174.537        3.601        1.251      216.637       30.990        0.020      336.627        8.055      866.562
01/03/2021  09:29:00     -208.677       41.018      -12.939      117.452       87.601       52.991    13794.985     7673.882     2808.084        3.483        1.214      212.670       42.626        0.040      336.666        8.119      866.573
01/03/2021  09:30:00     -188.321      -63.020      -32.618      133.615       87.641       47.609    17853.093     7680.924     2266.572        3.414        1.390      198.585       15.008        0.006      336.657        8.104      866.559
01/03/2021  09:31:00     -117.184       63.358       -4.060      143.846      126.373       52.156    20691.544    15970.015     2720.239        2.856        1.969      133.216       36.059        0.073      336.761        8.278      866.579
01/03/2021  09:32:00     -282.823       27.919      -16.175      167.451      104.692       72.690    28039.764    10960.355     5283.835        6.265        2.214      284.197       73.452        0.067      336.704        8.183      866.573
01/03/2021  09:33:00     -231.992       16.056      -21.926      114.503       92.609       62.345    13110.891     8576.406     3886.871        4.006        1.279      232.547       61.608        0.070      336.699        8.173      866.598
01/03/2021  09:34:00     -118.057       20.993       11.452       90.964       95.239       49.726     8274.457     9070.385     2472.689        1.716        0.991      119.909       40.164        0.112      336.873        8.467      866.624
01/03/2021  09:35:00     -116.631        2.893        7.412       85.831       57.292       41.342     7367.031     3282.334     1709.177        1.301        0.618      116.667       31.969        0.075      336.792        8.332      866.665
01/03/2021  09:36:00      -68.559       25.984      -13.950       75.339       44.552       31.534     5675.907     1984.890      994.376        0.711        0.433       73.318       24.048        0.108      336.796        8.339      866.686
01/03/2021  09:37:00     -119.782       14.015       -8.896       81.625       36.533       35.264     6662.607     1334.694     1243.575        1.193        0.462      120.599       16.526        0.019      336.805        8.353      866.702
01/03/2021  09:38:00     -206.519      -62.128      -28.462      152.732      129.720       50.412    23327.127    16827.255     2541.349        4.500        2.135      215.662       39.370        0.033      336.771        8.293      866.689
01/03/2021  09:39:00     -201.702       -2.343      -11.706      134.044       98.247       53.131    17967.665     9652.462     2822.894        3.563        1.522      201.716       54.171        0.072      336.779        8.310      866.678
01/03/2021  09:40:00     -129.903     -105.923      -18.792       98.196       85.056       40.553     9642.497     7234.498     1644.552        2.348        0.926      167.614       21.414        0.016      336.839        8.408      866.658
01/03/2021  09:41:00      -39.359      -40.258      -12.270       67.259       83.507       39.114     4523.840     6973.413     1529.884        0.817        0.651       56.302       43.430        0.595      336.883        8.483      866.668
01/03/2021  09:42:00        9.052        2.520       -6.744       67.086       33.175       30.365     4500.516     1100.549      922.042        0.333        0.326        9.396       25.592        7.419      336.886        8.490      866.692
01/03/2021  09:43:00      -75.426       66.929       -5.488      122.907       41.936       32.593    15106.134     1758.613     1062.305        1.406        0.896      100.839       23.870        0.056      336.949        8.592      866.726
01/03/2021  09:44:00     -208.990      154.063      -26.965      128.356      126.649       56.404    16475.361    16040.046     3181.424        5.191        1.785      259.639       59.101        0.052      336.928        8.556      866.741
01/03/2021  09:45:00     -365.155       78.913      -20.810      170.658      126.539       81.192    29124.208    16012.162     6592.110        9.585        2.586      373.584       75.351        0.041      336.829        8.390      866.672
01/03/2021  09:46:00     -239.074      -14.948        8.070      210.153      103.871       70.225    44164.311    10789.112     4931.586        5.865        2.994      239.541       73.218        0.093      336.837        8.404      866.642
01/03/2021  09:47:00     -274.266      -21.148      -20.501      142.093       80.873       59.916    20190.507     6540.385     3589.881        5.320        1.516      275.081       57.806        0.044      336.868        8.456      866.655
01/03/2021  09:48:00     -163.255      -37.572      -20.099      144.237       83.247       54.388    20804.318     6930.119     2958.096        2.957        1.535      167.523       60.893        0.132      336.863        8.449      866.638
01/03/2021  09:49:00     -187.124      -49.405      -28.063      174.344      109.170       80.111    30395.763    11918.140     6417.841        4.348        2.437      193.536       87.486        0.204      336.862        8.447      866.660
01/03/2021  09:50:00     -279.335      -97.039      -32.014      178.038      127.248       72.218    31697.628    16192.123     5215.485        7.078        2.655      295.710       56.901        0.037      336.860        8.443      866.617
01/03/2021  09:51:00     -200.886      108.504      -19.857      106.817      181.089       57.631    11409.966    32793.227     3321.366        5.001        2.376      228.316       40.610        0.032      336.938        8.574      866.621
01/03/2021  09:52:00     -140.802       -3.450        2.606      132.125       87.026       62.627    17457.062     7573.504     3922.092        2.439        1.448      140.844       61.403        0.190      337.074        8.802      866.627
01/03/2021  09:53:00     -198.868      -37.576       -9.202      198.049      122.884       76.917    39223.544    15100.408     5916.247        5.063        3.012      202.387       65.276        0.104      336.960        8.610      866.635
01/03/2021  09:54:00     -262.429      -30.813      -17.571      189.482      151.398       86.902    35903.498    22921.225     7551.894        6.824        3.319      264.231       88.842        0.113      336.953        8.596      866.657
01/03/2021  09:55:00     -311.316      -45.673      -22.116      198.559      131.992      104.956    39425.552    17421.887    11015.696        8.366        3.393      314.649      100.242        0.101      336.948        8.588      866.657
01/03/2021  09:56:00     -185.946       14.131      -10.357      161.445       97.131       78.721    26064.509     9434.482     6197.045        3.828        2.085      186.482       83.432        0.200      336.982        8.646      866.657
01/03/2021  09:57:00     -292.326      -54.171      -16.564      236.934      149.335       87.578    56137.618    22301.032     7669.985        8.737        4.305      297.303       78.254        0.069      336.914        8.532      866.613
01/03/2021  09:58:00     -426.993      -37.834      -13.951      224.385      145.442      104.435    50348.818    21153.405    10906.601       13.316        4.120      428.666       90.387        0.044      336.892        8.493      866.551
01/03/2021  09:59:00     -241.324       16.059       -9.071      181.017      119.781       75.713    32767.157    14347.438     5732.397        5.570        2.642      241.858       92.178        0.145      336.919        8.540      866.531
01/03/2021  10:00:00     -440.668     -126.563      -28.053      284.848      133.217      126.782    81138.437    17746.738    16073.596       16.295        5.748      458.483      137.281        0.090      336.920        8.542      866.534
01/03/2021  10:01:00     -329.332     -100.542      -19.730      223.182      154.911       88.339    49810.029    23997.562     7803.781       10.027        4.081      344.337       95.714        0.077      336.996        8.667      866.529
01/03/2021  10:02:00     -386.606     -108.753      -21.222      186.343      163.731       89.706    34723.860    26807.897     8047.122       11.564        3.479      401.611       87.998        0.048      337.038        8.739      866.555
01/03/2021  10:03:00     -346.820      -61.787      -16.089      223.539      154.217       92.540    49969.886    23782.943     8563.672       10.332        4.116      352.281       95.803        0.074      337.034        8.732      866.509
01/03/2021  10:04:00     -362.677       12.252      -17.871      249.581      134.086       80.394    62290.755    17979.095     6463.244       10.935        4.337      362.884       86.336        0.057      337.117        8.872      866.507
01/03/2021  10:05:00     -423.342      -51.199       -4.565      247.001      169.669       93.387    61009.608    28787.719     8721.128       14.017        4.926      426.427      105.259        0.061      337.038        8.739      866.518
01/03/2021  10:06:00     -539.586      -96.453      -18.377      256.779      174.443      105.553    65935.214    30430.350    11141.446       20.413        5.375      548.139      112.672        0.042      337.003        8.682      866.509
01/03/2021  10:07:00     -343.884      -66.922      -13.566      203.254      150.627      102.781    41312.155    22688.593    10563.836        9.873        3.728      350.335      103.875        0.088      337.054        8.764      866.544
01/03/2021  10:08:00     -305.880      -75.008      -15.093      232.539      148.877      106.454    54074.163    22164.429    11332.557        9.347        4.379      314.942      102.468        0.106      337.078        8.806      866.552
01/03/2021  10:09:00     -380.636     -148.642      -27.228      220.743      154.642      101.119    48727.659    23914.073    10225.129       12.528        4.143      408.629      113.208        0.077      337.105        8.851      866.538
01/03/2021  10:10:00     -418.574       -6.930      -17.976      218.288      190.210      108.304    47649.596    36179.843    11729.692       13.555        4.778      418.631       81.465        0.038      337.110        8.859      866.532
01/03/2021  10:11:00     -292.849      -23.578      -23.729      170.422      113.940       75.996    29043.735    12982.408     5775.389        6.733        2.390      293.796       48.009        0.027      337.156        8.937      866.526
01/03/2021  10:12:00     -379.146       39.491      -11.519      220.945      152.034       84.292    48816.772    23114.316     7105.126       11.222        3.952      381.197       96.006        0.063      337.184        8.983      866.539
01/03/2021  10:13:00     -283.690      -48.801      -24.189      140.948      158.478       68.392    19866.209    25115.379     4677.453        6.654        2.483      287.857       64.598        0.050      337.192        8.997      866.573
01/03/2021  10:14:00     -294.190      -95.135      -33.857      200.887      152.844       85.848    40355.506    23361.440     7369.836        8.390        3.554      309.190      100.141        0.105      337.177        8.973      866.555
01/03/2021  10:15:00     -360.955        3.304      -16.349      213.752      156.427       73.954    45689.990    24469.507     5469.232       10.308        3.781      360.971       94.772        0.069      337.191        8.995      866.590
01/03/2021  10:16:00     -301.923      -42.153      -25.491      224.501      116.210       90.673    50400.658    13504.863     8221.601        8.284        3.606      304.852       90.422        0.088      337.127        8.888      866.566
01/03/2021  10:17:00     -302.131      108.962      -24.428      139.086      114.030       63.047    19344.801    13002.903     3974.879        7.003        1.816      321.179       58.091        0.033      337.116        8.870      866.547
01/03/2021  10:18:00     -147.832      -33.567      -18.514       90.469      129.962       46.857     8184.711    16890.227     2195.538        2.529        1.364      151.595       33.684        0.049      337.239        9.077      866.521
01/03/2021  10:19:00     -128.013      -14.244       -3.731      114.180       64.794       48.550    13036.963     4198.318     2357.086        1.809        0.980      128.803       34.535        0.072      337.249        9.095      866.532
01/03/2021  10:20:00     -320.787       17.635      -30.892      171.862      174.776       90.576    29536.660    30546.688     8204.047        8.621        3.414      321.272       82.112        0.065      337.098        8.839      866.503
01/03/2021  10:21:00     -283.364       14.513      -12.945      278.731      112.142       76.156    77690.976    12575.864     5799.735        8.835        4.803      283.736       88.896        0.098      337.070        8.794      866.466
01/03/2021  10:22:00     -239.860       28.977        1.621      123.389      135.084       75.915    15224.868    18247.768     5763.055        4.880        1.962      241.604       53.421        0.049      337.199        9.009      866.451
01/03/2021  10:23:00     -155.866       81.187       -1.591      109.799       96.963       57.474    12055.717     9401.885     3303.212        2.782        1.238      175.743       52.308        0.089      337.333        9.234      866.434
01/03/2021  10:24:00     -217.072       60.674      -11.153       98.547      114.745       60.459     9711.501    13166.366     3655.306        3.872        1.327      225.393       46.112        0.042      337.230        9.061      866.426
01/03/2021  10:25:00     -190.516        8.022       -0.787      130.232       61.873       56.835    16960.245     3828.293     3230.162        3.018        1.201      190.685       62.287        0.107      337.352        9.266      866.428
01/03/2021  10:26:00      -47.355      -28.631      -11.947      112.210       62.089       45.058    12591.157     3855.044     2030.232        1.084        0.924       55.337       55.864        1.019      337.331        9.232      866.433
01/03/2021  10:27:00     -162.517       51.996      -21.705       98.204       73.547       45.273     9644.113     5409.137     2049.638        2.334        0.855      170.632       48.381        0.080      337.510        9.532      866.413
01/03/2021  10:28:00     -116.108      -50.104       -3.366       86.670      142.445       55.991     7511.735    20290.513     3134.993        2.346        1.547      126.458       42.894        0.115      337.366        9.291      866.372
01/03/2021  10:29:00     -220.702       38.900      -17.612      181.480      105.970       62.749    32934.974    11229.670     3937.405        4.931        2.405      224.104       79.129        0.125      337.266        9.122      866.356
01/03/2021  10:30:00     -359.178       69.307       -4.476      161.652       97.268       65.193    26131.319     9461.073     4250.181        8.683        1.992      365.804       75.203        0.042      337.279        9.142      866.356
01/03/2021  10:31:00     -329.368      -63.731      -34.878      169.914      149.486       76.215    28870.876    22345.991     5808.717        8.538        2.851      335.477       80.707        0.058      337.211        9.029      866.326
01/03/2021  10:32:00     -151.122       79.400       -2.671      177.767       83.222       61.871    31601.084     6925.906     3828.015        3.574        2.118      170.711       74.357        0.190      337.400        9.347      866.320
01/03/2021  10:33:00     -178.349       43.460      -14.692      142.951       96.698       55.977    20435.062     9350.582     3133.412        3.341        1.646      183.568       61.327        0.112      337.438        9.410      866.295
01/03/2021  10:34:00     -219.066      -34.477       -8.607      143.893       79.252       65.486    20705.260     6280.912     4288.385        4.026        1.564      221.763       69.186        0.097      337.270        9.129      866.276
01/03/2021  10:35:00     -240.008       30.521       -3.555      125.056       90.187       47.821    15638.946     8133.722     2286.829        4.230        1.303      241.941       44.690        0.034      337.325        9.220      866.263
01/03/2021  10:36:00      -98.646       28.263       15.481       83.156       68.784       43.197     6914.841     4731.224     1865.943        1.214        0.676      102.615       35.616        0.120      337.627        9.727      866.245
01/03/2021  10:37:00     -115.028      -26.190        0.110       72.499       43.771       30.771     5256.164     1915.916      946.834        1.102        0.406      117.972       32.177        0.074      337.395        9.340      866.245
01/03/2021  10:38:00     -168.142       17.297        1.363       93.592       54.332       34.756     8759.397     2952.001     1207.989        2.074        0.646      169.029       36.386        0.046      337.438        9.411      866.234
01/03/2021  10:39:00     -125.351       24.843       18.388      147.922      125.914       74.169    21880.952    15854.326     5501.077        2.994        2.162      127.789       71.900        0.317      337.551        9.600      866.206
01/03/2021  10:40:00     -250.561     -207.736      -30.097      135.780      149.699       77.510    18436.321    22409.762     6007.794        7.684        2.343      325.476       53.804        0.027      337.265        9.120      866.210
01/03/2021  10:41:00     -260.005      -48.423      -11.088      124.038      102.047       52.117    15385.309    10413.629     2716.200        4.929        1.426      264.476       36.053        0.019      337.270        9.129      866.181
01/03/2021  10:42:00     -170.299      -67.758       -1.961      145.599       89.944       68.539    21199.204     8089.879     4697.587        3.378        1.699      183.284       72.025        0.154      337.333        9.235      866.152
01/03/2021  10:43:00     -197.313      -28.465       -5.999      104.890       53.166       45.136    11001.989     2826.676     2037.296        2.782        0.793      199.356       47.100        0.056      337.419        9.378      866.145
01/03/2021  10:44:00     -121.957      -37.185       10.694      104.819       62.116       49.044    10986.980     3858.413     2405.303        1.681        0.863      127.500       54.279        0.181      337.522        9.551      866.162
01/03/2021  10:45:00     -200.481       32.087      -20.962      106.578       92.391       43.834    11358.822     8536.042     1921.403        3.173        1.091      203.033       43.823        0.047      337.435        9.406      866.147
01/03/2021  10:46:00     -266.577       96.495       20.414      142.583      113.615       72.855    20329.828    12908.326     5307.903        5.966        1.927      283.504       72.797        0.066      337.550        9.597      866.127
01/03/2021  10:47:00     -214.898       36.339        7.920      133.707      101.424       59.091    17877.452    10286.879     3491.803        3.960        1.583      217.949       49.041        0.051      337.646        9.758      866.107
01/03/2021  10:48:00     -146.013       -9.065       -2.177      145.105       83.761       62.854    21055.540     7015.908     3950.651        2.671        1.601      146.294       62.031        0.180      337.650        9.765      866.100
01/03/2021  10:49:00     -195.849      -35.953      -12.976      163.662      111.898       74.876    26785.412    12521.127     5606.403        4.236        2.246      199.122       84.041        0.178      337.559        9.613      866.090
01/03/2021  10:50:00     -335.244      -51.890      -30.581      212.223       95.415       82.381    45038.702     9104.013     6786.647        8.846        3.046      339.236       83.302        0.060      337.287        9.156      866.065
01/03/2021  10:51:00     -381.007       -8.054      -23.678      151.493       99.864       59.666    22950.112     9972.913     3560.048        9.113        1.824      381.092       63.685        0.028      337.312        9.197      866.051
01/03/2021  10:52:00     -292.880       33.112      -25.710      212.850      134.801       62.179    45305.220    18171.406     3866.180        7.742        3.367      294.746       63.269        0.046      337.474        9.469      866.044
01/03/2021  10:53:00     -272.254       49.552       -3.985      178.216      129.922       78.285    31761.054    16879.759     6128.587        6.567        2.738      276.727       83.516        0.091      337.543        9.585      866.007
01/03/2021  10:54:00     -227.311       79.576       -7.476      155.902      104.764       61.478    24305.299    10975.583     3779.491        4.855        1.953      240.837       64.895        0.073      337.554        9.603      865.954
01/03/2021  10:55:00     -271.693       82.622      -29.138      130.977      125.673       64.847    17155.075    15793.630     4205.120        5.932        1.858      283.978       52.345        0.034      337.561        9.615      865.920
01/03/2021  10:56:00     -242.199       73.086      -14.274      161.273       98.111       77.288    26009.127     9625.753     5973.503        5.290        2.080      252.986       70.679        0.078      337.617        9.709      865.885
01/03/2021  10:57:00     -445.760       84.724      -15.685      181.766      132.466       75.585    33038.881    17547.309     5713.130       13.120        2.815      453.741       83.062        0.034      337.509        9.528      865.860
01/03/2021  10:58:00     -355.240       -3.743       16.923      249.125      127.759       79.276    62063.039    16322.432     6284.716       10.556        4.234      355.260       79.258        0.050      337.546        9.590      865.849
01/03/2021  10:59:00     -181.852      -52.025       19.018      306.397      141.582      106.999    93879.373    20045.578    11448.783        8.073        6.269      189.147      133.962        0.502      337.628        9.729      865.843
01/03/2021  11:00:00     -471.618      -66.824      -10.129      212.795      138.810       98.039    45281.760    19268.281     9611.626       15.056        3.708      476.328      103.683        0.047      337.366        9.289      865.861
01/03/2021  11:01:00     -393.475     -123.828      -17.916      174.073      139.342       79.078    30301.414    19416.209     6253.319       11.321        2.799      412.499       75.717        0.034      337.324        9.219      865.848
01/03/2021  11:02:00     -227.496      -59.127       -1.230      168.768      139.844       85.142    28482.697    19556.223     7249.160        5.526        2.764      235.054       80.937        0.119      337.529        9.562      865.828
01/03/2021  11:03:00     -217.035      -12.808        5.601      119.547      114.688       57.054    14291.510    13153.230     3255.111        3.899        1.535      217.413       57.179        0.069      337.741        9.917      865.871
01/03/2021  11:04:00     -268.465      -25.316       -3.827      212.812      102.375       92.199    45288.917    10480.602     8500.660        6.849        3.214      269.656      103.661        0.148      337.507        9.525      865.865
01/03/2021  11:05:00     -344.300      -68.521       -1.258      178.090      126.452       92.338    31715.940    15990.186     8526.233        8.972        2.812      351.052      102.630        0.085      337.403        9.350      865.834
01/03/2021  11:06:00     -142.548      -23.897        8.282      192.993      107.745       80.804    37246.287    11608.891     6529.220        3.816        2.769      144.538       94.208        0.425      337.659        9.779      865.855
01/03/2021  11:07:00      -96.171        7.633       12.058      110.109       84.645       64.111    12124.024     7164.828     4110.223        1.642        1.170       96.473       61.936        0.412      337.756        9.944      865.873
01/03/2021  11:08:00     -255.907       64.279       -6.719      134.929       93.446       75.630    18205.787     8732.210     5719.877        5.115        1.633      263.857       73.414        0.077      337.772        9.968      865.861
01/03/2021  11:09:00     -207.195       21.168      -18.230      135.872      105.869       57.881    18461.224    11208.260     3350.194        3.836        1.651      208.273       49.476        0.056      337.893       10.172      865.874
01/03/2021  11:10:00     -497.151       76.024      -12.779      242.915      146.322       98.529    59007.578    21410.092     9708.046       17.159        4.506      502.930       93.422        0.035      337.631        9.733      865.870
01/03/2021  11:11:00     -288.430       42.779        2.804      250.030      138.146       91.345    62515.037    19084.223     8343.837        8.747        4.497      291.585      110.977        0.145      337.634        9.738      865.904
01/03/2021  11:12:00     -283.261      -13.077       -6.575      246.592      133.598       91.219    60807.743    17848.502     8320.971        8.370        4.349      283.562       80.020        0.080      337.611        9.699      865.922
01/03/2021  11:13:00     -301.173      -23.008      -23.789      226.029      157.051       74.800    51089.221    24665.167     5594.967        8.656        4.067      302.050       64.637        0.046      337.512        9.534      865.912
01/03/2021  11:14:00     -373.071      133.981      -34.947      199.757      138.930       70.808    39902.867    19301.619     5013.753       11.127        3.211      396.400       55.064        0.019      337.696        9.841      865.913
01/03/2021  11:15:00     -215.180      -25.325      -15.881      127.519       77.341       62.055    16261.207     5981.685     3850.854        3.664        1.305      216.665       58.838        0.074      337.725        9.891      865.890
01/03/2021  11:16:00     -328.464      -34.688      -10.477      177.829      147.725       86.010    31623.291    21822.800     7397.729        8.501        3.042      330.291       86.306        0.068      337.638        9.745      865.855
01/03/2021  11:17:00     -322.796      -16.199      -14.618      189.526      130.290       73.534    35920.149    16975.509     5407.319        8.148        2.915      323.203       90.032        0.078      337.744        9.922      865.814
01/03/2021  11:18:00     -121.930        3.994       -1.654      169.328      118.802       68.607    28672.063    14113.909     4706.982        3.118        2.375      121.996       74.162        0.370      337.849       10.099      865.776
01/03/2021  11:19:00     -191.889       -9.062       -1.337      169.348      110.024       66.084    28678.728    12105.375     4367.146        4.102        2.258      192.103       75.391        0.154      337.726        9.893      865.727
01/03/2021  11:20:00     -131.613      -44.497        5.348      157.022      146.607       97.094    24655.865    21493.599     9427.224        3.744        2.779      138.931       96.470        0.482      337.719        9.879      865.680
01/03/2021  11:21:00     -206.903      -87.690      -12.800      127.263      153.069       67.592    16195.909    23430.227     4568.727        4.742        2.210      224.719       50.998        0.052      337.562        9.618      865.613
01/03/2021  11:22:00     -153.251       -3.072        8.225      162.837      124.661       72.190    26515.854    15540.421     5211.365        3.541        2.363      153.282       58.574        0.146      337.725        9.890      865.554
01/03/2021  11:23:00     -375.721      -52.147      -25.139      185.388      134.357       69.832    34368.829    18051.787     4876.485       10.089        2.865      379.323       72.121        0.036      337.616        9.708      865.515
01/03/2021  11:24:00     -362.603      -89.004      -26.781      185.516      142.614       83.213    34416.226    20338.645     6924.455       10.089        3.084      373.367       69.169        0.034      337.665        9.789      865.491
01/03/2021  11:25:00     -281.484      -75.745      -25.047      164.077      109.755       60.844    26921.420    12046.078     3701.962        6.412        2.133      291.497       67.950        0.054      337.594        9.670      865.468
01/03/2021  11:26:00     -356.922     -197.488      -32.104      224.192      180.900       90.720    50262.004    32724.729     8230.070       12.930        4.561      407.915      106.997        0.069      337.560        9.612      865.396
01/03/2021  11:27:00     -396.642       11.775      -11.227      180.233      134.546       78.733    32483.935    18102.538     6198.926       10.718        2.839      396.817       60.039        0.023      337.621        9.715      865.436
01/03/2021  11:28:00     -321.118        7.882      -23.303      172.529      131.126       84.359    29766.122    17193.916     7116.442        7.889        2.704      321.214       81.996        0.065      337.534        9.569      865.469
01/03/2021  11:29:00     -305.522       -4.056       -5.793      275.489      133.500      102.720    75893.924    17822.326    10551.326        9.881        5.213      305.549      123.586        0.164      337.581        9.648      865.445
01/03/2021  11:30:00     -237.203       60.785      -15.265      150.566      109.703       71.379    22670.039    12034.852     5095.025        4.999        1.990      244.868       46.396        0.036      337.799       10.014      865.474
01/03/2021  11:31:00     -340.479       -0.432        3.478      201.835      128.443       85.125    40737.300    16497.616     7246.281        9.020        3.224      340.479       81.344        0.057      337.651        9.766      865.456
01/03/2021  11:32:00     -336.831       16.276       -5.937      193.197      113.693       68.168    37325.078    12926.053     4646.835        8.431        2.745      337.224       64.602        0.037      337.636        9.741      865.440
01/03/2021  11:33:00      -52.950       -5.397       13.944      157.765      103.657       66.689    24889.780    10744.836     4447.387        2.155        2.004       53.224       44.136        0.688      337.746        9.927      865.441
01/03/2021  11:34:00     -164.882       31.516      -13.308      184.060       96.473       75.367    33878.041     9307.134     5680.231        3.860        2.443      167.867       86.471        0.265      337.673        9.803      865.435
01/03/2021  11:35:00     -355.565      118.444        7.879      151.474      100.244       69.735    22944.506    10048.774     4862.964        8.918        1.893      374.774       65.291        0.030      337.589        9.661      865.427
01/03/2021  11:36:00     -227.362       36.762       -1.884      113.140       83.100       43.734    12800.549     6905.536     1912.679        3.733        1.081      230.315       34.664        0.023      337.715        9.873      865.432
01/03/2021  11:37:00     -236.762       48.715       -3.323      147.206      105.241       62.010    21669.607    11075.671     3845.260        4.751        1.830      241.721       65.885        0.074      337.809       10.032      865.414
01/03/2021  11:38:00     -147.229        5.185        1.389      173.480      116.817       78.391    30095.334    13646.213     6145.209        3.579        2.494      147.321       86.652        0.346      337.808       10.029      865.407
01/03/2021  11:39:00     -386.760      113.670       14.168      153.017      135.189       82.632    23414.091    18275.963     6828.123       10.560        2.426      403.118       69.595        0.030      337.809       10.031      865.416
01/03/2021  11:40:00     -209.135        3.478       -4.114      227.111      142.087       86.540    51579.557    20188.581     7489.088        6.149        3.963      209.163       96.364        0.212      337.789        9.997      865.416
01/03/2021  11:41:00     -152.257       62.800        0.384      123.137      110.943       42.512    15162.667    12308.260     1807.262        2.820        1.464      164.700       35.817        0.047      338.088       10.501      865.415
01/03/2021  11:42:00     -222.374       51.768       12.234      185.332      108.675       89.284    34348.110    11810.194     7971.691        5.319        2.706      228.320       86.403        0.143      337.886       10.162      865.411
01/03/2021  11:43:00     -360.233      104.679       -6.433      208.776      136.949       76.843    43587.236    18755.149     5904.782       10.449        3.412      375.134       84.081        0.050      337.910       10.200      865.415
01/03/2021  11:44:00     -256.649       16.654        4.765      181.838      142.209       85.184    33064.925    20223.301     7256.373        6.334        3.027      257.189       67.968        0.070      337.940       10.250      865.399
01/03/2021  11:45:00     -293.537       63.221        7.865      188.615      115.031       79.966    35575.507    13232.223     6394.484        7.270        2.760      300.268       77.583        0.067      338.011       10.370      865.396
01/03/2021  11:46:00     -297.007      -11.641        6.616      214.478      165.643      104.773    46000.611    27437.667    10977.416        8.639        4.221      297.235      119.010        0.160      337.799       10.015      865.368
01/03/2021  11:47:00     -174.331       -6.561       -2.018      156.534      146.516       82.282    24502.849    21466.792     6770.332        4.158        2.637      174.454       67.298        0.149      337.891       10.167      865.347
01/03/2021  11:48:00     -206.395       -7.701       -8.829      180.582      128.766       74.726    32610.014    16580.754     5583.953        4.874        2.739      206.539       69.428        0.113      338.045       10.428      865.378
01/03/2021  11:49:00     -350.699      -45.468       -9.345      252.888      207.709      125.792    63952.456    43143.221    15823.637       12.401        6.146      353.634      112.157        0.101      337.685        9.823      865.347
01/03/2021  11:50:00     -256.410       89.314      -11.088      177.422      124.548       74.787    31478.549    15512.265     5593.149        6.320        2.629      271.520       27.729        0.010      337.854       10.108      865.399
01/03/2021  11:51:00     -432.960       61.829      -17.657      151.942      133.976       73.299    23086.481    17949.576     5372.700       11.899        2.320      437.352       76.355        0.030      337.626        9.724      865.386
01/03/2021  11:52:00     -150.241       52.492       14.973      126.370       69.208       55.131    15969.413     4789.791     3039.428        2.467        1.190      159.147       56.339        0.125      338.080       10.486      865.393
01/03/2021  11:53:00     -309.193      -95.070      -20.099      195.546      112.491       70.274    38238.297    12654.302     4938.476        8.042        2.792      323.479       74.444        0.053      337.790        9.999      865.405
01/03/2021  11:54:00     -308.228       25.867       -0.927      155.991      136.374       81.788    24333.219    18597.976     6689.356        7.264        2.481      309.311       74.529        0.058      337.868       10.129      865.437
01/03/2021  11:55:00     -249.219      -36.065       -8.623      159.505      107.055       75.432    25441.999    11460.718     5689.935        5.303        2.130      251.815       75.826        0.091      337.711        9.866      865.436
01/03/2021  11:56:00     -206.561       74.733       -9.157      155.173      134.505       63.712    24078.808    18091.711     4059.199        4.727        2.311      219.664       51.501        0.055      337.805       10.025      865.429
01/03/2021  11:57:00     -140.198        7.056        9.381      100.536       80.846       62.927    10107.512     6536.004     3959.750        2.019        1.030      140.375       50.367        0.129      337.832       10.072      865.444
01/03/2021  11:58:00     -273.735      -22.110      -17.037      214.357      177.359       88.603    45949.089    31456.172     7850.524        8.046        4.263      274.626      104.221        0.144      337.643        9.753      865.469
01/03/2021  11:59:00     -359.308       36.083        7.209      223.157      185.401       92.227    49799.132    34373.500     8505.843       11.155        4.634      361.116       99.327        0.076      337.622        9.719      865.462
01/03/2021  12:00:00     -397.769       28.951       -8.956      191.821      124.845       82.053    36795.373    15586.354     6732.645       10.911        2.956      398.821       77.023        0.037      337.563        9.618      865.497
01/03/2021  12:01:00     -312.554       57.065        3.290      163.871      116.187       66.424    26853.766    13499.388     4412.194        7.285        2.238      317.721       68.633        0.047      337.730        9.897      865.501
01/03/2021  12:02:00     -249.595       16.341       -5.028      133.473      108.367       73.830    17815.141    11743.463     5450.928        4.879        1.750      250.129       75.658        0.091      337.757        9.943      865.508
01/03/2021  12:03:00     -189.519       35.365      -18.194      147.605      115.091       61.347    21787.184    13245.950     3763.405        3.814        1.940      192.790       54.005        0.078      337.878       10.147      865.517
01/03/2021  12:04:00     -369.786       50.411        5.857      148.365      147.960       79.723    22012.093    21892.292     6355.766        9.478        2.513      373.206       73.403        0.039      337.800       10.015      865.516
01/03/2021  12:05:00     -249.599       65.951        5.532      198.677      123.308       69.838    39472.716    15204.985     4877.375        6.310        2.978      258.165       67.910        0.069      337.938       10.248      865.509
01/03/2021  12:06:00     -230.021       13.309        9.883      174.843      127.783       69.670    30570.073    16328.388     4853.969        5.246        2.588      230.406       81.606        0.125      337.973       10.307      865.514
01/03/2021  12:07:00     -394.436      -42.454      -26.451      238.603      144.887       91.822    56931.325    20992.269     8431.246       12.220        4.318      396.714       69.003        0.030      337.743        9.919      865.508
01/03/2021  12:08:00     -326.425       55.097      -10.745      160.227      138.556       86.562    25672.834    19197.687     7493.065        8.102        2.618      331.043       83.667        0.064      337.797       10.011      865.500
01/03/2021  12:09:00     -372.836       73.360       -7.312      211.760      164.790       83.585    44842.109    27155.635     6986.511       11.170        3.949      379.985       88.272        0.054      337.973       10.307      865.486
01/03/2021  12:10:00     -243.341       40.221       16.471      221.652      122.674       77.156    49129.439    15048.811     5953.069        6.560        3.507      246.642       85.674        0.121      337.881       10.151      865.522
01/03/2021  12:11:00     -421.878       25.025      -22.983      198.648      139.031       73.833    39461.051    19329.674     5451.248       12.167        3.212      422.619       86.679        0.042      337.723        9.886      865.533
01/03/2021  12:12:00     -310.045       18.924      -10.530      188.263      127.143       77.050    35442.916    16165.435     5936.745        7.706        2.877      310.622       83.625        0.072      337.704        9.854      865.505
01/03/2021  12:13:00     -272.903      -38.661      -36.217      204.791      127.487       76.309    41939.320    16252.943     5823.091        7.064        3.201      275.628       69.773        0.064      337.882       10.153      865.508
01/03/2021  12:14:00     -303.386      -98.742       -4.409      276.933      163.131      115.438    76692.027    26611.771    13325.901       10.920        5.831      319.050      120.379        0.142      337.834       10.072      865.490
01/03/2021  12:15:00     -367.913       -7.612      -16.391      256.266      144.119      100.573    65672.143    20770.247    10115.008       11.610        4.828      367.991      109.531        0.089      337.767        9.959      865.485
01/03/2021  12:16:00     -294.036      -43.674      -22.479      203.346      150.675      106.379    41349.789    22703.032    11316.549        8.210        3.768      297.262       94.657        0.101      337.739        9.913      865.477
01/03/2021  12:17:00     -329.068       24.316       -2.317      239.882      156.617      105.903    57543.293    24528.886    11215.397       10.106        4.664      329.966      127.474        0.149      337.787        9.994      865.453
01/03/2021  12:18:00     -294.394       -8.987       -2.061      205.906      129.046       66.179    42397.455    16652.967     4379.661        7.508        3.172      294.531       60.646        0.042      337.864       10.122      865.443
01/03/2021  12:19:00     -340.914       14.384      -10.326      202.376      136.417       94.659    40955.864    18609.604     8960.360        9.252        3.426      341.217       95.421        0.078      337.879       10.147      865.436
01/03/2021  12:20:00     -281.247       91.198        3.440      159.698      122.318       79.186    25503.477    14961.638     6270.424        6.707        2.337      295.664       76.198        0.066      338.079       10.483      865.422
01/03/2021  12:21:00     -225.217        7.971       -1.901      166.141      118.977       65.787    27602.957    14155.493     4327.965        4.843        2.304      225.358       80.230        0.127      338.081       10.489      865.420
01/03/2021  12:22:00     -207.427      -11.225       -9.825      214.205      122.627       78.689    45883.624    15037.468     6192.001        5.517        3.356      207.730       87.155        0.176      338.090       10.503      865.388
01/03/2021  12:23:00     -392.144      -72.121      -16.233      307.965      131.318      105.035    94842.486    17244.492    11032.286       14.115        6.156      398.721      124.875        0.098      337.746        9.925      865.343
01/03/2021  12:24:00     -262.332       33.131      -10.285      223.084      120.110       76.002    49766.300    14426.483     5776.327        6.998        3.498      264.416       61.972        0.055      337.967       10.295      865.342
01/03/2021  12:25:00     -284.595       57.710       12.265      168.693      132.252       68.973    28457.472    17490.500     4757.302        6.758        2.535      290.388       58.405        0.040      338.108       10.532      865.333
01/03/2021  12:26:00     -362.175      -16.131      -20.402      190.895      186.731      100.972    36440.981    34868.464    10195.348       10.666        4.075      362.534       94.257        0.068      337.949       10.265      865.322
01/03/2021  12:27:00     -397.651      -80.302      -12.756      263.790      172.662       96.226    69585.050    29812.089     9259.351       13.667        5.433      405.678      117.410        0.084      337.820       10.050      865.307
01/03/2021  12:28:00     -262.627       -9.827      -13.178      245.017      156.335       98.666    60033.521    24440.580     9734.954        8.171        4.710      262.810       99.206        0.142      337.908       10.197      865.292
01/03/2021  12:29:00     -250.598        8.229       -1.708      218.922      130.737       86.483    47926.724    17092.225     7479.390        6.767        3.625      250.733       92.794        0.137      337.984       10.326      865.273
01/03/2021  12:30:00     -659.852       65.594      -24.981      249.521      144.099       86.425    62260.660    20764.490     7469.357       26.539        4.525      663.104       95.560        0.021      337.795       10.006      865.277
01/03/2021  12:31:00     -394.463      -77.881       -8.814      265.759      163.082       98.120    70628.022    26595.595     9627.575       13.427        5.343      402.078       96.503        0.058      337.839       10.081      865.252
01/03/2021  12:32:00     -341.525       36.863      -18.718      272.228      178.299       92.118    74108.006    31790.545     8485.816       11.634        5.719      343.509      110.418        0.103      337.886       10.160      865.255
01/03/2021  12:33:00     -441.639      -21.569       -6.483      252.542      184.106      110.546    63777.256    33895.152    12220.438       15.270        5.495      442.166      116.231        0.069      337.809       10.032      865.211
01/03/2021  12:34:00     -210.317       18.426       11.070      202.343      139.076       87.597    40942.834    19342.271     7673.311        5.631        3.398      211.123       89.835        0.181      337.912       10.204      865.197
01/03/2021  12:35:00     -421.048      -82.290      -11.565      273.255      195.203      109.499    74668.535    38104.171    11990.098       15.445        6.238      429.014      113.336        0.070      337.715        9.873      865.177
01/03/2021  12:36:00     -285.108       30.712       -3.035      141.375      100.494       73.014    19986.988    10099.103     5330.992        5.882        1.771      286.757       77.962        0.074      337.870       10.133      865.200
01/03/2021  12:37:00     -201.667        8.692       -6.797      193.036      151.676       89.122    37262.748    23005.567     7942.715        5.449        3.411      201.854       77.660        0.148      337.875       10.144      865.193
01/03/2021  12:38:00     -438.664       40.027      -32.226      204.879      177.104       93.682    41975.360    31365.798     8776.251       13.857        4.106      440.487       70.085        0.025      337.777        9.977      865.194
01/03/2021  12:39:00     -183.126       92.597      -18.574      264.130      131.144       70.547    69764.764    17198.705     4976.811        6.718        4.597      205.206       67.111        0.107      337.910       10.201      865.175
01/03/2021  12:40:00     -290.810       81.877        4.923      220.267      136.546       78.079    48517.599    18644.916     6096.329        8.226        3.663      302.116       93.302        0.095      337.954       10.274      865.181
01/03/2021  12:41:00     -164.059       69.186      -15.937      114.400      111.117       56.869    13087.356    12347.051     3234.113        3.031        1.433      178.050       56.659        0.101      338.039       10.417      865.207
01/03/2021  12:42:00     -249.661       40.175        1.047      136.456      116.162       56.522    18620.313    13493.538     3194.769        4.962        1.765      252.872       57.083        0.051      338.124       10.559      865.209
01/03/2021  12:43:00     -371.890       72.815       -0.822      230.446       90.039       71.340    53105.130     8107.084     5089.446       10.494        3.315      378.952       86.017        0.052      337.783        9.988      865.191
01/03/2021  12:44:00     -188.476      -23.200      -18.622       91.392      126.940       59.948     8352.530    16113.884     3593.803        3.223        1.403      189.899       44.824        0.056      337.957       10.280      865.195
01/03/2021  12:45:00      -85.130       38.770       -6.612       79.669       70.031       37.261     6347.126     4904.363     1388.378        1.071        0.632       93.543       34.785        0.138      338.140       10.589      865.169
01/03/2021  12:46:00     -216.836       43.449       10.280      181.410      130.109       88.866    32909.604    16928.468     7897.120        5.336        2.887      221.147       76.402        0.119      338.071       10.471      865.158
01/03/2021  12:47:00     -253.836      -44.716      -11.888      211.145      141.323       83.481    44582.135    19972.303     6969.097        6.903        3.576      257.744       85.341        0.110      337.956       10.277      865.159
01/03/2021  12:48:00     -311.756      -63.757      -16.900      244.836      177.217      117.485    59944.591    31405.794    13802.658       10.332        5.258      318.208      111.359        0.122      337.906       10.193      865.125
01/03/2021  12:49:00     -167.159       67.191        4.869      130.420       96.617       54.785    17009.416     9334.774     3001.449        3.091        1.467      180.157       40.965        0.052      338.100       10.521      865.152
01/03/2021  12:50:00     -253.894       19.160      -34.225      148.436      103.583       61.984    22033.179    10729.458     3842.059        5.129        1.830      254.616       76.325        0.090      338.026       10.394      865.144
01/03/2021  12:51:00     -296.721      113.843       -2.890      143.389      108.163       70.347    20560.285    11699.200     4948.718        6.910        1.860      317.810       65.502        0.042      338.165       10.627      865.154
01/03/2021  12:52:00     -340.129       33.054       -3.352      170.432      112.567       75.955    29046.957    12671.260     5769.158        8.213        2.374      341.731       76.036        0.050      338.055       10.444      865.145
01/03/2021  12:53:00     -198.454       15.468       -9.722      167.363      120.645       69.650    28010.320    14555.223     4851.127        4.356        2.371      199.056       61.705        0.096      338.044       10.425      865.148
01/03/2021  12:54:00     -150.173       26.126        1.730      139.757      102.766       55.289    19531.966    10560.891     3056.907        2.819        1.657      152.428       69.327        0.207      338.155       10.611      865.150
01/03/2021  12:55:00     -320.322      -36.120       -7.448      154.614      105.770       74.335    23905.457    11187.315     5525.645        7.228        2.031      322.352       67.712        0.044      337.994       10.339      865.145
01/03/2021  12:56:00     -187.311       20.612       -7.328       81.918       73.813       49.265     6710.510     5448.335     2427.002        2.507        0.729      188.442       25.926        0.019      338.196       10.681      865.136
01/03/2021  12:57:00     -195.038      -16.810       -5.061      122.996      126.019       65.546    15128.006    15880.903     4296.216        3.682        1.765      195.762       59.312        0.092      338.088       10.498      865.111
01/03/2021  12:58:00     -141.778        7.025      -21.275       82.527      128.513       50.561     6810.698    16515.565     2556.421        2.324        1.294      141.952       43.442        0.094      338.221       10.723      865.068
01/03/2021  12:59:00     -349.621      -98.864      -16.495      211.081      169.221       88.424    44555.016    28635.786     7818.798       10.663        4.050      363.330       89.884        0.061      338.024       10.391      865.048
01/03/2021  13:00:00     -326.159        0.230       -0.616      233.532      133.022      100.844    54537.213    17694.857    10169.542        9.437        4.120      326.159      101.581        0.097      337.956       10.277      865.000
01/03/2021  13:01:00     -176.352       58.774        0.320      174.306       98.177       61.994    30382.595     9638.647     3843.290        3.920        2.193      185.888       65.175        0.123      338.249       10.770      865.035
01/03/2021  13:02:00     -227.538       -8.732      -23.634      132.955      144.424       69.082    17677.052    20858.329     4772.368        4.785        2.165      227.705       63.620        0.078      338.118       10.549      865.036
01/03/2021  13:03:00     -394.756       84.775       -6.488      150.176      130.295       68.559    22552.881    16976.880     4700.291       10.364        2.212      403.756       63.045        0.024      338.005       10.358      865.031
01/03/2021  13:04:00     -376.164       84.207       26.750      218.846      141.875       93.151    47893.695    20128.401     8677.199       11.299        3.835      385.474      108.174        0.079      338.001       10.353      864.998
01/03/2021  13:05:00     -252.450       76.096       -0.187      111.437      120.874       60.041    12418.107    14610.591     3604.927        5.007        1.532      263.669       47.734        0.033      338.188       10.668      865.000
01/03/2021  13:06:00     -187.623      -77.743       14.890      202.309      132.659       89.427    40928.825    17598.347     7997.235        5.398        3.326      203.092       94.030        0.214      338.092       10.506      865.008
01/03/2021  13:07:00     -326.979      -64.829        2.033      220.170      124.904      105.741    48474.741    15600.993    11181.161        9.317        3.763      333.344      106.413        0.102      337.992       10.337      864.971
01/03/2021  13:08:00     -145.435      -18.057       -1.979      185.937      116.942       80.695    34572.403    13675.533     6511.701        3.811        2.738      146.551       88.110        0.361      338.045       10.429      864.983
01/03/2021  13:09:00     -220.592      -37.038      -16.261      178.021       99.950       69.712    31691.559     9990.087     4859.753        4.841        2.327      223.679       75.877        0.115      337.995       10.343      864.991
01/03/2021  13:10:00     -287.714      143.985       -3.262      179.919      144.530       78.959    32370.870    20888.852     6234.464        8.149        2.975      321.731       91.016        0.080      338.082       10.489      865.013
01/03/2021  13:11:00     -401.570       93.152      -14.104      226.981      113.656       74.179    51520.187    12917.727     5502.576       12.002        3.497      412.232       82.389        0.040      338.026       10.395      865.003
01/03/2021  13:12:00     -259.346      100.377        2.127      161.742      132.521       65.967    26160.633    17561.801     4351.658        6.270        2.404      278.094       55.056        0.039      338.083       10.491      864.970
01/03/2021  13:13:00     -388.374      107.267      -10.975      241.515      132.014       78.923    58329.398    17427.688     6228.765       12.221        4.099      402.915       92.537        0.053      338.018       10.382      864.950
01/03/2021  13:14:00     -314.854       77.694      -19.581      189.592      149.006       83.727    35945.302    22202.706     7010.281        8.534        3.258      324.299       61.527        0.036      338.100       10.519      864.923
01/03/2021  13:15:00     -372.762       52.636      -19.951      162.242      134.872       78.273    26322.579    18190.348     6126.652        9.637        2.532      376.460       78.365        0.043      338.055       10.443      864.910
01/03/2021  13:16:00     -382.617       64.310       -6.801      167.624      125.019       79.350    28097.904    15629.705     6296.364       10.029        2.501      387.984       83.993        0.047      338.135       10.576      864.907
01/03/2021  13:17:00     -182.622       48.270        8.995      174.128       88.142       56.521    30320.731     7768.969     3194.619        3.851        2.064      188.894       73.996        0.153      338.162       10.623      864.922
01/03/2021  13:18:00     -231.802       66.220      -12.016      114.835       88.976       58.702    13187.091     7916.714     3445.928        4.140        1.227      241.075       58.530        0.059      338.175       10.647      864.932
01/03/2021  13:19:00     -229.915       17.387       -9.314      181.355       85.849       59.484    32889.601     7370.109     3538.344        4.851        2.190      230.572       76.772        0.111      338.032       10.406      864.929
01/03/2021  13:20:00     -163.619      -15.913       -3.491      131.343       78.488       56.503    17250.961     6160.441     3192.645        2.681        1.330      164.391       66.781        0.165      338.223       10.726      864.932
01/03/2021  13:21:00     -287.912       52.680       -8.721      195.403      134.846      101.559    38182.237    18183.359    10314.227        7.620        3.334      292.692       88.976        0.092      338.088       10.498      864.905
01/03/2021  13:22:00     -396.742       44.971       -7.286      302.181      126.393       75.149    91313.090    15975.246     5647.330       13.618        5.647      399.282       64.697        0.026      337.952       10.271      864.903
01/03/2021  13:23:00     -384.414       93.749        1.595      201.478      113.245       80.812    40593.476    12824.519     6530.521       10.824        2.997      395.681       68.371        0.030      337.938       10.246      864.891
01/03/2021  13:24:00     -353.984       51.441        3.295      230.978      115.856       71.518    53350.690    13422.530     5114.866        9.991        3.594      357.702       94.892        0.070      337.984       10.325      864.861
01/03/2021  13:25:00     -138.239       56.068       18.182      127.709       90.580       63.138    16309.571     8204.784     3986.363        2.554        1.425      149.176       63.982        0.184      338.285       10.831      864.866
01/03/2021  13:26:00      -70.908       14.125       -3.325      132.568      108.988       67.991    17574.310    11878.426     4622.711        1.965        1.704       72.301       73.001        1.019      338.211       10.706      864.846
01/03/2021  13:27:00     -173.818       87.225       -4.539      120.665      106.429       60.498    14560.159    11327.122     3660.002        3.369        1.477      194.476       35.721        0.034      338.214       10.710      864.837
01/03/2021  13:28:00     -278.851       73.722       -0.906      196.356       97.305       67.427    38555.724     9468.206     4546.410        6.787        2.629      288.431       68.977        0.057      338.129       10.568      864.825
01/03/2021  13:29:00     -224.686      115.899      -11.300      183.392      140.955       63.266    33632.804    19868.350     4002.550        6.076        2.875      252.817       59.130        0.055      338.173       10.641      864.785
01/03/2021  13:30:00      -97.877      -15.587      -18.029      152.358       82.652       64.695    23212.905     6831.271     4185.498        2.218        1.711       99.110       67.471        0.463      338.155       10.613      864.765
01/03/2021  13:31:00     -146.686       10.300       -0.758      147.495      106.684       57.766    21754.875    11381.543     3336.883        2.904        1.824      147.047       55.422        0.142      338.175       10.646      864.759
01/03/2021  13:32:00     -162.105       72.253       -2.143       90.112       72.368       46.259     8120.257     5237.144     2139.877        2.350        0.775      177.478       35.048        0.039      338.381       10.992      864.767
01/03/2021  13:33:00     -113.370       32.360       -0.298      143.147       95.129       62.929    20491.009     9049.480     3959.999        2.369        1.675      117.898       34.865        0.087      338.249       10.772      864.786
01/03/2021  13:34:00     -312.953      109.235       11.565      185.511      147.089       83.470    34414.243    21635.084     6967.298        8.650        3.151      331.469       81.191        0.060      338.175       10.646      864.820
01/03/2021  13:35:00     -157.866        7.803      -13.433      165.275      119.129       67.624    27315.888    14191.667     4572.983        3.561        2.304      158.059       63.231        0.160      338.184       10.661      864.842
01/03/2021  13:36:00     -226.756       28.629        3.544      190.661      108.742       69.525    36351.567    11824.790     4833.703        5.262        2.651      228.556       76.182        0.111      338.263       10.794      864.881
01/03/2021  13:37:00     -228.129       -5.454       -9.020      205.235      122.850       85.490    42121.395    15092.021     7308.484        5.832        3.226      228.194       94.382        0.171      338.157       10.615      864.889
01/03/2021  13:38:00     -244.650      -17.368      -16.754      204.667      108.117       71.413    41888.550    11689.255     5099.797        5.954        2.934      245.266       82.946        0.114      338.136       10.579      864.900
01/03/2021  13:39:00     -311.770        4.992      -33.653      210.876      127.934       70.357    44468.563    16367.195     4950.164        8.206        3.289      311.810       71.369        0.052      338.089       10.501      864.915
01/03/2021  13:40:00     -362.872      142.149       -7.874      170.389      131.276       83.212    29032.459    17233.374     6924.164       10.256        2.659      389.721       72.040        0.034      338.210       10.702      864.939
01/03/2021  13:41:00     -337.576       28.159       -2.547      251.684      139.658       96.347    63344.741    19504.240     9282.824       10.342        4.607      338.749      104.953        0.096      338.088       10.498      864.936
01/03/2021  13:42:00     -332.951      140.172      -37.286      154.253      138.975       75.470    23794.015    19313.923     5695.737        9.034        2.440      361.254       71.516        0.039      338.095       10.510      864.940
01/03/2021  13:43:00     -260.400       21.133      -25.074      178.157      113.749       71.220    31739.770    12938.844     5072.233        5.931        2.488      261.256       63.418        0.059      338.187       10.665      864.942
01/03/2021  13:44:00     -200.491       34.855       12.381      266.467      126.428       88.415    71004.743    15983.984     7817.298        6.816        4.740      203.498       91.217        0.201      338.050       10.435      864.926
01/03/2021  13:45:00     -127.997       22.164        9.221      171.510      107.635       83.363    29415.679    11585.233     6949.322        3.244        2.398      129.902       77.683        0.358      338.127       10.565      864.943
01/03/2021  13:46:00     -220.581       28.609       -6.145      140.653      100.830       61.039    19783.151    10166.769     3725.699        4.159        1.684      222.429       65.572        0.087      338.084       10.492      864.940
01/03/2021  13:47:00     -191.915       27.750       -4.518      189.877      111.781       75.763    36053.446    12495.077     5740.006        4.594        2.714      193.911       65.715        0.115      338.116       10.548      864.903
01/03/2021  13:48:00     -271.102      110.258      -18.146      179.758      108.112       97.386    32313.114    11688.241     9484.127        6.972        2.674      292.666       87.109        0.089      338.128       10.567      864.840
01/03/2021  13:49:00     -244.972       49.927        3.949      207.204       75.619       57.161    42933.389     5718.235     3267.392        5.721        2.596      250.008       60.971        0.059      338.052       10.440      864.789
01/03/2021  13:50:00     -141.328       -1.658        1.274      106.410       66.573       54.235    11323.001     4431.906     2941.427        1.933        0.935      141.338       43.244        0.094      338.091       10.506      864.744
01/03/2021  13:51:00      -18.854       -0.414        2.834       82.613       65.832       39.585     6824.834     4333.804     1566.982        0.654        0.636       18.859       38.875        4.249      338.114       10.546      864.688
01/03/2021  13:52:00      -78.897       43.078      -12.308       80.995       52.141       32.672     6560.181     2718.717     1067.437        0.929        0.517       89.891       33.233        0.137      338.164       10.629      864.645
01/03/2021  13:53:00      -92.047       52.404        0.232       86.696       46.084       42.383     7516.129     2123.713     1796.323        1.132        0.572      105.919       44.816        0.179      338.202       10.693      864.618
01/03/2021  13:54:00     -130.014       22.261        1.459      110.480       71.609       35.686    12205.861     5127.919     1273.493        1.800        0.930      131.906       27.327        0.043      338.197       10.683      864.611
01/03/2021  13:55:00     -323.649       45.305      -14.218      124.342       87.207       67.448    15460.853     7605.105     4549.230        6.730        1.381      326.804       66.387        0.041      338.067       10.464      864.608
01/03/2021  13:56:00     -175.609       64.484        7.382      186.949       92.668       77.359    34949.820     8587.320     5984.352        4.228        2.476      187.074       75.327        0.162      338.123       10.559      864.597
01/03/2021  13:57:00     -117.690       31.552       -1.635      142.277       68.878       53.335    20242.680     4744.184     2844.612        2.133        1.392      121.846       64.470        0.280      338.116       10.546      864.639
01/03/2021  13:58:00     -184.048       60.647       -6.302      154.283       79.578       56.892    23803.131     6332.580     3236.718        3.547        1.669      193.783       42.278        0.048      338.137       10.581      864.685
01/03/2021  13:59:00     -303.350      140.990        4.219      128.923       90.889       67.996    16621.037     8260.780     4623.520        7.070        1.475      334.514       65.106        0.038      338.172       10.641      864.701
01/03/2021  14:00:00     -222.184       68.931       -4.017       98.280       72.766       51.971     9659.054     5294.922     2701.028        3.589        0.883      232.631       48.942        0.044      338.136       10.581      864.694
01/03/2021  14:01:00     -281.596      120.736      -49.789       92.204       67.318       46.073     8501.639     4531.673     2122.695        5.575        0.758      306.388       33.346        0.012      338.060       10.452      864.661
01/03/2021  14:02:00     -160.079        0.270       -7.159      132.259       71.541       49.514    17492.458     5118.155     2451.590        2.536        1.253      160.079       65.584        0.168      338.101       10.522      864.641
01/03/2021  14:03:00     -106.496       34.078       -0.683       93.771       57.661       42.766     8793.076     3324.782     1828.898        1.322        0.697      111.816       40.908        0.134      338.201       10.690      864.654
01/03/2021  14:04:00     -161.016       72.024       -0.696       91.014       65.350       46.397     8283.627     4270.677     2152.674        2.291        0.735      176.390       40.312        0.052      338.285       10.830      864.644
01/03/2021  14:05:00     -212.258       35.373      -14.363      134.352       86.015       57.322    18050.349     7398.514     3285.869        3.762        1.437      215.185       58.026        0.073      338.184       10.660      864.645
01/03/2021  14:06:00       10.644      -11.781      -15.681       67.697       68.869       41.829     4582.871     4742.935     1749.659        0.578        0.554       15.877       28.059        3.123      338.215       10.715      864.634
01/03/2021  14:07:00     -102.927       28.764      -16.236       75.397       56.216       39.718     5684.702     3160.184     1577.521        1.105        0.521      106.870       30.472        0.081      338.262       10.793      864.637
01/03/2021  14:08:00       -9.793        2.519        3.455       58.244       46.162       33.193     3392.336     2130.885     1101.757        0.337        0.331       10.112       17.357        2.946      338.306       10.868      864.632
01/03/2021  14:09:00     -160.686       62.458       -7.762      118.791       89.578       55.735    14111.375     8024.281     3106.355        2.751        1.262      172.397       46.201        0.072      338.306       10.866      864.635
01/03/2021  14:10:00     -198.611       48.943       -7.144      143.677      117.552       65.938    20642.988    13818.431     4347.862        4.034        1.940      204.553       73.360        0.129      338.211       10.706      864.624
01/03/2021  14:11:00      -96.189        8.335       -5.613       87.808       93.680       44.266     7710.197     8775.908     1959.455        1.390        0.922       96.550       37.365        0.150      338.310       10.873      864.628
01/03/2021  14:12:00     -220.193      -16.043      -16.632      111.094       87.174       50.382    12341.919     7599.227     2538.330        3.574        1.124      220.776       47.035        0.045      338.205       10.694      864.627
01/03/2021  14:13:00     -318.106      -58.548      -17.909      148.867      109.553       70.340    22161.267    12001.905     4947.693        7.202        1.956      323.449       68.142        0.044      338.012       10.372      864.626
01/03/2021  14:14:00     -126.857       -5.417        6.789      115.259       86.940       45.171    13284.730     7558.527     2040.394        1.952        1.144      126.973       46.550        0.134      338.084       10.494      864.658
01/03/2021  14:15:00     -412.980       96.352      -20.637      146.870      105.471       55.752    21570.722    11124.096     3108.240       10.802        1.790      424.071       47.670        0.013      338.026       10.395      864.680
01/03/2021  14:16:00     -204.983       92.669       -9.498      138.564       82.741       67.655    19200.095     6846.073     4577.226        4.065        1.531      224.957       59.082        0.069      338.160       10.620      864.700
01/03/2021  14:17:00      -54.488       77.117      -17.625       75.029       67.061       39.004     5629.364     4497.219     1521.319        1.043        0.582       94.425       32.414        0.118      338.124       10.561      864.690
01/03/2021  14:18:00     -164.524       58.779      -11.334       81.359       64.271       44.283     6619.364     4130.755     1960.965        2.168        0.636      174.709       40.123        0.053      338.129       10.570      864.673
01/03/2021  14:19:00     -105.573       19.412      -10.290       95.456       76.993       35.890     9111.879     5927.879     1288.120        1.397        0.816      107.343       33.844        0.099      338.197       10.685      864.666
01/03/2021  14:20:00     -302.305       67.531       -3.185      108.542       68.610       61.199    11781.465     4707.266     3745.296        5.809        1.012      309.756       53.966        0.030      338.150       10.602      864.670
01/03/2021  14:21:00     -198.928      -16.659      -20.485      174.521       92.477       59.198    30457.719     8551.921     3504.382        4.138        2.126      199.624       46.365        0.054      338.075       10.480      864.671
01/03/2021  14:22:00     -134.433       23.984        1.970      137.036       80.598       57.431    18778.745     6496.024     3298.350        2.361        1.429      136.556       41.579        0.093      338.161       10.623      864.682
01/03/2021  14:23:00       -8.914       24.554       10.649       98.915       61.807       39.033     9784.199     3820.128     1523.550        0.796        0.756       26.122       30.105        1.328      338.169       10.636      864.681
01/03/2021  14:24:00      -89.742        7.237       -1.153       87.163       56.310       36.615     7597.331     3170.809     1340.688        1.011        0.605       90.033       20.065        0.050      338.123       10.560      864.687
01/03/2021  14:25:00     -157.698       70.531      -12.490      128.230       93.346       53.548    16443.032     8713.548     2867.418        2.901        1.401      172.752       59.332        0.118      338.135       10.578      864.681
01/03/2021  14:26:00     -248.571       25.279      -17.764      147.647       79.136       47.007    21799.604     6262.518     2209.638        4.650        1.514      249.853       60.194        0.058      338.070       10.467      864.652
01/03/2021  14:27:00     -164.608       37.519      -17.560       99.593       63.190       41.972     9918.852     3993.002     1761.660        2.224        0.784      168.830       38.168        0.051      338.113       10.541      864.652
01/03/2021  14:28:00     -183.074       37.910       -2.617      171.627       62.859       53.518    29455.826     3951.199     2864.200        3.561        1.814      186.958       71.037        0.144      338.154       10.609      864.679
01/03/2021  14:29:00     -311.044      112.796      -32.114      122.071      100.211       49.690    14901.325    10042.188     2469.116        6.895        1.371      330.865       35.135        0.011      338.118       10.550      864.724
01/03/2021  14:30:00     -179.946       93.097       -5.687       79.878       80.731       46.120     6380.471     6517.442     2127.043        2.805        0.751      202.602       39.514        0.038      338.258       10.784      864.788
01/03/2021  14:31:00     -246.773       64.578      -14.378      131.909       74.856       48.978    17399.878     5603.452     2398.878        4.533        1.270      255.083       54.029        0.045      338.164       10.627      864.846
01/03/2021  14:32:00     -204.897       39.245       -7.489      154.372       84.350       58.421    23830.641     7114.960     3412.977        3.896        1.718      208.622       57.420        0.076      338.162       10.623      864.872
01/03/2021  14:33:00     -315.263       95.849       -3.504      126.026      107.014       60.549    15882.603    11451.902     3666.187        6.979        1.550      329.511       63.726        0.037      338.140       10.586      864.898
01/03/2021  14:34:00     -292.822       71.297        7.587      151.458       92.915       62.157    22939.375     8633.150     3863.537        6.315        1.772      301.376       67.110        0.050      338.096       10.512      864.901
01/03/2021  14:35:00     -137.327       16.110       -9.853       96.493       69.156       46.290     9310.898     4782.607     2142.742        1.772        0.812      138.268       55.482        0.161      338.109       10.537      864.900
01/03/2021  14:36:00      -54.825       29.240        1.550      104.056      101.166       60.416    10827.728    10234.650     3650.081        1.428        1.236       62.135       41.717        0.451      338.267       10.801      864.903
01/03/2021  14:37:00     -132.136       44.158       -4.124      138.709      112.569       72.999    19240.174    12671.818     5328.870        2.833        1.862      139.319       70.027        0.253      338.133       10.575      864.931
01/03/2021  14:38:00     -235.957       48.927      -11.631       95.034       94.455       54.086     9031.378     8921.785     2925.303        3.954        1.044      240.976       42.519        0.031      338.121       10.555      864.972
01/03/2021  14:39:00     -119.327       64.219      -13.425       53.734       63.193       35.521     2887.370     3993.357     1261.758        1.334        0.407      135.510       22.156        0.027      338.241       10.757      865.029
01/03/2021  14:40:00     -107.903       61.516      -16.580       74.367       69.703       27.737     5530.419     4858.536      769.345        1.343        0.558      124.207       16.166        0.017      338.214       10.713      865.062
01/03/2021  14:41:00     -173.172       43.332      -28.130       79.188       69.558       41.072     6270.773     4838.332     1686.901        2.272        0.640      178.511       44.077        0.061      338.118       10.549      865.056
01/03/2021  14:42:00      -82.348       34.253      -17.673       86.292       83.971       41.472     7446.385     7051.148     1719.893        1.224        0.811       89.188       30.982        0.121      338.262       10.792      865.038
01/03/2021  14:43:00     -101.189      -11.004       -5.138      145.793      101.500       71.951    21255.704    10302.252     5176.915        2.355        1.837      101.786       64.242        0.398      338.121       10.555      865.022
01/03/2021  14:44:00     -285.622       48.308       -3.471      160.372      115.725       66.209    25719.232    13392.221     4383.632        6.370        2.175      289.679       54.838        0.036      338.093       10.508      865.017
01/03/2021  14:45:00      -61.121      -11.235       17.457      163.568      112.548       73.758    26754.488    12667.088     5440.276        2.450        2.243       62.145       69.143        1.238      338.063       10.459      865.016
01/03/2021  14:46:00     -111.779       34.135       10.914      165.862       71.288       55.581    27510.337     5081.918     3089.280        2.472        1.784      116.875       64.085        0.301      338.078       10.484      865.006
01/03/2021  14:47:00     -200.140       95.859       -8.618       95.882       90.717       57.719     9193.421     8229.592     3331.491        3.503        1.038      221.912       39.596        0.032      338.125       10.561      864.999
01/03/2021  14:48:00     -179.218      -15.312      -12.232       82.670       61.079       45.766     6834.382     3730.630     2094.539        2.258        0.633      179.871       36.326        0.041      338.093       10.507      865.002
01/03/2021  14:49:00     -115.939        8.055       -4.713      111.261      103.514       48.026    12378.983    10715.244     2306.494        1.946        1.270      116.218       34.201        0.087      338.106       10.529      865.027
01/03/2021  14:50:00     -205.322       57.104      -19.253      230.767       90.104       52.553    53253.467     8118.795     2761.850        5.495        3.207      213.115       39.379        0.034      338.123       10.560      865.059
01/03/2021  14:51:00     -369.281      114.946       -9.874       93.589       82.359       57.334     8758.909     6783.067     3287.157        8.425        0.941      386.757       40.218        0.011      338.012       10.371      865.067
01/03/2021  14:52:00     -250.683       56.741      -18.549      100.753       70.550       52.715    10151.136     4977.254     2778.861        4.215        0.895      257.025       35.528        0.019      338.041       10.421      865.056
01/03/2021  14:53:00     -264.701       41.160       -9.785      148.529       98.673       56.329    22060.822     9736.390     3172.950        5.341        1.749      267.882       65.904        0.061      338.139       10.585      865.034
01/03/2021  14:54:00     -285.615      -10.194       -0.797      169.048       95.735       64.174    28577.207     9165.134     4118.290        6.176        2.093      285.797       52.722        0.034      338.051       10.436      865.009
01/03/2021  14:55:00     -303.301       72.301       -2.535      209.924      102.168       73.254    44068.170    10438.316     5366.106        7.854        2.994      311.799       96.117        0.095      338.068       10.465      865.028
01/03/2021  14:56:00     -401.429       85.269      -24.756      164.433      125.475       69.951    27038.068    15744.077     4893.116       10.834        2.384      410.385       75.128        0.034      338.083       10.490      865.008
01/03/2021  14:57:00     -197.377       56.096       -7.176      137.696       92.238       52.790    18960.076     8507.786     2786.767        3.620        1.513      205.194       56.053        0.075      338.088       10.499      865.006
01/03/2021  14:58:00       40.996        3.551        5.492       64.154       72.716       43.923     4115.745     5287.581     1929.220        0.653        0.567       41.150       21.315        0.268      338.163       10.628      864.988
01/03/2021  14:59:00      -13.921       -6.667       -6.485      118.965       81.677       57.120    14152.607     6671.070     3262.644        1.218        1.204       15.435       49.702       10.369      338.194       10.679      864.978
01/03/2021  15:00:00     -133.776       43.544      -12.783      228.123       85.100       63.035    52040.113     7241.946     3973.384        4.159        3.163      140.684       57.102        0.165      338.077       10.482      864.979
01/03/2021  15:01:00     -120.128       -0.495       10.586      116.816       87.903       59.987    13646.063     7726.957     3598.417        1.975        1.249      120.129       51.723        0.185      338.056       10.447      864.984
01/03/2021  15:02:00     -372.516      101.626      -18.055      219.547       93.600       81.077    48200.982     8760.896     6573.488       10.646        3.177      386.130      100.136        0.067      338.041       10.420      864.981
01/03/2021  15:03:00     -337.599       47.446       -1.703      208.276      111.342       72.124    43378.847    12397.115     5201.852        8.859        3.049      340.917       81.275        0.057      337.949       10.266      864.979
01/03/2021  15:04:00     -110.254       21.910        2.810      161.992      102.907       55.299    26241.556    10589.921     3058.005        2.626        1.994      112.410       61.085        0.295      337.964       10.293      865.000
01/03/2021  15:05:00     -213.344       78.158       -2.516      147.908       95.842       66.699    21876.715     9185.743     4448.811        4.356        1.776      227.209       68.908        0.092      338.150       10.604      865.014
01/03/2021  15:06:00     -196.297       88.328      -14.874      105.918       76.399       62.489    11218.715     5836.809     3904.873        3.375        1.048      215.254       42.876        0.040      337.983       10.322      865.044
01/03/2021  15:07:00     -231.100       97.463       -6.752      140.666      100.378       74.023    19786.795    10075.839     5479.349        4.914        1.767      250.811       42.043        0.028      338.055       10.445      865.035
01/03/2021  15:08:00     -229.903       59.635      -11.037       88.418       69.965       48.710     7817.793     4895.106     2372.692        3.581        0.754      237.511       40.248        0.029      338.088       10.499      865.031
01/03/2021  15:09:00     -250.564       19.190       -4.858      160.089       86.183       53.696    25628.635     7427.500     2883.298        4.955        1.797      251.298       60.805        0.059      337.963       10.291      865.024
01/03/2021  15:10:00     -181.938       50.610       -2.051      148.933       90.322       49.406    22181.114     8158.084     2441.001        3.422        1.639      188.846       50.687        0.072      337.974       10.309      865.034
01/03/2021  15:11:00     -210.887       92.031      -13.707       90.714      100.219       50.838     8228.997    10043.847     2584.542        3.699        1.043      230.094       36.734        0.025      338.106       10.529      865.040
01/03/2021  15:12:00     -255.308       48.082       -6.926      108.980      107.171       55.544    11876.728    11485.554     3085.161        4.699        1.322      259.796       47.114        0.033      338.052       10.439      865.041
01/03/2021  15:13:00     -303.932       74.008      -10.746       91.228      106.074       49.448     8322.585    11251.651     2445.149        5.999        1.101      312.813       49.023        0.025      337.917       10.211      865.052
01/03/2021  15:14:00     -177.950       24.381      -27.158      135.849      154.000       63.268    18454.835    23715.890     4002.805        3.958        2.309      179.612       47.286        0.069      337.947       10.262      865.061
01/03/2021  15:15:00     -230.513      -26.011       -9.189      245.015      122.708       73.805    60032.325    15057.220     5447.171        6.720        4.027      231.976       58.321        0.063      337.952       10.272      865.100
01/03/2021  15:16:00     -355.057       49.162       -4.432      169.490      128.406       89.827    28726.798    16487.995     8068.866        9.088        2.664      358.444       89.247        0.062      337.920       10.217      865.128
01/03/2021  15:17:00     -186.978       12.105      -13.237      211.611      106.492       75.076    44779.174    11340.649     5636.363        4.851        3.088      187.370       56.177        0.090      337.907       10.196      865.150
01/03/2021  15:18:00     -198.708       77.505        1.786      125.184       94.210       69.888    15671.127     8875.484     4884.378        3.746        1.472      213.289       65.635        0.095      338.047       10.432      865.139
01/03/2021  15:19:00     -267.988       49.034       -3.352      141.299       94.770       66.878    19965.379     8981.440     4472.700        5.382        1.671      272.437       58.318        0.046      337.915       10.209      865.155
01/03/2021  15:20:00     -215.124       61.247        4.171      147.354       89.544       63.137    21713.274     8018.170     3986.330        4.187        1.686      223.673       63.592        0.081      337.905       10.192      865.153
01/03/2021  15:21:00     -305.941      -29.026       -5.853      230.856      118.584       76.212    53294.637    14062.119     5808.264        8.381        3.658      307.315       94.265        0.094      337.882       10.153      865.136
01/03/2021  15:22:00     -242.647       91.036       11.240      201.744      128.593       77.838    40700.506    16536.115     6058.714        6.528        3.165      259.162       87.319        0.114      337.922       10.221      865.131
01/03/2021  15:23:00     -479.733       85.838      -35.840      150.281      113.083       73.815    22584.306    12787.705     5448.657       13.980        2.041      487.352       70.684        0.021      337.843       10.088      865.113
01/03/2021  15:24:00     -284.471       82.327        2.503      160.078       94.740       73.052    25624.883     8975.698     5336.649        6.381        1.997      296.145       75.057        0.064      337.968       10.298      865.108
01/03/2021  15:25:00     -346.306       48.027      -13.736      142.496      100.915       66.722    20305.174    10183.865     4451.791        7.867        1.747      349.621       72.167        0.043      337.853       10.105      865.075
01/03/2021  15:26:00     -208.366        8.085      -11.130      162.408       90.952       62.739    26376.506     8272.328     3936.217        4.109        1.929      208.523       68.766        0.109      337.937       10.246      865.056
01/03/2021  15:27:00     -327.669       92.626       -1.045      130.995      108.057       69.979    17159.783    11676.237     4897.015        7.483        1.687      340.509       68.925        0.041      337.935       10.241      865.080
01/03/2021  15:28:00     -293.921      104.588       -6.303      141.858       96.792       70.311    20123.834     9368.670     4943.612        6.589        1.722      311.975       72.689        0.054      337.958       10.278      865.090
01/03/2021  15:29:00     -339.123       75.134        2.843      196.978      139.606       73.029    38800.149    19489.921     5333.233        9.213        3.181      347.346       77.491        0.050      337.863       10.121      865.126
01/03/2021  15:30:00     -309.282       54.145        7.549      177.847      129.950       81.284    31629.711    16887.063     6607.084        7.687        2.756      313.986       89.633        0.081      337.845       10.092      865.133
01/03/2021  15:31:00     -229.558       35.574        4.663      147.577      106.763       70.777    21778.960    11398.270     5009.403        4.608        1.909      232.298       61.036        0.069      337.815       10.041      865.153
01/03/2021  15:32:00     -157.102       57.994       -5.510      173.662       95.453       65.172    30158.450     9111.205     4247.415        3.579        2.176      167.465       68.807        0.169      337.913       10.205      865.167
01/03/2021  15:33:00     -265.316       20.799        2.586      190.099      121.034       78.948    36137.616    14649.321     6232.793        6.391        2.851      266.130       68.646        0.067      337.818       10.046      865.151
01/03/2021  15:34:00     -191.792        3.497      -14.053      187.583       90.759       67.393    35187.515     8237.188     4541.830        4.247        2.398      191.824       63.741        0.110      337.830       10.065      865.149
01/03/2021  15:35:00     -255.038       27.706      -23.445      156.701       97.594       69.245    24555.290     9524.522     4794.828        5.261        1.944      256.539       61.596        0.058      337.849       10.098      865.161
01/03/2021  15:36:00     -182.146       19.055      -10.791      124.100       98.030       59.433    15400.735     9609.934     3532.229        3.109        1.427      183.140       55.342        0.091      337.845       10.092      865.177
01/03/2021  15:37:00     -122.111        9.613      -19.271      171.133       82.803       62.744    29286.337     6856.369     3936.782        2.772        2.004      122.489       54.486        0.198      337.850       10.100      865.180
01/03/2021  15:38:00     -103.961      -21.484        0.165      167.204       90.069       60.343    27957.028     8112.404     3641.336        2.548        1.986      106.157       51.247        0.233      337.843       10.089      865.189
01/03/2021  15:39:00     -225.924       63.146       -2.657      122.889       86.593       48.932    15101.751     7498.404     2394.304        4.001        1.250      234.582       45.953        0.038      337.848       10.096      865.175
01/03/2021  15:40:00     -304.450      110.364      -16.214      193.301      130.400       80.206    37365.314    17004.092     6433.014        8.295        3.040      323.836       90.988        0.079      337.834       10.073      865.164
01/03/2021  15:41:00     -360.489       89.746      -32.444      192.204      184.989       93.177    36942.556    34220.952     8681.992       10.944        3.992      371.492       93.251        0.063      337.796       10.008      865.129
01/03/2021  15:42:00     -304.148       69.681       -5.887      161.153      130.687       81.367    25970.200    17079.099     6620.599        7.352        2.483      312.028       74.360        0.057      337.810       10.033      865.113
01/03/2021  15:43:00     -457.985       71.638      -18.336      261.360      149.377       87.436    68309.172    22313.407     7645.058       15.672        4.913      463.554       86.068        0.034      337.716        9.875      865.095
01/03/2021  15:44:00     -396.327      119.891      -11.571      210.580      161.156       97.263    44343.909    25971.154     9460.063       12.566        3.989      414.064       80.052        0.037      337.747        9.927      865.095
01/03/2021  15:45:00     -388.190       54.182      -12.444      192.197      127.431       79.829    36939.834    16238.731     6372.652       10.665        2.978      391.953       79.194        0.041      337.737        9.909      865.122
01/03/2021  15:46:00     -389.035       60.707       -4.089      203.304      153.733       94.592    41332.531    23633.722     8947.660       11.447        3.696      393.743       87.604        0.050      337.760        9.948      865.155
01/03/2021  15:47:00     -246.270       64.660        0.315      159.624      104.119       56.283    25479.820    10840.706     3167.720        5.215        1.974      254.617       59.870        0.055      337.794       10.006      865.174
01/03/2021  15:48:00     -379.174       20.263      -26.003      234.309      146.037       73.975    54900.606    21326.706     5472.242       11.326        4.085      379.715       69.744        0.034      337.690        9.832      865.201
01/03/2021  15:49:00     -352.774       89.561      -11.289      150.957      119.362       84.831    22788.161    14247.295     7196.313        8.841        2.212      363.965       81.082        0.050      337.703        9.854      865.231
01/03/2021  15:50:00     -279.701       81.882        4.025      149.955      123.366       84.199    22486.560    15219.078     7089.445        6.486        2.240      291.440       93.657        0.103      337.827       10.061      865.267
01/03/2021  15:51:00     -308.711       30.983       -1.338      202.620      123.343       72.164    41055.016    15213.391     5207.655        7.886        3.074      310.262       64.622        0.043      337.707        9.861      865.315
01/03/2021  15:52:00     -287.461       70.768      -13.187      200.481      140.990       97.470    40192.578    19878.111     9500.328        7.868        3.479      296.044       88.831        0.090      337.685        9.823      865.319
01/03/2021  15:53:00     -318.324       89.431      -21.924      205.308      160.204       92.817    42151.410    25665.334     8615.037        9.310        3.822      330.648       65.266        0.039      337.684        9.821      865.308
01/03/2021  15:54:00     -269.929       49.571       -6.157      250.844      163.743       91.228    62922.715    26811.696     8322.461        8.669        4.903      274.443       85.049        0.096      337.734        9.906      865.310
01/03/2021  15:55:00     -422.127      104.256      -12.035      179.169      155.072       88.895    32101.465    24047.310     7902.245       12.661        3.203      434.811       71.647        0.027      337.667        9.793      865.356
01/03/2021  15:56:00     -290.284       74.286       -8.130      180.179      128.248       75.885    32464.421    16447.674     5758.606        7.225        2.734      299.639       65.448        0.048      337.757        9.944      865.382
01/03/2021  15:57:00     -566.849       83.038      -15.116      251.082      183.430      105.903    63042.094    33646.517    11215.340       21.815        5.395      572.899      118.641        0.043      337.613        9.702      865.384
01/03/2021  15:58:00     -220.534      117.360        7.228      232.587      136.105       88.503    54096.937    18524.596     7832.750        7.144        4.023      249.817      114.294        0.209      337.732        9.902      865.376
01/03/2021  15:59:00     -463.710      107.690      -13.004      292.115      159.013       93.096    85331.298    25285.153     8666.828       17.301        5.964      476.050      112.604        0.056      337.659        9.780      865.363
01/03/2021  16:00:00     -509.017       38.768      -13.381      230.719      157.887      104.212    53231.165    24928.353    10860.060       17.488        4.451      510.491       99.200        0.038      337.587        9.658      865.332
01/03/2021  16:01:00     -406.547       62.506      -11.431      187.390      114.033       77.252    35114.864    13003.507     5967.865       11.169        2.704      411.324       86.464        0.044      337.588        9.660      865.304
01/03/2021  16:02:00     -407.898       17.405      -49.703      281.672      135.174       77.280    79339.267    18272.120     5972.223       13.635        5.179      408.269       96.596        0.056      337.604        9.688      865.261
01/03/2021  16:03:00     -359.658      104.266       10.679      250.102      124.516       76.927    62550.918    15504.201     5917.771       11.214        4.199      374.467       83.140        0.049      337.716        9.875      865.218
01/03/2021  16:04:00     -443.980       91.664      -26.849      246.384      195.551      103.810    60705.050    38240.064    10776.602       15.796        5.486      453.343       80.265        0.031      337.608        9.694      865.170
01/03/2021  16:05:00     -372.217       63.637      -29.696      246.566      130.025       71.256    60794.918    16906.544     5077.434       11.311        4.139      377.618       81.286        0.046      337.648        9.760      865.147
01/03/2021  16:06:00     -325.185      110.190       -2.801      183.806      133.294       69.235    33784.766    17767.374     4793.424        8.711        2.817      343.347       64.959        0.036      337.715        9.874      865.160
01/03/2021  16:07:00     -260.734       54.880       -4.730      298.574      171.224       97.696    89146.491    29317.796     9544.486        9.948        6.400      266.447       76.983        0.083      337.606        9.691      865.140
01/03/2021  16:08:00     -251.083       38.185       -6.793      147.642       87.323       55.793    21798.022     7625.361     3112.876        4.853        1.627      253.970       56.267        0.049      337.710        9.866      865.144
01/03/2021  16:09:00     -224.650      -33.540       -5.578      216.250      155.213       93.779    46763.855    24090.976     8794.495        6.562        3.982      227.140      115.845        0.260      337.636        9.742      865.109
01/03/2021  16:10:00     -177.055       -4.958       -6.408      229.449      145.720       98.758    52646.743    21234.454     9753.172        5.751        4.182      177.125       97.969        0.306      337.636        9.741      865.079
01/03/2021  16:11:00     -337.412       40.438       -4.339      167.164      131.403       77.723    27943.832    17266.806     6040.791        8.336        2.563      339.827       77.083        0.051      337.625        9.721      865.050
01/03/2021  16:12:00     -437.006      142.279      -10.550      180.913      121.364       79.407    32729.616    14729.175     6305.515       13.253        2.688      459.584       69.820        0.023      337.655        9.771      865.032
01/03/2021  16:13:00     -466.556       56.775      -30.906      233.554      165.593       87.302    54547.285    27421.203     7621.636       15.570        4.480      469.998       87.581        0.035      337.563        9.616      865.003
01/03/2021  16:14:00     -122.003       50.697       23.521      145.715      105.163       64.977    21232.932    11059.191     4221.971        2.725        1.826      132.117       71.958        0.297      337.733        9.904      864.993
01/03/2021  16:15:00     -259.564       51.702        1.064      138.869      109.541       56.451    19284.627    11999.169     3186.739        5.225        1.724      264.663       59.289        0.050      337.620        9.714      865.002
01/03/2021  16:16:00     -258.218       47.602       -1.956      173.260       93.065       59.595    30019.076     8661.075     3551.573        5.558        2.112      262.569       67.790        0.067      337.589        9.661      864.990
01/03/2021  16:17:00     -209.034       11.163        6.640      273.925      125.642       75.952    75034.647    15785.972     5768.658        7.021        4.829      209.332       92.256        0.194      337.541        9.581      864.964
01/03/2021  16:18:00     -150.826       44.295       18.247      169.876       96.090       69.763    28857.989     9233.301     4866.870        3.399        2.148      157.196       82.268        0.274      337.607        9.693      864.947
01/03/2021  16:19:00     -257.920       73.025      -17.854      213.023       83.307       60.471    45378.685     6940.013     3656.723        6.406        2.799      268.059       71.979        0.072      337.523        9.551      864.940
01/03/2021  16:20:00     -280.124       65.332        1.877      181.769      111.146       77.930    33039.912    12353.367     6073.108        6.709        2.573      287.642       77.214        0.072      337.542        9.584      864.927
01/03/2021  16:21:00     -257.483       81.841       -7.181      127.765      139.644       64.868    16323.845    19500.566     4207.846        5.653        2.002      270.177       39.614        0.021      337.555        9.606      864.922
01/03/2021  16:22:00     -353.492       40.708       13.218      209.637      115.055       77.684    43947.497    13237.758     6034.807        9.499        3.161      355.828       77.180        0.047      337.488        9.494      864.907
01/03/2021  16:23:00     -216.801       34.182       -5.504      185.440      107.510       64.772    34388.057    11558.474     4195.437        4.916        2.507      219.479       48.618        0.049      337.563        9.619      864.935
01/03/2021  16:24:00     -292.218       52.815       -6.234      144.161      118.364       63.506    20782.405    14009.941     4033.068        6.351        1.941      296.952       56.329        0.036      337.521        9.547      864.938
01/03/2021  16:25:00     -231.490       80.565      -11.341      128.328       79.362       55.848    16467.953     6298.315     3119.037        4.304        1.294      245.109       56.138        0.052      337.550        9.597      864.941
01/03/2021  16:26:00     -363.565       61.578      -20.418      201.276      122.081       57.610    40512.188    14903.775     3318.871        9.755        2.937      368.743       60.393        0.027      337.520        9.547      864.935
01/03/2021  16:27:00     -276.549       81.984      -13.054      149.122      109.527       70.649    22237.420    11996.123     4991.321        6.129        1.961      288.445       71.084        0.061      337.506        9.524      864.947
01/03/2021  16:28:00     -235.272       61.311        4.752      118.933       82.769       52.398    14144.960     6850.693     2745.537        4.143        1.187      243.130       45.325        0.035      337.554        9.603      864.960
01/03/2021  16:29:00     -294.172       44.686        0.726      115.603      102.469       61.008    13363.971    10499.835     3721.944        5.805        1.379      297.546       62.478        0.044      337.532        9.566      864.962
01/03/2021  16:30:00     -220.977       10.690       -1.993      117.621       96.695       50.777    13834.681     9349.901     2578.285        3.735        1.288      221.236       50.896        0.053      337.475        9.471      864.942
01/03/2021  16:31:00     -323.610       70.630       -7.494      153.056      122.572       65.771    23426.276    15023.898     4325.762        7.626        2.139      331.228       64.706        0.038      337.484        9.486      864.885
01/03/2021  16:32:00     -257.754      129.299      -17.843      153.439      117.668       69.199    23543.647    13845.683     4788.519        6.282        2.109      288.367       57.587        0.040      337.526        9.557      864.832
01/03/2021  16:33:00     -238.862       66.719        0.804      151.147       96.107       69.165    22845.299     9236.649     4783.851        4.918        1.843      248.005       65.875        0.071      337.506        9.523      864.806
01/03/2021  16:34:00     -135.293       90.437        5.071      118.250      112.730       65.855    13983.040    12708.091     4336.837        2.876        1.551      162.737       52.145        0.103      337.565        9.622      864.812
01/03/2021  16:35:00     -256.461       78.379       -2.423      165.935      117.641       78.845    27534.501    13839.310     6216.489        5.975        2.380      268.171       76.357        0.081      337.575        9.640      864.802
01/03/2021  16:36:00     -225.873       86.290        2.483      150.316      132.821       70.911    22595.030    17641.514     5028.388        5.186        2.263      241.795       69.690        0.083      337.550        9.597      864.797
01/03/2021  16:37:00     -227.506       12.706      -16.567      146.572      103.736       62.564    21483.313    10761.105     3914.247        4.417        1.808      227.861       47.940        0.044      337.419        9.377      864.791
01/03/2021  16:38:00     -299.356       30.880       -7.902      171.220       99.247       62.657    29316.399     9849.949     3925.883        6.685        2.155      300.944       66.866        0.049      337.441        9.414      864.769
01/03/2021  16:39:00     -294.517       72.347       -7.334      121.018      101.001       65.844    14645.266    10201.150     4335.495        6.060        1.459      303.273       58.405        0.037      337.398        9.341      864.774
01/03/2021  16:40:00     -273.320       61.664        3.735      182.020      112.394       57.286    33131.161    12632.306     3281.711        6.377        2.452      280.189       45.874        0.027      337.410        9.362      864.773
01/03/2021  16:41:00     -363.788      105.568      -13.347      233.885      110.943       65.073    54702.279    12308.379     4234.474       10.744        3.562      378.796       65.182        0.030      337.393        9.335      864.764
01/03/2021  16:42:00     -275.251       57.864      -15.449      152.522      105.223       67.141    23263.113    11071.972     4507.975        5.909        1.942      281.268       65.694        0.055      337.427        9.392      864.756
01/03/2021  16:43:00     -297.348       28.394      -12.245      161.372       86.074       59.192    26041.073     7408.758     3503.725        6.315        1.848      298.701       41.917        0.020      337.439        9.411      864.729
01/03/2021  16:44:00     -174.438       11.569       -8.501      156.882       82.495       58.872    24611.943     6805.471     3465.903        3.275        1.744      174.822       48.304        0.076      337.413        9.368      864.744
01/03/2021  16:45:00     -176.120       15.228       -4.023      124.049       82.215       42.466    15388.223     6759.251     1803.360        2.760        1.198      176.777       33.527        0.036      337.399        9.346      864.760
01/03/2021  16:46:00     -270.215       62.792       -1.546      111.850       80.370       53.746    12510.522     6459.416     2888.665        4.941        1.093      277.415       43.386        0.024      337.421        9.381      864.760
01/03/2021  16:47:00     -208.231       70.401       10.245      121.294       93.493       51.706    14712.163     8740.922     2673.519        3.727        1.306      219.809       46.155        0.044      337.474        9.469      864.758
01/03/2021  16:48:00     -299.824       36.743       -8.119      126.888       72.217       51.446    16100.452     5215.279     2646.660        5.763        1.198      302.067       45.659        0.023      337.389        9.327      864.758
01/03/2021  16:49:00     -164.507       76.534        2.945      112.352       82.066       54.144    12623.034     6734.906     2931.525        2.760        1.114      181.439       58.426        0.104      337.475        9.471      864.759
01/03/2021  16:50:00     -131.286       35.434       -8.321      100.969       77.724       41.582    10194.754     6040.950     1729.092        1.826        0.898      135.984       40.864        0.090      337.466        9.457      864.753
01/03/2021  16:51:00      -83.414       16.450       12.003       75.590       79.625       46.274     5713.907     6340.182     2141.286        1.078        0.710       85.020       19.740        0.054      337.594        9.672      864.728
01/03/2021  16:52:00      -37.583        5.232       -3.194       90.372       69.885       47.434     8167.114     4883.919     2249.959        0.837        0.765       37.945       30.964        0.666      337.472        9.470      864.708
01/03/2021  16:53:00     -153.640        2.739       -7.098      107.164       72.381       47.774    11484.094     5239.013     2282.341        2.133        0.950      153.664       48.537        0.100      337.397        9.341      864.709
01/03/2021  16:54:00      -74.585      -28.247      -11.990      112.694       88.177       54.076    12699.979     7775.265     2924.182        1.495        1.170       79.755       48.533        0.370      337.402        9.351      864.725
01/03/2021  16:55:00     -116.886       -8.406       -7.058       94.517       77.836       46.557     8933.380     6058.486     2167.547        1.547        0.858      117.188       36.223        0.096      337.393        9.336      864.737
01/03/2021  16:56:00     -199.335       93.121       -6.341       93.599       46.627       44.549     8760.719     2174.116     1984.575        3.068        0.646      220.014       36.146        0.027      337.371        9.298      864.764
01/03/2021  16:57:00     -153.783       49.039       -3.391       75.288       51.933       36.295     5668.303     2697.000     1317.304        1.787        0.484      161.413       28.948        0.032      337.473        9.470      864.775
01/03/2021  16:58:00     -183.380       14.545      -18.079      101.265      124.601       42.482    10254.646    15525.427     1804.735        3.087        1.379      183.956       41.174        0.050      337.429        9.393      864.798
01/03/2021  16:59:00     -240.337      -61.544      -26.026      103.049      106.351       60.606    10619.034    11310.541     3673.072        4.391        1.280      248.092       47.421        0.037      337.389        9.328      864.795
01/03/2021  17:00:00     -109.680       63.538      -15.804       70.743       61.829       36.085     5004.539     3822.790     1302.121        1.322        0.506      126.755       22.472        0.031      337.518        9.546      864.811
01/03/2021  17:01:00     -109.369       -6.334       -6.040       78.597       50.534       35.682     6177.504     2553.670     1273.230        1.102        0.500      109.552       26.537        0.059      337.386        9.325      864.815
01/03/2021  17:02:00     -107.188      -14.288      -21.693       71.369       44.889       27.428     5093.554     2014.999      752.283        1.001        0.393      108.136       26.314        0.059      337.403        9.354      864.834
01/03/2021  17:03:00     -106.826      -39.319      -12.586       86.073       71.488       34.880     7408.590     5110.570     1216.600        1.342        0.687      113.833       12.781        0.013      337.442        9.417      864.839
01/03/2021  17:04:00     -126.620      -44.298       -6.038       80.028       50.957       35.678     6404.414     2596.647     1272.910        1.415        0.514      134.145       34.188        0.065      337.411        9.367      864.846
01/03/2021  17:05:00      -14.639      -28.449      -17.293       58.002       36.778       30.835     3364.182     1352.626      950.817        0.349        0.283       31.995       23.926        0.559      337.518        9.546      864.833
01/03/2021  17:06:00      -91.658      -34.704      -14.441       67.253       39.360       30.855     4522.926     1549.230      952.052        0.842        0.351       98.008       10.009        0.010      337.475        9.472      864.828
01/03/2021  17:07:00     -186.238      -53.941      -20.578       86.794       57.423       36.272     7533.228     3297.455     1315.649        2.508        0.607      193.892       38.660        0.040      337.408        9.360      864.831
01/03/2021  17:08:00      -94.311      -25.358       -6.010       74.512       67.706       38.059     5552.062     4584.057     1448.458        1.058        0.579       97.661       13.666        0.020      337.415        9.374      864.832
01/03/2021  17:09:00      -40.886      -91.024       -4.693       52.624       53.774       28.878     2769.326     2891.677      833.967        0.824        0.325       99.785       25.173        0.064      337.490        9.497      864.814
01/03/2021  17:10:00      -14.657      -37.103      -17.507       45.900       30.182       24.753     2106.803      910.968      612.734        0.276        0.182       39.893       19.284        0.234      337.477        9.476      864.790
01/03/2021  17:11:00        3.886        0.190       -0.627       43.836       40.776       27.760     1921.634     1662.717      770.625        0.218        0.218        3.891       26.988       48.109      337.423        9.386      864.771
01/03/2021  17:12:00      -52.503      -20.523       -7.004       41.606       40.629       28.038     1731.096     1650.682      786.128        0.370        0.208       56.372       22.441        0.158      337.446        9.426      864.767
01/03/2021  17:13:00      -33.372       40.774       -9.491       43.771       36.046       27.837     1915.869     1299.296      774.910        0.343        0.200       52.689       12.607        0.057      337.398        9.346      864.796
01/03/2021  17:14:00      -41.413      -17.689      -13.515       47.222       31.724       24.289     2229.943     1006.408      589.956        0.302        0.191       45.033       20.503        0.207      337.419        9.379      864.835
01/03/2021  17:15:00      -82.777      -21.509      -16.674       84.942       41.774       27.590     7215.113     1745.089      761.217        0.865        0.486       85.526       27.055        0.100      337.385        9.323      864.869
01/03/2021  17:16:00     -162.505      -47.979      -16.176      129.558       53.469       40.115    16785.253     2858.968     1609.219        2.511        1.063      169.440       44.042        0.068      337.409        9.363      864.877
01/03/2021  17:17:00      -69.078     -127.895      -17.884      164.198       60.577       43.773    26961.134     3669.562     1916.086        2.699        1.627      145.357       36.017        0.061      337.446        9.422      864.890
01/03/2021  17:18:00      -38.204      -61.016       -7.585       60.709       50.276       40.013     3685.615     2527.704     1601.017        0.653        0.391       71.989       20.074        0.078      337.498        9.512      864.915
01/03/2021  17:19:00      -50.765      -30.952       -1.653       83.018       40.934       26.692     6892.033     1675.582      712.465        0.641        0.464       59.457       14.437        0.059      337.431        9.400      864.935
01/03/2021  17:20:00      -66.665      -53.893       -4.803       54.303       50.115       33.833     2948.823     2511.467     1144.683        0.699        0.330       85.724       20.792        0.059      337.422        9.384      864.952
01/03/2021  17:21:00      -40.584       29.555      -13.582       40.403       26.552       26.460     1632.399      705.023      700.155        0.287        0.152       50.205       22.182        0.195      337.426        9.392      864.959
01/03/2021  17:22:00        4.665      -11.862       -7.139       50.354       39.617       26.167     2535.496     1569.543      684.719        0.250        0.239       12.747       29.096        5.210      337.472        9.468      864.966
01/03/2021  17:23:00      -46.357      -20.211       -5.187       42.173       36.222       22.244     1778.589     1312.022      494.805        0.308        0.179       50.571       16.981        0.113      337.391        9.334      864.969
01/03/2021  17:24:00      -11.644        2.522      -16.541       62.319       36.161       25.660     3883.664     1307.634      658.419        0.313        0.292       11.914       17.350        2.121      337.391        9.333      864.989
01/03/2021  17:25:00      -69.274       21.778       -8.860       51.056       40.582       25.629     2606.687     1646.898      656.825        0.513        0.246       72.616       17.631        0.059      337.384        9.321      864.995
01/03/2021  17:26:00      -85.356       -4.113      -14.002       83.427       36.845       29.332     6960.128     1357.544      860.380        0.834        0.459       85.455       26.486        0.096      337.369        9.296      864.997
01/03/2021  17:27:00     -125.973      -57.526      -13.678       67.598       68.229       34.727     4569.514     4655.218     1205.986        1.490        0.522      138.486       28.094        0.041      337.390        9.331      864.987
01/03/2021  17:28:00     -121.514      -60.220      -21.159       64.751       52.103       28.760     4192.653     2714.708      827.149        1.329        0.387      135.617       21.379        0.025      337.398        9.345      864.981
01/03/2021  17:29:00     -103.094     -103.021      -27.462       75.548       56.976       43.571     5707.576     3246.289     1898.439        1.642        0.543      145.745       17.242        0.014      337.433        9.402      864.990
01/03/2021  17:30:00       -3.356      -51.833       -6.577       51.417       49.197       30.508     2643.669     2420.307      930.757        0.437        0.300       51.941       25.133        0.234      337.396        9.342      865.010
01/03/2021  17:31:00       -5.060      -14.800      -11.993       52.352       26.859       29.077     2740.739      721.388      845.465        0.235        0.215       15.641       17.992        1.323      337.401        9.350      865.040
01/03/2021  17:32:00      -20.691       21.032      -16.790       52.428       15.219       22.730     2748.659      231.630      516.633        0.232        0.175       29.504       22.465        0.580      337.362        9.284      865.059
01/03/2021  17:33:00      -54.264       11.159       -6.817       40.967       33.026       24.662     1678.329     1090.689      608.205        0.325        0.169       55.399       22.973        0.172      337.413        9.370      865.072
01/03/2021  17:34:00        1.979      -25.752      -13.590       42.366       29.679       17.358     1794.905      880.821      301.311        0.191        0.149       25.828       16.938        0.430      337.333        9.237      865.073
01/03/2021  17:35:00      -13.824       11.766      -19.055       60.274       52.347       28.667     3632.926     2740.242      821.803        0.394        0.360       18.154       14.536        0.641      337.354        9.271      865.071
01/03/2021  17:36:00      -17.098      -39.325      -13.945       68.723       87.200       29.842     4722.863     7603.863      890.521        0.762        0.661       42.881       24.509        0.327      337.354        9.272      865.063
01/03/2021  17:37:00      -10.386      -75.527        0.992       75.642      110.469       37.191     5721.645    12203.433     1383.143        1.256        0.965       76.237       42.658        0.313      337.291        9.164      865.059
01/03/2021  17:38:00      -63.757      -25.349      -19.638       46.005       63.420       29.044     2116.440     4022.157      843.555        0.604        0.349       68.611       23.132        0.114      337.229        9.063      865.032
01/03/2021  17:39:00      -91.156      -53.929       -6.361       68.953       69.128       34.909     4754.498     4778.656     1218.626        1.100        0.538      105.914       22.806        0.046      337.226        9.057      865.029
01/03/2021  17:40:00     -164.378       30.070        8.391      100.216       57.631       46.633    10043.274     3321.359     2174.665        2.176        0.777      167.106       41.788        0.063      337.152        8.930      865.000
01/03/2021  17:41:00     -129.530      -20.446       -5.810       59.587       72.717       48.064     3550.563     5287.825     2310.173        1.419        0.557      131.133       28.684        0.048      337.142        8.915      864.971
01/03/2021  17:42:00     -188.051       10.554      -14.175       72.214       67.074       45.230     5214.820     4498.966     2045.796        2.371        0.588      188.347       37.244        0.039      337.078        8.804      864.946
01/03/2021  17:43:00      -99.558      -26.618       -7.907       84.387       37.772       36.457     7121.134     1426.726     1329.097        1.028        0.494      103.055       27.587        0.072      337.110        8.862      864.943
01/03/2021  17:44:00     -112.672      -49.327      -31.066       86.632       83.115       27.675     7505.066     6908.150      765.902        1.563        0.759      122.997       26.149        0.045      337.104        8.851      864.949
01/03/2021  17:45:00     -117.948      -65.033       -9.264      108.234      103.954       42.989    11714.615    10806.503     1848.015        2.129        1.218      134.689       39.203        0.085      337.071        8.795      864.947
01/03/2021  17:46:00     -112.710       -0.863       -3.832       83.129       65.832       32.698     6910.499     4333.801     1069.152        1.251        0.616      112.713       13.217        0.014      337.082        8.815      864.946
01/03/2021  17:47:00     -111.123      -49.805       -0.978       74.814       60.541       51.827     5597.114     3665.188     2686.082        1.339        0.597      121.774       43.865        0.130      337.029        8.726      864.926
01/03/2021  17:48:00     -144.688      -50.560       -6.318       89.545       73.732       55.010     8018.236     5436.335     3026.108        2.000        0.824      153.267       47.082        0.094      337.021        8.712      864.898
01/03/2021  17:49:00     -111.916      -57.367      -13.748       82.074       58.031       42.192     6736.152     3367.626     1780.182        1.394        0.594      125.762       35.974        0.082      337.021        8.712      864.871
01/03/2021  17:50:00     -180.983      -54.839      -11.637       99.863       62.385       49.443     9972.531     3891.940     2444.633        2.610        0.815      189.109       48.092        0.065      336.973        8.632      864.833
01/03/2021  17:51:00     -240.818       -9.109       -5.196       64.882       50.988       44.536     4209.622     2599.796     1983.411        3.345        0.440      240.990       33.781        0.020      336.923        8.546      864.816
01/03/2021  17:52:00     -191.780      -54.076      -16.669       73.748       63.384       36.804     5438.744     4017.571     1354.514        2.539        0.541      199.258       23.632        0.014      336.925        8.550      864.814
01/03/2021  17:53:00     -159.257      -42.367      -19.692       79.364       78.655       38.248     6298.629     6186.647     1462.911        2.074        0.697      164.796       23.657        0.021      336.929        8.557      864.818
01/03/2021  17:54:00      -99.047      -15.805       -8.476       91.225       65.826       45.766     8321.962     4333.060     2094.543        1.244        0.737      100.300       36.798        0.135      336.920        8.546      864.817
01/03/2021  17:55:00     -110.062      -31.943       -6.127       87.969       73.514       34.559     7738.622     5404.322     1194.330        1.375        0.717      114.604       30.574        0.071      336.905        8.520      864.826
01/03/2021  17:56:00     -200.781      -69.190      -17.022       92.995       74.415       40.436     8648.117     5537.622     1635.060        3.060        0.791      212.369       34.395        0.026      336.876        8.469      864.819
01/03/2021  17:57:00      -82.726      -11.937      -13.669       82.331       64.439       33.754     6778.359     4152.342     1139.354        0.962        0.604       83.583       21.178        0.064      336.894        8.501      864.808
01/03/2021  17:58:00     -116.180      -56.204      -17.300       77.507       69.774       46.076     6007.336     4868.452     2122.963        1.497        0.650      129.061       30.007        0.054      336.879        8.476      864.797
01/03/2021  17:59:00     -155.340      -78.768      -16.828       69.363       85.587       40.204     4811.167     7325.050     1616.368        2.218        0.688      174.169       29.821        0.029      336.847        8.419      864.792
01/03/2021  18:00:00     -151.450      -75.555      -21.038       81.495      124.299       36.042     6641.424    15450.275     1299.022        2.623        1.170      169.250       31.840        0.035      336.840        8.410      864.783
01/03/2021  18:01:00      -85.699      -64.082       -6.597       93.843       76.173       40.678     8806.540     5802.299     1654.727        1.388        0.813      107.009       23.633        0.049      336.850        8.428      864.792
01/03/2021  18:02:00     -198.786      -65.516      -21.533      103.680       88.283       49.468    10749.521     7793.949     2447.090        3.263        1.050      209.304       36.026        0.030      336.824        8.381      864.793
01/03/2021  18:03:00     -112.754      -44.857       -5.910      106.006       50.876       41.579    11237.336     2588.328     1728.821        1.515        0.778      121.349       31.405        0.067      336.821        8.379      864.804
01/03/2021  18:04:00      -91.668      -84.376      -16.478       85.314       71.344       38.402     7278.476     5089.978     1474.680        1.482        0.692      124.588       31.393        0.063      336.817        8.373      864.810
01/03/2021  18:05:00      -96.574      -80.019      -16.348       67.769       66.642       36.981     4592.575     4441.219     1367.600        1.320        0.520      125.417       30.070        0.057      336.837        8.406      864.802
01/03/2021  18:06:00      -75.023      -68.690      -18.736       61.520       64.708       32.911     3784.681     4187.145     1083.161        0.987        0.453      101.719       26.372        0.067      336.844        8.420      864.794
01/03/2021  18:07:00      -76.733      -54.122      -18.110       53.151       45.731       32.688     2825.019     2091.323     1068.515        0.756        0.299       93.900       20.107        0.046      336.798        8.343      864.786
01/03/2021  18:08:00      -45.326        5.769       -5.820       47.819       45.243       24.915     2286.658     2046.970      620.764        0.354        0.248       45.692       20.909        0.209      336.775        8.305      864.791
01/03/2021  18:09:00      -29.764       -7.269       -9.048       40.293       30.610       24.555     1623.493      936.950      602.956        0.209        0.158       30.639       22.594        0.544      336.766        8.288      864.804
01/03/2021  18:10:00      -77.890      -27.859       -6.247       38.390       44.044       26.328     1473.759     1939.890      693.145        0.549        0.205       82.722       12.157        0.022      336.751        8.263      864.811
01/03/2021  18:11:00        2.317      -35.956      -14.605       55.263       32.171       29.366     3054.020     1034.978      862.385        0.323        0.248       36.030       32.585        0.818      336.819        8.377      864.813
01/03/2021  18:12:00      -50.462      -51.932      -13.746       79.032       30.883       23.509     6246.077      953.746      552.657        0.659        0.388       72.411       29.519        0.166      336.817        8.373      864.799
01/03/2021  18:13:00      -23.357      -12.199       -3.343       39.493       27.147       18.406     1559.679      736.981      338.788        0.167        0.132       26.351       15.572        0.349      336.748        8.259      864.780
01/03/2021  18:14:00       -5.393      -20.783      -11.194       63.974       52.399       27.452     4092.682     2745.621      753.616        0.409        0.380       21.471       33.649        2.456      336.812        8.364      864.772
01/03/2021  18:15:00      -14.142      -12.188       -2.877       53.921       43.361       24.505     2907.459     1880.166      600.507        0.287        0.269       18.669       22.276        1.424      336.781        8.315      864.768
01/03/2021  18:16:00      -18.751      -37.005      -17.499       47.444       26.123       24.466     2250.956      682.406      598.597        0.278        0.177       41.484       28.671        0.478      336.816        8.372      864.779
01/03/2021  18:17:00      -24.951      -89.045      -24.443       57.162       66.346       34.548     3267.531     4401.769     1193.595        0.900        0.443       92.474       28.351        0.094      336.911        8.530      864.781
01/03/2021  18:18:00      -31.217      -91.506      -42.041       67.348       46.379       39.420     4535.692     2151.048     1553.976        0.968        0.412       96.685       30.853        0.102      336.904        8.518      864.781
01/03/2021  18:19:00       -2.103       -0.278      -10.587       37.629       21.709       25.675     1415.971      471.269      659.200        0.133        0.127        2.121       22.712      114.622      336.754        8.269      864.798
01/03/2021  18:20:00      -21.712      -39.595       -7.588       55.069       28.421       30.265     3032.612      807.727      915.950        0.343        0.238       45.157       28.756        0.405      336.813        8.368      864.801
01/03/2021  18:21:00       26.361      -39.861      -14.627       79.151       72.852       35.368     6264.884     5307.477     1250.929        0.766        0.641       47.789       35.327        0.546      336.848        8.426      864.791
01/03/2021  18:22:00      -47.667      -32.424      -16.133       55.437       39.316       23.934     3073.208     1545.731      572.830        0.439        0.260       57.650       21.316        0.137      336.839        8.410      864.776
01/03/2021  18:23:00      -56.240       -8.098       -9.679       43.480       24.606       24.185     1890.530      605.441      584.890        0.320        0.154       56.820       23.169        0.166      336.698        8.174      864.763
01/03/2021  18:24:00      -16.253      -39.599       -5.805       41.633       46.925       24.623     1733.339     2201.912      606.272        0.320        0.227       42.804       24.633        0.331      336.732        8.231      864.737
01/03/2021  18:25:00      -19.026      -16.073      -15.110       52.914       32.249       30.191     2799.872     1039.995      911.478        0.280        0.238       24.906       28.457        1.305      336.792        8.332      864.726
01/03/2021  18:26:00      -38.197      -12.294       -9.814       45.782       26.299       27.179     2096.003      691.654      738.686        0.262        0.176       40.127       13.238        0.109      336.661        8.114      864.721
01/03/2021  18:27:00      -54.318      -11.403        2.239       52.394       54.288       30.671     2745.107     2947.197      940.707        0.486        0.332       55.502       20.682        0.139      336.676        8.139      864.716
01/03/2021  18:28:00      -93.847      -42.745       -7.901       63.705       68.725       34.849     4058.325     4723.090     1214.434        1.034        0.500      103.123       27.913        0.073      336.604        8.019      864.713
01/03/2021  18:29:00      -32.797       -5.206        3.745       69.388       38.723       33.933     4814.642     1499.488     1151.446        0.429        0.373       33.208       23.462        0.499      336.583        7.982      864.717
01/03/2021  18:30:00      -64.139      -37.815       -9.335       66.799       47.412       30.529     4462.093     2247.915      932.018        0.663        0.382       74.457        9.644        0.017      336.583        7.982      864.720
01/03/2021  18:31:00      -88.064      -38.125      -22.468       57.024       51.539       27.187     3251.714     2656.313      739.111        0.818        0.332       95.963       22.783        0.056      336.579        7.976      864.720
01/03/2021  18:32:00      -76.699      -21.340      -15.883       53.606       51.387       23.117     2873.614     2640.649      534.402        0.632        0.302       79.612       19.979        0.063      336.544        7.919      864.703
01/03/2021  18:33:00      -70.266       -1.048      -13.086       64.864       35.188       27.451     4207.350     1238.221      753.530        0.565        0.310       70.274        9.639        0.019      336.550        7.928      864.684
01/03/2021  18:34:00      -70.517       -9.499       -2.689       53.686       32.873       26.180     2882.171     1080.661      685.412        0.486        0.232       71.154       18.033        0.064      336.516        7.869      864.663
01/03/2021  18:35:00      -54.152      -17.134       -7.962       46.883       37.708       25.245     2198.047     1421.871      637.288        0.377        0.213       56.798        9.140        0.026      336.532        7.898      864.637
01/03/2021  18:36:00      -52.862      -62.037       -1.848       46.889       46.982       27.712     2198.576     2207.284      767.942        0.591        0.259       81.504       23.844        0.086      336.533        7.900      864.616
01/03/2021  18:37:00      -69.568      -14.685       -1.713       40.513       38.960       24.241     1641.309     1517.852      587.627        0.440        0.187       71.101       21.310        0.090      336.532        7.898      864.596
01/03/2021  18:38:00      -47.396      -42.597      -12.224       52.216       50.496       24.543     2726.545     2549.825      602.382        0.504        0.294       63.725       22.722        0.127      336.559        7.942      864.578
01/03/2021  18:39:00      -89.099      -76.050      -11.677       45.406       40.734       25.957     2061.750     1659.234      673.762        0.913        0.220      117.142       19.299        0.027      336.478        7.807      864.584
01/03/2021  18:40:00      -82.482      -45.252      -15.559       51.832       37.182       25.149     2686.555     1382.474      632.476        0.690        0.235       94.079       22.728        0.058      336.488        7.820      864.601
01/03/2021  18:41:00      -45.888      -26.270       -5.428       44.465       40.328       27.623     1977.152     1626.334      763.033        0.359        0.218       52.876       15.759        0.089      336.474        7.799      864.624
01/03/2021  18:42:00      -73.686      -17.047      -12.463       46.242       33.502       26.853     2138.309     1122.416      721.074        0.493        0.199       75.633        9.587        0.016      336.488        7.823      864.652
01/03/2021  18:43:00     -104.207      -36.798       -9.395       45.561       32.433       30.969     2075.807     1051.924      959.071        0.819        0.204      110.513       21.280        0.037      336.501        7.846      864.667
01/03/2021  18:44:00     -115.510      -18.015       -6.987       44.713       31.043       31.109     1999.291      963.662      967.745        0.882        0.197      116.906       18.564        0.025      336.485        7.818      864.685
01/03/2021  18:45:00      -65.597      -33.704        2.083       47.568       27.861       28.349     2262.683      776.219      803.649        0.464        0.192       73.749        7.921        0.012      336.524        7.883      864.690
01/03/2021  18:46:00      -63.810      -17.701        4.993       52.737       35.204       24.794     2781.183     1239.331      614.725        0.452        0.232       66.220       17.329        0.068      336.491        7.828      864.701
01/03/2021  18:47:00      -64.908      -21.137       -0.171       50.267       35.040       29.520     2526.763     1227.836      871.436        0.464        0.231       68.263       17.811        0.068      336.449        7.758      864.712
01/03/2021  18:48:00      -47.054      -39.978      -15.435       60.493       40.430       24.016     3659.420     1634.574      576.745        0.496        0.294       61.744       23.676        0.147      336.487        7.822      864.704
01/03/2021  18:49:00      -54.720      -47.037      -21.919       57.803       48.302       25.538     3341.214     2333.071      652.186        0.601        0.316       72.158       25.489        0.125      336.481        7.811      864.695
01/03/2021  18:50:00      -15.815      -45.162      -11.466       49.546       33.715       23.628     2454.817     1136.693      558.267        0.328        0.207       47.851       17.197        0.129      336.522        7.880      864.684
01/03/2021  18:51:00      -86.988      -76.242      -11.814       46.898       43.185       32.325     2199.424     1864.982     1044.931        0.931        0.255      115.671       19.806        0.029      336.509        7.858      864.687
01/03/2021  18:52:00      -57.194      -25.930      -10.232       44.908       37.552       28.245     2016.695     1410.176      797.763        0.414        0.211       62.798       19.838        0.100      336.466        7.787      864.683
01/03/2021  18:53:00      -64.613      -37.174      -17.850       47.924       41.693       24.059     2296.703     1738.305      578.854        0.524        0.231       74.543       19.031        0.065      336.440        7.742      864.677
01/03/2021  18:54:00      -70.981        1.997        0.877       43.170       29.813       28.997     1863.621      888.840      840.833        0.432        0.180       71.009       14.926        0.044      336.450        7.759      864.677
01/03/2021  18:55:00      -29.198      -22.117       -4.913       39.914       22.914       20.441     1593.143      525.047      417.824        0.195        0.127       36.629       13.107        0.128      336.463        7.780      864.674
01/03/2021  18:56:00       -8.735        1.040        0.072       44.557       27.738       23.249     1985.317      769.394      540.527        0.169        0.165        8.797       18.121        4.243      336.434        7.733      864.668
01/03/2021  18:57:00      -29.955       -6.817       -3.420       41.949       20.031       22.705     1759.706      401.247      515.514        0.182        0.134       30.721       17.579        0.327      336.450        7.761      864.671
01/03/2021  18:58:00      -32.561      -11.410       -4.608       45.098       26.205       22.998     2033.832      686.726      528.903        0.223        0.162       34.503       25.241        0.535      336.440        7.743      864.666
01/03/2021  18:59:00      -30.536      -49.855       -9.340       47.833       27.474       28.031     2288.025      754.839      785.714        0.367        0.191       58.463       26.193        0.201      336.471        7.793      864.661
01/03/2021  19:00:00      -14.548      -28.912      -16.271       46.637       28.698       26.717     2175.033      823.547      713.808        0.251        0.186       32.366       27.320        0.713      336.475        7.800      864.647
01/03/2021  19:01:00        3.142      -23.761      -10.291       43.821       27.027       21.629     1920.284      730.453      467.829        0.190        0.156       23.968       25.749        1.154      336.458        7.773      864.644
01/03/2021  19:02:00       10.601       -9.230       -2.878       46.847       11.926       20.690     2194.686      142.218      428.062        0.148        0.138       14.057       25.353        3.253      336.429        7.726      864.666
01/03/2021  19:03:00       19.032       -7.986       -6.176       53.034       16.182       21.636     2812.614      261.868      468.124        0.200        0.177       20.640       29.056        1.982      336.431        7.728      864.693
01/03/2021  19:04:00      -32.532      -12.474       -6.496       53.692       24.162       24.703     2882.842      583.783      610.220        0.267        0.204       34.842       19.603        0.317      336.366        7.620      864.728
01/03/2021  19:05:00      -84.420        1.379        4.304       67.770       27.481       24.226     4592.708      755.179      586.890        0.654        0.297       84.432       19.183        0.052      336.321        7.544      864.750
01/03/2021  19:06:00      -94.296       14.032       -6.932       38.736       20.433       20.034     1500.467      417.489      401.369        0.573        0.116       95.335       19.669        0.043      336.313        7.531      864.768
01/03/2021  19:07:00        0.676      -13.921       -3.904       53.239       31.744       27.577     2834.369     1007.694      760.493        0.241        0.230       13.937       23.001        2.724      336.257        7.436      864.784
01/03/2021  19:08:00      -62.313       25.659       -4.394       58.953       31.603       27.714     3475.426      998.778      768.076        0.490        0.262       67.389       10.807        0.026      336.194        7.333      864.800
01/03/2021  19:09:00      -77.892       19.052       -7.751       49.621       29.836       25.896     2462.280      890.187      670.624        0.526        0.201       80.189       18.851        0.055      336.197        7.337      864.811
01/03/2021  19:10:00      -62.340       23.081       -5.380       44.543       23.573       25.190     1984.070      555.694      634.541        0.381        0.159       66.475        9.636        0.021      336.136        7.236      864.801
01/03/2021  19:11:00      -84.150       42.545       -6.384       36.396       24.651       18.518     1324.634      607.670      342.914        0.560        0.114       94.294       13.918        0.022      336.092        7.162      864.793
01/03/2021  19:12:00      -74.854       39.695      -12.263       52.369       21.245       22.889     2742.540      451.347      523.911        0.552        0.186       84.728       20.172        0.057      336.067        7.118      864.782
01/03/2021  19:13:00      -93.571       30.036      -13.380       35.578       26.536       23.367     1265.813      704.180      546.012        0.618        0.126       98.273        8.648        0.008      336.045        7.082      864.778
01/03/2021  19:14:00      -91.049       41.044      -16.330       38.738       28.113       25.901     1500.642      790.364      670.877        0.660        0.148       99.872       17.846        0.032      336.046        7.085      864.781
01/03/2021  19:15:00      -71.628        9.273      -10.983       41.459       25.808       21.202     1718.813      666.066      449.519        0.409        0.142       72.226       12.349        0.029      336.046        7.086      864.794
01/03/2021  19:16:00      -73.911        9.917      -14.675       51.672       22.979       22.379     2669.956      528.035      500.803        0.474        0.185       74.573       24.992        0.112      336.050        7.092      864.803
01/03/2021  19:17:00      -29.902        5.983        2.922       72.530       24.646       27.689     5260.562      607.437      766.681        0.379        0.332       30.495        8.178        0.072      336.022        7.047      864.812
01/03/2021  19:18:00      -28.269       20.214      -11.311       65.079       37.808       32.366     4235.259     1429.441     1047.565        0.402        0.336       34.753       12.309        0.125      336.001        7.009      864.820
01/03/2021  19:19:00     -102.709        7.549       -6.404       65.472       40.209       34.599     4286.549     1616.735     1197.116        0.887        0.355      102.986       26.044        0.064      335.931        6.892      864.821
01/03/2021  19:20:00      -83.863        1.459       -8.055       64.442       35.921       32.358     4152.729     1290.285     1047.042        0.679        0.325       83.875       12.036        0.021      335.937        6.904      864.835
01/03/2021  19:21:00     -105.336       11.307       -3.139       63.418       28.398       27.057     4021.899      806.450      732.094        0.840        0.278      105.942       19.843        0.035      335.910        6.859      864.844
01/03/2021  19:22:00     -106.869        7.656       -8.581       74.165       33.432       28.083     5500.496     1117.679      788.633        0.948        0.370      107.143       10.734        0.010      335.894        6.834      864.843
01/03/2021  19:23:00      -69.819       12.256        4.726       79.483       33.474       28.797     6317.582     1120.485      829.241        0.666        0.413       70.886       18.384        0.067      335.916        6.869      864.848
01/03/2021  19:24:00      -72.928       -3.890      -10.639       65.364       33.249       28.180     4272.463     1105.488      794.097        0.581        0.309       73.031       21.844        0.089      335.935        6.901      864.854
01/03/2021  19:25:00     -116.772       27.466       -7.974       68.521       32.852       25.159     4695.163     1079.265      632.950        1.043        0.320      119.959       12.151        0.010      335.859        6.773      864.867
01/03/2021  19:26:00     -103.539        2.783       -7.257       60.052       29.314       28.609     3606.227      859.302      818.468        0.803        0.264      103.576        8.174        0.006      335.893        6.831      864.881
01/03/2021  19:27:00      -85.474       16.135      -13.440       53.525       36.196       23.911     2864.918     1310.125      571.752        0.625        0.237       86.984       11.970        0.019      335.881        6.810      864.877
01/03/2021  19:28:00     -114.309       41.427      -11.118       53.798       25.202       25.940     2894.195      635.155      672.890        0.955        0.210      121.584       11.691        0.009      335.814        6.699      864.870
01/03/2021  19:29:00     -124.847       50.979      -10.089       41.681       27.030       24.532     1737.311      730.626      601.820        1.068        0.153      134.854       14.076        0.011      335.768        6.623      864.863
01/03/2021  19:30:00      -72.309        4.316      -12.662       53.316       34.318       26.107     2842.557     1177.732      681.573        0.505        0.235       72.438       21.789        0.090      335.799        6.674      864.863
01/03/2021  19:31:00     -119.738       32.664      -13.713       49.560       22.414       24.476     2456.216      502.389      599.061        0.957        0.178      124.113        9.104        0.005      335.784        6.649      864.851
01/03/2021  19:32:00      -90.462        6.091       -9.332       43.394       28.047       22.629     1883.064      786.626      512.094        0.574        0.159       90.666       14.220        0.025      335.786        6.652      864.837
01/03/2021  19:33:00      -76.172       18.024       -1.359       66.538       23.804       25.797     4427.310      566.607      665.481        0.589        0.283       78.275       22.130        0.080      335.787        6.654      864.826
01/03/2021  19:34:00      -79.754        8.476       -7.359       45.612       24.369       22.654     2080.463      593.841      513.184        0.484        0.159       80.204       21.643        0.073      335.840        6.742      864.824
01/03/2021  19:35:00      -76.471       16.391      -10.568       44.993       20.721       22.881     2024.350      429.355      523.522        0.460        0.149       78.208       20.213        0.067      335.812        6.696      864.823
01/03/2021  19:36:00      -76.685       13.121       -7.898       47.518       33.028       24.871     2257.943     1090.827      618.563        0.504        0.198       77.799       16.005        0.042      335.831        6.727      864.820
01/03/2021  19:37:00      -91.616       18.932        0.489       56.078       25.208       22.224     3144.734      635.434      493.914        0.651        0.214       93.552       18.936        0.041      335.823        6.715      864.827
01/03/2021  19:38:00      -78.877       18.814        2.498       54.494       30.629       28.871     2969.584      938.122      833.556        0.566        0.237       81.090        3.884        0.002      335.814        6.699      864.829
01/03/2021  19:39:00      -90.060       -8.369       -2.649       53.303       32.174       28.757     2841.235     1035.170      826.974        0.644        0.235       90.448        7.873        0.008      335.851        6.760      864.825
01/03/2021  19:40:00     -105.084       -3.665        3.494       60.974       33.250       26.224     3717.769     1105.580      687.685        0.829        0.276      105.148       16.707        0.025      335.895        6.833      864.800
01/03/2021  19:41:00     -110.496       10.737       -1.557       48.779       29.380       23.676     2379.405      863.192      560.576        0.806        0.190      111.017        9.864        0.008      336.014        7.033      864.768
01/03/2021  19:42:00      -93.982        2.432        0.634       54.938       25.612       22.140     3018.166      655.990      490.169        0.650        0.208       94.013       22.253        0.056      335.991        6.992      864.738
01/03/2021  19:43:00     -106.412       22.141        0.879       53.642       27.224       27.365     2877.476      741.165      748.862        0.809        0.218      108.691       11.683        0.012      335.988        6.988      864.716
01/03/2021  19:44:00     -120.909       26.468        3.979       72.532       32.525       26.241     5260.883     1057.855      688.614        1.117        0.350      123.772       22.292        0.032      335.987        6.987      864.696
01/03/2021  19:45:00     -140.507       16.656        1.403       51.796       23.162       19.207     2682.869      536.484      368.901        1.180        0.179      141.491       16.768        0.014      336.015        7.032      864.687
01/03/2021  19:46:00     -101.944        2.981        3.861       60.336       28.522       26.612     3640.403      813.510      708.188        0.779        0.258      101.988       14.989        0.022      335.970        6.958      864.678
01/03/2021  19:47:00     -102.234        6.295       -2.760       60.735       30.965       26.440     3688.753      958.859      699.058        0.792        0.267      102.428       10.522        0.011      335.953        6.929      864.680
01/03/2021  19:48:00      -93.728        8.665       -5.971       47.602       29.895       22.045     2265.904      893.697      485.999        0.627        0.182       94.127        7.396        0.006      335.927        6.887      864.691
01/03/2021  19:49:00      -46.428       -5.459       -7.154       61.168       25.208       25.582     3741.561      635.442      654.463        0.363        0.252       46.747       15.654        0.112      335.896        6.834      864.703
01/03/2021  19:50:00      -83.197       13.538       -5.814       50.322       23.390       26.499     2532.353      547.076      702.193        0.546        0.189       84.292        9.488        0.013      335.839        6.742      864.706
01/03/2021  19:51:00      -49.997       10.589       -6.727       62.561       30.224       25.090     3913.826      913.477      629.532        0.406        0.273       51.106       19.621        0.147      335.798        6.672      864.707
01/03/2021  19:52:00      -93.965       13.038       -7.426       43.367       24.949       23.426     1880.660      622.456      548.796        0.605        0.153       94.865       10.507        0.012      335.876        6.801      864.707
01/03/2021  19:53:00      -83.828       15.978       -2.926       41.635       20.878       22.323     1733.472      435.878      498.294        0.498        0.133       85.337       16.186        0.036      335.962        6.946      864.713
01/03/2021  19:54:00      -55.444       14.429       -2.181       47.316       29.392       22.931     2238.770      863.897      525.836        0.346        0.181       57.290       12.590        0.048      335.934        6.899      864.717
01/03/2021  19:55:00      -74.537       10.205      -12.151       38.959       16.027       19.536     1517.836      256.860      381.671        0.398        0.108       75.232       23.136        0.095      335.973        6.962      864.721
01/03/2021  19:56:00     -116.658       12.639       -4.002       38.575       17.665       19.533     1488.017      312.064      381.546        0.798        0.109      117.341       19.511        0.028      335.996        7.001      864.717
01/03/2021  19:57:00     -127.465       -0.938       -1.558       40.308       26.563       22.258     1624.750      705.619      495.403        0.954        0.141      127.469        5.514        0.002      336.002        7.010      864.703
01/03/2021  19:58:00      -67.792        8.822       -1.780       46.809       30.374       24.841     2191.117      922.609      617.060        0.420        0.187       68.363       12.006        0.031      335.987        6.987      864.691
01/03/2021  19:59:00     -108.801       12.513       -3.519       44.409       26.743       19.119     1972.145      715.203      365.555        0.753        0.153      109.518        9.359        0.007      335.986        6.985      864.688
01/03/2021  20:00:00     -105.833       17.677       -2.112       33.257       18.269       19.880     1106.032      333.763      395.225        0.668        0.092      107.300        8.131        0.006      335.889        6.823      864.679
01/03/2021  20:01:00      -76.307       10.413       -4.120       40.838       25.444       22.539     1667.715      647.414      508.015        0.439        0.141       77.014       16.399        0.045      335.832        6.728      864.671
01/03/2021  20:02:00      -57.019       11.019       -7.092       51.953       22.386       22.556     2699.128      501.153      508.786        0.357        0.185       58.075       10.447        0.032      335.846        6.753      864.664
01/03/2021  20:03:00      -73.879       11.910      -13.277       40.030       18.751       21.683     1602.396      351.587      470.145        0.410        0.121       74.832       20.698        0.077      335.848        6.755      864.662
01/03/2021  20:04:00      -84.311       27.731       -4.451       45.076       22.637       22.345     2031.866      512.422      499.316        0.547        0.152       88.754       14.663        0.027      335.802        6.678      864.652
01/03/2021  20:05:00      -80.930       15.791       -7.061       55.440       29.699       23.928     3073.608      882.002      572.537        0.569        0.226       82.456       13.612        0.027      335.786        6.652      864.645
01/03/2021  20:06:00     -117.495       14.225      -18.794       45.383       28.221       25.516     2059.606      796.409      651.091        0.893        0.175      118.353       22.865        0.037      335.758        6.605      864.638
01/03/2021  20:07:00     -141.349       20.810      -24.606       38.358       33.478       25.817     1471.333     1120.753      666.500        1.214        0.163      142.873       18.909        0.018      335.735        6.568      864.617
01/03/2021  20:08:00      -76.162       15.768        2.132       86.428       38.434       33.098     7469.867     1477.167     1095.504        0.805        0.502       77.777       24.166        0.097      335.761        6.610      864.595
01/03/2021  20:09:00     -110.484       28.845      -18.717       67.387       38.859       35.505     4540.965     1510.045     1260.634        1.035        0.366      114.188       11.878        0.011      335.712        6.529      864.578
01/03/2021  20:10:00      -83.748       11.948      -26.342       77.457       34.168       29.809     5999.626     1167.427      888.556        0.795        0.403       84.596       24.932        0.087      335.734        6.565      864.571
01/03/2021  20:11:00       12.239       -7.359      -16.770       59.271       39.385       36.417     3512.996     1551.178     1326.168        0.344        0.320       14.281       23.518        2.712      335.734        6.564      864.574
01/03/2021  20:12:00      -14.013      -16.592      -17.669       72.594       37.299       31.545     5269.889     1391.180      995.062        0.422        0.383       21.718       28.563        1.730      335.735        6.568      864.587
01/03/2021  20:13:00      -12.966       12.022       -6.622       52.597       27.609       27.196     2766.402      762.242      739.642        0.231        0.213       17.682       14.980        0.718      335.660        6.441      864.593
01/03/2021  20:14:00      -13.159      -22.837       -7.909       57.226       42.647       29.169     3274.810     1818.744      850.816        0.335        0.297       26.357       18.322        0.483      335.685        6.483      864.610
01/03/2021  20:15:00      -45.262       24.817       -9.408       71.258       19.232       23.751     5077.756      369.886      564.103        0.438        0.301       51.619       16.311        0.100      335.644        6.414      864.618
01/03/2021  20:16:00      -68.382       15.838      -16.586       43.086       16.224       23.784     1856.393      263.214      565.684        0.394        0.134       70.192       20.031        0.081      335.637        6.403      864.616
01/03/2021  20:17:00      -71.339       36.274       -7.942       40.582       15.698       19.848     1646.875      246.426      393.940        0.438        0.114       80.032       23.051        0.083      335.603        6.347      864.606
01/03/2021  20:18:00      -60.409       36.137       -9.822       36.778       15.312       18.567     1352.640      234.447      344.743        0.349        0.097       70.392       21.036        0.089      335.570        6.290      864.600
01/03/2021  20:19:00      -28.078       25.808       -8.371       41.249       14.587       19.636     1701.463      212.785      385.576        0.191        0.115       38.137       25.877        0.460      335.625        6.383      864.601
01/03/2021  20:20:00      -22.781       30.036       -7.779       41.045       14.554       21.651     1684.657      211.832      468.763        0.192        0.118       37.698       24.155        0.411      335.700        6.509      864.617
01/03/2021  20:21:00      -38.127       38.229      -11.730       40.767       16.186       19.617     1661.937      262.001      384.833        0.268        0.115       53.992       24.893        0.213      335.742        6.578      864.618
01/03/2021  20:22:00      -61.750       51.899      -10.354       32.523       12.305       14.446     1057.719      151.425      208.700        0.402        0.071       80.664       18.059        0.050      335.751        6.593      864.632
01/03/2021  20:23:00      -59.960       30.871      -14.402       33.230       10.926       18.018     1104.230      119.367      324.636        0.315        0.077       67.441       19.813        0.086      335.775        6.634      864.648
01/03/2021  20:24:00        1.599       -1.336      -10.586       59.289       19.398       25.483     3515.237      376.270      649.387        0.233        0.227        2.084       30.037      207.828      335.745        6.583      864.655
01/03/2021  20:25:00      -43.895        0.090      -10.066       39.530       15.164       18.298     1562.622      229.959      334.835        0.208        0.106       43.895       20.137        0.210      335.744        6.583      864.668
01/03/2021  20:26:00       23.990       21.404       -7.160       51.171       16.684       27.239     2618.436      278.368      741.946        0.236        0.182       32.150       32.387        1.015      335.791        6.661      864.680
01/03/2021  20:27:00       12.245       32.755      -10.814       43.020       12.894       21.726     1850.756      166.253      472.010        0.191        0.124       34.969       26.055        0.555      335.826        6.719      864.684
01/03/2021  20:28:00       72.159       40.251      -24.604       47.446       24.583       23.264     2251.130      604.300      541.193        0.541        0.170       82.626       29.129        0.124      335.666        6.451      864.686
01/03/2021  20:29:00       55.518       10.693      -12.271       53.809       32.389       27.433     2895.440     1049.031      752.553        0.402        0.235       56.538       30.709        0.295      335.655        6.434      864.675
01/03/2021  20:30:00       47.874      -10.479      -18.630       52.211       26.992       28.506     2726.022      728.577      812.616        0.351        0.213       49.008       34.483        0.495      335.686        6.486      864.671
01/03/2021  20:31:00       45.891        5.718       -8.840       47.800       20.354       25.351     2284.844      414.268      642.676        0.278        0.167       46.246       30.078        0.423      335.682        6.477      864.678
01/03/2021  20:32:00       82.996       29.377      -22.302       49.904       14.877       22.248     2490.390      221.335      494.959        0.573        0.160       88.042       31.684        0.130      335.667        6.453      864.694
01/03/2021  20:33:00       91.163       14.349      -19.851       58.698       13.410       26.803     3445.413      179.841      718.400        0.663        0.217       92.285       38.373        0.173      335.676        6.468      864.702
01/03/2021  20:34:00       71.225        7.961      -17.018       51.748       26.076       26.262     2677.888      679.949      689.692        0.474        0.202       71.668       30.952        0.187      335.637        6.402      864.706
01/03/2021  20:35:00       31.749      -16.464      -10.618       51.685       22.474       28.101     2671.350      505.075      789.686        0.268        0.198       35.763       34.902        0.952      335.669        6.457      864.701
01/03/2021  20:36:00       15.696      -13.656      -24.836       55.812       21.577       25.066     3114.986      465.582      628.326        0.263        0.210       20.805       35.558        2.921      335.689        6.488      864.688
01/03/2021  20:37:00      -11.390      -26.107       -3.923       45.442       23.716       22.031     2064.939      562.453      485.348        0.197        0.156       28.483       26.619        0.873      335.749        6.589      864.675
01/03/2021  20:38:00       33.929      -51.647      -11.011       54.571       16.531       27.319     2977.980      273.273      746.317        0.397        0.200       61.795       36.374        0.346      335.884        6.814      864.655
01/03/2021  20:39:00       -2.246      -18.430      -17.392       39.817       10.575       18.795     1585.403      111.840      353.236        0.135        0.103       18.566       25.972        1.957      335.815        6.699      864.638
01/03/2021  20:40:00        7.169      -22.734        1.271       40.922       12.143       20.862     1674.651      147.448      435.236        0.141        0.113       23.838       25.404        1.136      335.807        6.687      864.621
01/03/2021  20:41:00       20.108        0.385      -12.399       47.519       22.330       22.558     2258.057      498.644      508.845        0.191        0.163       20.112       29.984        2.223      335.826        6.720      864.600
01/03/2021  20:42:00       32.754      -20.791      -22.380       57.770       30.969       28.873     3337.381      959.072      833.623        0.357        0.257       38.795       36.336        0.877      335.858        6.771      864.584
01/03/2021  20:43:00       63.086       12.780      -23.329       55.168       30.044       28.464     3043.559      902.634      810.189        0.472        0.238       64.367       34.768        0.292      335.891        6.828      864.579
01/03/2021  20:44:00       65.611      -28.159      -21.150       52.119       20.703       25.493     2716.365      428.607      649.904        0.467        0.190       71.398       33.695        0.223      335.898        6.838      864.577
01/03/2021  20:45:00       21.341      -37.954      -17.689       65.618       26.746       28.666     4305.738      715.361      821.757        0.402        0.292       43.542       30.655        0.496      335.860        6.775      864.579
01/03/2021  20:46:00      -22.231       -7.247      -18.528       51.366       11.466       25.847     2638.435      131.470      668.051        0.216        0.172       23.382       34.494        2.176      335.718        6.538      864.590
01/03/2021  20:47:00       -3.569       15.793       -7.169       43.230       19.809       28.804     1868.846      392.416      829.644        0.170        0.155       16.192       27.418        2.868      335.716        6.535      864.597
01/03/2021  20:48:00      -15.056       -0.263      -14.933       47.854        7.909       23.328     2289.972       62.550      544.174        0.167        0.145       15.058       31.318        4.326      335.722        6.546      864.600
01/03/2021  20:49:00      -13.016       31.006      -11.810       47.737       19.221       22.464     2278.797      369.455      504.646        0.221        0.158       33.627       31.187        0.860      335.704        6.516      864.608
01/03/2021  20:50:00      -12.325       17.059      -10.771       48.447       12.331       24.172     2347.127      152.045      584.293        0.182        0.154       21.046       33.084        2.471      335.666        6.452      864.617
01/03/2021  20:51:00       -7.802       14.503      -10.750       44.585       12.792       21.456     1987.779      163.636      460.347        0.150        0.131       16.469       29.689        3.250      335.652        6.429      864.637
01/03/2021  20:52:00       -1.971        2.092      -15.790       52.847        8.847       24.905     2792.839       78.271      620.273        0.187        0.175        2.874       34.795      146.521      335.606        6.352      864.647
01/03/2021  20:53:00      -22.915       15.538      -13.140       46.985        7.440       23.276     2207.589       55.355      541.792        0.187        0.140       27.686       31.116        1.263      335.623        6.379      864.653
01/03/2021  20:54:00        3.640        1.635      -12.836       51.090       12.397       27.685     2610.186      153.684      766.457        0.185        0.177        3.990       34.304       73.919      335.635        6.401      864.653
01/03/2021  20:55:00       -2.153       -0.638      -12.354       56.757       11.663       28.926     3221.304      136.030      836.742        0.217        0.210        2.246       38.758      297.853      335.684        6.483      864.655
01/03/2021  20:56:00       14.289       -2.834       -8.608       54.817       13.699       25.385     3004.885      187.673      644.420        0.206        0.192       14.568       32.997        5.131      335.670        6.458      864.650
01/03/2021  20:57:00      -70.279       13.568      -19.971       45.058       11.906       24.139     2030.250      141.760      582.703        0.414        0.138       71.577       30.203        0.178      335.478        6.138      864.645
01/03/2021  20:58:00      -72.362       25.412      -12.282       46.931       13.638       23.310     2202.495      186.003      543.336        0.448        0.147       76.695       26.161        0.116      335.466        6.117      864.637
01/03/2021  20:59:00      -69.137       13.543      -12.861       50.633       16.434       22.945     2563.663      270.084      526.475        0.424        0.168       70.451       26.476        0.141      335.496        6.168      864.626
01/03/2021  21:00:00      -51.740        1.877       -5.784       57.946       24.778       23.692     3357.733      613.939      561.325        0.362        0.227       51.774       28.565        0.304      335.463        6.113      864.616
01/03/2021  21:01:00      -23.911        4.965        0.352       56.536       18.968       25.320     3196.336      359.787      641.127        0.240        0.210       24.421       25.566        1.096      335.498        6.170      864.606
01/03/2021  21:02:00      -14.537      -11.955       -2.998       64.087       20.607       24.519     4107.197      424.660      601.166        0.275        0.257       18.821       23.201        1.520      335.589        6.323      864.600
01/03/2021  21:03:00      -38.839       -5.272      -10.130       60.219       24.708       27.851     3626.351      610.500      775.659        0.332        0.251       39.195       14.215        0.132      335.562        6.278      864.586
01/03/2021  21:04:00      -31.539       -7.987      -11.125       47.912       23.855       26.250     2295.546      569.057      689.077        0.237        0.178       32.535       27.688        0.724      335.534        6.231      864.569
01/03/2021  21:05:00      -66.271       -5.221      -10.797       62.849       18.302       27.031     3949.969      334.971      730.654        0.477        0.251       66.477       26.066        0.154      335.446        6.085      864.559
01/03/2021  21:06:00      -67.255        8.395       -7.179       51.610       23.931       21.890     2663.643      572.684      479.168        0.418        0.186       67.777       17.995        0.070      335.352        5.928      864.551
01/03/2021  21:07:00      -65.889       -5.740      -10.176       63.424       34.893       27.816     4022.579     1217.553      773.704        0.524        0.301       66.138       27.430        0.172      335.343        5.914      864.553
01/03/2021  21:08:00       -1.418        1.049       -2.542       55.597       29.465       30.258     3090.975      868.173      915.535        0.244        0.244        1.764       28.226      256.088      335.352        5.928      864.559
01/03/2021  21:09:00      -12.332        1.280      -13.396       53.137       23.215       25.101     2823.545      538.930      630.074        0.216        0.200       12.399       29.537        5.675      335.339        5.904      864.546
01/03/2021  21:10:00        7.774       21.659      -11.145       56.889       11.830       26.622     3236.391      139.943      708.713        0.237        0.204       23.012       33.881        2.168      335.331        5.892      864.534
01/03/2021  21:11:00      -53.756       32.332       -7.170       40.163       24.132       22.472     1613.096      582.362      504.978        0.334        0.135       62.730       19.754        0.099      335.270        5.792      864.514
01/03/2021  21:12:00      -21.075        5.893      -15.510       46.263       21.149       24.791     2140.267      447.261      614.612        0.196        0.160       21.884       28.730        1.724      335.327        5.885      864.501
01/03/2021  21:13:00       22.256      -25.725      -22.121       46.730       15.341       23.039     2183.666      235.332      530.814        0.230        0.147       34.017       31.585        0.862      335.489        6.155      864.487
01/03/2021  21:14:00       47.627       16.687      -14.840       58.432       17.086       29.809     3414.333      291.927      888.595        0.368        0.230       50.466       39.288        0.606      335.435        6.067      864.490
01/03/2021  21:15:00       54.454        8.763      -19.375       53.380       18.485       29.447     2849.425      341.706      867.101        0.374        0.203       55.155       37.140        0.453      335.377        5.969      864.503
01/03/2021  21:16:00       38.949        7.510      -14.219       51.127        4.991       24.214     2613.932       24.907      586.299        0.250        0.161       39.667       34.398        0.752      335.292        5.828      864.518
01/03/2021  21:17:00      -17.486       15.692      -13.018       50.634       14.504       22.593     2563.813      210.376      510.427        0.200        0.164       23.495       28.821        1.505      335.396        6.000      864.537
01/03/2021  21:18:00      -59.621       17.949      -21.725       42.804       16.385       22.990     1832.209      268.479      528.558        0.349        0.131       62.264       27.494        0.195      335.247        5.753      864.556
01/03/2021  21:19:00      -69.516        3.305       -9.938       42.349       14.343       21.534     1793.401      205.714      463.711        0.370        0.123       69.594       26.394        0.144      335.226        5.720      864.571
01/03/2021  21:20:00      -56.896       15.028      -14.566       51.838       21.823       25.892     2687.209      476.263      670.413        0.375        0.192       58.848       28.457        0.234      335.236        5.735      864.573
01/03/2021  21:21:00      -36.799      -11.059       -8.081       52.853       21.319       24.620     2793.409      454.485      606.141        0.270        0.193       38.425       22.051        0.329      335.306        5.851      864.574
01/03/2021  21:22:00        1.372      -17.831       -6.822       54.413       24.545       24.962     2960.736      602.478      623.094        0.228        0.209       17.884       26.616        2.215      335.363        5.946      864.582
01/03/2021  21:23:00       33.739      -22.331      -12.510       57.246       12.041       29.761     3277.100      144.991      885.747        0.305        0.215       40.460       38.857        0.922      335.463        6.112      864.587
01/03/2021  21:24:00       11.657       -7.181      -10.105       61.675       20.611       25.447     3803.788      424.819      647.566        0.258        0.244       13.692       34.083        6.197      335.383        5.980      864.592
01/03/2021  21:25:00      -10.341      -13.702       -6.449       65.726       21.359       33.349     4319.927      456.198     1112.178        0.311        0.294       17.166       32.365        3.555      335.402        6.011      864.586
01/03/2021  21:26:00      -54.957       -2.329        0.417       58.811       21.897       23.855     3458.720      479.457      569.065        0.377        0.225       55.006       23.552        0.183      335.402        6.010      864.577
01/03/2021  21:27:00      -16.544       -4.322        1.871       56.176       20.479       24.910     3155.770      419.410      620.503        0.224        0.210       17.099       19.899        1.354      335.399        6.006      864.572
01/03/2021  21:28:00       -8.136       -8.683       -2.487       57.901       21.897       22.976     3352.496      479.463      527.892        0.225        0.218       11.898       25.275        4.512      335.395        6.000      864.564
01/03/2021  21:29:00       12.328       -8.952       -8.306       45.259       18.303       23.953     2048.403      335.014      573.740        0.163        0.148       15.235       30.386        3.978      335.438        6.071      864.555
01/03/2021  21:30:00       27.519       -7.132       -7.941       53.667        9.400       26.942     2880.139       88.352      725.856        0.228        0.185       28.428       35.753        1.582      335.492        6.163      864.535
01/03/2021  21:31:00      -17.850      -16.007       -9.679       54.356       19.342       25.013     2954.562      374.132      625.628        0.231        0.198       23.976       31.876        1.768      335.409        6.022      864.520
01/03/2021  21:32:00      -15.063        8.487       -6.816       49.758       18.522       25.301     2475.867      343.068      640.128        0.190        0.173       17.289       29.372        2.886      335.307        5.855      864.516
01/03/2021  21:33:00      -18.101       -9.010       -9.256       51.847       19.644       24.901     2688.161      385.906      620.080        0.209        0.185       20.220       27.956        1.912      335.317        5.868      864.521
01/03/2021  21:34:00      -13.046       -5.267       -2.647       47.123       23.991       26.287     2220.565      575.560      691.001        0.185        0.174       14.069       28.441        4.087      335.300        5.843      864.536
01/03/2021  21:35:00        3.957       -5.810       -4.240       50.530       17.013       22.868     2553.296      289.427      522.937        0.172        0.168        7.030       26.973       14.723      335.333        5.895      864.552
01/03/2021  21:36:00      -55.276       15.141       -9.048       65.566       28.313       24.512     4298.841      801.603      600.831        0.453        0.285       57.312       25.473        0.198      335.259        5.776      864.560
01/03/2021  21:37:00      -49.052       29.177       -2.853       54.438       26.932       26.823     2963.442      725.306      719.456        0.384        0.220       57.073       14.733        0.067      335.165        5.619      864.562
01/03/2021  21:38:00      -51.747       16.286      -11.798       47.189       28.235       24.463     2226.780      797.213      598.426        0.335        0.181       54.249       23.315        0.185      335.162        5.614      864.565
01/03/2021  21:39:00      -71.723       39.375      -11.812       51.964       30.132       22.932     2700.219      907.924      525.859        0.548        0.207       81.820       19.242        0.055      335.138        5.573      864.578
01/03/2021  21:40:00      -74.998       26.666      -13.815       51.298       22.606       27.510     2631.435      511.050      756.797        0.521        0.195       79.597       23.056        0.084      335.148        5.590      864.595
01/03/2021  21:41:00      -25.475       17.454      -14.041       54.743       17.853       24.869     2996.791      318.714      618.452        0.254        0.197       30.881       27.926        0.818      335.177        5.639      864.597
01/03/2021  21:42:00      -20.433       -4.604      -20.273       57.298       29.809       26.658     3283.102      888.552      710.663        0.286        0.244       20.945       34.512        2.715      335.190        5.660      864.586
01/03/2021  21:43:00       10.299       23.400       -6.853       53.242        9.925       27.521     2834.727       98.509      757.381        0.219        0.185       25.566       34.650        1.837      335.244        5.749      864.564
01/03/2021  21:44:00       12.187       32.031       -6.535       48.833       15.721       22.776     2384.616      247.159      518.747        0.218        0.158       34.271       31.287        0.833      335.340        5.909      864.542
01/03/2021  21:45:00       17.288       75.773      -13.491       49.347       20.973       24.739     2435.101      439.863      612.038        0.485        0.174       77.720       28.314        0.133      335.426        6.053      864.526
01/03/2021  21:46:00       29.212       54.039       -5.583       37.054       23.074       22.788     1372.971      532.399      519.292        0.311        0.121       61.429       25.560        0.173      335.464        6.115      864.523
01/03/2021  21:47:00       39.773       23.299      -10.628       47.325       12.064       22.388     2239.701      145.545      501.226        0.256        0.144       46.095       30.675        0.443      335.466        6.117      864.528
01/03/2021  21:48:00       11.081        0.108      -17.858       46.362       19.143       22.678     2149.396      366.466      514.294        0.174        0.152       11.081       28.716        6.715      335.386        5.985      864.528
01/03/2021  21:49:00        1.181        0.344      -17.507       54.072       15.968       26.014     2923.810      254.981      676.732        0.208        0.193        1.230       33.527      742.580      335.364        5.948      864.529
01/03/2021  21:50:00       -0.899        1.703       -5.722       48.891       15.630       24.670     2390.296      244.309      608.594        0.164        0.162        1.926       28.549      219.820      335.211        5.696      864.523
01/03/2021  21:51:00      -64.877       -0.765      -10.898       44.037       14.775       23.061     1939.234      218.296      531.803        0.351        0.134       64.881       26.958        0.173      335.263        5.780      864.511
01/03/2021  21:52:00      -55.743        7.002      -13.704       44.776       12.307       23.209     2004.934      151.452      538.678        0.302        0.135       56.181       28.876        0.264      335.223        5.715      864.497
01/03/2021  21:53:00      -37.350       23.113      -15.275       38.064        7.381       18.908     1448.886       54.484      357.513        0.201        0.093       43.923       25.022        0.325      335.227        5.720      864.480
01/03/2021  21:54:00      -16.897       21.607       -7.444       43.292       10.206       21.265     1874.224      104.165      452.207        0.162        0.122       27.430       26.465        0.931      335.243        5.748      864.462
01/03/2021  21:55:00      -23.539       19.819      -17.930       51.185       10.293       23.597     2619.893      105.945      556.809        0.227        0.164       30.772       30.330        0.972      335.275        5.801      864.454
01/03/2021  21:56:00       -7.996        9.239      -17.071       44.282       16.660       20.648     1960.873      277.559      426.341        0.155        0.133       12.219       28.396        5.401      335.219        5.708      864.461
01/03/2021  21:57:00        2.321        4.065       -7.452       53.624       13.507       24.928     2875.513      182.442      621.407        0.188        0.184        4.681       33.084       49.960      335.215        5.702      864.485
01/03/2021  21:58:00      -31.277        0.683      -18.371       51.646       22.191       29.572     2667.289      492.438      874.522        0.267        0.202       31.285       31.581        1.019      335.194        5.666      864.502
01/03/2021  21:59:00      -34.291       26.735      -16.375       60.891       19.178       28.256     3707.736      367.781      798.406        0.352        0.244       43.481       34.403        0.626      335.162        5.615      864.507
01/03/2021  22:00:00      -52.404       14.151      -19.321       46.136       18.551       24.825     2128.522      344.147      616.286        0.320        0.154       54.281       30.225        0.310      335.174        5.635      864.498
01/03/2021  22:01:00      -24.112       -4.066      -16.204       50.225       24.195       23.653     2522.526      585.382      559.442        0.226        0.183       24.452       25.717        1.106      335.219        5.709      864.496
01/03/2021  22:02:00        6.191       11.241      -23.552       51.541       18.988       25.952     2656.485      360.537      673.480        0.220        0.185       12.833       33.448        6.793      335.186        5.654      864.497
01/03/2021  22:03:00        8.283       12.840      -21.068       46.492       15.023       25.134     2161.551      225.681      631.733        0.185        0.151       15.280       30.418        3.963      335.164        5.616      864.512
01/03/2021  22:04:00      -43.329       13.753      -17.135       50.587       14.370       24.799     2559.035      206.490      615.003        0.287        0.169       45.460       28.132        0.383      335.105        5.519      864.523
01/03/2021  22:05:00       16.000      -17.663      -16.297       40.917       22.317       22.781     1674.201      498.028      518.962        0.176        0.135       23.833       26.137        1.203      335.128        5.558      864.537
01/03/2021  22:06:00       10.772        6.835        2.502       45.904       30.287       26.265     2107.156      917.308      689.830        0.194        0.186       12.757       29.367        5.299      335.132        5.564      864.559
01/03/2021  22:07:00      -22.554      -28.541      -20.768       49.523       25.790       26.570     2452.488      665.104      705.946        0.279        0.191       36.376       24.929        0.470      335.120        5.545      864.585
01/03/2021  22:08:00      -76.309       24.781       -8.554       62.218       31.836       27.579     3871.066     1013.512      760.608        0.608        0.282       80.232       28.591        0.127      335.084        5.485      864.598
01/03/2021  22:09:00      -20.663        5.169        0.243       64.793       21.942       27.169     4198.136      481.473      738.140        0.293        0.271       21.300       25.805        1.468      335.225        5.718      864.597
01/03/2021  22:10:00       13.866        0.183      -13.656       61.409       20.429       30.626     3771.067      417.339      937.961        0.275        0.256       13.867       33.254        5.751      335.236        5.737      864.595
01/03/2021  22:11:00        9.471        8.026      -18.966       51.097       23.990       30.829     2610.947      575.528      950.423        0.232        0.207       12.415       25.610        4.256      335.166        5.620      864.585
01/03/2021  22:12:00      -46.406       11.927       -2.817       60.567       30.319       31.457     3668.404      919.216      989.541        0.394        0.279       47.915        9.077        0.036      335.164        5.619      864.582
01/03/2021  22:13:00      -71.151       15.867       -9.302       55.289       28.784       28.596     3056.856      828.546      817.714        0.505        0.235       72.899       12.935        0.031      335.139        5.574      864.588
01/03/2021  22:14:00      -68.847       19.995       -9.519       55.267       25.916       26.846     3054.417      671.648      720.731        0.484        0.222       71.692       21.393        0.089      335.147        5.590      864.589
01/03/2021  22:15:00      -57.334        9.431      -18.974       50.661       32.500       24.502     2566.571     1056.263      600.330        0.398        0.211       58.104       24.783        0.182      335.167        5.621      864.576
01/03/2021  22:16:00      -59.317       15.729       -9.887       51.192       26.167       23.726     2620.596      684.721      562.934        0.387        0.193       61.367       19.602        0.102      335.158        5.607      864.550
01/03/2021  22:17:00      -63.402       31.245       -4.067       52.713       28.625       23.997     2778.691      819.370      575.870        0.459        0.209       70.683       15.732        0.050      335.115        5.535      864.523
01/03/2021  22:18:00      -76.621       24.855       -4.452       43.464       29.503       23.053     1889.161      870.413      531.428        0.490        0.165       80.551       19.702        0.060      335.122        5.548      864.497
01/03/2021  22:19:00      -58.833       23.066       -5.697       55.910       23.106       27.528     3125.904      533.878      757.808        0.422        0.221       63.193       25.671        0.165      335.193        5.664      864.491
01/03/2021  22:20:00      -70.894       20.070      -10.960       51.518       21.156       24.254     2654.121      447.573      588.254        0.462        0.184       73.680       29.578        0.161      335.205        5.685      864.476
01/03/2021  22:21:00      -63.524        7.746       -6.454       64.118       17.036       22.700     4111.141      290.218      515.274        0.453        0.246       63.995       23.572        0.136      335.194        5.668      864.473
01/03/2021  22:22:00      -55.846       13.326      -10.651       43.061       19.661       19.700     1854.231      386.568      388.075        0.302        0.131       57.414       25.332        0.195      335.208        5.690      864.479
01/03/2021  22:23:00      -51.681        9.743      -13.102       48.863       14.452       24.098     2387.629      208.859      580.699        0.306        0.159       52.592       32.091        0.372      335.185        5.651      864.483
01/03/2021  22:24:00      -45.359        6.444      -13.412       47.544       16.218       22.896     2260.414      263.037      524.224        0.266        0.152       45.815       27.668        0.365      335.196        5.668      864.484
01/03/2021  22:25:00      -43.061       -0.749      -11.142       53.118       16.744       22.716     2821.472      280.362      515.995        0.280        0.181       43.068       28.984        0.453      335.211        5.695      864.482
01/03/2021  22:26:00      -31.643       14.598       -6.430       50.224       17.459       22.974     2522.425      304.820      527.808        0.230        0.168       34.848       28.274        0.658      335.160        5.610      864.473
01/03/2021  22:27:00      -27.300       16.575       -3.471       41.362       15.859       21.132     1710.805      251.502      446.544        0.172        0.120       31.938       24.921        0.609      335.145        5.585      864.469
01/03/2021  22:28:00        7.624       -0.451       -2.947       48.691       15.629       25.250     2370.791      244.269      637.586        0.166        0.163        7.637       32.101       17.666      335.259        5.773      864.453
01/03/2021  22:29:00       32.997        6.093      -10.737       47.764       10.129       23.433     2281.371      102.588      549.086        0.209        0.147       33.555       32.356        0.930      335.317        5.871      864.444
01/03/2021  22:30:00       10.469       14.694      -21.311       53.847       12.915       26.156     2899.518      166.804      684.136        0.226        0.188       18.042       35.037        3.771      335.299        5.841      864.446
01/03/2021  22:31:00      -12.129       16.753      -12.487       47.417        8.836       23.255     2248.331       78.078      540.795        0.172        0.143       20.683       31.729        2.353      335.239        5.740      864.431
01/03/2021  22:32:00       -1.715       -9.557      -13.403       47.677       17.743       23.391     2273.084      314.811      547.128        0.170        0.157        9.710       29.562        9.269      335.271        5.794      864.419
01/03/2021  22:33:00        4.742      -23.618      -17.000       53.514       11.385       26.086     2863.779      129.626      680.483        0.227        0.184       24.089       33.406        1.923      335.334        5.897      864.420
01/03/2021  22:34:00       12.935      -38.289      -19.772       56.082       13.657       28.214     3145.170      186.509      796.027        0.308        0.206       40.415       38.126        0.890      335.444        6.080      864.430
01/03/2021  22:35:00       29.196      -54.596      -36.671       54.642       18.319       25.499     2985.734      335.581      650.174        0.457        0.199       61.912       34.313        0.307      335.350        5.925      864.449
01/03/2021  22:36:00       15.893      -27.927      -26.054       49.678       22.896       23.774     2467.929      524.234      565.184        0.263        0.178       32.133       32.386        1.016      335.458        6.106      864.460
01/03/2021  22:37:00        1.470       10.107      -12.841       54.164       18.841       26.742     2933.758      354.987      715.121        0.214        0.200       10.213       35.921       12.370      335.394        5.996      864.467
01/03/2021  22:38:00       -4.457        7.801      -14.520       49.560       20.961       26.284     2456.203      439.348      690.857        0.194        0.179        8.984       32.181       12.830      335.349        5.923      864.459
01/03/2021  22:39:00        7.502        1.493      -17.797       50.426       15.624       22.917     2542.754      244.109      525.197        0.184        0.166        7.649       31.820       17.306      335.372        5.960      864.471
01/03/2021  22:40:00        4.507       -5.578       -8.958       52.558       23.319       26.134     2762.319      543.795      682.986        0.206        0.199        7.171       31.791       19.653      335.401        6.008      864.472
01/03/2021  22:41:00      -35.452      -30.031       -2.018       60.327       28.483       30.697     3639.345      811.297      942.334        0.378        0.270       46.462       21.443        0.213      335.428        6.056      864.474
01/03/2021  22:42:00      -92.637      -20.869       -1.414       72.301       45.577       33.049     5227.411     2077.303     1092.210        0.871        0.420       94.958       15.503        0.027      335.318        5.871      864.484
01/03/2021  22:43:00     -134.559      -19.638        1.372       90.841       55.495       40.284     8252.116     3079.673     1622.787        1.572        0.648      135.984       36.577        0.072      335.227        5.720      864.495
01/03/2021  22:44:00     -104.046      -32.349      -16.718       75.588       42.236       34.449     5713.562     1783.906     1186.749        1.042        0.434      108.959       13.552        0.015      335.224        5.716      864.507
01/03/2021  22:45:00      -95.086      -22.203       -7.058       62.683       35.130       35.744     3929.134     1234.133     1277.667        0.801        0.322       97.643       18.862        0.037      335.188        5.658      864.513
01/03/2021  22:46:00      -82.547      -24.202      -10.909       47.213       24.471       29.344     2229.026      598.811      861.084        0.560        0.184       86.022       20.745        0.058      335.224        5.716      864.510
01/03/2021  22:47:00      -22.770      -19.950       -6.831       60.784       29.591       31.694     3694.679      875.651     1004.526        0.327        0.279       30.274       19.889        0.432      335.282        5.813      864.509
01/03/2021  22:48:00      -84.067      -17.926      -20.819       65.342       21.223       30.034     4269.603      450.435      902.021        0.672        0.281       85.957       13.410        0.024      335.216        5.702      864.510
01/03/2021  22:49:00      -85.262      -37.413      -15.952       62.955       31.208       31.219     3963.358      973.940      974.636        0.742        0.296       93.109       30.661        0.108      335.214        5.700      864.501
01/03/2021  22:50:00      -93.567       -7.866      -15.465       50.583       40.480       27.436     2558.654     1638.661      752.718        0.700        0.248       93.897       15.180        0.026      335.151        5.595      864.486
01/03/2021  22:51:00     -113.064      -18.585       -9.986       56.399       40.613       26.414     3180.814     1649.447      697.722        0.938        0.276      114.581       21.374        0.035      335.143        5.582      864.463
01/03/2021  22:52:00      -89.317        1.039      -15.311       66.891       41.651       29.898     4474.392     1734.812      893.884        0.766        0.355       89.324       27.384        0.094      335.185        5.651      864.440
01/03/2021  22:53:00      -38.219      -18.974      -11.320       52.129       27.760       28.603     2717.475      770.607      818.108        0.313        0.215       42.669       20.697        0.235      335.192        5.663      864.426
01/03/2021  22:54:00      -60.590       10.478      -16.271       56.592       23.489       23.589     3202.699      551.714      556.452        0.418        0.216       61.490       29.366        0.228      335.176        5.637      864.446
01/03/2021  22:55:00      -21.773      -17.808       -8.479       59.270       32.085       30.594     3512.982     1029.446      936.000        0.317        0.274       28.128       29.132        1.073      335.196        5.671      864.478
01/03/2021  22:56:00      -74.796       11.394       -0.759       98.893       37.105       29.726     9779.805     1376.764      883.652        0.888        0.602       75.659       23.777        0.099      335.133        5.565      864.521
01/03/2021  22:57:00     -118.174       14.573      -10.160       66.282       37.347       26.753     4393.240     1394.793      715.710        1.039        0.325      119.069       14.032        0.014      335.097        5.504      864.558
01/03/2021  22:58:00      -74.825       42.565      -14.657       54.599       31.138       32.586     2981.039      969.593     1061.859        0.632        0.251       86.085       13.040        0.023      335.048        5.424      864.566
01/03/2021  22:59:00      -84.440       24.438       -7.358       54.763       39.306       29.212     2998.960     1544.931      853.324        0.659        0.270       87.905       19.093        0.047      335.001        5.347      864.562
01/03/2021  23:00:00      -41.658       11.213      -12.184       56.249       16.816       23.552     3163.957      282.790      554.716        0.300        0.200       43.140       25.431        0.348      334.993        5.333      864.549
01/03/2021  23:01:00        6.287       37.876       -3.732       56.864       28.841       27.553     3233.486      831.796      759.190        0.316        0.241       38.394       31.189        0.660      335.054        5.435      864.530
01/03/2021  23:02:00      -10.343       82.897      -12.960       51.776       37.870       27.816     2680.747     1434.119      773.743        0.602        0.244       83.539       31.940        0.146      335.015        5.369      864.518
01/03/2021  23:03:00       -6.048       90.929       -8.754       43.707       32.963       22.172     1910.281     1086.566      491.606        0.593        0.174       91.130       21.384        0.055      335.056        5.439      864.522
01/03/2021  23:04:00       24.802       78.727      -22.636       58.352       30.451       26.845     3404.989      927.291      720.679        0.619        0.253       82.542       36.529        0.196      335.094        5.500      864.528
01/03/2021  23:05:00       59.757       37.615      -17.575       54.521       25.231       28.746     2972.560      636.626      826.313        0.486        0.222       70.610       33.659        0.227      335.116        5.538      864.516
01/03/2021  23:06:00      120.519       51.545      -29.535       55.678       25.276       30.005     3100.072      638.868      900.300        1.135        0.232      131.079       34.620        0.070      335.099        5.509      864.488
01/03/2021  23:07:00      103.401       33.808      -30.568       56.079       25.579       26.770     3144.902      654.271      716.659        0.864        0.226      108.788       36.394        0.112      335.057        5.440      864.458
01/03/2021  23:08:00       56.560       18.804      -23.128       57.717       12.082       27.129     3331.226      145.974      735.991        0.415        0.211       59.603       37.765        0.401      335.082        5.481      864.434
01/03/2021  23:09:00       33.024        6.647      -12.056       52.172       10.680       25.030     2721.959      114.064      626.501        0.237        0.173       33.686       35.604        1.117      335.193        5.665      864.422
01/03/2021  23:10:00       40.778        3.502      -17.582       59.356       14.327       27.992     3523.096      205.256      783.546        0.325        0.226       40.929       39.350        0.924      335.219        5.707      864.415
01/03/2021  23:11:00       31.321        0.782      -13.338       52.888       17.010       24.706     2797.167      289.324      610.411        0.243        0.185       31.331       33.731        1.159      335.254        5.764      864.402
01/03/2021  23:12:00       52.872       21.592      -15.972       55.644        7.827       26.131     3096.288       61.266      682.844        0.368        0.192       57.111       37.724        0.436      335.467        6.119      864.397
01/03/2021  23:13:00       23.303       19.736       -7.265       51.238        7.339       24.549     2625.341       53.866      602.655        0.213        0.164       30.538       34.468        1.274      335.388        5.990      864.400
01/03/2021  23:14:00        5.909       18.573      -13.399       40.858        4.994       19.906     1669.394       24.942      396.231        0.132        0.105       19.490       27.839        2.040      335.206        5.686      864.414
01/03/2021  23:15:00        7.040        7.960      -11.770       46.886        7.975       22.895     2198.283       63.607      524.171        0.152        0.139       10.627       31.241        8.642      335.281        5.810      864.414
01/03/2021  23:16:00       30.583       25.169       -6.737       47.960       15.847       24.516     2300.192      251.129      601.045        0.238        0.158       39.608       31.780        0.644      335.402        6.011      864.411
01/03/2021  23:17:00       39.544       24.485      -10.583       56.639        8.134       25.991     3207.940       66.166      675.544        0.311        0.197       46.510       37.201        0.640      335.501        6.176      864.409
01/03/2021  23:18:00       27.818        4.862      -11.311       52.553        8.881       25.859     2761.850       78.875      668.675        0.222        0.175       28.240       36.312        1.653      335.452        6.093      864.404
01/03/2021  23:19:00       -4.113       -5.054      -17.870       49.750        9.744       24.363     2475.083       94.950      593.553        0.176        0.158        6.516       32.884       25.466      335.287        5.820      864.403
01/03/2021  23:20:00      -13.359        8.158      -11.728       48.101        9.323       22.640     2313.682       86.926      512.583        0.165        0.146       15.653       31.513        4.053      335.252        5.763      864.400
01/03/2021  23:21:00      -15.830        6.543      -17.474       46.127        4.743       22.533     2127.745       22.494      507.743        0.163        0.133       17.129       32.031        3.497      335.306        5.851      864.385
01/03/2021  23:22:00       -0.234       -0.276      -14.378       48.793       11.469       23.082     2380.732      131.540      532.762        0.163        0.152        0.362       32.990     8325.939      335.424        6.050      864.376
01/03/2021  23:23:00       -9.705        0.797      -14.587       59.665       14.886       27.849     3559.918      221.591      775.569        0.243        0.228        9.738       34.203       12.338      335.339        5.908      864.372
01/03/2021  23:24:00      -40.663       13.353      -12.141       41.890        9.609       20.258     1754.754       92.325      410.397        0.212        0.113       42.799       27.400        0.410      335.176        5.637      864.348
01/03/2021  23:25:00       -1.068        6.651      -13.530       51.446        7.465       24.970     2646.653       55.726      623.476        0.178        0.166        6.736       33.892       25.315      335.233        5.731      864.316
01/03/2021  23:26:00       11.823       -6.093      -14.159       51.166        3.934       23.878     2617.923       15.479      570.158        0.179        0.160       13.301       34.380        6.681      335.386        5.984      864.291
01/03/2021  23:27:00       19.028      -18.015      -12.260       53.696       11.709       25.859     2883.250      137.111      668.665        0.226        0.184       26.203       36.672        1.959      335.485        6.150      864.290
01/03/2021  23:28:00       24.404       -6.863      -14.779       52.208        9.910       27.153     2725.646       98.208      737.303        0.221        0.178       25.351       36.710        2.097      335.438        6.071      864.293
01/03/2021  23:29:00        9.630       14.912       -7.002       49.444        6.053       24.503     2444.746       36.635      600.420        0.172        0.154       17.751       34.032        3.676      335.358        5.939      864.270
01/03/2021  23:30:00       63.277       29.823      -12.859       57.519       11.072       25.878     3308.464      122.585      669.678        0.458        0.205       69.953       36.852        0.278      335.311        5.860      864.227
01/03/2021  23:31:00       40.263        1.273      -21.227       53.452       16.010       24.270     2857.129      256.316      589.032        0.289        0.185       40.283       32.708        0.659      335.303        5.846      864.187
01/03/2021  23:32:00        8.058      -27.580      -24.770       60.022       17.852       27.503     3602.687      318.690      756.390        0.306        0.234       28.733       37.420        1.696      335.356        5.935      864.176
01/03/2021  23:33:00      -12.592      -42.263      -23.669       52.221       17.007       26.450     2727.013      289.232      699.627        0.311        0.186       44.100       34.007        0.595      335.278        5.805      864.179
01/03/2021  23:34:00        6.141       -4.666      -19.283       49.272       19.407       26.704     2427.750      376.644      713.125        0.197        0.176        7.713       34.205       19.668      335.223        5.713      864.163
01/03/2021  23:35:00       18.552       12.484      -12.950       50.388        4.913       24.635     2538.930       24.142      606.867        0.192        0.158       22.361       34.724        2.411      335.235        5.734      864.113
01/03/2021  23:36:00       32.600        9.295      -10.424       55.796        7.047       25.646     3113.199       49.659      657.720        0.254        0.191       33.899       37.222        1.206      335.237        5.736      864.051
01/03/2021  23:37:00       59.776       14.803      -19.186       53.014       13.381       26.479     2810.501      179.049      701.116        0.392        0.185       61.582       35.109        0.325      335.117        5.540      864.004
01/03/2021  23:38:00       51.889       20.564      -12.352       51.849       22.350       26.511     2688.342      499.539      702.837        0.358        0.195       55.815       35.289        0.400      334.980        5.312      863.970
01/03/2021  23:39:00       49.113       42.937      -15.606       54.593       16.566       26.577     2980.409      274.427      706.337        0.423        0.198       65.236       36.274        0.309      335.001        5.345      863.932
01/03/2021  23:40:00       22.614       50.658      -13.920       51.789        9.583       24.668     2682.130       91.828      608.529        0.333        0.169       55.476       34.396        0.384      335.089        5.494      863.894
01/03/2021  23:41:00        2.964       37.956       -6.772       53.770       22.875       24.464     2891.256      523.275      598.497        0.275        0.201       38.072       32.235        0.717      335.043        5.416      863.873
01/03/2021  23:42:00       -8.042       -0.402      -10.680       52.816       18.741       28.272     2789.560      351.215      799.285        0.206        0.197        8.052       33.565       17.378      334.723        4.885      863.855
01/03/2021  23:43:00        5.246       -4.235      -19.110       61.035       20.201       29.543     3725.218      408.065      872.785        0.271        0.250        6.742       33.097       24.101      334.707        4.857      863.835
01/03/2021  23:44:00       24.944      -19.039      -20.494       54.105       21.554       28.840     2927.349      464.557      831.728        0.281        0.211       31.380       36.451        1.349      334.879        5.142      863.834
01/03/2021  23:45:00       70.316      -21.896      -37.630       65.679       30.666       34.064     4313.715      940.403     1160.336        0.663        0.321       73.646       44.986        0.373      335.065        5.453      863.815
01/03/2021  23:46:00       70.728       -3.383      -35.890       64.326       28.004       35.414     4137.881      784.234     1254.123        0.624        0.309       70.809       42.136        0.354      335.022        5.380      863.793
01/03/2021  23:47:00       50.002        2.128      -37.551       53.233       38.074       28.622     2833.699     1449.657      819.217        0.451        0.255       50.047       34.864        0.485      335.067        5.456      863.769
01/03/2021  23:48:00       25.447      -21.023      -26.350       58.647       19.538       26.635     3439.496      381.743      709.432        0.316        0.227       33.007       35.564        1.161      335.086        5.487      863.769
01/03/2021  23:49:00       31.819       -7.504      -20.975       50.902       11.718       24.153     2591.025      137.315      583.382        0.241        0.166       32.691       34.062        1.086      335.047        5.423      863.774
01/03/2021  23:50:00       46.305      -53.435      -26.212       65.014       29.350       30.646     4226.830      861.406      939.184        0.586        0.301       70.706       43.530        0.379      335.110        5.528      863.777
01/03/2021  23:51:00       33.088      -57.777      -31.047       69.921       33.130       30.281     4888.892     1097.578      916.966        0.615        0.345       66.581       41.455        0.388      335.008        5.358      863.790
01/03/2021  23:52:00       48.993      -62.194      -27.150       67.988       32.441       30.605     4622.376     1052.394      936.644        0.681        0.331       79.173       37.303        0.222      334.989        5.326      863.826
01/03/2021  23:53:00        2.355       -0.873      -21.176       60.056       14.100       27.583     3606.712      198.802      760.820        0.251        0.228        2.512       34.302      186.453      334.849        5.095      863.882
01/03/2021  23:54:00       34.623        1.805      -26.574       65.587       27.577       27.680     4301.664      760.481      766.200        0.387        0.291       34.670       34.963        1.017      334.857        5.108      863.899
01/03/2021  23:55:00       36.325        3.784      -22.581       62.565       18.983       29.320     3914.405      360.357      859.684        0.349        0.257       36.522       35.447        0.942      334.829        5.061      863.893
01/03/2021  23:56:00       36.298       15.792      -22.110       54.264       11.318       26.400     2944.611      128.106      696.953        0.291        0.188       39.584       35.646        0.811      334.797        5.007      863.891
01/03/2021  23:57:00       43.565       19.769      -10.880       62.378       17.038       27.534     3891.004      290.282      758.120        0.367        0.247       47.841       39.148        0.670      334.801        5.014      863.893
01/03/2021  23:58:00        0.736       37.625      -18.067       53.748       17.037       22.985     2888.869      290.255      528.295        0.272        0.185       37.632       30.373        0.651      334.749        4.929      863.908
01/03/2021  23:59:00      -37.101       16.100      -16.856       51.750       12.452       26.876     2678.040      155.061      722.343        0.274        0.178       40.443       32.747        0.656      334.759        4.945      863.952
01/04/2021  00:00:00       32.431       21.617      -11.122       64.512       11.268       29.359     4161.767      126.972      861.935        0.340        0.258       38.975       40.066        1.057      334.759        4.945      863.970
01/04/2021  00:01:00       85.100       13.448      -15.739       62.880       15.710       28.486     3953.935      246.803      811.426        0.634        0.251       86.156       40.667        0.223      334.871        5.131      863.957
01/04/2021  00:02:00      111.167       28.119       -9.312       48.066       22.458       30.078     2310.300      504.362      904.694        0.848        0.186      114.669       35.562        0.096      334.805        5.019      863.930
01/04/2021  00:03:00       87.823        5.533      -13.230       66.879       33.691       31.561     4472.748     1135.098      996.082        0.726        0.330       87.997       34.987        0.158      334.801        5.013      863.880
01/04/2021  00:04:00      119.633       26.613      -16.578       66.414       37.879       37.739     4410.851     1434.836     1424.244        1.128        0.363      122.558       43.689        0.127      334.672        4.798      863.836
01/04/2021  00:05:00      147.717       80.095      -25.322       55.488       18.072       28.910     3078.930      326.596      835.797        1.656        0.212      168.034       37.782        0.051      334.617        4.708      863.820
01/04/2021  00:06:00      115.101       43.543      -22.094       64.636       33.026       32.155     4177.829     1090.715     1033.963        1.097        0.315      123.062       42.331        0.118      334.572        4.632      863.848
01/04/2021  00:07:00       51.989      -65.069      -30.346       62.791       42.665       31.337     3942.688     1820.307      981.992        0.730        0.337       83.287       38.897        0.218      334.768        4.959      863.927
01/04/2021  00:08:00       82.912      -98.390      -39.063       71.774       26.262       32.619     5151.460      689.683     1063.994        1.249        0.345      128.667       45.486        0.125      334.690        4.828      863.997
01/04/2021  00:09:00       74.816      -75.816      -22.083       60.809       32.057       34.498     3697.675     1027.629     1190.100        0.887        0.296      106.516       36.222        0.116      334.738        4.907      863.996
01/04/2021  00:10:00       47.786      -34.794      -15.163       53.716       36.975       26.363     2885.440     1367.128      695.005        0.433        0.247       59.111       30.181        0.261      334.823        5.049      863.950
01/04/2021  00:11:00       84.506      -25.304      -34.237       66.818       51.619       37.440     4464.590     2664.475     1401.730        0.874        0.427       88.213       44.350        0.253      334.844        5.083      863.866
01/04/2021  00:12:00       42.171       -9.961       -1.683       52.869       47.684       39.610     2795.149     2273.776     1568.929        0.426        0.332       43.331       33.268        0.589      334.764        4.952      863.769
01/04/2021  00:13:00      103.594      -43.980      -30.668       70.788       63.819       46.082     5010.968     4072.841     2123.593        1.240        0.560      112.543       47.766        0.180      334.783        4.983      863.698
01/04/2021  00:14:00       85.338      -22.424      -16.106       74.095       52.510       42.119     5490.112     2757.270     1774.013        0.903        0.501       88.235       44.177        0.251      334.661        4.780      863.701
01/04/2021  00:15:00      119.730      -10.655      -23.053       74.393       36.468       37.062     5534.296     1329.935     1373.590        1.161        0.412      120.204       43.442        0.131      334.533        4.568      863.729
01/04/2021  00:16:00       79.559        7.941      -18.925       75.182       31.703       33.658     5652.355     1005.049     1132.864        0.727        0.390       79.955       41.954        0.275      334.598        4.677      863.735
01/04/2021  00:17:00       37.909       11.700      -10.095       47.900       36.750       31.879     2294.457     1350.549     1016.291        0.317        0.233       39.674       27.204        0.470      334.565        4.620      863.717
01/04/2021  00:18:00       67.952       19.292      -18.448       47.291       30.514       24.759     2236.453      931.075      612.985        0.455        0.189       70.638       29.106        0.170      334.542        4.582      863.685
01/04/2021  00:19:00      123.220      -30.945      -12.889       60.697       33.675       34.128     3684.152     1134.029     1164.749        1.114        0.299      127.046       40.576        0.102      334.566        4.624      863.673
01/04/2021  00:20:00       88.032       -3.512      -20.028       65.331       44.774       33.806     4268.191     2004.747     1142.838        0.779        0.371       88.102       42.852        0.237      334.605        4.688      863.694
01/04/2021  00:21:00       72.898       12.773      -22.607       61.981       37.682       28.530     3841.692     1419.957      813.980        0.603        0.304       74.008       35.805        0.234      334.560        4.612      863.717
01/04/2021  00:22:00       75.481       -8.542      -16.902       68.618       18.331       32.503     4708.432      336.031     1056.446        0.608        0.305       75.963       43.329        0.325      334.514        4.537      863.731
01/04/2021  00:23:00      -17.420       23.941      -17.304       51.803       17.304       22.811     2683.594      299.423      520.322        0.234        0.175       29.608       31.036        1.099      334.419        4.381      863.749
01/04/2021  00:24:00       17.641       -9.649      -10.366       65.226       27.376       34.052     4254.496      749.435     1159.547        0.334        0.308       20.108       29.240        2.115      334.289        4.165      863.780
01/04/2021  00:25:00       36.702        3.882      -11.549       65.379       31.191       30.026     4274.441      972.851      901.576        0.382        0.307       36.906       32.742        0.787      334.303        4.188      863.799
01/04/2021  00:26:00      -17.834      -13.557       -9.079       56.643       51.167       32.987     3208.445     2618.111     1088.124        0.375        0.346       22.402       25.660        1.312      334.423        4.385      863.794
01/04/2021  00:27:00     -146.294       25.421        0.794       71.460       45.251       29.600     5106.482     2047.674      876.177        1.504        0.402      148.487       28.261        0.036      334.369        4.296      863.753
01/04/2021  00:28:00      -79.503       31.530       15.872      104.519       39.133       37.710    10924.248     1531.382     1422.043        1.072        0.694       85.527       38.125        0.199      334.338        4.244      863.692
01/04/2021  00:29:00      -90.084       31.076       -0.592       68.745       46.598       31.282     4725.926     2171.420      978.547        0.848        0.394       95.294       20.425        0.046      334.260        4.115      863.652
01/04/2021  00:30:00      -78.131       30.564       -4.515       63.245       50.352       29.688     3999.991     2535.295      881.399        0.724        0.371       83.897       10.023        0.014      334.282        4.152      863.663
01/04/2021  00:31:00      -93.300       16.685       -8.097       56.784       53.156       28.825     3224.377     2825.608      830.872        0.796        0.344       94.780       13.285        0.020      334.236        4.076      863.698
01/04/2021  00:32:00      -12.850       42.056      -18.905       41.083       20.884       22.494     1687.820      436.134      505.999        0.246        0.131       43.975       24.351        0.307      334.147        3.927      863.673
01/04/2021  00:33:00      -17.131      -31.358      -29.329       51.651       22.418       27.184     2667.838      502.557      738.950        0.302        0.195       35.732       31.359        0.770      334.364        4.289      863.607
01/04/2021  00:34:00      -11.389      -26.257      -31.640       46.123       51.783       23.769     2127.290     2681.529      564.957        0.360        0.269       28.620       26.209        0.839      334.412        4.369      863.581
01/04/2021  00:35:00       -5.526       -0.841       -1.935       67.970       40.289       39.837     4619.890     1623.166     1586.970        0.393        0.392        5.590        9.766        3.052      334.331        4.234      863.620
01/04/2021  00:36:00     -126.718      -26.222        3.484      114.972       49.013       41.857    13218.616     2402.302     1752.018        1.706        0.869      129.402       40.440        0.098      334.325        4.222      863.650
01/04/2021  00:37:00     -159.123       14.265       -8.570       75.535       51.577       33.432     5705.497     2660.199     1117.711        1.754        0.474      159.762       21.811        0.019      334.291        4.165      863.598
01/04/2021  00:38:00     -120.970       35.369        2.236       64.779       50.703       35.311     4196.284     2570.836     1246.860        1.195        0.401      126.035       30.944        0.060      334.209        4.028      863.516
01/04/2021  00:39:00     -115.466       38.404       -0.967       52.863       35.130       29.536     2794.507     1234.089      872.404        0.985        0.245      121.685       22.444        0.034      334.140        3.915      863.441
01/04/2021  00:40:00      -73.431       42.804       -8.372       47.458       34.400       28.223     2252.265     1183.333      796.523        0.576        0.212       84.995       13.739        0.026      334.201        4.017      863.377
01/04/2021  00:41:00     -101.355       14.223      -27.156       51.234       34.940       28.551     2624.960     1220.775      815.165        0.794        0.233      102.348       25.281        0.061      334.151        3.934      863.362
01/04/2021  00:42:00      -43.990        1.915       -7.635       76.843       29.093       29.434     5904.832      846.397      866.359        0.481        0.381       44.032       19.171        0.190      334.145        3.925      863.419
01/04/2021  00:43:00      -47.124       -0.669      -13.092       93.455       42.411       33.702     8733.879     1798.721     1135.858        0.703        0.583       47.129       12.008        0.065      334.193        4.003      863.478
01/04/2021  00:44:00     -100.828       -2.634      -17.308       81.539       46.870       29.809     6648.605     2196.808      888.555        1.010        0.487      100.863       26.403        0.069      334.108        3.860      863.459
01/04/2021  00:45:00     -163.868       41.896        2.065       81.899       57.596       36.056     6707.522     3317.294     1300.047        1.997        0.566      169.139       31.793        0.035      333.960        3.616      863.395
01/04/2021  00:46:00     -149.855       10.175      -10.902      124.965       77.370       51.737    15616.170     5986.115     2676.684        2.347        1.214      150.200       50.541        0.113      333.915        3.541      863.393
01/04/2021  00:47:00      -53.945       31.659       10.756      115.147       66.113       44.465    13258.857     4370.910     1977.095        1.181        0.980       62.549       25.721        0.169      333.926        3.560      863.394
01/04/2021  00:48:00     -101.912       36.637       -2.207       65.759       36.862       30.357     4324.199     1358.843      921.577        0.917        0.330      108.297       23.169        0.046      334.008        3.697      863.339
01/04/2021  00:49:00      -30.248       31.779       -2.151       53.418       24.829       25.718     2853.513      616.478      661.394        0.303        0.207       43.873       25.925        0.349      334.036        3.745      863.325
01/04/2021  00:50:00      -76.994        3.351      -12.992       45.328       28.268       22.650     2054.606      799.093      513.032        0.474        0.168       77.067       23.207        0.091      334.019        3.717      863.310
01/04/2021  00:51:00      -28.909       -0.805      -12.519       60.612       29.422       28.731     3673.806      865.676      825.444        0.318        0.268       28.921       28.436        0.967      334.086        3.828      863.313
01/04/2021  00:52:00      -18.346       25.611      -19.083       46.253       19.321       27.473     2139.366      373.303      754.781        0.231        0.163       31.504       22.820        0.525      334.048        3.763      863.311
01/04/2021  00:53:00       10.196       90.451      -14.348       45.204       34.650       24.104     2043.377     1200.619      580.987        0.616        0.191       91.023       22.396        0.061      334.155        3.940      863.290
01/04/2021  00:54:00      -23.922       97.363      -16.529       51.701       32.496       24.574     2672.998     1055.984      603.861        0.733        0.217      100.259       23.181        0.053      334.230        4.066      863.269
01/04/2021  00:55:00       -0.390       60.272       -7.231       32.900       21.060       21.414     1082.391      443.515      458.539        0.283        0.099       60.274       16.223        0.072      334.203        4.021      863.294
01/04/2021  00:56:00       14.741       25.535       -8.210       50.577       27.347       25.347     2558.055      747.850      642.493        0.244        0.197       29.484       29.269        0.985      334.278        4.144      863.373
01/04/2021  00:57:00      -26.968        1.676       -8.370       46.967       43.420       32.602     2205.906     1885.265     1062.888        0.298        0.258       27.020        9.019        0.111      334.278        4.146      863.504
01/04/2021  00:58:00     -129.091      -32.092       -4.271       83.939       46.242       36.210     7045.710     2138.368     1311.171        1.410        0.525      133.020       26.661        0.040      334.085        3.822      863.580
01/04/2021  00:59:00     -110.682       -8.793      -10.857       76.365       45.440       36.391     5831.581     2064.754     1324.314        1.083        0.461      111.031       17.353        0.024      334.011        3.703      863.558
01/04/2021  01:00:00      -62.090        8.969       -7.851       66.703       33.796       23.278     4449.330     1142.152      541.847        0.506        0.307       62.734       13.817        0.049      334.010        3.702      863.458
01/04/2021  01:01:00      -55.856       41.798       -8.790       34.373       23.378       17.190     1181.504      546.544      295.483        0.348        0.101       69.763       12.627        0.033      334.050        3.768      863.361
01/04/2021  01:02:00      -29.493       -3.054       -8.993       51.185       23.552       22.437     2619.909      554.711      503.423        0.232        0.184       29.651       23.975        0.654      334.182        3.986      863.338
01/04/2021  01:03:00        0.043       -8.151       -7.806       42.537       22.316       23.648     1809.415      498.002      559.227        0.150        0.143        8.151       28.576       12.290      334.241        4.084      863.339
01/04/2021  01:04:00      -82.649       24.327      -12.359       39.804       21.383       25.081     1584.396      457.241      629.042        0.512        0.134       86.154       16.909        0.039      334.163        3.954      863.306
01/04/2021  01:05:00     -128.519       71.365      -17.602       34.957       24.984       19.011     1221.983      624.208      361.425        1.206        0.110      147.004        7.450        0.003      334.025        3.726      863.255
01/04/2021  01:06:00     -133.159       19.802      -20.651       38.612       34.995       22.209     1490.901     1224.625      493.257        1.088        0.160      134.623       14.991        0.012      334.008        3.700      863.262
01/04/2021  01:07:00      -11.165       13.155        1.203       59.602       30.285       27.934     3552.371      917.202      780.333        0.277        0.262       17.254       13.205        0.586      333.988        3.665      863.310
01/04/2021  01:08:00      -12.271        1.073      -11.140       58.344       30.145       29.812     3403.998      908.722      888.760        0.274        0.260       12.318       18.079        2.154      334.053        3.773      863.333
01/04/2021  01:09:00     -124.330       10.018       -6.452       50.176       32.720       24.686     2517.667     1070.620      609.380        0.990        0.210      124.733        9.948        0.006      334.014        3.708      863.326
01/04/2021  01:10:00      -97.383        8.102       -3.143       48.775       23.953       18.994     2378.957      573.747      360.755        0.644        0.166       97.719       14.290        0.021      334.067        3.795      863.313
01/04/2021  01:11:00      -50.441      -12.471       -6.138       72.035       28.339       23.839     5189.085      803.119      568.293        0.465        0.328       51.959       16.686        0.103      334.105        3.856      863.289
01/04/2021  01:12:00      -44.593       17.822      -10.178       42.389       12.286       18.427     1796.790      150.952      339.568        0.235        0.114       48.022       21.440        0.199      334.070        3.801      863.228
01/04/2021  01:13:00       31.219       13.630      -10.365       44.913       12.225       18.929     2017.149      149.458      358.296        0.190        0.126       34.065       26.743        0.616      334.050        3.766      863.150
01/04/2021  01:14:00      110.202       56.029      -16.588       57.426       21.301       28.465     3297.712      453.743      810.236        1.006        0.228      123.628       36.046        0.085      334.034        3.740      863.082
01/04/2021  01:15:00      125.887       38.175      -15.659       80.567       49.432       34.040     6491.059     2443.478     1158.711        1.382        0.505      131.548       43.384        0.109      333.862        3.455      863.052
01/04/2021  01:16:00      121.999       72.260      -18.835       63.780       30.341       32.324     4067.907      920.567     1044.816        1.325        0.302      141.793       31.881        0.051      333.781        3.320      863.085
01/04/2021  01:17:00       45.750        8.703      -10.063       63.081       39.603       27.142     3979.159     1568.375      736.702        0.428        0.314       46.570       36.196        0.604      333.933        3.574      863.235
01/04/2021  01:18:00      -24.626      -70.765      -21.764       40.383       32.025       25.174     1630.825     1025.612      633.746        0.469        0.165       74.928       18.936        0.064      334.107        3.860      863.384
01/04/2021  01:19:00       28.980       42.340       -3.108       63.488       31.108       24.577     4030.787      967.708      604.009        0.412        0.280       51.308       32.578        0.403      334.095        3.839      863.374
01/04/2021  01:20:00      162.585       44.181      -18.468       57.158       29.256       32.383     3267.065      855.886     1048.659        1.695        0.259      168.481       34.746        0.043      334.078        3.815      863.205
01/04/2021  01:21:00      175.993       62.209      -19.263       65.498       59.043       37.786     4290.016     3486.094     1427.801        2.221        0.460      186.664       39.273        0.044      333.982        3.652      862.999
01/04/2021  01:22:00      187.250       41.379      -15.446       67.499       37.783       37.297     4556.117     1427.526     1391.061        2.219        0.369      191.768       40.964        0.046      333.942        3.586      862.909
01/04/2021  01:23:00      109.810       11.223      -12.097       73.686       36.114       32.810     5429.554     1304.206     1076.519        1.007        0.391      110.382       39.829        0.130      333.904        3.525      862.970
01/04/2021  01:24:00        2.617       23.664      -20.366       48.862       26.307       27.679     2387.542      692.061      766.105        0.241        0.192       23.809       30.976        1.693      333.959        3.616      863.062
01/04/2021  01:25:00     -121.626       26.749      -19.489       73.211       48.503       27.535     5359.873     2352.551      758.197        1.218        0.424      124.533        6.041        0.002      333.982        3.653      863.081
01/04/2021  01:26:00      -86.868       41.366       -1.316       63.590       39.021       36.522     4043.744     1522.652     1333.847        0.808        0.345       96.214       19.736        0.042      334.011        3.703      863.096
01/04/2021  01:27:00     -165.765       14.944      -14.358       56.735       46.459       38.201     3218.864     2158.429     1459.306        1.737        0.342      166.438       30.902        0.034      333.851        3.436      863.114
01/04/2021  01:28:00      -53.516       42.939      -14.379       83.405       32.959       19.982     6956.341     1086.275      399.279        0.668        0.422       68.613       26.899        0.154      333.945        3.593      863.119
01/04/2021  01:29:00       32.473      -18.903      -13.336       43.476       35.932       27.816     1890.173     1291.125      773.719        0.277        0.198       37.574       31.004        0.681      334.085        3.826      863.131
01/04/2021  01:30:00       62.323      -99.706      -32.711       56.123       32.133       26.676     3149.818     1032.536      711.621        0.989        0.245      117.582       28.994        0.061      334.189        3.996      863.183
01/04/2021  01:31:00       94.580     -119.753      -35.156       50.538       29.344       26.051     2554.080      861.061      678.680        1.431        0.205      152.598       30.512        0.040      334.196        4.009      863.182
01/04/2021  01:32:00       82.446      -99.722      -28.956       58.887       27.764       31.225     3467.635      770.822      975.013        1.140        0.261      129.390       36.641        0.080      334.229        4.064      863.162
01/04/2021  01:33:00       56.740      -31.120      -17.120       56.527       22.591       23.504     3195.251      510.356      552.417        0.437        0.213       64.714       24.318        0.141      334.207        4.026      863.151
01/04/2021  01:34:00       14.533       -7.338       -4.851       38.080       19.834       18.610     1450.071      393.374      346.335        0.124        0.109       16.280       22.977        1.992      334.297        4.177      863.116
01/04/2021  01:35:00      -28.153       50.812       -9.732       39.835       26.202       16.737     1586.808      686.566      280.121        0.301        0.128       58.090       22.584        0.151      334.194        4.005      863.082
01/04/2021  01:36:00      -80.259       41.384      -13.283       41.745       26.956       17.109     1742.647      726.627      292.705        0.555        0.138       90.300       13.568        0.023      334.093        3.838      863.071
01/04/2021  01:37:00      -88.047       21.249      -12.375       41.719       25.287       21.754     1740.477      639.421      473.232        0.560        0.143       90.575        9.011        0.010      334.079        3.814      863.062
01/04/2021  01:38:00      -75.794        9.096      -19.165       70.775       40.100       20.847     5009.087     1608.015      434.597        0.662        0.353       76.337        9.714        0.016      334.064        3.791      863.103
01/04/2021  01:39:00       15.730      -24.480       -7.566       92.813       48.429       35.431     8614.193     2345.402     1255.323        0.656        0.611       29.098       20.643        0.503      334.138        3.911      863.185
01/04/2021  01:40:00     -105.562      -14.914       -1.372       82.011       35.260       31.764     6725.876     1243.293     1008.939        1.017        0.449      106.610       35.088        0.108      334.048        3.762      863.219
01/04/2021  01:41:00      -94.562      -16.953       -7.155       56.902       26.491       22.731     3237.853      701.763      516.705        0.687        0.223       96.070       14.496        0.023      334.144        3.923      863.190
01/04/2021  01:42:00      -16.665        3.049      -15.219       31.210        9.130       16.313      974.058       83.363      266.120        0.092        0.066       16.942       19.277        1.295      334.265        4.125      863.109
01/04/2021  01:43:00       47.593       35.101       -9.968       51.892       21.848       18.849     2692.750      477.347      355.303        0.356        0.176       59.137       26.879        0.207      334.254        4.107      862.984
01/04/2021  01:44:00      114.609       68.715      -21.350       42.720       22.836       23.055     1824.980      521.493      531.550        1.059        0.144      133.630       29.150        0.048      334.117        3.878      862.857
01/04/2021  01:45:00       31.078        6.557       -7.940       49.277       35.148       27.087     2428.202     1235.402      733.729        0.273        0.220       31.762       29.783        0.879      334.277        4.143      862.838
01/04/2021  01:46:00       25.473       22.234      -12.992       47.772       23.494       29.220     2282.125      551.963      853.819        0.250        0.184       33.812       21.795        0.416      334.242        4.085      862.909
01/04/2021  01:47:00       -4.112      -25.419       14.222       83.106       44.296       38.608     6906.537     1962.139     1490.576        0.561        0.518       25.749       26.481        1.058      334.250        4.099      862.976
01/04/2021  01:48:00     -129.986      -14.886       -4.889       55.524       37.612       25.790     3082.862     1414.672      665.149        1.115        0.258      130.835       15.225        0.014      334.346        4.259      862.991
01/04/2021  01:49:00      -23.089       10.576       -7.399       54.249       20.701       15.038     2942.942      428.521      226.142        0.215        0.180       25.396       19.691        0.601      334.463        4.452      862.960
01/04/2021  01:50:00       66.511        4.303      -30.271       52.459       63.179       30.447     2751.995     3991.597      927.031        0.651        0.384       66.650       25.680        0.148      334.632        4.735      862.896
01/04/2021  01:51:00       33.873      -10.401      -30.014       49.873       50.636       33.817     2487.329     2564.021     1143.594        0.417        0.310       35.434       33.025        0.869      334.656        4.772      862.833
01/04/2021  01:52:00     -123.579       44.355      -22.673       67.277       45.704       33.330     4526.182     2088.817     1110.890        1.274        0.386      131.298       19.815        0.023      334.515        4.537      862.812
01/04/2021  01:53:00     -170.620       33.026        1.114       72.549       63.600       45.070     5263.409     4045.009     2031.274        2.077        0.567      173.787       28.932        0.028      334.227        4.058      862.804
01/04/2021  01:54:00      -72.150      -31.591       -6.278       49.991       41.176       23.624     2499.100     1695.484      558.116        0.550        0.238       78.763       18.935        0.058      334.462        4.453      862.813
01/04/2021  01:55:00      -95.996        0.729       -7.120       66.123       40.632       25.775     4372.244     1650.920      664.374        0.798        0.334       95.998       21.028        0.048      334.418        4.377      862.865
01/04/2021  01:56:00      -45.035      -50.745       -7.624       56.960       37.570       24.524     3244.473     1411.504      601.433        0.496        0.263       67.847       27.287        0.162      334.369        4.297      862.927
01/04/2021  01:57:00       19.773       26.289      -30.151       42.693       33.604       27.009     1822.675     1129.231      729.459        0.284        0.184       32.895       23.083        0.492      334.552        4.599      862.958
01/04/2021  01:58:00       28.279       -9.072      -22.459       40.936       47.787       30.205     1675.790     2283.641      912.325        0.313        0.244       29.698       28.710        0.935      334.560        4.612      862.950
01/04/2021  01:59:00      -25.691      -18.477      -24.747       61.519       54.454       24.534     3784.601     2965.246      601.926        0.448        0.368       31.645       24.095        0.580      334.468        4.462      862.938
01/04/2021  02:00:00      -12.511       -2.469       -3.433       52.095       28.920       32.292     2713.890      836.389     1042.792        0.238        0.230       12.752       13.765        1.165      334.412        4.368      862.954
01/04/2021  02:01:00     -122.978        8.860       -1.567       77.631       34.110       30.080     6026.601     1163.474      904.820        1.165        0.405      123.297       11.577        0.009      334.332        4.235      862.991
01/04/2021  02:02:00      -22.189       -0.460      -18.795       50.126       33.974       29.218     2512.647     1154.233      853.670        0.268        0.226       22.194       23.613        1.132      334.262        4.119      862.979
01/04/2021  02:03:00       32.182       30.877      -11.564       46.051       27.309       18.401     2120.686      745.786      338.615        0.266        0.160       44.599       21.997        0.243      334.404        4.354      862.897
01/04/2021  02:04:00       64.030       43.232      -15.991       45.946       14.355       22.831     2111.041      206.076      521.265        0.453        0.142       77.259       31.105        0.162      334.364        4.287      862.811
01/04/2021  02:05:00       60.611       17.037      -15.339       44.881        7.276       20.754     2014.303       52.944      430.727        0.335        0.125       62.960       29.226        0.215      334.399        4.347      862.748
01/04/2021  02:06:00       72.492       14.560      -15.689       47.227       30.064       24.678     2230.344      903.871      609.018        0.473        0.187       73.939       30.009        0.165      334.412        4.367      862.717
01/04/2021  02:07:00       88.918       25.473       -7.784       52.217       25.578       23.242     2726.588      654.239      540.210        0.627        0.196       92.495       27.604        0.089      334.389        4.330      862.697
01/04/2021  02:08:00      126.486       82.900       -9.374       43.727       21.296       25.504     1912.033      453.501      650.438        1.299        0.151      151.231       28.233        0.035      334.237        4.077      862.657
01/04/2021  02:09:00       68.818       67.785       -2.502       52.191       26.549       31.032     2723.929      704.841      962.967        0.686        0.220       96.596       28.936        0.090      334.281        4.150      862.635
01/04/2021  02:10:00      116.225       90.579      -10.889       63.497       35.725       35.799     4031.899     1276.297     1281.602        1.421        0.329      147.353       35.254        0.057      334.351        4.267      862.637
01/04/2021  02:11:00      116.938       64.533      -26.387       59.806       35.347       29.893     3576.741     1249.410      893.587        1.213        0.286      133.562       35.928        0.072      334.355        4.272      862.679
01/04/2021  02:12:00       22.973        3.429      -14.319       55.420       36.138       27.337     3071.394     1305.948      747.291        0.293        0.256       23.227       29.810        1.647      334.346        4.258      862.740
01/04/2021  02:13:00       -5.255      -17.621      -15.917       41.590       41.612       23.170     1729.745     1731.588      536.826        0.229        0.200       18.388       24.518        1.778      334.316        4.209      862.778
01/04/2021  02:14:00       11.883       -2.092       -5.621       58.315       29.583       28.717     3400.589      875.178      824.688        0.264        0.255       12.065       16.898        1.961      334.342        4.252      862.787
01/04/2021  02:15:00     -115.280       19.562        5.104      111.339       68.354       43.047    12396.365     4672.281     1853.002        1.631        0.946      116.928       31.456        0.072      334.265        4.122      862.768
01/04/2021  02:16:00     -127.698       37.811        1.711       82.311       52.902       38.768     6775.062     2798.617     1502.968        1.441        0.554      133.178       30.621        0.053      334.238        4.078      862.739
01/04/2021  02:17:00       11.609       31.303       -0.296       49.210       25.864       25.756     2421.596      668.970      663.349        0.243        0.188       33.387       30.656        0.843      334.349        4.264      862.682
01/04/2021  02:18:00       39.315       31.318      -21.338       57.373       40.412       27.484     3291.653     1633.169      755.344        0.433        0.284       50.264       32.926        0.429      334.450        4.430      862.630
01/04/2021  02:19:00       84.167       49.456      -22.930       51.391       24.805       25.434     2640.995      615.273      646.877        0.698        0.195       97.621       33.426        0.117      334.253        4.104      862.604
01/04/2021  02:20:00       28.593       28.633       -7.693       39.824       22.416       21.142     1585.948      502.465      446.973        0.212        0.127       40.465       25.307        0.391      334.197        4.011      862.608
01/04/2021  02:21:00       20.271       29.511       -6.146       44.013       19.332       22.955     1937.170      373.743      526.930        0.208        0.142       35.803       29.504        0.679      334.298        4.178      862.636
01/04/2021  02:22:00        9.354      -23.555       -4.678       37.444       26.387       20.738     1402.057      696.255      430.061        0.160        0.126       25.345       25.726        1.030      334.348        4.260      862.660
01/04/2021  02:23:00       -8.898      -37.665      -24.497       45.350       13.437       22.564     2056.587      180.563      509.126        0.242        0.137       38.702       30.421        0.618      334.238        4.080      862.658
01/04/2021  02:24:00       -5.422       -4.092       -9.418       42.851       20.568       23.463     1836.186      423.036      550.491        0.147        0.140        6.793       28.681       17.827      334.289        4.163      862.645
01/04/2021  02:25:00      -41.355      -12.613      -11.999       45.738       20.642       18.794     2091.923      426.095      353.217        0.244        0.144       43.235       22.178        0.263      334.345        4.257      862.616
01/04/2021  02:26:00      -88.027       -9.713      -11.229       55.779       28.354       25.757     3111.337      803.927      663.447        0.627        0.229       88.561       18.995        0.046      334.339        4.247      862.603
01/04/2021  02:27:00     -129.966       11.133       -7.718       60.169       32.045       29.556     3620.345     1026.897      873.564        1.130        0.276      130.442       15.905        0.015      334.256        4.109      862.588
01/04/2021  02:28:00     -114.346       28.085       -7.542       55.988       35.827       24.341     3134.600     1283.581      592.494        0.946        0.251      117.744       18.117        0.024      334.213        4.037      862.568
01/04/2021  02:29:00      -73.787       22.340        3.570       64.219       38.612       28.112     4124.123     1490.897      790.276        0.618        0.320       77.095       22.178        0.083      334.202        4.020      862.549
01/04/2021  02:30:00      -36.331       -3.271      -10.972       57.231       26.642       26.441     3275.382      709.823      699.132        0.307        0.234       36.478       23.582        0.418      334.284        4.154      862.544
01/04/2021  02:31:00      -37.187      -33.139      -13.222       50.779       20.291       23.458     2578.505      411.736      550.279        0.310        0.177       49.810       27.435        0.303      334.312        4.202      862.554
01/04/2021  02:32:00      -30.658      -14.614       -3.182       40.687       23.315       22.200     1655.428      543.589      492.827        0.193        0.135       33.962       18.752        0.305      334.461        4.449      862.570
01/04/2021  02:33:00      -36.532        4.311       -8.563       50.516       20.815       26.584     2551.870      433.266      706.695        0.256        0.185       36.785       21.548        0.343      334.488        4.494      862.541
01/04/2021  02:34:00     -117.149       17.952       -6.024       58.458       27.144       24.648     3417.363      736.814      607.524        0.942        0.238      118.516       11.358        0.009      334.480        4.480      862.484
01/04/2021  02:35:00     -130.629       87.584      -22.774       28.197       20.493       15.212      795.079      419.964      231.410        1.335        0.072      157.274        9.770        0.004      334.414        4.372      862.399
01/04/2021  02:36:00     -102.296       98.296      -12.427       28.623       31.627       18.019      819.281     1000.236      324.687        1.121        0.107      141.868       11.058        0.006      334.567        4.624      862.300
01/04/2021  02:37:00      -43.571       47.511      -15.556       46.216       39.714       22.487     2135.920     1577.216      505.681        0.431        0.211       64.465       21.441        0.111      334.785        4.987      862.260
01/04/2021  02:38:00        4.266       89.925       -9.375       44.043       39.764       28.384     1939.770     1581.215      805.647        0.626        0.216       90.027       24.833        0.076      334.975        5.303      862.244
01/04/2021  02:39:00       25.344      -15.715      -17.080       54.767       64.441       28.803     2999.391     4152.653      829.621        0.458        0.399       29.821       27.281        0.837      334.771        4.964      862.253
01/04/2021  02:40:00       76.141     -113.587      -29.918       56.668       33.033       26.637     3211.307     1091.167      709.555        1.230        0.251      136.746       32.571        0.057      334.585        4.654      862.313
01/04/2021  02:41:00       70.125     -124.691      -27.547       65.634       44.958       38.882     4307.830     2021.250     1511.801        1.453        0.392      143.057       32.526        0.052      334.648        4.758      862.389
01/04/2021  02:42:00      -14.064       -4.020      -34.286       45.683       55.639       36.161     2086.905     3095.675     1307.615        0.394        0.325       14.627       34.380        5.525      334.624        4.719      862.430
01/04/2021  02:43:00      -51.303       -6.435       -7.803       64.649       35.762       28.029     4179.502     1278.897      785.642        0.449        0.312       51.705       14.943        0.084      334.642        4.749      862.440
01/04/2021  02:44:00     -129.282        2.860       -0.592       88.900       59.490       36.706     7903.128     3539.054     1347.343        1.475        0.639      129.314       30.368        0.055      334.658        4.774      862.441
01/04/2021  02:45:00      -75.099       11.375       10.066       82.155       39.106       32.884     6749.423     1529.269     1081.369        0.761        0.468       75.955       30.708        0.163      334.576        4.639      862.439
01/04/2021  02:46:00     -107.124       10.973       -7.001       50.565       27.739       22.641     2556.844      769.450      512.637        0.774        0.192      107.684       11.761        0.012      334.644        4.753      862.415
01/04/2021  02:47:00      -43.820       10.855        1.088       53.191       20.752       22.678     2829.267      430.665      514.281        0.291        0.189       45.144       19.516        0.187      334.742        4.916      862.375
01/04/2021  02:48:00      -42.909       -0.926       -3.106       46.301       31.541       21.609     2143.792      994.850      466.934        0.273        0.180       42.919        8.235        0.037      334.678        4.810      862.356
01/04/2021  02:49:00      -24.454      -12.150        1.606       45.508       21.191       21.193     2070.978      449.046      449.137        0.186        0.148       27.306       18.117        0.440      334.694        4.837      862.360
01/04/2021  02:50:00      -62.938      -36.319      -13.135       43.759       20.474       18.916     1914.837      419.194      357.826        0.407        0.135       72.665       21.638        0.089      334.756        4.939      862.361
01/04/2021  02:51:00      -62.871       -0.547       -9.883       47.043       29.197       21.259     2213.013      852.474      451.948        0.378        0.176       62.874       17.519        0.078      334.982        5.315      862.311
01/04/2021  02:52:00      -16.504      -17.219       -7.159       54.834       35.295       25.816     3006.817     1245.744      666.487        0.277        0.246       23.851       20.354        0.728      334.804        5.019      862.237
01/04/2021  02:53:00      -48.269      -11.002      -10.673       37.585       26.011       23.382     1412.622      676.553      546.735        0.260        0.132       49.507       21.845        0.195      334.683        4.817      862.206
01/04/2021  02:54:00      -82.245      -29.162      -21.562       58.457       27.034       31.062     3417.210      730.839      964.871        0.660        0.256       87.262        8.468        0.009      334.554        4.602      862.198
01/04/2021  02:55:00      -18.863      -10.672       -2.152       71.381       44.218       32.169     5095.279     1955.199     1034.845        0.428        0.404       21.673       30.395        1.967      334.559        4.611      862.186
01/04/2021  02:56:00        8.408      -39.302      -14.277       48.228       33.133       23.786     2325.928     1097.795      565.767        0.290        0.199       40.191       27.518        0.469      334.588        4.659      862.176
01/04/2021  02:57:00     -106.009      -24.888       -8.890       80.584       32.192       27.807     6493.781     1036.327      773.221        1.012        0.415      108.892       20.889        0.037      334.657        4.773      862.213
01/04/2021  02:58:00     -165.258      -60.932      -24.136       71.702       50.519       35.266     5141.246     2552.199     1243.726        2.027        0.447      176.133       26.034        0.022      334.588        4.658      862.246
01/04/2021  02:59:00     -162.381      -14.773      -16.839       58.722       47.891       34.485     3448.272     2293.581     1189.249        1.690        0.347      163.052       14.547        0.008      334.414        4.370      862.240
01/04/2021  03:00:00     -135.285       58.200      -18.207       46.159       53.161       30.737     2130.613     2826.061      944.787        1.396        0.295      147.273       18.413        0.016      334.383        4.319      862.197
01/04/2021  03:01:00      -99.138       17.011       -7.427       79.953       48.658       29.951     6392.425     2367.567      897.058        0.991        0.483      100.587       19.575        0.038      334.440        4.413      862.180
01/04/2021  03:02:00     -123.088       21.763       -7.641       60.271       26.321       21.770     3632.598      692.795      473.913        1.024        0.240      124.997       10.932        0.008      334.508        4.528      862.189
01/04/2021  03:03:00      -80.132       32.644      -10.711       38.065       13.207       20.446     1448.949      174.412      418.058        0.482        0.102       86.526       20.791        0.058      334.500        4.514      862.179
01/04/2021  03:04:00      -80.938       31.579       -9.246       41.218       24.438       21.662     1698.904      597.240      469.234        0.520        0.138       86.880        8.789        0.010      334.496        4.507      862.168
01/04/2021  03:05:00      -58.320       25.173      -13.700       44.412       25.990       22.529     1972.458      675.459      507.570        0.369        0.158       63.521       20.280        0.102      334.521        4.547      862.140
01/04/2021  03:06:00      -18.678       30.931       -6.420       48.118       23.285       23.558     2315.295      542.191      554.971        0.238        0.171       36.133       25.528        0.499      334.566        4.623      862.084
01/04/2021  03:07:00        0.503       45.291      -13.770       45.522       20.885       24.680     2072.288      436.197      609.117        0.268        0.156       45.294       28.999        0.410      334.820        5.045      862.035
01/04/2021  03:08:00       10.863       -3.398      -13.210       44.035       21.491       25.936     1939.049      461.874      672.686        0.169        0.154       11.382       25.712        5.103      334.812        5.033      862.024
01/04/2021  03:09:00       -3.695       -4.866       -9.656       64.373       28.275       27.735     4143.828      799.490      769.206        0.292        0.286        6.110       24.973       16.705      334.680        4.812      862.034
01/04/2021  03:10:00      -53.475        6.656      -16.493       62.599       39.561       26.652     3918.674     1565.053      710.313        0.468        0.310       53.887       10.288        0.036      334.579        4.643      862.032
01/04/2021  03:11:00      -88.773       17.619      -11.793       68.284       32.683       25.174     4662.737     1068.153      633.752        0.735        0.318       90.505       14.492        0.026      334.602        4.682      861.982
01/04/2021  03:12:00     -112.867       34.117       -1.336       62.187       44.816       32.992     3867.252     2008.480     1088.462        1.043        0.348      117.911       15.367        0.017      334.617        4.706      861.935
01/04/2021  03:13:00      -87.275       29.147        3.727       83.642       36.565       40.958     6995.937     1336.976     1677.578        0.924        0.501       92.013       35.144        0.146      334.609        4.693      861.939
01/04/2021  03:14:00     -126.004       14.972      -30.579       61.914       49.393       37.188     3833.335     2439.700     1382.951        1.234        0.383      126.891       16.071        0.016      334.664        4.786      861.971
01/04/2021  03:15:00      -70.483       -4.108       -3.877       88.307       64.617       38.850     7798.094     4175.298     1509.290        0.924        0.674       70.603       26.182        0.138      334.693        4.834      862.009
01/04/2021  03:16:00     -103.371      -15.059      -13.556       77.696       42.574       39.277     6036.668     1812.583     1542.683        1.024        0.470      104.462       32.641        0.098      334.722        4.881      862.047
01/04/2021  03:17:00      -72.443        6.284        3.357       49.699       24.789       24.018     2470.019      614.504      576.861        0.448        0.183       72.715       18.661        0.066      334.762        4.948      862.053
01/04/2021  03:18:00      -30.784       30.692       -8.790       41.570       27.593       25.180     1728.030      761.397      634.047        0.254        0.156       43.470       24.008        0.305      334.758        4.942      862.044
01/04/2021  03:19:00        7.605       10.523      -19.092       45.896       16.351       23.033     2106.453      267.358      530.521        0.172        0.145       12.983       27.121        4.364      334.825        5.054      862.053
01/04/2021  03:20:00       18.092       23.094      -12.815       62.315       39.060       36.324     3883.160     1525.713     1319.440        0.388        0.336       29.337       36.003        1.506      334.909        5.195      862.069
01/04/2021  03:21:00      104.213       -0.408      -19.897       80.177       82.058       48.048     6428.296     6733.503     2308.649        1.336        0.774      104.214       37.810        0.132      334.600        4.678      862.083
01/04/2021  03:22:00       80.128      -51.774      -16.201       88.890       47.116       41.191     7901.433     2219.907     1696.720        1.059        0.591       95.400       41.161        0.186      334.680        4.813      862.101
01/04/2021  03:23:00       73.963      -96.782      -27.783       54.076       40.197       26.786     2924.192     1615.793      717.489        1.043        0.263      121.809       29.113        0.057      334.602        4.682      862.096
01/04/2021  03:24:00       95.206     -127.798      -34.374       56.959       23.010       26.119     3244.286      529.455      682.204        1.552        0.223      159.363       34.044        0.046      334.731        4.897      862.064
01/04/2021  03:25:00       72.143     -109.391      -39.120       73.226       39.688       27.841     5362.042     1575.140      775.096        1.321        0.386      131.038       33.998        0.067      334.620        4.713      862.040
01/04/2021  03:26:00      -19.304      -15.805       -5.403       54.851       27.717       21.791     3008.651      768.248      474.830        0.245        0.213       24.949       21.750        0.760      334.755        4.936      862.048
01/04/2021  03:27:00       18.191       21.046      -13.018       46.490       20.880       23.250     2161.297      435.956      540.561        0.204        0.157       27.818       31.233        1.261      334.784        4.983      862.056
01/04/2021  03:28:00       37.568       36.811      -10.396       42.115       14.857       21.473     1773.651      220.744      461.100        0.266        0.123       52.596       27.940        0.282      334.776        4.971      862.022
01/04/2021  03:29:00       72.140       47.417      -13.548       54.065       27.309       26.784     2923.056      745.786      717.358        0.601        0.219       86.328       35.397        0.168      334.611        4.698      861.964
01/04/2021  03:30:00       33.339       -8.222      -13.289       53.821       27.863       30.775     2896.655      776.366      947.121        0.299        0.231       34.338       35.869        1.091      334.594        4.671      861.962
01/04/2021  03:31:00       32.803      -60.607      -18.113       61.882       31.054       29.413     3829.418      964.368      865.133        0.537        0.283       68.915       30.112        0.191      334.726        4.889      862.027
01/04/2021  03:32:00       53.027      -21.697      -14.079       50.983       36.442       28.910     2599.311     1327.987      835.815        0.412        0.238       57.294       32.370        0.319      334.717        4.874      862.063
01/04/2021  03:33:00       23.833       20.859      -15.431       48.315       23.655       23.550     2334.320      559.577      554.616        0.234        0.172       31.672       30.916        0.953      334.632        4.733      862.052
01/04/2021  03:34:00       14.624       30.995       -7.525       44.810       13.446       19.966     2007.929      180.796      398.646        0.191        0.129       34.272       28.477        0.690      334.569        4.627      862.049
01/04/2021  03:35:00      -35.046       21.119      -14.004       43.323       13.505       20.215     1876.860      182.375      408.648        0.217        0.123       40.917       25.771        0.397      334.623        4.717      862.075
01/04/2021  03:36:00       -6.008      -11.882      -12.884       53.922       36.044       24.472     2907.600     1299.176      598.856        0.257        0.240       13.314       30.174        5.136      334.655        4.769      862.131
01/04/2021  03:37:00       20.304      -35.675      -20.722       49.061       41.455       28.355     2406.967     1718.486      804.009        0.352        0.246       41.048       34.842        0.720      334.700        4.844      862.197
01/04/2021  03:38:00       17.991        7.274      -11.697       60.049       32.937       30.318     3605.857     1084.842      919.179        0.306        0.280       19.406       32.784        2.854      334.624        4.718      862.234
01/04/2021  03:39:00       78.212       24.010      -15.921       62.310       51.917       37.406     3882.557     2695.417     1399.194        0.746        0.399       81.814       35.139        0.184      334.450        4.431      862.229
01/04/2021  03:40:00       81.602       10.196      -13.929       66.643       43.459       34.415     4441.232     1888.681     1184.395        0.723        0.376       82.236       41.001        0.249      334.456        4.440      862.225
01/04/2021  03:41:00       49.355       -3.932      -16.610       50.547       32.373       30.270     2554.959     1048.017      916.245        0.362        0.226       49.512       33.841        0.467      334.565        4.620      862.249
01/04/2021  03:42:00       49.707      -44.677      -18.542       56.175       26.301       28.496     3155.650      691.757      811.997        0.473        0.233       66.834       34.917        0.273      334.659        4.776      862.288
01/04/2021  03:43:00      -34.399      -12.352      -23.544       69.462       56.705       29.077     4825.031     3215.411      845.478        0.539        0.444       36.550       34.867        0.910      334.608        4.694      862.337
01/04/2021  03:44:00      -15.519      -12.384       -4.812       49.701       33.774       27.156     2470.225     1140.691      737.461        0.238        0.217       19.854       18.217        0.842      334.587        4.657      862.379
01/04/2021  03:45:00      -22.461        1.854      -15.813       48.268       20.230       22.486     2329.846      409.262      505.601        0.200        0.162       22.537       28.562        1.606      334.665        4.787      862.375
01/04/2021  03:46:00       18.639       -3.792       -8.774       46.886       12.934       21.151     2198.274      167.291      447.347        0.163        0.141       19.021       29.557        2.415      334.689        4.828      862.379
01/04/2021  03:47:00       -6.461       -6.462       -9.018       55.863       17.002       25.347     3120.652      289.075      642.495        0.211        0.203        9.137       30.962       11.482      334.783        4.985      862.381
01/04/2021  03:48:00      -23.615      -11.658       -9.348       46.654       18.960       22.925     2176.583      359.481      525.567        0.192        0.153       26.336       29.210        1.230      334.788        4.994      862.373
01/04/2021  03:49:00       -4.945      -10.253       -7.469       46.159       11.023       23.429     2130.676      121.505      548.938        0.149        0.140       11.383       27.300        5.752      334.787        4.990      862.356
01/04/2021  03:50:00      -36.900       24.532      -15.270       50.841       10.631       24.990     2584.812      113.012      624.506        0.276        0.166       44.311       31.435        0.503      334.737        4.907      862.333
01/04/2021  03:51:00      -18.309        6.399       -4.047       41.505       11.781       20.276     1722.702      138.783      411.127        0.133        0.114       19.395       25.490        1.727      334.751        4.931      862.303
01/04/2021  03:52:00        7.034        2.066       -9.182       53.563       14.747       25.463     2868.942      217.477      648.358        0.194        0.187        7.332       31.099       17.993      334.842        5.082      862.304
01/04/2021  03:53:00       13.315       15.400       -7.747       49.592       16.762       27.449     2459.348      280.968      753.424        0.198        0.175       20.358       32.953        2.620      334.815        5.038      862.312
01/04/2021  03:54:00       19.894        2.847      -16.001       50.514       11.186       26.115     2551.681      125.134      681.983        0.201        0.168       20.097       33.481        2.775      334.852        5.100      862.300
01/04/2021  03:55:00       -1.943       26.361      -10.017       46.785       14.206       23.132     2188.804      201.803      535.074        0.186        0.146       26.433       31.174        1.391      334.747        4.924      862.306
01/04/2021  03:56:00       16.012       39.557       -4.016       51.270       23.247       27.127     2628.632      540.443      735.861        0.287        0.195       42.675       32.361        0.575      334.730        4.896      862.302
01/04/2021  03:57:00       22.851       62.198        2.395       51.010       37.492       24.650     2602.021     1405.619      607.629        0.450        0.231       66.263       30.095        0.206      334.758        4.941      862.274
01/04/2021  03:58:00       45.869       90.756       -5.729       44.996       42.185       28.953     2024.678     1779.558      838.258        0.751        0.232      101.689       26.165        0.066      334.688        4.825      862.231
01/04/2021  03:59:00       79.554       -0.906      -16.957       58.415       29.506       30.932     3412.272      870.619      956.794        0.593        0.262       79.559       37.725        0.225      334.701        4.849      862.242
01/04/2021  04:00:00       56.429       12.538      -19.891       67.868       39.381       35.151     4606.084     1550.882     1235.576        0.556        0.370       57.805       42.742        0.547      334.625        4.721      862.292
01/04/2021  04:01:00       96.266       15.145      -49.022       64.487       60.407       39.465     4158.565     3649.036     1557.488        1.063        0.468       97.450       38.035        0.152      334.550        4.596      862.255
01/04/2021  04:02:00      129.896        6.971      -22.798       74.297       38.965       36.917     5520.029     1518.238     1362.837        1.292        0.420      130.082       39.888        0.094      334.442        4.418      862.158
01/04/2021  04:03:00      185.689       36.050      -20.787       70.339       35.423       39.240     4947.541     1254.754     1539.750        2.198        0.387      189.156       41.977        0.049      334.414        4.370      862.080
01/04/2021  04:04:00      115.946       26.936      -18.790       66.392       30.981       31.591     4407.961      959.823      997.990        1.044        0.318      119.033       40.418        0.115      334.424        4.388      862.073
01/04/2021  04:05:00      111.720       40.965      -26.625       49.431       25.766       25.951     2443.398      663.891      673.441        0.932        0.189      118.994       30.185        0.064      334.453        4.435      862.125
01/04/2021  04:06:00       48.700       42.277      -19.674       57.802       12.652       31.241     3341.016      160.077      975.998        0.451        0.224       64.491       40.307        0.391      334.462        4.451      862.192
01/04/2021  04:07:00       52.208       61.753      -16.365       60.156       21.849       29.381     3618.776      477.378      863.233        0.588        0.248       80.865       39.139        0.234      334.714        4.868      862.192
01/04/2021  04:08:00       61.032       98.884      -12.425       53.994       26.840       26.961     2915.342      720.391      726.872        0.901        0.218      116.202       34.159        0.086      334.605        4.688      862.166
01/04/2021  04:09:00       71.241       71.778      -16.581       59.065       34.230       31.408     3488.652     1171.680      986.449        0.807        0.282      101.130       38.275        0.143      334.563        4.619      862.159
01/04/2021  04:10:00       68.717       45.334      -17.724       62.508       20.041       29.675     3907.295      401.634      880.630        0.614        0.259       82.324       39.639        0.232      334.632        4.731      862.186
01/04/2021  04:11:00       64.433       59.933      -10.120       50.193       18.102       25.464     2519.328      327.695      648.408        0.567        0.175       87.998       32.855        0.139      334.681        4.814      862.189
01/04/2021  04:12:00       97.855       51.664      -15.308       49.162       19.726       26.651     2416.854      389.112      710.292        0.800        0.176      110.656       29.941        0.073      334.694        4.836      862.139
01/04/2021  04:13:00       92.102        9.742      -21.090       65.344       32.134       30.288     4269.858     1032.562      917.375        0.762        0.311       92.616       38.108        0.169      334.742        4.913      862.102
01/04/2021  04:14:00       54.818      -25.366      -30.049       58.946       46.497       34.803     3474.612     2161.931     1211.282        0.570        0.342       60.402       41.599        0.474      334.705        4.853      862.084
01/04/2021  04:15:00       56.208      -55.228      -30.805       59.724       51.853       26.754     3566.943     2688.739      715.768        0.706        0.349       78.801       35.957        0.208      334.704        4.851      862.112
01/04/2021  04:16:00       71.758      -64.480      -21.764       55.051       22.936       26.951     3030.571      526.073      726.369        0.703        0.214       96.472       36.580        0.144      334.692        4.831      862.157
01/04/2021  04:17:00       52.536      -50.283      -19.847       52.448       22.329       25.229     2750.757      498.602      636.502        0.478        0.194       72.721       33.148        0.208      334.815        5.037      862.148
01/04/2021  04:18:00       62.520       11.624      -13.768       55.933       44.094       34.607     3128.446     1944.315     1197.622        0.525        0.314       63.592       32.184        0.256      334.794        5.001      862.109
01/04/2021  04:19:00      112.843       16.426      -16.679       50.821       33.255       29.445     2582.748     1105.912      867.002        0.892        0.228      114.033       34.617        0.092      334.722        4.881      862.089
01/04/2021  04:20:00       98.934        7.973      -14.948       59.204       29.316       29.121     3505.119      859.422      848.045        0.764        0.261       99.255       38.138        0.148      334.813        5.032      862.076
01/04/2021  04:21:00      112.711       18.690      -21.957       62.667       25.568       28.675     3927.196      653.708      822.233        0.947        0.270      114.250       37.924        0.110      334.794        5.000      862.060
01/04/2021  04:22:00      119.580       13.778      -14.767       50.869       19.995       29.803     2587.674      399.817      888.211        0.929        0.194      120.371       35.043        0.085      334.842        5.082      862.014
01/04/2021  04:23:00       78.471       25.286      -13.217       53.725       29.887       27.267     2886.365      893.251      743.466        0.575        0.226       82.444       32.962        0.160      334.884        5.152      862.007
01/04/2021  04:24:00       43.012      -38.796      -17.615       53.089       36.049       24.667     2818.467     1299.502      608.461        0.419        0.236       57.924       30.977        0.286      334.931        5.230      862.043
01/04/2021  04:25:00       54.232      -52.378      -18.167       47.697       17.429       22.950     2274.970      303.784      526.691        0.456        0.155       75.397       31.404        0.173      334.875        5.136      862.085
01/04/2021  04:26:00       46.315      -46.479      -16.955       51.050       19.615       23.711     2606.127      384.752      562.221        0.407        0.178       65.616       34.059        0.269      334.889        5.159      862.111
01/04/2021  04:27:00       33.096      -54.167      -26.650       60.070       24.024       26.904     3608.418      577.133      723.831        0.482        0.245       63.478       33.526        0.279      334.883        5.150      862.141
01/04/2021  04:28:00       84.643      -80.729      -25.882       55.765       32.669       24.479     3109.746     1067.282      599.220        0.956        0.239      116.968       32.202        0.076      334.813        5.032      862.182
01/04/2021  04:29:00      148.980     -158.434      -46.987       64.046       52.318       36.035     4101.948     2737.162     1298.494        2.882        0.407      217.478       43.165        0.039      334.814        5.031      862.174
01/04/2021  04:30:00      186.954     -210.082      -64.111       69.264      108.280       50.558     4797.433    11724.496     2556.145        5.113        0.954      281.223       39.583        0.020      334.632        4.728      862.140
01/04/2021  04:31:00      176.627     -245.806      -61.505       78.102       56.890       41.648     6099.856     3236.445     1734.521        5.323        0.554      302.684       47.868        0.025      334.506        4.519      862.175
01/04/2021  04:32:00       89.711     -200.283      -38.200       67.061       46.505       38.980     4497.142     2162.694     1519.419        2.890        0.409      219.457       39.058        0.032      334.538        4.574      862.227
01/04/2021  04:33:00       69.199      -85.989      -18.763       61.627       40.548       33.060     3797.876     1644.160     1092.957        0.953        0.327      110.375       38.620        0.122      334.729        4.892      862.242
01/04/2021  04:34:00       27.780      -27.271       -9.318       50.126       20.118       27.752     2512.636      404.752      770.175        0.264        0.184       38.928       29.333        0.568      334.759        4.944      862.247
01/04/2021  04:35:00       30.514       19.276      -12.333       48.892       48.015       25.396     2390.445     2305.477      644.955        0.340        0.267       36.093       27.204        0.568      334.751        4.928      862.158
01/04/2021  04:36:00       53.892      -18.965      -24.100       70.686       57.536       41.959     4996.510     3310.338     1760.543        0.695        0.503       57.132       42.053        0.542      334.800        5.012      862.059
01/04/2021  04:37:00      100.775      -11.594      -25.401       75.160       51.696       38.001     5649.078     2672.443     1444.078        1.035        0.488      101.440       39.131        0.149      334.745        4.919      862.026
01/04/2021  04:38:00       68.278       15.075      -16.805       60.246       47.523       27.588     3629.623     2258.395      761.076        0.591        0.332       69.922       35.818        0.262      334.509        4.529      862.065
01/04/2021  04:39:00       29.465        7.369       -1.629       46.236       13.927       22.832     2137.802      193.948      521.289        0.189        0.143       30.373       30.675        1.020      334.427        4.395      862.143
01/04/2021  04:40:00       33.759       -9.560       -7.928       51.934       33.843       26.446     2697.160     1145.342      699.395        0.292        0.227       35.087       32.760        0.872      334.535        4.570      862.143
01/04/2021  04:41:00       44.594       34.348      -13.496       55.101       21.982       28.238     3036.074      483.207      797.360        0.383        0.216       56.289       32.512        0.334      334.542        4.586      862.097
01/04/2021  04:42:00       75.649       19.891       -9.765       58.847       36.710       30.422     3462.937     1347.592      925.526        0.597        0.287       78.220       36.174        0.214      334.584        4.652      862.064
01/04/2021  04:43:00       92.748       28.294      -17.681       56.271       20.431       27.706     3166.478      417.429      767.595        0.703        0.218       96.968       36.373        0.141      334.430        4.398      862.061
01/04/2021  04:44:00       43.364       30.303       -6.377       50.962       18.168       27.221     2597.140      330.081      740.997        0.325        0.183       52.903       34.701        0.430      334.404        4.355      862.061
01/04/2021  04:45:00       31.421       29.396       -0.919       22.157       13.976       10.839      490.931      195.322      117.476        0.133        0.040       43.028        8.896        0.043      334.312        4.203      862.032
01/04/2021  04:46:00       51.242       39.884       -6.446       19.566       16.123       10.431      382.833      259.954      108.799        0.250        0.038       64.934        8.802        0.018      334.296        4.177      862.018
01/04/2021  04:47:00       17.091      -35.510      -12.122       32.046       44.432       19.180     1026.969     1974.235      367.883        0.253        0.168       39.409       20.618        0.274      334.488        4.495      862.074
01/04/2021  04:48:00       17.007      -68.720      -20.179       38.610       22.991       19.571     1490.719      528.586      383.020        0.391        0.120       70.794       20.287        0.082      334.473        4.469      862.178
01/04/2021  04:49:00      -17.016        8.031        0.100       19.034       18.813       13.745      362.306      353.934      188.935        0.063        0.045       18.816        8.704        0.214      334.497        4.510      862.166
01/04/2021  04:50:00      -51.462       -3.485      -17.247       35.287       24.434       17.142     1245.205      596.998      293.855        0.255        0.107       51.580       18.847        0.134      334.547        4.593      862.091
01/04/2021  04:51:00      -44.275       58.872      -10.899       35.747       45.845       16.089     1277.870     2101.775      258.856        0.459        0.182       73.663       17.075        0.054      334.503        4.518      862.060
01/04/2021  04:52:00     -110.251       82.664      -16.468       19.734       23.633       13.057      389.449      558.527      170.493        1.019        0.056      137.799       12.574        0.008      334.385        4.323      862.025
01/04/2021  04:53:00      -61.818       -5.723       -7.321       83.664       40.533       30.110     6999.705     1642.911      906.584        0.673        0.477       62.083       30.903        0.248      334.445        4.424      862.037
01/04/2021  04:54:00      -33.854       25.109        4.466       23.830       16.713       17.185      567.846      279.335      295.338        0.147        0.057       42.150       15.234        0.131      334.442        4.417      861.982
01/04/2021  04:55:00       32.000       30.016       -1.227       36.270       22.639       10.915     1315.501      512.522      119.144        0.194        0.097       43.874       12.146        0.077      334.438        4.411      861.846
01/04/2021  04:56:00       58.246        7.196       -4.162       56.964       38.904       26.260     3244.952     1513.518      689.573        0.445        0.272       58.689       27.149        0.214      334.483        4.485      861.734
01/04/2021  04:57:00       59.191      -25.810      -21.430       35.915       50.687       25.463     1289.880     2569.182      648.382        0.457        0.225       64.573       17.332        0.072      334.543        4.585      861.704
01/04/2021  04:58:00       57.682       21.448       -1.383       35.550       55.142       26.293     1263.798     3040.634      691.341        0.439        0.250       61.540       17.225        0.078      334.382        4.318      861.712
01/04/2021  04:59:00       48.215       17.144      -15.319       22.935       34.525       12.894      526.012     1191.961      166.266        0.237        0.094       51.173        9.725        0.036      334.364        4.288      861.731
01/04/2021  05:00:00        6.614      -42.599       -4.318       26.202       15.034       14.481      686.552      226.014      209.702        0.150        0.056       43.110       15.851        0.135      334.596        4.672      861.738
01/04/2021  05:01:00       12.346       13.509        3.100       24.980       22.270       10.794      624.002      495.950      116.520        0.079        0.062       18.301       13.441        0.539      334.541        4.582      861.698
01/04/2021  05:02:00       38.428       33.680       -3.691       11.489       16.788        9.147      132.006      281.836       83.660        0.156        0.025       51.099        6.731        0.017      334.433        4.404      861.654
01/04/2021  05:03:00       -1.098       30.802       -4.772       35.588        8.913        6.822     1266.499       79.445       46.534        0.118        0.070       30.821        9.741        0.100      334.357        4.277      861.649
01/04/2021  05:04:00      -99.038       23.187      -17.465       31.203       23.813       18.428      973.643      567.051      339.576        0.627        0.094      101.716       12.507        0.015      334.352        4.269      861.732
01/04/2021  05:05:00      -76.190       -5.914       -3.035       45.282       28.195       20.502     2050.480      794.934      420.313        0.456        0.163       76.419       18.160        0.056      334.377        4.311      861.786
01/04/2021  05:06:00     -101.007       13.470       -1.556       36.064       27.653       19.467     1300.603      764.674      378.976        0.641        0.122      101.901       16.884        0.027      334.448        4.429      861.813
01/04/2021  05:07:00      -75.232        1.366        0.850       66.773       33.611       23.550     4458.653     1129.695      554.589        0.590        0.307       75.244       25.637        0.116      334.438        4.412      861.840
01/04/2021  05:08:00      -59.334       20.461        0.059       46.432       28.833       18.727     2155.900      831.364      350.686        0.364        0.167       62.763       10.561        0.028      334.410        4.366      861.836
01/04/2021  05:09:00      -82.793       48.862       -4.446       29.003       14.043       16.269      841.195      197.203      264.681        0.528        0.065       96.136       15.447        0.026      334.369        4.298      861.821
01/04/2021  05:10:00     -126.366        5.608       -8.399       35.346       28.604       24.988     1249.307      818.210      624.412        0.938        0.135      126.491       17.735        0.020      334.418        4.377      861.821
01/04/2021  05:11:00     -105.621        9.150        2.538       60.073       33.097       25.600     3608.760     1095.440      655.351        0.830        0.268      106.016       27.935        0.069      334.382        4.319      861.853
01/04/2021  05:12:00      -91.906       47.613       -1.124       44.560       37.575       24.983     1985.555     1411.911      624.127        0.737        0.201      103.507       25.797        0.062      334.288        4.162      861.846
01/04/2021  05:13:00      -79.964       38.207       -6.196       30.256       24.534       20.267      915.444      601.934      410.753        0.491        0.096       88.623       19.933        0.051      334.260        4.116      861.829
01/04/2021  05:14:00      -52.278       17.670       -8.067       21.789       19.467       17.700      474.754      378.959      313.307        0.214        0.058       55.184       12.039        0.048      334.324        4.222      861.829
01/04/2021  05:15:00        5.842       -3.697        5.099       11.073       25.132       13.276      122.615      631.599      176.253        0.050        0.047        6.914       13.213        3.652      334.350        4.266      861.839
01/04/2021  05:16:00      -28.456      -13.010       -6.262       17.410       18.124       12.658      303.117      328.482      160.235        0.090        0.040       31.289        8.259        0.070      334.409        4.363      861.853
01/04/2021  05:17:00      -36.387        7.498        0.478       21.819       16.491       12.878      476.081      271.967      165.841        0.115        0.046       37.152       11.227        0.091      334.358        4.280      861.876
01/04/2021  05:18:00       11.958       24.231        1.316       28.601       13.873       11.973      818.007      192.458      143.348        0.094        0.058       27.021        9.586        0.126      334.403        4.354      861.834
01/04/2021  05:19:00       41.073       51.202       -0.726       18.949       14.911       10.073      359.060      222.324      101.473        0.250        0.034       65.640       10.151        0.024      334.433        4.402      861.790
01/04/2021  05:20:00       15.860       75.976       -1.272       20.217       34.482       14.790      408.714     1189.019      218.758        0.392        0.091       77.613       12.095        0.024      334.419        4.378      861.758
01/04/2021  05:21:00      -55.394       22.862      -17.547       51.199       50.326       20.553     2621.315     2532.659      422.417        0.474        0.279       59.927       12.080        0.041      334.353        4.271      861.802
01/04/2021  05:22:00      -69.127       11.525      -10.228       61.797       30.126       24.586     3818.890      907.546      604.475        0.517        0.267       70.081       25.311        0.130      334.289        4.165      861.869
01/04/2021  05:23:00     -132.148       55.062       -3.910       46.295       33.651       28.701     2143.223     1132.359      823.722        1.230        0.205      143.160       27.574        0.037      334.303        4.187      861.858
01/04/2021  05:24:00     -103.303       63.872       -9.951       47.032       43.321       30.257     2211.999     1876.730      915.500        0.993        0.250      121.454       34.162        0.079      334.327        4.228      861.820
01/04/2021  05:25:00      -85.092       36.354       -7.687       37.705       26.228       17.058     1421.668      687.883      290.982        0.551        0.120       92.533       16.927        0.033      334.363        4.288      861.843
01/04/2021  05:26:00      -34.694       -0.500       -8.393       46.279       20.889       12.954     2141.702      436.362      167.808        0.201        0.137       34.697       11.760        0.115      334.370        4.301      861.880
01/04/2021  05:27:00      -21.412        9.100       13.465       55.662       31.032       19.412     3098.218      962.988      376.810        0.258        0.222       23.266       18.713        0.647      334.406        4.360      861.912
01/04/2021  05:28:00       -0.312        7.845       -3.478       21.025       35.922       22.435      442.052     1290.410      503.349        0.115        0.112        7.851       17.658        5.058      334.384        4.324      861.949
01/04/2021  05:29:00        2.322       11.686        1.761       23.788       13.041       15.144      565.866      170.064      229.344        0.055        0.048       11.915        7.639        0.411      334.552        4.599      861.899
01/04/2021  05:30:00      -37.932        0.849      -11.145       24.207       13.445       14.172      585.971      180.780      200.858        0.127        0.048       37.941       15.857        0.175      334.650        4.764      861.929
01/04/2021  05:31:00      -41.801      -18.672       -1.643       48.738       32.309       33.034     2375.412     1043.860     1091.220        0.330        0.226       45.781       26.918        0.346      334.417        4.377      861.960
01/04/2021  05:32:00      -47.838       11.767        2.664       90.892       46.729       28.995     8261.419     2183.601      840.712        0.686        0.564       49.264       38.347        0.606      334.361        4.285      861.961
01/04/2021  05:33:00     -139.291       26.434        1.359       55.412       39.647       28.785     3070.476     1571.861      828.598        1.279        0.274      141.777       28.074        0.039      334.342        4.251      861.983
01/04/2021  05:34:00     -112.418       -0.931       -0.479       63.788       40.847       30.213     4068.867     1668.467      912.843        0.964        0.333      112.421       26.111        0.054      334.331        4.235      862.000
01/04/2021  05:35:00      -28.451       22.924       -0.805       44.735       22.851       22.288     2001.232      522.184      496.747        0.218        0.151       36.537        7.825        0.046      334.382        4.320      861.977
01/04/2021  05:36:00      -60.696       16.931       -4.038       49.711       40.559       16.444     2471.178     1645.007      270.406        0.419        0.219       63.013       20.114        0.102      334.424        4.389      861.948
01/04/2021  05:37:00      -42.975       20.360       -4.062       50.115       31.083       22.005     2511.510      966.149      484.237        0.312        0.198       47.554       16.368        0.118      334.431        4.399      861.975
01/04/2021  05:38:00      -85.323       13.644      -10.832       58.644       37.836       27.253     3439.095     1431.582      742.707        0.660        0.281       86.407       23.799        0.076      334.450        4.432      862.024
01/04/2021  05:39:00      -60.026       40.980      -13.417       36.775       29.918       24.270     1352.380      895.075      589.042        0.415        0.142       72.681       16.064        0.049      334.474        4.471      862.009
01/04/2021  05:40:00        1.427       81.654       -2.193       30.097       35.633       22.123      905.844     1269.727      489.413        0.467        0.133       81.666       12.200        0.022      335.064        5.451      861.873
01/04/2021  05:41:00        9.545      115.189       -7.836       25.782       30.955       15.841      664.705      958.198      250.924        0.765        0.094      115.584       11.371        0.010      335.442        6.078      861.823
01/04/2021  05:42:00      -28.163       81.711       -7.500       22.436       37.169       14.486      503.376     1381.502      209.838        0.481        0.105       86.429        7.932        0.008      335.066        5.452      861.871
01/04/2021  05:43:00      -57.762        7.153      -17.094       29.121       23.006       15.809      848.038      529.258      249.911        0.265        0.081       58.203       16.282        0.078      334.578        4.643      861.943
01/04/2021  05:44:00      -85.539        4.160       -0.917       91.345       52.509       31.769     8343.961     2757.235     1009.241        0.972        0.606       85.640       29.454        0.118      334.493        4.501      861.994
01/04/2021  05:45:00     -117.296       72.979       -0.241       52.305       41.949       26.904     2735.785     1759.753      723.826        1.215        0.261      138.146       24.798        0.032      334.673        4.800      861.930
01/04/2021  05:46:00      -66.171      126.849      -14.939       46.356       26.190       18.709     2148.914      685.927      350.014        1.194        0.159      143.071        7.262        0.003      335.069        5.458      861.815
01/04/2021  05:47:00      -28.917       78.289      -11.072       30.695       38.105       19.317      942.165     1452.011      373.147        0.493        0.138       83.459        8.815        0.011      335.019        5.376      861.768
01/04/2021  05:48:00       -8.637      -48.543       -2.937       24.558       23.468       16.703      603.104      550.756      278.974        0.194        0.072       49.305       11.418        0.054      334.933        5.233      861.853
01/04/2021  05:49:00      -29.807      -21.171        1.966       47.416       42.568       25.921     2248.238     1812.045      671.920        0.304        0.237       36.560       14.122        0.149      334.890        5.162      861.913
01/04/2021  05:50:00      -79.909        0.210       -0.320       49.518       28.939       19.406     2452.075      837.449      376.611        0.503        0.183       79.909       21.324        0.071      334.846        5.088      861.928
01/04/2021  05:51:00      -95.591      -29.966       -0.113       58.962       26.536       19.999     3476.476      704.168      399.956        0.731        0.229      100.178       15.664        0.024      334.825        5.054      861.949
01/04/2021  05:52:00      -78.306      -15.601       -8.073       29.676       20.882       13.880      880.680      436.078      192.659        0.397        0.075       79.845        8.353        0.011      334.894        5.169      861.979
01/04/2021  05:53:00      -62.170        1.253       -1.761       18.350       19.583       17.156      336.725      383.492      294.345        0.244        0.051       62.183       12.726        0.042      334.895        5.170      861.990
01/04/2021  05:54:00      -44.749        4.791       -5.890        9.930        7.395        9.713       98.606       54.683       94.346        0.115        0.012       45.005        6.131        0.019      335.050        5.428      861.926
01/04/2021  05:55:00      -22.300       16.935       -6.130       10.318        7.671        9.180      106.456       58.849       84.270        0.054        0.012       28.001        7.625        0.074      335.236        5.735      861.873
01/04/2021  05:56:00      -40.740       11.578       -4.040       19.574       21.287       11.139      383.144      453.131      124.070        0.139        0.048       42.353       12.345        0.085      335.164        5.616      861.906
01/04/2021  05:57:00      -42.292      103.795      -10.051       44.700       29.906       19.010     1998.088      894.385      361.378        0.796        0.163      112.081       22.865        0.042      335.277        5.804      861.793
01/04/2021  05:58:00      -75.619       34.646       -5.778       75.752       44.042       40.112     5738.408     1939.656     1608.964        0.812        0.464       83.178       35.345        0.181      334.929        5.227      861.848
01/04/2021  05:59:00       -9.321        2.449        4.533       48.634       41.963       29.221     2365.290     1760.929      853.882        0.255        0.249        9.638       17.186        3.180      334.857        5.108      862.040
01/04/2021  06:00:00      -66.634       17.847       -3.218       56.538       27.114       18.788     3196.510      735.146      352.990        0.453        0.214       68.983       12.344        0.032      334.817        5.040      862.073
01/04/2021  06:01:00       18.746       24.148       -2.979       14.564       27.679        7.569      212.104      766.146       57.284        0.099        0.052       30.571        5.028        0.027      334.917        5.208      861.987
01/04/2021  06:02:00      -43.596       59.532       -1.964       36.713       39.166       20.659     1347.848     1533.940      426.790        0.438        0.165       73.788       19.427        0.069      335.002        5.348      861.936
01/04/2021  06:03:00      -39.435       94.337      -11.366       20.463       29.069       13.788      418.740      844.997      190.104        0.602        0.073      102.247       11.155        0.012      335.047        5.423      861.909
01/04/2021  06:04:00      -36.628      101.076      -14.112       19.404       24.605       14.852      376.519      605.399      220.579        0.648        0.060      107.508        8.773        0.007      334.987        5.321      861.839
01/04/2021  06:05:00        6.171      -19.241        4.892       33.874       40.212       21.758     1147.435     1617.008      473.406        0.183        0.162       20.206       11.911        0.347      334.872        5.131      861.917
01/04/2021  06:06:00       -1.078      -24.298       -0.953       34.008       31.141       23.120     1156.536      969.792      534.547        0.163        0.133       24.322        9.159        0.142      334.906        5.188      861.995
01/04/2021  06:07:00      -58.892        7.186       -4.669       13.142       22.566        9.374      172.708      509.225       87.878        0.216        0.038       59.329        6.737        0.013      334.756        4.940      861.976
01/04/2021  06:08:00      -61.097      -10.211       -4.611       18.248       15.656       13.183      332.996      245.114      173.801        0.230        0.038       61.944        8.938        0.021      334.886        5.156      862.031
01/04/2021  06:09:00     -106.694      -20.904      -15.448       31.421       19.311       20.524      987.279      372.932      421.235        0.692        0.089      108.722       18.575        0.029      335.006        5.355      862.059
01/04/2021  06:10:00       12.847       28.113      -10.544       46.740       28.905        8.419     2184.594      835.484       70.886        0.208        0.155       30.909        9.321        0.091      335.040        5.411      861.967
01/04/2021  06:11:00       93.814       40.178      -11.043       53.708       48.044       21.113     2884.520     2308.229      445.769        0.809        0.282      102.055       26.786        0.069      334.939        5.244      861.753
01/04/2021  06:12:00      -16.954      -12.420      -14.480       46.533       28.535       14.020     2165.358      814.225      196.574        0.191        0.159       21.017        7.944        0.143      334.991        5.328      861.786
01/04/2021  06:13:00      -17.295      -20.889        3.682       58.305       48.318       35.022     3399.421     2334.611     1226.567        0.385        0.348       27.120       28.403        1.097      335.044        5.418      861.972
01/04/2021  06:14:00      -57.635        1.658        9.163       70.582       54.994       30.402     4981.849     3024.328      924.294        0.617        0.447       57.659       25.101        0.190      335.068        5.458      862.079
01/04/2021  06:15:00      -24.625       -2.195        1.928       38.566       28.613       24.644     1487.313      818.713      607.332        0.176        0.146       24.723       15.933        0.415      335.114        5.534      862.016
01/04/2021  06:16:00      -23.155      -29.424      -13.011       29.114       31.913       28.831      847.651     1018.436      831.255        0.213        0.135       37.442       14.586        0.152      335.442        6.079      861.896
01/04/2021  06:17:00      -11.631      -26.712       -7.389       17.869       25.700       23.917      319.292      660.467      572.007        0.123        0.078       29.134       16.814        0.333      335.507        6.186      861.858
01/04/2021  06:18:00       14.762      -16.217      -18.579       19.518       25.043       17.796      380.966      627.162      316.714        0.108        0.066       21.930       10.131        0.213      335.428        6.054      861.799
01/04/2021  06:19:00       12.385       13.456       -8.677       26.911       10.486       12.783      724.206      109.961      163.401        0.070        0.050       18.288       11.929        0.425      335.493        6.163      861.740
01/04/2021  06:20:00       13.624       15.365       -4.547       22.815       17.554       12.290      520.532      308.149      151.035        0.071        0.049       20.535        9.565        0.217      335.369        5.956      861.747
01/04/2021  06:21:00      -61.147        6.583       -8.054       50.140       28.821       16.581     2514.057      830.656      274.932        0.373        0.181       61.501        8.774        0.020      335.503        6.181      861.810
01/04/2021  06:22:00      -23.037      -15.860        4.807       71.631       31.517       22.393     5130.953      993.334      501.457        0.371        0.331       27.968       19.265        0.474      335.376        5.968      861.798
01/04/2021  06:23:00      -75.660        4.559       -2.301       31.882       31.743       19.837     1016.468     1007.603      393.525        0.408        0.121       75.798       14.237        0.035      335.379        5.973      861.737
01/04/2021  06:24:00      -34.031      -24.911       -1.160       37.342       25.894       16.876     1394.398      670.505      284.788        0.206        0.117       42.175       17.586        0.174      335.497        6.168      861.724
01/04/2021  06:25:00     -115.809      -53.821      -15.821       52.891       54.963       29.714     2797.475     3020.922      882.914        1.163        0.335      127.704       30.278        0.056      335.647        6.420      861.855
01/04/2021  06:26:00      -55.826      -41.983      -17.752       53.768       29.495       17.428     2891.029      869.956      303.739        0.463        0.203       69.851       16.639        0.057      335.866        6.785      861.869
01/04/2021  06:27:00       15.162      -45.711      -10.678       30.171       36.393       26.203      910.294     1324.428      686.611        0.268        0.146       48.160       11.391        0.056      335.546        6.251      861.766
01/04/2021  06:28:00       15.123       33.358       -7.623       57.725       25.007       22.291     3332.163      625.334      496.870        0.293        0.223       36.626       12.840        0.123      335.330        5.890      861.679
01/04/2021  06:29:00       15.747       18.164      -17.651       29.886       27.416       22.279      893.154      751.611      496.346        0.151        0.107       24.040       16.189        0.454      335.442        6.080      861.722
01/04/2021  06:30:00        3.324       12.187       14.309       58.520       38.095       32.427     3424.602     1451.241     1051.503        0.314        0.296       12.632       18.000        2.030      335.501        6.176      861.875
01/04/2021  06:31:00     -160.807      -91.838      -14.354       74.869       85.675       35.836     5605.413     7340.209     1284.248        2.436        0.711      185.183       34.961        0.036      335.868        6.786      861.952
01/04/2021  06:32:00     -189.655      -96.547      -34.837       72.613      102.336       40.258     5272.696    10472.612     1620.715        3.193        0.868      212.815       32.979        0.024      336.091        7.159      861.923
01/04/2021  06:33:00     -247.587      -48.490      -25.128       95.369       82.354       47.990     9095.175     6782.240     2303.016        4.123        0.909      252.291       46.252        0.034      336.263        7.444      861.864
01/04/2021  06:34:00     -258.455      -13.477       -1.814       84.314       71.213       46.746     7108.866     5071.233     2185.200        4.067        0.718      258.806       48.793        0.036      336.130        7.220      861.811
01/04/2021  06:35:00     -145.463      -18.428       -1.265      141.328       53.172       41.548    19973.521     2827.272     1726.255        2.301        1.226      146.625       50.347        0.118      336.170        7.289      861.775
01/04/2021  06:36:00     -183.554        0.338        5.659      104.328       80.032       44.877    10884.288     6405.192     2013.970        2.651        0.965      183.555       49.829        0.074      336.227        7.384      861.736
01/04/2021  06:37:00     -143.926       15.256        5.203       90.290       85.520       44.759     8152.312     7313.642     2003.372        1.922        0.873      144.733       42.774        0.087      336.331        7.559      861.666
01/04/2021  06:38:00      -63.109      -14.877       -5.280       59.487       60.931       31.515     3538.694     3712.556      993.198        0.624        0.412       64.839       25.075        0.150      336.471        7.794      861.565
01/04/2021  06:39:00     -132.034      -64.642      -16.196       82.250       57.759       34.389     6765.042     3336.080     1182.605        1.658        0.564      147.009       33.446        0.052      336.350        7.591      861.636
01/04/2021  06:40:00      -71.903      -43.531       -9.324       57.619       51.367       23.274     3319.984     2638.556      541.661        0.682        0.325       84.054       24.537        0.085      336.345        7.584      861.674
01/04/2021  06:41:00      -30.461      -31.230        7.060       54.462       56.463       27.679     2966.106     3188.106      766.102        0.444        0.346       43.625       16.508        0.143      335.996        7.000      861.638
01/04/2021  06:42:00       40.506      -25.148       -5.979       57.603       80.337       44.467     3318.150     6454.011     1977.353        0.703        0.587       47.678       37.456        0.617      335.504        6.180      861.623
01/04/2021  06:43:00      122.494      -46.454      -24.823       65.024       67.542       40.123     4228.173     4561.972     1609.844        1.409        0.520      131.006       34.254        0.068      335.295        5.832      861.604
01/04/2021  06:44:00        1.893      -20.337       11.021       54.555       74.386       39.559     2976.233     5533.218     1564.902        0.530        0.504       20.425       27.341        1.792      335.197        5.671      861.698
01/04/2021  06:45:00       30.896      -80.500       -9.259       61.380       90.701       33.045     3767.459     8226.698     1091.959        1.030        0.654       86.225       37.614        0.190      335.153        5.598      861.805
01/04/2021  06:46:00       19.200      -47.063      -16.233       52.387       67.901       30.303     2744.391     4610.571      918.262        0.556        0.414       50.829       19.299        0.144      335.038        5.408      861.782
01/04/2021  06:47:00       86.635      -17.471        0.237       73.740       66.638       43.229     5437.531     4440.666     1868.741        0.978        0.587       88.379       33.906        0.147      335.094        5.500      861.660
01/04/2021  06:48:00      151.627       16.715      -13.061       76.935       88.563       41.998     5918.919     7843.387     1763.850        1.948        0.776      152.546       38.057        0.062      334.824        5.049      861.570
01/04/2021  06:49:00       42.752       33.297       -2.498       47.329       44.251       28.195     2240.054     1958.129      794.936        0.397        0.250       54.189       21.731        0.161      334.756        4.940      861.693
01/04/2021  06:50:00       33.378      -88.889      -11.577       59.860       55.400       23.399     3583.161     3069.107      547.500        0.817        0.360       94.949       22.869        0.058      334.825        5.054      861.877
01/04/2021  06:51:00      128.483     -150.310      -34.030       38.963       66.357       27.347     1518.108     4403.270      747.864        2.346        0.333      197.739       22.598        0.013      334.876        5.136      861.811
01/04/2021  06:52:00      126.559        5.414      -10.693       66.651       53.877       30.139     4442.365     2902.741      908.388        1.221        0.413      126.675       13.121        0.011      334.787        4.989      861.636
01/04/2021  06:53:00       27.553        7.061      -15.983       64.448       39.219       16.433     4153.507     1538.161      270.059        0.351        0.298       28.443       18.844        0.439      334.705        4.852      861.707
01/04/2021  06:54:00      -29.947       20.175      -13.834       31.520       19.211       15.842      993.480      369.076      250.972        0.155        0.081       36.109        5.049        0.020      334.815        5.038      861.855
01/04/2021  06:55:00       -2.558       11.153        0.878       17.056       13.741       11.127      290.924      188.827      123.821        0.037        0.030       11.443        9.504        0.690      334.739        4.911      861.794
01/04/2021  06:56:00       -0.495       31.608      -18.248       39.490       22.502       15.148     1559.464      506.350      229.448        0.181        0.115       31.612        6.121        0.037      334.712        4.865      861.718
01/04/2021  06:57:00      -15.488       -5.456       -3.109       29.347       26.849       21.664      861.234      720.858      469.314        0.116        0.103       16.421       10.312        0.394      334.774        4.968      861.733
01/04/2021  06:58:00       -5.697       -5.756       -3.033       40.254       30.196       22.762     1620.349      911.785      518.117        0.156        0.153        8.098       17.641        4.746      334.788        4.992      861.745
01/04/2021  06:59:00       16.250       21.034        0.586       40.870       31.893       22.628     1670.355     1017.187      512.012        0.195        0.160       26.580       16.585        0.389      334.793        5.000      861.669
01/04/2021  07:00:00       79.408      -77.833      -24.461       40.922       69.890       31.950     1674.613     4884.632     1020.820        1.027        0.379      111.192       30.722        0.076      334.856        5.104      861.522
01/04/2021  07:01:00       24.349      -14.920      -22.480       31.974       39.962       22.311     1022.359     1596.956      497.778        0.222        0.156       28.557       15.961        0.312      334.849        5.093      861.406
01/04/2021  07:02:00       -3.275       28.447       -2.625       33.346       16.529       18.439     1111.942      273.212      339.990        0.128        0.086       28.635       21.343        0.556      334.694        4.835      861.480
01/04/2021  07:03:00       -4.482        3.404      -25.218       72.298       21.305       36.192     5227.003      453.893     1309.881        0.383        0.350        5.628       39.763       49.911      334.900        5.178      861.590
01/04/2021  07:04:00       18.587       25.341      -31.221       78.489       27.160       39.395     6160.511      737.666     1552.004        0.520        0.423       31.427       44.920        2.043      335.123        5.548      861.560
01/04/2021  07:05:00       26.498       41.021       -5.338       60.781       32.429       32.763     3694.284     1051.620     1073.404        0.412        0.291       48.835       39.328        0.649      334.969        5.292      861.296
01/04/2021  07:06:00       54.636       44.200      -34.248       75.188       54.547       45.979     5653.168     2975.389     2114.029        0.843        0.537       70.276       53.753        0.585      335.123        5.549      861.215
01/04/2021  07:07:00        8.892       -0.850      -14.130       84.407       38.368       49.341     7124.469     1472.140     2434.515        0.565        0.552        8.933       36.628       16.813      335.004        5.352      861.356
01/04/2021  07:08:00       22.506      -10.262       -2.329       69.001       36.172       35.969     4761.168     1308.433     1293.800        0.399        0.368       24.735       34.826        1.982      334.975        5.301      861.413
01/04/2021  07:09:00       62.320       11.600      -26.194       74.074       26.969       41.637     5487.016      727.301     1733.671        0.632        0.397       63.390       52.434        0.684      335.150        5.595      861.264
01/04/2021  07:10:00       77.280       39.711      -30.650       99.314        9.955       48.449     9863.345       99.111     2347.282        1.040        0.615       86.886       67.838        0.610      335.198        5.675      861.119
01/04/2021  07:11:00      106.816       64.739      -45.238       85.328       25.561       40.565     7280.838      653.345     1645.538        1.361        0.479      124.903       55.952        0.201      335.280        5.809      861.075
01/04/2021  07:12:00      119.880       52.048      -36.735       93.193       21.541       41.669     8684.997      464.011     1736.337        1.466        0.544      130.692       60.869        0.217      335.235        5.734      861.058
01/04/2021  07:13:00       42.141       37.756      -50.777       77.228       22.544       40.801     5964.161      508.229     1664.721        0.696        0.407       56.581       50.094        0.784      335.264        5.783      861.034
01/04/2021  07:14:00       61.580       80.691      -35.905       87.105       40.383       41.989     7587.222     1630.814     1763.084        1.128        0.549      101.505       50.967        0.252      335.348        5.926      860.929
01/04/2021  07:15:00      119.644       93.093      -31.605       83.298       34.441       40.383     6938.535     1186.186     1630.796        1.687        0.488      151.594       54.952        0.131      335.362        5.943      860.829
01/04/2021  07:16:00       82.273       99.250      -24.857       80.894       34.547       40.147     6543.878     1193.473     1611.788        1.329        0.467      128.917       48.533        0.142      335.482        6.146      860.799
01/04/2021  07:17:00      117.851       25.657      -51.291       92.421       46.656       42.060     8541.718     2176.792     1769.044        1.483        0.624      120.612       57.241        0.225      335.293        5.830      860.746
01/04/2021  07:18:00       85.045       44.516      -40.980       81.470       68.089       47.773     6637.291     4636.110     2282.241        1.222        0.678       95.991       50.477        0.277      334.857        5.105      860.728
01/04/2021  07:19:00       -5.452       27.102      -28.564       66.310       40.743       40.522     4396.990     1659.964     1642.070        0.464        0.385       27.645       35.105        1.613      334.816        5.038      860.856
01/04/2021  07:20:00      -86.957       20.283      -23.423       75.902       42.573       50.582     5761.074     1812.469     2558.528        0.932        0.507       89.291       42.585        0.227      335.026        5.387      860.991
01/04/2021  07:21:00     -104.242       56.180      -32.806       62.358       32.750       33.524     3888.465     1072.537     1123.830        1.059        0.304      118.417       32.711        0.076      335.087        5.489      860.971
01/04/2021  07:22:00     -104.495       47.909      -42.435       69.553       33.840       32.487     4837.565     1145.169     1055.382        1.103        0.352      114.954       35.370        0.095      335.140        5.577      860.913
01/04/2021  07:23:00      -43.706       35.449      -11.920       50.907       35.985       27.558     2591.501     1294.949      759.458        0.398        0.232       56.275       21.430        0.145      335.032        5.398      860.912
01/04/2021  07:24:00      -38.029      100.443      -24.065       58.995       44.733       31.640     3480.407     2001.028     1001.114        0.930        0.324      107.401       24.340        0.051      334.956        5.271      860.886
01/04/2021  07:25:00      -16.210      163.091      -12.774       38.005       41.825       27.115     1444.357     1749.320      735.242        1.548        0.196      163.894       12.324        0.006      334.997        5.339      860.813
01/04/2021  07:26:00      -13.709      167.682       -5.973       37.090       42.399       23.071     1375.675     1797.698      532.264        1.602        0.185      168.241       19.275        0.013      334.987        5.321      860.789
01/04/2021  07:27:00       -3.163      116.384      -11.598       41.083       41.923       22.972     1687.852     1757.522      527.706        0.883        0.199      116.427       18.081        0.024      335.022        5.379      860.774
01/04/2021  07:28:00       54.055      175.279      -21.041       46.264       58.327       25.074     2140.342     3401.993      628.687        2.013        0.309      183.425       13.592        0.005      335.175        5.632      860.754
01/04/2021  07:29:00       33.807      118.442       -5.231       35.853       49.256       24.553     1285.455     2426.171      602.868        0.976        0.216      123.172        7.788        0.004      335.227        5.720      860.812
01/04/2021  07:30:00        0.090       -2.397        3.310       21.680       47.914       14.792      470.025     2295.784      218.815        0.150        0.149        2.399       12.942       29.111      335.188        5.656      860.805
01/04/2021  07:31:00        5.504      -12.998       -0.636       27.740       23.121       22.433      769.497      534.601      503.258        0.100        0.090       14.115       15.286        1.173      335.114        5.533      860.720
01/04/2021  07:32:00       19.010      -32.228      -18.939       26.038       53.224       15.384      677.970     2832.795      236.675        0.275        0.187       37.417       11.876        0.101      335.178        5.641      860.684
01/04/2021  07:33:00        0.625       14.830       -8.025       10.567       33.425       11.368      111.668     1117.214      129.240        0.082        0.068       14.844        9.950        0.449      335.357        5.935      860.667
01/04/2021  07:34:00      -70.130       45.449       -9.905       31.861       31.957       14.903     1015.111     1021.219      222.114        0.467        0.113       83.569       18.644        0.050      335.412        6.027      860.630
01/04/2021  07:35:00      -70.361        9.017       -6.094       23.441       18.995       17.358      549.501      360.813      301.309        0.314        0.061       70.936        9.819        0.019      335.231        5.727      860.630
01/04/2021  07:36:00      -70.677       46.199       -8.155       26.459       20.967       14.807      700.065      439.632      219.249        0.428        0.068       84.437        4.955        0.003      335.411        6.028      860.521
01/04/2021  07:37:00     -101.963       67.015      -15.505       20.201       19.089       15.552      408.062      364.398      241.853        0.807        0.051      122.014        9.614        0.006      335.434        6.064      860.416
01/04/2021  07:38:00     -145.428       53.808      -21.269       41.412       29.382       27.081     1714.970      863.313      733.391        1.390        0.166      155.063       15.808        0.010      335.453        6.095      860.357
01/04/2021  07:39:00     -156.610       33.377      -15.613       61.434       41.582       29.296     3774.166     1729.078      858.281        1.612        0.318      160.128       22.266        0.019      335.252        5.759      860.409
01/04/2021  07:40:00      -69.725       -0.760      -11.891       43.841       35.483       32.614     1922.030     1259.057     1063.680        0.462        0.212       69.729       22.913        0.108      335.176        5.636      860.474
01/04/2021  07:41:00      -33.104       11.564       -0.395       36.320       14.793       13.923     1319.119      218.833      193.860        0.148        0.087       35.066       14.877        0.180      335.244        5.749      860.469
01/04/2021  07:42:00        9.434       20.797        1.144       18.801       30.802       14.317      353.472      948.776      204.978        0.101        0.075       22.837        6.167        0.073      335.419        6.039      860.432
01/04/2021  07:43:00        7.403      -25.321       -1.022       16.864       27.612       11.225      284.385      762.436      125.997        0.093        0.059       26.381       10.610        0.162      335.331        5.893      860.335
01/04/2021  07:44:00      -54.320       -4.937      -16.477       41.243       30.201       15.165     1700.994      912.121      229.974        0.304        0.142       54.544       12.866        0.056      335.402        6.010      860.283
01/04/2021  07:45:00     -133.472       29.465      -16.170       23.956       20.517       15.006      573.889      420.956      225.170        1.008        0.061      136.685        9.695        0.005      335.289        5.824      860.276
01/04/2021  07:46:00      -81.336       -9.626       -1.928       41.636       31.827       20.482     1733.569     1012.964      419.519        0.494        0.158       81.904       16.594        0.041      335.224        5.713      860.320
01/04/2021  07:47:00      -58.653        7.871       -4.546       31.810       26.660       13.050     1011.874      710.747      170.304        0.271        0.095       59.179        7.505        0.016      335.273        5.797      860.351
01/04/2021  07:48:00       -3.509      -36.829      -15.040       18.587       21.339       12.754      345.471      455.349      162.659        0.128        0.048       36.995        9.090        0.060      335.387        5.986      860.352
01/04/2021  07:49:00      -21.530      -19.467        7.781       20.422       17.400       11.477      417.041      302.765      131.715        0.088        0.043       29.027       10.145        0.122      335.401        6.009      860.268
01/04/2021  07:50:00       13.274      -33.088       -3.328       20.406       21.825       14.720      416.398      476.324      216.674        0.120        0.055       35.651       12.722        0.127      335.435        6.067      860.255
01/04/2021  07:51:00       13.066      -29.607       -5.407       17.477       22.332       13.063      305.445      498.736      170.645        0.103        0.049       32.361       11.729        0.131      335.438        6.071      860.268
01/04/2021  07:52:00       -3.645       57.337       -0.239       11.827       23.954       11.608      139.870      573.803      134.745        0.207        0.042       57.453        9.738        0.029      335.495        6.167      860.150
01/04/2021  07:53:00      -41.524       49.081      -12.081       49.726       42.663       20.981     2472.653     1820.117      440.192        0.450        0.237       64.289       18.314        0.081      335.525        6.217      860.015
01/04/2021  07:54:00      -41.002       -1.996       -5.217       38.194       23.783       14.017     1458.804      565.632      196.488        0.197        0.111       41.051        4.533        0.012      335.200        5.677      860.017
01/04/2021  07:55:00      -25.319      -14.791       -6.588       17.484       24.176       13.536      305.688      584.498      183.212        0.099        0.054       29.323       10.433        0.127      335.355        5.932      860.033
01/04/2021  07:56:00      -36.326        9.027       -2.654       36.858       22.514       11.772     1358.546      506.868      138.581        0.171        0.100       37.431        6.589        0.031      335.362        5.946      860.077
01/04/2021  07:57:00      -12.773       23.702        3.991       52.557       35.747       34.662     2762.220     1277.817     1201.438        0.299        0.262       26.925       23.321        0.750      335.159        5.610      860.156
01/04/2021  07:58:00      -18.442       10.127        1.522       46.775       36.954       28.668     2187.882     1365.622      821.840        0.241        0.219       21.039       21.337        1.028      335.138        5.575      860.244
01/04/2021  07:59:00      -67.004       -1.743       -9.623       58.288       41.716       29.507     3397.444     1740.218      870.644        0.530        0.300       67.027       25.841        0.149      335.191        5.660      860.286
01/04/2021  08:00:00     -110.394       35.486       -5.343       35.451       27.594       21.756     1256.801      761.422      473.310        0.798        0.125      115.957       14.025        0.015      335.201        5.677      860.291
01/04/2021  08:01:00      -76.793       59.176       -5.964       29.442       32.861       19.935      866.810     1079.863      397.385        0.589        0.117       96.949       15.095        0.024      335.369        5.957      860.258
01/04/2021  08:02:00      -79.896       54.606       -3.422       36.158       32.270       25.646     1307.408     1041.369      657.725        0.619        0.150       96.774       18.525        0.037      335.671        6.459      860.185
01/04/2021  08:03:00      -33.859        4.461        1.192       50.667       48.495       20.720     2567.160     2351.760      429.323        0.326        0.267       34.152       16.415        0.231      335.306        5.852      860.156
01/04/2021  08:04:00      -18.537      -31.961       -7.545       28.835       32.735       17.887      831.475     1071.563      319.949        0.182        0.111       36.948       13.787        0.139      335.227        5.720      860.209
01/04/2021  08:05:00      -31.855       -3.464      -14.245       50.821       30.830       21.466     2582.781      950.462      460.807        0.261        0.200       32.043        6.801        0.045      335.186        5.651      860.285
01/04/2021  08:06:00     -128.031       56.096      -10.700       40.550       40.701       20.841     1644.313     1656.552      434.330        1.169        0.187      139.781       12.170        0.008      335.291        5.827      860.217
01/04/2021  08:07:00      -19.779      -13.443      -10.660       57.230       64.108       27.320     3275.306     4109.777      746.384        0.441        0.407       23.915       17.271        0.522      335.609        6.357      860.117
01/04/2021  08:08:00      -81.978       13.257       -3.856       65.412       49.206       31.877     4278.762     2421.263     1016.139        0.731        0.386       83.043       32.403        0.152      335.639        6.407      860.107
01/04/2021  08:09:00     -113.412       14.955       -5.350       58.310       35.353       27.307     3400.028     1249.862      745.648        0.925        0.270      114.394       25.418        0.049      335.380        5.974      860.099
01/04/2021  08:10:00     -106.891       18.070       -2.391       30.723       23.355       20.577      943.932      545.477      423.407        0.683        0.096      108.408        3.724        0.001      335.455        6.100      860.124
01/04/2021  08:11:00      -27.967        1.021        0.057       35.446       20.825       11.859     1256.444      433.674      140.629        0.131        0.092       27.986        5.834        0.043      335.575        6.300      860.100
01/04/2021  08:12:00      -54.242        7.362      -12.706       26.735       19.538       11.563      714.746      381.743      133.705        0.219        0.062       54.739       14.910        0.074      335.628        6.388      860.059
01/04/2021  08:13:00       -6.938       22.387       -1.538       44.288       24.659       12.717     1961.450      608.076      161.724        0.164        0.137       23.437        9.755        0.173      335.635        6.399      860.026
01/04/2021  08:14:00      -41.441       32.933        4.925       42.141       41.131       19.276     1775.894     1691.783      371.583        0.333        0.192       52.934        7.224        0.019      335.960        6.941      860.028
01/04/2021  08:15:00      -57.503       16.735       -2.326       58.899       25.566       23.082     3469.084      653.607      532.789        0.412        0.233       59.889       26.769        0.200      335.648        6.422      860.087
01/04/2021  08:16:00      -81.341       -8.386       -3.942      104.105       38.820       29.466    10837.869     1507.001      868.229        0.995        0.661       81.772       29.358        0.129      335.517        6.201      860.156
01/04/2021  08:17:00     -147.559       -7.812        1.587       91.541       64.610       42.403     8379.714     4174.460     1798.017        1.809        0.718      147.766       45.816        0.096      335.669        6.455      860.188
01/04/2021  08:18:00      -73.893       -4.389        0.817       68.798       58.928       39.134     4733.185     3472.500     1531.509        0.761        0.487       74.023       40.476        0.299      335.913        6.863      860.199
01/04/2021  08:19:00      -54.235       -7.766        4.941       51.253       61.481       27.202     2626.885     3779.929      739.938        0.508        0.357       54.788       25.277        0.213      336.130        7.225      860.195
01/04/2021  08:20:00     -109.820      -18.757       -5.952       47.612       46.866       27.611     2266.864     2196.425      762.381        0.884        0.261      111.411       18.758        0.028      336.333        7.563      860.195
01/04/2021  08:21:00     -174.064      -82.470      -15.148      113.868      124.007       42.996    12965.967    15377.678     1848.658        3.375        1.510      192.613       62.163        0.104      336.565        7.950      860.231
01/04/2021  08:22:00     -161.189      -30.068      -12.280       96.734       79.297       42.880     9357.507     6288.092     1838.713        2.226        0.874      163.970       40.727        0.062      336.703        8.179      860.280
01/04/2021  08:23:00     -119.829       22.769        0.099       63.017       47.824       33.682     3971.135     2287.170     1134.454        1.113        0.370      121.973       23.874        0.038      336.513        7.865      860.309
01/04/2021  08:24:00     -134.337      -32.527        3.456       77.087       52.728       38.594     5942.380     2780.222     1489.502        1.466        0.511      138.218       36.343        0.069      336.680        8.144      860.272
01/04/2021  08:25:00     -158.669      -36.051       -6.519       99.785       59.925       44.950     9957.048     3591.000     2020.499        2.104        0.778      162.713       37.334        0.053      336.911        8.528      860.183
01/04/2021  08:26:00     -109.401        7.681       -8.243       48.315       66.985       28.568     2334.343     4486.958      816.154        0.986        0.382      109.670       12.983        0.014      336.919        8.542      860.151
01/04/2021  08:27:00     -170.605      -24.380       -2.379       94.066       52.995       43.930     8848.385     2808.468     1929.806        2.164        0.679      172.338       48.040        0.078      336.889        8.491      860.185
01/04/2021  08:28:00     -192.795       25.931        1.420       93.082       62.222       43.677     8664.228     3871.542     1907.680        2.614        0.722      194.531       41.119        0.045      336.856        8.435      860.250
01/04/2021  08:29:00     -142.031      -18.101      -13.306       86.051       56.004       37.800     7404.705     3136.445     1428.877        1.632        0.599      143.180       38.240        0.071      336.897        8.505      860.340
01/04/2021  08:30:00     -148.467      -16.402      -14.035       65.102       73.663       40.885     4238.208     5426.177     1671.615        1.692        0.567      149.370       27.869        0.035      337.124        8.885      860.344
01/04/2021  08:31:00     -183.906      -69.476      -26.168      136.057       91.798       44.223    18511.587     8426.794     1955.642        3.411        1.445      196.592       44.179        0.051      337.531        9.566      860.259
01/04/2021  08:32:00      -93.948      -77.408        7.247       71.560      100.779       39.043     5120.829    10156.447     1524.371        1.583        0.840      121.730       39.973        0.108      337.631        9.734      860.212
01/04/2021  08:33:00     -118.607      -37.888       -0.848       75.835       61.265       41.627     5750.965     3753.362     1732.775        1.337        0.562      124.511       32.499        0.068      337.606        9.692      860.255
01/04/2021  08:34:00     -140.788      -36.514        0.373      103.205       84.250       52.178    10651.192     7098.126     2722.518        2.081        1.024      145.446       54.147        0.139      337.653        9.769      860.288
01/04/2021  08:35:00     -176.701      -23.241       -8.708      121.434      100.021       54.911    14746.194    10004.179     3015.227        2.980        1.388      178.223       50.581        0.081      337.489        9.495      860.277
01/04/2021  08:36:00     -108.681      -60.150      -10.081       56.388       84.361       33.705     3179.581     7116.776     1136.024        1.348        0.572      124.216       29.145        0.055      337.459        9.447      860.258
01/04/2021  08:37:00     -146.480     -127.703      -28.251       47.322       46.399       22.677     2239.372     2152.866      514.262        2.173        0.245      194.331       18.843        0.009      337.556        9.608      860.276
01/04/2021  08:38:00     -199.064     -126.741       -9.321       85.887      132.684       56.033     7376.543    17604.964     3139.724        4.194        1.406      235.987       52.106        0.049      337.642        9.751      860.285
01/04/2021  08:39:00      -85.534      -80.000       12.061       79.964       62.485       42.003     6394.295     3904.398     1764.257        1.296        0.603      117.115       14.991        0.016      337.693        9.838      860.308
01/04/2021  08:40:00     -159.971      -60.212      -15.801       89.221       78.530       47.206     7960.367     6166.962     2228.416        2.291        0.818      170.928       44.504        0.068      337.685        9.824      860.327
01/04/2021  08:41:00      -95.818      -84.491       -5.259       41.311       73.698       38.822     1706.604     5431.390     1507.173        1.249        0.432      127.749       22.351        0.031      337.722        9.889      860.350
01/04/2021  08:42:00      -94.234      -48.307        2.975       91.992       81.969       51.691     8462.554     6718.894     2671.947        1.453        0.893      105.895       55.120        0.271      337.769        9.965      860.371
01/04/2021  08:43:00     -167.638      -51.716      -11.876       87.477       75.937       39.901     7652.212     5766.413     1592.108        2.296        0.751      175.434       35.823        0.042      337.765        9.957      860.363
01/04/2021  08:44:00     -183.231      -76.041      -16.366      110.242       84.657       47.933    12153.247     7166.750     2297.526        3.062        1.081      198.383       56.384        0.081      337.810       10.034      860.362
01/04/2021  08:45:00     -139.414      -28.895        0.334       73.271       76.475       40.251     5368.640     5848.372     1620.118        1.655        0.642      142.377       37.252        0.068      337.756        9.944      860.319
01/04/2021  08:46:00     -142.882      -22.159       -9.545       61.093       75.343       29.228     3732.405     5676.636      854.266        1.563        0.513      144.590       24.018        0.028      337.842       10.088      860.264
01/04/2021  08:47:00      -94.688       24.199      -13.432       44.155       31.775       20.380     1949.706     1009.660      415.347        0.655        0.169       97.731       16.520        0.029      337.732        9.902      860.187
01/04/2021  08:48:00      -16.496     -101.647      -23.011      111.569       67.492       39.815    12447.678     4555.236     1585.195        1.486        0.929      102.976       56.968        0.306      337.833       10.075      860.154
01/04/2021  08:49:00       -3.040      -35.773      -24.474      102.862       90.085       34.692    10580.544     8115.376     1203.537        1.089        0.995       35.902       46.829        1.701      337.973       10.308      860.111
01/04/2021  08:50:00      -73.188       33.799       -7.668       37.596       45.966       18.285     1413.429     2112.871      334.340        0.521        0.193       80.616       17.734        0.048      338.067       10.469      860.051
01/04/2021  08:51:00      -95.743      -18.874       -7.860       34.491       28.152       17.679     1189.639      792.527      312.539        0.594        0.115       97.585       17.974        0.034      337.825       10.061      860.059
01/04/2021  08:52:00       32.892       14.152       -0.215       51.670       48.712       34.968     2669.783     2372.854     1222.791        0.377        0.313       35.808       14.821        0.171      338.155       10.614      860.123
01/04/2021  08:53:00      127.919     -137.101      -28.685       88.591      128.820       48.784     7848.364    16594.472     2379.834        3.140        1.341      187.510       40.477        0.047      338.613       11.381      860.115
01/04/2021  08:54:00      232.102     -272.675      -70.145      112.448      123.410       63.087    12644.468    15229.924     3980.029        8.249        1.593      358.082       72.894        0.041      338.653       11.449      860.058
01/04/2021  08:55:00       58.311     -269.383      -51.069      197.256      105.569       55.465    38910.072    11144.774     3076.390        6.584        2.657      275.622       67.214        0.059      338.632       11.411      860.032
01/04/2021  08:56:00     -230.437     -207.944      -47.481       62.008      100.654       36.603     3844.975    10131.288     1339.815        5.695        0.766      310.390       28.283        0.008      338.247       10.765      860.108
01/04/2021  08:57:00     -141.628      -63.132       -3.889       81.345       91.872       43.368     6616.987     8440.439     1880.815        2.049        0.847      155.062       30.092        0.038      338.180       10.654      860.171
01/04/2021  08:58:00      -75.999     -133.665      -29.469       62.584       59.836       39.935     3916.720     3580.365     1594.834        1.680        0.455      153.760       37.456        0.059      338.339       10.923      860.235
01/04/2021  08:59:00     -170.888      -16.937      -24.896       73.762       56.995       31.538     5440.836     3248.432      994.626        1.989        0.484      171.725       30.027        0.031      338.197       10.684      860.212
01/04/2021  09:00:00     -183.037      -24.117      -11.035       53.204       39.575       28.817     2830.680     1566.194      830.422        1.972        0.261      184.619       20.992        0.013      338.024       10.394      860.169
01/04/2021  09:01:00     -166.940      -74.187      -12.766       80.988       88.814       36.532     6559.005     7887.998     1334.568        2.466        0.789      182.682       21.433        0.014      338.083       10.491      860.134
01/04/2021  09:02:00      -70.562      -65.792      -10.602       68.912       50.458       44.307     4748.903     2545.960     1963.069        0.934        0.463       96.476       31.077        0.104      338.242       10.759      860.117
01/04/2021  09:03:00      -94.998       31.693        5.834       79.697       45.398       33.750     6351.574     2060.961     1139.090        0.981        0.478      100.145       28.502        0.081      338.159       10.620      860.027
01/04/2021  09:04:00     -101.681       41.622        9.783       58.236       46.244       32.023     3391.385     2138.462     1025.490        0.936        0.328      109.870       24.869        0.051      338.145       10.597      859.902
01/04/2021  09:05:00      -90.495       27.854      -13.235       25.301       24.670       15.191      640.157      608.595      230.772        0.531        0.074       94.684        7.757        0.007      338.055       10.446      859.821
01/04/2021  09:06:00     -116.145      -52.218      -14.217       39.151       30.529       22.038     1532.776      932.014      485.689        0.968        0.148      127.344       16.614        0.017      338.056       10.447      859.838
01/04/2021  09:07:00     -174.987       15.320       -8.338      104.221       58.387       30.213    10862.014     3409.018      912.847        2.305        0.759      175.657       27.800        0.025      338.061       10.456      859.889
01/04/2021  09:08:00     -241.060      -51.596       -8.002      109.850       80.242       46.373    12067.002     6438.765     2150.452        4.074        1.033      246.520       41.959        0.029      338.030       10.402      859.911
01/04/2021  09:09:00     -147.728       41.257       -8.508       48.727       52.201       33.500     2374.350     2724.993     1122.236        1.491        0.311      153.381       27.852        0.033      338.063       10.461      859.834
01/04/2021  09:10:00      -26.809      -19.216       -5.741       51.112       44.069       31.066     2612.456     1942.083      965.099        0.332        0.276       32.985       10.684        0.105      338.098       10.519      859.736
01/04/2021  09:11:00       11.790      106.237      -10.450       73.718       95.233       33.458     5434.372     9069.407     1119.420        1.358        0.781      106.889       33.118        0.096      338.116       10.547      859.491
01/04/2021  09:12:00      171.386      -67.262      -50.691      158.424      118.731       71.699    25098.159    14097.166     5140.743        4.039        2.217      184.113       31.857        0.030      338.143       10.591      859.414
01/04/2021  09:13:00       70.594     -145.943      -37.049      172.561      139.004       76.922    29777.393    19322.033     5917.046        4.132        2.751      162.120       47.954        0.087      338.209       10.704      859.439
01/04/2021  09:14:00       -7.828     -149.838      -33.188      118.826       81.999       61.680    14119.531     6723.773     3804.462        2.413        1.232      150.042       26.686        0.032      338.327       10.901      859.590
01/04/2021  09:15:00      -69.865      -25.883       -0.788       56.348       48.284       32.372     3175.044     2331.334     1047.916        0.605        0.328       74.505       27.021        0.132      338.196       10.683      859.695
01/04/2021  09:16:00       33.680     -124.897      -15.761       93.774      103.152       47.930     8793.576    10640.274     2297.264        1.935        1.087      129.358       51.175        0.157      338.349       10.940      859.652
01/04/2021  09:17:00      145.443     -235.226      -59.141      130.103      136.217       61.797    16926.666    18555.073     3818.822        5.963        1.965      276.559       57.745        0.044      338.296       10.849      859.431
01/04/2021  09:18:00      230.773     -307.986      -67.967      124.445      140.407       57.009    15486.533    19714.202     3250.039        9.558        1.923      384.852       42.712        0.012      338.269       10.802      859.301
01/04/2021  09:19:00       86.799     -150.203      -47.671       75.317      151.664       56.820     5672.668    23001.978     3228.551        3.213        1.595      173.479       32.578        0.035      338.299       10.853      859.287
01/04/2021  09:20:00      138.721     -336.195      -40.966      137.037      183.265       66.595    18779.193    33586.002     4434.909        9.536        2.840      363.690       83.626        0.053      338.318       10.886      859.381
01/04/2021  09:21:00      162.442     -428.250      -64.250      128.242      173.408       71.469    16445.993    30070.326     5107.794       13.276        2.581      458.023       62.443        0.019      338.337       10.916      859.486
01/04/2021  09:22:00      -32.230      -54.133       23.453      114.475       99.478       58.877    13104.627     9895.854     3466.512        1.549        1.323       63.001       43.321        0.473      338.243       10.761      859.500
01/04/2021  09:23:00      -29.868     -108.405      -18.972      151.988      130.057       57.770    23100.321    16914.701     3337.337        2.817        2.168      112.445       38.763        0.119      338.287       10.834      859.494
01/04/2021  09:24:00      179.279     -121.608      -49.462      152.621      136.298       80.345    23293.045    18577.115     6455.312        4.884        2.416      216.632       93.448        0.186      338.211       10.706      859.294
01/04/2021  09:25:00      110.583     -182.829      -51.050      218.638      184.239       97.122    47802.391    33943.969     9432.753        6.970        4.559      213.670      118.869        0.309      338.188       10.666      859.097
01/04/2021  09:26:00      226.985     -306.611     -100.891      204.637      212.370       92.764    41876.505    45101.011     8605.093       12.563        4.779      381.488      112.138        0.086      338.218       10.718      858.988
01/04/2021  09:27:00      134.992     -316.817      -60.530      186.134      268.311      112.187    34645.776    71990.934    12585.967       12.071        5.961      344.377       82.509        0.057      338.230       10.737      858.961
01/04/2021  09:28:00      100.484     -425.543      -77.828      212.389      224.659      102.588    45109.131    50471.823    10524.344       15.165        5.305      437.246       55.076        0.016      338.309       10.869      859.080
01/04/2021  09:29:00      118.337     -288.866      -70.587      189.797      234.978       95.249    36022.718    55214.534     9072.383       10.135        5.015      312.166      103.948        0.111      338.281       10.824      859.135
01/04/2021  09:30:00      118.622     -379.563      -59.762      157.259      199.899       90.222    24730.289    39959.565     8140.043       11.725        3.641      397.668       97.745        0.060      338.371       10.973      859.200
01/04/2021  09:31:00       86.498     -346.106      -47.353      188.185      191.115       94.651    35413.522    36525.052     8958.829       10.519        4.045      356.751       73.218        0.042      338.348       10.935      859.161
01/04/2021  09:32:00      121.201     -321.589      -73.237      206.264      225.336       94.905    42544.663    50776.533     9006.944       11.288        5.116      343.670      101.062        0.086      338.331       10.907      859.192
01/04/2021  09:33:00      114.790     -347.065      -66.351      222.117      211.379      114.972    49335.864    44680.975    13218.510       12.261        5.362      365.556      104.311        0.081      338.342       10.925      859.128
01/04/2021  09:34:00      -47.636     -246.716      -21.588      175.340      205.547       98.237    30744.107    42249.511     9650.556        7.311        4.132      251.272       74.411        0.088      338.400       11.022      859.061
01/04/2021  09:35:00       62.003     -161.515      -58.342      172.169      168.965       84.845    29642.153    28549.200     7198.610        4.935        3.269      173.007       55.081        0.101      338.351       10.940      858.989
01/04/2021  09:36:00      115.257     -203.425      -28.063      169.311      260.958       82.106    28666.084    68099.075     6741.465        7.946        5.175      233.807      107.551        0.212      338.339       10.922      858.962
01/04/2021  09:37:00      165.665     -482.769      -59.366      151.016      196.763       97.395    22805.711    38715.506     9485.883       16.751        3.550      510.402       78.779        0.024      338.408       11.036      858.951
01/04/2021  09:38:00      153.123     -337.945      -70.071      142.321      161.599       68.696    20255.390    26114.264     4719.194        9.682        2.554      371.017       62.169        0.028      338.389       11.003      859.065
01/04/2021  09:39:00      161.848     -480.297      -61.796      172.671      191.876       85.636    29815.338    36816.348     7333.484       16.732        3.698      506.834       96.802        0.036      338.462       11.126      859.010
01/04/2021  09:40:00      168.447     -277.481      -68.172       95.759      187.620       53.572     9169.849    35201.146     2869.939        7.862        2.362      324.608       49.509        0.023      338.443       11.094      858.939
01/04/2021  09:41:00      173.203     -207.029      -70.780      174.202      205.522       98.998    30346.503    42239.463     9800.570        8.011        4.119      269.927       91.834        0.116      338.365       10.965      858.816
01/04/2021  09:42:00       43.362     -159.417      -42.611      119.116      136.561       62.855    14188.649    18648.850     3950.753        3.294        1.839      165.209       42.719        0.067      338.382       10.992      858.873
01/04/2021  09:43:00      157.452     -244.076      -57.553      124.521      135.990       62.911    15505.532    18493.310     3957.832        6.281        1.898      290.455       52.694        0.033      338.374       10.978      858.845
01/04/2021  09:44:00      135.273     -259.110      -39.092      153.715      147.883       95.536    23628.244    21869.447     9127.183        7.078        2.731      292.295       44.150        0.023      338.395       11.013      858.902
01/04/2021  09:45:00      105.000     -258.503      -66.684      154.525      219.395       96.091    23878.039    48134.124     9233.570        8.175        4.062      279.014       90.528        0.105      338.400       11.021      858.810
01/04/2021  09:46:00      149.504     -353.683      -49.334      125.944      134.962       71.366    15861.770    18214.744     5093.133        9.451        1.958      383.983       66.715        0.030      338.444       11.096      858.726
01/04/2021  09:47:00      188.892     -217.579      -41.335      139.816      195.225       76.654    19548.432    38112.996     5875.781        7.412        3.177      288.133       68.373        0.056      338.396       11.015      858.646
01/04/2021  09:48:00      229.460     -329.531      -78.305      103.672      127.717       51.246    10747.985    16311.587     2626.129        9.852        1.484      401.550       56.872        0.020      338.451       11.109      858.586
01/04/2021  09:49:00      131.203     -282.764      -24.138       87.639      144.220       71.328     7680.670    20799.451     5087.622        6.565        1.678      311.721       77.006        0.061      338.459       11.122      858.601
01/04/2021  09:50:00       27.128     -126.512      -16.650      110.327      140.742       55.586    12172.086    19808.349     3089.858        2.604        1.754      129.388       53.390        0.170      338.500       11.191      858.616
01/04/2021  09:51:00      -18.847     -195.992      -32.978      144.016      120.694       65.439    20740.722    14567.144     4282.240        3.971        1.980      196.896       44.481        0.051      338.497       11.186      858.720
01/04/2021  09:52:00       11.753     -234.452      -43.474      149.885      163.918       75.063    22465.652    26869.030     5634.408        5.597        2.748      234.747       67.792        0.083      338.546       11.268      858.783
01/04/2021  09:53:00      208.025     -420.620      -92.846      224.199      196.715       93.769    50265.312    38696.746     8792.584       16.326        4.888      469.250      109.047        0.054      338.505       11.198      858.709
01/04/2021  09:54:00       66.993     -327.059      -29.972      117.659      193.948       71.359    13843.648    37615.877     5092.124        8.444        2.828      333.849       20.242        0.004      338.552       11.278      858.775
01/04/2021  09:55:00       51.595     -256.177      -41.412      117.775      163.753       62.029    13870.902    26815.169     3847.579        5.726        2.227      261.321       31.222        0.014      338.551       11.275      858.876
01/04/2021  09:56:00       66.306     -233.588      -25.431      117.317      152.077       71.493    13763.311    23127.487     5111.197        5.080        2.100      242.816       60.749        0.063      338.523       11.231      858.854
01/04/2021  09:57:00      -76.577     -125.658       -8.166       72.526       90.835       43.495     5259.983     8250.974     1891.781        1.856        0.770      147.153       37.123        0.064      338.517       11.221      858.875
01/04/2021  09:58:00     -125.540     -214.384      -21.640      143.948      210.989       80.874    20720.964    44516.384     6540.610        6.697        3.589      248.437       75.415        0.092      338.519       11.223      858.876
01/04/2021  09:59:00       -5.136     -389.063      -45.983      181.815      194.530       94.352    33056.743    37841.976     8902.230       11.664        3.990      389.097       89.695        0.053      338.583       11.330      858.884
01/04/2021  10:00:00      156.038     -378.561      -58.757      175.120      182.916       75.601    30666.987    33458.088     5715.503       12.046        3.492      409.459       82.345        0.040      338.482       11.158      858.848
01/04/2021  10:01:00       70.175     -350.941      -31.686      124.339      154.177       82.183    15460.106    23770.599     6753.974        8.753        2.299      357.888       69.457        0.038      338.565       11.300      858.891
01/04/2021  10:02:00       46.956     -136.205      -27.941       84.156      119.382       50.756     7082.219    14252.060     2576.199        2.272        1.196      144.071       40.303        0.078      338.557       11.288      858.935
01/04/2021  10:03:00     -234.063     -321.244      -48.442      203.600      222.139       91.859    41452.917    49345.869     8438.140       12.976        4.962      397.471       77.383        0.038      338.573       11.314      858.934
01/04/2021  10:04:00      -33.957     -257.788      -33.509      130.631      140.695       71.673    17064.423    19795.204     5137.086        5.535        2.100      260.015       57.774        0.049      338.589       11.340      858.854
01/04/2021  10:05:00      -25.343     -199.158      -28.230      193.391      155.882       81.128    37400.044    24299.096     6581.746        5.468        3.414      200.764       86.243        0.185      338.601       11.361      858.830
01/04/2021  10:06:00      -79.330     -125.428       -8.585       81.879      111.863       49.676     6704.097    12513.286     2467.727        2.189        1.084      148.410       49.035        0.109      338.594       11.351      858.815
01/04/2021  10:07:00       43.625     -249.333      -27.807      101.054      209.228       73.078    10211.948    43776.257     5340.329        6.207        2.966      253.121       80.057        0.100      338.630       11.411      858.743
01/04/2021  10:08:00      113.561     -198.436      -58.008      145.951      233.160       77.342    21301.786    54363.382     5981.744        6.862        4.082      228.633       73.223        0.103      338.549       11.274      858.702
01/04/2021  10:09:00      158.221     -400.102      -71.602      157.628      196.912       87.808    24846.636    38774.455     7710.288       13.077        3.567      430.251      101.284        0.055      338.543       11.262      858.801
01/04/2021  10:10:00      -58.146     -231.535      -23.030      141.050      185.029       76.254    19895.141    34235.765     5814.662        5.872        2.997      238.724       75.262        0.099      338.601       11.361      858.907
01/04/2021  10:11:00      150.242     -266.386      -62.165      157.057      246.823       80.156    24666.834    60921.776     6424.970        9.469        4.601      305.833       71.293        0.054      338.544       11.265      858.812
01/04/2021  10:12:00       23.187     -359.878      -45.071      195.727      180.234       78.677    38309.022    32484.354     6190.139       10.452        3.849      360.624       68.199        0.036      338.649       11.440      858.740
01/04/2021  10:13:00       50.527     -208.753      -42.158      124.389      126.368       61.224    15472.513    15968.805     3748.415        4.154        1.759      214.780       51.987        0.059      338.604       11.367      858.734
01/04/2021  10:14:00      200.180     -317.264      -85.980      130.687      173.590       74.308    17079.189    30133.578     5521.678       10.042        2.637      375.138       78.240        0.043      338.567       11.304      858.652
01/04/2021  10:15:00       93.626     -136.519      -37.959      126.309      135.713       52.524    15953.955    18417.970     2758.720        3.298        1.857      165.539       59.425        0.129      338.571       11.310      858.543
01/04/2021  10:16:00      180.185     -291.742      -48.909       81.575      103.005       48.820     6654.422    10610.000     2383.414        6.981        0.982      342.899       26.143        0.006      338.592       11.344      858.531
01/04/2021  10:17:00      153.914     -229.944      -65.932       87.957      167.298       45.896     7736.376    27988.689     2106.483        5.936        1.892      276.702       32.963        0.014      338.588       11.338      858.555
01/04/2021  10:18:00      114.666     -334.270      -58.950      157.014      113.423       72.797    24653.386    12864.881     5299.444        8.558        2.141      353.390       57.328        0.026      338.661       11.461      858.518
01/04/2021  10:19:00      133.863     -199.903      -41.403       92.196      104.596       49.329     8500.098    10940.280     2433.358        4.073        1.094      240.584       34.826        0.021      338.638       11.422      858.460
01/04/2021  10:20:00       97.405     -333.527      -42.581       88.409      104.828       51.332     7816.162    10988.963     2634.926        7.199        1.072      347.460       40.091        0.013      338.713       11.549      858.396
01/04/2021  10:21:00      145.853     -133.259      -44.084       97.941      128.721       56.231     9592.422    16569.206     3161.881        3.514        1.466      197.563       59.619        0.091      338.612       11.379      858.396
01/04/2021  10:22:00     -113.810      -59.550       -9.348      120.940       79.075       57.467    14626.474     6252.779     3302.457        2.038        1.209      128.448       35.338        0.076      338.587       11.340      858.454
01/04/2021  10:23:00      -80.022     -234.214      -36.008      163.133      124.561       56.768    26612.319    15515.322     3222.581        5.394        2.268      247.507       58.421        0.056      338.659       11.457      858.478
01/04/2021  10:24:00       40.640      -37.598      -42.386      126.628      118.088       54.716    16034.650    13944.824     2993.788        1.891        1.649       55.364       57.041        1.062      338.665       11.470      858.436
01/04/2021  10:25:00       76.070     -188.381      -53.325      166.646      144.507       67.815    27770.995    20882.395     4598.901        4.867        2.663      203.160       56.799        0.078      338.590       11.344      858.345
01/04/2021  10:26:00      136.141     -271.953      -46.669      188.602      229.197       73.008    35570.549    52531.112     5330.154        9.403        4.672      304.127      101.426        0.111      338.634       11.416      858.366
01/04/2021  10:27:00       95.959     -230.494      -33.820      111.058      190.504       60.797    12333.873    36291.667     3696.334        5.789        2.616      249.671       61.842        0.061      338.637       11.423      858.351
01/04/2021  10:28:00      246.552     -297.515      -82.945      146.891      177.291       70.897    21577.015    31431.964     5026.333       10.710        2.902      386.397       71.073        0.034      338.554       11.282      858.256
01/04/2021  10:29:00       77.604     -286.940      -56.663      162.500      121.265       63.237    26406.220    14705.293     3998.857        6.833        2.256      297.249       61.730        0.043      338.599       11.357      858.335
01/04/2021  10:30:00      -57.720      -55.104       -2.024       87.138       65.290       36.470     7592.977     4262.736     1330.092        0.978        0.659       79.801       27.862        0.122      338.535       11.252      858.484
01/04/2021  10:31:00      -81.726      -89.715       -3.182       67.612       74.382       38.366     4571.317     5532.647     1471.915        1.315        0.579      121.358       33.512        0.076      338.600       11.362      858.629
01/04/2021  10:32:00      -32.045      -87.035      -10.496       79.797      100.876       44.251     6367.632    10176.000     1958.180        1.360        0.925       92.747       33.762        0.133      338.725       11.571      858.790
01/04/2021  10:33:00       72.299     -140.502      -54.771      161.839      133.330       64.144    26191.942    17776.950     4114.500        3.802        2.404      158.012       61.630        0.152      338.599       11.358      858.928
01/04/2021  10:34:00      188.808     -257.470      -49.808      203.018      181.198       97.282    41216.426    32832.846     9463.872        9.395        4.176      319.279      114.766        0.129      338.510       11.207      858.848
01/04/2021  10:35:00       -1.126     -148.432      -37.888      117.221      112.797       63.050    13740.845    12723.269     3975.304        2.695        1.522      148.436       25.305        0.029      338.598       11.354      858.832
01/04/2021  10:36:00      -74.473     -153.815      -44.677       83.584      101.788       38.891     6986.250    10360.714     1512.489        2.503        0.943      170.895       22.944        0.018      338.569       11.305      858.785
01/04/2021  10:37:00      -46.343     -127.081      -18.472      120.265       70.867       49.929    14463.594     5022.066     2492.924        2.030        1.099      135.267       40.377        0.089      338.633       11.415      858.694
01/04/2021  10:38:00       31.313      -48.134      -11.324       46.657       48.164       28.388     2176.915     2319.748      805.896        0.436        0.265       57.423       23.610        0.169      338.658       11.458      858.583
01/04/2021  10:39:00      -42.080       53.746      -19.384       76.285       71.564       33.572     5819.449     5121.464     1127.065        0.855        0.603       68.260       24.008        0.124      338.712       11.550      858.458
01/04/2021  10:40:00      161.923     -233.875      -58.270       98.450      252.128       57.542     9692.394    63568.694     3311.111        8.043        3.829      284.458       75.164        0.070      338.470       11.140      858.363
01/04/2021  10:41:00       65.829     -316.693      -56.126      199.661      245.571       91.517    39864.714    60305.276     8375.318       10.814        5.427      323.463      103.307        0.102      338.384       10.995      858.177
01/04/2021  10:42:00      156.200      -82.215      -49.944      118.954      115.341       68.665    14149.969    13303.568     4714.895        3.290        1.608      176.516       61.080        0.120      338.369       10.972      858.177
01/04/2021  10:43:00       43.778      -61.828      -30.828      126.369      100.147       53.055    15969.143    10029.329     2814.862        1.775        1.441       75.758       45.578        0.362      338.408       11.037      858.218
01/04/2021  10:44:00       38.613     -218.873      -34.320      171.630      134.567       68.099    29456.762    18108.289     4637.495        5.138        2.610      222.253       64.006        0.083      338.537       11.253      858.381
01/04/2021  10:45:00       86.877     -389.827      -58.160      138.571      188.766       82.578    19201.918    35632.502     6819.126       11.226        3.083      399.391       82.822        0.043      338.641       11.427      858.559
01/04/2021  10:46:00     -163.693      -36.524       -4.096      150.959       84.148       71.282    22788.584     7080.890     5081.058        3.154        1.748      167.718       69.975        0.174      338.447       11.104      858.652
01/04/2021  10:47:00     -256.287      -82.988       -3.148      172.107      149.670       75.524    29620.828    22401.206     5703.837        6.514        2.886      269.388       74.751        0.077      338.426       11.066      858.642
01/04/2021  10:48:00     -256.335     -128.001      -18.060      124.315      147.598       71.397    15454.124    21785.187     5097.546        6.237        2.117      286.517       78.863        0.076      338.473       11.143      858.706
01/04/2021  10:49:00     -139.029      -10.825       -3.574      157.730       89.938       57.921    24878.643     8088.826     3354.793        2.788        1.816      139.450       55.062        0.156      338.520       11.225      858.687
01/04/2021  10:50:00     -184.224       15.985       -5.423      127.591       89.152       46.929    16279.540     7948.039     2202.324        3.032        1.321      184.916       55.823        0.091      338.493       11.180      858.670
01/04/2021  10:51:00     -182.073       64.578       -0.758       94.579       73.782       48.419     8945.261     5443.715     2344.356        2.702        0.837      193.186       39.238        0.041      338.577       11.320      858.726
01/04/2021  10:52:00      -20.725      -13.300        8.955       75.504       54.664       43.398     5700.807     2988.199     1883.410        0.563        0.529       24.625       26.931        1.196      338.500       11.193      858.827
01/04/2021  10:53:00       41.708       47.046      -39.438       83.799       96.111       34.791     7022.191     9237.323     1210.413        1.149        0.873       62.872       46.901        0.556      338.451       11.111      858.922
01/04/2021  10:54:00      121.396       45.879       -0.728      121.860       70.784       36.207    14849.740     5010.396     1310.939        1.900        1.059      129.776       42.029        0.105      338.427       11.069      858.945
01/04/2021  10:55:00      335.051       98.901      -20.714      157.160      101.213       60.356    24699.190    10244.093     3642.804        8.052        1.929      349.343       58.725        0.028      338.317       10.882      858.924
01/04/2021  10:56:00      155.729      143.831      -21.288      155.560       97.567       56.608    24198.985     9519.335     3204.498        4.115        1.846      211.988       31.711        0.022      338.293       10.843      858.899
01/04/2021  10:57:00       55.283      111.309        4.681       74.120       76.681       44.082     5493.827     5879.913     1943.205        1.439        0.666      124.282       36.094        0.084      338.367       10.969      858.913
01/04/2021  10:58:00       -7.689       -4.800       -5.605       51.050       76.160       31.750     2606.070     5800.310     1008.052        0.476        0.471        9.064       28.145        9.641      338.358       10.954      859.013
01/04/2021  10:59:00      -67.088      -72.734      -20.198       89.355       57.062       37.598     7984.289     3256.026     1413.591        1.142        0.633       98.950       30.393        0.094      338.364       10.965      858.975
01/04/2021  11:00:00      -72.803     -107.073       -9.461       85.430      129.520       44.178     7298.313    16775.320     1951.693        2.143        1.301      129.479       25.240        0.038      338.335       10.917      858.840
01/04/2021  11:01:00      -77.248     -107.210      -20.573       55.030       56.971       33.468     3028.356     3245.685     1120.135        1.264        0.370      132.141       10.592        0.006      338.252       10.776      858.816
01/04/2021  11:02:00      -43.145        2.565      -19.626       34.584       69.861       26.333     1196.041     4880.595      693.448        0.451        0.339       43.221       28.040        0.421      338.269       10.807      858.838
01/04/2021  11:03:00     -137.995       84.865      -15.517       70.504       68.984       35.657     4970.830     4758.800     1271.423        1.874        0.550      162.002       37.682        0.054      338.360       10.958      858.751
01/04/2021  11:04:00     -324.905       47.589      -35.931      130.739       91.947       54.674    17092.588     8454.255     2989.202        6.882        1.427      328.371       35.730        0.012      338.204       10.691      858.592
01/04/2021  11:05:00     -220.113      -17.317        4.925      146.405      114.149       74.600    21434.345    13029.921     5565.128        4.439        2.001      220.793       71.303        0.104      338.077       10.480      858.517
01/04/2021  11:06:00      -99.792      -17.708      -16.622      100.116       99.399       60.915    10023.302     9880.154     3710.689        1.708        1.181      101.351       36.421        0.129      338.107       10.532      858.511
01/04/2021  11:07:00      -20.935      -73.754      -32.471       75.792       48.482       26.511     5744.357     2350.503      702.852        0.786        0.440       76.668       13.174        0.030      338.114       10.545      858.562
01/04/2021  11:08:00     -115.728       74.876      -26.804       65.983       72.204       33.120     4353.726     5213.407     1096.908        1.519        0.533      137.838       31.513        0.052      338.344       10.930      858.535
01/04/2021  11:09:00      -26.069      -47.077      -16.405       63.909       87.941       27.569     4084.307     7733.702      760.045        0.787        0.629       53.813        7.895        0.022      338.188       10.669      858.490
01/04/2021  11:10:00      107.072     -134.515      -21.770      100.772      129.920       63.966    10154.908    16879.255     4091.597        3.057        1.556      171.927       76.854        0.200      338.357       10.953      858.358
01/04/2021  11:11:00      145.861     -193.028      -54.339      121.702      154.509       74.863    14811.458    23873.150     5604.430        5.288        2.214      241.940       68.092        0.079      338.254       10.776      858.231
01/04/2021  11:12:00     -165.625     -206.692      -61.648      173.980      160.751       82.222    30268.915    25840.816     6760.471        6.840        3.144      264.864       69.293        0.068      338.194       10.676      858.209
01/04/2021  11:13:00     -105.048     -124.307      -34.938      118.314       70.753       46.419    13998.084     5005.992     2154.745        2.443        1.058      162.749       36.007        0.049      338.174       10.644      858.363
01/04/2021  11:14:00     -100.112     -105.995      -32.010       66.539       90.764       51.963     4427.380     8238.167     2700.132        1.882        0.768      145.799       44.473        0.093      338.128       10.567      858.435
01/04/2021  11:15:00      -13.886      -46.904        1.219       71.134       62.567       33.205     5060.109     3914.650     1102.603        0.623        0.504       48.917        7.845        0.026      338.116       10.548      858.527
01/04/2021  11:16:00      -57.693      -39.291       -3.802       48.880       36.356       27.930     2389.301     1321.787      780.074        0.469        0.225       69.802       25.436        0.133      338.123       10.561      858.686
01/04/2021  11:17:00      -31.685      -23.182      -15.697       42.808       27.059       20.121     1832.483      732.167      404.848        0.238        0.148       39.260       16.627        0.179      338.031       10.407      858.784
01/04/2021  11:18:00      -40.005       42.534       -6.618       39.782       44.708       27.264     1582.602     1998.819      743.330        0.389        0.216       58.391       11.280        0.037      338.031       10.408      858.729
01/04/2021  11:19:00       31.937       77.037       -0.615       43.747       39.255       27.438     1913.785     1540.992      752.857        0.558        0.210       83.395       20.345        0.060      337.886       10.163      858.584
01/04/2021  11:20:00      116.202       17.227      -34.677       64.292       94.830       41.286     4133.443     8992.822     1704.565        1.491        0.742      117.472       43.575        0.138      337.861       10.119      858.416
01/04/2021  11:21:00       80.910     -116.763      -35.307      101.387      123.225       58.223    10279.351    15184.504     3389.972        2.513        1.443      142.056       61.922        0.190      337.873       10.138      858.257
01/04/2021  11:22:00      160.219     -310.713      -71.291      108.046      168.152       70.891    11674.004    28274.954     5025.601        8.612        2.249      349.589       44.722        0.016      337.917       10.211      858.232
01/04/2021  11:23:00      390.049     -504.557     -132.869      206.207      242.790       88.710    42521.435    58947.161     7869.454       26.683        5.467      637.743       91.878        0.021      337.822       10.054      858.030
01/04/2021  11:24:00      146.937     -151.714      -76.846      131.476      194.336       78.825    17285.999    37766.366     6213.406        5.588        3.063      211.205       78.664        0.139      337.985       10.327      857.850
01/04/2021  11:25:00      211.884     -175.077      -49.696      120.200      121.720       62.259    14448.147    14815.641     3876.198        5.557        1.657      274.857       56.200        0.042      337.646        9.756      857.738
01/04/2021  11:26:00      232.912     -381.476      -55.191      141.528      174.151       66.156    20030.265    30328.571     4376.590       12.877        2.737      446.959       73.818        0.027      337.589        9.661      857.725
01/04/2021  11:27:00       29.050     -145.986      -29.498      181.219       76.862       49.263    32840.342     5907.743     2426.836        3.209        2.059      148.849       56.400        0.144      337.702        9.853      857.891
01/04/2021  11:28:00      -91.492      -34.890       -5.079       65.277       64.709       41.164     4261.143     4187.298     1694.516        0.988        0.507       97.919       37.297        0.145      337.761        9.952      858.021
01/04/2021  11:29:00      -70.011     -105.411      -13.602       51.639       72.965       39.094     2666.572     5323.864     1528.303        1.286        0.476      126.542       34.238        0.073      337.756        9.946      858.077
01/04/2021  11:30:00     -102.639     -117.124      -16.849      133.296      111.777       78.972    17767.729    12494.168     6236.598        3.051        1.825      155.733       62.276        0.160      337.764        9.956      858.142
01/04/2021  11:31:00      -26.330     -207.981      -35.906      118.741      118.446       53.828    14099.356    14029.512     2897.444        3.813        1.551      209.641       49.902        0.057      337.788        9.995      858.096
01/04/2021  11:32:00       64.014     -145.833      -33.314      107.281      126.212       56.257    11509.226    15929.519     3164.820        2.853        1.530      159.265       48.634        0.093      337.837       10.079      858.000
01/04/2021  11:33:00      -71.911      -85.623      -11.397      159.928       93.260       61.434    25577.080     8697.358     3774.182        2.533        1.902      111.814       38.740        0.120      337.774        9.973      857.904
01/04/2021  11:34:00       27.474      -89.341      -22.600       90.774      113.613       60.339     8239.854    12907.976     3640.822        1.701        1.239       93.470       49.645        0.282      337.762        9.953      857.986
01/04/2021  11:35:00      138.379     -108.724      -31.213      131.542      152.816       67.570    17303.238    23352.584     4565.650        3.857        2.261      175.982       80.787        0.211      337.691        9.836      858.082
01/04/2021  11:36:00       82.439     -307.789      -60.787      246.397      161.913       84.372    60711.344    26215.775     7118.643        9.961        4.702      318.638       74.044        0.054      337.661        9.781      858.069
01/04/2021  11:37:00       -6.661      -65.493      -13.740      129.385       82.397       51.815    16740.405     6789.303     2684.745        1.536        1.311       65.830       28.959        0.194      337.682        9.819      858.140
01/04/2021  11:38:00     -216.440     -119.971      -44.180      167.724      190.223       80.068    28131.343    36184.849     6410.870        6.694        3.536      247.465       65.822        0.071      337.655        9.772      858.207
01/04/2021  11:39:00     -144.839      -40.785      -11.499      121.617       87.442       62.270    14790.801     7646.174     3877.553        2.454        1.316      150.472       45.559        0.092      337.618        9.712      858.358
01/04/2021  11:40:00     -120.543      -91.611       -8.508      119.305      103.883       68.522    14233.740    10791.684     4695.286        2.635        1.486      151.405       51.231        0.114      337.609        9.696      858.500
01/04/2021  11:41:00     -146.859      -70.978      -13.077       74.798       72.817       43.510     5594.716     5302.387     1893.084        1.978        0.640      163.112       36.333        0.050      337.612        9.703      858.554
01/04/2021  11:42:00      -25.895       49.871       11.409       80.283       46.156       33.797     6445.326     2130.421     1142.247        0.650        0.486       56.193       17.740        0.100      337.638        9.748      858.467
01/04/2021  11:43:00       -8.973       50.790      -14.006       48.883       34.643       26.637     2389.502     1200.154      709.542        0.358        0.215       51.576       26.675        0.267      337.649        9.765      858.340
01/04/2021  11:44:00      -51.255       93.125       -4.883       57.211       59.635       32.796     3273.067     3556.363     1075.588        0.961        0.395      106.298       30.598        0.083      337.850       10.102      858.288
01/04/2021  11:45:00      -75.158      -19.548       -8.609      100.765       80.234       41.700    10153.573     6437.485     1738.915        1.221        0.916       77.659       23.815        0.094      337.752        9.937      858.358
01/04/2021  11:46:00     -221.793      -53.746        2.153      120.795      118.353       67.344    14591.490    14007.484     4535.262        4.260        1.657      228.212       51.529        0.051      337.591        9.665      858.550
01/04/2021  11:47:00     -129.722       29.079       -3.685       94.071       57.836       40.264     8849.359     3345.050     1621.181        1.575        0.691      132.942       29.968        0.051      337.681        9.818      858.680
01/04/2021  11:48:00       -0.497      134.392       -5.799       74.891       92.386       36.016     5608.668     8535.097     1297.119        1.676        0.772      134.393       33.492        0.062      337.822       10.055      858.657
01/04/2021  11:49:00     -213.608       55.494        2.204       87.406       76.565       44.191     7639.838     5862.163     1952.816        3.208        0.773      220.698        7.684        0.001      337.700        9.848      858.648
01/04/2021  11:50:00      -97.691        7.152        4.381       64.027       37.870       39.538     4099.500     1434.132     1563.240        0.835        0.355       97.952        8.477        0.007      337.650        9.767      858.719
01/04/2021  11:51:00      -19.128       57.690       -7.223       55.610       46.275       29.753     3092.491     2141.372      885.244        0.493        0.306       60.779       16.432        0.073      337.677        9.813      858.795
01/04/2021  11:52:00      -34.373      178.611      -12.571       39.684       43.850       30.094     1574.806     1922.847      905.626        1.882        0.220      181.889       22.968        0.016      337.632        9.737      858.731
01/04/2021  11:53:00       82.810      212.207      -25.399       70.009       61.424       36.597     4901.288     3772.862     1339.326        3.127        0.501      227.792       40.001        0.031      337.718        9.878      858.577
01/04/2021  11:54:00       48.138      219.627      -24.319       60.359       51.402       29.202     3643.178     2642.161      852.785        2.914        0.357      224.841       27.005        0.014      337.688        9.828      858.435
01/04/2021  11:55:00       31.021      195.227      -20.685       76.023       88.650       39.537     5779.437     7858.822     1563.143        2.735        0.760      197.676       40.823        0.043      337.763        9.955      858.339
01/04/2021  11:56:00      -38.932      260.255      -15.985      101.424      149.046       50.093    10286.731    22214.652     2509.326        5.225        1.751      263.151       37.129        0.020      337.861       10.118      858.328
01/04/2021  11:57:00      -75.974       80.112      -17.863      154.822       88.984       64.791    23969.847     7918.202     4197.847        2.429        1.804      110.408       61.297        0.308      337.785        9.992      858.381
01/04/2021  11:58:00     -125.556      148.122      -20.626      180.943      123.723       80.752    32740.430    15307.425     6520.880        4.634        2.728      194.176       74.955        0.149      337.708        9.862      858.424
01/04/2021  11:59:00       13.847      358.390      -26.847      115.590      124.481       45.396    13361.143    15495.526     2060.794        8.013        1.546      358.658       26.290        0.005      337.665        9.791      858.597
01/04/2021  12:00:00      131.442      180.293      -21.556       84.695       63.819       42.360     7173.249     4072.846     1794.396        3.164        0.652      223.121       31.112        0.019      337.719        9.880      858.742
01/04/2021  12:01:00      111.467       36.017      -13.901       80.048       55.634       35.013     6407.616     3095.187     1225.895        1.232        0.536      117.141       22.798        0.038      337.676        9.812      858.666
01/04/2021  12:02:00       91.714      243.363      -31.173       63.872      121.280       43.154     4079.603    14708.756     1862.226        4.463        1.033      260.071       34.049        0.017      337.732        9.902      858.564
01/04/2021  12:03:00       -5.709      247.646      -18.836      103.924       75.896       43.409    10800.212     5760.269     1884.316        4.008        0.922      247.711       30.023        0.015      337.766        9.958      858.472
01/04/2021  12:04:00      106.839      141.165      -13.029      108.265       48.585       39.764    11721.405     2360.512     1581.193        2.358        0.783      177.037       44.469        0.063      337.774        9.973      858.434
01/04/2021  12:05:00     -126.136      209.138      -13.756      145.493      116.822       73.328    21168.267    13647.370     5377.051        5.001        2.010      244.231       58.604        0.058      337.808       10.029      858.553
01/04/2021  12:06:00      -33.346      298.340      -17.457       99.557       94.560       58.704     9911.643     8941.543     3446.145        5.636        1.115      300.198       32.871        0.012      337.675        9.804      858.525
01/04/2021  12:07:00     -108.624        7.047      -15.292      190.042       85.009       64.219    36115.969     7226.513     4124.120        2.976        2.373      108.852       64.817        0.355      337.538        9.577      858.536
01/04/2021  12:08:00     -101.524      -28.707        1.860      168.111       82.750       62.375    28261.440     6847.510     3890.642        2.506        1.950      105.505       56.891        0.291      337.488        9.494      858.622
01/04/2021  12:09:00     -228.704       45.535       -6.829      162.848       89.985       80.114    26519.480     8097.334     6418.218        4.772        2.052      233.193       67.939        0.085      337.333        9.234      858.608
01/04/2021  12:10:00     -115.471       65.306       20.856      144.503       92.227       57.158    20881.213     8505.751     3267.067        2.534        1.633      132.660       56.782        0.183      337.296        9.173      858.434
01/04/2021  12:11:00       52.647      -34.101      -20.369       68.679       60.129       44.823     4716.765     3615.506     2009.145        0.734        0.517       62.726       35.762        0.325      337.345        9.256      858.161
01/04/2021  12:12:00      108.600      -19.749      -32.200       84.134       86.732       51.398     7078.472     7522.354     2641.751        1.523        0.862      110.381       48.739        0.195      337.357        9.276      857.770
01/04/2021  12:13:00      178.733       85.710      -18.913       84.019       50.424       33.032     7059.142     2542.565     1091.095        2.517        0.535      198.222       30.283        0.023      337.224        9.052      857.415
01/04/2021  12:14:00       51.519      146.821      -17.538       76.301       42.833       28.724     5821.843     1834.676      825.040        1.650        0.424      155.598       22.466        0.021      337.244        9.087      857.333
01/04/2021  12:15:00     -126.681      138.935      -22.159       50.538       74.065       33.757     2554.087     5485.615     1139.561        2.251        0.459      188.018       27.601        0.022      337.475        9.473      857.337
01/04/2021  12:16:00     -148.656      255.617      -16.862       55.615       88.971       42.887     3093.033     7915.819     1839.319        5.028        0.642      295.701       25.008        0.007      337.522        9.550      857.616
01/04/2021  12:17:00     -148.625      186.582      -15.436       82.130       65.514       41.782     6745.323     4292.079     1745.762        3.496        0.639      238.542       34.815        0.021      337.448        9.425      857.909
01/04/2021  12:18:00     -108.494       75.687      -17.495       76.018       97.616       48.981     5778.774     9528.820     2399.136        1.775        0.885      132.285       31.823        0.058      337.601        9.685      858.051
01/04/2021  12:19:00      -83.568      -14.726        5.011      118.105       84.229       58.237    13948.861     7094.592     3391.558        1.582        1.222       84.855       44.208        0.271      337.497        9.510      858.142
01/04/2021  12:20:00     -104.034       87.019        7.053      142.467       86.693       45.457    20296.725     7515.666     2066.314        2.416        1.494      135.629       38.579        0.081      337.586        9.660      858.240
01/04/2021  12:21:00       37.913       -8.207        1.565       72.899       64.410       45.855     5314.329     4148.684     2102.648        0.653        0.578       38.791       36.598        0.890      337.649        9.765      858.343
01/04/2021  12:22:00     -165.712       20.371      -19.330       95.460       84.222       61.371     9112.666     7093.424     3766.396        2.411        0.999      166.959       47.261        0.080      337.499        9.511      858.499
01/04/2021  12:23:00      -94.563       24.823        0.346       96.252       80.010       52.070     9264.438     6401.670     2711.330        1.396        0.919       97.767       28.896        0.087      337.475        9.472      858.533
01/04/2021  12:24:00     -108.474      -32.080        4.507       82.577      132.474       51.118     6818.929    17549.362     2613.030        1.989        1.349      113.118       41.740        0.136      337.330        9.230      858.216
01/04/2021  12:25:00      -93.464     -145.819      -28.388      126.347      107.221       53.301    15963.522    11496.384     2840.952        3.055        1.515      173.201       50.147        0.084      337.434        9.401      857.972
01/04/2021  12:26:00       97.775       -1.947      -28.579       83.897       89.936       44.212     7038.753     8088.507     1954.682        1.373        0.854       97.795       39.140        0.160      337.481        9.483      857.625
01/04/2021  12:27:00       95.303       -1.693      -23.059       80.226       85.691       53.083     6436.238     7342.981     2817.796        1.310        0.830       95.318       50.067        0.276      337.489        9.496      857.272
01/04/2021  12:28:00      -32.421       20.442      -21.922       47.159       30.673       27.466     2223.994      940.836      754.402        0.293        0.196       38.328       14.137        0.136      337.534        9.572      857.269
01/04/2021  12:29:00       47.728       65.712       -7.786       39.939       26.152       24.782     1595.094      683.920      614.132        0.477        0.145       81.216       22.447        0.076      337.355        9.272      857.224
01/04/2021  12:30:00      -25.702       25.582       -5.695       28.774       22.071       15.344      827.918      487.113      235.440        0.145        0.078       36.263       14.477        0.159      337.539        9.581      857.320
01/04/2021  12:31:00      -92.801       55.231      -12.577       66.769       42.401       27.563     4458.145     1797.840      759.718        0.942        0.351      107.992       19.017        0.031      337.815       10.044      857.343
01/04/2021  12:32:00      -47.396       -1.838       -7.628       38.590       56.106       35.647     1489.202     3147.840     1270.715        0.411        0.295       47.431       31.557        0.443      338.031       10.407      857.468
01/04/2021  12:33:00      -94.481      -20.776       -4.694       60.364       36.635       29.198     3643.790     1342.139      852.547        0.761        0.292       96.738       26.122        0.073      337.682        9.821      857.442
01/04/2021  12:34:00      -57.934       15.887        2.342       41.319       28.814       21.698     1707.261      830.222      470.796        0.331        0.150       60.073       16.439        0.075      337.603        9.687      857.340
01/04/2021  12:35:00        0.494       46.167       -3.228       23.813       30.829       22.282      567.053      950.407      496.489        0.208        0.101       46.170       14.189        0.094      337.623        9.722      857.271
01/04/2021  12:36:00       -8.121      150.515       -2.265       52.964       49.642       25.952     2805.175     2464.304      673.485        1.433        0.297      150.734       22.125        0.022      337.691        9.835      857.259
01/04/2021  12:37:00     -119.845      164.992      -12.357       45.845       71.665       30.129     2101.719     5135.889      907.758        2.494        0.407      203.925       23.401        0.013      338.006       10.364      857.234
01/04/2021  12:38:00       78.605      236.348       -9.433      114.815      105.137       46.574    13182.577    11053.850     2169.178        4.426        1.320      249.077       28.674        0.013      337.862       10.120      857.284
01/04/2021  12:39:00       89.829       53.021      -20.299       55.117       65.013       28.166     3037.849     4226.710      793.350        0.967        0.403      104.309       25.578        0.060      338.061       10.455      857.389
01/04/2021  12:40:00      100.982       91.859      -17.008       68.832       51.941       32.640     4737.851     2697.847     1065.402        1.371        0.425      136.512       30.994        0.052      338.084       10.493      857.484
01/04/2021  12:41:00      -19.939      -26.759      -13.696       63.154       85.957       29.024     3988.447     7388.680      842.397        0.676        0.611       33.371       28.918        0.751      338.266       10.801      857.460
01/04/2021  12:42:00      113.687      -49.693      -15.531      105.502      108.883       50.496    11130.766    11855.401     2549.799        2.058        1.277      124.073       62.770        0.256      338.173       10.645      857.409
01/04/2021  12:43:00       11.685      -41.307      -21.515       89.965      110.943       42.831     8093.697    12308.325     1834.464        1.227        1.112       42.928       47.076        1.203      338.368       10.971      857.529
01/04/2021  12:44:00     -116.664       12.260        1.232      117.289       89.165       47.316    13756.650     7950.470     2238.781        1.885        1.197      117.306       41.242        0.124      338.295       10.848      857.744
01/04/2021  12:45:00     -102.477       62.016       -1.211       74.328       56.330       30.576     5524.646     3173.060      934.896        1.199        0.482      119.781       30.732        0.066      338.116       10.549      857.823
01/04/2021  12:46:00       -5.382      -10.517       -3.470       23.264       56.836       13.365      541.203     3230.360      178.620        0.205        0.198       11.814       12.372        1.097      338.002       10.358      857.769
01/04/2021  12:47:00      -25.671      -22.339       -6.372       41.648       27.757       17.247     1734.537      770.444      297.462        0.200        0.140       34.031       10.744        0.100      338.042       10.425      857.686
01/04/2021  12:48:00      -46.910       49.708      -13.187       55.850       38.769       22.067     3119.232     1503.055      486.949        0.498        0.255       68.348       16.496        0.058      338.134       10.579      857.491
01/04/2021  12:49:00      -66.590       -6.950      -24.290       59.846       33.627       21.509     3581.554     1130.768      462.637        0.512        0.259       66.952       24.930        0.139      338.177       10.651      857.323
01/04/2021  12:50:00      -72.550     -147.358       -8.750       65.205       76.033       36.007     4251.677     5781.001     1296.508        1.919        0.566      164.250       31.401        0.037      338.196       10.681      857.263
01/04/2021  12:51:00      -41.831      -81.330      -13.414       50.427       61.162       36.550     2542.901     3740.797     1335.920        0.808        0.381       91.457       27.192        0.088      338.307       10.869      857.167
01/04/2021  12:52:00      -33.205      -35.130       -1.011       68.469       53.699       33.017     4688.015     2883.572     1090.138        0.550        0.433       48.339       34.859        0.520      338.458       11.123      857.018
01/04/2021  12:53:00      -91.568       20.034        9.303      103.416       61.737       41.395    10694.847     3811.451     1713.545        1.254        0.811       93.734       46.090        0.242      338.326       10.900      857.048
01/04/2021  12:54:00     -224.080      -24.158        1.358      135.699      135.847       64.576    18414.206    18454.384     4170.010        4.591        2.052      225.379       47.699        0.045      338.230       10.737      857.265
01/04/2021  12:55:00     -355.542      -63.125      -26.348      191.712      136.104       83.668    36753.652    18524.306     7000.284        9.667        3.114      361.102       77.990        0.047      338.113       10.541      857.331
01/04/2021  12:56:00     -308.447      -95.855      -26.800      190.176      135.697       90.981    36166.722    18413.758     8277.461        8.394        3.143      322.998       94.906        0.086      338.035       10.409      857.255
01/04/2021  12:57:00     -195.517      -36.326      -11.734      109.472       81.195       45.860    11984.107     6592.674     2103.103        3.018        1.034      198.863       46.479        0.055      338.177       10.649      857.219
01/04/2021  12:58:00     -289.561       61.892      -18.937      260.113      136.093       71.540    67658.634    18521.385     5118.015        8.965        4.565      296.101       68.270        0.053      338.137       10.583      857.287
01/04/2021  12:59:00     -333.945        8.966      -20.314      176.123      123.301       80.642    31019.426    15203.153     6503.063        8.236        2.636      334.065       80.792        0.058      337.977       10.313      857.289
01/04/2021  13:00:00     -212.749       38.130      -16.533      144.286       88.666       64.610    20818.378     7861.608     4174.471        3.991        1.643      216.139       63.698        0.087      338.095       10.510      857.076
01/04/2021  13:01:00     -221.453      -11.761       -2.857      125.789      127.161       69.644    15822.755    16169.865     4850.266        4.301        1.842      221.765       68.373        0.095      337.940       10.251      857.024
01/04/2021  13:02:00     -388.528      -79.351      -13.084      134.100      106.414       79.548    17982.916    11323.846     6327.849        9.652        1.782      396.548       70.467        0.032      337.833       10.070      857.109
01/04/2021  13:03:00     -224.249      -25.866      -11.142      144.325       95.116       56.101    20829.629     9047.109     3147.319        4.205        1.651      225.735       55.168        0.060      337.850       10.100      857.103
01/04/2021  13:04:00     -247.637      -51.640       -4.631      171.181      138.902       82.373    29302.940    19293.802     6785.244        5.968        2.769      252.964       58.253        0.053      337.855       10.108      857.068
01/04/2021  13:05:00     -267.591       15.966       -5.400      209.863      131.105       88.998    44042.464    17188.473     7920.600        7.051        3.458      268.066       88.807        0.110      337.902       10.187      856.959
01/04/2021  13:06:00     -185.498      -34.849       12.309      144.187      125.201       71.135    20789.836    15675.267     5060.197        3.864        2.076      188.743       75.522        0.160      337.967       10.297      856.910
01/04/2021  13:07:00     -375.600      -69.321       -7.218      187.876      116.311       75.539    35297.275    13528.135     5706.156       10.022        2.727      381.943       81.451        0.045      337.944       10.257      856.862
01/04/2021  13:08:00     -306.072        8.366       -4.286      181.191      123.849       70.105    32830.173    15338.670     4914.727        7.341        2.654      306.187       57.781        0.036      338.053       10.440      856.896
01/04/2021  13:09:00      -70.828      -26.853      -17.470      132.370       96.284       57.863    17521.776     9270.668     3348.084        1.809        1.507       75.747       60.515        0.638      338.183       10.660      856.876
01/04/2021  13:10:00     -241.311       -2.373       -8.909      154.019      145.192       73.506    23721.865    21080.674     5403.131        5.425        2.510      241.322       63.028        0.068      338.130       10.570      856.774
01/04/2021  13:11:00     -170.342      -79.608        5.127      180.335      141.478       87.042    32520.752    20015.925     7576.375        4.773        3.006      188.026       74.999        0.159      338.074       10.475      856.795
01/04/2021  13:12:00     -268.898      -59.412       -3.429      179.631      130.124       93.043    32267.389    16932.340     8657.013        6.684        2.893      275.383       93.748        0.116      338.011       10.370      856.795
01/04/2021  13:13:00     -404.590       20.014      -16.992      225.354      176.868      104.879    50784.621    31282.307    10999.705       12.870        4.653      405.085      114.406        0.080      337.932       10.237      856.793
01/04/2021  13:14:00     -334.710      -48.905      -34.218      202.484      184.072       98.033    40999.767    33882.443     9610.543       10.002        4.225      338.264       96.567        0.081      337.902       10.186      856.650
01/04/2021  13:15:00     -387.083      -65.755       -2.489      220.239      155.514      104.796    48505.389    24184.546    10982.253       11.890        4.184      392.629      108.640        0.077      337.879       10.147      856.698
01/04/2021  13:16:00     -329.933        7.301        0.491      223.713      153.257       98.347    50047.343    23487.798     9672.102        9.604        4.160      330.014       94.531        0.082      337.917       10.212      856.713
01/04/2021  13:17:00     -606.957      -65.984      -34.105      259.969      202.438      117.818    67583.846    40981.103    13881.184       24.815        6.122      610.533      125.865        0.043      337.938       10.247      856.615
01/04/2021  13:18:00     -491.809      -95.966      -12.054      250.223      181.826      102.930    62611.470    33060.773    10594.643       17.873        5.313      501.085      107.959        0.046      338.017       10.380      856.572
01/04/2021  13:19:00     -596.159       -5.971       -3.008      350.491      190.220      113.906   122843.620    36183.689    12974.647       26.369        8.600      596.189      120.265        0.041      338.008       10.364      856.549
01/04/2021  13:20:00     -381.254      -69.035      -19.822      250.502      174.923       91.931    62751.412    30598.143     8451.357       12.613        5.090      387.454      108.005        0.078      338.065       10.460      856.498
01/04/2021  13:21:00     -496.594     -110.109      -43.709      264.442      173.565      109.666    69929.755    30124.787    12026.598       18.634        5.604      508.655      127.983        0.063      337.939       10.248      856.546
01/04/2021  13:22:00     -364.061      -18.731      -18.840      222.720      206.337       97.325    49604.023    42575.068     9472.084       11.743        5.083      364.542      107.562        0.087      337.932       10.235      856.364
01/04/2021  13:23:00     -336.486     -130.638      -21.286      185.323      160.552       87.003    34344.698    25777.068     7569.555        9.920        3.385      360.956       92.609        0.066      337.963       10.288      856.381
01/04/2021  13:24:00     -357.773       71.024        2.546      200.632      167.294       95.459    40253.015    27987.363     9112.400       10.519        3.868      364.754      107.577        0.087      337.973       10.306      856.307
01/04/2021  13:25:00     -304.745      -25.414      -14.929      227.516      173.875      110.056    51763.638    30232.546    12112.430        9.390        4.705      305.802       99.536        0.106      337.965       10.291      856.234
01/04/2021  13:26:00     -456.169      -72.854      -25.993      230.533      171.346      102.912    53145.692    29359.354    10590.971       15.356        4.655      461.950      104.818        0.051      337.842       10.086      856.229
01/04/2021  13:27:00     -362.607      -40.467        0.309      278.931      172.968      119.755    77802.774    29918.032    14341.150       12.756        6.103      364.858      126.850        0.121      337.825       10.058      856.222
01/04/2021  13:28:00     -412.744      -71.277      -25.841      222.858      124.660       96.886    49665.656    15540.159     9386.856       12.533        3.730      418.854      105.541        0.063      337.835       10.075      856.091
01/04/2021  13:29:00     -478.332       55.323      -16.659      253.210      149.133       95.195    64115.410    22240.579     9062.182       16.376        4.771      481.521       93.989        0.038      337.853       10.104      856.070
01/04/2021  13:30:00     -387.565      -65.764       10.937      352.056      181.846       97.177   123943.156    33068.000     9443.374       16.052        8.323      393.105      112.084        0.081      337.839       10.082      856.034
01/04/2021  13:31:00     -514.428      -51.796      -23.688      277.923      178.453      113.559    77241.323    31845.504    12895.651       19.490        6.099      517.029      122.470        0.056      337.743        9.921      855.959
01/04/2021  13:32:00     -319.909      -95.058      -41.341      169.408      164.178       74.240    28699.126    26954.395     5511.649        8.711        3.058      333.733       65.757        0.039      337.839       10.081      855.965
01/04/2021  13:33:00     -482.897      -71.137        2.675      282.771      172.406      121.663    79959.205    29723.982    14801.983       18.134        6.224      488.109      132.246        0.073      337.853       10.104      855.863
01/04/2021  13:34:00     -503.435     -179.304      -62.549      170.599      202.607       88.419    29104.059    41049.430     7817.892       18.372        3.899      534.412       84.357        0.025      337.911       10.203      855.880
01/04/2021  13:35:00     -392.673      -57.879       -0.456      257.111      185.079      110.561    66106.062    34254.256    12223.728       13.504        5.629      396.916      123.967        0.098      337.919       10.214      855.945
01/04/2021  13:36:00     -246.760       11.727       -2.847      186.462      125.925       81.516    34768.154    15857.231     6644.903        5.914        2.864      247.038       84.031        0.116      337.951       10.268      855.888
01/04/2021  13:37:00     -258.594       61.807        7.124      148.695      134.493       79.744    22110.273    18088.414     6359.178        5.864        2.328      265.878       69.584        0.068      337.985       10.327      855.819
01/04/2021  13:38:00     -357.891       10.085       -0.624      212.716      127.335       86.750    45248.051    16214.117     7525.565        9.857        3.449      358.033       85.250        0.057      337.884       10.157      855.829
01/04/2021  13:39:00     -498.530     -103.766      -43.572      237.543      168.753       94.606    56426.754    28477.605     8950.261       17.751        4.693      509.214       70.141        0.019      337.865       10.123      855.840
01/04/2021  13:40:00     -284.465       12.691       12.676      190.811      158.784       83.977    36408.966    25212.232     7052.133        7.494        3.434      284.748       73.977        0.067      337.922       10.219      855.851
01/04/2021  13:41:00     -586.069       -9.677       15.264      375.863      282.794      160.310   141272.769    79972.334    25699.388       29.532       12.347      586.148      166.868        0.081      338.027       10.396      855.786
01/04/2021  13:42:00     -454.610       23.614      -13.397      306.283      225.720      102.730    93809.290    50949.623    10553.541       18.133        7.766      455.223      125.927        0.077      338.111       10.535      855.870
01/04/2021  13:43:00     -450.941       24.988       12.249      325.105      164.815      105.810   105693.095    27163.966    11195.769       17.406        7.203      451.633       75.607        0.028      338.076       10.479      855.828
01/04/2021  13:44:00     -692.216       37.037      -28.383      342.827      205.032      117.831   117530.549    42037.916    13884.251       32.736        8.673      693.207      130.184        0.035      337.965       10.293      855.697
01/04/2021  13:45:00     -564.390      -64.247      -24.185      365.129      226.085      132.873   133319.532    51114.361    17655.238       26.262       10.104      568.035      110.241        0.038      338.062       10.455      855.633
01/04/2021  13:46:00     -443.216     -139.970      -30.421      294.530      267.184      125.434    86748.104    71387.204    15733.735       19.538        8.693      464.792      124.171        0.071      338.179       10.652      855.659
01/04/2021  13:47:00     -818.286      -30.242      -39.846      378.647      244.370      145.327   143373.408    59716.828    21119.916       44.810       11.211      818.845       98.877        0.015      338.262       10.791      855.533
01/04/2021  13:48:00     -750.704      -99.159      -26.889      402.874      283.126      145.555   162307.504    80160.281    21186.348       41.883       13.183      757.224      175.298        0.054      338.203       10.692      855.600
01/04/2021  13:49:00     -484.774     -105.269      -29.724      303.319      246.950      110.273    92002.214    60984.421    12160.187       20.602        8.257      496.072      119.717        0.058      338.168       10.632      855.592
01/04/2021  13:50:00     -218.787      -15.986       -3.432      271.105      192.723      111.027    73497.912    37142.026    12326.992        8.552        6.148      219.370      115.236        0.276      338.159       10.618      855.615
01/04/2021  13:51:00     -295.375      -54.490       -6.733      142.485      139.506       95.941    20302.012    19462.033     9204.599        6.960        2.448      300.359       72.284        0.058      338.117       10.546      855.564
01/04/2021  13:52:00     -434.914     -129.758      -50.366      170.485      245.077       84.110    29065.218    60062.638     7074.575       15.234        4.810      453.859       95.589        0.044      338.084       10.492      855.576
01/04/2021  13:53:00     -612.880     -170.825      -70.707      236.308      225.612      104.249    55841.666    50900.697    10867.763       26.368        5.881      636.242       91.002        0.020      338.057       10.446      855.554
01/04/2021  13:54:00     -476.223       -8.820        0.357      308.412      175.091      106.636    95118.004    30656.861    11371.230       18.198        6.857      476.305      111.604        0.055      338.074       10.476      855.620
01/04/2021  13:55:00     -540.196      -70.217      -25.893      392.498      190.554      136.732   154054.634    36310.837    18695.581       25.319       10.453      544.741      159.929        0.086      338.080       10.486      855.653
01/04/2021  13:56:00     -569.860       39.172      -10.561      342.961      221.711      129.922   117621.907    49155.801    16879.727       25.498        9.183      571.205      148.111        0.067      338.163       10.623      855.600
01/04/2021  13:57:00     -504.446      -47.898       -8.367      296.009      170.820      112.132    87621.369    29179.420    12573.662       19.307        6.469      506.715      117.400        0.054      338.253       10.776      855.513
01/04/2021  13:58:00     -401.346       17.669        6.185      326.959      137.191       94.918   106901.936    18821.256     9009.498       14.805        6.737      401.735      105.459        0.069      338.245       10.762      855.586
01/04/2021  13:59:00     -495.080       16.136       11.914      281.988      153.674      108.256    79517.321    23615.611    11719.411       18.015        5.743      495.343      110.417        0.050      338.243       10.759      855.530
01/04/2021  14:00:00     -347.527      -39.842       -9.409      221.948      181.621       99.317    49261.074    32986.122     9863.909       10.726        4.606      349.804       89.828        0.066      338.269       10.803      855.425
01/04/2021  14:01:00     -375.595       22.817       -9.893      254.793      160.065       96.254    64919.223    25620.826     9264.888       12.073        4.990      376.288      102.366        0.074      338.229       10.735      855.450
01/04/2021  14:02:00     -213.246      -27.526       21.108      169.067      135.338       81.184    28583.578    18316.289     6590.802        5.007        2.675      215.016       79.702        0.137      338.231       10.741      855.436
01/04/2021  14:03:00     -259.370       32.545        3.929      179.672      158.383       77.708    32281.895    25085.070     6038.542        6.586        3.170      261.404       72.945        0.078      338.227       10.732      855.514
01/04/2021  14:04:00     -705.164       18.111       -9.568      339.541      264.355      130.023   115287.909    69883.355    16906.059       34.983       10.104      705.397      126.363        0.032      338.164       10.625      855.426
01/04/2021  14:05:00     -440.688      -65.430      -28.142      278.696      179.831      100.533    77671.531    32339.052    10106.959       15.967        6.006      445.519       99.794        0.050      338.081       10.488      855.517
01/04/2021  14:06:00     -232.474      -65.058      -23.710      197.435      139.594       87.146    38980.700    19486.416     7594.355        6.244        3.303      241.405       74.666        0.096      338.135       10.578      855.528
01/04/2021  14:07:00     -564.820       22.955      -24.508      270.073      187.586      104.097    72939.657    35188.512    10836.144       21.953        5.948      565.287      113.314        0.040      338.157       10.613      855.573
01/04/2021  14:08:00     -499.767      -51.159      -28.098      229.023      200.402       92.216    52451.403    40160.774     8503.813       17.712        5.056      502.378       79.178        0.025      338.207       10.697      855.627
01/04/2021  14:09:00     -375.520        3.894      -11.966      271.637      159.111       98.538    73786.531    25316.245     9709.656       12.497        5.441      375.540      106.225        0.080      338.303       10.860      855.603
01/04/2021  14:10:00     -240.239      -72.458       -3.877      181.547      161.331       96.705    32959.178    26027.833     9351.934        6.564        3.417      250.928       97.378        0.151      338.379       10.988      855.548
01/04/2021  14:11:00     -535.393     -110.482      -30.230      306.098      194.818      124.993    93696.124    37953.989    15623.374       22.349        7.364      546.673      127.014        0.054      338.325       10.896      855.516
01/04/2021  14:12:00     -516.207      -56.241       -5.688      427.033      233.560      134.411   182356.915    54550.090    18066.196       26.226       12.749      519.261      137.328        0.070      338.403       11.027      855.556
01/04/2021  14:13:00     -439.211     -138.216      -13.004      269.385      182.774       97.578    72568.181    33406.208     9521.490       16.381        5.775      460.446       71.015        0.024      338.463       11.129      855.570
01/04/2021  14:14:00     -547.192      -11.229        5.419      325.185      248.136      123.597   105745.116    61571.403    15276.255       24.104        9.130      547.307      143.981        0.069      338.415       11.047      855.619
01/04/2021  14:15:00     -627.633      -36.575       15.312      274.716      250.629      136.861    75469.090    62815.118    18730.990       27.622        7.851      628.698      138.711        0.049      338.285       10.829      855.677
01/04/2021  14:16:00     -392.282      -17.232      -16.052      240.822      203.858      105.450    57995.423    41557.943    11119.616       13.253        5.534      392.660      112.142        0.082      338.212       10.706      855.723
01/04/2021  14:17:00     -507.962      -36.250       -5.944      260.201      182.631      107.351    67704.598    33354.040    11524.275       18.595        5.629      509.254      113.070        0.049      338.159       10.617      855.743
01/04/2021  14:18:00     -395.359      -58.316      -10.941      215.270      161.439       84.358    46341.282    26062.462     7116.194       11.966        3.976      399.637      101.639        0.065      338.181       10.656      855.747
01/04/2021  14:19:00     -235.328       47.020      -10.453      178.658      164.068       71.966    31918.724    26918.456     5179.140        6.084        3.201      239.980       58.948        0.060      338.374       10.979      855.830
01/04/2021  14:20:00     -310.921      -54.847      -24.650      201.767      126.376       84.734    40709.962    15970.771     7179.783        8.206        3.193      315.722       88.925        0.079      338.323       10.894      855.973
01/04/2021  14:21:00     -339.031       41.037      -20.779      112.974      111.776       61.668    12763.145    12493.838     3802.889        7.305        1.453      341.506       50.941        0.022      338.271       10.806      855.985
01/04/2021  14:22:00     -220.106      -12.382      -25.438      150.820      119.662       71.030    22746.550    14318.999     5045.320        4.567        2.106      220.454       67.150        0.093      338.276       10.816      856.039
01/04/2021  14:23:00     -205.047        3.487      -19.912      130.658      142.087       50.273    17071.448    20188.754     2527.361        4.111        1.989      205.076       39.242        0.037      338.355       10.949      855.918
01/04/2021  14:24:00     -274.507      -52.467       -6.506      202.216      161.306       88.476    40891.172    26019.528     7827.967        7.643        3.737      279.476       99.298        0.126      338.301       10.856      855.898
01/04/2021  14:25:00     -432.244     -112.363      -18.335      251.368      155.090       97.472    63185.998    24053.039     9500.759       14.825        4.837      446.610      106.624        0.057      338.281       10.821      855.883
01/04/2021  14:26:00     -462.186     -147.227      -17.416      260.374      159.729      108.111    67794.443    25513.412    11688.052       17.027        5.250      485.069      102.981        0.045      338.311       10.874      855.876
01/04/2021  14:27:00     -255.824     -160.416      -18.999      130.040      162.591       76.907    16910.370    26435.966     5914.642        7.039        2.463      301.959       63.575        0.044      338.394       11.012      855.944
01/04/2021  14:28:00     -212.352      -52.977        2.785      140.447      118.356       65.276    19725.500    14008.100     4260.954        4.294        1.900      218.860       59.669        0.074      338.416       11.049      855.992
01/04/2021  14:29:00      -99.232     -258.088      -49.072      249.680      279.747       93.778    62339.969    78258.530     8794.401       11.410        7.470      276.508      106.362        0.148      338.557       11.287      855.797
01/04/2021  14:30:00     -352.433     -163.759      -30.661      248.210      206.841       97.467    61608.173    42783.352     9499.797       13.290        5.695      388.621       87.953        0.051      338.528       11.238      855.802
01/04/2021  14:31:00     -367.166     -113.762      -16.933      225.128      274.218       90.232    50682.404    75195.732     8141.775       14.100        6.701      384.386      111.451        0.084      338.547       11.270      855.735
01/04/2021  14:32:00     -254.857        3.955        1.715      150.994      138.448       68.984    22799.197    19167.881     4758.744        5.584        2.336      254.888       67.597        0.070      338.533       11.247      855.736
01/04/2021  14:33:00     -306.354       13.564      -11.189      110.404      120.349       74.081    12189.063    14483.934     5488.044        6.315        1.608      306.654       55.779        0.033      338.517       11.217      855.831
01/04/2021  14:34:00     -365.318     -227.983      -42.285      129.487      212.603       68.440    16766.899    45200.082     4684.038       12.692        3.333      430.620       67.019        0.024      338.500       11.191      855.920
01/04/2021  14:35:00     -391.324     -146.779      -11.857      281.035      258.215      119.115    78980.432    66675.094    14188.348       16.730        7.992      417.946      133.930        0.103      338.465       11.132      855.884
01/04/2021  14:36:00     -440.169     -155.287      -28.603      238.880      208.346      108.684    57063.890    43408.212    11812.246       16.546        5.614      466.757      116.129        0.062      338.401       11.025      855.851
01/04/2021  14:37:00     -475.723     -179.213      -48.279      281.590      221.430      106.536    79293.002    49031.349    11349.955       20.019        6.984      508.360      126.445        0.062      338.344       10.929      855.793
01/04/2021  14:38:00     -120.744      -53.915      -19.623      172.817      109.444       76.607    29865.743    11977.948     5868.633        3.278        2.386      132.235       74.483        0.317      338.351       10.942      855.670
01/04/2021  14:39:00     -354.767      -15.042      -27.607      237.639      118.532       76.046    56472.274    14049.895     5782.998       10.156        3.815      355.085       81.305        0.052      338.408       11.036      855.686
01/04/2021  14:40:00     -282.702      -49.751      -10.690      202.551      138.294       91.733    41026.931    19125.138     8414.883        7.552        3.428      287.047       79.556        0.077      338.387       10.999      855.762
01/04/2021  14:41:00     -402.358      -84.414      -16.876      217.762      187.699       85.829    47420.457    35231.061     7366.662       12.964        4.501      411.118       90.079        0.048      338.328       10.903      855.774
01/04/2021  14:42:00     -353.898     -101.659      -34.383      209.708      197.145       84.689    43977.539    38866.082     7172.251       11.337        4.501      368.210      100.516        0.075      338.326       10.900      855.743
01/04/2021  14:43:00     -380.766     -164.481      -46.926      219.126      152.541       92.236    48016.358    23268.672     8507.388       12.700        3.990      414.773       96.248        0.054      338.341       10.923      855.723
01/04/2021  14:44:00     -307.479      -77.807        2.150      280.743      189.778       97.875    78816.648    36015.781     9579.455       11.248        6.221      317.171      103.392        0.106      338.384       10.996      855.604
01/04/2021  14:45:00     -413.243     -166.217      -31.330      235.293      229.482      103.837    55362.685    52661.776    10782.098       15.907        5.940      445.419      119.602        0.072      338.389       11.003      855.524
01/04/2021  14:46:00     -384.135      -34.224      -11.172      188.580      169.395       96.992    35562.516    28694.575     9407.407       11.124        3.683      385.657       92.281        0.057      338.361       10.957      855.540
01/04/2021  14:47:00     -447.745     -111.615      -35.198      247.999      222.583       98.311    61503.395    49543.386     9665.030       16.742        6.036      461.447       98.169        0.045      338.407       11.034      855.611
01/04/2021  14:48:00     -346.587     -131.285      -10.271      261.809      260.583      131.433    68544.014    67903.485    17274.678       14.556        7.686      370.619      131.338        0.126      338.430       11.072      855.531
01/04/2021  14:49:00     -355.258      -71.160      -25.206      228.651      142.221       85.241    52281.105    20226.764     7266.029       10.582        3.989      362.314       96.639        0.071      338.393       11.010      855.553
01/04/2021  14:50:00     -295.342      -79.943       -7.594      201.854      201.052      105.946    40745.127    40422.087    11224.512        9.301        4.620      305.970       81.489        0.071      338.348       10.936      855.534
01/04/2021  14:51:00     -541.429       54.084      -12.882      337.310      171.147      114.175   113777.996    29291.317    13035.875       22.614        7.805      544.124      121.392        0.050      338.250       10.771      855.502
01/04/2021  14:52:00     -441.548      -49.755      -20.449      244.475      179.931      101.636    59767.800    32375.122    10329.788       15.014        5.124      444.343      111.376        0.063      338.202       10.689      855.567
01/04/2021  14:53:00     -376.724     -158.186      -37.337      210.886      202.223       91.246    44472.735    40894.061     8325.878       13.099        4.685      408.588       96.011        0.055      338.188       10.665      855.593
01/04/2021  14:54:00     -540.161      -30.646        0.071      315.945      203.448      113.960    99821.124    41391.082    12986.910       22.342        7.710      541.030      122.761        0.051      338.173       10.641      855.517
01/04/2021  14:55:00     -601.875     -123.723      -39.052      269.397      211.789      111.149    72574.824    44854.747    12354.030       25.441        6.489      614.460      116.761        0.036      338.137       10.580      855.559
01/04/2021  14:56:00     -413.585      -96.775      -45.238      228.952      152.811      116.838    52418.865    23351.121    13651.100       13.592        4.471      424.756      121.909        0.082      338.135       10.576      855.610
01/04/2021  14:57:00     -314.846      -11.625       11.942      214.572      156.099      106.876    46041.139    24366.992    11422.465        9.060        4.092      315.060      100.675        0.102      338.122       10.555      855.548
01/04/2021  14:58:00     -460.966     -104.230      -25.811      228.016      153.917      105.553    51991.337    23690.436    11141.421       15.540        4.341      472.603      101.033        0.046      338.110       10.536      855.649
01/04/2021  14:59:00     -452.365      -12.687        1.581      297.410      181.734      113.514    88452.416    33027.119    12885.463       16.955        6.718      452.543      116.444        0.066      338.072       10.471      855.645
01/04/2021  15:00:00     -377.204      -15.627        6.642      317.053      220.552      109.688   100522.550    48643.050    12031.538       15.185        8.060      377.528      113.478        0.090      338.031       10.402      855.594
01/04/2021  15:01:00     -518.422     -104.734      -18.297      295.367      228.709      117.663    87241.710    52307.879    13844.530       21.670        7.670      528.896      134.851        0.065      337.935       10.242      855.616
01/04/2021  15:02:00     -295.036      -60.848       -6.906      280.797      157.379       99.184    78846.858    24768.095     9837.388       10.210        5.673      301.246      112.012        0.138      337.895       10.175      855.746
01/04/2021  15:03:00     -436.885      -87.083      -35.927      282.205      160.392      111.335    79639.692    25725.529    12395.433       15.873        5.888      445.479      111.272        0.062      337.801       10.016      855.772
01/04/2021  15:04:00     -522.944      -49.369      -30.812      236.442      204.581      113.242    55904.967    41853.234    12823.665       19.370        5.529      525.269      112.388        0.046      337.731        9.900      855.779
01/04/2021  15:05:00     -557.444      -27.783      -18.156      243.894      216.962      129.482    59484.327    47072.366    16765.672       21.756        6.166      558.136      114.543        0.042      337.698        9.845      855.758
01/04/2021  15:06:00     -217.860       -9.448       13.215      208.800      189.481      111.159    43597.521    35903.118    12356.394        6.977        4.593      218.065      104.940        0.232      337.724        9.889      855.798
01/04/2021  15:07:00     -522.469      -73.436      -27.727      350.601      229.737      133.285   122921.271    52779.031    17764.782       23.626        9.673      527.604      150.126        0.081      337.682        9.819      855.857
01/04/2021  15:08:00     -431.360       -3.456      -17.172      351.372      193.958      114.814   123462.320    37619.686    13182.350       18.028        8.713      431.374      130.742        0.092      337.692        9.835      855.862
01/04/2021  15:09:00     -451.622      -10.054      -24.482      256.227      170.519      111.782    65652.433    29076.567    12495.294       15.592        5.361      451.734      112.162        0.062      337.676        9.807      855.912
01/04/2021  15:10:00     -384.535      -22.354      -17.707      220.314      167.344      111.670    48538.069    28003.900    12470.185       11.883        4.451      385.184      104.993        0.074      337.682        9.817      855.997
01/04/2021  15:11:00     -456.880      -85.263      -39.133      296.014      183.298      128.368    87624.267    33598.007    16478.448       17.759        6.885      464.768      145.065        0.097      337.638        9.743      856.091
01/04/2021  15:12:00     -399.075       -0.620       -4.430      404.712      182.723      132.280   163791.857    33387.795    17497.902       18.693       10.734      399.075      156.397        0.154      337.503        9.517      856.204
01/04/2021  15:13:00     -456.966      -12.286      -31.374      349.913      244.032      116.790   122439.004    59551.429    13639.809       20.275        9.782      457.131      139.913        0.094      337.422        9.383      856.419
01/04/2021  15:14:00     -532.481       73.844       17.254      374.348      207.088      148.409   140136.166    42885.593    22025.207       24.712       10.252      537.577      174.765        0.106      337.132        8.897      856.444
01/04/2021  15:15:00     -637.772      -47.228      -46.256      430.463      261.684      138.750   185298.043    68478.732    19251.517       34.202       13.651      639.519      178.094        0.078      336.931        8.560      856.495
01/04/2021  15:16:00     -382.586       -4.250      -10.433      358.909      192.581      137.810   128815.948    37087.576    18991.573       16.566        9.245      382.609      152.972        0.160      336.794        8.331      856.605
01/04/2021  15:17:00     -446.565      -53.285      -21.769      300.757      228.416      127.632    90454.803    52173.962    16290.031       18.079        7.946      449.733      126.186        0.079      336.614        8.033      856.548
01/04/2021  15:18:00     -428.906      -92.393       -4.609      277.012      185.522      128.327    76735.909    34418.549    16467.819       16.004        6.381      438.745      141.391        0.104      336.591        7.992      856.452
01/04/2021  15:19:00     -292.985       31.462       -0.545      184.867      135.720       90.064    34175.976    18420.047     8111.556        7.376        3.035      294.669       83.167        0.080      336.582        7.979      856.432
01/04/2021  15:20:00     -623.153      -67.276      -25.035      317.431      216.493      144.684   100762.325    46869.338    20933.522       28.098        8.428      626.775      154.136        0.060      336.602        8.011      856.436
01/04/2021  15:21:00     -358.067      -70.225       -8.768      273.173      190.117      112.061    74623.250    36144.528    12557.739       12.825        6.166      364.889      132.619        0.132      336.551        7.928      856.420
01/04/2021  15:22:00     -539.056      -41.100       16.273      423.528      248.370      155.768   179375.920    61687.500    24263.537       27.887       13.266      540.620      207.386        0.147      336.533        7.896      856.260
01/04/2021  15:23:00     -523.077       31.786      -16.575      283.404      269.210      134.450    80318.097    72474.223    18076.854       22.284        8.543      524.042      138.735        0.070      336.576        7.968      856.215
01/04/2021  15:24:00     -696.681     -117.088      -16.868      428.071      299.967      163.508   183244.361    89980.330    26734.901       39.959       14.998      706.451      189.025        0.072      336.572        7.961      856.064
01/04/2021  15:25:00     -734.570      -24.206      -27.019      362.352      270.902      165.445   131298.656    73387.933    27372.207       38.643       11.603      734.969      177.629        0.058      336.545        7.917      856.103
01/04/2021  15:26:00     -503.093      -27.946       -1.564      356.698      238.988      163.475   127233.462    57115.502    26723.962       23.243       10.554      503.868      174.225        0.120      336.533        7.896      856.222
01/04/2021  15:27:00     -659.945       32.704      -25.952      362.826      264.861      153.910   131643.029    70151.135    23688.313       33.133       11.274      660.755      157.781        0.057      336.523        7.878      856.249
01/04/2021  15:28:00     -542.669      -99.403      -24.920      263.106      207.920      138.917    69224.985    43230.608    19297.823       21.834        6.588      551.698      136.305        0.061      336.524        7.880      856.233
01/04/2021  15:29:00     -314.529      -65.812       -6.281      309.395      203.647      137.650    95725.189    41472.051    18947.427       12.969        7.807      321.340      133.410        0.172      336.492        7.826      856.130
01/04/2021  15:30:00     -617.463      -65.706      -18.494      344.693      249.966      156.133   118813.056    62482.874    24377.445       29.575       10.284      620.949      163.850        0.070      336.411        7.691      856.091
01/04/2021  15:31:00     -731.185      -46.063      -11.022      417.566      264.237      162.678   174361.198    69821.303    26464.116       40.370       13.532      732.635      165.790        0.051      336.381        7.640      856.066
01/04/2021  15:32:00     -749.069     -149.641      -32.003      410.778      310.200      164.650   168738.777    96223.793    27109.572       43.823       14.604      763.869      179.614        0.055      336.376        7.631      856.131
01/04/2021  15:33:00     -856.584      -83.070      -32.653      373.162      262.726      159.892   139249.654    69025.095    25565.294       48.772       11.692      860.602      153.139        0.032      336.389        7.654      856.195
01/04/2021  15:34:00     -785.036      -69.220      -14.268      444.275      266.846      157.707   197380.058    71206.840    24871.347       45.730       14.673      788.081      167.625        0.045      336.410        7.689      856.167
01/04/2021  15:35:00     -673.545      -18.723      -31.122      325.010      244.249      162.555   105631.654    59657.706    26424.057       32.331        9.586      673.805      166.707        0.061      336.460        7.770      856.123
01/04/2021  15:36:00     -635.980      -71.218       -1.663      365.036      231.643      160.586   133251.267    53658.531    25787.996       31.108       10.635      639.955      188.492        0.087      336.572        7.961      856.111
01/04/2021  15:37:00     -797.352     -123.363      -13.935      393.305      260.434      165.541   154689.042    67825.940    27403.975       45.050       12.496      806.838      179.897        0.050      336.581        7.977      856.052
01/04/2021  15:38:00     -800.243     -104.062      -10.118      416.299      270.254      163.937   173304.641    73037.035    26875.389       46.221       13.661      806.981      175.464        0.047      336.497        7.835      855.972
01/04/2021  15:39:00     -767.432     -124.399      -43.114      440.145      328.037      196.512   193727.360   107608.089    38617.016       47.305       16.998      777.449      221.083        0.081      336.531        7.890      855.890
01/04/2021  15:40:00     -662.095      -79.089      -16.151      409.269      237.866      144.172   167500.766    56580.015    20785.448       34.482       12.243      666.802      166.434        0.062      336.521        7.876      855.830
01/04/2021  15:41:00     -601.765     -136.665      -54.251      335.999      225.091      122.823   112895.404    50666.020    15085.462       28.116        8.932      617.088      113.713        0.034      336.469        7.787      855.883
01/04/2021  15:42:00     -637.168      -73.272      -51.962      303.276      283.717      160.414    91976.383    80495.206    25732.509       30.608        9.910      641.368      160.193        0.062      336.462        7.776      855.989
01/04/2021  15:43:00     -513.567      -52.506      -41.271      266.838      237.553      127.959    71202.785    56431.620    16373.420       20.608        7.200      516.244      113.569        0.048      336.432        7.725      856.186
01/04/2021  15:44:00     -581.037     -120.021      -27.898      318.819      253.719      135.063   101645.660    64373.269    18242.138       26.848        9.213      593.303      150.966        0.065      336.454        7.764      856.298
01/04/2021  15:45:00     -413.334      -81.526      -14.027      316.332      230.583      117.306   100066.146    53168.459    13760.645       17.231        8.350      421.298      142.320        0.114      336.491        7.825      856.313
01/04/2021  15:46:00     -444.828       76.953       -5.357      209.793      184.433       95.992    44013.219    34015.376     9214.474       14.551        4.362      451.435       92.128        0.042      336.474        7.796      856.394
01/04/2021  15:47:00     -622.827     -129.148      -31.364      328.522      200.339      142.115   107926.737    40135.765    20196.552       28.688        8.413      636.076      132.729        0.044      336.454        7.762      856.473
01/04/2021  15:48:00     -510.082      -91.130      -52.738      317.260      205.260      100.568   100653.622    42131.471    10113.997       21.205        7.645      518.159      113.444        0.048      336.530        7.889      856.625
01/04/2021  15:49:00     -286.101      -13.324       -8.186      198.721      128.504       72.322    39489.855    16513.226     5230.491        7.165        3.062      286.412       71.750        0.063      336.524        7.881      856.802
01/04/2021  15:50:00     -305.340       65.770        3.666      217.226      148.640       98.042    47187.014    22093.790     9612.176        8.821        3.945      312.343       88.115        0.080      336.526        7.883      856.996
01/04/2021  15:51:00     -386.435       34.710      -11.158      238.778      170.186      101.840    57015.017    28963.406    10371.350       12.348        4.817      387.990       82.487        0.045      336.505        7.848      857.073
01/04/2021  15:52:00     -457.827      -16.206      -15.247      331.779      236.260      149.556   110077.115    55818.712    22367.120       19.914        9.413      458.114      153.837        0.113      336.462        7.776      857.070
01/04/2021  15:53:00     -412.315       20.005      -13.669      327.459      218.749      142.044   107229.232    47851.288    20176.464       17.289        8.763      412.800      128.697        0.097      336.398        7.668      857.058
01/04/2021  15:54:00     -579.061        2.425      -11.254      364.147      289.352      164.298   132602.830    83724.722    26993.745       28.933       12.166      579.066      171.874        0.088      336.236        7.398      857.255
01/04/2021  15:55:00     -464.035       47.175        6.265      330.149      250.900      118.527   108998.313    62950.862    14048.650       20.175        9.300      466.427      144.807        0.096      336.108        7.186      857.412
01/04/2021  15:56:00     -431.970       22.970      -14.318      315.574      214.335      141.030    99586.907    45939.340    19889.538       17.634        8.271      432.580      141.221        0.107      336.058        7.103      857.649
01/04/2021  15:57:00     -266.294       27.310        7.226      344.780      204.168      125.923   118873.288    41684.630    15856.596       12.402        8.821      267.691      130.542        0.238      336.001        7.006      857.737
01/04/2021  15:58:00     -569.606     -199.710      -43.759      282.262      293.317      145.114    79671.952    86034.995    21058.106       27.647        9.338      603.601      146.733        0.059      335.897        6.834      857.885
01/04/2021  15:59:00     -510.760      -89.240      -23.909      342.363      283.334      154.591   117212.200    80278.342    23898.387       24.535       11.069      518.497      164.757        0.101      335.737        6.566      857.875
01/04/2021  16:00:00     -546.808     -106.973      -37.337      333.809      239.469      117.527   111428.637    57345.175    13812.661       24.717        9.129      557.173      135.722        0.059      335.618        6.369      858.022
01/04/2021  16:01:00     -568.079     -106.202      -48.780      392.668      244.274      131.901   154188.169    59670.022    17397.997       28.376       11.563      577.921      147.698        0.065      335.571        6.289      858.069
01/04/2021  16:02:00     -634.673     -298.600      -31.028      334.058      378.351      159.954   111594.985   143149.514    25585.321       38.657       14.016      701.407      158.587        0.051      335.489        6.154      858.135
01/04/2021  16:03:00     -674.961     -173.438      -11.273      360.673      287.623      157.983   130084.887    82727.082    24958.485       36.172       11.889      696.888      152.358        0.048      335.446        6.082      858.138
01/04/2021  16:04:00     -657.726      -12.516       -8.739      392.185      272.114      130.476   153809.441    74046.169    17023.911       33.880       12.244      657.845      144.459        0.048      335.384        5.980      858.223
01/04/2021  16:05:00     -645.997       66.203       21.943      317.754      225.033      141.343   100967.648    50640.045    19977.900       29.684        8.579      649.380      154.268        0.056      335.342        5.907      858.220
01/04/2021  16:06:00     -566.190     -172.005      -33.677      314.283      228.498      137.267    98773.845    52211.555    18842.357       26.052        8.491      591.741      167.389        0.080      335.365        5.947      858.292
01/04/2021  16:07:00     -617.156      -33.309       -8.393      320.450      207.474      126.691   102688.104    43045.298    16050.585       27.189        8.089      618.054      101.820        0.027      335.329        5.886      858.391
01/04/2021  16:08:00     -423.574        2.740      -19.555      259.608      209.219      119.043    67396.073    43772.775    14171.179       15.255        6.267      423.583      127.056        0.090      335.230        5.723      858.358
01/04/2021  16:09:00     -292.829      -52.241      -23.681      264.325      178.803      114.285    69867.490    31970.514    13060.947       10.194        5.745      297.452      108.522        0.133      335.181        5.643      858.407
01/04/2021  16:10:00     -333.535      -64.235      -22.323      190.828      129.487       84.518    36415.182    16766.771     7143.293        8.808        3.016      339.664       72.221        0.045      335.138        5.571      858.514
01/04/2021  16:11:00     -512.958     -100.064      -32.687      338.970      217.110      120.158   114900.960    47136.669    14437.916       22.530        8.824      522.627      139.019        0.071      335.093        5.497      858.451
01/04/2021  16:12:00     -551.017        7.388        6.079      308.188      232.249      124.568    94979.987    53939.784    15517.149       23.404        8.222      551.066      120.448        0.048      335.021        5.377      858.429
01/04/2021  16:13:00     -583.907      -29.402      -30.399      320.656      154.914      110.678   102820.407    23998.351    12249.535       24.087        6.953      584.647      113.318        0.038      334.965        5.283      858.355
01/04/2021  16:14:00     -477.716      -99.594      -11.914      381.356      222.164      137.680   145432.237    49356.980    18955.859       22.596       10.687      487.987      150.140        0.095      334.923        5.214      858.393
01/04/2021  16:15:00     -712.461      -85.737      -32.735      332.259      306.605      162.118   110395.805    94006.334    26282.366       37.330       11.534      717.601      164.462        0.053      334.839        5.074      858.293
01/04/2021  16:16:00     -521.219      122.623       -4.874      269.711      219.929      105.850    72743.832    48368.746    11204.203       20.949        6.616      535.449      105.242        0.039      334.825        5.049      858.239
01/04/2021  16:17:00     -473.844      -52.798      -10.593      236.783      213.484      108.789    56066.337    45575.263    11835.026       17.043        5.674      476.776      118.181        0.061      334.865        5.116      858.224
01/04/2021  16:18:00     -290.481      -28.099        6.228      155.234      114.471      103.076    24097.517    13103.704    10624.742        6.651        2.391      291.837       97.945        0.113      334.842        5.079      858.274
01/04/2021  16:19:00     -369.487     -103.892      -28.225      284.068      189.073      108.204    80694.865    35748.754    11708.146       13.810        6.408      383.816      120.232        0.098      334.861        5.110      858.312
01/04/2021  16:20:00     -402.448      -40.397        1.592      234.191      211.775      120.601    54845.194    44848.765    14544.501       13.889        5.712      404.470      112.756        0.078      334.911        5.193      858.271
01/04/2021  16:21:00     -284.910      -76.462      -21.516      186.515      176.957       72.400    34787.837    31313.740     5241.763        7.940        3.567      294.991       54.187        0.034      334.911        5.193      858.281
01/04/2021  16:22:00     -320.834      -72.566      -14.278      212.666      172.586       70.082    45226.678    29785.952     4911.532        9.415        3.996      328.939       64.476        0.038      334.890        5.158      858.417
01/04/2021  16:23:00     -181.608      -24.489       -1.025       83.656       92.683       54.952     6998.389     8590.179     3019.761        2.609        0.930      183.252       33.033        0.032      334.894        5.167      858.451
01/04/2021  16:24:00     -376.116      -57.516      -24.252      227.067      170.516       86.445    51559.537    29075.760     7472.780       11.671        4.405      380.488       84.732        0.050      334.923        5.213      858.383
01/04/2021  16:25:00     -284.003      -19.116        2.745      202.161      124.802       82.844    40869.059    15575.620     6863.121        7.216        3.165      284.645       92.415        0.105      334.977        5.304      858.158
01/04/2021  16:26:00     -245.328     -129.850      -17.157      170.336      173.133       79.991    29014.371    29975.117     6398.634        7.135        3.269      277.573       66.479        0.057      335.033        5.397      858.104
01/04/2021  16:27:00     -338.415     -241.329      -13.059      167.481      220.107      107.895    28049.945    48447.180    11641.298       13.052        4.407      415.649      107.488        0.067      335.019        5.375      858.113
01/04/2021  16:28:00     -379.137      -59.038       -5.541      227.982      235.975      122.749    51975.598    55684.058    15067.346       13.497        6.136      383.706      141.983        0.137      334.950        5.259      858.252
01/04/2021  16:29:00     -378.776      -47.919        2.579      256.268      201.099      132.683    65673.208    40440.958    17604.874       13.472        6.186      381.795      123.462        0.105      335.100        5.508      858.179
01/04/2021  16:30:00     -153.693      -94.367      -50.127      199.067      311.163      163.551    39627.846    96822.219    26749.014        9.909        8.160      180.351      215.514        1.428      334.658        4.776      858.116
01/04/2021  16:31:00     -305.145       39.592       -9.857      211.641      232.152      131.179    44791.810    53894.496    17207.813       10.531        5.795      307.703      128.389        0.174      335.303        5.846      858.124
01/04/2021  16:32:00     -285.615     -108.660       13.109      149.795      212.654       95.213    22438.498    45221.700     9065.453        8.512        3.836      305.586       93.744        0.094      335.507        6.182      858.191
01/04/2021  16:33:00     -595.324      -49.104       -3.390      274.061      226.151      132.362    75109.298    51144.182    17519.714       25.027        7.189      597.345      128.108        0.046      335.373        5.960      858.001
01/04/2021  16:34:00     -442.479     -116.151      -23.774      356.024      197.772      121.118   126753.069    39113.935    14669.527       19.515        9.027      457.470      131.052        0.082      335.370        5.956      857.968
01/04/2021  16:35:00     -361.624      -23.970      -15.117      222.535      178.600       97.262    49521.836    31897.979     9459.864       11.121        4.544      362.418       92.841        0.066      335.333        5.894      857.903
01/04/2021  16:36:00     -289.979      -54.900      -22.229      204.935      155.210       80.219    41998.517    24090.236     6435.021        8.004        3.626      295.131       69.870        0.056      335.321        5.874      858.053
01/04/2021  16:37:00     -489.557     -117.692      -21.143      272.757      187.551      115.083    74396.116    35175.262    13244.081       18.836        6.141      503.505      116.368        0.053      335.308        5.850      858.107
01/04/2021  16:38:00     -186.119     -192.363      -19.868      127.044      159.762       73.635    16140.241    25524.024     5422.106        5.955        2.354      267.664       45.354        0.029      335.353        5.929      858.151
01/04/2021  16:39:00     -476.047     -283.077      -47.330      281.418      301.951      105.916    79196.094    91174.452    11218.117       24.525        9.079      553.853      102.084        0.034      335.353        5.927      858.191
01/04/2021  16:40:00     -635.343     -195.600      -46.747      252.983      241.739      103.196    64000.174    58437.590    10649.480       28.857        6.654      664.771       80.686        0.015      335.305        5.846      858.298
01/04/2021  16:41:00     -551.338      -54.492      -36.835      317.915      226.343      125.035   101070.069    51231.240    15633.698       23.808        8.397      554.024      127.956        0.053      335.302        5.843      858.408
01/04/2021  16:42:00     -496.993       51.557        1.452      305.472      238.628      127.193    93312.998    56943.232    16178.111       20.801        8.322      499.660      129.378        0.067      335.214        5.696      858.459
01/04/2021  16:43:00     -512.312      -51.732       -1.717      296.654      250.921      122.253    88003.826    62961.446    14945.742       21.549        8.296      514.918      131.170        0.065      335.163        5.613      858.456
01/04/2021  16:44:00     -369.104     -104.791       -0.810      223.302      175.072      119.936    49863.822    30650.209    14384.671       12.104        4.745      383.691      115.886        0.091      335.109        5.523      858.476
01/04/2021  16:45:00     -461.302       19.778       -7.979      305.696      161.412      102.185    93449.753    26053.973    10441.806       17.157        6.497      461.725       95.311        0.043      334.988        5.323      858.496
01/04/2021  16:46:00     -358.800       23.475       -5.209      252.172      131.059       84.502    63590.507    17176.472     7140.563       10.859        4.395      359.567       80.447        0.050      334.934        5.232      858.468
01/04/2021  16:47:00     -359.875      -22.168      -23.751      248.511      212.136      107.815    61757.658    45001.812    11624.020       12.445        5.919      360.557      127.060        0.124      335.023        5.380      858.400
01/04/2021  16:48:00     -318.552      -95.038        3.404      311.170      190.770      103.448    96826.661    36393.134    10701.592       12.719        7.196      332.427      114.449        0.119      335.000        5.343      858.260
01/04/2021  16:49:00     -505.248     -127.234      -40.371      169.761      185.085       91.495    28818.887    34256.289     8371.304       17.225        3.572      521.022       76.440        0.022      335.037        5.403      858.199
01/04/2021  16:50:00     -296.548      -92.270      -32.601      143.389      183.759       72.018    20560.508    33767.503     5186.562        7.850        2.976      310.572       48.018        0.024      334.992        5.327      858.102
01/04/2021  16:51:00     -204.727      -56.924      -13.311      150.886       76.575       65.673    22766.612     5863.779     4312.925        3.913        1.647      212.494       70.333        0.110      335.021        5.377      858.141
01/04/2021  16:52:00     -222.517      -28.484      -12.334      151.756       97.575       72.064    23029.847     9520.964     5193.179        4.410        1.887      224.333       65.907        0.086      335.014        5.364      858.210
01/04/2021  16:53:00     -210.600      -42.744       -7.404      157.944      112.749       69.663    24946.373    12712.236     4852.920        4.436        2.126      214.894       73.168        0.116      335.006        5.353      858.311
01/04/2021  16:54:00     -273.312      -97.342      -34.917      101.296      123.291       52.449    10260.842    15200.563     2750.912        5.680        1.411      290.129       48.860        0.028      335.126        5.551      858.411
01/04/2021  16:55:00     -160.894      -84.496      -25.142      140.724      137.661       67.027    19803.340    18950.552     4492.673        3.844        2.162      181.732       66.896        0.136      335.310        5.856      858.443
01/04/2021  16:56:00     -135.653       11.141      -14.584      141.917      127.570       53.781    20140.298    16274.201     2892.370        2.901        1.965      136.110       30.181        0.049      335.286        5.816      858.437
01/04/2021  16:57:00     -305.507       14.347      -10.415      211.530      161.686      104.286    44744.929    26142.481    10875.532        8.769        4.088      305.844       71.927        0.055      335.343        5.909      858.418
01/04/2021  16:58:00     -319.021       62.494       -9.673      272.062      145.874      104.627    74017.543    21279.104    10946.871       10.599        5.312      325.084       89.941        0.077      335.326        5.882      858.437
01/04/2021  16:59:00     -421.803      -28.978        5.378      321.584      179.614      120.653   103416.472    32261.307    14557.197       16.448        7.512      422.797      146.533        0.120      335.334        5.893      858.561
01/04/2021  17:00:00     -351.298       54.782      -10.317      278.367      188.696      132.195    77488.446    35606.190    17475.594       12.852        6.529      355.543      144.245        0.165      335.327        5.885      858.652
01/04/2021  17:01:00     -390.389       43.055       -8.381      245.412      164.998       89.139    60226.896    27224.265     7945.771       12.484        4.770      392.756       70.110        0.032      335.290        5.822      858.721
01/04/2021  17:02:00     -810.595       61.770      -12.524      409.907      284.869      148.048   168023.800    81150.511    21918.131       46.601       13.555      812.945      151.906        0.035      335.413        6.027      858.725
01/04/2021  17:03:00     -682.466       28.511        8.186      398.769      255.852      155.564   159016.865    65460.132    24200.246       35.760       12.434      683.061      179.174        0.069      335.391        5.990      858.841
01/04/2021  17:04:00     -485.723      -63.789      -49.245      401.825      223.480      131.922   161462.977    49943.419    17403.490       23.557       11.440      489.894      124.736        0.065      335.343        5.910      858.878
01/04/2021  17:05:00     -265.094       19.680        3.927      211.957      167.479       98.853    44925.786    28049.368     9771.975        7.669        4.137      265.823      108.055        0.165      335.212        5.694      859.011
01/04/2021  17:06:00     -298.545       34.893       10.138      277.468      146.993       94.443    76988.631    21607.052     8919.572        9.896        5.376      300.577      110.417        0.135      335.228        5.719      858.958
01/04/2021  17:07:00     -647.055       37.851      -29.176      331.873      244.087      137.223   110139.747    59578.607    18830.166       30.471        9.427      648.161      140.949        0.047      335.224        5.714      858.933
01/04/2021  17:08:00     -352.300       16.368       -8.127      251.344      154.345       99.434    63173.637    23822.490     9887.186       11.065        4.844      352.680      104.971        0.089      335.236        5.733      858.894
01/04/2021  17:09:00     -486.391      144.276       -5.496      371.070      253.246      127.020   137692.916    64133.404    16134.176       23.764       10.898      507.338      127.497        0.063      335.282        5.808      858.871
01/04/2021  17:10:00     -561.079     -113.479       -8.608      343.907      257.252      144.931   118271.938    66178.647    21004.974       26.656       10.273      572.439      158.092        0.076      335.283        5.810      858.737
01/04/2021  17:11:00     -144.260       19.166       16.421      233.735      176.797      119.067    54632.189    31257.086    14176.928        6.074        5.003      145.527      113.760        0.611      335.172        5.627      858.885
01/04/2021  17:12:00     -465.018      -26.301      -14.337      369.086      333.222      134.956   136224.531   111037.170    18213.234       24.125       13.274      465.761      164.755        0.125      335.214        5.694      858.832
01/04/2021  17:13:00     -690.328       17.621      -13.088      423.615      264.635      177.288   179449.827    70031.840    31430.878       37.891       14.046      690.553      223.635        0.105      335.245        5.747      858.810
01/04/2021  17:14:00     -634.163      -56.849      -37.202      354.027      253.228      142.284   125334.862    64124.235    20244.746       30.820       10.485      636.706      152.803        0.058      335.224        5.713      858.787
01/04/2021  17:15:00     -740.141     -130.015      -33.932      431.447      272.620      170.039   186146.109    74321.605    28913.407       42.756       14.469      751.473      191.232        0.065      335.245        5.749      858.753
01/04/2021  17:16:00     -373.963       64.192        3.681      444.937      232.303      144.828   197968.624    53964.576    20975.043       20.839       13.645      379.432      162.552        0.184      335.245        5.746      858.770
01/04/2021  17:17:00     -450.730     -114.984       -9.563      416.638      234.442      128.447   173587.585    54963.145    16498.617       23.071       12.252      465.166      144.382        0.096      335.223        5.711      858.855
01/04/2021  17:18:00     -366.999      -21.811      -24.021      258.239      170.706       89.168    66687.328    29140.388     7950.980       11.974        5.189      367.647       92.171        0.063      335.151        5.594      858.816
01/04/2021  17:19:00     -450.891       36.751      -18.987      296.279      272.087      125.771    87781.140    74031.370    15818.324       19.128        8.882      452.386      139.191        0.095      335.115        5.533      858.853
01/04/2021  17:20:00     -437.054      -15.565       -0.523      302.821      212.082      137.929    91700.567    44978.924    19024.518       17.345        7.785      437.331      133.613        0.093      335.137        5.567      858.820
01/04/2021  17:21:00     -558.347      109.229       16.312      373.943      239.230      122.911   139833.531    57231.084    15107.026       26.801       10.609      568.931      145.861        0.066      335.116        5.534      858.808
01/04/2021  17:22:00     -534.716        6.099        6.329      385.427      337.615      154.170   148554.057   113983.674    23768.481       28.609       14.315      534.750      159.823        0.089      335.148        5.586      858.864
01/04/2021  17:23:00     -413.641        2.960      -27.488      439.822      264.414      141.291   193443.175    69914.744    19963.275       22.753       14.166      413.651      160.931        0.151      335.213        5.694      858.779
01/04/2021  17:24:00     -524.081      104.831        2.994      345.123      218.824      136.537   119109.743    47883.842    18642.481       23.561        9.282      534.463      135.141        0.064      335.141        5.576      858.936
01/04/2021  17:25:00     -523.386       -8.413       -5.039      412.199      217.529      139.426   169908.299    47319.057    19439.574       25.530       11.833      523.453      171.035        0.107      335.182        5.643      858.951
01/04/2021  17:26:00     -586.139      155.961       23.562      362.312      246.915      140.131   131270.083    60966.945    19636.789       29.011       10.594      606.534      135.592        0.050      335.157        5.603      858.981
01/04/2021  17:27:00     -406.025      -33.564      -22.764      293.337      176.986      121.285    86046.641    31324.095    14710.130       14.926        6.604      407.410      133.598        0.108      335.155        5.599      858.977
01/04/2021  17:28:00     -237.586      -66.355      -13.500      267.993      227.529      108.012    71820.486    51769.456    11666.565        9.812        6.763      246.678      107.355        0.189      335.122        5.545      859.115
01/04/2021  17:29:00     -517.150      -59.553      -17.225      330.896      294.933      141.500   109491.844    86985.664    20022.143       24.385       10.825      520.568      143.704        0.076      335.149        5.588      859.076
01/04/2021  17:30:00     -771.613     -180.785      -30.173      469.652      334.261      188.100   220572.836   111730.442    35381.635       49.825       18.384      792.509      187.617        0.056      335.209        5.688      859.001
01/04/2021  17:31:00     -944.717     -115.746      -45.282      383.012      351.145      151.966   146697.909   123302.921    23093.565       60.045       14.655      951.781      130.420        0.019      335.235        5.730      859.091
01/04/2021  17:32:00     -735.959     -138.354      -16.391      457.159      311.536      169.430   208994.282    97054.940    28706.581       44.783       16.738      748.851      170.410        0.052      335.232        5.726      859.173
01/04/2021  17:33:00     -776.827      -65.368      -17.957      528.452      295.463      183.342   279261.140    87298.674    33614.222       50.403       20.009      779.572      222.336        0.081      335.233        5.728      859.310
01/04/2021  17:34:00     -501.649      -54.052        4.669      322.364      188.015      127.231   103918.629    35349.535    16187.788       20.499        7.773      504.552      142.892        0.080      335.190        5.656      859.398
01/04/2021  17:35:00     -688.723     -117.598      -44.295      386.343      306.340      165.942   149260.800    93844.461    27536.816       38.033       13.532      698.690      193.199        0.076      335.202        5.677      859.419
01/04/2021  17:36:00     -481.766      -48.810        1.954      295.929      186.339      118.249    87574.046    34722.058    13982.740       18.535        6.814      484.233      125.623        0.067      335.181        5.642      859.496
01/04/2021  17:37:00     -488.284      -56.782      -23.161      340.304      159.155       95.911   115806.977    25330.304     9198.870       19.623        7.517      491.575      118.145        0.058      335.175        5.632      859.524
01/04/2021  17:38:00     -340.955       32.802       -4.497      235.869      216.841      115.295    55634.032    47019.844    13292.833       11.662        5.797      342.529      109.487        0.102      335.137        5.570      859.561
01/04/2021  17:39:00     -603.131     -123.814      -10.094      273.648      175.734      143.161    74883.048    30882.392    20495.006       25.270        6.313      615.708      143.512        0.054      335.138        5.571      859.613
01/04/2021  17:40:00     -428.387      -73.710      -11.367      320.394      237.712      131.248   102652.478    56507.103    17226.043       18.269        8.819      434.682      131.439        0.091      335.120        5.541      859.613
01/04/2021  17:41:00     -505.625       15.382      -22.623      347.370      256.412      120.712   120666.248    65746.934    14571.425       22.865       10.049      505.858      127.407        0.063      335.094        5.499      859.600
01/04/2021  17:42:00     -331.454      -32.735      -15.861      192.611      158.072       86.754    37099.072    24986.659     7526.224        9.038        3.481      333.067       82.267        0.061      335.066        5.452      859.674
01/04/2021  17:43:00     -423.210      -35.593      -15.475      241.075      204.038      101.974    58117.152    41631.533    10398.645       14.536        5.507      424.704       91.623        0.047      335.086        5.485      859.736
01/04/2021  17:44:00     -268.517       74.040      -41.544      219.052      233.031      106.991    47983.580    54303.383    11447.004        9.650        5.687      278.537       87.564        0.099      335.033        5.395      859.822
01/04/2021  17:45:00     -262.288     -105.294      -22.275      205.383      144.091       93.255    42182.062    20762.104     8696.538        7.599        3.582      282.634      100.295        0.126      335.047        5.420      859.852
01/04/2021  17:46:00     -452.911      -16.427       -2.040      293.994      234.227      148.915    86432.760    54862.055    22175.664       18.440        8.174      453.209      145.434        0.103      335.023        5.380      859.855
01/04/2021  17:47:00     -521.941       -7.108       -4.575      284.659      233.433      125.875    81030.830    54490.845    15844.426       21.190        7.568      521.989      123.607        0.056      335.055        5.433      859.863
01/04/2021  17:48:00     -559.243      -27.045      -22.408      242.635      195.634      115.116    58871.753    38272.799    13251.578       21.217        5.520      559.897      103.509        0.034      335.045        5.415      859.879
01/04/2021  17:49:00     -568.280      -42.065        6.193      290.528      203.049      127.403    84406.359    41229.014    16231.599       23.328        7.093      569.834      114.980        0.041      335.062        5.445      859.855
01/04/2021  17:50:00     -826.272      -32.711       -7.891      359.436      273.382      152.282   129194.154    74737.750    23189.710       45.544       11.356      826.920      136.179        0.027      335.055        5.434      859.938
01/04/2021  17:51:00     -304.494        6.420       14.151      354.657      206.327      129.436   125781.318    42570.930    16753.630       13.899        9.255      304.561      145.645        0.229      335.098        5.505      859.925
01/04/2021  17:52:00     -371.339      -87.012      -16.000      236.261      214.718      101.791    55819.371    46103.625    10361.479       12.898        5.614      381.397       89.315        0.055      335.040        5.407      859.913
01/04/2021  17:53:00     -516.456      -27.443      -34.952      345.872      241.088      142.443   119627.495    58123.302    20289.990       23.333        9.902      517.185      157.515        0.093      335.049        5.424      859.954
01/04/2021  17:54:00     -609.087      -74.523      -27.809      243.537      245.962      117.015    59310.418    60497.229    13692.578       25.538        6.675      613.629      109.445        0.032      335.069        5.456      859.944
01/04/2021  17:55:00     -373.336     -132.373      -23.528      243.849      184.440      106.918    59462.459    34017.936    11431.403       13.116        5.246      396.109      122.428        0.096      335.057        5.439      859.923
01/04/2021  17:56:00     -711.010      -43.651      -28.867      344.081      303.817      155.000   118391.947    92304.942    24025.006       37.145       11.736      712.349      180.746        0.064      335.044        5.414      859.853
01/04/2021  17:57:00     -603.891       45.587       -0.667      388.603      237.339      136.386   151012.125    56329.932    18601.164       29.630       11.297      605.610      141.972        0.055      334.994        5.333      859.863
01/04/2021  17:58:00     -503.186      -75.415      -18.518      260.542      165.355      114.371    67882.118    27342.157    13080.829       18.374        5.415      508.806      135.378        0.071      334.972        5.295      859.895
01/04/2021  17:59:00     -541.399      -36.276       -3.231      363.779      225.501      143.023   132334.893    50850.673    20455.606       24.899       10.182      542.613      151.044        0.077      334.925        5.216      859.936
01/04/2021  18:00:00     -554.264       36.032      -17.084      340.026      262.845      110.108   115617.657    69087.453    12123.686       25.277        9.841      555.434      118.322        0.045      334.909        5.190      859.922
01/04/2021  18:01:00     -554.031     -116.275      -34.023      261.242      250.844      110.272    68247.499    62922.749    12159.904       23.245        7.167      566.101      112.380        0.039      334.904        5.181      859.940
01/04/2021  18:02:00     -606.064     -112.209      -63.966      357.518      250.181      111.883   127819.223    62590.375    12517.865       29.342       10.146      616.364      117.203        0.036      334.922        5.211      859.976
01/04/2021  18:03:00     -542.472     -102.591      -26.835      423.775      276.572      153.084   179585.362    76492.042    23434.854       29.246       13.976      552.088      163.532        0.088      334.970        5.291      860.008
01/04/2021  18:04:00     -877.269     -196.729      -63.202      449.014      336.667      188.302   201613.217   113344.673    35457.787       58.128       17.521      899.057      197.207        0.048      334.955        5.267      860.108
01/04/2021  18:05:00     -823.682      -42.126      -29.088      380.383      289.314      171.726   144690.919    83702.405    29489.665       46.942       12.894      824.759      177.018        0.046      334.938        5.238      860.184
01/04/2021  18:06:00     -697.438     -106.572      -32.269      407.356      278.301      146.596   165939.252    77451.329    21490.456       38.179       13.244      705.533      154.005        0.048      334.927        5.219      860.271
01/04/2021  18:07:00     -732.717      -70.660      -20.186      597.257      323.552      177.305   356716.218   104685.908    31437.193       51.745       24.642      736.116      221.662        0.091      334.930        5.225      860.323
01/04/2021  18:08:00     -961.353     -108.070      -21.382      413.386      251.190      165.299   170887.947    63096.281    27323.626       59.876       13.065      967.408      175.157        0.033      334.939        5.240      860.386
01/04/2021  18:09:00     -684.700     -116.888      -37.769      343.327      204.529      144.024   117873.642    41832.191    20742.926       33.214        9.022      694.606      163.352        0.055      334.860        5.108      860.452
01/04/2021  18:10:00     -645.265      -55.619      -13.145      282.051      259.216      139.946    79552.995    67192.901    19585.000       29.295        8.317      647.657      145.290        0.050      334.819        5.040      860.492
01/04/2021  18:11:00     -887.476     -113.471      -36.993      301.339      245.466      134.842    90805.125    60253.336    18182.286       48.551        8.462      894.701      136.506        0.023      334.784        4.981      860.532
01/04/2021  18:12:00     -623.100     -110.339      -49.749      254.099      222.700      121.524    64566.081    49595.222    14767.981       26.589        6.446      632.794      117.399        0.034      334.768        4.956      860.530
01/04/2021  18:13:00     -227.506     -102.645       20.809      291.963      217.819      141.952    85242.336    47445.084    20150.486       10.775        7.642      249.589      149.735        0.360      334.757        4.937      860.476
01/04/2021  18:14:00     -296.868       -2.057       14.441      245.977      172.645       99.497    60504.638    29806.269     9899.675        9.426        5.011      296.875      106.554        0.129      334.721        4.876      860.529
01/04/2021  18:15:00     -525.177      -58.748       -7.738      315.362      227.637      118.213    99453.111    51818.788    13974.399       22.225        8.262      528.453      137.748        0.068      334.729        4.890      860.516
01/04/2021  18:16:00     -555.704       15.888       -9.065      457.948      215.069      139.502   209716.127    46254.840    19460.909       29.223       13.772      555.931      163.776        0.087      334.803        5.014      860.535
01/04/2021  18:17:00     -537.877     -133.907        2.000      392.922      332.565      169.041   154387.318   110599.524    28574.933       30.034       14.678      554.295      190.687        0.118      334.829        5.058      860.470
01/04/2021  18:18:00     -627.687     -145.311      -52.464      308.763      246.812      126.024    95334.865    60916.322    15882.090       29.496        8.607      644.287      130.826        0.041      334.831        5.061      860.415
01/04/2021  18:19:00     -755.693     -199.799      -46.838      339.055      259.944      139.756   114958.042    67571.118    19531.831       40.758       10.103      781.659      163.855        0.044      334.789        4.990      860.401
01/04/2021  18:20:00     -529.415      -73.409      -12.780      285.404      216.262      124.410    81455.262    46769.399    15477.917       21.474        7.185      534.480      132.472        0.061      334.733        4.897      860.361
01/04/2021  18:21:00     -551.681     -105.439      -11.278      505.074      297.145      144.757   255099.554    88295.114    20954.615       33.989       18.217      561.666      186.436        0.110      334.739        4.908      860.342
01/04/2021  18:22:00     -657.971      -59.907        2.042      382.016      214.753      145.784   145936.047    46119.011    21252.973       32.487       10.665      660.692      117.996        0.032      334.783        4.979      860.313
01/04/2021  18:23:00     -667.549       -2.470       -5.023      420.986      253.075      164.796   177229.247    64047.101    27157.651       35.698       13.422      667.553      184.093        0.076      334.739        4.907      860.296
01/04/2021  18:24:00     -575.621      -32.572      -29.724      261.559      174.408      130.589    68413.039    30418.275    17053.614       22.456        5.794      576.541      118.904        0.043      334.701        4.844      860.314
01/04/2021  18:25:00     -614.335      -80.834      -15.827      300.504      240.603      135.751    90302.369    57889.855    18428.373       27.537        8.331      619.631      131.297        0.045      334.709        4.857      860.339
01/04/2021  18:26:00     -601.863      -79.027      -21.417      349.037      195.569      143.062   121826.665    38247.215    20466.873       27.470        9.027      607.029      165.348        0.074      334.690        4.825      860.341
01/04/2021  18:27:00     -597.143     -103.075      -23.922      329.939      203.720      134.152   108859.653    41501.749    17996.838       26.803        8.418      605.974      150.999        0.062      334.676        4.802      860.416
01/04/2021  18:28:00     -754.002      -26.165      -22.408      293.658      232.212      140.445    86234.828    53922.531    19724.869       36.476        7.994      754.456      136.086        0.033      334.692        4.830      860.462
01/04/2021  18:29:00     -439.006     -114.028      -26.078      267.370      184.507      104.642    71486.670    34042.730    10949.844       16.142        5.824      453.574      105.459        0.054      334.702        4.846      860.508
01/04/2021  18:30:00     -338.702       20.764        4.943      280.953      163.937      111.165    78934.570    26875.302    12357.753       11.664        5.908      339.337      118.288        0.122      334.643        4.746      860.515
01/04/2021  18:31:00     -532.035        5.965       -2.310      366.689      224.481      125.534   134461.083    50391.729    15758.816       24.181       10.031      532.068      133.272        0.063      334.687        4.820      860.560
01/04/2021  18:32:00     -698.951        3.311      -33.442      363.407      268.278      143.320   132064.290    71973.342    20540.554       35.707       11.229      698.959      110.768        0.025      334.770        4.959      860.509
01/04/2021  18:33:00     -659.982      -76.010      -21.655      321.560      201.027      114.262   103401.046    40411.794    13055.747       29.931        7.843      664.345       99.015        0.022      334.719        4.873      860.515
01/04/2021  18:34:00     -444.619      -68.231      -18.239      266.528      173.527      117.027    71036.977    30111.527    13695.319       15.873        5.742      449.823       94.499        0.044      334.699        4.840      860.517
01/04/2021  18:35:00     -522.791      -52.304       -8.927      269.989      174.959      111.518    72894.051    30610.486    12436.253       19.601        5.797      525.401       96.076        0.033      334.628        4.722      860.527
01/04/2021  18:36:00     -391.894      -70.658       -2.306      318.197      211.884      125.832   101249.534    44894.625    15833.569       16.024        8.099      398.213      144.092        0.131      334.592        4.663      860.478
01/04/2021  18:37:00     -522.865      -74.479        0.588      297.227      210.493      114.971    88343.745    44307.177    13218.446       21.237        7.293      528.143      136.075        0.066      334.569        4.624      860.486
01/04/2021  18:38:00     -427.423       43.878      -12.137      289.623      216.231      125.680    83881.427    46755.749    15795.556       16.557        7.322      429.669      137.424        0.102      334.534        4.566      860.493
01/04/2021  18:39:00     -430.272      -13.364        7.548      310.522      194.713      120.462    96423.904    37913.060    14511.111       16.708        7.442      430.480      142.075        0.109      334.588        4.655      860.440
01/04/2021  18:40:00     -754.299      -68.576       -1.812      427.118      266.296      167.478   182430.077    70913.578    28048.841       42.747       14.070      757.410      178.555        0.056      334.633        4.730      860.437
01/04/2021  18:41:00     -685.772      -40.057      -13.600      358.557      231.520      130.460   128563.293    53601.554    17019.760       33.559        9.959      686.940      141.200        0.042      334.611        4.694      860.465
01/04/2021  18:42:00     -560.224        4.235        6.169      383.644      271.512      158.807   147183.023    73718.977    25219.680       27.996       12.306      560.240      172.354        0.095      334.621        4.711      860.450
01/04/2021  18:43:00     -614.582      -67.728       -0.530      399.274      278.767      167.724   159420.067    77711.010    28131.340       32.372       13.263      618.303      167.636        0.074      334.643        4.746      860.487
01/04/2021  18:44:00     -677.186      -69.204      -69.027      357.683      216.005      147.298   127936.810    46658.079    21696.788       33.217        9.815      680.713      125.793        0.034      334.597        4.668      860.489
01/04/2021  18:45:00     -531.516      -79.433      -14.983      227.074      218.690      115.376    51562.685    47825.328    13311.515       20.085        5.635      537.419      108.868        0.041      334.539        4.575      860.579
01/04/2021  18:46:00     -286.795      -11.711       12.098      249.484      162.698      111.329    62242.507    26470.761    12394.120        9.180        5.055      287.034      115.492        0.162      334.521        4.544      860.603
01/04/2021  18:47:00     -588.188      -65.405      -12.688      333.649      216.322      124.354   111321.521    46795.396    15463.915       26.195        8.679      591.813      138.406        0.055      334.485        4.484      860.611
01/04/2021  18:48:00     -504.729      -46.245       -7.745      367.668      195.462      120.208   135179.477    38205.262    14450.068       22.235        9.392      506.843      106.027        0.044      334.456        4.438      860.637
01/04/2021  18:49:00     -349.184      -70.403      -17.165      224.532      152.046       93.845    50414.588    23118.101     8806.935       10.474        4.117      356.211       80.702        0.051      334.441        4.413      860.615
01/04/2021  18:50:00     -390.197      -59.665        2.632      289.878      186.850      115.055    84029.349    34912.774    13237.705       14.397        6.609      394.732      118.884        0.091      334.468        4.458      860.613
01/04/2021  18:51:00     -338.094      -79.422        4.016      257.345      181.346      124.249    66226.669    32886.438    15437.839       11.757        5.728      347.298      135.696        0.153      334.443        4.415      860.593
01/04/2021  18:52:00     -369.460        1.896       -2.310      266.089      172.048      107.668    70803.598    29600.615    11592.356       12.423        5.600      369.465      122.320        0.110      334.386        4.321      860.596
01/04/2021  18:53:00     -501.317      -56.606      -32.256      431.431      257.875      140.195   186132.333    66499.767    19654.551       26.387       13.614      504.503      139.740        0.077      334.399        4.344      860.563
01/04/2021  18:54:00     -722.165      -59.750       14.055      416.523      224.571      154.247   173491.032    50432.218    23792.116       38.645       12.386      724.632      183.194        0.064      334.361        4.280      860.564
01/04/2021  18:55:00     -461.070      -56.084      -20.138      364.992      203.825      134.166   133219.243    41544.751    18000.399       20.441        9.638      464.468      141.848        0.093      334.333        4.233      860.629
01/04/2021  18:56:00     -500.522      -89.987      -27.182      347.305      264.204      139.411   120621.030    69803.831    19435.481       23.456       10.493      508.547      146.750        0.083      334.301        4.181      860.683
01/04/2021  18:57:00     -276.842       -8.706       -8.222      251.403      184.694       96.437    63203.220    34111.736     9300.004        9.168        5.331      276.979       74.389        0.072      334.296        4.172      860.694
01/04/2021  18:58:00     -292.199      -28.513       -2.216      286.816      184.358      113.813    82263.194    33987.711    12953.425       10.767        6.460      293.587      107.628        0.134      334.275        4.137      860.662
01/04/2021  18:59:00     -386.924       31.375        5.939      236.557      190.629       96.501    55959.342    36339.410     9312.441       12.615        5.081      388.195       92.225        0.056      334.249        4.093      860.590
01/04/2021  19:00:00     -560.175     -117.498      -16.750      338.878      209.595      138.750   114838.439    43930.209    19251.601       25.291        8.901      572.365      146.104        0.065      334.267        4.125      860.515
01/04/2021  19:01:00     -667.643     -181.120      -42.417      283.133      202.607      140.893    80164.565    41049.546    19850.710       31.068        7.053      691.774      134.109        0.038      334.250        4.096      860.491
01/04/2021  19:02:00     -459.710      -16.663      -25.254      261.896      199.873      101.051    68589.501    39949.095    10211.234       16.547        5.937      460.011       92.357        0.040      334.257        4.107      860.523
01/04/2021  19:03:00     -515.631      -38.585      -16.360      342.717      216.194      119.133   117454.825    46740.009    14192.679       22.297        8.919      517.073      148.770        0.083      334.321        4.214      860.528
01/04/2021  19:04:00     -284.345      -62.677       -0.500      372.783      200.821      121.601   138966.900    40329.251    14786.881       13.939        9.704      291.170      144.938        0.248      334.333        4.233      860.502
01/04/2021  19:05:00     -582.065     -152.454      -27.071      260.462      235.870      148.072    67840.515    55634.482    21925.414       25.406        7.270      601.700      143.876        0.057      334.297        4.174      860.413
01/04/2021  19:06:00     -595.537      -61.505       -8.203      254.555      176.608      127.099    64798.028    31190.278    16154.112       23.530        5.607      598.705      129.813        0.047      334.290        4.161      860.394
01/04/2021  19:07:00     -351.675      -16.283       -7.061      309.081      203.214      126.304    95531.138    41295.961    15952.695       13.835        7.639      352.051      131.888        0.140      334.286        4.156      860.369
01/04/2021  19:08:00     -348.389      -31.151      -15.429      222.196      147.821      107.529    49371.068    21851.184    11562.559       10.267        4.139      349.779       92.738        0.070      334.305        4.187      860.371
01/04/2021  19:09:00     -581.970      -53.411      -38.026      341.359      201.579      116.752   116525.938    40633.977    13631.088       25.685        8.540      584.416      128.343        0.048      334.299        4.176      860.366
01/04/2021  19:10:00     -563.653       33.169      -14.894      294.812      196.772      106.484    86914.306    38719.158    11338.926       22.797        6.849      564.628      112.767        0.040      334.313        4.201      860.365
01/04/2021  19:11:00     -517.473     -104.930      -36.201      383.661      257.368      127.702   147195.782    66238.117    16307.732       25.487       11.487      528.005      123.554        0.055      334.348        4.259      860.351
01/04/2021  19:12:00     -560.345      -56.506      -20.854      249.820      255.942      119.644    62409.926    65506.314    14314.782       22.989        7.112      563.187      138.671        0.061      334.333        4.234      860.348
01/04/2021  19:13:00     -762.755      -72.166      -31.908      299.630      198.831      129.970    89778.126    39533.705    16892.280       36.708        7.310      766.161      133.251        0.030      334.343        4.250      860.377
01/04/2021  19:14:00     -579.432      -36.634      -30.486      203.098      271.684      105.588    41248.885    73812.001    11148.891       23.208        6.310      580.589       96.467        0.028      334.375        4.302      860.384
01/04/2021  19:15:00     -403.954      -67.815      -25.017      223.509      176.001      106.904    49956.332    30976.367    11428.539       13.036        4.618      409.607      112.778        0.076      334.374        4.302      860.412
01/04/2021  19:16:00     -595.262      -84.829      -47.770      290.927      226.368      105.071    84638.357    51242.662    11039.886       25.534        7.346      601.277       78.009        0.017      334.457        4.440      860.411
01/04/2021  19:17:00     -469.431     -102.795      -14.565      356.439      174.717      113.156   127049.049    30525.888    12804.212       20.072        8.519      480.554      132.572        0.076      334.486        4.487      860.455
01/04/2021  19:18:00     -489.696      -39.764      -17.910      285.300      212.974      111.612    81396.355    45357.972    12457.342       19.043        6.961      491.308      131.485        0.072      334.484        4.484      860.487
01/04/2021  19:19:00     -495.555      -48.743      -28.824      239.812      199.306      107.349    57509.853    39722.801    11523.837       17.875        5.438      497.947      100.332        0.041      334.554        4.599      860.557
01/04/2021  19:20:00     -268.112      -18.808        8.238      244.804      133.536       95.215    59928.869    17831.836     9065.840        7.955        4.341      268.771      103.282        0.148      334.531        4.561      860.630
01/04/2021  19:21:00     -409.162      -31.585       -6.846      236.245      192.088      104.784    55811.530    36897.844    10979.661       13.605        5.184      410.379       96.040        0.055      334.595        4.668      860.678
01/04/2021  19:22:00     -492.804       55.686      -13.864      247.126      174.557      111.110    61071.464    30470.291    12345.398       17.500        5.194      495.940       97.294        0.038      334.589        4.658      860.699
01/04/2021  19:23:00     -666.575     -169.131      -45.029      388.674      255.342      144.947   151067.548    65199.318    21009.656       35.606       11.864      687.697      181.552        0.070      334.648        4.756      860.665
01/04/2021  19:24:00     -573.826      -95.505      -27.451      365.401      213.229      131.552   133517.988    45466.697    17305.979       26.768        9.815      581.719      134.841        0.054      334.678        4.805      860.669
01/04/2021  19:25:00     -286.741      133.103       -0.594      270.999      154.987      111.535    73440.229    24020.975    12440.154       10.490        5.495      316.128      104.380        0.109      334.639        4.740      860.723
01/04/2021  19:26:00     -420.926      -23.398      -19.215      216.900      171.589      100.519    47045.764    29442.866    10104.055       13.232        4.330      421.576       96.358        0.052      334.632        4.729      860.810
01/04/2021  19:27:00     -214.922        6.371        0.409      204.046      168.880       95.566    41634.727    28520.393     9132.894        6.274        3.964      215.017       97.905        0.207      334.595        4.668      860.850
01/04/2021  19:28:00     -419.260      -59.830       -8.706      272.186      219.186      118.559    74085.148    48042.409    14056.207       15.778        6.809      423.507      137.698        0.106      334.598        4.672      860.902
01/04/2021  19:29:00     -362.201       83.310      -28.672      254.377      220.750      107.732    64707.708    48730.580    11606.109       13.197        6.252      371.658       93.705        0.064      334.606        4.686      860.963
01/04/2021  19:30:00     -353.221       41.482       -6.605      237.399      162.606       88.568    56358.056    26440.582     7844.301       10.857        4.532      355.648      101.460        0.081      334.593        4.664      861.028
01/04/2021  19:31:00     -307.425      -77.918      -11.298      197.989      131.213       76.711    39199.826    17216.773     5884.550        8.149        3.115      317.146       85.509        0.073      334.609        4.690      861.092
01/04/2021  19:32:00     -530.975     -142.131      -24.101      323.657      199.618      122.911   104753.872    39847.443    15107.065       23.118        7.985      549.668      130.153        0.056      334.626        4.720      861.139
01/04/2021  19:33:00     -335.944      -73.556       -8.453      183.500      149.110       98.963    33672.248    22233.825     9793.711        9.201        3.285      343.902       97.233        0.080      334.577        4.638      861.187
01/04/2021  19:34:00     -261.177      -96.255      -17.889      198.802      149.826       93.277    39522.038    22447.926     8700.509        7.422        3.534      278.350       96.087        0.119      334.577        4.638      861.219
01/04/2021  19:35:00     -267.135       52.282        0.738      254.469      179.575       91.136    64754.659    32247.197     8305.850        8.968        5.265      272.203       91.711        0.114      334.554        4.599      861.259
01/04/2021  19:36:00     -226.417      -26.488       -3.196      142.803      127.682       68.546    20392.662    16302.642     4698.608        4.668        2.070      227.961       69.413        0.093      334.557        4.603      861.304
01/04/2021  19:37:00     -169.984      -80.807       -6.183      192.559      132.724       84.679    37079.090    17615.630     7170.460        4.865        3.093      188.214       92.811        0.243      334.568        4.623      861.339
01/04/2021  19:38:00     -371.662      -41.563      -34.070      286.097      204.779       92.899    81851.542    41934.492     8630.266       13.669        6.621      373.978      107.731        0.083      334.597        4.670      861.399
01/04/2021  19:39:00     -521.976     -100.251      -49.323      251.632      198.448      108.190    63318.892    39381.430    11705.037       19.965        5.720      531.516      101.462        0.036      334.601        4.677      861.389
01/04/2021  19:40:00     -425.401        1.560      -20.788      244.932      168.310       98.920    59991.663    28328.377     9785.083       13.973        4.905      425.403       81.173        0.036      334.603        4.680      861.421
01/04/2021  19:41:00     -476.057      -74.002        3.244      286.565      209.564      115.063    82119.259    43916.934    13239.384       18.567        6.964      481.775      135.799        0.079      334.661        4.777      861.422
01/04/2021  19:42:00     -557.126      -56.727      -16.505      294.797      257.223      124.122    86905.417    66163.612    15406.242       24.114        8.424      560.006      143.424        0.066      334.660        4.776      861.435
01/04/2021  19:43:00     -533.026       78.832        3.295      336.922      236.648      123.234   113516.342    56002.071    15186.646       23.748        9.235      538.824      104.764        0.038      334.686        4.818      861.432
01/04/2021  19:44:00     -408.782       27.344        1.743      211.218      184.364       97.167    44613.074    33989.927     9441.331       12.793        4.402      409.696       92.641        0.051      334.650        4.758      861.527
01/04/2021  19:45:00     -228.000      -42.927       -5.166      189.914      127.129       92.575    36067.142    16161.809     8570.121        5.731        3.040      232.006       94.080        0.164      334.618        4.707      861.618
01/04/2021  19:46:00     -496.058       24.466      -19.587      243.013      162.769       99.764    59055.385    26493.683     9952.761       17.126        4.775      496.661      101.859        0.042      334.654        4.766      861.664
01/04/2021  19:47:00     -361.973      -17.995      -11.220      207.982      142.698       90.227    43256.330    20362.651     8140.934       10.160        3.588      362.420       93.132        0.066      334.613        4.698      861.705
01/04/2021  19:48:00     -330.927      -41.195       -9.286      195.762      116.541       86.121    38322.796    13581.806     7416.800        8.530        2.966      333.481       98.519        0.087      334.635        4.734      861.761
01/04/2021  19:49:00     -293.874      -64.120      -20.785      202.335      149.756       83.311    40939.395    22426.713     6940.665        8.059        3.515      300.788       99.573        0.110      334.707        4.853      861.783
01/04/2021  19:50:00     -196.422      -65.607      -19.832      157.372      148.675       71.125    24765.879    22104.343     5058.776        4.759        2.596      207.089       78.258        0.143      334.706        4.854      861.813
01/04/2021  19:51:00     -228.594       16.216        0.126      160.467      106.497       72.022    25749.781    11341.612     5187.138        4.739        2.114      229.169       76.561        0.112      334.662        4.780      861.866
01/04/2021  19:52:00     -573.495      -59.080      -21.693      420.389      168.703      109.647   176726.939    28460.619    12022.564       27.499       10.861      576.530      129.131        0.050      334.736        4.903      861.923
01/04/2021  19:53:00     -409.770      -78.746       -4.327      230.314      215.123       95.114    53044.715    46278.007     9046.623       14.123        5.418      417.268      110.938        0.071      334.780        4.975      861.984
01/04/2021  19:54:00     -382.453       -4.950        2.994      195.104      127.842       85.864    38065.393    16343.641     7372.651       10.403        3.089      382.485       54.753        0.020      334.767        4.953      861.988
01/04/2021  19:55:00     -309.928       15.269        2.274      175.736      116.001       83.130    30883.004    13456.165     6910.528        7.376        2.562      310.304       64.658        0.043      334.739        4.907      862.029
01/04/2021  19:56:00     -416.745      -95.641      -48.120      239.550      178.950       89.029    57384.294    32022.973     7926.114       14.122        4.867      427.579       82.950        0.038      334.766        4.952      862.019
01/04/2021  19:57:00     -502.741      -55.411      -35.240      196.744      173.131       76.881    38708.130    29974.515     5910.625       16.581        3.730      505.786       68.564        0.018      334.750        4.924      862.014
01/04/2021  19:58:00     -258.788       19.590       -7.480      191.015       80.814       53.988    36486.570     6530.943     2914.697        5.666        2.297      259.529       54.932        0.045      334.680        4.808      862.062
01/04/2021  19:59:00     -320.525      -62.356      -19.444      190.845      101.080       66.693    36421.784    10217.178     4448.021        7.903        2.554      326.534       43.203        0.018      334.686        4.819      862.115
01/04/2021  20:00:00     -393.669      -48.635       -0.489      230.649      179.864      104.184    53199.100    32351.054    10854.336       12.685        4.820      396.662      108.600        0.075      334.695        4.834      862.146
01/04/2021  20:01:00     -452.199     -128.010      -15.857      239.145      141.221      101.631    57190.139    19943.267    10328.930       15.427        4.373      469.969      113.251        0.058      334.702        4.844      862.139
01/04/2021  20:02:00     -297.134       57.436        5.587      204.897      142.228       88.258    41982.587    20228.750     7789.499        8.079        3.500      302.634       97.181        0.103      334.668        4.789      862.129
01/04/2021  20:03:00     -359.044      -63.109       -5.357      228.978      196.455       82.217    52430.908    38594.503     6759.606       11.533        4.889      364.548       85.199        0.055      334.690        4.825      862.085
01/04/2021  20:04:00     -346.151      -12.908       -2.034      299.566      138.859       90.314    89739.652    19281.816     8156.622       11.856        5.859      346.391      113.104        0.107      334.698        4.839      862.060
01/04/2021  20:05:00     -445.466      -33.884      -37.276      146.179      168.790       86.497    21368.417    28489.946     7481.810       12.915        2.867      446.753       77.176        0.030      334.678        4.806      862.084
01/04/2021  20:06:00     -436.198      -31.458      -12.418      160.515      124.818       78.261    25765.084    15579.554     6124.788       11.943        2.373      437.331       56.997        0.017      334.663        4.779      862.095
01/04/2021  20:07:00     -384.348      -28.583      -21.565      193.959      157.822      105.284    37619.954    24907.692    11084.651       11.129        3.681      385.409      109.579        0.081      334.654        4.764      862.089
01/04/2021  20:08:00     -218.223      -27.741       10.562      163.535      116.140       68.016    26743.606    13488.591     4626.151        4.667        2.243      219.979       74.877        0.116      334.600        4.676      862.102
01/04/2021  20:09:00     -264.187       15.825        4.833      186.378       82.317       72.625    34736.635     6776.031     5274.418        5.842        2.339      264.661       73.812        0.078      334.613        4.697      862.108
01/04/2021  20:10:00     -147.103       37.100       11.876      151.189       92.170       71.071    22858.231     8495.304     5051.021        2.977        1.820      151.710       38.553        0.065      334.594        4.666      862.115
01/04/2021  20:11:00     -282.739      -20.092       -4.258      211.418      160.542       89.831    44697.478    25773.640     8069.603        7.944        3.927      283.452       88.148        0.097      334.634        4.733      862.046
01/04/2021  20:12:00     -328.920       35.755       11.613      192.910      112.090       84.586    37214.384    12564.274     7154.858        8.326        2.847      330.857       80.891        0.060      334.617        4.705      862.055
01/04/2021  20:13:00     -231.460      -84.104      -10.924      166.897      130.384       66.421    27854.581    16999.868     4411.799        5.501        2.463      246.266       62.187        0.064      334.629        4.723      862.048
01/04/2021  20:14:00     -154.885      -30.343      -12.967      101.988      111.621       58.489    10401.502    12459.197     3421.008        2.567        1.314      157.829       46.229        0.086      334.612        4.698      862.053
01/04/2021  20:15:00     -302.722       -4.935       -2.349      226.353       99.936       80.847    51235.579     9987.126     6536.272        7.970        3.388      302.762       69.576        0.053      334.619        4.709      862.074
01/04/2021  20:16:00     -338.658       23.447       -9.559      232.596      171.528      100.655    54101.060    29421.945    10131.455       10.447        4.683      339.469      118.596        0.122      334.671        4.793      862.029
01/04/2021  20:17:00     -378.775      -40.564      -24.733      281.355      153.352       86.750    79160.573    23516.911     7525.538       12.794        5.510      380.941       85.513        0.050      334.718        4.871      862.084
01/04/2021  20:18:00     -361.171       -5.693      -32.404      241.850      136.108       88.500    58491.651    18525.278     7832.324       10.817        4.242      361.216      102.784        0.081      334.743        4.914      862.063
01/04/2021  20:19:00     -286.712       -2.989        9.817      235.340      191.015      103.344    55384.788    36486.902    10679.930        9.241        5.128      286.728      112.736        0.155      334.733        4.899      862.030
01/04/2021  20:20:00     -416.165      -80.079      -24.725      257.674      169.169      110.063    66395.860    28618.076    12113.871       14.365        5.356      423.799      119.283        0.079      334.786        4.984      862.046
01/04/2021  20:21:00     -536.191      -43.021       -6.208      277.667      199.176      104.464    77099.057    39670.989    10912.771       20.851        6.384      537.914      115.442        0.046      334.796        5.001      862.076
01/04/2021  20:22:00     -466.356      -84.583        4.586      222.526      198.422      117.187    49517.845    39371.098    13732.742       16.362        5.131      473.964      121.056        0.065      334.809        5.023      862.092
01/04/2021  20:23:00     -256.066      -65.527       -3.794      225.132      151.191       92.446    50684.521    22858.692     8546.248        7.597        4.104      264.317      105.360        0.159      334.799        5.007      862.135
01/04/2021  20:24:00     -240.273       -9.586      -15.592      197.560      152.272       81.293    39029.840    23186.775     6608.608        6.343        3.441      240.464       76.863        0.102      334.751        4.927      862.168
01/04/2021  20:25:00     -322.276      -17.374      -18.095      232.862      122.501       69.919    54224.895    15006.488     4888.597        8.929        3.706      322.744       72.321        0.050      334.737        4.903      862.181
01/04/2021  20:26:00     -325.698       78.587        6.004      146.380      119.619       76.504    21427.032    14308.613     5852.883        7.693        2.079      335.045       75.302        0.051      334.725        4.882      862.222
01/04/2021  20:27:00     -244.101       14.339       11.478      188.144      118.283       72.821    35398.329    13990.906     5302.897        5.730        2.735      244.522       72.809        0.089      334.725        4.884      862.214
01/04/2021  20:28:00     -234.745      -29.446      -16.245      139.239      113.077       59.170    19387.393    12786.323     3501.042        4.595        1.784      236.585       67.263        0.081      334.703        4.847      862.217
01/04/2021  20:29:00     -240.050       62.950      -10.529      143.428      117.009       64.974    20571.590    13691.013     4221.647        5.008        1.924      248.166       63.542        0.066      334.673        4.797      862.220
01/04/2021  20:30:00     -284.202       31.819        0.742      168.609      133.534       73.094    28429.131    17831.393     5342.730        6.668        2.580      285.978       69.950        0.060      334.710        4.860      862.231
01/04/2021  20:31:00     -247.144       38.018       -6.769      109.584       88.518       59.385    12008.678     7835.443     3526.580        4.297        1.169      250.051       54.161        0.047      334.666        4.785      862.233
01/04/2021  20:32:00     -149.398       28.117        8.436       79.554       73.644       43.159     6328.913     5423.484     1862.691        1.840        0.681      152.021       39.726        0.068      334.655        4.768      862.219
01/04/2021  20:33:00     -176.936        6.985      -11.354      116.259       76.783       46.758    13516.129     5895.589     2186.306        2.654        1.080      177.074       34.243        0.037      334.698        4.841      862.238
01/04/2021  20:34:00     -411.421        6.471      -12.631      178.622      159.185       79.720    31905.679    25339.986     6355.254       11.652        3.180      411.472       74.224        0.033      334.780        4.977      862.235
01/04/2021  20:35:00     -338.728      -65.607      -20.019      204.401      142.787       91.739    41779.681    20388.208     8416.025        9.500        3.529      345.023       85.258        0.061      334.821        5.043      862.245
01/04/2021  20:36:00     -196.661       19.782        3.324      175.539      110.607       56.808    30813.780    12234.017     3227.112        4.267        2.314      197.654       71.549        0.131      334.790        4.992      862.251
01/04/2021  20:37:00     -228.994       10.953      -14.115      155.855       88.779       68.856    24290.853     7881.661     4741.110        4.483        1.846      229.256       69.776        0.093      334.764        4.948      862.235
01/04/2021  20:38:00     -192.281       54.858        7.626      143.550       96.288       53.494    20606.585     9271.463     2861.659        3.638        1.637      199.953       52.990        0.070      334.682        4.812      862.163
01/04/2021  20:39:00     -215.067       57.931        4.410      123.448       88.730       57.545    15239.352     7872.979     3311.413        3.802        1.321      222.732       56.718        0.065      334.709        4.859      862.118
01/04/2021  20:40:00     -175.565       55.620      -10.015      122.253      145.044       54.830    14945.875    21037.769     3006.282        3.649        1.949      184.164       54.392        0.087      334.707        4.855      862.169
01/04/2021  20:41:00     -182.834       92.732        2.237       79.476       63.777       43.843     6316.501     4067.520     1922.216        2.717        0.615      205.006       40.019        0.038      334.648        4.755      862.161
01/04/2021  20:42:00     -187.580       80.326       -8.719      147.562      127.246       75.747    21774.443    16191.499     5737.664        4.270        2.185      204.055       79.810        0.153      334.718        4.873      862.158
01/04/2021  20:43:00     -252.760       -1.793       -8.080      178.197       97.041       68.521    31754.013     9417.015     4695.122        5.490        2.293      252.767       63.941        0.064      334.743        4.915      862.134
01/04/2021  20:44:00     -115.103        2.847      -20.728      117.857      141.273       48.001    13890.374    19957.961     2304.109        2.491        1.808      115.138       39.190        0.116      334.745        4.917      862.180
01/04/2021  20:45:00     -237.031       71.680      -22.076      126.885      107.820       60.709    16099.692    11625.250     3685.633        4.660        1.571      247.632       44.281        0.032      334.758        4.939      862.198
01/04/2021  20:46:00     -244.719       41.652        0.516      158.173      154.873       73.932    25018.849    23985.522     5465.957        5.803        2.724      248.239       64.512        0.068      334.779        4.974      862.202
01/04/2021  20:47:00     -221.986       50.292      -24.105      137.468      111.966       58.126    18897.569    12536.295     3378.612        4.359        1.741      227.612       53.747        0.056      334.741        4.912      862.229
01/04/2021  20:48:00     -440.412      105.886      -31.904      219.374      191.417       89.805    48124.744    36640.342     8064.897       14.949        4.641      452.962       83.009        0.034      334.847        5.088      862.244
01/04/2021  20:49:00     -334.513        3.348      -14.022      229.271      147.572       84.133    52565.059    21777.367     7078.318        9.675        4.071      334.529       83.215        0.062      334.814        5.032      862.247
01/04/2021  20:50:00     -269.974       31.196      -16.702      196.232      132.629       89.058    38506.978    17590.397     7931.342        6.907        3.201      271.770       79.930        0.086      334.786        4.985      862.285
01/04/2021  20:51:00     -360.122       77.055       -2.588      113.852      109.380       69.197    12962.256    11963.977     4788.280        8.267        1.486      368.273       55.789        0.023      334.739        4.907      862.330
01/04/2021  20:52:00     -141.396       17.361        3.699      177.480      102.010       66.055    31499.278    10406.069     4363.260        3.328        2.313      142.458       66.972        0.221      334.740        4.911      862.365
01/04/2021  20:53:00     -294.747       -0.895      -21.558      208.843      158.828       72.712    43615.482    25226.188     5287.055        8.072        3.706      294.749       85.612        0.084      334.779        4.975      862.360
01/04/2021  20:54:00     -200.129        3.429       -1.004      180.019       96.468       64.289    32406.919     9306.121     4133.092        4.295        2.292      200.158       68.595        0.117      334.764        4.950      862.354
01/04/2021  20:55:00     -322.779       21.171       -9.863      196.592      132.154       76.233    38648.243    17464.599     5811.411        8.331        3.096      323.472       75.313        0.054      334.759        4.940      862.378
01/04/2021  20:56:00     -334.426       29.640        3.245      161.597       91.258       60.582    26113.430     8327.984     3670.127        7.541        1.906      335.736       61.329        0.033      334.771        4.960      862.367
01/04/2021  20:57:00     -201.179       50.173       11.959      148.056       89.601       59.098    21920.576     8028.358     3492.591        3.828        1.672      207.341       64.735        0.097      334.761        4.944      862.364
01/04/2021  20:58:00     -181.774       73.636        3.585      106.569      106.680       55.640    11356.960    11380.575     3095.794        3.215        1.292      196.122       44.057        0.050      334.745        4.917      862.410
01/04/2021  20:59:00     -220.331       22.039        1.299      130.187      118.553       63.535    16948.574    14054.813     4036.692        4.203        1.752      221.430       60.801        0.075      334.724        4.883      862.408
01/04/2021  21:00:00     -469.918       54.567      -34.138      203.889      110.032       80.160    41570.892    12107.130     6425.606       14.252        3.005      473.075       88.306        0.035      334.788        4.987      862.424
01/04/2021  21:01:00     -186.725       85.832       -3.443      136.407       91.402       55.640    18606.752     8354.376     3095.843        3.614        1.503      205.507       42.294        0.042      334.715        4.868      862.442
01/04/2021  21:02:00     -124.940        8.987       -6.996       88.834       81.506       40.204     7891.465     6643.213     1616.333        1.594        0.808      125.263       23.116        0.034      334.702        4.848      862.477
01/04/2021  21:03:00     -192.492       54.253      -24.647       83.413      103.030       46.255     6957.648    10615.208     2139.541        3.015        0.986      199.991       41.497        0.043      334.681        4.813      862.503
01/04/2021  21:04:00     -293.691       82.422       -6.391      145.235       89.747       57.379    21093.140     8054.485     3292.315        6.276        1.622      305.038       56.600        0.034      334.755        4.933      862.499
01/04/2021  21:05:00     -351.516       97.256        1.947      139.704      110.994       63.847    19517.310    12319.672     4076.389        8.446        1.796      364.723       61.946        0.029      334.756        4.936      862.498
01/04/2021  21:06:00     -224.124       75.741        9.779      115.052       85.982       48.423    13237.008     7392.964     2344.753        3.951        1.149      236.576       47.684        0.041      334.711        4.861      862.500
01/04/2021  21:07:00     -217.861      117.643      -21.375      116.447      112.078       49.272    13560.020    12561.454     2427.725        4.515        1.427      247.595       39.148        0.025      334.756        4.937      862.482
01/04/2021  21:08:00     -133.069       35.410        0.587      119.548       96.418       52.352    14291.606     9296.472     2740.774        2.264        1.316      137.700       27.538        0.040      334.747        4.922      862.487
01/04/2021  21:09:00     -210.822      111.162      -14.474      102.013      101.917       45.793    10406.645    10387.141     2097.033        3.995        1.145      238.334       39.283        0.027      334.749        4.924      862.527
01/04/2021  21:10:00     -245.558       40.067        0.485      124.737      108.252       60.082    15559.226    11718.590     3609.812        4.639        1.544      248.805       59.291        0.057      334.748        4.922      862.508
01/04/2021  21:11:00     -269.829       49.841      -12.910      103.746       88.958       49.581    10763.309     7913.574     2458.306        4.829        1.057      274.393       38.246        0.019      334.729        4.889      862.530
01/04/2021  21:12:00     -195.319       43.198       -9.626      140.641       88.253       48.704    19779.842     7788.570     2372.070        3.502        1.497      200.039       54.277        0.074      334.724        4.883      862.544
01/04/2021  21:13:00     -154.628       35.467       -9.391      114.468       73.948       41.033    13102.850     5468.337     1683.699        2.275        1.013      158.643       25.879        0.027      334.684        4.816      862.557
01/04/2021  21:14:00     -209.133       33.401        2.284      151.268      120.014       62.749    22882.039    14403.245     3937.450        4.303        2.061      211.783       64.989        0.094      334.795        5.002      862.518
01/04/2021  21:15:00     -119.984       11.871      -12.000      161.866       95.293       55.268    26200.579     9080.796     3054.526        2.650        1.917      120.570       54.335        0.203      334.784        4.984      862.532
01/04/2021  21:16:00     -160.227       35.672      -21.852       65.619       62.621       36.395     4305.849     3921.376     1324.624        1.849        0.478      164.150       23.735        0.021      334.726        4.886      862.553
01/04/2021  21:17:00     -157.792       47.996       -3.939       80.634       53.435       35.050     6501.861     2855.310     1228.483        1.890        0.529      164.930       37.468        0.052      334.690        4.826      862.578
01/04/2021  21:18:00      -70.753      -16.503       -6.689      107.259       72.184       38.846    11504.555     5210.473     1509.035        1.177        0.911       72.652       32.142        0.196      334.651        4.764      862.625
01/04/2021  21:19:00      -58.456       33.208      -17.204      117.202       87.823       50.325    13736.224     7712.909     2532.632        1.439        1.199       67.230       38.332        0.325      334.720        4.877      862.613
01/04/2021  21:20:00     -230.340       28.026      -14.352      134.100       85.422       61.583    17982.714     7296.976     3792.450        4.155        1.454      232.038       48.665        0.044      334.755        4.936      862.631
01/04/2021  21:21:00     -145.580       96.319      -18.566       97.681       93.771       53.944     9541.586     8792.947     2909.984        2.603        1.062      174.559       43.779        0.063      334.741        4.911      862.622
01/04/2021  21:22:00     -192.126       18.491        0.034      148.082      118.613       69.697    21928.149    14069.155     4857.627        3.905        2.043      193.013       46.664        0.058      334.766        4.953      862.630
01/04/2021  21:23:00     -285.774       56.136       -8.372      159.755       82.558       59.935    25521.624     6815.798     3592.147        6.040        1.796      291.236       50.808        0.030      334.778        4.972      862.642
01/04/2021  21:24:00     -273.522       28.874      -19.921      152.573      119.337       61.062    23278.561    14241.350     3728.554        5.864        2.062      275.042       71.501        0.068      334.820        5.043      862.667
01/04/2021  21:25:00     -205.638       59.974      -20.407      122.508       77.296       51.317    15008.201     5974.739     2633.484        3.495        1.181      214.205       50.878        0.056      334.751        4.927      862.723
01/04/2021  21:26:00      -84.732       39.738       -0.173       84.718       78.341       44.093     7177.153     6137.362     1944.165        1.201        0.763       93.588       29.045        0.096      334.738        4.909      862.722
01/04/2021  21:27:00     -285.879      150.121      -23.454      162.455      134.115       67.345    26391.688    17986.808     4535.368        7.685        2.446      322.898       60.867        0.036      334.770        4.958      862.733
01/04/2021  21:28:00     -401.252       32.409      -18.301      218.797      133.453       80.562    47872.097    17809.701     6490.193       11.726        3.609      402.558       92.984        0.053      334.878        5.137      862.762
01/04/2021  21:29:00     -185.208       16.408       -2.429      155.521      102.821       67.239    24186.918    10572.242     4521.131        3.692        1.964      185.933       61.131        0.108      334.807        5.021      862.798
01/04/2021  21:30:00     -514.020       83.697        1.749      207.169      137.748       87.520    42918.974    18974.498     7659.718       17.037        3.478      520.790       73.487        0.020      334.875        5.133      862.801
01/04/2021  21:31:00     -265.546       10.545       -0.191      215.110      130.633       90.670    46272.151    17065.101     8221.111        7.108        3.578      265.755       93.085        0.123      334.825        5.051      862.830
01/04/2021  21:32:00     -236.807      134.604      -20.714      130.741      141.133       63.420    17093.138    19918.550     4022.081        5.782        2.052      272.389       55.909        0.042      334.863        5.114      862.848
01/04/2021  21:33:00     -440.001      167.049      -24.186      122.871      118.622       70.194    15097.397    14071.253     4927.228       12.809        1.705      470.644       47.515        0.010      334.845        5.084      862.893
01/04/2021  21:34:00     -126.501       -9.294       13.956      258.692       95.366       72.814    66921.302     9094.603     5301.864        4.878        4.066      126.842       72.892        0.330      334.824        5.049      862.916
01/04/2021  21:35:00     -127.503       19.077       -5.285      113.929      102.055       60.761    12979.854    10415.254     3691.880        2.186        1.354      128.922       45.649        0.125      334.819        5.041      862.947
01/04/2021  21:36:00      -61.062       48.881      -12.620      145.105      138.843       44.047    21055.368    19277.449     1940.146        2.427        2.114       78.217       37.681        0.232      334.772        4.965      862.935
01/04/2021  21:37:00     -128.760       11.235       -8.270      118.431       60.885       46.837    14025.996     3707.023     2193.682        1.835        0.996      129.249       41.850        0.105      334.748        4.922      862.964
01/04/2021  21:38:00     -349.842      134.805      -22.720      135.372      102.839       62.667    18325.526    10575.821     3927.113        8.695        1.641      374.915       64.382        0.029      334.819        5.040      862.959
01/04/2021  21:39:00     -246.301       46.703        9.907      142.566       86.346       66.558    20324.973     7455.681     4429.976        4.757        1.611      250.690       66.290        0.070      334.753        4.931      862.955
01/04/2021  21:40:00     -451.489      105.566      -18.186      195.742      133.613       77.205    38314.886    17852.404     5960.570       13.871        3.106      463.666       72.376        0.024      334.830        5.058      862.942
01/04/2021  21:41:00     -249.466       35.713        9.679      204.346      123.073       82.217    41757.467    15147.041     6759.672        6.362        3.183      252.009       69.351        0.076      334.880        5.143      862.936
01/04/2021  21:42:00     -374.227       66.440      -20.052      176.635      112.948       72.858    31200.043    12757.353     5308.298        9.705        2.463      380.079       63.481        0.028      334.938        5.237      862.937
01/04/2021  21:43:00     -135.677        9.535       -1.488      151.103       82.106       56.290    22831.985     6741.419     3168.590        2.561        1.637      136.012       47.087        0.120      334.832        5.062      862.927
01/04/2021  21:44:00     -217.616      102.883      -18.194      142.522      134.323       56.007    20312.605    18042.792     3136.752        4.987        2.075      240.710       41.003        0.029      334.882        5.145      862.938
01/04/2021  21:45:00     -238.725       96.809       15.079      172.709      110.893       76.402    29828.313    12297.263     5837.311        5.727        2.398      257.607       71.303        0.077      334.824        5.049      862.925
01/04/2021  21:46:00     -163.753       22.229       19.861      213.908      151.647       93.407    45756.493    22996.748     8724.938        5.257        3.874      165.255       97.416        0.347      334.902        5.179      862.909
01/04/2021  21:47:00     -100.726       11.267        6.797      127.076       83.817       58.007    16148.336     7025.340     3364.811        1.842        1.327      101.354       17.439        0.030      334.817        5.038      862.950
01/04/2021  21:48:00     -271.591       75.700       28.642      200.260      138.385       92.549    40104.229    19150.411     8565.239        7.405        3.391      281.943       84.495        0.090      334.827        5.054      862.954
01/04/2021  21:49:00     -423.858       22.716      -15.171      198.062      142.644       83.199    39228.475    20347.444     6922.001       12.344        3.325      424.466       91.739        0.047      334.881        5.143      862.957
01/04/2021  21:50:00     -257.027      106.236      -26.550      182.702      181.315       68.271    33380.065    32875.123     4660.996        7.447        3.546      278.116       77.343        0.077      334.888        5.155      862.972
01/04/2021  21:51:00     -238.517       24.771      -15.103      154.698      119.233       66.242    23931.367    14216.415     4388.001        5.012        2.127      239.800       47.339        0.039      334.871        5.126      862.956
01/04/2021  21:52:00     -320.964      -50.799       -3.658      249.811      120.655       95.140    62405.620    14557.618     9051.561        9.579        4.301      324.959      111.202        0.117      334.964        5.282      862.943
01/04/2021  21:53:00     -199.270       31.262        0.853      178.372       94.243       83.163    31816.500     8881.750     6916.099        4.414        2.381      201.707       86.393        0.183      334.902        5.178      862.977
01/04/2021  21:54:00     -299.543        2.346       -8.502      239.517      123.472       84.021    57368.608    15245.217     7059.478        8.472        3.984      299.552       99.474        0.110      334.926        5.218      862.981
01/04/2021  21:55:00     -294.882       22.706       10.598      169.998      121.168       68.583    28899.429    14681.754     4703.572        6.792        2.414      295.754       47.876        0.026      334.925        5.216      863.013
01/04/2021  21:56:00     -185.189       -8.943        6.564      156.916      128.237       72.937    24622.787    16444.669     5319.758        4.039        2.319      185.405       78.936        0.181      334.904        5.183      863.039
01/04/2021  21:57:00     -247.852      -55.616       -8.288      197.283      147.964       88.382    38920.689    21893.207     7811.364        6.659        3.431      254.016       88.721        0.122      334.949        5.258      863.071
01/04/2021  21:58:00     -280.054      -62.643      -23.045      198.849      123.060       90.098    39541.006    15143.816     8117.694        7.283        3.140      286.975       84.936        0.088      334.947        5.254      863.141
01/04/2021  21:59:00     -175.287       22.941        9.999      262.212      149.161       95.620    68755.057    22248.860     9143.114        6.573        5.007      176.782       97.427        0.304      334.966        5.287      863.172
01/04/2021  22:00:00     -453.046       46.902       -7.895      222.550      168.070       87.296    49528.616    28247.608     7620.643       14.644        4.270      455.467       98.916        0.047      334.981        5.309      863.158
01/04/2021  22:01:00     -358.176      110.405      -22.137      193.485      117.563       73.085    37436.316    13821.078     5341.429        9.877        2.830      374.806       42.281        0.013      334.919        5.206      863.213
01/04/2021  22:02:00     -174.564      -31.554       -7.263      180.545      116.997       80.474    32596.587    13688.258     6476.029        4.213        2.638      177.393       70.758        0.159      334.937        5.238      863.268
01/04/2021  22:03:00     -311.159      -12.017      -21.707      179.491      113.203       64.720    32217.043    12814.829     4188.663        7.332        2.461      311.391       63.063        0.041      334.988        5.323      863.299
01/04/2021  22:04:00     -325.150       77.712      -13.827      209.351      156.387       80.942    43827.802    24457.023     6551.533        9.338        3.742      334.308       77.896        0.054      334.941        5.243      863.315
01/04/2021  22:05:00     -398.091       36.806      -10.354      178.104      112.046       79.802    31720.929    12554.287     6368.398       10.528        2.532      399.789       75.788        0.036      335.005        5.349      863.339
01/04/2021  22:06:00     -160.724      -57.769        8.538      224.711      132.645       90.579    50495.199    17594.700     8204.521        5.275        3.815      170.791       82.465        0.233      335.047        5.422      863.336
01/04/2021  22:07:00     -285.669      -36.180      -17.518      191.967      151.226       82.056    36851.311    22869.404     6733.206        7.482        3.323      287.951       74.467        0.067      335.043        5.414      863.339
01/04/2021  22:08:00     -373.521      106.587      -41.683      186.646      197.621      100.415    34836.590    39054.237    10083.233       11.828        4.199      388.431       94.168        0.059      334.989        5.324      863.347
01/04/2021  22:09:00     -392.063       42.282       17.718      249.974      161.307      119.510    62487.132    26019.923    14282.611       12.928        5.139      394.336      115.684        0.086      335.054        5.432      863.351
01/04/2021  22:10:00     -401.274      103.465        0.578      215.496      168.915       84.248    46438.400    28532.200     7097.709       12.688        4.103      414.398       85.642        0.043      335.014        5.367      863.415
01/04/2021  22:11:00     -338.977       84.529        5.340      215.238      153.344       82.045    46327.302    23514.504     6731.405        9.931        3.829      349.358       86.641        0.062      334.975        5.301      863.403
01/04/2021  22:12:00     -309.934       13.243        6.128      166.969      115.336       78.391    27878.701    13302.297     6145.112        7.179        2.366      310.217       78.443        0.064      334.973        5.296      863.404
01/04/2021  22:13:00     -291.542      106.555      -13.122      189.116      123.806       83.552    35764.957    15327.853     6980.983        7.729        2.904      310.404       76.378        0.061      334.941        5.243      863.385
01/04/2021  22:14:00     -201.537       66.588       20.303      166.293      100.966       72.087    27653.410    10194.057     5196.595        4.424        2.152      212.253       63.028        0.088      334.888        5.156      863.417
01/04/2021  22:15:00     -368.740       64.349        9.907      183.878      121.365       73.469    33811.131    14729.460     5397.738        9.706        2.697      374.312       80.901        0.047      334.887        5.153      863.445
01/04/2021  22:16:00     -337.563       53.324       14.073      204.094      127.651       85.390    41654.320    16294.712     7291.449        9.110        3.262      341.749       79.471        0.054      334.870        5.124      863.474
01/04/2021  22:17:00     -448.263      115.908      -12.405      186.856      138.787       97.951    34915.270    19261.940     9594.330       13.914        3.189      463.006       86.746        0.035      334.919        5.206      863.472
01/04/2021  22:18:00     -233.470        7.695       14.439      200.964      185.894       76.344    40386.384    34556.584     5828.436        6.776        4.039      233.597       73.548        0.099      334.864        5.116      863.503
01/04/2021  22:19:00     -281.105       78.658       -8.289      146.518      111.456       74.487    21467.486    12422.459     5548.352        6.235        1.972      291.903       70.372        0.058      334.828        5.055      863.505
01/04/2021  22:20:00     -253.472       28.203       -5.062      261.003      128.734       89.219    68122.597    16572.543     7960.010        7.884        4.633      255.036       56.457        0.049      334.875        5.133      863.491
01/04/2021  22:21:00     -482.436       83.618      -10.117      161.770      132.665       81.707    26169.672    17600.016     6676.008       14.513        2.522      489.629       73.639        0.023      334.920        5.207      863.477
01/04/2021  22:22:00     -289.103       41.825      -13.503      204.623      117.795       72.308    41870.520    13875.653     5228.439        7.323        3.049      292.113       78.215        0.072      334.886        5.153      863.471
01/04/2021  22:23:00     -455.500       49.893      -13.076      278.092      207.318      105.626    77335.433    42980.862    11156.783       17.078        6.574      458.224      105.046        0.053      334.931        5.226      863.456
01/04/2021  22:24:00     -351.572       52.422        3.721      193.622      134.367       87.780    37489.538    18054.407     7705.307        9.479        3.162      355.458       86.224        0.059      334.878        5.139      863.449
01/04/2021  22:25:00     -349.655       59.503       -4.608      267.296      129.206       76.878    71447.387    16694.142     5910.238       10.992        4.703      354.681       85.244        0.058      334.888        5.156      863.430
01/04/2021  22:26:00     -377.072       63.159      -23.992      215.751      181.243       90.431    46548.330    32849.000     8177.832       11.714        4.379      382.325       99.668        0.068      334.866        5.118      863.429
01/04/2021  22:27:00     -481.224       13.372      -12.624      330.153      188.010      116.865   109001.077    35347.884    13657.544       19.493        7.900      481.410      136.623        0.081      334.929        5.222      863.405
01/04/2021  22:28:00     -357.932       85.528       13.325      190.936      127.168       75.645    36456.402    16171.712     5722.173        9.697        2.918      368.009       75.456        0.042      334.865        5.116      863.412
01/04/2021  22:29:00     -449.584      132.577       -1.667      212.353      130.585       80.110    45093.716    17052.473     6417.577       14.412        3.428      468.724       75.263        0.026      334.870        5.125      863.412
01/04/2021  22:30:00     -462.926       56.916       -9.698      271.643      145.340       92.417    73789.687    21123.832     8540.965       16.052        5.173      466.411      103.864        0.050      334.896        5.169      863.403
01/04/2021  22:31:00     -317.514       31.432       23.442      235.290      142.791       92.852    55361.355    20389.279     8621.417        9.334        4.219      319.066      105.024        0.108      334.845        5.084      863.417
01/04/2021  22:32:00     -292.708       66.266       -4.789      187.465      142.385       81.809    35143.193    20273.424     6692.690        7.609        3.105      300.115       89.120        0.088      334.846        5.086      863.423
01/04/2021  22:33:00     -188.664       29.580        5.434      261.330      127.175       86.204    68293.501    16173.603     7431.206        6.418        4.595      190.969       67.899        0.126      334.794        5.001      863.440
01/04/2021  22:34:00     -272.482       68.711       -8.563      218.148      165.786       91.559    47588.634    27485.124     8383.026        8.123        4.173      281.012       77.074        0.075      334.788        4.988      863.434
01/04/2021  22:35:00     -232.033       44.546       -6.805      241.997      130.963       85.991    58562.561    17151.320     7394.514        6.947        4.155      236.271       68.008        0.083      334.798        5.006      863.455
01/04/2021  22:36:00     -273.355       15.141      -17.878      189.892      120.724       61.937    36058.969    14574.303     3836.204        6.486        2.723      273.774       49.345        0.032      334.778        4.972      863.475
01/04/2021  22:37:00     -523.965      181.722       -4.965      206.831      166.736       92.447    42778.954    27801.045     8546.513       19.334        3.956      554.582       82.283        0.022      334.801        5.009      863.482
01/04/2021  22:38:00     -495.214       98.866      -13.333      235.948      160.145       97.666    55671.565    25646.397     9538.686       17.300        4.543      504.987      104.658        0.043      334.832        5.061      863.507
01/04/2021  22:39:00     -299.102       30.763        0.770      185.696      151.227       88.562    34483.014    22869.676     7843.222        7.779        3.260      300.680       87.139        0.084      334.796        5.002      863.493
01/04/2021  22:40:00     -321.719       38.266        6.112      221.668      155.408       92.693    49136.831    24151.552     8591.910        9.342        4.094      323.986       99.830        0.095      334.786        4.986      863.469
01/04/2021  22:41:00     -386.085      117.558       -2.139      278.985      202.388      103.835    77832.474    40960.980    10781.727       14.620        6.479      403.586      111.265        0.076      334.825        5.050      863.455
01/04/2021  22:42:00     -237.246       34.619        2.137      271.775      138.044       99.428    73861.922    19056.080     9885.946        8.012        5.140      239.759      108.555        0.205      334.827        5.054      863.467
01/04/2021  22:43:00     -390.534      129.204      -14.644      235.501      199.163       94.985    55460.690    39666.061     9022.056       13.676        5.207      411.352       89.690        0.048      334.835        5.067      863.464
01/04/2021  22:44:00     -347.827       42.216      -10.875      164.799       90.043       61.782    27158.872     8107.811     3816.978        8.098        1.954      350.379       63.175        0.033      334.780        4.975      863.494
01/04/2021  22:45:00     -446.934       82.695       -5.693      180.822      123.369       75.709    32696.717    15219.876     5731.841       13.012        2.682      454.520       60.206        0.018      334.781        4.977      863.508
01/04/2021  22:46:00     -190.207      -16.391       12.855      243.933      130.182       83.695    59503.303    16947.335     7004.821        6.002        4.173      190.912       83.465        0.191      334.784        4.984      863.544
01/04/2021  22:47:00     -346.515       61.590       -8.972      233.082      148.990       91.546    54327.085    22198.006     8380.722       10.441        4.245      351.946       87.314        0.062      334.768        4.956      863.524
01/04/2021  22:48:00     -380.425       73.846       -3.095      217.068      139.036       85.977    47118.484    19331.079     7392.088       11.200        3.692      387.526       86.088        0.049      334.799        5.007      863.567
01/04/2021  22:49:00     -367.870       39.681      -32.169      211.757      180.716       81.548    44841.137    32658.298     6650.063       11.103        4.207      370.004       62.711        0.029      334.810        5.026      863.580
01/04/2021  22:50:00     -596.839      121.655       17.302      228.697      148.751       92.773    52302.521    22126.955     8606.843       22.716        4.152      609.112       87.720        0.021      334.829        5.057      863.566
01/04/2021  22:51:00     -194.536      -11.185       20.797      214.869      131.823       92.664    46168.826    17377.213     8586.647        5.525        3.607      194.858       93.872        0.232      334.766        4.954      863.623
01/04/2021  22:52:00     -381.384       10.192      -17.327      213.561      167.747       78.395    45608.176    28139.170     6145.764       11.286        3.995      381.520       75.079        0.039      334.844        5.081      863.641
01/04/2021  22:53:00     -159.232       -6.643        5.310      173.687      135.557       77.217    30167.020    18375.588     5962.447        3.995        2.725      159.371       62.903        0.156      334.860        5.109      863.659
01/04/2021  22:54:00     -270.802     -103.343      -25.222      173.854      110.573       69.335    30225.064    12226.310     4807.276        6.594        2.363      289.851       74.804        0.067      334.856        5.102      863.708
01/04/2021  22:55:00     -281.162      -63.220       -7.431      181.304      160.509       90.986    32871.116    25763.042     8278.381        7.499        3.346      288.182       98.102        0.116      334.839        5.074      863.753
01/04/2021  22:56:00     -301.204       -9.981       -0.209      176.105      102.124       68.635    31012.972    10429.302     4710.726        6.848        2.308      301.370       67.333        0.050      334.836        5.069      863.741
01/04/2021  22:57:00     -129.406      -76.428      -16.654       88.456      103.994       47.111     7824.411    10814.743     2219.440        2.186        1.043      150.290       24.413        0.026      334.862        5.113      863.754
01/04/2021  22:58:00     -114.792     -169.103      -18.305       83.464      109.485       64.110     6966.197    11986.987     4110.043        3.258        1.153      204.384       43.136        0.045      334.963        5.280      863.717
01/04/2021  22:59:00      -91.640      -34.988       -7.488       89.475       67.745       39.684     8005.712     4589.349     1574.855        1.192        0.708       98.092       31.566        0.104      334.783        4.984      863.744
01/04/2021  23:00:00     -131.634     -119.349      -15.074       96.152      114.437       48.803     9245.133    13095.775     2381.767        2.826        1.236      177.685       52.591        0.088      334.821        5.044      863.778
01/04/2021  23:01:00     -110.832      -88.637      -19.376       71.989       66.337       37.371     5182.482     4400.577     1396.602        1.575        0.549      141.917       28.409        0.040      334.794        4.999      863.809
01/04/2021  23:02:00      -52.190     -119.368      -32.467       73.264       48.468       22.014     5367.652     2349.156      484.603        1.311        0.410      130.278       26.362        0.041      334.795        5.003      863.835
01/04/2021  23:03:00       -8.559       -3.632      -20.242       74.187       23.428       26.066     5503.650      548.884      679.415        0.361        0.337        9.298       29.367        9.976      334.766        4.954      863.885
01/04/2021  23:04:00      -75.768        0.914      -12.884       47.604       23.363       20.049     2266.129      545.835      401.949        0.456        0.161       75.773       13.322        0.031      334.705        4.855      863.923
01/04/2021  23:05:00     -121.880      -31.212       -9.846       54.801       32.371       26.939     3003.132     1047.855      725.717        1.035        0.239      125.813        9.311        0.005      334.685        4.819      863.952
01/04/2021  23:06:00      -28.856      -21.359       -8.844       45.706       30.647       23.832     2089.030      939.264      567.953        0.248        0.180       35.900       23.724        0.437      334.713        4.866      863.971
01/04/2021  23:07:00      -28.165      -10.308      -13.157       46.915       22.848       22.407     2201.002      522.041      502.074        0.215        0.161       29.992       23.893        0.635      334.690        4.829      864.001
01/04/2021  23:08:00       -7.269      -15.709      -11.945       49.481       22.482       22.871     2448.367      505.444      523.093        0.196        0.174       17.309       27.547        2.533      334.681        4.814      864.010
01/04/2021  23:09:00      -34.745      -56.122      -21.632       56.540       23.482       25.615     3196.792      551.400      656.138        0.461        0.220       66.007       32.237        0.239      334.764        4.952      864.028
01/04/2021  23:10:00      -31.429      -17.523        8.356       40.313       21.312       26.608     1625.170      454.199      707.971        0.208        0.139       35.984       12.357        0.118      334.717        4.875      864.067
01/04/2021  23:11:00        0.073      -33.706       -5.118       59.106       33.296       27.326     3493.497     1108.598      746.683        0.325        0.267       33.706       25.655        0.579      334.622        4.715      864.098
01/04/2021  23:12:00       91.355       -5.295      -27.859       63.566       61.937       34.197     4040.671     3836.162     1169.446        0.910        0.452       91.508       34.986        0.146      334.742        4.915      864.119
01/04/2021  23:13:00      156.417       80.229      -15.085       74.151       59.887       38.103     5498.313     3586.488     1451.874        2.083        0.527      175.793       42.474        0.058      334.832        5.063      864.138
01/04/2021  23:14:00      120.500       39.499      -17.687       61.408       27.697       32.182     3770.926      767.125     1035.669        1.098        0.279      126.809       38.162        0.091      334.770        4.962      864.138
01/04/2021  23:15:00       54.358       -7.539       -7.872       42.652       19.546       19.878     1819.190      382.035      395.142        0.283        0.130       54.879       26.038        0.225      334.717        4.875      864.141
01/04/2021  23:16:00       94.697       28.598      -13.655       51.167       36.731       28.278     2618.061     1349.159      799.668        0.737        0.238       98.921       27.063        0.075      334.662        4.783      864.142
01/04/2021  23:17:00      127.765       27.400      -15.740       89.392       41.884       34.214     7990.890     1754.267     1170.595        1.412        0.546      130.670       34.933        0.071      334.610        4.695      864.136
01/04/2021  23:18:00      152.211       33.584      -21.229       85.211       47.720       40.749     7260.986     2277.152     1660.470        1.797        0.560      155.872       48.193        0.096      334.656        4.771      864.128
01/04/2021  23:19:00      105.920       32.757      -16.113       91.985       63.248       32.938     8461.151     4000.258     1084.930        1.305        0.677      110.869       43.360        0.153      334.761        4.946      864.144
01/04/2021  23:20:00       59.064       35.236      -11.758       43.479       20.628       23.913     1890.435      425.498      571.840        0.388        0.144       68.775       28.589        0.173      334.788        4.992      864.158
01/04/2021  23:21:00       92.274       41.141      -15.049       57.505       22.830       25.388     3306.770      521.189      644.552        0.745        0.224      101.030       26.166        0.067      334.748        4.925      864.148
01/04/2021  23:22:00       81.384        9.278       -9.308       64.408       40.099       36.885     4148.426     1607.914     1360.491        0.695        0.356       81.911       40.883        0.249      334.799        5.010      864.121
01/04/2021  23:23:00       52.155        4.621      -13.576       57.475       33.820       31.268     3303.425     1143.769      977.668        0.417        0.271       52.359       32.514        0.386      334.723        4.883      864.108
01/04/2021  23:24:00       -7.968       -0.846      -11.700       46.748       12.581       23.261     2185.394      158.292      541.077        0.154        0.144        8.013       28.960       13.064      334.659        4.778      864.136
01/04/2021  23:25:00       34.014       37.687       -5.230       47.706       21.267       18.244     2275.877      452.297      332.840        0.283        0.153       50.767       24.047        0.224      334.685        4.821      864.163
01/04/2021  23:26:00       93.340       35.483      -14.886       53.454       24.649       26.769     2857.316      607.562      716.576        0.719        0.209       99.857       34.096        0.117      334.757        4.941      864.171
01/04/2021  23:27:00       70.738       67.946       -9.956       49.631       16.029       23.289     2463.190      256.918      542.392        0.649        0.163       98.085       29.742        0.092      334.773        4.966      864.149
01/04/2021  23:28:00      -41.799       63.421       -5.661       30.789       34.553       15.710      947.989     1193.903      246.793        0.409        0.119       75.957       10.911        0.021      334.707        4.857      864.131
01/04/2021  23:29:00      -90.010       19.020        5.800       75.854       56.557       32.230     5753.893     3198.681     1038.794        0.924        0.500       91.997       26.202        0.081      334.663        4.785      864.098
01/04/2021  23:30:00     -124.246        9.756        3.405       77.080       59.745       35.056     5941.336     3569.408     1228.927        1.314        0.537      124.629       24.900        0.040      334.665        4.786      864.115
01/04/2021  23:31:00      -24.687      -40.762       -8.396       61.156       37.332       28.580     3740.051     1393.660      816.843        0.414        0.298       47.655       24.842        0.272      334.800        5.012      864.142
01/04/2021  23:32:00      -95.517       20.949      -18.079       52.501       21.726       20.954     2756.361      472.000      439.091        0.678        0.183       97.787       21.501        0.048      334.922        5.215      864.142
01/04/2021  23:33:00     -100.102       25.720      -12.775       33.445       17.576       16.026     1118.581      308.913      256.842        0.626        0.084      103.353       12.510        0.015      334.903        5.182      864.164
01/04/2021  23:34:00     -113.301       -4.657      -13.989       59.704       28.235       26.705     3564.625      797.191      713.177        0.906        0.254      113.397       13.443        0.014      334.894        5.167      864.208
01/04/2021  23:35:00      -60.917       21.587       -0.378       60.574       24.672       28.214     3669.250      608.726      796.041        0.462        0.254       64.629       21.596        0.112      334.745        4.920      864.243
01/04/2021  23:36:00      -60.548        9.448       -7.555       53.145       60.639       26.672     2824.404     3677.028      711.373        0.551        0.361       61.281       20.756        0.115      334.687        4.824      864.261
01/04/2021  23:37:00      -63.831      -16.970       -7.017       54.950       29.852       27.400     3019.452      891.142      750.742        0.454        0.233       66.048       14.446        0.048      334.598        4.677      864.230
01/04/2021  23:38:00     -168.149      -11.416      -11.583       44.981       50.938       30.129     2023.285     2594.699      907.748        1.703        0.276      168.536       16.701        0.010      334.667        4.791      864.250
01/04/2021  23:39:00      -98.393       24.931       -5.301       78.114       42.135       27.442     6101.796     1775.368      753.062        0.948        0.432      101.503       21.633        0.045      334.554        4.601      864.263
01/04/2021  23:40:00     -111.136      -18.052       -1.998       97.371       71.207       44.125     9481.115     5070.495     1947.025        1.459        0.825      112.593       44.308        0.155      334.550        4.595      864.261
01/04/2021  23:41:00      -13.761       -7.013       -6.412       69.734       32.363       32.329     4862.848     1047.335     1045.152        0.362        0.348       15.445       29.592        3.671      334.519        4.544      864.241
01/04/2021  23:42:00     -117.129      -62.378      -19.054      112.219       77.046       52.573    12593.048     5936.076     2763.963        1.963        1.065      132.703       26.801        0.041      334.567        4.624      864.222
01/04/2021  23:43:00     -134.197       19.223      -19.022       84.871       44.011       39.458     7203.064     1936.976     1556.949        1.472        0.535      135.566       40.077        0.087      334.545        4.585      864.188
01/04/2021  23:44:00     -222.939       63.896        8.034      183.732       79.138       68.131    33757.511     6262.886     4641.883        4.925        2.233      231.915       71.739        0.096      334.491        4.496      864.167
01/04/2021  23:45:00     -316.132      -28.778      -13.887      233.482      113.704       68.247    54513.712    12928.648     4657.691        8.651        3.605      317.440       72.897        0.053      334.601        4.678      864.172
01/04/2021  23:46:00     -156.235      -22.236       -8.562      141.354       92.496       55.860    19980.852     8555.499     3120.291        2.831        1.583      157.810       59.193        0.141      334.546        4.589      864.171
01/04/2021  23:47:00     -205.784       26.094      -12.073      198.710      113.492       64.133    39485.740    12880.326     4113.100        4.981        2.824      207.431       61.365        0.088      334.560        4.610      864.157
01/04/2021  23:48:00     -392.340       77.683       20.118      200.607      140.779       97.636    40243.136    19818.607     9532.781       11.497        3.480      399.957       99.192        0.062      334.561        4.611      864.137
01/04/2021  23:49:00     -340.540       96.965       -3.988      210.446      103.374       88.521    44287.343    10686.088     7835.982        9.408        3.140      354.076      104.184        0.087      334.554        4.599      864.132
01/04/2021  23:50:00     -313.333       59.114        2.286      172.926      127.510       72.276    29903.337    16258.830     5223.751        7.652        2.569      318.861       74.441        0.055      334.517        4.538      864.128
01/04/2021  23:51:00     -406.501       38.289       -1.113      203.605      159.756       87.673    41454.905    25522.139     7686.541       12.067        3.733      408.301       86.231        0.045      334.577        4.637      864.132
01/04/2021  23:52:00     -301.474       -0.786      -26.622      291.895      149.377       80.102    85202.446    22313.397     6416.330       10.274        5.697      301.475       95.896        0.101      334.564        4.615      864.165
01/04/2021  23:53:00     -273.984       67.380        0.399      175.068      122.196       62.915    30648.641    14931.973     3958.283        6.456        2.477      282.148       68.925        0.060      334.509        4.526      864.203
01/04/2021  23:54:00     -192.082       17.863        6.145      166.482      121.207       75.183    27716.295    14691.168     5652.519        4.265        2.403      192.911       80.717        0.175      334.523        4.549      864.191
01/04/2021  23:55:00     -231.923       21.163      -26.858      230.696      110.255       74.641    53220.582    12156.188     5571.344        6.294        3.547      232.886       79.375        0.116      334.547        4.589      864.207
01/04/2021  23:56:00     -225.297       15.369        7.565      132.030      135.875       71.262    17431.901    18461.946     5078.252        4.600        2.049      225.821       75.035        0.110      334.544        4.583      864.204
01/04/2021  23:57:00     -301.614       30.078        4.820      199.687      170.371       82.605    39875.030    29026.175     6823.645        8.380        3.786      303.110       87.331        0.083      334.538        4.573      864.186
01/04/2021  23:58:00     -269.112      -13.868      -19.207      157.592      124.420       70.467    24835.116    15480.445     4965.658        5.912        2.264      269.469       66.534        0.061      334.581        4.644      864.212
01/04/2021  23:59:00     -141.770      -23.691       10.375      165.903      120.130       72.536    27523.879    14431.245     5261.411        3.398        2.361      143.736       54.302        0.143      334.536        4.572      864.235
01/05/2021  00:00:00     -334.267       -5.977      -15.069      149.767      126.465       74.593    22430.237    15993.343     5564.172        7.798        2.199      334.321       65.942        0.039      334.564        4.615      864.255
01/05/2021  00:01:00     -170.575      -34.733        2.353      180.761      143.301       85.115    32674.708    20535.307     7244.532        4.537        3.023      174.075       89.334        0.263      334.508        4.526      864.284
01/05/2021  00:02:00     -303.756      -63.901      -11.121      225.734      110.137       82.661    50955.768    12130.107     6832.810        8.318        3.496      310.405       88.819        0.082      334.521        4.545      864.299
01/05/2021  00:03:00     -276.554       -3.108        2.763      129.026       99.588       70.530    16647.655     9917.853     4974.502        5.401        1.577      276.571       73.354        0.070      334.442        4.416      864.334
01/05/2021  00:04:00     -349.784      -22.496      -25.125      130.898       92.648       64.245    17134.348     8583.629     4127.478        7.666        1.492      350.506       56.607        0.026      334.452        4.429      864.364
01/05/2021  00:05:00     -207.757      -14.491      -15.806      109.656       89.484       48.941    12024.428     8007.344     2395.213        3.302        1.121      208.262       41.583        0.040      334.455        4.436      864.392
01/05/2021  00:06:00     -187.435      -43.327      -12.034       98.002       84.814       39.151     9604.443     7193.383     1532.832        2.774        0.917      192.378       35.878        0.035      334.456        4.439      864.421
01/05/2021  00:07:00     -179.816      -14.281      -15.993      204.992       87.029       52.793    42021.634     7574.090     2787.072        4.258        2.619      180.382       49.954        0.077      334.471        4.463      864.438
01/05/2021  00:08:00     -287.398      -18.870        3.582      151.368       80.617       61.044    22912.273     6499.146     3726.427        5.805        1.657      288.017       58.707        0.042      334.420        4.378      864.462
01/05/2021  00:09:00     -101.567      -18.539       -7.414       63.208       45.195       33.370     3995.277     2042.593     1113.589        0.893        0.358      103.245       22.490        0.047      334.389        4.331      864.473
01/05/2021  00:10:00      -96.706      -21.874       -9.380       77.023       74.515       39.752     5932.485     5552.431     1580.184        1.149        0.653       99.149       39.229        0.157      334.456        4.440      864.454
01/05/2021  00:11:00      -86.895      -35.057       -7.235       76.343       64.452       36.440     5828.199     4154.087     1327.863        1.007        0.566       93.700       33.755        0.130      334.435        4.406      864.430
01/05/2021  00:12:00     -155.816      -26.224      -12.110       64.197       76.568       40.237     4121.220     5862.702     1619.024        1.836        0.580      158.007       31.988        0.041      334.479        4.478      864.407
01/05/2021  00:13:00     -126.369      -93.689      -16.812       64.402       47.345       30.270     4147.635     2241.593      916.286        1.617        0.365      157.311       29.470        0.035      334.527        4.558      864.389
01/05/2021  00:14:00     -111.930      -79.493      -11.481       61.924       84.419       28.504     3834.528     7126.551      812.492        1.537        0.589      137.286       17.519        0.016      334.521        4.546      864.371
01/05/2021  00:15:00      -92.086       -9.025        4.438       71.194       47.185       30.368     5068.540     2226.452      922.238        0.840        0.411       92.527       17.781        0.037      334.442        4.418      864.439
01/05/2021  00:16:00      -59.396      -10.820       -2.851       92.387       36.704       36.595     8535.365     1347.204     1339.209        0.743        0.561       60.373       23.010        0.145      334.336        4.243      864.492
01/05/2021  00:17:00       17.254      -19.444      -19.938       59.640       47.540       27.580     3556.880     2260.045      760.664        0.382        0.329       25.995       24.575        0.894      334.376        4.310      864.435
01/05/2021  00:18:00      -30.145      -36.812      -15.657       52.532       50.553       28.174     2759.575     2555.572      793.769        0.431        0.305       47.580       26.852        0.319      334.618        4.711      864.442
01/05/2021  00:19:00       -4.484       14.990       -8.360       36.903       21.257       21.114     1361.805      451.859      445.790        0.129        0.113       15.646       23.110        2.182      334.448        4.429      864.440
01/05/2021  00:20:00       61.545       32.755      -12.615       56.496       52.876       25.349     3191.765     2795.859      642.557        0.582        0.332       69.718       31.345        0.202      334.410        4.364      864.418
01/05/2021  00:21:00      -22.810      -43.653      -16.437       51.851       54.872       34.756     2688.491     3010.893     1207.965        0.480        0.345       49.253       32.616        0.439      334.509        4.529      864.439
01/05/2021  00:22:00       -7.624       -0.097        5.158       43.913       29.427       22.513     1928.353      865.939      506.835        0.169        0.165        7.625       21.816        8.186      334.450        4.431      864.459
01/05/2021  00:23:00      -24.909      -74.834      -14.681       64.654       53.122       32.141     4180.204     2821.967     1033.041        0.723        0.402       78.871       28.220        0.128      334.526        4.555      864.488
01/05/2021  00:24:00     -131.004      -48.242      -20.762      119.913       77.501       48.166    14379.229     6006.365     2319.949        2.131        1.135      139.604       23.403        0.028      334.510        4.528      864.447
01/05/2021  00:25:00     -126.007      -80.086      -36.720       61.965       89.336       39.572     3839.640     7980.841     1565.920        1.851        0.669      149.304       21.584        0.021      334.621        4.713      864.415
01/05/2021  00:26:00      -42.675       90.371       -5.090       62.244       50.034       37.120     3874.310     2503.391     1377.931        0.888        0.388       99.940       24.692        0.061      334.528        4.559      864.451
01/05/2021  00:27:00       -6.585     -108.782      -46.297      101.532       79.707       36.420    10308.847     6353.180     1326.394        1.600        0.899      108.981       36.996        0.115      334.508        4.526      864.458
01/05/2021  00:28:00       86.792     -124.776      -28.615       47.578       33.399       27.583     2263.635     1115.511      760.800        1.403        0.207      151.993       30.244        0.040      334.585        4.654      864.543
01/05/2021  00:29:00      106.513     -116.505      -39.579       60.006       45.438       25.777     3600.670     2064.636      664.472        1.641        0.316      157.856       34.215        0.047      334.548        4.592      864.581
01/05/2021  00:30:00      100.862      -32.628      -34.643       61.926       56.144       36.545     3834.833     3152.181     1335.519        1.038        0.416      106.008       33.622        0.101      334.609        4.693      864.590
01/05/2021  00:31:00       41.755       -4.157      -10.613       65.100       43.154       35.345     4238.003     1862.310     1249.298        0.461        0.367       41.962       42.116        1.007      334.618        4.709      864.629
01/05/2021  00:32:00      -16.258       -1.307       -6.208       44.909       28.298       18.246     2016.862      800.802      332.910        0.173        0.158       16.311       16.268        0.995      334.383        4.321      864.686
01/05/2021  00:33:00      -91.781        6.965       -1.428       74.557       81.228       34.209     5558.784     6597.983     1170.238        1.090        0.666       92.045       34.002        0.136      334.200        4.015      864.737
01/05/2021  00:34:00      -64.790     -143.736      -14.765       65.105       95.059       31.860     4238.678     9036.265     1015.055        1.968        0.714      157.664       26.870        0.029      334.458        4.443      864.739
01/05/2021  00:35:00     -158.562       12.377      -27.668      115.340      111.375       48.581    13303.380    12404.287     2360.126        2.706        1.403      159.044       37.553        0.056      334.207        4.024      864.726
01/05/2021  00:36:00     -187.762       51.479       25.999      128.395       98.016       54.281    16485.356     9607.090     2946.437        3.380        1.452      194.692       52.440        0.073      334.030        3.731      864.713
01/05/2021  00:37:00     -139.799       11.653       -1.041       84.968       57.801       44.189     7219.593     3341.006     1952.657        1.609        0.626      140.283       29.349        0.044      333.947        3.596      864.679
01/05/2021  00:38:00      -66.800       -8.598       -0.019       84.292       54.939       32.431     7105.174     3018.277     1051.802        0.785        0.559       67.351       26.747        0.158      333.992        3.671      864.654
01/05/2021  00:39:00      -85.903      -38.948      -11.455       73.801       55.388       37.780     5446.567     3067.788     1427.363        0.948        0.497       94.320       19.211        0.041      334.055        3.775      864.652
01/05/2021  00:40:00     -113.886      -97.023      -17.684       85.691       75.216       32.688     7342.999     5657.468     1068.479        1.838        0.703      149.611       11.525        0.006      334.135        3.906      864.659
01/05/2021  00:41:00     -140.946      -30.839      -18.849       71.209       51.876       31.817     5070.678     2691.108     1012.324        1.497        0.439      144.280       21.858        0.023      334.032        3.737      864.692
01/05/2021  00:42:00     -122.931        2.895       -7.703       78.920       39.261       28.920     6228.329     1541.445      836.394        1.189        0.430      122.965        9.573        0.006      333.914        3.541      864.701
01/05/2021  00:43:00      -94.193      -15.945        6.166       82.828       67.998       48.604     6860.503     4623.749     2362.370        1.150        0.692       95.533       39.931        0.175      333.921        3.552      864.690
01/05/2021  00:44:00     -150.105      -12.563       -4.198       79.788       72.762       45.690     6366.188     5294.360     2087.549        1.822        0.687      150.629       34.176        0.051      333.964        3.622      864.683
01/05/2021  00:45:00     -285.427      -54.638       -5.087      106.544       80.358       54.277    11351.715     6457.383     2946.033        5.261        1.038      290.610       50.098        0.030      334.266        4.123      864.681
01/05/2021  00:46:00     -193.524      -49.314       -5.724      102.367       69.324       51.769    10479.054     4805.748     2680.045        2.894        0.898      199.708       51.494        0.066      334.171        3.965      864.672
01/05/2021  00:47:00     -172.847      -55.256       -8.620       97.440       69.016       50.229     9494.553     4763.158     2522.925        2.489        0.839      181.464       40.364        0.049      334.128        3.893      864.680
01/05/2021  00:48:00     -254.095      -29.826      -10.002      104.883       71.426       49.969    11000.386     5101.690     2496.913        4.207        0.930      255.840       45.741        0.032      334.189        3.993      864.685
01/05/2021  00:49:00     -172.322       -2.546        8.913      109.295       86.895       56.940    11945.405     7550.705     3242.155        2.625        1.137      172.341       53.048        0.095      334.212        4.034      864.675
01/05/2021  00:50:00     -228.380      -38.596       -8.442      119.934       53.730       44.881    14384.237     2886.887     2014.326        3.650        0.964      231.619       47.532        0.042      334.191        3.998      864.678
01/05/2021  00:51:00     -179.280      -31.797      -11.742      106.330       77.056       38.443    11305.994     5937.584     1477.850        2.600        0.936      182.078       33.892        0.035      334.152        3.934      864.684
01/05/2021  00:52:00     -166.661       11.417        9.153      135.667       68.291       47.517    18405.509     4663.607     2257.865        2.665        1.266      167.051       36.796        0.049      334.062        3.785      864.679
01/05/2021  00:53:00     -131.184      -61.425       -7.263       92.445       71.854       43.094     8546.148     5162.959     1857.100        1.830        0.778      144.853       45.046        0.097      334.065        3.790      864.690
01/05/2021  00:54:00     -188.886       -2.120      -10.380       97.872       80.893       54.592     9578.911     6543.758     2980.271        2.744        0.955      188.898       51.854        0.075      333.955        3.608      864.695
01/05/2021  00:55:00     -391.599       23.899      -13.090      154.852      100.158       54.374    23979.219    10031.556     2956.538        9.552        1.848      392.328       68.169        0.030      334.112        3.867      864.687
01/05/2021  00:56:00     -139.129      -75.708       -8.132      117.744       89.882       51.526    13863.693     8078.719     2654.884        2.487        1.230      158.394       38.567        0.059      334.271        4.132      864.704
01/05/2021  00:57:00     -151.202      -86.130       -7.918       83.956       92.018       45.887     7048.572     8467.319     2105.611        2.398        0.881      174.012       39.989        0.053      334.167        3.958      864.686
01/05/2021  00:58:00     -128.543      -88.429      -10.357      102.339       72.914       37.314    10473.222     5316.381     1392.344        2.081        0.859      156.022       36.458        0.055      334.304        4.186      864.686
01/05/2021  00:59:00      -57.370      -71.410       -6.220       53.127       62.536       35.184     2822.530     3910.747     1237.925        0.820        0.399       91.600       26.812        0.086      334.128        3.896      864.715
01/05/2021  01:00:00      -27.953      -58.842      -11.171       76.832       56.504       41.447     5903.081     3192.743     1717.825        0.759        0.541       65.144       22.745        0.122      333.900        3.517      864.764
01/05/2021  01:01:00     -103.829      -31.638       -7.464       79.280       73.886       40.559     6285.257     5459.107     1645.068        1.261        0.669      108.542       30.123        0.077      333.651        3.106      864.788
01/05/2021  01:02:00     -126.568      -23.369       -1.955       88.791       70.631       38.774     7883.909     4988.798     1503.393        1.547        0.719      128.707       22.504        0.031      333.624        3.060      864.794
01/05/2021  01:03:00     -136.217      -24.993      -12.782       72.061       47.286       37.914     5192.847     2235.953     1437.462        1.410        0.443      138.491       15.488        0.013      333.634        3.079      864.795
01/05/2021  01:04:00     -198.955      -27.557      -20.486       69.202       66.740       41.224     4788.971     4454.250     1699.458        2.585        0.547      200.854       31.607        0.025      333.590        3.003      864.794
01/05/2021  01:05:00     -135.779      -51.122      -18.041       52.466       48.718       33.465     2752.667     2373.461     1119.904        1.381        0.312      145.084       16.697        0.013      333.612        3.039      864.795
01/05/2021  01:06:00     -106.000      -44.866      -15.394       66.587       51.591       30.222     4433.781     2661.604      913.345        1.075        0.400      115.105       21.616        0.035      333.617        3.048      864.783
01/05/2021  01:07:00     -147.928      -21.618      -13.160       70.090       42.332       32.823     4912.655     1791.972     1077.371        1.515        0.389      149.499       28.310        0.036      333.541        2.922      864.763
01/05/2021  01:08:00     -203.405      -32.768       -2.195       99.550       62.237       44.414     9910.234     3873.450     1972.584        2.910        0.788      206.027       46.998        0.052      333.545        2.928      864.749
01/05/2021  01:09:00     -197.417      -21.592      -12.340      101.173       84.020       43.809    10235.974     7059.340     1919.218        2.940        0.961      198.595       32.803        0.027      333.531        2.903      864.733
01/05/2021  01:10:00     -213.149       -2.354        2.084       83.856       61.872       42.724     7031.866     3828.151     1825.360        2.906        0.634      213.162       31.579        0.022      333.517        2.882      864.721
01/05/2021  01:11:00     -162.014        5.077        8.039      111.885       74.116       49.849    12518.352     5493.182     2484.937        2.341        1.025      162.094       44.913        0.077      333.495        2.845      864.709
01/05/2021  01:12:00     -291.617       -9.962        0.044       89.709       53.977       44.877     8047.775     2913.467     2013.966        4.905        0.649      291.787       39.874        0.019      333.454        2.776      864.703
01/05/2021  01:13:00     -229.024        6.853      -13.853       81.327       52.828       32.992     6614.040     2790.796     1088.452        3.159        0.525      229.127       19.109        0.007      333.416        2.715      864.711
01/05/2021  01:14:00     -168.920      -10.712       -8.810      121.048       54.235       36.814    14652.585     2941.416     1355.297        2.383        0.947      169.260       20.736        0.015      333.420        2.721      864.709
01/05/2021  01:15:00     -199.788      -44.952        6.343      109.273       58.743       47.611    11940.493     3450.763     2266.783        2.981        0.883      204.783       32.649        0.025      333.550        2.936      864.691
01/05/2021  01:16:00     -255.792      -17.275       -7.260      109.629       75.640       45.602    12018.538     5721.344     2079.579        4.280        0.991      256.374       49.278        0.037      333.543        2.922      864.654
01/05/2021  01:17:00     -162.646      -37.214       -4.826      107.809       67.437       41.872    11622.758     4547.739     1753.285        2.289        0.896      166.849       40.418        0.059      333.515        2.879      864.624
01/05/2021  01:18:00     -146.736      -15.051       -8.530       73.512       53.519       40.888     5403.958     2864.317     1671.848        1.588        0.497      147.506       28.188        0.037      333.525        2.895      864.594
01/05/2021  01:19:00     -204.588       31.865       -4.543       85.748       54.688       30.540     7352.779     2990.728      932.671        2.708        0.564      207.055       29.608        0.020      333.451        2.772      864.563
01/05/2021  01:20:00     -194.244       17.873      -11.394       78.113       69.887       42.585     6101.602     4884.210     1813.482        2.549        0.640      195.065       36.588        0.035      333.403        2.691      864.556
01/05/2021  01:21:00     -130.046        8.268        8.682      112.871       69.850       52.919    12739.765     4879.076     2800.394        1.873        1.021      130.309       39.139        0.090      333.388        2.669      864.568
01/05/2021  01:22:00     -297.669       38.107       -2.218      110.748      100.265       53.366    12265.140    10053.127     2847.908        5.761        1.258      300.099       48.218        0.026      333.508        2.865      864.596
01/05/2021  01:23:00     -215.827       -7.126      -20.416       68.531       57.923       39.914     4696.557     3355.104     1593.101        2.834        0.482      215.945       29.439        0.019      333.528        2.899      864.613
01/05/2021  01:24:00     -180.776      -50.269       -1.591       91.251       64.527       50.025     8326.781     4163.762     2502.499        2.510        0.750      187.635       44.441        0.056      333.628        3.066      864.624
01/05/2021  01:25:00     -115.943      -37.677       -5.552       80.350       51.137       39.161     6456.056     2615.010     1533.616        1.275        0.530      121.911       36.461        0.089      333.663        3.125      864.649
01/05/2021  01:26:00      -60.457      -43.418       -7.002       87.174       57.944       40.411     7599.267     3357.552     1633.020        0.909        0.629       74.432       27.932        0.141      333.662        3.124      864.685
01/05/2021  01:27:00      -78.393      -60.385      -11.974       63.039       56.099       27.355     3973.886     3147.086      748.273        0.890        0.393       98.954       27.480        0.077      333.564        2.961      864.720
01/05/2021  01:28:00     -215.914      -68.308      -12.776      108.616       68.392       41.281    11797.519     4677.528     1704.085        3.481        0.909      226.462       21.887        0.009      333.503        2.858      864.737
01/05/2021  01:29:00     -191.263        6.508        4.141       91.988       55.599       42.962     8461.728     3091.235     1845.716        2.502        0.670      191.374       39.700        0.043      333.432        2.739      864.769
01/05/2021  01:30:00     -178.975      -47.421       -8.497       87.773       67.034       44.887     7704.045     4493.578     2014.884        2.428        0.711      185.150       33.674        0.033      333.421        2.721      864.787
01/05/2021  01:31:00     -212.242      -14.400       -1.742      108.733       60.621       58.283    11822.884     3674.885     3396.930        3.207        0.945      212.730       55.540        0.068      333.370        2.638      864.793
01/05/2021  01:32:00     -220.795      -28.093        0.308      139.998       79.652       65.209    19599.347     6344.444     4252.224        3.986        1.510      222.575       69.373        0.097      333.424        2.728      864.809
01/05/2021  01:33:00     -179.051      -39.049       -3.780      112.947       70.116       47.305    12756.967     4916.280     2237.739        2.675        0.996      183.259       36.256        0.039      333.422        2.724      864.806
01/05/2021  01:34:00     -244.121        5.160      -14.913       84.493       67.872       39.489     7139.116     4606.611     1559.386        3.657        0.665      244.176       34.893        0.020      333.377        2.648      864.812
01/05/2021  01:35:00     -225.473      -21.643       -5.828       85.116       67.683       45.157     7244.783     4580.930     2039.149        3.260        0.693      226.509       40.815        0.032      333.401        2.687      864.825
01/05/2021  01:36:00     -230.876      -48.816      -17.024      105.923       73.575       45.402    11219.671     5413.274     2061.311        3.733        0.935      235.980       42.117        0.032      333.559        2.951      864.846
01/05/2021  01:37:00     -155.330      -43.257       -4.105       90.483       66.050       41.455     8187.162     4362.610     1718.495        2.014        0.713      161.241       34.389        0.045      333.547        2.933      864.892
01/05/2021  01:38:00     -216.462      -21.694       -1.595       88.225       57.134       40.724     7783.673     3264.288     1658.410        3.001        0.635      217.547       33.883        0.024      333.427        2.732      864.969
01/05/2021  01:39:00     -176.337      -22.218      -11.810      138.419       74.292       40.925    19159.741     5519.304     1674.878        2.904        1.318      177.731       28.158        0.025      333.441        2.756      865.048
01/05/2021  01:40:00     -245.199       16.615        3.139      105.662       61.135       43.831    11164.401     3737.546     1921.142        3.861        0.841      245.761       35.074        0.020      333.419        2.719      865.108
01/05/2021  01:41:00     -216.581      -37.776      -19.212       98.402       78.958       59.265     9682.883     6234.287     3512.324        3.406        0.971      219.851       50.868        0.054      333.492        2.838      865.144
01/05/2021  01:42:00     -182.660      -18.398       -0.863       98.562       66.916       51.203     9714.439     4477.726     2621.717        2.526        0.841      183.584       43.434        0.056      333.445        2.762      865.143
01/05/2021  01:43:00     -248.757      -71.343      -14.113      113.875       68.908       59.056    12967.505     4748.333     3487.647        4.418        1.060      258.786       58.621        0.051      333.508        2.865      865.109
01/05/2021  01:44:00     -156.275      -33.232       -4.041      107.018       75.776       45.240    11452.841     5742.070     2046.650        2.239        0.962      159.769       47.129        0.087      333.515        2.876      865.066
01/05/2021  01:45:00     -175.289      -18.737      -11.007       58.434       53.889       38.412     3414.503     2904.018     1475.497        1.949        0.390      176.288       32.082        0.033      333.605        3.028      865.038
01/05/2021  01:46:00     -103.278       -4.754       -2.947       66.081       54.329       35.885     4366.738     2951.590     1287.702        0.965        0.430      103.388       17.626        0.029      333.520        2.889      865.023
01/05/2021  01:47:00      -59.148       -4.508        9.168       59.841       41.129       33.144     3580.999     1691.595     1098.511        0.499        0.319       59.319       25.698        0.188      333.514        2.878      865.042
01/05/2021  01:48:00      -70.651      -42.527      -15.765       65.381       32.427       27.884     4274.651     1051.542      777.490        0.657        0.305       82.462       17.992        0.048      333.586        2.997      865.071
01/05/2021  01:49:00      -73.383      -47.274      -19.120       66.440       53.996       34.315     4414.233     2915.578     1177.550        0.824        0.425       87.292       23.128        0.070      333.581        2.990      865.070
01/05/2021  01:50:00      -57.992      -27.868      -13.590       48.739       36.858       28.001     2375.450     1358.540      784.074        0.442        0.226       64.341       21.450        0.111      333.522        2.891      865.052
01/05/2021  01:51:00      -75.052      -34.091       -6.564       64.913       36.563       30.908     4213.754     1336.869      955.316        0.667        0.325       82.432        7.735        0.009      333.476        2.816      865.015
01/05/2021  01:52:00     -127.259      -38.731      -15.745       55.626       37.053       28.937     3094.307     1372.943      837.377        1.162        0.265      133.023       12.694        0.009      333.401        2.691      864.979
01/05/2021  01:53:00     -162.080      -21.419       -5.315       67.713       41.750       34.509     4584.985     1743.102     1190.875        1.714        0.376      163.489       23.859        0.021      333.339        2.590      864.953
01/05/2021  01:54:00     -181.085      -18.684       -7.232       62.448       40.483       39.857     3899.725     1638.899     1588.554        2.016        0.356      182.046       35.716        0.038      333.300        2.523      864.963
01/05/2021  01:55:00     -151.021      -21.050        0.873       77.183       43.317       38.712     5957.180     1876.397     1498.650        1.629        0.467      152.481       27.593        0.033      333.286        2.500      865.009
01/05/2021  01:56:00     -162.973      -12.296       -6.121       43.493       28.040       26.507     1891.641      786.263      702.631        1.506        0.169      163.437       11.781        0.005      333.283        2.496      865.074
01/05/2021  01:57:00     -149.719      -12.598      -10.148       70.519       41.201       31.625     4972.989     1697.492     1000.147        1.517        0.384      150.248       23.149        0.024      333.365        2.631      865.132
01/05/2021  01:58:00     -126.310      -27.216      -13.426       73.174       35.477       30.018     5354.446     1258.583      901.060        1.219        0.376      129.208       20.317        0.025      333.344        2.598      865.176
01/05/2021  01:59:00     -136.276       -3.739        3.491       72.239       55.973       35.109     5218.492     3132.953     1232.620        1.409        0.479      136.327       28.713        0.044      333.302        2.527      865.215
01/05/2021  02:00:00     -189.308       -4.970       -5.032       78.953       61.551       36.233     6233.499     3788.512     1312.853        2.361        0.567      189.374       25.025        0.017      333.296        2.515      865.249
01/05/2021  02:01:00     -179.532      -11.218       -5.537       80.822       54.449       30.381     6532.147     2964.682      922.993        2.140        0.521      179.882       28.904        0.026      333.363        2.628      865.289
01/05/2021  02:02:00     -214.854      -38.579      -15.982       61.820       60.536       33.076     3821.713     3664.644     1094.030        2.824        0.429      218.291       26.699        0.015      333.403        2.691      865.322
01/05/2021  02:03:00     -139.018        0.701       -6.215       83.747       45.313       34.458     7013.602     2053.305     1187.382        1.481        0.513      139.019       32.932        0.056      333.386        2.666      865.337
01/05/2021  02:04:00     -127.613        5.012        2.303       76.147       47.971       35.039     5798.335     2301.245     1227.728        1.282        0.466      127.712       31.960        0.063      333.305        2.531      865.324
01/05/2021  02:05:00     -146.334      -30.475      -18.854       69.687       58.077       40.127     4856.284     3372.947     1610.158        1.627        0.492      149.474       34.881        0.054      333.462        2.792      865.286
01/05/2021  02:06:00      -79.895        0.442       -1.064       55.248       34.446       30.400     3052.306     1186.504      924.175        0.577        0.258       79.897       18.831        0.056      333.344        2.597      865.265
01/05/2021  02:07:00     -110.759      -20.281       -0.531       67.801       60.617       38.398     4596.959     3674.414     1474.377        1.121        0.487      112.601       31.046        0.076      333.418        2.719      865.255
01/05/2021  02:08:00     -102.912       -5.391       -1.600       68.800       45.200       34.471     4733.442     2043.026     1188.252        0.929        0.398      103.053       27.726        0.072      333.276        2.485      865.289
01/05/2021  02:09:00     -133.393       13.983        3.231       70.417       42.095       35.482     4958.586     1771.963     1258.985        1.299        0.399      134.124       21.476        0.026      333.198        2.356      865.357
01/05/2021  02:10:00     -147.814       15.593        4.998       67.758       43.213       35.720     4591.210     1867.383     1275.925        1.492        0.387      148.635       32.135        0.047      333.135        2.252      865.425
01/05/2021  02:11:00     -146.956       24.300      -13.654       60.774       37.412       26.637     3693.424     1399.673      709.528        1.409        0.290      148.951       18.667        0.016      333.123        2.233      865.464
01/05/2021  02:12:00      -66.353        3.844       -3.331       77.000       42.515       37.434     5928.930     1807.496     1401.270        0.678        0.457       66.464       17.372        0.068      333.132        2.246      865.485
01/05/2021  02:13:00      -91.508       17.580       -7.137       40.942       24.591       23.299     1676.280      604.709      542.827        0.578        0.141       93.181       10.903        0.014      333.118        2.223      865.497
01/05/2021  02:14:00      -34.732       24.196       -0.733       59.594       37.246       27.589     3551.470     1387.228      761.176        0.374        0.285       42.329       12.855        0.092      333.125        2.235      865.508
01/05/2021  02:15:00      -57.209       16.084       -5.592       47.187       37.860       27.564     2226.609     1433.344      759.779        0.399        0.221       59.427       18.847        0.101      333.255        2.451      865.536
01/05/2021  02:16:00      -29.144       51.759      -10.413       40.747       22.607       24.009     1660.278      511.061      576.422        0.319        0.137       59.401       21.326        0.129      333.224        2.398      865.564
01/05/2021  02:17:00      -14.678      103.309       -8.903       29.873       32.839       21.502      892.367     1078.415      462.332        0.670        0.122      104.347       18.491        0.031      333.248        2.438      865.602
01/05/2021  02:18:00       -2.522      119.985       -8.726       34.321       28.846       20.004     1177.928      832.093      400.154        0.844        0.121      120.011       19.592        0.027      333.238        2.421      865.649
01/05/2021  02:19:00       27.151      126.443      -14.536       42.763       33.968       20.234     1828.680     1153.817      409.398        1.016        0.170      129.325       20.742        0.026      333.323        2.562      865.705
01/05/2021  02:20:00       69.349       71.375      -12.854       57.160       36.034       27.859     3267.254     1298.473      776.146        0.770        0.267       99.517       31.631        0.101      333.073        2.150      865.748
01/05/2021  02:21:00       44.058       78.296      -11.971       67.127       57.491       30.221     4506.050     3305.204      913.312        0.847        0.436       89.841       34.235        0.145      333.043        2.101      865.781
01/05/2021  02:22:00       56.031      112.015      -12.411       48.158       61.648       34.423     2319.197     3800.508     1184.925        1.157        0.365      125.247       24.834        0.039      333.230        2.407      865.789
01/05/2021  02:23:00       70.369       76.835       -6.705       53.674       43.841       31.906     2880.928     1922.003     1017.975        0.836        0.291      104.189       30.163        0.084      333.124        2.232      865.779
01/05/2021  02:24:00       28.965       30.958       -4.981       65.442       26.949       24.011     4282.634      726.226      576.549        0.370        0.279       42.396       33.165        0.612      333.014        2.050      865.780
01/05/2021  02:25:00       24.352       79.372      -14.771       59.242       28.282       25.220     3509.608      799.868      636.061        0.603        0.247       83.023       29.158        0.123      333.143        2.262      865.799
01/05/2021  02:26:00       -1.331       89.188       -8.603       41.814       36.581       20.202     1748.402     1338.155      408.123        0.576        0.175       89.198       17.903        0.040      333.272        2.477      865.824
01/05/2021  02:27:00      -18.226       35.642       -0.974       47.870       32.461       21.065     2291.575     1053.745      443.731        0.270        0.189       40.032       18.709        0.218      333.242        2.429      865.841
01/05/2021  02:28:00      -17.631       69.373       -5.129       37.866       42.853       20.432     1433.816     1836.387      417.453        0.442        0.184       71.578       18.095        0.064      333.386        2.667      865.848
01/05/2021  02:29:00      -17.227       30.918       -4.693       37.782       15.636       17.814     1427.463      244.499      317.347        0.163        0.099       35.393       19.785        0.312      333.281        2.494      865.838
01/05/2021  02:30:00      -25.297       -4.115       -9.657       43.667       18.448       22.113     1906.838      340.331      488.983        0.174        0.137       25.630       26.425        1.063      333.284        2.496      865.825
01/05/2021  02:31:00      -92.384       61.054       -8.948       47.540       39.560       24.200     2260.097     1565.007      585.626        0.838        0.221      110.736       10.971        0.010      333.332        2.576      865.820
01/05/2021  02:32:00      -15.647       76.810      -10.091       48.117       60.266       26.140     2315.200     3631.943      683.279        0.644        0.332       78.387       19.469        0.062      333.350        2.606      865.828
01/05/2021  02:33:00      -48.295      213.086      -17.051       43.648       36.899       25.208     1905.149     1361.539      635.465        2.596        0.195      218.490       13.898        0.004      333.394        2.678      865.824
01/05/2021  02:34:00      -33.695       84.970       -4.980       54.411       54.285       27.417     2960.601     2946.846      751.714        0.752        0.333       91.407        8.861        0.009      333.335        2.582      865.801
01/05/2021  02:35:00      -28.891       37.961       -0.310       46.108       38.666       26.626     2125.908     1495.025      708.942        0.330        0.216       47.705       19.069        0.160      333.218        2.388      865.753
01/05/2021  02:36:00      -54.463       26.306      -14.148       42.560       19.363       19.256     1811.388      374.937      370.807        0.321        0.128       60.483       19.838        0.108      333.245        2.432      865.701
01/05/2021  02:37:00      -59.487       63.128       -6.238       39.731       32.872       23.400     1578.520     1080.582      547.561        0.538        0.160       86.740        8.109        0.009      333.343        2.597      865.670
01/05/2021  02:38:00      -47.103       43.605       -9.692       42.606       27.367       19.428     1815.282      748.975      377.445        0.358        0.147       64.188       15.927        0.062      333.406        2.701      865.652
01/05/2021  02:39:00        6.179       46.025      -10.902       45.759       33.550       24.987     2093.915     1125.584      624.335        0.306        0.192       46.438       27.652        0.355      333.400        2.689      865.640
01/05/2021  02:40:00      -43.652       89.365       -2.679       42.037       23.288       21.491     1767.079      542.317      461.880        0.633        0.139       99.457        5.926        0.004      333.332        2.578      865.614
01/05/2021  02:41:00       26.348       91.563       -7.438       36.847       23.552       23.631     1357.698      554.699      558.421        0.580        0.124       95.279       19.344        0.041      333.349        2.607      865.602
01/05/2021  02:42:00        0.884       71.862       -7.992       27.287       21.479       13.348      744.590      461.346      178.171        0.331        0.069       71.868       14.755        0.042      333.223        2.396      865.592
01/05/2021  02:43:00      -26.789       22.508       -6.175       41.614       25.811       20.572     1731.751      666.213      423.222        0.204        0.141       34.989       20.200        0.333      333.223        2.399      865.607
01/05/2021  02:44:00      -17.723       48.537        0.528       42.613       37.688       21.904     1815.884     1420.405      479.765        0.319        0.186       51.672       15.831        0.094      333.219        2.392      865.627
01/05/2021  02:45:00      -25.409       39.053       -6.695       42.520       24.291       21.594     1807.972      590.048      466.301        0.254        0.143       46.591       24.460        0.276      333.172        2.311      865.666
01/05/2021  02:46:00      -13.213       36.496      -13.214       40.858       26.530       19.024     1669.380      703.840      361.906        0.221        0.137       38.815       20.763        0.286      333.163        2.298      865.690
01/05/2021  02:47:00      -46.464       61.154      -15.688       62.173       49.862       32.654     3865.458     2486.172     1066.281        0.678        0.371       76.803       13.916        0.033      333.264        2.464      865.698
01/05/2021  02:48:00      -57.770       70.105      -15.849       84.031       55.228       36.410     7061.280     3050.084     1325.690        0.997        0.572       90.841       27.792        0.094      333.163        2.296      865.700
01/05/2021  02:49:00     -145.958      121.477      -14.808       65.124       51.660       34.325     4241.106     2668.730     1178.221        2.218        0.404      189.896       13.217        0.005      333.181        2.326      865.723
01/05/2021  02:50:00      -67.010       42.006      -10.715       56.880       38.003       32.162     3235.301     1444.208     1034.379        0.604        0.286       79.088       13.327        0.028      333.109        2.210      865.734
01/05/2021  02:51:00      -94.878      -16.323      -19.723       72.849       45.650       27.528     5306.907     2083.912      757.767        0.890        0.407       96.272       18.243        0.036      333.005        2.037      865.746
01/05/2021  02:52:00     -107.351       48.228      -14.202       43.008       42.703       29.489     1849.702     1823.554      869.629        0.930        0.227      117.686       16.363        0.019      333.033        2.084      865.751
01/05/2021  02:53:00      -66.497       21.955      -19.619       38.425       27.253       23.585     1476.494      742.740      556.252        0.403        0.139       70.028       17.512        0.063      332.995        2.019      865.740
01/05/2021  02:54:00      -79.843       20.248      -21.577       86.933       44.683       36.179     7557.387     1996.557     1308.940        0.905        0.543       82.371       35.962        0.191      333.026        2.071      865.732
01/05/2021  02:55:00      -41.748        5.024       -4.289       91.637       24.478       34.551     8397.362      599.161     1193.778        0.599        0.510       42.049       15.251        0.132      333.018        2.056      865.732
01/05/2021  02:56:00      -61.678        7.607      -15.236       63.859       50.904       42.628     4078.013     2591.201     1817.122        0.629        0.424       62.145       11.596        0.035      332.964        1.969      865.757
01/05/2021  02:57:00      -74.568       -9.526       -2.573       85.693       48.020       41.685     7343.241     2305.956     1737.613        0.852        0.569       75.174       24.091        0.103      332.868        1.809      865.757
01/05/2021  02:58:00      -67.995        8.781       -0.467       64.488       48.680       32.395     4158.764     2369.746     1049.418        0.614        0.379       68.560       11.130        0.026      332.892        1.851      865.740
01/05/2021  02:59:00      -78.414       17.445        2.418       63.291       45.236       35.477     4005.698     2046.305     1258.627        0.688        0.366       80.331       14.371        0.032      332.845        1.773      865.722
01/05/2021  03:00:00      -58.529       45.289      -10.149       51.434       45.836       26.029     2645.468     2100.924      677.509        0.550        0.271       74.006       25.877        0.122      332.887        1.841      865.721
01/05/2021  03:01:00      -65.399       25.160      -14.009       57.547       36.793       35.519     3311.687     1353.699     1261.615        0.552        0.296       70.071       24.762        0.125      332.900        1.865      865.719
01/05/2021  03:02:00      -24.089       48.264      -10.945       60.390       21.868       28.275     3646.907      478.192      799.457        0.398        0.246       53.941       30.801        0.326      332.893        1.851      865.753
01/05/2021  03:03:00      -61.281       24.329      -12.353       63.295       28.685       26.684     4006.281      822.803      712.024        0.502        0.277       65.934       18.400        0.078      332.841        1.767      865.794
01/05/2021  03:04:00      -52.463       33.408       -5.704       52.428       35.728       26.222     2748.667     1276.495      687.587        0.431        0.236       62.197       16.884        0.074      332.867        1.810      865.853
01/05/2021  03:05:00      -37.299       39.997      -18.264       60.852       40.270       31.761     3702.960     1621.684     1008.738        0.483        0.317       54.690       27.136        0.246      332.920        1.898      865.908
01/05/2021  03:06:00      -31.554      101.262      -13.370       62.419       33.281       29.293     3896.137     1107.610      858.107        0.864        0.293      106.065       18.727        0.031      333.024        2.070      865.962
01/05/2021  03:07:00       66.378       90.101      -10.234       56.764       38.108       31.968     3222.121     1452.217     1021.938        0.916        0.285      111.912       32.887        0.086      332.908        1.875      866.024
01/05/2021  03:08:00      121.517       18.899      -22.451       80.466       52.308       42.488     6474.772     2736.105     1805.252        1.332        0.551      122.978       46.990        0.146      332.858        1.793      866.072
01/05/2021  03:09:00      110.989       13.516      -16.077       55.259       30.832       28.728     3053.578      950.623      825.322        0.879        0.241      111.809       33.390        0.089      332.680        1.500      866.081
01/05/2021  03:10:00       80.823       21.654      -18.369       55.908       32.680       29.661     3125.742     1067.963      879.804        0.621        0.254       83.673       28.766        0.118      332.723        1.571      866.097
01/05/2021  03:11:00       12.165      -21.392      -13.917       53.615       35.000       25.510     2874.591     1224.981      650.745        0.277        0.238       24.609       26.948        1.199      332.727        1.578      866.148
01/05/2021  03:12:00       16.971        5.855      -16.805       48.221       17.520       24.530     2325.259      306.951      601.716        0.192        0.162       17.952       30.777        2.939      332.808        1.712      866.218
01/05/2021  03:13:00      -14.052       59.572       -6.528       47.313       22.095       23.265     2238.531      488.197      541.278        0.353        0.163       61.207       29.291        0.229      332.621        1.402      866.184
01/05/2021  03:14:00       35.816       91.083      -11.880       61.467       31.425       30.875     3778.202      987.525      953.243        0.772        0.286       97.872       33.053        0.114      332.632        1.420      866.214
01/05/2021  03:15:00       10.517       59.239      -10.938       45.964       25.995       23.088     2112.673      675.715      533.049        0.353        0.166       60.165       25.804        0.184      332.604        1.376      866.243
01/05/2021  03:16:00       49.486       35.902       -8.943       51.726       20.396       27.318     2675.562      415.982      746.267        0.383        0.192       61.138       32.562        0.284      332.747        1.611      866.275
01/05/2021  03:17:00      -33.505       66.024      -14.486       74.590       29.227       29.000     5563.709      854.196      841.015        0.647        0.363       74.039       23.916        0.104      332.890        1.848      866.339
01/05/2021  03:18:00       27.091      128.888      -16.880       73.494       40.844       29.449     5401.352     1668.214      867.268        1.278        0.397      131.704       24.336        0.034      333.049        2.109      866.408
01/05/2021  03:19:00       76.069      157.561      -30.888       72.139       78.111       37.130     5204.048     6101.382     1378.613        2.212        0.634      174.963       26.494        0.023      333.139        2.257      866.439
01/05/2021  03:20:00       83.445       62.985      -11.342       56.478       30.105       25.177     3189.727      906.338      633.864        0.789        0.236      104.547       29.193        0.078      332.925        1.904      866.440
01/05/2021  03:21:00       48.812       91.584       -4.934       63.055       32.579       30.128     3975.969     1061.403      907.676        0.837        0.297      103.780       27.529        0.070      333.067        2.139      866.445
01/05/2021  03:22:00       10.918       82.536      -11.829       50.225       30.250       24.361     2522.537      915.071      593.472        0.555        0.202       83.255       23.682        0.081      332.892        1.851      866.473
01/05/2021  03:23:00      -19.638       82.009       -3.484       44.818       39.447       24.629     2008.690     1556.070      606.598        0.565        0.209       84.327       20.402        0.059      332.743        1.603      866.502
01/05/2021  03:24:00       71.145      102.697      -16.305       74.646       53.107       34.484     5572.071     2820.308     1189.126        1.273        0.479      124.933       27.262        0.048      333.065        2.135      866.528
01/05/2021  03:25:00     -154.518       31.759      -37.780      110.478       59.076       40.406    12205.469     3490.008     1632.620        2.182        0.866      157.748       24.586        0.024      332.818        1.725      866.560
01/05/2021  03:26:00      -49.847       62.191      -13.057       56.340       50.440       36.112     3174.216     2544.233     1304.071        0.677        0.351       79.702       27.514        0.119      332.941        1.930      866.592
01/05/2021  03:27:00      -27.079       55.875      -13.017       52.100       63.998       34.181     2714.458     4095.780     1168.340        0.600        0.399       62.091       27.521        0.196      332.933        1.919      866.594
01/05/2021  03:28:00      -59.053       26.066      -23.417       58.713       66.852       32.540     3447.251     4469.225     1058.862        0.684        0.449       64.550       33.614        0.271      332.841        1.767      866.584
01/05/2021  03:29:00      -78.997       64.137      -20.722       55.499       42.198       27.579     3080.122     1780.649      760.587        0.820        0.281      101.755       16.697        0.027      332.874        1.821      866.602
01/05/2021  03:30:00      -35.583       74.293      -13.686       42.476       36.993       25.651     1804.231     1368.473      657.981        0.540        0.192       82.375       22.928        0.077      332.896        1.858      866.620
01/05/2021  03:31:00     -115.007       85.046      -19.607       80.731       63.371       32.412     6517.491     4015.878     1050.557        1.621        0.579      143.036       28.095        0.039      332.896        1.857      866.644
01/05/2021  03:32:00      -74.877       78.206       -6.020       55.763       59.452       30.027     3109.481     3534.590      901.598        0.965        0.377      108.272       12.624        0.014      332.904        1.871      866.687
01/05/2021  03:33:00      -97.630       78.264      -12.953       47.052       46.959       30.072     2213.932     2205.144      904.323        1.057        0.266      125.127       19.970        0.025      332.906        1.876      866.714
01/05/2021  03:34:00      -80.292       13.397       -6.638       81.610       58.483       35.300     6660.174     3420.279     1246.089        0.900        0.566       81.402       31.154        0.146      332.853        1.786      866.764
01/05/2021  03:35:00     -119.920      113.443      -15.981       50.434       66.899       33.812     2543.584     4475.483     1143.281        1.783        0.408      165.076       17.697        0.011      332.935        1.921      866.787
01/05/2021  03:36:00      -88.339       37.868      -14.215       55.664       39.297       38.616     3098.504     1544.265     1491.233        0.779        0.307       96.113       16.696        0.030      332.911        1.881      866.823
01/05/2021  03:37:00       -0.037       20.932       -0.964       71.094       56.454       36.782     5054.292     3187.046     1352.928        0.501        0.480       20.932       26.676        1.624      332.946        1.939      866.824
01/05/2021  03:38:00      -39.630       33.629       -8.312       73.315       67.277       42.148     5375.058     4526.162     1776.424        0.722        0.584       51.975       16.457        0.100      332.957        1.957      866.799
01/05/2021  03:39:00       11.041       61.908       -7.434       54.908       55.512       27.366     3014.938     3081.590      748.898        0.543        0.342       62.885       29.581        0.221      332.954        1.953      866.788
01/05/2021  03:40:00       13.252      130.738      -16.705       71.376       47.242       38.895     5094.530     2231.812     1512.847        1.319        0.442      131.408       26.088        0.039      333.096        2.187      866.782
01/05/2021  03:41:00      -39.278      137.280      -14.404       48.461       52.457       30.274     2348.448     2751.747      916.503        1.331        0.301      142.789       17.486        0.015      333.142        2.262      866.776
01/05/2021  03:42:00       28.937       83.464       -2.180       51.382       53.852       31.557     2640.081     2900.017      995.872        0.717        0.327       88.338       22.805        0.067      333.155        2.283      866.767
01/05/2021  03:43:00      -51.789       27.245       -0.349       42.852       39.859       24.420     1836.268     1588.780      596.331        0.372        0.201       58.518       20.137        0.118      332.970        1.978      866.803
01/05/2021  03:44:00       27.104        5.607       -4.541       46.731       49.697       28.527     2183.812     2469.776      813.812        0.313        0.273       27.678       26.326        0.905      332.985        2.004      866.820
01/05/2021  03:45:00       -5.804       -8.500      -14.954       62.203       37.065       26.968     3869.230     1373.822      727.275        0.315        0.299       10.292       30.019        8.507      333.013        2.049      866.845
01/05/2021  03:46:00      -25.573        4.420       -5.035       63.011       34.286       28.709     3970.427     1175.559      824.234        0.333        0.299       25.952       22.789        0.771      332.965        1.971      866.866
01/05/2021  03:47:00       35.364       -3.386       -7.392       53.300       29.876       25.456     2840.864      892.572      648.013        0.285        0.219       35.525       29.539        0.691      333.053        2.116      866.896
01/05/2021  03:48:00       -5.296       32.347      -16.474       50.535       30.949       26.770     2553.825      957.843      716.614        0.279        0.211       32.778       30.063        0.841      332.943        1.936      866.928
01/05/2021  03:49:00        2.103       97.309      -21.421       62.017       79.887       36.950     3846.155     6381.893     1365.310        1.076        0.580       97.332       23.473        0.058      333.003        2.033      866.948
01/05/2021  03:50:00      -56.820      124.345        3.516       86.450       99.896       44.543     7473.646     9979.265     1984.058        1.907        0.972      136.712       23.311        0.029      333.002        2.030      866.940
01/05/2021  03:51:00      -41.802       10.504      -12.151       67.845       57.041       40.031     4602.906     3253.637     1602.483        0.573        0.473       43.101       17.827        0.171      332.908        1.877      866.938
01/05/2021  03:52:00      -30.445       -5.932       -0.397       68.283       31.579       29.882     4662.540      997.221      892.942        0.376        0.328       31.018       15.202        0.240      332.877        1.826      866.962
01/05/2021  03:53:00      -40.760       13.517       -1.186       71.728       39.432       29.390     5144.909     1554.893      863.798        0.470        0.378       42.943       21.678        0.255      332.840        1.765      867.001
01/05/2021  03:54:00      -54.768       34.482       -4.415       66.396       37.049       34.648     4408.423     1372.628     1200.494        0.559        0.349       64.719       20.944        0.105      333.000        2.030      867.036
01/05/2021  03:55:00      -37.010      117.930       -5.720       52.760       62.568       44.589     2783.569     3914.731     1988.185        1.200        0.434      123.601       21.969        0.032      333.220        2.392      867.026
01/05/2021  03:56:00      -46.615        4.781       -0.617       73.068       58.294       41.793     5338.922     3398.222     1746.681        0.634        0.524       46.860       21.179        0.204      333.148        2.272      867.015
01/05/2021  03:57:00      -55.617       13.925        3.003       94.423       71.543       31.361     8915.694     5118.355      983.526        0.915        0.751       57.334       17.326        0.091      333.141        2.262      866.994
01/05/2021  03:58:00      -67.595       -5.132       -6.003      117.307       56.141       52.070    13761.047     3151.776     2711.322        1.212        0.981       67.789       43.954        0.420      333.143        2.264      866.975
01/05/2021  03:59:00      -91.492       26.492        1.238      100.280       59.583       49.746    10056.017     3550.185     2474.674        1.257        0.804       95.250       38.881        0.167      333.063        2.134      866.990
01/05/2021  04:00:00     -223.400       38.754        2.957      136.962       85.053       57.542    18758.598     7233.943     3311.130        4.035        1.465      226.737       64.622        0.081      332.984        2.002      867.005
01/05/2021  04:01:00     -142.869       -2.375        8.314      106.657       70.031       49.272    11375.783     4904.361     2427.686        1.959        0.935      142.889       47.308        0.110      332.806        1.705      867.018
01/05/2021  04:02:00     -168.369      -50.416      -30.596       82.425       53.853       45.776     6793.807     2900.108     2095.407        2.181        0.589      175.755       42.573        0.059      332.725        1.572      867.015
01/05/2021  04:03:00     -109.651       12.296        1.257       88.225       58.518       46.832     7783.598     3424.330     2193.241        1.279        0.670      110.338       38.701        0.123      332.565        1.310      867.007
01/05/2021  04:04:00     -135.827       17.220       -3.180      114.718       55.031       36.345    13160.227     3028.452     1320.984        1.813        0.875      136.914       34.649        0.064      332.517        1.230      867.012
01/05/2021  04:05:00     -173.686       42.297       -1.239       84.830       55.842       41.782     7196.058     3118.376     1745.702        2.201        0.603      178.762       31.171        0.030      332.478        1.165      867.050
01/05/2021  04:06:00     -255.677       18.595       -5.857       90.494       55.400       41.525     8189.218     3069.210     1724.289        3.936        0.649      256.353       35.905        0.020      332.427        1.079      867.076
01/05/2021  04:07:00     -197.670       37.444        7.212      121.982       60.209       43.439    14879.563     3625.141     1886.955        3.046        1.020      201.185       29.260        0.021      332.381        1.005      867.080
01/05/2021  04:08:00     -225.148      -24.365      -10.094      101.351       62.641       44.477    10272.052     3923.876     1978.166        3.378        0.809      226.463       39.064        0.030      332.412        1.056      867.073
01/05/2021  04:09:00     -197.613       -4.209      -11.343      119.100       77.279       60.684    14184.892     5972.077     3682.575        3.151        1.192      197.658       46.203        0.055      332.489        1.183      867.042
01/05/2021  04:10:00      -69.925        0.969        7.326      105.806       74.826       47.757    11194.844     5598.955     2280.751        1.201        0.954       69.931       42.662        0.372      332.699        1.531      867.009
01/05/2021  04:11:00      -82.780        1.242       -8.600       64.398       48.494       34.897     4147.124     2351.655     1217.822        0.732        0.386       82.789       22.954        0.077      332.685        1.509      866.980
01/05/2021  04:12:00     -108.938       38.723       -9.803       58.085       45.917       35.576     3373.838     2108.401     1265.665        1.010        0.337      115.616       14.911        0.017      332.470        1.152      866.989
01/05/2021  04:13:00     -117.001       -7.569       -4.086       81.002       46.653       28.899     6561.353     2176.539      835.133        1.167        0.479      117.245       16.821        0.021      332.467        1.149      866.993
01/05/2021  04:14:00     -101.530      -62.479      -16.764       60.264       36.623       32.587     3631.779     1341.236     1061.899        1.026        0.302      119.213       28.285        0.056      332.677        1.495      866.972
01/05/2021  04:15:00     -104.076       -8.650       -3.054       91.780       59.548       41.759     8423.497     3545.983     1743.773        1.231        0.686      104.435       25.294        0.059      332.692        1.519      866.980
01/05/2021  04:16:00      -93.873      -16.331       -0.767       95.816       51.625       50.455     9180.649     2665.175     2545.668        1.173        0.720       95.283       34.620        0.132      332.601        1.368      867.000
01/05/2021  04:17:00      -38.831       -9.515       -5.068       75.079       35.668       32.811     5636.854     1272.219     1076.532        0.480        0.399       39.980       24.633        0.380      332.601        1.370      866.984
01/05/2021  04:18:00      -39.011      -28.464       -1.383       58.305       29.089       31.278     3399.466      846.184      978.299        0.378        0.261       48.291       21.534        0.199      333.076        2.155      866.956
01/05/2021  04:19:00       -3.804      -18.638       -9.515       57.796       21.884       25.022     3340.385      478.929      626.115        0.245        0.222       19.022       32.197        2.865      333.266        2.467      866.939
01/05/2021  04:20:00       57.732       -1.613      -11.543       52.094       22.727       28.108     2713.775      516.537      790.063        0.374        0.201       57.755       34.686        0.361      333.124        2.232      866.927
01/05/2021  04:21:00      103.383       26.083      -23.274       57.101       28.678       29.469     3260.494      822.452      868.433        0.843        0.248      106.622       34.017        0.102      333.005        2.038      866.905
01/05/2021  04:22:00       22.803       14.101      -11.856       45.483       36.245       29.248     2068.734     1313.702      855.429        0.255        0.212       26.811       23.616        0.776      333.327        2.571      866.891
01/05/2021  04:23:00       19.378       21.067      -11.960       53.662       37.055       24.467     2879.590     1373.066      598.653        0.291        0.243       28.624       30.802        1.158      332.976        1.991      866.894
01/05/2021  04:24:00       23.695       55.737      -11.168       41.365       18.275       19.907     1711.044      333.981      396.284        0.312        0.122       60.565       25.477        0.177      332.452        1.123      866.909
01/05/2021  04:25:00       31.456       53.479      -14.855       51.909       25.971       27.989     2694.525      674.490      783.395        0.411        0.208       62.044       34.434        0.308      332.563        1.308      866.907
01/05/2021  04:26:00       42.425       26.634      -13.870       56.759       24.813       29.655     3221.611      615.701      879.406        0.371        0.236       50.092       37.591        0.563      332.754        1.622      866.890
01/05/2021  04:27:00       70.442       43.429      -21.729       56.490       22.694       29.261     3191.153      515.030      856.182        0.594        0.228       82.754       35.835        0.188      332.573        1.324      866.860
01/05/2021  04:28:00       78.417       31.977      -18.439       61.413       24.624       30.241     3771.547      606.339      914.539        0.640        0.265       84.686       37.168        0.193      332.873        1.819      866.826
01/05/2021  04:29:00       25.313       20.749       -6.704       54.465       25.359       29.107     2966.410      643.094      847.205        0.279        0.223       32.730       35.478        1.175      332.964        1.970      866.803
01/05/2021  04:30:00      -16.858       26.946       -7.403       45.548       25.635       25.056     2074.579      657.175      627.818        0.221        0.168       31.785       27.801        0.765      332.831        1.750      866.779
01/05/2021  04:31:00       -8.713       -4.509      -13.307       45.191       17.163       26.444     2042.251      294.572      699.308        0.165        0.152        9.811       29.811        9.234      332.474        1.160      866.781
01/05/2021  04:32:00      -25.201       -5.953       -8.464       47.374       29.289       32.413     2244.269      857.864     1050.625        0.245        0.208       25.894       20.817        0.646      332.277        0.835      866.786
01/05/2021  04:33:00      -36.235        4.189        8.688       60.650       39.322       34.378     3678.387     1546.202     1181.861        0.390        0.320       36.476       23.549        0.417      332.371        0.990      866.802
01/05/2021  04:34:00     -150.177       -4.736       -5.494       82.055       35.253       32.531     6732.949     1242.742     1058.291        1.582        0.452      150.252       18.568        0.015      332.494        1.193      866.822
01/05/2021  04:35:00     -194.622      -30.442      -15.352       48.789       46.940       29.670     2380.361     2203.397      880.291        2.225        0.273      196.988       23.858        0.015      332.619        1.397      866.832
01/05/2021  04:36:00     -188.984      -43.079      -25.091       50.036       42.340       31.686     2503.620     1792.705     1003.986        2.175        0.265      193.832       16.072        0.007      332.599        1.364      866.847
01/05/2021  04:37:00     -161.037      -33.661       -8.461       71.016       46.501       32.656     5043.209     2162.317     1066.407        1.770        0.414      164.517       18.447        0.013      332.616        1.393      866.855
01/05/2021  04:38:00     -127.193      -21.152       -9.868       57.136       45.485       29.937     3264.472     2068.862      896.214        1.147        0.311      128.940       18.553        0.021      332.552        1.289      866.860
01/05/2021  04:39:00     -112.504      -12.283      -13.044       89.653       57.127       46.260     8037.682     3263.443     2139.966        1.321        0.672      113.173       28.621        0.064      332.546        1.277      866.861
01/05/2021  04:40:00     -100.749       -4.069       -9.027       84.769       65.197       41.126     7185.792     4250.691     1691.373        1.169        0.656      100.831       29.993        0.088      332.368        0.985      866.861
01/05/2021  04:41:00     -145.480        1.281      -10.187       93.698       64.702       44.420     8779.256     4186.372     1973.159        1.810        0.747      145.486       31.405        0.047      332.205        0.717      866.861
01/05/2021  04:42:00     -156.249      -49.264       -3.124       80.991       59.476       44.084     6559.591     3537.389     1943.358        1.944        0.602      163.831       33.026        0.041      332.214        0.730      866.864
01/05/2021  04:43:00      -73.461       -4.706       -9.407       98.972       60.898       40.353     9795.395     3708.509     1628.346        1.032        0.757       73.611       28.663        0.152      332.164        0.649      866.865
01/05/2021  04:44:00      -30.880        2.796        2.867       65.724       60.605       40.745     4319.630     3672.925     1660.136        0.531        0.483       31.007       32.915        1.127      332.138        0.608      866.860
01/05/2021  04:45:00     -141.333      -14.672       -3.120       82.538       49.814       45.219     6812.560     2481.392     2044.726        1.577        0.567      142.092       20.121        0.020      332.062        0.480      866.857
01/05/2021  04:46:00     -160.839        5.464        1.973       58.035       61.519       43.093     3368.067     3784.616     1857.047        1.745        0.450      160.932       33.460        0.043      332.129        0.591      866.853
01/05/2021  04:47:00     -111.475      -22.240       -9.206       83.165       45.146       34.607     6916.424     2038.172     1197.657        1.158        0.508      113.672       10.487        0.009      332.229        0.755      866.859
01/05/2021  04:48:00     -112.635      -26.753      -10.368       65.785       46.609       37.644     4327.698     2172.417     1417.067        1.071        0.396      115.768       22.109        0.036      332.304        0.877      866.857
01/05/2021  04:49:00      -56.935      -24.640        5.252       64.259       46.132       36.316     4129.189     2128.119     1318.831        0.572        0.379       62.038       20.254        0.107      332.332        0.928      866.883
01/05/2021  04:50:00       99.881     -105.926      -33.450       81.860       75.860       44.278     6700.988     5754.802     1960.546        1.836        0.721      145.590       51.794        0.127      332.146        0.617      866.914
01/05/2021  04:51:00      117.683     -117.155      -42.841       76.681       63.610       32.819     5880.003     4046.191     1077.073        2.020        0.550      166.056       36.137        0.047      332.056        0.468      866.924
01/05/2021  04:52:00       74.683     -108.590      -22.642       80.101       83.769       34.746     6416.194     7017.204     1207.299        1.626        0.732      131.793       27.166        0.042      332.136        0.601      866.945
01/05/2021  04:53:00       58.082      -29.165      -13.910       72.651       60.207       37.547     5278.098     3624.856     1409.759        0.736        0.516       64.993       39.798        0.375      332.000        0.379      866.952
01/05/2021  04:54:00       71.433     -107.329      -27.593       64.216       48.678       29.418     4123.728     2369.523      865.442        1.237        0.368      128.927       30.441        0.056      332.145        0.617      866.968
01/05/2021  04:55:00       72.048      -83.872      -21.253       47.042       57.442       30.864     2212.911     3299.602      952.577        0.957        0.323      110.569       22.522        0.041      332.048        0.456      866.984
01/05/2021  04:56:00        6.105      -59.437       -6.946       60.841       50.218       38.023     3701.670     2521.842     1445.774        0.564        0.383       59.749       25.544        0.183      332.010        0.395      867.000
01/05/2021  04:57:00      -10.846       -2.024      -11.184       34.141       38.298       22.286     1165.619     1466.735      496.676        0.169        0.156       11.033       21.292        3.724      331.999        0.378      867.013
01/05/2021  04:58:00      -27.244      -16.531       -1.702       41.314       39.922       28.379     1706.851     1593.734      805.373        0.256        0.205       31.867       26.781        0.706      332.059        0.476      867.020
01/05/2021  04:59:00      -40.033      -38.272       -5.347       59.446       48.466       31.180     3533.865     2348.960      972.198        0.497        0.343       55.384       25.732        0.216      332.048        0.457      867.029
01/05/2021  05:00:00      -28.857      -21.783       -8.903       40.876       37.121       26.092     1670.820     1377.940      680.810        0.256        0.186       36.155       24.194        0.448      332.055        0.470      867.016
01/05/2021  05:01:00      -23.939       -8.668       10.250       34.753       43.415       23.653     1207.767     1884.819      559.443        0.220        0.183       25.460       31.011        1.484      332.056        0.471      866.983
01/05/2021  05:02:00       28.575      -48.785       -6.735       47.295       53.794       33.272     2236.814     2893.796     1107.046        0.474        0.312       56.537       27.805        0.242      332.099        0.541      866.968
01/05/2021  05:03:00       54.093      -81.978       -5.720       53.372       51.570       36.184     2848.554     2659.460     1309.287        0.825        0.341       98.217       22.481        0.052      332.180        0.674      866.953
01/05/2021  05:04:00      -64.765      -22.169      -11.254       57.374       54.889       44.105     3291.772     3012.842     1945.228        0.653        0.412       68.454       35.639        0.271      332.327        0.918      866.937
01/05/2021  05:05:00        6.793      -11.608      -12.219       46.152       41.836       25.678     2129.968     1750.260      659.375        0.243        0.227       13.450       27.682        4.236      332.154        0.633      866.926
01/05/2021  05:06:00       17.210      -45.051       -7.749       46.438       38.642       29.337     2156.460     1493.234      860.635        0.345        0.226       48.227       25.243        0.274      332.224        0.748      866.925
01/05/2021  05:07:00       -1.882      -37.175       -3.579       62.647       52.248       32.594     3924.651     2729.877     1062.379        0.456        0.386       37.222       30.266        0.661      332.350        0.956      866.935
01/05/2021  05:08:00      -14.777      -62.764      -12.366       69.072       57.535       34.977     4770.931     3310.229     1223.381        0.681        0.465       64.480       36.316        0.317      332.438        1.102      866.938
01/05/2021  05:09:00      -30.204      -50.627      -18.302       72.158       62.731       39.976     5206.796     3935.131     1598.056        0.727        0.537       58.952       29.246        0.246      332.545        1.277      866.941
01/05/2021  05:10:00      -32.944      -94.871      -28.118       75.679       69.162       43.325     5727.350     4783.322     1877.017        1.163        0.619      100.428       40.933        0.166      332.539        1.267      866.955
01/05/2021  05:11:00        0.240      -54.035      -22.546       86.158       63.282       41.208     7423.269     4004.579     1698.110        0.827        0.656       54.035       44.553        0.680      332.630        1.419      866.950
01/05/2021  05:12:00      -19.434      -28.876      -14.011       54.308       34.919       29.608     2949.334     1219.345      876.619        0.323        0.252       34.806       23.877        0.471      332.448        1.118      866.951
01/05/2021  05:13:00       31.891       13.109       -6.813       64.723       40.332       38.740     4189.029     1626.662     1500.826        0.427        0.366       34.480       39.304        1.299      332.469        1.152      866.966
01/05/2021  05:14:00       15.534        3.638      -12.314       54.085       47.643       32.444     2925.237     2269.888     1052.586        0.333        0.312       15.954       31.113        3.803      332.408        1.052      866.965
01/05/2021  05:15:00       71.503      -44.511      -32.699       66.275       64.894       41.539     4392.427     4211.243     1725.529        0.924        0.516       84.226       38.938        0.214      332.504        1.210      866.955
01/05/2021  05:16:00      105.494       13.759      -21.092       75.238       83.006       45.567     5660.827     6890.020     2076.396        1.319        0.731      106.388       35.518        0.111      332.011        0.395      866.934
01/05/2021  05:17:00       93.056       27.795       -8.892       67.506       60.417       37.486     4557.005     3650.233     1405.229        0.956        0.481       97.119       35.749        0.135      331.804        0.055      866.903
01/05/2021  05:18:00       52.335       26.277        3.676       62.672       64.929       36.209     3927.729     4215.786     1311.096        0.645        0.473       58.562       24.149        0.170      331.791        0.035      866.874
01/05/2021  05:19:00       74.953       27.551        8.824       46.037       44.078       28.358     2119.366     1942.873      804.150        0.566        0.243       79.856       23.909        0.090      331.698       -0.119      866.851
01/05/2021  05:20:00        0.412        9.837        1.946       35.867       47.837       25.123     1286.459     2288.424      631.147        0.215        0.210        9.846       29.802        9.162      331.777        0.011      866.832
01/05/2021  05:21:00      -17.092       60.859       -0.583       33.483       36.291       23.688     1121.144     1317.064      561.134        0.350        0.150       63.214       23.201        0.135      331.682       -0.145      866.833
01/05/2021  05:22:00       -7.183       53.488       10.295       36.812       43.441       26.240     1355.159     1887.083      688.516        0.347        0.197       53.968       28.976        0.288      331.654       -0.192      866.844
01/05/2021  05:23:00       11.183       54.348        4.788       42.092       43.461       27.368     1771.748     1888.836      749.021        0.375        0.220       55.487       29.484        0.282      331.851        0.133      866.859
01/05/2021  05:24:00        6.523       26.951        3.936       29.256       39.781       21.550      855.921     1582.511      464.404        0.184        0.145       27.729       28.455        1.053      331.746       -0.040      866.874
01/05/2021  05:25:00        9.932       35.992        6.401       32.427       40.038       22.911     1051.502     1603.067      524.910        0.231        0.159       37.337       29.822        0.638      331.853        0.135      866.879
01/05/2021  05:26:00        6.940       47.365        3.348       36.757       35.751       23.752     1351.055     1278.100      564.177        0.275        0.160       47.871       25.603        0.286      331.938        0.274      866.893
01/05/2021  05:27:00       -0.290       24.203        9.673       35.921       39.486       24.091     1290.322     1559.153      580.356        0.205        0.171       24.205       27.637        1.304      331.870        0.162      866.925
01/05/2021  05:28:00       10.245       22.283       16.419       25.508       42.546       24.433      650.658     1810.135      596.972        0.196        0.153       24.525       33.598        1.877      331.739       -0.052      866.957
01/05/2021  05:29:00        5.561       30.178        6.585       31.252       45.785       28.002      976.697     2096.281      784.126        0.242        0.193       30.686       34.655        1.275      331.753       -0.028      866.981
01/05/2021  05:30:00        9.722        7.322        8.513       25.742       43.943       24.907      662.657     1930.956      620.343        0.172        0.161       12.171       32.007        6.916      331.854        0.138      867.000
01/05/2021  05:31:00        1.362       22.821        1.701       29.030       49.818       25.545      842.737     2481.872      652.532        0.225        0.199       22.861       36.128        2.497      331.732       -0.063      867.014
01/05/2021  05:32:00      -36.296       37.406       -9.460       50.392       52.267       34.722     2539.365     2731.861     1205.620        0.464        0.324       52.121       38.189        0.537      331.794        0.040      867.017
01/05/2021  05:33:00      -85.799       17.594      -14.951       63.645       59.129       41.542     4050.719     3496.215     1725.734        0.858        0.464       87.585       30.130        0.118      331.597       -0.285      867.002
01/05/2021  05:34:00      -12.557       -0.070       -4.674       71.263       57.840       43.934     5078.397     3345.507     1930.221        0.526        0.518       12.557       42.459       11.433      331.509       -0.430      866.984
01/05/2021  05:35:00      -92.025       32.781        0.962       79.207       57.554       38.252     6273.724     3312.502     1463.220        1.029        0.552       97.689       36.361        0.139      331.506       -0.434      866.974
01/05/2021  05:36:00      -94.929       33.522      -17.586       67.759       58.972       36.453     4591.263     3477.670     1328.793        0.992        0.470      100.673       32.485        0.104      331.424       -0.569      866.966
01/05/2021  05:37:00      -75.984       36.987      -10.842       76.240       57.240       40.007     5812.483     3276.473     1600.580        0.897        0.534       84.508       37.706        0.199      331.408       -0.596      866.981
01/05/2021  05:38:00      -95.763       37.301        1.452       71.253       66.829       37.801     5077.031     4466.083     1428.915        1.077        0.549      102.771       29.052        0.080      331.345       -0.700      867.006
01/05/2021  05:39:00      -76.867       44.739       -5.875       66.541       57.207       37.899     4427.678     3272.686     1436.355        0.854        0.457       88.938       27.740        0.097      331.412       -0.589      867.045
01/05/2021  05:40:00      -72.366       45.776      -14.494       78.267       60.734       45.306     6125.690     3688.650     2052.624        0.970        0.593       85.629       43.819        0.262      331.385       -0.635      867.076
01/05/2021  05:41:00      -86.789       75.447      -17.372       57.504       53.176       34.473     3306.704     2827.721     1188.369        1.042        0.366      114.998       31.280        0.074      331.372       -0.655      867.087
01/05/2021  05:42:00      -98.471      106.683       -3.605       60.883       59.617       39.521     3706.782     3554.245     1561.942        1.496        0.441      145.182       32.482        0.050      331.405       -0.600      867.093
01/05/2021  05:43:00      -78.587       79.238       -4.845       59.918       52.965       36.980     3590.185     2805.304     1367.538        1.012        0.388      111.600       34.438        0.095      331.458       -0.515      867.087
01/05/2021  05:44:00      -82.555      111.311      -13.716       54.546       51.133       35.300     2975.275     2614.621     1246.083        1.311        0.342      138.584       28.949        0.044      331.635       -0.223      867.068
01/05/2021  05:45:00      -55.991       38.175       -9.791       61.883       55.059       42.623     3829.508     3031.504     1816.712        0.668        0.434       67.767       35.652        0.277      331.604       -0.273      867.047
01/05/2021  05:46:00      -52.362       31.853       -8.728       50.298       52.321       36.458     2529.860     2737.465     1329.217        0.521        0.330       61.289       33.946        0.307      331.562       -0.344      867.017
01/05/2021  05:47:00       -2.800       27.005        6.644       49.248       54.427       35.389     2425.412     2962.285     1252.355        0.371        0.332       27.149       37.366        1.894      331.545       -0.370      867.012
01/05/2021  05:48:00       27.732        5.643        6.678       40.380       47.553       28.421     1630.505     2261.279      807.743        0.277        0.235       28.300       35.719        1.593      331.438       -0.547      867.026
01/05/2021  05:49:00      -56.117       27.394        0.007       71.963       47.335       33.417     5178.628     2240.560     1116.693        0.622        0.427       62.447       35.073        0.315      331.327       -0.729      867.042
01/05/2021  05:50:00      -71.793       45.680       -6.208       63.217       52.424       38.016     3996.330     2748.303     1445.187        0.773        0.409       85.094       37.116        0.190      331.351       -0.689      867.062
01/05/2021  05:51:00      -61.867       42.059       10.512       66.504       52.346       34.488     4422.748     2740.110     1189.453        0.703        0.418       74.809       38.187        0.261      331.319       -0.742      867.071
01/05/2021  05:52:00      -77.948       53.598       -2.093       56.777       50.421       30.479     3223.576     2542.282      928.957        0.782        0.335       94.597       27.895        0.087      331.310       -0.757      867.097
01/05/2021  05:53:00      -46.507       33.820        0.771       51.323       50.910       30.763     2633.999     2591.875      946.337        0.474        0.309       57.504       32.355        0.317      331.316       -0.748      867.138
01/05/2021  05:54:00      -64.239       40.406       10.296       44.378       50.279       31.382     1969.376     2527.985      984.810        0.567        0.274       75.890       35.398        0.218      331.246       -0.863      867.162
01/05/2021  05:55:00      -33.714       56.472        3.397       53.955       55.190       38.756     2911.129     3045.949     1502.038        0.590        0.373       65.770       38.169        0.337      331.414       -0.587      867.179
01/05/2021  05:56:00        8.169       70.408        0.121       48.999       51.599       33.920     2400.911     2662.420     1150.596        0.562        0.311       70.880       27.164        0.147      331.428       -0.563      867.204
01/05/2021  05:57:00       22.203       34.894       -0.386       41.081       47.106       29.261     1687.647     2218.994      856.194        0.324        0.238       41.359       33.225        0.645      331.438       -0.548      867.228
01/05/2021  05:58:00        2.085       22.271        4.888       32.042       47.031       26.460     1026.688     2211.894      700.156        0.223        0.197       22.368       33.246        2.209      331.403       -0.604      867.244
01/05/2021  05:59:00      -11.435       48.000       11.877       55.833       51.506       33.409     3117.316     2652.914     1116.178        0.473        0.344       49.343       40.531        0.675      331.365       -0.667      867.239
01/05/2021  06:00:00      -72.321       27.037      -10.040       61.215       47.543       28.792     3747.256     2260.304      828.991        0.645        0.342       77.210       25.312        0.107      331.124       -1.063      867.227
01/05/2021  06:01:00      -30.876       21.034        7.278       53.389       50.184       31.561     2850.365     2518.448      996.091        0.391        0.318       37.360       30.905        0.684      331.075       -1.144      867.216
01/05/2021  06:02:00      -92.982       32.717        0.603       59.747       51.363       36.017     3569.675     2638.132     1297.214        0.861        0.375       98.570       39.937        0.164      331.090       -1.118      867.207
01/05/2021  06:03:00      -81.565       35.632        1.451       67.195       54.549       40.996     4515.122     2975.595     1680.662        0.855        0.459       89.008       37.819        0.181      331.104       -1.095      867.206
01/05/2021  06:04:00     -119.712       54.799        1.240       57.458       64.837       36.925     3301.366     4203.809     1363.458        1.310        0.443      131.658       31.218        0.056      331.102       -1.100      867.216
01/05/2021  06:05:00     -108.501       69.050       -0.023       70.290       56.448       44.733     4940.725     3186.395     2000.999        1.333        0.506      128.610       45.057        0.123      331.054       -1.176      867.216
01/05/2021  06:06:00     -110.935       59.274       -1.924       68.741       55.954       33.987     4725.307     3130.832     1155.107        1.242        0.451      125.778       31.924        0.064      331.146       -1.026      867.209
01/05/2021  06:07:00     -110.492       63.481       -5.376       59.309       45.404       37.477     3517.583     2061.550     1404.537        1.162        0.349      127.430       29.412        0.053      331.241       -0.872      867.199
01/05/2021  06:08:00      -95.981       41.081        0.716       55.559       44.589       37.095     3086.767     1988.210     1376.008        0.867        0.323      104.403       26.532        0.065      331.188       -0.958      867.173
01/05/2021  06:09:00      -84.539       48.382       -4.381       58.084       52.619       32.745     3373.797     2768.808     1072.247        0.836        0.361       97.405       31.996        0.108      331.174       -0.980      867.152
01/05/2021  06:10:00     -118.034       34.236       -6.107       55.826       55.855       36.075     3116.544     3119.815     1301.370        1.134        0.377      122.899       35.353        0.083      331.134       -1.047      867.112
01/05/2021  06:11:00      -98.327       26.332        3.481       64.073       58.474       39.435     4105.367     3419.200     1555.142        0.972        0.454      101.792       39.286        0.149      331.231       -0.887      867.065
01/05/2021  06:12:00     -111.704       47.933      -10.671       60.046       43.768       31.289     3605.471     1915.669      978.972        1.069        0.325      121.554       28.064        0.053      331.188       -0.957      867.017
01/05/2021  06:13:00      -65.041       36.092       -9.684       56.167       47.873       34.542     3154.694     2291.807     1193.176        0.613        0.332       74.383       32.521        0.191      331.229       -0.889      866.987
01/05/2021  06:14:00      -70.908       32.872        0.314       68.874       59.873       35.316     4743.620     3584.746     1247.248        0.784        0.479       78.157       30.638        0.154      331.288       -0.792      866.959
01/05/2021  06:15:00      -84.985       17.639        3.275       79.565       47.962       36.645     6330.550     2300.397     1342.828        0.876        0.499       86.796       29.367        0.114      331.362       -0.671      866.936
01/05/2021  06:16:00     -119.089        5.718       -5.478       85.781       49.794       35.469     7358.372     2479.477     1258.078        1.267        0.555      119.226       25.328        0.045      331.277       -0.813      866.911
01/05/2021  06:17:00      -23.633       23.417        8.107       75.075       52.180       40.537     5636.193     2722.795     1643.263        0.559        0.500       33.269       28.241        0.721      331.181       -0.969      866.891
01/05/2021  06:18:00     -158.203       68.995       -4.087       73.790       70.917       51.021     5445.036     5029.291     2603.124        2.144        0.654      172.594       42.966        0.062      331.238       -0.878      866.889
01/05/2021  06:19:00     -154.893       46.238        2.434      192.740       51.668       87.483    37148.690     2669.591     7653.301        3.679        2.374      161.647      108.678        0.452      331.193       -0.949      866.903
01/05/2021  06:20:00     -125.122       61.346        0.043       82.128       72.290       42.796     6745.074     5225.797     1831.469        1.661        0.690      139.352       29.202        0.044      331.136       -1.046      866.942
01/05/2021  06:21:00     -157.031       50.866        5.817       64.357       60.967       40.238     4141.820     3716.937     1619.078        1.838        0.474      165.064       30.030        0.033      331.075       -1.145      866.985
01/05/2021  06:22:00      -78.280       36.874       -4.247       81.500       63.362       35.841     6642.182     4014.690     1284.584        0.972        0.597       86.531       26.588        0.094      331.086       -1.126      867.032
01/05/2021  06:23:00     -103.348       23.256        3.489       64.880       50.708       38.413     4209.398     2571.286     1475.543        0.974        0.413      105.932       29.381        0.077      331.104       -1.096      867.077
01/05/2021  06:24:00     -129.082       24.132        0.685       75.431       54.928       42.524     5689.834     3017.031     1808.297        1.388        0.526      131.318       31.039        0.056      331.112       -1.084      867.113
01/05/2021  06:25:00     -116.807       37.384       -3.817       70.798       59.905       42.512     5012.384     3588.554     1807.247        1.273        0.520      122.644       26.275        0.046      331.153       -1.016      867.136
01/05/2021  06:26:00      -79.671       35.147        2.277      194.852       49.241       92.173    37967.293     2424.714     8495.934        2.823        2.444       87.079      122.914        1.992      331.149       -1.022      867.157
01/05/2021  06:27:00      -80.728       39.989        7.410       55.737       48.977       32.524     3106.620     2398.773     1057.830        0.737        0.328       90.090       29.353        0.106      331.096       -1.110      867.177
01/05/2021  06:28:00      -71.648       55.426       13.434       62.092       52.787       37.612     3855.371     2786.442     1414.627        0.822        0.403       90.584       30.338        0.112      331.049       -1.185      867.206
01/05/2021  06:29:00      -78.393       49.519        7.950       69.256       57.950       38.525     4796.459     3358.251     1484.183        0.915        0.482       92.723       34.675        0.140      331.084       -1.130      867.236
01/05/2021  06:30:00      -79.953       40.581       -3.281       44.304       51.882       32.407     1962.847     2691.770     1050.236        0.688        0.285       89.662       31.251        0.121      331.113       -1.081      867.268
01/05/2021  06:31:00      -39.980       27.324        1.873       49.082       45.948       32.204     2409.091     2111.260     1037.084        0.395        0.278       48.425       33.800        0.487      331.130       -1.055      867.293
01/05/2021  06:32:00      -17.068       28.415      -21.770      337.754       52.483      164.760   114077.667     2754.447    27145.847        7.274        7.199       33.147      231.284       48.685      331.371       -0.653      867.319
01/05/2021  06:33:00      -53.323       53.396       -8.187       52.447       44.703       35.069     2750.716     1998.325     1229.838        0.587        0.299       75.462       28.756        0.145      331.354       -0.685      867.328
01/05/2021  06:34:00      -43.243       21.220       -1.448       60.669       48.988       37.454     3680.718     2399.784     1402.805        0.490        0.374       48.169       34.801        0.522      331.340       -0.707      867.343
01/05/2021  06:35:00      -25.269       25.821        7.765       44.549       49.753       32.802     1984.570     2475.391     1075.958        0.345        0.277       36.128       39.365        1.187      331.273       -0.818      867.345
01/05/2021  06:36:00      -52.779       31.064       -2.960       42.273       46.892       31.942     1787.017     2198.905     1020.305        0.438        0.250       61.243       34.371        0.315      331.322       -0.738      867.340
01/05/2021  06:37:00      -34.579       26.065        1.435       43.872       48.532       33.803     1924.786     2355.381     1142.647        0.365        0.271       43.302       35.505        0.672      331.245       -0.863      867.333
01/05/2021  06:38:00      -47.012       16.955       -6.313       47.156       48.149       32.922     2223.680     2318.363     1083.890        0.408        0.281       49.976       31.578        0.399      331.308       -0.761      867.333
01/05/2021  06:39:00      -65.447       23.478       -4.165       56.978       45.454       31.942     3246.452     2066.108     1020.322        0.559        0.317       69.531       29.246        0.177      331.304       -0.768      867.321
01/05/2021  06:40:00      -74.304       34.668       -1.885       45.866       53.864       31.449     2103.657     2901.357      989.045        0.636        0.300       81.994       35.050        0.183      331.297       -0.779      867.304
01/05/2021  06:41:00      -76.575       26.268      -11.974       50.221       40.398       29.397     2522.135     1631.972      864.193        0.586        0.251       80.956       28.972        0.128      331.318       -0.743      867.287
01/05/2021  06:42:00      -42.042       18.875        7.300       53.157       54.438       34.468     2825.619     2963.453     1188.055        0.458        0.349       46.085       35.671        0.599      331.294       -0.785      867.287
01/05/2021  06:43:00       -7.202       13.889       11.252       35.641       48.404       26.741     1270.290     2342.900      715.069        0.235        0.216       15.646       33.707        4.642      331.242       -0.870      867.285
01/05/2021  06:44:00      -26.235       44.987        6.285       47.117       54.347       33.569     2219.971     2953.640     1126.850        0.452        0.315       52.078       42.773        0.675      331.330       -0.724      867.281
01/05/2021  06:45:00      -39.123       39.262        3.254       40.702       48.992       24.413     1656.658     2400.219      595.986        0.387        0.233       55.427       31.468        0.322      331.307       -0.762      867.270
01/05/2021  06:46:00      -56.396       34.369       -0.363       44.487       45.445       30.488     1979.107     2065.279      929.504        0.467        0.249       66.044       33.438        0.256      331.379       -0.643      867.259
01/05/2021  06:47:00      -71.603       20.799       -3.886       45.488       43.330       32.430     2069.130     1877.498     1051.706        0.529        0.250       74.562       31.432        0.178      331.431       -0.556      867.247
01/05/2021  06:48:00      -42.003       31.398        0.869       63.282       51.459       41.730     4004.614     2648.018     1741.426        0.557        0.420       52.441       37.366        0.508      331.444       -0.536      867.243
01/05/2021  06:49:00      -39.238       18.574        4.113       55.587       45.814       31.391     3089.877     2098.877      985.369        0.404        0.309       43.412       27.065        0.389      331.265       -0.831      867.236
01/05/2021  06:50:00      -86.072       31.979       -1.815       56.613       50.859       38.203     3205.018     2586.627     1459.495        0.784        0.363       91.820       36.650        0.159      331.298       -0.776      867.239
01/05/2021  06:51:00      -52.057       40.752       -2.604      228.138       42.929      114.784    52046.829     1842.872    13175.255        3.571        3.353       66.111      153.980        5.425      331.225       -0.896      867.256
01/05/2021  06:52:00      -84.485       54.196       11.619       67.026       54.893       39.273     4492.465     3013.201     1542.344        0.963        0.452      100.374       33.500        0.111      331.131       -1.053      867.284
01/05/2021  06:53:00      -95.083       66.054       -2.309      182.080       46.683       85.784    33153.224     2179.277     7358.822        2.804        2.135      115.775      116.548        1.013      331.156       -1.010      867.310
01/05/2021  06:54:00      -96.763       50.471        6.778       50.976       53.206       39.545     2598.548     2830.914     1563.810        0.947        0.350      109.135       32.695        0.090      331.122       -1.067      867.326
01/05/2021  06:55:00     -121.185       62.686       11.516       58.519       53.083       37.755     3424.442     2817.816     1425.450        1.321        0.383      136.438       35.798        0.069      331.194       -0.949      867.320
01/05/2021  06:56:00     -120.010       19.324       -8.452       79.735       55.418       35.118     6357.743     3071.194     1233.307        1.275        0.533      121.556       29.904        0.061      331.250       -0.857      867.301
01/05/2021  06:57:00     -114.724       30.617        2.634      176.981       57.299       76.102    31322.117     3283.207     5791.553        2.724        2.020      118.739       97.595        0.676      331.241       -0.870      867.279
01/05/2021  06:58:00     -110.528       35.492        9.582       76.438       55.058       38.520     5842.774     3031.437     1483.758        1.196        0.518      116.086       33.885        0.085      331.220       -0.904      867.256
01/05/2021  06:59:00      -38.753       11.328       13.952       66.682       57.927       32.376     4446.496     3355.551     1048.185        0.534        0.443       40.375       30.927        0.587      331.176       -0.979      867.243
01/05/2021  07:00:00      -44.663       27.235        6.496      168.590       51.007       81.129    28422.545     2601.723     6581.906        2.018        1.880       52.312      104.508        3.991      331.332       -0.721      867.237
01/05/2021  07:01:00      -61.475       46.998      -13.153      269.037       55.334      134.415    72380.938     3061.841    18067.292        4.982        4.676       77.382      183.034        5.595      331.396       -0.615      867.255
01/05/2021  07:02:00      -79.175       48.906        8.170       56.429       50.505       34.901     3184.240     2550.716     1218.093        0.784        0.348       93.062       35.954        0.149      331.160       -1.004      867.270
01/05/2021  07:03:00      -99.942       34.647        3.168       53.293       53.077       36.893     2840.097     2817.120     1361.106        0.911        0.351      105.777       27.087        0.066      331.208       -0.925      867.289
01/05/2021  07:04:00      -56.619       34.488        4.806       69.894       60.443       42.187     4885.213     3653.336     1779.705        0.737        0.516       66.296       32.660        0.243      331.232       -0.887      867.318
01/05/2021  07:05:00      -86.966       47.190        2.839       63.701       55.286       41.082     4057.845     3056.559     1687.748        0.930        0.440       98.944       32.011        0.105      331.262       -0.837      867.338
01/05/2021  07:06:00      -19.462       13.579       -2.644      209.127       63.592      106.925    43734.081     4043.985    11432.883        2.988        2.961       23.731      139.886       34.747      331.360       -0.674      867.366
01/05/2021  07:07:00      -47.858       18.473        1.197       56.371       54.120       32.144     3177.742     2928.981     1033.212        0.488        0.357       51.299       28.525        0.309      331.322       -0.738      867.381
01/05/2021  07:08:00      -67.953       28.295        1.882       56.578       52.143       34.763     3201.043     2718.861     1208.436        0.627        0.356       73.609       25.772        0.123      331.395       -0.617      867.389
01/05/2021  07:09:00      -57.445       -4.000        3.517       55.167       51.039       33.853     3043.359     2605.027     1146.021        0.506        0.340       57.584       25.230        0.192      331.372       -0.656      867.391
01/05/2021  07:10:00      -97.250      -28.714       -1.872       58.458       43.006       35.210     3417.325     1849.542     1239.716        0.839        0.325      101.401       29.273        0.083      331.448       -0.530      867.394
01/05/2021  07:11:00     -118.725      -29.192      -11.755       64.983       60.319       37.308     4222.728     3638.430     1391.864        1.217        0.463      122.262       33.704        0.076      331.368       -0.661      867.412
01/05/2021  07:12:00     -140.494       -3.977       -8.549       62.273       58.786       35.810     3877.988     3455.794     1282.373        1.422        0.431      140.551       32.163        0.052      331.290       -0.789      867.435
01/05/2021  07:13:00     -112.305      -10.784       -4.068       63.925       56.820       40.805     4086.419     3228.527     1665.067        1.086        0.449      112.821       33.910        0.090      331.187       -0.960      867.468
01/05/2021  07:14:00     -109.296       -0.955        1.260       77.017       56.369       47.964     5931.591     3177.448     2300.521        1.168        0.570      109.300       37.908        0.120      331.209       -0.924      867.503
01/05/2021  07:15:00      -46.826       29.710        9.143       78.324       63.441       39.537     6134.575     4024.771     1563.173        0.744        0.586       55.456       33.951        0.375      331.156       -1.012      867.540
01/05/2021  07:16:00      -72.289        6.067        9.933       77.367       53.903       41.423     5985.668     2905.554     1715.824        0.798        0.530       72.543       38.760        0.285      331.138       -1.041      867.554
01/05/2021  07:17:00     -109.841       12.216       -9.782       66.302       52.731       36.522     4395.992     2780.563     1333.853        1.041        0.426      110.518       34.920        0.100      331.131       -1.053      867.567
01/05/2021  07:18:00      -67.104       19.521        0.557       52.502       47.665       37.251     2756.483     2271.946     1387.634        0.565        0.321       69.886       35.166        0.253      331.127       -1.058      867.587
01/05/2021  07:19:00      -70.790       17.270       11.110       54.993       53.161       35.443     3024.199     2826.073     1256.203        0.627        0.355       72.867       39.234        0.290      331.190       -0.955      867.607
01/05/2021  07:20:00      -37.094       -1.404       12.006       45.921       52.544       33.536     2108.740     2760.829     1124.689        0.376        0.300       37.120       39.343        1.123      331.178       -0.976      867.630
01/05/2021  07:21:00      -14.405        9.272        7.463       37.244       51.355       30.419     1387.143     2637.313      925.307        0.265        0.247       17.131       36.601        4.565      331.256       -0.846      867.644
01/05/2021  07:22:00        0.570        1.976        5.470       30.738       42.729       22.988      944.848     1825.750      528.444        0.167        0.165        2.057       31.182      229.901      331.280       -0.807      867.643
01/05/2021  07:23:00        2.571       18.859       10.084       27.518       43.563       25.488      757.264     1897.720      649.656        0.188        0.165       19.034       33.520        3.102      331.234       -0.882      867.641
01/05/2021  07:24:00      -24.599       44.569       16.380       41.652       53.343       31.327     1734.873     2845.511      981.404        0.421        0.278       50.907       41.335        0.659      331.212       -0.919      867.639
01/05/2021  07:25:00      -42.417       40.777        5.341       36.142       52.616       31.530     1306.253     2768.394      994.171        0.428        0.253       58.838       38.658        0.432      331.160       -1.004      867.661
01/05/2021  07:26:00      -42.013       41.385        4.090       31.122       42.192       25.497      968.548     1780.127      650.084        0.345        0.170       58.973       29.992        0.259      331.112       -1.083      867.693
01/05/2021  07:27:00      -55.204       42.221        3.377       40.755       47.160       32.577     1661.008     2224.062     1061.232        0.489        0.247       69.499       35.348        0.259      331.144       -1.030      867.698
01/05/2021  07:28:00      -35.603       32.687        0.696      156.755       49.128       78.700    24572.040     2413.546     6193.675        1.775        1.659       48.333      102.840        4.527      331.223       -0.900      867.683
01/05/2021  07:29:00      -41.136       30.551        2.552       36.534       47.141       31.536     1334.708     2222.247      994.492        0.359        0.228       51.240       35.364        0.476      331.246       -0.864      867.659
01/05/2021  07:30:00      -43.086       25.919        2.122       38.866       46.159       28.012     1510.587     2130.661      784.645        0.348        0.221       50.282       32.052        0.406      331.330       -0.726      867.636
01/05/2021  07:31:00      -10.636       20.534        1.789      178.701       44.529       90.874    31933.901     1982.808     8258.149        2.135        2.109       23.125      119.517       26.711      331.362       -0.669      867.639
01/05/2021  07:32:00       22.186       16.155       16.355       32.757       47.386       30.590     1073.016     2245.451      935.760        0.264        0.213       27.445       36.862        1.804      331.326       -0.730      867.647
01/05/2021  07:33:00      -10.971       17.755        7.440       29.554       40.098       24.314      873.429     1607.818      591.170        0.178        0.154       20.871       30.457        2.130      331.331       -0.721      867.666
01/05/2021  07:34:00        2.045        4.518        6.962       29.833       43.477       26.139      889.986     1890.231      683.268        0.177        0.173        4.959       32.318       42.469      331.444       -0.537      867.690
01/05/2021  07:35:00       15.527      -17.027       -6.380       43.286       31.567       26.686     1873.684      996.490      712.131        0.208        0.179       23.044       25.668        1.241      331.402       -0.605      867.712
01/05/2021  07:36:00       45.167      -18.288      -13.928       59.003       35.038       35.178     3481.372     1227.656     1237.501        0.426        0.297       48.729       37.542        0.594      331.623       -0.242      867.717
01/05/2021  07:37:00       72.430      -38.750      -27.176      197.418       31.399       88.412    38973.861      985.902     7816.696        2.762        2.389       82.144      129.827        2.498      331.690       -0.133      867.736
01/05/2021  07:38:00       79.077      -32.655      -19.781       56.402       43.741       33.539     3181.168     1913.302     1124.851        0.696        0.311       85.554       34.577        0.163      331.472       -0.491      867.761
01/05/2021  07:39:00       47.460        8.470       -9.068       62.004       50.783       43.246     3844.464     2578.955     1870.215        0.535        0.415       48.210       38.185        0.627      331.509       -0.430      867.790
01/05/2021  07:40:00       49.462        9.388        6.435       74.452       50.359       47.137     5543.044     2536.075     2221.933        0.644        0.515       50.345       45.464        0.816      331.303       -0.769      867.824
01/05/2021  07:41:00       71.295       11.646       -3.516       87.567       53.642       48.399     7668.038     2877.475     2342.501        0.906        0.644       72.240       54.076        0.560      331.138       -1.041      867.856
01/05/2021  07:42:00      130.285       -1.183      -11.631       85.785       54.600       48.572     7359.103     2981.209     2359.214        1.490        0.635      130.291       47.055        0.130      331.128       -1.056      867.874
01/05/2021  07:43:00      132.814        4.271      -32.221      272.736       51.694      130.993    74384.797     2672.297    17159.278        5.644        4.711      132.882      185.688        1.953      331.455       -0.518      867.857
01/05/2021  07:44:00       91.786      -14.869      -13.826       71.003       46.157       40.622     5041.480     2130.491     1650.159        0.883        0.441       92.983       43.545        0.219      331.319       -0.743      867.837
01/05/2021  07:45:00       84.659       19.624      -18.590       56.478       49.289       30.935     3189.791     2429.436      956.956        0.724        0.329       86.903       31.909        0.135      331.190       -0.954      867.834
01/05/2021  07:46:00       97.101      -11.016       -8.375       63.970       47.581       37.347     4092.116     2263.937     1394.791        0.868        0.388       97.724       40.111        0.168      331.273       -0.820      867.833
01/05/2021  07:47:00      133.121        5.010      -18.584       58.316       40.629       33.097     3400.710     1650.714     1095.406        1.212        0.307      133.215       34.570        0.067      331.150       -1.019      867.837
01/05/2021  07:48:00      139.818       27.018       -9.996       60.944       31.393       34.588     3714.126      985.546     1196.325        1.314        0.295      142.405       38.595        0.073      331.062       -1.166      867.834
01/05/2021  07:49:00      140.965       45.889      -13.716       56.279       40.678       35.106     3167.321     1654.717     1232.410        1.411        0.303      148.246       32.722        0.049      331.007       -1.254      867.818
01/05/2021  07:50:00      138.556       77.081      -17.170       64.346       44.040       35.891     4140.472     1939.546     1288.158        1.640        0.368      158.554       35.941        0.051      331.027       -1.224      867.807
01/05/2021  07:51:00      141.709       57.857      -36.412      181.324       48.025       87.630    32878.548     2306.395     7678.977        3.380        2.143      153.065      122.604        0.642      331.055       -1.176      867.815
01/05/2021  07:52:00      144.989       44.366      -22.076       57.741       28.121       32.523     3334.032      790.779     1057.754        1.433        0.259      151.625       35.650        0.055      331.044       -1.195      867.847
01/05/2021  07:53:00      117.389       21.884      -18.685       56.773       33.221       32.105     3223.193     1103.653     1030.723        0.998        0.268      119.411       34.784        0.085      331.042       -1.198      867.899
01/05/2021  07:54:00      104.320        2.837      -11.256       56.776       31.562       34.007     3223.540      996.164     1156.485        0.820        0.269      104.359       39.216        0.141      331.143       -1.030      867.949
01/05/2021  07:55:00       86.525       26.522      -10.611       58.681       38.034       31.650     3443.473     1446.588     1001.722        0.710        0.295       90.498       38.202        0.178      331.123       -1.064      867.987
01/05/2021  07:56:00       95.757       52.972      -17.566       57.267       30.523       28.820     3279.483      931.675      830.621        0.866        0.252      109.432       34.716        0.101      331.016       -1.242      868.007
01/05/2021  07:57:00       75.342       15.640      -14.258       48.626       33.753       29.625     2364.494     1139.281      877.632        0.525        0.219       76.948       31.092        0.163      331.123       -1.064      868.009
01/05/2021  07:58:00       77.873      -22.830      -31.440       56.310       73.205       35.441     3170.838     5358.938     1256.031        0.868        0.489       81.151       31.888        0.154      331.279       -0.808      868.013
01/05/2021  07:59:00       84.244       21.042      -19.096       61.783       66.719       38.732     3817.105     4451.423     1500.131        0.883        0.488       86.833       35.550        0.168      331.225       -0.897      868.030
01/05/2021  08:00:00       51.770        3.650       -6.566       68.384       50.092       37.168     4676.439     2509.226     1381.471        0.565        0.428       51.899       37.043        0.509      331.255       -0.847      868.043
01/05/2021  08:01:00       79.681       10.830       -9.717       68.087       36.897       33.060     4635.898     1361.403     1092.967        0.682        0.355       80.413       38.427        0.228      331.146       -1.029      868.058
01/05/2021  08:02:00      166.295       40.434      -13.412       60.792       28.446       35.394     3695.614      809.181     1252.770        1.761        0.288      171.140       38.978        0.052      330.998       -1.271      868.080
01/05/2021  08:03:00      177.329       47.252      -19.465       62.448       32.750       36.300     3899.716     1072.534     1317.673        2.017        0.314      183.516       38.650        0.044      330.983       -1.295      868.088
01/05/2021  08:04:00      108.717       52.854      -15.563       49.160       34.967       28.430     2416.661     1222.668      808.249        0.965        0.222      120.884       26.518        0.048      330.976       -1.306      868.096
01/05/2021  08:05:00       76.336       29.575      -11.164       52.942       32.548       27.770     2802.893     1059.381      771.164        0.573        0.232       81.865       30.143        0.136      330.987       -1.289      868.090
01/05/2021  08:06:00       75.164       58.181      -17.117       56.747       20.548       28.025     3220.167      422.201      785.415        0.688        0.221       95.051       36.118        0.144      331.051       -1.184      868.107
01/05/2021  08:07:00       68.031       52.244      -20.752       51.300       22.345       24.313     2631.728      499.307      591.144        0.575        0.186       85.777       28.515        0.111      331.091       -1.117      868.130
01/05/2021  08:08:00       50.625       41.209      -11.958       55.465       16.595       28.481     3076.369      275.382      811.154        0.428        0.208       65.277       35.642        0.298      331.169       -0.990      868.156
01/05/2021  08:09:00       69.398       20.927      -12.429       45.254       43.295       25.450     2047.903     1874.482      647.684        0.499        0.229       72.485       29.451        0.165      331.232       -0.885      868.162
01/05/2021  08:10:00       63.831       -4.244      -23.337       64.391       37.391       28.943     4146.141     1398.068      837.706        0.551        0.319       63.972       35.701        0.311      331.353       -0.688      868.152
01/05/2021  08:11:00       65.968      -11.050       -9.542       50.701       28.319       37.586     2570.576      801.961     1412.727        0.467        0.239       66.887       39.352        0.346      331.275       -0.815      868.147
01/05/2021  08:12:00       65.768       -8.496      -15.022       57.999       19.054       24.328     3363.869      363.070      591.832        0.447        0.216       66.314       32.716        0.243      331.260       -0.839      868.152
01/05/2021  08:13:00       51.686       11.894      -16.137       64.522       27.214       30.639     4163.064      740.618      938.755        0.446        0.292       53.037       40.898        0.595      331.350       -0.691      868.176
01/05/2021  08:14:00       96.210       60.406      -17.230       55.173       25.466       28.839     3044.008      648.506      831.713        0.886        0.226      113.601       34.595        0.093      331.203       -0.934      868.217
01/05/2021  08:15:00       76.416       53.678      -16.882       58.923       26.080       30.616     3471.957      680.188      937.332        0.705        0.254       93.385       39.452        0.178      331.319       -0.742      868.265
01/05/2021  08:16:00       95.410       13.577      -21.969       59.346       33.794       29.674     3521.896     1142.013      880.526        0.766        0.277       96.371       39.901        0.171      331.339       -0.709      868.293
01/05/2021  08:17:00       61.677        9.155      -16.620       56.350       38.917       32.052     3175.267     1514.518     1027.362        0.494        0.286       62.353       37.594        0.364      331.467       -0.499      868.305
01/05/2021  08:18:00       94.813      -60.747      -21.774       58.967       43.576       30.635     3477.067     1898.865      938.487        0.973        0.316      112.604       36.828        0.107      331.503       -0.440      868.309
01/05/2021  08:19:00      106.870      -18.848      -17.040       65.167       49.340       33.117     4246.688     2434.403     1096.705        0.992        0.389      108.519       35.776        0.109      331.436       -0.552      868.314
01/05/2021  08:20:00       78.461      -27.213      -26.359       59.886       50.568       28.797     3586.368     2557.160      829.292        0.728        0.349       83.046       37.497        0.204      331.577       -0.316      868.323
01/05/2021  08:21:00       70.336      -40.161      -22.209       55.307       38.233       26.684     3058.849     1461.740      712.020        0.614        0.262       80.994       30.848        0.145      331.597       -0.285      868.333
01/05/2021  08:22:00       88.617      -69.662      -27.143       53.497       38.775       23.554     2861.879     1503.476      554.814        0.918        0.246      112.720       32.536        0.083      331.512       -0.426      868.343
01/05/2021  08:23:00      115.115      -62.161      -29.422       52.127       38.188       24.783     2717.246     1458.354      614.203        1.138        0.239      130.826       29.453        0.051      331.644       -0.207      868.339
01/05/2021  08:24:00       84.112      -67.620      -25.597       56.966       29.485       26.286     3245.161      869.346      690.937        0.855        0.240      107.923       35.885        0.111      331.768       -0.004      868.336
01/05/2021  08:25:00       74.775      -83.543      -23.924       52.541       39.827       26.871     2760.602     1586.150      722.034        0.910        0.253      112.119       32.543        0.084      331.752       -0.030      868.340
01/05/2021  08:26:00       77.434     -105.043      -25.795       49.287       31.333       24.216     2429.196      981.750      586.437        1.085        0.200      130.499       30.401        0.054      331.645       -0.206      868.356
01/05/2021  08:27:00       66.068      -65.553      -26.878       56.288       39.307       27.627     3168.294     1545.007      763.260        0.743        0.274       93.070       35.961        0.149      331.823        0.088      868.376
01/05/2021  08:28:00       34.406      -62.314      -20.272       57.623       45.447       31.907     3320.448     2065.430     1018.052        0.594        0.320       71.182       37.556        0.278      331.864        0.154      868.406
01/05/2021  08:29:00       96.705      -78.753      -22.422       60.416       38.288       32.787     3650.094     1466.004     1074.961        1.112        0.310      124.716       40.435        0.105      331.733       -0.062      868.419
01/05/2021  08:30:00       90.643      -67.442      -28.751       55.699       30.884       28.864     3102.431      953.814      833.118        0.924        0.244      112.981       34.514        0.093      331.745       -0.041      868.433
01/05/2021  08:31:00       95.138      -54.545      -39.228       56.844       43.377       28.863     3231.258     1881.535      833.050        0.975        0.297      109.665       34.287        0.098      331.920        0.246      868.439
01/05/2021  08:32:00       79.684      -76.619      -32.662       57.443       33.427       29.024     3299.647     1117.344      842.387        0.927        0.263      110.544       36.644        0.110      331.913        0.233      868.445
01/05/2021  08:33:00       86.120        5.091      -22.179       55.386       47.402       33.899     3067.638     2246.940     1149.166        0.720        0.323       86.270       32.669        0.143      331.883        0.187      868.459
01/05/2021  08:34:00      102.355        9.342      -18.281       63.314       46.523       40.979     4008.719     2164.425     1679.262        0.937        0.393      102.780       39.916        0.151      331.855        0.140      868.487
01/05/2021  08:35:00       91.169      -22.768      -19.468       51.069       35.910       30.869     2608.085     1289.529      952.879        0.703        0.243       93.969       35.695        0.144      331.920        0.245      868.514
01/05/2021  08:36:00       91.676       14.314      -25.335       76.725       50.837       37.076     5886.720     2584.439     1374.609        0.955        0.492       92.787       42.372        0.209      331.980        0.346      868.523
01/05/2021  08:37:00       54.287      -34.243      -11.325       58.378       39.504       34.642     3407.948     1560.552     1200.035        0.521        0.308       64.184       37.192        0.336      332.077        0.507      868.518
01/05/2021  08:38:00       94.599      -44.566      -29.972       63.675       43.610       31.241     4054.465     1901.875      975.990        0.938        0.347      104.571       33.530        0.103      332.233        0.764      868.507
01/05/2021  08:39:00       81.147      -39.119      -29.100       59.969       58.582       31.870     3596.323     3431.856     1015.665        0.850        0.402       90.084       35.092        0.152      332.292        0.859      868.500
01/05/2021  08:40:00       75.596      -89.488      -37.514       55.281       52.357       28.857     3056.039     2741.271      832.705        1.088        0.332      117.144       32.518        0.077      332.225        0.749      868.498
01/05/2021  08:41:00       53.629      -89.361      -29.437       68.155       59.637       35.894     4645.069     3556.570     1288.384        1.061        0.475      104.219       39.111        0.141      332.093        0.532      868.517
01/05/2021  08:42:00      107.715      -57.531      -26.292       58.628       54.819       36.580     3437.271     3005.172     1338.110        1.169        0.389      122.116       39.537        0.105      332.271        0.825      868.534
01/05/2021  08:43:00       65.630      -42.328      -23.365       62.858       72.827       38.796     3951.181     5303.772     1505.095        0.870        0.538       78.096       37.849        0.235      332.136        0.602      868.544
01/05/2021  08:44:00       86.771      -74.050      -28.042       69.713       50.607       42.076     4859.969     2561.090     1770.361        1.149        0.460      114.073       45.308        0.158      332.415        1.062      868.551
01/05/2021  08:45:00       65.872     -101.269      -26.681       63.420       42.647       29.156     4022.159     1818.795      850.079        1.100        0.335      120.808       35.465        0.086      332.208        0.721      868.570
01/05/2021  08:46:00      111.787     -101.495      -32.108       49.485       39.060       29.416     2448.782     1525.651      865.277        1.433        0.242      150.989       29.552        0.038      332.202        0.710      868.583
01/05/2021  08:47:00       74.705      -74.641      -17.968       48.380       49.074       28.442     2340.657     2408.280      808.954        0.852        0.278      105.603       28.348        0.072      332.331        0.925      868.589
01/05/2021  08:48:00       57.198      -45.543      -25.116       62.787       53.052       40.554     3942.159     2814.471     1644.640        0.719        0.420       73.114       42.398        0.336      332.440        1.104      868.610
01/05/2021  08:49:00       68.753        8.511      -22.256       50.533       59.112       36.622     2553.592     3494.207     1341.172        0.634        0.369       69.277       29.675        0.183      332.339        0.937      868.619
01/05/2021  08:50:00       82.114      -11.275       -4.000       54.772       45.276       37.973     2999.927     2049.933     1441.914        0.669        0.325       82.885       34.922        0.178      332.265        0.815      868.625
01/05/2021  08:51:00       94.331        9.681      -27.701       65.409       42.512       32.963     4278.359     1807.307     1086.528        0.846        0.359       94.827       38.963        0.169      332.338        0.935      868.632
01/05/2021  08:52:00       64.813        3.898      -18.589       65.689       58.426       36.497     4315.092     3413.635     1332.002        0.681        0.453       64.930       36.213        0.311      332.583        1.341      868.643
01/05/2021  08:53:00      108.259      -48.202      -25.940       54.922       25.775       29.863     3016.444      664.343      891.781        0.964        0.229      118.505       33.309        0.079      332.235        0.764      868.654
01/05/2021  08:54:00      141.504      -55.811      -28.859       49.869       40.192       27.170     2486.878     1615.366      738.183        1.440        0.242      152.113       28.493        0.035      332.170        0.659      868.670
01/05/2021  08:55:00      117.076       -9.076      -32.704       59.248       49.696       28.490     3510.348     2469.740      811.694        1.082        0.340      117.427       33.181        0.080      332.350        0.957      868.689
01/05/2021  08:56:00       82.557       -2.651      -16.900       72.640       56.497       46.447     5276.634     3191.928     2157.331        0.886        0.531       82.599       51.773        0.393      332.640        1.433      868.694
01/05/2021  08:57:00       83.620       36.521      -33.327       72.113       52.701       45.674     5200.243     2777.347     2086.122        0.975        0.503       91.247       46.789        0.263      332.651        1.450      868.701
01/05/2021  08:58:00      104.944      -32.721      -34.322       62.555       44.181       30.306     3913.175     1951.976      918.440        1.002        0.339      109.927       23.918        0.047      332.598        1.365      868.706
01/05/2021  08:59:00      139.450      -39.624      -29.365       75.531       40.249       43.264     5704.969     1620.019     1871.805        1.554        0.460      144.970       46.344        0.102      332.471        1.156      868.704
01/05/2021  09:00:00      137.760      -62.282      -28.896       68.606       49.303       35.434     4706.832     2430.780     1255.596        1.604        0.420      151.185       40.460        0.072      332.523        1.239      868.693
01/05/2021  09:01:00      123.210      -43.616      -25.517       55.575       37.692       30.225     3088.527     1420.699      913.533        1.158        0.271      130.702       27.974        0.046      332.506        1.212      868.688
01/05/2021  09:02:00      148.841      -51.144      -28.987       49.906       32.175       32.304     2490.581     1035.227     1043.567        1.509        0.228      157.383       29.626        0.035      332.432        1.090      868.673
01/05/2021  09:03:00      117.875      -37.562      -29.302       75.760       47.750       39.080     5739.585     2280.045     1527.242        1.285        0.477      123.715       43.913        0.126      332.612        1.387      868.658
01/05/2021  09:04:00      144.945      -54.935      -33.546       64.993       49.604       36.595     4224.109     2460.580     1339.214        1.659        0.401      155.006       40.888        0.070      332.681        1.501      868.643
01/05/2021  09:05:00       97.626      -24.759      -35.645       70.603       47.874       40.759     4984.832     2291.881     1661.300        1.017        0.447      100.717       42.620        0.179      333.104        2.200      868.641
01/05/2021  09:06:00       78.542      -27.928      -21.527       73.553       41.776       34.774     5409.989     1745.245     1209.246        0.789        0.418       83.360       42.222        0.257      333.093        2.182      868.639
01/05/2021  09:07:00       52.434      -46.095      -12.109       60.348       47.752       34.181     3641.879     2280.231     1168.349        0.605        0.355       69.815       38.868        0.310      332.955        1.954      868.647
01/05/2021  09:08:00       51.706       -4.032      -18.011       75.980       43.476       35.889     5773.004     1890.171     1288.047        0.598        0.448       51.863       45.996        0.787      332.914        1.887      868.651
01/05/2021  09:09:00       48.174      -13.504      -15.006       75.589       37.058       34.004     5713.737     1373.262     1156.272        0.548        0.412       50.031       43.412        0.753      332.997        2.024      868.648
01/05/2021  09:10:00       13.791      -35.084       -8.341       54.009       51.571       33.245     2916.952     2659.525     1105.262        0.408        0.334       37.697       37.642        0.997      332.995        2.021      868.643
01/05/2021  09:11:00       22.913       -4.533        3.659       43.797       20.668       27.716     1918.201      427.152      768.199        0.184        0.156       23.357       29.752        1.623      333.089        2.174      868.640
01/05/2021  09:12:00      -21.656        3.059        0.217       24.788       14.566       14.102      614.458      212.155      198.876        0.075        0.051       21.871        8.510        0.151      332.891        1.848      868.645
01/05/2021  09:13:00      -28.461       -6.028       -6.079       25.121        7.496       12.759      631.061       56.189      162.787        0.087        0.043       29.093       12.473        0.184      332.838        1.762      868.642
01/05/2021  09:14:00      -31.580       -8.579       -2.804       22.549       16.251       17.523      508.472      264.101      307.055        0.108        0.054       32.725        5.720        0.031      332.903        1.868      868.649
01/05/2021  09:15:00       47.166      -28.665      -18.751       64.190       36.546       35.077     4120.386     1335.578     1230.378        0.504        0.334       55.193       43.311        0.616      333.297        2.520      868.652
01/05/2021  09:16:00       41.058       -9.270      -16.704       53.003       37.737       39.614     2809.359     1424.071     1569.291        0.393        0.290       42.092       35.343        0.705      333.383        2.662      868.649
01/05/2021  09:17:00       65.819      -11.667      -23.432       65.305       38.279       36.278     4264.778     1465.253     1316.072        0.603        0.352       66.845       42.072        0.396      333.216        2.385      868.642
01/05/2021  09:18:00       45.456       -3.436      -12.517       60.603       36.490       33.467     3672.725     1331.509     1120.022        0.418        0.306       45.586       36.616        0.645      333.230        2.408      868.629
01/05/2021  09:19:00       69.711       49.177       -7.624       70.801       52.147       38.273     5012.840     2719.317     1464.858        0.826        0.460       85.311       47.693        0.313      333.258        2.456      868.619
01/05/2021  09:20:00       57.898       13.124      -24.770       64.839       56.185       31.282     4204.095     3156.734      978.562        0.624        0.417       59.367       37.878        0.407      333.098        2.191      868.606
01/05/2021  09:21:00        4.440      -19.421       -3.116       39.153       26.085       27.152     1532.967      680.448      737.255        0.168        0.148       19.922       24.946        1.568      333.494        2.845      868.596
01/05/2021  09:22:00      -36.938        2.924       -3.066       19.466       21.265       14.441      378.928      452.191      208.545        0.121        0.052       37.053        6.024        0.026      333.035        2.086      868.590
01/05/2021  09:23:00      -17.977        4.414       -3.662       22.260       11.632       14.544      495.505      135.294      211.539        0.060        0.042       18.511        7.013        0.144      333.142        2.264      868.580
01/05/2021  09:24:00       10.331      -22.628      -12.842       42.493       24.353       21.799     1805.640      593.054      475.215        0.183        0.144       24.875       26.630        1.146      333.311        2.542      868.572
01/05/2021  09:25:00      -18.598      -26.852      -19.046       39.363       34.851       22.709     1549.453     1214.611      515.689        0.235        0.164       32.663       12.615        0.149      333.201        2.361      868.582
01/05/2021  09:26:00       -6.758      -28.082      -17.915       46.725       32.786       24.969     2183.257     1074.893      623.451        0.252        0.194       28.884       27.626        0.915      333.190        2.342      868.582
01/05/2021  09:27:00       -6.016        7.214      -12.902       54.542       17.677       27.288     2974.864      312.482      744.620        0.214        0.202        9.393       28.999        9.532      333.047        2.106      868.581
01/05/2021  09:28:00        7.325       -0.230        0.864       35.413       28.258       27.370     1254.068      798.525      749.140        0.143        0.140        7.328       20.405        7.753      333.369        2.640      868.572
01/05/2021  09:29:00       11.987       -5.430      -16.906       55.420       36.967       26.511     3071.370     1366.562      702.812        0.280        0.257       13.159       33.160        6.350      333.260        2.458      868.563
01/05/2021  09:30:00       -4.695       -5.723       -2.429       17.220       24.641       14.024      296.536      607.180      196.670        0.058        0.055        7.403       12.234        2.731      333.208        2.371      868.565
01/05/2021  09:31:00      -22.008       -6.219       -0.897       36.219       16.677       19.885     1311.848      278.110      395.430        0.125        0.099       22.870       15.619        0.466      333.276        2.485      868.557
01/05/2021  09:32:00      -15.385       -7.129        0.103       31.463       20.532       19.457      989.946      421.568      378.570        0.104        0.090       16.957       13.031        0.591      333.296        2.520      868.564
01/05/2021  09:33:00      -27.910      -14.990       -0.982       41.369       31.896       22.561     1711.353     1017.349      509.021        0.212        0.162       31.681       16.720        0.279      333.342        2.593      868.572
01/05/2021  09:34:00       -1.743       10.876        6.337       21.988       27.133       13.391      483.480      736.210      179.325        0.078        0.070       11.014       11.278        1.048      333.457        2.784      868.586
01/05/2021  09:35:00      -24.846        3.543       -3.160       21.400       13.883       13.757      457.976      192.742      189.268        0.074        0.042       25.098        8.680        0.120      333.265        2.466      868.601
01/05/2021  09:36:00       -4.048      -16.018       -1.264       36.846       31.117       19.488     1357.607      968.283      379.792        0.149        0.135       16.522       17.699        1.148      333.404        2.697      868.612
01/05/2021  09:37:00       63.857      -36.258      -16.634       57.527       59.538       36.295     3309.312     3544.802     1317.301        0.692        0.409       73.432       41.886        0.325      333.393        2.678      868.624
01/05/2021  09:38:00       17.025      -12.791      -33.392       63.533       45.226       30.618     4036.387     2045.368      937.491        0.429        0.351       21.295       35.734        2.816      333.592        3.008      868.633
01/05/2021  09:39:00       42.692      -60.882      -12.116       49.133       38.552       30.810     2414.064     1486.226      949.251        0.526        0.242       74.359       27.477        0.137      333.472        2.809      868.644
01/05/2021  09:40:00       87.641     -111.927      -31.548       61.541       43.585       30.443     3787.249     1899.618      926.804        1.391        0.331      142.157       40.855        0.083      333.106        2.204      868.648
01/05/2021  09:41:00       64.316      -35.306      -23.491       46.784       28.244       28.012     2188.737      797.734      784.664        0.485        0.189       73.369       33.350        0.207      333.171        2.311      868.646
01/05/2021  09:42:00       57.108       -4.928      -19.579       60.680       42.773       36.056     3682.090     1829.490     1300.006        0.524        0.341       57.320       38.172        0.443      333.403        2.696      868.647
01/05/2021  09:43:00       97.739       11.159      -25.385       85.429       59.341       47.091     7298.125     3521.402     2217.577        1.168        0.652       98.374       55.164        0.314      333.275        2.483      868.648
01/05/2021  09:44:00      112.389       17.245      -28.073       67.739       50.784       35.904     4588.572     2579.055     1289.091        1.108        0.423      113.704       38.236        0.113      333.290        2.507      868.670
01/05/2021  09:45:00       84.721       11.005      -23.165       60.612       63.244       37.317     3673.793     3999.747     1392.558        0.845        0.453       85.433       33.670        0.155      333.473        2.811      868.691
01/05/2021  09:46:00      118.182      -59.429      -36.613       40.843       31.990       18.565     1668.126     1023.375      344.646        1.094        0.152      132.283       20.577        0.024      333.201        2.360      868.694
01/05/2021  09:47:00       61.769       26.040      -14.050       48.472       67.523       34.969     2349.493     4559.375     1222.828        0.641        0.407       67.033       26.805        0.160      333.544        2.929      868.690
01/05/2021  09:48:00       59.500        4.177      -13.151       51.913       57.795       38.451     2694.927     3340.224     1478.443        0.562        0.376       59.647       32.199        0.291      333.490        2.840      868.676
01/05/2021  09:49:00       70.481       -1.254      -24.432       62.123       51.696       40.467     3859.220     2672.461     1637.607        0.687        0.408       70.492       39.773        0.318      333.734        3.244      868.678
01/05/2021  09:50:00       89.948        1.883      -16.513       73.496       56.292       41.926     5401.630     3168.752     1757.803        0.935        0.516       89.968       39.845        0.196      333.503        2.861      868.682
01/05/2021  09:51:00       87.952        6.934      -19.953       64.044       50.971       31.358     4101.578     2598.052      983.333        0.793        0.384       88.225       36.821        0.174      333.472        2.810      868.696
01/05/2021  09:52:00       71.000       11.703      -10.405       53.196       45.325       28.305     2829.779     2054.336      801.198        0.548        0.284       71.958       30.746        0.183      333.407        2.702      868.690
01/05/2021  09:53:00       37.855      -28.303       -4.964       67.176       49.362       27.749     4512.555     2436.654      769.980        0.499        0.386       47.265       31.440        0.442      333.579        2.986      868.686
01/05/2021  09:54:00      103.724     -110.833      -34.098       61.317       50.941       34.995     3759.786     2594.996     1224.680        1.589        0.379      151.798       40.826        0.072      333.377        2.650      868.669
01/05/2021  09:55:00       98.574      -33.234      -37.217       49.145       63.816       39.242     2415.217     4072.475     1539.947        1.012        0.401      104.025       28.899        0.077      333.449        2.771      868.662
01/05/2021  09:56:00      140.448     -129.764      -44.877       54.089       45.013       33.883     2925.627     2026.186     1148.062        2.234        0.305      191.219       33.580        0.031      333.232        2.410      868.647
01/05/2021  09:57:00      113.971      -29.461      -33.916       58.833       62.327       26.062     3461.298     3884.621      679.236        1.151        0.401      117.717       28.809        0.060      333.400        2.689      868.652
01/05/2021  09:58:00       75.960        7.708      -27.611       56.023       50.492       31.275     3138.622     2549.444      978.121        0.663        0.333       76.350       28.643        0.141      333.599        3.019      868.659
01/05/2021  09:59:00        5.898      -10.437      -13.292       47.810       51.027       30.413     2285.809     2603.802      924.931        0.307        0.291       11.988       29.541        6.072      333.733        3.242      868.663
01/05/2021  10:00:00      -15.755       31.348       -3.171       29.408       41.095       19.334      864.834     1688.801      373.791        0.208        0.146       35.084       16.973        0.234      333.437        2.751      868.664
01/05/2021  10:01:00      -29.607        4.298       -2.342       19.767       23.451       11.394      390.734      549.950      129.831        0.099        0.054       29.918       10.659        0.127      333.614        3.045      868.672
01/05/2021  10:02:00       37.593      -18.663      -12.922       64.886       28.195       25.419     4210.174      794.949      646.132        0.379        0.283       41.971       27.418        0.427      333.710        3.203      868.670
01/05/2021  10:03:00      111.143      -17.330      -16.026       72.564       49.385       41.062     5265.563     2438.908     1686.063        1.115        0.470      112.486       33.855        0.091      333.617        3.049      868.671
01/05/2021  10:04:00      100.615       -9.457      -18.589       85.337       51.948       45.518     7282.339     2698.589     2071.929        1.130        0.603      101.058       55.693        0.304      333.674        3.143      868.666
01/05/2021  10:05:00       72.343       33.471       -0.146       74.866       56.479       40.498     5604.992     3189.856     1640.064        0.839        0.522       79.711       46.356        0.338      333.778        3.317      868.650
01/05/2021  10:06:00       78.356        8.160       -9.824       82.520       67.597       45.687     6809.508     4569.393     2087.300        0.988        0.673       78.780       48.459        0.378      334.050        3.767      868.636
01/05/2021  10:07:00      109.705       50.709      -13.098       79.154       71.464       43.150     6265.356     5107.101     1861.949        1.400        0.662      120.857       43.419        0.129      333.749        3.267      868.626
01/05/2021  10:08:00       90.923       30.426      -21.702       68.716       57.229       35.342     4721.864     3275.141     1249.082        0.945        0.462       95.879       23.974        0.063      333.673        3.141      868.622
01/05/2021  10:09:00       26.244      -21.075      -10.065       46.631       50.575       28.175     2174.443     2557.815      793.825        0.338        0.276       33.658       30.732        0.834      333.967        3.629      868.612
01/05/2021  10:10:00       33.489        7.028       -4.576       43.313       40.940       27.617     1876.030     1676.054      762.691        0.275        0.216       34.218       24.905        0.530      334.057        3.780      868.599
01/05/2021  10:11:00       39.896      -47.006      -23.146       58.812       46.980       27.125     3458.816     2207.081      735.761        0.537        0.320       61.654       31.044        0.254      333.906        3.528      868.586
01/05/2021  10:12:00       34.990       -4.110      -13.010       39.417       34.446       26.092     1553.710     1186.505      680.799        0.242        0.171       35.231       26.625        0.571      333.969        3.634      868.588
01/05/2021  10:13:00      -10.893       23.549       -3.184       18.972       17.075       15.690      359.942      291.549      246.163        0.079        0.045       25.946        9.320        0.129      333.772        3.307      868.591
01/05/2021  10:14:00       10.246       21.855       -2.133       31.403       30.485       21.743      986.136      929.336      472.752        0.149        0.119       24.137       16.917        0.491      333.897        3.514      868.587
01/05/2021  10:15:00       30.243       41.564       -1.473       38.096       23.412       22.835     1451.309      548.138      521.432        0.258        0.126       51.402       22.029        0.184      334.054        3.773      868.578
01/05/2021  10:16:00       13.343      -22.479        8.690       52.170       66.875       36.730     2721.740     4472.258     1349.082        0.465        0.427       26.141       26.806        1.052      333.927        3.562      868.574
01/05/2021  10:17:00        7.974       14.269       -2.093       49.292       30.259       25.046     2429.679      915.613      627.300        0.212        0.199       16.346       17.540        1.151      333.869        3.467      868.574
01/05/2021  10:18:00      132.851       77.485      -24.556       39.298       30.844       20.570     1544.325      951.355      423.109        1.359        0.146      153.796       17.324        0.013      333.414        2.712      868.586
01/05/2021  10:19:00       69.495       26.408      -10.909       60.534       41.918       29.001     3664.374     1757.157      841.030        0.595        0.313       74.343       35.323        0.226      333.799        3.352      868.612
01/05/2021  10:20:00      103.355       54.343      -19.598       51.942       23.261       30.065     2698.014      541.073      903.899        0.908        0.207      116.770       25.930        0.049      333.696        3.180      868.649
01/05/2021  10:21:00      118.721       32.962      -17.755       58.105       21.941       23.531     3376.226      481.419      553.706        0.995        0.221      123.212       31.235        0.064      333.453        2.776      868.677
01/05/2021  10:22:00       56.450       23.437       -7.047       61.091       60.109       25.532     3732.093     3613.082      651.869        0.589        0.400       61.122       26.990        0.195      333.971        3.636      868.702
01/05/2021  10:23:00       44.971      -26.827      -20.877       52.029       63.919       35.821     2707.062     4085.594     1283.120        0.563        0.404       52.365       31.498        0.362      334.142        3.920      868.715
01/05/2021  10:24:00       46.807       27.781      -12.929       43.262       57.983       29.588     1871.630     3361.971      875.449        0.462        0.305       54.430       23.033        0.179      333.886        3.494      868.724
01/05/2021  10:25:00       10.307      -59.495      -17.417       40.869       36.914       24.159     1670.293     1362.631      583.640        0.378        0.181       60.381       16.609        0.076      334.192        4.002      868.746
01/05/2021  10:26:00      -37.423      -30.008       -2.000       28.011       28.055       18.155      784.609      787.063      329.604        0.210        0.095       47.969       10.951        0.052      334.064        3.790      868.754
01/05/2021  10:27:00       63.393       56.043      -21.682       58.290       32.838       28.026     3397.738     1078.341      785.430        0.644        0.263       84.614       35.846        0.179      333.898        3.515      868.771
01/05/2021  10:28:00       85.639       47.812      -20.783       33.595       18.577       21.237     1128.624      345.091      451.023        0.599        0.096       98.082       15.500        0.025      333.637        3.082      868.799
01/05/2021  10:29:00      103.570       50.354      -21.910       37.219       23.803       20.986     1385.260      566.568      440.412        0.807        0.120      115.162       16.812        0.021      333.612        3.041      868.813
01/05/2021  10:30:00       50.700       48.455      -18.348       49.756       33.732       24.907     2475.686     1137.866      620.379        0.474        0.212       70.131       19.353        0.076      333.819        3.384      868.833
01/05/2021  10:31:00      103.416       61.049      -21.294       35.886       20.535       18.691     1287.818      421.686      349.345        0.847        0.103      120.090       21.089        0.031      333.635        3.079      868.851
01/05/2021  10:32:00       45.298        3.881      -11.249       56.585       49.928       29.620     3201.914     2492.849      877.331        0.438        0.329       45.464       30.753        0.458      334.070        3.801      868.850
01/05/2021  10:33:00       95.493       92.607      -21.211       51.239       35.551       28.857     2625.448     1263.885      832.725        1.143        0.236      133.023       30.382        0.052      333.981        3.651      868.857
01/05/2021  10:34:00       85.640       56.004      -18.590       45.435       37.657       24.272     2064.358     1418.016      589.149        0.744        0.204      102.326       23.765        0.054      333.900        3.519      868.856
01/05/2021  10:35:00       70.117       48.244      -10.544       24.899       23.784       19.728      619.938      565.673      389.204        0.446        0.079       85.111       15.321        0.032      333.915        3.543      868.836
01/05/2021  10:36:00      114.919       30.042      -22.625       44.715       41.072       27.013     1999.412     1686.870      729.705        0.952        0.221      118.781       21.742        0.034      333.847        3.430      868.817
01/05/2021  10:37:00       72.359       45.910      -24.513       41.321       37.084       21.891     1707.384     1375.249      479.226        0.575        0.178       85.694       23.492        0.075      333.800        3.352      868.808
01/05/2021  10:38:00       22.907        3.501        3.168       32.849       18.546       23.215     1079.028      343.949      538.951        0.125        0.098       23.173       23.262        1.008      334.084        3.823      868.794
01/05/2021  10:39:00       12.610       34.189      -13.169       29.214       28.145       20.899      853.435      792.143      436.758        0.179        0.104       36.440       15.722        0.186      333.899        3.516      868.778
01/05/2021  10:40:00      -27.578      -10.400       -7.604       46.193       27.460       21.757     2133.808      754.040      473.366        0.214        0.168       29.473       16.578        0.316      334.121        3.885      868.750
01/05/2021  10:41:00      -44.794        4.560       -6.409       50.430       28.184       15.401     2543.208      794.364      237.204        0.282        0.179       45.026       20.268        0.203      334.227        4.061      868.727
01/05/2021  10:42:00       14.236      -10.897        3.889       26.922       24.359       20.208      724.769      593.368      408.357        0.103        0.086       17.928       14.526        0.656      334.420        4.380      868.703
01/05/2021  10:43:00      -80.123      -13.249       -1.034       44.874       42.439       34.191     2013.713     1801.108     1169.057        0.579        0.249       81.211       29.627        0.133      334.235        4.074      868.689
01/05/2021  10:44:00      -84.729      -20.618        1.088       47.204       42.697       24.472     2228.223     1822.995      598.876        0.613        0.233       87.201       10.939        0.016      334.100        3.850      868.670
01/05/2021  10:45:00     -104.393      -14.396       -8.538       60.913       32.047       28.163     3710.335     1027.013      793.177        0.835        0.277      105.381       30.551        0.084      334.010        3.699      868.665
01/05/2021  10:46:00      -51.923       -7.171        6.321       50.711       43.127       32.432     2571.615     1859.915     1051.818        0.413        0.274       52.416       28.435        0.294      334.160        3.950      868.663
01/05/2021  10:47:00      -84.434      -29.531       -3.958       56.848       45.130       28.159     3231.657     2036.707      792.919        0.704        0.303       89.449       28.039        0.098      334.051        3.768      868.656
01/05/2021  10:48:00      -89.413      -35.363       -9.994       34.090       19.269       19.045     1162.115      371.310      362.694        0.562        0.095       96.152       17.312        0.032      333.882        3.489      868.646
01/05/2021  10:49:00      -63.699        8.857       -5.348       35.386       79.842       19.402     1252.194     6374.784      376.433        0.608        0.400       64.312       17.875        0.077      333.882        3.489      868.634
01/05/2021  10:50:00      -25.300       35.295      -11.039       26.402       26.491       22.001      697.081      701.755      484.037        0.194        0.094       43.426       21.174        0.238      334.008        3.698      868.647
01/05/2021  10:51:00       -9.994       74.243       -7.301       15.595       27.074       13.119      243.193      732.993      172.119        0.341        0.057       74.912        9.421        0.016      333.861        3.453      868.691
01/05/2021  10:52:00       12.826       44.892       -6.497       25.241       17.509       19.475      637.087      306.568      379.280        0.177        0.066       46.688       16.302        0.122      334.030        3.734      868.696
01/05/2021  10:53:00      -30.860       61.192      -13.021       17.648       20.571       19.607      311.436      423.148      384.446        0.299        0.056       68.533       10.665        0.024      334.021        3.720      868.701
01/05/2021  10:54:00      -45.326       48.234        1.502       33.124       30.770       22.482     1097.200      946.785      505.423        0.347        0.127       66.188       19.069        0.083      334.166        3.961      868.707
01/05/2021  10:55:00      -25.318       54.250        1.013       21.353       42.231       23.316      455.946     1783.455      543.641        0.318        0.139       59.867       16.801        0.079      334.413        4.368      868.717
01/05/2021  10:56:00      -67.727       19.496      -12.866       20.536       46.224       20.840      421.729     2136.660      434.306        0.406        0.150       70.477        8.933        0.016      334.013        3.706      868.716
01/05/2021  10:57:00      -17.344       -7.178        0.256       32.660       25.693       14.669     1066.681      660.137      215.188        0.115        0.097       18.771       13.660        0.530      334.285        4.157      868.704
01/05/2021  10:58:00        3.742       26.535       -3.071       15.130       38.501       17.977      228.905     1482.347      323.172        0.138        0.102       26.798        5.639        0.044      334.471        4.466      868.690
01/05/2021  10:59:00       -9.214      -12.577       -6.843       12.155       20.239       12.743      147.739      409.628      162.378        0.050        0.036       15.591        9.776        0.393      334.260        4.115      868.660
01/05/2021  11:00:00       14.477        1.763        6.462       26.625       35.574       19.716      708.870     1265.480      388.735        0.131        0.118       14.584       13.786        0.894      334.614        4.704      868.642
01/05/2021  11:01:00       26.121      -86.899      -23.105       51.778       42.673       28.038     2680.925     1820.982      786.138        0.703        0.264       90.740       21.381        0.056      334.665        4.788      868.628
01/05/2021  11:02:00       44.960      -74.115      -23.147       54.795       45.803       25.445     3002.524     2097.915      647.464        0.690        0.287       86.686       25.641        0.087      334.726        4.888      868.626
01/05/2021  11:03:00       53.229      -40.496       -9.970       42.191       32.729       29.975     1780.101     1071.217      898.521        0.416        0.187       66.882       29.678        0.197      334.462        4.450      868.632
01/05/2021  11:04:00      101.198      -28.528      -28.262       41.064       35.648       20.342     1686.285     1270.786      413.790        0.761        0.169      105.142       21.249        0.041      334.197        4.012      868.623
01/05/2021  11:05:00       57.602      -43.045      -21.640       47.309       55.320       30.180     2238.182     3060.329      910.812        0.592        0.310       71.909       33.964        0.223      334.336        4.241      868.614
01/05/2021  11:06:00       50.837      -63.561      -21.556       32.461       26.389       15.597     1053.738      696.363      243.278        0.454        0.100       81.391       19.166        0.055      334.403        4.354      868.618
01/05/2021  11:07:00       50.837       -3.876      -15.445       41.281       47.368       28.358     1704.104     2243.772      804.202        0.379        0.238       50.985       27.195        0.285      334.791        4.996      868.615
01/05/2021  11:08:00       12.499        5.324        4.383       23.710       31.343       23.793      562.154      982.376      566.123        0.116        0.106       13.585       16.856        1.539      334.931        5.231      868.612
01/05/2021  11:09:00       68.992       54.544      -10.153       51.266       52.535       26.256     2628.165     2759.963      689.354        0.696        0.304       87.949       25.455        0.084      334.839        5.078      868.607
01/05/2021  11:10:00       64.593       45.804      -10.274       32.454       46.308       19.782     1053.293     2144.418      391.332        0.498        0.179       79.185       20.405        0.066      334.631        4.731      868.589
01/05/2021  11:11:00       33.460      -27.523       -9.630       49.309       65.783       30.353     2431.410     4327.375      921.294        0.482        0.384       43.326       24.008        0.307      335.091        5.493      868.566
01/05/2021  11:12:00       82.903       85.848      -15.191       47.555       35.922       28.910     2261.439     1290.376      835.787        0.943        0.219      119.343       32.987        0.076      334.695        4.838      868.563
01/05/2021  11:13:00       32.099      -11.698      -15.099       54.687       83.070       27.079     2990.698     6900.555      733.286        0.601        0.531       34.164       29.694        0.755      334.698        4.843      868.547
01/05/2021  11:14:00      115.523       63.820      -23.939       52.234       41.590       27.152     2728.441     1729.725      737.254        1.159        0.260      131.979       29.685        0.051      334.600        4.679      868.544
01/05/2021  11:15:00       93.690      -57.775      -26.896       65.753       74.279       38.064     4323.500     5517.441     1448.832        1.206        0.564      110.071       36.520        0.110      334.779        4.978      868.538
01/05/2021  11:16:00      134.597     -103.761      -21.528       70.800       67.817       34.428     5012.708     4599.106     1185.265        2.007        0.540      169.949       26.790        0.025      334.533        4.566      868.525
01/05/2021  11:17:00      133.663      -90.399      -32.534       79.051       53.926       38.234     6249.038     2908.017     1461.815        1.886        0.531      161.362       38.480        0.057      334.611        4.696      868.514
01/05/2021  11:18:00      114.946     -136.412      -32.793       62.006       62.255       34.030     3844.684     3875.702     1158.071        2.089        0.444      178.384       21.382        0.014      334.548        4.591      868.492
01/05/2021  11:19:00       97.117      -19.449      -28.764       96.632       98.045       40.954     9337.795     9612.918     1677.195        1.563        1.031       99.045       36.600        0.137      334.748        4.926      868.471
01/05/2021  11:20:00       33.027        8.051       -5.878       55.258       42.987       32.889     3053.408     1847.859     1081.704        0.359        0.299       33.994       34.623        1.037      335.205        5.684      868.468
01/05/2021  11:21:00       77.263      -44.670      -27.745       68.398       83.273       43.874     4678.305     6934.462     1924.933        1.113        0.677       89.247       39.630        0.197      335.093        5.498      868.451
01/05/2021  11:22:00       66.437      -39.801      -15.746       60.620       49.314       35.488     3674.738     2431.879     1259.412        0.680        0.368       77.447       33.390        0.186      334.847        5.090      868.449
01/05/2021  11:23:00       77.955        4.229      -26.233       58.776       58.499       28.198     3454.565     3422.128      795.125        0.723        0.384       78.070       20.009        0.066      334.694        4.835      868.448
01/05/2021  11:24:00       59.714      -13.148       -0.427       75.163       65.729       43.212     5649.447     4320.243     1867.265        0.779        0.592       61.145       46.769        0.585      334.718        4.877      868.436
01/05/2021  11:25:00      144.539       28.719      -11.536       75.858       42.142       40.787     5754.498     1775.977     1663.615        1.552        0.460      147.365       45.324        0.095      334.609        4.695      868.417
01/05/2021  11:26:00       86.866      -22.168      -21.732       80.943       57.544       38.060     6551.826     3311.335     1448.543        0.991        0.566       89.650       25.969        0.084      335.013        5.365      868.393
01/05/2021  11:27:00       76.493      -30.554      -18.385       72.974       63.019       39.000     5325.223     3971.439     1520.973        0.897        0.541       82.369       38.233        0.215      334.814        5.034      868.366
01/05/2021  11:28:00      111.538       34.007      -22.511       53.902       41.649       31.446     2905.456     1734.611      988.878        0.987        0.281      116.607       27.574        0.056      334.477        4.474      868.376
01/05/2021  11:29:00        6.152       29.352       -2.160       32.561       24.789       20.623     1060.217      614.489      425.290        0.150        0.105       29.990       12.688        0.179      334.571        4.632      868.368
01/05/2021  11:30:00       33.175       24.069       -8.973       38.788       34.993       18.097     1504.472     1224.519      327.519        0.241        0.153       40.987       17.023        0.173      334.922        5.216      868.381
01/05/2021  11:31:00       67.085       45.243       -7.339       52.981       34.158       26.000     2807.034     1166.737      676.008        0.562        0.232       80.916       24.100        0.089      334.762        4.950      868.376
01/05/2021  11:32:00       69.735       26.813      -14.590       54.829       61.470       29.392     3006.238     3778.603      863.879        0.672        0.382       74.712       23.593        0.100      334.843        5.084      868.365
01/05/2021  11:33:00       96.318     -132.102      -29.969       46.701       59.754       29.258     2180.972     3570.539      856.016        1.712        0.330      163.487       27.698        0.029      334.744        4.919      868.345
01/05/2021  11:34:00       96.412      -78.674      -24.674       53.671       51.243       32.149     2880.601     2625.826     1033.544        1.132        0.327      124.438       32.427        0.068      334.754        4.937      868.321
01/05/2021  11:35:00      120.160      -60.854      -28.610       57.267       58.881       34.665     3279.537     3467.017     1201.661        1.345        0.397      134.691       29.619        0.048      334.782        4.981      868.298
01/05/2021  11:36:00      145.345     -143.723      -37.801       70.880       76.057       38.749     5023.933     5784.713     1501.458        2.776        0.616      204.405       49.595        0.059      334.668        4.789      868.274
01/05/2021  11:37:00       72.545      -63.017      -21.110       75.810       92.182       38.701     5747.155     8497.442     1497.753        1.271        0.787       96.093       32.528        0.115      335.078        5.474      868.264
01/05/2021  11:38:00      108.233     -104.699      -18.772       67.122       84.639       49.125     4505.382     7163.716     2413.300        1.855        0.704      150.587       44.215        0.086      334.980        5.309      868.251
01/05/2021  11:39:00       80.176       19.166       -1.070       69.687       70.327       51.205     4856.271     4945.855     2621.936        0.961        0.621       82.435       37.596        0.208      334.914        5.200      868.246
01/05/2021  11:40:00      112.643      -57.550      -14.413       57.082       44.730       33.699     3258.331     2000.816     1135.619        1.130        0.320      126.493       30.075        0.057      334.690        4.830      868.247
01/05/2021  11:41:00      132.019      -18.126       -9.189      103.125       61.089       50.938    10634.752     3731.880     2594.715        1.740        0.848      133.257       54.580        0.168      334.916        5.203      868.243
01/05/2021  11:42:00      140.695       -1.795       -3.766      110.554       58.254       49.622    12222.281     3393.538     2462.296        1.894        0.904      140.707       50.734        0.130      334.829        5.058      868.247
01/05/2021  11:43:00      121.986       31.996       -9.882       74.487       65.910       39.977     5548.347     4344.124     1598.194        1.374        0.575      126.112       35.664        0.080      335.056        5.437      868.239
01/05/2021  11:44:00       83.480       10.048       -6.063       46.026       62.612       22.208     2118.391     3920.236      493.191        0.682        0.327       84.082       20.018        0.057      335.057        5.439      868.243
01/05/2021  11:45:00       43.658      -15.096       -4.823       40.714       42.757       34.556     1657.670     1828.200     1194.109        0.342        0.234       46.194       27.648        0.358      335.391        5.994      868.204
01/05/2021  11:46:00       32.304      -18.180        2.667       50.123       60.648       41.481     2512.289     3678.218     1720.678        0.464        0.396       37.069       35.806        0.933      335.364        5.949      868.177
01/05/2021  11:47:00       34.492       19.763       -0.312       49.516       49.023       30.664     2451.862     2403.243      940.302        0.369        0.290       39.753       33.250        0.700      335.453        6.097      868.182
01/05/2021  11:48:00       59.557      -50.975      -12.891       51.980       75.250       42.728     2701.962     5662.520     1825.712        0.825        0.510       78.394       36.040        0.211      335.280        5.808      868.177
01/05/2021  11:49:00       96.977     -126.766      -38.700       48.290       47.208       25.167     2331.921     2228.557      633.390        1.608        0.260      159.607       20.642        0.017      334.686        4.822      868.161
01/05/2021  11:50:00       14.934      -58.611      -15.754       50.812       47.735       39.237     2581.815     2278.635     1539.526        0.515        0.320       60.484       21.322        0.124      335.191        5.662      868.141
01/05/2021  11:51:00       18.903      -86.508      -12.508       72.037       73.372       32.630     5189.356     5383.409     1064.748        0.981        0.582       88.549       32.494        0.135      335.310        5.858      868.115
01/05/2021  11:52:00       61.676      -82.855      -28.047       75.983      132.669       39.183     5773.401    17600.967     1535.292        1.818        1.245      103.290       45.775        0.196      335.399        6.007      868.086
01/05/2021  11:53:00       87.962       -0.930      -20.860       55.163       83.387       33.983     3043.004     6953.385     1154.832        0.966        0.558       87.967       29.728        0.114      335.455        6.100      868.061
01/05/2021  11:54:00       46.430        1.144      -12.833       62.513       71.031       47.646     3907.909     5045.410     2270.125        0.677        0.561       46.444       31.056        0.447      335.464        6.115      868.040
01/05/2021  11:55:00       96.217      103.968      -19.384       56.398       39.860       28.653     3180.699     1588.783      820.999        1.302        0.280      141.658       18.287        0.017      334.931        5.228      868.034
01/05/2021  11:56:00       81.063       61.276      -17.285       40.158       22.427       21.274     1612.666      502.957      452.594        0.660        0.128      101.617       14.642        0.021      335.000        5.344      868.008
01/05/2021  11:57:00       93.137       -0.875      -16.242       61.968       56.491       32.990     3840.082     3191.289     1088.350        0.853        0.406       93.141       28.981        0.097      335.206        5.685      867.995
01/05/2021  11:58:00       70.751      -29.395      -16.906       67.844       78.979       33.395     4602.822     6237.726     1115.200        0.905        0.598       76.614       35.390        0.213      335.455        6.100      867.977
01/05/2021  11:59:00      100.183      -12.814      -12.395       51.304       48.752       36.972     2632.112     2376.756     1366.935        0.836        0.319      100.999       27.329        0.073      335.136        5.569      867.983
01/05/2021  12:00:00      132.906       17.150      -24.515       57.397       56.897       30.086     3294.410     3237.302      905.194        1.300        0.372      134.008       21.928        0.027      335.216        5.702      867.970
01/05/2021  12:01:00       41.852        3.152       -2.658       51.981       54.587       36.218     2702.057     2979.787     1311.767        0.438        0.350       41.971       37.008        0.777      335.639        6.406      867.960
01/05/2021  12:02:00       93.016      -19.864      -15.647       77.606       88.520       52.139     6022.676     7835.853     2718.428        1.293        0.829       95.114       33.076        0.121      335.376        5.967      867.932
01/05/2021  12:03:00       94.251        2.694      -15.606       81.294       97.829       59.481     6608.701     9570.551     3538.041        1.442        0.986       94.289       49.037        0.270      335.203        5.680      867.929
01/05/2021  12:04:00      135.026      -35.554      -31.409       46.814       84.824       38.812     2191.588     7195.104     1506.406        1.569        0.545      139.629       39.405        0.080      335.058        5.440      867.929
01/05/2021  12:05:00       59.240       25.790       -7.579       74.052       46.110       34.863     5483.669     2126.155     1215.433        0.653        0.441       64.610       43.204        0.447      334.976        5.305      867.929
01/05/2021  12:06:00      110.923       98.246      -15.298       60.875       39.305       23.625     3705.721     1544.887      558.164        1.400        0.290      148.176       32.708        0.049      334.905        5.185      867.911
01/05/2021  12:07:00       93.584       66.540      -17.909       33.295       31.168       22.495     1108.527      971.454      506.014        0.805        0.129      114.828       17.469        0.023      335.108        5.524      867.887
01/05/2021  12:08:00      101.367       -2.276      -18.438       61.332       56.150       31.558     3761.653     3152.844      995.882        0.926        0.396      101.392       23.057        0.052      335.393        5.997      867.867
01/05/2021  12:09:00       71.845      -29.188      -14.339       60.515       36.666       34.413     3662.008     1344.424     1184.261        0.620        0.310       77.547       23.643        0.093      335.358        5.939      867.850
01/05/2021  12:10:00       44.692      -31.398       -3.696       60.549       38.484       33.851     3666.212     1480.996     1145.872        0.464        0.315       54.618       30.415        0.310      335.356        5.936      867.842
01/05/2021  12:11:00       44.854      -60.613       -7.688       36.988       41.896       28.594     1368.143     1755.262      817.627        0.484        0.197       75.405       21.678        0.083      335.345        5.917      867.826
01/05/2021  12:12:00       54.308      -18.133       -8.739       33.181       36.159       21.196     1100.971     1307.490      449.276        0.311        0.143       57.255       20.164        0.124      335.598        6.337      867.799
01/05/2021  12:13:00      -14.444       11.138        2.056       37.311       37.925       24.755     1392.109     1438.333      612.810        0.189        0.172       18.240       24.237        1.766      335.876        6.802      867.773
01/05/2021  12:14:00       55.509      -39.435      -19.205       67.963       57.563       35.071     4618.919     3313.510     1229.954        0.708        0.458       68.091       29.061        0.182      335.663        6.447      867.744
01/05/2021  12:15:00       66.962        2.644      -12.139       62.712       78.528       46.185     3932.788     6166.609     2133.068        0.843        0.612       67.014       35.623        0.283      335.674        6.465      867.719
01/05/2021  12:16:00       86.242       32.696       -8.189       63.981       67.976       40.968     4093.580     4620.675     1678.394        0.948        0.520       92.232       26.717        0.084      335.547        6.253      867.721
01/05/2021  12:17:00      109.348       25.087       -7.129       53.201       76.433       37.817     2830.380     5842.023     1430.111        1.137        0.505      112.189       18.320        0.027      335.488        6.154      867.714
01/05/2021  12:18:00      171.897       75.535      -24.955       51.877       55.150       31.534     2691.201     3041.564      994.399        2.130        0.336      187.761       17.862        0.009      335.230        5.725      867.712
01/05/2021  12:19:00       98.552        3.623      -10.453       97.865       80.919       37.414     9577.602     6547.890     1399.813        1.368        0.876       98.618       40.601        0.170      335.458        6.104      867.690
01/05/2021  12:20:00       93.394      -57.529      -14.090       50.362       47.396       29.303     2536.334     2246.351      858.643        0.893        0.282      109.691       32.915        0.090      335.342        5.911      867.680
01/05/2021  12:21:00       47.486       -4.807      -12.923       50.923       68.419       42.481     2593.160     4681.118     1804.642        0.576        0.454       47.729       21.644        0.206      335.796        6.668      867.654
01/05/2021  12:22:00      149.779        1.753      -26.595       91.748       75.460       48.106     8417.668     5694.187     2314.191        1.978        0.821      149.789       48.094        0.103      335.294        5.832      867.631
01/05/2021  12:23:00       86.621      -29.992      -23.637       64.789       55.081       45.293     4197.622     3033.936     2051.489        0.912        0.464       91.666       38.535        0.177      335.380        5.976      867.621
01/05/2021  12:24:00      164.836      -40.739      -27.864       67.789       56.335       36.151     4595.346     3173.664     1306.912        1.934        0.454      169.796       25.600        0.023      335.181        5.643      867.597
01/05/2021  12:25:00       86.174      -33.187      -26.572       84.151       66.895       39.374     7081.472     4474.947     1550.332        1.117        0.655       92.344       42.699        0.214      335.545        6.249      867.571
01/05/2021  12:26:00       87.153      -85.941      -23.688       78.386       63.283       43.126     6144.334     4004.742     1859.894        1.377        0.600      122.399       29.348        0.057      335.483        6.146      867.551
01/05/2021  12:27:00      103.537       -3.584      -30.797       69.330       92.597       39.288     4806.586     8574.180     1543.529        1.330        0.746      103.599       34.154        0.109      335.561        6.276      867.527
01/05/2021  12:28:00        7.207      -17.087      -25.054       99.663      100.223       49.208     9932.760    10044.578     2421.404        1.168        1.120       18.545       44.145        5.667      335.582        6.310      867.523
01/05/2021  12:29:00      -36.659        6.465      -21.528       46.657       39.913       20.983     2176.871     1593.076      440.294        0.303        0.211       37.225       16.245        0.190      335.755        6.600      867.520
01/05/2021  12:30:00       30.556       27.923       -0.531       37.156       30.600       22.359     1380.601      936.342      499.923        0.226        0.141       41.393       20.001        0.233      335.516        6.202      867.517
01/05/2021  12:31:00       38.035       29.704      -16.527       28.346       25.133       16.112      803.472      631.690      259.582        0.215        0.085       48.260       14.913        0.095      335.352        5.928      867.511
01/05/2021  12:32:00       19.479      -13.861       -8.572       47.585       41.418       28.592     2264.286     1715.453      817.526        0.272        0.240       23.907       15.427        0.416      335.728        6.554      867.505
01/05/2021  12:33:00      115.777        7.905      -16.141       83.776       80.582       38.242     7018.435     6493.466     1462.413        1.435        0.749      116.047       33.842        0.085      335.452        6.095      867.500
01/05/2021  12:34:00       43.972      -56.018      -25.103       89.593       63.683       36.436     8026.864     4055.501     1327.603        0.955        0.670       71.215       29.233        0.168      335.725        6.550      867.495
01/05/2021  12:35:00      138.983        6.577      -20.195       66.344       74.171       39.055     4401.484     5501.375     1525.265        1.560        0.571      139.139       35.766        0.066      335.332        5.895      867.505
01/05/2021  12:36:00       77.355      -82.882      -24.161       43.199       82.119       28.707     1866.170     6743.494      824.099        1.143        0.472      113.372       32.673        0.083      335.439        6.072      867.521
01/05/2021  12:37:00       54.292      -63.596      -16.507       61.937       83.565       35.385     3836.230     6983.172     1252.087        0.967        0.604       83.618       35.191        0.177      335.719        6.539      867.522
01/05/2021  12:38:00       74.796      -23.799      -18.702       40.152       45.320       25.672     1612.144     2053.925      659.031        0.542        0.216       78.491       15.116        0.037      335.423        6.047      867.522
01/05/2021  12:39:00       73.701     -121.956      -31.091       72.025       70.592       33.212     5187.628     4983.269     1103.064        1.627        0.564      142.497       26.025        0.033      335.409        6.024      867.509
01/05/2021  12:40:00       43.857      -36.552      -20.696       60.399       74.858       34.616     3647.998     5603.763     1198.290        0.707        0.523       57.092       36.440        0.407      335.448        6.088      867.509
01/05/2021  12:41:00       -1.386       13.226       -0.181       25.273       31.857       21.665      638.707     1014.867      469.392        0.115        0.106       13.298       11.910        0.802      335.773        6.630      867.501
01/05/2021  12:42:00      -12.214      -92.669      -32.528       44.864       32.425       26.117     2012.777     1051.412      682.074        0.677        0.187       93.470       18.092        0.037      335.776        6.633      867.496
01/05/2021  12:43:00       26.901       -3.752      -15.800       45.285       37.191       21.768     2050.753     1383.192      473.841        0.245        0.195       27.161       21.188        0.609      335.601        6.343      867.493
01/05/2021  12:44:00      135.466      -57.196      -24.992       58.116       86.410       34.283     3377.415     7466.737     1175.321        1.713        0.601      147.045       34.662        0.056      335.157        5.604      867.498
01/05/2021  12:45:00       20.810      -21.798      -14.056       55.411       75.617       33.013     3070.427     5717.875     1089.834        0.549        0.494       30.137       28.215        0.877      335.692        6.495      867.497
01/05/2021  12:46:00       22.463        7.497        3.256      103.897       75.791       33.178    10794.685     5744.237     1100.803        0.910        0.882       23.681       41.088        3.010      335.711        6.527      867.500
01/05/2021  12:47:00       78.982      -32.895       -9.852       66.245       52.890       34.729     4388.443     2797.335     1206.126        0.790        0.420       85.558       31.692        0.137      335.623        6.380      867.509
01/05/2021  12:48:00       63.213      -15.488      -13.477       66.440       47.487       29.974     4414.234     2255.046      898.444        0.599        0.378       65.083       21.041        0.105      335.575        6.302      867.504
01/05/2021  12:49:00      -24.139     -101.792      -33.723       72.129       68.297       39.510     5202.552     4664.539     1561.040        1.175        0.571      104.615       39.599        0.143      335.761        6.609      867.500
01/05/2021  12:50:00       82.738      -45.763      -18.558       52.456       45.341       38.350     2751.595     2055.829     1470.756        0.778        0.314       94.551       33.463        0.125      335.738        6.572      867.511
01/05/2021  12:51:00       45.133       -1.043       -9.807       40.300       53.039       26.417     1624.129     2813.139      697.843        0.363        0.257       45.146       18.798        0.173      335.699        6.507      867.516
01/05/2021  12:52:00        9.823        9.254        7.206       47.079       50.505       32.281     2216.454     2550.799     1042.040        0.302        0.290       13.495       22.990        2.902      335.710        6.525      867.511
01/05/2021  12:53:00        6.440       36.969      -13.338       38.878       25.675       20.822     1511.503      659.204      433.561        0.209        0.130       37.526       15.734        0.176      335.563        6.281      867.507
01/05/2021  12:54:00        0.367       41.094       -0.161       38.380       21.738       17.000     1472.990      472.555      289.015        0.196        0.112       41.096       11.890        0.084      335.582        6.312      867.487
01/05/2021  12:55:00       33.715       49.467        1.534       31.161       23.817       19.698      971.016      567.230      388.025        0.276        0.096       59.864       10.881        0.033      335.480        6.143      867.475
01/05/2021  12:56:00      120.283       40.518      -15.647       75.665       66.990       27.349     5725.167     4487.594      747.989        1.366        0.548      126.924       23.980        0.036      335.415        6.032      867.457
01/05/2021  12:57:00       90.506       -7.062      -10.557       97.446       98.303       66.386     9495.686     9663.473     4407.089        1.595        1.178       90.781       62.874        0.480      335.573        6.295      867.425
01/05/2021  12:58:00      122.574        4.935      -38.166       81.439       74.077       46.822     6632.390     5487.418     2192.292        1.541        0.716      122.673       40.735        0.110      335.370        5.957      867.429
01/05/2021  12:59:00      115.825       31.038       -0.821       63.100       71.134       37.354     3981.585     5060.011     1395.348        1.241        0.522      119.911       32.769        0.075      335.546        6.252      867.431
01/05/2021  13:00:00       94.159      -18.150      -13.206       79.332       80.988       52.032     6293.602     6559.124     2707.298        1.246        0.778       95.892       47.809        0.249      335.549        6.255      867.414
01/05/2021  13:01:00      106.248        6.922      -10.345       83.844       70.829       48.287     7029.844     5016.735     2331.636        1.291        0.719      106.473       42.287        0.158      335.431        6.060      867.407
01/05/2021  13:02:00       76.129        2.362      -23.045       72.571       64.449       53.305     5266.595     4153.670     2841.372        0.929        0.613       76.165       41.975        0.304      335.457        6.101      867.406
01/05/2021  13:03:00      133.757      -27.994      -17.785       48.276       41.753       26.424     2330.581     1743.278      698.220        1.188        0.239      136.655       24.838        0.033      335.297        5.837      867.395
01/05/2021  13:04:00       85.036       17.042       -8.731       50.526       48.317       24.916     2552.848     2334.492      620.811        0.655        0.275       86.727       22.142        0.065      335.405        6.015      867.389
01/05/2021  13:05:00       87.484      -10.006       -4.888       51.834       33.883       29.856     2686.767     1148.036      891.361        0.625        0.236       88.055       27.397        0.097      335.592        6.329      867.378
01/05/2021  13:06:00       36.658     -106.494      -18.011       67.127       55.036       32.984     4506.066     3028.972     1087.913        1.081        0.431      112.627       20.630        0.034      335.828        6.721      867.369
01/05/2021  13:07:00      123.970      -85.862      -32.425       57.176       68.084       45.318     3269.121     4635.438     2053.743        1.687        0.498      150.801       36.770        0.059      335.649        6.423      867.357
01/05/2021  13:08:00       73.181     -107.435      -19.742       69.885       53.922       37.858     4883.855     2907.559     1433.217        1.325        0.461      129.991       44.208        0.116      335.474        6.131      867.341
01/05/2021  13:09:00       85.517       -3.331      -15.494       51.438       49.215       33.076     2645.914     2422.092     1094.022        0.686        0.308       85.582       28.939        0.114      335.709        6.524      867.322
01/05/2021  13:10:00       69.546     -156.940       -9.448       46.344      110.443       38.328     2147.741    12197.567     1469.049        2.268        0.791      171.660       38.897        0.051      335.656        6.433      867.307
01/05/2021  13:11:00       78.530     -145.492      -15.419       45.464       61.505       31.766     2066.933     3782.827     1009.069        1.721        0.343      165.333       27.707        0.028      335.442        6.078      867.302
01/05/2021  13:12:00       69.204      -19.299      -26.049       36.809       44.376       18.953     1354.898     1969.253      359.234        0.476        0.184       71.845       19.273        0.072      335.435        6.066      867.315
01/05/2021  13:13:00      139.001     -172.276      -34.476       40.088       47.642       27.307     1607.060     2269.779      745.684        2.740        0.231      221.360       25.740        0.014      335.396        5.998      867.298
01/05/2021  13:14:00       77.407      -58.066      -27.487       34.683       45.838       18.024     1202.903     2101.123      324.848        0.687        0.181       96.765       20.147        0.043      335.349        5.923      867.298
01/05/2021  13:15:00       36.674      -42.000      -22.479       57.387       33.019       29.750     3293.323     1090.277      885.082        0.444        0.263       55.758       20.873        0.140      335.659        6.440      867.265
01/05/2021  13:16:00      -51.335      -58.545      -39.448       37.189       38.236       25.212     1383.004     1461.990      635.656        0.555        0.174       77.864       23.351        0.090      335.739        6.574      867.227
01/05/2021  13:17:00       -2.659      -26.025        1.024       31.696       34.767       25.632     1004.605     1208.729      656.991        0.178        0.144       26.160       18.186        0.483      336.097        7.171      867.199
01/05/2021  13:18:00      -24.032      -39.856       -5.955       44.849       38.545       23.590     2011.407     1485.750      556.474        0.313        0.203       46.541       17.538        0.142      335.874        6.799      867.176
01/05/2021  13:19:00      -26.905       -1.605        0.324       36.810       20.682       24.900     1354.998      427.733      619.989        0.156        0.120       26.953       12.321        0.209      335.958        6.938      867.173
01/05/2021  13:20:00      -17.950       -3.102       -2.401       39.274       37.604       32.179     1542.454     1414.045     1035.518        0.216        0.200       18.216       14.548        0.638      335.912        6.863      867.142
01/05/2021  13:21:00       12.095      -54.478       -7.275       30.401       27.744       24.240      924.221      769.731      587.586        0.272        0.114       55.805       10.228        0.034      335.930        6.893      867.123
01/05/2021  13:22:00       -8.244      -37.443      -14.457       39.537       36.267       23.784     1563.202     1315.277      565.694        0.256        0.172       38.340       22.354        0.340      335.935        6.901      867.112
01/05/2021  13:23:00       15.270      -85.604      -20.609       68.960       87.502       24.638     4755.423     7656.608      607.039        1.050        0.651       86.955       36.138        0.173      335.733        6.562      867.115
01/05/2021  13:24:00      114.207     -196.435      -37.195       37.721       46.590       27.549     1422.863     2170.632      758.970        2.868        0.218      227.222       19.295        0.007      335.470        6.122      867.099
01/05/2021  13:25:00       97.603     -129.396      -36.866       41.893       52.379       26.538     1755.010     2743.537      704.289        1.641        0.260      162.079       25.514        0.025      335.625        6.383      867.090
01/05/2021  13:26:00       53.349      -14.668      -35.551       51.518       48.788       32.945     2654.129     2380.262     1085.390        0.522        0.306       55.328       29.635        0.287      335.969        6.956      867.085
01/05/2021  13:27:00      110.295      -13.574      -22.048       66.997       61.288       37.695     4488.561     3756.229     1420.911        1.125        0.483      111.127       34.406        0.096      335.669        6.456      867.081
01/05/2021  13:28:00       78.068      -21.903       -4.832       62.970       37.190       36.605     3965.269     1383.097     1339.901        0.664        0.334       81.083       33.299        0.169      335.621        6.375      867.081
01/05/2021  13:29:00      120.645       -7.078      -12.129       45.868       50.425       27.005     2103.892     2542.671      729.275        1.006        0.269      120.852       24.443        0.041      335.642        6.411      867.087
01/05/2021  13:30:00       16.791       -7.870       -0.256       41.353       31.907       29.431     1710.109     1018.030      866.186        0.197        0.180       18.544       23.206        1.566      335.927        6.887      867.092
01/05/2021  13:31:00       28.110        9.453      -10.071       62.582       50.931       33.072     3916.562     2593.940     1093.768        0.429        0.380       29.657       30.931        1.088      335.963        6.947      867.096
01/05/2021  13:32:00      129.306        6.853      -18.429       77.841       66.205       42.856     6059.238     4383.040     1836.597        1.469        0.614      129.488       44.628        0.119      335.705        6.516      867.108
01/05/2021  13:33:00       91.977      -50.552      -10.256       48.302       53.771       37.255     2333.084     2891.291     1387.972        0.886        0.331      104.953       36.852        0.123      335.617        6.370      867.124
01/05/2021  13:34:00      101.200      -70.958      -26.630       51.985       46.939       20.869     2702.401     2203.258      435.504        1.066        0.267      123.598       17.662        0.020      335.589        6.324      867.129
01/05/2021  13:35:00       73.240       17.556      -33.578       41.835       57.074       29.026     1750.136     3257.461      842.493        0.632        0.293       75.314       19.970        0.070      335.850        6.758      867.129
01/05/2021  13:36:00       66.938       25.051      -12.122       33.979       55.915       28.069     1154.587     3126.494      787.870        0.516        0.253       71.472       24.989        0.122      335.780        6.641      867.138
01/05/2021  13:37:00       87.133       98.268      -17.791       33.931       22.413       19.805     1151.331      502.329      392.256        0.981        0.102      131.334       18.850        0.021      335.581        6.309      867.157
01/05/2021  13:38:00       46.085       53.567       -0.073       35.599       30.203       23.095     1267.306      912.224      533.371        0.385        0.136       70.663       23.399        0.110      335.760        6.609      867.162
01/05/2021  13:39:00        3.235      -60.799      -12.082       49.840       61.433       27.984     2484.036     3774.014      783.123        0.545        0.352       60.885       28.750        0.223      336.146        7.251      867.162
01/05/2021  13:40:00       30.880     -121.740      -35.465       40.541       44.555       20.210     1643.535     1985.119      408.453        1.053        0.202      125.595       17.416        0.019      336.071        7.127      867.155
01/05/2021  13:41:00       -8.313      -90.296      -26.942       49.714       45.282       28.864     2471.471     2050.480      833.144        0.715        0.268       90.678       25.562        0.079      335.976        6.967      867.146
01/05/2021  13:42:00       77.800      -85.843      -13.796       32.822       34.550       29.200     1077.306     1193.724      852.638        0.837        0.156      115.853       20.628        0.032      335.698        6.505      867.138
01/05/2021  13:43:00       54.216      -41.455      -18.542       27.009       33.215       24.899      729.477     1103.251      619.963        0.373        0.123       68.248        9.676        0.020      335.860        6.777      867.140
01/05/2021  13:44:00        2.078      -46.890      -17.963       38.523       26.793       16.471     1483.984      717.869      271.306        0.250        0.124       46.936       15.006        0.102      335.735        6.567      867.135
01/05/2021  13:45:00        5.873      -12.474       -0.258       43.452       20.131       25.279     1888.119      405.266      639.033        0.156        0.147       13.787       16.334        1.404      336.157        7.271      867.142
01/05/2021  13:46:00       32.881       50.235       -2.568       29.296       17.355       15.810      858.259      301.181      249.952        0.251        0.070       60.039       12.429        0.043      335.954        6.931      867.144
01/05/2021  13:47:00       54.084       18.774       -1.610       72.134       52.889       28.020     5203.258     2797.251      785.136        0.603        0.439       57.250       15.769        0.076      336.053        7.097      867.154
01/05/2021  13:48:00       90.092       61.548        2.919       45.692       44.928       25.194     2087.720     2018.550      634.758        0.833        0.237      109.109       22.607        0.043      335.854        6.765      867.163
01/05/2021  13:49:00      113.229       69.207      -19.629       55.427       49.064       19.255     3072.207     2407.296      370.752        1.192        0.293      132.705       12.749        0.009      335.774        6.630      867.184
01/05/2021  13:50:00      -11.369       59.245      -19.612       36.538       23.228       21.321     1335.058      539.556      454.584        0.318        0.116       60.326       11.002        0.033      335.788        6.656      867.193
01/05/2021  13:51:00       22.569       27.889      -15.303       39.118       27.613       19.601     1530.213      762.477      384.208        0.210        0.134       35.877        9.404        0.069      335.856        6.768      867.209
01/05/2021  13:52:00       55.105      -25.266      -13.581       55.685       42.265       28.269     3100.864     1786.293      799.133        0.477        0.284       60.621       21.405        0.125      336.046        7.084      867.220
01/05/2021  13:53:00       16.434       -0.236        1.105       32.316       42.525       21.317     1044.300     1808.397      454.423        0.179        0.165       16.436       17.421        1.123      336.326        7.551      867.222
01/05/2021  13:54:00       69.917       29.884       -4.265       64.443       53.697       30.750     4152.932     2883.376      945.550        0.689        0.399       76.035       30.827        0.164      336.274        7.464      867.216
01/05/2021  13:55:00      153.471       47.953      -15.936       77.368       48.665       32.403     5985.838     2368.316     1049.980        1.775        0.470      160.789       29.694        0.034      336.000        7.006      867.214
01/05/2021  13:56:00      185.550       48.198      -13.943       46.360       41.205       27.910     2149.255     1697.874      778.949        2.079        0.231      191.708       28.687        0.022      335.777        6.636      867.203
01/05/2021  13:57:00      176.503       66.877      -16.745       32.709       26.389       20.073     1069.896      696.361      402.911        1.904        0.108      188.748       10.353        0.003      335.736        6.569      867.191
01/05/2021  13:58:00      183.395       74.441      -16.283       43.685       34.944       26.840     1908.369     1221.086      720.405        2.164        0.192      197.927       20.776        0.011      335.771        6.624      867.184
01/05/2021  13:59:00      179.077       71.690      -15.639       39.608       28.645       22.587     1568.772      820.556      510.165        2.018        0.145      192.894       21.589        0.013      335.807        6.686      867.188
01/05/2021  14:00:00      137.773       47.554      -11.952       63.959       45.989       29.582     4090.778     2114.960      875.097        1.423        0.354      145.749       33.725        0.054      335.938        6.906      867.187
01/05/2021  14:01:00      113.193       36.637       -6.818       31.048       35.402       26.516      963.997     1253.270      703.114        0.856        0.146      118.975       16.214        0.019      335.930        6.892      867.182
01/05/2021  14:02:00      112.457       37.883      -18.680       60.195       60.196       29.011     3623.459     3623.548      841.616        1.126        0.404      118.666       28.810        0.059      336.043        7.081      867.172
01/05/2021  14:03:00       71.453       -5.072      -15.251       64.158       98.685       29.216     4116.225     9738.815      853.546        1.003        0.735       71.633       19.362        0.073      336.196        7.334      867.169
01/05/2021  14:04:00       89.981       20.552      -18.996       35.475       28.124       24.628     1258.503      790.986      606.538        0.577        0.133       92.298       21.377        0.054      335.973        6.963      867.163
01/05/2021  14:05:00       39.184       37.602       -9.702       46.231       33.816       21.807     2137.274     1143.492      475.559        0.340        0.188       54.308       24.863        0.210      336.044        7.081      867.167
01/05/2021  14:06:00       13.463       -9.442       -8.829       32.163       38.244       18.476     1034.483     1462.574      341.372        0.159        0.142       16.444       24.289        2.182      336.026        7.052      867.162
01/05/2021  14:07:00       63.567      -60.217      -15.725       38.153       28.520       17.771     1455.665      813.380      315.823        0.525        0.129       87.561       19.806        0.051      336.007        7.019      867.153
01/05/2021  14:08:00       71.796      -45.990      -13.377       49.084       29.705       25.313     2409.193      882.405      640.768        0.569        0.197       85.263       16.519        0.038      335.966        6.952      867.142
01/05/2021  14:09:00       33.324       22.796       -5.407       58.254       62.662       21.147     3393.583     3926.544      447.216        0.471        0.388       40.375       20.316        0.253      335.959        6.941      867.138
01/05/2021  14:10:00       83.420       84.494      -11.946       24.949       31.175       20.716      622.443      971.869      429.133        0.813        0.101      118.735       16.712        0.020      335.857        6.771      867.139
01/05/2021  14:11:00       36.107       61.287      -10.414       28.131       20.496       17.187      791.372      420.075      295.388        0.334        0.075       71.133       19.285        0.073      335.864        6.782      867.136
01/05/2021  14:12:00        2.004       17.235       -4.080       32.693       35.875       24.257     1068.809     1287.020      588.423        0.163        0.147       17.351       17.616        1.031      336.305        7.516      867.121
01/05/2021  14:13:00      -22.847      -27.752       -9.556       35.621       23.249       26.694     1268.843      540.517      712.584        0.195        0.126       35.947       19.640        0.299      336.596        8.004      867.127
01/05/2021  14:14:00       19.439      -37.014       -1.938       44.852       23.710       29.452     2011.670      562.149      867.431        0.260        0.172       41.808       26.108        0.390      336.369        7.626      867.140
01/05/2021  14:15:00       -4.418      -25.989      -20.167       27.806       19.967       13.338      773.147      398.695      177.908        0.123        0.067       26.362       10.878        0.170      336.190        7.324      867.164
01/05/2021  14:16:00      -18.729        6.009      -19.883       22.751       18.252       12.623      517.606      333.152      159.341        0.090        0.051       19.670       13.692        0.485      336.139        7.239      867.165
01/05/2021  14:17:00        2.473        7.776       -6.691       24.448       15.908       13.628      597.729      253.061      185.724        0.057        0.052        8.160       13.825        2.870      336.359        7.609      867.184
01/05/2021  14:18:00       21.949       50.964       -7.113       39.044       23.253       18.934     1524.452      540.692      358.491        0.278        0.121       55.490       18.003        0.105      336.183        7.313      867.212
01/05/2021  14:19:00       54.054       46.302      -18.385       24.674       15.109       15.108      608.786      228.290      228.239        0.323        0.053       71.173       12.062        0.029      336.002        7.012      867.237
01/05/2021  14:20:00       14.259       64.830        2.064       34.159       16.822       16.374     1166.813      282.977      268.099        0.306        0.086       66.380       18.551        0.078      336.087        7.154      867.255
01/05/2021  14:21:00       53.850       54.913       -5.396       43.313       16.569       17.352     1876.055      274.524      301.087        0.420        0.123       76.911       19.702        0.066      336.163        7.279      867.280
01/05/2021  14:22:00       95.894       58.031       -6.645       43.007       34.373       25.076     1849.568     1181.482      628.802        0.813        0.183      112.086       22.024        0.039      336.085        7.149      867.295
01/05/2021  14:23:00      120.089       48.587      -12.061       23.203       23.499       15.055      538.356      552.207      226.644        0.912        0.066      129.546       12.473        0.009      335.975        6.967      867.310
01/05/2021  14:24:00      101.426       57.750      -14.167       23.577       18.134       15.434      555.865      328.839      238.213        0.747        0.056      116.715        9.923        0.007      336.003        7.014      867.317
01/05/2021  14:25:00      105.210       56.937      -14.138       27.043       21.022       14.773      731.301      441.942      218.251        0.795        0.070      119.628       13.923        0.014      335.964        6.946      867.317
01/05/2021  14:26:00       56.903       -3.113      -12.673       54.986       50.415       19.046     3023.485     2541.709      362.768        0.467        0.296       56.988       27.267        0.229      336.161        7.275      867.306
01/05/2021  14:27:00       16.477      -67.107       -5.239       29.393       20.816       21.500      863.939      433.290      462.241        0.328        0.088       69.101       21.614        0.098      336.261        7.444      867.299
01/05/2021  14:28:00        6.319       19.495       -3.582       28.128       38.295       18.038      791.169     1466.491      325.381        0.151        0.129       20.493       17.428        0.723      336.473        7.798      867.287
01/05/2021  14:29:00       55.309       62.459       -7.579       47.524       30.284       19.282     2258.504      917.138      371.807        0.528        0.177       83.428       21.531        0.067      336.334        7.566      867.276
01/05/2021  14:30:00      145.278       70.711      -16.560       39.353       38.048       18.425     1548.644     1447.652      339.491        1.486        0.167      161.573        9.925        0.004      336.127        7.219      867.259
01/05/2021  14:31:00      111.448       55.147      -16.436       46.685       19.128       19.015     2179.497      365.891      361.564        0.932        0.145      124.346       21.681        0.030      336.064        7.115      867.248
01/05/2021  14:32:00       57.527       39.405       -4.965       39.819       24.153       19.980     1585.519      583.386      399.212        0.373        0.128       69.729       24.000        0.118      336.197        7.336      867.227
01/05/2021  14:33:00       24.239       94.254        2.051       33.972       44.648       22.512     1154.078     1993.426      506.809        0.656        0.183       97.321       21.894        0.051      336.261        7.443      867.213
01/05/2021  14:34:00       53.814       78.298       -7.519       40.249       30.408       25.221     1619.989      924.620      636.074        0.613        0.159       95.008       29.652        0.097      336.149        7.256      867.194
01/05/2021  14:35:00       28.302       57.960       -4.003       30.364       34.083       17.419      921.996     1161.680      303.405        0.328        0.119       64.501       15.465        0.057      336.289        7.492      867.171
01/05/2021  14:36:00       28.369        7.593       -1.240       27.469       23.786       14.447      754.571      565.786      208.726        0.120        0.076       29.368       14.819        0.255      336.398        7.674      867.153
01/05/2021  14:37:00       37.771      -29.244      -14.190       58.577       46.468       23.276     3431.321     2159.269      541.773        0.431        0.307       47.769       30.376        0.404      336.396        7.670      867.138
01/05/2021  14:38:00       65.458      -11.478      -19.908       30.547       60.774       25.771      933.120     3693.465      664.166        0.505        0.265       66.457       22.902        0.119      336.378        7.640      867.139
01/05/2021  14:39:00       57.767       70.979      -13.976       27.815       31.553       24.129      773.659      995.586      582.192        0.546        0.118       91.515       17.188        0.035      336.229        7.389      867.144
01/05/2021  14:40:00       26.163        4.681       -1.384       41.637       42.684       30.592     1733.628     1821.907      935.889        0.260        0.225       26.578       27.581        1.077      336.502        7.846      867.141
01/05/2021  14:41:00       52.992       -2.278       -3.711       41.899       34.452       26.360     1755.485     1186.952      694.871        0.323        0.182       53.041       20.095        0.144      336.433        7.732      867.139
01/05/2021  14:42:00       67.898        0.922       -2.281       35.406       43.108       19.192     1253.568     1858.283      368.347        0.405        0.174       67.904       14.345        0.045      336.429        7.726      867.132
01/05/2021  14:43:00       98.097       34.560      -12.081       23.144       29.418       13.113      535.631      865.392      171.960        0.627        0.079      104.007       14.858        0.020      336.185        7.317      867.138
01/05/2021  14:44:00       21.094        3.585       -1.120       20.459        9.502       14.740      418.568       90.279      217.282        0.059        0.036       21.397       14.359        0.450      336.540        7.908      867.137
01/05/2021  14:45:00       63.795       34.173      -10.041       19.968        9.863       12.612      398.702       97.284      159.058        0.300        0.033       72.371        2.417        0.001      336.240        7.409      867.128
01/05/2021  14:46:00       48.517       36.660       -9.279       22.753       24.545       15.097      517.700      602.480      227.919        0.257        0.067       60.810        8.449        0.019      336.294        7.498      867.127
01/05/2021  14:47:00       57.109       48.529      -12.962       20.322       11.629       13.732      412.999      135.227      188.573        0.326        0.037       74.943        2.519        0.001      336.253        7.430      867.122
01/05/2021  14:48:00       45.937       42.620       -4.992       18.136       13.570       11.899      328.911      184.157      141.592        0.230        0.033       62.663        8.751        0.020      336.266        7.453      867.119
01/05/2021  14:49:00       54.745       46.968       -6.432       31.968       26.377       17.277     1021.930      695.730      298.491        0.363        0.101       72.132       10.706        0.022      336.334        7.565      867.122
01/05/2021  14:50:00       86.317        1.800       -9.917       36.729       50.363       21.583     1349.017     2536.467      465.822        0.595        0.218       86.335       22.332        0.067      336.439        7.741      867.130
01/05/2021  14:51:00       49.214      -27.505      -18.335       29.386       21.251       21.408      863.561      451.589      458.303        0.264        0.089       56.379       16.168        0.082      336.511        7.862      867.135
01/05/2021  14:52:00        5.375       17.819       -2.371       16.329       18.543       19.610      266.630      343.851      384.557        0.067        0.050       18.612       12.545        0.454      336.711        8.196      867.133
01/05/2021  14:53:00       21.344       10.695       -4.802       14.804       20.671       13.615      219.154      427.290      185.360        0.071        0.042       23.873        8.545        0.128      336.685        8.153      867.136
01/05/2021  14:54:00       19.006       20.699       -6.730       15.014       16.231        9.956      225.424      263.439       99.122        0.071        0.029       28.101        4.321        0.024      336.693        8.166      867.141
01/05/2021  14:55:00       -9.578      -37.575      -17.872       33.666       35.858       14.341     1133.427     1285.812      205.667        0.222        0.131       38.777       16.118        0.173      336.936        8.571      867.148
01/05/2021  14:56:00      -16.316        9.521       -3.481       22.945       34.321       14.312      526.486     1177.904      204.845        0.114        0.095       18.891        5.012        0.070      336.864        8.452      867.152
01/05/2021  14:57:00       20.089      -26.285        1.402       18.052       14.785       14.153      325.867      218.587      200.321        0.092        0.037       33.083       11.145        0.113      337.008        8.692      867.156
01/05/2021  14:58:00      -12.074      -30.274       -3.265       31.691       27.498       23.221     1004.311      756.138      539.194        0.169        0.115       32.593       11.622        0.127      336.857        8.441      867.162
01/05/2021  14:59:00        2.489      -16.397        0.402       18.658       19.898       15.663      348.108      395.931      245.344        0.063        0.049       16.585       12.576        0.575      336.938        8.575      867.164
01/05/2021  15:00:00       16.900       16.665       -1.440       29.990       26.008       12.864      899.428      676.425      165.484        0.115        0.087       23.734        8.610        0.132      336.632        8.065      867.159
01/05/2021  15:01:00       -4.246      -21.413      -11.676       23.056       23.130       10.679      531.578      534.997      114.032        0.090        0.059       21.830       11.112        0.259      336.957        8.608      867.160
01/05/2021  15:02:00        9.004      -83.530      -14.872       31.888       40.997       17.080     1016.862     1680.738      291.722        0.513        0.149       84.014       10.840        0.017      336.743        8.250      867.167
01/05/2021  15:03:00       12.663       -7.655       -1.382       25.540       41.022       20.552      652.290     1682.843      422.400        0.149        0.138       14.797       14.677        0.984      336.939        8.578      867.179
01/05/2021  15:04:00      -12.201      -19.541       17.423       21.480       22.478       18.475      461.391      505.273      341.311        0.107        0.065       23.037        7.122        0.096      337.141        8.916      867.189
01/05/2021  15:05:00       29.280       16.297       -0.678       45.043       60.882       22.385     2028.861     3706.651      501.086        0.368        0.312       33.510       17.395        0.269      336.802        8.349      867.202
01/05/2021  15:06:00       54.563       20.320       -4.522       29.198       34.220       16.362      852.538     1170.988      267.715        0.285        0.115       58.224       13.522        0.054      336.558        7.939      867.212
01/05/2021  15:07:00       30.190       14.184       -7.549       21.890       26.779       11.543      479.189      717.106      133.248        0.125        0.066       33.356       12.213        0.134      336.606        8.021      867.209
01/05/2021  15:08:00      102.428      -46.172      -13.131       71.579       36.252       27.061     5123.554     1314.199      732.283        0.998        0.359      112.354       26.889        0.057      336.646        8.089      867.208
01/05/2021  15:09:00      105.798        2.289      -13.214       66.255       66.256       43.686     4389.789     4389.867     1908.502        1.103        0.534      105.823       33.083        0.098      336.705        8.185      867.194
01/05/2021  15:10:00       86.326      -12.907      -15.956       71.509       62.917       45.430     5113.540     3958.582     2063.872        0.950        0.557       87.285       47.809        0.300      336.639        8.076      867.211
01/05/2021  15:11:00       74.953       -1.324      -13.905       74.232       55.021       38.077     5510.397     3027.256     1449.864        0.790        0.499       74.965       36.287        0.234      336.683        8.150      867.224
01/05/2021  15:12:00       69.460       40.937      -11.036       47.414       55.441       30.389     2248.051     3073.711      923.506        0.643        0.312       80.626       22.948        0.081      336.596        8.004      867.256
01/05/2021  15:13:00       79.832       -4.106      -12.261       32.971       44.967       17.470     1087.085     2022.021      305.212        0.498        0.171       79.938        8.476        0.011      336.577        7.973      867.279
01/05/2021  15:14:00       29.499       55.482       -8.635       37.996       48.182       25.521     1443.687     2321.478      651.330        0.422        0.221       62.837       20.552        0.107      336.577        7.973      867.322
01/05/2021  15:15:00       45.894      -61.862      -25.058       39.255       24.215       18.472     1540.990      586.382      341.225        0.451        0.123       77.027        7.956        0.011      336.639        8.077      867.349
01/05/2021  15:16:00       72.865      -51.293      -15.819       20.152       44.805       20.270      406.119     2007.452      410.868        0.551        0.141       89.108       20.949        0.055      336.540        7.912      867.384
01/05/2021  15:17:00       49.640        3.033       -7.386       36.273       35.510       24.794     1315.758     1260.927      614.764        0.286        0.160       49.733       27.063        0.296      336.596        8.004      867.422
01/05/2021  15:18:00       14.582      -42.548      -14.031       21.713       30.213       20.746      471.468      912.796      430.398        0.202        0.091       44.977       21.236        0.223      337.033        8.734      867.450
01/05/2021  15:19:00       -8.103      -36.103      -23.925       22.346       33.293       14.280      499.350     1108.446      203.921        0.188        0.091       37.001       17.459        0.223      337.044        8.754      867.463
01/05/2021  15:20:00       -4.005      -18.535       -6.162       30.159       27.533       16.855      909.555      758.040      284.094        0.117        0.098       18.963       12.786        0.455      337.075        8.805      867.482
01/05/2021  15:21:00      -52.855        6.602       -8.799       31.878       22.565       21.421     1016.215      509.162      458.855        0.245        0.099       53.266       18.649        0.123      336.847        8.424      867.482
01/05/2021  15:22:00       12.298       17.376       -1.762       16.102       16.067       11.096      259.276      258.146      123.115        0.055        0.032       21.288        7.673        0.130      336.806        8.357      867.484
01/05/2021  15:23:00       13.026      -31.313      -11.691       13.697       21.158       18.493      187.617      447.655      342.000        0.113        0.049       33.915       13.050        0.148      337.024        8.719      867.485
01/05/2021  15:24:00       11.394      -18.892       -1.730       23.533       20.283       15.325      553.813      411.385      234.856        0.084        0.060       22.062       13.843        0.394      337.052        8.765      867.482
01/05/2021  15:25:00       -4.678       -3.481       -7.412       25.480       32.470       16.495      649.256     1054.277      272.101        0.103        0.099        5.831        6.539        1.257      337.021        8.714      867.481
01/05/2021  15:26:00      -61.401      -28.183       -1.090       40.403       39.451       19.697     1632.407     1556.405      387.971        0.407        0.179       67.560       17.027        0.064      336.924        8.551      867.488
01/05/2021  15:27:00      -84.938      -24.772      -16.196       33.933       36.319       18.008     1151.450     1319.038      324.295        0.544        0.140       88.476       10.316        0.014      336.760        8.277      867.489
01/05/2021  15:28:00      -60.770      -24.536       -9.823       31.948       34.996       23.783     1020.653     1224.740      565.637        0.360        0.141       65.536       17.856        0.074      336.852        8.433      867.489
01/05/2021  15:29:00      -69.393      -28.963       -5.126       51.202       31.224       19.466     2621.665      974.938      378.942        0.483        0.199       75.194       22.981        0.093      336.910        8.530      867.497
01/05/2021  15:30:00      -89.009      -15.094      -10.058       45.494       31.221       19.717     2069.731      974.767      388.744        0.584        0.172       90.279       23.426        0.067      336.789        8.328      867.502
01/05/2021  15:31:00      -47.217       -6.132        1.728       34.909       35.549       15.099     1218.637     1263.707      227.974        0.249        0.136       47.614       12.082        0.064      336.825        8.386      867.510
01/05/2021  15:32:00      -51.947      -12.059       -6.150       34.359       33.509       22.527     1180.511     1122.836      507.462        0.285        0.141       53.328       15.549        0.085      336.980        8.643      867.512
01/05/2021  15:33:00      -35.707      -19.465      -15.198       34.353       20.552       18.546     1180.113      422.399      343.962        0.192        0.097       40.668       17.933        0.194      336.938        8.575      867.522
01/05/2021  15:34:00      -15.949       -6.218        4.700       25.914       35.992       14.623      671.538     1295.405      213.844        0.125        0.109       17.118       18.040        1.111      336.832        8.399      867.529
01/05/2021  15:35:00      -25.179      -73.027      -11.498       21.029       35.694       14.647      442.219     1274.083      214.531        0.401        0.097       77.246       13.548        0.031      336.691        8.162      867.519
01/05/2021  15:36:00       10.534        0.089      -13.102       29.508       35.815       14.378      870.705     1282.711      206.720        0.132        0.118       10.534       10.102        0.920      336.864        8.451      867.522
01/05/2021  15:37:00       -6.370       -0.843       -4.319       41.079       26.507       21.852     1687.455      702.636      477.527        0.146        0.143        6.426       11.425        3.162      336.912        8.533      867.530
01/05/2021  15:38:00       -1.386        2.780       -4.075       22.011       16.246       13.811      484.463      263.945      190.747        0.048        0.047        3.106       10.159       10.696      337.004        8.686      867.543
01/05/2021  15:39:00      -13.563       -5.701       -6.404       28.990       23.572       21.140      840.437      555.629      446.887        0.105        0.092       14.713       19.464        1.750      336.944        8.585      867.559
01/05/2021  15:40:00       28.904        9.735        3.206       26.840       28.109       12.508      720.387      790.123      156.439        0.130        0.083       30.499       12.782        0.176      336.756        8.271      867.576
01/05/2021  15:41:00       28.622       22.686       -4.173       19.478       12.355       10.796      379.378      152.648      116.544        0.100        0.032       36.522        8.711        0.057      336.692        8.165      867.590
01/05/2021  15:42:00       18.008       56.487       -1.419       24.352       27.004       19.599      593.044      729.193      384.124        0.261        0.085       59.288       13.633        0.053      336.755        8.271      867.594
01/05/2021  15:43:00       14.808       19.508       -3.854       17.812       14.212       10.999      317.278      201.977      120.974        0.063        0.032       24.491        9.621        0.154      336.661        8.115      867.591
01/05/2021  15:44:00       26.951       18.327       -3.340       21.285        9.391        8.153      453.057       88.187       66.471        0.084        0.030       32.592        6.791        0.043      336.710        8.196      867.575
01/05/2021  15:45:00       47.968       16.238       -6.714       15.460       19.300       11.623      239.024      372.471      135.089        0.168        0.037       50.642        7.471        0.022      336.650        8.094      867.554
01/05/2021  15:46:00       23.733        6.002       -5.657       13.904       15.196        6.198      193.330      230.914       38.413        0.055        0.023       24.480        5.548        0.051      336.754        8.268      867.540
01/05/2021  15:47:00       33.779       15.642       -5.462       21.951       12.360       10.759      481.833      152.779      115.752        0.108        0.038       37.225       10.659        0.082      336.709        8.193      867.528
01/05/2021  15:48:00       19.016       23.389       -0.439       23.734       16.277       12.534      563.285      264.936      157.114        0.095        0.049       30.144       14.047        0.217      336.715        8.204      867.523
01/05/2021  15:49:00       28.424        8.841       -2.493       17.712        9.972        9.080      313.732       99.450       82.446        0.069        0.025       29.768        8.933        0.090      336.722        8.215      867.524
01/05/2021  15:50:00       49.799       32.257       -5.540       19.678       22.396       11.548      387.225      501.603      133.352        0.229        0.051       59.334       11.101        0.035      336.650        8.095      867.541
01/05/2021  15:51:00       31.671       50.735        8.798       29.390       28.317       18.893      863.759      801.837      356.927        0.284        0.101       59.809       13.260        0.049      336.769        8.293      867.567
01/05/2021  15:52:00       19.634       77.527       -9.879       24.384       25.899       19.095      594.604      670.774      364.619        0.406        0.081       79.975       12.122        0.023      336.838        8.409      867.578
01/05/2021  15:53:00       33.750       24.819        1.575       31.649       21.923       18.937     1001.640      480.611      358.628        0.180        0.092       41.893       20.653        0.243      336.753        8.268      867.590
01/05/2021  15:54:00       18.178       72.558       -5.861       23.788       24.302       22.652      565.877      590.598      513.108        0.365        0.083       74.800       12.976        0.030      336.742        8.248      867.607
01/05/2021  15:55:00       22.602       54.848       -3.821       25.034       20.067       18.314      626.698      402.690      335.394        0.245        0.068       59.323       13.432        0.051      336.764        8.286      867.612
01/05/2021  15:56:00       20.886       63.518       -5.630       28.006       26.876       16.353      784.352      722.296      267.405        0.314        0.089       66.864       17.365        0.067      336.794        8.336      867.608
01/05/2021  15:57:00        0.044       86.518      -19.392       24.710       27.801       16.786      610.603      772.874      281.758        0.476        0.083       86.518        9.502        0.012      336.813        8.368      867.606
01/05/2021  15:58:00       17.149       51.993        4.247       38.402       24.281       19.479     1474.725      589.557      379.430        0.273        0.122       54.748       15.551        0.081      336.905        8.520      867.605
01/05/2021  15:59:00       32.439       31.889       -8.109       29.440       17.616       15.565      866.739      310.320      242.264        0.178        0.071       45.489       10.916        0.058      336.794        8.337      867.614
01/05/2021  16:00:00        7.021       76.447       -9.445       33.325       31.195       12.652     1110.524      973.111      160.072        0.411        0.112       76.769       14.414        0.035      336.864        8.452      867.626
01/05/2021  16:01:00      -21.834       54.785      -15.967       27.808       21.139       19.822      773.290      446.848      392.900        0.267        0.081       58.976        7.993        0.018      337.023        8.718      867.643
01/05/2021  16:02:00      -24.123       36.263       -7.316       31.219       22.023       23.994      974.634      485.025      575.695        0.199        0.102       43.554       16.619        0.146      337.218        9.045      867.664
01/05/2021  16:03:00        9.594       30.451      -19.833       26.235       23.236       18.549      688.271      539.908      344.065        0.149        0.079       31.927       12.365        0.150      337.049        8.763      867.685
01/05/2021  16:04:00        2.723       67.368      -11.822       36.469       18.172       17.851     1329.957      330.218      318.645        0.333        0.099       67.423       16.431        0.059      336.992        8.665      867.710
01/05/2021  16:05:00       26.675      113.300       -7.403       32.896       25.858       21.552     1082.161      668.643      464.482        0.791        0.111      116.398       13.304        0.013      336.978        8.641      867.732
01/05/2021  16:06:00       66.139       63.187       -5.916       35.490       18.325       17.815     1259.548      335.811      317.386        0.516        0.096       91.471       20.709        0.051      336.711        8.196      867.743
01/05/2021  16:07:00       93.700       47.706      -18.950       39.900       13.656       17.418     1592.049      186.486      303.401        0.675        0.104      105.145       22.758        0.047      336.763        8.283      867.755
01/05/2021  16:08:00       50.160       31.821       -7.846       35.479        9.508       16.849     1258.788       90.407      283.895        0.261        0.082       59.402       21.874        0.136      336.776        8.305      867.768
01/05/2021  16:09:00       36.553       32.873      -13.230       37.905       23.016       19.446     1436.822      529.747      378.137        0.247        0.117       49.160       23.879        0.236      336.823        8.385      867.782
01/05/2021  16:10:00       20.420       46.140       -0.653       24.431       31.224       16.614      596.855      974.910      276.018        0.220        0.092       50.457       16.345        0.105      336.833        8.400      867.797
01/05/2021  16:11:00       14.135       54.700      -10.467       35.757       47.142       26.329     1278.530     2222.324      693.227        0.375        0.210       56.497       22.920        0.165      336.924        8.553      867.823
01/05/2021  16:12:00       20.043       44.795       -1.214       27.908       30.542       20.897      778.860      932.836      436.677        0.228        0.107       49.074       18.925        0.149      336.839        8.410      867.854
01/05/2021  16:13:00       11.214       50.071        9.481       26.069       18.362       14.825      679.579      337.172      219.792        0.198        0.062       51.311       13.230        0.066      336.975        8.637      867.873
01/05/2021  16:14:00       10.221       68.041       -9.065       30.212       12.233       17.674      912.793      149.652      312.358        0.310        0.069       68.804       16.978        0.061      337.059        8.778      867.895
01/05/2021  16:15:00      -17.163       74.958       -7.129       29.424       26.651       19.279      865.778      710.252      371.682        0.396        0.097       76.898       16.510        0.046      337.074        8.801      867.904
01/05/2021  16:16:00      -12.822       54.549      -12.388       35.666       28.977       18.308     1272.085      839.656      335.167        0.287        0.122       56.036       18.931        0.114      337.252        9.100      867.903
01/05/2021  16:17:00       25.076       61.511       -8.748       34.625       22.661       18.626     1198.890      513.531      346.937        0.327        0.103       66.425       19.118        0.083      336.960        8.612      867.908
01/05/2021  16:18:00      -13.829       69.694       -8.079       35.838       24.370       24.907     1284.338      593.906      620.358        0.381        0.125       71.053       13.149        0.034      337.011        8.697      867.931
01/05/2021  16:19:00       16.260       86.665      -11.063       28.366       15.007       16.429      804.618      225.198      269.905        0.460        0.065       88.177       16.208        0.034      337.002        8.682      867.947
01/05/2021  16:20:00       32.407       86.525      -10.537       39.673       20.929       20.384     1573.939      438.006      415.526        0.554        0.121       92.395       19.060        0.043      337.002        8.683      867.952
01/05/2021  16:21:00       45.339       49.169      -11.989       36.103       24.662       21.210     1303.401      608.228      449.883        0.349        0.118       66.882       22.798        0.116      336.813        8.367      867.948
01/05/2021  16:22:00       31.439       53.776       -9.418       31.674       20.438       18.029     1003.243      417.712      325.056        0.286        0.087       62.292       20.492        0.108      336.800        8.346      867.936
01/05/2021  16:23:00       22.688       32.683       -1.486       30.408       15.508       15.974      924.617      240.484      255.167        0.150        0.071       39.786       17.474        0.193      336.759        8.278      867.943
01/05/2021  16:24:00       30.417       62.340       -8.616       42.987       29.380       25.332     1847.909      863.158      641.692        0.412        0.168       69.365       25.347        0.134      336.775        8.303      867.930
01/05/2021  16:25:00       22.082       72.510       -8.609       46.064       26.216       24.905     2121.867      687.293      620.242        0.462        0.171       75.798       22.384        0.087      336.885        8.487      867.911
01/05/2021  16:26:00       16.616       69.332       -4.018       33.662       17.096       21.824     1133.152      292.269      476.306        0.350        0.095       71.295       19.758        0.077      336.835        8.403      867.901
01/05/2021  16:27:00        1.940       83.666      -18.404       48.710       19.819       23.042     2372.631      392.803      530.939        0.532        0.165       83.688       25.832        0.095      336.892        8.498      867.893
01/05/2021  16:28:00       39.258       69.602      -13.724       40.334       26.998       21.173     1626.867      728.875      448.315        0.469        0.140       79.910       19.923        0.062      336.764        8.286      867.882
01/05/2021  16:29:00       54.153       41.582      -15.949       39.037       14.089       21.379     1523.879      198.488      457.082        0.355        0.109       68.276       25.949        0.144      336.639        8.075      867.880
01/05/2021  16:30:00       38.388       29.144       -3.896       45.068       14.202       22.319     2031.143      201.683      498.135        0.253        0.137       48.197       30.552        0.402      336.672        8.132      867.884
01/05/2021  16:31:00       45.041       21.106      -15.417       47.836       19.889       24.237     2288.248      395.553      587.453        0.299        0.164       49.741       32.247        0.420      336.641        8.080      867.884
01/05/2021  16:32:00       38.039       47.604      -11.983       44.729       26.420       21.675     2000.682      697.997      469.794        0.351        0.158       60.936       28.086        0.212      336.690        8.161      867.889
01/05/2021  16:33:00       39.909       71.571      -16.511       47.385       14.385       24.394     2245.323      206.942      595.071        0.502        0.152       81.946       31.461        0.147      336.862        8.448      867.893
01/05/2021  16:34:00       33.440       77.025      -16.760       45.182       10.764       22.478     2041.435      115.855      505.280        0.500        0.133       83.971       28.724        0.117      336.874        8.470      867.890
01/05/2021  16:34:00       12.000       74.000       -9.000          NaN          NaN          NaN          NaN          NaN          NaN        0.285          NaN       74.967        0.000        0.000      336.860        8.450      867.900
01/05/2021  16:36:00       38.956       88.988      -21.831       51.488       26.957       30.192     2650.983      726.656      911.555        0.710        0.214       97.142       34.476        0.126      336.887        8.491      867.888
01/05/2021  16:37:00       24.138       78.401      -11.886       48.393       22.206       25.537     2341.902      493.105      652.140        0.518        0.174       82.033       29.550        0.130      336.886        8.489      867.879
01/05/2021  16:38:00       -1.734       59.306      -16.728       42.743       28.228       29.786     1826.980      796.827      887.203        0.365        0.176       59.331       25.641        0.187      336.873        8.467      867.862
01/05/2021  16:39:00        4.794       69.971      -11.742       48.971       27.522       22.953     2398.115      757.476      526.858        0.437        0.184       70.135       24.582        0.123      336.971        8.631      867.853
01/05/2021  16:40:00      -12.749       74.960      -17.325       49.263       26.110       22.600     2426.806      681.717      510.768        0.485        0.181       76.037       25.588        0.113      336.936        8.573      867.842
01/05/2021  16:41:00        0.599       51.333      -13.161       46.750       19.188       23.050     2185.558      368.185      531.281        0.295        0.154       51.336       27.426        0.285      336.944        8.585      867.838
01/05/2021  16:42:00      -12.908       36.588       -6.408       57.801       27.815       28.096     3340.980      773.685      789.386        0.322        0.245       38.798       28.300        0.532      336.852        8.432      867.837
01/05/2021  16:43:00        2.472       47.241      -12.277       53.317       20.719       25.353     2842.670      429.282      642.794        0.315        0.196       47.306       28.819        0.371      336.790        8.329      867.837
01/05/2021  16:44:00      -95.699        8.151      -13.019       50.829       34.255       23.418     2583.582     1173.421      548.413        0.685        0.215       96.045        9.084        0.009      336.551        7.928      867.847
01/05/2021  16:45:00     -118.398       22.695       -9.253       43.192       28.816       23.839     1865.557      830.366      568.279        0.894        0.163      120.554       10.449        0.008      336.406        7.686      867.860
01/05/2021  16:46:00     -119.119       43.665      -21.744       51.280       22.894       29.186     2629.619      524.136      851.820        1.029        0.200      126.870       13.169        0.011      336.080        7.141      867.873
01/05/2021  16:47:00     -107.265       48.901       -2.312       52.363       37.304       26.982     2741.849     1391.561      728.008        0.938        0.243      117.886        8.980        0.006      335.970        6.957      867.889
01/05/2021  16:48:00     -140.424       32.091       -7.745       55.585       31.242       26.809     3089.651      976.082      718.731        1.280        0.239      144.044       13.187        0.008      335.953        6.929      867.908
01/05/2021  16:49:00     -149.901       57.471      -19.039       45.548       48.120       27.971     2074.595     2315.529      782.365        1.565        0.259      160.541       17.658        0.012      335.884        6.816      867.924
01/05/2021  16:50:00     -130.693       16.077      -16.366       65.724       31.764       27.288     4319.616     1008.947      744.649        1.184        0.304      131.678       28.506        0.047      335.849        6.756      867.945
01/05/2021  16:51:00      -77.096        6.682      -13.273       79.483       41.620       37.030     6317.569     1732.200     1371.204        0.779        0.471       77.385       10.952        0.020      335.874        6.799      867.965
01/05/2021  16:52:00      -80.683       11.962      -22.106       59.288       38.726       29.427     3515.105     1499.687      865.941        0.651        0.294       81.565       18.059        0.049      335.859        6.772      867.982
01/05/2021  16:53:00      -48.607        3.396       -7.963       68.281       29.296       35.663     4662.282      858.253     1271.821        0.461        0.340       48.725        8.373        0.030      335.857        6.771      868.000
01/05/2021  16:54:00      -20.356        9.929      -13.006       64.781       34.393       32.630     4196.559     1182.888     1064.702        0.356        0.322       22.648       10.283        0.206      335.749        6.590      868.018
01/05/2021  16:55:00      -88.055       35.406       -0.560       51.870       38.947       29.148     2690.544     1516.864      849.608        0.703        0.253       94.907       21.111        0.049      336.031        7.060      868.033
01/05/2021  16:56:00     -104.755       23.593       -7.957       57.170       38.407       30.137     3268.356     1475.085      908.236        0.862        0.283      107.379       14.893        0.019      335.692        6.495      868.061
01/05/2021  16:57:00     -136.729       40.230      -12.735       57.476       39.529       29.455     3303.525     1562.558      867.625        1.310        0.287      142.525       21.883        0.024      335.609        6.358      868.071
01/05/2021  16:58:00     -140.915       33.956       -9.350       60.658       41.693       29.962     3679.390     1738.285      897.702        1.371        0.316      144.949       16.330        0.013      335.784        6.649      868.080
01/05/2021  16:59:00     -184.011       34.368      -24.271       57.552       32.710       30.317     3312.229     1069.936      919.145        2.046        0.265      187.193       23.859        0.016      335.534        6.230      868.094
01/05/2021  17:00:00     -135.545       20.769       -3.105       65.260       44.945       32.902     4258.860     2020.093     1082.562        1.309        0.368      137.127       23.719        0.030      335.595        6.334      868.101
01/05/2021  17:01:00     -147.787       39.306       -6.055       58.149       36.063       30.869     3381.279     1300.549      952.873        1.453        0.282      152.925       26.081        0.029      335.559        6.273      868.105
01/05/2021  17:02:00     -152.194       31.925      -12.376       40.144       29.137       22.448     1611.504      848.982      503.931        1.365        0.148      155.506        8.054        0.003      335.453        6.097      868.108
01/05/2021  17:03:00     -127.253       25.410       -7.890       71.282       38.715       28.161     5081.082     1498.823      793.057        1.214        0.369      129.765       17.936        0.019      335.513        6.196      868.109
01/05/2021  17:04:00     -122.795       31.408      -13.011       57.935       31.423       25.301     3356.422      987.402      640.155        1.061        0.249      126.749       21.342        0.028      335.377        5.970      868.121
01/05/2021  17:05:00      -94.855       17.898      -19.374       55.889       24.078       23.256     3123.554      579.734      540.841        0.697        0.212       96.529       11.018        0.013      335.510        6.191      868.129
01/05/2021  17:06:00     -133.576       31.891      -17.287       31.944       25.672       24.502     1020.435      659.037      600.350        1.072        0.114      137.331       13.377        0.009      335.401        6.009      868.154
01/05/2021  17:07:00     -115.627       22.215      -16.077       46.195       28.178       23.874     2133.965      793.972      569.962        0.881        0.175      117.742       14.803        0.016      335.435        6.066      868.173
01/05/2021  17:08:00     -114.259        6.977      -21.535       38.739       32.811       26.581     1500.721     1076.585      706.531        0.842        0.164      114.472       17.259        0.023      335.478        6.139      868.181
01/05/2021  17:09:00     -115.078       21.196       -6.317       53.756       32.633       23.577     2889.737     1064.881      555.891        0.912        0.226      117.014       24.591        0.044      335.478        6.139      868.188
01/05/2021  17:10:00      -76.352       21.181        1.243       46.288       27.740       22.388     2142.542      769.493      501.233        0.485        0.171       79.235       13.041        0.027      335.423        6.047      868.197
01/05/2021  17:11:00      -83.134        7.815       -9.311       48.182       31.220       24.256     2321.477      974.710      588.335        0.547        0.194       83.501       10.235        0.015      335.435        6.067      868.203
01/05/2021  17:12:00      -48.408        6.425      -20.018       38.039       21.175       17.832     1446.968      448.400      317.971        0.250        0.111       48.833       14.396        0.087      335.383        5.980      868.208
01/05/2021  17:13:00      -47.148       -2.581      -17.281       35.790       25.990       17.852     1280.935      675.478      318.700        0.240        0.114       47.219       12.711        0.072      335.457        6.103      868.217
01/05/2021  17:14:00      -18.556        2.748       -6.725       38.126       16.394       21.074     1453.619      268.753      444.095        0.128        0.108       18.759       14.293        0.581      335.409        6.023      868.228
01/05/2021  17:15:00       -9.684       -8.266      -11.491       51.681       24.250       20.064     2670.928      588.061      402.576        0.198        0.183       12.732       16.774        1.736      335.289        5.823      868.236
01/05/2021  17:16:00      -55.675       -5.000      -12.159       31.594       19.683       17.329      998.157      387.422      300.296        0.248        0.084       55.899        8.550        0.023      335.346        5.918      868.240
01/05/2021  17:17:00       -1.264       -3.976        7.285       36.254       14.079       19.546     1314.316      198.218      382.035        0.098        0.095        4.172       17.598       17.795      335.256        5.769      868.233
01/05/2021  17:18:00      -33.739       11.338      -10.504       30.667       22.572       14.987      940.488      509.477      224.623        0.153        0.084       35.593       11.407        0.103      335.388        5.987      868.230
01/05/2021  17:19:00      -56.894       14.879       -6.747       33.088       22.998       19.836     1094.832      528.900      393.458        0.276        0.101       58.808       16.120        0.075      335.316        5.869      868.226
01/05/2021  17:20:00      -76.058        5.231      -13.756       29.452       16.303       15.382      867.425      265.783      236.613        0.369        0.068       76.238        4.530        0.004      335.292        5.828      868.232
01/05/2021  17:21:00      -83.803       17.530       -9.444       33.767       20.063       17.419     1140.226      402.522      303.427        0.463        0.092       85.616        6.752        0.006      335.259        5.773      868.242
01/05/2021  17:22:00      -74.130       18.341       -9.940       34.796       17.642       15.316     1210.733      311.247      234.592        0.384        0.088       76.365       13.157        0.030      335.234        5.731      868.239
01/05/2021  17:23:00      -77.336       31.118       -8.825       36.223       21.242       12.248     1312.092      451.204      150.021        0.447        0.096       83.362        8.030        0.009      335.300        5.841      868.247
01/05/2021  17:24:00      -80.323       27.652      -11.917       34.893       20.974       19.848     1217.502      439.893      393.936        0.470        0.103       84.950       12.233        0.021      335.258        5.770      868.258
01/05/2021  17:25:00      -82.067       25.397       -8.941       35.372       17.608       16.938     1251.156      310.046      286.884        0.465        0.092       85.907       14.746        0.029      335.281        5.809      868.269
01/05/2021  17:26:00      -97.734       27.771      -12.835       22.870       16.288       11.881      523.047      265.298      141.166        0.571        0.046      101.603        9.885        0.009      335.300        5.842      868.274
01/05/2021  17:27:00      -72.893       28.182       -5.108       34.223       23.332       20.511     1171.212      544.362      420.711        0.413        0.107       78.152        6.881        0.008      335.372        5.961      868.282
01/05/2021  17:28:00      -89.648       30.102       -4.514       23.224       12.087       16.076      539.365      146.096      258.451        0.495        0.047       94.567       13.273        0.020      335.288        5.823      868.289
01/05/2021  17:29:00      -22.979       -5.234       -0.845       45.851       19.467       15.874     2102.300      378.950      251.981        0.164        0.137       23.568       17.602        0.558      335.273        5.798      868.301
01/05/2021  17:30:00        9.984      -10.307       -3.501       27.109       18.665       18.526      734.880      348.375      343.198        0.082        0.071       14.349       13.347        0.865      335.153        5.597      868.319
01/05/2021  17:31:00      -12.146       -0.596       -5.281       24.620       20.768       14.889      606.150      431.314      221.680        0.072        0.063       12.161       13.057        1.153      335.217        5.703      868.343
01/05/2021  17:32:00      -37.194       17.321      -12.257       29.474       17.727       14.629      868.721      314.241      214.013        0.162        0.070       41.030       14.473        0.124      335.229        5.722      868.361
01/05/2021  17:33:00      -73.182       22.487      -11.643       31.836       20.490       16.610     1013.518      419.831      275.897        0.385        0.085       76.559       16.408        0.046      335.236        5.736      868.364
01/05/2021  17:34:00      -76.130       11.503       -7.408       28.976       22.260       14.003      839.629      495.513      196.071        0.376        0.077       76.995       12.222        0.025      335.126        5.553      868.371
01/05/2021  17:35:00      -94.710       22.895      -17.562       29.446       20.060       14.414      867.045      402.402      207.775        0.564        0.074       97.438       12.006        0.015      335.085        5.486      868.384
01/05/2021  17:36:00     -121.867       38.104      -14.295       32.673       23.512       16.323     1067.510      552.813      266.453        0.920        0.094      127.686        6.288        0.002      334.994        5.335      868.388
01/05/2021  17:37:00     -117.976       27.318      -11.907       41.902       34.365       20.890     1755.787     1180.968      436.380        0.909        0.169      121.097        9.422        0.006      334.863        5.118      868.397
01/05/2021  17:38:00      -88.556       19.273       -4.821       54.910       29.957       27.240     3015.122      897.395      741.999        0.644        0.233       90.629       20.962        0.054      334.780        4.980      868.410
01/05/2021  17:39:00     -107.845       29.088      -13.267       41.400       31.268       22.845     1713.921      977.696      521.912        0.793        0.161      111.699       15.118        0.018      334.832        5.064      868.427
01/05/2021  17:40:00      -63.471        9.022       -8.638       75.698       30.329       21.880     5730.208      919.825      478.735        0.566        0.356       64.109       20.913        0.106      334.739        4.909      868.439
01/05/2021  17:41:00      -96.617       10.401      -17.925       34.298       20.244       19.313     1176.387      409.824      372.998        0.586        0.098       97.175        7.716        0.006      334.763        4.949      868.454
01/05/2021  17:42:00     -122.201       32.711      -15.751       29.750       22.977       14.342      885.065      527.943      205.694        0.893        0.081      126.503        6.037        0.002      334.710        4.862      868.461
01/05/2021  17:43:00     -111.004       21.962      -20.009       27.773       24.265       18.246      771.362      588.785      332.933        0.745        0.085      113.156       10.593        0.009      334.660        4.779      868.463
01/05/2021  17:44:00      -99.352       13.818      -10.295       46.096       26.499       22.011     2124.876      702.212      484.468        0.674        0.166      100.308       26.333        0.069      334.657        4.773      868.470
01/05/2021  17:45:00     -116.833       23.169      -17.071       34.065       30.919       18.070     1160.446      955.980      326.537        0.846        0.122      119.108       12.779        0.012      334.650        4.763      868.471
01/05/2021  17:46:00      -95.334       18.863      -19.676       41.362       29.312       17.794     1710.823      859.202      316.619        0.636        0.144       97.182       18.119        0.035      334.610        4.696      868.468
01/05/2021  17:47:00     -100.246       23.954      -17.699       42.745       29.938       21.946     1827.163      896.308      481.615        0.707        0.160      103.068        9.260        0.008      334.579        4.644      868.457
01/05/2021  17:48:00     -114.194       24.550      -17.937       44.994       28.895       18.867     2024.422      834.948      355.977        0.859        0.161      116.803        9.235        0.006      334.536        4.574      868.451
01/05/2021  17:49:00      -89.501       10.012      -14.569       51.840       34.717       25.451     2687.357     1205.250      647.737        0.643        0.227       90.059       24.463        0.074      334.578        4.642      868.449
01/05/2021  17:50:00      -94.898       23.465      -14.814       47.467       23.376       17.281     2253.083      546.428      298.616        0.644        0.155       97.756       11.545        0.014      334.690        4.829      868.455
01/05/2021  17:51:00     -102.718       23.379      -17.704       28.924       23.595       16.319      836.581      556.739      266.306        0.653        0.083      105.345        8.246        0.006      334.669        4.795      868.461
01/05/2021  17:52:00      -92.970       12.287      -13.713       52.583       22.459       18.724     2764.985      504.387      350.600        0.630        0.181       93.778       20.381        0.047      334.579        4.646      868.457
01/05/2021  17:53:00     -118.387       24.131      -22.349       28.600       20.274       18.030      817.972      411.033      325.074        0.833        0.078      120.821        9.620        0.006      334.524        4.552      868.448
01/05/2021  17:54:00     -114.763       19.982      -19.924       27.911       22.898       17.546      779.016      524.317      307.852        0.779        0.081      116.490        8.236        0.005      334.477        4.476      868.449
01/05/2021  17:55:00     -106.637       21.611      -10.663       36.314       24.596       15.943     1318.722      604.971      254.175        0.706        0.109      108.805        9.821        0.008      334.460        4.447      868.443
01/05/2021  17:56:00      -93.051        8.660      -11.855       58.678       23.137       19.721     3443.123      535.299      388.935        0.662        0.218       93.453       22.651        0.059      334.465        4.457      868.441
01/05/2021  17:57:00     -127.724       35.777      -12.724       34.748       30.931       18.469     1207.439      956.732      341.119        1.013        0.125      132.641       10.470        0.006      334.380        4.314      868.440
01/05/2021  17:58:00     -116.917        5.626       -4.138       39.977       33.980       27.280     1598.181     1154.671      744.186        0.861        0.175      117.052       23.768        0.041      334.430        4.399      868.446
01/05/2021  17:59:00     -135.109       36.218      -13.488       33.510       24.830       18.182     1122.904      616.538      330.600        1.091        0.104      139.879       12.561        0.008      334.331        4.232      868.452
01/05/2021  18:00:00      -94.025       15.119       -1.740       38.301       38.826       20.736     1466.988     1507.446      429.985        0.624        0.170       95.232       12.815        0.018      334.355        4.276      868.453
01/05/2021  18:01:00      -98.370       14.258      -12.369       48.853       27.420       18.631     2386.599      751.836      347.110        0.676        0.174       99.398       25.591        0.066      334.318        4.211      868.461
01/05/2021  18:02:00      -98.043       20.337      -19.784       57.567       30.832       18.276     3313.985      950.641      333.999        0.751        0.230      100.130       12.512        0.016      334.280        4.150      868.462
01/05/2021  18:03:00      -52.232        4.103      -12.232       39.765       29.174       14.178     1581.223      851.114      201.021        0.276        0.132       52.393        5.257        0.010      334.295        4.175      868.465
01/05/2021  18:04:00      -21.407      -30.365       -2.974       26.472       27.869       18.885      700.784      776.694      356.654        0.161        0.092       37.152        7.924        0.045      334.417        4.376      868.475
01/05/2021  18:05:00      -23.219      -28.264       -5.242       26.098       35.961       12.758      681.111     1293.216      162.755        0.175        0.107       36.578        8.487        0.054      334.301        4.184      868.484
01/05/2021  18:06:00      -32.331      -42.202      -12.081       29.835       12.543       15.231      890.135      157.335      231.980        0.213        0.064       53.163       13.533        0.065      334.287        4.162      868.504
01/05/2021  18:07:00      -77.386      -19.400      -17.214       27.969       20.170       16.673      782.247      406.831      278.000        0.406        0.073       79.781        7.278        0.008      334.364        4.290      868.518
01/05/2021  18:08:00      -83.651        9.387       -8.065       33.368       13.986       16.815     1113.444      195.600      282.736        0.437        0.080       84.176       18.362        0.048      334.359        4.280      868.534
01/05/2021  18:09:00      -30.918        4.090       -2.519       34.769       20.636       16.697     1208.858      425.848      278.774        0.145        0.096       31.188       11.134        0.127      334.369        4.298      868.560
01/05/2021  18:10:00      -66.498       -7.449       -0.984       35.936       18.107       18.128     1291.423      327.851      328.615        0.321        0.097       66.914       14.088        0.044      334.507        4.525      868.586
01/05/2021  18:11:00      -60.160      -15.312       -0.342       45.090       22.987       18.787     2033.115      528.392      352.953        0.338        0.146       62.078       16.657        0.072      334.525        4.554      868.622
01/05/2021  18:12:00      -64.459      -12.699       -1.680       35.026       26.479       22.206     1226.810      701.137      493.094        0.337        0.121       65.698       19.021        0.084      334.561        4.615      868.645
01/05/2021  18:13:00      -86.484      -11.648        1.127       27.604       23.733       14.801      761.972      563.234      219.066        0.458        0.077       87.265       10.672        0.015      334.570        4.629      868.681
01/05/2021  18:14:00      -25.627       -5.532        1.519       25.623       21.543       15.485      656.542      464.092      239.776        0.102        0.068       26.217        4.743        0.033      334.520        4.545      868.710
01/05/2021  18:15:00      -22.688      -10.771       -3.649       34.920       23.604       19.584     1219.381      557.167      383.538        0.140        0.108       25.115       11.057        0.194      334.439        4.413      868.735
01/05/2021  18:16:00      -53.506      -17.944        7.349       35.207       21.575       17.748     1239.562      465.475      314.986        0.263        0.101       56.434       15.485        0.075      334.472        4.466      868.752
01/05/2021  18:17:00      -86.355      -28.705       -1.817       42.402       28.407       21.271     1797.932      806.933      452.460        0.567        0.153       91.001       12.272        0.018      334.512        4.534      868.764
01/05/2021  18:18:00      -69.487       -2.177       -6.852       43.379       28.923       24.651     1881.766      836.515      607.685        0.410        0.166       69.522       17.455        0.063      334.411        4.366      868.762
01/05/2021  18:19:00      -88.981       -1.781        4.350       54.757       37.447       24.866     2998.287     1402.264      618.324        0.648        0.251       88.999       20.982        0.056      334.323        4.221      868.761
01/05/2021  18:20:00      -71.555        0.823        7.222       47.481       40.267       22.079     2254.426     1621.427      487.472        0.477        0.218       71.560       16.883        0.056      334.235        4.074      868.761
01/05/2021  18:21:00      -13.830       -7.775        2.988       39.754       35.665       22.069     1580.395     1272.021      487.036        0.180        0.167       15.866        7.959        0.252      334.290        4.166      868.751
01/05/2021  18:22:00      -26.232       -6.075        8.961       37.774       23.759       18.207     1426.911      564.488      331.510        0.156        0.116       26.926       13.928        0.268      334.276        4.141      868.739
01/05/2021  18:23:00     -125.049       15.164       -3.049       39.917       32.798       19.584     1593.401     1075.717      383.544        0.946        0.153      125.965       14.957        0.014      334.170        3.965      868.744
01/05/2021  18:24:00      -40.696       -2.294        0.856       53.864       31.100       26.262     2901.312      967.216      689.718        0.311        0.228       40.761       20.575        0.255      334.232        4.069      868.747
01/05/2021  18:25:00      -37.623       -2.188        4.673       52.662       31.172       19.837     2773.335      971.717      393.498        0.279        0.207       37.686       19.203        0.260      334.207        4.028      868.761
01/05/2021  18:26:00     -145.019       15.342       -4.502       55.711       42.312       22.355     3103.719     1790.306      499.756        1.334        0.270      145.828       21.436        0.022      334.089        3.830      868.780
01/05/2021  18:27:00     -126.258        0.935       -2.276       62.800       35.317       29.493     3943.785     1247.287      869.863        1.100        0.303      126.261       27.036        0.046      334.061        3.784      868.799
01/05/2021  18:28:00      -55.276        6.519        3.973       46.234       31.370       28.973     2137.575      984.077      839.463        0.354        0.198       55.659       15.874        0.081      334.113        3.870      868.820
01/05/2021  18:29:00     -141.289       20.929      -18.132       52.529       32.009       26.451     2759.312     1024.561      699.643        1.261        0.224      142.831       24.470        0.029      334.016        3.711      868.827
01/05/2021  18:30:00     -165.933       37.537       -8.860       46.420       36.211       31.957     2154.817     1311.209     1021.219        1.675        0.224      170.126       24.084        0.020      333.996        3.679      868.830
01/05/2021  18:31:00     -130.715       23.291        7.869       60.392       39.884       26.916     3647.212     1590.726      724.451        1.183        0.298      132.774       30.267        0.052      333.945        3.593      868.826
01/05/2021  18:32:00     -103.738       33.009      -10.180       42.700       29.627       21.975     1823.286      877.739      482.892        0.757        0.159      108.863       17.287        0.025      333.894        3.509      868.830
01/05/2021  18:33:00     -145.966       55.970      -17.129       27.296       30.299       25.201      745.094      918.011      635.083        1.351        0.115      156.329       15.129        0.009      333.924        3.560      868.833
01/05/2021  18:34:00     -138.849       30.561      -10.766       45.219       29.837       20.177     2044.745      890.227      407.102        1.183        0.167      142.172       11.050        0.006      333.932        3.572      868.828
01/05/2021  18:35:00      -74.805        0.116       -7.653       60.347       45.873       29.465     3641.773     2104.325      868.171        0.613        0.331       74.805       27.018        0.130      333.935        3.578      868.829
01/05/2021  18:36:00     -134.701       21.957       -6.547       55.832       36.631       28.031     3117.239     1341.846      785.747        1.196        0.262      136.479       23.295        0.029      333.950        3.602      868.816
01/05/2021  18:37:00     -169.858       46.837       -8.754       56.344       30.664       29.220     3174.655      940.305      853.827        1.804        0.248      176.197       28.687        0.027      333.966        3.626      868.812
01/05/2021  18:38:00     -174.914       17.971      -10.899       51.662       46.910       24.731     2668.920     2200.512      611.613        1.826        0.274      175.835       27.039        0.024      333.974        3.642      868.805
01/05/2021  18:39:00     -153.763       71.744       -6.261       64.194       47.231       27.017     4120.851     2230.749      729.933        1.795        0.354      169.677       27.245        0.026      333.938        3.579      868.803
01/05/2021  18:40:00     -162.141       46.896       -1.200       56.088       39.291       33.253     3145.897     1543.772     1105.768        1.714        0.290      168.787       27.885        0.027      333.908        3.529      868.810
01/05/2021  18:41:00     -171.483       52.568      -16.070       36.932       31.389       24.717     1363.967      985.257      610.949        1.769        0.148      179.359       18.174        0.010      333.890        3.501      868.812
01/05/2021  18:42:00     -168.139       41.631      -13.020       42.122       39.521       27.029     1774.287     1561.881      730.577        1.712        0.203      173.216       22.462        0.017      333.943        3.589      868.828
01/05/2021  18:43:00     -197.660       30.877       -7.779       41.386       34.271       28.053     1712.791     1174.503      786.953        2.188        0.184      200.057       25.229        0.016      333.975        3.641      868.849
01/05/2021  18:44:00     -151.423       10.257       -4.937       51.111       36.685       29.541     2612.380     1345.755      872.685        1.394        0.242      151.770       27.833        0.034      333.932        3.571      868.869
01/05/2021  18:45:00     -149.088       31.823      -14.910       41.166       33.486       23.006     1694.677     1121.325      529.266        1.340        0.167      152.447       22.138        0.021      333.968        3.630      868.893
01/05/2021  18:46:00     -142.199       19.233       -7.634       43.229       29.372       27.306     1868.707      862.711      745.606        1.206        0.174      143.494       23.803        0.028      334.001        3.687      868.892
01/05/2021  18:47:00     -167.180       41.142      -15.495       41.170       43.178       25.639     1694.992     1864.334      657.343        1.705        0.211      172.168       21.432        0.015      334.079        3.814      868.879
01/05/2021  18:48:00     -157.163       39.149       -7.127       40.677       33.900       26.067     1654.603     1149.206      679.471        1.488        0.174      161.966       20.994        0.017      334.127        3.893      868.867
01/05/2021  18:49:00     -132.334       13.102       -1.362       55.908       44.625       31.906     3125.706     1991.381     1017.992        1.191        0.307      132.981       33.297        0.063      334.099        3.849      868.859
01/05/2021  18:50:00     -105.211       13.500      -13.425       75.250       56.496       24.975     5662.594     3191.850      623.731        1.045        0.474      106.074       28.377        0.072      334.087        3.827      868.859
01/05/2021  18:51:00      -94.348       12.040      -14.637       62.241       46.101       21.338     3873.956     2125.307      455.322        0.786        0.323       95.113       13.718        0.021      334.058        3.781      868.849
01/05/2021  18:52:00     -132.974       20.101      -18.702       38.909       33.253       17.260     1513.938     1105.786      297.891        1.068        0.146      134.484       16.403        0.015      334.061        3.783      868.848
01/05/2021  18:53:00      -99.389        5.761        2.128       35.804       31.618       23.765     1281.925      999.721      564.755        0.638        0.142       99.556       21.288        0.046      333.936        3.578      868.841
01/05/2021  18:54:00     -121.981       30.126       -3.082       49.893       35.420       23.063     2489.337     1254.547      531.914        1.004        0.214      125.646       19.224        0.023      333.926        3.563      868.838
01/05/2021  18:55:00     -125.101       31.463       -1.809       49.217       27.148       20.311     2422.295      737.006      412.520        1.011        0.179      128.997       18.244        0.020      333.878        3.482      868.832
01/05/2021  18:56:00     -107.529       38.367      -10.676       39.234       28.443       23.875     1539.299      808.995      569.995        0.803        0.146      114.169       10.598        0.009      334.006        3.693      868.826
01/05/2021  18:57:00      -28.509       -7.883       -2.541       35.348       22.830       21.203     1249.476      521.223      449.565        0.155        0.111       29.579        8.368        0.080      334.002        3.688      868.828
01/05/2021  18:58:00      -51.293        3.814        0.272       36.829       18.649       16.442     1356.387      347.785      270.333        0.231        0.099       51.435       15.145        0.087      333.930        3.568      868.824
01/05/2021  18:59:00      -17.372       -9.539        2.880       25.303       23.664       14.443      640.218      559.972      208.599        0.090        0.070       19.819        8.003        0.163      333.967        3.629      868.820
01/05/2021  19:00:00        0.424      -10.641       -7.216       41.937       21.024       18.103     1758.703      442.021      327.712        0.135        0.126       10.649       13.983        1.724      334.016        3.712      868.816
01/05/2021  19:01:00       14.925        1.400        5.170       29.031       16.666       19.338      842.783      277.763      373.963        0.087        0.075       14.990        6.912        0.213      333.875        3.477      868.819
01/05/2021  19:02:00       -2.837       -3.675       -6.119       26.734       24.778       18.617      714.715      613.928      346.576        0.087        0.084        4.643       10.540        5.155      333.900        3.519      868.823
01/05/2021  19:03:00      -26.975       -9.937       -1.298       36.117       25.504       19.216     1304.467      650.440      369.257        0.158        0.116       28.747       13.441        0.219      333.816        3.378      868.821
01/05/2021  19:04:00      -43.201       10.761       -5.261       41.817       21.257       18.226     1748.686      451.867      332.177        0.227        0.127       44.521       15.037        0.114      333.771        3.304      868.828
01/05/2021  19:05:00      -60.197        7.249       -7.905       28.043       24.361       13.810      786.407      593.475      190.704        0.265        0.079       60.632        6.516        0.012      333.767        3.298      868.828
01/05/2021  19:06:00      -90.091       -2.547      -10.123       30.264       23.404       18.297      915.881      547.744      334.796        0.501        0.090       90.127       13.938        0.024      333.835        3.412      868.830
01/05/2021  19:07:00     -106.786        7.428       -8.026       37.604       19.197       17.936     1414.053      368.518      321.702        0.681        0.105      107.044       12.983        0.015      333.792        3.339      868.820
01/05/2021  19:08:00     -105.323       -1.321       -0.777       43.300       26.871       21.224     1874.890      722.045      450.447        0.707        0.152      105.332       20.521        0.038      333.716        3.213      868.806
01/05/2021  19:09:00      -61.336        2.319       -1.769       59.109       23.661       20.647     3493.862      559.848      426.315        0.412        0.224       61.380       25.054        0.167      333.753        3.274      868.798
01/05/2021  19:10:00      -85.124       25.988       -4.255       52.930       26.474       23.662     2801.576      700.894      559.877        0.600        0.203       89.003       25.323        0.081      333.605        3.029      868.800
01/05/2021  19:11:00      -97.344       14.074       11.984       56.396       30.061       23.794     3180.515      903.685      566.146        0.723        0.233       98.356       26.281        0.071      333.530        2.905      868.802
01/05/2021  19:12:00     -116.918       28.711        5.046       34.948       30.184       24.857     1221.357      911.078      617.854        0.863        0.138      120.392       21.803        0.033      333.579        2.986      868.826
01/05/2021  19:13:00      -97.221       22.293       -4.285       43.732       33.925       23.256     1912.450     1150.895      540.827        0.678        0.180       99.744       22.416        0.051      333.526        2.900      868.842
01/05/2021  19:14:00     -114.186       22.115        1.752       34.102       31.656       19.508     1162.919     1002.102      380.575        0.804        0.127      116.308       18.285        0.025      333.557        2.949      868.857
01/05/2021  19:15:00     -118.858        9.479       -4.997       47.323       28.614       24.489     2239.481      818.735      599.690        0.895        0.183      119.236       24.038        0.041      333.558        2.952      868.875
01/05/2021  19:16:00     -102.134        2.279        2.233       53.302       30.259       26.870     2841.145      915.587      721.984        0.746        0.224      102.160       27.782        0.074      333.625        3.063      868.887
01/05/2021  19:17:00     -111.631       -0.301       -4.997       39.511       23.089       20.255     1561.131      533.087      410.250        0.749        0.125      111.631       10.933        0.010      333.583        2.993      868.899
01/05/2021  19:18:00      -98.005       -1.716       -5.729       55.104       30.238       22.210     3036.414      914.326      493.292        0.704        0.222       98.020       15.106        0.024      333.604        3.027      868.913
01/05/2021  19:19:00     -126.082        9.385        0.857       62.071       35.922       22.551     3852.781     1290.389      508.567        1.082        0.283      126.430       22.585        0.032      333.556        2.947      868.924
01/05/2021  19:20:00     -107.844       15.557        8.360       54.506       40.761       21.123     2970.863     1661.480      446.168        0.851        0.254      108.960       14.590        0.018      333.488        2.834      868.923
01/05/2021  19:21:00     -125.844       -3.417        5.504       46.680       40.432       24.283     2179.054     1634.726      589.672        1.014        0.220      125.890       18.076        0.021      333.430        2.739      868.915
01/05/2021  19:22:00     -102.186       -5.412        6.418       57.552       36.416       27.257     3312.212     1326.089      742.945        0.795        0.269      102.329       20.959        0.042      333.407        2.700      868.901
01/05/2021  19:23:00     -159.961      -30.453      -10.163       40.956       37.939       20.318     1677.404     1439.354      412.839        1.507        0.176      162.834       14.432        0.008      333.387        2.669      868.890
01/05/2021  19:24:00      -94.404      -24.583       -6.560       55.986       46.238       30.162     3134.482     2137.962      909.773        0.787        0.309       97.553       24.905        0.065      333.389        2.673      868.884
01/05/2021  19:25:00      -99.049       -8.192       -0.443       58.513       34.391       28.619     3423.718     1182.761      819.031        0.765        0.271       99.387       31.041        0.098      333.479        2.822      868.889
01/05/2021  19:26:00     -142.243       31.157       -0.237       44.227       34.992       22.709     1955.993     1224.453      515.696        1.245        0.185      145.616       21.587        0.022      333.456        2.781      868.899
01/05/2021  19:27:00     -104.613        8.037        5.881       47.155       29.074       22.863     2223.584      845.284      522.730        0.732        0.180      104.921       21.217        0.041      333.444        2.763      868.911
01/05/2021  19:28:00      -94.246        2.506        1.765       55.263       31.701       21.006     3053.956     1004.980      441.245        0.669        0.225       94.280       17.860        0.036      333.546        2.932      868.909
01/05/2021  19:29:00      -79.684       -7.231        5.267       73.513       36.518       29.591     5404.174     1333.593      875.626        0.702        0.381       80.011       20.508        0.066      333.468        2.802      868.901
01/05/2021  19:30:00      -75.874        2.495        2.243       62.400       37.878       27.049     3893.742     1434.733      731.623        0.591        0.303       75.915       13.369        0.031      333.464        2.796      868.880
01/05/2021  19:31:00     -105.120       10.148       12.266       72.307       33.975       28.293     5228.306     1154.269      800.480        0.924        0.359      105.609       32.169        0.093      333.443        2.760      868.861
01/05/2021  19:32:00      -96.222      -17.448       -4.043       61.186       33.744       25.400     3743.689     1138.682      645.144        0.755        0.276       97.791       16.513        0.029      333.404        2.696      868.847
01/05/2021  19:33:00      -51.923        5.611       10.629       56.816       31.396       30.364     3228.089      985.721      922.001        0.399        0.257       52.225       22.911        0.192      333.369        2.639      868.843
01/05/2021  19:34:00      -68.398        9.157        7.435       43.735       49.249       25.397     1912.757     2425.481      644.984        0.490        0.249       69.008       16.143        0.055      333.350        2.607      868.835
01/05/2021  19:35:00     -121.300       16.214       -0.735       35.748       30.580       21.649     1277.948      935.155      468.673        0.883        0.134      122.379       16.976        0.019      333.297        2.520      868.826
01/05/2021  19:36:00     -122.833       -1.529       -4.492       42.672       38.800       24.235     1820.933     1505.446      587.336        0.951        0.196      122.842       14.226        0.013      333.353        2.613      868.807
01/05/2021  19:37:00     -136.704        1.055        0.798       50.640       39.393       22.435     2564.419     1551.809      503.344        1.165        0.231      136.708       11.972        0.008      333.381        2.657      868.798
01/05/2021  19:38:00     -105.826       -1.987        0.797       46.674       38.757       24.057     2178.418     1502.080      578.731        0.773        0.213      105.845       16.583        0.025      333.403        2.695      868.796
01/05/2021  19:39:00     -144.179       -6.781       -6.718       52.251       36.287       21.588     2730.136     1316.742      466.050        1.269        0.226      144.338       18.573        0.017      333.393        2.678      868.793
01/05/2021  19:40:00     -146.921      -14.149       -5.030       50.826       38.748       31.667     2583.284     1501.440     1002.788        1.345        0.254      147.601       14.739        0.010      333.388        2.671      868.789
01/05/2021  19:41:00     -137.971        6.646       -1.456       48.510       41.192       26.616     2353.257     1696.805      708.400        1.192        0.238      138.131       15.777        0.013      333.360        2.625      868.798
01/05/2021  19:42:00     -137.339        2.008        4.084       46.285       35.019       25.207     2142.281     1226.321      635.402        1.144        0.200      137.353       23.979        0.030      333.370        2.640      868.792
01/05/2021  19:43:00     -105.737       20.592       10.838       42.671       34.454       25.450     1820.784     1187.084      647.688        0.769        0.183      107.724       17.842        0.027      333.274        2.480      868.786
01/05/2021  19:44:00     -126.828       12.823       -0.372       44.470       32.349       24.053     1977.615     1046.434      578.567        0.993        0.180      127.474       22.494        0.031      333.332        2.576      868.778
01/05/2021  19:45:00     -100.419      -15.564       -7.818       79.618       27.461       23.074     6339.061      754.115      532.399        0.900        0.381      101.618       28.422        0.078      333.291        2.508      868.779
01/05/2021  19:46:00     -106.799        1.293        0.997       41.393       28.589       19.347     1713.344      817.332      374.295        0.716        0.145      106.807       13.934        0.017      333.254        2.448      868.775
01/05/2021  19:47:00      -67.480        4.770       -0.479       46.753       31.322       20.220     2185.851      981.095      408.864        0.408        0.179       67.648       20.120        0.088      333.287        2.503      868.775
01/05/2021  19:48:00      -59.046       -5.315       -8.049       42.115       32.466       19.909     1773.667     1054.039      396.358        0.340        0.161       59.284       20.642        0.121      333.264        2.465      868.784
01/05/2021  19:49:00      -51.174       -1.962        1.352       54.013       33.781       24.902     2917.415     1141.181      620.095        0.365        0.234       51.211       24.978        0.238      333.198        2.355      868.792
01/05/2021  19:50:00      -83.196       10.905       -2.888       35.722       28.996       19.171     1276.053      840.748      367.545        0.477        0.124       83.908       15.902        0.036      333.182        2.330      868.804
01/05/2021  19:51:00      -75.650       16.223       -1.426       31.822       26.936       16.341     1012.647      725.534      267.018        0.400        0.100       77.370        7.922        0.010      333.164        2.300      868.819
01/05/2021  19:52:00      -61.691        3.109        0.726       32.637       21.638       17.000     1065.153      468.202      288.989        0.282        0.091       61.769       15.352        0.062      333.146        2.270      868.833
01/05/2021  19:53:00      -26.893       -9.123        4.228       37.406       21.179       17.907     1399.173      448.567      320.649        0.150        0.108       28.398        8.044        0.080      333.280        2.491      868.845
01/05/2021  19:54:00      -49.501        4.153       -3.846       49.086       16.073       16.659     2409.419      258.342      277.537        0.271        0.147       49.675       16.037        0.104      333.197        2.353      868.858
01/05/2021  19:55:00      -45.110      -11.141       -1.189       37.134       19.225       17.097     1378.953      369.584      292.319        0.210        0.102       46.465        9.894        0.045      333.202        2.362      868.873
01/05/2021  19:56:00      -41.022      -13.333       -2.106       40.055       26.118       23.771     1604.424      682.158      565.077        0.236        0.143       43.135       22.278        0.267      333.151        2.279      868.874
01/05/2021  19:57:00      -60.279        1.638        2.208       47.512       26.623       18.087     2257.394      708.770      327.146        0.347        0.165       60.301        9.550        0.025      333.130        2.243      868.879
01/05/2021  19:58:00     -122.675        9.250        2.048       38.082       22.420       17.954     1450.213      502.634      322.363        0.871        0.114      123.024       14.939        0.015      333.112        2.213      868.881
01/05/2021  19:59:00     -104.270        1.172       -1.219       41.998       28.779       19.399     1763.804      828.230      376.303        0.692        0.148      104.277       20.999        0.041      333.090        2.178      868.883
01/05/2021  20:00:00      -79.762       -7.860        4.030       63.137       28.585       24.033     3986.264      817.101      577.581        0.591        0.269       80.149       28.436        0.126      333.020        2.063      868.877
01/05/2021  20:01:00      -69.237      -18.624       -9.222       42.483       33.755       28.357     1804.829     1139.430      804.132        0.449        0.187       71.698       25.576        0.127      332.979        1.993      868.883
01/05/2021  20:02:00      -78.538      -11.036       -3.172       45.111       26.486       23.350     2034.979      701.507      545.231        0.479        0.164       79.310       19.263        0.059      332.965        1.971      868.889
01/05/2021  20:03:00      -79.293      -21.323      -11.226       35.628       32.425       22.658     1269.384     1051.397      513.362        0.485        0.142       82.110       18.402        0.050      332.902        1.867      868.897
01/05/2021  20:04:00      -61.958        9.487       -3.437       46.211       35.445       19.111     2135.471     1256.340      365.243        0.385        0.188       62.680       11.510        0.034      332.866        1.807      868.906
01/05/2021  20:05:00      -51.022        6.497       -2.910       55.526       22.481       18.248     3083.159      505.405      332.998        0.329        0.196       51.434       22.013        0.183      332.916        1.890      868.920
01/05/2021  20:06:00      -28.196        1.833       -5.581       45.214       38.186       26.947     2044.288     1458.164      726.150        0.253        0.211       28.256       15.650        0.307      332.862        1.800      868.927
01/05/2021  20:07:00      -12.556        4.698        3.285       39.819       42.558       27.939     1585.591     1811.141      780.596        0.218        0.209       13.406       21.834        2.653      332.858        1.794      868.936
01/05/2021  20:08:00      -12.747        3.681        1.424       41.517       29.795       24.233     1723.668      887.725      587.243        0.169        0.160       13.267       13.728        1.071      332.878        1.828      868.938
01/05/2021  20:09:00      -23.723       -4.845       -6.489       43.273       28.455       22.769     1872.557      809.704      518.423        0.191        0.160       24.213       13.804        0.325      332.829        1.747      868.934
01/05/2021  20:10:00      -47.681      -18.046       -9.440       50.719       29.931       28.913     2572.409      895.845      835.959        0.350        0.215       50.982       13.502        0.070      332.771        1.649      868.941
01/05/2021  20:11:00      -95.034       -3.483      -13.036       33.460       18.004       15.384     1119.547      324.151      236.652        0.545        0.084       95.098       15.919        0.028      332.763        1.636      868.946
01/05/2021  20:12:00     -117.007       17.079       -8.763       24.893       20.621       16.101      619.647      425.224      259.234        0.768        0.065      118.247       11.470        0.009      332.778        1.662      868.956
01/05/2021  20:13:00      -75.988       12.744       -8.175       38.669       22.188       15.589     1495.328      492.321      243.011        0.412        0.112       77.049       11.150        0.021      332.849        1.778      868.962
01/05/2021  20:14:00      -54.023        0.944        1.256       49.383       23.767       15.575     2438.691      564.873      242.569        0.308        0.162       54.032        8.403        0.024      332.854        1.789      868.969
01/05/2021  20:15:00      -58.970      -16.185       -8.848       44.258       24.783       24.220     1958.764      614.176      586.611        0.349        0.158       61.151       19.130        0.098      332.835        1.756      868.969
01/05/2021  20:16:00      -94.844       -0.252      -11.880       28.421       24.240       19.610      807.755      587.562      384.533        0.546        0.089       94.845        8.954        0.009      332.875        1.823      868.977
01/05/2021  20:17:00     -124.096       10.107       -8.103       28.316       27.144       17.154      801.817      736.811      294.260        0.870        0.092      124.507       11.758        0.009      332.894        1.854      868.982
01/05/2021  20:18:00     -118.820        5.278       -1.447       37.333       25.541       20.131     1393.752      652.363      405.268        0.830        0.123      118.937       18.621        0.025      332.927        1.909      868.989
01/05/2021  20:19:00      -37.538        8.999        0.775       36.781       37.774       24.461     1352.807     1426.913      598.318        0.243        0.169       38.602       14.546        0.142      332.814        1.722      869.004
01/05/2021  20:20:00      -51.695       -0.680       -3.755       59.907       35.404       25.312     3588.876     1253.444      640.716        0.408        0.274       51.699       23.610        0.209      332.732        1.586      869.016
01/05/2021  20:21:00      -34.662        6.458        7.530       65.340       23.362       25.847     4269.308      545.788      668.046        0.339        0.274       35.258       31.265        0.786      332.720        1.565      869.014
01/05/2021  20:22:00      -89.546        1.680      -10.125       62.725       32.351       22.208     3934.433     1046.595      493.181        0.680        0.274       89.562       16.116        0.032      332.688        1.513      869.003
01/05/2021  20:23:00      -76.694        3.948      -12.740       51.721       41.687       19.618     2675.020     1737.793      384.847        0.543        0.240       76.795       17.562        0.052      332.729        1.580      868.986
01/05/2021  20:24:00        8.990       -8.028        3.561       44.792       40.891       29.943     2006.339     1672.071      896.555        0.237        0.229       12.053       17.514        2.111      332.731        1.584      868.968
01/05/2021  20:25:00      -43.590       -9.596       -6.796       50.501       44.150       26.717     2550.363     1949.192      713.778        0.362        0.261       44.634       15.498        0.121      332.655        1.460      868.955
01/05/2021  20:26:00      -48.016       -8.864       -6.618       46.344       40.369       22.732     2147.804     1629.694      516.748        0.336        0.215       48.827       22.637        0.215      332.673        1.489      868.947
01/05/2021  20:27:00     -124.037        6.482       -5.114       53.555       24.840       25.272     2868.099      617.001      638.665        0.979        0.206      124.206       22.252        0.032      332.615        1.395      868.942
01/05/2021  20:28:00     -116.224      -18.795       -5.722       41.648       28.122       23.719     1734.538      790.872      562.575        0.849        0.154      117.734       17.752        0.023      332.699        1.531      868.929
01/05/2021  20:29:00      -56.359       -7.237        0.170       54.082       29.778       26.325     2924.872      886.738      693.001        0.387        0.225       56.822       29.584        0.271      332.714        1.558      868.909
01/05/2021  20:30:00      -60.073        3.726       -1.125       50.919       34.736       21.839     2592.778     1206.620      476.948        0.395        0.214       60.188       15.539        0.067      332.763        1.637      868.887
01/05/2021  20:31:00      -98.093        6.398       -9.082       33.584       24.933       22.254     1127.897      621.644      495.261        0.599        0.112       98.301       20.303        0.043      332.794        1.689      868.861
01/05/2021  20:32:00      -42.185        4.519        2.906       41.789       20.633       14.671     1746.355      425.702      215.230        0.210        0.119       42.427       13.533        0.102      332.781        1.667      868.858
01/05/2021  20:33:00      -20.006       -8.733        0.406       37.247       26.219       20.997     1387.321      687.453      440.890        0.150        0.126       21.829       13.543        0.385      332.869        1.813      868.862
01/05/2021  20:34:00      -23.094       -4.414       -3.126       38.389       20.836       19.284     1473.714      434.156      371.872        0.142        0.114       23.513       16.248        0.478      332.922        1.901      868.868
01/05/2021  20:35:00      -52.933       -6.963       -1.528       33.834       30.790       22.206     1144.768      948.024      493.086        0.272        0.129       53.389       13.130        0.060      332.820        1.732      868.880
01/05/2021  20:36:00      -37.194       -2.056        1.132       45.850       23.059       17.172     2102.189      531.730      294.886        0.216        0.146       37.251       14.228        0.146      332.736        1.591      868.881
01/05/2021  20:37:00      -27.870      -11.595        5.080       39.735       30.184       26.062     1578.845      911.072      679.207        0.205        0.158       30.185       15.633        0.268      332.756        1.626      868.868
01/05/2021  20:38:00      -16.995        6.994        8.959       44.340       30.731       25.296     1966.076      944.381      639.887        0.198        0.178       18.378       17.485        0.905      332.715        1.559      868.850
01/05/2021  20:39:00       18.369        9.239       -4.353       44.559       32.276       25.012     1985.546     1041.745      625.618        0.205        0.183       20.562       25.914        1.588      332.822        1.735      868.832
01/05/2021  20:40:00      -45.295       20.643        0.306       61.988       29.270       25.050     3842.488      856.704      627.496        0.390        0.266       49.778       18.657        0.140      332.781        1.668      868.820
01/05/2021  20:41:00      -70.876        4.565       -5.156       33.395       27.539       18.148     1115.255      758.375      329.337        0.364        0.110       71.023       10.417        0.022      332.789        1.680      868.832
01/05/2021  20:42:00      -78.047       15.126        6.001       33.991       33.954       25.131     1155.418     1152.881      631.549        0.465        0.147       79.499       18.985        0.057      332.852        1.785      868.851
01/05/2021  20:43:00      -71.714       12.042        4.802       35.874       28.389       22.179     1286.953      805.922      491.911        0.395        0.129       72.718       21.863        0.090      332.833        1.753      868.863
01/05/2021  20:44:00      -96.170       14.564       -3.993       21.555       23.120       15.483      464.626      534.552      239.711        0.536        0.062       97.266       15.243        0.025      332.854        1.788      868.807
01/05/2021  20:45:00      -86.956       19.665        0.259       27.231       23.743       19.239      741.520      563.713      370.127        0.481        0.084       89.152       15.258        0.029      332.775        1.657      868.770
01/05/2021  20:46:00      -75.065       24.590        0.724       33.994       19.586       18.490     1155.603      383.622      341.881        0.406        0.094       78.990       10.832        0.019      332.694        1.524      868.768
01/05/2021  20:47:00      -81.045       23.785       -3.580       24.867       26.590       18.346      618.390      707.016      336.590        0.440        0.083       84.463       18.301        0.047      332.695        1.525      868.772
01/05/2021  20:48:00      -81.387       24.839       -0.410       26.332       24.973       16.888      693.350      623.646      285.207        0.442        0.080       85.093       17.464        0.042      332.724        1.571      868.773
01/05/2021  20:49:00      -91.361       10.046       -5.559       24.168       26.530       14.292      584.105      703.864      204.270        0.499        0.075       91.912       14.029        0.023      332.763        1.638      868.773
01/05/2021  20:50:00      -54.149       10.937        1.915       25.593       23.739       17.051      654.979      563.530      290.746        0.228        0.075       55.242       11.911        0.046      332.701        1.534      868.780
01/05/2021  20:51:00      -25.377        4.034        2.674       45.213       21.012       16.872     2044.208      441.512      284.650        0.172        0.139       25.696       11.991        0.218      332.697        1.529      868.782
01/05/2021  20:52:00      -80.246       -2.306       -7.235       33.988       32.862       18.528     1155.189     1079.920      343.291        0.454        0.129       80.279       14.555        0.033      332.688        1.513      868.779
01/05/2021  20:53:00      -43.315        0.951       -4.192       34.990       43.896       24.593     1224.318     1926.820      604.806        0.282        0.188       43.325       22.654        0.273      332.653        1.456      868.772
01/05/2021  20:54:00      -24.734      -14.517      -12.927       66.136       29.565       21.360     4374.000      874.100      456.229        0.335        0.285       28.679       14.177        0.244      332.535        1.261      868.763
01/05/2021  20:55:00      -38.879        9.949        8.180       48.866       39.392       27.948     2387.851     1551.767      781.092        0.320        0.236       40.131       21.817        0.296      332.613        1.389      868.755
01/05/2021  20:56:00      -70.597        8.271        5.872       49.738       37.296       25.052     2473.884     1390.971      627.606        0.479        0.225       71.080       23.171        0.106      332.591        1.352      868.747
01/05/2021  20:57:00      -72.976      -19.893       -0.800       50.547       27.813       23.664     2555.046      773.542      559.988        0.480        0.194       75.639       15.198        0.040      332.558        1.300      868.747
01/05/2021  20:58:00      -77.152      -34.288       -9.130       51.793       29.057       24.008     2682.483      844.281      576.392        0.566        0.205       84.428       18.959        0.050      332.649        1.450      868.749
01/05/2021  20:59:00      -73.477      -31.102      -16.949       36.127       34.000       22.907     1305.148     1156.016      524.714        0.482        0.149       79.788       21.383        0.072      332.683        1.505      868.751
01/05/2021  21:00:00      -48.958      -11.392       -1.484       45.352       33.820       20.902     2056.816     1143.782      436.889        0.308        0.182       50.266       14.002        0.078      332.614        1.391      868.750
01/05/2021  21:01:00      -83.630      -22.027        0.511       67.160       40.499       28.170     4510.462     1640.208      793.566        0.721        0.347       86.482       15.524        0.032      332.655        1.460      868.749
01/05/2021  21:02:00      -96.906       -4.086        3.033       45.667       34.268       23.085     2085.456     1174.295      532.938        0.660        0.190       96.993       21.525        0.049      332.623        1.405      868.744
01/05/2021  21:03:00      -71.821      -20.717       -1.887       54.892       36.191       22.841     3013.126     1309.758      521.709        0.522        0.242       74.750       22.396        0.090      332.667        1.479      868.738
01/05/2021  21:04:00      -32.944        1.626        3.395       38.238       30.121       22.624     1462.147      907.259      511.839        0.199        0.144       32.984       19.836        0.362      332.603        1.373      868.728
01/05/2021  21:05:00      -31.194       -4.148        0.093       54.256       35.925       25.591     2943.747     1290.616      654.922        0.294        0.244       31.468       19.098        0.368      332.656        1.461      868.712
01/05/2021  21:06:00      -27.584      -15.122        2.854       56.111       34.657       27.968     3148.413     1201.137      782.231        0.306        0.257       31.457       20.850        0.439      332.667        1.479      868.699
01/05/2021  21:07:00      -76.750        5.973       -0.973       36.994       31.261       20.188     1368.565      977.258      407.539        0.434        0.138       76.982       13.700        0.032      332.586        1.345      868.673
01/05/2021  21:08:00      -58.006       -5.847       -0.256       33.508       32.377       20.822     1122.808     1048.301      433.549        0.300        0.130       58.300       18.922        0.105      332.565        1.310      868.657
01/05/2021  21:09:00      -36.968        0.700        7.297       42.840       38.170       25.073     1835.277     1456.975      628.654        0.267        0.196       36.975       21.515        0.339      332.588        1.349      868.648
01/05/2021  21:10:00      -63.540        2.092        1.968       50.767       34.408       24.015     2577.316     1183.888      576.736        0.419        0.217       63.574       15.740        0.061      332.535        1.262      868.650
01/05/2021  21:11:00      -45.060        0.310       10.720       49.803       33.580       28.790     2480.343     1127.641      828.850        0.329        0.222       45.061       20.148        0.200      332.516        1.229      868.655
01/05/2021  21:12:00      -71.039        3.230        2.402       51.011       41.069       28.697     2602.117     1686.700      823.503        0.509        0.256       71.113       26.262        0.136      332.510        1.219      868.661
01/05/2021  21:13:00       -7.457        1.007        3.396       64.143       42.368       28.330     4114.359     1795.073      802.585        0.339        0.336        7.524       25.874       11.825      332.556        1.295      868.664
01/05/2021  21:14:00      -48.989       13.525       -5.989       45.344       36.400       28.794     2056.113     1324.935      829.097        0.341        0.211       50.822       19.368        0.145      332.412        1.058      868.660
01/05/2021  21:15:00      -61.328       10.285        1.570       43.129       36.013       25.958     1860.078     1296.946      673.841        0.385        0.192       62.184       19.080        0.094      332.409        1.053      868.649
01/05/2021  21:16:00      -39.140       -2.704       -6.236       60.814       31.713       26.396     3698.358     1005.729      696.768        0.349        0.270       39.233       14.430        0.135      332.382        1.008      868.627
01/05/2021  21:17:00      -93.637        8.268       -1.987       44.600       41.843       24.801     1989.146     1750.866      615.108        0.660        0.218       94.002       22.343        0.056      332.361        0.975      868.599
01/05/2021  21:18:00     -113.831       29.838        2.459       34.310       36.697       25.596     1177.207     1346.689      655.178        0.852        0.159      117.677       25.229        0.046      332.250        0.790      868.572
01/05/2021  21:19:00      -81.442       16.563        0.865       53.919       36.144       24.169     2907.253     1306.399      584.131        0.585        0.240       83.109       22.684        0.074      332.215        0.732      868.552
01/05/2021  21:20:00     -102.025       13.359        4.727       47.138       33.485       27.992     2221.973     1121.263      783.568        0.737        0.206      102.896       25.183        0.060      332.239        0.772      868.539
01/05/2021  21:21:00     -123.034       21.434        1.282       41.526       36.779       23.909     1724.428     1352.681      571.639        0.962        0.182      124.887       24.559        0.039      332.295        0.866      868.525
01/05/2021  21:22:00      -95.049        8.649        2.494       43.464       44.102       24.858     1889.076     1944.989      617.908        0.678        0.223       95.441       24.705        0.067      332.251        0.792      868.506
01/05/2021  21:23:00      -96.704       34.734       -5.185       41.082       41.892       29.014     1687.756     1754.930      841.828        0.743        0.214      102.752       24.796        0.058      332.129        0.591      868.485
01/05/2021  21:24:00      -87.418       55.460        4.401       51.291       46.035       32.066     2630.815     2119.229     1028.260        0.826        0.289      103.526       30.708        0.088      332.003        0.382      868.469
01/05/2021  21:25:00      -70.572       33.217        6.003       47.139       45.465       29.912     2222.106     2067.081      894.743        0.565        0.259       77.999       29.933        0.147      332.030        0.429      868.460
01/05/2021  21:26:00       -9.169        6.155      -14.550       56.077       32.555       29.408     3144.630     1059.836      864.846        0.270        0.253       11.043       25.498        5.331      332.045        0.453      868.463
01/05/2021  21:27:00       23.861        5.044        1.690       49.639       44.996       35.326     2464.043     2024.659     1247.944        0.317        0.287       24.389       31.906        1.711      332.118        0.572      868.461
01/05/2021  21:28:00       51.353       25.550      -11.099       55.674       55.817       36.711     3099.627     3115.526     1347.668        0.549        0.378       57.358       37.129        0.419      332.201        0.710      868.455
01/05/2021  21:29:00       28.879       11.784      -16.311       69.099       43.429       39.003     4774.676     1886.072     1521.217        0.471        0.409       31.191       39.024        1.565      332.189        0.691      868.436
01/05/2021  21:30:00       46.041       25.983        3.605       61.177       53.265       36.664     3742.674     2837.199     1344.267        0.536        0.396       52.867       38.556        0.532      332.156        0.634      868.412
01/05/2021  21:31:00        4.249        5.902      -14.192       61.633       41.908       34.150     3798.608     1756.284     1166.247        0.349        0.336        7.272       32.497       19.968      332.114        0.565      868.380
01/05/2021  21:32:00       22.380      -12.713       -2.598       58.374       39.782       33.722     3407.496     1582.605     1137.160        0.340        0.306       25.739       32.871        1.631      332.088        0.525      868.353
01/05/2021  21:33:00       34.334        1.930      -11.726       55.782       37.267       30.124     3111.641     1388.865      907.484        0.336        0.270       34.389       30.069        0.765      332.019        0.409      868.324
01/05/2021  21:34:00       35.009       11.987       -6.041       64.598       46.887       36.284     4172.841     2198.426     1316.556        0.455        0.384       37.004       33.731        0.831      332.210        0.725      868.300
01/05/2021  21:35:00       37.882       12.019       -2.948       58.081       46.646       36.620     3373.411     2175.857     1341.023        0.424        0.345       39.743       36.478        0.842      332.338        0.936      868.294
01/05/2021  21:36:00       49.167       15.932       -6.268      193.605       52.767       98.922    37483.060     2784.331     9785.482        2.637        2.503       51.684      131.834        6.506      332.404        1.045      868.303
01/05/2021  21:37:00       25.562       16.739        5.673       55.106       53.342       38.364     3036.645     2845.334     1471.806        0.416        0.368       30.555       39.421        1.665      332.458        1.134      868.317
01/05/2021  21:38:00        9.017       12.114       -0.037       54.785       49.347       33.418     3001.416     2435.102     1116.782        0.339        0.328       15.101       34.149        5.113      332.318        0.904      868.326
01/05/2021  21:39:00       -8.646       28.110        0.417       55.094       45.427       30.718     3035.319     2063.627      943.576        0.345        0.302       29.409       30.062        1.045      332.211        0.727      868.343
01/05/2021  21:40:00      -38.255       39.286       -0.423       39.541       49.468       32.838     1563.488     2447.103     1078.347        0.405        0.254       54.835       36.090        0.433      332.149        0.622      868.352
01/05/2021  21:41:00      -29.786       37.047       -7.622       46.487       40.645       26.859     2161.065     1652.025      721.420        0.343        0.227       47.536       26.748        0.317      332.126        0.586      868.352
01/05/2021  21:42:00      -28.102       37.573       -7.007       39.577       47.065       28.397     1566.300     2215.101      806.385        0.342        0.229       46.919       33.680        0.515      332.050        0.461      868.355
01/05/2021  21:43:00      -22.709       30.968      -10.145       48.134       44.101       28.318     2316.912     1944.864      801.918        0.332        0.253       38.401       29.398        0.586      332.013        0.401      868.355
01/05/2021  21:44:00      -15.911       39.660        0.875       36.052       44.530       28.619     1299.781     1982.891      819.046        0.296        0.205       42.733       31.690        0.550      332.065        0.484      868.361
01/05/2021  21:45:00      -12.838       41.783       -0.036       35.275       45.952       31.583     1244.354     2111.548      997.514        0.313        0.218       43.710       34.305        0.616      332.177        0.671      868.371
01/05/2021  21:46:00      -20.099       34.846        0.316       42.096       46.334       29.670     1772.056     2146.869      880.303        0.321        0.240       40.227       31.267        0.604      332.139        0.608      868.382
01/05/2021  21:47:00      -20.277       34.547       -1.550       44.536       50.667       32.533     1983.431     2567.101     1058.408        0.361        0.280       40.058       35.396        0.781      332.151        0.627      868.399
01/05/2021  21:48:00       -0.849       18.607        3.957       45.196       54.229       32.605     2042.676     2940.760     1063.075        0.320        0.302       18.627       33.601        3.254      332.163        0.646      868.422
01/05/2021  21:49:00        1.041       17.258        1.620       48.725       46.097       32.626     2374.084     2124.973     1064.447        0.293        0.278       17.289       32.772        3.593      332.222        0.745      868.437
01/05/2021  21:50:00      -12.207       10.361        0.935       54.619       48.406       34.580     2983.235     2343.134     1195.754        0.339        0.326       16.011       34.008        4.511      332.219        0.740      868.434
01/05/2021  21:51:00      -36.697       26.353       -7.722       57.884       49.434       32.917     3350.545     2443.750     1083.537        0.449        0.344       45.179       34.307        0.577      332.130        0.593      868.418
01/05/2021  21:52:00      -61.801       33.083       -1.751       39.171       41.441       26.280     1534.398     1717.368      690.635        0.443        0.197       70.099       29.691        0.179      332.113        0.565      868.394
01/05/2021  21:53:00      -61.564       26.424       10.127       30.995       46.788       29.793      960.704     2189.161      887.606        0.431        0.202       66.995       37.582        0.315      332.286        0.849      868.361
01/05/2021  21:54:00      -72.738       29.374        6.518       33.610       46.484       25.910     1129.621     2160.754      671.302        0.508        0.198       78.445       33.654        0.184      332.288        0.853      868.331
01/05/2021  21:55:00      -90.096       39.779        4.472       33.277       49.222       29.840     1107.342     2422.845      890.413        0.707        0.221       98.487       36.389        0.137      332.162        0.647      868.323
01/05/2021  21:56:00      -93.149       51.201       12.744       32.019       47.414       28.633     1025.238     2248.103      819.850        0.778        0.205      106.294       35.259        0.110      332.016        0.405      868.333
01/05/2021  21:57:00      -98.996       37.307        4.208       33.453       45.350       30.092     1119.072     2056.599      905.528        0.764        0.204      105.793       36.783        0.121      332.055        0.469      868.343
01/05/2021  21:58:00      -99.857       35.329        5.569       37.864       45.541       28.251     1433.679     2073.999      798.119        0.778        0.215      105.922       34.547        0.106      331.988        0.358      868.346
01/05/2021  21:59:00      -84.375       20.457        1.341       35.767       43.746       28.901     1279.255     1913.723      835.245        0.578        0.201       86.819       33.676        0.150      331.948        0.293      868.343
01/05/2021  22:00:00      -22.102        9.824       11.131       46.720       55.280       34.564     2182.726     3055.846     1194.656        0.357        0.322       24.187       39.098        2.613      332.052        0.463      868.333
01/05/2021  22:01:00      -26.508        1.269        6.494       50.629       57.758       36.209     2563.281     3336.023     1311.104        0.398        0.361       26.539       38.108        2.062      332.016        0.404      868.333
01/05/2021  22:02:00       -3.038       14.940        9.375       53.381       49.100       40.061     2849.580     2410.842     1604.849        0.359        0.343       15.246       37.698        6.114      332.030        0.429      868.333
01/05/2021  22:03:00      -51.883       18.405        0.074       52.183       47.982       31.348     2723.061     2302.309      982.671        0.452        0.300       55.051       30.202        0.301      331.998        0.375      868.332
01/05/2021  22:04:00      -45.921       18.225        8.429       58.633       44.970       32.289     3437.841     2022.308     1042.562        0.451        0.325       49.405       33.686        0.465      332.018        0.408      868.333
01/05/2021  22:05:00      -65.085       35.070       -1.741       47.214       49.292       32.748     2229.184     2429.733     1072.443        0.560        0.287       73.932       35.318        0.228      332.039        0.443      868.319
01/05/2021  22:06:00      -81.949       26.487       -4.443       36.854       42.026       29.435     1358.188     1766.190      866.404        0.571        0.200       86.123       31.258        0.132      331.987        0.357      868.304
01/05/2021  22:07:00      -35.696       27.022       11.682       59.632       58.233       35.959     3556.005     3391.128     1293.024        0.519        0.412       44.771       40.604        0.823      331.997        0.372      868.293
01/05/2021  22:08:00      -51.717       23.691        6.654       67.291       48.248       31.714     4528.098     2327.886     1005.754        0.557        0.393       56.885       30.691        0.291      331.953        0.300      868.305
01/05/2021  22:09:00      -88.678       13.660        4.784       56.663       52.278       31.534     3210.695     2732.970      994.369        0.750        0.347       89.724       35.961        0.161      331.970        0.328      868.336
01/05/2021  22:10:00     -110.984        5.350        1.185       56.254       56.320       35.817     3164.477     3171.980     1282.882        0.998        0.381      111.113       38.214        0.118      331.927        0.258      868.358
01/05/2021  22:11:00      -17.178       14.144        6.596       77.211       45.552       37.665     5961.548     2074.964     1418.668        0.499        0.473       22.252       31.268        1.975      331.851        0.133      868.393
01/05/2021  22:12:00      -25.304       22.635        7.578       62.369       49.418       37.052     3889.833     2442.170     1372.842        0.446        0.385       33.950       30.369        0.800      331.875        0.172      868.411
01/05/2021  22:13:00        8.830       45.748       13.539       63.636       55.096       42.480     4049.595     3035.519     1804.586        0.562        0.444       46.593       37.338        0.642      331.891        0.199      868.408
01/05/2021  22:14:00       -1.783       24.535        2.010       61.169       46.271       33.174     3741.652     2141.045     1100.528        0.379        0.349       24.600       29.770        1.465      331.919        0.247      868.391
01/05/2021  22:15:00       -3.787       27.133       -0.697       50.943       56.015       36.677     2595.170     3137.632     1345.229        0.391        0.354       27.396       37.636        1.887      331.934        0.269      868.367
01/05/2021  22:16:00       12.818       20.602        4.075       55.465       55.641       40.385     3076.398     3095.870     1630.988        0.420        0.390       24.264       39.651        2.670      331.835        0.107      868.350
01/05/2021  22:17:00      -20.476       10.591       -4.496       57.814       49.082       38.278     3342.458     2409.072     1465.200        0.388        0.361       23.053       33.789        2.148      331.848        0.129      868.329
01/05/2021  22:18:00      -46.186        9.599        5.408       60.763       56.795       42.004     3692.144     3225.626     1764.305        0.547        0.434       47.173       38.422        0.663      331.888        0.193      868.326
01/05/2021  22:19:00      -96.931        7.361       -3.169       46.406       51.185       31.674     2153.499     2619.876     1003.246        0.762        0.289       97.211       32.407        0.111      331.873        0.168      868.316
01/05/2021  22:20:00     -103.871       20.548       -0.324       38.024       50.917       35.125     1445.832     2592.554     1233.789        0.824        0.264      105.884       36.385        0.118      331.854        0.138      868.300
01/05/2021  22:21:00      -89.593        2.418       -8.138       46.942       46.548       30.811     2203.540     2166.708      949.289        0.671        0.266       89.625       27.854        0.097      331.882        0.184      868.292
01/05/2021  22:22:00      -67.718       24.493       -1.089       50.120       54.219       34.167     2512.030     2939.648     1167.394        0.590        0.331       72.011       36.368        0.255      331.893        0.201      868.276
01/05/2021  22:23:00      -82.764        8.325       -0.149       53.280       44.686       32.685     2838.770     1996.814     1068.301        0.641        0.295       83.182       33.599        0.163      331.969        0.328      868.263
01/05/2021  22:24:00      -85.215        5.348        2.843       61.841       45.925       33.649     3824.355     2109.127     1132.228        0.718        0.353       85.383       35.076        0.169      331.932        0.266      868.251
01/05/2021  22:25:00      -95.314       24.998        6.111       53.818       55.674       31.555     2896.354     3099.626      995.719        0.837        0.350       98.538       39.022        0.157      331.960        0.312      868.241
01/05/2021  22:26:00      -72.115       23.109        5.974       53.920       51.916       37.534     2907.354     2695.235     1408.780        0.639        0.351       75.727       39.229        0.268      331.946        0.289      868.242
01/05/2021  22:27:00      -77.255       -2.342        6.632       52.853       49.790       33.319     2793.416     2479.073     1110.140        0.620        0.319       77.291       37.214        0.232      331.910        0.230      868.240
01/05/2021  22:28:00      -41.841       17.226       11.441       55.870       50.854       31.092     3121.494     2586.114      966.728        0.442        0.334       45.248       35.279        0.608      332.013        0.400      868.236
01/05/2021  22:29:00      -82.846       31.857        5.965       51.127       54.015       34.084     2613.982     2917.634     1161.751        0.730        0.335       88.760       39.699        0.200      332.022        0.415      868.244
01/05/2021  22:30:00      -13.550       29.878       19.416       63.472       57.936       36.931     4028.711     3356.630     1363.907        0.510        0.437       32.807       40.094        1.494      332.160        0.641      868.259
01/05/2021  22:31:00        0.643       -3.845        6.491       59.049       53.609       33.895     3486.787     2873.931     1148.867        0.378        0.375        3.899       32.809       70.822      332.090        0.526      868.276
01/05/2021  22:32:00       -6.754       11.652        1.095       58.167       50.804       34.184     3383.410     2581.082     1168.513        0.366        0.357       13.469       35.364        6.894      332.123        0.581      868.284
01/05/2021  22:33:00       26.224       19.535        2.789       59.338       47.362       40.165     3520.947     2243.149     1613.251        0.423        0.369       32.700       35.930        1.207      332.123        0.580      868.288
01/05/2021  22:34:00        9.627       17.527        8.138       53.132       55.123       41.984     2823.027     3038.565     1762.664        0.404        0.381       19.996       37.206        3.462      332.037        0.440      868.295
01/05/2021  22:35:00      -25.275       12.397        3.785       67.419       53.485       35.015     4545.366     2860.675     1226.032        0.472        0.432       28.151       35.840        1.621      331.999        0.376      868.294
01/05/2021  22:36:00      -21.971       26.977       10.873       84.564       61.709       42.977     7151.072     3808.021     1847.014        0.706        0.640       34.792       39.930        1.317      332.017        0.408      868.291
01/05/2021  22:37:00     -107.468       -8.364       11.123       56.927       57.899       40.385     3240.672     3352.237     1630.960        0.998        0.411      107.793       36.175        0.113      331.875        0.171      868.286
01/05/2021  22:38:00     -114.359       -5.549        4.410       65.992       55.527       38.398     4354.952     3083.226     1474.433        1.102        0.446      114.494       33.287        0.085      331.881        0.182      868.283
01/05/2021  22:39:00     -103.768        4.577        1.217       47.894       45.359       36.196     2293.802     2057.431     1310.152        0.822        0.283      103.869       34.717        0.112      331.977        0.341      868.280
01/05/2021  22:40:00      -32.204       15.795       11.031       67.319       51.457       35.706     4531.785     2647.819     1274.942        0.493        0.423       35.869       38.613        1.159      331.950        0.297      868.271
01/05/2021  22:41:00      -85.564       26.674       15.694       47.606       57.192       34.918     2266.322     3270.925     1219.299        0.752        0.338       89.626       38.915        0.189      332.044        0.450      868.261
01/05/2021  22:42:00        4.493       16.863       13.308      162.149       55.537       81.117    26292.436     3084.404     6579.981        1.821        1.798       17.452      103.610       35.248      332.092        0.532      868.255
01/05/2021  22:43:00      -59.560       32.559        6.480       50.317       51.709       33.531     2531.825     2673.866     1124.339        0.549        0.317       67.878       37.311        0.302      332.087        0.522      868.236
01/05/2021  22:44:00      -64.797       39.337        8.743       46.367       50.014       31.228     2149.936     2501.368      975.206        0.572        0.281       75.803       35.322        0.217      332.035        0.436      868.225
01/05/2021  22:45:00      -54.008       26.941       15.235       50.783       53.595       35.486     2578.958     2872.385     1259.225        0.529        0.336       60.354       39.432        0.427      332.124        0.582      868.205
01/05/2021  22:46:00      -72.153       30.831       13.628       50.295       52.534       31.675     2529.605     2759.824     1003.324        0.632        0.315       78.464       37.364        0.227      332.075        0.501      868.199
01/05/2021  22:47:00      -50.570       17.344       11.069       56.467       57.821       34.480     3188.540     3343.305     1188.870        0.535        0.386       53.461       41.435        0.601      332.148        0.622      868.186
01/05/2021  22:48:00      -21.895        4.695       -0.414      181.340       48.567       89.387    32884.320     2358.709     7989.959        2.186        2.162       22.392      116.843       27.227      332.118        0.574      868.174
01/05/2021  22:49:00      -71.121       17.756       11.034       65.694       47.225       31.222     4315.715     2230.204      974.791        0.651        0.376       73.304       33.868        0.213      331.958        0.309      868.159
01/05/2021  22:50:00      -90.685       25.995       11.238       47.665       48.111       33.213     2271.978     2314.682     1103.093        0.736        0.284       94.337       37.903        0.161      331.951        0.298      868.141
01/05/2021  22:51:00      -27.384       29.649       11.242       70.798       46.976       37.064     5012.418     2206.764     1373.706        0.517        0.430       40.360       29.452        0.532      331.942        0.283      868.152
01/05/2021  22:52:00      -10.547       18.501        3.997      184.238       50.606       88.748    33943.821     2560.937     7876.163        2.242        2.219       21.296      120.127       31.818      332.056        0.471      868.174
01/05/2021  22:53:00       10.482       26.557        8.823       69.767       56.196       38.653     4867.445     3158.032     1494.048        0.520        0.476       28.550       39.054        1.871      332.201        0.710      868.199
01/05/2021  22:54:00       29.355       15.327       16.397       57.529       53.215       34.055     3309.570     2831.864     1159.712        0.433        0.365       33.115       27.831        0.706      332.195        0.700      868.209
01/05/2021  22:55:00       53.197       30.048       -1.030       60.187       54.622       40.016     3622.507     2983.600     1601.281        0.597        0.410       61.097       41.626        0.464      332.236        0.768      868.203
01/05/2021  22:56:00       21.860       21.005       -4.537       58.847       42.142       36.702     3462.960     1775.942     1347.017        0.376        0.329       30.316       35.228        1.350      332.092        0.531      868.183
01/05/2021  22:57:00       25.619       43.735       13.740       52.210       55.361       38.858     2725.836     3064.860     1509.913        0.503        0.365       50.686       41.858        0.682      332.163        0.646      868.142
01/05/2021  22:58:00       44.741       19.603        9.497       56.315       54.547       33.363     3171.375     2975.374     1113.097        0.487        0.363       48.847       34.568        0.501      332.155        0.634      868.110
01/05/2021  22:59:00       20.331       29.056        5.024       61.994       55.150       37.333     3843.224     3041.505     1393.732        0.478        0.414       35.462       35.871        1.023      332.130        0.593      868.090
01/05/2021  23:00:00      -75.829       31.909       -1.445       49.337       45.123       31.741     2434.112     2036.123     1007.470        0.612        0.274       82.269       30.526        0.138      332.009        0.394      868.079
01/05/2021  23:01:00      -64.793       35.850        3.181       53.988       55.305       30.280     2914.661     3058.634      916.892        0.619        0.345       74.049       34.285        0.214      332.009        0.392      868.070
01/05/2021  23:02:00      -87.272       55.624        7.157       35.981       55.408       32.151     1294.607     3070.057     1033.683        0.808        0.270      103.491       42.109        0.166      331.927        0.258      868.052
01/05/2021  23:03:00     -121.028       42.467        4.712       51.915       64.107       38.054     2695.178     4109.740     1448.123        1.236        0.413      128.262       46.005        0.129      331.805        0.058      868.045
01/05/2021  23:04:00     -103.569       24.059        5.370       71.464       54.375       33.072     5107.076     2956.680     1093.731        1.024        0.458      106.327       34.870        0.108      331.748       -0.038      868.036
01/05/2021  23:05:00      -11.428       28.534        7.640      176.533       61.166       94.361    31163.874     3741.311     8904.065        2.240        2.190       30.737      115.264       14.063      331.794        0.041      868.035
01/05/2021  23:06:00     -113.584       46.832       19.109       50.662       52.910       38.184     2566.620     2799.479     1458.038        1.114        0.341      122.860       38.042        0.096      331.723       -0.078      868.032
01/05/2021  23:07:00      -86.642       30.345       15.939       62.194       54.463       36.621     3868.117     2966.223     1341.115        0.843        0.409       91.802       36.723        0.160      331.702       -0.112      868.025
01/05/2021  23:08:00       -4.809       23.352       17.183       68.058       48.600       37.095     4631.869     2361.916     1376.072        0.462        0.418       23.842       34.394        2.081      331.709       -0.101      868.019
01/05/2021  23:09:00      -43.461       36.256       15.728       65.319       60.731       41.228     4266.587     3688.283     1699.726        0.655        0.483       56.598       44.075        0.606      331.731       -0.064      868.011
01/05/2021  23:10:00      -23.197       35.589        4.500       64.873       59.639       34.188     4208.447     3556.828     1168.798        0.538        0.447       42.482       33.729        0.630      331.736       -0.058      867.994
01/05/2021  23:11:00      -61.378       61.805        2.643       46.920       56.330       38.951     2201.496     3173.097     1517.206        0.724        0.345       87.104       41.134        0.223      331.697       -0.120      867.980
01/05/2021  23:12:00      -68.978       68.815        0.046      139.437       52.457       74.495    19442.809     2751.702     5549.530        1.861        1.387       97.435       92.555        0.902      331.775        0.008      867.956
01/05/2021  23:13:00      -81.370       62.101        1.495       53.518       62.702       36.097     2864.194     3931.517     1302.981        0.929        0.405      102.360       43.086        0.177      331.797        0.043      867.940
01/05/2021  23:14:00        0.762       29.714      -26.508      492.200       47.814      234.578   242261.102     2286.143    55027.067       15.052       14.979       29.723      336.800      128.395      331.947        0.299      867.946
01/05/2021  23:15:00      -40.228       16.100        1.468      176.763       52.139       86.702    31245.238     2718.472     7517.268        2.167        2.074       43.330      114.868        7.028      331.854        0.139      867.969
01/05/2021  23:16:00      -56.971       24.086       17.756       52.843       52.769       35.786     2792.349     2784.583     1280.662        0.550        0.343       61.854       36.979        0.357      331.736       -0.056      867.993
01/05/2021  23:17:00      -21.883       35.362        4.485       65.275       53.596       37.618     4260.762     2872.514     1415.085        0.515        0.427       41.585       32.443        0.609      331.728       -0.070      867.998
01/05/2021  23:18:00      -63.580       45.348       -4.833      167.100       52.184       84.357    27922.525     2723.156     7116.126        2.193        1.888       78.095      110.023        1.985      331.629       -0.230      867.992
01/05/2021  23:19:00      -63.122       58.655        4.338       51.961       60.539       39.110     2699.982     3664.937     1529.629        0.767        0.395       86.168       42.737        0.246      331.652       -0.193      867.983
01/05/2021  23:20:00      -63.695       22.212        1.124      197.038       53.578       95.041    38823.985     2870.652     9032.777        2.763        2.536       67.457      127.878        3.594      331.655       -0.189      867.984
01/05/2021  23:21:00      -24.461       25.568        8.796       63.709       60.207       38.530     4058.851     3624.824     1484.551        0.525        0.458       35.384       36.790        1.081      331.622       -0.244      867.991
01/05/2021  23:22:00       -8.050       18.272        1.484       63.883       46.633       35.475     4081.001     2174.618     1258.480        0.396        0.376       19.967       32.002        2.569      331.673       -0.160      868.002
01/05/2021  23:23:00       19.222       24.556       10.575       70.784       61.679       37.746     5010.399     3804.251     1424.754        0.566        0.512       31.185       36.473        1.368      331.747       -0.037      867.999
01/05/2021  23:24:00      -15.248       45.858        2.255       62.641       56.835       36.457     3923.877     3230.165     1329.084        0.541        0.424       48.326       37.605        0.606      331.723       -0.077      867.998
01/05/2021  23:25:00        7.342       26.804        1.516       63.505       55.398       38.690     4032.902     3068.916     1496.884        0.468        0.430       27.792       38.875        1.957      331.730       -0.066      867.993
01/05/2021  23:26:00       27.432       37.961       16.553       53.268       54.782       36.409     2837.493     3001.029     1325.580        0.481        0.358       46.835       37.305        0.634      331.700       -0.116      867.996
01/05/2021  23:27:00       21.757       29.459       -2.193       69.006       54.646       37.150     4761.772     2986.232     1380.106        0.524        0.456       36.622       38.550        1.108      331.838        0.111      867.985
01/05/2021  23:28:00        5.238       39.753        4.635       54.508       56.230       44.897     2971.164     3161.806     2015.723        0.489        0.407       40.097       45.440        1.284      331.832        0.103      867.947
01/05/2021  23:29:00       14.078       53.223        2.373       60.822       56.315       39.731     3699.285     3171.424     1578.547        0.574        0.422       55.054       41.532        0.569      331.805        0.057      867.904
01/05/2021  23:30:00       20.359       49.395        4.216      138.413       52.482       70.568    19158.247     2754.323     4979.819        1.488        1.345       53.426       90.515        2.870      331.843        0.121      867.859
01/05/2021  23:31:00       15.018       34.910       -3.687       58.165       51.244       35.005     3383.199     2625.988     1225.377        0.434        0.362       38.003       34.948        0.846      331.815        0.072      867.822
01/05/2021  23:32:00       23.142       25.135        2.876       65.095       52.158       36.279     4237.362     2720.446     1316.160        0.472        0.414       34.166       36.379        1.134      331.785        0.026      867.793
01/05/2021  23:33:00       35.028       29.544        2.213       64.791       56.771       37.341     4197.842     3222.893     1394.378        0.546        0.441       45.824       39.051        0.726      331.708       -0.102      867.781
01/05/2021  23:34:00       35.707       17.803       -0.885       54.350       55.034       39.157     2953.942     3028.722     1533.256        0.455        0.376       39.899       40.109        1.011      331.766       -0.007      867.763
01/05/2021  23:35:00       22.882       22.397        3.690       56.505       55.535       40.406     3192.818     3084.159     1632.684        0.447        0.395       32.019       42.212        1.738      331.826        0.092      867.754
01/05/2021  23:36:00       30.828       38.793        4.562       57.602       55.523       35.256     3318.000     3082.797     1242.975        0.506        0.382       49.551       38.062        0.590      331.754       -0.025      867.742
01/05/2021  23:37:00       52.229       33.045       13.809       65.940       58.909       38.853     4348.120     3470.247     1509.593        0.667        0.466       61.805       39.725        0.413      331.751       -0.032      867.730
01/05/2021  23:38:00       15.288       27.471       10.139       45.920       51.196       33.995     2108.650     2621.006     1155.683        0.349        0.294       31.439       37.119        1.394      331.712       -0.095      867.719
01/05/2021  23:39:00        3.276       34.884       -0.693       60.833       50.401       35.046     3700.701     2540.261     1228.255        0.435        0.373       35.038       35.031        1.000      331.676       -0.156      867.701
01/05/2021  23:40:00       27.883       17.376        7.083       65.922       53.694       39.967     4345.676     2883.009     1597.400        0.498        0.441       32.854       38.088        1.344      331.712       -0.094      867.693
01/05/2021  23:41:00       21.419       32.929       -3.048       50.990       47.116       36.505     2600.014     2219.899     1332.583        0.385        0.308       39.282       36.503        0.864      331.734       -0.059      867.700
01/05/2021  23:42:00       13.321       65.835        7.816       62.329       58.601       38.631     3884.896     3434.109     1492.386        0.669        0.441       67.169       40.952        0.372      331.831        0.100      867.704
01/05/2021  23:43:00      -22.980       -4.603        1.414       64.605       62.090       43.640     4173.826     3855.163     1904.448        0.524        0.497       23.437       38.512        2.700      331.703       -0.110      867.707
01/05/2021  23:44:00      -38.177       10.763        8.202       78.333       63.868       44.929     6136.098     4079.153     2018.639        0.693        0.612       39.665       41.504        1.095      331.806        0.059      867.728
01/05/2021  23:45:00      -40.036        8.179       10.695       62.502       60.980       42.201     3906.476     3718.515     1780.944        0.559        0.470       40.863       39.769        0.947      331.779        0.015      867.754
01/05/2021  23:46:00      -33.119        9.992       17.487      154.560       65.170       75.969    23888.911     4247.161     5771.321        1.770        1.695       34.593       86.018        6.183      331.833        0.103      867.780
01/05/2021  23:47:00      -77.616        9.782       12.159       67.531       65.351       42.922     4560.408     4270.788     1842.261        0.847        0.534       78.230       32.816        0.176      331.758       -0.019      867.796
01/05/2021  23:48:00       12.088       23.758       20.505       72.946       55.426       44.253     5321.129     3072.081     1958.298        0.574        0.518       26.656       42.901        2.590      331.589       -0.297      867.798
01/05/2021  23:49:00      -31.150       46.328        5.577       78.083       65.380       43.626     6096.963     4274.584     1903.213        0.771        0.614       55.826       44.783        0.643      331.706       -0.105      867.798
01/05/2021  23:50:00      -41.715       26.623       12.339       66.303       54.743       39.900     4396.125     2996.846     1592.035        0.579        0.449       49.486       33.003        0.445      331.542       -0.374      867.807
01/05/2021  23:51:00      -59.202       40.890        7.274       61.148       63.520       36.563     3739.137     4034.730     1336.825        0.717        0.456       71.950       43.002        0.357      331.542       -0.375      867.796
01/05/2021  23:52:00      -12.936       42.900       -8.718      289.246       57.287      145.017    83663.465     3281.822    21029.809        5.501        5.399       44.808      198.321       19.590      331.636       -0.218      867.776
01/05/2021  23:53:00      -56.164       30.776       -2.197       56.082       53.444       35.456     3145.238     2856.312     1257.157        0.568        0.363       64.044       34.400        0.289      331.526       -0.402      867.762
01/05/2021  23:54:00      -57.006       26.316        0.204       66.100       58.795       40.870     4369.215     3456.874     1670.396        0.672        0.475       62.787       39.601        0.398      331.586       -0.303      867.744
01/05/2021  23:55:00      -71.463       36.484        1.939       56.653       52.644       34.492     3209.548     2771.361     1189.703        0.680        0.359       80.238       36.028        0.202      331.487       -0.466      867.731
01/05/2021  23:56:00      -34.834       31.048       10.716       67.276       57.461       38.313     4526.004     3301.788     1467.899        0.579        0.465       46.662       38.174        0.669      331.602       -0.278      867.720
01/05/2021  23:57:00      -25.212       34.407        3.161       73.902       54.796       46.389     5461.529     3002.556     2151.935        0.622        0.531       42.655       41.130        0.930      331.620       -0.248      867.713
01/05/2021  23:58:00      -16.737       23.096       -6.448      176.239       53.878       89.051    31060.274     2902.812     7930.143        2.137        2.095       28.523      116.950       16.811      331.773        0.005      867.707
01/05/2021  23:59:00       72.218       12.839      -12.832      307.767       52.529      153.494    94720.323     2759.252    23560.419        6.327        6.052       73.351      212.886        8.423      331.804        0.058      867.709
01/06/2021  00:00:00       49.260       18.802       -8.828      162.613       55.094       85.220    26443.028     3035.345     7262.523        1.979        1.837       52.727      108.078        4.202      331.797        0.044      867.715
01/06/2021  00:01:00       11.668       51.319       -4.039       66.344       55.440       34.913     4401.481     3073.647     1218.926        0.574        0.435       52.629       34.270        0.424      331.698       -0.118      867.713
01/06/2021  00:02:00       17.827       40.743        4.125       51.961       56.125       35.474     2699.897     3149.968     1258.427        0.455        0.355       44.473       37.750        0.721      331.718       -0.087      867.708
01/06/2021  00:03:00       45.572       40.911        7.133       64.169       57.751       35.960     4117.620     3335.192     1293.093        0.627        0.437       61.242       38.933        0.404      331.750       -0.034      867.718
01/06/2021  00:04:00      100.795       33.230      -32.974      438.084       54.983      214.856   191917.292     3023.166    46163.158       12.668       12.055      106.131      303.401        8.172      332.054        0.474      867.726
01/06/2021  00:05:00       35.752       24.226      -18.416      295.980       48.185      145.077    87603.909     2321.835    21047.292        5.657        5.549       43.187      202.805       22.052      331.833        0.106      867.734
01/06/2021  00:06:00        9.064       36.782      -14.197      172.578       51.856       88.554    29783.014     2689.046     7841.767        2.097        2.016       37.882      116.944        9.530      331.651       -0.196      867.762
01/06/2021  00:07:00        5.486       25.493       -1.229       64.986       55.778       41.006     4223.236     3111.221     1681.451        0.485        0.451       26.076       39.944        2.346      331.610       -0.264      867.795
01/06/2021  00:08:00       -1.428       36.156        4.648       63.675       62.655       45.168     4054.557     3925.591     2040.116        0.567        0.501       36.184       46.903        1.680      331.522       -0.410      867.827
01/06/2021  00:09:00       -7.202       32.547        4.809       69.631       65.837       41.001     4848.447     4334.492     1681.119        0.600        0.543       33.335       39.513        1.405      331.436       -0.549      867.857
01/06/2021  00:10:00       47.308       37.853      -13.383      314.806       70.610      159.509    99102.552     4985.766    25443.234        6.666        6.477       60.588      215.928       12.701      331.536       -0.382      867.880
01/06/2021  00:11:00       16.286       51.853       -6.060      139.007       59.305       74.591    19323.068     3517.044     5563.857        1.569        1.420       54.351       87.459        2.589      331.354       -0.684      867.881
01/06/2021  00:12:00       12.287       33.489      -14.068      162.849       57.662       84.982    26519.824     3324.904     7221.963        1.926        1.853       35.672      103.203        8.370      331.371       -0.655      867.869
01/06/2021  00:13:00       33.052        5.973       -3.538       58.428       56.721       38.685     3413.776     3217.310     1496.525        0.463        0.406       33.587       37.801        1.267      331.341       -0.707      867.858
01/06/2021  00:14:00     -105.390       33.249       -6.407       73.022       60.448       43.683     5332.242     3653.921     1908.182        1.157        0.545      110.511       39.548        0.128      331.340       -0.707      867.850
01/06/2021  00:15:00     -102.221       57.086        8.400       65.081       51.675       37.910     4235.499     2670.260     1437.132        1.106        0.417      117.081       35.340        0.091      331.272       -0.819      867.833
01/06/2021  00:16:00      -97.324       74.229       -1.965      160.698       61.898       81.253    25823.879     3831.322     6602.052        2.561        1.813      122.400      102.381        0.700      331.334       -0.717      867.814
01/06/2021  00:17:00       53.610       29.792        2.178      290.095       52.986      142.951    84154.855     2807.488    20434.847        5.556        5.370       61.332      195.739       10.186      331.494       -0.453      867.792
01/06/2021  00:18:00       44.030       53.787       14.706       59.448       59.855       40.875     3534.066     3582.620     1670.783        0.692        0.439       69.510       42.435        0.373      331.536       -0.385      867.765
01/06/2021  00:19:00       32.791       44.941       -7.906       53.177       53.974       41.018     2827.835     2913.229     1682.503        0.529        0.371       55.632       41.077        0.545      331.639       -0.215      867.734
01/06/2021  00:20:00        2.517       58.628       -6.770       50.145       52.734       36.993     2514.497     2780.919     1368.505        0.508        0.333       58.682       37.702        0.413      331.648       -0.200      867.699
01/06/2021  00:21:00       40.994       25.501        4.683       66.680       56.754       39.765     4446.177     3220.961     1581.293        0.580        0.462       48.278       38.752        0.644      331.490       -0.460      867.674
01/06/2021  00:22:00      -16.623       32.461       -0.896       70.179       60.055       43.140     4925.028     3606.557     1861.024        0.586        0.520       36.470       39.228        1.157      331.472       -0.490      867.652
01/06/2021  00:23:00       13.724       16.702       -5.423       75.200       49.482       42.570     5655.107     2448.456     1812.180        0.520        0.496       21.617       39.278        3.302      331.419       -0.578      867.635
01/06/2021  00:24:00       20.306       54.492      -13.168      256.108       63.869      117.251    65591.229     4079.276    13747.805        4.347        4.171       58.152      164.450        7.997      331.524       -0.403      867.632
01/06/2021  00:25:00       86.294       49.783        2.436      161.063       63.023       77.938    25941.387     3971.862     6074.290        2.295        1.799       99.624       99.335        0.994      331.556       -0.352      867.628
01/06/2021  00:26:00       60.114       22.710       -6.658      198.853       51.080       93.409    39542.518     2609.214     8725.260        2.752        2.544       64.261      129.832        4.082      331.513       -0.423      867.622
01/06/2021  00:27:00       35.946       22.093        8.177       51.657       51.613       34.745     2668.455     2663.851     1207.215        0.419        0.327       42.192       37.508        0.790      331.480       -0.477      867.611
01/06/2021  00:28:00       32.029       40.631        4.624       57.789       55.999       42.234     3339.533     3135.858     1783.699        0.548        0.413       51.737       42.383        0.671      331.879        0.180      867.584
01/06/2021  00:29:00       23.263       45.706       14.145       66.585       60.806       40.265     4433.613     3697.332     1621.270        0.629        0.488       51.285       44.997        0.770      331.733       -0.064      867.560
01/06/2021  00:30:00       15.917       32.043       -4.885      162.039       56.602       83.245    26256.534     3203.749     6929.731        1.884        1.820       35.779      103.755        8.409      331.568       -0.330      867.536
01/06/2021  00:31:00        4.908       23.004        5.035       67.308       67.880       40.099     4530.355     4607.756     1607.956        0.566        0.537       23.522       38.773        2.717      331.402       -0.606      867.532
01/06/2021  00:32:00       22.590       15.023       -5.230      265.213       55.642      119.482    70337.990     3095.988    14275.973        4.422        4.385       27.129      169.018       38.815      331.482       -0.471      867.547
01/06/2021  00:33:00       18.975       32.650       10.036       61.012       57.365       40.917     3722.456     3290.797     1674.234        0.511        0.434       37.764       38.996        1.066      331.388       -0.628      867.563
01/06/2021  00:34:00       44.848       25.295        6.781      172.516       60.975       88.241    29761.724     3717.941     7786.458        2.197        2.063       51.490      113.238        4.837      331.392       -0.620      867.576
01/06/2021  00:35:00       -3.787       -3.963      -23.987      220.413       62.399      110.327    48581.895     3893.588    12172.144        3.261        3.232        5.482      147.433      723.379      331.444       -0.536      867.578
01/06/2021  00:36:00       33.891       19.479       -0.444       64.879       64.670       40.526     4209.323     4182.186     1642.339        0.578        0.502       39.090       30.483        0.608      331.457       -0.513      867.578
01/06/2021  00:37:00       40.442       28.789        6.346       70.037       64.798       49.950     4905.127     4198.721     2494.986        0.705        0.580       49.643       45.318        0.833      331.489       -0.463      867.586
01/06/2021  00:38:00      -41.569       28.871        6.628       79.123       59.417       45.653     6260.388     3530.380     2084.199        0.724        0.594       50.611       42.637        0.710      331.434       -0.554      867.595
01/06/2021  00:39:00      -62.417       42.129        3.121      169.226       57.560       82.019    28637.548     3313.115     6727.179        2.217        1.934       75.304      107.189        2.026      331.390       -0.624      867.593
01/06/2021  00:40:00      -84.080       62.785       -4.452       62.061       58.242       32.005     3851.516     3392.151     1024.325        0.965        0.413      104.935       34.618        0.109      331.441       -0.542      867.591
01/06/2021  00:41:00     -127.967       71.757        4.741       67.076       61.401       44.419     4499.209     3770.120     1973.042        1.589        0.512      146.713       46.023        0.098      331.408       -0.596      867.601
01/06/2021  00:42:00     -101.495       57.624        3.469       55.145       57.726       39.497     3040.968     3332.300     1560.027        1.078        0.397      116.712       41.272        0.125      331.358       -0.677      867.603
01/06/2021  00:43:00      -76.517       52.503        5.904       63.239       61.614       38.910     3999.118     3796.347     1513.967        0.898        0.465       92.798       42.712        0.212      331.401       -0.606      867.606
01/06/2021  00:44:00      -60.610       50.645       13.964       50.382       55.397       34.791     2538.363     3068.791     1210.447        0.662        0.341       78.984       39.642        0.252      331.530       -0.396      867.604
01/06/2021  00:45:00      -13.666       28.346        1.528       52.711       45.497       31.891     2778.422     2069.973     1017.049        0.343        0.293       31.469       32.656        1.077      331.567       -0.335      867.607
01/06/2021  00:46:00       -8.847       29.114        8.718       55.034       52.482       34.135     3028.779     2754.392     1165.173        0.397        0.347       30.429       36.493        1.438      331.771        0.001      867.610
01/06/2021  00:47:00        2.584       35.975       -1.160      136.340       54.834       70.228    18588.720     3006.765     4932.022        1.391        1.326       36.067       87.512        5.887      331.851        0.133      867.584
01/06/2021  00:48:00       20.427       21.645        1.975       52.912       48.945       36.483     2799.706     2395.568     1331.023        0.371        0.326       29.762       36.998        1.545      331.874        0.172      867.566
01/06/2021  00:49:00      -28.355       19.314        2.256       59.899       45.241       33.753     3587.838     2046.740     1139.283        0.398        0.339       34.308       31.512        0.844      331.826        0.092      867.573
01/06/2021  00:50:00      -62.241       40.873        5.799       47.156       55.196       33.808     2223.708     3046.587     1143.009        0.599        0.321       74.462       37.259        0.250      331.775        0.008      867.576
01/06/2021  00:51:00      -67.551       42.180        9.579       47.997       51.920       33.202     2303.729     2695.668     1102.396        0.627        0.305       79.638       35.646        0.200      331.701       -0.114      867.579
01/06/2021  00:52:00      -86.072       38.296        2.371       48.174       46.699       29.320     2320.768     2180.799      859.644        0.712        0.268       94.207       31.919        0.115      331.657       -0.186      867.578
01/06/2021  00:53:00      -46.152       16.150        3.536      177.580       53.898       75.240    31534.800     2904.949     5661.003        2.124        2.005       48.896      105.460        4.652      331.667       -0.169      867.584
01/06/2021  00:54:00       11.992       21.462       19.020       62.236       51.985       36.963     3873.376     2702.445     1366.288        0.445        0.397       24.585       34.856        2.010      331.552       -0.359      867.596
01/06/2021  00:55:00      -69.890        3.903        3.639      225.984       57.213      105.580    51068.868     3273.334    11147.100        3.519        3.274       69.999      144.805        4.279      331.635       -0.222      867.603
01/06/2021  00:56:00      -63.302        8.670        0.534      192.066       52.874       93.883    36889.256     2795.667     8813.969        2.628        2.425       63.893      126.143        3.898      331.705       -0.105      867.602
01/06/2021  00:57:00      -97.577       27.247        6.615       58.098       54.882       36.232     3375.388     3011.983     1312.724        0.900        0.385      101.309       31.866        0.099      331.618       -0.251      867.606
01/06/2021  00:58:00      -57.332       13.962        6.931       47.177       50.622       33.327     2225.705     2562.559     1110.687        0.471        0.295       59.008       36.041        0.373      331.578       -0.316      867.606
01/06/2021  00:59:00      -16.170       14.209        2.757       51.124       48.841       34.165     2613.653     2385.420     1167.251        0.332        0.308       21.526       31.082        2.085      331.575       -0.323      867.598
01/06/2021  01:00:00      -33.349       -9.232        4.399       57.782       50.224       32.765     3338.728     2522.498     1073.577        0.407        0.347       34.603       33.631        0.945      331.547       -0.368      867.587
01/06/2021  01:01:00      -17.243        6.051       -1.918       42.852       45.296       35.053     1836.265     2051.770     1228.713        0.273        0.256       18.274       32.661        3.195      331.526       -0.402      867.580
01/06/2021  01:02:00        7.897       19.355       11.305       49.108       55.517       36.215     2411.628     3082.157     1311.538        0.368        0.340       20.904       38.239        3.346      331.630       -0.230      867.575
01/06/2021  01:03:00      -43.898       33.853       -2.296       37.001       42.470       28.739     1369.058     1803.677      825.903        0.354        0.200       55.435       32.412        0.342      331.655       -0.189      867.573
01/06/2021  01:04:00      -48.767       23.349       -0.405       49.850       44.196       31.927     2485.061     1953.264     1019.317        0.419        0.273       54.068       33.649        0.387      331.691       -0.129      867.573
01/06/2021  01:05:00      -31.003       25.529        1.681       44.771       48.663       33.641     2004.403     2368.052     1131.717        0.356        0.275       40.162       31.696        0.623      331.673       -0.161      867.575
01/06/2021  01:06:00      -41.280       -1.128        6.955       41.844       45.752       30.048     1750.911     2093.216      902.898        0.325        0.237       41.295       28.089        0.463      331.632       -0.228      867.575
01/06/2021  01:07:00      -47.179        4.407        4.114       45.950       49.909       32.658     2111.438     2490.929     1066.560        0.396        0.283       47.384       33.828        0.510      331.625       -0.239      867.567
01/06/2021  01:08:00      -44.279        3.179       -2.002       46.954       44.793       28.817     2204.723     2006.403      830.411        0.351        0.252       44.393       30.129        0.461      331.549       -0.364      867.561
01/06/2021  01:09:00      -25.102       21.034        8.488       52.233       58.982       31.292     2728.326     3478.917      979.195        0.416        0.359       32.749       35.159        1.153      331.601       -0.278      867.558
01/06/2021  01:10:00        9.005       22.624        5.774       47.286       44.019       30.404     2235.979     1937.629      924.425        0.286        0.255       24.351       32.317        1.761      331.677       -0.153      867.550
01/06/2021  01:11:00       23.514       20.251        9.312       40.849       45.009       31.808     1668.617     2025.821     1011.770        0.288        0.235       31.033       34.031        1.203      331.780        0.015      867.548
01/06/2021  01:12:00       -7.248       14.045        1.150       37.816       45.775       26.836     1430.048     2095.360      720.165        0.225        0.212       15.805       31.711        4.026      331.736       -0.057      867.547
01/06/2021  01:13:00        4.230       17.283        0.993       36.184       32.665       21.209     1309.306     1067.035      449.839        0.157        0.141       17.794       22.360        1.579      331.641       -0.212      867.537
01/06/2021  01:14:00       35.679       43.620        0.844       56.630       46.383       31.852     3206.943     2151.344     1014.552        0.477        0.319       56.353       30.144        0.286      331.787        0.028      867.522
01/06/2021  01:15:00       28.012        8.201       -7.139       45.543       48.366       32.889     2074.127     2339.241     1081.703        0.320        0.275       29.188       29.976        1.055      331.919        0.244      867.512
01/06/2021  01:16:00       71.177        7.449      -18.521       49.130       51.969       33.947     2413.717     2700.802     1152.375        0.586        0.313       71.566       27.435        0.147      331.834        0.104      867.512
01/06/2021  01:17:00       41.811       11.545       -5.998       72.576       57.133       40.951     5267.299     3264.213     1676.962        0.606        0.510       43.376       40.392        0.867      331.713       -0.096      867.512
01/06/2021  01:18:00       47.898        4.480        3.229       66.364       56.423       42.718     4404.158     3183.578     1824.848        0.587        0.471       48.107       34.100        0.502      331.587       -0.303      867.525
01/06/2021  01:19:00       97.342       14.591       -6.107       71.871       56.567       39.347     5165.420     3199.788     1548.202        0.982        0.496       98.430       38.503        0.153      331.575       -0.323      867.541
01/06/2021  01:20:00      112.097       16.423      -11.336       65.806       55.844       36.248     4330.461     3118.603     1313.925        1.086        0.438      113.294       34.579        0.093      331.576       -0.321      867.547
01/06/2021  01:21:00      108.505       22.754       -8.581       69.080       50.514       42.977     4772.050     2551.663     1847.048        1.077        0.459      110.865       37.822        0.116      331.562       -0.343      867.560
01/06/2021  01:22:00       82.543       22.880       -0.310       61.004       45.066       38.632     3721.519     2030.958     1492.408        0.729        0.362       85.655       36.470        0.181      331.555       -0.355      867.566
01/06/2021  01:23:00       55.921       43.835        8.962       60.068       56.107       39.652     3608.135     3147.980     1572.251        0.673        0.416       71.054       38.813        0.298      331.597       -0.285      867.561
01/06/2021  01:24:00       96.641       47.179      -10.531       67.043       57.815       43.519     4494.743     3342.574     1893.899        1.070        0.487      107.542       41.270        0.147      331.679       -0.151      867.542
01/06/2021  01:25:00      141.223       15.404       -9.970       76.429       57.788       41.727     5841.364     3339.463     1741.159        1.560        0.546      142.060       36.766        0.067      331.598       -0.285      867.507
01/06/2021  01:26:00      146.193       15.914       -6.153       65.169       52.117       39.631     4247.007     2716.174     1570.646        1.510        0.427      147.057       36.099        0.060      331.475       -0.488      867.465
01/06/2021  01:27:00      119.731       24.481        7.414       72.479       59.995       42.379     5253.212     3599.347     1796.013        1.282        0.532      122.208       38.474        0.099      331.449       -0.530      867.420
01/06/2021  01:28:00      125.915       20.432       -6.743       73.884       64.284       47.136     5458.786     4132.383     2221.800        1.406        0.591      127.563       39.698        0.097      331.398       -0.612      867.387
01/06/2021  01:29:00      167.937      -11.173       -3.656       66.529       56.657       44.087     4426.168     3210.033     1943.657        1.896        0.479      168.308       42.387        0.063      331.348       -0.696      867.363
01/06/2021  01:30:00      180.103      -23.195      -10.304       75.662       52.377       42.170     5724.665     2743.361     1778.332        2.166        0.512      181.591       39.606        0.048      331.433       -0.556      867.351
01/06/2021  01:31:00       98.177       -7.474       -3.295       65.212       58.393       44.238     4252.645     3409.762     1956.994        0.966        0.481       98.461       43.687        0.197      331.469       -0.495      867.381
01/06/2021  01:32:00       44.996       16.238        0.206       65.005       62.542       40.703     4225.626     3911.473     1656.774        0.604        0.490       47.836       41.879        0.766      331.732       -0.063      867.442
01/06/2021  01:33:00       56.100      -42.230      -15.324       83.373       62.228       40.910     6951.005     3872.368     1673.655        0.883        0.625       70.218       36.742        0.274      331.870        0.165      867.524
01/06/2021  01:34:00       11.789       45.583       13.536       57.619       57.615       43.776     3319.982     3319.450     1916.357        0.548        0.428       47.082       42.694        0.822      331.633       -0.227      867.593
01/06/2021  01:35:00        1.063        5.999       -1.271       94.165       52.495       46.430     8867.097     2755.759     2155.716        0.691        0.689        6.093       39.918       42.927      331.838        0.112      867.634
01/06/2021  01:36:00      -32.480        6.405       18.740       82.631       61.208       48.793     6827.815     3746.411     2380.770        0.720        0.648       33.106       37.255        1.266      331.894        0.205      867.641
01/06/2021  01:37:00        1.058       -7.443       14.471       51.802       65.683       36.128     2683.426     4314.251     1305.252        0.428        0.415        7.518       38.855       26.713      331.862        0.150      867.622
01/06/2021  01:38:00      -25.273      -46.634       -5.107       63.687       49.523       40.416     4056.027     2452.570     1633.492        0.549        0.407       53.042       30.269        0.326      331.882        0.185      867.599
01/06/2021  01:39:00       -1.166      -24.453       -7.070      123.722       59.658       59.245    15307.184     3559.039     3509.976        1.151        1.119       24.481       73.516        9.018      331.934        0.269      867.584
01/06/2021  01:40:00      -15.879       -3.969        0.198       65.402       63.460       37.107     4277.473     4027.145     1376.943        0.497        0.484       16.368       37.954        5.377      331.877        0.176      867.584
01/06/2021  01:41:00      -26.149       -4.435        1.561       75.866       64.624       43.092     5755.694     4176.210     1856.945        0.624        0.589       26.522       38.039        2.057      331.842        0.120      867.589
01/06/2021  01:42:00       -2.675       -2.526      -10.668      250.152       47.078      126.743    62576.246     2216.304    16063.754        4.048        4.043        3.679      170.528     2148.422      331.919        0.248      867.568
01/06/2021  01:43:00      -23.788        8.288        0.692       59.604       52.561       35.910     3552.687     2762.699     1289.498        0.412        0.380       25.190       36.159        2.060      331.873        0.170      867.542
01/06/2021  01:44:00       15.234       35.656        8.323       57.671       52.784       37.689     3325.887     2786.155     1420.480        0.455        0.377       38.774       38.739        0.998      331.805        0.060      867.532
01/06/2021  01:45:00       25.941       37.014        7.807       58.407       49.712       36.542     3411.319     2471.306     1335.289        0.466        0.361       45.200       36.207        0.642      331.763       -0.013      867.531
01/06/2021  01:46:00        7.382       52.464        4.143       56.482       49.733       33.067     3190.208     2473.391     1093.455        0.479        0.338       52.981       33.534        0.401      331.789        0.031      867.540
01/06/2021  01:47:00      -11.276       48.205        4.712       56.391       57.650       40.566     3179.930     3323.504     1645.592        0.531        0.407       49.506       42.410        0.734      331.840        0.115      867.551
01/06/2021  01:48:00       -1.163       28.270        4.739       63.352       52.623       36.551     4013.472     2769.188     1335.972        0.447        0.406       28.294       36.805        1.692      331.794        0.039      867.559
01/06/2021  01:49:00       11.889       17.543        1.899       60.914       55.236       43.949     3710.563     3050.991     1931.499        0.457        0.435       21.192       42.302        3.984      331.769       -0.001      867.553
01/06/2021  01:50:00       13.917       22.465        1.041       61.499       52.553       41.653     3782.093     2761.775     1734.946        0.449        0.414       26.427       37.790        2.045      331.803        0.055      867.540
01/06/2021  01:51:00       -2.405       29.626        3.899       71.144       50.810       36.168     5061.490     2581.624     1308.093        0.492        0.448       29.724       35.340        1.414      331.823        0.088      867.511
01/06/2021  01:52:00       10.615       22.971        1.649       60.281       62.270       37.809     3633.774     3877.536     1429.555        0.479        0.447       25.305       41.028        2.629      331.827        0.095      867.496
01/06/2021  01:53:00      -29.091       31.524       -0.436       56.130       51.695       37.929     3150.522     2672.399     1438.627        0.455        0.363       42.896       37.017        0.745      331.714       -0.093      867.490
01/06/2021  01:54:00      -35.607       37.400        6.792       65.130       56.401       36.869     4241.939     3181.039     1359.351        0.575        0.439       51.639       35.318        0.468      331.660       -0.182      867.493
01/06/2021  01:55:00      -55.301       44.755       -5.818       61.467       55.476       42.033     3778.132     3077.587     1766.744        0.686        0.431       71.142       40.002        0.316      331.594       -0.289      867.500
01/06/2021  01:56:00      -43.741       50.736       -4.836       63.322       55.720       37.469     4009.655     3104.764     1403.906        0.651        0.426       66.989       39.553        0.349      331.570       -0.329      867.501
01/06/2021  01:57:00      -30.059       56.089       -8.043      137.733       51.760       67.010    18970.451     2679.058     4490.383        1.512        1.307       63.635       84.717        1.772      331.581       -0.311      867.496
01/06/2021  01:58:00      -49.087       49.316       12.756       61.652       59.012       43.098     3801.028     3482.469     1857.474        0.707        0.457       69.582       43.975        0.399      331.535       -0.387      867.489
01/06/2021  01:59:00      -67.715       58.438       -1.584       66.643       58.134       38.993     4441.351     3379.571     1520.447        0.867        0.467       89.445       35.884        0.161      331.555       -0.355      867.487
01/06/2021  02:00:00      -27.627       39.971      -13.864      244.215       61.427      124.187    59640.847     3773.246    15422.297        4.068        3.942       48.589      167.219       11.844      331.590       -0.296      867.491
01/06/2021  02:01:00      -65.035       64.910       -6.546       60.990       56.361       38.406     3719.826     3176.596     1475.057        0.843        0.419       91.885       39.485        0.185      331.454       -0.520      867.491
01/06/2021  02:02:00      -86.241      104.819       -2.441       54.839       57.586       42.196     3007.332     3316.151     1780.513        1.327        0.405      135.737       34.417        0.064      331.511       -0.428      867.490
01/06/2021  02:03:00      -89.376      107.092        0.114       54.727       59.161       42.282     2995.023     3500.030     1787.749        1.387        0.414      139.488       36.694        0.069      331.554       -0.355      867.493
01/06/2021  02:04:00      -65.852       86.881       -0.050       48.858       56.504       34.242     2387.064     3192.673     1172.480        0.932        0.338      109.017       35.512        0.106      331.568       -0.334      867.515
01/06/2021  02:05:00      -54.246       71.115        3.922       58.377       59.442       38.554     3407.912     3533.386     1486.438        0.822        0.421       89.442       41.585        0.216      331.543       -0.375      867.525
01/06/2021  02:06:00      -33.658       72.916        8.026       58.025       66.815       43.764     3366.933     4464.207     1915.259        0.813        0.487       80.309       48.317        0.362      331.542       -0.375      867.519
01/06/2021  02:07:00        2.494       41.027        1.642       70.504       55.370       40.219     4970.747     3065.803     1617.566        0.567        0.483       41.103       38.244        0.866      331.564       -0.337      867.496
01/06/2021  02:08:00       34.691       47.274       -4.313      223.656       61.198      110.918    50022.070     3745.175    12302.796        3.475        3.304       58.637      149.540        6.504      331.706       -0.105      867.458
01/06/2021  02:09:00       17.519       29.197       -8.970      126.488       57.273       69.896    15999.260     3280.207     4885.497        1.270        1.208       34.050       81.788        5.770      331.715       -0.090      867.417
01/06/2021  02:10:00       59.113       24.652       13.115      156.692       56.011       82.723    24552.520     3137.273     6843.056        1.940        1.727       64.048      103.860        2.630      331.725       -0.072      867.380
01/06/2021  02:11:00       41.346       35.392        6.350       57.671       56.134       33.573     3325.951     3150.996     1127.138        0.530        0.380       54.426       36.537        0.451      331.573       -0.327      867.348
01/06/2021  02:12:00        6.067       12.980        5.993       47.999       50.687       34.262     2303.926     2569.193     1173.895        0.314        0.302       14.328       37.137        6.718      331.505       -0.436      867.340
01/06/2021  02:13:00       23.741       34.634       15.203      131.024       59.206       70.309    17167.366     3505.352     4943.395        1.380        1.281       41.990       81.571        3.774      331.566       -0.336      867.360
01/06/2021  02:14:00       -6.152       28.928        6.880       63.718       64.510       42.441     4060.006     4161.499     1801.215        0.547        0.501       29.575       44.665        2.281      331.456       -0.517      867.383
01/06/2021  02:15:00      -39.265       21.454       10.279       65.210       53.685       37.595     4252.352     2882.118     1413.347        0.533        0.427       44.744       34.290        0.587      331.455       -0.518      867.409
01/06/2021  02:16:00      -57.622       43.903       13.551       58.696       55.297       44.562     3445.165     3057.767     1985.732        0.696        0.424       72.442       40.343        0.310      331.456       -0.516      867.423
01/06/2021  02:17:00      -47.514       42.267       12.986       70.948       58.089       43.034     5033.591     3374.278     1851.917        0.723        0.513       63.593       38.304        0.363      331.504       -0.438      867.439
01/06/2021  02:18:00      -57.497       46.299       16.472      149.471       65.671       77.233    22341.505     4312.623     5965.009        1.916        1.631       73.820       91.537        1.538      331.505       -0.435      867.447
01/06/2021  02:19:00      -56.670       38.415       22.617       73.822       65.073       41.552     5449.716     4234.510     1726.545        0.830        0.571       68.463       41.717        0.371      331.474       -0.488      867.442
01/06/2021  02:20:00      -22.074       28.355        3.928      169.349       68.751       88.559    28679.202     4726.713     7842.621        2.127        2.062       35.934      105.590        8.634      331.510       -0.427      867.433
01/06/2021  02:21:00      -47.853       10.113       18.461       74.961       62.532       43.415     5619.211     3910.243     1884.832        0.707        0.571       48.910       38.565        0.622      331.410       -0.592      867.430
01/06/2021  02:22:00      -54.815       26.542       15.228       72.468       58.203       40.890     5251.640     3387.540     1672.023        0.712        0.516       60.903       39.175        0.414      331.395       -0.617      867.411
01/06/2021  02:23:00      -29.812       34.269        0.778       70.038       59.141       43.976     4905.352     3497.637     1933.927        0.620        0.517       45.421       43.861        0.932      331.439       -0.545      867.374
01/06/2021  02:24:00       -9.317       47.711       10.479       58.769       65.306       38.986     3453.810     4264.891     1519.944        0.585        0.462       48.612       43.586        0.804      331.447       -0.531      867.336
01/06/2021  02:25:00       59.482       54.859      -31.743      434.136       53.896      212.351   188473.998     2904.816    45092.885       12.197       11.824       80.918      300.208       13.764      331.636       -0.214      867.298
01/06/2021  02:26:00      -20.866       56.335        0.154       53.887       51.072       39.850     2903.789     2608.303     1587.985        0.535        0.355       60.076       38.757        0.416      331.350       -0.694      867.270
01/06/2021  02:27:00      -17.660       45.802       -4.526       62.759       52.190       35.045     3938.646     2723.781     1228.119        0.516        0.395       49.089       34.854        0.504      331.382       -0.640      867.246
01/06/2021  02:28:00        1.444       46.732      -19.126      369.577       58.157      177.006   136587.019     3382.273    31331.106        8.689        8.565       46.755      251.325       28.895      331.616       -0.248      867.225
01/06/2021  02:29:00       12.071       28.382        8.686       62.225       56.798       42.419     3872.010     3226.010     1799.377        0.496        0.445       30.842       42.803        1.926      331.557       -0.349      867.222
01/06/2021  02:30:00       15.067       22.549        9.369       60.511       56.184       40.061     3661.612     3156.653     1604.874        0.462        0.421       27.119       40.290        2.207      331.507       -0.433      867.232
01/06/2021  02:31:00       -5.953       30.421       13.435       50.782       55.501       38.793     2578.795     3080.361     1504.875        0.415        0.358       30.998       39.147        1.595      331.467       -0.498      867.261
01/06/2021  02:32:00      -16.660       23.804        0.450       65.628       50.128       40.775     4306.983     2512.782     1662.611        0.466        0.424       29.055       37.278        1.646      331.452       -0.524      867.294
01/06/2021  02:33:00      -22.415       34.943       10.932       75.479       56.372       39.964     5697.048     3177.845     1597.100        0.616        0.524       41.515       40.352        0.945      331.441       -0.541      867.315
01/06/2021  02:34:00       25.708       30.957       -0.856      173.869       58.462       83.004    30230.347     3417.791     6889.745        2.107        2.027       40.240      106.327        6.982      331.407       -0.596      867.343
01/06/2021  02:35:00      -10.607       24.643       20.450       70.448       70.772       45.060     4962.862     5008.680     2030.374        0.657        0.600       26.828       50.581        3.555      331.346       -0.698      867.358
01/06/2021  02:36:00      -98.619      -18.207       -6.180       61.153       57.001       47.579     3739.684     3249.108     2263.729        0.967        0.463      100.286       37.361        0.139      331.276       -0.812      867.352
01/06/2021  02:37:00      -32.070      -12.109       -8.328       53.892       50.779       35.063     2904.400     2578.516     1229.401        0.398        0.336       34.280       31.610        0.850      331.322       -0.735      867.349
01/06/2021  02:38:00      -12.483       -4.452       -9.983      241.514       53.863      115.766    58328.794     2901.240    13401.774        3.744        3.732       13.254      161.340      148.188      331.453       -0.520      867.358
01/06/2021  02:39:00      -75.219       57.088        0.239       70.958       63.221       46.319     5035.106     3996.892     2145.448        1.004        0.559       94.430       46.022        0.238      331.345       -0.701      867.374
01/06/2021  02:40:00      -23.506       28.503        1.140       56.442       51.195       47.806     3185.690     2620.978     2285.406        0.473        0.405       36.945       36.405        0.971      331.313       -0.751      867.389
01/06/2021  02:41:00       -0.372       27.938        6.902       58.146       53.763       35.605     3380.998     2890.481     1267.726        0.418        0.377       27.940       36.367        1.694      331.261       -0.839      867.387
01/06/2021  02:42:00      -33.834        8.268        2.339       53.799       51.630       37.755     2894.291     2665.639     1425.469        0.410        0.349       34.829       38.241        1.206      331.330       -0.724      867.380
01/06/2021  02:43:00       -0.280       27.881       10.392       71.080       61.939       38.839     5052.423     3836.414     1508.469        0.564        0.520       27.883       38.315        1.888      331.409       -0.594      867.366
01/06/2021  02:44:00      -20.372       23.449       10.743       59.094       57.682       35.130     3492.097     3327.211     1234.085        0.457        0.403       31.062       37.372        1.447      331.344       -0.700      867.355
01/06/2021  02:45:00      -31.991       -4.156       -1.147      178.682       51.490       86.504    31927.225     2651.243     7482.863        2.154        2.103       32.260      110.151       11.659      331.414       -0.586      867.339
01/06/2021  02:46:00       -6.190       22.534        9.056      206.182       68.528      100.631    42510.904     4696.107    10126.610        2.897        2.867       23.369      130.173       31.028      331.410       -0.592      867.319
01/06/2021  02:47:00      -66.814       26.828        2.447      174.232       49.936       86.418    30356.891     2493.613     7468.147        2.275        2.016       71.999      113.680        2.493      331.414       -0.587      867.297
01/06/2021  02:48:00      -52.072       38.137       23.881       68.676       53.589       41.956     4716.337     2871.783     1760.269        0.704        0.467       64.544       43.707        0.459      331.451       -0.525      867.268
01/06/2021  02:49:00      -30.187       24.454        9.226      151.659       56.021       77.857    23000.364     3138.376     6061.710        1.689        1.610       38.849       99.505        6.560      331.517       -0.417      867.245
01/06/2021  02:50:00       19.341       15.416       -0.998      212.599       50.981      106.602    45198.256     2599.036    11363.998        2.988        2.958       24.733      143.463       33.645      331.593       -0.292      867.220
01/06/2021  02:51:00       35.008       18.202       14.872       53.239       54.777       38.377     2834.431     3000.561     1472.820        0.454        0.365       39.457       39.071        0.981      331.601       -0.277      867.193
01/06/2021  02:52:00       30.279       13.786        8.501      181.261       52.421       89.912    32855.413     2747.968     8084.190        2.242        2.184       33.270      118.988       12.791      331.711       -0.097      867.173
01/06/2021  02:53:00       19.118        8.060       10.513       56.996       51.655       36.231     3248.513     2668.239     1312.712        0.388        0.361       20.747       36.744        3.137      331.736       -0.059      867.141
01/06/2021  02:54:00       34.229       30.646      -12.824      236.497       52.169      113.251    55930.641     2721.582    12825.877        3.686        3.574       45.943      157.732       11.787      331.772        0.005      867.115
01/06/2021  02:55:00       43.830       20.914        5.228       70.226       52.871       41.804     4931.689     2795.304     1747.566        0.593        0.474       48.564       39.439        0.660      331.604       -0.273      867.102
01/06/2021  02:56:00       38.263       36.832       10.739       66.770       58.734       40.489     4458.191     3449.712     1639.393        0.624        0.477       53.110       41.525        0.611      331.582       -0.311      867.105
01/06/2021  02:57:00       -1.586       11.318       -8.114      174.265       57.505       86.686    30368.228     3306.855     7514.398        2.068        2.059       11.429      111.753       95.612      331.657       -0.185      867.118
01/06/2021  02:58:00      -51.905       24.185        8.152       70.268       56.684       36.783     4937.633     3213.076     1352.969        0.642        0.475       57.263       35.787        0.391      331.519       -0.412      867.131
01/06/2021  02:59:00      -51.050       31.384       12.701       60.569       57.831       39.942     3668.622     3344.421     1595.399        0.618        0.430       59.925       39.123        0.426      331.531       -0.394      867.139
01/06/2021  03:00:00      -21.233       37.759        5.150      210.976       54.460      105.923    44510.882     2965.854    11219.718        3.029        2.935       43.320      140.981       10.591      331.554       -0.355      867.147
01/06/2021  03:01:00      -24.249       38.042        5.713       59.043       55.943       42.973     3486.032     3129.630     1846.713        0.526        0.423       45.114       42.918        0.905      331.518       -0.413      867.136
01/06/2021  03:02:00      -18.000       31.871       -5.046      225.044       53.372      110.236    50644.596     2848.614    12151.919        3.349        3.282       36.603      149.829       16.755      331.513       -0.422      867.121
01/06/2021  03:03:00      -70.411       41.596        6.430       56.970       56.987       40.424     3245.587     3247.483     1634.132        0.743        0.406       81.780       37.104        0.206      331.414       -0.586      867.101
01/06/2021  03:04:00       -9.547       32.049      -15.068      321.687       55.577      156.704   103482.488     3088.838    24556.043        6.621        6.556       33.441      219.782       43.194      331.537       -0.380      867.081
01/06/2021  03:05:00       53.974       51.193      -32.864      485.819       58.161      222.655   236019.719     3382.717    49575.252       14.774       14.449       74.391      324.149       18.987      331.704       -0.104      867.058
01/06/2021  03:06:00      -32.018       23.876        7.730       62.020       53.312       36.200     3846.453     2842.219     1310.469        0.483        0.400       39.941       34.009        0.725      331.383       -0.637      867.040
01/06/2021  03:07:00      -19.808       35.743        3.678       83.312       64.261       43.494     6940.906     4129.478     1891.735        0.732        0.648       40.865       44.787        1.201      331.482       -0.473      867.032
01/06/2021  03:08:00      -34.904       30.978        1.959      180.103       60.217       87.402    32436.926     3626.096     7639.045        2.293        2.185       46.668      115.253        6.099      331.424       -0.569      867.031
01/06/2021  03:09:00      -25.224       40.469       -6.101      285.584       54.634      142.244    81558.094     2984.886    20233.429        5.352        5.239       47.687      196.053       16.903      331.429       -0.559      867.026
01/06/2021  03:10:00      -66.053       52.702        5.050       54.030       61.548       40.118     2919.213     3788.188     1609.472        0.774        0.416       84.501       42.955        0.258      331.208       -0.924      866.995
01/06/2021  03:11:00      -15.639       32.996        4.181       63.513       56.987       38.952     4033.841     3247.514     1517.281        0.507        0.440       36.515       38.823        1.130      331.247       -0.860      866.956
01/06/2021  03:12:00       11.477       17.004        2.734      183.217       56.225       87.384    33568.380     3161.195     7636.007        2.239        2.218       20.515      113.795       30.770      331.257       -0.842      866.924
01/06/2021  03:13:00       32.933       35.105        8.984      199.426       64.900      103.177    39770.543     4212.017    10645.586        2.850        2.731       48.135      131.030        7.410      331.191       -0.953      866.905
01/06/2021  03:14:00      -18.005       22.598       12.263       73.029       62.888       43.953     5333.305     3954.910     1931.884        0.610        0.561       28.894       47.780        2.735      331.175       -0.980      866.911
01/06/2021  03:15:00        5.017       30.807        6.977      209.656       59.583      107.829    43955.593     3550.191    11627.133        3.007        2.957       31.213      141.115       20.440      331.220       -0.904      866.911
01/06/2021  03:16:00        2.631       54.577        3.561      221.856       54.428      104.361    49220.218     2962.361    10891.212        3.302        3.154       54.641      143.980        6.943      331.087       -1.122      866.903
01/06/2021  03:17:00       13.374       51.601        7.671       47.419       56.420       34.362     2248.599     3183.205     1180.735        0.476        0.331       53.306       42.005        0.621      331.107       -1.091      866.896
01/06/2021  03:18:00       23.885       60.176       12.512       39.962       61.788       34.577     1596.972     3817.797     1195.595        0.548        0.331       64.743       45.443        0.493      331.131       -1.051      866.885
01/06/2021  03:19:00       30.513       49.701       14.751       49.919       60.490       33.701     2491.939     3659.037     1135.726        0.545        0.364       58.320       39.619        0.462      331.275       -0.814      866.870
01/06/2021  03:20:00       52.702       28.768       15.803       43.947       54.922       32.640     1931.369     3016.414     1065.341        0.493        0.301       60.042       38.513        0.411      331.236       -0.881      866.838
01/06/2021  03:21:00       61.646       46.506       24.461       41.342       56.480       33.686     1709.156     3189.949     1134.727        0.630        0.302       77.221       42.914        0.309      331.112       -1.083      866.802
01/06/2021  03:22:00       54.275       43.788        7.284      160.722       56.167       83.038    25831.671     3154.770     6895.244        2.039        1.794       69.736      105.547        2.291      331.118       -1.072      866.789
01/06/2021  03:23:00       31.689       24.259       11.557       42.810       54.740       32.188     1832.738     2996.451     1036.058        0.379        0.293       39.909       39.037        0.957      331.126       -1.059      866.780
01/06/2021  03:24:00       17.055       14.106       16.000       30.704       49.960       27.906      942.762     2495.968      778.731        0.248        0.211       22.133       37.163        2.819      331.185       -0.964      866.753
01/06/2021  03:25:00       51.780       70.639       16.351       36.813       55.029       31.589     1355.162     3028.169      997.865        0.666        0.269       87.585       43.715        0.249      331.032       -1.213      866.719
01/06/2021  03:26:00       61.808       66.930       20.662       38.829       61.677       37.346     1507.707     3803.997     1394.726        0.772        0.335       91.103       48.537        0.284      330.961       -1.330      866.701
01/06/2021  03:27:00       54.140       54.304        8.997      139.098       60.312       66.062    19348.179     3637.558     4364.200        1.665        1.367       76.681       82.639        1.161      330.930       -1.383      866.697
01/06/2021  03:28:00       61.174       26.169       15.589       38.709       60.785       36.638     1498.382     3694.874     1342.377        0.560        0.327       66.536       46.685        0.492      330.975       -1.307      866.683
01/06/2021  03:29:00       25.993       29.895       14.142       32.255       54.422       29.831     1040.389     2961.705      889.886        0.333        0.245       39.615       41.242        1.084      330.968       -1.318      866.669
01/06/2021  03:30:00       20.320       26.610       15.029       31.508       53.847       27.336      992.770     2899.456      747.242        0.299        0.232       33.481       37.962        1.286      330.884       -1.457      866.656
01/06/2021  03:31:00       55.109       52.227       16.678       37.040       56.853       31.504     1371.966     3232.208      992.497        0.582        0.280       75.925       44.364        0.341      330.902       -1.430      866.653
01/06/2021  03:32:00       42.407       31.260       11.206       42.059       53.293       32.415     1768.958     2840.124     1050.754        0.428        0.283       52.683       40.803        0.600      330.861       -1.496      866.650
01/06/2021  03:33:00       87.264       67.401       22.583       38.445       60.231       34.869     1478.039     3627.769     1215.814        0.949        0.316      110.262       44.226        0.161      330.845       -1.521      866.647
01/06/2021  03:34:00       95.994       81.550        5.401       46.404       69.477       38.031     2153.341     4827.121     1446.342        1.216        0.421      125.957       47.633        0.143      330.847       -1.517      866.651
01/06/2021  03:35:00       71.378       88.319       15.973       50.843       62.431       37.689     2585.049     3897.635     1420.482        1.053        0.395      113.557       45.378        0.160      330.741       -1.692      866.662
01/06/2021  03:36:00       31.633       73.805       15.874      162.440       48.631       84.047    26386.605     2364.964     7063.839        2.125        1.791       80.299      109.935        1.874      330.867       -1.484      866.665
01/06/2021  03:37:00       -7.158       80.925       -0.600      175.595       50.669       87.742    30833.454     2567.343     7698.579        2.384        2.055       81.241      118.022        2.110      330.827       -1.551      866.680
01/06/2021  03:38:00      -17.696       55.228        8.826       45.550       59.906       33.934     2074.812     3588.692     1151.511        0.513        0.341       57.993       41.279        0.507      330.800       -1.595      866.707
01/06/2021  03:39:00       13.447       29.727        8.581       44.201       56.458       36.660     1953.689     3187.540     1343.992        0.381        0.324       32.627       42.314        1.682      330.928       -1.384      866.736
01/06/2021  03:40:00       55.908       55.638        7.535      203.403       57.052      102.628    41372.657     3254.891    10532.557        3.071        2.758       78.876      136.926        3.014      330.923       -1.393      866.743
01/06/2021  03:41:00       55.131       38.232        3.784      168.916       52.254       85.316    28532.565     2730.473     7278.859        2.152        1.927       67.090      112.326        2.803      330.805       -1.586      866.754
01/06/2021  03:42:00       41.525       40.425       15.737      161.529       54.573       81.828    26091.465     2978.189     6695.817        1.968        1.788       57.953      106.132        3.354      330.760       -1.659      866.763
01/06/2021  03:43:00       29.846       29.620       13.492      149.253       50.810       73.015    22276.485     2581.696     5331.209        1.606        1.509       42.049       95.446        5.152      330.744       -1.685      866.770
01/06/2021  03:44:00       63.855       52.473       10.254      171.371       46.526       81.835    29367.855     2164.693     6696.930        2.257        1.911       82.650      111.463        1.819      330.862       -1.490      866.768
01/06/2021  03:45:00       97.786       83.966       16.833       38.909       56.106       32.549     1513.922     3147.852     1059.446        1.131        0.286      128.889       44.990        0.122      330.947       -1.353      866.747
01/06/2021  03:46:00       76.837       47.024        3.600       36.683       58.945       31.933     1345.659     3474.465     1019.737        0.698        0.292       90.084       43.770        0.236      330.826       -1.551      866.740
01/06/2021  03:47:00       48.634       31.230       15.614       43.936       56.224       32.573     1930.336     3161.151     1061.016        0.487        0.308       57.798       38.712        0.449      330.910       -1.414      866.755
01/06/2021  03:48:00       36.585       30.731       15.959       32.531       52.189       30.306     1058.274     2723.736      918.451        0.362        0.235       47.779       39.596        0.687      330.966       -1.323      866.771
01/06/2021  03:49:00       57.436       39.826        6.581      159.250       50.038       79.959    25360.524     2503.832     6393.376        1.959        1.713       69.893      105.358        2.272      330.973       -1.309      866.773
01/06/2021  03:50:00       79.062       60.610       11.725      150.601       54.621       73.210    22680.626     2983.434     5359.660        2.054        1.551       99.621       94.604        0.902      331.060       -1.168      866.750
01/06/2021  03:51:00       76.755       62.824       -1.396      154.676       51.249       78.294    23924.637     2626.451     6129.878        2.125        1.634       99.187      101.783        1.053      331.023       -1.227      866.720
01/06/2021  03:52:00      105.075       83.028       -1.960      276.954       63.863      138.517    76703.459     4078.486    19186.916        5.893        4.998      133.920      189.241        1.997      331.254       -0.848      866.696
01/06/2021  03:53:00       70.855       84.463       11.445       56.456       58.702       39.147     3187.293     3445.880     1532.451        1.022        0.408      110.247       41.505        0.142      331.248       -0.861      866.672
01/06/2021  03:54:00       72.499       59.047        5.838      156.190       60.752       79.883    24395.418     3690.848     6381.326        2.162        1.723       93.502      102.470        1.201      331.310       -0.759      866.649
01/06/2021  03:55:00      115.658        4.498      -28.532      396.129       53.507      196.144   156918.218     2862.953    38472.475       10.619        9.913      115.745      275.286        5.657      331.425       -0.564      866.642
01/06/2021  03:56:00       57.719       18.590        0.246      265.696       48.321      129.787    70594.281     2334.879    16844.554        4.671        4.489       60.638      181.436        8.953      331.193       -0.948      866.631
01/06/2021  03:57:00       37.740       21.614        2.457      228.900       54.489      114.943    52395.092     2969.087    13211.843        3.522        3.429       43.491      155.702       12.817      331.266       -0.829      866.615
01/06/2021  03:58:00       32.871       26.422        2.506      284.287       53.002      139.370    80818.977     2809.218    19424.038        5.240        5.153       42.173      194.594       21.290      331.292       -0.784      866.633
01/06/2021  03:59:00      -15.461       43.911        8.438       43.123       49.583       33.027     1859.593     2458.463     1090.772        0.382        0.270       46.553       38.195        0.673      331.025       -1.226      866.666
01/06/2021  04:00:00      -12.887       40.240       -3.227      123.388       47.450       65.893    15224.667     2251.511     4341.924        1.180        1.091       42.253       82.898        3.849      330.981       -1.295      866.686
01/06/2021  04:01:00      -24.781       59.884       -4.107      149.751       61.553       78.424    22425.499     3788.792     6150.314        1.828        1.618       64.809       99.325        2.349      330.919       -1.399      866.685
01/06/2021  04:02:00      -28.561       47.925        0.880      201.249       50.730      100.567    40501.099     2573.511    10113.677        2.814        2.659       55.790      135.313        5.883      330.785       -1.617      866.672
01/06/2021  04:03:00       -3.539       33.647        6.690       45.481       59.308       36.357     2068.562     3517.482     1321.815        0.405        0.345       33.833       40.429        1.428      330.674       -1.803      866.665
01/06/2021  04:04:00       21.753       26.035       14.219      161.542       53.160       85.316    26095.793     2826.022     7278.882        1.877        1.810       33.927      107.595       10.058      330.667       -1.812      866.662
01/06/2021  04:05:00      -69.231       63.551        8.105       58.357       57.949       35.669     3405.552     3358.119     1272.309        0.847        0.402       93.977       43.162        0.211      330.640       -1.858      866.655
01/06/2021  04:06:00      -30.173       60.195       -2.828      266.339       58.351      132.769    70936.327     3404.882    17627.494        4.824        4.598       67.334      182.424        7.340      330.757       -1.663      866.643
01/06/2021  04:07:00      -63.865       57.845        1.575       54.652       61.578       39.740     2986.804     3791.836     1579.265        0.789        0.418       86.167       45.326        0.277      330.692       -1.772      866.630
01/06/2021  04:08:00      -72.925       42.718        4.257      152.754       54.338       78.439    23333.866     2952.605     6152.685        1.979        1.622       84.516       99.338        1.382      330.800       -1.595      866.613
01/06/2021  04:09:00      -33.943       23.802       -6.361      246.512       56.337      123.359    60768.121     3173.903    15217.349        4.044        3.958       41.457      166.255       16.083      330.901       -1.429      866.603
01/06/2021  04:10:00      -26.453       43.461       12.494       60.888       54.134       40.087     3707.288     2930.540     1607.003        0.549        0.412       50.878       37.420        0.541      330.758       -1.664      866.621
01/06/2021  04:11:00      -25.086       20.654        6.270      164.106       50.223       82.153    26930.772     2522.317     6749.126        1.864        1.810       32.494      102.886       10.025      330.876       -1.471      866.638
01/06/2021  04:12:00        8.810       29.599       19.084       52.312       50.994       33.833     2736.585     2600.349     1144.647        0.390        0.324       30.882       38.040        1.517      330.860       -1.496      866.638
01/06/2021  04:13:00      -44.930       57.633        2.386      180.482       53.839       87.991    32573.826     2898.619     7742.480        2.427        2.161       73.077      115.306        2.490      330.774       -1.636      866.616
01/06/2021  04:14:00      -79.146       34.986        1.706       62.473       55.899       37.341     3902.871     3124.745     1394.369        0.795        0.421       86.534       37.246        0.185      330.790       -1.610      866.620
01/06/2021  04:15:00      -11.795       35.587       -7.941      247.028       51.699      118.658    61023.041     2672.804    14079.731        3.961        3.889       37.491      163.042       18.912      330.907       -1.417      866.635
01/06/2021  04:16:00      -83.929       37.564        1.321       62.548       59.942       36.755     3912.194     3593.047     1350.942        0.865        0.443       91.951       35.284        0.147      330.753       -1.673      866.651
01/06/2021  04:17:00       -8.643       17.750       -0.121      167.442       61.263       78.854    28036.985     3753.171     6217.987        1.919        1.900       19.742      105.700       28.666      330.773       -1.639      866.644
01/06/2021  04:18:00       -8.480       41.588      -23.738      394.085       55.311      189.839   155303.338     3059.308    36038.776        9.834        9.720       42.444      268.500       40.018      330.980       -1.293      866.628
01/06/2021  04:19:00       44.765       30.623       -9.958      330.643       55.466      161.486   109325.021     3076.453    26077.749        7.073        6.924       54.237      225.100       17.225      330.881       -1.460      866.608
01/06/2021  04:20:00      -16.895       40.475      -12.160      333.288       56.904      154.169   111080.810     3238.038    23768.133        7.005        6.904       43.860      220.523       25.280      330.919       -1.395      866.602
01/06/2021  04:21:00        2.000       40.156      -21.066      389.316       56.197      188.889   151567.173     3158.114    35679.012        9.619        9.520       40.206      267.161       44.154      330.922       -1.390      866.618
01/06/2021  04:22:00      -53.121       48.926       -1.920      195.099       51.190       98.803    38063.747     2620.429     9762.027        2.782        2.522       72.219      129.481        3.214      330.678       -1.795      866.627
01/06/2021  04:23:00      -66.523       49.447       -6.941      173.165       48.029       86.306    29986.095     2306.738     7448.652        2.332        1.987       82.888      113.239        1.866      330.656       -1.829      866.612
01/06/2021  04:24:00      -47.533       60.071        1.123      182.604       57.438       90.832    33344.393     3299.173     8250.504        2.537        2.245       76.603      118.205        2.381      330.698       -1.763      866.587
01/06/2021  04:25:00       20.689       34.380      -29.074      473.296       61.280      226.919   224008.820     3755.244    51492.082       14.080       13.963       40.125      323.697       65.080      331.049       -1.180      866.559
01/06/2021  04:26:00      -52.536       38.328       -7.359      241.804       56.089      116.364    58469.381     3145.992    13540.673        3.970        3.758       65.031      159.087        5.985      330.899       -1.429      866.529
01/06/2021  04:27:00      -66.710       35.546       -2.104      179.949       53.886       92.467    32381.567     2903.663     8550.142        2.477        2.192       75.589      113.752        2.265      330.744       -1.686      866.518
01/06/2021  04:28:00      122.287       33.264      -78.785      661.641       56.772      317.085   437768.922     3223.043   100542.894       28.179       27.077      126.730      454.937       12.887      331.352       -0.673      866.530
01/06/2021  04:29:00        4.756       18.132        4.512      278.018       53.133      134.668    77293.869     2823.086    18135.458        4.929        4.913       18.745      185.975       98.432      330.772       -1.640      866.527
01/06/2021  04:30:00       -4.260       36.764       -0.613      215.418       53.836      109.602    46404.955     2898.365    12012.690        3.133        3.066       37.010      145.580       15.472      330.854       -1.506      866.517
01/06/2021  04:31:00       21.424        7.769       -1.064      281.145       57.898      137.485    79042.379     3352.155    18902.194        5.089        5.065       22.789      188.144       68.159      330.736       -1.697      866.521
01/06/2021  04:32:00       39.635       44.200        0.486      306.588       65.291      149.979    93995.914     4262.888    22493.624        6.211        6.038       59.368      207.539       12.221      330.856       -1.499      866.530
01/06/2021  04:33:00      -31.887       45.411        6.964      184.544       63.134       92.671    34056.504     3985.926     8587.967        2.487        2.332       55.489      116.266        4.390      330.709       -1.743      866.516
01/06/2021  04:34:00       51.500       17.434      -10.973      326.577       63.617      159.773   106652.596     4047.076    25527.259        6.962        6.811       54.371      222.978       16.819      330.894       -1.438      866.506
01/06/2021  04:35:00       26.186       -5.513       14.444       38.256       53.109       32.276     1463.497     2820.603     1041.714        0.312        0.266       26.760       40.413        2.281      330.799       -1.597      866.529
01/06/2021  04:36:00      103.067       72.772       -0.307      141.029       52.605       70.765    19889.062     2767.318     5007.746        2.179        1.383      126.169       89.395        0.502      330.738       -1.697      866.528
01/06/2021  04:37:00      114.698       58.649       10.660      157.612       73.304       82.728    24841.509     5373.496     6843.920        2.688        1.853      128.823       97.769        0.576      330.627       -1.879      866.506
01/06/2021  04:38:00       62.336       76.454       11.577       46.786       57.031       32.131     2188.897     3252.541     1032.381        0.817        0.324       98.646       41.660        0.178      330.456       -2.160      866.481
01/06/2021  04:39:00       42.417       72.746       18.947       36.911       54.892       30.494     1362.414     3013.167      929.869        0.638        0.265       84.209       41.894        0.248      330.454       -2.162      866.468
01/06/2021  04:40:00       15.998       51.908       16.938      176.764       45.314       88.568    31245.630     2053.364     7844.286        2.218        2.057       54.318      119.767        4.862      330.458       -2.155      866.468
01/06/2021  04:41:00       17.690       54.542       13.699       30.505       54.081       29.900      930.537     2924.722      894.030        0.411        0.237       57.339       41.585        0.526      330.495       -2.096      866.493
01/06/2021  04:42:00       12.056       48.468        5.705      195.046       52.160       97.339    38042.864     2720.683     9474.832        2.637        2.512       49.945      131.195        6.900      330.614       -1.900      866.512
01/06/2021  04:43:00        7.699       56.059       -1.791      298.782       49.842      143.756    89270.819     2484.249    20665.918        5.779        5.621       56.585      203.173       12.892      330.693       -1.768      866.521
01/06/2021  04:44:00       16.503       64.059        0.056      243.166       45.406      112.874    59129.830     2061.660    12740.633        3.914        3.697       66.151      161.384        5.952      330.650       -1.841      866.514
01/06/2021  04:45:00       19.954       57.665        7.074       33.580       46.261       27.015     1127.641     2140.115      729.827        0.388        0.200       61.019       33.983        0.310      330.748       -1.680      866.528
01/06/2021  04:46:00       17.558       25.700       16.301       34.418       47.623       28.302     1184.629     2267.971      801.018        0.274        0.213       31.125       34.435        1.224      330.743       -1.689      866.551
01/06/2021  04:47:00        8.641       24.526       17.736       26.405       47.656       26.199      697.212     2271.086      686.389        0.232        0.183       26.004       36.152        1.933      330.858       -1.501      866.551
01/06/2021  04:48:00        6.152       20.621       -0.995      248.327       42.978      120.659    61666.216     1847.122    14558.693        3.925        3.904       21.519      167.421       60.528      330.723       -1.718      866.546
01/06/2021  04:49:00      -24.178       42.761        3.959      262.967       60.376      128.346    69151.687     3645.271    16472.605        4.583        4.463       49.123      176.953       12.976      330.811       -1.575      866.537
01/06/2021  04:50:00       -3.596       51.434       -9.158      372.200       58.554      170.865   138532.953     3428.539    29194.684        8.691        8.558       51.559      247.577       23.057      330.931       -1.375      866.520
01/06/2021  04:51:00      -11.241       42.912       -5.000      323.991       51.837      157.434   104970.378     2687.057    24785.422        6.719        6.622       44.360      221.060       24.834      330.805       -1.584      866.501
01/06/2021  04:52:00       -2.429       39.499       -0.537      263.940       49.666      129.672    69664.134     2466.714    16814.725        4.524        4.447       39.574      179.577       20.591      330.725       -1.715      866.481
01/06/2021  04:53:00       40.374       70.713       -5.547      364.573       66.425      175.780   132913.435     4412.215    30898.493        8.741        8.411       81.427      247.177        9.215      331.040       -1.199      866.463
01/06/2021  04:54:00      -21.730       31.074        8.333       47.404       50.895       30.504     2247.112     2590.333      930.485        0.364        0.288       37.918       37.811        0.994      330.767       -1.648      866.460
01/06/2021  04:55:00       86.112       17.033      -15.749      500.780       52.614      237.383   250780.696     2768.195    56350.620       15.886       15.495       87.780      341.170       15.106      331.144       -1.022      866.473
01/06/2021  04:56:00       52.685       40.237      -24.521      470.029       53.461      225.101   220927.635     2858.060    50670.276       13.967       13.723       66.293      322.102       23.608      331.157       -1.000      866.474
01/06/2021  04:57:00        3.855       44.386       -0.483      347.862       58.400      166.722   121007.860     3410.553    27796.362        7.707        7.611       44.553      235.315       27.896      331.021       -1.229      866.464
01/06/2021  04:58:00       20.496       23.046        4.748      206.646       57.489      100.437    42702.731     3305.037    10087.586        2.852        2.805       30.841      134.826       19.111      331.012       -1.246      866.472
01/06/2021  04:59:00       30.895       27.012        0.257      307.949       50.582      150.492    94832.656     2558.514    22647.850        6.084        6.002       41.038      210.667       26.352      331.000       -1.262      866.489
01/06/2021  05:00:00       28.028       28.834        5.172      274.635       60.531      139.373    75424.640     3664.020    19424.751        5.006        4.926       40.211      190.548       22.455      331.045       -1.191      866.473
01/06/2021  05:01:00       -2.119       34.678       13.724       47.635       55.060       32.890     2269.084     3031.652     1081.729        0.389        0.319       34.743       38.182        1.208      330.832       -1.542      866.459
01/06/2021  05:02:00       -6.277       23.210       17.781      167.959       51.853       83.624    28210.112     2688.784     6992.921        1.939        1.895       24.044      105.732       19.337      330.833       -1.540      866.466
01/06/2021  05:03:00        7.661       27.779       -0.337      218.298       46.201       97.996    47654.074     2134.564     9603.307        3.010        2.970       28.816      139.952       23.588      330.792       -1.607      866.464
01/06/2021  05:04:00       33.611       21.198       14.882       33.393       53.020       29.585     1115.105     2811.112      875.283        0.330        0.240       39.737       41.761        1.104      330.864       -1.490      866.450
01/06/2021  05:05:00       25.485       11.893        0.661      198.430       53.962       98.776    39374.494     2911.850     9756.690        2.641        2.602       28.124      133.473       22.524      331.038       -1.204      866.445
01/06/2021  05:06:00       12.994       46.742       12.346      196.990       55.219       94.036    38805.141     3049.099     8842.819        2.659        2.535       48.515      128.788        7.047      331.023       -1.227      866.448
01/06/2021  05:07:00       75.281       45.092      -25.795      471.533       49.018      224.898   222343.345     2402.751    50579.067       14.179       13.766       87.753      322.906       13.540      331.126       -1.053      866.424
01/06/2021  05:08:00      113.740       65.131      -11.600      453.714       57.208      220.208   205856.290     3272.744    48491.456       13.741       12.881      131.068      312.748        5.694      331.018       -1.231      866.393
01/06/2021  05:09:00       58.725       39.455       15.102       38.720       61.346       30.839     1499.209     3763.312      951.046        0.572        0.311       70.748       43.903        0.385      330.797       -1.600      866.368
01/06/2021  05:10:00       64.437       21.273        6.897      247.786       55.104      119.186    61397.746     3036.485    14205.316        4.163        3.932       67.858      165.942        5.980      330.927       -1.384      866.348
01/06/2021  05:11:00       51.153       34.613        2.131      232.338       55.341      115.001    53980.827     3062.600    13225.317        3.703        3.513       61.763      157.661        6.516      330.939       -1.365      866.343
01/06/2021  05:12:00       33.326       56.438       -3.718      299.058       57.357      146.145    89435.676     3289.861    21358.351        5.917        5.704       65.543      203.622        9.651      331.013       -1.243      866.330
01/06/2021  05:13:00       35.066       45.537       -2.670      285.636       53.209      136.306    81587.707     2831.156    18579.311        5.313        5.150       57.474      192.537       11.222      330.890       -1.444      866.314
01/06/2021  05:14:00       40.340       27.675        0.608      250.209       50.263      123.632    62604.747     2526.350    15284.754        4.139        4.021       48.920      170.697       12.175      330.837       -1.531      866.324
01/06/2021  05:15:00       44.940       13.684       -8.030      279.730       48.052      133.245    78248.976     2308.954    17754.270        5.027        4.916       46.977      188.529       16.106      330.927       -1.386      866.336
01/06/2021  05:16:00       44.776       44.966       -3.751      310.629       50.141      149.302    96490.117     2514.164    22291.198        6.264        6.065       63.457      211.389       11.097      330.959       -1.333      866.338
01/06/2021  05:17:00       20.917       51.764        8.108      249.482       57.389      124.257    62241.416     3293.553    15439.848        4.206        4.049       55.831      170.181        9.291      330.998       -1.268      866.340
01/06/2021  05:18:00       10.409       45.055       -5.496      323.151       50.761      159.650   104426.783     2576.635    25488.194        6.730        6.625       46.242      223.063       23.269      331.045       -1.188      866.347
01/06/2021  05:19:00        4.565       49.796       -8.217      247.190       53.260      123.694    61102.670     2836.600    15300.216        4.089        3.962       50.005      169.183       11.447      330.958       -1.333      866.335
01/06/2021  05:20:00       40.247       26.465      -15.218      393.030       49.165      191.482   154472.413     2417.169    36665.449        9.801        9.678       48.168      271.015       31.657      331.007       -1.250      866.322
01/06/2021  05:21:00       19.593       23.972       13.195      177.541       51.330       90.002    31520.722     2634.754     8100.428        2.169        2.113       30.961      118.696       14.698      330.898       -1.433      866.321
01/06/2021  05:22:00       70.419       27.934        0.791      411.607       56.829      198.790   169420.478     3229.505    39517.403       10.891       10.608       75.757      282.064       13.863      331.190       -0.950      866.312
01/06/2021  05:23:00        3.432       30.715        3.879      233.939       51.945      111.128    54727.321     2698.324    12349.492        3.536        3.489       30.906      155.660       25.367      330.998       -1.270      866.298
01/06/2021  05:24:00       45.750       34.805      -23.368      428.662       60.374      206.591   183751.007     3645.012    42679.772       11.692       11.504       57.484      293.636       26.093      331.068       -1.148      866.288
01/06/2021  05:25:00       43.589       31.015        7.961      304.330       56.932      147.208    92616.948     3241.197    21670.103        6.020        5.876       53.497      205.423       14.745      330.944       -1.354      866.279
01/06/2021  05:26:00        2.856       30.490       11.939      151.455       49.972       68.692    22938.632     2497.171     4718.654        1.561        1.508       30.623       92.813        9.186      330.842       -1.527      866.266
01/06/2021  05:27:00       23.224       57.519       -4.622      329.507       54.490      163.170   108574.945     2969.164    26624.457        7.099        6.908       62.030      227.762       13.482      330.919       -1.398      866.260
01/06/2021  05:28:00       24.972       67.102        0.498      256.126       52.799      118.812    65600.644     2787.776    14116.386        4.380        4.125       71.598      168.070        5.510      330.863       -1.489      866.262
01/06/2021  05:29:00       39.518       72.185        2.560      296.290       56.969      139.966    87787.908     3245.414    19590.468        5.868        5.531       82.294      199.017        5.848      330.797       -1.597      866.243
01/06/2021  05:30:00       51.467      136.717      -32.910      392.740       50.754      190.346   154244.787     2575.994    36231.653       10.770        9.653      146.084      271.031        3.442      331.014       -1.239      866.218
01/06/2021  05:31:00      203.212      124.069      -98.273      745.124       54.610      350.769   555210.089     2982.261   123039.158       37.365       34.062      238.093      509.360        4.577      331.543       -0.356      866.193
01/06/2021  05:32:00       84.569       77.805      -32.890      457.681       57.987      218.937   209472.023     3362.456    47933.426       13.747       13.038      114.915      313.315        7.434      331.080       -1.127      866.172
01/06/2021  05:33:00       54.826       29.707      -18.062      374.063       55.406      184.603   139922.997     3069.836    34078.297        9.061        8.854       62.357      258.777       17.222      330.830       -1.541      866.141
01/06/2021  05:34:00       12.944       24.994        4.661       31.322       45.850       26.681      981.041     2102.180      711.875        0.230        0.190       28.147       36.403        1.673      330.595       -1.931      866.111
01/06/2021  05:35:00       17.715       42.200        0.425      271.622       52.504      133.340    73778.438     2756.690    17779.624        4.819        4.716       45.768      184.966       16.333      330.790       -1.606      866.098
01/06/2021  05:36:00       27.423       31.811       -5.866      294.377       54.286      140.571    86657.615     2946.988    19760.077        5.556        5.468       41.999      196.047       21.789      330.736       -1.697      866.103
01/06/2021  05:37:00       13.409       35.197        3.119      267.886       70.811      129.687    71763.070     5014.169    16818.596        4.749        4.680       37.665      175.870       21.802      330.547       -2.007      866.106
01/06/2021  05:38:00       44.473       28.940       15.389      255.434       55.532      126.937    65246.746     3083.804    16113.095        4.373        4.222       53.060      170.720       10.352      330.508       -2.071      866.109
01/06/2021  05:39:00       46.808       44.157        8.540      241.113       54.472      119.461    58135.319     2967.221    14270.892        3.978        3.769       64.349      164.067        6.501      330.513       -2.065      866.107
01/06/2021  05:40:00       16.676       38.180       11.115      163.258       49.882       79.407    26653.060     2488.183     6305.484        1.865        1.772       41.662      106.610        6.548      330.573       -1.967      866.130
01/06/2021  05:41:00       18.761       28.244       14.894      157.460       49.905       80.287    24793.607     2490.462     6445.966        1.754        1.687       33.907      103.730        9.359      330.577       -1.960      866.173
01/06/2021  05:42:00      -23.743       29.137        9.244      228.512       53.031      110.821    52217.551     2812.316    12281.203        3.439        3.366       37.586      144.408       14.762      330.464       -2.145      866.205
01/06/2021  05:43:00      -55.185       34.752        6.855      259.666       69.910      127.800    67426.682     4887.450    16332.720        4.645        4.432       65.216      171.650        6.928      330.552       -1.999      866.241
01/06/2021  05:44:00       14.910       32.301       19.244      263.698       55.230      123.379    69536.486     3050.393    15222.434        4.470        4.390       35.577      173.564       23.801      330.583       -1.949      866.273
01/06/2021  05:45:00      -29.532       66.224        1.043      283.484       62.566      142.243    80363.290     3914.498    20233.151        5.486        5.226       72.511      193.956        7.155      330.748       -1.679      866.293
01/06/2021  05:46:00      -24.009       38.081       -2.885      301.540       67.345      149.588    90926.119     4535.390    22376.562        5.991        5.892       45.018      206.515       21.044      330.894       -1.439      866.289
01/06/2021  05:47:00       21.614       43.131      -34.605      483.815       56.169      228.540   234077.262     3154.944    52230.671       14.644       14.473       48.243      328.741       46.434      331.090       -1.111      866.292
01/06/2021  05:48:00      -46.168       33.287        2.440      196.552       51.689       94.483    38632.832     2671.784     8927.037        2.673        2.512       56.916      127.648        5.030      330.711       -1.740      866.312
01/06/2021  05:49:00       11.581       33.760        3.277      276.080       49.912      135.961    76220.398     2491.169    18485.449        4.922        4.860       35.691      186.919       27.427      330.747       -1.679      866.342
01/06/2021  05:50:00        6.817       45.852       -7.784      388.750       54.817      183.885   151126.245     3004.908    33813.708        9.504        9.397       46.356      263.898       32.409      330.700       -1.755      866.358
01/06/2021  05:51:00      -33.830       56.671        5.182      188.072       53.085       95.229    35371.080     2817.981     9068.533        2.581        2.363       66.000      125.626        3.623      330.543       -2.016      866.366
01/06/2021  05:52:00        0.304       32.873      -24.738      372.279       52.301      180.057   138591.843     2735.406    32420.529        8.768        8.687       32.875      255.275       60.297      330.785       -1.613      866.377
01/06/2021  05:53:00       47.687       17.617      -18.224      379.330       54.811      183.772   143891.029     3004.300    33772.008        9.175        9.033       50.837      259.793       26.115      330.911       -1.409      866.375
01/06/2021  05:54:00       -4.662       40.921        1.976      207.519       55.713       97.554    43064.093     3103.991     9516.780        2.868        2.784       41.186      135.114       10.762      330.719       -1.726      866.360
01/06/2021  05:55:00      -26.402       37.476        0.462      199.430       57.117       92.684    39772.309     3262.344     8590.280        2.685        2.581       45.842      127.232        7.703      330.650       -1.839      866.337
01/06/2021  05:56:00       17.346       30.270      -12.129      342.860       53.628      160.705   117552.817     2876.005    25826.150        7.378        7.313       34.888      230.078       43.491      330.753       -1.669      866.322
01/06/2021  05:57:00       27.318      -10.402       10.003       43.107       53.915       34.297     1858.239     2906.860     1176.288        0.345        0.297       29.231       38.859        1.767      330.620       -1.891      866.345
01/06/2021  05:58:00       55.483        2.403       -5.038      303.867       51.499      150.382    92334.934     2652.145    22614.636        6.033        5.880       55.535      208.502       14.096      330.731       -1.706      866.368
01/06/2021  05:59:00       59.162       36.632        6.510      209.636       59.594       99.371    43947.078     3551.445     9874.511        3.112        2.869       69.585      135.354        3.784      330.746       -1.681      866.382
01/06/2021  06:00:00       76.257       37.182       10.857      213.960       58.481      103.530    45778.965     3419.989    10718.422        3.360        2.996       84.839      141.143        2.768      330.570       -1.972      866.389
01/06/2021  06:01:00       29.742       27.470       20.845       36.017       55.675       31.099     1297.254     3099.710      967.120        0.372        0.268       40.487       40.896        1.020      330.419       -2.220      866.400
01/06/2021  06:02:00       18.180       24.738        8.446       29.264       49.716       27.392      856.357     2471.721      750.337        0.255        0.204       30.700       38.116        1.541      330.317       -2.386      866.410
01/06/2021  06:03:00       29.307        1.552        4.180      254.427       47.411      126.826    64733.208     2247.829    16084.725        4.195        4.153       29.348      175.196       35.635      330.559       -1.989      866.424
01/06/2021  06:04:00       62.926       32.440       -4.578      277.099       49.553      135.277    76784.097     2455.532    18299.887        5.127        4.877       70.796      189.789        7.187      330.559       -1.987      866.403
01/06/2021  06:05:00       81.832       40.784       10.472      186.757       57.512       90.881    34878.121     3307.612     8259.387        2.745        2.322       91.432      122.113        1.784      330.516       -2.062      866.378
01/06/2021  06:06:00       66.851       37.731        9.831      200.030       55.002      100.155    40012.139     3025.226    10031.072        2.952        2.653       76.764      134.772        3.082      330.488       -2.107      866.375
01/06/2021  06:07:00      111.804       44.338       -0.194      235.189       51.000      115.780    55314.034     2601.039    13404.924        4.288        3.566      120.275      158.730        1.742      330.467       -2.140      866.380
01/06/2021  06:08:00       77.465       45.071       13.632       37.474       54.976       31.987     1404.338     3022.342     1023.145        0.683        0.272       89.622       38.075        0.180      330.400       -2.252      866.375
01/06/2021  06:09:00       43.673       49.777       17.190       37.742       48.015       27.599     1424.467     2305.423      761.693        0.459        0.225       66.220       37.691        0.324      330.305       -2.406      866.377
01/06/2021  06:10:00       43.668       66.697        9.626      195.070       50.457       96.672    38052.431     2545.947     9345.446        2.819        2.497       79.721      130.773        2.691      330.372       -2.296      866.379
01/06/2021  06:11:00       67.002       82.326       -4.729      292.392       43.731      142.153    85493.224     1912.378    20207.573        5.943        5.381      106.145      200.632        3.573      330.545       -2.012      866.381
01/06/2021  06:12:00      102.867       66.247      -11.643      344.415       47.701      164.555   118621.816     2275.406    27078.465        8.151        7.399      122.353      234.476        3.673      330.612       -1.900      866.363
01/06/2021  06:13:00      108.831       62.758      -19.765      354.296       41.784      170.448   125525.771     1745.865    29052.512        8.622        7.816      125.630      243.004        3.741      330.737       -1.696      866.340
01/06/2021  06:14:00       82.876       46.289      -13.622      420.965       51.735      194.305   177211.210     2676.464    37754.440       11.337       10.882       94.927      283.164        8.898      330.704       -1.747      866.329
01/06/2021  06:15:00       83.175       45.673      -22.622      415.625       38.853      200.216   172744.353     1509.564    40086.499       11.188       10.717       94.890      286.520        9.117      330.878       -1.462      866.320
01/06/2021  06:16:00       88.968       46.417      -22.295      467.248       42.075      226.520   218320.628     1770.274    51311.260       14.093       13.570      100.349      323.453       10.390      331.176       -0.968      866.303
01/06/2021  06:17:00       69.715       47.124      -16.056      424.168       46.737      198.334   179918.264     2184.365    39336.486       11.434       11.072       84.148      287.092       11.640      331.001       -1.259      866.302
01/06/2021  06:18:00       17.151       37.061      -25.732      383.563       47.986      187.832   147120.454     2302.608    35280.916        9.348        9.235       40.837      265.487       42.264      330.868       -1.477      866.320
01/06/2021  06:19:00       67.241       12.974      -36.959      487.448       43.359      233.519   237605.428     1880.022    54531.335       14.997       14.701       68.481      335.434       23.993      330.844       -1.514      866.349
01/06/2021  06:20:00        5.850       45.877      -24.883      444.047       51.207      214.153   197177.553     2622.142    45861.582       12.416       12.283       46.248      304.902       43.464      330.797       -1.593      866.373
01/06/2021  06:21:00       55.967       55.655      -38.256      544.487       62.423      255.370   296466.202     3896.573    65214.004       18.656       18.279       78.929      369.721       21.942      330.863       -1.481      866.377
01/06/2021  06:22:00       27.733       65.130      -27.908      462.580       58.663      227.053   213980.380     3441.379    51553.212       13.733       13.449       70.789      320.185       20.459      330.748       -1.673      866.377
01/06/2021  06:23:00      -23.337       35.769       -4.717      285.804       54.069      139.815    81684.058     2923.454    19548.359        5.298        5.208       42.709      194.758       20.795      330.563       -1.980      866.375
01/06/2021  06:24:00       -2.302       59.843      -13.393      379.326       58.879      188.249   143888.049     3466.776    35437.624        9.324        9.140       59.887      262.483       19.210      330.720       -1.722      866.378
01/06/2021  06:25:00       33.473       22.585       -2.483      339.026       53.836      167.468   114938.495     2898.297    28045.536        7.373        7.294       40.379      232.452       33.140      330.619       -1.888      866.409
01/06/2021  06:26:00       11.674       48.474       14.750      130.384       55.980       65.608    17000.062     3133.752     4304.348        1.357        1.222       49.860       78.754        2.495      330.524       -2.047      866.444
01/06/2021  06:27:00       -3.347       39.119      -11.187      318.415       51.137      154.115   101388.216     2615.005    23751.319        6.468        6.388       39.262      217.256       30.620      330.795       -1.599      866.450
01/06/2021  06:28:00       35.351       25.202       -9.337      351.398       50.759      174.421   123480.604     2576.519    30422.750        7.919        7.824       43.415      242.836       31.286      330.728       -1.709      866.416
01/06/2021  06:29:00       16.378       18.244       13.318      202.010       46.859       97.176    40808.037     2195.779     9443.202        2.660        2.622       24.518      134.286       29.999      330.652       -1.838      866.404
01/06/2021  06:30:00      -37.803        2.880       -4.912      260.016       56.891      129.770    67608.362     3236.537    16840.254        4.455        4.384       37.912      173.951       21.052      330.656       -1.829      866.441
01/06/2021  06:31:00       57.527       14.774      -42.431      567.868       55.035      272.805   322474.104     3028.803    74422.589       20.254       19.996       59.394      390.134       43.146      330.956       -1.327      866.442
01/06/2021  06:32:00       15.003       39.545       -0.040      266.189       57.729      126.173    70856.721     3332.624    15919.555        4.593        4.505       42.295      177.289       17.570      330.742       -1.686      866.367
01/06/2021  06:33:00       92.617        8.556      -22.570      394.957       44.296      184.830   155990.878     1962.117    34162.243       10.060        9.606       93.012      267.627        8.279      331.113       -1.075      866.262
01/06/2021  06:34:00       26.325      -12.512      -11.837      244.740       54.175      117.491    59897.775     2934.969    13804.053        3.880        3.832       29.147      161.632       30.751      330.886       -1.452      866.269
01/06/2021  06:35:00       76.759       32.133      -15.741      433.618       58.871      210.102   188024.646     3465.780    44142.649       12.135       11.782       83.214      297.829       12.810      331.005       -1.251      866.307
01/06/2021  06:36:00       67.418       53.118        6.666      213.796       60.097      109.571    45708.779     3611.707    12005.721        3.436        3.066       85.829      144.304        2.827      330.805       -1.586      866.262
01/06/2021  06:37:00       82.998       21.700       -5.119      264.096       55.692      131.215    69746.931     3101.549    17217.268        4.871        4.503       85.788      180.321        4.418      330.814       -1.569      866.227
01/06/2021  06:38:00      103.903       49.181      -31.973      494.032       55.988      236.499   244067.790     3134.614    55931.974       15.862       15.157      114.955      338.115        8.651      331.090       -1.111      866.288
01/06/2021  06:39:00       59.698        8.689       -5.917      410.489       47.714      200.781   168501.360     2276.611    40312.896       10.734       10.555       60.327      282.699       21.960      330.825       -1.548      866.325
01/06/2021  06:40:00       92.342       17.818      -15.457      297.651       52.541      146.468    88595.947     2760.515    21452.936        6.092        5.640       94.046      205.053        4.754      330.807       -1.582      866.288
01/06/2021  06:41:00       94.165        8.180      -24.835      321.695       73.393      148.554   103487.873     5386.499    22068.200        7.022        6.547       94.520      213.918        5.122      330.890       -1.445      866.271
01/06/2021  06:42:00       85.806        5.032      -42.880      506.214       61.701      246.444   256252.290     3806.963    60734.793       16.495       16.040       85.953      349.629       16.546      331.050       -1.176      866.329
01/06/2021  06:43:00      129.271       68.860      -85.130      717.234       60.490      342.576   514424.535     3659.066   117358.005       33.194       31.772      146.467      492.927       11.326      331.335       -0.700      866.403
01/06/2021  06:44:00       24.642        8.831      -11.009      447.374       64.662      216.932   200143.806     4181.173    47059.532       12.604       12.569       26.177      306.364      136.974      330.833       -1.534      866.458
01/06/2021  06:45:00       42.228       22.762       -3.502      407.426       55.004      195.055   165996.313     3025.424    38046.631       10.465       10.353       47.971      276.017       33.106      330.727       -1.710      866.486
01/06/2021  06:46:00       33.144       31.357       24.205       42.639       56.919       40.454     1818.046     3239.812     1636.551        0.468        0.335       45.626       42.356        0.862      330.399       -2.253      866.522
01/06/2021  06:47:00       73.275       38.988      -26.474      456.687       56.380      222.551   208562.802     3178.713    49529.102       13.438       13.064       83.002      313.756       14.289      330.677       -1.790      866.524
01/06/2021  06:48:00       55.720       70.809        0.518      242.330       56.836      113.189    58724.004     3230.314    12811.771        4.143        3.738       90.104      157.517        3.056      330.413       -2.228      866.470
01/06/2021  06:49:00       63.673       30.607      -17.999      282.202       57.928      135.228    79638.052     3355.621    18286.740        5.328        5.064       70.647      189.769        7.215      330.513       -2.064      866.414
01/06/2021  06:50:00      136.489       66.564      -40.478      569.583       57.851      269.804   324424.486     3346.685    72793.982       21.255       20.028      151.856      388.876        6.558      330.839       -1.520      866.424
01/06/2021  06:51:00       36.344       59.530      -17.752      403.113       56.271      195.980   162500.231     3166.422    38408.071       10.459       10.204       69.747      277.003       15.773      330.600       -1.918      866.453
01/06/2021  06:52:00       23.469       20.252      -10.954      332.175       52.501      165.091   110340.037     2756.362    27255.179        7.069        7.018       30.999      229.808       54.958      330.573       -1.965      866.454
01/06/2021  06:53:00       29.703        8.492        3.309      270.725       51.449      130.791    73292.076     2647.051    17106.225        4.699        4.652       30.894      183.134       35.140      330.641       -1.853      866.456
01/06/2021  06:54:00       49.151       40.316      -28.747      497.503       50.820      238.401   247509.595     2582.625    56835.045       15.583       15.346       63.570      341.321       28.828      330.812       -1.568      866.491
01/06/2021  06:55:00       68.086       47.308      -74.734      604.783       52.703      290.598   365762.943     2777.583    84447.313       23.263       22.649       82.908      416.636       25.254      330.992       -1.268      866.500
01/06/2021  06:56:00       38.382       20.915      -18.554      438.707       55.353      212.024   192463.598     3063.934    44953.979       12.132       12.024       43.710      301.367       47.536      330.715       -1.727      866.481
01/06/2021  06:57:00       11.308       37.299       -0.443      311.072       49.078      151.299    96765.641     2408.659    22891.420        6.177        6.103       38.976      210.379       29.135      330.655       -1.831      866.475
01/06/2021  06:58:00      -46.429       31.336      -13.082      280.741       46.521      137.495    78815.433     2164.175    18904.920        5.158        4.994       56.014      192.023       11.752      330.601       -1.921      866.492
01/06/2021  06:59:00      -39.344       30.310       -4.760      252.564       59.523      118.990    63788.634     3543.028    14158.567        4.197        4.075       49.665      165.036       11.042      330.576       -1.961      866.489
01/06/2021  07:00:00       24.296       30.881      -14.482      300.040       50.532      140.551    90024.112     2553.491    19754.653        5.702        5.617       39.293      199.837       25.866      330.488       -2.106      866.463
01/06/2021  07:01:00       12.677       23.000       -7.416      301.468       52.976      144.349    90882.764     2806.404    20836.657        5.761        5.726       26.262      202.563       59.494      330.476       -2.124      866.436
01/06/2021  07:02:00       35.784       41.478      -31.736      511.635       56.720      249.061   261770.874     3217.206    62031.445       16.545       16.351       54.781      353.760       41.703      330.710       -1.734      866.408
01/06/2021  07:03:00       22.578       31.023      -12.183      410.559       54.029      194.432   168559.050     2919.180    37803.976       10.541       10.464       38.369      278.143       52.550      330.699       -1.755      866.390
01/06/2021  07:04:00       84.031       28.951      -53.100      554.092       49.704      268.468   307017.662     2470.476    72075.175       19.606       19.078       88.879      383.119       18.581      330.868       -1.474      866.376
01/06/2021  07:05:00      119.665       31.678      -72.656      671.055       48.368      320.284   450314.219     2339.421   102581.881       28.781       27.762      123.787      461.700       13.911      330.975       -1.292      866.385
01/06/2021  07:06:00        7.560       41.106      -30.325      410.972       49.781      197.801   168897.918     2478.168    39125.236       10.654       10.525       41.796      281.609       45.397      330.581       -1.949      866.426
01/06/2021  07:07:00      -16.287       29.917      -17.420      327.632       52.627      160.737   107343.004     2769.575    25836.465        6.868        6.797       34.064      223.996       43.241      330.478       -2.120      866.466
01/06/2021  07:08:00       -9.856       43.543      -32.623      400.688       50.069      195.115   160551.068     2506.902    38069.693       10.205       10.056       44.645      273.814       37.616      330.441       -2.180      866.486
01/06/2021  07:09:00       95.778       28.352      -22.050      486.777       57.035      233.483   236951.844     3253.020    54514.188       15.253       14.736       99.886      332.376       11.073      330.488       -2.099      866.476
01/06/2021  07:10:00       55.817      -11.406      -28.655      397.734       54.312      188.911   158192.000     2949.817    35687.362       10.041        9.841       56.971      270.932       22.616      330.423       -2.208      866.456
01/06/2021  07:11:00       33.105       34.700       -0.219      283.463       50.829      137.425    80351.403     2583.547    18885.678        5.204        5.091       47.958      192.821       16.165      330.279       -2.449      866.414
01/06/2021  07:12:00       57.248       22.902        4.755      300.685       51.675      148.080    90411.191     2670.305    21927.746        5.939        5.750       61.659      206.826       11.252      330.290       -2.428      866.374
01/06/2021  07:13:00       -1.254       32.004        8.541      262.071       66.272      131.268    68681.329     4392.009    17231.225        4.568        4.515       32.029      176.098       30.230      330.343       -2.343      866.350
01/06/2021  07:14:00        0.776       39.865        0.482      250.726       50.062      120.368    62863.584     2506.208    14488.365        4.071        3.993       39.873      168.390       17.835      330.383       -2.278      866.332
01/06/2021  07:15:00       34.579       31.012       -4.649      294.238       46.924      136.179    86576.280     2201.867    18544.708        5.473        5.366       46.448      196.516       17.900      330.481       -2.117      866.333
01/06/2021  07:16:00       33.183       32.769       -2.808      316.617       52.615      150.613   100246.492     2768.325    22684.207        6.392        6.285       46.636      213.892       21.035      330.660       -1.821      866.347
01/06/2021  07:17:00       68.726       47.826      -36.943      517.050       54.527      235.810   267341.205     2973.230    55606.529       16.708       16.296       83.730      346.442       17.120      330.851       -1.504      866.386
01/06/2021  07:18:00       21.882       38.756      -16.838      381.818       50.268      180.085   145785.332     2526.900    32430.723        9.147        9.037       44.507      258.618       33.764      330.574       -1.962      866.437
01/06/2021  07:19:00       39.305       47.448      -19.054      384.136       51.429      185.633   147560.791     2644.983    34459.665        9.437        9.233       61.614      263.662       18.312      330.539       -2.020      866.462
01/06/2021  07:20:00      -11.546       55.737        3.343      228.283       60.866      112.684    52113.081     3704.630    12697.658        3.587        3.426       56.921      152.117        7.142      330.504       -2.079      866.471
01/06/2021  07:21:00      -31.364       30.671      -13.309      305.354       49.324      146.684    93241.239     2432.860    21516.141        5.962        5.860       43.868      205.984       22.048      330.525       -2.044      866.487
01/06/2021  07:22:00       80.285       17.973      -23.525      491.856       50.465      230.893   241922.615     2546.717    53311.525       15.249       14.889       82.272      333.383       16.420      330.649       -1.835      866.492
01/06/2021  07:23:00       51.268       44.198        1.618      335.441       56.281      166.802   112520.494     3167.557    27823.038        7.402        7.176       67.689      231.336       11.680      330.484       -2.110      866.473
01/06/2021  07:24:00       96.739       58.066      -45.136      591.114       56.101      274.314   349415.704     3147.297    75248.090       22.120       21.391      112.828      399.898       12.562      330.836       -1.524      866.438
01/06/2021  07:25:00       59.252       59.836      -49.898      555.393       60.155      272.592   308460.854     3618.595    74306.377       19.790       19.319       84.209      385.725       20.982      330.779       -1.619      866.407
01/06/2021  07:26:00        2.512       36.728       -3.497      298.809       55.933      147.922    89286.926     3128.548    21880.796        5.781        5.715       36.814      203.876       30.670      330.355       -2.323      866.412
01/06/2021  07:27:00       41.924       11.000      -13.781      319.280       52.976      155.332   101939.879     2806.488    24128.131        6.545        6.444       43.343      217.654       25.217      330.299       -2.414      866.408
01/06/2021  07:28:00       65.678       11.248        0.229      315.156       53.153      154.377    99323.429     2825.196    23832.165        6.518        6.299       66.634      215.848       10.493      330.466       -2.140      866.360
01/06/2021  07:29:00       32.172       42.695       -3.134      329.635       55.369      160.211   108659.351     3065.732    25667.509        7.010        6.870       53.460      224.794       17.681      330.617       -1.892      866.344
01/06/2021  07:30:00       36.201        9.490      -33.974      524.634       66.593      249.413   275241.062     4434.661    62207.032       17.215       17.094       37.424      356.553       90.770      330.648       -1.834      866.367
01/06/2021  07:31:00       24.807       49.014      -35.824      452.795       60.686      225.401   205023.764     3682.751    50805.572       13.185       12.976       54.934      315.045       32.890      330.603       -1.912      866.389
01/06/2021  07:32:00      -17.228       56.234       -6.457      313.656       56.060      150.576    98379.938     3142.768    22673.037        6.382        6.210       58.814      211.147       12.889      330.341       -2.346      866.364
01/06/2021  07:33:00       24.285       62.527       -2.303      376.762       67.667      190.355   141949.359     4578.761    36235.182        9.360        9.138       67.077      261.947       15.250      330.566       -1.974      866.361
01/06/2021  07:34:00       62.508       31.525        3.143      337.395       61.205      161.297   113835.528     3746.073    26016.795        7.423        7.180       70.008      227.670       10.576      330.582       -1.950      866.414
01/06/2021  07:35:00       48.357       42.079       -3.305      339.600       65.217      162.533   115327.916     4253.192    26417.092        7.503        7.300       64.102      226.700       12.507      330.583       -1.947      866.464
01/06/2021  07:36:00       27.851       89.300      -11.076      453.110       61.895      218.016   205308.398     3831.036    47530.796       13.272       12.834       93.542      309.246       10.929      330.474       -2.123      866.476
01/06/2021  07:37:00      -10.211       71.938        8.558      250.375       65.561      123.835    62687.444     4298.302    15335.114        4.382        4.116       72.659      166.647        5.260      330.368       -2.301      866.465
01/06/2021  07:38:00      129.689       10.647      -30.942      481.715       56.694      233.829   232048.906     3214.159    54675.845       15.386       14.497      130.126      331.995        6.509      330.858       -1.492      866.456
01/06/2021  07:39:00      102.285       44.151      -24.967      470.800       68.978      217.716   221652.940     4757.952    47400.240       14.337       13.691      111.407      313.966        7.942      330.932       -1.370      866.478
01/06/2021  07:40:00       67.557       30.249       -2.625      284.131       62.602      139.012    80730.212     3919.028    19324.212        5.471        5.199       74.020      192.871        6.790      330.621       -1.887      866.507
01/06/2021  07:41:00      119.771       35.986      -29.101      478.737       57.898      226.189   229188.666     3352.151    51161.321       15.004       14.185      125.061      324.985        6.753      330.857       -1.494      866.535
01/06/2021  07:42:00       -4.779       51.128        4.525      194.476       62.383      101.393    37821.082     3891.583    10280.591        2.731        2.600       51.351      131.212        6.529      330.455       -2.160      866.542
01/06/2021  07:43:00      123.324       22.688      -28.612      501.615       57.542      244.339   251617.295     3311.139    59701.772       16.552       15.732      125.393      345.518        7.593      330.851       -1.504      866.545
01/06/2021  07:44:00       80.558       18.500      -15.151      371.127       54.907      185.469   137735.271     3014.751    34398.915        9.107        8.757       82.655      258.127        9.753      331.017       -1.234      866.535
01/06/2021  07:45:00       82.347       33.791       -6.599      424.684       51.656      198.204   180356.594     2668.346    39284.943       11.509       11.115       89.010      286.851       10.386      331.041       -1.192      866.529
01/06/2021  07:46:00       67.640       36.690      -13.963      377.784       53.443      186.997   142720.451     2856.112    34967.865        9.329        9.027       76.950      262.018       11.594      330.922       -1.390      866.517
01/06/2021  07:47:00       75.909       35.259      -25.214      457.204       51.516      216.270   209035.786     2653.931    46772.763       13.300       12.923       83.698      311.290       13.832      331.006       -1.249      866.516
01/06/2021  07:48:00       68.671       38.323      -46.096      470.788       47.959      225.611   221641.268     2300.059    50900.173       14.152       13.742       78.641      323.366       16.908      330.956       -1.331      866.539
01/06/2021  07:49:00        9.868       31.633      -40.442      456.285       50.179      212.905   208195.740     2517.920    45328.568       12.934       12.802       33.136      308.810       86.851      330.862       -1.485      866.582
01/06/2021  07:50:00       36.598       36.578      -24.395      420.196       56.674      194.187   176564.667     3211.940    37708.698       11.033       10.874       51.743      281.758       29.652      330.780       -1.620      866.636
01/06/2021  07:51:00      -37.281       32.567       -2.966       49.738       54.979       38.595     2473.845     3022.689     1489.604        0.472        0.349       49.502       39.415        0.634      330.507       -2.078      866.666
01/06/2021  07:52:00      -64.274       67.794      -12.727      228.486       48.241      114.898    52205.626     2327.217    13201.564        3.830        3.387       93.419      157.717        2.850      330.496       -2.091      866.674
01/06/2021  07:53:00       13.759       25.261       -9.432      264.016       46.186      126.767    69704.244     2133.117    16069.776        4.439        4.395       28.765      178.966       38.709      330.689       -1.776      866.666
01/06/2021  07:54:00       17.907        5.471        2.314      170.489       26.125       82.857    29066.483      682.507     6865.345        1.848        1.831       18.724      116.537       38.737      330.851       -1.512      866.654
01/06/2021  07:55:00      -39.667        4.987       -5.356       41.058       35.209       24.339     1685.787     1239.669      592.377        0.257        0.176       39.980       23.608        0.349      330.780       -1.629      866.664
01/06/2021  07:56:00      -28.110       21.776      -13.156       54.051       38.153       27.545     2921.496     1455.685      758.700        0.329        0.257       35.558       25.917        0.531      330.765       -1.653      866.642
01/06/2021  07:57:00      -60.876       29.247       -0.212       39.088       39.500       26.215     1527.841     1560.238      687.219        0.417        0.189       67.538       27.986        0.172      330.755       -1.670      866.622
01/06/2021  07:58:00      -51.705       24.311      -10.814      206.370       29.515       95.857    42588.520      871.108     9188.543        2.800        2.632       57.135      138.025        5.836      330.744       -1.685      866.615
01/06/2021  07:59:00      -64.451       32.697       -2.462       43.305       39.124       24.750     1875.292     1530.655      612.571        0.462        0.201       72.270       24.652        0.116      330.757       -1.666      866.609
01/06/2021  08:00:00      -16.158       11.367        4.823       49.344       43.071       31.983     2434.865     1855.145     1022.905        0.286        0.266       19.756       27.827        1.984      330.951       -1.347      866.614
01/06/2021  08:01:00       13.241       15.265        0.724      164.423       29.606       80.773    27034.937      876.501     6524.272        1.742        1.722       20.207      112.087       30.769      330.919       -1.400      866.642
01/06/2021  08:02:00       10.775       13.570        2.766       44.350       33.320       25.630     1966.950     1110.255      656.879        0.202        0.187       17.327       21.095        1.482      330.845       -1.520      866.663
01/06/2021  08:03:00        0.278       22.937       -9.006      167.471       34.477       75.324    28046.678     1188.655     5673.663        1.775        1.745       22.939      108.857       22.520      330.885       -1.455      866.684
01/06/2021  08:04:00      -25.495       27.644       -5.183       45.757       30.934       24.379     2093.746      956.887      594.339        0.254        0.182       37.606       24.942        0.440      330.912       -1.410      866.703
01/06/2021  08:05:00      -43.460       23.643       -8.896       48.836       22.452       25.173     2384.975      504.076      633.702        0.302        0.176       49.475       28.333        0.328      330.944       -1.358      866.726
01/06/2021  08:06:00      -38.704       20.056      -14.853       47.550       19.167       24.875     2261.009      367.374      618.742        0.268        0.162       43.592       30.178        0.479      330.968       -1.319      866.729
01/06/2021  08:07:00      -36.333        2.992      -16.333       50.128       17.340       26.985     2512.790      300.674      728.174        0.257        0.177       36.456       33.912        0.865      331.103       -1.097      866.740
01/06/2021  08:08:00       23.021        0.156       -7.231       47.863       20.599       24.268     2290.847      424.304      588.932        0.194        0.165       23.021       30.472        1.752      331.199       -0.940      866.774
01/06/2021  08:09:00        9.639        4.862      -17.060       63.913       11.673       34.426     4084.842      136.257     1185.163        0.291        0.270       10.796       41.594       14.843      331.324       -0.734      866.760
01/06/2021  08:10:00       13.800       -4.646      -17.429       53.877       11.296       27.442     2902.694      127.604      753.043        0.215        0.189       14.561       37.070        6.481      331.381       -0.642      866.716
01/06/2021  08:11:00       -1.625       12.281       -9.768       55.366       13.458       25.906     3065.437      181.113      671.134        0.208        0.196       12.388       34.801        7.892      331.336       -0.713      866.688
01/06/2021  08:12:00       -6.414       -8.028       -8.540       50.426       17.167       23.580     2542.774      294.719      556.001        0.179        0.170       10.276       29.639        8.319      331.377       -0.649      866.676
01/06/2021  08:13:00      -44.510        2.264      -16.548       48.525       14.295       25.507     2354.639      204.359      650.585        0.273        0.160       44.568       32.642        0.536      331.359       -0.675      866.670
01/06/2021  08:14:00      -38.682       -3.396      -15.094       61.228       20.313       31.175     3748.879      412.604      971.906        0.343        0.257       38.831       36.833        0.900      331.479       -0.477      866.695
01/06/2021  08:15:00       -3.016        3.833       -5.890       61.736       27.379       32.081     3811.337      749.630     1029.185        0.282        0.280        4.877       27.281       31.288      331.470       -0.494      866.745
01/06/2021  08:16:00      -12.157      -17.922      -16.700       72.856       29.831       32.500     5307.926      889.907     1056.218        0.400        0.363       21.656       38.460        3.154      331.505       -0.434      866.776
01/06/2021  08:17:00      -22.035        5.514       -7.709       57.278       17.179       28.456     3280.802      295.123      809.749        0.248        0.219       22.715       33.568        2.184      331.553       -0.357      866.774
01/06/2021  08:18:00       -2.106        3.968       -8.292       46.429       12.929       25.022     2155.696      167.159      626.121        0.152        0.147        4.492       29.596       43.402      331.540       -0.379      866.732
01/06/2021  08:19:00      -13.199       -6.105       -0.941       40.443       11.522       22.772     1635.616      132.748      518.560        0.125        0.114       14.543       19.572        1.811      331.722       -0.079      866.702
01/06/2021  08:20:00        8.987       -7.033        2.853       42.116       16.285       23.013     1773.750      265.190      529.618        0.135        0.128       11.411       24.961        4.785      331.720       -0.082      866.700
01/06/2021  08:21:00       20.330       -9.783       -5.793       51.705       15.332       27.144     2673.377      235.071      736.807        0.209        0.182       22.562       30.692        1.851      331.786        0.025      866.712
01/06/2021  08:22:00       13.528        5.739        0.162       52.790       25.674       32.118     2786.798      659.171     1031.550        0.235        0.224       14.695       27.512        3.505      331.707       -0.104      866.746
01/06/2021  08:23:00        1.990       -3.636       -1.169       52.677       26.454       30.131     2774.828      699.796      907.875        0.220        0.219        4.145       30.128       52.823      331.778        0.012      866.791
01/06/2021  08:24:00      -25.408      -16.339      -13.575       70.657       21.916       31.887     4992.445      480.331     1016.790        0.379        0.324       30.208       36.578        1.466      331.661       -0.181      866.819
01/06/2021  08:25:00       -9.475      -12.133       -6.510       56.465       14.461       30.966     3188.309      209.113      958.924        0.232        0.218       15.395       32.182        4.370      331.776        0.007      866.815
01/06/2021  08:26:00      -66.262        5.144       -6.605       55.325       18.557       25.117     3060.811      344.358      630.873        0.425        0.202       66.461       23.666        0.127      331.491       -0.460      866.813
01/06/2021  08:27:00      -10.807        1.150       -8.066       63.317       23.562       27.000     4008.983      555.184      728.979        0.274        0.265       10.868       30.699        7.979      331.653       -0.193      866.863
01/06/2021  08:28:00      -19.462      -11.528       -1.448       65.281       33.606       27.275     4261.651     1129.341      743.924        0.332        0.307       22.620       20.251        0.802      331.673       -0.160      866.910
01/06/2021  08:29:00      -17.727        8.020       -5.867       54.806       16.912       30.642     3003.657      286.000      938.905        0.232        0.211       19.456       32.292        2.755      331.633       -0.226      866.917
01/06/2021  08:30:00       -0.538       10.116       -6.322       50.838        8.902       25.658     2584.533       79.251      658.326        0.173        0.166       10.131       32.788       10.475      331.664       -0.176      866.883
01/06/2021  08:31:00        5.604        8.281       -9.130       41.460        4.005       20.756     1718.969       16.042      430.793        0.117        0.108        9.999       27.896        7.783      331.627       -0.236      866.873
01/06/2021  08:32:00      -27.478       19.000      -12.240       43.184       11.571       23.011     1864.874      133.885      529.510        0.190        0.126       33.407       27.211        0.663      331.720       -0.083      866.914
01/06/2021  08:33:00       14.545       -9.059       -4.241       47.294       11.591       26.104     2236.685      134.343      681.401        0.168        0.153       17.136       31.451        3.369      331.935        0.270      866.955
01/06/2021  08:34:00       -3.822        7.531      -10.455       44.513       10.867       23.989     1981.381      118.086      575.469        0.143        0.134        8.445       29.479       12.184      331.764       -0.011      866.935
01/06/2021  08:35:00       22.446       11.353      -18.519       49.646        6.137       24.567     2464.736       37.666      603.561        0.204        0.155       25.154       34.312        1.861      331.783        0.023      866.895
01/06/2021  08:36:00       10.417       -2.965      -14.828       41.577       10.775       21.381     1728.685      116.102      457.139        0.132        0.115       10.830       27.887        6.630      331.927        0.258      866.897
01/06/2021  08:37:00        2.342      -21.806      -12.915       47.951       31.186       28.011     2299.269      972.572      784.612        0.235        0.203       21.932       24.045        1.202      331.952        0.298      866.924
01/06/2021  08:38:00       52.859       -7.091      -19.702       44.556       48.753       26.473     1985.273     2376.810      700.841        0.415        0.253       53.333       24.311        0.208      331.975        0.337      866.911
01/06/2021  08:39:00       49.066      -32.419      -21.618       50.243       39.381       24.237     2524.404     1550.876      587.414        0.429        0.233       58.808       32.432        0.304      332.073        0.499      866.858
01/06/2021  08:40:00       33.515        0.667      -19.859       61.456       38.906       33.253     3776.805     1513.675     1105.770        0.396        0.320       33.521       41.197        1.510      332.098        0.541      866.816
01/06/2021  08:41:00       31.304      -21.936       -2.609       61.613       42.829       38.310     3796.102     1834.309     1467.680        0.428        0.355       38.225       41.832        1.198      332.201        0.710      866.787
01/06/2021  08:42:00       25.519      -40.084      -29.620       65.168       36.113       32.292     4246.902     1304.128     1042.806        0.486        0.330       47.518       41.428        0.760      332.148        0.623      866.790
01/06/2021  08:43:00       48.295      -25.077      -15.546       43.090       18.434       27.036     1856.772      339.814      730.968        0.306        0.146       54.418       26.662        0.240      332.083        0.514      866.821
01/06/2021  08:44:00       60.709        5.859      -22.137       45.342       32.435       22.968     2055.887     1052.054      527.527        0.392        0.182       60.991       27.371        0.201      332.072        0.496      866.834
01/06/2021  08:45:00       27.105       -6.531      -11.222       53.382       30.447       30.737     2849.622      927.008      944.793        0.281        0.236       27.881       34.573        1.538      332.151        0.628      866.831
01/06/2021  08:46:00       28.804        6.779      -10.534       42.826       27.211       30.238     1834.058      740.428      914.318        0.224        0.174       29.591       30.943        1.093      332.116        0.570      866.848
01/06/2021  08:47:00       60.826      -11.582      -14.367       35.325       24.712       23.194     1247.854      610.682      537.952        0.322        0.120       61.919       20.944        0.114      332.053        0.465      866.839
01/06/2021  08:48:00       36.992       -4.251      -15.672       52.147       36.050       28.367     2719.316     1299.621      804.684        0.323        0.241       37.235       33.136        0.792      332.232        0.762      866.794
01/06/2021  08:49:00       26.354        1.238       -7.642       60.318       54.453       38.461     3638.210     2965.122     1479.275        0.442        0.404       26.383       34.368        1.697      332.275        0.831      866.770
01/06/2021  08:50:00       52.599       -1.396      -20.858       68.972       52.426       35.629     4757.106     2748.487     1269.426        0.599        0.439       52.618       36.259        0.475      332.138        0.607      866.752
01/06/2021  08:51:00       86.656      -20.542      -30.777       65.076       48.886       33.325     4234.826     2389.796     1110.572        0.831        0.387       89.058       34.084        0.146      332.106        0.554      866.762
01/06/2021  08:52:00       58.401        1.017      -11.182       51.883       47.706       37.698     2691.886     2275.834     1421.113        0.496        0.319       58.410       34.372        0.346      332.178        0.670      866.776
01/06/2021  08:53:00       94.820       33.941      -22.420       62.224       47.716       32.864     3871.876     2276.826     1080.059        0.894        0.361      100.712       31.839        0.100      332.074        0.500      866.774
01/06/2021  08:54:00      106.072       57.694      -26.460       60.219       39.926       29.441     3626.339     1594.066      866.765        1.068        0.304      120.747       32.532        0.073      331.995        0.370      866.762
01/06/2021  08:55:00      147.034       65.433      -28.288       56.671       34.131       26.039     3211.635     1164.904      678.023        1.588        0.253      160.936       26.773        0.028      331.852        0.135      866.772
01/06/2021  08:56:00      150.911       23.936      -23.962       67.275       26.085       32.794     4525.915      680.403     1075.444        1.510        0.314      152.797       43.292        0.080      331.771       -0.000      866.787
01/06/2021  08:57:00       70.345        6.539       -4.355       54.834       40.073       29.301     3006.760     1605.846      858.578        0.524        0.274       70.649       33.066        0.219      331.922        0.249      866.799
01/06/2021  08:58:00      100.289        3.604      -16.726       66.159       47.591       33.755     4377.009     2264.919     1139.408        0.906        0.389      100.353       38.787        0.149      332.065        0.486      866.789
01/06/2021  08:59:00       68.031       -4.331      -16.862       72.535       62.301       41.843     5261.267     3881.467     1750.855        0.791        0.545       68.168       43.902        0.415      332.096        0.535      866.768
01/06/2021  09:00:00       97.979      -12.867      -21.541       81.558       48.627       47.378     6651.638     2364.567     2244.665        1.074        0.563       98.820       46.062        0.217      331.965        0.321      866.739
01/06/2021  09:01:00       53.744       -5.757       -9.560       66.894       49.194       36.939     4474.773     2420.043     1364.480        0.563        0.413       54.051       40.386        0.558      332.020        0.411      866.727
01/06/2021  09:02:00       85.081      -18.735      -29.993       68.177       59.150       36.225     4648.155     3498.737     1312.274        0.897        0.473       87.119       38.744        0.198      331.952        0.298      866.731
01/06/2021  09:03:00       55.644       -2.417       -9.603       66.549       46.444       37.656     4428.832     2157.067     1417.947        0.560        0.400       55.696       39.287        0.498      331.956        0.306      866.722
01/06/2021  09:04:00       65.493      -10.273      -33.689       63.096       43.001       34.420     3981.080     1849.080     1184.769        0.627        0.351       66.294       37.433        0.319      331.930        0.263      866.677
01/06/2021  09:05:00       76.953       -3.201      -18.453       80.276       55.458       40.187     6444.198     3075.629     1615.032        0.870        0.557       77.019       43.449        0.318      331.784        0.021      866.659
01/06/2021  09:06:00       52.400      -32.066      -19.586       51.551       61.683       32.010     2657.506     3804.812     1024.644        0.582        0.374       61.433       34.666        0.318      331.819        0.081      866.701
01/06/2021  09:07:00      127.458      -41.551      -26.323       63.738       53.093       36.214     4062.493     2818.889     1311.428        1.343        0.410      134.060       41.453        0.096      331.621       -0.246      866.729
01/06/2021  09:08:00      132.083        3.434      -28.567       86.854       44.997       40.714     7543.682     2024.741     1657.643        1.475        0.561      132.127       51.163        0.150      331.636       -0.221      866.704
01/06/2021  09:09:00      103.881       -9.391      -21.088       58.989       33.541       29.628     3479.697     1125.026      877.833        0.840        0.274      104.305       33.535        0.103      331.687       -0.137      866.658
01/06/2021  09:10:00       50.793       -0.773      -16.385       59.257       48.241       31.529     3511.341     2327.198      994.107        0.484        0.342       50.799       36.964        0.529      331.883        0.186      866.641
01/06/2021  09:11:00       38.137       -3.309      -11.347       67.425       58.092       24.677     4546.101     3374.704      608.978        0.506        0.426       38.280       34.095        0.793      331.861        0.150      866.654
01/06/2021  09:12:00       81.568       56.024      -14.712       60.395       42.907       27.011     3647.589     1840.978      729.575        0.811        0.311       98.955       20.563        0.043      331.824        0.088      866.645
01/06/2021  09:13:00       84.692       -6.718      -18.392       67.100       44.638       31.693     4502.439     1992.546     1004.427        0.753        0.375       84.958       30.049        0.125      331.762       -0.014      866.626
01/06/2021  09:14:00       65.218       15.913      -11.107       68.020       61.389       38.077     4626.742     3768.563     1449.883        0.724        0.492       67.131       38.064        0.322      331.879        0.179      866.631
01/06/2021  09:15:00       67.494       -3.129       -6.248       60.722       57.591       30.598     3687.184     3316.669      936.264        0.627        0.397       67.566       32.370        0.230      331.881        0.184      866.626
01/06/2021  09:16:00      132.054       53.794      -19.028       43.384       25.082       25.387     1882.207      629.123      644.508        1.192        0.158      142.590       29.379        0.042      331.628       -0.237      866.612
01/06/2021  09:17:00       56.053       25.302       -6.775       53.175       27.099       27.302     2827.583      734.336      745.408        0.407        0.215       61.499       31.622        0.264      331.756       -0.023      866.596
01/06/2021  09:18:00      118.767       64.981      -17.554       58.152       19.934       24.880     3381.668      397.355      619.036        1.152        0.220      135.381       29.531        0.048      331.575       -0.323      866.580
01/06/2021  09:19:00       45.928       27.879       -6.458       52.188       19.938       26.028     2723.601      397.539      677.437        0.336        0.190       53.727       26.908        0.251      331.700       -0.117      866.598
01/06/2021  09:20:00       52.498       51.727      -12.073       42.612       14.003       23.796     1815.747      196.079      566.256        0.408        0.129       73.701       26.659        0.131      331.616       -0.254      866.631
01/06/2021  09:21:00       57.278       56.933      -16.246       37.491       11.124       19.626     1405.567      123.743      385.191        0.435        0.096       80.759       24.275        0.090      331.573       -0.325      866.619
01/06/2021  09:22:00       96.121       46.333      -15.356       47.108       18.738       21.690     2219.191      351.102      470.449        0.733        0.152      106.705       24.016        0.051      331.594       -0.290      866.584
01/06/2021  09:23:00       84.879        3.722      -11.106       53.722       24.641       23.424     2886.087      607.194      548.703        0.569        0.202       84.960       29.376        0.120      331.754       -0.026      866.576
01/06/2021  09:24:00       42.310       23.416       -8.005       41.536       31.300       23.330     1725.241      979.674      544.294        0.283        0.162       48.357       27.109        0.314      331.961        0.314      866.594
01/06/2021  09:25:00       28.035        3.561       -4.382       34.041       26.556       22.323     1158.772      705.207      498.332        0.159        0.118       28.260       19.425        0.472      332.050        0.459      866.622
01/06/2021  09:26:00       44.753      -11.714       -8.143       45.537       24.495       24.419     2073.611      599.996      596.300        0.274        0.163       46.260       27.825        0.362      331.968        0.327      866.607
01/06/2021  09:27:00       53.889       18.319      -11.631       42.448       51.795       27.331     1801.795     2682.759      746.992        0.430        0.262       56.918       25.637        0.203      331.982        0.348      866.554
01/06/2021  09:28:00      110.525       -2.819      -22.441       54.521       49.139       30.376     2972.535     2414.627      922.717        0.952        0.315      110.561       33.399        0.091      331.880        0.181      866.496
01/06/2021  09:29:00       67.824       26.778      -20.546       48.869       40.038       30.382     2388.159     1603.079      923.055        0.533        0.246       72.919       26.134        0.128      331.912        0.232      866.461
01/06/2021  09:30:00       73.654       56.074      -13.964       40.327       29.626       25.526     1626.267      877.690      651.586        0.596        0.158       92.570       24.082        0.068      331.876        0.175      866.480
01/06/2021  09:31:00       77.687       49.220       -8.906       52.014       43.157       27.709     2705.415     1862.507      767.808        0.694        0.267       91.967       29.061        0.100      331.895        0.206      866.497
01/06/2021  09:32:00      102.112       36.019      -14.702       46.059       26.309       24.820     2121.440      692.158      616.027        0.768        0.171      108.278       29.846        0.076      331.771        0.001      866.451
01/06/2021  09:33:00       52.265       26.901      -10.319       47.830       14.377       21.405     2287.690      206.688      458.159        0.326        0.148       58.782       27.832        0.224      331.823        0.086      866.444
01/06/2021  09:34:00       18.773       27.394       -9.675       40.732       15.177       20.322     1659.099      230.339      412.980        0.175        0.115       33.209       25.509        0.590      331.949        0.294      866.465
01/06/2021  09:35:00       17.908       35.325       -1.282       40.294       16.100       23.457     1623.591      259.223      550.234        0.200        0.122       39.605       24.300        0.376      331.909        0.227      866.451
01/06/2021  09:36:00       35.078       62.053       -7.475       54.517       27.378       25.799     2972.065      749.542      665.570        0.476        0.219       71.281       21.468        0.091      331.972        0.332      866.406
01/06/2021  09:37:00       50.413       42.624       -8.883       46.866       18.058       22.015     2196.446      326.096      484.650        0.372        0.150       66.017       24.591        0.139      331.967        0.323      866.373
01/06/2021  09:38:00       99.976       65.483      -17.165       46.033       22.095       23.230     2119.014      488.173      539.614        0.886        0.157      119.512       29.380        0.060      331.937        0.274      866.316
01/06/2021  09:39:00      134.870       58.205      -29.035       42.033       29.341       23.713     1766.801      860.885      562.328        1.280        0.160      146.894       26.130        0.032      331.923        0.251      866.288
01/06/2021  09:40:00       69.760       40.591      -11.213       41.046       24.952       23.179     1684.809      622.597      537.279        0.474        0.142       80.710       26.429        0.107      331.976        0.339      866.320
01/06/2021  09:41:00       35.000       21.534       -3.826       45.893       21.018       20.685     2106.204      441.772      427.880        0.234        0.149       41.094       28.770        0.490      332.125        0.585      866.342
01/06/2021  09:42:00       54.842       51.368       -9.391       44.245       22.213       25.932     1957.596      493.404      672.487        0.443        0.156       75.142       29.115        0.150      332.013        0.400      866.337
01/06/2021  09:43:00       65.964       20.602      -18.715       45.699       18.312       20.516     2088.408      335.325      420.903        0.398        0.142       69.107       28.411        0.169      332.051        0.462      866.333
01/06/2021  09:44:00       33.013       22.087       -3.376       30.956       33.960       21.504      958.289     1153.277      462.404        0.208        0.129       39.720       16.503        0.173      332.248        0.786      866.312
01/06/2021  09:45:00        4.166        7.744        9.678       30.678       34.305       21.858      941.116     1176.863      477.751        0.138        0.130        8.794       16.713        3.612      332.392        1.024      866.276
01/06/2021  09:46:00       17.627       -8.906      -21.497       46.954       42.128       24.556     2204.675     1774.731      602.996        0.272        0.229       19.749       21.685        1.206      332.295        0.865      866.263
01/06/2021  09:47:00       -8.075      -15.856       -5.787       34.580       22.360       20.481     1195.758      499.965      419.480        0.123        0.106       17.793       23.465        1.739      332.361        0.973      866.265
01/06/2021  09:48:00       43.689       38.886       -3.457       46.908       32.333       20.078     2200.385     1045.443      403.146        0.354        0.182       58.488       22.604        0.149      332.208        0.723      866.237
01/06/2021  09:49:00       50.011        6.557       -5.838       30.575       22.135       19.069      934.858      489.980      363.634        0.218        0.089       50.439       15.675        0.097      332.024        0.418      866.210
01/06/2021  09:50:00       13.341      -16.731       -1.858       34.145       28.352       22.403     1165.898      803.854      501.872        0.147        0.124       21.399       21.353        0.996      332.334        0.928      866.227
01/06/2021  09:51:00       18.064      -13.950      -11.320       40.788       39.199       23.345     1663.636     1536.560      544.983        0.220        0.187       22.823       25.659        1.264      332.302        0.874      866.257
01/06/2021  09:52:00        2.107       22.509        1.502       37.475       30.420       21.435     1404.362      925.358      459.472        0.165        0.139       22.608       22.875        1.024      332.340        0.939      866.281
01/06/2021  09:53:00       28.727       35.957       -1.734       35.515       21.242       18.998     1261.333      451.237      360.905        0.210        0.104       46.023       23.690        0.265      332.146        0.619      866.309
01/06/2021  09:54:00       -7.134       40.117       -0.363       48.984       20.384       23.198     2399.400      415.492      538.153        0.251        0.168       40.746       22.147        0.295      332.173        0.663      866.322
01/06/2021  09:55:00      -17.617       11.728      -13.643       46.267       12.317       21.813     2140.640      151.700      475.826        0.170        0.138       21.163       21.217        1.005      332.173        0.664      866.290
01/06/2021  09:56:00       31.658       47.951      -12.615       39.132       19.542       19.642     1531.347      381.905      385.797        0.288        0.115       57.459       21.556        0.141      332.213        0.729      866.208
01/06/2021  09:57:00       83.293       86.748      -13.918       39.186       27.494       24.122     1535.564      755.915      581.851        0.876        0.144      120.262       20.168        0.028      332.184        0.682      866.118
01/06/2021  09:58:00       70.622       31.121      -11.712       52.204       43.429       25.127     2725.272     1886.096      631.374        0.567        0.262       77.175       27.722        0.129      332.410        1.055      866.071
01/06/2021  09:59:00       37.961        6.489      -15.097       40.600       44.057       23.569     1648.353     1941.019      555.475        0.293        0.207       38.512       20.268        0.277      332.453        1.126      866.103
01/06/2021  10:00:00       68.342       14.549      -12.657       40.436       55.122       20.256     1635.088     3038.428      410.313        0.506        0.254       69.873       23.561        0.114      332.281        0.841      866.165
01/06/2021  10:01:00       54.215      -49.454      -20.911       38.314       20.219       19.149     1467.994      408.793      366.690        0.403        0.112       73.382       21.859        0.089      332.174        0.665      866.214
01/06/2021  10:02:00       38.188        2.887      -14.116       42.597       28.145       21.207     1814.527      792.145      449.735        0.236        0.153       38.297       24.507        0.410      332.320        0.906      866.231
01/06/2021  10:03:00       70.866       18.235      -14.048       45.090       19.453       18.582     2033.087      378.409      345.290        0.415        0.138       73.175       26.051        0.127      332.107        0.555      866.224
01/06/2021  10:04:00      -23.974       50.404       -4.264       31.423       28.457       15.344      987.387      809.820      235.445        0.258        0.102       55.814       13.930        0.062      332.266        0.816      866.205
01/06/2021  10:05:00      -21.461       60.619      -13.619       37.928       20.323       15.873     1438.497      413.024      251.955        0.321        0.105       64.306       15.423        0.058      332.230        0.758      866.209
01/06/2021  10:06:00       13.787        6.581       -6.658       35.755       20.899       19.065     1278.407      436.767      363.461        0.118        0.104       15.277       22.887        2.244      332.333        0.928      866.187
01/06/2021  10:07:00       93.435       57.735      -19.927       36.993       22.433       22.411     1368.474      503.232      502.231        0.742        0.119      109.834       24.702        0.051      332.283        0.846      866.139
01/06/2021  10:08:00       99.217       42.516      -19.236       39.806       45.635       21.743     1584.542     2082.544      472.759        0.808        0.207      107.943       20.172        0.035      332.326        0.915      866.113
01/06/2021  10:09:00      104.774       32.191      -15.764       45.708       20.636       21.591     2089.259      425.833      466.154        0.762        0.149      109.608       26.279        0.057      332.269        0.823      866.121
01/06/2021  10:10:00       56.345       21.035      -10.247       40.993       19.116       22.125     1680.446      365.415      489.536        0.313        0.127       60.144       26.685        0.197      332.342        0.943      866.158
01/06/2021  10:11:00       11.239        5.160       -7.859       25.760        7.094       10.943      663.574       50.330      119.755        0.052        0.042       12.367       14.547        1.384      332.287        0.852      866.197
01/06/2021  10:12:00       25.654       25.337       -3.963       32.538       13.214       16.130     1058.695      174.617      260.182        0.140        0.075       36.057       20.117        0.311      332.396        1.032      866.206
01/06/2021  10:13:00       27.514       33.141        2.045       39.281       17.454       19.723     1543.024      304.658      388.999        0.205        0.112       43.074       22.541        0.274      332.445        1.112      866.185
01/06/2021  10:14:00      -45.260       86.370      -14.786       65.756       36.897       21.737     4323.845     1361.417      472.494        0.794        0.308       97.510       17.590        0.033      332.508        1.218      866.162
01/06/2021  10:15:00     -114.774       38.368      -16.268       53.868       29.618       25.531     2901.717      877.239      651.826        0.967        0.222      121.017       18.365        0.023      332.539        1.267      866.153
01/06/2021  10:16:00      -17.367       30.108      -16.552       44.051       20.995       19.858     1940.529      440.789      394.349        0.213        0.139       34.758       19.996        0.331      332.630        1.417      866.150
01/06/2021  10:17:00      -26.934       12.335      -13.839       47.227       10.926       25.135     2230.389      119.371      631.782        0.202        0.149       29.624       12.108        0.167      332.556        1.295      866.147
01/06/2021  10:18:00      -35.764        6.312       -5.675       44.170       20.868       20.732     1950.972      435.483      429.831        0.208        0.141       36.317        9.679        0.071      332.512        1.225      866.120
01/06/2021  10:19:00      -53.465       10.115       -7.406       39.195       17.372       18.435     1536.257      301.796      339.854        0.260        0.109       54.414       13.690        0.063      332.603        1.372      866.103
01/06/2021  10:20:00       -0.413        8.228       -6.239       41.780       14.134       20.152     1745.588      199.769      406.111        0.123        0.118        8.238       25.461        9.553      332.668        1.480      866.119
01/06/2021  10:21:00        8.729        6.111       -2.760       33.310       10.493       17.565     1109.537      110.107      308.535        0.082        0.076       10.655       22.920        4.627      332.783        1.671      866.164
01/06/2021  10:22:00       -0.561       -3.214       -9.050       36.880       18.854       17.649     1360.169      355.478      311.491        0.106        0.101        3.263       16.595       25.870      332.794        1.689      866.219
01/06/2021  10:23:00      -10.900      -13.003        4.689       51.193       28.553       31.184     2620.772      815.251      972.437        0.236        0.220       16.968       28.814        2.884      332.737        1.594      866.262
01/06/2021  10:24:00      -43.643      -20.500       -3.261       61.509       29.967       27.052     3783.406      898.038      731.788        0.387        0.271       48.218       14.555        0.091      332.815        1.724      866.288
01/06/2021  10:25:00      -78.427      -18.623      -17.326       41.259       21.572       20.743     1702.344      465.331      430.252        0.470        0.130       80.607       22.263        0.076      332.573        1.326      866.300
01/06/2021  10:26:00      -26.131       40.030       -0.453       36.694       13.924       20.405     1346.459      193.881      416.348        0.212        0.098       47.804       19.996        0.175      332.614        1.390      866.280
01/06/2021  10:27:00        6.632       27.220       -2.419       32.346       17.429       19.766     1046.268      303.780      390.686        0.127        0.087       28.016       19.399        0.479      332.714        1.557      866.230
01/06/2021  10:28:00      -30.212       71.921       -3.492       46.195       28.357       23.656     2133.962      804.099      559.604        0.480        0.175       78.009       11.844        0.023      332.743        1.604      866.210
01/06/2021  10:29:00      -79.193        3.694      -12.301       79.158       27.475       25.660     6265.983      754.887      658.442        0.706        0.384       79.279        4.599        0.003      332.841        1.766      866.209
01/06/2021  10:30:00       17.645       16.549        2.622       36.350       28.618       26.142     1321.315      818.972      683.423        0.171        0.141       24.191       23.370        0.933      332.943        1.936      866.221
01/06/2021  10:31:00       22.570       31.934       -9.498       38.348       15.933       20.565     1470.592      253.875      422.901        0.188        0.107       39.104       21.285        0.296      332.822        1.735      866.243
01/06/2021  10:32:00       -8.143       74.368       -4.428       35.280       25.387       20.064     1244.708      644.521      402.553        0.395        0.115       74.813       17.570        0.055      332.834        1.755      866.248
01/06/2021  10:33:00      -47.729       87.068       -4.808       33.690       19.128       19.601     1135.005      365.896      384.216        0.588        0.094       99.292       16.616        0.028      332.873        1.819      866.263
01/06/2021  10:34:00      -46.771       52.563       -6.173       61.231       38.944       25.026     3749.261     1516.668      626.323        0.544        0.295       70.359       17.762        0.064      332.877        1.826      866.249
01/06/2021  10:35:00      -15.367      -19.987      -24.027       50.167       35.231       24.496     2516.748     1241.240      600.052        0.278        0.218       25.212       14.179        0.316      333.014        2.051      866.243
01/06/2021  10:36:00      -26.464      -11.862      -12.937       48.749       32.337       24.685     2376.461     1045.704      609.358        0.252        0.202       29.001       19.489        0.452      332.882        1.833      866.247
01/06/2021  10:37:00      -18.565        4.659       -5.427       41.023        5.346       13.980     1682.924       28.582      195.427        0.115        0.095       19.140       13.509        0.498      332.751        1.618      866.225
01/06/2021  10:38:00        9.351        1.099       -7.918       36.874        4.115       18.812     1359.721       16.929      353.888        0.094        0.087        9.415       24.830        6.955      332.921        1.899      866.179
01/06/2021  10:39:00       -9.434       14.737       -5.384       31.600        9.891       16.547      998.564       97.825      273.790        0.085        0.069       17.497       22.036        1.586      332.794        1.688      866.158
01/06/2021  10:40:00       18.149       -6.776       -9.640       36.207        8.948       17.669     1310.912       80.066      312.202        0.109        0.085       19.373       23.756        1.504      332.849        1.781      866.124
01/06/2021  10:41:00       27.528       14.164      -10.135       21.305       12.196       14.348      453.913      148.738      205.868        0.093        0.040       30.958       12.276        0.157      332.767        1.643      866.079
01/06/2021  10:42:00       39.212       37.915       -9.692       39.036       10.450       15.839     1523.836      109.203      250.886        0.248        0.094       54.545       14.302        0.069      332.772        1.653      866.065
01/06/2021  10:43:00      -36.624       22.568      -20.189       38.894       15.950       19.686     1512.776      254.410      387.536        0.221        0.108       43.019       22.683        0.278      332.886        1.841      866.080
01/06/2021  10:44:00      -58.851       53.499      -16.947       39.276       39.580       19.876     1542.582     1566.579      395.055        0.506        0.175       79.534       17.884        0.051      332.984        2.003      866.072
01/06/2021  10:45:00      -29.571       50.889      -12.089       43.814       14.789       23.138     1919.660      218.727      535.350        0.314        0.134       58.857       26.114        0.197      332.917        1.894      866.026
01/06/2021  10:46:00      -13.600       35.391       -8.421       48.957       24.892       24.270     2396.756      619.596      589.036        0.256        0.180       37.914       24.060        0.403      333.123        2.232      865.975
01/06/2021  10:47:00       -4.906       59.844      -10.671       41.013       23.050       23.243     1682.073      531.284      540.255        0.324        0.138       60.045       17.042        0.081      332.992        2.016      865.960
01/06/2021  10:48:00       16.403       33.364       -6.438       34.957       17.073       22.475     1222.015      291.498      505.115        0.172        0.101       37.178       24.305        0.427      333.064        2.134      865.945
01/06/2021  10:49:00       31.372       20.430       -2.065       38.574       22.164       18.975     1487.938      491.264      360.069        0.187        0.117       37.438       25.073        0.449      333.076        2.155      865.929
01/06/2021  10:50:00       46.662       -2.341       -7.660       38.828       21.695       19.085     1507.619      470.682      364.254        0.229        0.117       46.721       22.980        0.242      333.107        2.204      865.937
01/06/2021  10:51:00       16.332       20.209       -2.220       35.563       11.480       18.935     1264.716      131.785      358.540        0.122        0.088       25.983       24.016        0.854      333.129        2.242      865.935
01/06/2021  10:52:00       23.781       17.170       -0.921       49.632       25.042       27.882     2463.339      627.104      777.400        0.236        0.193       29.332       30.037        1.049      333.224        2.400      865.922
01/06/2021  10:53:00       60.331       59.788       -6.021       32.140       12.859       18.504     1032.965      165.365      342.393        0.440        0.077       84.938       20.313        0.057      332.967        1.973      865.919
01/06/2021  10:54:00       20.982        7.368      -10.349       41.561       17.301       18.040     1727.336      299.329      325.434        0.148        0.118       22.238       21.896        0.969      333.057        2.123      865.951
01/06/2021  10:55:00      -13.904       11.374       -8.669       40.206       28.365       19.460     1616.552      804.557      378.692        0.160        0.140       17.964       22.111        1.515      333.252        2.444      866.001
01/06/2021  10:56:00       12.891      -49.695      -12.664       65.992       23.248       30.106     4354.916      540.449      906.391        0.430        0.290       51.339       36.038        0.493      333.313        2.545      866.031
01/06/2021  10:57:00        5.335      -42.305      -12.070       51.253       16.367       23.452     2626.897      267.893      550.017        0.270        0.172       42.640       30.512        0.512      333.223        2.397      866.059
01/06/2021  10:58:00       13.294       -7.514      -10.322       37.381       24.322       22.273     1397.336      591.560      496.078        0.141        0.124       15.271       23.908        2.451      333.299        2.523      866.053
01/06/2021  10:59:00      -11.561        9.091       -0.626       39.174       24.271       23.067     1534.612      589.088      532.075        0.144        0.133       14.707       26.455        3.236      333.320        2.556      866.018
01/06/2021  11:00:00        9.054        6.781      -10.489       46.160       18.311       23.540     2130.727      335.301      554.116        0.163        0.151       11.312       30.039        7.052      333.336        2.584      865.955
01/06/2021  11:01:00       65.141       59.849        3.089       52.002       43.973       36.110     2704.178     1933.646     1303.906        0.689        0.297       88.460       28.697        0.105      333.428        2.736      865.890
01/06/2021  11:02:00       52.833       31.882       -7.756       58.840       33.998       31.494     3462.146     1155.840      991.899        0.474        0.280       61.707       32.335        0.275      333.405        2.698      865.834
01/06/2021  11:03:00       37.540        0.120       -9.614       47.396       36.412       24.274     2246.350     1325.799      589.220        0.283        0.208       37.540       27.583        0.540      333.374        2.647      865.818
01/06/2021  11:04:00      -14.289      -17.181      -12.387       59.443       33.339       31.119     3533.520     1111.465      968.387        0.313        0.281       22.346       29.610        1.756      333.439        2.755      865.793
01/06/2021  11:05:00       86.276       45.316      -14.277       69.103       46.980       36.818     4775.232     2207.099     1355.594        0.902        0.417       97.453       40.658        0.174      333.323        2.563      865.728
01/06/2021  11:06:00       73.759      -16.452      -37.969       58.022       59.879       33.951     3366.576     3585.519     1152.661        0.763        0.405       75.571       30.434        0.162      333.560        2.955      865.673
01/06/2021  11:07:00       83.358      -17.060      -12.835       72.815       56.556       43.195     5302.061     3198.636     1865.772        0.888        0.518       85.086       40.835        0.230      333.428        2.736      865.665
01/06/2021  11:08:00       63.735       25.222      -30.151       57.250       53.965       32.994     3277.595     2912.198     1088.605        0.644        0.364       68.545       26.433        0.149      333.279        2.490      865.672
01/06/2021  11:09:00       74.341      -27.194      -38.348       58.191       61.842       25.142     3386.231     3824.375      632.137        0.779        0.392       79.159       29.460        0.139      333.347        2.602      865.671
01/06/2021  11:10:00       25.843       -9.968      -29.484       64.365       57.908       32.270     4142.873     3353.388     1041.369        0.509        0.427       27.699       38.428        1.925      333.290        2.508      865.670
01/06/2021  11:11:00       76.514       31.379      -23.600       64.714       52.568       29.837     4187.952     2763.435      890.238        0.762        0.392       82.699       29.657        0.129      333.307        2.536      865.623
01/06/2021  11:12:00      113.970       24.311      -28.786       61.899       48.627       35.565     3831.451     2364.555     1264.861        1.093        0.373      116.534       34.055        0.085      333.243        2.430      865.536
01/06/2021  11:13:00       65.882      -16.240      -24.624       64.285       57.465       34.513     4132.560     3302.239     1191.121        0.692        0.431       67.854       31.405        0.214      333.274        2.481      865.457
01/06/2021  11:14:00       35.180      -17.045      -16.174       65.616       72.996       34.674     4305.416     5328.357     1202.292        0.631        0.542       39.091       33.474        0.733      333.278        2.486      865.432
01/06/2021  11:15:00       66.135      -16.688      -29.069       66.327       50.359       33.358     4399.216     2535.979     1112.777        0.677        0.402       68.208       38.121        0.312      333.361        2.624      865.442
01/06/2021  11:16:00       75.310        0.816      -22.366       55.502       61.588       33.621     3080.495     3793.119     1130.363        0.709        0.400       75.315       33.652        0.200      333.370        2.640      865.461
01/06/2021  11:17:00       54.657      -11.783      -16.050       58.429       43.889       35.702     3413.985     1926.288     1274.655        0.500        0.331       55.913       36.192        0.419      333.475        2.814      865.452
01/06/2021  11:18:00       56.216       -8.049       -1.454       71.770       50.473       41.030     5150.988     2547.515     1683.444        0.630        0.469       56.789       49.286        0.753      333.448        2.768      865.442
01/06/2021  11:19:00      112.370     -116.984      -41.357       55.595       34.021       25.389     3090.856     1157.439      644.583        1.646        0.245      162.210       27.832        0.029      333.286        2.499      865.429
01/06/2021  11:20:00       61.105      -46.129      -29.939       57.497       47.064       29.833     3305.896     2215.009      890.025        0.658        0.321       76.562       35.230        0.212      333.489        2.837      865.421
01/06/2021  11:21:00      100.341       25.712      -10.238       64.136       51.154       29.916     4113.427     2616.682      894.958        0.923        0.381      103.583       35.233        0.116      333.299        2.525      865.417
01/06/2021  11:22:00       40.813      -25.050      -16.305       61.371       61.347       38.881     3766.371     3763.451     1511.694        0.580        0.452       47.887       40.207        0.705      333.498        2.853      865.411
01/06/2021  11:23:00       66.957      -54.262      -26.418       54.336       57.844       26.320     2952.364     3345.914      692.723        0.756        0.350       86.184       36.557        0.180      333.291        2.510      865.415
01/06/2021  11:24:00       92.578       25.117      -15.901       62.830       33.109       29.705     3947.570     1096.205      882.365        0.769        0.296       95.925       24.957        0.068      333.266        2.468      865.438
01/06/2021  11:25:00       89.018       -0.857      -19.568       80.890       34.794       30.455     6543.189     1210.595      927.515        0.849        0.434       89.022       41.760        0.220      333.381        2.658      865.450
01/06/2021  11:26:00       65.069      -39.168      -18.725       73.196       45.345       34.817     5357.665     2056.137     1212.229        0.737        0.431       75.948       44.419        0.342      333.486        2.832      865.479
01/06/2021  11:27:00       54.042      -17.192      -12.154       57.433       43.183       30.994     3298.566     1864.807      960.634        0.474        0.306       56.711       34.530        0.371      333.647        3.097      865.493
01/06/2021  11:28:00      100.110       54.864      -20.497       60.303       73.079       40.229     3636.502     5340.503     1618.373        1.202        0.530      114.158       17.760        0.024      333.515        2.879      865.444
01/06/2021  11:29:00       73.272       19.058      -16.055       80.208       64.488       32.463     6433.358     4158.695     1053.816        0.882        0.582       75.710       37.333        0.243      333.613        3.043      865.367
01/06/2021  11:30:00       65.954      -42.825      -15.172       47.575       46.139       28.893     2263.398     2128.846      834.793        0.582        0.261       78.638       28.554        0.132      333.411        2.709      865.377
01/06/2021  11:31:00       87.922      -74.325      -31.122       51.838       38.727       28.277     2687.161     1499.744      799.591        0.960        0.249      115.128       30.496        0.070      333.402        2.692      865.415
01/06/2021  11:32:00       82.635      -92.581      -22.917       46.962       38.321       27.929     2205.413     1468.483      780.043        1.019        0.223      124.096       29.547        0.057      333.438        2.754      865.423
01/06/2021  11:33:00      106.369      -95.113      -38.534       50.762       39.325       22.740     2576.825     1546.472      517.127        1.324        0.232      142.691       30.136        0.045      333.401        2.691      865.402
01/06/2021  11:34:00       65.351      -42.092      -15.323       47.323       39.380       26.295     2239.489     1550.778      691.421        0.538        0.224       77.733       31.465        0.164      333.438        2.753      865.391
01/06/2021  11:35:00      108.834     -101.337      -34.661       50.129       40.646       25.896     2512.937     1652.090      670.607        1.407        0.242      148.708       31.132        0.044      333.474        2.813      865.392
01/06/2021  11:36:00      106.034     -150.354      -43.617       55.778       32.856       19.064     3111.132     1079.538      363.434        2.015        0.228      183.983       27.135        0.022      333.214        2.380      865.400
01/06/2021  11:37:00      105.568     -162.007      -35.736       52.946       33.814       26.928     2803.244     1143.385      725.124        2.167        0.234      193.367       32.438        0.028      333.309        2.540      865.412
01/06/2021  11:38:00      113.324     -160.654      -40.042       50.686       39.742       26.677     2569.044     1579.403      711.646        2.256        0.243      196.601       34.471        0.031      333.235        2.415      865.411
01/06/2021  11:39:00      133.941      -64.452      -40.214       64.848       42.210       36.486     4205.314     1781.677     1331.233        1.551        0.366      148.641       44.849        0.091      333.273        2.479      865.375
01/06/2021  11:40:00       98.931     -135.359      -35.110       51.689       56.678       29.766     2671.789     3212.346      886.032        1.805        0.339      167.659       31.934        0.036      333.272        2.477      865.358
01/06/2021  11:41:00       64.107      -88.886      -17.698       55.039       43.039       30.377     3029.331     1852.373      922.749        0.906        0.290      109.592       33.328        0.092      333.421        2.724      865.412
01/06/2021  11:42:00       -0.285       23.339        5.092       43.380       30.358       25.423     1881.862      921.593      646.344        0.201        0.172       23.341       23.514        1.015      333.601        3.022      865.397
01/06/2021  11:43:00       -0.352       23.210        4.103       57.537       51.028       29.973     3310.518     2603.808      898.402        0.368        0.341       23.213       30.639        1.742      333.634        3.078      865.338
01/06/2021  11:44:00       39.737       -4.516      -12.162       50.370       26.840       18.960     2537.091      720.389      359.494        0.268        0.181       39.993       20.524        0.263      333.361        2.624      865.353
01/06/2021  11:45:00      -32.253       13.116      -11.744       55.456       30.083       21.211     3075.397      905.005      449.894        0.289        0.222       34.818       13.781        0.157      333.487        2.834      865.374
01/06/2021  11:46:00       24.940        5.340      -11.812       33.329       22.842       19.029     1110.804      521.755      362.115        0.139        0.100       25.505       17.360        0.463      333.590        3.005      865.336
01/06/2021  11:47:00       57.543      -75.205      -37.160       45.689       57.880       28.989     2087.440     3350.118      840.375        0.831        0.314       94.694       22.454        0.056      333.659        3.119      865.266
01/06/2021  11:48:00      -65.877      -60.513       -8.567       44.340       36.411       26.689     1966.041     1325.750      712.313        0.604        0.200       89.452       19.777        0.049      333.553        2.943      865.245
01/06/2021  11:49:00       13.856       -6.630      -17.183       53.492       28.443       17.878     2861.382      808.994      319.606        0.226        0.199       15.360       15.487        1.017      333.467        2.801      865.255
01/06/2021  11:50:00       65.806       13.878      -11.612       44.431       22.588       22.440     1974.076      510.235      503.574        0.382        0.149       67.254       28.328        0.177      333.272        2.477      865.282
01/06/2021  11:51:00       62.349       33.551      -15.154       45.274       30.687       25.574     2049.752      941.696      654.028        0.444        0.182       70.803       26.137        0.136      333.442        2.759      865.303
01/06/2021  11:52:00       27.999      -16.974      -12.774       51.347       52.657       33.207     2636.471     2772.792     1102.724        0.387        0.326       32.742       29.448        0.809      333.551        2.940      865.273
01/06/2021  11:53:00       54.916       -3.165       -8.278       47.989       31.455       33.120     2302.905      989.388     1096.944        0.374        0.219       55.007       32.805        0.356      333.628        3.068      865.257
01/06/2021  11:54:00       41.347        0.148      -10.981       39.868       39.458       19.998     1589.433     1556.922      399.911        0.269        0.177       41.347       20.735        0.251      333.621        3.056      865.261
01/06/2021  11:55:00       56.132        1.511      -16.634       48.239       36.064       29.548     2326.961     1300.613      873.089        0.396        0.225       56.152       24.751        0.194      333.618        3.051      865.222
01/06/2021  11:56:00       86.396       -5.388      -21.522       72.208       57.411       38.085     5213.924     3296.078     1450.504        0.896        0.498       86.564       36.888        0.182      333.564        2.964      865.144
01/06/2021  11:57:00       86.420        4.303      -23.062       61.279       50.331       36.774     3755.139     2533.164     1352.338        0.783        0.382       86.527       35.431        0.168      333.580        2.990      865.074
01/06/2021  11:58:00       89.740      -14.540       -2.816       58.155       44.551       35.622     3381.991     1984.772     1268.919        0.745        0.332       90.910       32.205        0.125      333.527        2.899      865.062
01/06/2021  11:59:00       48.512       -8.787      -13.836       51.059       28.254       22.758     2607.041      798.287      517.939        0.327        0.196       49.301       20.221        0.168      333.499        2.853      865.097
01/06/2021  12:00:00      103.671       48.849      -23.200       69.843       42.872       19.782     4878.064     1838.049      391.343        1.039        0.355      114.603       25.058        0.048      333.385        2.664      865.094
01/06/2021  12:01:00       97.022       52.524      -27.159       56.677       51.782       30.686     3212.336     2681.337      941.613        0.987        0.342      110.327       24.966        0.051      333.468        2.803      865.070
01/06/2021  12:02:00       20.492       20.340      -16.485       55.936       84.441       32.990     3128.879     7130.209     1088.317        0.622        0.567       28.872       28.662        0.985      333.483        2.828      865.112
01/06/2021  12:03:00       27.381      -28.504      -10.636       57.486       45.527       28.414     3304.590     2072.731      807.343        0.393        0.309       39.524       33.405        0.714      333.758        3.282      865.158
01/06/2021  12:04:00       80.978      -74.946      -27.646       64.255       56.510       38.779     4128.749     3193.372     1503.839        1.088        0.441      110.337       43.227        0.153      333.638        3.084      865.119
01/06/2021  12:05:00      102.339     -104.857      -29.502       39.779       46.332       21.265     1582.397     2146.654      452.205        1.326        0.209      146.521       21.291        0.021      333.481        2.823      865.068
01/06/2021  12:06:00       53.213       19.027       -7.250       50.407       51.535       28.616     2540.877     2655.857      818.888        0.463        0.301       56.512       34.408        0.371      333.603        3.028      865.021
01/06/2021  12:07:00      135.419       37.748      -24.795       64.027       43.361       31.683     4099.482     1880.192     1003.783        1.368        0.349      140.581       33.452        0.057      333.612        3.040      864.967
01/06/2021  12:08:00       67.445      -34.965      -27.574       59.087       68.979       41.621     3491.291     4758.094     1732.277        0.825        0.499       75.970       28.212        0.138      333.754        3.277      864.924
01/06/2021  12:09:00       39.487      -12.516      -14.767       67.637       47.203       30.214     4574.752     2228.099      912.879        0.482        0.386       41.423       30.733        0.550      333.756        3.279      864.928
01/06/2021  12:10:00       66.356       27.897       -6.441       49.553       28.893       28.998     2455.523      834.779      840.888        0.468        0.207       71.982       28.135        0.153      333.473        2.811      864.971
01/06/2021  12:11:00       55.832      -49.970      -26.866       55.458       48.212       27.308     3075.613     2324.385      745.703        0.624        0.307       74.928       36.331        0.235      333.616        3.047      864.965
01/06/2021  12:12:00       93.502     -106.398      -37.719       52.734       48.916       21.352     2780.828     2392.732      455.889        1.356        0.281      141.645       27.168        0.037      333.442        2.760      864.913
01/06/2021  12:13:00       18.960      -19.563      -18.538       54.497       31.582       30.846     2969.952      997.441      951.450        0.300        0.246       27.244       33.239        1.489      333.677        3.149      864.873
01/06/2021  12:14:00       29.874      -55.541      -22.966       55.316       27.183       25.806     3059.874      738.891      665.941        0.448        0.223       63.065       31.294        0.246      333.560        2.955      864.885
01/06/2021  12:15:00       13.437      -11.159      -10.544       50.343       44.590       32.505     2534.401     1988.290     1056.545        0.300        0.279       17.466       26.580        2.316      333.667        3.133      864.897
01/06/2021  12:16:00       24.317        6.738       -6.714       58.336       36.924       28.030     3403.067     1363.410      785.674        0.312        0.278       25.233       33.394        1.752      333.720        3.221      864.886
01/06/2021  12:17:00       92.131       47.761       -6.395       40.087       23.936       19.130     1606.971      572.923      365.943        0.668        0.127      103.775       22.145        0.046      333.373        2.644      864.862
01/06/2021  12:18:00      113.294       27.319      -25.667       45.640       27.144       21.650     2083.012      736.786      468.729        0.876        0.164      116.542       28.048        0.058      333.423        2.726      864.846
01/06/2021  12:19:00       31.397      -25.292      -18.326       48.304       36.045       24.891     2333.278     1299.242      619.549        0.311        0.213       40.317       29.225        0.525      333.722        3.225      864.864
01/06/2021  12:20:00       94.111      -12.972      -31.821       56.735       59.244       24.194     3218.834     3509.881      585.347        0.867        0.366       95.001       22.766        0.057      333.647        3.099      864.824
01/06/2021  12:21:00      126.699      -14.505      -18.769       66.535       39.371       35.858     4426.846     1550.048     1285.769        1.194        0.363      127.527       37.887        0.088      333.666        3.130      864.788
01/06/2021  12:22:00       51.504      -53.113      -27.441       58.559       61.371       28.788     3429.203     3766.426      828.762        0.712        0.401       73.985       31.018        0.176      333.799        3.352      864.806
01/06/2021  12:23:00       30.467       15.500       -5.744       51.269       41.485       23.151     2628.498     1721.015      535.950        0.304        0.244       34.183       25.185        0.543      333.605        3.030      864.839
01/06/2021  12:24:00       19.746       44.370      -14.979       48.055       18.861       21.301     2309.306      355.722      453.737        0.285        0.156       48.565       23.855        0.241      333.554        2.944      864.812
01/06/2021  12:25:00       63.544       65.129      -18.994       50.862       38.393       34.045     2586.925     1474.060     1159.094        0.693        0.261       90.992       30.073        0.109      333.655        3.112      864.728
01/06/2021  12:26:00       22.056      -66.705      -22.852       64.905       54.988       36.153     4212.613     3023.710     1307.047        0.700        0.427       70.257       30.936        0.194      333.758        3.282      864.717
01/06/2021  12:27:00       58.518      -70.125      -20.942       41.192       38.040       26.602     1696.809     1447.047      707.644        0.632        0.193       91.334       23.173        0.064      333.630        3.071      864.824
01/06/2021  12:28:00       34.366      -49.701      -20.605       47.145       30.553       29.972     2222.611      933.461      898.308        0.406        0.203       60.425       21.930        0.132      333.768        3.299      864.869
01/06/2021  12:29:00       33.869       -1.085      -23.985       57.279       47.866       26.254     3280.881     2291.113      689.252        0.399        0.313       33.886       31.309        0.854      333.786        3.329      864.807
01/06/2021  12:30:00       55.196      -34.861      -23.701       58.440       54.975       28.154     3415.195     3022.264      792.631        0.603        0.362       65.283       27.350        0.176      333.808        3.367      864.773
01/06/2021  12:31:00        9.055      -58.873      -22.269       39.259       25.018       20.589     1541.245      625.876      423.894        0.332        0.130       59.565       20.216        0.115      333.728        3.232      864.809
01/06/2021  12:32:00      -23.844      -57.540      -26.928       68.341       30.212       23.406     4670.449      912.746      547.834        0.537        0.307       62.285       26.082        0.175      333.787        3.332      864.836
01/06/2021  12:33:00      -39.460      -59.730      -16.697       42.563       31.003       24.068     1811.567      961.211      579.268        0.438        0.168       71.588       20.248        0.080      333.754        3.279      864.814
01/06/2021  12:34:00        9.112       16.644      -15.732       52.959       43.724       26.462     2804.656     1911.823      700.220        0.301        0.271       18.975       24.461        1.662      333.876        3.480      864.763
01/06/2021  12:35:00       50.773       26.880      -16.623       61.298       21.639       28.497     3757.442      468.240      812.102        0.431        0.252       57.450       37.327        0.422      333.780        3.318      864.679
01/06/2021  12:36:00       74.185       -7.983      -15.444       46.996       29.339       23.465     2208.584      860.789      550.596        0.471        0.181       74.614       23.026        0.095      333.848        3.432      864.606
01/06/2021  12:37:00       43.541       11.733       -6.345       57.294       45.393       33.734     3282.604     2060.483     1137.969        0.428        0.324       45.094       30.304        0.452      334.122        3.886      864.556
01/06/2021  12:38:00      -13.217      -41.264      -11.389       65.950       36.062       30.881     4349.462     1300.454      953.621        0.430        0.330       43.329       37.352        0.743      334.155        3.942      864.589
01/06/2021  12:39:00       78.130      -87.090      -32.412       55.768       42.514       27.040     3110.023     1807.450      731.155        1.019        0.282      117.000       30.288        0.067      333.845        3.426      864.660
01/06/2021  12:40:00      102.143       23.632      -11.941       46.051       43.519       29.316     2120.684     1893.871      859.448        0.800        0.244      104.842       28.095        0.072      333.894        3.507      864.657
01/06/2021  12:41:00       83.511      -76.737      -28.944       52.944       56.182       35.033     2803.112     3156.408     1227.306        1.044        0.359      113.414       35.982        0.101      334.021        3.720      864.652
01/06/2021  12:42:00       23.039      -65.219      -21.459       66.877       49.977       35.182     4472.483     2497.702     1237.785        0.672        0.410       69.169       39.507        0.326      334.195        4.007      864.611
01/06/2021  12:43:00       95.732       51.155      -21.997       79.318       28.531       30.305     6291.290      814.036      918.374        1.014        0.401      108.542       40.353        0.138      333.976        3.644      864.494
01/06/2021  12:44:00       91.011       53.398      -10.764       62.017       40.740       30.779     3846.112     1659.746      947.376        0.885        0.323      105.520       34.187        0.105      333.841        3.421      864.393
01/06/2021  12:45:00       17.592       62.313      -11.923       53.385       35.003       28.039     2849.936     1225.233      786.177        0.460        0.243       64.749       31.089        0.231      334.160        3.950      864.404
01/06/2021  12:46:00       -2.720       64.558      -14.344       58.851       27.954       30.507     3463.387      781.405      930.675        0.478        0.259       64.616       33.979        0.277      334.208        4.030      864.449
01/06/2021  12:47:00       48.473       18.610      -18.849       56.118       23.851       28.259     3149.207      568.878      798.586        0.378        0.226       51.923       36.945        0.506      334.189        3.996      864.463
01/06/2021  12:48:00       35.762       41.303      -13.951       50.642       20.885       23.608     2564.584      436.174      557.350        0.337        0.178       54.634       30.502        0.312      334.167        3.960      864.501
01/06/2021  12:49:00       49.693       55.320      -17.613       55.796       19.279       30.335     3113.144      371.676      920.226        0.512        0.220       74.362       37.220        0.251      334.056        3.776      864.481
01/06/2021  12:50:00       82.481       51.402      -13.836       80.626       26.670       31.894     6500.557      711.306     1017.214        0.893        0.411       97.187       45.778        0.222      334.099        3.848      864.368
01/06/2021  12:51:00      100.098       32.606      -25.747       65.899       54.456       31.806     4342.705     2965.409     1011.619        1.003        0.416      105.275       30.594        0.084      334.217        4.045      864.297
01/06/2021  12:52:00       83.259       66.820       -7.276       56.808       23.619       29.500     3227.122      557.854      870.248        0.805        0.233      106.756       35.095        0.108      334.197        4.010      864.322
01/06/2021  12:53:00       37.346       50.246       -1.764       58.108       20.724       31.372     3376.488      429.469      984.225        0.436        0.240       62.605       34.138        0.297      334.104        3.857      864.396
01/06/2021  12:54:00      108.044       25.837      -23.639       70.227       54.658       33.515     4931.762     2987.445     1123.250        1.097        0.452      111.090       44.914        0.163      334.118        3.879      864.438
01/06/2021  12:55:00       42.292      -12.085      -17.685       51.471       27.708       27.805     2649.217      767.721      773.119        0.322        0.210       43.985       30.790        0.490      334.327        4.225      864.458
01/06/2021  12:56:00       55.205       27.356      -16.063       60.324       31.648       28.948     3638.978     1001.594      837.963        0.477        0.274       61.611       38.257        0.386      334.143        3.921      864.434
01/06/2021  12:57:00       56.467       57.003      -13.882       62.194       24.865       31.889     3868.055      618.262     1016.936        0.607        0.275       80.236       39.755        0.246      334.118        3.880      864.380
01/06/2021  12:58:00       45.454       90.903      -20.907       63.209       30.821       35.052     3995.406      949.917     1228.672        0.847        0.309      101.633       40.955        0.162      334.285        4.158      864.362
01/06/2021  12:59:00       23.183       49.245      -21.132       56.350       24.057       31.004     3175.371      578.737      961.231        0.406        0.236       54.429       38.086        0.490      334.346        4.259      864.399
01/06/2021  13:00:00       59.109      -35.991      -34.349       65.331       56.967       32.571     4268.135     3245.188     1060.878        0.727        0.429       69.204       43.407        0.393      334.414        4.371      864.460
01/06/2021  13:01:00       14.391       20.196      -27.075       65.158       36.764       30.260     4245.530     1351.623      915.691        0.393        0.326       24.799       39.447        2.530      334.422        4.385      864.401
01/06/2021  13:02:00       17.190       85.715      -10.374       61.073       50.380       34.928     3729.869     2538.142     1219.996        0.762        0.374       87.421       38.910        0.198      334.563        4.619      864.210
01/06/2021  13:03:00       56.899      127.475      -15.994       41.164       53.522       27.152     1694.500     2864.646      737.211        1.252        0.265      139.597       29.295        0.044      334.358        4.277      864.098
01/06/2021  13:04:00       54.825       24.535      -11.919       55.733       23.760       27.121     3106.119      564.554      735.544        0.408        0.220       60.065       34.889        0.337      334.425        4.389      864.124
01/06/2021  13:05:00       62.201       46.706      -12.569       54.065       38.683       25.716     2923.031     1496.352      661.326        0.564        0.254       77.784       27.661        0.126      334.653        4.768      864.152
01/06/2021  13:06:00       11.950      -53.334      -26.100       64.425       38.991       27.329     4150.635     1520.260      746.870        0.504        0.321       54.657       28.812        0.278      335.053        5.433      864.154
01/06/2021  13:07:00       26.803      -80.279      -14.692       51.632       27.901       36.828     2665.913      778.488     1356.327        0.609        0.240       84.635       31.475        0.138      334.641        4.748      864.128
01/06/2021  13:08:00       30.377      -23.874       -8.032       43.544       29.143       25.457     1896.048      849.300      648.074        0.247        0.170       38.636       24.753        0.410      334.896        5.170      864.070
01/06/2021  13:09:00       56.880       40.666       -7.598       53.106       43.396       28.181     2820.217     1883.211      794.160        0.522        0.275       69.922       17.920        0.066      334.901        5.180      863.991
01/06/2021  13:10:00      -21.109      -14.502        0.380       39.735       34.440       28.076     1578.833     1186.130      788.279        0.210        0.178       25.610       21.446        0.701      335.130        5.560      863.933
01/06/2021  13:11:00       36.714      -75.715      -20.482       60.077       26.577       22.598     3609.297      706.359      510.687        0.616        0.241       84.147       25.442        0.091      334.706        4.856      863.930
01/06/2021  13:12:00      110.564      -72.556      -27.316       47.277       29.341       29.134     2235.113      860.876      848.818        1.109        0.197      132.246       30.157        0.052      334.701        4.847      863.948
01/06/2021  13:13:00      110.842      -65.560      -29.874       57.081       60.240       29.855     3258.214     3628.822      891.310        1.263        0.389      128.779       35.996        0.078      334.756        4.937      863.981
01/06/2021  13:14:00      151.876     -240.568      -44.648       70.744       52.636       45.284     5004.747     2770.500     2050.652        4.638        0.491      284.498       45.657        0.026      334.718        4.871      864.074
01/06/2021  13:15:00      125.979     -222.858      -47.174       76.004       60.280       47.676     5776.602     3633.656     2273.040        3.972        0.584      256.001       44.113        0.030      334.696        4.835      864.166
01/06/2021  13:16:00       32.429     -126.847      -22.833       79.410       63.391       42.929     6305.942     4018.377     1842.865        1.491        0.608      130.927       34.351        0.069      334.954        5.267      864.189
01/06/2021  13:17:00       10.891      -60.401      -33.982       58.165       75.455       38.080     3383.198     5693.425     1450.074        0.772        0.526       61.375       30.309        0.244      335.090        5.494      864.088
01/06/2021  13:18:00       71.111      -80.427      -38.125       85.959       68.998       36.649     7388.922     4760.726     1343.147        1.323        0.675      107.356       28.391        0.070      334.667        4.790      863.944
01/06/2021  13:19:00      113.494       81.709      -25.704       72.111       52.560       32.637     5199.984     2762.548     1065.156        1.462        0.451      139.848       41.467        0.088      334.722        4.881      863.869
01/06/2021  13:20:00       15.687       49.623      -15.680       56.453       29.856       24.833     3186.923      891.403      616.696        0.382        0.235       52.044       27.797        0.285      334.735        4.903      863.913
01/06/2021  13:21:00      -51.932       16.232      -16.093       60.430       35.009       26.716     3651.738     1225.605      713.758        0.440        0.280       54.410       15.485        0.081      334.878        5.141      864.099
01/06/2021  13:22:00      -22.243       27.637       -7.050       43.286       39.143       30.474     1873.717     1532.151      928.664        0.282        0.217       35.477       17.770        0.251      335.026        5.387      864.087
01/06/2021  13:23:00       12.848       94.087       -8.513       43.502       45.214       28.758     1892.415     2044.299      827.015        0.693        0.238       94.960       23.500        0.061      335.132        5.564      863.887
01/06/2021  13:24:00      -29.098      195.926      -16.917       59.528       63.875       31.509     3543.607     4079.982      992.806        2.407        0.431      198.074       25.634        0.017      335.059        5.438      863.813
01/06/2021  13:25:00       19.956      119.146       -2.875       55.269       72.376       34.325     3054.679     5238.332     1178.226        1.203        0.474      120.806       27.200        0.051      335.020        5.377      863.801
01/06/2021  13:26:00        8.468      159.316      -12.082       63.854       48.746       32.455     4077.377     2376.205     1053.345        1.655        0.375      159.541       29.802        0.035      334.990        5.325      863.819
01/06/2021  13:27:00      -14.342       90.647      -16.677       36.274       52.294       21.449     1315.807     2734.704      460.059        0.660        0.226       91.775       20.634        0.051      335.011        5.363      863.912
01/06/2021  13:28:00        0.780      -25.189      -16.129       29.770       32.857       25.777      886.261     1079.596      664.479        0.176        0.132       25.202       15.694        0.388      335.076        5.472      864.022
01/06/2021  13:29:00       -4.352       -0.708       -8.257       40.709       23.359       23.914     1657.189      545.666      571.877        0.143        0.139        4.409       25.293       32.914      335.322        5.878      864.046
01/06/2021  13:30:00       -0.117       27.519       -5.881       39.278       12.043       22.562     1542.766      145.032      509.029        0.149        0.110       27.520       25.941        0.889      335.402        6.010      864.044
01/06/2021  13:31:00        3.535        7.950        1.398       34.105       22.357       21.139     1163.173      499.818      446.877        0.109        0.105        8.701       19.373        4.958      335.522        6.212      864.039
01/06/2021  13:32:00       34.329      -43.682       -6.482       48.610       43.748       32.834     2362.888     1913.858     1078.064        0.424        0.268       55.557       32.892        0.351      335.369        5.958      864.020
01/06/2021  13:33:00       23.476       66.871        3.737       44.437       27.132       25.233     1974.625      736.148      636.700        0.419        0.167       70.872       30.398        0.184      335.363        5.947      863.975
01/06/2021  13:34:00       32.836      116.329       -9.582       43.464       44.431       21.161     1889.140     1974.113      447.808        0.951        0.216      120.874       22.239        0.034      335.285        5.816      863.896
01/06/2021  13:35:00       -4.164      152.941       -5.022       48.997       48.591       25.905     2400.739     2361.079      671.090        1.443        0.272      152.998       23.497        0.024      335.360        5.941      863.816
01/06/2021  13:36:00      -44.281      149.629      -23.329       44.543       72.442       23.793     1984.039     5247.869      566.115        1.634        0.390      156.044       16.414        0.011      335.385        5.983      863.833
01/06/2021  13:37:00      -17.488       89.914      -10.871       43.922       46.282       29.993     1929.185     2142.063      899.605        0.674        0.249       91.599       22.775        0.062      335.416        6.034      863.863
01/06/2021  13:38:00        6.245       66.184       13.565       54.476       42.409       30.291     2967.628     1798.502      917.545        0.514        0.284       66.478       21.319        0.103      335.732        6.562      863.847
01/06/2021  13:39:00       79.055       13.088       -9.317       42.207       34.130       24.686     1781.446     1164.826      609.391        0.503        0.178       80.131       26.008        0.105      335.433        6.063      863.847
01/06/2021  13:40:00        5.794      -21.663        0.269       51.016       22.153       21.255     2602.643      490.775      451.780        0.202        0.177       22.425       23.303        1.080      335.773        6.631      863.842
01/06/2021  13:41:00      -34.372       -2.600       -5.206       49.486       31.941       30.781     2448.833     1020.231      947.472        0.281        0.221       34.470       24.910        0.522      335.740        6.575      863.879
01/06/2021  13:42:00      -29.458      -20.704       -7.127       54.387       40.405       32.702     2957.942     1632.581     1069.409        0.350        0.283       36.006       20.986        0.340      335.728        6.555      863.911
01/06/2021  13:43:00       12.238       -9.560        0.252       38.285       28.520       24.196     1465.779      813.375      585.470        0.155        0.143       15.529       17.148        1.219      336.001        7.011      863.917
01/06/2021  13:44:00       -9.116        6.050       10.358       26.731       11.525       16.071      714.530      132.830      258.270        0.067        0.055       10.941        8.613        0.620      336.100        7.177      863.881
01/06/2021  13:45:00       51.705      -83.491      -19.320       67.837       77.218       35.377     4601.900     5962.613     1251.546        1.091        0.591       98.205       40.511        0.170      335.896        6.834      863.844
01/06/2021  13:46:00       32.401      -60.726      -25.796       44.437       58.739       26.850     1974.608     3450.259      720.944        0.577        0.307       68.830       19.436        0.080      335.986        6.984      863.839
01/06/2021  13:47:00       29.708      -91.878      -24.709       60.527       59.741       38.613     3663.569     3569.031     1490.989        0.933        0.436       96.561       42.385        0.193      335.893        6.828      863.900
01/06/2021  13:48:00       95.379     -112.206      -39.634       65.107       66.931       35.366     4238.893     4479.709     1250.788        1.661        0.498      147.266       43.276        0.086      335.861        6.775      863.900
01/06/2021  13:49:00      109.842     -107.394      -39.917       49.510       68.704       31.480     2451.204     4720.247      990.997        1.668        0.408      153.619       37.229        0.059      335.600        6.341      863.851
01/06/2021  13:50:00       54.470      -90.140      -15.380       50.459       54.666       27.262     2546.102     2988.381      743.212        0.880        0.314      105.320       36.470        0.120      335.624        6.380      863.849
01/06/2021  13:51:00       -3.409        6.869       -9.767       23.981       14.732       14.316      575.069      217.046      204.954        0.058        0.050        7.669        8.647        1.272      336.226        7.386      863.838
01/06/2021  13:52:00       75.920      -62.127      -37.127       40.954       50.735       31.049     1677.252     2574.073      964.050        0.811        0.261       98.100       27.953        0.081      335.889        6.823      863.790
01/06/2021  13:53:00       15.762      -34.635      -20.732       48.716       57.533       27.882     2373.287     3310.050      777.392        0.417        0.323       38.053       17.056        0.201      336.114        7.199      863.756
01/06/2021  13:54:00        6.565       47.646       10.898       43.596       35.044       25.468     1900.628     1228.085      648.638        0.310        0.189       48.096       26.967        0.314      336.191        7.327      863.775
01/06/2021  13:55:00       10.370       48.850      -19.446       27.781       29.709       18.006      771.806      882.610      324.220        0.242        0.099       49.939       18.684        0.140      335.889        6.823      863.770
01/06/2021  13:56:00       79.891       41.668      -22.204       34.001       39.379       20.392     1156.056     1550.736      415.830        0.587        0.156       90.105       10.905        0.015      335.776        6.636      863.738
01/06/2021  13:57:00       22.979        1.340      -23.266       61.437       60.968       35.743     3774.445     3717.068     1277.540        0.492        0.438       23.018       32.582        2.004      336.181        7.310      863.715
01/06/2021  13:58:00      -51.241      -32.943       -6.464       33.577       46.581       17.115     1127.384     2169.793      292.925        0.367        0.180       60.917       16.199        0.071      336.155        7.267      863.800
01/06/2021  13:59:00       11.942      -69.912      -25.259       31.036       36.745       21.604      963.255     1350.191      466.722        0.422        0.139       70.925       19.896        0.079      336.093        7.163      863.888
01/06/2021  14:00:00       48.708       -7.033      -10.518       40.842       53.710       28.730     1668.104     2884.760      825.417        0.395        0.269       49.214       24.041        0.239      336.093        7.163      863.888
01/06/2021  14:01:00      115.291       47.929      -12.766       53.316       35.542       19.497     2842.544     1263.269      380.125        1.012        0.224      124.857       10.566        0.007      335.918        6.874      863.852
01/06/2021  14:02:00       21.221       62.002       -5.567       30.038       31.475       22.767      902.293      990.684      518.331        0.337        0.121       65.533       14.367        0.048      336.048        7.088      863.905
01/06/2021  14:03:00       76.953       43.509      -12.318       34.731       30.188       24.806     1206.213      911.321      615.320        0.535        0.137       88.401       21.955        0.062      336.028        7.055      863.943
01/06/2021  14:04:00       60.502      -12.114      -12.903       30.589       65.055       21.508      935.682     4232.115      462.589        0.480        0.282       61.703       23.572        0.146      336.173        7.297      863.967
01/06/2021  14:05:00       65.066      -75.915      -18.814       56.731       60.342       36.892     3218.355     3641.100     1361.047        0.928        0.411       99.983       34.590        0.120      336.334        7.566      864.001
01/06/2021  14:06:00      112.409     -111.395      -29.043       63.872       70.712       34.580     4079.625     5000.153     1195.773        1.808        0.514      158.255       32.661        0.043      336.218        7.371      864.020
01/06/2021  14:07:00       59.548      -87.776      -17.541       59.684       79.149       43.998     3562.161     6264.548     1935.782        1.166        0.588      106.069       29.056        0.075      336.468        7.792      863.978
01/06/2021  14:08:00       44.211      -21.005       -4.629       61.075       71.173       42.932     3730.170     5065.611     1843.191        0.653        0.532       48.947       31.685        0.419      336.330        7.560      863.960
01/06/2021  14:09:00       69.746      -39.398      -19.245       59.834       80.052       34.141     3580.092     6408.355     1165.633        0.897        0.558       80.104       30.439        0.144      336.210        7.358      863.970
01/06/2021  14:10:00       88.194      -60.640      -25.513       44.933       61.252       32.625     2018.943     3751.758     1064.416        0.947        0.342      107.029       24.436        0.052      336.229        7.390      863.986
01/06/2021  14:11:00       86.932      -29.150       -4.510       91.729       86.871       68.428     8414.173     7546.504     4682.451        1.453        1.032       91.689       63.655        0.482      336.260        7.441      863.922
01/06/2021  14:12:00       89.855      -17.894      -11.130       78.058       76.107       59.792     6093.024     5792.217     3575.048        1.199        0.773       91.619       50.255        0.301      336.224        7.382      863.901
01/06/2021  14:13:00      107.780       46.030       -1.493       58.263       59.526       32.853     3394.602     3543.353     1079.311        1.088        0.401      117.198       29.535        0.064      336.161        7.277      863.867
01/06/2021  14:14:00       90.821     -114.086      -34.235       51.611       46.624       29.475     2663.724     2173.806      868.787        1.407        0.285      145.822       29.214        0.040      336.286        7.484      863.790
01/06/2021  14:15:00      164.182      -45.428      -33.525       60.450       91.846       30.087     3654.251     8435.749      905.228        2.157        0.650      170.351       21.895        0.017      336.258        7.438      863.714
01/06/2021  14:16:00      101.916      -68.813      -21.050       81.603       71.578       41.095     6659.124     5123.371     1688.773        1.452        0.674      122.972       41.603        0.114      336.551        7.929      863.719
01/06/2021  14:17:00      121.474      -98.474      -35.307       67.165      122.999       51.779     4511.072    15128.805     2681.078        2.401        1.116      156.375       41.628        0.071      336.621        8.044      863.673
01/06/2021  14:18:00       40.827      -17.002      -22.063       55.874       59.457       40.067     3121.948     3535.107     1605.328        0.535        0.413       44.226       33.329        0.568      336.605        8.020      863.689
01/06/2021  14:19:00      -21.844      -86.972      -29.657       46.495       70.508       25.347     2161.822     4971.408      642.464        0.835        0.389       89.673       16.893        0.035      336.781        8.314      863.758
01/06/2021  14:20:00        0.150       77.322      -23.161       63.196       50.368       26.599     3993.745     2536.890      707.520        0.688        0.362       77.322       19.975        0.067      336.670        8.129      863.815
01/06/2021  14:21:00       26.066       26.666       -0.733       23.896       13.220       13.963      571.037      174.769      194.976        0.117        0.047       37.290        7.542        0.041      336.767        8.291      863.828
01/06/2021  14:22:00      -11.307       10.101       -0.741       39.545       35.630       17.694     1563.777     1269.474      313.075        0.169        0.157       15.162       18.607        1.506      337.065        8.789      863.843
01/06/2021  14:23:00      -12.367       -2.830       -4.275       34.469       30.488       18.533     1188.115      929.503      343.481        0.132        0.123       12.687       11.931        0.884      337.392        9.334      863.882
01/06/2021  14:24:00      -37.997       19.747       -3.151       59.562       56.728       28.719     3547.592     3218.104      824.760        0.472        0.380       42.822       16.077        0.141      337.181        8.982      863.901
01/06/2021  14:25:00     -214.123      -60.621      -44.054      187.794      132.351       67.743    35266.456    17516.765     4589.122        5.441        2.869      222.539       81.912        0.135      337.431        9.400      863.832
01/06/2021  14:26:00     -430.693      -48.008      -38.601      233.613      179.721      101.435    54574.879    32299.736    10289.082       14.321        4.858      433.360      107.815        0.062      338.322       10.892      863.786
01/06/2021  14:27:00     -325.248       40.456      -15.717      242.032      181.324       99.074    58579.273    32878.270     9815.577       10.445        5.064      327.754      108.745        0.110      338.753       11.615      863.780
01/06/2021  14:28:00     -493.369     -109.850      -24.256      218.959      170.251      107.361    47943.262    28985.554    11526.307       17.224        4.423      505.450      113.734        0.051      338.863       11.801      863.781
01/06/2021  14:29:00     -423.350      -94.919       -7.170      277.960      209.119       95.501    77262.006    43730.662     9120.458       15.917        6.506      433.860       96.174        0.049      338.864       11.801      863.762
01/06/2021  14:30:00     -465.399     -122.001      -29.713      296.048      152.578      110.054    87644.598    23280.058    12111.855       17.767        6.152      481.124      132.886        0.076      338.882       11.833      863.730
01/06/2021  14:31:00     -462.278       21.309      -20.263      221.371      229.347      108.635    49005.017    52600.157    11801.532       16.396        5.670      462.769       75.878        0.027      338.895       11.854      863.730
01/06/2021  14:32:00     -306.875       -6.832       11.498      168.937      178.115       99.902    28539.639    31724.814     9980.413        8.228        3.512      306.951       78.909        0.066      338.980       11.997      863.741
01/06/2021  14:33:00     -264.774        0.948       -9.728      190.794      166.898       83.458    36402.476    27854.794     6965.168        7.070        3.561      264.776       75.159        0.081      339.013       12.055      863.750
01/06/2021  14:34:00     -446.549     -119.879      -29.951      195.689      194.342       99.765    38294.087    37768.756     9953.010       15.033        4.301      462.361       96.825        0.044      338.935       11.923      863.779
01/06/2021  14:35:00     -573.485      -84.516      -35.268      213.382      116.226       90.033    45532.061    13508.435     8105.881       20.220        3.357      579.679       66.668        0.013      338.839       11.761      863.770
01/06/2021  14:36:00     -387.968     -114.414      -37.168      202.842      112.564       80.643    41144.931    12670.661     6503.244       11.264        3.016      404.487       95.471        0.056      338.880       11.829      863.756
01/06/2021  14:37:00     -402.835      -98.201      -28.680      214.628      147.551      108.717    46065.214    21771.334    11819.302       12.618        3.983      414.632       93.409        0.051      338.921       11.899      863.753
01/06/2021  14:38:00     -377.226       29.374      -16.747      181.686      182.537      105.171    33009.935    33319.734    11061.006       11.040        3.870      378.368       93.688        0.061      338.974       11.986      863.765
01/06/2021  14:39:00     -576.021      -92.513      -18.289      276.908      185.862      112.751    76678.079    34544.500    12712.870       23.229        6.197      583.403      111.456        0.036      338.880       11.829      863.764
01/06/2021  14:40:00     -340.667      -33.025      -10.726      222.646      124.052       97.713    49571.414    15389.007     9547.806        9.587        3.725      342.264      115.894        0.115      338.933       11.919      863.809
01/06/2021  14:41:00     -333.824      -15.170        3.481      218.278      161.181      104.055    47645.466    25979.456    10827.404        9.805        4.223      334.169       95.073        0.081      338.883       11.834      863.801
01/06/2021  14:42:00     -262.089      -24.597      -13.857      169.852      170.992       82.452    28849.692    29238.154     6798.263        6.717        3.244      263.241       87.350        0.110      338.974       11.986      863.768
01/06/2021  14:43:00     -567.396      -13.730      -20.129      383.061      184.635      126.785   146735.479    34090.065    16074.521       25.967        9.845      567.562      124.348        0.048      338.890       11.845      863.802
01/06/2021  14:44:00     -598.541       -6.061      -25.436      269.332      169.905      111.990    72539.750    28867.740    12541.708       23.642        5.697      598.572      112.458        0.035      338.868       11.810      863.892
01/06/2021  14:45:00     -405.065      -67.459      -21.033      231.018      151.491       92.922    53369.163    22949.382     8634.435       12.699        4.248      410.644      105.586        0.066      338.903       11.868      863.972
01/06/2021  14:46:00     -352.834      -60.073      -10.105      320.217      164.099      107.663   102539.022    26928.620    11591.327       13.460        7.053      357.912      127.628        0.127      338.897       11.857      863.966
01/06/2021  14:47:00     -407.368       15.996      -27.710      235.448      229.111      105.398    55435.611    52491.689    11108.655       14.298        5.952      407.682       96.392        0.056      338.851       11.781      863.986
01/06/2021  14:48:00     -445.719      -89.207      -23.199      245.213      184.818      118.037    60129.424    34157.709    13932.770       15.767        5.411      454.558      128.045        0.079      338.821       11.730      864.017
01/06/2021  14:49:00     -546.696        2.636      -33.959      416.615      284.565      141.793   173568.084    80977.050    20105.118       28.728       13.733      546.703      130.417        0.057      338.741       11.596      864.024
01/06/2021  14:50:00     -422.109       25.883       -7.397      272.731      198.868      123.125    74382.001    39548.515    15159.774       15.397        6.455      422.902      130.635        0.095      338.780       11.660      864.084
01/06/2021  14:51:00     -390.372      -51.528        0.254      357.331      165.754      134.064   127685.302    27474.282    17973.189       16.405        8.657      393.758      154.720        0.154      338.661       11.460      864.075
01/06/2021  14:52:00     -101.339       44.014        6.684      207.073      138.530       97.435    42879.276    19190.561     9493.619        4.189        3.578      110.485      104.228        0.890      338.739       11.592      864.074
01/06/2021  14:53:00     -354.915      -69.010      -28.339      263.515      168.107      135.614    69440.161    28259.852    18391.035       12.379        5.805      361.562      139.150        0.148      338.705       11.536      864.057
01/06/2021  14:54:00     -444.630       46.063       -2.845      322.110      233.432      133.319   103754.600    54490.603    17774.004       18.789        8.801      447.010      139.901        0.098      338.680       11.494      864.067
01/06/2021  14:55:00     -611.434      -31.569       -2.707      402.135      213.319      155.493   161712.660    45505.045    24178.196       30.308       11.570      612.248      177.683        0.084      338.582       11.329      864.085
01/06/2021  14:56:00     -250.683       -9.671       24.743      246.291      193.190      118.566    60659.168    37322.567    14057.887        8.777        5.602      250.869      102.863        0.168      338.717       11.555      864.100
01/06/2021  14:57:00     -488.169      -56.450       -9.943      261.103      156.255      119.749    68174.849    24415.564    14339.815       17.424        5.347      491.422      114.230        0.054      338.692       11.513      864.170
01/06/2021  14:58:00     -561.019     -141.417      -15.903      294.645      196.980      141.908    86815.435    38800.949    20138.002       24.034        7.288      578.568      148.519        0.066      338.627       11.405      864.150
01/06/2021  14:59:00     -473.535      -25.855      -16.646      334.544      205.257      136.632   111919.738    42130.559    18668.362       19.891        8.636      474.241      137.978        0.085      338.643       11.432      864.195
01/06/2021  15:00:00     -243.887       -7.640        6.421      279.874      215.609      136.054    78329.341    46487.307    18510.789       10.142        7.166      244.007      129.523        0.282      338.642       11.430      864.169
01/06/2021  15:01:00     -333.341     -106.252      -11.974      375.001      229.726      160.168   140625.518    52774.150    25653.923       17.075       10.953      349.866      173.064        0.245      338.522       11.228      864.114
01/06/2021  15:02:00     -441.318      -37.323      -10.485      306.241      219.500      151.089    93783.544    48180.377    22827.969       18.049        8.240      442.893      157.641        0.127      338.542       11.259      864.201
01/06/2021  15:03:00     -523.475      -84.042      -17.693      301.708      206.245      133.456    91027.522    42537.191    17810.416       21.636        7.569      530.179      137.735        0.067      338.545       11.266      864.307
01/06/2021  15:04:00     -546.033      -58.351      -21.009      332.233      228.869      145.903   110378.999    52380.806    21287.562       24.298        9.202      549.142      148.156        0.073      338.513       11.213      864.268
01/06/2021  15:05:00     -661.499       22.345      -20.541      381.750      272.289      160.778   145733.173    74141.464    25849.606       34.206       12.286      661.876      185.840        0.079      338.444       11.096      864.304
01/06/2021  15:06:00     -590.841     -121.290      -26.527      347.356      265.065      164.295   120655.881    70259.362    26992.982       29.116       10.895      603.162      177.388        0.086      338.360       10.955      864.369
01/06/2021  15:07:00     -522.760      -13.142       -8.001      306.948      202.395      145.661    94216.768    40963.535    21217.128       21.492        7.820      522.925      146.423        0.078      338.391       11.007      864.353
01/06/2021  15:08:00     -706.872       40.038      -13.421      407.385      264.387      142.194   165962.719    69900.404    20219.273       37.871       12.804      708.005      169.251        0.057      338.343       10.926      864.349
01/06/2021  15:09:00     -399.812       33.072        0.313      381.716      206.186      124.168   145706.777    42512.656    15417.602       18.225       10.182      401.177      122.013        0.092      338.425       11.066      864.363
01/06/2021  15:10:00     -475.109      -35.809      -11.113      325.147      223.417      132.832   105720.728    49915.213    17644.305       20.017        8.664      476.457      140.182        0.087      338.387       11.001      864.334
01/06/2021  15:11:00     -479.425      -39.877        1.627      289.637      204.311      129.463    83889.733    41742.850    16760.557       18.689        7.120      481.081      137.179        0.081      338.383       10.993      864.377
01/06/2021  15:12:00     -372.461      -57.862        4.702      354.136      190.400      144.452   125412.261    36252.193    20866.354       16.228        9.127      376.928      158.935        0.178      338.412       11.043      864.393
01/06/2021  15:13:00     -382.639      -31.238      -29.270      271.407      200.820      127.111    73661.980    40328.692    16157.199       13.917        6.507      383.912      125.153        0.106      338.390       11.005      864.402
01/06/2021  15:14:00     -602.818       47.134      -21.809      385.720      233.788      138.201   148780.293    54656.613    19099.494       29.426       11.127      604.657      158.956        0.069      338.323       10.894      864.391
01/06/2021  15:15:00     -462.554      -60.565      -36.840      354.734      189.397      132.440   125836.405    35871.397    17540.451       19.908        8.962      466.502      160.732        0.119      338.291       10.840      864.334
01/06/2021  15:16:00     -412.575        9.113      -17.691      386.831      220.016      127.941   149638.408    48407.026    16368.907       19.247       10.721      412.675      104.772        0.064      338.304       10.861      864.308
01/06/2021  15:17:00     -418.406      -90.911      -46.113      414.188      303.308      170.390   171551.835    91995.552    29032.698       23.896       14.629      428.169      177.840        0.173      338.278       10.817      864.267
01/06/2021  15:18:00     -516.004      -41.347      -12.306      340.677      227.939      139.952   116060.559    51955.979    19586.537       22.782        9.380      517.658      162.010        0.098      338.294       10.845      864.217
01/06/2021  15:19:00     -419.052      -45.233      -13.016      258.617      186.013      118.980    66882.567    34600.805    14156.136       14.671        5.782      421.486      120.060        0.081      338.322       10.892      864.193
01/06/2021  15:20:00     -377.109      -76.308       -9.371      247.492      164.900      117.091    61252.140    27192.107    13710.289       12.512        5.108      384.752      112.206        0.085      338.317       10.885      864.215
01/06/2021  15:21:00     -537.485      -20.863      -14.246      251.295      203.401      106.215    63149.267    41371.886    11281.656       20.264        5.790      537.890       88.632        0.027      338.255       10.778      864.227
01/06/2021  15:22:00     -459.360       28.437       -5.213      320.930      200.016      124.852   102996.006    40006.403    15587.897       18.519        7.930      460.240      141.032        0.094      338.228       10.733      864.225
01/06/2021  15:23:00     -406.740      -84.239      -30.050      207.179      164.759       86.612    42923.294    27145.622     7501.693       12.549        3.879      415.371       78.047        0.035      338.219       10.719      864.199
01/06/2021  15:24:00     -397.163      -49.852       -0.763      298.477      153.111      123.690    89088.582    23443.081    15299.147       14.400        6.392      400.279      144.024        0.129      338.208       10.699      864.094
01/06/2021  15:25:00     -498.192      105.125       10.493      342.612      217.150      129.518   117383.239    47154.104    16774.966       22.030        9.066      509.162      154.024        0.092      338.243       10.758      864.047
01/06/2021  15:26:00     -423.404       -5.962      -14.006      356.497      246.105      120.566   127089.931    60567.585    14536.180       19.080       10.110      423.446      144.639        0.117      338.206       10.697      864.050
01/06/2021  15:27:00     -271.561      -47.996      -32.088      351.788      186.930      122.671   123754.545    34942.895    15048.171       12.538        8.687      275.770      143.091        0.269      338.143       10.591      864.133
01/06/2021  15:28:00     -383.957      -80.638      -11.043      268.927      150.943      121.687    72321.608    22783.911    14807.684       13.196        5.496      392.333      129.570        0.109      338.073       10.474      864.110
01/06/2021  15:29:00     -318.701      -18.714        5.189      195.961      140.714       82.173    38400.528    19800.387     6752.399        8.344        3.248      319.249       78.897        0.061      338.085       10.492      864.080
01/06/2021  15:30:00     -403.825       38.746       -0.735      266.796      177.005      102.509    71180.080    31330.632    10508.113       13.877        5.651      405.680      114.629        0.080      338.043       10.424      864.071
01/06/2021  15:31:00     -240.745      -64.431       -0.905      239.403      154.061       85.383    57313.874    23734.773     7290.333        7.521        4.417      249.218       89.481        0.129      338.034       10.410      864.040
01/06/2021  15:32:00     -292.410      -67.481        1.608      276.289      160.913      105.068    76335.404    25892.855    11039.322       10.164        5.663      300.096      123.289        0.169      337.979       10.316      864.061
01/06/2021  15:33:00     -329.344       -3.583        1.898      251.501      125.035       93.002    63252.739    15633.693     8649.327        9.799        4.377      329.363       99.432        0.091      337.959       10.283      864.105
01/06/2021  15:34:00     -336.704      -24.102      -11.117      261.593      131.884       94.962    68430.824    17393.519     9017.832       10.444        4.742      337.565      121.006        0.128      337.929       10.233      864.081
01/06/2021  15:35:00     -483.482       33.967      -14.127      288.891      186.893      107.455    83457.758    34928.941    11546.564       18.249        6.497      484.673      121.148        0.062      337.847       10.094      864.075
01/06/2021  15:36:00     -247.748      -44.012      -12.823      216.749      133.973       87.254    46980.203    17948.710     7613.291        6.800        3.627      251.627       92.256        0.134      337.896       10.177      864.139
01/06/2021  15:37:00     -228.848      -40.724       -5.223      188.430      122.286       83.302    35505.943    14953.872     6939.152        5.572        2.870      232.444       84.376        0.132      337.847       10.094      864.170
01/06/2021  15:38:00     -417.734      -14.421       -5.747      161.382      101.836       68.572    26044.263    10370.571     4702.181       10.792        2.056      417.983       53.398        0.016      337.815       10.040      864.140
01/06/2021  15:39:00     -298.819       28.991      -16.687      219.674      139.475       91.709    48256.754    19453.342     8410.492        8.325        3.806      300.222       94.983        0.100      337.823       10.054      864.121
01/06/2021  15:40:00     -386.711       70.051       -1.256      265.456      148.443      104.129    70466.663    22035.431    10842.877       12.888        5.167      393.005       70.674        0.032      337.870       10.133      864.052
01/06/2021  15:41:00     -409.181       81.400       -9.414      197.269      152.918       82.029    38914.962    23383.989     6728.679       12.157        3.451      417.199       85.390        0.042      337.868       10.130      864.047
01/06/2021  15:42:00     -444.601       -7.296      -20.837      177.730      152.646       93.741    31587.851    23300.800     8787.308       13.090        3.184      444.661       87.152        0.038      337.815       10.040      864.070
01/06/2021  15:43:00     -379.924      -49.577      -10.848      215.433      125.723       92.964    46411.402    15806.348     8642.319       10.887        3.543      383.145       93.798        0.060      337.816       10.042      864.075
01/06/2021  15:44:00     -220.023       54.626       -5.882      304.541      199.806      105.316    92745.460    39922.282    11091.476        9.756        7.188      226.703      109.957        0.235      337.874       10.140      864.052
01/06/2021  15:45:00     -257.498       74.886       13.956      233.172      160.211       97.652    54369.187    25667.453     9535.961        8.082        4.479      268.167      113.992        0.181      337.974       10.308      864.072
01/06/2021  15:46:00     -339.030       39.151      -24.575      205.540      134.136       80.047    42246.643    17992.338     6407.550        9.185        3.332      341.283       73.645        0.047      337.950       10.268      864.107
01/06/2021  15:47:00     -194.506       25.077       10.948      187.959      143.278       86.024    35328.538    20528.541     7400.104        5.091        3.163      196.116       81.152        0.171      338.006       10.362      864.170
01/06/2021  15:48:00     -438.048       50.335       -9.267      276.865      180.625      108.500    76654.237    32625.438    11772.210       15.775        6.053      440.931      125.111        0.081      337.895       10.175      864.169
01/06/2021  15:49:00     -384.961       61.410       -1.369      164.961      134.758       80.984    27212.264    18159.609     6558.463       10.194        2.597      389.829       79.405        0.041      337.947       10.261      864.193
01/06/2021  15:50:00     -415.019       63.152      -31.415      172.470      129.416       75.887    29746.060    16748.449     5758.895       11.472        2.613      419.796       66.649        0.025      337.984       10.325      864.191
01/06/2021  15:51:00     -306.223        9.862        9.966      213.129      148.196       94.721    45423.964    21962.049     8972.027        8.515        3.818      306.381       94.494        0.095      338.012       10.373      864.211
01/06/2021  15:52:00     -351.207       -8.795      -25.043      184.168      145.866       80.364    33917.720    21276.788     6458.343        9.284        3.083      351.317       81.610        0.054      338.049       10.434      864.223
01/06/2021  15:53:00     -251.686      -29.876      -13.168      250.108      130.542       73.925    62553.949    17041.120     5464.937        7.472        4.253      253.453       77.265        0.093      337.959       10.284      864.198
01/06/2021  15:54:00     -263.340       48.926       -4.457      227.079      133.475       92.486    51565.049    17815.649     8553.617        7.483        3.897      267.847      109.653        0.168      338.065       10.461      864.209
01/06/2021  15:55:00     -316.724      107.345        4.359      215.264      118.161       79.885    46338.594    13961.934     6381.542        8.925        3.334      334.420       92.416        0.076      337.976       10.311      864.233
01/06/2021  15:56:00     -318.770       61.071      -12.594      151.542      102.588       71.560    22964.856    10524.215     5120.809        7.205        1.930      324.567       65.720        0.041      338.017       10.381      864.254
01/06/2021  15:57:00     -560.884       84.027       -3.462      240.558      138.319       92.249    57868.117    19132.053     8509.846       20.357        4.276      567.143      107.992        0.036      337.891       10.169      864.320
01/06/2021  15:58:00     -382.297       48.590        5.536      233.419      197.245       95.415    54484.484    38905.723     9104.022       12.550        5.125      385.372       99.042        0.066      337.891       10.168      864.367
01/06/2021  15:59:00     -150.212       18.664       -5.178      224.094       88.048       64.235    50218.182     7752.464     4126.125        4.250        3.105      151.367       40.599        0.072      337.920       10.216      864.401
01/06/2021  16:00:00     -317.511       57.559       -4.494      212.175      173.840       88.003    45018.086    30220.318     7744.518        9.355        4.149      322.686       85.005        0.069      337.866       10.124      864.406
01/06/2021  16:01:00     -177.296        9.709       -0.224      185.978      130.006       89.898    34587.959    16901.495     8081.712        4.554        2.979      177.562       94.437        0.283      337.870       10.134      864.405
01/06/2021  16:02:00     -408.612       95.020      -10.059      274.953      222.988       93.154    75598.934    49723.506     8677.612       15.502        6.700      419.515      100.434        0.057      337.833       10.070      864.417
01/06/2021  16:03:00     -414.721       67.267       -6.253      302.605      181.364      119.659    91569.867    32893.015    14318.275       15.764        6.939      420.141      122.156        0.085      337.711        9.866      864.412
01/06/2021  16:04:00     -387.354       38.546      -24.051      264.018      248.623      118.216    69705.388    61813.579    13975.041       14.877        7.275      389.267      132.250        0.115      337.694        9.838      864.432
01/06/2021  16:05:00     -268.238      117.456        4.232      238.755      161.830      111.054    57003.845    26188.902    12332.996        9.062        4.776      292.827      126.054        0.185      337.695        9.840      864.474
01/06/2021  16:06:00     -387.616       30.773       -9.482      262.662      144.328       79.851    68991.391    20830.694     6376.238       12.372        4.810      388.836       92.497        0.057      337.672        9.801      864.517
01/06/2021  16:07:00     -321.132      -73.089      -14.271      290.022      160.253      102.812    84112.962    25681.099    10570.330       11.449        6.018      329.344       72.954        0.049      337.582        9.649      864.495
01/06/2021  16:08:00     -621.630       10.231      -45.187      294.773      171.736       90.877    86890.981    29493.274     8258.566       25.658        6.232      621.714       99.262        0.025      337.533        9.566      864.494
01/06/2021  16:09:00     -309.750       86.118      -11.722      245.089      163.252       95.128    60068.630    26651.256     9049.372        9.961        4.788      321.499       84.800        0.070      337.539        9.578      864.525
01/06/2021  16:10:00     -283.231       57.197       -7.022      200.796      168.876       74.163    40318.963    28519.036     5500.130        7.892        3.717      288.948       64.959        0.051      337.540        9.580      864.583
01/06/2021  16:11:00     -314.453       22.412      -23.134      217.425      130.693       90.090    47273.709    17080.585     8116.191        8.618        3.624      315.251       88.311        0.078      337.532        9.565      864.614
01/06/2021  16:12:00     -327.693       41.700       -7.310      187.654      150.714       90.014    35214.193    22714.696     8102.531        8.759        3.302      330.335       90.373        0.075      337.494        9.503      864.662
01/06/2021  16:13:00     -189.361       33.868        5.807      211.803      126.989       75.617    44860.534    16126.222     5717.960        5.186        3.335      192.366       81.192        0.178      337.495        9.503      864.690
01/06/2021  16:14:00     -461.463       31.697      -20.853      224.401      145.158       85.101    50355.984    21070.975     7242.238       14.651        3.933      462.551       80.763        0.030      337.458        9.442      864.721
01/06/2021  16:15:00     -274.546       17.479       -7.514      190.084      110.071       84.683    36131.837    12115.539     7171.152        6.557        2.771      275.101       87.782        0.102      337.447        9.424      864.753
01/06/2021  16:16:00     -103.686       69.567       30.181      156.108       91.876       72.103    24369.756     8441.231     5198.906        2.725        1.900      124.861       71.710        0.330      337.474        9.471      864.787
01/06/2021  16:17:00     -228.537       35.491       -0.964      238.804      110.868       69.910    57027.197    12291.641     4887.436        6.383        3.710      231.276       82.844        0.128      337.425        9.386      864.791
01/06/2021  16:18:00     -300.085        2.697      -14.605      251.327      156.728      102.390    63165.067    24563.598    10483.799        9.422        4.911      300.097      117.015        0.152      337.410        9.363      864.779
01/06/2021  16:19:00     -228.405      -41.803      -14.020      177.249      140.246       83.666    31417.330    19668.856     6999.920        5.609        2.904      232.199       84.727        0.133      337.396        9.339      864.734
01/06/2021  16:20:00     -227.971        1.805        8.867      132.685      114.647       72.706    17605.221    13143.851     5286.193        4.404        1.802      227.978       66.051        0.084      337.409        9.359      864.720
01/06/2021  16:21:00      -95.335      -23.804       -2.457      153.348       99.566       75.233    23515.625     9913.333     5659.980        2.437        1.954       98.261       67.590        0.473      337.382        9.318      864.730
01/06/2021  16:22:00     -260.784      -12.343      -26.843      180.523      100.556       72.521    32588.679    10111.439     5259.283        5.841        2.398      261.076       79.962        0.094      337.355        9.270      864.743
01/06/2021  16:23:00     -157.942      -17.253      -17.599      169.294      114.865       69.232    28660.578    13194.030     4793.123        3.609        2.332      158.881       70.453        0.197      337.365        9.289      864.746
01/06/2021  16:24:00      -64.822      -18.607        9.085      156.673       88.100       72.842    24546.555     7761.679     5305.903        2.111        1.881       67.440       68.821        1.041      337.329        9.228      864.726
01/06/2021  16:25:00     -203.497       22.147      -25.767      203.858      169.012       78.962    41557.886    28565.128     6234.984        5.945        3.818      204.699       61.205        0.089      337.333        9.233      864.738
01/06/2021  16:26:00     -287.318      -32.399      -32.962      206.451      153.226       78.950    42621.987    23478.299     6233.050        7.850        3.617      289.139       54.550        0.036      337.360        9.279      864.722
01/06/2021  16:27:00     -173.801        3.911        7.003      177.273      135.832       87.482    31425.660    18450.219     7653.104        4.389        2.876      173.845       81.731        0.221      337.287        9.157      864.702
01/06/2021  16:28:00     -273.367       23.356       -5.763      198.134      111.684       78.742    39257.103    12473.250     6200.354        6.661        2.897      274.363       89.425        0.106      337.276        9.139      864.691
01/06/2021  16:29:00     -130.836        2.933       -3.053      176.255       99.960       59.556    31065.701     9992.051     3546.897        3.086        2.230      130.869       53.170        0.165      337.248        9.092      864.704
01/06/2021  16:30:00     -242.514      -31.271       -4.460      193.043      118.041       74.580    37265.614    13933.692     5562.240        5.827        2.838      244.522       88.628        0.131      337.219        9.045      864.713
01/06/2021  16:31:00     -163.837       45.398       -2.924      191.951      149.661       79.219    36845.159    22398.284     6275.728        4.720        3.276      170.011       78.912        0.215      337.233        9.068      864.714
01/06/2021  16:32:00     -254.877       18.900      -26.152      208.906      110.929       68.758    43641.647    12305.172     4727.630        6.333        3.034      255.576       82.776        0.105      337.220        9.044      864.712
01/06/2021  16:33:00     -295.027      -26.210      -16.046      201.217      103.176       77.061    40488.373    10645.339     5938.360        7.252        2.854      296.189       89.042        0.090      337.193        9.001      864.712
01/06/2021  16:34:00     -381.936     -111.612      -19.344      209.117      149.131       98.605    43729.786    22240.142     9723.041       11.718        3.785      397.910      100.379        0.064      337.199        9.009      864.676
01/06/2021  16:35:00     -273.256      -67.720      -16.445      179.572      108.254       79.167    32246.258    11719.035     6267.387        6.487        2.512      281.523       82.514        0.086      337.144        8.918      864.679
01/06/2021  16:36:00     -298.003      -25.561       -1.410      170.460      121.005       86.887    29056.705    14642.217     7549.386        7.034        2.562      299.097       84.260        0.079      337.115        8.868      864.670
01/06/2021  16:37:00     -431.270      -84.764      -29.478      143.230      130.973       74.284    20514.797    17153.888     5518.127       11.861        2.159      439.521       63.094        0.021      337.137        8.904      864.670
01/06/2021  16:38:00     -302.181      -20.834       -2.695      215.558      156.016       89.116    46465.103    24341.131     7941.637        8.523        3.937      302.898       99.967        0.109      337.110        8.859      864.683
01/06/2021  16:39:00     -352.796      -55.148      -19.244      153.485      112.588       78.040    23557.589    12676.134     6090.210        8.509        2.116      357.081       80.628        0.051      337.086        8.818      864.683
01/06/2021  16:40:00     -504.175      -58.314      -31.890      263.173      175.543      111.721    69260.009    30815.226    12481.622       18.556        5.628      507.536      124.181        0.060      337.107        8.854      864.648
01/06/2021  16:41:00     -220.255      -36.680      -16.592      228.781      135.154       87.692    52340.641    18266.476     7689.912        6.420        3.915      223.288       88.602        0.157      337.093        8.833      864.631
01/06/2021  16:42:00     -306.882      -81.249      -29.678      180.937      117.972       74.355    32738.350    13917.436     5528.619        7.691        2.609      317.455       72.246        0.052      337.053        8.763      864.612
01/06/2021  16:43:00     -219.580       -3.745       -0.120      225.809      126.530       84.695    50989.797    16009.748     7173.228        6.119        3.709      219.612       82.029        0.140      337.013        8.698      864.638
01/06/2021  16:44:00     -376.413       20.475       -6.553      207.308      165.198       98.380    42976.409    27290.332     9678.693       11.103        3.997      376.969      106.406        0.080      337.024        8.715      864.673
01/06/2021  16:45:00     -256.747       -1.124       -7.219      226.768      147.972       81.811    51423.578    21895.640     6692.962        7.298        4.001      256.749       83.536        0.106      337.005        8.685      864.692
01/06/2021  16:46:00     -301.571       -9.761      -12.061      216.809      138.612       90.807    47006.222    19213.240     8245.961        8.281        3.723      301.729       88.831        0.087      336.996        8.668      864.678
01/06/2021  16:47:00     -239.492       -8.267      -10.499      150.282      107.658       77.048    22584.577    11590.235     5936.373        4.881        2.006      239.635       75.288        0.099      336.951        8.593      864.698
01/06/2021  16:48:00     -180.065       21.638        1.279      162.770      108.390       75.475    26494.203    11748.425     5696.427        3.841        2.197      181.360       85.658        0.223      336.951        8.594      864.706
01/06/2021  16:49:00     -140.509       -2.148       -0.787      110.080      113.806       53.074    12117.652    12951.718     2816.809        2.381        1.394      140.526       55.989        0.159      337.002        8.679      864.712
01/06/2021  16:50:00     -189.391       18.674        8.675      148.383       99.603       59.202    22017.601     9920.810     3504.833        3.586        1.772      190.310       58.159        0.093      336.935        8.567      864.673
01/06/2021  16:51:00     -344.022       -7.367       -7.645      168.772      122.393       78.336    28483.996    14980.022     6136.588        8.402        2.480      344.101       64.118        0.035      336.926        8.553      864.652
01/06/2021  16:52:00     -221.019       21.493       -9.111      152.425      110.351       72.469    23233.351    12177.364     5251.685        4.502        2.033      222.062       73.520        0.110      336.900        8.511      864.636
01/06/2021  16:53:00     -172.973       40.103      -16.633      170.275       78.961       57.479    28993.582     6234.776     3303.809        3.516        1.927      177.561       54.451        0.094      336.896        8.504      864.637
01/06/2021  16:54:00     -362.318       11.414       -9.439      212.528      114.917       77.985    45168.074    13205.863     6081.675        9.796        3.223      362.497       84.369        0.054      336.931        8.560      864.619
01/06/2021  16:55:00     -250.258      -13.431      -20.756      131.803       94.460       52.179    17372.056     8922.724     2722.635        4.612        1.451      250.618       45.703        0.033      336.911        8.527      864.639
01/06/2021  16:56:00     -269.268       64.035       -2.457      136.990      100.571       65.759    18766.374    10114.553     4324.271        5.490        1.660      276.777       66.059        0.057      336.845        8.416      864.658
01/06/2021  16:57:00     -282.104       25.745       -0.619      140.699      123.404       71.718    19796.070    15228.589     5143.504        6.020        2.008      283.276       55.278        0.038      336.883        8.480      864.665
01/06/2021  16:58:00     -362.937       58.654      -13.813      130.202       95.765       56.734    16952.544     9170.987     3218.733        8.234        1.467      367.646       56.431        0.024      336.831        8.395      864.645
01/06/2021  16:59:00     -344.315       61.908        4.073      171.870      113.882       78.216    29539.309    12969.168     6117.787        8.550        2.431      349.836       77.255        0.049      336.822        8.379      864.619
01/06/2021  17:00:00     -284.941       29.924      -21.339      176.027       89.729       73.002    30985.414     8051.249     5329.334        6.344        2.218      286.508       71.914        0.063      336.834        8.397      864.595
01/06/2021  17:01:00     -352.923        6.346      -28.505      210.093       94.182       60.360    44139.134     8870.255     3643.289        9.102        2.833      352.980       45.122        0.016      336.797        8.336      864.563
01/06/2021  17:02:00     -163.547       20.142        6.744      119.407       80.780       59.001    14258.131     6525.336     3481.108        2.573        1.213      164.782       50.422        0.094      336.812        8.364      864.546
01/06/2021  17:03:00     -330.545       30.457       -7.968      190.317       88.195       75.159    36220.695     7778.406     5648.945        7.994        2.482      331.946       86.211        0.067      336.786        8.320      864.523
01/06/2021  17:04:00     -254.297       34.573       -3.144      159.763      133.327       77.956    25524.266    17776.137     6077.067        5.761        2.469      256.636       77.212        0.091      336.794        8.332      864.505
01/06/2021  17:05:00     -174.480       -4.850       -6.571      160.091      141.337       71.182    25629.064    19976.159     5066.931        4.058        2.534      174.548       60.523        0.120      336.757        8.271      864.506
01/06/2021  17:06:00     -171.647        3.803      -18.371      101.148       93.586       64.772    10231.008     8758.422     4195.443        2.649        1.159      171.689       61.359        0.128      336.832        8.397      864.472
01/06/2021  17:07:00     -191.356       13.763        6.442      166.443      109.835       68.142    27703.348    12063.744     4643.380        4.062        2.221      191.850       64.649        0.114      336.745        8.252      864.471
01/06/2021  17:08:00     -212.059       37.236       -2.595      155.547      116.828       68.574    24194.968    13648.699     4702.403        4.445        2.127      215.303       65.555        0.093      336.720        8.209      864.462
01/06/2021  17:09:00     -211.095       -6.813      -11.163      138.422       69.519       55.881    19160.676     4832.853     3122.678        3.592        1.356      211.205       65.435        0.096      336.717        8.204      864.475
01/06/2021  17:10:00     -135.869       -6.859       -2.447      173.171      109.119       69.238    29988.061    11907.064     4793.882        3.259        2.334      136.042       71.931        0.280      336.687        8.156      864.484
01/06/2021  17:11:00     -181.790      -34.144      -25.747      146.768      112.564       69.239    21540.855    12670.551     4794.091        3.693        1.950      184.969       62.910        0.116      336.721        8.212      864.435
01/06/2021  17:12:00     -187.066      -28.528       -4.961      178.936       87.535       68.923    32018.235     7662.298     4750.348        4.012        2.222      189.229       77.938        0.170      336.724        8.216      864.384
01/06/2021  17:13:00     -272.121      -84.735       -9.991      143.504      101.808       67.659    20593.378    10364.933     4577.745        5.843        1.777      285.009       68.637        0.058      336.742        8.245      864.332
01/06/2021  17:14:00     -299.300      -28.886      -19.356      111.053      101.117       58.513    12332.769    10224.579     3423.809        5.838        1.299      300.691       52.144        0.030      336.690        8.158      864.278
01/06/2021  17:15:00     -226.236       -1.266       -1.928      181.308      113.207       58.497    32872.534    12815.903     3421.945        5.014        2.456      226.239       53.442        0.056      336.643        8.081      864.310
01/06/2021  17:16:00     -196.371      -15.063      -11.058      190.327      118.544       73.870    36224.332    14052.779     5456.770        4.731        2.787      196.947       73.870        0.141      336.690        8.159      864.320
01/06/2021  17:17:00     -187.150       25.670       -0.483      181.293      114.103       77.488    32867.210    13019.588     6004.412        4.378        2.595      188.902       72.966        0.149      336.737        8.237      864.315
01/06/2021  17:18:00     -283.683       12.798      -25.334      195.486      138.647       98.344    38214.949    19223.101     9671.528        7.418        3.355      283.972      106.869        0.142      336.703        8.181      864.318
01/06/2021  17:19:00     -286.186       30.004       -0.256      174.063      130.968       71.069    30297.999    17152.497     5050.800        6.764        2.625      287.755       81.772        0.081      336.686        8.153      864.338
01/06/2021  17:20:00     -216.986      -21.255       -4.382      147.113      118.973       63.262    21642.335    14154.691     4002.076        4.367        1.990      218.024       56.722        0.068      336.730        8.226      864.309
01/06/2021  17:21:00     -220.158      -32.895       -5.263      139.336       99.452       62.977    19414.452     9890.772     3966.081        4.142        1.664      222.602       66.805        0.090      336.736        8.234      864.273
01/06/2021  17:22:00     -155.022      -42.245        5.369      164.031      109.029       79.725    26906.222    11887.302     6356.049        3.549        2.257      160.675       86.026        0.287      336.700        8.176      864.292
01/06/2021  17:23:00     -134.746      -29.696      -15.549       94.784       97.698       54.771     8983.994     9544.849     2999.847        2.040        1.076      137.980       54.000        0.153      336.648        8.090      864.282
01/06/2021  17:24:00     -173.808      -17.384       -9.029      170.950      114.428       57.328    29223.953    13093.724     3286.467        3.809        2.280      174.675       66.018        0.143      336.626        8.052      864.304
01/06/2021  17:25:00     -168.351      -20.532      -11.766      107.418       96.275       61.297    11538.521     9268.840     3757.359        2.673        1.228      169.598       51.227        0.091      336.634        8.067      864.307
01/06/2021  17:26:00     -218.866       11.572      -15.030      103.430      113.369       54.087    10697.665    12852.479     2925.446        3.736        1.324      219.172       44.385        0.041      336.596        8.002      864.331
01/06/2021  17:27:00     -129.048       13.425       -4.583      123.913       90.176       52.328    15354.498     8131.756     2738.261        2.153        1.311      129.744       51.304        0.156      336.576        7.969      864.328
01/06/2021  17:28:00     -230.116       53.236        0.112      149.334      136.981       68.021    22300.583    18763.828     4626.880        5.073        2.285      236.194       57.928        0.060      336.560        7.941      864.333
01/06/2021  17:29:00     -319.799      -29.360      -15.939      187.495      118.476       88.777    35154.195    14036.515     7881.269        8.022        2.854      321.144       86.772        0.073      336.637        8.071      864.346
01/06/2021  17:30:00     -226.320       -5.294      -16.528      174.089      106.580       62.326    30307.114    11359.342     3884.478        4.853        2.278      226.382       74.104        0.107      336.561        7.943      864.369
01/06/2021  17:31:00     -153.908      -13.900       -6.330      131.752      104.711       54.432    17358.637    10964.442     2962.835        2.760        1.564      154.534       55.230        0.128      336.581        7.977      864.389
01/06/2021  17:32:00     -307.540       62.663      -34.806      192.041      124.833       73.216    36879.673    15583.358     5360.555        7.876        2.891      313.859       54.613        0.030      336.556        7.937      864.429
01/06/2021  17:33:00     -182.376       28.501       -9.152      115.919       83.543       49.427    13437.209     6979.486     2443.055        2.850        1.143      184.590       34.661        0.035      336.525        7.884      864.432
01/06/2021  17:34:00     -245.618      -38.668      -19.582      140.258       76.842       64.791    19672.394     5904.628     4197.814        4.598        1.489      248.644       66.498        0.072      336.562        7.945      864.432
01/06/2021  17:35:00     -257.895      -46.911      -11.263      178.248       97.155       66.578    31772.442     9439.111     4432.645        5.723        2.282      262.127       59.883        0.052      336.547        7.922      864.434
01/06/2021  17:36:00     -285.451      -36.230       -6.040      272.780      138.552       90.023    74409.195    19196.523     8104.204        9.225        5.085      287.741       97.957        0.116      336.569        7.956      864.436
01/06/2021  17:37:00     -245.788        7.936      -11.616      200.280      117.011       87.098    40111.981    13691.557     7586.121        6.099        3.069      245.916      103.688        0.178      336.537        7.903      864.471
01/06/2021  17:38:00     -308.914       -6.364      -18.912      193.034      115.201       70.106    37262.216    13271.273     4914.908        7.563        2.772      308.979       72.320        0.055      336.596        8.002      864.520
01/06/2021  17:39:00     -220.247       59.727        1.855      146.108      109.616       70.683    21347.668    12015.743     4996.129        4.521        1.918      228.201       60.763        0.071      336.597        8.004      864.514
01/06/2021  17:40:00     -283.608       -9.721      -14.348      206.899      175.316       79.295    42807.383    30735.854     6287.680        8.027        3.992      283.775       82.335        0.084      336.596        8.002      864.510
01/06/2021  17:41:00     -135.145        4.789       -0.312      129.415      119.157       57.763    16748.218    14198.306     3336.620        2.628        1.714      135.230       51.346        0.144      336.605        8.018      864.528
01/06/2021  17:42:00     -271.333       30.914       -3.324      190.034      113.286       61.385    36112.979    12833.802     3768.090        6.364        2.636      273.089       40.140        0.022      336.607        8.021      864.494
01/06/2021  17:43:00     -164.641       -2.494       -6.873      180.949       89.042       51.647    32742.690     7928.500     2667.386        3.524        2.167      164.660       35.792        0.047      336.573        7.965      864.507
01/06/2021  17:44:00     -192.593       -0.907      -18.825       96.752       99.872       48.828     9360.860     9974.424     2384.151        2.958        1.086      192.595       35.586        0.034      336.620        8.042      864.503
01/06/2021  17:45:00      -53.201       36.306        8.454      148.747       79.060       56.931    22125.770     6250.522     3241.107        1.791        1.581       64.409       62.363        0.937      336.583        7.980      864.531
01/06/2021  17:46:00     -430.410       39.516      -29.264      135.881       92.255       54.449    18463.675     8511.041     2964.682       10.880        1.497      432.220       53.582        0.015      336.577        7.971      864.557
01/06/2021  17:47:00     -154.871       36.218       -3.487       89.162      106.871       53.502     7949.826    11421.418     2862.440        2.377        1.112      159.050       38.294        0.058      336.585        7.985      864.569
01/06/2021  17:48:00     -148.815       -3.646       -4.181      133.256      104.400       59.374    17757.096    10899.387     3525.238        2.717        1.609      148.860       54.019        0.132      336.590        7.992      864.560
01/06/2021  17:49:00     -258.481       55.285       -9.874      108.051       76.024       59.743    11675.053     5779.633     3569.255        4.549        1.051      264.327       48.299        0.033      336.529        7.889      864.578
01/06/2021  17:50:00     -306.097      -12.193      -10.115      221.201      148.246       82.833    48929.871    21976.998     6861.284        8.584        3.888      306.340      104.576        0.117      336.524        7.882      864.582
01/06/2021  17:51:00     -198.921       32.121       -2.074      140.909       97.185       60.888    19855.230     9444.966     3707.323        3.680        1.650      201.498       61.537        0.093      336.508        7.856      864.601
01/06/2021  17:52:00     -146.439       -6.309      -16.500      250.245      100.168       64.973    62622.387    10033.565     4221.485        4.930        3.844      146.575       69.284        0.223      336.573        7.965      864.599
01/06/2021  17:53:00     -249.989      -34.355        3.709      214.662      101.196       85.162    46079.588    10240.640     7252.570        6.362        3.179      252.338       94.375        0.140      336.599        8.007      864.593
01/06/2021  17:54:00     -113.600      -20.575       -0.602      110.940       86.799       55.887    12307.639     7534.122     3123.372        1.814        1.148      115.448       52.824        0.209      336.590        7.992      864.612
01/06/2021  17:55:00     -138.595      -34.347      -11.829      137.959      104.256       76.696    19032.771    10869.395     5882.293        2.815        1.789      142.788       74.994        0.276      336.558        7.938      864.619
01/06/2021  17:56:00     -156.376        2.496      -17.755      116.936       87.434       50.274    13674.038     7644.661     2527.426        2.431        1.192      156.396       37.280        0.057      336.516        7.868      864.668
01/06/2021  17:57:00     -122.606       19.521      -14.579      197.963       92.874       67.281    39189.416     8625.516     4526.684        3.397        2.617      124.150       90.774        0.535      336.555        7.935      864.667
01/06/2021  17:58:00     -187.697       55.000      -11.942      111.837       70.122       43.693    12507.506     4917.033     1909.092        2.886        0.967      195.589       44.333        0.051      336.531        7.893      864.635
01/06/2021  17:59:00     -153.291       34.099       10.948      144.921       78.915       53.978    21002.158     6227.549     2913.572        2.746        1.507      157.038       40.752        0.067      336.550        7.925      864.651
01/06/2021  18:00:00     -191.677      -37.074       -7.709       93.812       77.366       52.132     8800.643     5985.468     2717.779        2.784        0.875      195.230       47.722        0.060      336.599        8.006      864.656
01/06/2021  18:01:00     -160.744      -21.487        2.556      160.643       92.021       74.946    25806.017     8467.880     5616.861        3.309        1.995      162.174       81.259        0.251      336.598        8.006      864.677
01/06/2021  18:02:00     -119.265       -4.233        9.459      153.344       88.956       57.180    23514.526     7913.128     3269.541        2.451        1.735      119.340       69.032        0.335      336.612        8.031      864.716
01/06/2021  18:03:00      -67.729       37.454        0.187       81.285       97.914       43.408     6607.221     9587.203     1884.283        1.203        0.904       77.395       31.081        0.161      336.630        8.061      864.731
01/06/2021  18:04:00     -195.310       47.792       -4.635      156.115      137.135       67.185    24371.910    18806.143     4513.883        4.406        2.385      201.072       71.644        0.127      336.618        8.040      864.719
01/06/2021  18:05:00     -134.630       35.345       -2.550      125.997       73.748       47.972    15875.200     5438.723     2301.357        2.149        1.181      139.192       51.430        0.137      336.609        8.025      864.734
01/06/2021  18:06:00     -190.923      -25.050      -11.006       90.159       94.025       45.526     8128.669     8840.793     2072.588        2.812        0.952      192.560       42.393        0.048      336.685        8.151      864.723
01/06/2021  18:07:00     -278.403      -21.270      -28.214      162.084      105.646       81.325    26271.199    11161.013     6613.738        6.139        2.202      279.215       83.538        0.090      336.716        8.202      864.658
01/06/2021  18:08:00     -226.361        3.582      -19.540      132.420      107.355       68.179    17534.961    11525.182     4648.422        4.266        1.685      226.390       54.546        0.058      336.701        8.178      864.654
01/06/2021  18:09:00     -143.292        5.531      -15.230      110.150       79.842       43.442    12133.094     6374.779     1887.177        2.059        1.020      143.399       53.525        0.139      336.633        8.064      864.664
01/06/2021  18:10:00     -166.978       24.320        3.084      199.120       74.590       50.803    39648.679     5563.742     2580.936        3.813        2.390      168.740       71.557        0.180      336.634        8.069      864.643
01/06/2021  18:11:00     -153.193      -30.072        0.963      139.934       92.429       74.486    19581.623     8543.144     5548.197        2.902        1.684      156.117       70.996        0.207      336.614        8.033      864.643
01/06/2021  18:12:00     -179.333       12.167       -8.700      109.450       76.297       54.623    11979.315     5821.222     2983.629        2.658        1.039      179.745       45.809        0.065      336.624        8.050      864.671
01/06/2021  18:13:00     -128.616       -8.158       -9.807       82.661       83.702       57.438     6832.877     7006.001     3299.121        1.692        0.857      128.874       36.332        0.079      336.648        8.090      864.674
01/06/2021  18:14:00     -287.332      -81.869      -12.224      190.987      128.347       74.290    36476.114    16472.957     5518.972        7.393        2.923      298.768       77.116        0.067      336.771        8.294      864.639
01/06/2021  18:15:00     -162.401       -9.994        8.878      121.672       85.659       50.746    14804.008     7337.499     2575.169        2.563        1.236      162.708       56.579        0.121      336.730        8.227      864.572
01/06/2021  18:16:00     -306.225       -5.048      -22.555      203.875       92.938       64.290    41564.918     8637.502     4133.172        7.431        2.717      306.267       62.309        0.041      336.732        8.229      864.561
01/06/2021  18:17:00     -259.407       -2.382        3.649      135.312      105.920       68.400    18309.429    11219.005     4678.610        5.075        1.710      259.418       64.905        0.063      336.753        8.263      864.555
01/06/2021  18:18:00     -239.328      -54.372       -5.799      140.377       94.611       61.729    19705.786     8951.317     3810.458        4.636        1.623      245.426       60.709        0.061      336.744        8.249      864.570
01/06/2021  18:19:00     -200.751      -30.494      -19.513       91.325       76.558       40.730     8340.311     5861.155     1658.899        2.873        0.793      203.054       42.545        0.044      336.733        8.232      864.615
01/06/2021  18:20:00     -169.827     -116.242      -14.606       81.268       86.145       47.555     6604.453     7420.971     2261.494        2.942        0.814      205.799       38.281        0.035      336.715        8.201      864.613
01/06/2021  18:21:00     -166.816      -92.374       -7.870       77.541      101.764       46.056     6012.535    10355.943     2121.172        2.745        0.924      190.685       38.250        0.040      336.737        8.238      864.643
01/06/2021  18:22:00     -193.303      -79.899      -34.930       65.618       74.422       42.188     4305.759     5538.620     1779.849        2.829        0.581      209.164       31.244        0.022      336.713        8.198      864.688
01/06/2021  18:23:00     -110.285     -120.749      -21.777       67.966       76.033       37.025     4619.322     5781.054     1370.882        1.949        0.589      163.534       23.924        0.021      336.789        8.325      864.686
01/06/2021  18:24:00     -186.030      -74.970      -21.752       81.138       77.159       44.029     6583.361     5953.583     1938.550        2.759        0.724      200.568       31.031        0.024      336.710        8.193      864.681
01/06/2021  18:25:00      -79.407      -59.618       -0.868       96.036       47.378       35.806     9223.009     2244.646     1282.062        1.130        0.637       99.296       30.545        0.095      336.717        8.206      864.690
01/06/2021  18:26:00     -159.164      -60.738      -17.291      105.828       70.647       50.672    11199.654     4990.971     2567.622        2.404        0.938      170.359       52.459        0.095      336.695        8.167      864.735
01/06/2021  18:27:00     -236.656      -80.875      -19.487      135.252      105.189       53.719    18292.977    11064.674     2885.718        4.758        1.612      250.094       26.530        0.011      336.752        8.263      864.746
01/06/2021  18:28:00     -173.473     -106.246      -17.878      145.754      129.776       70.492    21244.110    16841.719     4969.067        4.237        2.153      203.424       75.831        0.139      336.791        8.327      864.775
01/06/2021  18:29:00     -183.644     -100.775      -22.121       90.875      102.636       46.717     8258.301    10534.105     2182.513        3.267        1.049      209.478       37.390        0.032      336.839        8.408      864.782
01/06/2021  18:30:00     -117.128      -79.089      -10.060       72.993       60.663       35.491     5327.933     3679.940     1259.615        1.517        0.513      141.329       38.472        0.074      336.757        8.271      864.790
01/06/2021  18:31:00      -55.410      -47.141        1.093       51.321       72.506       30.717     2633.807     5257.052      943.556        0.706        0.442       72.750       14.652        0.041      336.717        8.206      864.794
01/06/2021  18:32:00     -115.106      -71.441       -7.531       58.570       56.033       33.983     3430.422     3139.746     1154.849        1.307        0.386      135.475       17.780        0.017      336.704        8.186      864.786
01/06/2021  18:33:00     -129.114      -84.756      -19.149       57.210       52.280       31.375     3273.022     2733.226      984.398        1.560        0.350      154.447       22.161        0.021      336.696        8.170      864.759
01/06/2021  18:34:00     -113.632      -20.193       -8.152       66.625       36.413       36.394     4438.899     1325.912     1324.500        1.024        0.354      115.412       26.215        0.052      336.602        8.014      864.762
01/06/2021  18:35:00      -56.649       -4.752       -3.522       58.279       43.494       17.743     3396.481     1891.694      314.825        0.442        0.280       56.848       10.640        0.035      336.564        7.951      864.773
01/06/2021  18:36:00       13.314      -31.900       -8.043       58.486       35.933       21.902     3420.636     1291.197      479.702        0.322        0.260       34.567       13.875        0.161      336.487        7.822      864.774
01/06/2021  18:37:00        2.705     -105.082      -24.658      101.099       57.226       44.065    10221.051     3274.808     1941.717        1.354        0.772      105.117       42.792        0.166      336.847        8.423      864.755
01/06/2021  18:38:00     -182.324     -110.901      -35.587       93.043       79.771       40.856     8657.054     6363.446     1669.221        3.174        0.834      213.403       32.368        0.023      336.888        8.489      864.738
01/06/2021  18:39:00     -132.912      -29.951       -8.993      147.155       67.983       60.444    21654.558     4621.662     3653.493        2.428        1.496      136.245       62.127        0.208      336.572        7.964      864.796
01/06/2021  18:40:00      -93.995        7.657       -0.505       87.006       49.530       41.437     7570.087     2453.247     1717.066        1.031        0.587       94.307       22.345        0.056      336.491        7.827      864.797
01/06/2021  18:41:00      -72.534      -92.774      -18.113       71.844       62.676       27.230     5161.527     3928.306      741.447        1.201        0.492      117.764       17.202        0.021      336.722        8.216      864.746
01/06/2021  18:42:00     -148.796      -99.627      -16.228       72.030       54.254       27.187     5188.316     2943.450      739.108        2.060        0.444      179.069       20.106        0.013      336.705        8.185      864.728
01/06/2021  18:43:00     -224.593      -71.533       -8.851      128.437       78.699       50.603    16496.191     6193.603     2560.694        4.044        1.263      235.710       50.985        0.047      336.719        8.207      864.702
01/06/2021  18:44:00     -155.791      -22.264        4.752       71.693       91.751       48.767     5139.862     8418.188     2378.230        2.036        0.797      157.374       42.313        0.072      336.614        8.032      864.704
01/06/2021  18:45:00     -117.322     -111.017      -22.683       75.818       65.093       25.611     5748.400     4237.068      655.900        1.862        0.532      161.522       16.098        0.010      336.704        8.184      864.710
01/06/2021  18:46:00      -92.287      -29.273      -16.828       43.508       33.093       23.936     1892.906     1095.123      572.914        0.661        0.178       96.818       10.367        0.011      336.623        8.049      864.735
01/06/2021  18:47:00     -153.165      -52.236       -8.744       75.933       47.644       45.298     5765.875     2269.926     2051.879        1.817        0.504      161.828       30.789        0.036      336.651        8.095      864.758
01/06/2021  18:48:00      -75.551      -61.066      -10.106       70.601       64.122       27.691     4984.446     4111.642      766.790        0.970        0.493       97.145       14.777        0.023      336.757        8.273      864.742
01/06/2021  18:49:00      -86.386      -20.918       -5.683       68.316       34.015       23.213     4667.101     1156.995      538.855        0.715        0.318       88.883       25.216        0.080      336.582        7.981      864.760
01/06/2021  18:50:00      -72.173      -61.458       -2.978       57.460       66.352       30.297     3301.604     4402.569      917.898        0.881        0.431       94.795       32.856        0.120      336.703        8.183      864.774
01/06/2021  18:51:00     -124.103      -62.387      -12.988       93.058       63.361       44.298     8659.856     4014.614     1962.276        1.705        0.732      138.902       23.876        0.030      336.759        8.276      864.788
01/06/2021  18:52:00     -154.493      -95.453      -29.459       69.097       61.575       38.895     4774.416     3791.425     1512.815        2.196        0.504      181.602       30.537        0.028      336.769        8.293      864.764
01/06/2021  18:53:00     -161.236       -0.568       -2.043       69.809       59.920       39.347     4873.279     3590.358     1548.217        1.800        0.501      161.237       24.119        0.022      336.753        8.267      864.783
01/06/2021  18:54:00     -123.154      -33.160      -13.429       60.921       69.956       29.931     3711.342     4893.904      895.869        1.297        0.475      127.541       30.504        0.057      336.832        8.397      864.772
01/06/2021  18:55:00      -59.643       -2.867      -11.446       62.938       48.615       27.456     3961.199     2363.394      753.840        0.539        0.354       59.712       12.900        0.047      336.788        8.326      864.761
01/06/2021  18:56:00     -146.911       33.582        1.015      132.789       61.891       38.971    17632.904     3830.480     1518.702        2.284        1.149      150.700       48.920        0.105      336.758        8.273      864.766
01/06/2021  18:57:00     -156.207       12.715        1.243       93.361       66.334       54.634     8716.187     4400.187     2984.905        2.033        0.805      156.724       55.723        0.126      336.675        8.135      864.789
01/06/2021  18:58:00     -164.659       82.289        3.526       72.082       63.731       40.688     5195.780     4061.672     1655.481        2.240        0.546      184.076       37.274        0.041      336.671        8.127      864.766
01/06/2021  18:59:00     -127.195      107.220       -9.223       48.720       71.882       39.502     2373.604     5167.038     1560.399        1.843        0.455      166.357       30.179        0.033      336.790        8.327      864.741
01/06/2021  19:00:00      -80.567       36.505       -9.323       84.807       54.125       44.188     7192.181     2929.469     1952.611        0.999        0.604       88.452       49.627        0.315      336.641        8.080      864.699
01/06/2021  19:01:00     -105.151       28.129        1.495       94.889       51.800       43.946     9003.940     2683.229     1931.244        1.273        0.681      108.849       43.567        0.160      336.585        7.985      864.684
01/06/2021  19:02:00      -92.973        3.497      -14.396       95.655       51.779       37.766     9149.940     2681.016     1426.287        1.106        0.663       93.039       25.843        0.077      336.529        7.892      864.699
01/06/2021  19:03:00     -103.344       -1.965       13.761      105.850       80.135       53.851    11204.177     6421.547     2899.960        1.569        1.026      103.363       54.887        0.282      336.570        7.961      864.701
01/06/2021  19:04:00     -206.471       18.381       -0.982      147.823      103.876       52.712    21851.689    10790.139     2778.600        3.919        1.771      207.288       24.983        0.015      336.611        8.029      864.763
01/06/2021  19:05:00     -212.471       38.191        9.783      118.960       57.303       41.250    14151.377     3283.599     1701.547        3.291        0.957      215.876       40.477        0.035      336.614        8.033      864.776
01/06/2021  19:06:00     -165.689      -10.652      -10.190       77.934       56.650       41.133     6073.735     3209.274     1691.910        1.932        0.549      166.031       39.305        0.056      336.674        8.134      864.768
01/06/2021  19:07:00     -170.949       18.970        6.448      144.246       72.359       55.281    20806.796     5235.771     3056.029        2.936        1.455      171.998       41.433        0.058      336.618        8.038      864.794
01/06/2021  19:08:00     -263.785       15.049       -2.357      143.993      102.509       63.556    20733.870    10508.129     4039.369        5.254        1.764      264.214       73.867        0.078      336.692        8.162      864.830
01/06/2021  19:09:00     -226.711       49.852        2.082      144.317      114.650       48.892    20827.269    13144.677     2390.454        4.512        1.818      232.127       49.989        0.046      336.693        8.165      864.864
01/06/2021  19:10:00     -165.376       18.865      -12.298      158.881      103.212       77.896    25243.323    10652.706     6067.779        3.490        2.098      166.449       80.214        0.232      336.668        8.121      864.828
01/06/2021  19:11:00     -201.720       69.505       -7.296      125.056       94.695       62.606    15638.937     8967.117     3919.505        3.704        1.426      213.359       60.557        0.081      336.687        8.154      864.829
01/06/2021  19:12:00     -174.203       -4.819        0.474      217.974       90.096       72.563    47512.528     8117.367     5265.354        4.562        3.045      174.269       60.857        0.122      336.686        8.153      864.826
01/06/2021  19:13:00     -287.265       62.260        0.285      163.869      103.110       65.235    26852.976    10631.696     4255.598        6.406        2.087      293.934       61.166        0.043      336.644        8.083      864.840
01/06/2021  19:14:00      -82.192      -20.091        8.722      177.940       87.236       60.188    31662.518     7610.126     3622.618        2.506        2.145       84.612       61.724        0.532      336.595        8.002      864.838
01/06/2021  19:15:00     -252.672        6.215       -7.241      145.921       81.734       60.595    21292.956     6680.488     3671.696        4.778        1.582      252.748       45.903        0.033      336.579        7.974      864.877
01/06/2021  19:16:00     -267.351       31.956       -1.534      150.504      106.115       70.044    22651.457    11260.345     4906.214        5.565        1.941      269.254       81.097        0.091      336.643        8.080      864.890
01/06/2021  19:17:00     -244.588       50.949      -10.552      124.005       75.943       48.464    15377.222     5767.325     2348.799        4.301        1.175      249.838       54.417        0.047      336.599        8.007      864.911
01/06/2021  19:18:00     -249.199       22.167       -6.520      140.850       85.189       55.600    19838.775     7257.194     3091.347        4.640        1.509      250.183       46.503        0.035      336.635        8.067      864.882
01/06/2021  19:19:00     -162.466       20.429        2.570      109.972       83.806       46.942    12093.764     7023.384     2203.520        2.407        1.066      163.746       44.498        0.074      336.528        7.889      864.913
01/06/2021  19:20:00     -223.946      -13.985      -13.312      161.357      139.577       69.680    26036.067    19481.666     4855.255        5.044        2.519      224.383       74.617        0.111      336.727        8.220      864.858
01/06/2021  19:21:00     -347.170       39.086      -10.410      139.007      119.063       65.264    19322.833    14176.059     4259.367        7.995        1.888      349.364       53.934        0.024      336.732        8.229      864.876
01/06/2021  19:22:00      -20.681       45.740       15.887      156.977       78.741       55.902    24641.649     6200.091     3125.083        1.836        1.698       50.198       36.568        0.531      336.652        8.099      864.858
01/06/2021  19:23:00     -167.739       14.361      -10.470       99.851       82.181       56.428     9970.145     6753.738     3184.084        2.418        0.995      168.352       50.456        0.090      336.752        8.263      864.837
01/06/2021  19:24:00     -261.624        7.095      -17.112      140.086      135.957       72.720    19623.975    18484.323     5288.155        5.608        2.170      261.720       63.701        0.059      336.790        8.325      864.849
01/06/2021  19:25:00     -274.488       28.105      -11.940      147.606      110.525       69.969    21787.572    12215.707     4895.709        5.758        1.945      275.923       74.124        0.072      336.821        8.377      864.873
01/06/2021  19:26:00     -334.892       67.285      -16.216      175.823      104.177       65.726    30913.634    10852.763     4319.882        8.150        2.304      341.585       42.178        0.015      336.803        8.347      864.849
01/06/2021  19:27:00     -221.758       39.193       -7.920      114.482      104.807       51.992    13106.019    10984.513     2703.185        3.878        1.340      225.195       55.403        0.061      336.794        8.332      864.839
01/06/2021  19:28:00     -290.700       93.017       -8.934      182.530      111.362       59.890    33317.229    12401.571     3586.770        7.126        2.465      305.219       53.082        0.030      336.787        8.321      864.811
01/06/2021  19:29:00     -212.915       47.417        0.449      125.036       73.881       55.260    15633.881     5458.386     3053.694        3.586        1.207      218.131       51.441        0.056      336.730        8.227      864.804
01/06/2021  19:30:00     -290.035       46.757       -7.677      131.530       88.597       59.562    17300.096     7849.514     3547.597        5.753        1.435      293.779       57.648        0.039      336.647        8.088      864.805
01/06/2021  19:31:00     -340.831       70.100      -19.352      156.096      120.885       72.549    24365.888    14613.088     5263.375        8.284        2.212      347.965       77.747        0.050      336.665        8.117      864.779
01/06/2021  19:32:00     -294.175       82.954        6.587      153.056       99.037       58.300    23425.991     9808.269     3398.934        6.504        1.832      305.647       47.530        0.024      336.632        8.062      864.780
01/06/2021  19:33:00     -294.942       27.549       -2.296      207.517      123.025       73.839    43063.232    15135.176     5452.130        7.569        3.183      296.226       49.767        0.028      336.671        8.126      864.799
01/06/2021  19:34:00     -197.602       24.411       -1.517      133.295       81.825       51.981    17767.689     6695.268     2702.059        3.340        1.358      199.104       46.600        0.055      336.581        7.977      864.822
01/06/2021  19:35:00     -201.140       21.320        0.914      142.942       94.099       59.826    20432.461     8854.647     3579.137        3.688        1.643      202.267       56.041        0.077      336.572        7.963      864.866
01/06/2021  19:36:00     -130.053      -10.009       -9.119      108.836       74.753       52.149    11845.352     5588.022     2719.487        1.862        1.008      130.437       48.678        0.139      336.563        7.948      864.901
01/06/2021  19:37:00     -181.935       37.920       -0.290       87.883       91.346       48.010     7723.471     8344.182     2304.940        2.645        0.919      185.845       39.402        0.045      336.598        8.007      864.911
01/06/2021  19:38:00     -224.543       66.185        9.080      224.063      114.328       68.508    50204.269    13070.935     4693.381        6.141        3.398      234.094       69.327        0.088      336.662        8.113      864.933
01/06/2021  19:39:00     -129.179       -2.807       -2.004       92.189       85.058       51.394     8498.750     7234.886     2641.333        1.753        0.919      129.210       49.457        0.147      336.635        8.069      864.979
01/06/2021  19:40:00     -195.416       26.473       -4.550      103.503       63.918       41.291    10712.843     4085.539     1704.939        2.770        0.825      197.201       33.050        0.028      336.695        8.167      864.990
01/06/2021  19:41:00      -81.976        8.568       13.114       93.333       67.582       46.563     8711.052     4567.282     2168.129        1.120        0.772       82.423       42.828        0.270      336.665        8.119      864.998
01/06/2021  19:42:00     -114.961      -15.883       -0.463       83.089       63.463       38.066     6903.818     4027.613     1449.045        1.292        0.619      116.053       29.952        0.067      336.709        8.193      865.007
01/06/2021  19:43:00     -163.824       75.261        1.598       88.047       69.042       49.601     7752.355     4766.843     2460.264        2.374        0.749      180.285       46.589        0.067      336.751        8.262      865.006
01/06/2021  19:44:00     -134.397       10.415      -11.313       96.906       53.169       37.356     9390.839     2826.924     1395.489        1.595        0.681      134.800       40.040        0.088      336.593        7.998      865.003
01/06/2021  19:45:00      -86.385        4.050       -1.635      120.558       65.970       56.106    14534.216     4352.036     3147.914        1.475        1.102       86.480       55.033        0.405      336.573        7.964      865.038
01/06/2021  19:46:00     -163.870       48.213      -16.711      113.698       63.417       38.402    12927.297     4021.714     1474.749        2.394        0.921      170.816       33.177        0.038      336.592        7.997      865.045
01/06/2021  19:47:00     -160.537       -2.324      -18.062       84.924       63.245       35.066     7212.094     3999.913     1229.626        1.927        0.622      160.554       29.291        0.033      336.507        7.854      865.068
01/06/2021  19:48:00     -244.285       59.318       -7.884      133.224       64.025       43.441    17748.687     4099.235     1887.129        4.349        1.187      251.384       38.205        0.023      336.519        7.871      865.092
01/06/2021  19:49:00     -167.534       42.803       -0.559      161.031       82.240       52.716    25931.072     6763.452     2778.938        3.268        1.774      172.916       60.697        0.123      336.526        7.885      865.094
01/06/2021  19:50:00     -205.351       83.348      -25.515       73.378       76.165       46.860     5384.352     5801.068     2195.821        3.157        0.669      221.621       34.810        0.025      336.736        8.236      865.046
01/06/2021  19:51:00      -75.116       24.818       18.974       84.300       74.990       54.392     7106.449     5623.456     2958.436        1.115        0.784       79.110       48.284        0.373      336.635        8.069      865.006
01/06/2021  19:52:00     -318.833       33.626      -17.854      130.010       94.530       50.894    16902.682     8935.983     2590.207        6.576        1.421      320.602       45.548        0.020      336.650        8.091      865.008
01/06/2021  19:53:00     -302.065       19.537       -9.038      204.609      121.071       74.805    41865.043    14658.254     5595.774        7.690        3.106      302.696       72.796        0.058      336.705        8.182      864.992
01/06/2021  19:54:00     -206.885       54.303      -10.053      166.167       98.202       65.564    27611.358     9643.550     4298.613        4.369        2.078      213.893       78.504        0.135      336.773        8.299      865.003
01/06/2021  19:55:00     -361.975       41.799       -4.103      174.503      115.943       72.037    30451.185    13442.749     5189.389        9.093        2.454      364.381       68.547        0.035      336.683        8.147      865.010
01/06/2021  19:56:00     -130.141      -13.224      -13.119      196.764      112.437       72.833    38715.889    12642.089     5304.584        3.696        2.833      130.811       70.414        0.290      336.612        8.029      864.993
01/06/2021  19:57:00     -271.571       42.657      -10.996      190.595      107.528       59.473    36326.590    11562.191     3537.024        6.355        2.571      274.901       56.986        0.043      336.723        8.213      865.001
01/06/2021  19:58:00     -101.503       47.268       -4.962      124.090       99.827       49.722    15398.212     9965.457     2472.317        2.019        1.392      111.969       46.075        0.169      336.668        8.125      864.995
01/06/2021  19:59:00     -174.804      -17.997       -6.752      114.053      122.350       50.113    13008.042    14969.545     2511.322        3.070        1.524      175.728       53.462        0.093      336.696        8.171      864.994
01/06/2021  20:00:00     -221.485       49.371      -27.949      198.393      133.878       84.920    39359.798    17923.336     7211.325        5.837        3.225      226.920       94.940        0.175      336.821        8.377      864.981
01/06/2021  20:01:00     -153.675       13.025        7.733      207.176      121.339       68.943    42921.860    14723.156     4753.136        4.311        3.120      154.226       45.616        0.087      336.668        8.124      864.992
01/06/2021  20:02:00     -250.047       10.497        1.167      114.961       89.071       66.219    13215.927     7933.688     4385.008        4.408        1.277      250.267       61.423        0.060      336.569        7.956      865.019
01/06/2021  20:03:00     -300.997       78.097      -36.032       96.560      146.037       56.404     9323.925    21326.743     3181.358        6.591        1.692      310.964       51.671        0.028      336.660        8.107      865.018
01/06/2021  20:04:00     -171.710       51.972       -0.957      132.896       65.688       56.792    17661.377     4314.899     3225.366        2.869        1.260      179.403       58.768        0.107      336.481        7.809      865.041
01/06/2021  20:05:00     -116.780       20.243        0.634      104.987       71.149       48.750    11022.371     5062.233     2376.519        1.625        0.923      118.522       53.030        0.200      336.460        7.774      865.030
01/06/2021  20:06:00     -212.046       -5.614       -9.556      106.950       90.512       60.824    11438.197     8192.505     3699.530        3.420        1.167      212.120       52.705        0.062      336.462        7.776      865.050
01/06/2021  20:07:00     -241.189       55.981      -10.065      116.493       82.967       50.759    13570.595     6883.517     2576.514        4.221        1.152      247.600       46.600        0.035      336.461        7.776      865.065
01/06/2021  20:08:00     -304.482        1.790      -18.839      158.810       95.828       70.634    25220.719     9183.025     4989.157        6.622        1.970      304.488       63.554        0.044      336.565        7.951      865.037
01/06/2021  20:09:00     -231.938       70.719        8.493      132.556      102.286       60.298    17571.144    10462.369     3635.907        4.526        1.583      242.480       59.546        0.060      336.566        7.952      865.049
01/06/2021  20:10:00     -241.186       66.883        8.206      173.315       91.439       69.068    30037.982     8361.162     4770.336        5.293        2.158      250.288       82.155        0.108      336.591        7.994      865.039
01/06/2021  20:11:00     -263.007       43.016       -1.036      157.224      111.569       73.125    24719.500    12447.622     5347.329        5.676        2.126      266.501       82.167        0.095      336.530        7.889      865.019
01/06/2021  20:12:00     -268.244       51.968        9.196      169.378       89.690       73.663    28688.894     8044.290     5426.176        5.844        2.108      273.231       82.570        0.091      336.538        7.905      865.034
01/06/2021  20:13:00     -136.277       23.366      -17.518      108.074      100.165       55.968    11680.064    10032.949     3132.364        2.213        1.242      138.266       50.688        0.134      336.484        7.814      865.035
01/06/2021  20:14:00      -75.275       40.168       -0.268      138.680       80.426       53.788    19232.195     6468.383     2893.134        1.793        1.430       85.322       43.050        0.255      336.460        7.776      864.996
01/06/2021  20:15:00     -227.237        4.585      -10.445      121.104       80.493       51.842    14666.286     6479.181     2687.549        3.779        1.192      227.284       44.560        0.038      336.404        7.678      865.028
01/06/2021  20:16:00     -178.234       18.193        1.251      134.224       88.151       52.409    18016.205     7770.686     2746.653        3.031        1.427      179.160       40.738        0.052      336.390        7.657      865.046
01/06/2021  20:17:00     -311.905      -15.759        2.587      143.621       85.727       68.120    20627.037     7349.045     4640.350        6.507        1.631      312.303       69.407        0.049      336.458        7.770      865.039
01/06/2021  20:18:00     -215.878       12.777       -6.890      146.324       93.168       56.294    21410.674     8680.352     3169.061        4.003        1.663      216.256       60.347        0.078      336.435        7.731      865.039
01/06/2021  20:19:00     -217.021       58.458       -4.336      184.045      134.506       68.546    33872.480    18091.945     4698.512        5.359        2.833      224.756       75.772        0.114      336.442        7.743      865.044
01/06/2021  20:20:00     -310.915       10.820      -12.329      138.142       97.140       69.882    19083.074     9436.117     4883.430        6.516        1.670      311.103       68.181        0.048      336.458        7.771      865.008
01/06/2021  20:21:00     -199.268       51.081       -7.483      144.391       92.059       64.596    20848.807     8474.830     4172.687        3.793        1.675      205.710       77.822        0.143      336.402        7.676      864.984
01/06/2021  20:22:00     -161.370       52.579        4.595      128.071       79.729       53.204    16402.073     6356.755     2830.696        2.720        1.279      169.720       41.063        0.059      336.367        7.619      865.009
01/06/2021  20:23:00     -254.420       75.929       -6.850      162.882      112.488       66.472    26530.515    12653.535     4418.571        5.706        2.180      265.508       75.059        0.080      336.396        7.665      865.043
01/06/2021  20:24:00     -228.895       -0.633        3.433      181.439      129.950       79.932    32919.976    16886.953     6389.097        5.429        2.810      228.896       88.059        0.148      336.402        7.676      865.029
01/06/2021  20:25:00     -157.417       17.237        4.862      124.292       90.059       47.342    15448.466     8110.538     2241.270        2.545        1.290      158.358       40.595        0.066      336.387        7.654      865.039
01/06/2021  20:26:00     -281.739      -40.473      -19.304      147.402       85.448       55.014    21727.407     7301.298     3026.511        5.671        1.603      284.631       59.699        0.044      336.425        7.716      865.067
01/06/2021  20:27:00     -174.959      -22.175        1.817      130.771       60.882       62.201    17101.113     3706.611     3868.998        2.789        1.234      176.359       55.172        0.098      336.297        7.501      865.068
01/06/2021  20:28:00     -211.084      -31.971       -9.010      217.484      108.411       81.111    47299.380    11752.982     6578.926        5.563        3.282      213.491       93.087        0.190      336.417        7.701      865.079
01/06/2021  20:29:00     -198.258       55.140       -5.129      122.887      105.009       57.906    15101.318    11026.853     3353.066        3.592        1.474      205.783       48.602        0.056      336.421        7.709      865.087
01/06/2021  20:30:00     -198.432       -5.792       -5.883      126.423      108.448       57.425    15982.699    11760.992     3297.674        3.524        1.552      198.517       44.384        0.050      336.443        7.745      865.089
01/06/2021  20:31:00     -273.182       28.895      -10.755      129.313      122.755       62.324    16721.911    15068.681     3884.291        5.562        1.784      274.706       58.887        0.046      336.465        7.782      865.105
01/06/2021  20:32:00     -256.180        0.247       -7.570      165.022      109.353       75.352    27232.304    11958.041     5677.943        5.527        2.243      256.180       75.108        0.086      336.419        7.705      865.116
01/06/2021  20:33:00     -341.516       81.304      -10.848      138.404       99.786       63.616    19155.690     9957.147     4047.030        7.825        1.658      351.061       56.035        0.025      336.465        7.781      865.122
01/06/2021  20:34:00     -157.680       -9.332       -5.005      128.668       72.051       44.252    16555.458     5191.369     1958.200        2.434        1.185      157.956       39.164        0.061      336.448        7.754      865.084
01/06/2021  20:35:00     -109.900        6.009       -1.604      184.694       82.563       52.333    34112.047     6816.678     2738.707        2.788        2.183      110.065       64.113        0.339      336.400        7.674      865.090
01/06/2021  20:36:00     -123.069       79.113        8.525      150.063       93.776       49.008    22518.991     8793.856     2401.819        2.759        1.686      146.304       50.729        0.120      336.349        7.589      865.076
01/06/2021  20:37:00     -180.581       20.425       -4.074      133.031      117.892       60.104    17697.204    13898.463     3612.549        3.412        1.760      181.733       54.418        0.090      336.395        7.666      865.093
01/06/2021  20:38:00     -189.001      -26.830      -13.696      100.829       83.856       51.586    10166.431     7031.783     2661.102        2.824        0.993      190.896       43.714        0.052      336.467        7.784      865.078
01/06/2021  20:39:00     -217.029      -16.186       -5.718      165.410      102.226       67.999    27360.482    10450.183     4623.838        4.491        2.122      217.631       67.067        0.095      336.451        7.759      865.072
01/06/2021  20:40:00     -377.286        5.258      -16.021      179.054      106.088       66.357    32060.424    11254.560     4403.311        9.516        2.386      377.323       50.724        0.018      336.561        7.942      865.117
01/06/2021  20:41:00     -200.013       57.859       -0.527      107.233       69.035       47.092    11498.887     4765.881     2217.653        3.091        0.924      208.213       47.975        0.053      336.450        7.756      865.143
01/06/2021  20:42:00     -241.416        5.962        6.513      143.802      118.631       67.663    20679.148    14073.199     4578.219        4.884        1.967      241.489       68.517        0.081      336.438        7.736      865.185
01/06/2021  20:43:00     -230.863        8.972      -17.274      101.500      123.125       52.249    10302.328    15159.785     2729.978        4.093        1.410      231.037       48.914        0.045      336.445        7.746      865.214
01/06/2021  20:44:00     -166.380       26.758        1.719       80.128       87.602       45.385     6420.424     7674.182     2059.815        2.227        0.808      168.518       27.674        0.027      336.386        7.650      865.264
01/06/2021  20:45:00     -176.420       32.488      -14.146      100.257       57.828       41.913    10051.374     3344.033     1756.726        2.376        0.758      179.386       49.453        0.076      336.456        7.767      865.257
01/06/2021  20:46:00     -257.863       44.019      -22.764       79.055       56.467       46.751     6249.754     3188.499     2185.689        4.028        0.581      261.594       40.603        0.024      336.456        7.766      865.231
01/06/2021  20:47:00     -290.713       48.948      -12.149      121.850       77.980       49.684    14847.531     6080.882     2468.465        5.522        1.170      294.805       44.363        0.023      336.450        7.756      865.224
01/06/2021  20:48:00     -241.650       45.442        4.123      113.584       74.639       54.547    12901.296     5571.009     2975.324        4.096        1.072      245.886       54.848        0.050      336.393        7.660      865.289
01/06/2021  20:49:00     -181.790       21.047        6.691      104.320       91.577       48.619    10882.585     8386.329     2363.769        2.758        1.082      183.005       45.127        0.061      336.357        7.601      865.341
01/06/2021  20:50:00     -270.510       63.663       -9.061      106.224       81.343       55.819    11283.516     6616.718     3115.782        4.916        1.051      277.900       51.413        0.034      336.520        7.874      865.305
01/06/2021  20:51:00     -119.665       15.069       13.051      122.557       64.103       40.059    15020.219     4109.167     1604.721        1.772        1.037      120.610       32.492        0.073      336.370        7.624      865.326
01/06/2021  20:52:00     -148.029      -15.417        0.977      102.092       57.108       46.199    10422.757     3261.270     2134.318        1.898        0.791      148.829       39.067        0.069      336.349        7.589      865.339
01/06/2021  20:53:00     -205.156       43.812      -30.396       84.014       71.415       53.806     7058.399     5100.151     2895.038        2.999        0.753      209.782       50.373        0.058      336.402        7.675      865.326
01/06/2021  20:54:00     -143.682       43.593        0.392      132.978      113.526       61.396    17683.098    12888.071     3769.408        2.844        1.717      150.150       43.933        0.086      336.323        7.545      865.374
01/06/2021  20:55:00     -226.855      -33.270      -17.735      177.005      125.568       75.994    31330.702    15767.419     5775.013        5.287        2.644      229.282       64.520        0.079      336.390        7.656      865.414
01/06/2021  20:56:00     -168.083        9.769       -4.605      130.149       95.172       59.037    16938.698     9057.803     3485.426        2.892        1.474      168.367       55.634        0.109      336.391        7.659      865.398
01/06/2021  20:57:00     -153.052       32.659       14.279      120.295       76.874       55.394    14470.887     5909.611     3068.543        2.407        1.172      156.497       42.344        0.073      336.373        7.628      865.381
01/06/2021  20:58:00     -137.719       17.234      -11.018      191.679       66.187       54.456    36740.989     4380.753     2965.495        3.173        2.204      138.794       47.773        0.118      336.297        7.503      865.430
01/06/2021  20:59:00     -178.230       27.028      -18.955      176.814      109.068       60.869    31263.274    11895.932     3705.061        3.985        2.343      180.267       71.600        0.158      336.306        7.517      865.439
01/06/2021  21:00:00     -309.903       68.033        1.438      164.602      118.735       71.485    27093.751    14098.009     5110.173        7.348        2.315      317.283       63.661        0.040      336.395        7.664      865.466
01/06/2021  21:01:00     -281.188       17.579       -2.526      150.906       91.234       56.179    22772.548     8323.561     3156.098        5.681        1.713      281.737       55.919        0.039      336.302        7.509      865.502
01/06/2021  21:02:00     -280.729       67.411      -19.057      109.744      100.715       49.426    12043.718    10143.421     2442.938        5.417        1.232      288.709       35.818        0.015      336.282        7.475      865.502
01/06/2021  21:03:00     -228.317       37.137        0.945      126.748       68.406       50.539    16065.076     4679.336     2554.213        3.840        1.165      231.317       48.075        0.043      336.255        7.430      865.485
01/06/2021  21:04:00     -268.844       60.589        3.581      164.185      138.530       85.372    26956.800    19190.577     7288.380        6.469        2.672      275.587       73.058        0.070      336.364        7.613      865.464
01/06/2021  21:05:00     -253.131       -0.939      -18.189      135.144      114.673       65.856    18263.844    13149.859     4336.969        5.007        1.788      253.133       62.173        0.060      336.348        7.586      865.463
01/06/2021  21:06:00      -86.428       19.496        3.851      157.194      109.252       76.046    24709.899    11936.076     5783.041        2.514        2.121       88.600       65.679        0.550      336.294        7.497      865.445
01/06/2021  21:07:00      -52.683       19.395        5.575      203.722       92.195       58.517    41502.799     8499.829     3424.244        2.829        2.671       56.139       13.371        0.057      336.288        7.486      865.436
01/06/2021  21:08:00     -242.261       -5.105        3.126      304.573      160.326      107.542    92764.865    25704.311    11565.299        9.435        6.502      242.315      109.973        0.206      336.444        7.746      865.408
01/06/2021  21:09:00     -318.936      107.249      -18.916      179.487      133.061       80.660    32215.453    17705.249     6506.081        8.499        2.821      336.485       78.735        0.055      336.420        7.705      865.425
01/06/2021  21:10:00     -200.287       57.293      -15.991      200.925      116.107       69.307    40370.849    13480.768     4803.477        5.114        2.933      208.321       50.693        0.059      336.342        7.577      865.452
01/06/2021  21:11:00     -240.013        9.123      -12.006      126.918       95.932       59.393    16108.155     9202.916     3527.482        4.333        1.442      240.187       54.965        0.052      336.315        7.530      865.468
01/06/2021  21:12:00     -217.143       28.052      -12.796       98.392       81.998       58.577     9680.922     6723.612     3431.241        3.396        0.992      218.948       57.343        0.069      336.296        7.500      865.502
01/06/2021  21:13:00     -104.971        1.541       -0.830      221.040       90.937       71.181    48858.661     8269.587     5066.778        3.660        3.110      104.982       68.340        0.424      336.250        7.423      865.514
01/06/2021  21:14:00     -422.239      114.669        4.859      184.603      131.896       87.884    34078.440    17396.677     7723.643       12.532        2.960      437.532       78.634        0.032      336.402        7.675      865.489
01/06/2021  21:15:00     -329.744       64.295       -7.274      183.468      143.500       77.613    33660.393    20592.251     6023.721        8.658        3.014      335.954       85.348        0.065      336.348        7.584      865.498
01/06/2021  21:16:00      -78.330      -16.720        9.749      122.040       78.947       57.386    14893.830     6232.693     3293.183        1.546        1.221       80.095       48.590        0.368      336.268        7.453      865.501
01/06/2021  21:17:00      -77.015      -25.417      -10.725      119.118      110.432       67.303    14189.138    12195.166     4529.732        1.880        1.546       81.101       46.882        0.334      336.350        7.590      865.498
01/06/2021  21:18:00     -408.315       44.086      -21.047      132.207      128.924       67.216    17478.693    16621.507     4517.953       10.385        1.931      410.688       51.200        0.016      336.423        7.712      865.513
01/06/2021  21:19:00     -480.345       26.066      -39.971      238.361      117.338       81.009    56816.113    13768.245     6562.402       15.506        3.857      481.051       76.847        0.026      336.420        7.706      865.514
01/06/2021  21:20:00     -207.473       21.547      -26.990      295.417      127.923       88.407    87271.046    16364.406     7815.842        7.782        5.573      208.589      118.270        0.321      336.389        7.655      865.490
01/06/2021  21:21:00     -246.270       68.986      -10.678      265.954      132.405       81.405    70731.665    17531.091     6626.843        8.019        4.744      255.749       92.372        0.130      336.445        7.748      865.495
01/06/2021  21:22:00     -162.955       49.866        9.084      155.036      133.366       73.096    24036.229    17786.377     5343.087        3.813        2.358      170.414       69.914        0.168      336.437        7.735      865.467
01/06/2021  21:23:00     -201.871      -46.837      -10.808      127.067      104.053       72.110    16145.907    10826.939     5199.869        3.761        1.609      207.233       60.890        0.086      336.411        7.691      865.463
01/06/2021  21:24:00     -243.452        8.175       -0.839      204.161       85.758       83.270    41681.873     7354.462     6933.875        5.764        2.799      243.589       91.354        0.141      336.411        7.691      865.468
01/06/2021  21:25:00     -286.049       -2.329      -18.241      223.107      118.484       81.776    49776.594    14038.471     6687.302        7.632        3.525      286.059       89.368        0.098      336.454        7.764      865.489
01/06/2021  21:26:00     -256.782       27.814       -6.053      150.942      102.666       67.971    22783.532    10540.326     4620.048        5.234        1.897      258.284       61.499        0.057      336.489        7.821      865.457
01/06/2021  21:27:00     -370.221       20.488        1.958      249.060      149.016       82.761    62030.965    22205.676     6849.386       11.427        4.554      370.788       91.734        0.061      336.671        8.126      865.437
01/06/2021  21:28:00     -346.857       89.760       -0.655      183.530      116.468       70.923    33683.143    13564.729     5030.113        9.031        2.614      358.283       77.903        0.047      336.652        8.097      865.466
01/06/2021  21:29:00     -157.439       28.933        3.756      188.320      140.232       80.163    35464.529    19665.103     6426.050        4.358        3.078      160.076       78.665        0.241      336.544        7.914      865.475
01/06/2021  21:30:00     -345.787      -74.497      -24.497      214.987      143.068       74.173    46219.256    20468.409     5501.570        9.894        3.609      353.721       82.127        0.054      336.575        7.966      865.472
01/06/2021  21:31:00     -283.328       44.709       -9.303      170.363      143.322       89.378    29023.512    20541.291     7988.376        6.994        2.878      286.834       86.978        0.092      336.537        7.903      865.500
01/06/2021  21:32:00     -213.859      -64.383       -3.357      186.248      111.726       81.657    34688.477    12482.746     6667.873        5.185        2.692      223.340       83.635        0.140      336.478        7.803      865.500
01/06/2021  21:33:00      -90.830        2.975      -10.844      197.917      110.668       71.238    39171.153    12247.487     5074.863        3.242        2.825       90.879       75.427        0.689      336.406        7.684      865.523
01/06/2021  21:34:00     -325.782        8.292       -1.850      217.644      140.190       98.830    47369.019    19653.345     9767.329        9.148        3.839      325.887      105.438        0.105      336.483        7.811      865.494
01/06/2021  21:35:00     -399.128      -53.349      -16.548      176.442      147.599       87.645    31131.798    21785.492     7681.697       11.150        3.030      402.678       92.756        0.053      336.475        7.797      865.551
01/06/2021  21:36:00     -332.968       62.410      -27.740      151.194      153.127       85.687    22859.526    23447.908     7342.209        8.458        2.682      338.767       75.896        0.050      336.468        7.786      865.561
01/06/2021  21:37:00     -146.412      -23.268       16.090      150.016      117.695       59.885    22504.657    13852.098     3586.245        3.108        1.997      148.249       60.911        0.169      336.450        7.759      865.559
01/06/2021  21:38:00     -334.195      -24.017      -33.072      153.309      123.410       69.208    23503.569    15230.141     4789.779        7.843        2.176      335.057       69.849        0.043      336.535        7.901      865.568
01/06/2021  21:39:00     -235.590      -23.080       -8.633      112.554      128.459       66.818    12668.463    16501.695     4464.629        4.487        1.682      236.718       49.986        0.045      336.527        7.885      865.583
01/06/2021  21:40:00      -77.866       -3.040       -3.441       83.003       69.409       50.142     6889.462     4817.589     2514.249        1.015        0.711       77.926       33.091        0.180      336.483        7.816      865.599
01/06/2021  21:41:00      -87.047       38.488       17.034       86.998      101.082       52.373     7568.578    10217.534     2742.903        1.493        1.026       95.176       36.297        0.145      336.464        7.781      865.638
01/06/2021  21:42:00     -117.533      -40.772        1.173       96.147       68.990       48.678     9244.338     4759.619     2369.569        1.592        0.819      124.404       39.722        0.102      336.441        7.742      865.679
01/06/2021  21:43:00     -115.349        6.405       -5.900       66.200       98.785       34.655     4382.386     9758.480     1200.996        1.436        0.767      115.527       19.332        0.028      336.446        7.752      865.680
01/06/2021  21:44:00     -192.478       25.877        0.546      108.794       62.353       49.610    11836.047     3887.847     2461.189        2.795        0.909      194.210       40.576        0.044      336.486        7.818      865.702
01/06/2021  21:45:00     -203.328       41.803      -16.245       76.249       53.582       43.033     5813.852     2871.073     1851.830        2.694        0.527      207.580       32.995        0.025      336.532        7.894      865.714
01/06/2021  21:46:00     -108.670        2.555       -3.136       57.959       73.197       34.805     3359.303     5357.844     1211.409        1.087        0.496      108.700       36.427        0.112      336.430        7.725      865.721
01/06/2021  21:47:00      -59.546       -5.872      -10.966       49.584       82.266       30.732     2458.561     6767.628      944.481        0.693        0.509       59.835       23.065        0.149      336.557        7.939      865.738
01/06/2021  21:48:00     -128.241       35.242      -10.351       84.976       86.245       50.426     7220.982     7438.144     2542.772        1.749        0.860      132.996       33.633        0.064      336.448        7.755      865.761
01/06/2021  21:49:00      -75.390      -45.433       -7.795      131.867       75.464       42.799    17388.911     5694.890     1831.791        1.636        1.246       88.021       41.385        0.221      336.441        7.744      865.742
01/06/2021  21:50:00     -100.172      -11.750       -2.534       94.012       60.208       42.863     8838.295     3624.971     1837.208        1.224        0.715      100.859       28.934        0.082      336.489        7.825      865.754
01/06/2021  21:51:00     -148.931        2.548      -15.805       88.680       79.370       48.908     7864.117     6299.530     2391.994        1.949        0.828      148.953       44.184        0.088      336.489        7.824      865.773
01/06/2021  21:52:00      -95.993       37.378        3.621      106.661       64.512       50.774    11376.567     4161.836     2577.988        1.437        0.906      103.014       29.240        0.081      336.431        7.727      865.777
01/06/2021  21:53:00     -117.157        1.757       -2.162      123.497      113.755       70.289    15251.389    12940.252     4940.592        2.343        1.657      117.170       49.444        0.178      336.451        7.759      865.775
01/06/2021  21:54:00     -141.879       21.612        1.649      105.755       94.019       62.073    11184.116     8839.573     3853.039        2.223        1.194      143.515       54.199        0.143      336.460        7.775      865.804
01/06/2021  21:55:00      -53.334       27.211       -9.824       75.888       53.935       34.653     5759.049     2908.940     1200.821        0.677        0.493       59.874       30.410        0.258      336.440        7.741      865.818
01/06/2021  21:56:00     -233.707      -36.839      -19.287      132.228      136.158       44.766    17484.327    18539.059     2004.002        4.718        1.901      236.593       34.035        0.021      336.485        7.814      865.813
01/06/2021  21:57:00     -233.732      -65.957      -21.455      115.945      109.025       55.039    13443.261    11886.443     3029.337        4.389        1.418      242.860       51.439        0.045      336.534        7.897      865.780
01/06/2021  21:58:00     -284.656      -65.083      -20.321      161.844      108.258       64.125    26193.609    11719.875     4111.994        6.384        2.101      292.002       58.924        0.041      336.575        7.964      865.771
01/06/2021  21:59:00     -203.869      -68.308      -28.707      179.875       99.180       72.500    32355.156     9836.655     5256.303        4.724        2.372      215.009       63.063        0.086      336.594        7.999      865.751
01/06/2021  22:00:00     -161.366      -37.732       -7.113      137.531       91.066       72.499    18914.657     8293.051     5256.088        2.998        1.623      165.718       67.001        0.163      336.562        7.945      865.783
01/06/2021  22:01:00     -301.739      -38.971        5.125      170.479      131.235       88.312    29062.922    17222.542     7798.942        7.333        2.704      304.245       87.092        0.082      336.671        8.126      865.790
01/06/2021  22:02:00     -336.604      -44.429      -15.825      161.161      137.944       76.760    25972.712    19028.433     5892.128        8.320        2.545      339.524       70.829        0.044      336.714        8.198      865.799
01/06/2021  22:03:00     -272.242     -127.923      -15.085      173.006      153.521       81.374    29931.235    23568.703     6621.666        7.540        3.006      300.799       73.110        0.059      336.723        8.214      865.817
01/06/2021  22:04:00     -284.107      -71.132      -30.533      109.614       92.489       71.979    12015.221     8554.155     5180.962        5.622        1.288      292.876       64.705        0.049      336.701        8.176      865.874
01/06/2021  22:05:00     -285.746      -19.535      -18.177      157.349      132.239       75.984    24758.565    17487.223     5773.589        6.518        2.401      286.413       59.811        0.044      336.718        8.204      865.917
01/06/2021  22:06:00     -152.847      -19.804      -16.994       62.822       53.254       41.817     3946.632     2835.987     1748.641        1.629        0.427      154.125       27.937        0.033      336.646        8.088      865.949
01/06/2021  22:07:00     -195.429       24.935        8.296      154.057      106.918       73.377    23733.503    11431.354     5384.211        3.971        2.027      197.013       67.760        0.118      336.631        8.063      865.974
01/06/2021  22:08:00     -293.265      -26.941      -12.378      192.518      137.331       83.603    37063.299    18859.700     6989.430        7.488        3.146      294.500       85.560        0.084      336.687        8.153      865.932
01/06/2021  22:09:00     -268.631      -85.637       -9.131      206.536      115.679       70.727    42656.927    13381.740     5002.291        7.030        3.052      281.951       77.472        0.075      336.761        8.279      865.933
01/06/2021  22:10:00     -335.595      -60.773      -22.420      158.588      110.868       71.254    25150.051    12291.664     5077.107        7.966        2.126      341.053       67.027        0.039      336.734        8.232      865.960
01/06/2021  22:11:00     -196.897        2.323        0.922      131.087      101.216       75.300    17183.773    10244.680     5670.022        3.593        1.655      196.911       77.862        0.156      336.702        8.180      865.979
01/06/2021  22:12:00     -196.779      -19.654      -13.961      103.217       63.838       40.589    10653.699     4075.251     1647.448        2.784        0.819      197.759       33.123        0.028      336.700        8.176      865.991
01/06/2021  22:13:00     -172.652     -101.436      -17.011      120.404      134.040       51.727    14497.157    17966.745     2675.690        3.776        1.757      200.245       54.502        0.074      336.748        8.255      865.959
01/06/2021  22:14:00     -123.338      -27.181       25.461       99.104       87.498       53.943     9821.603     7655.883     2909.860        1.849        1.019      126.298       48.987        0.150      336.624        8.050      865.985
01/06/2021  22:15:00     -228.444      -58.078      -24.524       84.269       80.935       49.928     7101.268     6550.463     2492.824        3.615        0.807      235.711       37.776        0.026      336.697        8.171      866.019
01/06/2021  22:16:00     -313.597     -111.756      -33.272       89.083       98.986       57.702     7935.797     9798.188     3329.499        6.650        1.053      332.916       56.136        0.028      336.704        8.181      866.013
01/06/2021  22:17:00      -60.797       -3.574        6.414       68.617       59.621       34.099     4708.276     3554.708     1162.765        0.659        0.471       60.902       30.182        0.246      336.602        8.015      866.047
01/06/2021  22:18:00     -160.035        1.011      -14.528      127.650       48.719       38.156    16294.418     2373.570     1455.866        2.297        1.006      160.038       49.771        0.097      336.628        8.056      866.064
01/06/2021  22:19:00     -156.595       45.732       -9.083      112.942       72.054       41.967    12755.994     5191.717     1761.212        2.320        0.985      163.136       44.890        0.076      336.556        7.938      866.109
01/06/2021  22:20:00     -178.427       28.888      -14.028      148.532       80.145       41.081    22061.651     6423.161     1687.636        3.151        1.509      180.750       42.956        0.056      336.655        8.102      866.111
01/06/2021  22:21:00     -121.520      -22.955       -4.083       82.507       81.397       36.626     6807.425     6625.391     1341.431        1.504        0.739      123.669       26.723        0.047      336.588        7.990      866.166
01/06/2021  22:22:00     -131.117       41.968        1.554       82.026       63.536       46.083     6728.208     4036.761     2123.615        1.592        0.644      137.669       23.157        0.028      336.497        7.837      866.197
01/06/2021  22:23:00     -110.813       52.617       -6.298      108.123       61.984       35.504    11690.561     3841.968     1260.536        1.594        0.840      122.671       36.717        0.090      336.652        8.097      866.205
01/06/2021  22:24:00     -201.120       87.307       -1.109       96.331       81.809       51.277     9279.617     6692.702     2629.300        3.333        0.930      219.253       37.288        0.029      336.605        8.015      866.223
01/06/2021  22:25:00     -243.212       57.760       -2.780       78.076       78.749       45.565     6095.897     6201.383     2076.173        3.843        0.719      249.976       42.315        0.029      336.571        7.960      866.240
01/06/2021  22:26:00     -176.623       -4.372       -5.303      105.532       75.972       45.199    11137.025     5771.754     2042.964        2.509        0.948      176.678       43.069        0.059      336.568        7.955      866.254
01/06/2021  22:27:00      -89.063      -13.399       -7.573       78.140       65.935       34.042     6105.883     4347.483     1158.841        0.989        0.581       90.065       25.523        0.080      336.578        7.975      866.303
01/06/2021  22:28:00      -52.157       16.031        2.950       55.855       53.118       27.593     3119.826     2821.500      761.367        0.484        0.335       54.565       15.477        0.080      336.523        7.882      866.364
01/06/2021  22:29:00     -334.488       53.645       -2.836      130.639       74.948       56.842    17066.595     5617.194     3231.037        7.034        1.296      338.763       39.777        0.014      336.588        7.988      866.428
01/06/2021  22:30:00     -207.942       35.612      -10.543      143.115      101.477       64.727    20481.960    10297.627     4189.536        3.979        1.748      210.970       60.228        0.082      336.577        7.969      866.462
01/06/2021  22:31:00     -218.296       92.189      -17.014      118.454       81.734       51.535    14031.372     6680.489     2655.845        3.990        1.168      236.963       57.287        0.058      336.514        7.864      866.496
01/06/2021  22:32:00     -107.637       -1.512        2.765       89.729       65.554       41.504     8051.360     4297.302     1722.583        1.283        0.704      107.647       44.834        0.173      336.422        7.711      866.486
01/06/2021  22:33:00     -166.902       10.393       -4.804      145.244       62.442       41.731    21095.724     3898.988     1741.483        2.736        1.337      167.225       50.969        0.093      336.424        7.714      866.508
01/06/2021  22:34:00      -61.139       24.960       20.106       95.590       89.727       45.543     9137.528     8050.859     2074.196        1.201        0.963       66.038       38.316        0.337      336.464        7.783      866.529
01/06/2021  22:35:00     -219.386       51.160        5.846      119.843       85.107       59.194    14362.267     7243.191     3503.896        3.794        1.255      225.272       52.622        0.055      336.437        7.735      866.563
01/06/2021  22:36:00     -256.124        7.411      -23.280      135.874       77.789       43.628    18461.831     6051.145     1903.364        4.630        1.321      256.232       34.910        0.019      336.481        7.808      866.586
01/06/2021  22:37:00     -112.879       -0.580       -6.099      122.901       65.538       41.351    15104.644     4295.284     1709.939        1.694        1.055      112.881       40.915        0.131      336.343        7.580      866.606
01/06/2021  22:38:00     -150.009       16.441      -15.994      130.720       43.873       39.534    17087.845     1924.870     1562.931        2.180        1.029      150.907       47.357        0.098      336.391        7.658      866.625
01/06/2021  22:39:00     -179.501       30.815       -1.221      116.886       91.986       42.540    13662.374     8461.454     1809.643        2.855        1.197      182.127       38.674        0.045      336.340        7.573      866.632
01/06/2021  22:40:00      -48.362       -7.486      -12.152       63.241       75.231       41.391     3999.403     5659.727     1713.176        0.696        0.569       48.938       27.022        0.305      336.308        7.522      866.633
01/06/2021  22:41:00     -117.578       -1.043       13.076      134.046       77.139       41.819    17968.375     5950.452     1748.803        1.983        1.283      117.583       45.596        0.150      336.361        7.609      866.636
01/06/2021  22:42:00     -221.917       31.992       -7.420       91.835       80.305       51.062     8433.647     6448.966     2607.341        3.390        0.874      224.212       38.067        0.029      336.358        7.603      866.661
01/06/2021  22:43:00     -298.605       57.903        9.330      132.083      101.781       59.573    17445.940    10359.445     3548.999        6.197        1.568      304.167       58.995        0.038      336.388        7.653      866.625
01/06/2021  22:44:00     -154.705       54.900      -22.185      110.136      103.286       59.276    12130.016    10667.905     3513.624        2.687        1.316      164.158       22.409        0.019      336.387        7.653      866.646
01/06/2021  22:45:00     -111.173       24.690       -8.594      111.213       81.483       51.027    12368.265     6639.515     2603.777        1.732        1.081      113.882       30.547        0.072      336.310        7.525      866.662
01/06/2021  22:46:00     -173.609       -5.220       10.940      123.655       70.378       53.181    15290.550     4953.040     2828.192        2.667        1.154      173.687       56.589        0.106      336.241        7.407      866.652
01/06/2021  22:47:00      -97.559      -11.212        1.882      101.662       58.945       43.056    10335.255     3474.506     1853.781        1.265        0.783       98.201       41.458        0.178      336.239        7.406      866.661
01/06/2021  22:48:00     -306.720       -2.140      -24.415      131.607       97.570       61.070    17320.417     9519.991     3729.591        6.262        1.528      306.727       64.020        0.044      336.356        7.600      866.715
01/06/2021  22:49:00     -234.500      -10.927       -1.791      103.288       70.195       58.158    10668.416     4927.324     3382.378        3.704        0.949      234.754       50.890        0.047      336.279        7.471      866.732
01/06/2021  22:50:00     -215.788       31.071      -26.420      123.930       85.140       55.688    15358.763     7248.743     3101.103        3.696        1.285      218.014       46.575        0.046      336.310        7.521      866.749
01/06/2021  22:51:00     -259.388       53.026       -5.972      155.100       96.916       66.644    24056.036     9392.683     4441.445        5.400        1.895      264.752       58.492        0.049      336.314        7.529      866.754
01/06/2021  22:52:00     -125.209       18.175        2.936      108.802       98.203       50.855    11837.917     9643.876     2586.248        2.004        1.203      126.521       46.188        0.133      336.249        7.422      866.761
01/06/2021  22:53:00     -104.844       -4.919       -3.493       77.153       59.651       34.814     5952.552     3558.259     1212.020        1.087        0.536      104.960       33.123        0.100      336.248        7.422      866.760
01/06/2021  22:54:00     -103.661       -8.015      -12.842       81.039       58.366       33.705     6567.254     3406.571     1136.052        1.104        0.555      103.970       30.546        0.086      336.208        7.355      866.769
01/06/2021  22:55:00     -188.242        2.785      -10.097      129.945       89.658       54.466    16885.588     8038.543     2966.557        3.171        1.395      188.262       57.275        0.093      336.333        7.562      866.770
01/06/2021  22:56:00     -138.294       18.849        1.615      101.644       81.017       43.146    10331.437     6563.722     1861.549        1.912        0.938      139.572       30.277        0.047      336.213        7.362      866.790
01/06/2021  22:57:00     -179.607       21.239        2.618      131.972       96.820       51.930    17416.517     9374.145     2696.681        3.110        1.474      180.859       44.525        0.061      336.277        7.470      866.813
01/06/2021  22:58:00     -190.255       22.868      -10.130       93.939       73.896       49.020     8824.587     5460.584     2402.917        2.675        0.834      191.624       35.252        0.034      336.292        7.493      866.818
01/06/2021  22:59:00     -243.702       24.495       -8.274       95.198       65.063       43.596     9062.627     4233.185     1900.620        3.762        0.760      244.930       40.220        0.027      336.262        7.443      866.838
01/06/2021  23:00:00     -202.528       36.000        1.319       72.849      100.363       38.908     5306.919    10072.709     1513.825        2.960        0.845      205.703       31.393        0.023      336.234        7.394      866.843
01/06/2021  23:01:00     -246.675       56.847      -14.513      108.365       79.787       52.139    11742.999     6366.003     2718.524        4.255        1.041      253.140       56.304        0.049      336.348        7.585      866.845
01/06/2021  23:02:00     -153.041      -11.634      -20.083       89.449       59.929       33.008     8001.039     3591.511     1089.527        1.832        0.634      153.483       31.482        0.042      336.226        7.385      866.846
01/06/2021  23:03:00     -318.127      136.006      -17.797       96.021       70.492       51.943     9220.118     4969.127     2698.056        6.845        0.844      345.980       45.022        0.017      336.366        7.615      866.844
01/06/2021  23:04:00     -262.667       82.643      -11.347      108.014       94.712       49.598    11667.088     8970.365     2459.981        4.952        1.155      275.361       49.715        0.033      336.337        7.567      866.866
01/06/2021  23:05:00     -176.538      -10.284       -1.157       84.832       71.400       42.304     7196.394     5097.895     1789.592        2.268        0.704      176.837       38.789        0.048      336.262        7.443      866.879
01/06/2021  23:06:00     -196.132       55.573        0.593      104.503       85.556       49.670    10920.919     7319.790     2467.158        3.113        1.035      203.853       51.123        0.063      336.332        7.559      866.917
01/06/2021  23:07:00     -125.430        7.931        7.695      101.807       70.644       50.856    10364.721     4990.546     2586.308        1.689        0.897      125.680       44.291        0.124      336.279        7.473      866.941
01/06/2021  23:08:00      -76.540       59.488       -1.077       50.060       61.804       33.745     2506.004     3819.729     1138.735        0.843        0.373       96.939       26.434        0.074      336.347        7.585      866.950
01/06/2021  23:09:00     -110.191      126.946      -17.294       74.284       68.834       28.159     5518.181     4738.176      792.945        1.980        0.552      168.099       25.886        0.024      336.419        7.705      866.958
01/06/2021  23:10:00      -53.233       32.644       -7.142       54.289       47.251       26.778     2947.271     2232.686      717.077        0.492        0.295       62.445       24.502        0.154      336.269        7.458      866.973
01/06/2021  23:11:00      -24.090      112.559       -6.142       38.454       75.772       29.549     1478.710     5741.444      873.149        1.069        0.405      115.108       13.372        0.013      336.288        7.489      866.990
01/06/2021  23:12:00      -38.883       61.924       -5.838       44.746       62.548       22.816     2002.218     3912.236      520.559        0.591        0.322       73.120       14.571        0.040      336.213        7.364      867.017
01/06/2021  23:13:00      -25.712       58.280       -6.597       53.083       50.888       26.193     2817.814     2589.575      686.084        0.510        0.305       63.700       19.789        0.097      336.227        7.386      867.027
01/06/2021  23:14:00       -5.980        5.173       -3.762       59.931       52.024       29.158     3591.721     2706.517      850.180        0.361        0.357        7.907       18.973        5.758      336.094        7.165      867.019
01/06/2021  23:15:00        0.797       16.243        2.631       28.484       30.715       22.201      811.320      943.417      492.863        0.126        0.112       16.262       13.059        0.645      336.052        7.094      867.021
01/06/2021  23:16:00      -96.549       52.413      -18.914       72.895       67.135       33.429     5313.630     4507.134     1117.523        1.168        0.547      109.859       36.851        0.113      336.110        7.191      867.020
01/06/2021  23:17:00      -26.663      122.889      -15.893       48.220       95.852       31.829     2325.123     9187.615     1013.082        1.429        0.626      125.748       21.232        0.029      336.174        7.298      867.017
01/06/2021  23:18:00      -73.794       85.467       -5.191       43.672       48.572       31.581     1907.271     2359.222      997.360        0.902        0.263      112.917       10.457        0.009      336.135        7.234      867.022
01/06/2021  23:19:00      -63.720      115.175       -1.096       49.508       60.708       36.817     2451.085     3685.485     1355.509        1.241        0.375      131.626       19.302        0.022      336.246        7.417      867.025
01/06/2021  23:20:00      -88.909      109.380      -22.336       86.531       69.460       26.593     7487.696     4824.726      707.213        1.669        0.651      140.957       28.947        0.042      336.111        7.193      867.024
01/06/2021  23:21:00      -14.004       64.686       -4.095       45.261       37.170       23.917     2048.585     1381.635      572.038        0.420        0.200       66.185       12.514        0.036      335.958        6.939      867.012
01/06/2021  23:22:00      -27.472        1.282       -3.276       65.109       39.763       39.227     4239.193     1581.122     1538.776        0.406        0.368       27.502       36.023        1.716      335.707        6.521      867.033
01/06/2021  23:23:00      -56.223       47.475       -1.678       48.110       69.449       28.385     2314.617     4823.164      805.693        0.668        0.397       73.586       20.982        0.081      335.695        6.500      867.046
01/06/2021  23:24:00     -100.822       54.638      -11.305       72.037       39.150       25.135     5189.259     1532.742      631.793        1.031        0.368      114.675       18.137        0.025      335.681        6.477      867.025
01/06/2021  23:25:00      -37.445        3.505       -3.777       73.628       48.372       23.652     5421.043     2339.854      559.438        0.487        0.416       37.608       24.576        0.427      335.541        6.244      867.008
01/06/2021  23:26:00     -206.841       -0.087      -11.222       77.170       65.520       41.777     5955.178     4292.887     1745.354        2.745        0.600      206.841       37.023        0.032      335.770        6.624      866.981
01/06/2021  23:27:00      -66.426      -26.105      -10.346       91.616       70.076       48.424     8393.560     4910.628     2344.870        1.042        0.782       71.372       45.429        0.405      335.895        6.833      866.966
01/06/2021  23:28:00      -11.340        1.962        6.409       73.458       51.897       35.351     5396.031     2693.281     1249.704        0.475        0.467       11.508       34.679        9.080      335.754        6.599      866.977
01/06/2021  23:29:00     -110.196       -3.329       -6.712       86.271       81.845       32.627     7442.657     6698.525     1064.549        1.370        0.760      110.247        4.765        0.002      335.774        6.632      866.976
01/06/2021  23:30:00     -146.151       23.262        5.480       58.188       45.151       33.046     3385.835     2038.656     1092.056        1.422        0.326      147.990       24.894        0.028      335.697        6.502      866.986
01/06/2021  23:31:00     -181.155       40.952       -2.769       71.434       47.294       33.445     5102.830     2236.718     1118.565        2.148        0.423      185.726       29.603        0.025      335.750        6.591      866.998
01/06/2021  23:32:00     -144.101       55.516       -4.305       61.941       61.884       30.405     3836.710     3829.576      924.457        1.623        0.430      154.425       24.002        0.024      335.645        6.416      867.008
01/06/2021  23:33:00     -140.041       13.931       -8.163       51.095       53.669       27.628     2610.663     2880.376      763.299        1.306        0.313      140.732       17.369        0.015      335.523        6.214      866.999
01/06/2021  23:34:00      -48.026       -0.412       -2.976       60.950       52.747       39.303     3714.855     2782.278     1544.687        0.518        0.402       48.028       31.117        0.420      335.377        5.969      867.015
01/06/2021  23:35:00     -141.744       12.815      -13.624       69.545       43.435       32.599     4836.549     1886.573     1062.675        1.411        0.389      142.322       21.801        0.023      335.305        5.849      867.032
01/06/2021  23:36:00     -130.908       23.622      -14.983       73.230       38.766       29.767     5362.640     1502.813      886.046        1.283        0.388      133.022       30.618        0.053      335.233        5.730      867.043
01/06/2021  23:37:00     -133.061       45.780       -9.400       92.354       49.130       26.864     8529.185     2413.798      721.652        1.577        0.583      140.716       18.049        0.016      335.098        5.506      867.065
01/06/2021  23:38:00      -74.282       44.106      -11.570       34.336       53.071       27.145     1178.945     2816.583      736.825        0.616        0.237       86.390       19.191        0.049      335.187        5.655      867.077
01/06/2021  23:39:00      -48.552       19.977      -16.562       39.323       38.068       26.430     1546.316     1449.197      698.569        0.336        0.185       52.501       10.662        0.041      335.068        5.458      867.100
01/06/2021  23:40:00      -56.547       64.995        0.093       53.513       54.449       32.315     2863.588     2964.739     1044.264        0.715        0.344       86.151       32.978        0.147      335.136        5.569      867.111
01/06/2021  23:41:00     -107.185       63.814      -12.729       55.489       45.157       29.144     3078.977     2039.123      849.353        1.084        0.298      124.744       23.461        0.035      335.093        5.500      867.129
01/06/2021  23:42:00      -81.244       24.990      -16.427       38.588       42.063       20.955     1489.003     1769.267      439.101        0.560        0.185       85.001       11.863        0.019      335.014        5.367      867.159
01/06/2021  23:43:00      -61.886       36.528       -8.302       46.247       24.338       18.215     2138.790      592.347      331.790        0.415        0.153       71.863       18.068        0.063      334.936        5.239      867.185
01/06/2021  23:44:00      -59.984       55.431       -1.122       30.617       34.820       23.283      937.408     1212.455      542.117        0.468        0.135       81.674       12.986        0.025      334.970        5.295      867.224
01/06/2021  23:45:00     -109.088       23.263      -20.801       24.146       20.326       16.119      583.028      413.152      259.811        0.706        0.063      111.541       11.819        0.011      334.856        5.106      867.252
01/06/2021  23:46:00     -125.698       85.570      -14.518       32.331       41.849       16.634     1045.293     1751.364      276.687        1.320        0.154      152.060       11.901        0.006      334.966        5.288      867.274
01/06/2021  23:47:00     -148.757      127.658      -28.996       25.728       27.316       17.711      661.923      746.167      313.694        2.049        0.086      196.023       11.584        0.003      335.050        5.426      867.284
01/06/2021  23:48:00      -59.173      129.077       -8.581       39.909       30.954       19.570     1592.737      958.148      382.990        1.158        0.147      141.994       15.757        0.012      335.290        5.825      867.286
01/06/2021  23:49:00      -40.192       44.208       -8.724       29.615       52.076       21.482      877.070     2711.931      461.461        0.385        0.203       59.747       14.494        0.059      335.251        5.763      867.281
01/06/2021  23:50:00      -31.948       -5.632       -2.076       28.161       25.585       15.147      793.045      654.577      229.422        0.137        0.084       32.441        7.477        0.053      334.848        5.091      867.283
01/06/2021  23:51:00      -66.020       19.857       -9.888       31.037       20.122       14.181      963.305      404.915      201.098        0.321        0.078       68.942        9.418        0.019      334.784        4.986      867.298
01/06/2021  23:52:00      -25.441       60.866       -6.056       35.551       32.915       12.740     1263.893     1083.367      162.301        0.345        0.125       65.969       12.202        0.034      335.162        5.613      867.308
01/06/2021  23:53:00      -32.472       76.831      -12.167       24.163       41.584       16.763      583.858     1729.208      280.984        0.485        0.130       83.411       13.097        0.025      335.517        6.205      867.321
01/06/2021  23:54:00       -0.595        0.549       -4.386       19.618       21.761       13.670      384.857      473.548      186.860        0.053        0.052        0.810        9.094      126.066      334.900        5.178      867.335
01/06/2021  23:55:00        0.683      -19.111        5.130       26.834       14.383       13.231      720.056      206.871      175.049        0.075        0.055       19.123        9.569        0.250      334.820        5.044      867.327
01/06/2021  23:56:00      -55.626       -6.969      -14.868       32.918       21.913       19.804     1083.593      480.162      392.211        0.266        0.098       56.060       12.552        0.050      334.571        4.631      867.328
01/06/2021  23:57:00      -76.845       11.725       -7.118       56.106       27.813       18.084     3147.866      773.570      327.035        0.517        0.212       77.735       14.623        0.035      334.806        5.021      867.340
01/06/2021  23:58:00     -142.314       -6.805       -1.458       70.450       36.673       31.910     4963.155     1344.929     1018.240        1.381        0.366      142.476       10.732        0.006      335.781        6.642      867.347
01/06/2021  23:59:00     -101.895       -2.698      -19.225       27.159       17.350       13.578      737.594      301.023      184.355        0.599        0.061      101.931        9.136        0.008      335.562        6.278      867.362
01/07/2021  00:00:00       -8.600       39.946       -9.388       29.599       28.153       15.235      876.080      792.588      232.103        0.183        0.095       40.861       16.915        0.171      335.646        6.418      867.363
01/07/2021  00:01:00      -36.769       14.828       -5.051       23.713       29.438       17.859      562.313      866.588      318.928        0.167        0.087       39.646       14.857        0.140      335.194        5.667      867.377
01/07/2021  00:02:00       -4.348       12.153        2.687       10.297       11.455        8.955      106.019      131.206       80.197        0.025        0.016       12.907        5.796        0.202      335.338        5.906      867.392
01/07/2021  00:03:00      -64.087       27.041      -13.328       28.792       20.708       13.737      828.952      428.809      188.701        0.323        0.072       69.558       11.103        0.025      334.842        5.083      867.406
01/07/2021  00:04:00      -73.971       83.020       -5.336       22.964       21.823       14.176      527.325      476.249      200.972        0.680        0.060      111.193        8.784        0.006      335.742        6.580      867.417
01/07/2021  00:05:00      -24.751       40.412       -0.096       24.001       26.099       14.243      576.025      681.175      202.868        0.185        0.073       47.389        6.587        0.019      335.333        5.897      867.426
01/07/2021  00:06:00        8.697       79.917       -8.031       22.576       16.170       15.980      509.656      261.467      255.360        0.378        0.051       80.389       11.887        0.022      335.848        6.755      867.454
01/07/2021  00:07:00      -81.073       22.862      -16.728       21.781       25.907       12.549      474.393      671.195      157.488        0.434        0.065       84.235       10.529        0.016      334.492        4.502      867.482
01/07/2021  00:08:00      -54.208       20.966       -9.910       32.318       15.563        8.713     1044.422      242.209       75.920        0.242        0.068       58.122        8.500        0.021      334.469        4.463      867.499
01/07/2021  00:09:00      -55.850       12.012       -9.866       18.581       11.491        9.452      345.251      132.035       89.332        0.196        0.028       57.128        3.416        0.004      335.290        5.825      867.508
01/07/2021  00:10:00      -22.354       35.303       -6.969       34.741       17.246        6.983     1206.905      297.416       48.765        0.167        0.078       41.785        7.986        0.037      335.817        6.703      867.497
01/07/2021  00:11:00       -8.039       -2.761      -17.858       49.266       45.653       27.139     2427.162     2084.237      736.531        0.282        0.262        8.500       13.230        2.423      335.833        6.730      867.483
01/07/2021  00:12:00      -39.295      -16.702       -5.689       35.121       35.881       19.112     1233.515     1287.481      365.287        0.237        0.144       42.697       18.774        0.193      334.281        4.152      867.488
01/07/2021  00:13:00      -56.987        6.384      -10.278       19.398       27.618       11.842      376.267      762.751      140.224        0.234        0.064       57.344       11.250        0.038      335.333        5.898      867.501
01/07/2021  00:14:00      -56.196       10.962       -2.442       15.719       18.800       10.847      247.082      353.437      117.666        0.200        0.036       57.255        6.255        0.012      335.135        5.569      867.510
01/07/2021  00:15:00      -71.978       14.562       -5.296       15.854       17.418        9.951      251.360      303.372       99.026        0.304        0.033       73.436        3.606        0.002      335.595        6.334      867.523
01/07/2021  00:16:00      -54.152       11.434       -5.065       22.265       19.466       11.869      495.750      378.914      140.863        0.205        0.051       55.346        9.163        0.027      335.977        6.970      867.512
01/07/2021  00:17:00      -31.000       12.424       -5.001       18.977       22.608        9.130      360.117      511.100       83.348        0.105        0.048       33.397        7.743        0.054      335.761        6.609      867.507
01/07/2021  00:18:00      -89.270        6.694       -6.796       61.746       19.480       15.869     3812.510      379.462      251.832        0.625        0.222       89.521       25.423        0.081      335.621        6.377      867.514
01/07/2021  00:19:00      -98.002      -12.871       -0.249       44.410       34.774       22.001     1972.226     1209.215      484.045        0.672        0.183       98.844       13.304        0.018      336.133        7.230      867.528
01/07/2021  00:20:00      -76.559        5.167       -4.563       21.447       23.743       14.079      459.968      563.753      198.217        0.357        0.061       76.733       11.387        0.022      335.790        6.658      867.537
01/07/2021  00:21:00      -54.786       13.557        3.801       27.262       15.555       10.708      743.226      241.953      114.665        0.215        0.055       56.438       11.378        0.041      335.476        6.135      867.550
01/07/2021  00:22:00      -70.471       20.855       -2.785       10.456       18.019        4.747      109.321      324.672       22.536        0.293        0.023       73.492        5.214        0.005      335.702        6.512      867.565
01/07/2021  00:23:00      -63.771       21.731       -2.577       30.216       31.180       14.408      912.991      972.164      207.603        0.332        0.105       67.372       11.300        0.028      335.841        6.744      867.582
01/07/2021  00:24:00      -71.268       27.299       -1.248       17.029       17.045       11.245      289.980      290.533      126.451        0.327        0.035       76.318        9.155        0.014      335.850        6.759      867.596
01/07/2021  00:25:00      -65.439      -17.112       -3.367       14.505       20.428        7.803      210.398      417.287       60.879        0.264        0.034       67.639        6.315        0.009      336.174        7.299      867.594
01/07/2021  00:26:00      -55.178        4.435       -7.441       11.392       21.429        8.077      129.769      459.181       65.234        0.189        0.033       55.356        6.055        0.012      335.954        6.932      867.589
01/07/2021  00:27:00      -28.844       18.163      -10.917       18.500       12.241        5.994      342.242      149.845       35.929        0.090        0.026       34.086        2.054        0.004      335.950        6.925      867.599
01/07/2021  00:28:00      -59.712       17.656       -7.605       21.503       22.128       13.216      462.372      489.630      174.665        0.253        0.056       62.268        6.582        0.011      336.416        7.702      867.608
01/07/2021  00:29:00      -64.121       21.246       -3.001       28.072       24.332       19.889      788.057      592.053      395.570        0.317        0.089       67.549       13.966        0.043      335.616        6.370      867.618
01/07/2021  00:30:00      -43.723        7.437       -4.083       13.761        9.961       11.667      189.378       99.229      136.128        0.120        0.021       44.351        5.065        0.013      335.239        5.744      867.621
01/07/2021  00:31:00       -1.383        4.292       -0.237       14.342        7.551        5.102      205.691       57.019       26.030        0.015        0.014        4.510        5.102        1.280      336.018        7.038      867.617
01/07/2021  00:32:00       28.337       12.184        1.749       18.099       10.157       10.117      327.561      103.168      102.358        0.074        0.027       30.845        8.607        0.078      335.780        6.641      867.590
01/07/2021  00:33:00       59.657        7.060        0.924       21.719       11.538       12.068      471.731      133.126      145.639        0.218        0.038       60.073       12.404        0.043      335.471        6.127      867.567
01/07/2021  00:34:00        0.756       20.611        3.648       26.296       12.157        8.648      691.480      147.800       74.789        0.068        0.046       20.625        9.396        0.208      334.878        5.141      867.573
01/07/2021  00:35:00       -6.725       38.368        4.387       14.417       17.159       11.714      207.855      294.427      137.225        0.109        0.032       38.953        8.872        0.052      335.058        5.441      867.594
01/07/2021  00:36:00      -37.255       17.177       -6.385       27.173       26.419        9.767      738.370      697.986       95.391        0.163        0.077       41.024        6.843        0.028      334.550        4.598      867.601
01/07/2021  00:37:00      -60.325       -6.269      -15.569       14.044        8.425        7.724      197.222       70.973       59.662        0.212        0.016       60.650        7.085        0.014      333.917        3.546      867.604
01/07/2021  00:38:00      -35.049       19.012       -4.159       20.352       20.699       10.640      414.199      428.448      113.214        0.128        0.048       39.874        6.790        0.029      334.283        4.153      867.606
01/07/2021  00:39:00       24.573      111.321       -2.745       41.124       24.876       18.620     1691.189      618.827      346.699        0.783        0.133      114.001       16.388        0.021      335.470        6.126      867.604
01/07/2021  00:40:00       52.645       91.357        0.944       31.216       37.355       21.406      974.428     1395.407      458.235        0.697        0.141      105.440       16.503        0.024      335.595        6.333      867.593
01/07/2021  00:41:00       21.469      121.087        1.862       42.662       54.471       26.321     1820.004     2967.075      692.791        1.030        0.274      122.976        6.646        0.003      335.421        6.043      867.587
01/07/2021  00:42:00      -71.285       45.538      -17.937       55.127       44.483       21.090     3038.946     1978.778      444.790        0.647        0.273       84.589       17.379        0.042      333.673        3.142      867.605
01/07/2021  00:43:00      -53.828       79.022      -10.354       42.126       38.355       17.292     1774.574     1471.135      299.022        0.640        0.177       95.614        6.072        0.004      334.801        5.014      867.604
01/07/2021  00:44:00       38.826      142.033       -2.466       37.832       26.491       22.587     1431.273      701.750      510.152        1.216        0.132      147.244       16.460        0.012      335.905        6.851      867.586
01/07/2021  00:45:00       44.251      157.784       -9.565       32.843       39.806       21.189     1078.686     1584.543      448.984        1.503        0.156      163.872       19.015        0.013      335.771        6.628      867.571
01/07/2021  00:46:00      -16.261      159.512       -4.246       47.106       46.611       28.544     2218.985     2172.588      814.763        1.547        0.260      160.338       17.139        0.011      335.930        6.893      867.570
01/07/2021  00:47:00      -32.116      165.781      -21.503       69.115       86.079       21.712     4776.952     7409.555      471.402        2.081        0.633      168.863       15.546        0.008      336.201        7.345      867.571
01/07/2021  00:48:00     -111.905       12.039      -17.331       42.938       29.026       21.451     1843.699      842.485      460.133        0.806        0.157      112.550       19.322        0.029      333.453        2.778      867.587
01/07/2021  00:49:00      -93.142       96.836      -12.519       35.523       41.134       16.551     1261.852     1692.036      273.934        1.072        0.161      134.360        9.351        0.005      334.874        5.133      867.582
01/07/2021  00:50:00     -110.906       13.858      -16.480       43.661       43.060       23.752     1906.280     1854.157      564.142        0.854        0.216      111.768       16.490        0.022      333.592        3.007      867.579
01/07/2021  00:51:00     -124.792       18.988       -7.783       56.531       40.153       26.285     3195.699     1612.300      690.915        1.075        0.275      126.228       27.003        0.046      333.653        3.109      867.580
01/07/2021  00:52:00      -63.907       68.081        4.427       38.401       40.633       25.394     1474.650     1651.002      644.871        0.625        0.189       93.376       23.518        0.063      334.713        4.868      867.567
01/07/2021  00:53:00      -88.502       35.630      -15.242       27.443       45.861       22.013      753.142     2103.213      484.579        0.634        0.167       95.405       18.428        0.037      334.578        4.644      867.571
01/07/2021  00:54:00      -53.110       83.974       -4.945       31.262       51.612       16.068      977.309     2663.780      258.183        0.690        0.195       99.360        8.728        0.008      334.479        4.480      867.566
01/07/2021  00:55:00       -9.062      183.882      -12.469       59.092       59.273       21.236     3491.874     3513.307      450.970        2.075        0.373      184.105       15.034        0.007      336.297        7.504      867.546
01/07/2021  00:56:00       28.055      206.576      -15.871       57.357       60.611       26.691     3289.771     3673.727      712.432        2.569        0.384      208.472       24.970        0.014      336.355        7.597      867.519
01/07/2021  00:57:00        2.291      168.262      -13.414       42.360       49.662       33.947     1794.394     2466.286     1152.398        1.695        0.271      168.278       25.903        0.024      335.987        6.986      867.507
01/07/2021  00:58:00       15.979      129.358       -8.422       54.652       69.229       25.647     2986.889     4792.686      657.752        1.275        0.422      130.341       21.711        0.028      335.715        6.533      867.496
01/07/2021  00:59:00     -108.307       -7.553      -27.825       56.894       37.314       30.985     3236.950     1392.327      960.068        0.907        0.279      108.570       36.929        0.116      334.372        4.301      867.515
01/07/2021  01:00:00     -176.417      -27.184       -2.531      108.740       66.883       48.857    11824.372     4473.282     2386.986        2.527        0.934      178.499       45.508        0.065      334.220        4.046      867.562
01/07/2021  01:01:00     -131.746      152.699      -15.736       82.473       50.880       31.021     6801.732     2588.820      962.293        2.563        0.518      201.678       32.252        0.026      336.077        7.136      867.601
01/07/2021  01:02:00     -108.746      103.223      -12.362       60.378       61.408       33.701     3645.462     3770.924     1135.761        1.559        0.428      149.936       23.198        0.024      336.352        7.594      867.598
01/07/2021  01:03:00     -121.570       58.540      -12.586       63.054       49.240       29.581     3975.823     2424.533      875.058        1.282        0.364      134.930       26.905        0.040      335.785        6.649      867.617
01/07/2021  01:04:00      -48.925       10.924        6.179       70.961       31.427       22.185     5035.455      987.625      492.179        0.453        0.326       50.130       20.149        0.162      335.218        5.705      867.635
01/07/2021  01:05:00      -76.300      -13.128       -5.291       58.707       45.760       29.616     3446.549     2093.956      877.110        0.622        0.321       77.421       24.354        0.099      334.962        5.281      867.649
01/07/2021  01:06:00     -100.379       13.797       -4.742       34.421       26.760       19.174     1184.806      716.102      367.627        0.628        0.113      101.323       14.513        0.021      334.916        5.205      867.668
01/07/2021  01:07:00      -99.951       16.720       -6.223       38.031       28.902       20.190     1446.371      835.338      407.644        0.650        0.134      101.340       14.426        0.020      334.986        5.321      867.678
01/07/2021  01:08:00     -121.749       75.811       -6.239       31.356       32.992       23.646      983.208     1088.494      559.128        1.162        0.132      143.422       17.641        0.015      335.215        5.701      867.682
01/07/2021  01:09:00      -82.267       98.387       -4.071       43.120       39.825       27.481     1859.348     1585.997      755.188        1.033        0.210      128.249       27.061        0.045      336.007        7.020      867.644
01/07/2021  01:10:00      -43.665       57.931       -2.848       38.565       21.446       16.478     1487.296      459.952      271.519        0.374        0.111       72.545       19.565        0.073      336.414        7.701      867.596
01/07/2021  01:11:00      -81.264       48.028       -4.987       38.161       50.972       24.495     1456.289     2598.163      600.017        0.679        0.233       94.396       20.730        0.048      335.915        6.868      867.587
01/07/2021  01:12:00     -132.773       46.600      -11.177       37.812       36.727       23.989     1429.746     1348.892      575.470        1.164        0.168      140.713       16.320        0.013      334.873        5.134      867.611
01/07/2021  01:13:00     -179.990       74.916      -11.631       83.746       53.715       45.645     7013.360     2885.249     2083.488        2.506        0.599      194.958       51.733        0.070      335.938        6.902      867.623
01/07/2021  01:14:00      -55.983       49.932       -7.713       56.114       31.860       16.985     3148.746     1015.078      288.501        0.507        0.223       75.015       18.238        0.059      336.017        7.036      867.600
01/07/2021  01:15:00     -110.822       -4.698       -7.196       52.559       45.851       27.733     2762.402     2102.323      769.102        0.899        0.282      110.922       16.787        0.023      335.322        5.879      867.608
01/07/2021  01:16:00      -89.907       23.428       16.829       74.941       48.496       30.150     5616.114     2351.843      909.003        0.889        0.444       92.909       25.625        0.076      335.726        6.551      867.611
01/07/2021  01:17:00     -158.379        3.310       -6.746      105.638       48.581       35.262    11159.434     2360.101     1243.374        1.995        0.738      158.413       22.376        0.020      335.714        6.531      867.618
01/07/2021  01:18:00     -174.320       15.482       -1.685       76.388       59.302       34.582     5835.099     3516.733     1195.883        2.059        0.527      175.006       31.168        0.032      335.960        6.939      867.617
01/07/2021  01:19:00     -143.804        6.114        6.773       93.723       54.942       42.383     8783.937     3018.573     1796.359        1.718        0.680      143.934       36.539        0.064      335.526        6.217      867.612
01/07/2021  01:20:00     -240.910      -30.170        6.415      149.464       73.125       53.855    22339.448     5347.227     2900.407        4.478        1.529      242.792       44.343        0.033      335.686        6.481      867.638
01/07/2021  01:21:00     -393.565       -4.153        3.472      152.921       97.273       64.624    23384.898     9462.101     4176.209        9.597        1.851      393.587       59.922        0.023      336.219        7.370      867.644
01/07/2021  01:22:00     -119.361       -9.638       -2.152      198.957       99.434       59.335    39583.761     9887.072     3520.628        3.366        2.650      119.749       72.101        0.363      336.215        7.364      867.620
01/07/2021  01:23:00     -124.270      -29.932       -9.330      150.225       94.620       70.047    22567.430     8952.927     4906.553        2.642        1.821      127.823       57.779        0.204      336.049        7.090      867.619
01/07/2021  01:24:00     -152.410      -17.336       -9.514      161.913       91.989       73.445    26215.697     8462.005     5394.232        3.184        2.004      153.392       77.391        0.255      336.169        7.288      867.598
01/07/2021  01:25:00     -107.126      -34.360        5.401      145.803      114.743       79.119    21258.611    13165.861     6259.855        2.668        2.034      112.501       57.670        0.263      336.147        7.252      867.601
01/07/2021  01:26:00      -45.920        8.945        1.152      162.787      119.893       88.118    26499.757    14374.401     7764.825        2.540        2.432       46.783       74.799        2.556      336.042        7.076      867.601
01/07/2021  01:27:00     -104.432      -37.624       -4.148      173.858       89.505       70.700    30226.757     8011.158     4998.490        2.778        2.162      111.003       70.043        0.398      335.994        6.996      867.588
01/07/2021  01:28:00     -279.706      -17.113      -12.693      177.012      105.198       70.346    31333.122    11066.619     4948.606        6.301        2.367      280.229       68.610        0.060      336.020        7.039      867.577
01/07/2021  01:29:00     -200.345       11.059        8.233      210.973      113.897       80.264    44509.587    12972.446     6442.284        5.211        3.196      200.650       81.775        0.166      335.965        6.948      867.570
01/07/2021  01:30:00     -196.452      -16.267        6.986      178.569       83.753       59.446    31886.949     7014.629     3533.832        4.066        2.122      197.125       64.980        0.109      335.913        6.861      867.564
01/07/2021  01:31:00     -124.644      -32.746        1.025      115.598       92.380       56.885    13362.882     8534.041     3235.922        2.087        1.257      128.874       50.750        0.155      335.805        6.683      867.549
01/07/2021  01:32:00     -136.773       24.682       -0.628      145.908       83.219       61.062    21289.089     6925.342     3728.589        2.562        1.597      138.982       55.549        0.160      335.807        6.685      867.546
01/07/2021  01:33:00     -309.297      -16.964        3.590      107.622       74.269       50.712    11582.571     5515.882     2571.746        5.781        0.984      309.762       45.814        0.022      335.862        6.776      867.553
01/07/2021  01:34:00     -194.746      -36.642       10.727      123.153       69.739       53.390    15166.646     4863.461     2850.472        3.113        1.144      198.163       52.065        0.069      335.696        6.499      867.567
01/07/2021  01:35:00     -189.238       39.273       11.272      105.507       70.806       55.152    11131.734     5013.544     3041.734        2.833        0.959      193.270       55.218        0.082      335.763        6.610      867.559
01/07/2021  01:36:00     -167.234       11.277        6.401      111.557       73.546       49.300    12444.938     5409.071     2430.531        2.421        1.014      167.614       39.123        0.054      335.795        6.664      867.563
01/07/2021  01:37:00     -257.648       48.077       11.161      152.691       88.330       55.280    23314.679     7802.117     3055.843        5.149        1.709      262.095       65.460        0.062      335.896        6.832      867.550
01/07/2021  01:38:00     -236.096        1.676       -2.560      142.800       71.269       49.951    20391.806     5079.213     2495.067        4.185        1.398      236.102       48.152        0.042      335.868        6.785      867.562
01/07/2021  01:39:00     -213.203       16.786        5.858       86.691       69.811       45.828     7515.292     4873.515     2100.224        3.013        0.724      213.863       34.941        0.027      335.702        6.510      867.581
01/07/2021  01:40:00     -215.729       41.508        1.887       95.503       79.292       43.779     9120.754     6287.245     1916.559        3.279        0.866      219.686       37.213        0.029      335.759        6.604      867.602
01/07/2021  01:41:00     -213.521       35.933       -5.264       86.803       66.394       43.322     7534.712     4408.159     1876.835        3.036        0.691      216.524       32.518        0.023      335.712        6.525      867.582
01/07/2021  01:42:00     -152.984       21.358        1.824       80.764       64.425       42.019     6522.819     4150.624     1765.597        1.815        0.622      154.468       40.498        0.069      335.608        6.353      867.577
01/07/2021  01:43:00     -164.914       54.182        6.992      128.575       71.292       51.344    16531.454     5082.589     2636.215        2.721        1.213      173.587       55.101        0.101      335.765        6.615      867.591
01/07/2021  01:44:00     -243.161       47.910        6.111       85.675       90.189       48.286     7340.227     8134.063     2331.514        3.963        0.890      247.836       44.572        0.032      335.831        6.723      867.600
01/07/2021  01:45:00     -194.354       23.509       -5.255      102.926       66.187       47.880    10593.753     4380.683     2292.478        2.781        0.863      195.770       46.159        0.056      335.793        6.662      867.625
01/07/2021  01:46:00     -151.766       46.761        2.494       94.277       55.107       42.447     8888.155     3036.746     1801.707        1.947        0.686      158.806       45.152        0.081      335.636        6.399      867.667
01/07/2021  01:47:00      -69.091       34.536        5.492       73.629       50.514       32.205     5421.240     2551.700     1037.160        0.750        0.451       77.242       40.335        0.273      335.523        6.213      867.723
01/07/2021  01:48:00     -101.471      102.278       -2.672       54.452       54.647       32.317     2965.023     2986.291     1044.373        1.388        0.350      144.073       19.173        0.018      335.324        5.881      867.736
01/07/2021  01:49:00     -112.669      105.161      -25.194       47.044       79.383       25.757     2213.134     6301.657      663.423        1.678        0.459      154.121       18.106        0.014      335.086        5.486      867.746
01/07/2021  01:50:00      -21.418       15.503       -0.288       32.047       25.700       24.671     1027.024      660.469      608.667        0.150        0.115       26.440       10.334        0.153      334.911        5.196      867.763
01/07/2021  01:51:00      -29.642       11.952      -10.188       48.247       38.404       28.010     2327.760     1474.838      784.579        0.286        0.229       31.961       20.033        0.393      334.670        4.795      867.757
01/07/2021  01:52:00      -54.221       49.030      -15.133       51.546       29.179       30.399     2656.948      851.401      924.097        0.500        0.222       73.102       25.129        0.118      334.815        5.038      867.741
01/07/2021  01:53:00      -78.707       25.276      -12.124       50.451       52.319       32.934     2545.314     2737.326     1084.646        0.667        0.318       82.666       30.923        0.140      334.711        4.864      867.758
01/07/2021  01:54:00      -67.932       69.588      -12.832       28.843       45.527       25.952      831.947     2072.734      673.501        0.660        0.179       97.248       11.246        0.013      334.721        4.881      867.787
01/07/2021  01:55:00      -99.438       38.374      -17.625       39.697       31.996       26.850     1575.859     1023.716      720.935        0.750        0.166      106.585       24.722        0.054      334.587        4.659      867.796
01/07/2021  01:56:00      -69.593       46.025      -11.489       36.991       38.114       25.177     1368.363     1452.685      633.897        0.527        0.173       83.436       10.609        0.016      334.521        4.547      867.815
01/07/2021  01:57:00      -36.551       -2.046       -3.620       43.284       38.871       29.715     1873.471     1510.989      882.998        0.281        0.213       36.608       14.849        0.165      334.282        4.151      867.852
01/07/2021  01:58:00     -139.607       17.738      -16.746       52.112       40.694       29.658     2715.658     1655.990      879.614        1.267        0.263      140.729       28.002        0.040      334.218        4.046      867.875
01/07/2021  01:59:00     -173.276       65.656       -4.260       73.420       45.009       39.027     5390.498     2025.811     1523.094        2.164        0.447      185.297       28.788        0.024      334.078        3.811      867.900
01/07/2021  02:00:00      -74.650       13.372      -13.624       47.840       39.633       30.756     2288.693     1570.753      945.956        0.537        0.240       75.838       24.132        0.101      334.091        3.836      867.914
01/07/2021  02:01:00      -21.923       26.868       -9.360       36.250       32.553       22.924     1314.056     1059.727      525.516        0.209        0.145       34.677       15.384        0.197      334.054        3.775      867.910
01/07/2021  02:02:00      -49.828       15.788        1.185       55.912       35.683       33.178     3126.181     1273.299     1100.764        0.412        0.275       52.269       26.941        0.266      333.913        3.540      867.945
01/07/2021  02:03:00      -70.558       39.662        3.247       53.671       45.469       30.967     2880.543     2067.444      958.960        0.623        0.295       80.942       25.744        0.101      334.216        4.044      867.972
01/07/2021  02:04:00      -76.341       64.875      -12.017       52.652       63.085       32.360     2772.213     3979.746     1047.190        0.899        0.390      100.183       17.248        0.030      334.154        3.939      867.982
01/07/2021  02:05:00      -99.388       63.865       -9.092       29.923       48.163       19.106      895.366     2319.677      365.024        0.881        0.179      118.138       16.532        0.020      334.202        4.019      867.981
01/07/2021  02:06:00      -86.088       35.865      -22.585       35.844       41.951       26.899     1284.792     1759.907      723.577        0.649        0.188       93.260       19.122        0.042      334.148        3.929      867.980
01/07/2021  02:07:00      -63.837       29.000       -8.599       37.131       37.984       21.121     1378.729     1442.780      446.080        0.413        0.163       70.116       18.135        0.067      334.299        4.181      867.969
01/07/2021  02:08:00      -78.066       64.363       -7.672       39.835       29.084       22.463     1586.817      845.899      504.574        0.662        0.147      101.177       19.503        0.037      334.327        4.227      867.949
01/07/2021  02:09:00      -79.735       70.705       -8.728       37.426       25.529       19.665     1400.731      651.714      386.706        0.694        0.122      106.569       12.170        0.013      334.281        4.150      867.951
01/07/2021  02:10:00      -56.150       75.094       -3.069       45.390       37.696       20.322     2060.279     1420.952      412.998        0.635        0.195       93.765       17.146        0.033      334.368        4.294      867.938
01/07/2021  02:11:00      -53.345       25.497      -12.271       20.332       19.263       13.534      413.398      371.068      183.172        0.231        0.048       59.126        6.452        0.012      334.162        3.951      867.923
01/07/2021  02:12:00      -16.832       24.726        3.860       25.256       23.467       16.197      637.862      550.707      262.335        0.118        0.073       29.912        5.053        0.029      334.153        3.937      867.896
01/07/2021  02:13:00      -21.452       10.351       -2.612       31.585       20.900       17.426      997.597      436.798      303.680        0.116        0.087       23.819       14.186        0.355      334.094        3.840      867.881
01/07/2021  02:14:00      -12.847       -6.958        0.061       27.393       37.237       16.500      750.373     1386.625      272.255        0.131        0.120       14.611       11.871        0.660      333.818        3.382      867.884
01/07/2021  02:15:00       -5.398      -38.408       -3.776       21.839       20.624       18.902      476.947      425.343      357.299        0.139        0.063       38.786       13.534        0.122      333.911        3.536      867.873
01/07/2021  02:16:00      -31.368      -19.536        0.170       53.554       42.487       23.454     2868.048     1805.125      550.078        0.329        0.261       36.954       17.788        0.232      333.728        3.233      867.884
01/07/2021  02:17:00       10.171        4.334       -3.038       22.185       18.648       19.167      492.167      347.763      367.384        0.067        0.060       11.056       19.250        3.031      333.539        2.922      867.873
01/07/2021  02:18:00       -2.369      -13.856        0.161       22.999       30.632       16.315      528.950      938.342      266.172        0.097        0.087       14.057       16.297        1.344      333.781        3.320      867.853
01/07/2021  02:19:00       -6.526       26.788       -2.161       41.842       26.337       29.518     1750.773      693.620      871.327        0.204        0.166       27.571       23.168        0.706      333.591        3.007      867.883
01/07/2021  02:20:00       35.295       33.564        0.677       37.465       25.207       16.810     1403.625      635.405      282.564        0.235        0.116       48.706       15.215        0.098      333.665        3.129      867.833
01/07/2021  02:21:00      -57.641       34.997       -0.767       47.769       45.632       30.256     2281.915     2082.272      915.411        0.491        0.264       67.434       28.069        0.173      333.686        3.164      867.830
01/07/2021  02:22:00      -42.721       32.303       -1.698       33.937       36.350       16.803     1151.733     1321.289      282.342        0.281        0.138       53.559        4.492        0.007      333.784        3.327      867.815
01/07/2021  02:23:00       11.661        8.991       -7.915       33.189       20.789       17.583     1101.484      432.162      309.159        0.106        0.092       14.724       14.850        1.017      333.711        3.206      867.792
01/07/2021  02:24:00      -47.001       41.690       -5.922       47.867       51.421       26.314     2291.246     2644.167      692.413        0.480        0.281       62.826       19.789        0.099      333.791        3.338      867.793
01/07/2021  02:25:00      -24.367      -18.603      -19.897       39.392       46.486       24.845     1551.745     2160.903      617.286        0.283        0.216       30.656        3.883        0.016      333.632        3.075      867.810
01/07/2021  02:26:00       -2.418       22.450       -0.685       21.855       35.753       19.627      477.620     1278.261      385.203        0.133        0.107       22.579        6.881        0.093      333.643        3.093      867.806
01/07/2021  02:27:00      -13.088        6.841        4.498       38.878       44.784       25.205     1511.463     2005.622      635.282        0.219        0.208       14.768       20.660        1.957      333.547        2.933      867.815
01/07/2021  02:28:00     -112.004       10.235      -12.200       79.488       34.695       32.965     6318.316     1203.763     1086.680        1.070        0.430      112.471       34.851        0.096      333.557        2.949      867.836
01/07/2021  02:29:00     -114.609       43.672      -18.194       43.402       34.878       28.475     1883.768     1216.467      810.825        0.964        0.196      122.648       25.642        0.044      333.701        3.188      867.852
01/07/2021  02:30:00      -80.121       34.495      -11.317       53.583       33.159       20.961     2871.123     1099.531      439.383        0.607        0.221       87.231       20.508        0.055      333.723        3.224      867.870
01/07/2021  02:31:00      -89.011       64.332      -15.273       66.475       48.752       41.350     4418.984     2376.725     1709.793        1.040        0.425      109.825       40.089        0.133      333.872        3.472      867.877
01/07/2021  02:32:00      -76.779       53.706      -12.405       52.801       59.832       29.272     2787.947     3579.846      856.862        0.808        0.361       93.698       16.955        0.033      333.732        3.240      867.884
01/07/2021  02:33:00      -56.985       55.252      -15.484       41.170       40.954       26.513     1694.966     1677.199      702.954        0.531        0.204       79.373       13.286        0.028      333.563        2.959      867.882
01/07/2021  02:34:00      -40.191       81.300        7.136       49.363       47.605       33.579     2436.693     2266.248     1127.556        0.705        0.292       90.692       17.496        0.037      333.835        3.411      867.880
01/07/2021  02:35:00      -32.310      126.717      -11.988       45.115       68.754       34.373     2035.407     4727.181     1181.491        1.259        0.397      130.771       18.407        0.020      333.949        3.600      867.890
01/07/2021  02:36:00      -17.822      129.453       -2.268       54.945       42.578       32.484     3018.934     1812.879     1055.191        1.148        0.294      130.674        7.219        0.003      333.973        3.640      867.872
01/07/2021  02:37:00        0.397       48.034      -14.244       42.387       46.594       25.098     1796.648     2171.030      629.899        0.355        0.230       48.036       16.282        0.115      333.919        3.550      867.869
01/07/2021  02:38:00       -0.251       48.468        4.837       40.120       58.757       32.763     1609.638     3452.389     1073.401        0.425        0.307       48.469       26.287        0.294      333.904        3.525      867.850
01/07/2021  02:39:00      -37.451       16.884      -11.724       42.372       29.792       23.388     1795.406      887.584      547.006        0.253        0.161       41.081       16.913        0.169      333.786        3.328      867.848
01/07/2021  02:40:00      -18.091       27.061        2.156       20.795       15.941       11.867      432.418      254.110      140.826        0.095        0.041       32.552       10.822        0.111      333.817        3.380      867.846
01/07/2021  02:41:00      -34.917       10.807        1.777       17.239       17.232       17.252      297.180      296.930      297.622        0.112        0.045       36.551       15.921        0.190      333.701        3.188      867.854
01/07/2021  02:42:00      -19.047        0.796       -5.737       34.571       19.415       19.403     1195.187      376.938      376.477        0.117        0.097       19.064        7.557        0.157      333.655        3.112      867.858
01/07/2021  02:43:00       -5.090      -21.679       -4.564       20.153       24.734       15.983      406.125      611.758      255.467        0.089        0.064       22.269        8.257        0.137      333.620        3.055      867.855
01/07/2021  02:44:00      -21.000        9.500        4.263       39.957       16.991       15.199     1596.527      288.680      231.019        0.133        0.106       23.049       12.698        0.303      333.664        3.128      867.860
01/07/2021  02:45:00        0.477        8.419       -0.702       18.621       11.353        7.319      346.724      128.886       53.561        0.030        0.026        8.433        6.964        0.682      333.732        3.239      867.875
01/07/2021  02:46:00       53.200      -57.155      -15.451       24.793       30.747       12.433      614.703      945.362      154.588        0.402        0.086       78.083       13.739        0.031      333.646        3.095      867.872
01/07/2021  02:47:00       66.939      -84.268      -18.361       19.390       30.913       13.572      375.977      955.585      184.212        0.672        0.076      107.619       10.502        0.010      333.663        3.125      867.866
01/07/2021  02:48:00       92.614     -128.287      -28.210       42.691       49.982       24.957     1822.505     2498.236      622.873        1.539        0.247      158.224       23.415        0.022      333.603        3.026      867.873
01/07/2021  02:49:00      100.428     -135.165      -29.514       54.476       55.019       30.184     2967.615     3027.096      911.102        1.806        0.345      168.391       33.971        0.041      333.471        2.807      867.891
01/07/2021  02:50:00      138.813     -160.042      -41.195       32.128       42.521       24.515     1032.186     1808.046      601.004        2.501        0.172      211.855       21.886        0.011      333.440        2.753      867.904
01/07/2021  02:51:00       91.038     -112.416      -26.293       64.119       60.366       30.185     4111.190     3644.058      911.113        1.514        0.433      144.656       28.408        0.039      333.384        2.663      867.913
01/07/2021  02:52:00       70.763     -106.518      -18.120       48.189       48.281       22.168     2322.166     2331.014      491.432        1.091        0.257      127.881       27.298        0.046      333.550        2.937      867.924
01/07/2021  02:53:00        9.957      -41.660       -2.855       37.322       31.460       25.292     1392.916      989.707      639.665        0.243        0.151       42.833       20.115        0.221      333.530        2.905      867.930
01/07/2021  02:54:00       43.417      -33.929       -8.877       45.609       34.885       24.403     2080.215     1216.938      595.527        0.350        0.195       55.101       14.296        0.067      333.559        2.954      867.929
01/07/2021  02:55:00       87.802      -28.301      -21.254       77.065       64.211       40.921     5939.021     4123.042     1674.519        1.035        0.587       92.251       41.121        0.199      333.455        2.780      867.933
01/07/2021  02:56:00      141.700      -18.106      -21.593       63.194       86.841       37.712     3993.441     7541.420     1422.227        1.691        0.648      142.852       24.147        0.029      333.367        2.634      867.919
01/07/2021  02:57:00       42.860      -15.673       -2.446       50.072       47.499       31.314     2507.226     2256.192      980.597        0.392        0.287       45.636       21.978        0.232      333.290        2.508      867.916
01/07/2021  02:58:00      118.880        1.198       -5.103       56.790       40.559       31.854     3225.053     1645.003     1014.699        1.002        0.294      118.886       32.583        0.075      333.131        2.245      867.918
01/07/2021  02:59:00       54.849        8.094        2.821       46.026       33.486       28.932     2118.385     1121.292      837.079        0.358        0.204       55.443       16.257        0.086      333.056        2.120      867.914
01/07/2021  03:00:00       82.239      -28.881      -23.163       45.660       42.285       22.525     2084.854     1788.050      507.355        0.626        0.219       87.163       19.943        0.052      333.144        2.267      867.906
01/07/2021  03:01:00       81.898      -11.413       -1.360       59.638       50.478       34.062     3556.723     2548.016     1160.249        0.705        0.363       82.690       31.127        0.142      332.970        1.978      867.922
01/07/2021  03:02:00      120.366        1.084       -4.074       81.264       42.722       33.652     6603.885     1825.159     1132.437        1.203        0.478      120.371       33.129        0.076      332.914        1.885      867.930
01/07/2021  03:03:00       78.658      -19.575       -8.699       44.860       50.173       28.430     2012.396     2517.288      808.247        0.599        0.267       81.058       31.898        0.155      332.814        1.722      867.952
01/07/2021  03:04:00       51.668       -1.637       -4.276       45.266       57.053       25.209     2048.989     3254.989      635.480        0.431        0.297       51.693       23.462        0.206      332.889        1.845      868.002
01/07/2021  03:05:00       60.091      -39.076      -21.712       25.857       24.076       13.095      668.580      579.648      171.491        0.351        0.071       71.678       12.989        0.033      332.878        1.829      868.069
01/07/2021  03:06:00       19.480       17.914       -2.920       23.801       21.351       12.892      566.507      455.850      166.214        0.095        0.059       26.465       11.563        0.191      332.869        1.811      868.133
01/07/2021  03:07:00       30.427       57.029        1.909       30.724       19.631       17.280      943.973      385.392      298.609        0.290        0.081       64.638       10.902        0.028      332.921        1.897      868.163
01/07/2021  03:08:00       29.845      104.632      -10.782       22.930       20.758       17.514      525.805      430.890      306.749        0.661        0.063      108.805        5.065        0.002      332.992        2.017      868.145
01/07/2021  03:09:00       39.735      132.899       -5.378       28.769       27.886       19.396      827.641      777.622      376.222        1.063        0.099      138.712       15.460        0.012      333.010        2.046      868.083
01/07/2021  03:10:00       65.895       53.736      -10.049       24.823       39.693       18.062      616.171     1575.535      326.249        0.492        0.126       85.028       16.129        0.036      332.842        1.768      867.968
01/07/2021  03:11:00       53.831       44.899       -6.944       25.517       24.653       18.632      651.120      607.762      347.153        0.328        0.080       70.098        8.461        0.015      332.823        1.736      867.947
01/07/2021  03:12:00       79.464       32.971       -0.014       29.290       24.754       14.223      857.911      612.745      202.298        0.454        0.084       86.033       11.152        0.017      332.875        1.823      867.948
01/07/2021  03:13:00       -9.948       28.623       -6.323       72.300       31.952       17.715     5227.337     1020.938      313.806        0.376        0.328       30.303       18.460        0.371      333.002        2.032      867.952
01/07/2021  03:14:00     -106.602       -0.668      -10.819       88.042       44.452       35.504     7751.446     1975.997     1260.512        1.123        0.549      106.604       34.826        0.107      332.624        1.408      867.937
01/07/2021  03:15:00     -129.886      -34.167       -1.015       87.306       52.775       46.748     7622.400     2785.191     2185.401        1.531        0.630      134.304       36.979        0.076      332.768        1.644      867.926
01/07/2021  03:16:00      -35.370       -3.444        5.385       81.877       47.723       36.070     6703.804     2277.484     1301.077        0.578        0.514       35.537       16.044        0.204      332.719        1.564      867.947
01/07/2021  03:17:00     -135.745       -1.511       -3.318       90.627       58.280       40.678     8213.301     3396.531     1654.738        1.585        0.663      135.753       46.595        0.118      332.897        1.856      867.986
01/07/2021  03:18:00     -148.569       11.360        0.084       76.781       43.405       30.372     5895.326     1883.985      922.469        1.545        0.435      149.003       27.506        0.034      332.844        1.769      867.996
01/07/2021  03:19:00     -112.534       -5.129        6.960       93.409       56.207       42.172     8725.162     3159.199     1778.462        1.320        0.683      112.651       36.026        0.102      332.886        1.840      868.016
01/07/2021  03:20:00     -148.708       -4.670       -0.331      105.117       52.045       43.170    11049.564     2708.734     1863.632        1.888        0.781      148.781       41.709        0.079      332.902        1.864      868.061
01/07/2021  03:21:00      -79.691      -10.223        2.542       85.230       56.289       31.981     7264.220     3168.466     1022.764        0.896        0.573       80.344       17.633        0.048      332.933        1.919      868.070
01/07/2021  03:22:00      -89.125        5.918       -3.341       63.429       40.070       27.585     4023.205     1605.571      760.948        0.719        0.319       89.321       28.221        0.100      332.941        1.931      868.067
01/07/2021  03:23:00     -111.236       -8.517      -12.668       55.135       28.583       19.589     3039.831      816.985      383.717        0.842        0.212      111.561       23.930        0.046      333.052        2.115      868.051
01/07/2021  03:24:00      -39.340       29.617       -4.655       22.989       27.795       15.904      528.514      772.546      252.931        0.200        0.078       49.243       10.802        0.048      333.533        2.910      868.045
01/07/2021  03:25:00      -88.312       14.817       -4.171       64.034       54.181       31.321     4100.375     2935.628      981.031        0.802        0.401       89.546       30.978        0.120      333.517        2.883      868.048
01/07/2021  03:26:00      -60.669       38.221       -1.340       31.621       27.181       16.115      999.878      738.829      259.693        0.357        0.100       71.705        7.846        0.012      333.471        2.807      868.060
01/07/2021  03:27:00      -36.550       -2.245       -8.629       33.145       12.890       10.604     1098.597      166.161      112.443        0.140        0.069       36.619        2.861        0.006      333.339        2.589      868.082
01/07/2021  03:28:00      -38.092      -12.661       -8.423       20.920       15.832       12.330      437.637      250.655      152.031        0.126        0.042       40.141       10.888        0.074      333.367        2.636      868.132
01/07/2021  03:29:00      -85.614       71.442        2.322       48.493       62.942       28.784     2351.601     3961.746      828.528        0.979        0.357      111.507       10.294        0.009      333.480        2.822      868.174
01/07/2021  03:30:00      -58.086       49.246      -12.968       25.021       53.059       14.510      626.036     2815.239      210.541        0.481        0.183       76.153       12.421        0.027      333.384        2.664      868.197
01/07/2021  03:31:00      -32.615      -50.498      -10.852       32.944       29.302       19.243     1085.332      858.587      370.296        0.302        0.116       60.115       11.967        0.040      333.343        2.595      868.181
01/07/2021  03:32:00       -8.772      -52.742      -17.592       40.316       26.966       22.627     1625.367      727.175      511.960        0.302        0.143       53.467       16.567        0.096      333.220        2.391      868.166
01/07/2021  03:33:00       25.924      -70.135      -17.002       35.235       30.689       16.314     1241.476      941.840      266.154        0.416        0.122       74.772       17.270        0.053      333.198        2.355      868.166
01/07/2021  03:34:00      -13.373      -20.419      -11.145       29.331       24.446       14.810      860.307      597.593      219.343        0.120        0.084       24.409        9.738        0.159      333.543        2.928      868.187
01/07/2021  03:35:00      -40.781       -1.034       -1.688       35.299       18.910       14.429     1246.005      357.593      208.195        0.174        0.091       40.794       13.487        0.109      333.526        2.899      868.196
01/07/2021  03:36:00      -23.159      -43.681       -9.009       24.975       18.713       11.543      623.746      350.189      133.236        0.182        0.055       49.441        8.935        0.033      333.582        2.993      868.187
01/07/2021  03:37:00        5.335      -58.870       -6.595       18.967       18.658       10.795      359.736      348.118      116.537        0.218        0.041       59.111        8.787        0.022      333.862        3.457      868.184
01/07/2021  03:38:00        9.526       -2.418       -7.992       18.249       13.708       11.056      333.015      187.919      122.240        0.040        0.032        9.828       10.699        1.185      333.824        3.393      868.199
01/07/2021  03:39:00      -12.624       17.673       -2.339       24.181       20.179       10.715      584.719      407.194      114.814        0.079        0.055       21.718       10.287        0.224      333.786        3.329      868.232
01/07/2021  03:40:00      -47.931       60.378       -0.514        9.155       13.939        7.527       83.816      194.287       56.652        0.314        0.017       77.090        7.534        0.010      333.384        2.664      868.265
01/07/2021  03:41:00      -30.710       64.089        0.980       20.039       36.430       13.630      401.551     1327.162      185.780        0.348        0.096       71.066       17.678        0.062      333.716        3.213      868.285
01/07/2021  03:42:00       14.314      -11.368       -4.008       32.895       18.056        9.770     1082.094      326.005       95.460        0.093        0.075       18.279        9.624        0.277      333.679        3.152      868.276
01/07/2021  03:43:00       65.656      -37.479      -11.569       19.713       15.918       11.744      388.598      253.385      137.930        0.331        0.039       75.601       10.845        0.021      333.788        3.332      868.248
01/07/2021  03:44:00       58.537      -46.803      -14.753       37.904       25.072       20.820     1436.715      628.606      433.476        0.417        0.125       74.947       24.663        0.108      333.218        2.388      868.241
01/07/2021  03:45:00       57.471        3.663      -16.489       57.898       75.744       17.275     3352.181     5737.187      298.431        0.649        0.469       57.588       18.203        0.100      334.041        3.754      868.255
01/07/2021  03:46:00      119.536       56.510       -9.797       40.729       43.841       23.283     1658.846     1922.031      542.083        1.085        0.206      132.221       18.965        0.021      332.831        1.750      868.300
01/07/2021  03:47:00        7.365       31.171       -4.981       43.634       53.368       19.972     1903.885     2848.176      398.897        0.310        0.258       32.029       12.787        0.159      333.474        2.814      868.324
01/07/2021  03:48:00      -56.246       85.105       -6.706       34.990       29.437       18.330     1224.300      866.528      335.979        0.644        0.121      102.012        9.712        0.009      332.924        1.903      868.341
01/07/2021  03:49:00      -64.129       47.453       -3.458       41.265       31.970       19.127     1702.816     1022.088      365.824        0.473        0.155       79.777       22.118        0.077      333.235        2.416      868.345
01/07/2021  03:50:00      -17.896      197.740      -24.748       86.620       92.264       30.942     7503.101     8512.703      957.403        2.850        0.849      198.548       26.118        0.017      334.674        4.799      868.345
01/07/2021  03:51:00      -59.096       38.622      -20.760       37.330       36.818       23.635     1393.511     1355.548      558.629        0.436        0.165       70.598       16.852        0.057      334.356        4.275      868.354
01/07/2021  03:52:00       11.512       45.190       -0.057       32.706       55.570       25.537     1069.658     3088.058      652.141        0.349        0.240       46.633       26.316        0.318      334.082        3.819      868.391
01/07/2021  03:53:00       55.403       40.910      -17.167       40.779       35.821       24.885     1662.933     1283.178      619.248        0.430        0.178       68.870       11.630        0.029      333.073        2.149      868.422
01/07/2021  03:54:00       88.360       57.553      -15.138       41.233       36.871       20.754     1700.158     1359.470      430.725        0.742        0.175      105.451       19.639        0.035      333.209        2.374      868.447
01/07/2021  03:55:00       16.693       47.556       -6.463       26.036       38.651       17.721      677.897     1493.915      314.032        0.253        0.124       50.401        9.711        0.037      333.856        3.446      868.424
01/07/2021  03:56:00       39.317       65.271      -18.166       33.619       44.511       26.149     1130.207     1981.251      683.750        0.496        0.190       76.199       15.990        0.044      333.841        3.420      868.373
01/07/2021  03:57:00       47.630        0.240       -5.162       25.565       23.415       16.333      653.545      548.274      266.767        0.188        0.073       47.630        5.506        0.013      333.379        2.656      868.401
01/07/2021  03:58:00        2.381       30.109        4.255       36.902       16.768       15.105     1361.754      281.173      228.161        0.140        0.094       30.203        7.443        0.061      333.570        2.970      868.461
01/07/2021  03:59:00      -15.123       15.495       -2.569       28.500       24.571       14.955      812.263      603.711      223.658        0.106        0.082       21.652       12.762        0.347      333.657        3.117      868.463
01/07/2021  04:00:00       -8.028       57.242       -6.634       29.677       35.727       18.776      880.706     1276.433      352.520        0.295        0.125       57.802        7.533        0.017      333.852        3.439      868.415
01/07/2021  04:01:00      -41.144        2.886       -7.866       20.071       12.893       12.729      402.859      166.240      162.040        0.125        0.037       41.245       12.093        0.086      333.635        3.080      868.396
01/07/2021  04:02:00      -20.313       -2.607       -9.342       18.628       14.493        9.641      347.018      210.058       92.948        0.058        0.033       20.480        9.123        0.198      333.309        2.541      868.408
01/07/2021  04:03:00      -54.941        8.834       -0.214       15.322       18.059       12.317      234.779      326.144      151.718        0.190        0.036       55.647       11.889        0.046      333.634        3.078      868.415
01/07/2021  04:04:00      -46.250        2.532        1.197       12.867       15.339        9.579      165.551      235.283       91.765        0.132        0.025       46.319        7.689        0.028      333.842        3.423      868.398
01/07/2021  04:05:00        0.258        7.040        1.738       16.537       11.959       10.802      273.477      143.024      116.687        0.029        0.027        7.045        5.489        0.607      333.548        2.935      868.360
01/07/2021  04:06:00        1.225       10.680       -4.354        9.320        8.342        5.860       86.861       69.586       34.344        0.016        0.010       10.750        4.764        0.196      333.470        2.807      868.329
01/07/2021  04:07:00       20.124       10.721        0.531       17.465       14.669       10.360      305.016      215.173      107.324        0.057        0.031       22.802        9.737        0.182      333.454        2.781      868.312
01/07/2021  04:08:00       12.990       28.664        0.117       12.678       10.752        6.969      160.738      115.609       48.565        0.066        0.016       31.470        6.983        0.049      333.424        2.731      868.318
01/07/2021  04:09:00       12.650       31.641       -4.843       18.528       16.472       14.109      343.292      271.311      199.068        0.100        0.041       34.076       11.254        0.109      333.378        2.655      868.329
01/07/2021  04:10:00        7.983       59.926        1.381       19.382       16.069       10.395      375.646      258.220      108.047        0.220        0.037       60.456        8.166        0.018      333.285        2.500      868.343
01/07/2021  04:11:00       22.280       36.926       -1.463       20.176       21.384       11.412      407.059      457.289      130.234        0.143        0.050       43.126       11.126        0.067      333.302        2.527      868.346
01/07/2021  04:12:00       29.075       27.222        0.114       26.941       17.989       11.767      725.812      323.621      138.472        0.139        0.059       39.830       10.339        0.067      333.332        2.576      868.335
01/07/2021  04:13:00       42.243       35.826       -5.906       22.724       15.710       12.028      516.385      246.809      144.681        0.201        0.045       55.389        6.963        0.016      333.317        2.552      868.334
01/07/2021  04:14:00       11.622       21.460        0.978       26.064       21.524       14.431      679.325      463.273      208.253        0.097        0.068       24.405        8.968        0.135      333.271        2.476      868.333
01/07/2021  04:15:00      -20.662       17.548       -2.509       23.603       13.689       11.214      557.082      187.375      125.760        0.081        0.044       27.108        7.968        0.086      333.201        2.360      868.340
01/07/2021  04:16:00      -23.808       19.125       -2.607       11.745       11.427        6.620      137.952      130.578       43.820        0.063        0.016       30.538        8.603        0.079      333.027        2.074      868.352
01/07/2021  04:17:00       -7.055       26.570        5.505       13.501       19.127       10.692      182.290      365.856      114.322        0.072        0.033       27.490       13.844        0.254      333.139        2.258      868.349
01/07/2021  04:18:00       25.936       22.637        0.523       31.844       23.994       17.149     1014.052      575.722      294.076        0.153        0.094       34.425       16.413        0.227      333.214        2.382      868.329
01/07/2021  04:19:00       53.537       35.056        2.428       28.922       21.819       19.555      836.469      476.089      382.389        0.290        0.085       63.993       13.040        0.042      333.215        2.385      868.315
01/07/2021  04:20:00       33.377       31.802        5.171       30.643       27.814       14.083      938.984      773.624      198.335        0.203        0.096       46.102        6.022        0.017      332.963        1.967      868.328
01/07/2021  04:21:00       71.931       48.901       -0.349       29.084       24.797       18.747      845.889      614.903      351.439        0.469        0.091       86.979       10.676        0.015      332.916        1.889      868.347
01/07/2021  04:22:00       27.390       17.576        7.154       37.841       38.653       22.543     1431.974     1494.041      508.200        0.227        0.172       32.544       17.519        0.290      332.730        1.584      868.378
01/07/2021  04:23:00       50.795      -44.570      -20.114       31.052       36.314       20.831      964.211     1318.671      433.938        0.384        0.136       67.576       12.850        0.036      332.734        1.590      868.392
01/07/2021  04:24:00        8.571      -26.119       -0.726       38.989       25.730       19.518     1520.157      662.043      380.947        0.166        0.128       27.489       19.162        0.486      332.746        1.608      868.395
01/07/2021  04:25:00        8.034        1.751        8.968       30.137       31.182       20.733      908.264      972.301      429.838        0.123        0.116        8.222       19.816        5.808      332.916        1.890      868.399
01/07/2021  04:26:00      -25.759       28.030        2.340       34.576       32.170       21.347     1195.514     1034.914      455.703        0.207        0.134       38.068       19.219        0.255      333.199        2.358      868.398
01/07/2021  04:27:00      -18.087       44.103        2.063       27.105       41.639       14.776      734.658     1733.807      218.333        0.248        0.134       47.668       10.921        0.052      333.092        2.181      868.402
01/07/2021  04:28:00      -63.012       63.249      -10.258       26.840       35.058       18.933      720.365     1229.069      358.469        0.519        0.115       89.281       17.670        0.039      333.000        2.029      868.390
01/07/2021  04:29:00      -69.661       27.299       -6.084       18.994       17.091       11.530      360.784      292.099      132.936        0.321        0.039       74.819        8.346        0.012      332.636        1.428      868.346
01/07/2021  04:30:00      -79.713       18.618       -5.459       20.746       24.882       13.536      430.399      619.132      183.228        0.398        0.062       81.859       11.976        0.021      332.454        1.128      868.317
01/07/2021  04:31:00      -87.479        8.539        2.601       63.490       41.514       28.337     4030.985     1723.445      802.992        0.714        0.328       87.895       32.216        0.134      332.320        0.906      868.293
01/07/2021  04:32:00     -107.601       25.547        2.048       36.557       31.501       23.761     1336.389      992.320      564.591        0.756        0.145      110.592       22.299        0.041      332.356        0.966      868.277
01/07/2021  04:33:00      -66.898       35.392        6.905       34.869       34.862       20.903     1215.828     1215.384      436.930        0.432        0.143       75.683       19.679        0.068      332.493        1.193      868.263
01/07/2021  04:34:00      -78.139       11.640        4.738       26.016       29.071       16.433      676.808      845.123      270.052        0.403        0.090       79.001       17.512        0.049      332.607        1.380      868.249
01/07/2021  04:35:00      -31.280        6.216        5.929       28.921       38.238       26.629      836.399     1462.165      709.080        0.203        0.150       31.892       21.093        0.437      332.416        1.063      868.239
01/07/2021  04:36:00      -25.215       11.907        7.437       59.117       43.038       29.225     3494.771     1852.293      854.091        0.352        0.310       27.885       27.401        0.966      332.426        1.079      868.224
01/07/2021  04:37:00      -71.756      -18.572        0.197       53.819       40.969       36.270     2896.459     1678.431     1315.480        0.569        0.295       74.120       32.386        0.191      332.415        1.063      868.210
01/07/2021  04:38:00      -59.857       -4.474        2.175       42.186       41.914       28.203     1779.627     1756.777      795.381        0.397        0.217       60.024       26.528        0.195      332.379        1.003      868.210
01/07/2021  04:39:00      -96.395        5.003        2.692       46.673       30.116       17.552     2178.330      906.992      308.089        0.636        0.170       96.525       21.542        0.050      332.464        1.143      868.199
01/07/2021  04:40:00      -25.404       -0.319        2.591       36.380       32.726       26.070     1323.498     1071.008      679.654        0.186        0.154       25.406       22.097        0.756      332.496        1.198      868.201
01/07/2021  04:41:00        0.810       10.849        9.067       35.517       41.052       29.130     1261.477     1685.249      848.533        0.200        0.190       10.879       28.024        6.635      332.556        1.295      868.215
01/07/2021  04:42:00       -0.942       -0.751        4.638       40.766       34.935       23.128     1661.882     1220.461      534.913        0.172        0.171        1.205       24.853      425.316      332.705        1.542      868.233
01/07/2021  04:43:00      -19.998      -19.284        0.631       35.223       32.347       22.538     1240.632     1046.348      507.954        0.178        0.140       27.781       22.570        0.660      332.814        1.722      868.257
01/07/2021  04:44:00       31.977      -26.722       -9.928       39.482       32.291       22.594     1558.816     1042.699      510.482        0.247        0.156       41.672       21.895        0.276      332.667        1.478      868.286
01/07/2021  04:45:00       30.020       -5.806        1.870       42.917       40.564       28.295     1841.853     1645.468      800.588        0.261        0.214       30.577       29.363        0.922      332.589        1.350      868.304
01/07/2021  04:46:00       19.263      -13.570       -1.434       37.672       31.717       25.414     1419.153     1005.971      645.851        0.181        0.154       23.563       23.316        0.979      332.621        1.403      868.313
01/07/2021  04:47:00      -34.217       11.685       -1.179       40.262       42.781       31.067     1620.992     1830.177      965.177        0.286        0.221       36.157       32.569        0.811      332.752        1.619      868.329
01/07/2021  04:48:00      -68.064      -37.380        8.773       49.198       54.885       27.185     2420.446     3012.323      739.034        0.614        0.309       77.653       28.030        0.130      332.741        1.600      868.334
01/07/2021  04:49:00      -30.922      -16.506        2.409       45.136       65.721       25.862     2037.232     4319.226      668.854        0.413        0.351       35.052       29.199        0.694      332.748        1.613      868.339
01/07/2021  04:50:00        0.510       18.633        5.793       20.253       36.047       19.051      410.173     1299.419      362.926        0.123        0.104       18.640       26.082        1.958      332.530        1.253      868.342
01/07/2021  04:51:00       -6.263       35.597        2.559       24.553       30.005       17.442      602.828      900.298      304.232        0.156        0.090       36.144       21.087        0.340      332.425        1.079      868.338
01/07/2021  04:52:00       -0.348       43.407        3.624      146.331       36.998       72.765    21412.712     1368.870     5294.681        1.498        1.404       43.408       98.623        5.162      332.593        1.359      868.327
01/07/2021  04:53:00      -12.783       55.570        7.216       23.626       38.362       20.625      558.200     1471.635      425.387        0.288        0.123       57.021       27.586        0.234      332.552        1.289      868.315
01/07/2021  04:54:00       -8.902       66.071        9.442       29.340       37.853       23.102      860.814     1432.877      533.708        0.368        0.141       66.668       27.266        0.167      332.540        1.269      868.303
01/07/2021  04:55:00      -49.820       61.094       -0.260       25.257       36.792       19.426      637.910     1353.632      377.361        0.429        0.118       78.832       26.502        0.113      332.310        0.891      868.275
01/07/2021  04:56:00      -80.666       28.597       -3.122       26.113       36.700       22.327      681.898     1346.887      498.494        0.493        0.126       85.585       27.663        0.104      331.979        0.343      868.246
01/07/2021  04:57:00     -117.141       41.156       -5.833       29.778       40.562       23.637      886.750     1645.308      558.708        0.927        0.155      124.161       29.827        0.058      331.901        0.216      868.223
01/07/2021  04:58:00      -58.495       21.481       -0.287       63.370       55.156       33.556     4015.766     3042.148     1126.034        0.603        0.409       62.315       37.230        0.357      331.722       -0.081      868.204
01/07/2021  04:59:00     -107.963       30.371       -0.636       40.836       51.189       31.867     1667.574     2620.333     1015.525        0.894        0.265      112.153       30.025        0.072      331.709       -0.101      868.194
01/07/2021  05:00:00     -108.041       38.636       -4.592       48.273       55.114       33.286     2330.263     3037.552     1107.946        0.983        0.324      114.741       36.260        0.100      331.734       -0.060      868.182
01/07/2021  05:01:00     -112.094       77.156       -6.193       50.833       61.063       29.460     2584.019     3728.647      867.903        1.287        0.359      136.081       28.839        0.045      332.100        0.543      868.166
01/07/2021  05:02:00     -120.266       48.026      -15.734       40.077       49.960       28.297     1606.171     2495.965      800.695        1.096        0.245      129.500       29.022        0.050      331.969        0.327      868.158
01/07/2021  05:03:00      -85.666       38.338        5.073       41.890       48.584       30.247     1754.740     2360.365      914.895        0.693        0.252       93.853       32.077        0.117      331.934        0.270      868.153
01/07/2021  05:04:00      -88.200       53.867        9.019       46.134       56.190       32.025     2128.316     3157.278     1025.625        0.854        0.316      103.349       37.056        0.129      332.002        0.382      868.167
01/07/2021  05:05:00      -81.758       52.019       -9.415      154.629       56.507       79.502    23910.137     3193.060     6320.545        2.144        1.671       96.903      100.486        1.075      331.970        0.331      868.198
01/07/2021  05:06:00      -63.866       83.000      -16.765      305.521       55.795      152.820    93343.210     3113.041    23354.054        6.550        5.991      104.728      210.988        4.059      331.964        0.322      868.234
01/07/2021  05:07:00      -51.745       54.353        5.256       48.660       50.487       33.987     2367.792     2548.911     1155.142        0.586        0.304       75.045       33.349        0.197      331.778        0.013      868.277
01/07/2021  05:08:00       17.402       38.021       -1.621      251.142       50.279      124.183    63072.208     2527.957    15421.413        4.137        4.051       41.814      171.899       16.900      331.909        0.231      868.320
01/07/2021  05:09:00      -19.737       20.994       -1.375      156.093       50.847       79.813    24364.907     2585.443     6370.106        1.707        1.666       28.815      100.277       12.111      332.063        0.481      868.343
01/07/2021  05:10:00      -88.673       94.421       -1.086       44.005       53.718       29.701     1936.476     2885.601      882.149        1.124        0.285      129.531       30.936        0.057      331.932        0.265      868.364
01/07/2021  05:11:00      -24.571       27.344        3.710       75.700       54.705       34.104     5730.451     2992.660     1163.088        0.562        0.494       36.762       36.528        0.987      331.884        0.186      868.369
01/07/2021  05:12:00      -42.887       40.269       -2.185      167.064       56.050       82.064    27910.445     3141.569     6734.555        2.062        1.889       58.829      105.887        3.240      331.884        0.189      868.377
01/07/2021  05:13:00       27.978       35.826       -2.233      255.312       50.438      128.296    65184.188     2544.001    16459.868        4.311        4.209       45.456      175.536       14.912      331.764       -0.008      868.377
01/07/2021  05:14:00       46.004       26.661      -11.239      309.847       55.419      151.063    96005.376     3071.271    22820.087        6.240        6.095       53.171      210.797       15.717      331.634       -0.223      868.372
01/07/2021  05:15:00       66.609       33.672      -31.600      466.509       57.204      222.276   217630.230     3272.283    49406.435       13.838       13.515       74.636      318.232       18.180      331.746       -0.032      868.353
01/07/2021  05:16:00      -16.223       31.752      -21.264      207.965       71.323      100.210    43249.514     5086.927    10042.067        3.004        2.919       35.656      134.663       14.264      331.593       -0.290      868.345
01/07/2021  05:17:00      -26.167       52.152       -9.595      284.241       67.090      143.407    80792.689     4501.131    20565.668        5.466        5.293       58.349      191.635       10.787      331.619       -0.245      868.338
01/07/2021  05:18:00      -65.464       55.390        0.120       58.592       61.421       42.316     3433.074     3772.527     1790.660        0.817        0.450       85.753       42.017        0.240      331.467       -0.499      868.326
01/07/2021  05:19:00      -38.844       42.624       -4.200      212.025       65.595      106.699    44954.660     4302.680    11384.685        3.198        3.032       57.668      140.004        5.894      331.580       -0.311      868.318
01/07/2021  05:20:00      -79.269       52.640        1.604      178.172       59.697       90.067    31745.286     3563.700     8112.009        2.623        2.171       95.156      116.213        1.492      331.646       -0.202      868.322
01/07/2021  05:21:00      -22.323       29.697       10.113      129.788       63.999       72.254    16844.884     4095.935     5220.662        1.382        1.308       37.152       82.807        4.968      331.645       -0.207      868.332
01/07/2021  05:22:00      -24.134       15.122        2.045      140.358       62.656       73.281    19700.409     3925.791     5370.145        1.490        1.450       28.480       89.596        9.897      331.654       -0.192      868.346
01/07/2021  05:23:00       42.527       -6.353      -12.500      226.693       55.648      107.847    51389.589     3096.735    11631.059        3.405        3.306       42.999      149.139       12.030      331.825        0.092      868.377
01/07/2021  05:24:00      120.763       16.028      -26.519      418.854       59.110      207.356   175438.497     3493.954    42996.633       11.869       11.096      121.822      290.512        5.687      332.129        0.596      868.403
01/07/2021  05:25:00      118.601        9.440      -41.161      445.024       61.688      212.649   198046.652     3805.460    45219.418       13.141       12.354      118.977      304.273        6.540      332.157        0.644      868.430
01/07/2021  05:26:00      118.125       22.829      -31.674      462.527       52.028      228.647   213931.398     2706.942    52279.500       14.214       13.446      120.311      322.674        7.193      332.155        0.641      868.451
01/07/2021  05:27:00       54.673       35.112        4.070       95.860       55.388       53.667     9189.078     3067.868     2880.150        0.968        0.757       64.977       59.216        0.831      331.888        0.195      868.462
01/07/2021  05:28:00      142.666       23.419      -38.950      381.222       61.044      182.849   145330.219     3726.427    33433.704       10.242        9.125      144.575      257.808        3.180      331.742       -0.041      868.472
01/07/2021  05:29:00       88.615        7.080      -14.114      313.766       61.477      154.890    98449.021     3779.477    23990.931        6.714        6.311       88.897      215.304        5.866      331.875        0.175      868.470
01/07/2021  05:30:00       -9.295        1.940       -2.701      164.601       46.109       83.839    27093.443     2126.069     7029.005        1.817        1.812        9.496      110.680      135.854      331.672       -0.161      868.462
01/07/2021  05:31:00        8.450       42.113       10.466       49.118       52.325       36.031     2412.617     2737.891     1298.228        0.420        0.322       42.953       39.136        0.830      331.439       -0.544      868.438
01/07/2021  05:32:00       -1.552       57.047        5.817      181.308       60.661       86.435    32872.677     3679.710     7470.951        2.365        2.201       57.068      114.975        4.059      331.533       -0.390      868.421
01/07/2021  05:33:00      -51.850       54.280       -2.811      207.458       63.270       94.623    43038.682     4003.096     8953.459        3.081        2.800       75.065      130.491        3.022      331.451       -0.524      868.400
01/07/2021  05:34:00      -64.144       62.019      -13.646      325.987       55.287      159.181   106267.766     3056.648    25338.722        7.138        6.733       89.224      222.980        6.246      331.474       -0.485      868.379
01/07/2021  05:35:00      -97.928       54.821        0.124      215.504       53.184      108.694    46441.841     2828.492    11814.341        3.683        3.054      112.229      144.216        1.651      331.613       -0.257      868.353
01/07/2021  05:36:00      -53.448       49.663       -1.283      235.398       49.124      118.215    55411.987     2413.127    13974.767        3.855        3.590       72.960      160.568        4.843      331.699       -0.117      868.338
01/07/2021  05:37:00      -56.090       26.521      -13.586      236.825       54.985      114.242    56086.200     3023.325    13051.268        3.808        3.608       62.044      156.354        6.351      331.532       -0.389      868.336
01/07/2021  05:38:00     -158.448       53.135       -3.650       47.370       57.714       37.701     2243.930     3330.899     1421.331        1.747        0.350      167.120       38.906        0.054      331.446       -0.533      868.336
01/07/2021  05:39:00     -109.119       60.100       -2.322      246.185       59.067      118.724    60607.074     3488.875    14095.355        4.684        3.910      124.575      160.458        1.659      331.403       -0.603      868.340
01/07/2021  05:40:00     -138.883       74.335       17.202       51.305       65.542       38.990     2632.196     4295.763     1520.216        1.678        0.422      157.525       43.606        0.077      331.309       -0.759      868.347
01/07/2021  05:41:00      -97.615       57.054        3.147       58.714       59.494       37.110     3447.350     3539.572     1377.160        1.058        0.418      113.065       40.500        0.128      331.310       -0.757      868.364
01/07/2021  05:42:00      -49.004       25.612       19.245       58.171       66.831       40.072     3383.832     4466.385     1605.756        0.644        0.473       55.293       43.527        0.620      331.322       -0.738      868.395
01/07/2021  05:43:00      -56.249       -4.584        0.287      223.029       67.153      113.018    49742.152     4509.568    12772.962        3.509        3.351       56.435      146.681        6.755      331.550       -0.361      868.433
01/07/2021  05:44:00      -58.091       45.273        6.349      235.057       67.362      116.436    55251.768     4537.605    13557.340        3.939        3.667       73.649      151.396        4.226      331.651       -0.195      868.468
01/07/2021  05:45:00     -126.711      -52.324       -7.314      191.846       61.671       93.459    36804.979     3803.259     8734.660        3.408        2.467      137.089      118.555        0.748      331.498       -0.448      868.498
01/07/2021  05:46:00     -115.366       36.074       14.565       61.002       74.131       44.710     3721.288     5495.336     1999.028        1.302        0.561      120.874       47.014        0.151      331.403       -0.605      868.532
01/07/2021  05:47:00     -148.058      -12.514        5.141      205.340       92.140      101.897    42164.473     8489.850    10382.926        4.156        3.052      148.586      123.252        0.688      331.333       -0.719      868.547
01/07/2021  05:48:00      -88.794        3.754        1.027      210.945       65.700      106.813    44497.820     4316.524    11408.985        3.405        3.011       88.874      129.720        2.130      331.279       -0.808      868.558
01/07/2021  05:49:00     -116.794       29.528        3.942      179.468       67.265       86.349    32208.933     4524.550     7456.075        2.935        2.209      120.469      105.944        0.773      331.239       -0.874      868.558
01/07/2021  05:50:00     -133.392        1.286       -2.662      380.890       79.553      179.537   145076.862     6328.641    32233.683       10.068        9.182      133.398      249.302        3.493      331.397       -0.613      868.547
01/07/2021  05:51:00     -149.610       17.669      -10.964      412.386       78.548      201.352   170062.531     6169.799    40542.686       11.975       10.839      150.650      278.712        3.423      331.504       -0.436      868.526
01/07/2021  05:52:00     -162.903       -4.758       12.173      101.275       82.290       54.270    10256.635     6771.700     2945.231        2.334        0.999      162.973       54.332        0.111      331.209       -0.925      868.490
01/07/2021  05:53:00     -146.933       -3.167      -10.894      358.324       81.296      158.852   128396.055     6609.026    25233.978        9.095        8.012      146.967      224.503        2.334      331.470       -0.494      868.454
01/07/2021  05:54:00     -153.520       -8.909        6.936      180.042       72.964       80.395    32414.975     5323.741     6463.399        3.394        2.210      153.778       89.982        0.342      331.299       -0.776      868.430
01/07/2021  05:55:00      -79.677      -16.065       -2.840      304.270       87.563      146.268    92580.345     7667.220    21394.232        6.410        6.082       81.281      192.634        5.617      331.288       -0.791      868.409
01/07/2021  05:56:00     -152.053       -6.556       -3.366      299.463       68.068      145.699    89678.158     4633.223    21228.175        6.933        5.777      152.195      190.659        1.569      331.413       -0.588      868.400
01/07/2021  05:57:00     -156.108        5.639       -3.193      291.521       66.779      140.082    84984.757     4459.476    19623.082        6.672        5.453      156.210      190.017        1.480      331.308       -0.760      868.399
01/07/2021  05:58:00     -139.912      -18.594       -8.461      310.213       73.520      150.582    96232.391     5405.233    22674.830        7.213        6.216      141.142      201.567        2.040      331.390       -0.625      868.430
01/07/2021  05:59:00     -126.604       14.579       -5.370      335.114       67.539      153.574   112301.516     4561.565    23584.879        7.833        7.022      127.440      214.745        2.839      331.497       -0.447      868.446
01/07/2021  06:00:00     -143.030        9.371        3.031      151.930       75.860       79.845    23082.649     5754.683     6375.156        2.788        1.761      143.337       82.984        0.335      331.417       -0.581      868.469
01/07/2021  06:01:00     -126.779       39.915        7.006      260.815       65.509      126.445    68024.404     4291.476    15988.334        5.299        4.415      132.914      167.916        1.596      331.525       -0.401      868.493
01/07/2021  06:02:00     -102.768       26.498       -6.594      346.973       61.475      162.956   120389.969     3779.115    26554.759        8.098        7.536      106.129      229.434        4.674      331.510       -0.425      868.512
01/07/2021  06:03:00     -107.829       43.102       26.937      183.944       71.412       89.750    33835.505     5099.667     8055.057        3.059        2.350      116.125      113.088        0.948      331.402       -0.605      868.545
01/07/2021  06:04:00     -143.560       20.848        1.659      285.482       63.742      143.153    81500.192     4063.018    20492.788        6.353        5.303      145.065      191.537        1.743      331.491       -0.459      868.573
01/07/2021  06:05:00     -131.269       49.962       13.945      255.375       62.569      119.149    65216.350     3914.852    14196.593        5.161        4.166      140.456      158.778        1.278      331.483       -0.472      868.587
01/07/2021  06:06:00     -136.351       32.291       26.000      180.819       70.310       86.222    32695.691     4943.509     7434.163        3.268        2.254      140.122      104.053        0.551      331.472       -0.490      868.590
01/07/2021  06:07:00     -142.595       19.385       -3.838      312.298       64.062      154.032    97530.214     4103.991    23725.843        7.302        6.268      143.907      209.572        2.121      331.605       -0.271      868.578
01/07/2021  06:08:00      -46.290       14.655      -16.009      382.841       54.542      190.984   146567.488     2974.812    36474.938        9.428        9.301       48.554      263.328       29.413      331.560       -0.341      868.565
01/07/2021  06:09:00      -44.277       55.227       -5.856      443.113       58.434      206.010   196349.540     3414.572    42440.243       12.357       12.110       70.785      293.025       17.137      331.531       -0.388      868.552
01/07/2021  06:10:00      -72.930       32.828       17.889      293.918       66.718      139.308    86387.752     4451.261    19406.673        5.846        5.512       79.978      187.515        5.497      331.299       -0.772      868.534
01/07/2021  06:11:00      -33.579       41.324      -29.235      470.571       69.500      231.050   221436.854     4830.303    53383.955       14.161       13.983       53.247      321.359       36.425      331.484       -0.464      868.526
01/07/2021  06:12:00     -146.088       33.956       11.145      243.029       68.005      116.694    59062.971     4624.748    13617.386        4.995        3.865      149.982      152.076        1.028      331.257       -0.845      868.504
01/07/2021  06:13:00      -17.939       44.492      -28.083      529.822       62.987      245.480   280710.854     3967.360    60260.565       17.394       17.247       47.973      353.546       54.313      331.559       -0.339      868.476
01/07/2021  06:14:00      -55.769       26.802       18.351      197.999       59.815       85.305    39203.558     3577.796     7276.858        2.710        2.503       61.875      109.870        3.153      331.382       -0.637      868.451
01/07/2021  06:15:00       64.449       39.913      -28.917      491.843       61.390      241.322   241909.740     3768.791    58236.435       15.519       15.196       75.807      339.348       20.039      331.738       -0.045      868.452
01/07/2021  06:16:00      -18.585       29.283        4.995      306.874       63.577      151.758    94171.440     4042.046    23030.360        6.121        6.062       34.683      208.372       36.095      331.458       -0.510      868.469
01/07/2021  06:17:00      -30.919       53.263       14.083      205.638       59.277      101.884    42286.831     3513.733    10380.299        3.007        2.809       61.587      133.855        4.724      331.377       -0.646      868.496
01/07/2021  06:18:00     -126.825       88.484      -16.950      327.385       60.683      158.489   107181.201     3682.379    25118.830        8.006        6.799      154.641      221.695        2.055      331.549       -0.361      868.539
01/07/2021  06:19:00      -69.183       64.146      -10.502      263.004       61.192      124.186    69170.999     3744.495    15422.263        4.866        4.417       94.345      172.724        3.352      331.411       -0.589      868.564
01/07/2021  06:20:00       98.755       42.427      -27.653      541.580       63.112      264.906   293308.937     3983.156    70175.341       18.982       18.373      107.483      375.183       12.184      331.727       -0.062      868.581
01/07/2021  06:21:00       38.501       58.147       -6.172      291.097       68.691      150.217    84737.188     4718.444    22565.273        5.844        5.601       69.738      201.334        8.335      331.640       -0.210      868.584
01/07/2021  06:22:00        2.126       74.859       -4.734      313.183       57.140      147.673    98083.424     3264.972    21807.228        6.437        6.158       74.890      209.986        7.862      331.633       -0.222      868.588
01/07/2021  06:23:00      150.793       35.721      -37.838      575.516       56.572      278.729   331219.070     3200.413    77689.578       21.869       20.605      154.966      397.777        6.589      331.872        0.179      868.600
01/07/2021  06:24:00       57.412       27.192        3.543      251.090       50.993      117.505    63045.970     2600.285    13807.347        4.173        3.973       63.526      166.162        6.842      331.647       -0.201      868.606
01/07/2021  06:25:00       93.902       37.108      -15.014      409.907       57.476      192.494   168024.009     3303.494    37054.023       10.936       10.419      100.968      276.526        7.501      331.914        0.243      868.615
01/07/2021  06:26:00      141.744       30.723      -35.470      461.314       60.000      223.788   212811.028     3600.044    50081.086       14.434       13.325      145.035      317.430        4.790      331.688       -0.130      868.627
01/07/2021  06:27:00       67.111       23.414       -1.767      331.397       63.064      156.391   109823.652     3977.113    24458.301        7.163        6.913       71.078      221.675        9.727      331.549       -0.359      868.635
01/07/2021  06:28:00       84.755       11.260       -9.902      347.934       65.583      163.166   121057.922     4301.141    26623.165        7.966        7.599       85.499      232.420        7.390      331.664       -0.170      868.648
01/07/2021  06:29:00       81.879        1.667      -11.922      321.022       53.456      152.420   103054.902     2857.558    23231.750        6.797        6.457       81.896      216.961        7.018      331.584       -0.303      868.673
01/07/2021  06:30:00      187.824       11.211      -57.469      621.525       57.405      291.397   386293.532     3295.320    84912.205       25.651       23.725      188.158      422.817        5.050      331.992        0.378      868.700
01/07/2021  06:31:00      145.811       40.853      -28.842      475.397       59.576      230.130   226001.833     3549.294    52959.644       15.308       14.126      151.426      327.365        4.674      331.598       -0.276      868.735
01/07/2021  06:32:00      128.592       32.350      -20.513      465.662       64.678      221.904   216841.115     4183.229    49241.389       14.408       13.513      132.598      316.609        5.701      331.617       -0.246      868.753
01/07/2021  06:33:00      104.899       40.635      -11.351      326.342       71.227      159.633   106499.420     5073.223    25482.562        7.489        6.853      112.495      221.027        3.860      331.347       -0.693      868.755
01/07/2021  06:34:00      191.349       39.800      -53.579      586.863       60.077      268.790   344407.756     3609.211    72248.143       23.058       21.013      195.445      394.335        4.071      331.560       -0.336      868.734
01/07/2021  06:35:00       60.170        4.633       -3.830      301.884       59.223      147.515    91134.195     3507.411    21760.741        6.001        5.820       60.348      205.605       11.608      331.375       -0.648      868.705
01/07/2021  06:36:00       30.341       29.002        5.692      179.047       58.117       91.501    32057.656     3377.573     8372.481        2.279        2.190       41.972      118.944        8.031      331.319       -0.743      868.678
01/07/2021  06:37:00       79.651       14.595      -18.774      407.837       56.595      195.719   166331.246     3203.034    38305.861       10.733       10.392       80.977      278.823       11.856      331.539       -0.376      868.665
01/07/2021  06:38:00       97.537       12.009       -3.582      322.490       61.569      151.135   104000.088     3790.748    22841.698        7.012        6.532       98.274      214.721        4.774      331.507       -0.429      868.653
01/07/2021  06:39:00       82.007       36.436       -7.401      376.008       54.435      184.390   141381.942     2963.199    33999.840        9.319        8.917       89.736      259.629        8.371      331.422       -0.569      868.659
01/07/2021  06:40:00       50.338       43.702       10.671       47.447       59.550       40.060     2251.182     3546.163     1604.839        0.598        0.370       66.662       40.831        0.375      331.199       -0.941      868.663
01/07/2021  06:41:00       18.761       12.412       10.179      118.398       52.450       61.244    14018.084     2750.956     3750.787        1.056        1.026       22.495       74.994       11.114      331.429       -0.562      868.666
01/07/2021  06:42:00      135.700        1.355      -44.214      543.920       53.478      264.304   295848.591     2859.901    69856.857       19.439       18.428      135.706      376.028        7.678      331.884        0.198      868.655
01/07/2021  06:43:00       50.638       44.195        8.539      267.333       56.468      133.802    71466.861     3188.613    17903.009        4.856        4.628       67.212      183.094        7.421      331.345       -0.697      868.627
01/07/2021  06:44:00       68.283       36.877       -4.733      329.273       56.574      151.273   108420.566     3200.666    22883.414        7.025        6.725       77.605      218.147        7.902      331.245       -0.861      868.608
01/07/2021  06:45:00       19.441       28.600       10.082       59.762       56.580       40.170     3571.465     3201.257     1613.633        0.484        0.419       34.582       41.758        1.458      331.261       -0.837      868.590
01/07/2021  06:46:00       13.629       29.624       10.427      182.116       59.081       91.179    33166.280     3490.612     8313.633        2.306        2.249       32.608      120.146       13.576      331.334       -0.716      868.573
01/07/2021  06:47:00       29.606       20.790       -4.526      237.319       54.572      117.214    56320.387     2978.050    13739.078        3.717        3.652       36.177      160.457       19.672      331.398       -0.611      868.551
01/07/2021  06:48:00       29.028       32.254        7.378      183.094       52.069       93.864    33523.417     2711.162     8810.439        2.348        2.252       43.393      123.399        8.087      331.374       -0.651      868.531
01/07/2021  06:49:00       49.081       36.330       -3.690      306.345       60.662      141.754    93847.317     3679.912    20094.265        6.066        5.881       61.065      203.748       11.133      331.405       -0.598      868.506
01/07/2021  06:50:00       55.160        6.737        1.878      253.831       59.363      126.213    64430.309     3524.001    15929.728        4.347        4.194       55.569      172.002        9.581      331.492       -0.456      868.507
01/07/2021  06:51:00      113.337       41.741      -24.486      541.275       56.175      261.320   292979.058     3155.671    68288.068       18.973       18.221      120.779      373.227        9.549      331.671       -0.155      868.518
01/07/2021  06:52:00       55.263       65.136        1.007      300.603       60.362      146.880    90362.228     3643.560    21573.842        6.142        5.779       85.421      202.993        5.647      331.309       -0.755      868.549
01/07/2021  06:53:00      147.681       -2.420      -41.962      530.637       56.936      253.650   281575.730     3241.729    64338.132       18.629       17.458      147.701      363.943        6.072      331.823        0.095      868.582
01/07/2021  06:54:00       81.651       -1.128      -23.839      393.548       60.536      179.649   154880.361     3664.624    32273.835        9.899        9.541       81.658      260.821       10.202      331.549       -0.359      868.608
01/07/2021  06:55:00      205.315       24.590      -72.862      700.172       56.144      336.142   490241.170     3152.201   112991.412       32.710       30.319      206.782      482.618        5.447      331.971        0.347      868.632
01/07/2021  06:56:00      149.538        0.773      -32.870      515.950       57.264      250.619   266204.561     3279.126    62810.093       17.780       16.615      149.540      356.438        5.681      331.697       -0.112      868.644
01/07/2021  06:57:00      150.896       41.456      -35.206      569.852       66.648      275.402   324731.011     4441.910    75846.520       21.529       20.251      156.487      392.708        6.298      331.756       -0.012      868.658
01/07/2021  06:58:00      118.150       51.075      -42.149      564.296       60.758      266.874   318429.469     3691.553    71221.849       20.576       19.667      128.717      384.970        8.945      331.653       -0.180      868.674
01/07/2021  06:59:00      104.778       33.800      -29.297      485.737       56.816      223.633   235940.790     3228.002    50011.593       15.102       14.459      110.095      326.103        8.774      331.450       -0.520      868.680
01/07/2021  07:00:00       99.198       33.168      -28.995      487.276       57.513      230.692   237438.147     3307.751    53218.642       15.281       14.698      104.596      331.628       10.052      331.459       -0.503      868.685
01/07/2021  07:01:00      115.719       27.176      -42.323      590.236       55.321      272.066   348378.080     3060.438    74019.770       22.060       21.273      118.868      398.374       11.232      331.524       -0.392      868.690
01/07/2021  07:02:00      180.955       55.171      -52.961      592.573       49.222      280.486   351142.710     2422.825    78672.194       23.533       21.612      189.179      405.547        4.596      331.578       -0.305      868.700
01/07/2021  07:03:00      153.122       55.848      -34.399      553.728       59.150      260.682   306614.979     3498.701    67954.995       20.283       18.903      162.989      376.999        5.350      331.419       -0.567      868.697
01/07/2021  07:04:00      122.035       33.396      -53.120      534.623       50.934      248.537   285821.568     2594.307    61770.694       18.444       17.509      126.522      361.804        8.177      331.486       -0.459      868.683
01/07/2021  07:05:00      109.467       25.563      -44.586      533.974       56.026      256.674   285127.699     3138.927    65881.516       18.432       17.707      112.412      367.275       10.675      331.486       -0.459      868.672
01/07/2021  07:06:00       89.232        9.084      -23.127      443.041       61.616      223.184   196285.055     3796.559    49811.098       12.919       12.495       89.694      310.444       11.980      331.424       -0.565      868.654
01/07/2021  07:07:00      153.151        9.643      -38.783      542.666       55.188      261.361   294486.083     3045.703    68309.685       19.537       18.292      153.455      373.534        5.925      331.601       -0.269      868.643
01/07/2021  07:08:00       79.178       26.722      -21.401      387.014       54.795      186.915   149779.766     3002.498    34937.327        9.754        9.386       83.565      264.253       10.000      331.352       -0.683      868.649
01/07/2021  07:09:00       80.674       16.465      -28.877      461.145       60.536      225.618   212654.650     3664.556    50903.454       13.736       13.361       82.337      318.286       14.943      331.406       -0.592      868.651
01/07/2021  07:10:00       60.072       39.729       -8.479      332.877       52.974      160.557   110807.220     2806.231    25778.584        7.230        6.970       72.021      226.740        9.911      331.211       -0.918      868.647
01/07/2021  07:11:00      113.458       48.110      -38.087      520.914       56.912      256.511   271351.717     3238.974    65798.098       17.844       17.019      123.237      362.789        8.666      331.471       -0.482      868.651
01/07/2021  07:12:00      121.334       45.133      -17.206      461.003       59.672      217.814   212524.202     3560.693    47442.760       14.024       13.176      129.456      312.516        5.828      331.403       -0.597      868.644
01/07/2021  07:13:00       96.695       26.512      -31.364      489.004       54.523      237.209   239125.318     2972.735    56268.047       15.464       14.918      100.264      337.149       11.307      331.358       -0.670      868.633
01/07/2021  07:14:00       88.107       30.956      -52.065      585.384       54.677      280.567   342674.030     2989.576    78717.955       21.782       21.219       93.387      401.383       18.473      331.413       -0.577      868.627
01/07/2021  07:15:00      -11.563       31.424       -8.486      367.915       67.262      176.801   135361.605     4524.191    31258.725        8.613        8.557       33.484      249.785       55.649      331.042       -1.193      868.608
01/07/2021  07:16:00      -13.612       52.499        8.742      210.521       69.385      102.174    44319.156     4814.235    10439.538        3.128        2.979       54.234      134.347        6.136      330.701       -1.756      868.594
01/07/2021  07:17:00      125.377       27.642      -48.141      563.416       59.062      267.506   317438.081     3488.363    71559.305       20.556       19.624      128.388      384.348        8.962      331.075       -1.132      868.592
01/07/2021  07:18:00       46.657       38.376      -38.282      490.575       59.949      242.233   240663.788     3593.935    58676.913       15.396       15.147       60.412      341.290       31.916      330.883       -1.450      868.602
01/07/2021  07:19:00       57.034       15.330      -44.327      558.365       54.119      270.127   311770.915     2928.847    72968.431       19.648       19.383       59.059      385.465       42.600      330.921       -1.384      868.612
01/07/2021  07:20:00       59.901       28.983      -30.680      501.115       52.738      246.608   251116.685     2781.291    60815.364       15.998       15.736       66.544      347.006       27.193      330.826       -1.545      868.621
01/07/2021  07:21:00       53.790       35.215       -6.996      453.933       59.221      217.280   206054.781     3507.135    47210.491       13.043       12.839       64.292      309.047       23.106      330.937       -1.363      868.619
01/07/2021  07:22:00       62.383       18.223      -38.465      555.507       53.103      262.226   308587.678     2819.955    68762.542       19.286       19.009       64.990      378.067       33.841      331.089       -1.110      868.610
01/07/2021  07:23:00       56.805       22.591       -3.872      419.976       56.755      193.305   176379.733     3221.141    37366.754       11.032       10.848       61.132      278.782       20.796      330.817       -1.562      868.597
01/07/2021  07:24:00       -5.089       33.943       -6.123      358.358       64.611      169.225   128420.104     4174.600    28637.072        8.119        8.062       34.323      238.815       48.413      330.797       -1.596      868.589
01/07/2021  07:25:00       74.625       23.450      -39.773      565.214       60.025      266.337   319467.287     3603.034    70935.465       20.077       19.700       78.222      383.576       24.046      331.023       -1.218      868.589
01/07/2021  07:26:00       76.641       46.953      -38.555      562.031       63.879      276.821   315878.736     4080.495    76630.069       20.300       19.829       89.880      389.652       18.794      331.081       -1.123      868.605
01/07/2021  07:27:00      101.513       46.598      -43.252      584.214       62.889      280.838   341306.076     3955.070    78869.713       21.915       21.207      111.697      401.842       12.943      330.988       -1.275      868.620
01/07/2021  07:28:00      118.719        9.108      -42.938      554.448       63.477      265.730   307412.917     4029.369    70612.433       19.896       19.103      119.068      379.437       10.155      331.075       -1.133      868.632
01/07/2021  07:29:00       77.510       14.202      -15.426      414.777       58.671      197.959   172040.101     3442.333    39187.664       11.052       10.734       78.801      280.921       12.709      330.956       -1.334      868.656
01/07/2021  07:30:00       94.018       29.367      -40.460      510.739       53.321      250.617   260853.969     2843.099    62808.886       16.886       16.325       98.498      354.506       12.954      331.161       -0.994      868.674
01/07/2021  07:31:00       82.146       28.169      -26.800      476.457       56.349      228.168   227010.962     3175.233    52060.470       14.520       14.112       86.841      326.335       14.121      331.070       -1.143      868.690
01/07/2021  07:32:00       37.108       29.535      -11.495      415.879       60.533      201.129   172955.674     3664.283    40452.733       10.968       10.854       47.427      282.260       35.419      330.999       -1.262      868.695
01/07/2021  07:33:00       64.812       22.271      -25.131      474.563       56.099      226.980   225210.305     3147.118    51519.892       14.255       13.994       68.532      324.466       22.416      331.120       -1.063      868.696
01/07/2021  07:34:00      -48.103       49.152       23.458      177.781       68.524       83.616    31605.977     4695.521     6991.695        2.428        2.165       68.774      102.148        2.206      330.786       -1.618      868.694
01/07/2021  07:35:00       54.657       53.934      -40.305      603.723       63.401      290.453   364481.049     4019.665    84363.023       23.010       22.643       76.787      415.533       29.284      331.233       -0.871      868.693
01/07/2021  07:36:00      -15.276       78.961        7.709      277.771       60.487      138.674    77156.950     3658.686    19230.531        5.327        5.002       80.425      190.004        5.581      330.856       -1.501      868.688
01/07/2021  07:37:00       67.611       73.000      -52.566      574.295       58.640      274.085   329814.826     3438.593    75122.349       21.043       20.419       99.500      393.478       15.639      331.164       -0.987      868.676
01/07/2021  07:38:00       77.239       16.240      -12.829      472.755       65.720      227.299   223497.121     4319.058    51665.061       14.288       13.974       78.928      322.284       16.673      331.008       -1.245      868.673
01/07/2021  07:39:00       89.353       27.049      -24.917      434.586       70.070      213.062   188864.665     4909.812    45395.417       12.420       11.958       93.357      298.886       10.250      330.973       -1.305      868.680
01/07/2021  07:40:00      -87.237       19.595       15.983       52.038       65.730       41.231     2707.963     4320.492     1700.000        0.849        0.436       89.410       49.523        0.307      330.654       -1.835      868.693
01/07/2021  07:41:00      -26.889       55.107       11.163      163.305       62.610       82.348    26668.456     3920.065     6781.187        2.062        1.868       61.317       96.707        2.487      330.608       -1.910      868.713
01/07/2021  07:42:00       19.942       60.988      -20.855      373.086       57.140      180.499   139193.312     3264.972    32579.787        8.976        8.752       64.166      255.051       15.800      330.796       -1.598      868.731
01/07/2021  07:43:00       64.757       52.307      -40.266      468.408       53.168      229.590   219405.989     2826.842    52711.681       14.169       13.747       83.244      324.249       15.172      330.915       -1.398      868.736
01/07/2021  07:44:00        4.373       37.426      -11.904      350.478       58.936      168.941   122834.538     3473.470    28540.928        7.817        7.742       37.681      238.913       40.201      330.631       -1.869      868.732
01/07/2021  07:45:00      113.132       30.417      -53.944      553.424       52.476      267.978   306278.318     2753.695    71812.215       19.866       19.042      117.149      382.655       10.669      330.970       -1.305      868.714
01/07/2021  07:46:00       77.883       15.734      -27.187      386.935       50.834      186.553   149718.503     2584.140    34802.084        9.704        9.355       79.456      265.449       11.161      330.895       -1.436      868.688
01/07/2021  07:47:00       27.630       11.205       -8.710      206.378       44.369      102.156    42591.778     1968.584    10435.832        2.797        2.750       29.815      140.175       22.103      330.642       -1.854      868.667
01/07/2021  07:48:00        8.523       -3.188       -3.359      270.703       38.740      126.130    73280.254     1500.759    15908.763        4.537        4.534        9.099      180.938      395.403      330.603       -1.917      868.664
01/07/2021  07:49:00      -28.765        7.337       -0.943      178.955       43.934       87.538    32025.050     1930.214     7662.979        2.124        2.081       29.686      119.737       16.268      330.572       -1.968      868.685
01/07/2021  07:50:00       31.445       18.457       -0.804      241.710       33.725      116.960    58423.644     1137.360    13679.690        3.727        3.662       36.462      164.857       20.443      330.619       -1.890      868.715
01/07/2021  07:51:00       -8.565       13.055       -6.136      166.300       24.183       75.218    27655.570      584.797     5657.731        1.708        1.695       15.614      109.545       49.223      330.610       -1.906      868.739
01/07/2021  07:52:00      -12.849       15.937       -1.917      157.679       32.697       77.138    24862.605     1069.105     5950.331        1.615        1.594       20.471      106.532       27.081      330.696       -1.764      868.758
01/07/2021  07:53:00        2.750        3.591      -11.240      209.415       28.416       99.998    43854.544      807.483     9999.551        2.739        2.733        4.523      142.594      993.931      330.811       -1.577      868.773
01/07/2021  07:54:00       19.982        2.178      -14.324      321.180       22.006      155.222   103156.330      484.243    24093.831        6.414        6.387       20.100      222.453      122.485      330.989       -1.281      868.762
01/07/2021  07:55:00       27.392       -4.688       -9.881      263.446       23.583      126.697    69403.839      556.147    16052.066        4.342        4.301       27.790      180.587       42.228      331.041       -1.196      868.739
01/07/2021  07:56:00      -16.948       -8.949       -3.546      161.486       25.247       77.883    26077.791      637.414     6065.783        1.657        1.639       19.166      109.009       32.349      330.942       -1.361      868.706
01/07/2021  07:57:00       -3.802       -9.286        2.066      140.519       22.067       66.744    19745.535      486.956     4454.800        1.239        1.234       10.034       92.792       85.529      330.864       -1.490      868.690
01/07/2021  07:58:00        2.720        1.762        2.428      140.788       25.166       67.366    19821.290      633.344     4538.145        1.250        1.250        3.241       93.064      824.652      330.835       -1.538      868.673
01/07/2021  07:59:00       28.859      -10.693        1.570      169.450       17.678       80.508    28713.354      312.502     6481.492        1.822        1.775       30.776      115.388       14.057      330.929       -1.382      868.681
01/07/2021  08:00:00      -53.578       -0.651       -2.214       53.887       21.437       18.307     2903.837      459.566      335.131        0.329        0.185       53.582        7.894        0.022      330.699       -1.760      868.708
01/07/2021  08:01:00      -90.437       23.987       -0.056       51.921       42.793       24.053     2695.775     1831.215      578.548        0.693        0.255       93.564       22.203        0.056      330.574       -1.966      868.725
01/07/2021  08:02:00      -82.565       25.550       -6.537       45.723       32.896       24.912     2090.552     1082.121      620.607        0.565        0.190       86.428       18.505        0.046      330.550       -2.006      868.740
01/07/2021  08:03:00      -67.934       55.382      -16.994      153.337       25.551       74.484    23512.165      652.847     5547.931        1.884        1.486       87.648      104.796        1.430      330.612       -1.901      868.752
01/07/2021  08:04:00      -80.357        7.948      -16.318       47.102       23.837       23.254     2218.553      568.223      540.755        0.506        0.166       80.750       24.276        0.090      330.678       -1.795      868.757
01/07/2021  08:05:00      -33.293       -3.048      -19.625      267.397       21.679      125.952    71501.245      469.973    15863.915        4.465        4.392       33.432      181.210       29.378      330.775       -1.633      868.764
01/07/2021  08:06:00      -23.969        7.375      -12.469       41.797       24.551       18.344     1746.983      602.746      336.510        0.173        0.134       25.078       22.599        0.812      330.684       -1.785      868.768
01/07/2021  08:07:00        4.472      -13.570      -13.384       40.487       13.184       23.151     1639.157      173.810      535.955        0.137        0.117       14.288       26.394        3.413      330.793       -1.607      868.780
01/07/2021  08:08:00      -17.743       18.467       -6.542       28.200        9.133       13.630      795.235       83.420      185.783        0.088        0.053       25.609       15.271        0.356      330.724       -1.720      868.799
01/07/2021  08:09:00      -34.944       22.614      -10.338       42.085       16.719       21.819     1771.165      279.533      476.070        0.218        0.126       41.623       25.510        0.376      330.754       -1.671      868.815
01/07/2021  08:10:00      -33.630        5.615       -4.430       36.204       20.995       18.721     1310.705      440.773      350.479        0.164        0.105       34.096       15.721        0.213      330.835       -1.539      868.829
01/07/2021  08:11:00       -7.696       13.785       -1.822       38.153       23.342       21.993     1455.638      544.839      483.711        0.137        0.124       15.788        6.631        0.176      331.011       -1.249      868.836
01/07/2021  08:12:00      -32.210        7.684       -5.007       62.876       21.757       22.652     3953.438      473.354      513.108        0.303        0.247       33.114        8.846        0.071      330.915       -1.407      868.826
01/07/2021  08:13:00      -38.285       -4.928       -5.064       49.389       16.135       18.814     2439.244      260.325      353.976        0.228        0.153       38.601       15.089        0.153      330.998       -1.270      868.815
01/07/2021  08:14:00       -7.449       12.252       -0.039       27.327       13.738       17.155      746.768      188.722      294.280        0.072        0.061       14.339       12.712        0.786      331.083       -1.129      868.794
01/07/2021  08:15:00      -36.430        8.347       -8.888       42.534       16.859       22.172     1809.175      284.240      491.593        0.203        0.129       37.374        7.901        0.045      331.094       -1.113      868.773
01/07/2021  08:16:00        3.602      -17.640      -11.245       32.289       13.619       18.243     1042.599      185.469      332.793        0.101        0.078       18.004       16.997        0.891      331.209       -0.923      868.757
01/07/2021  08:17:00       11.339       12.579       -8.804       16.831        9.120       10.606      283.287       83.170      112.486        0.042        0.024       16.935        6.599        0.152      331.235       -0.879      868.734
01/07/2021  08:18:00       69.778       27.729       -7.208       23.848       18.389       11.517      568.740      338.139      132.639        0.336        0.052       75.086       10.380        0.019      331.263       -0.834      868.732
01/07/2021  08:19:00       82.697       14.329       -1.687       36.735       25.297       26.632     1349.446      639.957      709.254        0.487        0.135       83.929       18.699        0.050      331.270       -0.824      868.734
01/07/2021  08:20:00      109.112       27.422       -5.989       29.378       25.795       23.767      863.055      665.364      564.867        0.739        0.105      112.505       20.199        0.032      331.166       -0.996      868.733
01/07/2021  08:21:00       79.720       15.027       -7.761       42.433       35.757       21.312     1800.533     1278.528      454.187        0.509        0.177       81.124       16.527        0.042      331.276       -0.814      868.735
01/07/2021  08:22:00       54.969       22.368       -8.183       37.445       20.592       15.907     1402.153      424.032      253.022        0.283        0.104       59.345       17.605        0.088      331.302       -0.772      868.737
01/07/2021  08:23:00       42.398       38.817       -2.825       27.374       25.180       15.956      749.337      634.008      254.595        0.247        0.082       57.483       15.063        0.069      331.369       -0.659      868.732
01/07/2021  08:24:00       18.793       29.635       -0.994       36.583       15.140       18.246     1338.327      229.219      332.923        0.157        0.095       35.091       22.163        0.399      331.458       -0.515      868.729
01/07/2021  08:25:00        9.834       24.374       -0.301       34.575       10.419       17.838     1195.410      108.560      318.191        0.116        0.081       26.283       22.104        0.707      331.466       -0.501      868.723
01/07/2021  08:26:00       55.781       31.876      -10.413       22.871       11.966       11.992      523.087      143.197      143.801        0.252        0.041       64.246       12.951        0.041      331.447       -0.533      868.725
01/07/2021  08:27:00       66.606       26.940      -14.367       13.501       12.213       10.575      182.272      149.166      111.837        0.291        0.022       71.848        8.708        0.015      331.485       -0.470      868.736
01/07/2021  08:28:00       85.769       41.302      -10.062       28.162       18.117       18.089      793.074      328.231      327.201        0.531        0.072       95.195       19.929        0.044      331.510       -0.429      868.748
01/07/2021  08:29:00       90.429       56.661      -17.353       23.927       16.703       14.947      572.498      278.985      223.417        0.638        0.054      106.714       12.869        0.015      331.552       -0.358      868.761
01/07/2021  08:30:00       75.147       35.228      -17.845       28.568       38.226       16.417      816.153     1461.191      269.516        0.488        0.127       82.995       15.530        0.035      331.721       -0.080      868.778
01/07/2021  08:31:00       53.136       41.809      -13.077       40.295       38.990       16.906     1623.727     1520.191      285.806        0.409        0.171       67.612       12.418        0.034      331.710       -0.099      868.787
01/07/2021  08:32:00       65.530       31.905      -19.776       54.574       61.469       23.463     2978.361     3778.381      550.502        0.650        0.365       72.885       10.445        0.021      331.885        0.188      868.791
01/07/2021  08:33:00       99.417       60.898      -23.226       49.048       42.110       23.316     2405.711     1773.287      543.643        0.943        0.236      116.586       20.509        0.031      331.621       -0.245      868.797
01/07/2021  08:34:00       60.156        3.333      -14.420       50.479       43.622       32.849     2548.172     1902.878     1079.071        0.468        0.277       60.248       26.918        0.200      331.753       -0.029      868.800
01/07/2021  08:35:00       63.513       13.804       -3.592       56.369       48.202       27.516     3177.466     2323.410      757.135        0.525        0.313       64.996       23.449        0.130      331.701       -0.115      868.812
01/07/2021  08:36:00       71.982       52.094       -8.685       38.189       36.631       21.917     1458.381     1341.806      480.354        0.562        0.164       88.855       20.968        0.056      331.521       -0.411      868.821
01/07/2021  08:37:00       49.617       36.337      -18.012       38.975       37.735       25.508     1519.044     1423.917      650.654        0.385        0.180       61.500       15.941        0.067      331.684       -0.141      868.838
01/07/2021  08:38:00       72.546      -32.057      -23.879       33.095       52.079       23.184     1095.301     2712.210      537.500        0.560        0.217       79.313       17.615        0.049      331.805        0.058      868.858
01/07/2021  08:39:00       53.707       -9.666       -5.001       40.765       63.270       27.053     1661.809     4003.122      731.858        0.470        0.320       54.570       28.923        0.281      331.662       -0.179      868.875
01/07/2021  08:40:00       75.885      -13.007      -17.022       46.623       42.374       32.321     2173.674     1795.550     1044.628        0.561        0.251       76.992       33.780        0.193      331.620       -0.247      868.883
01/07/2021  08:41:00       35.051      -21.207      -20.081       54.749       53.795       29.354     2997.435     2893.927      861.671        0.442        0.338       40.967       21.474        0.275      331.841        0.116      868.889
01/07/2021  08:42:00       64.113       14.264      -20.677       56.748       46.674       38.663     3220.307     2178.481     1494.806        0.582        0.345       65.681       34.891        0.282      331.951        0.296      868.886
01/07/2021  08:43:00       64.743      -19.289      -19.748       52.438       46.579       38.629     2749.788     2169.613     1492.210        0.568        0.321       67.555       31.741        0.221      332.011        0.396      868.884
01/07/2021  08:44:00       65.618        8.508      -14.949       54.687       56.556       42.426     2990.686     3198.547     1799.982        0.629        0.399       66.167       36.158        0.299      331.747       -0.038      868.885
01/07/2021  08:45:00       47.844      -49.506      -20.032       51.724       58.762       34.522     2675.389     3452.999     1191.801        0.623        0.366       68.847       25.445        0.137      331.785        0.023      868.874
01/07/2021  08:46:00       38.077      -27.175      -16.609       42.714       56.688       31.267     1824.463     3213.573      977.640        0.424        0.301       46.780       23.119        0.244      331.813        0.071      868.861
01/07/2021  08:47:00       97.710      -37.100      -28.800       57.150       56.447       35.918     3266.173     3186.294     1290.138        0.975        0.387      104.517       33.713        0.104      331.739       -0.052      868.857
01/07/2021  08:48:00       79.204      -18.988      -23.813       51.620       58.645       41.821     2664.641     3439.244     1748.998        0.753        0.393       81.448       36.858        0.205      331.808        0.062      868.854
01/07/2021  08:49:00       84.976      -13.134      -20.195       73.069       55.715       30.054     5339.149     3104.196      903.258        0.857        0.467       85.985       31.325        0.133      331.645       -0.207      868.854
01/07/2021  08:50:00       67.034      -75.014      -29.193       42.764       51.786       28.078     1828.717     2681.823      788.399        0.813        0.265      100.602       22.041        0.048      331.808        0.062      868.855
01/07/2021  08:51:00      121.209      -52.303      -35.945       49.549       53.480       29.992     2455.070     2860.091      899.547        1.247        0.311      132.012       22.511        0.029      331.839        0.114      868.861
01/07/2021  08:52:00       84.164      -30.877      -13.286       58.757       46.670       32.604     3452.429     2178.132     1063.032        0.745        0.335       89.649       31.533        0.124      331.821        0.083      868.868
01/07/2021  08:53:00       70.410        1.278      -13.137       58.213       42.658       28.348     3388.770     1819.745      803.603        0.557        0.301       70.421       29.623        0.177      331.881        0.181      868.886
01/07/2021  08:54:00       26.698      -13.053       -4.847       39.905       42.244       26.884     1592.449     1784.525      722.746        0.250        0.205       29.718       19.715        0.440      332.124        0.582      868.893
01/07/2021  08:55:00       74.667       10.047      -16.167       51.014       39.399       32.171     2602.457     1552.256     1035.000        0.556        0.259       75.339       32.544        0.187      332.027        0.421      868.907
01/07/2021  08:56:00       37.096       -9.211       -9.964       45.990       51.398       34.132     2115.080     2641.752     1165.006        0.374        0.296       38.223       26.324        0.474      332.012        0.398      868.904
01/07/2021  08:57:00       64.829       12.172      -13.014       57.576       50.624       31.758     3315.014     2562.816     1008.542        0.570        0.344       65.961       32.191        0.238      331.863        0.152      868.915
01/07/2021  08:58:00       91.039      -13.228      -24.616       64.142       37.512       25.751     4114.196     1407.134      663.138        0.763        0.309       91.995       32.118        0.122      331.899        0.212      868.913
01/07/2021  08:59:00       87.370      -10.392      -28.372       45.503       60.733       27.011     2070.532     3688.489      729.620        0.752        0.324       87.986       27.649        0.099      331.944        0.286      868.908
01/07/2021  09:00:00       57.791      -39.176      -12.907       57.538       56.989       37.569     3310.612     3247.770     1411.421        0.650        0.398       69.818       31.609        0.205      332.042        0.448      868.894
01/07/2021  09:01:00       82.415      -34.487      -32.748       47.365       38.956       22.282     2243.478     1517.580      496.472        0.665        0.213       89.340       18.317        0.042      331.855        0.141      868.889
01/07/2021  09:02:00       81.504      -22.985      -15.340       52.183       40.272       29.770     2723.022     1621.838      886.226        0.632        0.262       84.683       32.872        0.151      331.837        0.110      868.901
01/07/2021  09:03:00       79.389      -48.471      -25.929       50.979       52.741       30.363     2598.891     2781.604      921.896        0.781        0.315       93.017       30.847        0.110      331.965        0.320      868.929
01/07/2021  09:04:00      118.365      -25.837      -34.679       39.617       47.980       28.967     1569.546     2302.082      839.095        1.029        0.236      121.152       22.107        0.033      331.723       -0.077      868.972
01/07/2021  09:05:00       98.511      -35.448      -32.805       49.379       42.150       31.610     2438.241     1776.617      999.169        0.862        0.261      104.694       31.463        0.090      331.762       -0.015      869.005
01/07/2021  09:06:00       79.603      -29.773      -23.711       45.082       31.363       27.708     2032.415      983.666      767.738        0.578        0.189       84.989       28.704        0.114      331.923        0.251      869.044
01/07/2021  09:07:00       59.161      -20.670      -11.212       50.626       30.856       30.178     2562.965      952.116      910.715        0.424        0.221       62.669       34.752        0.308      331.884        0.186      869.059
01/07/2021  09:08:00       64.800      -33.686      -15.804       35.471       27.232       20.827     1258.175      741.584      433.772        0.401        0.122       73.033       22.798        0.097      331.942        0.282      869.071
01/07/2021  09:09:00       26.971      -13.798      -26.533       42.939       33.170       25.964     1843.736     1100.218      674.121        0.262        0.181       30.295       23.450        0.599      332.308        0.887      869.066
01/07/2021  09:10:00       19.992      -22.040      -12.354       49.012       49.016       31.219     2402.140     2402.584      974.655        0.341        0.289       29.756       26.890        0.817      332.356        0.966      869.073
01/07/2021  09:11:00       43.277       -8.577      -14.874       42.370       48.536       30.504     1795.238     2355.749      930.466        0.362        0.254       44.119       30.886        0.490      332.095        0.535      869.079
01/07/2021  09:12:00       36.910      -21.309      -11.616       51.018       39.308       32.979     2602.797     1545.114     1087.586        0.359        0.262       42.619       34.033        0.638      332.343        0.944      869.084
01/07/2021  09:13:00       44.002      -35.031       -6.875       47.441       30.974       27.573     2250.674      959.409      760.256        0.359        0.199       56.244       31.152        0.307      332.288        0.854      869.092
01/07/2021  09:14:00       40.095      -62.578      -21.127       45.665       17.756       21.066     2085.312      315.267      443.768        0.441        0.142       74.321       25.744        0.120      332.017        0.406      869.095
01/07/2021  09:15:00       55.723      -23.580      -16.091       54.794       40.208       28.479     3002.349     1616.677      811.073        0.467        0.272       60.507       29.972        0.245      332.283        0.845      869.096
01/07/2021  09:16:00       41.920       43.045       -5.390       53.143       34.656       28.743     2824.163     1201.053      826.134        0.424        0.243       60.085       35.002        0.339      332.298        0.871      869.090
01/07/2021  09:17:00       26.793       41.921      -11.697       61.835       19.601       33.138     3823.591      384.204     1098.136        0.396        0.265       49.752       42.538        0.731      332.335        0.930      869.076
01/07/2021  09:18:00      -31.043       -8.887      -15.436       43.883       26.611       28.926     1925.730      708.144      836.738        0.238        0.174       32.290       23.901        0.548      332.137        0.607      869.058
01/07/2021  09:19:00        0.448      -54.163      -38.045       62.695       25.191       31.949     3930.673      634.587     1020.738        0.498        0.279       54.165       40.655        0.563      332.268        0.819      869.035
01/07/2021  09:20:00       43.654       12.725      -28.044       85.349       48.788       34.683     7284.513     2380.270     1202.934        0.686        0.543       45.471       36.522        0.645      332.328        0.920      869.014
01/07/2021  09:21:00       89.126       58.855      -15.833       51.851       33.357       29.551     2688.512     1112.687      873.245        0.817        0.234      106.805       33.274        0.097      332.338        0.937      868.997
01/07/2021  09:22:00       71.514       52.491      -16.536       69.303       38.273       33.898     4802.874     1464.855     1149.092        0.778        0.371       88.711       41.362        0.217      332.332        0.925      868.994
01/07/2021  09:23:00       46.700       18.098      -30.156       70.865       46.697       30.273     5021.805     2180.578      916.458        0.577        0.406       50.084       37.519        0.561      332.617        1.397      868.998
01/07/2021  09:24:00       16.209      -32.931      -31.717       61.689       43.587       31.173     3805.594     1899.821      971.761        0.451        0.334       36.704       37.294        1.032      332.597        1.364      868.990
01/07/2021  09:25:00      -30.835      -28.591      -25.237       53.446       20.419       24.195     2856.423      416.938      585.375        0.313        0.193       42.051       29.807        0.502      332.426        1.080      868.993
01/07/2021  09:26:00        0.447      -76.304      -23.585       78.202       40.329       43.599     6115.524     1626.453     1900.844        0.801        0.482       76.306       52.464        0.473      332.601        1.371      869.000
01/07/2021  09:27:00       14.927      -55.691      -29.292       79.176       38.028       34.296     6268.891     1446.158     1176.223        0.653        0.445       57.657       46.116        0.640      332.567        1.312      869.004
01/07/2021  09:28:00        7.384      -58.194      -21.992       65.087       33.407       31.050     4236.345     1116.002      964.079        0.512        0.316       58.661       40.311        0.472      332.645        1.443      868.995
01/07/2021  09:29:00       30.589       10.938      -24.018       57.903       24.205       32.622     3352.721      585.861     1064.188        0.332        0.250       32.486       38.137        1.378      332.686        1.510      868.977
01/07/2021  09:30:00       21.621      -60.319      -31.139       71.054       42.216       33.289     5048.624     1782.173     1108.178        0.651        0.397       64.077       43.504        0.461      332.669        1.483      868.956
01/07/2021  09:31:00       11.792      -43.010      -27.944       74.819       45.359       34.189     5597.925     2057.461     1168.871        0.580        0.441       44.598       41.452        0.864      332.703        1.537      868.931
01/07/2021  09:32:00       78.533       55.591      -18.853       52.252       29.400       29.838     2730.269      864.389      890.295        0.705        0.224       96.218       34.191        0.126      332.531        1.254      868.929
01/07/2021  09:33:00       46.861        7.230       -7.168       58.736       61.589       34.462     3449.942     3793.234     1187.600        0.536        0.422       47.415       41.568        0.769      332.784        1.672      868.928
01/07/2021  09:34:00       49.549      -62.315      -19.761       58.238       45.628       34.133     3391.702     2081.924     1165.090        0.668        0.332       79.614       36.817        0.214      333.048        2.108      868.925
01/07/2021  09:35:00       34.159      -27.189      -29.487       65.634       63.611       38.896     4307.883     4046.339     1512.878        0.632        0.493       43.659       38.574        0.781      332.986        2.004      868.932
01/07/2021  09:36:00       53.675       43.392      -28.494       54.317       38.816       31.513     2950.324     1506.672      993.060        0.551        0.273       69.021       37.058        0.288      332.749        1.615      868.949
01/07/2021  09:37:00       37.307      -11.266      -28.443       66.524       41.041       38.213     4425.490     1684.331     1460.244        0.495        0.379       38.971       42.531        1.191      333.068        2.139      868.946
01/07/2021  09:38:00       54.886      -54.559      -41.292       71.837       52.200       33.512     5160.548     2724.843     1123.071        0.835        0.450       77.390       40.260        0.271      332.993        2.016      868.939
01/07/2021  09:39:00       87.240      -62.459      -24.915       55.486       48.238       31.847     3078.663     2326.859     1014.258        0.927        0.321      107.294       32.835        0.094      332.964        1.971      868.935
01/07/2021  09:40:00       37.270       21.744      -16.739       48.813       50.487       28.348     2382.750     2548.898      803.618        0.394        0.287       43.149       24.107        0.312      332.908        1.879      868.915
01/07/2021  09:41:00       58.960      -46.881      -25.830       57.881       39.186       32.154     3350.258     1535.535     1033.857        0.613        0.296       75.327       38.083        0.256      333.146        2.270      868.913
01/07/2021  09:42:00       75.070       25.389      -29.837       64.794       48.274       30.208     4198.243     2330.357      912.533        0.730        0.372       79.248       33.256        0.176      333.160        2.292      868.921
01/07/2021  09:43:00       11.855       18.186       -8.222       55.583       41.779       26.260     3089.432     1745.499      689.607        0.303        0.276       21.709       34.719        2.558      333.204        2.367      868.933
01/07/2021  09:44:00       64.051       16.618      -19.557       62.155       43.120       36.002     3863.297     1859.354     1296.142        0.589        0.351       66.172       37.726        0.325      333.077        2.156      868.951
01/07/2021  09:45:00       26.042      -33.130       -1.052       54.157       25.461       28.601     2932.939      648.252      817.995        0.309        0.220       42.141       33.966        0.650      333.181        2.329      868.952
01/07/2021  09:46:00       44.956       15.864      -18.192       58.651       53.736       31.972     3439.965     2887.531     1022.225        0.498        0.367       47.673       34.508        0.524      333.042        2.098      868.941
01/07/2021  09:47:00       88.702       54.829      -20.795       64.771       34.460       37.612     4195.226     1187.494     1414.676        0.905        0.340      104.280       41.597        0.159      332.871        1.816      868.943
01/07/2021  09:48:00       48.107       39.967      -26.328       62.704       30.908       35.679     3931.772      955.317     1273.012        0.538        0.308       62.543       42.686        0.466      333.118        2.223      868.934
01/07/2021  09:49:00       39.614       19.490      -30.080       55.551       17.440       32.555     3085.919      304.165     1059.828        0.365        0.222       44.149       38.732        0.770      332.991        2.014      868.917
01/07/2021  09:50:00       37.792       15.686      -30.224       56.593       30.365       28.024     3202.820      922.043      785.330        0.375        0.246       40.918       30.971        0.573      333.133        2.249      868.904
01/07/2021  09:51:00       55.111       45.612      -16.754       60.030       15.168       31.386     3603.619      230.068      985.069        0.511        0.241       71.538       40.442        0.320      333.106        2.204      868.906
01/07/2021  09:52:00       30.717       27.618       -3.327       49.844       17.171       26.139     2484.412      294.841      683.267        0.259        0.173       41.307       31.972        0.599      333.155        2.285      868.920
01/07/2021  09:53:00        0.591       24.897      -13.098       41.985       15.309       21.154     1762.723      234.370      447.496        0.162        0.122       24.904       26.030        1.092      333.170        2.309      868.930
01/07/2021  09:54:00        1.021       -3.536      -21.593       55.519       30.413       26.632     3082.387      924.962      709.283        0.260        0.236        3.681       33.052       80.639      333.358        2.621      868.949
01/07/2021  09:55:00       53.820      -48.026      -28.325       64.180       40.993       28.096     4119.076     1680.387      789.366        0.630        0.329       72.133       29.171        0.164      333.348        2.603      868.958
01/07/2021  09:56:00       60.802      -25.802      -25.140       51.818       47.952       30.418     2685.087     2299.436      925.275        0.545        0.295       66.051       33.733        0.261      333.500        2.855      868.967
01/07/2021  09:57:00       20.223       -5.564      -19.605       53.719       25.409       30.652     2885.692      645.597      939.559        0.265        0.224       20.975       32.552        2.409      333.733        3.242      868.979
01/07/2021  09:58:00       36.144      -20.569      -18.072       71.156       40.255       32.644     5063.120     1620.463     1065.622        0.490        0.387       41.587       28.052        0.455      333.590        3.003      868.986
01/07/2021  09:59:00       88.966        9.209      -22.398       49.428       56.777       28.423     2443.141     3223.680      807.877        0.749        0.324       89.442       22.468        0.063      333.346        2.600      869.017
01/07/2021  10:00:00       55.219      -30.577      -16.849       55.816       36.890       36.616     3115.384     1360.864     1340.713        0.504        0.291       63.120       38.362        0.369      333.546        2.932      869.031
01/07/2021  10:01:00       58.958      -12.409      -17.196       75.293       43.901       38.421     5668.997     1927.279     1476.157        0.650        0.454       60.250       44.746        0.552      333.663        3.124      869.028
01/07/2021  10:02:00       71.549      -22.749      -21.672       65.840       52.341       41.943     4334.868     2739.624     1759.240        0.747        0.442       75.078       39.684        0.279      333.752        3.274      869.010
01/07/2021  10:03:00       98.215      -16.217      -15.550       63.695       45.493       36.954     4056.992     2069.606     1365.623        0.882        0.375       99.545       37.862        0.145      333.585        2.997      869.003
01/07/2021  10:04:00      121.597       27.595      -15.489       73.792       71.525       43.878     5445.321     5115.776     1925.243        1.413        0.624      124.689       47.110        0.143      333.468        2.803      869.007
01/07/2021  10:05:00      108.102       13.140      -23.444       66.825       72.580       41.071     4465.567     5267.788     1686.808        1.191        0.571      108.897       36.942        0.115      333.602        3.023      869.006
01/07/2021  10:06:00      130.696     -119.018      -48.650       59.992       67.863       35.200     3599.070     4605.447     1239.052        2.153        0.472      176.768       36.584        0.043      333.358        2.621      868.992
01/07/2021  10:07:00      154.022      -46.185      -17.705       90.197       63.495       48.942     8135.484     4031.678     2395.310        2.036        0.728      160.798       46.219        0.083      333.278        2.487      868.973
01/07/2021  10:08:00      114.017       20.164      -27.672       78.247       74.217       59.448     6122.656     5508.119     3534.008        1.467        0.758      115.786       55.058        0.226      333.356        2.617      868.946
01/07/2021  10:09:00      130.329      -36.631      -43.563       71.176       55.948       33.117     5066.046     3130.170     1096.754        1.476        0.465      135.380       34.587        0.065      333.467        2.799      868.928
01/07/2021  10:10:00      143.869      -28.398      -27.710       78.528       56.897       44.403     6166.610     3237.241     1971.602        1.682        0.569      146.645       43.018        0.086      333.516        2.879      868.930
01/07/2021  10:11:00      111.403       -6.409      -14.446       83.272       55.646       48.178     6934.301     3096.500     2321.099        1.250        0.618      111.587       50.465        0.205      333.594        3.011      868.953
01/07/2021  10:12:00       82.623      -10.459      -13.600       74.409       42.158       45.804     5536.743     1777.292     2097.989        0.826        0.471       83.283       49.437        0.352      333.452        2.775      868.994
01/07/2021  10:13:00      107.404       13.680      -30.372       73.803       64.528       46.163     5446.940     4163.893     2131.021        1.219        0.587      108.271       44.009        0.165      333.635        3.078      869.027
01/07/2021  10:14:00      100.790      -18.667      -29.847       87.173       51.940       46.400     7599.185     2697.774     2152.920        1.192        0.622      102.504       50.619        0.244      333.673        3.141      869.050
01/07/2021  10:15:00      110.079        5.621      -31.219       63.074       56.341       35.047     3978.392     3174.326     1228.289        1.075        0.419      110.222       35.848        0.106      333.663        3.126      869.061
01/07/2021  10:16:00       98.825       -0.856      -24.937       56.349       54.627       30.041     3175.174     2984.137      902.450        0.872        0.353       98.829       30.237        0.094      333.370        2.641      869.043
01/07/2021  10:17:00       79.347        4.455      -22.781       74.208       51.065       34.330     5506.812     2607.663     1178.564        0.806        0.465       79.472       39.952        0.253      333.611        3.039      869.017
01/07/2021  10:18:00      112.360       -7.516      -24.471       65.006       45.824       35.471     4225.735     2099.793     1258.215        1.043        0.379      112.611       38.661        0.118      333.519        2.886      868.988
01/07/2021  10:19:00       97.194       -7.539      -27.295       62.260       59.240       32.351     3876.268     3509.412     1046.619        0.934        0.422       97.486       34.061        0.122      333.523        2.894      868.967
01/07/2021  10:20:00      105.875      -11.880      -35.841       50.258       41.175       30.009     2525.855     1695.420      900.543        0.888        0.256      106.539       31.512        0.087      333.557        2.951      868.948
01/07/2021  10:21:00       89.463       19.285      -23.716       54.606       39.649       26.641     2981.838     1572.063      709.761        0.710        0.263       91.518       32.050        0.123      333.564        2.961      868.931
01/07/2021  10:22:00       55.214       40.454      -14.970       60.227       34.386       35.030     3627.253     1182.403     1227.094        0.547        0.302       68.448       39.035        0.325      333.648        3.102      868.921
01/07/2021  10:23:00       60.158       -1.648      -26.721       65.848       55.987       39.805     4335.981     3134.495     1584.448        0.669        0.453       60.181       41.320        0.471      333.773        3.308      868.921
01/07/2021  10:24:00       76.299      -77.603      -30.539       58.200       46.185       30.597     3387.213     2133.038      936.185        0.962        0.323      108.829       34.111        0.098      333.756        3.280      868.932
01/07/2021  10:25:00       77.554       24.483       -9.731       52.791       43.674       32.334     2786.841     1907.462     1045.507        0.622        0.287       81.326       33.125        0.166      333.842        3.422      868.958
01/07/2021  10:26:00       55.343      -15.798      -13.497       58.583       57.925       36.624     3431.993     3355.287     1341.309        0.581        0.406       57.554       35.187        0.374      334.001        3.686      868.978
01/07/2021  10:27:00       68.138      -30.345      -17.877       49.803       50.222       32.531     2480.349     2522.213     1058.237        0.597        0.303       74.590       35.040        0.221      333.896        3.511      868.996
01/07/2021  10:28:00       13.214       -6.941        4.072       44.053       41.840       28.293     1940.632     1750.555      800.517        0.236        0.225       14.926       33.768        5.118      334.282        4.152      869.002
01/07/2021  10:29:00       43.643        2.408      -10.043       62.347       45.866       35.615     3887.181     2103.731     1268.422        0.463        0.363       43.709       40.697        0.867      333.963        3.622      869.006
01/07/2021  10:30:00       32.059       53.565       -9.444       64.913       17.178       31.938     4213.746      295.082     1020.039        0.476        0.276       62.426       40.505        0.421      333.879        3.484      869.002
01/07/2021  10:31:00      -19.152       21.703       -9.398       25.506       20.560       16.855      650.558      422.732      284.084        0.114        0.068       28.946       15.112        0.273      333.613        3.044      868.991
01/07/2021  10:32:00      -12.258       -5.358        4.153       35.524       26.716       16.817     1261.920      713.732      282.828        0.123        0.113       13.377        9.126        0.465      333.943        3.590      868.990
01/07/2021  10:33:00      -77.003      -21.285      -10.676       47.830       33.561       23.629     2287.679     1126.353      558.315        0.523        0.199       79.891       19.658        0.061      333.825        3.394      868.978
01/07/2021  10:34:00      -22.991        5.229       -1.486       43.792       36.463       22.935     1917.735     1329.585      526.003        0.216        0.189       23.578       13.138        0.310      333.872        3.473      868.976
01/07/2021  10:35:00      -44.210      -19.194        3.054       43.724       35.489       24.865     1911.748     1259.480      618.277        0.306        0.189       48.197       10.197        0.045      334.007        3.698      868.949
01/07/2021  10:36:00      -80.046       -2.432       -7.087       30.606       27.785       16.725      936.705      771.992      279.711        0.423        0.099       80.083       13.881        0.030      333.728        3.234      868.928
01/07/2021  10:37:00      -68.494        6.313       -1.124       40.327       21.226       22.237     1626.306      450.536      494.464        0.365        0.129       68.785       12.082        0.031      333.815        3.377      868.900
01/07/2021  10:38:00      -37.095       23.754      -10.297       18.169       14.637       12.052      330.115      214.250      145.256        0.137        0.034       44.049        8.426        0.037      333.691        3.171      868.865
01/07/2021  10:39:00      -56.943       43.077       -8.136       22.569       20.754       13.690      509.347      430.731      187.426        0.315        0.056       71.401        8.613        0.015      333.731        3.238      868.819
01/07/2021  10:40:00      -56.012       48.856       -1.465       34.042       25.460       14.700     1158.861      648.217      216.092        0.377        0.101       74.326        5.301        0.005      333.890        3.503      868.795
01/07/2021  10:41:00     -100.705       90.645      -19.104       35.870       32.680       19.179     1286.660     1067.955      367.815        1.072        0.136      135.492       11.367        0.007      333.785        3.328      868.779
01/07/2021  10:42:00      -82.506       89.662      -11.200       31.481       31.565       15.768      991.066      996.322      248.639        0.860        0.112      121.846       10.498        0.007      333.781        3.322      868.768
01/07/2021  10:43:00      -61.747       13.476      -11.964       42.821       33.536       19.599     1833.661     1124.686      384.125        0.374        0.167       63.200       12.622        0.040      334.131        3.902      868.767
01/07/2021  10:44:00      -41.364      -42.937      -12.698       62.256       34.273       26.661     3875.762     1174.608      710.800        0.474        0.288       59.620       13.877        0.054      334.294        4.172      868.760
01/07/2021  10:45:00      -98.232      -15.240      -20.975       36.518       20.247       16.995     1333.591      409.948      288.816        0.618        0.102       99.407       16.507        0.028      333.936        3.578      868.761
01/07/2021  10:46:00     -100.514      -21.846      -17.899       44.607       26.601       24.733     1989.778      707.601      611.716        0.710        0.165      102.861       14.124        0.019      334.005        3.693      868.749
01/07/2021  10:47:00      -91.635      -19.109      -10.963       27.138       34.916       25.097      736.495     1219.159      629.853        0.573        0.129       93.606       11.685        0.016      334.082        3.821      868.735
01/07/2021  10:48:00      -56.307      -25.105      -14.035       39.143       27.348       23.752     1532.204      747.889      564.167        0.342        0.142       61.650        8.803        0.020      334.117        3.879      868.711
01/07/2021  10:49:00      -28.176       22.128       -4.018       16.474       17.329       15.348      271.382      300.279      235.552        0.105        0.040       35.826       12.000        0.112      334.021        3.719      868.676
01/07/2021  10:50:00      -15.633      -11.452       -4.011       22.482       17.212       12.890      505.419      296.270      166.147        0.068        0.048       19.379       10.129        0.273      334.490        4.498      868.649
01/07/2021  10:51:00      -51.918      -16.619        0.381       28.433       30.413       13.546      808.424      924.950      183.486        0.244        0.096       54.513       12.980        0.057      334.304        4.188      868.673
01/07/2021  10:52:00      -51.595       -3.414       -2.121       30.900       17.283       20.118      954.820      298.714      404.727        0.217        0.083       51.708       16.151        0.098      334.193        4.004      868.683
01/07/2021  10:53:00      -31.013       -6.589       -3.878       17.413       21.684       16.190      303.198      470.207      262.132        0.103        0.052       31.706       11.784        0.138      334.154        3.940      868.685
01/07/2021  10:54:00      -31.000        7.174       -7.295       13.621       13.204       12.608      185.520      174.349      158.961        0.079        0.026       31.819        5.474        0.030      334.167        3.962      868.701
01/07/2021  10:55:00      -22.318       39.826       -9.668       23.304       31.873       12.421      543.072     1015.873      154.282        0.195        0.086       45.653       10.156        0.049      334.386        4.324      868.715
01/07/2021  10:56:00      -12.685       30.563       -3.277       33.348       17.727       12.305     1112.113      314.257      151.404        0.134        0.079       33.090       10.740        0.105      334.453        4.436      868.735
01/07/2021  10:57:00      -29.909       36.243      -24.631       28.876       31.649       16.368      833.808     1001.667      267.897        0.246        0.105       46.990       13.231        0.079      334.336        4.243      868.744
01/07/2021  10:58:00      -28.318      -30.542      -14.804       31.173       32.683       19.184      971.770     1068.163      368.020        0.218        0.120       41.650       12.778        0.094      334.551        4.599      868.743
01/07/2021  10:59:00       25.615      -81.876      -20.706       40.690       31.342       20.842     1655.704      982.297      434.384        0.543        0.154       85.789       20.145        0.055      334.795        5.002      868.730
01/07/2021  11:00:00       -7.755       -3.137        2.218       33.167       34.249       18.707     1100.053     1172.990      349.960        0.135        0.131        8.366        9.569        1.308      334.594        4.670      868.718
01/07/2021  11:01:00       40.139       68.327        0.661       49.695       30.410       32.198     2469.623      924.783     1036.725        0.535        0.222       79.244       24.847        0.098      334.585        4.656      868.700
01/07/2021  11:02:00       23.217       38.976      -18.288       34.618       32.357       22.286     1198.374     1046.990      496.646        0.257        0.137       45.367       23.005        0.257      334.404        4.355      868.685
01/07/2021  11:03:00        1.745       60.544        2.970       39.997       39.083       26.219     1599.733     1527.498      687.446        0.375        0.191       60.569       24.219        0.160      334.656        4.773      868.670
01/07/2021  11:04:00       46.288       42.479      -17.470       38.450       33.925       19.497     1478.415     1150.923      380.120        0.363        0.150       62.825       20.811        0.110      334.752        4.932      868.658
01/07/2021  11:05:00      -23.858       28.600       -0.055       33.402       44.334       22.490     1115.674     1965.473      505.793        0.249        0.179       37.245       12.690        0.116      335.009        5.359      868.641
01/07/2021  11:06:00       32.480      -40.318      -17.534       48.963       41.713       23.675     2397.403     1739.993      560.484        0.384        0.235       51.773       16.269        0.099      334.949        5.260      868.610
01/07/2021  11:07:00       82.077      -43.669      -28.876       35.654       51.882       27.527     1271.176     2691.770      757.746        0.710        0.236       92.972       15.815        0.029      334.595        4.672      868.588
01/07/2021  11:08:00       34.282        8.327      -10.057       47.537       73.277       25.094     2259.776     5369.509      629.700        0.480        0.413       35.279       17.212        0.238      334.656        4.773      868.562
01/07/2021  11:09:00       56.992       79.526      -20.014       36.463       17.719       22.923     1329.530      313.960      525.477        0.607        0.108       97.839       19.026        0.038      334.556        4.606      868.554
01/07/2021  11:10:00       78.713       54.038      -13.745       36.508       21.826       22.297     1332.812      476.368      497.135        0.581        0.115       95.477       20.372        0.046      334.602        4.682      868.539
01/07/2021  11:11:00       91.236       66.095      -18.737       43.180       33.390       23.179     1864.542     1114.874      537.283        0.828        0.176      112.661       23.714        0.044      334.588        4.660      868.535
01/07/2021  11:12:00       34.839       64.682      -16.061       27.481       30.066       16.838      755.183      903.949      283.526        0.380        0.097       73.468       17.058        0.054      334.470        4.465      868.523
01/07/2021  11:13:00        2.554       -6.481       -6.574       13.983       19.914       11.823      195.511      396.577      139.777        0.041        0.037        6.967       10.089        2.097      334.765        4.955      868.515
01/07/2021  11:14:00      -13.561        9.448        5.565       15.873       21.154       12.434      251.943      447.498      154.603        0.058        0.043       16.528        9.104        0.303      335.043        5.417      868.503
01/07/2021  11:15:00      -99.371      -56.638       -3.704       52.106       45.611       29.587     2715.082     2080.402      875.368        0.938        0.284      114.379       23.960        0.044      334.549        4.596      868.498
01/07/2021  11:16:00      -65.121      -14.193        3.021       62.555       44.619       31.925     3913.167     1990.899     1019.210        0.569        0.346       66.650       29.118        0.191      334.558        4.610      868.503
01/07/2021  11:17:00      -89.283       69.984       -8.809       37.338       29.940       19.114     1394.150      896.390      365.356        0.780        0.133      113.442       19.616        0.030      334.360        4.283      868.505
01/07/2021  11:18:00      -15.461       32.458        0.854       37.027       33.837       20.218     1371.035     1144.928      408.752        0.211        0.146       35.952        6.195        0.030      334.995        5.336      868.500
01/07/2021  11:19:00      -29.282      -24.142        0.476       52.164       65.118       28.506     2721.053     4240.398      812.603        0.461        0.389       37.951       24.760        0.426      335.143        5.583      868.482
01/07/2021  11:20:00       12.101      -44.537       -4.308       41.543       60.921       27.550     1725.820     3711.314      759.000        0.417        0.310       46.152       22.577        0.239      335.195        5.668      868.453
01/07/2021  11:21:00      -36.475       12.000       -9.210       20.220       24.798       15.998      408.835      614.948      255.930        0.142        0.064       38.399        9.762        0.065      335.210        5.693      868.422
01/07/2021  11:22:00       -8.640        7.506       -4.725       24.787       15.367       16.213      614.381      236.139      262.849        0.063        0.056       11.445       10.222        0.798      335.263        5.781      868.416
01/07/2021  11:23:00       15.083       12.449        5.224       39.935       33.813       25.465     1594.787     1143.327      648.485        0.190        0.169       19.557       14.165        0.525      335.198        5.673      868.408
01/07/2021  11:24:00      -23.534       -9.181      -10.207       42.468       32.386       22.060     1803.523     1048.838      486.648        0.204        0.167       25.262       19.409        0.590      335.000        5.344      868.413
01/07/2021  11:25:00      -45.605       12.240       -4.564       29.257       20.290       18.481      855.978      411.671      341.563        0.193        0.080       47.219       10.278        0.047      334.878        5.142      868.394
01/07/2021  11:26:00       -8.009       11.953        4.156       24.325       22.416       20.257      591.696      502.467      410.343        0.086        0.075       14.388       15.624        1.179      335.214        5.700      868.354
01/07/2021  11:27:00      -26.726       -0.025      -12.189       25.726       34.662       13.616      661.835     1201.487      185.394        0.146        0.102       26.726        7.114        0.071      335.129        5.558      868.317
01/07/2021  11:28:00      -25.719      -11.183      -13.250       33.598       33.325       25.621     1128.797     1110.576      656.453        0.193        0.145       28.045       17.875        0.406      335.084        5.483      868.289
01/07/2021  11:29:00       65.740     -106.554      -35.015       55.029       53.147       30.513     3028.166     2824.640      931.066        1.184        0.339      125.202       27.603        0.049      334.855        5.103      868.290
01/07/2021  11:30:00       84.970      -61.928      -23.312       37.415       60.275       24.030     1399.890     3633.099      577.437        0.860        0.281      105.143       23.151        0.048      334.851        5.096      868.301
01/07/2021  11:31:00       96.450      -91.969      -33.004       44.401       61.600       24.440     1971.428     3794.552      597.321        1.261        0.318      133.270       25.359        0.036      334.716        4.873      868.317
01/07/2021  11:32:00       91.522      -61.541      -21.818       55.859       60.796       38.023     3120.277     3696.151     1445.746        1.045        0.413      110.289       36.208        0.108      334.995        5.336      868.330
01/07/2021  11:33:00       56.385      -41.557      -30.641       56.538       57.066       25.080     3196.598     3256.585      628.990        0.646        0.354       70.044       26.097        0.139      335.188        5.655      868.344
01/07/2021  11:34:00       31.642      -73.475      -24.803       79.966       62.250       28.647     6394.619     3875.119      820.669        0.905        0.555       79.999       27.954        0.122      335.114        5.534      868.341
01/07/2021  11:35:00      126.580      -86.479      -33.220       31.865       48.305       21.240     1015.349     2333.385      451.133        1.420        0.190      153.301       13.389        0.008      334.771        4.964      868.328
01/07/2021  11:36:00       70.969      -55.311      -28.851       61.997       47.408       30.245     3843.599     2247.521      914.769        0.797        0.350       89.977       30.046        0.112      334.990        5.327      868.306
01/07/2021  11:37:00       -1.990       17.670       -0.629       68.456       38.415       28.398     4686.268     1475.676      806.467        0.364        0.348       17.781       26.585        2.235      335.199        5.675      868.278
01/07/2021  11:38:00       54.685      -32.241      -21.185       45.994       57.407       23.921     2115.407     3295.549      572.193        0.523        0.299       63.482       21.256        0.112      335.216        5.703      868.253
01/07/2021  11:39:00       73.738      -59.892      -20.621       52.116       65.655       36.340     2716.059     4310.580     1320.619        0.890        0.417       94.996       21.118        0.049      335.312        5.861      868.230
01/07/2021  11:40:00       48.292      -80.143      -18.607       51.104       48.667       29.877     2611.582     2368.451      892.660        0.749        0.294       93.568       33.325        0.127      335.304        5.850      868.222
01/07/2021  11:41:00       31.744      -51.064       -7.694       55.173       33.437       32.074     3044.109     1118.030     1028.716        0.443        0.260       60.127       29.315        0.238      335.313        5.863      868.220
01/07/2021  11:42:00       71.371      -66.809      -15.662       50.490       41.031       25.916     2549.195     1683.521      671.623        0.735        0.245       97.762       27.623        0.080      335.124        5.550      868.220
01/07/2021  11:43:00      101.509     -132.648      -30.501       38.014       43.690       23.766     1445.044     1908.857      564.839        1.637        0.196      167.032       20.518        0.015      334.954        5.268      868.217
01/07/2021  11:44:00      101.653      -84.912      -35.239       32.013       33.608       20.968     1024.854     1129.481      439.666        1.069        0.130      132.452       16.768        0.016      335.027        5.389      868.216
01/07/2021  11:45:00       28.318      -32.016       -8.667       47.938       60.452       29.421     2298.064     3654.491      865.569        0.436        0.341       42.743       24.657        0.333      335.351        5.927      868.201
01/07/2021  11:46:00       80.181      -58.701      -26.357       39.268       40.895       24.039     1541.974     1672.381      577.893        0.718        0.190       99.372       19.527        0.039      335.198        5.672      868.176
01/07/2021  11:47:00       44.347      -54.072      -30.391       63.468       47.245       28.131     4028.165     2232.096      791.364        0.643        0.353       69.931       27.571        0.155      335.464        6.115      868.147
01/07/2021  11:48:00      -19.511       -1.641       -9.350       31.464       32.817       29.909      989.994     1076.980      894.560        0.172        0.148       19.580       13.605        0.483      335.444        6.083      868.127
01/07/2021  11:49:00      -21.986      -15.890       -3.525       33.798       32.386       29.944     1142.336     1048.882      896.652        0.192        0.154       27.128       16.751        0.381      335.523        6.214      868.100
01/07/2021  11:50:00       94.844     -118.110      -36.791       59.870       56.922       28.606     3584.452     3240.129      818.315        1.597        0.382      151.478       37.726        0.062      335.009        5.357      868.080
01/07/2021  11:51:00      101.071     -121.602      -32.056       22.931       32.119       16.377      525.812     1031.607      268.217        1.393        0.091      158.122       13.867        0.008      334.745        4.920      868.072
01/07/2021  11:52:00       94.882      -83.489      -25.300       20.553       27.140       17.330      422.425      736.601      300.322        0.904        0.073      126.384       15.201        0.014      334.869        5.127      868.061
01/07/2021  11:53:00       79.908      -52.466      -33.888       26.626       43.438       20.860      708.935     1886.847      435.144        0.666        0.152       95.593       15.714        0.027      335.087        5.488      868.057
01/07/2021  11:54:00       50.286       11.474       -4.804       38.883       24.942       27.454     1511.898      622.103      753.698        0.278        0.144       51.578       25.362        0.242      335.119        5.543      868.041
01/07/2021  11:55:00       -0.936       -4.993       -7.442       50.502       34.654       32.729     2550.427     1200.921     1071.169        0.245        0.241        5.080       34.001       44.794      335.304        5.849      868.007
01/07/2021  11:56:00       55.335      -71.121      -26.308       51.773       51.777       28.342     2680.400     2680.886      803.241        0.749        0.308       90.112       19.961        0.049      335.456        6.102      867.976
01/07/2021  11:57:00       62.809       -8.363       -7.537       44.712       46.603       32.872     1999.165     2171.850     1080.537        0.466        0.263       63.363       18.410        0.084      335.170        5.627      867.953
01/07/2021  11:58:00       44.529      -20.993       10.720       73.514       59.173       54.301     5404.355     3501.411     2948.634        0.719        0.593       49.230       53.054        1.161      335.487        6.153      867.920
01/07/2021  11:59:00       52.352      -20.700       -2.165       75.830       58.421       43.614     5750.167     3413.036     1902.224        0.712        0.553       56.296       46.644        0.686      335.317        5.871      867.918
01/07/2021  12:00:00       62.235       -2.887      -18.803       57.784       68.567       41.851     3339.020     4701.418     1751.527        0.701        0.490       62.301       37.995        0.372      335.404        6.015      867.901
01/07/2021  12:01:00       84.644       42.956      -12.949       49.213       53.849       26.660     2421.932     2899.690      710.772        0.760        0.302       94.920       17.525        0.034      335.148        5.589      867.895
01/07/2021  12:02:00       69.104       26.273      -12.523       35.671       41.431       21.999     1272.426     1716.505      483.960        0.455        0.174       73.930       16.047        0.047      335.113        5.532      867.901
01/07/2021  12:03:00       91.373      -70.757      -20.891       34.584       34.555       24.773     1196.060     1194.081      613.680        0.840        0.150      115.566       23.380        0.041      335.076        5.470      867.896
01/07/2021  12:04:00       53.443      -72.725      -23.413       31.306       35.531       19.801      980.062     1262.448      392.072        0.566        0.132       90.250       18.151        0.040      335.176        5.636      867.877
01/07/2021  12:05:00       81.425      -91.891      -15.534       32.118       37.728       19.775     1031.560     1423.431      391.045        0.908        0.142      122.776       17.545        0.020      335.266        5.785      867.857
01/07/2021  12:06:00       39.840      -50.048       -9.017       31.008       52.852       24.662      961.511     2793.366      608.203        0.427        0.218       63.969       16.213        0.064      335.614        6.365      867.843
01/07/2021  12:07:00       79.648       35.478      -22.540       47.504       47.509       21.697     2256.674     2257.075      470.764        0.655        0.249       87.192       12.742        0.021      335.426        6.052      867.815
01/07/2021  12:08:00       67.997       39.913      -20.646       24.776       25.596       13.968      613.871      655.157      195.112        0.405        0.073       78.846       11.885        0.023      335.113        5.532      867.803
01/07/2021  12:09:00       15.678       21.306        1.379       49.469       31.901       19.801     2447.170     1017.653      392.096        0.228        0.193       26.453        6.038        0.052      335.511        6.194      867.775
01/07/2021  12:10:00        1.883      -37.377      -19.036       62.677       59.675       22.661     3928.355     3561.076      513.506        0.488        0.400       37.424       31.458        0.707      335.587        6.320      867.738
01/07/2021  12:11:00       24.978      -33.610       -2.260       48.108       45.842       26.557     2314.359     2101.443      705.264        0.344        0.256       41.875       20.116        0.231      335.745        6.585      867.713
01/07/2021  12:12:00      -18.334      -51.709      -30.595       47.415       31.919       25.220     2248.194     1018.815      636.069        0.392        0.195       54.863       22.440        0.167      335.829        6.723      867.716
01/07/2021  12:13:00      -32.903      -29.368      -11.710       60.704       33.640       29.598     3685.023     1131.629      876.014        0.389        0.285       44.103       10.892        0.061      335.719        6.541      867.730
01/07/2021  12:14:00       -4.251       -2.996      -11.304       40.292       31.250       25.339     1623.469      976.579      642.073        0.170        0.162        5.201       15.435        8.809      335.759        6.606      867.748
01/07/2021  12:15:00      -13.650       10.990       -4.141       42.472       35.275       25.271     1803.828     1244.341      638.608        0.200        0.184       17.524       10.887        0.386      335.786        6.652      867.756
01/07/2021  12:16:00       -6.525       12.519        9.950       22.685       42.598       21.550      514.620     1814.632      464.381        0.155        0.140       14.117       25.501        3.263      335.717        6.536      867.753
01/07/2021  12:17:00       19.747       -8.209       -0.105       45.036       34.938       24.988     2028.265     1220.694      624.398        0.216        0.194       21.386       24.525        1.315      335.936        6.902      867.751
01/07/2021  12:18:00       12.254       20.635       -3.136       32.810       22.514       19.181     1076.480      506.858      367.906        0.127        0.098       24.000       21.710        0.818      335.646        6.419      867.753
01/07/2021  12:19:00       15.408       14.295       -3.550       21.896       25.493       21.078      479.455      649.884      444.298        0.101        0.079       21.018       15.409        0.537      335.873        6.797      867.743
01/07/2021  12:20:00       16.088      -12.341        5.639       60.252       60.452       31.919     3630.317     3654.463     1018.822        0.437        0.415       20.277       22.234        1.202      335.907        6.854      867.733
01/07/2021  12:21:00       28.074      -56.111      -21.188       94.609       73.058       33.802     8950.869     5337.540     1142.589        0.990        0.772       62.742       47.665        0.577      335.571        6.294      867.698
01/07/2021  12:22:00       98.859      -82.491      -19.064       57.181       58.170       30.369     3269.630     3383.698      922.259        1.226        0.379      128.755       29.139        0.051      335.359        5.941      867.658
01/07/2021  12:23:00       94.746     -132.734      -37.174       63.181       66.054       34.532     3991.819     4363.081     1192.470        1.876        0.477      163.080       26.833        0.027      335.529        6.224      867.622
01/07/2021  12:24:00       90.628      -46.252      -17.618       58.719       65.247       37.102     3447.965     4257.225     1376.567        0.987        0.454      101.748       35.000        0.118      335.581        6.310      867.596
01/07/2021  12:25:00       27.391      -15.147       -1.880       34.048       34.412       27.688     1159.277     1184.169      766.645        0.205        0.156       31.300       20.122        0.413      335.854        6.766      867.562
01/07/2021  12:26:00       -3.082      -76.584      -18.346       61.429       41.362       33.646     3773.488     1710.847     1132.030        0.641        0.331       76.646       22.231        0.084      336.029        7.057      867.529
01/07/2021  12:27:00       90.826     -123.542      -28.546       53.088       41.810       27.938     2818.356     1748.036      780.509        1.484        0.267      153.336       30.938        0.041      335.404        6.013      867.503
01/07/2021  12:28:00       98.626     -125.596      -32.841       46.087       54.722       31.475     2124.046     2994.541      990.649        1.634        0.305      159.692       37.753        0.056      335.359        5.940      867.473
01/07/2021  12:29:00      105.491     -119.836      -31.837       24.254       32.452       15.222      588.263     1053.145      231.702        1.419        0.094      159.653       14.817        0.009      335.133        5.565      867.458
01/07/2021  12:30:00       54.657        2.133      -12.540       46.646       38.885       29.436     2175.838     1512.017      866.467        0.385        0.228       54.699       22.867        0.175      335.603        6.346      867.448
01/07/2021  12:31:00       58.998       12.250       -8.656       37.762       39.850       22.445     1425.969     1587.994      503.771        0.361        0.176       60.256       12.107        0.040      335.635        6.400      867.450
01/07/2021  12:32:00       43.122       -4.701      -25.564       35.497       51.646       27.717     1260.005     2667.303      768.227        0.361        0.235       43.378       25.212        0.338      335.935        6.899      867.442
01/07/2021  12:33:00       64.877        3.798      -19.391       52.495       52.146       33.943     2755.755     2719.171     1152.146        0.561        0.331       64.988       29.467        0.206      335.813        6.696      867.442
01/07/2021  12:34:00       46.321        0.114        6.541       36.140       37.234       32.813     1306.066     1386.362     1076.691        0.298        0.188       46.321       24.784        0.286      335.849        6.757      867.439
01/07/2021  12:35:00       34.351      -20.084       -5.288       36.577       25.061       22.702     1337.909      628.040      515.402        0.205        0.124       39.792       24.382        0.375      335.806        6.683      867.420
01/07/2021  12:36:00        5.693      -18.678       -8.052       41.159       45.990       21.188     1694.057     2115.072      448.944        0.235        0.213       19.527       14.027        0.516      335.787        6.653      867.383
01/07/2021  12:37:00      125.424       67.187      -28.989       38.271       52.236       32.186     1464.673     2728.593     1035.970        1.316        0.261      142.286       24.169        0.029      335.475        6.133      867.354
01/07/2021  12:38:00       71.983       22.419      -13.423       50.269       54.612       27.121     2526.992     2982.464      735.565        0.605        0.312       75.394       32.602        0.187      335.726        6.553      867.331
01/07/2021  12:39:00       42.277      -14.657      -17.673       42.088       57.202       29.374     1771.417     3272.065      862.861        0.411        0.295       44.746       18.508        0.171      336.156        7.269      867.298
01/07/2021  12:40:00       46.035      -13.096       -8.371       55.615       58.320       39.896     3093.013     3401.196     1591.676        0.522        0.404       47.861       31.440        0.432      335.889        6.823      867.282
01/07/2021  12:41:00       14.624      -32.694      -13.581       36.551       46.758       20.014     1336.002     2186.344      400.557        0.269        0.196       35.815       18.479        0.266      335.915        6.868      867.277
01/07/2021  12:42:00       32.861      -96.688      -28.898       46.157       37.771       22.556     2130.447     1426.646      508.776        0.766        0.203      102.120       13.294        0.017      335.739        6.574      867.256
01/07/2021  12:43:00       20.729      -71.503      -13.726       33.909       32.218       20.374     1149.835     1038.005      415.083        0.417        0.130       74.447       16.947        0.052      335.631        6.394      867.235
01/07/2021  12:44:00       77.941      -12.943      -27.264       41.384       51.315       19.191     1712.649     2633.199      368.280        0.585        0.236       79.009       16.843        0.045      335.888        6.821      867.208
01/07/2021  12:45:00       76.538       50.180      -18.172       25.352       33.209       14.852      642.723     1102.855      220.568        0.534        0.098       91.521        3.288        0.001      335.588        6.323      867.188
01/07/2021  12:46:00       28.143      -22.863      -25.708       26.618       32.461       20.511      708.494     1053.722      420.721        0.208        0.109       36.259       19.541        0.290      336.095        7.166      867.163
01/07/2021  12:47:00       18.628      -71.773       -0.470       34.225       67.757       34.806     1171.375     4591.073     1211.478        0.623        0.349       74.151       35.959        0.235      336.018        7.039      867.140
01/07/2021  12:48:00       41.165      -37.546      -15.849       37.578       38.747       29.245     1412.134     1501.358      855.263        0.356        0.188       55.716       16.334        0.086      336.322        7.546      867.110
01/07/2021  12:49:00       79.138      -34.870      -22.290       55.219       50.727       37.422     3049.172     2573.269     1400.407        0.750        0.351       86.480       22.046        0.065      336.149        7.258      867.069
01/07/2021  12:50:00      130.396       -3.600      -27.831       67.327       70.118       35.294     4532.987     4916.562     1245.675        1.424        0.535      130.446       32.685        0.063      335.760        6.608      867.044
01/07/2021  12:51:00       47.637      -36.326      -20.936       79.410       52.161       42.729     6305.931     2720.808     1825.808        0.744        0.543       59.907       41.044        0.469      335.973        6.963      867.014
01/07/2021  12:52:00      113.978       44.240      -12.368       52.665       44.288       29.869     2773.588     1961.455      892.166        1.036        0.281      122.263       32.323        0.070      335.743        6.579      867.000
01/07/2021  12:53:00       76.530       49.521      -15.415       40.754       44.407       15.362     1660.857     1971.953      236.002        0.621        0.193       91.155       13.202        0.021      335.596        6.335      866.979
01/07/2021  12:54:00       50.787       30.629      -20.030       45.179       39.105       16.067     2041.114     1529.212      258.137        0.387        0.191       59.308        8.286        0.020      335.699        6.507      866.951
01/07/2021  12:55:00       75.974       51.210      -22.255       32.026       21.793       19.900     1025.651      474.927      396.017        0.539        0.095       91.621       17.856        0.038      335.662        6.443      866.927
01/07/2021  12:56:00       81.700       78.290      -15.133       47.793       33.337       24.566     2284.212     1111.369      603.492        0.852        0.200      113.156       22.603        0.040      335.783        6.647      866.896
01/07/2021  12:57:00       67.559      -53.202      -12.664       70.979       66.464       39.561     5038.069     4417.441     1565.058        0.929        0.551       85.992       38.679        0.202      335.979        6.973      866.876
01/07/2021  12:58:00       91.320     -122.650      -39.918       41.164       71.033       25.552     1694.457     5045.635      652.906        1.618        0.370      152.913       30.893        0.041      335.639        6.405      866.872
01/07/2021  12:59:00        1.458       17.640      -15.445       31.175       25.587       22.196      971.850      654.698      492.682        0.134        0.106       17.700       13.301        0.565      335.881        6.809      866.908
01/07/2021  13:00:00        7.104       34.952      -10.934       35.111       12.088       19.311     1232.777      146.126      372.903        0.157        0.088       35.667       21.735        0.371      335.833        6.732      866.949
01/07/2021  13:01:00       12.934       24.371       -4.174       27.476       25.838       16.314      754.951      667.627      266.134        0.123        0.084       27.591       17.234        0.390      335.991        6.994      866.993
01/07/2021  13:02:00       34.295      -44.703       -9.091       43.201       63.566       34.011     1866.349     4040.590     1156.779        0.516        0.353       56.343       25.382        0.203      336.125        7.217      867.005
01/07/2021  13:03:00       60.055      -15.235      -16.982       72.973       43.386       29.555     5325.125     1882.334      873.514        0.610        0.404       61.958       20.302        0.107      336.019        7.039      866.986
01/07/2021  13:04:00       52.905      -30.943      -20.567       72.603       74.075       50.600     5271.162     5487.175     2560.340        0.875        0.666       61.289       51.086        0.695      336.190        7.327      866.958
01/07/2021  13:05:00      103.426       -8.891      -29.538       65.981       66.800       43.619     4353.434     4462.197     1902.594        1.118        0.536      103.807       44.344        0.182      336.031        7.059      866.919
01/07/2021  13:06:00       96.003      -15.553      -17.775       63.654       40.863       35.099     4051.851     1669.783     1231.927        0.836        0.348       97.255       31.117        0.102      335.868        6.788      866.892
01/07/2021  13:07:00       59.854      -27.733      -14.643       92.496       46.430       36.448     8555.514     2155.751     1328.440        0.830        0.602       65.967       45.553        0.477      335.904        6.849      866.887
01/07/2021  13:08:00       83.102        0.575      -25.950       62.741       85.961       29.818     3936.470     7389.306      889.085        0.989        0.611       83.104       28.974        0.122      335.871        6.792      866.903
01/07/2021  13:09:00       15.140       10.643       -5.103       31.205       28.029       23.424      973.758      785.607      548.705        0.134        0.115       18.506       17.922        0.938      336.107        7.187      866.921
01/07/2021  13:10:00       50.471       58.630      -30.717       39.691       21.328       17.406     1575.387      454.871      302.975        0.463        0.117       77.362       24.151        0.097      335.597        6.338      866.954
01/07/2021  13:11:00       -4.736       21.113      -10.121       39.633       19.697       21.658     1570.806      387.953      469.051        0.150        0.121       21.637       20.102        0.863      335.753        6.595      866.967
01/07/2021  13:12:00       -4.343       31.679        4.597       30.404       19.403       18.530      924.410      376.473      343.353        0.134        0.082       31.976       15.891        0.247      336.114        7.199      866.970
01/07/2021  13:13:00       -0.095       31.246      -11.331       35.698       18.130       16.304     1274.332      328.711      265.808        0.149        0.093       31.246        3.967        0.016      335.991        6.993      866.973
01/07/2021  13:14:00       19.976       47.175       -8.416       41.279       19.513       23.623     1703.985      380.764      558.054        0.267        0.132       51.230       23.853        0.217      335.981        6.976      866.976
01/07/2021  13:15:00       25.084       23.190       -0.482       32.361       16.546       18.182     1047.234      273.762      330.597        0.141        0.083       34.161       20.443        0.358      336.021        7.043      866.977
01/07/2021  13:16:00       27.060       48.422      -10.657       41.305       30.287       20.554     1706.094      917.288      422.482        0.312        0.152       55.470       23.767        0.184      335.919        6.873      866.966
01/07/2021  13:17:00        0.588       -2.157       -6.738       48.439       46.489       32.772     2346.353     2161.186     1074.033        0.281        0.279        2.236       28.619      163.870      336.125        7.218      866.947
01/07/2021  13:18:00       -4.796      -14.890      -16.432       36.324       30.560       19.466     1319.463      933.904      378.932        0.157        0.132       15.643       14.415        0.849      336.294        7.501      866.938
01/07/2021  13:19:00       15.603      -46.765      -21.449       48.665       30.605       21.258     2368.286      936.644      451.908        0.332        0.188       49.299       28.404        0.332      336.275        7.467      866.919
01/07/2021  13:20:00      -37.984      -22.352       -9.171       28.477       17.529       17.858      810.954      307.258      318.895        0.173        0.072       44.073       16.353        0.138      336.199        7.341      866.899
01/07/2021  13:21:00      -23.977       -1.244       -6.953       44.997       25.449       26.218     2024.689      647.632      687.360        0.199        0.168       24.009       26.310        1.201      336.212        7.363      866.883
01/07/2021  13:22:00       18.302       -5.654       -7.446       47.912       35.555       29.043     2295.577     1264.128      843.500        0.241        0.220       19.155       29.279        2.336      336.319        7.540      866.866
01/07/2021  13:23:00       27.481       -1.694       -5.997       48.626       48.995       27.810     2364.469     2400.504      773.387        0.317        0.277       27.533       25.525        0.859      336.318        7.539      866.853
01/07/2021  13:24:00       48.970       -0.587        2.548       59.041       53.394       32.218     3485.878     2850.963     1037.994        0.489        0.369       48.974       35.892        0.537      336.279        7.475      866.844
01/07/2021  13:25:00       58.474       -3.426      -13.979       66.793       43.081       28.278     4461.287     1855.940      799.664        0.537        0.356       58.575       27.468        0.220      336.190        7.325      866.842
01/07/2021  13:26:00       76.243     -111.212      -40.581       79.031       44.522       20.315     6245.882     1982.193      412.698        1.423        0.432      134.838       19.296        0.020      335.901        6.844      866.838
01/07/2021  13:27:00       57.085      -58.374      -19.012       44.813       41.637       22.482     2008.206     1733.661      505.421        0.564        0.212       81.647       25.131        0.095      335.956        6.936      866.830
01/07/2021  13:28:00       80.047        5.806      -11.616       82.416       54.971       37.201     6792.377     3021.857     1383.932        0.888        0.560       80.258       34.956        0.190      336.023        7.045      866.811
01/07/2021  13:29:00      122.159      -12.646      -22.978       42.942       35.451       24.006     1843.993     1256.783      576.292        0.964        0.184      122.812       22.131        0.032      335.912        6.862      866.812
01/07/2021  13:30:00       89.475      -91.095      -32.292       54.211       77.897       31.485     2938.871     6067.880      991.280        1.367        0.500      127.688       40.534        0.101      336.020        7.041      866.796
01/07/2021  13:31:00      127.092     -168.035      -42.741       40.543       28.541       20.286     1643.713      814.601      411.518        2.454        0.143      210.684       20.298        0.009      335.876        6.801      866.781
01/07/2021  13:32:00       97.483     -103.751      -28.330       45.107       70.595       24.984     2034.621     4983.702      624.221        1.435        0.382      142.363       27.783        0.038      335.949        6.922      866.756
01/07/2021  13:33:00       45.076      -34.647      -18.148       45.151       36.069       28.305     2038.625     1301.004      801.188        0.385        0.207       56.853       26.413        0.216      336.209        7.355      866.725
01/07/2021  13:34:00       -1.932      -17.227      -19.299       42.086       43.783       25.786     1771.268     1916.980      664.933        0.251        0.218       17.335       20.913        1.455      336.267        7.455      866.692
01/07/2021  13:35:00       57.566       -4.120      -18.461       62.217       50.621       30.066     3870.976     2562.498      903.963        0.550        0.367       57.713       30.485        0.279      336.170        7.292      866.671
01/07/2021  13:36:00      109.066     -177.075      -36.812       39.995       34.132       25.088     1599.602     1164.963      629.390        2.400        0.170      207.968       26.084        0.016      335.805        6.681      866.657
01/07/2021  13:37:00       99.126     -201.110      -38.302       39.433       24.437       23.022     1554.980      597.173      530.024        2.721        0.134      224.213       18.843        0.007      335.818        6.703      866.653
01/07/2021  13:38:00       85.779     -159.543      -37.017       39.240       34.149       19.996     1539.756     1166.139      399.852        1.864        0.155      181.141       24.520        0.018      335.744        6.583      866.660
01/07/2021  13:39:00       59.959      -55.703      -13.338       38.179       39.338       26.148     1457.646     1547.495      683.716        0.528        0.184       81.840       23.651        0.084      336.028        7.055      866.682
01/07/2021  13:40:00       28.127       17.435        0.941       44.128       39.861       31.310     1947.256     1588.873      980.308        0.281        0.226       33.093       11.530        0.121      336.167        7.286      866.695
01/07/2021  13:41:00       40.192      -22.360        4.834       43.049       36.662       25.730     1853.217     1344.116      662.039        0.300        0.193       45.994       25.994        0.319      336.265        7.449      866.693
01/07/2021  13:42:00       84.708       28.753       -9.603       54.720       49.684       27.594     2994.252     2468.495      761.418        0.716        0.311       89.455       24.593        0.076      336.111        7.194      866.681
01/07/2021  13:43:00       45.103        8.836        1.076       40.324       35.226       23.601     1626.032     1240.880      556.994        0.277        0.171       45.961       22.660        0.243      336.215        7.368      866.669
01/07/2021  13:44:00       63.428        6.571      -11.426       50.357       66.784       30.415     2535.839     4460.058      925.068        0.606        0.396       63.767       22.431        0.124      336.216        7.369      866.641
01/07/2021  13:45:00       77.530       31.226        3.120       58.460       50.666       26.211     3417.524     2567.027      686.991        0.683        0.334       83.582       23.595        0.080      336.217        7.370      866.620
01/07/2021  13:46:00      120.848       -3.415       -6.515       65.654       61.003       32.650     4310.447     3721.397     1066.041        1.188        0.455      120.896       36.097        0.089      336.147        7.253      866.606
01/07/2021  13:47:00       64.730       18.908        0.121       55.979       59.279       25.918     3133.684     3514.029      671.754        0.593        0.366       67.435       18.168        0.073      336.350        7.593      866.595
01/07/2021  13:48:00       70.862       35.804      -12.853       67.225       56.707       31.043     4519.195     3215.721      963.677        0.758        0.435       79.394       30.774        0.150      336.483        7.814      866.591
01/07/2021  13:49:00       75.677       72.209       -9.247       35.097       40.649       30.037     1231.797     1652.352      902.237        0.741        0.189      104.600       20.627        0.039      336.138        7.239      866.571
01/07/2021  13:50:00       91.085       95.864       -9.410       27.311       30.090       21.969      745.903      905.405      482.645        0.985        0.107      132.236       13.999        0.011      335.906        6.853      866.552
01/07/2021  13:51:00       66.789       74.924      -15.181       14.680       16.211       10.906      215.501      262.796      118.938        0.545        0.030      100.371        6.255        0.004      335.823        6.712      866.530
01/07/2021  13:52:00       94.272       31.220      -19.882       25.235       16.802       13.660      636.782      282.303      186.594        0.568        0.055       99.307       15.133        0.023      335.903        6.847      866.517
01/07/2021  13:53:00       30.869      -11.721       -2.455       44.433       44.481       23.467     1974.314     1978.596      550.681        0.280        0.225       33.019       28.182        0.728      336.193        7.331      866.510
01/07/2021  13:54:00       29.609      -67.111      -10.195       39.838       31.220       25.667     1587.030      974.704      658.785        0.435        0.161       73.353       23.706        0.104      336.477        7.804      866.502
01/07/2021  13:55:00       54.591      -95.406      -24.364       34.518       46.726       25.557     1191.471     2183.345      653.181        0.835        0.201      109.920       15.011        0.019      336.314        7.532      866.499
01/07/2021  13:56:00       76.157     -119.297      -33.347       29.579       39.670       17.775      874.892     1573.691      315.933        1.195        0.138      141.533       18.432        0.017      336.023        7.046      866.486
01/07/2021  13:57:00       92.542     -101.926      -25.320       36.348       45.907       24.637     1321.190     2107.476      606.965        1.181        0.202      137.670       16.025        0.014      336.113        7.197      866.471
01/07/2021  13:58:00      108.197     -185.583      -38.294       34.361       40.326       19.123     1180.671     1626.175      365.689        2.539        0.159      214.820       12.507        0.003      335.955        6.931      866.467
01/07/2021  13:59:00       49.638      -84.426      -27.948       47.251       27.303       14.614     2232.682      745.457      213.557        0.678        0.160       97.937       15.323        0.024      335.892        6.828      866.479
01/07/2021  14:00:00       45.963      -51.933      -20.756       26.141       24.405       16.206      683.363      595.624      262.625        0.339        0.077       69.352       11.694        0.028      336.092        7.162      866.481
01/07/2021  14:01:00       68.765      -17.668      -20.017       36.544       43.834       17.772     1335.436     1921.406      315.857        0.451        0.179       70.999       16.977        0.057      336.175        7.300      866.481
01/07/2021  14:02:00       11.411      -26.924       -5.120       24.756       34.551       20.447      612.865     1193.778      418.097        0.155        0.111       29.242       16.654        0.324      336.515        7.868      866.487
01/07/2021  14:03:00       41.122       -7.535       -9.066       25.746       36.547       16.550      662.871     1335.688      273.896        0.205        0.114       41.806       13.496        0.104      336.274        7.466      866.503
01/07/2021  14:04:00       47.946      -10.919       -6.984       35.885       36.335       25.078     1287.745     1320.234      628.903        0.285        0.162       49.173       20.141        0.168      336.452        7.763      866.523
01/07/2021  14:05:00       69.351      -86.320      -26.791       40.003       40.246       20.008     1600.202     1619.734      400.323        0.830        0.181      110.728       18.202        0.027      336.262        7.445      866.548
01/07/2021  14:06:00       35.642      -64.190      -11.799       31.700       49.665       22.289     1004.918     2466.661      496.778        0.475        0.198       73.422       20.632        0.079      336.499        7.843      866.567
01/07/2021  14:07:00      -23.890        0.982       -7.480       43.426       49.138       24.799     1885.815     2414.523      614.998        0.277        0.246       23.910       25.679        1.153      336.667        8.123      866.579
01/07/2021  14:08:00       24.621       29.322       -1.997       36.802       33.908       18.608     1354.356     1149.770      346.243        0.216        0.143       38.288       13.195        0.119      336.568        7.956      866.588
01/07/2021  14:09:00      -24.653       -8.382       -7.181       42.525       32.360       19.952     1808.353     1047.167      398.093        0.199        0.163       26.039       13.539        0.270      336.583        7.983      866.595
01/07/2021  14:10:00      -31.413        7.328       -9.011       38.369       26.341       19.809     1472.218      693.827      392.404        0.184        0.128       32.256       18.365        0.324      336.549        7.926      866.604
01/07/2021  14:11:00      -59.027      -33.854      -18.174       44.178       35.537       29.706     1951.677     1262.902      882.432        0.453        0.205       68.046       20.233        0.088      336.673        8.133      866.619
01/07/2021  14:12:00       -0.837       15.661        7.553       24.157       30.222       21.520      583.550      913.358      463.109        0.113        0.098       15.683       12.162        0.601      336.991        8.663      866.636
01/07/2021  14:13:00      -17.589      -34.571      -17.413       41.626       34.149       25.130     1732.728     1166.132      631.504        0.267        0.177       38.788       21.882        0.318      336.913        8.534      866.651
01/07/2021  14:14:00      -25.614      -35.694      -19.399       34.957       49.777       20.549     1222.019     2477.740      422.259        0.321        0.206       43.933       11.874        0.073      336.754        8.267      866.665
01/07/2021  14:15:00       -5.123       -5.062       -9.751       39.417       33.293       22.924     1553.715     1108.406      525.513        0.167        0.159        7.202       12.093        2.820      336.782        8.316      866.681
01/07/2021  14:16:00       50.334      -33.263      -15.469       41.308       34.997       30.760     1706.325     1224.821      946.197        0.388        0.194       60.332       27.060        0.201      336.542        7.913      866.689
01/07/2021  14:17:00      112.777       74.540      -14.750       40.145       43.636       18.255     1611.626     1904.110      333.228        1.117        0.192      135.185       13.382        0.010      336.287        7.486      866.691
01/07/2021  14:18:00       -0.779      -24.239      -11.082       50.369       49.727       21.830     2537.014     2472.788      476.562        0.310        0.274       24.252       18.758        0.598      336.723        8.215      866.686
01/07/2021  14:19:00       -9.724       10.872       -3.486       38.782       41.601       25.587     1504.055     1730.642      654.675        0.206        0.194       14.587       22.049        2.285      336.999        8.677      866.681
01/07/2021  14:20:00      -11.891      -17.294       -3.745       31.514       35.802       23.925      993.157     1281.773      572.389        0.165        0.142       20.988       22.095        1.108      337.028        8.725      866.687
01/07/2021  14:21:00      -14.091      -20.731       -9.100       21.445       15.897       13.907      459.869      252.709      193.418        0.081        0.045       25.066       12.601        0.253      337.195        9.005      866.696
01/07/2021  14:22:00      -27.133        9.320       -4.322       21.943       19.537       15.985      481.474      381.679      255.532        0.098        0.056       28.689        5.917        0.043      337.048        8.760      866.698
01/07/2021  14:23:00       -7.239      -18.542       -8.603       24.438       19.269       12.946      597.206      371.293      167.591        0.080        0.057       19.905        8.083        0.165      337.283        9.152      866.705
01/07/2021  14:24:00      -28.077       15.409       -2.160       35.600       28.171       25.146     1267.349      793.601      632.298        0.186        0.135       32.027       10.782        0.113      337.053        8.767      866.705
01/07/2021  14:25:00       -7.768       -8.640       -5.955       26.094       31.420       20.606      680.876      987.225      424.624        0.113        0.105       11.618       14.244        1.503      337.173        8.969      866.700
01/07/2021  14:26:00       14.890      -49.950        1.120       25.936       27.048       18.051      672.681      731.589      325.848        0.222        0.087       52.122       15.228        0.085      337.198        9.009      866.701
01/07/2021  14:27:00       -3.900      -31.603      -16.928       32.355       16.443       20.077     1046.822      270.371      403.100        0.151        0.086       31.843       19.505        0.375      336.924        8.554      866.697
01/07/2021  14:28:00       -4.092      -26.610      -13.253       21.389       29.732       16.377      457.471      883.999      268.217        0.125        0.080       26.923       16.099        0.358      337.198        9.011      866.687
01/07/2021  14:29:00      -11.318      -41.506      -11.203       23.176       21.620       19.253      537.135      467.408      370.662        0.168        0.069       43.022        9.852        0.052      337.244        9.086      866.691
01/07/2021  14:30:00       47.718      -77.578      -18.049       71.488       43.285       24.267     5110.503     1873.585      588.890        0.810        0.379       91.079       21.162        0.054      336.750        8.261      866.694
01/07/2021  14:31:00       64.225      -38.313      -14.946       24.329       31.010       26.149      591.920      961.644      683.793        0.403        0.112       74.784       24.020        0.103      336.555        7.935      866.703
01/07/2021  14:32:00       55.934       25.284      -17.720       25.930       32.669       21.581      672.384     1067.235      465.741        0.314        0.110       61.383        9.763        0.025      336.477        7.805      866.713
01/07/2021  14:33:00       54.056       20.247      -16.784       25.022       31.201       21.924      626.112      973.504      480.657        0.285        0.104       57.723        9.545        0.027      336.510        7.861      866.709
01/07/2021  14:34:00       38.743      -16.023      -11.665       44.133       28.143       23.600     1947.703      792.018      556.972        0.259        0.165       41.925       21.904        0.273      336.722        8.215      866.716
01/07/2021  14:35:00       18.011      -28.907       -0.723       39.484       28.183       19.579     1558.947      794.281      383.335        0.195        0.137       34.059       19.640        0.333      337.006        8.689      866.718
01/07/2021  14:36:00       61.320     -138.866      -17.156       37.892       44.351       28.500     1435.820     1967.010      812.255        1.378        0.211      151.803       20.948        0.019      336.595        8.003      866.715
01/07/2021  14:37:00       78.647     -137.245      -30.664       35.462       38.554       21.595     1257.577     1486.381      466.335        1.459        0.161      158.182       18.219        0.013      336.582        7.983      866.697
01/07/2021  14:38:00      115.575     -129.909      -28.758       55.661       44.497       29.411     3098.170     1979.973      865.013        1.850        0.297      173.879       34.667        0.040      336.552        7.930      866.686
01/07/2021  14:39:00       77.821      -22.074       -8.258       43.719       19.290       20.572     1911.327      372.108      423.209        0.466        0.135       80.891       20.946        0.067      336.557        7.939      866.682
01/07/2021  14:40:00       52.579      -63.592      -15.926       36.756       46.295       24.955     1350.986     2143.251      622.741        0.559        0.206       82.514       22.826        0.077      336.694        8.169      866.669
01/07/2021  14:41:00       78.579     -114.643      -30.224       26.831       39.387       17.205      719.895     1551.372      295.996        1.140        0.128      138.988       13.528        0.009      336.517        7.874      866.669
01/07/2021  14:42:00       77.158      -53.622      -22.548       43.526       53.345       21.913     1894.552     2845.728      480.177        0.728        0.261       93.961       13.691        0.021      336.640        8.077      866.683
01/07/2021  14:43:00       46.350      -66.434      -18.536       35.907       58.308       26.804     1289.302     3399.801      718.447        0.616        0.270       81.005       24.460        0.091      336.799        8.343      866.702
01/07/2021  14:44:00       22.009      -71.997      -17.513       32.303       35.046       24.815     1043.464     1228.224      615.767        0.443        0.144       75.286       19.498        0.067      336.826        8.388      866.724
01/07/2021  14:45:00      -13.377       -1.303      -12.893       39.574       25.443       26.748     1566.081      647.321      715.472        0.164        0.146       13.440       18.839        1.965      337.034        8.736      866.733
01/07/2021  14:46:00        9.659       20.847       -7.343       34.260       24.386       20.447     1173.749      594.671      418.071        0.138        0.109       22.976       23.489        1.045      336.940        8.579      866.745
01/07/2021  14:47:00       45.556      -37.963      -12.722       30.949       36.434       17.041      957.812     1327.422      290.390        0.313        0.129       59.300       16.476        0.077      336.908        8.525      866.750
01/07/2021  14:48:00       47.165        3.862      -12.870       60.280       46.906       23.586     3633.633     2200.190      556.308        0.440        0.320       47.323       25.209        0.284      336.882        8.481      866.746
01/07/2021  14:49:00       90.362       27.118      -19.909       41.034       41.957       22.342     1683.802     1760.349      499.146        0.662        0.197       94.344       18.214        0.037      336.728        8.225      866.750
01/07/2021  14:50:00       92.446       24.712      -24.112       36.095       29.969       22.376     1302.873      898.133      500.664        0.622        0.135       95.692       17.782        0.035      336.640        8.078      866.755
01/07/2021  14:51:00       56.954      -15.403      -15.076       41.075       31.109       23.310     1687.164      967.773      543.352        0.345        0.160       59.000       25.074        0.181      336.718        8.207      866.754
01/07/2021  14:52:00       41.076        8.029      -12.585       48.078       59.849       29.740     2311.524     3581.870      884.440        0.434        0.339       41.853       26.982        0.416      336.699        8.177      866.753
01/07/2021  14:53:00        4.558       19.480       -0.267       46.697       44.834       35.608     2180.564     2010.100     1267.927        0.293        0.273       20.006       26.556        1.762      336.994        8.669      866.756
01/07/2021  14:54:00       51.858        2.192       -5.229       58.112       32.241       29.784     3377.006     1039.495      887.091        0.401        0.265       51.904       36.763        0.502      336.759        8.276      866.763
01/07/2021  14:55:00       63.828       19.919      -13.754       33.369       28.995       16.616     1113.507      840.712      276.082        0.344        0.112       66.864       16.853        0.064      336.696        8.173      866.761
01/07/2021  14:56:00       39.366       51.595      -11.468       35.308       33.597       17.220     1246.665     1128.738      296.520        0.351        0.134       64.898       18.752        0.083      336.597        8.007      866.752
01/07/2021  14:57:00      102.255       52.307      -10.511       61.247       30.151       25.483     3751.180      909.109      649.365        0.930        0.265      114.857       26.823        0.055      336.627        8.057      866.732
01/07/2021  14:58:00      157.040       69.483      -19.500       53.748       33.115       24.026     2888.900     1096.602      577.251        1.722        0.228      171.724       24.671        0.021      336.549        7.925      866.720
01/07/2021  14:59:00       97.244       69.995      -14.167       35.830       31.469       22.339     1283.755      990.295      499.036        0.866        0.139      119.816       20.241        0.029      336.626        8.055      866.716
01/07/2021  15:00:00       81.739        8.250      -12.109       50.182       38.470       27.877     2518.258     1479.950      777.139        0.583        0.239       82.154       28.454        0.120      336.763        8.283      866.704
01/07/2021  15:01:00       44.691       11.762      -15.768       36.040       48.076       21.458     1298.856     2311.331      460.464        0.323        0.204       46.213       19.275        0.174      336.810        8.361      866.705
01/07/2021  15:02:00       97.258       75.839      -20.123       34.532       18.553       20.571     1192.457      344.217      423.164        0.879        0.098      123.332       17.098        0.019      336.616        8.039      866.717
01/07/2021  15:03:00       62.761       45.430      -11.029       34.199       27.406       19.860     1169.571      751.100      394.429        0.422        0.116       77.478       16.859        0.047      336.613        8.034      866.722
01/07/2021  15:04:00       44.900       41.149       -8.367       35.912       14.735       18.031     1289.698      217.124      325.133        0.281        0.092       60.904       20.270        0.111      336.611        8.029      866.728
01/07/2021  15:05:00      120.824       45.832      -15.300       41.128       12.747       16.911     1691.531      162.474      285.983        0.954        0.107      129.224       20.449        0.025      336.541        7.914      866.739
01/07/2021  15:06:00       75.329       40.569      -15.790       47.915        8.274       17.486     2295.853       68.458      305.745        0.512        0.134       85.559       25.655        0.090      336.560        7.944      866.743
01/07/2021  15:07:00       25.318       10.726       -9.705       29.067       10.115       16.338      844.890      102.316      266.940        0.103        0.061       27.496       18.275        0.442      336.603        8.015      866.732
01/07/2021  15:08:00       60.939       36.789      -12.395       37.658       13.532       20.122     1418.138      183.115      404.886        0.361        0.100       71.183       24.385        0.117      336.594        8.000      866.715
01/07/2021  15:09:00       66.767       64.014      -14.098       29.759       20.850       17.638      885.626      434.734      311.106        0.519        0.082       92.497       16.767        0.033      336.569        7.959      866.693
01/07/2021  15:10:00       44.552       57.804       -2.798       28.239       25.703       17.121      797.434      660.630      293.131        0.354        0.088       72.981       18.705        0.066      336.621        8.047      866.677
01/07/2021  15:11:00       53.012       39.186       -4.288       24.622       38.094       20.313      606.232     1451.144      412.603        0.342        0.123       65.923       18.944        0.083      336.647        8.091      866.666
01/07/2021  15:12:00       45.085       33.764       -7.367       39.375       31.352       18.850     1550.421      982.919      355.306        0.306        0.144       56.326       21.613        0.147      336.732        8.232      866.668
01/07/2021  15:13:00       88.030       55.470       -9.670       50.710       33.001       21.099     2571.550     1089.035      445.147        0.751        0.205      104.049       26.699        0.066      336.674        8.136      866.681
01/07/2021  15:14:00       95.580       49.278      -18.243       32.516       24.913       17.119     1057.266      620.654      293.072        0.693        0.099      107.536       16.929        0.025      336.572        7.966      866.686
01/07/2021  15:15:00       51.405       63.981       -3.955       37.050       36.118       24.393     1372.736     1304.480      595.006        0.501        0.164       82.073       26.960        0.108      336.636        8.071      866.678
01/07/2021  15:16:00       67.751       25.857      -15.070       37.293       33.855       21.783     1390.770     1146.173      474.484        0.425        0.151       72.517       21.229        0.086      336.662        8.115      866.653
01/07/2021  15:17:00       80.264       42.895      -10.610       30.909       21.544       18.787      955.341      464.146      352.937        0.508        0.089       91.007       19.954        0.048      336.661        8.114      866.626
01/07/2021  15:18:00       61.104       29.281      -16.932       44.589       36.665       21.896     1988.191     1344.319      479.445        0.434        0.191       67.758       21.645        0.102      336.781        8.313      866.624
01/07/2021  15:19:00       39.856       18.250       -3.624       52.927       46.390       28.748     2801.225     2151.997      826.464        0.386        0.289       43.836       29.701        0.459      336.997        8.674      866.638
01/07/2021  15:20:00       82.299       23.375      -13.572       39.979       61.788       25.370     1598.293     3817.798      643.659        0.678        0.303       85.554       25.581        0.089      336.756        8.272      866.662
01/07/2021  15:21:00       61.579      -13.718       -4.590       52.304       43.476       36.012     2735.757     1890.162     1296.874        0.496        0.296       63.089       35.295        0.313      336.901        8.513      866.647
01/07/2021  15:22:00       70.943        8.055      -23.969       51.078       38.400       33.903     2608.948     1474.533     1149.434        0.545        0.262       71.399       34.025        0.227      336.798        8.343      866.640
01/07/2021  15:23:00       89.721        9.123      -16.041       67.589       50.743       29.918     4568.292     2574.863      895.097        0.821        0.402       90.183       28.917        0.103      336.854        8.436      866.626
01/07/2021  15:24:00       79.604      -22.277      -15.559       70.187       69.011       36.777     4926.195     4762.528     1352.563        0.906        0.552       82.662       34.951        0.179      336.874        8.468      866.612
01/07/2021  15:25:00      120.591      -41.954      -20.728       72.666       65.184       43.481     5280.405     4248.996     1890.580        1.407        0.571      127.680       43.427        0.116      336.708        8.192      866.611
01/07/2021  15:26:00      116.836       -9.167       -9.920       84.511       70.421       50.675     7142.084     4959.064     2567.926        1.425        0.733      117.195       49.606        0.179      336.704        8.185      866.587
01/07/2021  15:27:00      110.725        4.622      -11.326       93.996       46.839       44.796     8835.200     2193.866     2006.695        1.272        0.652      110.821       38.426        0.120      336.724        8.217      866.590
01/07/2021  15:28:00      116.246      -32.304       -2.531       93.221       51.715       49.834     8690.101     2674.460     2483.436        1.420        0.692      120.651       50.684        0.176      336.774        8.300      866.592
01/07/2021  15:29:00      120.223      -54.962      -31.945       79.626       78.362       48.229     6340.238     6140.560     2326.043        1.665        0.740      132.191       46.227        0.122      336.790        8.327      866.572
01/07/2021  15:30:00      103.487      -16.403      -20.607       73.523       73.463       40.847     5405.594     5396.748     1668.440        1.193        0.624      104.779       47.124        0.202      336.735        8.237      866.562
01/07/2021  15:31:00       82.427      -20.909      -12.880       60.166       50.292       30.749     3619.933     2529.260      945.502        0.724        0.355       85.037       29.919        0.124      336.787        8.323      866.570
01/07/2021  15:32:00       72.600      -17.949       -1.679       68.670       56.172       39.228     4715.595     3155.323     1538.840        0.750        0.470       74.786       37.338        0.249      336.850        8.427      866.585
01/07/2021  15:33:00      105.353      -29.448       -8.889       77.735       38.963       37.700     6042.782     1518.112     1421.316        1.051        0.449      109.392       37.573        0.118      336.760        8.278      866.607
01/07/2021  15:34:00       88.385      -19.522      -16.135       58.019       35.239       20.843     3366.204     1241.773      434.420        0.675        0.252       90.515       21.535        0.057      336.778        8.308      866.632
01/07/2021  15:35:00       47.460        5.970       -9.868       41.869       31.352       24.874     1753.030      982.936      618.718        0.287        0.168       47.834       23.616        0.244      336.937        8.572      866.616
01/07/2021  15:36:00       51.669      -53.313       -1.493       45.334       58.752       29.935     2055.184     3451.765      896.121        0.596        0.320       74.242       28.071        0.143      336.894        8.502      866.577
01/07/2021  15:37:00       95.785       52.510      -13.950       48.895       52.045       29.655     2390.673     2708.684      879.436        0.905        0.299      109.234       19.210        0.031      336.918        8.541      866.540
01/07/2021  15:38:00      186.650       75.127      -15.984       45.901       41.812       28.893     2106.939     1748.284      834.794        2.271        0.235      201.202       19.349        0.009      336.753        8.266      866.500
01/07/2021  15:39:00      113.507       22.887       -8.677       69.933       48.586       32.105     4890.657     2360.618     1030.754        1.088        0.414      115.792       32.544        0.079      336.817        8.374      866.472
01/07/2021  15:40:00       73.875      -33.413      -13.543       57.310       67.164       31.510     3284.411     4510.957      992.857        0.777        0.439       81.080       28.660        0.125      336.871        8.465      866.449
01/07/2021  15:41:00       54.767      -28.956        0.271       53.411       56.124       30.707     2852.773     3149.855      942.933        0.539        0.347       61.951       27.426        0.196      336.943        8.583      866.438
01/07/2021  15:42:00       55.108      -36.186      -24.666       61.201       59.102       31.960     3745.503     3493.092     1021.430        0.661        0.413       65.927       29.556        0.201      336.967        8.624      866.428
01/07/2021  15:43:00       84.728      -60.118      -19.927       55.053       67.552       37.561     3030.864     4563.251     1410.836        1.010        0.450      103.889       33.476        0.104      336.868        8.460      866.411
01/07/2021  15:44:00      188.733       -6.131      -22.676       76.251       55.215       38.681     5814.185     3048.715     1496.253        2.326        0.518      188.833       44.025        0.054      336.764        8.283      866.369
01/07/2021  15:45:00       94.666        4.160      -17.413       68.739       52.411       38.827     4724.993     2746.937     1507.521        0.913        0.449       94.757       35.100        0.137      336.857        8.440      866.324
01/07/2021  15:46:00       96.265      -61.483      -18.357       73.610       87.374       45.392     5418.459     7634.261     2060.421        1.425        0.756      114.224       46.463        0.165      336.838        8.409      866.287
01/07/2021  15:47:00      123.682       -4.314      -18.744       80.958       62.520       54.587     6554.210     3908.705     2979.748        1.455        0.672      123.757       47.429        0.147      336.860        8.445      866.245
01/07/2021  15:48:00       79.762      -26.781      -12.301       77.163       65.484       44.753     5954.066     4288.127     2002.835        0.974        0.612       84.138       43.212        0.264      336.813        8.366      866.223
01/07/2021  15:49:00      137.859       -9.317        3.871      101.293       82.625       58.131    10260.261     6826.922     3379.239        1.978        1.023      138.173       50.416        0.133      336.705        8.186      866.218
01/07/2021  15:50:00       55.348      -12.712        8.491       77.632       60.993       52.041     6026.682     3720.148     2708.312        0.787        0.623       56.789       51.085        0.809      336.719        8.209      866.233
01/07/2021  15:51:00       59.759       18.132       -8.359       61.446       53.670       38.043     3775.559     2880.445     1447.303        0.603        0.405       62.449       39.393        0.398      336.676        8.138      866.249
01/07/2021  15:52:00      113.396      -53.930      -14.200       52.858       72.591       35.118     2793.993     5269.433     1233.281        1.263        0.465      125.567       36.507        0.085      336.648        8.091      866.256
01/07/2021  15:53:00       89.870      -37.966      -22.047       58.770       44.123       33.455     3453.917     1946.859     1119.215        0.826        0.326       97.561       35.324        0.131      336.751        8.263      866.253
01/07/2021  15:54:00      111.023        7.372       -4.111       74.273       45.440       35.180     5516.470     2064.763     1237.604        1.061        0.441      111.268       30.679        0.076      336.680        8.146      866.240
01/07/2021  15:55:00      140.812      -42.767      -12.781       81.277       51.428       33.276     6605.909     2644.847     1107.316        1.609        0.518      147.163       34.067        0.054      336.690        8.161      866.246
01/07/2021  15:56:00      126.060      -15.774      -13.696       56.271       58.125       35.687     3166.460     3378.483     1273.543        1.207        0.391      127.043       31.255        0.061      336.785        8.321      866.270
01/07/2021  15:57:00       91.698        9.304        0.277       48.028       46.208       29.169     2306.721     2135.176      850.815        0.689        0.265       92.169       20.193        0.048      336.800        8.346      866.307
01/07/2021  15:58:00      162.121        3.915      -14.302       59.713       44.066       20.550     3565.687     1941.819      422.315        1.622        0.296      162.168       18.916        0.014      336.665        8.121      866.338
01/07/2021  15:59:00       98.009       58.649      -12.338       34.015       25.824       18.075     1156.987      666.860      326.703        0.767        0.108      114.217       17.550        0.024      336.646        8.088      866.364
01/07/2021  16:00:00       86.660       57.889       -7.019       47.181       21.639       19.848     2226.026      468.239      393.961        0.700        0.154      104.217       20.062        0.037      336.637        8.073      866.366
01/07/2021  16:01:00      159.413       46.153      -12.070       52.839       47.374       29.178     2791.927     2244.307      851.348        1.679        0.294      165.960       29.759        0.032      336.648        8.090      866.350
01/07/2021  16:02:00       96.188       -4.837       -2.295       70.586       42.759       37.185     4982.405     1828.368     1382.723        0.874        0.410       96.310       35.333        0.135      336.708        8.193      866.325
01/07/2021  16:03:00       69.404       -2.650       -5.689       64.578       47.400       42.126     4170.279     2246.775     1774.614        0.652        0.410       69.455       40.664        0.343      336.733        8.234      866.300
01/07/2021  16:04:00      101.453        5.207        2.337       67.741       52.984       39.889     4588.816     2807.325     1591.161        0.965        0.449      101.586       34.256        0.114      336.719        8.211      866.298
01/07/2021  16:05:00       18.626       14.125       -4.291       46.360       45.671       31.093     2149.208     2085.848      966.777        0.288        0.260       23.377       20.832        0.794      336.823        8.383      866.302
01/07/2021  16:06:00       48.149       35.505        9.765       37.340       48.971       24.106     1394.301     2398.193      581.110        0.402        0.219       59.824       15.657        0.068      336.740        8.245      866.311
01/07/2021  16:07:00      133.349       45.869      -10.950       51.311       39.652       23.811     2632.778     1572.283      566.965        1.239        0.239      141.017       27.068        0.037      336.670        8.131      866.331
01/07/2021  16:08:00       79.483       83.524       -9.782       54.930       41.176       24.990     3017.254     1695.457      624.518        0.936        0.267      115.299       19.371        0.028      336.673        8.134      866.354
01/07/2021  16:09:00       93.087       81.054       -6.321       51.497       38.824       27.787     2651.946     1507.285      772.090        1.010        0.247      123.430       21.281        0.030      336.631        8.063      866.378
01/07/2021  16:10:00       64.375       70.905      -13.430       40.815       34.012       24.037     1665.866     1156.821      577.793        0.638        0.170       95.769       24.641        0.066      336.618        8.039      866.398
01/07/2021  16:11:00       50.326       57.417       -5.113       38.712       31.112       23.258     1498.581      967.985      540.939        0.443        0.150       76.350       19.539        0.065      336.670        8.128      866.401
01/07/2021  16:12:00       63.477       22.506      -10.366       42.068       25.184       22.843     1769.717      634.224      521.806        0.378        0.146       67.349       25.566        0.144      336.661        8.112      866.398
01/07/2021  16:13:00       16.515       -9.450        1.468       36.063       28.714       22.869     1300.509      824.481      522.992        0.151        0.132       19.027       18.325        0.927      336.729        8.228      866.390
01/07/2021  16:14:00       44.469        6.903       -8.167       43.701       43.400       25.799     1909.740     1883.596      665.597        0.327        0.223       45.002       20.479        0.207      336.768        8.292      866.391
01/07/2021  16:15:00       32.201        2.378       -9.037       42.963       43.701       25.581     1845.782     1909.767      654.410        0.277        0.220       32.288       27.356        0.718      336.753        8.267      866.401
01/07/2021  16:16:00       63.479       25.713      -13.895       39.399       23.014       18.557     1552.242      529.622      344.363        0.365        0.121       68.489       22.205        0.105      336.618        8.039      866.423
01/07/2021  16:17:00       51.980       19.399       -9.529       32.480       30.258       16.125     1054.965      915.545      260.006        0.270        0.112       55.482       19.213        0.120      336.592        7.998      866.442
01/07/2021  16:18:00       61.522       21.902       -6.437       36.975       15.128       17.590     1367.129      228.851      309.395        0.311        0.095       65.304       22.781        0.122      336.575        7.969      866.454
01/07/2021  16:19:00       70.719       19.531       -6.183       42.310       16.277       19.518     1790.171      264.952      380.959        0.393        0.122       73.367       24.057        0.108      336.564        7.950      866.454
01/07/2021  16:20:00       62.184       30.870       -3.985       46.752       15.586       19.495     2185.787      242.930      380.040        0.382        0.140       69.425       23.924        0.119      336.541        7.913      866.434
01/07/2021  16:21:00       92.636       14.193       -6.438       51.612       25.633       25.664     2663.808      657.072      658.642        0.640        0.199       93.716       33.445        0.127      336.604        8.018      866.409
01/07/2021  16:22:00      123.354       16.678       -8.066       52.054       44.622       31.242     2709.649     1991.129      976.064        1.062        0.284      124.476       29.615        0.057      336.614        8.034      866.388
01/07/2021  16:23:00       78.420       36.909       -6.264       62.585       38.792       26.446     3916.896     1504.834      699.410        0.683        0.306       86.672       30.602        0.125      336.577        7.972      866.386
01/07/2021  16:24:00       96.591       40.492      -12.446       49.478       39.658       25.228     2448.092     1572.755      636.447        0.789        0.233      104.734       28.462        0.074      336.564        7.951      866.400
01/07/2021  16:25:00       68.054       22.889      -12.601       37.116       18.479       20.697     1377.618      341.457      428.381        0.373        0.107       71.800       24.118        0.113      336.473        7.797      866.427
01/07/2021  16:26:00       75.190       33.342       -7.876       40.689       17.324       19.812     1655.607      300.118      392.526        0.459        0.117       82.251       25.229        0.094      336.451        7.762      866.461
01/07/2021  16:27:00       59.519       38.391       -5.966       30.008       23.515       13.822      900.453      552.944      191.034        0.335        0.082       70.826       15.896        0.050      336.436        7.736      866.486
01/07/2021  16:28:00       76.003       44.658       -5.730       46.799       24.248       20.949     2190.135      587.982      438.848        0.551        0.161       88.153       25.885        0.086      336.486        7.820      866.495
01/07/2021  16:29:00       54.109       58.245       -8.787       33.293       25.251       19.378     1108.414      637.593      375.491        0.426        0.106       79.500       20.451        0.066      336.505        7.852      866.489
01/07/2021  16:30:00       61.138       16.024       -5.673       43.820       29.194       17.920     1920.166      852.304      321.127        0.356        0.155       63.203       22.572        0.128      336.463        7.782      866.474
01/07/2021  16:31:00       63.190       64.241       -3.055       35.201       31.861       23.254     1239.106     1015.152      540.741        0.546        0.140       90.111       20.601        0.052      336.448        7.756      866.474
01/07/2021  16:32:00       53.388       52.609       -4.341       38.766       25.217       24.787     1502.791      635.875      614.406        0.419        0.138       74.954       21.612        0.083      336.393        7.665      866.491
01/07/2021  16:33:00       41.929       88.740       -0.939       36.810       31.521       22.965     1354.962      993.568      527.373        0.625        0.144       98.147       20.117        0.042      336.443        7.748      866.508
01/07/2021  16:34:00       43.084       98.436       -4.820       41.599       35.104       25.552     1730.463     1232.311      652.906        0.759        0.181      107.451       23.517        0.048      336.440        7.743      866.534
01/07/2021  16:35:00       61.333       51.948       -1.489       42.450       27.798       19.053     1801.995      772.722      363.024        0.470        0.147       80.377       18.512        0.053      336.334        7.566      866.540
01/07/2021  16:36:00       91.757       72.717       -8.856       45.177       30.647       22.909     2041.001      939.211      524.836        0.864        0.175      117.077       22.801        0.038      336.380        7.641      866.536
01/07/2021  16:37:00       80.399       63.065      -11.628       36.344       28.213       20.240     1320.861      795.975      409.661        0.655        0.126      102.182       19.243        0.035      336.320        7.541      866.533
01/07/2021  16:38:00       86.092       61.421       -6.742       42.733       29.748       25.864     1826.099      884.972      668.962        0.730        0.169      105.756       22.927        0.047      336.297        7.505      866.534
01/07/2021  16:39:00       96.406       76.628      -12.758       34.328       32.684       21.885     1178.398     1068.263      478.954        0.903        0.136      123.151       16.669        0.018      336.296        7.503      866.531
01/07/2021  16:40:00       85.062       65.568      -12.013       39.808       28.239       23.007     1584.689      797.416      529.319        0.729        0.146      107.400       19.637        0.033      336.279        7.473      866.537
01/07/2021  16:41:00       57.199       63.398      -17.553       38.547       28.765       21.374     1485.895      827.449      456.861        0.518        0.139       85.387       19.356        0.051      336.267        7.454      866.539
01/07/2021  16:42:00       83.158       79.309      -13.660       38.918       31.106       22.800     1514.607      967.605      519.832        0.820        0.150      114.914       21.002        0.033      336.241        7.409      866.542
01/07/2021  16:43:00       56.587       58.909       -1.094       31.881       34.385       20.301     1016.412     1182.308      412.144        0.464        0.131       81.685       14.987        0.034      336.207        7.354      866.538
01/07/2021  16:44:00       79.167       59.187      -12.262       35.587       20.452       17.748     1266.424      418.265      315.009        0.596        0.100       98.845       16.469        0.028      336.215        7.367      866.525
01/07/2021  16:45:00       53.876       32.392       -5.601       36.838       23.387       18.968     1357.059      546.929      359.792        0.312        0.113       62.864       21.545        0.117      336.174        7.298      866.515
01/07/2021  16:46:00       61.219       52.938       -3.300       36.434       25.257       18.576     1327.466      637.935      345.086        0.444        0.116       80.933       14.049        0.030      336.159        7.273      866.485
01/07/2021  16:47:00       50.557       45.352       -5.419       31.503       18.023       20.173      992.452      324.836      406.965        0.318        0.086       67.917       20.308        0.089      336.163        7.281      866.480
01/07/2021  16:48:00       56.376       35.507       -4.348       24.585       16.681       15.095      604.413      278.260      227.856        0.278        0.056       66.626       14.850        0.050      336.129        7.224      866.476
01/07/2021  16:49:00       46.943       32.767       -4.241       21.357       13.270       12.787      456.108      176.098      163.500        0.205        0.040       57.248       11.718        0.042      336.126        7.218      866.477
01/07/2021  16:50:00       32.856       33.581        2.874       30.595       20.961       16.114      936.037      439.368      259.661        0.192        0.082       46.981       17.326        0.136      336.111        7.193      866.487
01/07/2021  16:51:00       15.896       30.080        1.226       21.149       16.337       15.400      447.260      266.911      237.158        0.105        0.048       34.022       16.561        0.237      336.163        7.280      866.495
01/07/2021  16:52:00       13.050       19.466        3.685       33.113       19.321       19.664     1096.501      373.316      386.691        0.121        0.093       23.435       21.141        0.814      336.156        7.268      866.494
01/07/2021  16:53:00       14.149       44.032       -4.924       22.759       10.623       13.270      517.989      112.856      176.106        0.148        0.040       46.249       10.979        0.056      336.176        7.302      866.488
01/07/2021  16:54:00       26.183       39.211       -1.410       24.882       14.618       13.666      619.131      213.675      186.758        0.162        0.051       47.150       14.836        0.099      336.199        7.339      866.479
01/07/2021  16:55:00        2.734       55.180       -6.661       28.056       18.484       12.083      787.124      341.675      145.997        0.219        0.064       55.248       12.798        0.054      336.237        7.402      866.484
01/07/2021  16:56:00       11.123       83.760       -7.591       25.565       21.129       14.478      653.559      446.445      209.614        0.425        0.065       84.495       14.461        0.029      336.330        7.559      866.490
01/07/2021  16:57:00       -7.163       71.558       -7.919       14.238       24.518       12.100      202.715      601.146      146.404        0.309        0.048       71.916        7.243        0.010      336.350        7.594      866.496
01/07/2021  16:58:00        3.072       62.488      -12.168       23.381       20.336       13.598      546.648      413.571      184.898        0.260        0.057       62.564        6.645        0.011      336.352        7.598      866.505
01/07/2021  16:59:00      -14.325       25.384       -0.339       23.478       24.391       14.699      551.228      594.945      216.059        0.111        0.068       29.147        7.983        0.075      336.273        7.462      866.522
01/07/2021  17:00:00      -71.534       27.418        0.518       28.458       15.190       17.331      809.842      230.724      300.380        0.360        0.067       76.608       14.733        0.037      336.234        7.398      866.536
01/07/2021  17:01:00     -104.053       48.211      -15.703       58.694       34.919       30.371     3444.990     1219.343      922.369        0.949        0.279      114.679       25.722        0.050      336.017        7.036      866.541
01/07/2021  17:02:00     -100.526        9.677      -16.683       60.610       43.700       28.076     3673.520     1909.704      788.265        0.842        0.319      100.990       33.023        0.107      335.673        6.462      866.544
01/07/2021  17:03:00     -145.398       31.178      -15.063       38.396       29.739       20.482     1474.216      884.434      419.506        1.256        0.139      148.703       16.114        0.012      335.562        6.278      866.539
01/07/2021  17:04:00     -113.091       22.543       -8.485       57.979       35.180       20.461     3361.579     1237.602      418.666        0.919        0.251      115.316       25.023        0.047      335.518        6.205      866.549
01/07/2021  17:05:00      -90.139       14.888      -12.245       54.514       30.136       25.447     2971.753      908.208      647.571        0.651        0.226       91.360       25.112        0.076      335.523        6.213      866.572
01/07/2021  17:06:00      -96.700       26.461       -7.703       40.734       29.878       20.960     1659.239      892.700      439.341        0.655        0.150      100.255       12.205        0.015      335.538        6.239      866.586
01/07/2021  17:07:00      -91.674       12.637       -2.424       49.836       33.592       21.967     2483.675     1128.453      482.554        0.633        0.205       92.541       12.027        0.017      335.510        6.191      866.603
01/07/2021  17:08:00      -24.953      -18.963       -0.758       51.758       34.488       25.985     2678.849     1189.425      675.220        0.276        0.227       31.341       29.172        0.866      335.466        6.118      866.605
01/07/2021  17:09:00       -6.370       -6.866       -2.623       35.571       19.177       16.701     1265.265      367.763      278.913        0.100        0.096        9.366       16.725        3.189      335.429        6.055      866.596
01/07/2021  17:10:00      -32.117       -2.473       -5.584       26.065       18.969       14.810      679.385      359.817      219.324        0.116        0.063       32.212        9.367        0.085      335.462        6.111      866.586
01/07/2021  17:11:00      -82.997       15.686       -2.454       43.756       22.784       14.452     1914.583      519.093      208.866        0.489        0.132       84.467        7.465        0.008      335.355        5.933      866.584
01/07/2021  17:12:00      -70.978       19.541       -9.143       25.372       19.263       14.824      643.718      371.071      219.764        0.337        0.062       73.618       14.766        0.040      335.306        5.852      866.591
01/07/2021  17:13:00      -54.044       -6.186       -4.343       24.435       21.445       15.909      597.086      459.887      253.092        0.214        0.066       54.397       12.265        0.051      335.285        5.816      866.604
01/07/2021  17:14:00      -71.577       -3.100      -10.496       26.035       30.126       21.431      677.817      907.573      459.309        0.364        0.102       71.644       15.617        0.048      335.275        5.800      866.623
01/07/2021  17:15:00      -49.870       -3.858       -0.117       49.436       29.308       20.688     2443.939      858.961      428.012        0.312        0.187       50.019       19.618        0.154      335.220        5.709      866.642
01/07/2021  17:16:00      -54.142       12.012       -1.594       46.926       29.182       22.685     2202.021      851.585      514.599        0.332        0.178       55.459       15.457        0.078      335.203        5.679      866.667
01/07/2021  17:17:00      -50.005       14.521       -9.181       43.412       29.199       19.005     1884.600      852.592      361.182        0.295        0.155       52.070       18.260        0.123      335.194        5.665      866.684
01/07/2021  17:18:00      -39.413        8.396       -7.927       26.287       27.451       12.177      690.988      753.540      148.287        0.164        0.080       40.298       11.283        0.078      335.211        5.693      866.691
01/07/2021  17:19:00        0.848       -0.885        3.023       16.516       15.781       13.854      272.792      249.044      191.943        0.036        0.036        1.226        7.748       39.964      335.132        5.563      866.695
01/07/2021  17:20:00      -13.332      -17.219       -4.399       20.737       21.480       12.688      430.042      461.383      160.997        0.077        0.053       21.777        9.474        0.189      335.198        5.673      866.695
01/07/2021  17:21:00      -21.136       -4.571       -7.087       20.034       22.457       10.714      401.381      504.333      114.793        0.077        0.051       21.625        4.266        0.039      335.207        5.687      866.688
01/07/2021  17:22:00      -42.163       -6.695       -2.742       27.689       17.122       11.301      766.685      293.176      127.708        0.151        0.059       42.691       15.104        0.125      335.196        5.669      866.687
01/07/2021  17:23:00      -34.652      -17.763        1.579       22.492       26.196       10.369      505.882      686.214      107.520        0.141        0.065       38.940        8.651        0.049      335.179        5.642      866.688
01/07/2021  17:24:00      -25.385       -2.769       -6.636       29.279       20.369       16.717      857.265      414.886      279.448        0.112        0.078       25.535        6.329        0.061      335.178        5.639      866.690
01/07/2021  17:25:00      -22.240        1.549        1.000       26.971       15.494       15.570      727.409      240.060      242.428        0.085        0.060       22.294        6.933        0.097      335.216        5.702      866.690
01/07/2021  17:26:00      -83.859       17.308      -10.483       17.730       11.220       12.969      314.338      125.884      168.185        0.402        0.030       85.626        7.566        0.008      335.237        5.736      866.683
01/07/2021  17:27:00      -72.139        5.305       -6.645       16.725       11.556        9.248      279.715      133.546       85.529        0.289        0.025       72.334        5.070        0.005      335.218        5.704      866.678
01/07/2021  17:28:00      -62.578        5.787       -9.524       17.781       11.077       10.196      316.150      122.694      103.953        0.229        0.027       62.845        6.251        0.010      335.176        5.637      866.686
01/07/2021  17:29:00      -88.776       22.391       -6.414       18.743       13.830       10.664      351.286      191.271      113.715        0.454        0.033       91.556        6.454        0.005      335.189        5.657      866.692
01/07/2021  17:30:00      -77.305       19.965       -5.699       31.189       19.629       17.231      972.779      385.312      296.918        0.403        0.083       79.841       13.422        0.028      335.102        5.514      866.692
01/07/2021  17:31:00      -84.662       22.673       -5.838       26.953       27.335       16.736      726.487      747.185      280.090        0.473        0.088       87.645        8.858        0.010      335.096        5.504      866.697
01/07/2021  17:32:00      -54.520        3.310        1.830       47.299       25.355       15.582     2237.203      642.890      242.812        0.305        0.156       54.620       16.069        0.087      335.019        5.376      866.708
01/07/2021  17:33:00      -47.985       -2.600       -0.623       35.544       20.811       18.523     1263.348      433.078      343.115        0.217        0.102       48.055       15.556        0.105      335.060        5.445      866.718
01/07/2021  17:34:00      -91.006        3.991       -4.620       21.033       12.378       13.036      442.371      153.226      169.932        0.454        0.038       91.094       12.151        0.018      335.092        5.496      866.722
01/07/2021  17:35:00      -59.731        5.008       -6.027       13.280        6.726        7.675      176.354       45.237       58.902        0.195        0.014       59.940        4.920        0.007      335.069        5.457      866.720
01/07/2021  17:36:00      -54.249        4.855      -10.142        6.377        6.352        4.866       40.667       40.351       23.679        0.159        0.005       54.466        3.805        0.005      335.144        5.583      866.714
01/07/2021  17:37:00      -47.369        2.373       -8.116       13.317        9.015        6.695      177.353       81.262       44.823        0.131        0.015       47.428        5.345        0.013      335.173        5.632      866.702
01/07/2021  17:38:00      -40.757        7.160       -8.762        7.572        5.106        5.529       57.340       26.073       30.572        0.095        0.006       41.382        4.151        0.010      335.117        5.537      866.695
01/07/2021  17:39:00      -45.127        2.553       -8.712       10.262        6.351        8.126      105.312       40.336       66.035        0.117        0.011       45.199        4.995        0.012      335.119        5.540      866.699
01/07/2021  17:40:00      -64.876        2.094      -14.343       10.125        7.726        6.213      102.519       59.685       38.606        0.231        0.010       64.910        3.264        0.003      335.120        5.544      866.699
01/07/2021  17:41:00      -93.925        3.696       -9.248       14.530        8.957       11.282      211.121       80.232      127.284        0.467        0.021       93.998        4.419        0.002      335.114        5.533      866.710
01/07/2021  17:42:00     -115.589       14.925       -0.977       24.723       16.688       15.879      611.206      278.498      252.134        0.736        0.057      116.549       12.735        0.012      334.988        5.324      866.722
01/07/2021  17:43:00     -100.119       22.085       -2.876       27.558       28.512       18.395      759.470      812.951      338.366        0.621        0.096      102.526       14.279        0.019      334.870        5.128      866.734
01/07/2021  17:44:00     -109.064       31.335       -7.510       27.866       18.483       15.345      776.493      341.615      235.471        0.714        0.068      113.477        9.905        0.008      334.735        4.904      866.750
01/07/2021  17:45:00     -134.708       14.974       -7.855       32.567       23.155       16.975     1060.608      536.136      288.147        1.016        0.094      135.538        7.481        0.003      334.722        4.882      866.770
01/07/2021  17:46:00     -132.162       12.587       -0.279       42.818       31.712       21.761     1833.416     1005.643      473.535        1.047        0.166      132.760       21.508        0.026      334.676        4.806      866.784
01/07/2021  17:47:00     -138.302       15.278       -5.712       60.272       22.859       26.345     3632.667      522.539      694.084        1.212        0.242      139.144       30.370        0.048      334.610        4.697      866.790
01/07/2021  17:48:00     -107.671       18.305        6.386       49.925       29.004       25.131     2492.492      841.258      631.586        0.797        0.198      109.216       24.296        0.049      334.607        4.690      866.786
01/07/2021  17:49:00      -87.383        3.068        2.504       53.302       26.380       20.321     2841.063      695.879      412.947        0.580        0.197       87.437       18.139        0.043      334.643        4.750      866.779
01/07/2021  17:50:00      -56.667       10.699       -1.152       30.834       29.092       17.463      950.718      846.367      304.974        0.271        0.105       57.668       13.796        0.057      334.647        4.756      866.772
01/07/2021  17:51:00      -70.018       11.910        1.310       55.749       26.379       15.101     3107.989      695.872      228.026        0.454        0.202       71.023       15.205        0.046      334.601        4.681      866.770
01/07/2021  17:52:00      -62.905        2.644        3.753       35.785       22.634       19.038     1280.589      512.282      362.448        0.307        0.108       62.960       14.950        0.056      334.682        4.816      866.768
01/07/2021  17:53:00      -88.224       -1.542        1.465       34.813       27.711       22.679     1211.950      767.882      514.360        0.514        0.125       88.237       16.650        0.036      334.679        4.811      866.769
01/07/2021  17:54:00      -28.135       -6.370        1.471       25.884       27.868       14.497      669.992      776.630      210.165        0.125        0.083       28.848       10.521        0.133      334.642        4.748      866.782
01/07/2021  17:55:00     -116.253       13.844       -9.236       33.807       26.788       18.414     1142.887      717.587      339.076        0.800        0.110      117.074       12.788        0.012      334.528        4.560      866.789
01/07/2021  17:56:00     -113.707       21.041       -7.714       51.638       39.126       25.659     2666.507     1530.817      658.379        0.914        0.243      115.637       22.745        0.039      334.471        4.465      866.797
01/07/2021  17:57:00      -72.543       -3.392       -0.401       49.372       23.000       23.986     2437.621      529.022      575.325        0.441        0.177       72.622       27.193        0.140      334.484        4.488      866.799
01/07/2021  17:58:00      -54.430       -2.758      -10.851       52.417       33.598       19.207     2747.490     1128.826      368.920        0.367        0.212       54.499       18.722        0.118      334.437        4.410      866.799
01/07/2021  17:59:00      -61.800       -3.756        9.459       56.387       40.581       32.304     3179.504     1646.840     1043.522        0.490        0.293       61.914       28.571        0.213      334.382        4.318      866.797
01/07/2021  18:00:00      -29.426      -11.236        1.691       41.708       32.655       19.863     1739.538     1066.350      394.544        0.210        0.160       31.499        7.410        0.055      334.299        4.179      866.800
01/07/2021  18:01:00      -99.231       -6.030       -9.190       55.931       29.749       24.661     3128.315      884.988      608.166        0.729        0.231       99.414       18.272        0.034      334.360        4.282      866.804
01/07/2021  18:02:00      -44.996       -3.853        1.484       37.672       31.129       26.746     1419.152      969.013      715.340        0.257        0.155       45.161       19.038        0.178      334.346        4.258      866.808
01/07/2021  18:03:00      -21.184       -1.385        4.340       41.055       30.325       19.687     1685.515      919.580      387.574        0.173        0.150       21.229       17.958        0.716      334.349        4.264      866.810
01/07/2021  18:04:00      -77.044        5.056       -7.692       37.037       28.119       19.636     1371.718      790.675      385.569        0.428        0.127       77.209       21.258        0.076      334.313        4.205      866.823
01/07/2021  18:05:00      -92.582       20.500      -15.530       31.660       32.413       17.862     1002.349     1050.596      319.042        0.580        0.119       94.825       13.127        0.019      334.311        4.201      866.830
01/07/2021  18:06:00      -57.796       -7.004       -6.314       44.016       29.316       20.697     1937.432      859.444      428.372        0.333        0.161       58.218       18.864        0.105      334.302        4.186      866.828
01/07/2021  18:07:00      -39.572      -21.599       -2.316       55.302       38.385       17.230     3058.301     1473.372      296.878        0.343        0.241       45.083       17.015        0.142      334.335        4.240      866.835
01/07/2021  18:08:00      -40.228       17.024        7.855       53.020       36.356       26.137     2811.138     1321.792      683.157        0.339        0.241       43.682       28.367        0.422      334.274        4.139      866.834
01/07/2021  18:09:00       -5.360      -23.404       -6.145       30.540       24.907       16.118      932.664      620.351      259.784        0.121        0.091       24.010        8.590        0.128      334.283        4.154      866.843
01/07/2021  18:10:00       -4.611      -13.462        5.425       17.456       39.517       13.107      304.702     1561.570      171.784        0.113        0.102       14.230        9.258        0.423      334.245        4.091      866.852
01/07/2021  18:11:00        3.024      -20.598      -16.157       25.454       24.758       15.065      647.885      612.954      226.944        0.109        0.074       20.819       13.708        0.434      334.277        4.143      866.865
01/07/2021  18:12:00      -12.761      -16.918      -14.215       28.521       23.391       14.744      813.441      547.155      217.372        0.111        0.079       21.192       11.801        0.310      334.249        4.097      866.881
01/07/2021  18:13:00        2.153      -32.336       -5.699       21.680       22.637       16.193      470.012      512.436      262.215        0.116        0.062       32.408       12.543        0.150      334.219        4.048      866.895
01/07/2021  18:14:00      -10.569       -8.891       -1.916       22.965       20.409       13.374      527.399      416.515      178.869        0.066        0.056       13.812       10.406        0.568      334.139        3.913      866.911
01/07/2021  18:15:00      -60.912        1.821       -5.339       35.798       22.069       17.177     1281.513      487.042      295.054        0.290        0.103       60.940       11.345        0.035      334.150        3.932      866.919
01/07/2021  18:16:00       -9.179      -20.716        1.537       29.023       20.039       14.207      842.313      401.556      201.832        0.098        0.072       22.659       15.266        0.454      334.110        3.866      866.927
01/07/2021  18:17:00       -9.069        1.655        6.176       11.419       11.274        9.020      130.399      127.111       81.354        0.023        0.017        9.219        6.091        0.437      334.124        3.890      866.925
01/07/2021  18:18:00      -19.068       -3.531       -6.501       18.383       13.834       10.854      337.929      191.373      117.820        0.053        0.032       19.392       11.135        0.330      334.191        4.001      866.923
01/07/2021  18:19:00      -49.731       16.905      -10.464       13.846       11.175       12.093      191.700      124.884      146.243        0.167        0.023       52.525       10.282        0.038      334.214        4.038      866.920
01/07/2021  18:20:00      -71.936        5.565      -14.982       12.128        8.319        9.384      147.078       69.212       88.056        0.287        0.015       72.151        3.849        0.003      334.222        4.053      866.926
01/07/2021  18:21:00      -56.530        0.129       -8.707       30.622       18.164       12.540      937.711      329.942      157.262        0.235        0.071       56.530       10.892        0.037      334.242        4.087      866.942
01/07/2021  18:22:00      -89.012       21.847      -16.575       13.665        8.877        7.204      186.743       78.796       51.899        0.450        0.016       91.654        6.711        0.005      334.159        3.948      866.943
01/07/2021  18:23:00     -106.468       35.443       -9.285       16.989       15.622       12.638      288.632      244.037      159.714        0.668        0.035      112.212        7.725        0.005      334.151        3.936      866.955
01/07/2021  18:24:00      -83.337        9.336      -10.343       22.702       25.164       14.201      515.363      633.248      201.664        0.424        0.068       83.858       12.118        0.021      334.070        3.801      866.962
01/07/2021  18:25:00      -55.216      -11.709       -7.393       25.380       28.872       16.820      644.156      833.610      282.900        0.250        0.088       56.444       12.183        0.047      334.101        3.851      866.970
01/07/2021  18:26:00      -66.348        5.557      -14.717       32.301       24.182       16.423     1043.342      584.770      269.724        0.327        0.095       66.580       18.242        0.075      334.151        3.935      866.980
01/07/2021  18:27:00      -80.970        9.503      -14.632       14.960       17.528        9.531      223.799      307.225       90.848        0.374        0.031       81.526        5.680        0.005      334.099        3.848      866.983
01/07/2021  18:28:00      -83.152       15.859      -14.428       14.048       10.914        8.533      197.349      119.116       72.819        0.388        0.019       84.651        5.844        0.005      334.054        3.774      866.980
01/07/2021  18:29:00      -83.794        9.345      -17.968       12.454        9.147        6.670      155.090       83.674       44.491        0.386        0.014       84.313        5.040        0.004      334.082        3.821      866.977
01/07/2021  18:30:00      -74.201       19.798      -17.237       28.953       12.977       13.526      838.289      168.403      182.949        0.369        0.059       76.797        6.844        0.008      334.029        3.732      866.959
01/07/2021  18:31:00      -88.586       23.538      -17.110       14.174       14.273        9.131      200.905      203.718       83.372        0.459        0.024       91.659        5.224        0.003      333.997        3.682      866.950
01/07/2021  18:32:00      -92.232       25.648      -13.393       15.295       10.701        7.665      233.930      114.511       58.750        0.488        0.020       95.732        5.411        0.003      333.943        3.590      866.944
01/07/2021  18:33:00      -80.027        6.447      -12.312       27.073       23.683       16.779      732.961      560.864      281.519        0.409        0.079       80.286       13.044        0.026      333.958        3.615      866.947
01/07/2021  18:34:00      -97.298       -6.987      -10.449       20.985       21.693       18.014      440.349      470.585      324.519        0.543        0.062       97.548        9.419        0.009      333.887        3.496      866.940
01/07/2021  18:35:00      -80.927        3.261       -7.301       36.019       24.691       15.910     1297.380      609.636      253.120        0.439        0.108       80.992       13.683        0.029      333.869        3.467      866.943
01/07/2021  18:36:00      -41.260      -16.034       -6.482       32.063       25.843       22.162     1028.031      667.838      491.134        0.209        0.109       44.266       19.638        0.197      333.933        3.575      866.947
01/07/2021  18:37:00      -57.605       16.903        1.645       46.556       22.290       17.975     2167.455      496.853      323.105        0.330        0.149       60.034       14.420        0.058      333.871        3.469      866.945
01/07/2021  18:38:00      -69.577       15.526       -5.870       33.064       30.924       19.126     1093.212      956.305      365.819        0.377        0.121       71.289       15.108        0.045      333.807        3.365      866.954
01/07/2021  18:39:00      -58.737       16.836       -7.192       35.727       36.205       23.096     1276.406     1310.819      533.447        0.345        0.156       61.102       24.923        0.166      333.794        3.342      866.940
01/07/2021  18:40:00      -79.097       -2.437      -20.458       37.661       32.907       24.316     1418.362     1082.889      591.249        0.489        0.155       79.134       26.384        0.111      333.751        3.272      866.933
01/07/2021  18:41:00     -101.539       -2.420      -13.583       24.105       27.716       16.221      581.035      768.180      263.119        0.606        0.081      101.568       14.041        0.019      333.744        3.259      866.939
01/07/2021  18:42:00      -89.798        3.932      -20.807       17.040       19.256       11.307      290.371      370.779      127.837        0.465        0.039       89.884       10.515        0.014      333.758        3.282      866.940
01/07/2021  18:43:00      -95.928       19.172      -14.609       29.020       22.879       17.313      842.135      523.461      299.726        0.572        0.083       97.825       15.954        0.027      333.735        3.245      866.939
01/07/2021  18:44:00     -115.629       18.000       -9.780       22.202       16.272       15.511      492.912      264.788      240.579        0.739        0.050      117.022        9.051        0.006      333.648        3.099      866.942
01/07/2021  18:45:00      -59.335      -13.816       -9.765       37.565       36.846       17.024     1411.162     1357.633      289.814        0.343        0.153       60.922       13.266        0.047      333.692        3.174      866.961
01/07/2021  18:46:00      -33.146        6.921        1.767       30.409       28.251       17.023      924.734      798.099      289.795        0.158        0.101       33.861       13.807        0.166      333.663        3.126      866.977
01/07/2021  18:47:00      -52.567       -7.537       -9.042       41.954       43.533       22.945     1760.176     1895.140      526.463        0.354        0.209       53.104       23.010        0.188      333.666        3.132      867.013
01/07/2021  18:48:00      -46.546       11.145        4.726       26.786       30.363       22.076      717.497      921.909      487.357        0.222        0.106       47.862       18.838        0.155      333.672        3.140      867.009
01/07/2021  18:49:00      -64.501      -14.049      -16.952       51.459       26.308       18.010     2648.051      692.119      324.375        0.415        0.183       66.014       17.589        0.071      333.630        3.072      867.004
01/07/2021  18:50:00      -27.437        3.040       -5.907       33.459       33.812       19.938     1119.477     1143.248      397.534        0.173        0.133       27.605       15.178        0.302      333.580        2.988      867.005
01/07/2021  18:51:00      -69.422       18.376       -7.770       25.835       29.431       20.408      667.440      866.197      416.498        0.358        0.098       71.813       12.280        0.029      333.610        3.039      866.990
01/07/2021  18:52:00      -60.350       -6.302       -4.433       43.816       40.806       27.793     1919.817     1665.157      772.471        0.403        0.218       60.678       26.039        0.184      333.540        2.922      866.996
01/07/2021  18:53:00      -45.595      -14.215       -7.041       37.844       35.158       20.387     1432.177     1236.090      415.640        0.271        0.154       47.759       15.291        0.103      333.526        2.898      867.001
01/07/2021  18:54:00      -36.825       -4.135      -18.783       28.662       35.250       26.986      821.482     1242.570      728.228        0.226        0.140       37.056       20.951        0.320      333.536        2.916      867.006
01/07/2021  18:55:00      -51.143        0.016      -13.103       38.494       38.248       20.949     1481.781     1462.894      438.846        0.308        0.169       51.143       15.191        0.088      333.490        2.838      867.016
01/07/2021  18:56:00      -57.785        4.831       -5.747       36.388       46.002       28.441     1324.105     2116.141      808.904        0.382        0.212       57.986       29.250        0.254      333.459        2.788      867.015
01/07/2021  18:57:00      -77.152       -2.707       -9.944       39.479       26.229       22.754     1558.604      687.971      517.752        0.441        0.138       77.199       15.292        0.039      333.482        2.826      867.002
01/07/2021  18:58:00      -59.606       -2.506       -6.174       33.972       34.741       23.734     1154.129     1206.931      563.307        0.326        0.146       59.658       20.758        0.121      333.451        2.774      866.985
01/07/2021  18:59:00      -18.946        1.880        6.561       46.850       36.246       20.999     2194.922     1313.762      440.972        0.218        0.197       19.039       21.059        1.223      333.410        2.705      866.979
01/07/2021  19:00:00     -123.629       17.765      -18.780       30.710       21.501       19.612      943.110      462.307      384.632        0.887        0.090      124.899       15.778        0.016      333.375        2.648      866.980
01/07/2021  19:01:00     -117.519        5.494       -6.456       52.745       26.095       25.393     2782.006      680.966      644.783        0.899        0.205      117.647       29.215        0.062      333.345        2.598      866.990
01/07/2021  19:02:00      -85.618        9.237       -4.681       37.586       28.681       21.612     1412.715      822.610      467.083        0.507        0.135       86.115       16.414        0.036      333.331        2.575      867.003
01/07/2021  19:03:00      -84.956       24.647      -21.906       52.656       33.396       27.958     2772.686     1115.304      781.671        0.649        0.233       88.459       21.409        0.059      333.282        2.494      867.018
01/07/2021  19:04:00      -58.500        9.947        0.944       39.491       44.127       26.882     1559.525     1947.156      722.633        0.387        0.211       59.339       24.948        0.177      333.277        2.486      867.034
01/07/2021  19:05:00      -56.224        8.957       -0.729       52.634       27.973       21.014     2770.291      782.466      441.594        0.362        0.200       56.933       29.820        0.274      333.187        2.337      867.038
01/07/2021  19:06:00      -56.080        8.360       -4.407       41.829       25.843       21.356     1749.686      667.840      456.094        0.305        0.144       56.699       19.668        0.120      333.232        2.411      867.038
01/07/2021  19:07:00      -67.268        2.613       -6.169       38.296       29.829       24.329     1466.585      889.766      591.920        0.376        0.147       67.318       12.178        0.033      333.229        2.406      867.036
01/07/2021  19:08:00      -30.384       -2.296       -4.514       30.120       22.477       18.256      907.192      505.200      333.285        0.135        0.087       30.470       18.016        0.350      333.223        2.396      867.036
01/07/2021  19:09:00       -5.567       16.007        5.955       46.906       25.133       20.794     2200.179      631.648      432.372        0.179        0.163       16.948       17.853        1.110      333.266        2.467      867.024
01/07/2021  19:10:00      -26.878       -5.889       -5.239       26.673       25.999       22.409      711.471      675.924      502.185        0.134        0.094       27.515       15.699        0.326      333.186        2.335      867.007
01/07/2021  19:11:00       -0.675       -7.640       -4.868       30.158       19.216       14.695      909.510      369.237      215.952        0.079        0.075        7.670        8.693        1.285      333.186        2.335      866.993
01/07/2021  19:12:00       -7.064      -16.872       -5.505       20.103       18.385        9.552      404.124      338.022       91.248        0.060        0.042       18.291        7.824        0.183      333.227        2.403      866.983
01/07/2021  19:13:00      -33.052        9.256       -9.184       13.780        9.686        7.611      189.889       93.819       57.932        0.080        0.017       34.323        4.451        0.017      333.552        2.940      866.964
01/07/2021  19:14:00      -56.134       14.162      -11.692       13.514       11.076       10.911      182.628      122.677      119.056        0.196        0.021       57.892        5.217        0.008      333.334        2.580      866.936
01/07/2021  19:15:00      -47.294      -19.214      -19.703       15.511       13.459        8.285      240.589      181.152       68.649        0.174        0.025       51.048        4.356        0.007      333.243        2.430      866.925
01/07/2021  19:16:00      -53.099      -22.572      -15.356       11.923       12.274        9.636      142.147      150.646       92.850        0.198        0.019       57.698        7.565        0.017      333.314        2.548      866.932
01/07/2021  19:17:00      -57.294       -1.933       -9.013       22.134       18.007       14.218      489.910      324.268      202.144        0.219        0.051       57.327       10.952        0.036      333.333        2.580      866.945
01/07/2021  19:18:00      -73.427       -4.163      -16.486       21.598       14.991       15.268      466.484      224.742      233.119        0.330        0.046       73.545       13.979        0.036      333.246        2.434      866.970
01/07/2021  19:19:00      -47.135      -11.098      -10.593       20.472       24.659       16.599      419.117      608.088      275.532        0.188        0.065       48.424       10.351        0.046      333.168        2.306      866.994
01/07/2021  19:20:00      -38.410      -12.805       -5.570       25.373       27.090       15.801      643.808      733.857      249.686        0.165        0.081       40.488       12.714        0.099      333.166        2.303      867.009
01/07/2021  19:21:00      -47.706      -14.758       -6.992       23.588       31.039       23.115      556.385      963.439      534.293        0.230        0.103       49.936       15.784        0.100      333.160        2.293      867.038
01/07/2021  19:22:00      -71.062       33.584       -6.203       50.253       25.370       19.848     2525.377      643.628      393.952        0.489        0.178       78.598       23.605        0.090      333.086        2.171      867.056
01/07/2021  19:23:00      -70.110       22.131      -13.352       37.408       35.495       25.205     1399.335     1259.926      635.274        0.444        0.165       73.520       23.740        0.104      333.102        2.197      867.067
01/07/2021  19:24:00      -64.804       -7.890       -9.923       40.322       31.586       25.064     1625.892      997.704      628.185        0.381        0.163       65.283       26.528        0.165      333.075        2.151      867.077
01/07/2021  19:25:00      -91.101      -12.631      -19.072       30.231       21.290       17.742      913.902      453.259      314.792        0.525        0.084       91.972       16.281        0.031      333.127        2.238      867.066
01/07/2021  19:26:00      -80.472        1.185      -19.421       29.280       26.405       20.365      857.289      697.244      414.735        0.441        0.098       80.481       21.237        0.070      333.082        2.166      867.061
01/07/2021  19:27:00      -93.143       22.264      -17.786       26.943       20.059       13.911      725.945      402.353      193.503        0.540        0.066       95.767        8.919        0.009      333.027        2.072      867.056
01/07/2021  19:28:00     -104.580       30.620      -15.767       24.696       29.646       13.979      609.897      878.915      195.404        0.690        0.084      108.970       11.904        0.012      332.999        2.027      867.047
01/07/2021  19:29:00     -103.042       18.403      -10.352       30.370       26.171       21.028      922.325      684.901      442.181        0.656        0.102      104.672       13.072        0.016      333.012        2.048      867.031
01/07/2021  19:30:00      -84.774       34.231      -15.070       22.797       14.163       12.130      519.686      200.585      147.133        0.473        0.043       91.424       10.284        0.013      333.003        2.033      867.014
01/07/2021  19:31:00      -47.780       31.039       -7.343       23.487       18.154       17.173      551.661      329.584      294.911        0.224        0.059       56.976        8.133        0.020      333.111        2.212      867.001
01/07/2021  19:32:00      -31.721       35.242        5.505       36.443       17.494       20.640     1328.094      306.054      425.999        0.217        0.103       47.415       14.127        0.089      333.455        2.782      866.984
01/07/2021  19:33:00      -27.273       50.657       -7.871       36.486       23.510       17.153     1331.219      552.724      294.241        0.277        0.109       57.532       14.335        0.062      333.622        3.058      866.970
01/07/2021  19:34:00       -9.303       18.653       -0.175       29.690       41.987       17.532      881.472     1762.911      307.368        0.169        0.148       20.844       16.796        0.649      333.562        2.958      866.966
01/07/2021  19:35:00      -48.427      -10.891      -11.690       28.085       34.304       16.742      788.790     1176.759      280.302        0.242        0.112       49.637       14.989        0.091      333.078        2.157      866.951
01/07/2021  19:36:00      -62.638       24.762       -8.897       31.116       19.818       17.436      968.217      392.759      304.027        0.314        0.083       67.355       15.481        0.053      333.316        2.552      866.942
01/07/2021  19:37:00      -71.503       27.202       -8.168       35.679       20.306       17.784     1273.021      412.317      316.281        0.396        0.100       76.503       11.645        0.023      333.323        2.564      866.950
01/07/2021  19:38:00      -42.184       34.209       -5.101       28.148       22.698       21.200      792.325      515.209      449.443        0.237        0.088       54.312        7.248        0.018      333.510        2.872      866.958
01/07/2021  19:39:00       -5.965       68.311       -1.383       40.094       48.271       22.615     1607.520     2330.043      511.419        0.458        0.222       68.571       22.102        0.104      333.933        3.575      866.966
01/07/2021  19:40:00       36.755       78.433        3.546       27.300       34.514       15.394      745.291     1191.234      236.966        0.484        0.109       86.618       15.207        0.031      334.361        4.283      866.965
01/07/2021  19:41:00       30.871       50.960        1.217       19.135       27.288       16.115      366.154      744.627      259.680        0.246        0.069       59.582       15.303        0.066      334.238        4.080      866.967
01/07/2021  19:42:00       40.063       52.762       -1.753       24.134       27.906       17.450      582.432      778.762      304.516        0.303        0.083       66.249       15.409        0.054      334.329        4.230      866.965
01/07/2021  19:43:00       26.979       39.252        0.573       18.053       23.612       13.668      325.912      557.531      186.807        0.167        0.054       47.630       12.585        0.070      334.185        3.991      866.967
01/07/2021  19:44:00       25.447       62.923       -0.154       24.693       29.654       16.906      609.748      879.389      285.818        0.319        0.089       67.874       12.579        0.034      334.219        4.048      866.970
01/07/2021  19:45:00       21.464       74.123       -0.315       21.913       23.606       16.807      480.196      557.262      282.473        0.364        0.066       77.168       12.025        0.024      334.266        4.126      866.978
01/07/2021  19:46:00       16.642       71.433        2.716       26.195       32.633       19.455      686.182     1064.884      378.501        0.376        0.106       73.346       20.545        0.078      334.235        4.075      866.992
01/07/2021  19:47:00       15.659       89.685       -4.568       32.760       22.719       16.151     1073.241      516.140      260.847        0.508        0.093       91.042       14.994        0.027      334.281        4.151      867.001
01/07/2021  19:48:00       18.867       53.740        3.305       25.376       30.794       16.379      643.945      948.274      268.259        0.256        0.093       56.955       11.039        0.038      334.298        4.178      867.007
01/07/2021  19:49:00       -0.222       38.570        2.197       36.442       30.476       15.928     1328.015      928.810      253.715        0.200        0.126       38.571        2.726        0.005      333.869        3.468      867.009
01/07/2021  19:50:00      -18.771       35.478       -1.193       21.078       25.100       11.863      444.267      629.993      140.729        0.141        0.061       40.137       12.850        0.102      333.811        3.372      867.016
01/07/2021  19:51:00      -41.424       15.873      -14.091       16.085       19.958       10.409      258.741      398.311      108.346        0.147        0.038       44.361        4.211        0.009      333.726        3.230      867.024
01/07/2021  19:52:00      -37.989       17.554       -6.266       19.074       13.744       10.939      363.800      188.890      119.662        0.123        0.034       41.848        7.916        0.036      333.568        2.969      867.016
01/07/2021  19:53:00       24.479       51.648       -0.221       20.673       19.806       17.428      427.359      392.287      303.726        0.219        0.056       57.156       14.727        0.066      334.290        4.167      867.011
01/07/2021  19:54:00       19.980       34.964       -2.191       22.854       13.787       10.318      522.294      190.085      106.465        0.122        0.041       40.270        7.019        0.030      334.196        4.008      867.011
01/07/2021  19:55:00       21.286       42.314       -0.972       17.680       18.936       12.505      312.598      358.559      156.370        0.154        0.041       47.366       10.245        0.047      334.237        4.076      867.011
01/07/2021  19:56:00       23.266       42.512       -1.822       21.497       24.130       12.042      462.111      582.253      145.000        0.177        0.059       48.462       11.626        0.058      334.290        4.166      867.014
01/07/2021  19:57:00       28.679       35.142       -4.975       22.905       19.636       16.684      524.656      385.586      278.371        0.164        0.059       45.359       14.162        0.097      334.245        4.090      867.020
01/07/2021  19:58:00       18.875       39.219       -0.192       20.659       21.813       12.827      426.804      475.790      164.543        0.148        0.053       43.525       11.841        0.074      334.264        4.123      867.037
01/07/2021  19:59:00       -4.266       60.790       -3.203       29.119       18.507       13.185      847.927      342.505      173.848        0.254        0.068       60.939        5.357        0.008      334.150        3.934      867.043
01/07/2021  20:00:00      -25.294       42.527        0.965       29.014       19.611       12.965      841.803      384.605      168.089        0.192        0.070       49.480        5.815        0.014      333.829        3.401      867.042
01/07/2021  20:01:00      -32.296       36.158       -2.216       29.649       20.578       18.712      879.048      423.434      350.151        0.200        0.083       48.481       16.006        0.109      333.860        3.453      867.028
01/07/2021  20:02:00      -43.573       14.577       -0.831       20.283       18.180       13.443      411.397      330.520      180.717        0.152        0.046       45.947        7.622        0.028      333.761        3.289      867.021
01/07/2021  20:03:00      -15.879       13.970        0.355       17.985       28.520       10.668      323.453      813.390      113.814        0.085        0.063       21.149        4.131        0.038      333.963        3.623      867.011
01/07/2021  20:04:00      -44.535       -2.954      -10.564       20.042       13.539       13.868      401.699      183.310      192.333        0.144        0.039       44.632        9.906        0.049      333.524        2.894      867.003
01/07/2021  20:05:00      -15.093       11.466       -6.271       21.666       23.551       12.582      469.409      554.660      158.310        0.079        0.059       18.954       10.305        0.296      334.029        3.732      866.998
01/07/2021  20:06:00       22.173       17.143       -0.011       18.101       16.788       11.617      327.631      281.830      134.946        0.076        0.037       28.027       10.556        0.142      334.302        4.187      867.000
01/07/2021  20:07:00      -21.472       26.950        8.764       14.556       20.629        8.474      211.886      425.558       71.812        0.099        0.035       34.457        4.178        0.015      333.905        3.527      867.008
01/07/2021  20:08:00       -4.818       20.071       10.973       12.485       13.641       11.823      155.879      186.063      139.789        0.051        0.024       20.641        5.641        0.075      333.773        3.307      867.014
01/07/2021  20:09:00      -31.162        5.285      -10.995       25.154       12.250       12.645      632.717      150.066      159.902        0.103        0.047       31.607       12.695        0.161      333.626        3.064      867.011
01/07/2021  20:10:00      -43.118        5.745       -0.394       13.379        9.254       11.539      178.986       85.641      133.159        0.114        0.020       43.499        7.366        0.029      333.374        2.648      867.010
01/07/2021  20:11:00      -25.994       -4.887       -9.701       21.799        7.450        6.309      475.183       55.507       39.804        0.068        0.029       26.449        8.676        0.108      333.642        3.091      867.012
01/07/2021  20:12:00      -63.686        8.856      -11.468       15.830       16.831       10.598      250.573      283.284      112.308        0.246        0.032       64.299        7.957        0.015      333.172        2.314      867.002
01/07/2021  20:13:00      -49.056       10.439       -9.238       17.856       21.196       13.270      318.824      449.288      176.088        0.177        0.047       50.155       10.702        0.046      333.120        2.225      867.008
01/07/2021  20:14:00      -36.442        8.530      -14.592       17.043       16.977       12.022      290.458      288.213      144.535        0.117        0.036       37.427        8.959        0.057      333.144        2.267      867.007
01/07/2021  20:15:00      -39.285        5.245      -12.055       14.632       14.089       10.122      214.089      198.493      102.465        0.112        0.026       39.633        4.874        0.015      333.131        2.246      867.005
01/07/2021  20:16:00      -44.833        2.196      -11.156       23.287       20.977       10.530      542.292      440.055      110.871        0.162        0.055       44.886        5.733        0.016      333.054        2.117      867.001
01/07/2021  20:17:00      -54.749      -16.562      -16.258       27.587       24.930       15.417      761.058      621.499      237.683        0.258        0.081       57.199       17.908        0.098      333.025        2.070      866.994
01/07/2021  20:18:00      -31.789        5.292       -3.923       15.363        9.909       14.587      236.030       98.197      212.770        0.080        0.027       32.227       10.018        0.097      333.115        2.218      867.004
01/07/2021  20:19:00      -10.686        0.309       -4.359       29.442       18.017       15.166      866.856      324.606      230.016        0.078        0.071       10.690        8.485        0.630      333.295        2.517      867.017
01/07/2021  20:20:00      -69.993        7.342      -10.684       18.696       26.830       14.047      349.525      719.846      197.332        0.317        0.063       70.377       10.105        0.021      333.197        2.355      867.033
01/07/2021  20:21:00      -23.789       -0.992       -2.597       23.656       21.511       16.997      559.626      462.732      288.883        0.094        0.066       23.810       11.682        0.241      333.013        2.049      867.052
01/07/2021  20:22:00      -60.045        7.199       -8.318       30.907       27.436       16.245      955.254      752.731      263.896        0.285        0.099       60.475       15.784        0.068      332.977        1.990      867.073
01/07/2021  20:23:00     -105.539       36.113      -12.980       17.174       16.768       13.058      294.937      281.181      170.510        0.668        0.037      111.547        7.995        0.005      333.094        2.183      867.083
01/07/2021  20:24:00      -88.177       37.168      -12.013       15.678       16.748       12.767      245.811      280.488      162.990        0.499        0.034       95.690        6.848        0.005      333.022        2.065      867.089
01/07/2021  20:25:00      -87.928        9.095       -9.093       29.420       23.697       14.988      865.516      561.552      224.628        0.477        0.083       88.397        9.240        0.011      333.053        2.116      867.091
01/07/2021  20:26:00        0.832      -13.798        5.796       35.474       20.582       15.939     1258.372      423.636      254.044        0.108        0.097       13.823       12.342        0.797      332.974        1.987      867.092
01/07/2021  20:27:00      -40.498       13.808       -2.587       25.342       21.660       17.633      642.240      469.161      310.910        0.163        0.071       42.788       10.187        0.057      332.957        1.956      867.091
01/07/2021  20:28:00      -55.560        9.787       -2.424       26.776       20.963       15.225      716.950      439.439      231.809        0.229        0.069       56.415       17.238        0.093      333.028        2.076      867.078
01/07/2021  20:29:00      -99.827       23.199      -11.753       34.264       26.844       17.613     1174.021      720.597      310.233        0.642        0.110      102.487       15.566        0.023      332.971        1.981      867.051
01/07/2021  20:30:00      -40.939       20.877       -4.360       51.012       22.078       16.121     2602.179      487.441      259.897        0.274        0.167       45.955       16.299        0.126      332.870        1.815      867.031
01/07/2021  20:31:00      -39.656        3.192       -7.373       23.214       17.950       17.986      538.904      322.213      323.495        0.141        0.059       39.784        7.797        0.038      332.926        1.907      867.025
01/07/2021  20:32:00        3.469       -7.965       -5.630       27.449       24.035       15.011      753.460      577.662      225.324        0.083        0.078        8.687        9.701        1.247      333.174        2.316      867.015
01/07/2021  20:33:00       -7.085        4.610        2.702       20.222       11.658        8.556      408.931      135.909       73.209        0.035        0.031        8.452        5.236        0.384      333.039        2.093      867.019
01/07/2021  20:34:00      -27.333        4.597       -5.593       21.154       12.676       12.786      447.494      160.677      163.475        0.079        0.039       27.717       12.563        0.205      332.989        2.010      867.015
01/07/2021  20:35:00      -21.085       -1.598       -2.278       22.277       21.209       16.539      496.261      449.810      273.525        0.084        0.061       21.146       16.093        0.579      333.032        2.082      867.008
01/07/2021  20:36:00      -35.987        7.327       -5.508       21.653       17.239       12.864      468.838      297.181      165.475        0.116        0.047       36.726        9.184        0.063      333.301        2.527      867.016
01/07/2021  20:37:00      -28.530      -29.474       -6.437       28.156       23.220       13.775      792.741      539.184      189.740        0.162        0.076       41.020       10.473        0.065      333.162        2.295      867.022
01/07/2021  20:38:00      -70.668        2.978      -11.560       14.918       18.592       12.699      222.542      345.668      161.268        0.293        0.036       70.730       10.403        0.022      333.080        2.161      867.033
01/07/2021  20:39:00      -31.031        1.435        0.608       20.312       19.109       14.636      412.564      365.161      214.208        0.098        0.050       31.064       11.194        0.130      332.903        1.868      867.039
01/07/2021  20:40:00      -32.820      -15.955       -2.007       18.835       21.413       13.422      354.756      458.529      180.152        0.116        0.050       36.493       10.001        0.075      332.968        1.975      867.045
01/07/2021  20:41:00      -64.586      -21.144       -6.665       26.596       19.929       14.504      707.344      397.168      210.379        0.299        0.066       67.959       14.930        0.048      333.047        2.106      867.044
01/07/2021  20:42:00      -63.448       -2.517       -1.174       22.008       23.458       14.826      484.359      550.282      219.800        0.264        0.063       63.498        6.142        0.009      333.076        2.154      867.051
01/07/2021  20:43:00      -84.760       -8.246       -5.975       29.826       16.690       11.381      889.569      278.547      129.526        0.429        0.065       85.160        8.697        0.010      333.070        2.144      867.063
01/07/2021  20:44:00     -103.850        4.026      -10.845       27.734       19.944       12.370      769.183      397.755      153.027        0.612        0.066      103.928        7.710        0.006      333.077        2.156      867.068
01/07/2021  20:45:00      -82.299       -8.988       -4.302       33.530       23.996       18.075     1124.265      575.813      326.690        0.445        0.101       82.789       11.418        0.019      333.036        2.089      867.068
01/07/2021  20:46:00     -135.350       10.983       -4.644       22.834       17.599       18.513      521.391      309.716      342.729        0.982        0.059      135.795       14.113        0.011      332.929        1.912      867.074
01/07/2021  20:47:00     -125.152        6.480       -6.123       30.600       20.431       12.926      936.347      417.428      167.080        0.863        0.076      125.320        7.562        0.004      332.899        1.863      867.073
01/07/2021  20:48:00      -99.293        2.545       -8.197       34.675       36.077       22.620     1202.381     1301.556      511.659        0.647        0.151       99.326       18.000        0.033      332.888        1.845      867.073
01/07/2021  20:49:00     -102.899       16.315       -8.829       41.049       32.426       18.240     1684.984     1051.415      332.700        0.700        0.153      104.185       17.598        0.029      332.757        1.627      867.079
01/07/2021  20:50:00     -129.022       44.241       -4.682       36.412       39.798       23.536     1325.799     1583.916      553.938        1.104        0.173      136.396       20.180        0.022      332.660        1.467      867.081
01/07/2021  20:51:00     -100.428       28.161      -10.533       32.976       24.249       22.282     1087.425      588.030      496.471        0.658        0.109      104.301       19.462        0.035      332.647        1.447      867.083
01/07/2021  20:52:00      -90.408       33.453       -8.411       33.755       26.952       20.781     1139.393      726.424      431.851        0.583        0.115       96.399       16.842        0.031      332.673        1.489      867.076
01/07/2021  20:53:00     -103.830       26.345       -7.123       27.252       29.820       20.133      742.676      889.224      405.319        0.678        0.102      107.120       15.329        0.020      332.639        1.434      867.063
01/07/2021  20:54:00      -90.876       18.848      -10.287       25.340       29.378       18.166      642.096      863.039      330.003        0.528        0.092       92.810       17.131        0.034      332.641        1.436      867.060
01/07/2021  20:55:00      -64.329       -4.107       -5.858       25.377       36.902       19.423      644.000     1361.721      377.261        0.329        0.119       64.460        9.957        0.024      332.647        1.446      867.048
01/07/2021  20:56:00      -31.032       -7.503      -13.641       36.382       32.630       13.963     1323.681     1064.695      194.958        0.189        0.129       31.926       15.297        0.230      332.711        1.550      867.038
01/07/2021  20:57:00      -35.886       24.979       -9.266       23.610       18.776       14.283      557.409      352.528      203.991        0.156        0.056       43.723        9.809        0.050      332.863        1.803      867.021
01/07/2021  20:58:00      -54.007        5.970      -16.261       24.573       23.825       17.105      603.812      567.635      292.592        0.234        0.073       54.336       16.464        0.092      332.708        1.547      867.018
01/07/2021  20:59:00      -50.189        1.295       -7.264       20.627       29.854       21.943      425.484      891.237      481.485        0.219        0.090       50.206       17.513        0.122      332.673        1.490      867.014
01/07/2021  21:00:00      -61.417       -4.014      -13.848       22.223       27.213       18.099      493.854      740.555      327.559        0.277        0.078       61.548       15.277        0.062      332.647        1.446      867.014
01/07/2021  21:01:00      -64.731        5.955      -16.470       24.368       24.108       17.078      593.779      581.192      291.663        0.298        0.073       65.004        6.395        0.010      332.652        1.454      867.013
01/07/2021  21:02:00      -69.694      -21.582      -15.351       25.811       28.864       22.070      666.218      833.122      487.095        0.377        0.099       72.959       11.131        0.023      332.657        1.462      867.012
01/07/2021  21:03:00      -46.587       14.777       -6.345       33.399       29.351       19.228     1115.519      861.474      369.723        0.239        0.117       48.875       18.354        0.141      332.605        1.376      867.003
01/07/2021  21:04:00      -88.066       18.996      -15.742       20.729       29.440       15.815      429.680      866.685      250.100        0.496        0.077       90.092       13.003        0.021      332.596        1.361      866.991
01/07/2021  21:05:00      -93.917       23.541      -13.748       22.392       25.224       19.382      501.383      636.272      375.648        0.554        0.076       96.822       11.572        0.014      332.629        1.416      866.973
01/07/2021  21:06:00      -85.174       44.098       -9.803       37.248       40.447       21.684     1387.382     1635.927      470.216        0.639        0.175       95.913       19.223        0.040      332.675        1.492      866.964
01/07/2021  21:07:00     -109.640       64.462       -8.080       30.369       39.034       24.699      922.248     1523.618      610.027        0.965        0.153      127.186       19.717        0.024      332.619        1.400      866.954
01/07/2021  21:08:00     -113.932       59.748      -12.718       24.741       30.197       17.221      612.110      911.866      296.573        0.927        0.091      128.648       15.833        0.015      332.534        1.259      866.953
01/07/2021  21:09:00     -113.896       49.827      -13.131       23.150       34.550       17.718      535.942     1193.681      313.933        0.884        0.102      124.318       18.511        0.022      332.593        1.356      866.965
01/07/2021  21:10:00     -101.931       46.560      -12.232       30.748       25.359       18.328      945.469      643.085      335.901        0.732        0.096      112.061       12.068        0.012      332.545        1.278      866.977
01/07/2021  21:11:00     -111.734       54.463       -8.505       39.924       32.138       20.380     1593.951     1032.877      415.345        0.928        0.152      124.301       20.110        0.026      332.548        1.282      866.981
01/07/2021  21:12:00     -127.090       41.213       -9.381       28.533       33.168       20.232      814.142     1100.137      409.344        1.013        0.116      133.605       17.623        0.017      332.454        1.126      866.984
01/07/2021  21:13:00     -128.126       58.248       -9.079       29.627       29.563       22.926      877.784      873.971      525.584        1.108        0.114      140.745       16.491        0.014      332.467        1.148      866.989
01/07/2021  21:14:00     -109.203       40.100       -6.665       42.866       37.138       24.380     1837.529     1379.211      594.395        0.869        0.191      116.333       19.984        0.030      332.443        1.110      867.000
01/07/2021  21:15:00     -103.191       25.943      -12.368       36.513       42.617       24.464     1333.231     1816.170      598.484        0.761        0.187      106.402       13.660        0.016      332.467        1.148      867.010
01/07/2021  21:16:00     -133.598       47.595       -9.695       39.147       34.854       22.213     1532.481     1214.796      493.419        1.172        0.162      141.823       18.168        0.016      332.388        1.019      867.026
01/07/2021  21:17:00     -142.945       70.798       -6.592       47.287       39.166       29.081     2236.079     1534.006      845.686        1.505        0.231      159.517       21.057        0.017      332.395        1.028      867.038
01/07/2021  21:18:00      -92.747       35.549       -0.578       63.801       40.859       26.834     4070.528     1669.475      720.045        0.816        0.323       99.326       22.448        0.051      332.427        1.083      867.055
01/07/2021  21:19:00      -89.848       41.622        3.814       43.260       42.842       28.239     1871.464     1835.421      797.417        0.716        0.225       99.020       24.455        0.061      332.391        1.024      867.056
01/07/2021  21:20:00     -109.554       53.932       -2.087       41.103       40.201       27.660     1689.497     1616.141      765.071        0.949        0.204      122.109       26.310        0.046      332.388        1.018      867.057
01/07/2021  21:21:00     -102.956       33.205       -3.649       44.275       40.547       23.661     1960.307     1644.042      559.858        0.794        0.208      108.179       25.546        0.056      332.486        1.181      867.055
01/07/2021  21:22:00     -115.102       44.211       -8.652       34.153       40.500       24.513     1166.437     1640.264      600.877        0.934        0.170      123.301       24.182        0.038      332.493        1.192      867.053
01/07/2021  21:23:00      -94.874       34.443       -9.771       28.754       32.706       21.428      826.815     1069.714      459.178        0.632        0.118      100.933       22.324        0.049      332.515        1.229      867.056
01/07/2021  21:24:00      -94.200       28.729      -10.519       25.071       32.950       24.283      628.564     1085.698      589.687        0.606        0.115       98.484       24.747        0.063      332.549        1.284      867.057
01/07/2021  21:25:00      -81.005       30.792       -5.957       27.656       31.941       23.119      764.840     1020.220      534.465        0.493        0.116       86.660       20.943        0.058      332.571        1.321      867.052
01/07/2021  21:26:00      -38.822       19.579       -0.786       26.490       31.194       19.720      701.705      973.046      388.862        0.198        0.103       43.480       18.730        0.186      332.570        1.319      867.048
01/07/2021  21:27:00      -50.673       26.806        4.107       36.574       33.620       23.986     1337.622     1130.312      575.336        0.317        0.152       57.326       26.545        0.214      332.645        1.442      867.039
01/07/2021  21:28:00       -3.108       14.967        8.441       28.436       31.133       21.384      808.629      969.281      457.275        0.127        0.112       15.286       23.439        2.351      332.537        1.263      867.025
01/07/2021  21:29:00      -50.615      -16.011       -7.948       29.799       33.126       19.966      888.008     1097.361      398.652        0.263        0.119       53.087       15.918        0.090      332.655        1.457      867.017
01/07/2021  21:30:00      -37.727       11.331        4.859       32.561       34.564       22.744     1060.239     1194.674      517.286        0.217        0.139       39.392       24.119        0.375      332.668        1.481      867.010
01/07/2021  21:31:00      -72.020      -11.182        1.849       36.474       28.542       20.428     1330.368      814.670      417.306        0.394        0.128       72.883       21.639        0.088      332.708        1.546      867.004
01/07/2021  21:32:00      -73.805       -0.294       -4.038       29.357       35.137       20.021      861.839     1234.636      400.841        0.398        0.125       73.805       24.314        0.109      332.788        1.678      866.993
01/07/2021  21:33:00      -63.923       -2.842        1.342       31.170       33.782       24.093      971.577     1141.194      580.455        0.339        0.135       63.986       25.057        0.153      332.751        1.617      866.976
01/07/2021  21:34:00      -56.477       -0.041        1.037       35.279       38.257       20.852     1244.632     1463.618      434.817        0.317        0.157       56.477       20.637        0.134      332.738        1.594      866.954
01/07/2021  21:35:00      -84.831        8.183        1.932       25.292       32.584       19.766      639.667     1061.747      390.684        0.468        0.105       85.225       22.567        0.070      332.797        1.693      866.937
01/07/2021  21:36:00      -80.827       -1.773       -2.799       30.199       35.143       21.212      911.970     1235.001      449.947        0.457        0.130       80.847       25.381        0.099      332.887        1.842      866.932
01/07/2021  21:37:00      -76.494       -6.445       -1.710       34.420       27.970       21.578     1184.730      782.328      465.626        0.416        0.122       76.765       22.660        0.087      332.872        1.817      866.922
01/07/2021  21:38:00      -66.552       -7.080       -0.562       34.873       34.136       21.118     1216.160     1165.278      445.986        0.365        0.141       66.928       21.120        0.100      332.808        1.712      866.907
01/07/2021  21:39:00      -79.956       16.578        2.786       33.087       34.163       20.733     1094.779     1167.086      429.843        0.468        0.135       81.656       23.138        0.080      332.761        1.634      866.901
01/07/2021  21:40:00     -105.413       11.345       -1.274       32.722       33.603       19.978     1070.750     1129.138      399.117        0.692        0.130      106.022       23.339        0.048      332.678        1.497      866.907
01/07/2021  21:41:00     -101.369       15.252       -1.232       47.883       34.365       20.018     2292.749     1180.964      400.720        0.719        0.194      102.510       23.812        0.054      332.590        1.353      866.915
01/07/2021  21:42:00     -120.047       13.919       -5.694       29.492       36.533       22.145      869.779     1334.677      490.408        0.867        0.135      120.851       23.500        0.038      332.574        1.325      866.934
01/07/2021  21:43:00     -122.872       10.770       -2.272       23.739       27.812       20.834      563.553      773.514      434.060        0.849        0.089      123.343       21.390        0.030      332.552        1.287      866.949
01/07/2021  21:44:00      -92.567        5.859       -3.638       34.153       33.266       21.605     1166.401     1106.618      466.789        0.568        0.137       92.752       20.981        0.051      332.521        1.238      866.888
01/07/2021  21:45:00      -85.896      -26.154      -10.146       28.334       30.628       19.304      802.814      938.081      372.639        0.514        0.106       89.790       17.055        0.036      332.489        1.185      866.872
01/07/2021  21:46:00      -65.071        5.941        4.196       33.066       33.148       23.626     1093.353     1098.757      558.175        0.352        0.138       65.341       24.787        0.144      332.490        1.186      866.889
01/07/2021  21:47:00      -66.307        7.275        2.462       37.188       30.822       22.736     1382.915      950.012      516.944        0.365        0.142       66.705       24.413        0.134      332.540        1.269      866.898
01/07/2021  21:48:00      -52.430       -1.749        2.088       31.427       32.083       19.446      987.666     1029.351      378.147        0.258        0.120       52.459       20.909        0.159      332.590        1.352      866.901
01/07/2021  21:49:00      -57.427        3.622        6.861       26.817       31.164       20.916      719.153      971.180      437.479        0.274        0.106       57.541       21.115        0.135      332.604        1.375      866.901
01/07/2021  21:50:00      -67.480       14.567        3.486       36.432       33.484       23.195     1327.257     1121.208      538.003        0.388        0.149       69.034       25.177        0.133      332.542        1.271      866.891
01/07/2021  21:51:00     -117.223       11.109        1.677       27.732       35.817       21.748      769.044     1282.837      472.969        0.820        0.126      117.749       25.248        0.046      332.504        1.209      866.880
01/07/2021  21:52:00      -96.241       -0.066       -3.787       36.042       35.548       24.507     1298.992     1263.683      600.594        0.622        0.158       96.242       22.699        0.056      332.433        1.092      866.858
01/07/2021  21:53:00      -70.640       13.245        5.664       51.664       45.149       29.275     2669.214     2038.393      857.044        0.538        0.278       71.871       36.900        0.264      332.373        0.993      866.842
01/07/2021  21:54:00      -64.010       14.471        2.550       55.149       39.477       25.301     3041.371     1558.426      640.116        0.478        0.262       65.625       24.549        0.140      332.396        1.032      866.844
01/07/2021  21:55:00      -92.001       25.464        2.961       42.801       47.710       27.461     1831.885     2276.245      754.107        0.699        0.243       95.460       26.723        0.078      332.327        0.917      866.850
01/07/2021  21:56:00      -96.573       28.637        6.785       50.244       37.029       27.518     2524.431     1371.132      757.233        0.742        0.233      100.730       29.204        0.084      332.228        0.754      866.859
01/07/2021  21:57:00      -81.740       -1.539        0.733       29.362       46.007       24.366      862.099     2116.668      593.720        0.513        0.179       81.754       25.664        0.099      332.244        0.781      866.874
01/07/2021  21:58:00      -37.931       15.400       10.443       39.134       45.529       28.283     1531.509     2072.846      799.946        0.309        0.220       40.938       32.219        0.619      332.330        0.922      866.885
01/07/2021  21:59:00      -54.053        4.540       -0.876       58.402       39.608       26.587     3410.787     1568.798      706.859        0.431        0.284       54.243       19.785        0.133      332.299        0.873      866.888
01/07/2021  22:00:00     -124.324        8.891       -0.966       29.381       38.027       21.691      863.244     1446.059      470.514        0.916        0.139      124.642       24.086        0.037      332.320        0.907      866.883
01/07/2021  22:01:00     -127.401       22.992       -3.197       26.456       36.547       24.689      699.931     1335.654      609.535        0.971        0.132      129.458       27.786        0.046      332.300        0.875      866.867
01/07/2021  22:02:00      -78.579        5.642        0.710       32.139       41.759       25.424     1032.896     1743.826      646.388        0.481        0.171       78.781       24.832        0.099      332.357        0.966      866.860
01/07/2021  22:03:00      -46.008       10.044        2.368       41.834       42.014       23.770     1750.112     1765.213      565.004        0.315        0.204       47.092       28.145        0.357      332.304        0.879      866.859
01/07/2021  22:04:00      -66.856       13.100        4.294       39.670       38.135       25.557     1573.729     1454.290      653.173        0.417        0.184       68.128       27.812        0.167      332.243        0.780      866.869
01/07/2021  22:05:00      -93.737       28.558       -6.763       26.136       33.891       20.021      683.083     1148.579      400.860        0.594        0.112       97.991       19.217        0.038      332.223        0.745      866.882
01/07/2021  22:06:00      -61.871        8.815       -5.341       46.784       30.840       22.297     2188.704      951.113      497.160        0.378        0.182       62.496       21.211        0.115      332.214        0.732      866.882
01/07/2021  22:07:00      -15.225        4.924        7.918       35.929       36.686       23.809     1290.894     1345.877      566.874        0.176        0.160       16.001       24.819        2.406      332.241        0.776      866.884
01/07/2021  22:08:00      -34.498       -3.745        5.592       31.990       31.289       21.371     1023.388      978.985      456.738        0.185        0.123       34.700       22.250        0.411      332.235        0.766      866.897
01/07/2021  22:09:00      -15.671       17.682       13.322       31.393       35.324       23.872      985.501     1247.768      569.859        0.177        0.140       23.627       25.716        1.185      332.206        0.719      866.905
01/07/2021  22:10:00      -94.882        1.518       -6.747       57.014       30.510       21.011     3250.651      930.848      441.447        0.684        0.231       94.894       17.368        0.033      332.308        0.886      866.902
01/07/2021  22:11:00      -95.679       -1.738       -2.476       28.048       33.468       18.653      786.709     1120.084      347.934        0.571        0.113       95.694       17.296        0.033      332.365        0.980      866.908
01/07/2021  22:12:00      -80.390       -0.700       -4.861       26.976       32.190       22.913      727.680     1036.194      524.996        0.439        0.114       80.393       24.844        0.095      332.448        1.117      866.904
01/07/2021  22:13:00      -60.795       -3.956        4.531       32.358       39.908       24.880     1047.061     1592.618      619.000        0.349        0.163       60.924       28.899        0.225      332.408        1.051      866.901
01/07/2021  22:14:00      -35.260        5.484        5.526       37.548       31.599       22.795     1409.886      998.471      519.628        0.212        0.146       35.684       19.586        0.301      332.394        1.027      866.902
01/07/2021  22:15:00      -24.596       -4.985        2.556       32.446       36.143       22.988     1052.711     1306.300      528.443        0.176        0.144       25.096       21.718        0.749      332.419        1.070      866.911
01/07/2021  22:16:00      -36.741        1.689        8.114       36.194       38.090       22.018     1310.008     1450.821      484.793        0.233        0.162       36.779       22.860        0.386      332.497        1.199      866.928
01/07/2021  22:17:00      -74.461        2.831        0.783       31.228       34.423       22.442      975.162     1184.968      503.662        0.411        0.133       74.515       23.927        0.103      332.529        1.252      866.953
01/07/2021  22:18:00      -65.449       -5.370        6.895       48.236       25.797       18.478     2326.724      665.499      341.420        0.385        0.167       65.669       24.767        0.142      332.563        1.308      866.980
01/07/2021  22:19:00      -20.751        3.075        2.828       35.380       30.624       19.419     1251.744      937.828      377.117        0.151        0.128       20.977       17.438        0.691      332.549        1.283      866.998
01/07/2021  22:20:00      -52.311      -16.442        4.431       28.028       21.028       18.952      785.587      442.188      359.189        0.231        0.079       54.834       20.207        0.136      332.516        1.229      867.004
01/07/2021  22:21:00      -48.029      -12.790       -0.719       28.294       33.791       19.301      800.523     1141.826      372.520        0.239        0.116       49.702       22.848        0.211      332.576        1.328      866.999
01/07/2021  22:22:00      -60.087       -0.190        1.145       25.472       43.109       20.628      648.815     1858.358      425.509        0.327        0.147       60.087       20.124        0.112      332.493        1.192      866.988
01/07/2021  22:23:00      -53.711       -3.099        3.774       42.266       34.935       22.391     1786.404     1220.465      501.372        0.321        0.175       53.801       15.653        0.085      332.467        1.148      866.990
01/07/2021  22:24:00      -53.429      -23.545        1.579       43.139       29.522       26.428     1860.947      871.526      698.459        0.342        0.172       58.387       22.164        0.144      332.392        1.025      866.992
01/07/2021  22:25:00      -78.235       -1.378        4.409       52.986       41.814       30.402     2807.540     1748.395      924.296        0.581        0.274       78.247       26.810        0.117      332.311        0.890      867.003
01/07/2021  22:26:00      -95.789       -1.678        0.300       40.863       42.126       22.639     1669.752     1774.565      512.537        0.657        0.198       95.803       17.952        0.035      332.370        0.988      867.017
01/07/2021  22:27:00      -56.488       -9.838        1.813       56.369       42.452       30.324     3177.415     1802.204      919.557        0.459        0.295       57.338       22.447        0.153      332.376        0.996      867.039
01/07/2021  22:28:00      -87.809      -24.903        0.468       69.586       35.307       34.450     4842.278     1246.607     1186.814        0.780        0.364       91.272       35.766        0.154      332.308        0.886      867.055
01/07/2021  22:29:00      -77.788       -0.306       -6.116       52.948       50.774       30.790     2803.530     2577.981      948.055        0.621        0.316       77.789       24.605        0.100      332.323        0.911      867.063
01/07/2021  22:30:00      -73.361       14.294        4.889       47.569       35.596       21.243     2262.764     1267.108      451.247        0.479        0.199       74.741       19.132        0.066      332.322        0.910      867.069
01/07/2021  22:31:00      -22.570        6.071       14.075       49.200       39.372       24.123     2420.673     1550.165      581.927        0.265        0.228       23.372       26.143        1.251      332.412        1.058      867.069
01/07/2021  22:32:00      -80.983       17.024        6.774       49.040       40.354       23.796     2404.904     1628.463      566.236        0.575        0.230       82.753       24.279        0.086      332.224        0.747      867.086
01/07/2021  22:33:00      -91.361       -6.446        2.173       48.511       38.275       25.804     2353.325     1464.948      665.846        0.644        0.224       91.588       19.439        0.045      332.272        0.827      867.089
01/07/2021  22:34:00     -123.698      -13.219        6.983       53.319       40.248       26.550     2842.935     1619.928      704.898        1.035        0.258      124.402       26.159        0.044      332.226        0.752      867.108
01/07/2021  22:35:00      -82.321       -2.424        4.319       51.809       38.919       24.379     2684.163     1514.710      594.341        0.580        0.240       82.357       21.958        0.071      332.274        0.831      867.118
01/07/2021  22:36:00      -24.553       -1.371       15.103       36.004       29.010       28.670     1296.307      841.558      821.977        0.190        0.148       24.592       22.631        0.847      332.301        0.874      867.143
01/07/2021  22:37:00      -85.359       -0.748        6.782       77.246       40.857       27.185     5967.019     1669.314      739.049        0.785        0.419       85.363       29.752        0.121      332.260        0.809      867.165
01/07/2021  22:38:00     -117.939      -11.718       -2.952       28.913       35.085       22.553      835.957     1230.988      508.660        0.832        0.129      118.519       15.499        0.017      332.225        0.751      867.179
01/07/2021  22:39:00      -52.755       -9.361       -1.412       44.162       27.646       17.415     1950.244      764.283      303.299        0.294        0.151       53.579       19.243        0.129      332.279        0.839      867.176
01/07/2021  22:40:00       -2.816       10.800        9.813       27.706       24.750       20.474      767.611      612.571      419.192        0.101        0.090       11.161       13.734        1.514      332.313        0.893      867.165
01/07/2021  22:41:00       -3.147        1.368        3.474       33.020       27.969       18.310     1090.306      782.248      335.254        0.112        0.110        3.432       21.425       38.977      332.348        0.951      867.152
01/07/2021  22:42:00      -31.938        5.959        2.644       30.663       34.204       22.379      940.193     1169.887      500.830        0.184        0.131       32.489       25.236        0.603      332.351        0.956      867.137
01/07/2021  22:43:00      -16.500       -4.688        0.298       37.009       31.866       23.075     1369.685     1015.434      532.472        0.161        0.146       17.153       18.459        1.158      332.338        0.936      867.114
01/07/2021  22:44:00      -37.944       -3.431       -1.775       45.895       28.027       17.926     2106.376      785.533      321.336        0.233        0.161       38.099       18.191        0.228      332.340        0.938      867.102
01/07/2021  22:45:00      -76.721        5.638        2.838       30.338       25.899       20.320      920.370      670.777      412.920        0.396        0.100       76.928       19.621        0.065      332.363        0.977      867.087
01/07/2021  22:46:00      -59.890       12.361      -10.525       22.582       23.119       13.887      509.954      534.469      192.836        0.254        0.062       61.152       15.954        0.068      332.347        0.951      867.059
01/07/2021  22:47:00      -53.297       15.264       -1.978       15.860       24.428       13.979      251.536      596.740      195.412        0.206        0.052       55.440       16.315        0.087      332.332        0.926      867.036
01/07/2021  22:48:00      -64.815       13.705       -4.289       16.889       23.941       14.325      285.234      573.176      205.203        0.274        0.053       66.249       14.267        0.046      332.319        0.906      867.035
01/07/2021  22:49:00      -54.047       18.448       -4.647       18.850       25.418       16.690      355.312      646.084      278.545        0.228        0.064       57.109       17.805        0.097      332.359        0.971      867.048
01/07/2021  22:50:00      -37.728        6.083       -4.129       22.416       20.127       16.264      502.475      405.083      264.532        0.132        0.059       38.215       15.095        0.156      332.406        1.048      867.058
01/07/2021  22:51:00      -42.430       16.494       -5.813       17.962       25.743       15.530      322.624      662.704      241.174        0.167        0.061       45.523       16.082        0.125      332.396        1.030      867.066
01/07/2021  22:52:00      -23.465        4.968       -1.872       17.916       25.831       17.076      320.981      667.223      291.575        0.093        0.064       23.985       19.615        0.669      332.466        1.146      867.061
01/07/2021  22:53:00       -9.315        9.790       -6.707       24.536       14.956       12.054      602.001      223.677      145.288        0.060        0.049       13.513       10.319        0.583      332.553        1.291      867.041
01/07/2021  22:54:00       14.024       -3.029       -1.067       20.404       25.531       14.242      416.306      651.831      202.834        0.074        0.064       14.348       13.998        0.952      332.555        1.294      867.018
01/07/2021  22:55:00        9.672       -2.259       -0.700       19.025       20.417       14.274      361.934      416.848      203.756        0.054        0.049        9.933       15.194        2.340      332.583        1.340      867.004
01/07/2021  22:56:00        4.182        0.256       -1.094       20.028       18.809       13.339      401.129      353.764      177.916        0.048        0.047        4.189       13.772       10.806      332.610        1.384      866.973
01/07/2021  22:57:00       -1.187        1.543        4.646       18.231       27.343       15.764      332.353      747.628      248.492        0.068        0.066        1.946       18.627       91.587      332.591        1.353      866.956
01/07/2021  22:58:00       -4.313       -0.448        5.489       12.851       21.693       11.628      165.143      470.589      135.219        0.041        0.039        4.337       14.742       11.557      332.602        1.371      866.946
01/07/2021  22:59:00       -4.907       -7.029        0.059       20.298       18.457       13.168      412.009      340.663      173.399        0.050        0.046        8.572       12.716        2.200      332.494        1.195      866.951
01/07/2021  23:00:00      -23.558       -4.871        2.214       17.886       22.252       14.623      319.898      495.151      213.842        0.081        0.051       24.056       15.245        0.402      332.509        1.217      866.961
01/07/2021  23:01:00      -31.017        4.395        1.872       31.739       15.148       14.251     1007.339      229.461      203.090        0.121        0.072       31.327       10.952        0.122      332.441        1.107      866.980
01/07/2021  23:02:00      -49.659        6.029       -5.987       32.173       19.616       15.758     1035.078      384.794      248.320        0.210        0.083       50.024       11.430        0.052      332.476        1.163      866.985
01/07/2021  23:03:00      -98.674       24.569       -1.003       21.855       19.963       11.907      477.653      398.537      141.784        0.568        0.051      101.686       11.206        0.012      332.357        0.965      866.986
01/07/2021  23:04:00      -75.727       24.177       -2.386       22.237       16.992       16.095      494.474      288.720      259.045        0.368        0.052       79.493       15.098        0.036      332.367        0.984      866.988
01/07/2021  23:05:00      -30.035        0.584      -10.015       22.920       14.282       15.501      525.347      203.965      240.292        0.099        0.048       30.041       10.434        0.121      332.405        1.045      866.985
01/07/2021  23:06:00      -41.272        0.571       -4.320       19.368       26.010       15.413      375.132      676.524      237.571        0.151        0.064       41.276       13.926        0.114      332.533        1.258      866.976
01/07/2021  23:07:00      -65.188       -6.772       -4.855       19.921       13.394       13.378      396.860      179.394      178.965        0.254        0.038       65.539        9.536        0.021      332.487        1.180      866.964
01/07/2021  23:08:00      -42.862        6.302       -1.472       32.898       22.256       14.106     1082.262      495.348      198.989        0.183        0.089       43.323       14.855        0.118      332.487        1.181      866.952
01/07/2021  23:09:00      -23.519       14.452       -1.473       30.147       21.092       14.659      908.865      444.881      214.885        0.117        0.078       27.604       13.506        0.239      332.499        1.202      866.952
01/07/2021  23:10:00      -62.484       12.707       -1.947       17.289       23.522       13.264      298.897      553.271      175.945        0.255        0.051       63.763       12.879        0.041      332.488        1.182      866.957
01/07/2021  23:11:00      -74.402       16.165       -0.074       20.710       24.353       13.776      428.902      593.092      189.780        0.350        0.061       76.137       12.051        0.025      332.492        1.189      866.957
01/07/2021  23:12:00     -106.651       14.347       -6.273       15.440       16.765       13.460      238.388      281.066      181.171        0.616        0.035      107.612        9.588        0.008      332.446        1.115      866.960
01/07/2021  23:13:00      -94.515        6.011       -7.676       44.264       21.920       16.474     1959.319      480.487      271.401        0.587        0.136       94.706       20.756        0.048      332.448        1.117      866.953
01/07/2021  23:14:00      -85.964        7.534       -7.349       28.071       21.537       14.676      787.978      463.850      215.380        0.448        0.073       86.294       10.512        0.015      332.455        1.128      866.950
01/07/2021  23:15:00      -74.812        3.780       -3.560       41.646       21.723       17.434     1734.430      471.893      303.952        0.407        0.126       74.908       19.014        0.064      332.411        1.056      866.943
01/07/2021  23:16:00      -80.662       14.892       -5.742       26.440       24.759       19.432      699.053      612.991      377.604        0.422        0.084       82.025       13.231        0.026      332.419        1.070      866.942
01/07/2021  23:17:00      -42.876        8.182       -2.363       43.844       16.991       17.536     1922.286      288.698      307.528        0.221        0.126       43.650       14.605        0.112      332.438        1.101      866.947
01/07/2021  23:18:00      -94.704        3.684       -1.903       25.187       25.351       17.055      634.403      642.650      290.878        0.528        0.078       94.776       15.475        0.027      332.390        1.019      866.937
01/07/2021  23:19:00      -57.016       -4.017        3.474       37.578       20.944       17.248     1412.127      438.632      297.488        0.271        0.107       57.158       11.410        0.040      332.436        1.096      866.931
01/07/2021  23:20:00      -93.403        9.096       -3.603       24.267       24.656       16.475      588.877      607.919      271.423        0.514        0.073       93.845       14.935        0.025      332.433        1.092      866.921
01/07/2021  23:21:00      -60.423       -3.104        0.608       29.937       22.912       13.858      896.246      524.962      192.053        0.264        0.081       60.503        7.956        0.017      332.456        1.129      866.917
01/07/2021  23:22:00      -36.765        6.975        2.167       37.246       28.351       18.879     1387.240      803.772      356.432        0.198        0.127       37.421       16.564        0.196      332.411        1.055      866.904
01/07/2021  23:23:00      -35.744        3.816       -4.414       37.336       17.326       12.734     1394.010      300.197      162.160        0.158        0.093       35.947       11.507        0.102      332.428        1.082      866.884
01/07/2021  23:24:00       -8.683      -13.260        4.349       31.177       25.455       16.547      971.988      647.953      273.801        0.108        0.095       15.850       13.980        0.778      332.496        1.196      866.859
01/07/2021  23:25:00      -20.072        5.921       -0.934       23.791       19.962       17.199      566.022      398.477      295.801        0.085        0.063       20.927       16.125        0.594      332.466        1.147      866.849
01/07/2021  23:26:00        9.287       -7.894        0.774       21.577       17.121       11.923      465.579      293.114      142.169        0.052        0.045       12.189       10.638        0.762      332.491        1.188      866.845
01/07/2021  23:27:00        1.190        2.738        2.912       23.280       24.508       15.200      541.978      600.629      231.046        0.070        0.069        2.985        9.385        9.884      332.493        1.193      866.850
01/07/2021  23:28:00      -13.392        4.879        5.881       32.916       23.105       17.338     1083.460      533.822      300.621        0.108        0.096       14.253       10.925        0.588      332.457        1.132      866.850
01/07/2021  23:29:00      -57.591       12.742       -2.206       18.339       26.707       16.193      336.315      713.261      262.229        0.240        0.066       58.984       16.004        0.074      332.521        1.238      866.827
01/07/2021  23:30:00      -37.874       15.603       -2.064       17.985       18.386       11.856      323.470      338.043      140.575        0.124        0.040       40.962       12.020        0.086      332.481        1.171      866.792
01/07/2021  23:31:00      -29.988       10.594       -5.338       22.718       16.407       13.453      516.091      269.177      180.977        0.100        0.048       31.804       11.726        0.136      332.479        1.169      866.762
01/07/2021  23:32:00      -59.624        6.475      -10.479       20.489       18.540       12.112      419.791      343.714      146.710        0.231        0.046       59.975        7.389        0.015      332.476        1.163      866.738
01/07/2021  23:33:00      -57.091        1.782       -9.706       33.246       25.989       17.173     1105.328      675.403      294.897        0.272        0.104       57.119       11.433        0.040      332.523        1.241      866.733
01/07/2021  23:34:00      -17.648       -9.853        6.914       27.165       26.149       20.007      737.931      683.787      400.290        0.114        0.091       20.212       14.108        0.487      332.455        1.129      866.728
01/07/2021  23:35:00      -20.662        2.306       -0.793       34.722       21.572       17.535     1205.615      465.361      307.470        0.121        0.099       20.790       16.149        0.603      332.435        1.095      866.730
01/07/2021  23:36:00      -39.422        9.601       -2.758       28.296       25.773       17.234      800.679      664.261      297.027        0.171        0.088       40.574       16.213        0.160      332.350        0.955      866.727
01/07/2021  23:37:00      -25.633       -7.322       -6.768       31.780       26.690       22.213     1009.982      712.333      493.440        0.149        0.111       26.658       18.456        0.479      332.419        1.069      866.713
01/07/2021  23:38:00      -64.348       13.560       -3.960       28.156       26.364       20.185      792.776      695.047      407.423        0.312        0.095       65.761       16.326        0.062      332.371        0.990      866.695
01/07/2021  23:39:00      -73.329       19.109      -13.152       12.480       13.876       10.005      155.751      192.550      100.094        0.318        0.022       75.778        9.544        0.016      332.308        0.886      866.662
01/07/2021  23:40:00      -19.230        2.961       -8.159       30.053       26.687       17.903      903.195      712.190      320.515        0.119        0.097       19.457        8.913        0.210      332.339        0.936      866.634
01/07/2021  23:41:00       -7.012       -8.900        0.930       30.110       18.085       14.228      906.624      327.066      202.449        0.078        0.072       11.330       13.093        1.335      332.433        1.092      866.604
01/07/2021  23:42:00        6.625        0.438        6.062       28.088       21.761       18.781      788.944      473.550      352.727        0.085        0.081        6.640       14.313        4.647      332.452        1.123      866.599
01/07/2021  23:43:00      -15.797       -6.181       -0.598       40.924       25.362       22.698     1674.782      643.239      515.197        0.156        0.142       16.963       17.647        1.082      332.371        0.989      866.586
01/07/2021  23:44:00      -29.767       -8.001        4.032       32.564       29.932       22.283     1060.388      895.935      496.542        0.171        0.123       30.824       15.294        0.246      332.376        0.996      866.573
01/07/2021  23:45:00       -3.066       -3.418       -2.760       40.665       31.196       20.082     1653.680      973.164      403.277        0.153        0.152        4.592       20.392       19.724      332.366        0.981      866.576
01/07/2021  23:46:00      -71.245       -6.045       -7.571       30.835       29.088       19.351      950.776      846.086      374.462        0.367        0.109       71.501       11.450        0.026      332.275        0.833      866.572
01/07/2021  23:47:00      -51.912        7.623       -6.760       42.580       34.156       20.881     1813.028     1166.601      436.012        0.311        0.171       52.469       19.302        0.135      332.308        0.886      866.563
01/07/2021  23:48:00      -61.710        1.948       -6.410       39.217       27.096       20.603     1537.957      734.203      424.489        0.327        0.135       61.741       18.672        0.091      332.272        0.825      866.546
01/07/2021  23:49:00      -14.328       -7.060       -2.082       41.353       29.712       19.707     1710.065      882.787      388.363        0.162        0.149       15.973       21.039        1.735      332.303        0.878      866.550
01/07/2021  23:50:00      -57.756       14.384        6.273       52.071       32.360       20.547     2711.341     1047.153      422.175        0.388        0.209       59.521       19.231        0.104      332.288        0.853      866.554
01/07/2021  23:51:00      -72.873       10.701        2.572       35.460       32.614       20.242     1257.447     1063.660      409.754        0.408        0.137       73.654       17.688        0.058      332.259        0.807      866.551
01/07/2021  23:52:00      -93.709       17.401        2.717       25.592       28.700       21.141      654.960      823.682      446.941        0.551        0.096       95.310       20.202        0.045      332.255        0.799      866.542
01/07/2021  23:53:00      -58.382       -2.630       -4.155       36.103       23.823       15.677     1303.448      567.519      245.762        0.277        0.106       58.441       11.483        0.039      332.343        0.943      866.529
01/07/2021  23:54:00      -88.470       15.477       -0.044       27.508       28.550       16.731      756.667      815.114      279.940        0.496        0.093       89.813       15.832        0.031      332.298        0.867      866.505
01/07/2021  23:55:00      -52.779       -2.404        4.430       41.164       24.647       20.640     1694.481      607.483      425.996        0.277        0.136       52.834       21.107        0.160      332.383        1.011      866.481
01/07/2021  23:56:00      -75.186       25.925        2.455       37.025       28.153       17.537     1370.883      792.619      307.544        0.440        0.124       79.530       18.153        0.052      332.300        0.873      866.449
01/07/2021  23:57:00     -114.624       30.332       -1.969       31.122       25.414       18.421      968.551      645.893      339.338        0.801        0.098      118.569       15.637        0.017      332.256        0.801      866.424
01/07/2021  23:58:00     -124.431       32.213        0.421       38.586       35.282       24.600     1488.887     1244.851      605.151        0.993        0.167      128.533       25.250        0.039      332.233        0.763      866.412
01/07/2021  23:59:00       -3.316        7.296        9.360       35.433       32.045       24.419     1255.501     1026.869      596.264        0.151        0.144        8.014       19.167        5.720      332.238        0.770      866.417
01/08/2021  00:00:00      -17.107       10.961       17.476       49.398       42.951       27.974     2440.118     1844.771      782.536        0.289        0.253       20.317       21.703        1.141      332.219        0.739      866.431
01/08/2021  00:01:00      -10.930       -5.527       -8.080       47.607       30.373       17.306     2266.469      922.511      299.487        0.185        0.174       12.248       10.723        0.767      332.262        0.811      866.453
01/08/2021  00:02:00      -78.204       16.009        0.050       52.341       32.125       19.696     2739.568     1032.046      387.947        0.526        0.208       79.826       23.037        0.083      332.360        0.971      866.460
01/08/2021  00:03:00       -7.187        5.308        7.212       23.251       28.450       17.850      540.610      809.424      318.616        0.090        0.083        8.935       17.347        3.769      332.362        0.973      866.456
01/08/2021  00:04:00        9.266        9.264       -0.636       32.830       31.614       20.448     1077.783      999.429      418.114        0.133        0.125       13.102       19.036        2.111      332.342        0.942      866.458
01/08/2021  00:05:00       21.496        4.011        5.931       29.240       32.163       22.257      854.978     1034.430      495.392        0.145        0.119       21.867       21.444        0.962      332.404        1.044      866.443
01/08/2021  00:06:00      -40.123       -1.232       -1.442       49.599       30.486       21.920     2460.060      929.370      480.497        0.274        0.193       40.142       16.169        0.162      332.346        0.948      866.429
01/08/2021  00:07:00      -39.884       12.316       11.011       51.421       34.392       21.901     2644.071     1182.797      479.654        0.308        0.215       41.742       25.666        0.378      332.320        0.907      866.415
01/08/2021  00:08:00      -73.673       12.844        1.396       42.716       33.955       21.709     1824.681     1152.934      471.272        0.452        0.172       74.784       21.034        0.079      332.280        0.840      866.403
01/08/2021  00:09:00      -32.333        5.953        2.809       41.658       37.572       25.734     1735.359     1411.636      662.217        0.245        0.190       32.877       25.124        0.584      332.268        0.819      866.396
01/08/2021  00:10:00      -51.444        1.774        5.775       53.661       33.706       25.649     2879.549     1136.071      657.857        0.368        0.234       51.475       22.476        0.191      332.215        0.733      866.381
01/08/2021  00:11:00      -21.006       10.736        2.259       40.360       37.743       27.726     1628.893     1424.513      768.746        0.219        0.191       23.590       27.193        1.329      332.167        0.654      866.361
01/08/2021  00:12:00      -40.303       10.013       -4.854       42.547       35.263       23.948     1810.246     1243.480      573.522        0.269        0.181       41.528       24.767        0.356      332.203        0.712      866.348
01/08/2021  00:13:00      -66.246       22.543       -1.535       43.518       34.640       26.480     1893.842     1199.952      701.185        0.435        0.190       69.976       22.925        0.107      332.205        0.718      866.346
01/08/2021  00:14:00      -89.599       11.825       -0.194       42.771       27.833       22.979     1829.389      774.665      528.015        0.565        0.157       90.375       19.780        0.048      332.149        0.624      866.342
01/08/2021  00:15:00      -70.734       11.990        4.456       47.565       37.123       23.205     2262.463     1378.136      538.488        0.467        0.209       71.743       24.361        0.115      332.121        0.577      866.338
01/08/2021  00:16:00      -59.989        1.625        3.464       49.985       40.274       24.367     2498.474     1621.988      593.738        0.416        0.236       60.011       22.225        0.137      332.084        0.518      866.329
01/08/2021  00:17:00      -49.956        7.852        6.260       45.108       35.905       21.819     2034.743     1289.160      476.063        0.320        0.190       50.569       21.881        0.187      332.100        0.543      866.324
01/08/2021  00:18:00      -75.687       20.033        2.266       23.440       31.207       22.035      549.426      973.856      485.522        0.407        0.100       78.294       22.342        0.081      332.000        0.377      866.321
01/08/2021  00:19:00      -27.685        3.350      -10.050       29.578       33.399       21.056      874.833     1115.511      443.350        0.166        0.122       27.887       24.125        0.748      332.037        0.440      866.307
01/08/2021  00:20:00      -10.673       17.607        1.430       35.304       43.259       26.814     1246.356     1871.339      718.970        0.213        0.192       20.589       28.664        1.938      332.137        0.605      866.287
01/08/2021  00:21:00       -3.704       40.584        9.956       26.692       39.289       24.726      712.453     1543.639      611.374        0.231        0.143       40.753       28.042        0.473      332.068        0.491      866.284
01/08/2021  00:22:00       14.475       -0.750       -5.156       32.371       33.002       21.784     1047.872     1089.151      474.530        0.142        0.131       14.495       24.203        2.788      332.103        0.548      866.277
01/08/2021  00:23:00       11.459       27.836        7.123       39.044       45.323       28.033     1524.455     2054.213      785.846        0.266        0.218       30.103       32.786        1.186      332.086        0.521      866.275
01/08/2021  00:24:00      -36.391       29.903        3.945       38.072       38.075       25.973     1449.490     1449.689      674.614        0.290        0.179       47.101       28.888        0.376      332.064        0.483      866.264
01/08/2021  00:25:00      -44.276       13.171        1.896       32.947       35.898       21.009     1085.532     1288.639      441.378        0.248        0.141       46.194       22.006        0.227      332.090        0.528      866.260
01/08/2021  00:26:00      -40.123       15.948        8.848       31.531       33.365       23.093      994.212     1113.202      533.309        0.229        0.132       43.176       25.644        0.353      332.054        0.467      866.255
01/08/2021  00:27:00      -22.611       15.453        8.761       30.969       38.969       24.357      959.049     1518.603      593.275        0.195        0.154       27.387       28.912        1.114      332.084        0.518      866.254
01/08/2021  00:28:00      -48.373       12.466        5.571       31.892       36.869       23.388     1017.106     1359.358      547.000        0.272        0.146       49.954       26.870        0.289      332.096        0.537      866.258
01/08/2021  00:29:00       -9.481        5.752        8.471       42.630       45.481       25.992     1817.320     2068.551      675.600        0.238        0.228       11.090       29.466        7.060      332.163        0.646      866.267
01/08/2021  00:30:00        3.492        7.785        9.993       38.613       40.808       26.316     1490.972     1665.254      692.527        0.201        0.192        8.533       28.340       11.031      332.248        0.787      866.267
01/08/2021  00:31:00        5.340       17.368        2.730       35.373       33.359       24.103     1251.249     1112.836      580.969        0.164        0.147       18.170       24.561        1.827      332.152        0.629      866.273
01/08/2021  00:32:00      -20.887       11.595        2.178       29.121       38.698       20.806      848.028     1497.567      432.873        0.168        0.139       23.889       26.908        1.269      332.110        0.560      866.277
01/08/2021  00:33:00        9.805        4.558       11.406       37.694       43.040       27.619     1420.848     1852.462      762.797        0.214        0.202       10.813       33.157        9.404      332.189        0.691      866.270
01/08/2021  00:34:00        9.606       13.395       10.711       37.240       37.198       27.485     1386.851     1383.656      755.406        0.196        0.176       16.483       25.878        2.465      332.143        0.615      866.261
01/08/2021  00:35:00      -27.081       21.786        9.288       40.867       46.098       29.393     1670.087     2124.985      863.965        0.298        0.233       34.757       33.753        0.943      332.162        0.645      866.257
01/08/2021  00:36:00      -38.917        8.484        5.634       32.771       40.916       22.512     1073.927     1674.120      506.794        0.244        0.163       39.831       27.198        0.466      332.206        0.718      866.259
01/08/2021  00:37:00      -41.875       22.471        4.407       36.642       46.445       25.041     1342.663     2157.149      627.033        0.320        0.206       47.524       26.775        0.317      332.085        0.518      866.256
01/08/2021  00:38:00      -28.930       15.928        9.891       44.270       44.215       29.450     1959.822     1954.934      867.296        0.298        0.239       33.025       33.376        1.021      332.065        0.486      866.239
01/08/2021  00:39:00      -55.622       14.532        7.761       36.426       40.499       25.530     1326.889     1640.175      651.775        0.349        0.181       57.489       26.175        0.207      332.027        0.422      866.224
01/08/2021  00:40:00      -43.360        9.815        2.475       32.270       47.444       23.921     1041.370     2250.969      572.196        0.292        0.193       44.457       28.360        0.407      332.034        0.435      866.212
01/08/2021  00:41:00       -0.800       10.009       12.331       37.665       42.858       28.586     1418.687     1836.804      817.141        0.216        0.204       10.041       28.081        7.821      332.100        0.544      866.203
01/08/2021  00:42:00      -25.267       12.795       11.355       47.772       52.053       29.611     2282.168     2709.521      876.790        0.340        0.293       28.322       31.745        1.256      331.970        0.329      866.202
01/08/2021  00:43:00      -16.278       29.807       12.261       38.182       43.395       27.318     1457.886     1883.149      746.291        0.269        0.204       33.962       30.927        0.829      331.940        0.280      866.188
01/08/2021  00:44:00        0.374       21.620       11.992       37.288       42.359       28.405     1390.425     1794.284      806.836        0.230        0.200       21.623       30.130        1.942      331.959        0.311      866.158
01/08/2021  00:45:00      -17.321       -1.298        1.099       44.223       37.306       29.159     1955.644     1391.773      850.257        0.225        0.210       17.369       23.711        1.864      332.055        0.470      866.126
01/08/2021  00:46:00      -81.270       33.271        8.903       37.122       47.472       28.367     1378.067     2253.585      804.709        0.611        0.222       87.817       32.241        0.135      331.949        0.295      866.103
01/08/2021  00:47:00      -81.606       18.166        7.254       47.438       54.060       33.024     2250.326     2922.444     1090.558        0.665        0.313       83.603       36.831        0.194      331.979        0.343      866.098
01/08/2021  00:48:00      -72.006       -9.246        5.452       50.327       42.751       28.569     2532.853     1827.662      816.180        0.524        0.259       72.597       25.459        0.123      331.986        0.356      866.094
01/08/2021  00:49:00     -105.466       11.223        8.409       63.042       43.841       29.777     3974.305     1922.066      886.663        0.905        0.339      106.061       31.994        0.091      331.905        0.223      866.094
01/08/2021  00:50:00      -98.381        3.529       21.866       59.252       46.032       32.397     3510.842     2118.915     1049.596        0.842        0.334       98.444       31.518        0.103      331.920        0.248      866.101
01/08/2021  00:51:00     -124.882        7.809       10.955       50.507       50.653       28.770     2550.992     2565.741      827.732        1.086        0.297      125.126       31.334        0.063      331.872        0.167      866.106
01/08/2021  00:52:00     -124.153       16.258        7.525       43.539       50.457       30.289     1895.636     2545.945      917.410        1.055        0.268      125.213       30.599        0.060      331.838        0.112      866.100
01/08/2021  00:53:00     -124.450       -4.047        1.401       55.726       56.157       34.294     3105.348     3153.626     1176.091        1.147        0.372      124.515       35.971        0.083      331.841        0.118      866.073
01/08/2021  00:54:00      -94.143        3.676        7.857       70.661       52.921       33.555     4992.937     2800.600     1125.922        0.893        0.446       94.214       37.963        0.162      331.833        0.103      866.051
01/08/2021  00:55:00      -50.340       13.830        8.748       60.591       51.742       35.268     3671.290     2677.264     1243.825        0.520        0.380       52.205       35.197        0.455      331.832        0.102      866.018
01/08/2021  00:56:00      -12.376       15.563       13.967       55.133       49.543       34.824     3039.637     2454.520     1212.693        0.365        0.335       19.885       35.172        3.129      331.849        0.129      866.006
01/08/2021  00:57:00      -61.324       18.863       13.822       62.748       48.009       36.294     3937.332     2304.893     1317.269        0.593        0.378       64.160       39.059        0.371      331.842        0.119      866.003
01/08/2021  00:58:00      -69.334       22.725       11.860       43.447       52.732       31.603     1887.628     2780.712      998.752        0.556        0.283       72.963       34.324        0.221      331.853        0.136      865.998
01/08/2021  00:59:00      -98.146       34.279        9.882       41.785       44.362       28.837     1745.960     1968.016      831.596        0.772        0.227      103.960       35.709        0.118      331.895        0.204      866.004
01/08/2021  01:00:00      -68.096       24.333       13.485       54.819       42.400       28.603     3005.074     1797.733      818.136        0.551        0.281       72.313       32.714        0.205      331.852        0.133      866.011
01/08/2021  01:01:00      -64.225       30.598        8.122       33.490       43.782       27.677     1121.593     1916.841      766.001        0.446        0.190       71.141       32.523        0.209      331.830        0.100      866.023
01/08/2021  01:02:00      -46.339       10.948        5.331       49.027       51.442       30.684     2403.681     2646.240      941.497        0.414        0.300       47.614       38.233        0.645      331.949        0.293      866.034
01/08/2021  01:03:00      -62.812       47.247        3.178       32.082       48.346       28.682     1029.244     2337.321      822.634        0.519        0.209       78.598       34.514        0.193      331.821        0.083      866.031
01/08/2021  01:04:00      -75.215       44.674        1.330       33.133       44.318       28.887     1097.816     1964.125      834.463        0.577        0.195       87.481       35.383        0.164      331.762       -0.013      866.026
01/08/2021  01:05:00      -66.113       17.573       -0.604       30.340       47.002       28.619      920.524     2209.166      819.064        0.431        0.197       68.408       31.882        0.217      331.844        0.121      866.010
01/08/2021  01:06:00      -44.427       47.510       10.152       32.496       49.791       30.129     1055.971     2479.132      907.729        0.439        0.222       65.046       37.367        0.330      331.744       -0.044      865.982
01/08/2021  01:07:00      -40.547       61.937        5.864       31.490       57.057       30.860      991.644     3255.524      952.364        0.536        0.260       74.029       42.473        0.329      331.714       -0.092      865.945
01/08/2021  01:08:00      -39.438       31.301        2.992       31.616       49.479       27.557      999.571     2448.176      759.370        0.337        0.210       50.350       36.929        0.538      331.724       -0.075      865.910
01/08/2021  01:09:00      -13.714       25.464        2.889       37.621       49.934       29.370     1415.340     2493.433      862.583        0.281        0.239       28.922       34.281        1.405      331.778        0.014      865.886
01/08/2021  01:10:00       -1.345       33.077        9.741       37.221       44.447       29.348     1385.429     1975.556      861.304        0.271        0.211       33.104       32.984        0.993      331.796        0.043      865.881
01/08/2021  01:11:00      -18.188       38.025        5.245       29.263       41.755       24.886      856.334     1743.518      619.293        0.251        0.161       42.151       30.154        0.512      331.768       -0.006      865.883
01/08/2021  01:12:00        0.243       22.118        2.912       27.124       34.962       20.479      735.720     1222.364      419.389        0.144        0.119       22.119       25.701        1.350      331.803        0.053      865.871
01/08/2021  01:13:00        4.326       48.633        9.279       35.411       43.758       29.413     1253.915     1914.758      865.128        0.325        0.202       48.825       29.813        0.373      331.878        0.176      865.864
01/08/2021  01:14:00        7.991       29.432        7.552       38.898       50.251       32.816     1513.091     2525.131     1076.907        0.305        0.256       30.498       35.489        1.354      331.834        0.105      865.868
01/08/2021  01:15:00       14.725       19.440        6.784       37.702       50.499       29.541     1421.426     2550.176      872.691        0.274        0.242       24.388       34.127        1.958      331.783        0.021      865.879
01/08/2021  01:16:00        1.164       18.194        9.769       42.121       46.094       30.002     1774.137     2124.651      900.091        0.261        0.240       18.231       30.577        2.813      331.823        0.087      865.874
01/08/2021  01:17:00      -31.792       24.578       -5.533       46.443       47.358       35.123     2156.925     2242.803     1233.622        0.364        0.282       40.184       31.836        0.628      331.840        0.115      865.864
01/08/2021  01:18:00      -57.477        4.610        0.592       42.676       51.015       26.413     1821.209     2602.490      697.644        0.422        0.256       57.661       29.506        0.262      331.695       -0.123      865.859
01/08/2021  01:19:00      -55.769       -0.594        4.084       39.384       47.588       28.489     1551.098     2264.641      811.644        0.388        0.231       55.772       29.213        0.274      331.714       -0.092      865.845
01/08/2021  01:20:00      -29.567       20.846        1.028       34.694       42.437       26.449     1203.674     1800.928      699.555        0.251        0.185       36.177       28.724        0.630      331.741       -0.049      865.822
01/08/2021  01:21:00       -0.971       28.680       10.714       41.568       54.256       32.255     1727.929     2943.700     1040.380        0.332        0.286       28.696       37.118        1.673      331.795        0.041      865.803
01/08/2021  01:22:00      -43.396       30.052       -2.405       38.869       45.710       27.971     1510.838     2089.417      782.350        0.359        0.219       52.786       32.606        0.382      331.746       -0.040      865.798
01/08/2021  01:23:00      -38.339        8.978        2.702       35.717       42.183       23.680     1275.702     1779.390      560.748        0.259        0.181       39.377       29.826        0.574      331.755       -0.024      865.790
01/08/2021  01:24:00      -11.014       13.255        8.414       56.269       44.400       30.337     3166.254     1971.379      920.331        0.321        0.303       17.234       29.942        3.019      331.777        0.010      865.807
01/08/2021  01:25:00      -77.797       29.253        5.440       28.065       40.438       24.065      787.621     1635.203      579.145        0.497        0.150       83.115       30.195        0.132      331.746       -0.039      865.831
01/08/2021  01:26:00      -65.056       35.369        5.999       37.847       46.000       25.792     1432.369     2115.954      665.237        0.487        0.211       74.049       32.751        0.196      331.763       -0.012      865.836
01/08/2021  01:27:00      -34.104       19.179        8.528       48.055       43.496       24.632     2309.277     1891.902      606.725        0.320        0.240       39.127       29.473        0.567      331.761       -0.016      865.834
01/08/2021  01:28:00      -34.986       15.470        5.355       45.994       43.918       28.229     2115.461     1928.765      796.849        0.317        0.242       38.254       29.129        0.580      331.904        0.220      865.831
01/08/2021  01:29:00      -42.298       35.185        9.337       36.073       54.206       30.003     1301.250     2938.254      900.179        0.413        0.257       55.019       37.872        0.474      331.914        0.236      865.833
01/08/2021  01:30:00      -45.141       26.403        4.908       33.317       46.542       27.408     1110.006     2166.125      751.223        0.339        0.201       52.295       34.531        0.436      331.933        0.268      865.825
01/08/2021  01:31:00        2.343        1.678       -0.133       29.582       40.794       21.850      875.104     1664.150      477.430        0.151        0.151        2.882       25.275       76.923      331.978        0.344      865.821
01/08/2021  01:32:00       26.817       11.428        0.005       39.368       46.888       30.218     1549.863     2198.474      913.141        0.275        0.233       29.150       30.262        1.078      332.051        0.464      865.817
01/08/2021  01:33:00       -3.361       15.391       11.648       35.070       43.235       27.326     1229.894     1869.291      746.685        0.211        0.192       15.754       31.218        3.927      332.044        0.451      865.817
01/08/2021  01:34:00      -19.329       30.472        9.619       37.764       46.724       28.636     1426.126     2183.105      820.009        0.291        0.221       36.085       34.049        0.890      331.963        0.316      865.818
01/08/2021  01:35:00       -6.220       21.415        7.747       43.847       43.887       28.960     1922.569     1926.074      838.684        0.262        0.234       22.300       30.276        1.843      331.904        0.220      865.826
01/08/2021  01:36:00       10.193        8.875        6.472       53.905       36.380       27.115     2905.741     1323.508      735.246        0.259        0.248       13.516       25.766        3.634      331.932        0.266      865.842
01/08/2021  01:37:00       -0.840       24.268        8.294       39.792       51.601       30.152     1583.406     2662.690      909.156        0.291        0.258       24.283       34.269        1.992      331.920        0.245      865.845
01/08/2021  01:38:00      -57.397       36.723        6.018       52.842       50.430       30.746     2792.287     2543.205      945.293        0.548        0.314       68.139       34.624        0.258      331.772        0.003      865.841
01/08/2021  01:39:00      -83.969       32.082       13.215       47.461       43.699       27.927     2252.570     1909.609      779.926        0.660        0.247       89.889       32.257        0.129      331.621       -0.246      865.834
01/08/2021  01:40:00      -49.109       23.529       10.129       55.816       56.193       32.404     3115.390     3157.613     1049.996        0.519        0.366       54.455       38.640        0.504      331.691       -0.129      865.839
01/08/2021  01:41:00      -58.814       19.365        4.779       56.159       53.899       29.547     3153.784     2905.079      873.010        0.539        0.347       61.920       36.889        0.355      331.715       -0.090      865.839
01/08/2021  01:42:00      -25.686       28.902       22.029       71.986       47.919       31.767     5181.922     2296.199     1009.151        0.523        0.424       38.667       35.854        0.860      331.641       -0.212      865.850
01/08/2021  01:43:00       -2.749        6.412       11.442       52.752       48.307       33.194     2782.773     2333.519     1101.831        0.320        0.311        6.977       30.837       19.537      331.732       -0.064      865.860
01/08/2021  01:44:00      -33.781       28.340        9.862       50.466       54.616       33.647     2546.836     2982.944     1132.135        0.435        0.333       44.094       39.225        0.791      331.677       -0.153      865.853
01/08/2021  01:45:00      -71.086       36.727       10.148       48.753       55.175       30.422     2376.894     3044.244      925.490        0.642        0.317       80.013       38.172        0.228      331.691       -0.130      865.859
01/08/2021  01:46:00      -54.859       40.413       18.871       50.273       55.127       32.394     2527.414     3038.967     1049.373        0.581        0.331       68.137       40.861        0.360      331.749       -0.033      865.866
01/08/2021  01:47:00      -59.351       37.542        7.418       40.846       47.561       27.213     1668.416     2262.085      740.561        0.483        0.234       70.227       33.973        0.234      331.652       -0.194      865.864
01/08/2021  01:48:00      -47.798       40.337        8.504       36.447       50.086       27.143     1328.356     2508.657      736.751        0.428        0.229       62.544       34.813        0.310      331.572       -0.328      865.843
01/08/2021  01:49:00      -27.411       23.310        0.728       45.572       43.023       27.747     2076.815     1850.954      769.916        0.300        0.235       35.982       32.714        0.827      331.690       -0.133      865.828
01/08/2021  01:50:00       33.618        7.758        9.255       54.722       54.205       32.005     2994.465     2938.203     1024.289        0.412        0.348       34.501       34.982        1.028      331.860        0.148      865.821
01/08/2021  01:51:00       41.272       -4.207      -13.449      187.623       49.754       94.551    35202.558     2475.439     8939.863        2.425        2.331       41.486      126.869        9.352      331.903        0.219      865.829
01/08/2021  01:52:00       14.260       18.962       13.712       45.040       56.142       33.507     2028.627     3151.905     1122.746        0.353        0.315       23.726       40.486        2.912      331.989        0.359      865.842
01/08/2021  01:53:00        3.681       31.787        3.034       45.255       51.552       33.238     2048.021     2657.606     1104.798        0.342        0.291       31.999       35.902        1.259      331.783        0.022      865.851
01/08/2021  01:54:00      -30.478       43.946       11.639       31.970       49.505       28.488     1022.083     2450.739      811.570        0.364        0.214       53.481       35.850        0.449      331.613       -0.259      865.841
01/08/2021  01:55:00      -11.274       30.552        9.162       35.776       55.010       32.623     1279.915     3026.109     1064.232        0.326        0.269       32.566       39.392        1.463      331.628       -0.235      865.836
01/08/2021  01:56:00      -24.318       28.389        6.395       42.487       54.395       30.430     1805.119     2958.778      925.979        0.356        0.284       37.381       37.346        0.998      331.603       -0.274      865.840
01/08/2021  01:57:00      -74.514       61.015       11.672       40.451       55.929       34.068     1636.284     3128.012     1160.658        0.767        0.296       96.308       42.920        0.199      331.539       -0.380      865.841
01/08/2021  01:58:00      -55.328       42.443        7.990       43.914       50.406       31.374     1928.429     2540.757      984.324        0.519        0.273       69.733       37.921        0.296      331.572       -0.327      865.846
01/08/2021  01:59:00      -63.158       38.598       10.130       35.942       56.144       30.648     1291.821     3152.113      939.271        0.548        0.269       74.019       40.809        0.304      331.518       -0.414      865.856
01/08/2021  02:00:00      -70.949       43.984        1.675       37.300       53.942       31.475     1391.265     2909.772      990.687        0.613        0.265       83.477       39.269        0.221      331.442       -0.538      865.879
01/08/2021  02:01:00      -45.521       53.207        6.838       42.610       57.839       33.665     1815.629     3345.376     1133.304        0.562        0.315       70.023       41.841        0.357      331.441       -0.543      865.887
01/08/2021  02:02:00      -47.114       50.805        5.638       40.866       51.863       30.485     1670.010     2689.800      929.311        0.506        0.264       69.288       38.308        0.306      331.445       -0.536      865.887
01/08/2021  02:03:00      -52.933       37.473        4.581       34.403       48.480       31.262     1183.578     2350.292      977.339        0.437        0.226       64.854       37.530        0.335      331.486       -0.467      865.885
01/08/2021  02:04:00       -0.596       29.434        6.519       51.710       52.204       36.134     2673.913     2725.214     1305.661        0.381        0.335       29.440       38.056        1.671      331.536       -0.388      865.883
01/08/2021  02:05:00      -33.148       31.686        0.653       57.484       50.168       36.716     3304.425     2516.877     1348.071        0.463        0.358       45.857       36.828        0.645      331.531       -0.394      865.879
01/08/2021  02:06:00      -64.731       43.959        3.430       48.635       51.545       32.851     2365.341     2656.859     1079.205        0.612        0.305       78.247       38.440        0.241      331.496       -0.450      865.866
01/08/2021  02:07:00      -30.887       37.157        3.408       45.873       54.742       34.603     2104.349     2996.683     1197.362        0.432        0.315       48.318       39.601        0.672      331.523       -0.408      865.860
01/08/2021  02:08:00      -18.402       28.203        0.837      183.113       54.252       88.312    33530.425     2943.256     7799.083        2.269        2.214       33.676      119.919       12.681      331.571       -0.329      865.856
01/08/2021  02:09:00      -26.006       51.308       13.836       44.426       57.334       34.669     1973.689     3287.183     1201.913        0.498        0.323       57.522       42.664        0.550      331.502       -0.442      865.857
01/08/2021  02:10:00       -6.394       47.235        3.964      166.487       54.810       85.440    27717.768     3004.177     7299.935        2.015        1.901       47.666      110.973        5.420      331.534       -0.389      865.856
01/08/2021  02:11:00      -15.412       49.710        9.106       38.018       49.994       31.285     1445.339     2499.351      978.720        0.386        0.246       52.044       37.880        0.530      331.554       -0.356      865.856
01/08/2021  02:12:00       22.564       50.546        4.871      196.280       54.042       98.641    38525.994     2920.486     9730.027        2.712        2.559       55.354      132.552        5.734      331.600       -0.278      865.849
01/08/2021  02:13:00      -15.489       52.642        9.276       34.827       51.988       31.556     1212.911     2702.789      995.787        0.400        0.246       54.873       40.218        0.537      331.631       -0.229      865.847
01/08/2021  02:14:00       -2.904       30.525        1.373       36.846       49.304       28.382     1357.621     2430.856      805.530        0.277        0.230       30.663       33.859        1.219      331.680       -0.148      865.856
01/08/2021  02:15:00       29.429       26.051        5.669       44.030       50.910       36.632     1938.659     2591.845     1341.916        0.372        0.294       39.303       39.560        1.013      331.663       -0.177      865.856
01/08/2021  02:16:00       35.242       37.645        8.160       50.839       55.162       38.966     2584.597     3042.815     1518.316        0.493        0.357       51.567       42.275        0.672      331.729       -0.066      865.843
01/08/2021  02:17:00       24.110       36.096        6.286       42.245       50.457       33.204     1784.646     2545.942     1102.495        0.368        0.272       43.407       37.861        0.761      331.778        0.012      865.838
01/08/2021  02:18:00       39.561       35.782        5.924       58.080       54.229       35.982     3373.247     2940.767     1294.695        0.524        0.380       53.342       38.327        0.516      331.789        0.031      865.832
01/08/2021  02:19:00       16.518       24.192       11.832       51.716       53.469       32.431     2674.514     2858.949     1051.784        0.379        0.329       29.293       37.451        1.635      331.642       -0.212      865.824
01/08/2021  02:20:00       31.148       32.436       10.826       45.231       55.239       37.099     2045.815     3051.325     1376.312        0.431        0.324       44.970       41.840        0.866      331.701       -0.115      865.818
01/08/2021  02:21:00       54.259       52.972       19.015       61.618       60.828       39.954     3796.786     3700.035     1596.320        0.760        0.455       75.829       44.159        0.339      331.826        0.093      865.808
01/08/2021  02:22:00       51.522       49.617        8.792       52.878       53.861       36.166     2796.117     2900.975     1308.009        0.610        0.350       71.529       39.331        0.302      331.850        0.131      865.800
01/08/2021  02:23:00       45.046       60.924       14.968       40.884       51.464       30.461     1671.463     2648.531      927.862        0.561        0.262       75.768       36.889        0.237      331.813        0.071      865.804
01/08/2021  02:24:00       40.662       50.186        9.556       42.524       52.585       31.841     1808.287     2765.178     1013.859        0.492        0.279       64.591       37.870        0.344      331.801        0.050      865.814
01/08/2021  02:25:00       41.759       40.831        4.637       46.622       47.166       31.975     2173.632     2224.619     1022.426        0.443        0.271       58.404       34.649        0.352      331.784        0.024      865.824
01/08/2021  02:26:00        4.317       52.396       15.909       52.029       57.863       35.055     2706.974     3348.137     1228.818        0.515        0.364       52.574       42.849        0.664      331.762       -0.012      865.840
01/08/2021  02:27:00      -33.252       53.257       17.434       42.608       57.349       33.878     1815.428     3288.868     1147.749        0.525        0.313       62.785       44.789        0.509      331.515       -0.420      865.837
01/08/2021  02:28:00      -59.946       52.013        7.182       37.463       57.463       35.238     1403.484     3301.975     1241.692        0.615        0.297       79.365       42.689        0.289      331.382       -0.638      865.836
01/08/2021  02:29:00      -82.214       49.660        7.085       37.886       53.644       33.828     1435.314     2877.721     1144.348        0.737        0.273       96.049       40.347        0.176      331.318       -0.745      865.835
01/08/2021  02:30:00      -37.400       32.921        5.426       48.128       50.690       33.932     2316.350     2569.515     1151.394        0.427        0.302       49.825       35.356        0.504      331.399       -0.612      865.827
01/08/2021  02:31:00      -48.103       61.562       11.737       51.720       57.229       32.058     2674.998     3275.127     1027.726        0.661        0.349       78.126       40.212        0.265      331.368       -0.661      865.809
01/08/2021  02:32:00      -32.306       67.246       11.019       42.498       58.099       30.273     1806.101     3375.442      916.459        0.589        0.305       74.604       41.484        0.309      331.443       -0.538      865.797
01/08/2021  02:33:00      -24.759       51.710        1.898       36.827       49.353       29.926     1356.233     2435.743      895.552        0.399        0.234       57.332       37.784        0.434      331.487       -0.466      865.785
01/08/2021  02:34:00      -21.660       52.630        5.105       37.816       57.446       33.477     1430.029     3300.021     1120.709        0.456        0.293       56.913       42.541        0.559      331.473       -0.490      865.794
01/08/2021  02:35:00      -31.597       41.857       15.687       49.474       59.352       35.945     2447.631     3522.652     1292.015        0.513        0.363       52.444       45.300        0.746      331.422       -0.572      865.805
01/08/2021  02:36:00      -43.477       62.176       11.548       35.159       58.978       31.376     1236.158     3478.459      984.434        0.579        0.285       75.869       43.790        0.333      331.418       -0.577      865.808
01/08/2021  02:37:00      -10.963       36.162        2.014      134.081       51.169       70.117    17977.805     2618.218     4916.446        1.347        1.276       37.787       86.188        5.202      331.495       -0.452      865.824
01/08/2021  02:38:00       21.227       31.448       14.368       41.192       54.400       34.529     1696.766     2959.355     1192.229        0.375        0.292       37.942       40.724        1.152      331.512       -0.425      865.859
01/08/2021  02:39:00      -18.994       43.700       15.176       46.850       60.109       35.045     2194.946     3613.042     1228.158        0.477        0.352       47.650       43.598        0.837      331.495       -0.452      865.885
01/08/2021  02:40:00      -21.577       53.324        6.842       47.276       65.254       36.501     2235.011     4258.028     1332.331        0.559        0.391       57.524       47.390        0.679      331.526       -0.401      865.897
01/08/2021  02:41:00      -48.411       30.441        2.915       49.056       55.518       33.950     2406.468     3082.248     1152.627        0.496        0.332       57.186       42.503        0.552      331.450       -0.526      865.911
01/08/2021  02:42:00      -26.309       29.491       12.338       48.481       55.969       37.012     2350.382     3132.524     1369.868        0.428        0.343       39.521       42.345        1.148      331.411       -0.590      865.938
01/08/2021  02:43:00       -1.774       25.483       12.597       39.725       53.375       35.273     1578.063     2848.870     1244.152        0.324        0.284       25.545       42.354        2.749      331.432       -0.558      865.957
01/08/2021  02:44:00        1.751       41.382       17.472       56.617       49.364       35.107     3205.475     2436.768     1232.482        0.445        0.344       41.419       40.155        0.940      331.389       -0.627      865.954
01/08/2021  02:45:00      -76.102       47.176        1.589       33.096       53.565       31.590     1095.318     2869.245      997.933        0.649        0.248       89.538       41.640        0.216      331.373       -0.653      865.958
01/08/2021  02:46:00      -56.180       40.710        6.945       41.574       51.772       32.952     1728.435     2680.385     1085.836        0.518        0.275       69.379       36.289        0.274      331.449       -0.529      865.941
01/08/2021  02:47:00      -47.574       34.930        4.713       45.822       62.806       34.107     2099.664     3944.606     1163.257        0.536        0.360       59.020       43.850        0.552      331.452       -0.523      865.938
01/08/2021  02:48:00        6.552       11.934       15.740       48.413       55.670       34.991     2343.779     3099.097     1224.385        0.355        0.333       13.614       41.760        9.409      331.534       -0.390      865.932
01/08/2021  02:49:00       35.856       30.955       17.796       44.334       59.037       34.283     1965.515     3485.329     1175.291        0.459        0.331       47.370       43.709        0.851      331.603       -0.274      865.933
01/08/2021  02:50:00       24.581       34.269       13.376       49.905       54.203       35.520     2490.468     2937.912     1261.673        0.432        0.335       42.173       38.924        0.852      331.569       -0.331      865.938
01/08/2021  02:51:00       31.602       38.365       27.255       45.438       60.634       35.514     2064.648     3676.492     1261.245        0.511        0.350       49.705       44.366        0.797      331.606       -0.269      865.928
01/08/2021  02:52:00      -11.248       54.117       10.005       42.310       58.620       36.130     1790.095     3436.350     1305.407        0.484        0.327       55.273       45.151        0.667      331.611       -0.263      865.910
01/08/2021  02:53:00      -34.305       43.044        3.126       34.561       54.970       33.001     1194.491     3021.735     1089.039        0.417        0.265       55.042       41.995        0.582      331.500       -0.444      865.902
01/08/2021  02:54:00       13.500       12.951        1.020       45.443       50.068       30.265     2065.075     2506.808      915.941        0.292        0.274       18.707       37.404        3.998      331.550       -0.363      865.905
01/08/2021  02:55:00       31.585       11.965        7.550       40.668       50.902       30.568     1653.881     2591.060      934.374        0.319        0.259       33.775       36.790        1.186      331.639       -0.218      865.917
01/08/2021  02:56:00       12.834       27.560        6.790       49.861       51.513       31.885     2486.090     2653.635     1016.680        0.356        0.308       30.402       36.661        1.454      331.784        0.024      865.919
01/08/2021  02:57:00        7.798       45.497       12.470       35.816       50.020       29.423     1282.757     2502.016      865.736        0.347        0.233       46.160       37.948        0.676      331.838        0.112      865.911
01/08/2021  02:58:00       29.818       46.062       22.050       38.044       56.464       33.306     1447.376     3188.215     1109.305        0.462        0.287       54.871       42.970        0.613      332.026        0.420      865.900
01/08/2021  02:59:00        5.870       29.593       12.968      178.106       53.710       89.758    31721.772     2884.790     8056.423        2.186        2.133       30.170      116.951       15.027      331.820        0.084      865.915
01/08/2021  03:00:00      -72.498       51.500        4.236       46.098       56.649       32.668     2125.041     3209.126     1067.191        0.716        0.320       88.928       41.769        0.221      331.547       -0.368      865.940
01/08/2021  03:01:00      -71.831       46.331        0.862       37.198       50.311       32.628     1383.661     2531.208     1064.560        0.614        0.249       85.477       36.381        0.181      331.467       -0.501      865.946
01/08/2021  03:02:00      -67.959       61.271       10.803       37.098       57.222       35.277     1376.258     3274.331     1244.496        0.719        0.295       91.501       44.251        0.234      331.557       -0.352      865.955
01/08/2021  03:03:00      -91.169       39.562       11.131       33.602       53.719       31.088     1129.098     2885.784      966.479        0.749        0.249       99.382       41.295        0.173      331.539       -0.379      865.969
01/08/2021  03:04:00      -60.715       35.125       16.230       38.598       51.039       35.073     1489.818     2605.025     1230.129        0.525        0.266       70.143       40.148        0.328      331.515       -0.421      865.983
01/08/2021  03:05:00      -52.123       24.634       11.547       49.214       52.516       33.999     2422.023     2757.960     1155.929        0.490        0.317       57.651       40.465        0.493      331.594       -0.291      865.993
01/08/2021  03:06:00     -103.213       35.371        5.620       37.544       49.164       30.673     1409.552     2417.146      940.848        0.835        0.238      109.106       36.016        0.109      331.441       -0.543      866.026
01/08/2021  03:07:00      -63.129       32.216       22.784       58.671       54.680       38.441     3442.328     2989.937     1477.734        0.672        0.395       70.875       37.654        0.282      331.510       -0.428      866.044
01/08/2021  03:08:00      -33.601       20.675       20.094       51.632       53.661       32.181     2665.856     2879.488     1035.619        0.427        0.329       39.453       34.830        0.779      331.532       -0.392      866.052
01/08/2021  03:09:00      -17.226       29.243       19.060       54.336       65.044       37.167     2952.386     4230.754     1381.358        0.504        0.428       33.939       43.607        1.651      331.650       -0.198      866.068
01/08/2021  03:10:00      -49.989       32.057       13.420       45.085       64.669       36.383     2032.687     4182.068     1323.751        0.562        0.377       59.384       43.144        0.528      331.526       -0.402      866.063
01/08/2021  03:11:00      -38.010       12.049        6.787       46.735       51.895       31.925     2184.166     2693.085     1019.223        0.377        0.295       39.874       35.002        0.771      331.639       -0.216      866.026
01/08/2021  03:12:00       -1.645       20.450       12.466       55.888       58.679       37.058     3123.421     3443.216     1373.308        0.426        0.397       20.516       41.893        4.170      331.731       -0.065      866.012
01/08/2021  03:13:00      -16.771       23.477       12.078       44.335       51.044       32.530     1965.552     2605.442     1058.172        0.330        0.281       28.852       39.628        1.886      331.604       -0.275      865.983
01/08/2021  03:14:00       29.692       12.315       11.569       44.293       49.281       29.926     1961.888     2428.625      895.572        0.323        0.264       32.145       32.462        1.020      331.678       -0.150      865.957
01/08/2021  03:15:00       -7.472       51.035        4.032       52.813       52.432       30.481     2789.219     2749.138      929.065        0.457        0.323       51.580       35.511        0.474      331.714       -0.093      865.945
01/08/2021  03:16:00      -30.658       47.547        0.005       39.361       49.383       27.399     1549.274     2438.699      750.679        0.397        0.237       56.574       33.802        0.357      331.565       -0.339      865.924
01/08/2021  03:17:00      -29.649       35.043        7.444       46.353       48.638       31.938     2148.579     2365.619     1020.055        0.385        0.277       45.902       37.178        0.656      331.569       -0.332      865.936
01/08/2021  03:18:00      -24.995       34.436        4.414       48.932       54.599       30.964     2394.318     2981.028      958.748        0.408        0.317       42.552       40.686        0.914      331.570       -0.330      865.938
01/08/2021  03:19:00      -23.240       15.685        5.098       44.929       59.894       32.523     2018.656     3587.233     1057.736        0.374        0.333       28.038       42.051        2.249      331.552       -0.358      865.944
01/08/2021  03:20:00        9.836       26.633        7.102       49.838       49.970       31.692     2483.811     2496.971     1004.407        0.342        0.299       28.391       31.066        1.197      331.548       -0.366      865.935
01/08/2021  03:21:00       -3.205       53.313        6.099      173.055       57.082       89.613    29947.870     3258.340     8030.428        2.205        2.062       53.409      117.385        4.831      331.589       -0.296      865.906
01/08/2021  03:22:00       10.220       36.663        8.089      154.822       53.739       79.223    23969.973     2887.875     6276.362        1.732        1.657       38.060      101.083        7.053      331.601       -0.278      865.891
01/08/2021  03:23:00       29.717       44.680       16.503       55.805       59.869       38.875     3114.242     3584.267     1511.240        0.568        0.410       53.660       43.378        0.654      331.661       -0.179      865.890
01/08/2021  03:24:00       29.035       23.639       13.914       47.462       54.697       37.368     2252.610     2991.814     1396.338        0.412        0.332       37.441       40.851        1.190      331.670       -0.166      865.902
01/08/2021  03:25:00       30.307       34.461       11.540      151.615       59.582       78.651    22987.154     3550.069     6185.969        1.747        1.636       45.892       99.435        4.695      331.624       -0.240      865.932
01/08/2021  03:26:00       70.803       26.600        3.172       60.229       53.895       39.695     3627.483     2904.670     1575.732        0.692        0.405       75.635       38.648        0.261      331.664       -0.175      865.952
01/08/2021  03:27:00       69.548       19.754        5.567       59.217       53.633       42.093     3506.635     2876.478     1771.786        0.670        0.408       72.299       42.312        0.343      331.813        0.070      865.961
01/08/2021  03:28:00      129.565       31.787      -32.074      498.139       60.159      225.482   248142.243     3619.129    50842.250       16.065       15.130      133.407      331.238        6.165      332.129        0.600      865.960
01/08/2021  03:29:00       50.162       40.486        8.098       53.205       55.315       33.280     2830.744     3059.718     1107.573        0.561        0.350       64.462       37.176        0.333      331.864        0.154      865.954
01/08/2021  03:30:00       35.174       36.105        7.012       50.183       45.669       32.645     2518.319     2085.672     1065.720        0.413        0.283       50.406       34.456        0.467      331.629       -0.233      865.973
01/08/2021  03:31:00        4.249       31.198        9.382      139.641       52.512       67.579    19499.747     2757.512     4566.969        1.395        1.341       31.486       88.279        7.861      331.712       -0.095      866.001
01/08/2021  03:32:00       26.622       40.341       17.904       49.717       56.540       37.465     2471.751     3196.767     1403.606        0.486        0.354       48.333       41.733        0.746      331.680       -0.148      866.021
01/08/2021  03:33:00      -25.399       38.532       21.846       46.315       57.583       32.747     2145.066     3315.756     1072.368        0.457        0.327       46.150       39.295        0.725      331.564       -0.339      866.041
01/08/2021  03:34:00       -8.634       30.330       14.678       42.371       59.512       35.256     1795.316     3541.699     1243.016        0.389        0.329       31.535       40.896        1.682      331.550       -0.361      866.071
01/08/2021  03:35:00      -76.615       28.652       14.589      100.429       69.398       55.733    10086.049     4816.146     3106.223        1.245        0.900       81.798       56.378        0.475      331.514       -0.420      866.108
01/08/2021  03:36:00      -66.609       38.192       15.625      157.508       59.959       77.972    24808.646     3595.094     6079.603        2.030        1.724       76.781       96.487        1.579      331.567       -0.335      866.141
01/08/2021  03:37:00      -12.468       37.510       -4.655      360.440       57.722      180.543   129917.004     3331.815    32595.654        8.368        8.292       39.528      249.901       39.969      331.763       -0.008      866.181
01/08/2021  03:38:00       -3.665       23.606       11.423      240.932       53.892      114.325    58048.161     2904.308    13070.166        3.735        3.701       23.889      156.897       43.136      331.631       -0.227      866.218
01/08/2021  03:39:00      -19.910       54.076       13.854      142.326       60.452       74.735    20256.821     3654.476     5585.249        1.650        1.475       57.625       90.444        2.463      331.619       -0.249      866.232
01/08/2021  03:40:00      -30.453       58.154       18.871       41.838       64.740       37.900     1750.452     4191.293     1436.382        0.602        0.369       65.645       48.002        0.535      331.665       -0.173      866.236
01/08/2021  03:41:00       -8.913       46.512       19.342      162.925       59.956       80.891    26544.692     3594.665     6543.431        1.964        1.834       47.359      103.256        4.754      331.629       -0.230      866.238
01/08/2021  03:42:00       33.784       42.004        2.429      306.065       66.183      149.839    93675.811     4380.187    22451.670        6.168        6.025       53.904      208.415       14.949      331.802        0.056      866.205
01/08/2021  03:43:00       16.477       50.689       11.646      147.230       57.069       69.674    21676.655     3256.867     4854.446        1.638        1.489       53.300       90.553        2.886      331.750       -0.033      866.163
01/08/2021  03:44:00       66.697       41.774       -4.452      362.118       53.312      179.573   131129.314     2842.150    32246.392        8.618        8.311       78.699      250.290       10.115      331.899        0.217      866.144
01/08/2021  03:45:00       -3.141       27.058       14.067       39.211       54.942       31.962     1537.494     3018.673     1021.575        0.326        0.279       27.240       40.585        2.220      331.665       -0.174      866.172
01/08/2021  03:46:00       10.715        8.771        7.434      133.347       51.207       64.048    17781.395     2622.204     4102.185        1.237        1.225       13.848       80.507       33.800      331.812        0.071      866.157
01/08/2021  03:47:00       24.393       19.200        2.012      275.883       54.092      135.411    76111.401     2925.982    18336.140        4.915        4.869       31.043      187.185       36.360      331.930        0.266      866.177
01/08/2021  03:48:00      105.442       39.555      -15.306      407.324       55.558      201.194   165913.109     3086.697    40478.870       11.115       10.474      112.617      282.926        6.312      332.071        0.501      866.175
01/08/2021  03:49:00       19.856       36.485        2.019      184.622       54.397       85.260    34085.276     2959.067     7269.268        2.301        2.216       41.538      118.272        8.107      331.917        0.243      866.176
01/08/2021  03:50:00      -10.027       35.087        8.105       42.259       56.705       32.754     1785.826     3215.512     1072.819        0.373        0.304       36.491       42.057        1.328      331.846        0.126      866.180
01/08/2021  03:51:00        3.403       39.564        8.057      231.633       53.917      116.805    53653.671     2907.021    13643.353        3.591        3.510       39.710      158.219       15.875      331.786        0.028      866.194
01/08/2021  03:52:00       10.147       32.296       11.003      217.358       54.986      105.045    47244.354     3023.450    11034.389        3.127        3.065       33.852      142.841       17.804      331.742       -0.044      866.199
01/08/2021  03:53:00       -5.038       45.014       14.649       34.925       53.374       34.496     1219.758     2848.836     1189.973        0.376        0.263       45.296       41.064        0.822      331.820        0.083      866.209
01/08/2021  03:54:00       17.393       40.487       12.043      223.533       57.665      107.954    49967.209     3325.299    11654.119        3.350        3.247       44.065      147.805       11.251      331.851        0.134      866.226
01/08/2021  03:55:00       21.271       48.701       12.528       37.035       55.464       33.396     1371.591     3076.212     1115.325        0.427        0.278       53.144       41.123        0.599      331.784        0.022      866.223
01/08/2021  03:56:00       40.703       64.345        9.372      226.661       57.308      105.435    51375.170     3284.190    11116.576        3.582        3.289       76.138      147.180        3.737      331.847        0.127      866.228
01/08/2021  03:57:00       73.113       67.040        8.288      232.920       59.310      117.234    54251.516     3517.678    13743.738        4.070        3.576       99.196      158.077        2.539      331.845        0.125      866.236
01/08/2021  03:58:00      152.462       51.502      -34.963      556.487       57.233      256.949   309677.615     3275.568    66022.674       20.297       18.949      160.926      375.074        5.432      332.141        0.622      866.275
01/08/2021  03:59:00       19.511       31.670        7.452      143.686       50.277       74.407    20645.693     2527.816     5536.449        1.507        1.435       37.198       95.591        6.604      331.761       -0.014      866.313
01/08/2021  04:00:00       -9.002       71.760        2.855      243.339       60.915      119.783    59213.769     3710.670    14348.015        4.124        3.864       72.322      163.985        5.141      331.749       -0.034      866.340
01/08/2021  04:01:00      -64.959       50.584        9.098       42.508       57.530       34.602     1806.912     3309.750     1197.278        0.659        0.316       82.331       44.282        0.289      331.557       -0.350      866.358
01/08/2021  04:02:00      -81.076       44.131        4.039      193.177       57.281       97.163    37317.488     3281.140     9440.614        2.928        2.502       92.309      123.724        1.796      331.576       -0.320      866.395
01/08/2021  04:03:00      -49.226       25.961        6.061      140.031       51.885       68.794    19608.591     2692.051     4732.661        1.508        1.352       55.652       87.990        2.500      331.514       -0.421      866.410
01/08/2021  04:04:00      -19.397       56.279      -13.669      344.980       58.665      169.333   119010.920     3441.538    28673.534        7.740        7.556       59.528      236.711       15.812      331.681       -0.143      866.417
01/08/2021  04:05:00      -58.198       68.030       -2.196      325.429       65.451      158.355   105903.880     4283.769    25076.190        7.161        6.763       89.527      220.835        6.084      331.590       -0.293      866.428
01/08/2021  04:06:00      -42.272       61.573      -11.107      402.040       60.512      193.103   161636.276     3661.697    37288.789       10.410       10.129       74.687      271.346       13.200      331.689       -0.127      866.459
01/08/2021  04:07:00      -38.515       96.266      -18.932      433.624       67.526      203.009   188029.987     4559.788    41212.613       12.241       11.690      103.684      290.882        7.871      331.627       -0.229      866.474
01/08/2021  04:08:00      -41.910       81.336      -11.685      323.370       67.637      153.249   104567.880     4574.828    23485.349        7.054        6.631       91.498      217.093        5.629      331.611       -0.260      866.433
01/08/2021  04:09:00       20.533       22.651        3.113      292.991       59.080      142.586    85843.884     3490.418    20330.874        5.528        5.483       30.572      196.581       41.346      331.706       -0.104      866.430
01/08/2021  04:10:00       65.262       42.639        2.625      340.914       60.483      167.531   116222.610     3658.227    28066.621        7.699        7.397       77.956      231.378        8.809      331.748       -0.034      866.442
01/08/2021  04:11:00      -19.605       16.769      -14.082      374.043       59.449      168.513   139907.967     3534.236    28396.717        8.632        8.592       25.799      243.752       89.270      331.754       -0.022      866.435
01/08/2021  04:12:00        0.844       30.334        2.263      349.229       66.217      172.242   121961.137     4384.669    29667.293        7.844        7.801       30.346      236.698       60.840      331.725       -0.071      866.452
01/08/2021  04:13:00      -35.425       35.387        0.678      271.935       65.472      131.273    73948.589     4286.597    17232.664        4.897        4.773       50.071      175.611       12.301      331.623       -0.242      866.463
01/08/2021  04:14:00      -90.993       81.684      -16.760      188.390       55.109       97.980    35490.661     3036.982     9600.096        3.167        2.406      122.279      123.917        1.027      331.426       -0.565      866.450
01/08/2021  04:15:00      -32.444      101.172      -12.542      380.235       55.100      183.313   144578.924     3036.058    33603.780        9.629        9.061      106.246      259.812        5.980      331.723       -0.075      866.394
01/08/2021  04:16:00      -55.175       99.243       -8.132      243.969       58.569      119.987    59520.636     3430.271    14396.984        4.514        3.867      113.549      164.453        2.098      331.662       -0.178      866.347
01/08/2021  04:17:00      -73.862       59.167      -28.985      324.539       56.951      158.595   105325.328     3243.419    25152.492        7.173        6.686       94.638      220.642        5.436      331.773        0.009      866.384
01/08/2021  04:18:00       31.660       42.795      -29.285      479.958       61.126      229.450   230359.722     3736.379    52647.183       14.516       14.337       53.234      326.278       37.567      331.887        0.200      866.440
01/08/2021  04:19:00       -7.646       74.248       -8.828      367.541       60.000      174.859   135086.743     3599.999    30575.675        8.742        8.463       74.640      247.410       10.987      331.816        0.080      866.448
01/08/2021  04:20:00      -18.309       81.394       -4.489      290.322       56.437      128.329    84286.750     3185.168    16468.304        5.544        5.197       83.427      187.299        5.040      331.850        0.133      866.452
01/08/2021  04:21:00        4.353       77.234       -5.891      309.956       57.381      147.982    96072.896     3292.629    21898.776        6.362        6.063       77.357      207.155        7.171      331.902        0.221      866.421
01/08/2021  04:22:00       -2.460       50.724       13.891       41.611       58.288       33.966     1731.473     3397.475     1153.690        0.453        0.314       50.784       35.690        0.494      331.917        0.242      866.417
01/08/2021  04:23:00       58.467       52.191       -1.445      330.014       58.452      161.338   108909.343     3416.688    26029.807        7.222        6.918       78.373      224.315        8.192      332.032        0.434      866.470
01/08/2021  04:24:00       38.233       42.580      -18.703      378.322       52.726      185.244   143127.803     2780.031    34315.290        9.189        9.011       57.227      260.806       20.770      331.911        0.237      866.537
01/08/2021  04:25:00       28.445       26.237        9.838      168.514       55.553       84.899    28397.136     3086.094     7207.903        2.013        1.935       38.698      110.914        8.215      331.802        0.054      866.576
01/08/2021  04:26:00       92.265       65.943      -12.839      402.160       58.141      190.130   161732.687     3380.373    36149.395       10.710       10.063      113.408      271.566        5.734      332.028        0.430      866.586
01/08/2021  04:27:00       29.001       62.799        9.210      157.878       58.492       82.408    24925.332     3421.338     6791.031        2.000        1.757       69.172      104.795        2.295      331.815        0.074      866.611
01/08/2021  04:28:00       69.356       55.345       -1.643      286.798       52.816      142.355    82253.088     2789.563    20264.996        5.657        5.265       88.732      197.274        4.943      331.858        0.147      866.626
01/08/2021  04:29:00      100.210       59.454      -26.097      310.416       39.468      149.404    96358.017     1557.723    22321.418        6.722        6.012      116.519      212.811        3.336      331.819        0.085      866.655
01/08/2021  04:30:00       68.038       49.510        4.510      293.128       55.860      144.774    85923.820     3120.355    20959.578        5.853        5.500       84.146      201.113        5.712      331.822        0.086      866.698
01/08/2021  04:31:00      113.662       33.108      -21.880      465.903       55.672      226.573   217065.970     3099.324    51335.332       14.294       13.575      118.386      322.271        7.410      332.165        0.658      866.703
01/08/2021  04:32:00      140.664        0.303      -41.155      483.120       45.279      230.773   233404.600     2050.193    53256.072       15.504       14.436      140.664      331.438        5.552      331.741       -0.040      866.705
01/08/2021  04:33:00      118.399        7.743      -21.443      335.113       59.055      155.528   112300.630     3487.473    24188.956        7.723        6.999      118.651      223.644        3.553      331.653       -0.190      866.716
01/08/2021  04:34:00       81.820       24.514      -14.839      307.820       52.827      154.076    94753.354     2790.671    23739.284        6.437        6.064       85.414      213.523        6.249      331.727       -0.067      866.707
01/08/2021  04:35:00      113.433       15.395      -16.935      362.527       52.726      176.664   131425.922     2780.041    31210.043        8.937        8.271      114.473      249.201        4.739      331.869        0.168      866.717
01/08/2021  04:36:00      112.635       12.031      -20.496      402.059       48.921      195.159   161651.578     2393.255    38087.138       10.765       10.107      113.276      277.275        5.992      331.901        0.221      866.752
01/08/2021  04:37:00       70.735       32.423        1.694      258.731       51.671      128.122    66941.633     2669.903    16415.349        4.602        4.301       77.812      176.995        5.174      331.815        0.076      866.780
01/08/2021  04:38:00       61.231       45.324       -3.189      350.574       54.868      172.263   122902.261     3010.497    29674.678        8.067        7.779       76.180      242.041       10.095      331.933        0.273      866.794
01/08/2021  04:39:00       89.871       74.428       -7.137      232.642       56.541      112.231    54122.151     3196.931    12595.821        4.178        3.496      116.689      154.922        1.763      332.206        0.722      866.804
01/08/2021  04:40:00       37.179       16.795      -10.360      229.474       50.158      110.186    52658.478     2515.862    12140.875        3.453        3.366       40.796      153.533       14.163      332.157        0.639      866.813
01/08/2021  04:41:00       62.138       49.701      -16.999      402.193       47.817      196.294   161759.527     2286.446    38531.520       10.456       10.129       79.569      278.366       12.239      332.214        0.737      866.848
01/08/2021  04:42:00        8.819       48.874       -1.784      268.242       49.181      126.025    71953.894     2418.725    15882.361        4.634        4.513       49.663      179.263       13.029      331.920        0.248      866.856
01/08/2021  04:43:00      -24.695       43.284       -6.631      211.535       50.251       96.814    44746.975     2525.191     9372.908        2.957        2.832       49.833      136.348        7.486      331.882        0.187      866.880
01/08/2021  04:44:00      -14.208       50.581       -1.151      234.129       58.650      113.208    54816.565     3439.879    12816.135        3.690        3.554       52.539      154.896        8.692      331.946        0.291      866.879
01/08/2021  04:45:00       20.185       44.809        5.192      256.464       46.149      124.023    65773.544     2129.705    15381.797        4.285        4.164       49.145      173.986       12.533      332.129        0.594      866.859
01/08/2021  04:46:00       19.868       34.528       -0.343      232.501       53.022      114.878    54056.768     2811.325    13196.909        3.581        3.503       39.836      156.074       15.350      332.001        0.381      866.898
01/08/2021  04:47:00       19.002       22.866      -11.865      343.907       55.197      168.883   118272.298     3046.685    28521.604        7.540        7.492       29.731      237.799       63.975      331.982        0.353      866.908
01/08/2021  04:48:00       33.696       12.423       -9.773      258.320       43.629      128.293    66729.170     1903.505    16459.205        4.322        4.255       35.913      177.873       24.532      331.900        0.216      866.912
01/08/2021  04:49:00       35.570       31.690       -7.796      339.862       51.728      163.642   115506.062     2675.735    26778.794        7.362        7.248       47.639      232.041       23.725      332.011        0.400      866.882
01/08/2021  04:50:00       -8.673       36.036       -2.810      177.161       47.001       87.536    31386.009     2209.096     7662.478        2.131        2.063       37.065      118.965       10.302      331.925        0.256      866.864
01/08/2021  04:51:00       56.248       28.199      -20.792      340.251       41.935      163.012   115770.713     1758.515    26572.984        7.422        7.205       62.921      232.468       13.650      332.220        0.745      866.849
01/08/2021  04:52:00        8.447       37.844      -22.479      359.771       51.023      171.431   129435.329     2603.332    29388.635        8.168        8.071       38.776      244.816       39.862      332.064        0.488      866.854
01/08/2021  04:53:00       12.776       23.093       -4.544      253.155       50.771      117.602    64087.531     2577.669    13830.120        4.059        4.025       26.392      167.444       40.253      331.952        0.302      866.839
01/08/2021  04:54:00       34.110        4.709        6.164      174.784       44.765       87.663    30549.292     2003.942     7684.739        2.072        2.012       34.434      117.085       11.562      332.161        0.646      866.827
01/08/2021  04:55:00       51.737        0.112      -15.166      265.530       43.648      128.057    70506.131     1905.151    16398.659        4.584        4.440       51.738      180.705       12.199      332.165        0.653      866.824
01/08/2021  04:56:00       48.878       14.845      -16.075      292.781       49.115      140.332    85720.906     2412.295    19692.997        5.532        5.391       51.083      198.569       15.110      332.102        0.548      866.840
01/08/2021  04:57:00       32.640      -21.326       -2.090      231.793       41.753      110.427    53728.116     1743.326    12194.145        3.458        3.383       38.989      156.629       16.138      332.111        0.564      866.862
01/08/2021  04:58:00       97.731       18.716      -29.592      347.545       45.508      161.932   120787.397     2070.996    26221.936        7.990        7.454       99.507      234.520        5.555      331.958        0.314      866.875
01/08/2021  04:59:00       53.700       35.683        0.834      241.319       52.685      119.481    58234.690     2775.686    14275.598        3.971        3.764       64.475      164.731        6.528      331.970        0.330      866.911
01/08/2021  05:00:00       41.032        2.133       -1.624      245.896       48.470      114.720    60464.804     2349.370    13160.725        3.882        3.799       41.088      163.789       15.891      332.007        0.393      866.928
01/08/2021  05:01:00       72.202       -6.590      -16.168      335.972       46.565      163.540   112877.216     2168.317    26745.277        7.362        7.090       72.502      231.308       10.178      332.267        0.822      866.942
01/08/2021  05:02:00       34.595        2.025       -5.040      245.538       41.741      119.952    60289.076     1742.298    14388.463        3.881        3.821       34.655      166.942       23.206      332.277        0.838      866.951
01/08/2021  05:03:00        0.465       -7.294       -9.127      164.450       33.565       77.033    27043.642     1126.581     5934.141        1.711        1.705        7.309      109.489      224.388      332.180        0.675      866.962
01/08/2021  05:04:00        0.624       18.290        5.719      172.899       44.780       84.741    29894.034     2005.266     7180.980        1.972        1.954       18.300      115.536       39.858      332.207        0.721      866.994
01/08/2021  05:05:00      -11.271      -24.573       -2.289      155.531       39.881       76.828    24190.043     1590.530     5902.602        1.620        1.584       27.035      102.560       14.391      332.030        0.428      867.031
01/08/2021  05:06:00      -20.008      -11.641       -6.047      113.814       34.447       53.045    12953.548     1186.599     2813.757        0.876        0.848       23.149       74.084       10.243      332.433        1.092      867.025
01/08/2021  05:07:00        2.340       13.287       -7.607      211.844       32.920      101.200    44878.084     1083.700    10241.499        2.821        2.810       13.491      142.799      112.036      332.402        1.043      867.014
01/08/2021  05:08:00      117.001     -146.859      -40.362      178.159       74.288       78.230    31740.756     5518.676     6119.877        4.012        2.169      187.768      111.649        0.354      332.136        0.602      867.001
01/08/2021  05:09:00      170.947     -170.201      -61.157       57.140       89.135       36.436     3265.024     7945.009     1327.586        3.723        0.627      241.228       12.382        0.003      331.819        0.076      866.949
01/08/2021  05:10:00      137.279     -163.653      -38.859       53.803       84.016       40.046     2894.720     7058.671     1603.646        2.934        0.578      213.606       24.900        0.014      331.728       -0.073      866.914
01/08/2021  05:11:00      178.247     -168.214      -46.822      213.872       62.606      105.635    45741.334     3919.549    11158.804        6.153        3.041      245.087      144.142        0.346      331.805        0.056      866.854
01/08/2021  05:12:00      114.104     -186.446      -15.958       47.205       68.931       42.598     2228.301     4751.462     1814.595        2.841        0.440      218.591       36.727        0.028      331.750       -0.036      866.821
01/08/2021  05:13:00      142.156     -159.045      -31.157       58.573       61.618       39.499     3430.851     3796.767     1560.157        2.763        0.439      213.316       35.039        0.027      331.721       -0.084      866.788
01/08/2021  05:14:00       72.576     -165.543      -24.917       59.144       63.723       34.062     3497.957     4060.589     1160.200        2.100        0.436      180.753       25.907        0.021      331.773        0.004      866.743
01/08/2021  05:15:00      103.798     -156.880      -24.398       46.276       56.091       34.287     2141.442     3146.207     1175.605        2.122        0.323      188.111       27.490        0.021      331.794        0.037      866.780
01/08/2021  05:16:00      147.752     -128.071      -30.772       52.526       78.422       33.380     2759.012     6149.974     1114.201        2.460        0.501      195.532       31.684        0.026      331.674       -0.161      866.756
01/08/2021  05:17:00       87.230     -109.094      -16.179       40.739       54.972       34.495     1659.659     3021.893     1189.896        1.282        0.294      139.680       29.194        0.044      331.703       -0.110      866.725
01/08/2021  05:18:00       73.603     -116.987      -14.061       47.171       49.990       33.372     2225.110     2499.033     1113.687        1.257        0.292      138.215       27.502        0.040      331.751       -0.033      866.698
01/08/2021  05:19:00      116.742      -89.483      -28.484       50.797       58.772       36.403     2580.334     3454.129     1325.184        1.490        0.368      147.091       31.412        0.046      331.743       -0.045      866.584
01/08/2021  05:20:00      119.184      -94.857      -50.032      170.001       91.217       84.383    28900.483     8320.605     7120.441        3.501        2.217      152.324      109.391        0.516      331.710       -0.100      866.332
01/08/2021  05:21:00      121.670       35.236      -19.094       86.952      103.086       55.095     7560.577    10626.675     3035.485        1.881        1.061      126.669       39.550        0.097      331.543       -0.375      865.962
01/08/2021  05:22:00      139.625       31.120       -5.166      121.925      126.746       86.652    14865.709    16064.442     7508.619        2.946        1.922      143.051       71.077        0.247      331.394       -0.621      865.454
01/08/2021  05:23:00      199.662      -51.578      -14.369      121.814      127.224       70.056    14838.596    16186.052     4907.819        3.932        1.797      206.217       73.888        0.128      331.409       -0.597      865.009
01/08/2021  05:24:00      182.487     -104.750      -31.919       92.792       87.938       53.387     8610.405     7733.037     2850.190        3.224        0.960      210.414       55.059        0.068      331.509       -0.433      864.925
01/08/2021  05:25:00       42.693     -106.272      -14.433      183.317       88.465       88.345    33605.156     7826.083     7804.792        3.127        2.462      114.527      112.188        0.960      331.777        0.012      865.124
01/08/2021  05:26:00       36.588      -41.609        7.837       59.432       69.355       37.572     3532.138     4810.178     1411.638        0.644        0.488       55.407       30.834        0.310      331.964        0.319      865.417
01/08/2021  05:27:00       25.758       26.593        9.351      178.450       80.052       89.911    31844.533     6408.321     8084.054        2.389        2.317       37.022      117.625       10.094      331.893        0.203      865.580
01/08/2021  05:28:00       -8.385       12.075       -4.555      237.652       77.437      117.792    56478.615     5996.553    13875.049        3.828        3.818       14.701      161.350      120.467      331.944        0.288      865.690
01/08/2021  05:29:00      -19.827      -19.946       -5.164       50.509       50.631       28.076     2551.182     2563.539      788.249        0.336        0.295       28.124       32.721        1.354      331.919        0.243      865.802
01/08/2021  05:30:00       -7.579       13.121        1.698       55.004       61.050       36.330     3025.468     3727.159     1319.888        0.415        0.404       15.153       33.108        4.774      331.993        0.366      865.766
01/08/2021  05:31:00       -0.401        6.681       18.732       54.682       50.555       32.533     2990.160     2555.760     1058.396        0.350        0.330        6.693       37.711       31.750      331.828        0.094      865.725
01/08/2021  05:32:00       39.033       20.804       11.227       44.915       74.018       33.662     2017.314     5478.693     1133.122        0.535        0.431       44.231       45.021        1.036      331.865        0.155      865.697
01/08/2021  05:33:00       60.154      119.020        9.815       55.813       54.699       33.633     3115.100     2991.940     1131.173        1.256        0.362      133.357       30.475        0.052      331.752       -0.031      865.617
01/08/2021  05:34:00      -30.018      133.270       12.738       51.748       54.835       32.016     2677.858     3006.917     1025.005        1.277        0.335      136.609       21.645        0.025      331.816        0.075      865.662
01/08/2021  05:35:00      -55.270      173.546        5.391       40.683       51.580       33.156     1655.076     2660.521     1099.341        1.931        0.271      182.135       34.768        0.036      331.773        0.004      865.754
01/08/2021  05:36:00       37.353      162.901      -12.418      271.954       55.375      127.666    73958.823     3066.429    16298.559        6.069        4.666      167.128      180.362        1.165      331.889        0.197      865.831
01/08/2021  05:37:00       80.087      154.677       -8.669       58.875       70.248       38.094     3466.261     4934.816     1451.131        2.013        0.493      174.180       22.022        0.016      331.747       -0.040      865.926
01/08/2021  05:38:00      102.267        1.869      -31.495      236.079       86.339      119.297    55733.237     7454.470    14231.805        4.442        3.871      102.284      161.375        2.489      331.739       -0.050      866.077
01/08/2021  05:39:00       99.110       -8.172      -13.219      158.865       60.070       77.119    25238.082     3608.444     5947.363        2.242        1.740       99.446       97.733        0.966      331.561       -0.344      866.203
01/08/2021  05:40:00      125.658       -6.843        9.096       54.685       67.008       39.071     2990.440     4490.045     1526.557        1.246        0.450      125.844       43.029        0.117      331.510       -0.429      866.133
01/08/2021  05:41:00      127.804       14.817        4.742       96.494       73.496       50.856     9311.088     5401.623     2586.305        1.693        0.865      128.660       40.449        0.099      331.520       -0.412      865.961
01/08/2021  05:42:00       75.059       11.754       -2.490       64.772       67.389       45.570     4195.381     4541.296     2076.666        0.829        0.541       75.973       34.670        0.208      331.611       -0.262      865.861
01/08/2021  05:43:00       87.028       13.026      -13.780      148.819       77.415       78.710    22146.975     5993.142     6195.216        2.113        1.717       87.997       95.402        1.175      331.739       -0.051      865.818
01/08/2021  05:44:00       14.140       89.342        4.550       60.433       62.235       34.912     3652.119     3873.154     1218.859        0.847        0.437       90.454       41.551        0.211      331.566       -0.337      865.824
01/08/2021  05:45:00      -36.015       73.892       13.543       40.322       65.585       35.914     1625.833     4301.404     1289.839        0.708        0.361       82.202       46.689        0.323      331.635       -0.224      865.863
01/08/2021  05:46:00        1.050       45.148       16.600       40.293       54.869       36.620     1623.489     3010.573     1341.047        0.414        0.299       45.160       40.176        0.791      331.650       -0.198      865.984
01/08/2021  05:47:00      -28.958       24.739        2.253      143.819       80.029       73.452    20683.793     6404.661     5395.198        1.696        1.624       38.087       76.657        4.051      331.707       -0.104      866.061
01/08/2021  05:48:00      -98.092      141.342        7.090       38.408       56.738       31.941     1475.138     3219.242     1020.204        1.768        0.286      172.045       41.610        0.058      331.668       -0.168      865.970
01/08/2021  05:49:00      -36.386      147.727        5.105      127.693       68.600       65.397    16305.487     4705.900     4276.808        2.423        1.264      152.142       79.707        0.274      331.823        0.087      865.848
01/08/2021  05:50:00      -91.365       66.308      -12.145       37.315       63.172       36.761     1392.386     3990.685     1351.348        0.981        0.337      112.891       40.509        0.129      331.731       -0.063      865.812
01/08/2021  05:51:00      -92.787       61.636        6.037       39.458       67.522       35.732     1556.949     4559.242     1276.804        0.992        0.370      111.394       42.392        0.145      331.681       -0.148      865.766
01/08/2021  05:52:00      -70.369       78.487       -1.057      191.116       50.609       92.185    36525.356     2561.259     8497.987        2.934        2.379      105.413      123.915        1.382      331.690       -0.132      865.718
01/08/2021  05:53:00      -59.760       75.081        6.224       47.588       61.269       37.230     2264.578     3753.898     1386.083        0.832        0.370       95.960       46.167        0.231      331.753       -0.028      865.669
01/08/2021  05:54:00      -70.286       92.404        4.548       42.908       54.861       32.309     1841.088     3009.687     1043.859        0.970        0.295      116.098       37.953        0.107      331.781        0.018      865.606
01/08/2021  05:55:00      -83.220      109.891       -8.202      179.516       63.718       90.826    32226.028     4059.956     8249.373        3.179        2.227      137.846      115.863        0.706      331.874        0.171      865.604
01/08/2021  05:56:00      -37.618       37.472      -23.787      254.399       76.461      127.827    64718.737     5846.358    16339.763        4.513        4.345       53.097      166.417        9.823      331.843        0.121      865.637
01/08/2021  05:57:00       42.520      -28.357        4.559       49.453       64.746       36.952     2445.571     4192.091     1365.442        0.532        0.400       51.108       44.038        0.742      331.919        0.245      865.616
01/08/2021  05:58:00       13.680      -13.243        3.398       38.577       53.804       32.897     1488.188     2894.884     1082.233        0.292        0.273       19.040       39.647        4.336      331.918        0.244      865.572
01/08/2021  05:59:00       29.855       25.346        8.713       43.021       53.832       34.319     1850.810     2897.863     1177.762        0.377        0.296       39.163       39.502        1.017      331.897        0.210      865.550
01/08/2021  06:00:00       15.564       21.479       12.759       53.338       53.449       34.060     2844.943     2856.800     1160.074        0.386        0.343       26.525       39.796        2.251      331.891        0.202      865.554
01/08/2021  06:01:00      -91.313       50.760       -7.062      168.900       57.056       86.446    28527.076     3255.364     7472.981        2.510        1.963      104.473      108.281        1.074      331.805        0.058      865.528
01/08/2021  06:02:00     -132.698       46.688       -2.139      186.439       56.456       87.856    34759.489     3187.323     7718.605        3.272        2.283      140.671      109.705        0.608      331.777        0.013      865.543
01/08/2021  06:03:00      -69.682       66.072        2.762      221.897       71.721      110.958    49238.377     5143.924    12311.574        3.795        3.335       96.026      140.026        2.126      331.766       -0.006      865.596
01/08/2021  06:04:00     -104.878       15.597        4.714       54.418       62.001       39.412     2961.353     3844.181     1553.344        0.981        0.418      106.032       40.571        0.146      331.694       -0.125      865.636
01/08/2021  06:05:00      -45.221       46.715        8.836      208.421       80.899       98.493    43439.433     6544.572     9700.890        3.198        2.984       65.017      119.186        3.360      331.679       -0.149      865.683
01/08/2021  06:06:00     -139.431       83.211       -6.855       92.318       66.475       42.008     8522.522     4418.892     1764.649        2.056        0.735      162.373       43.016        0.070      331.555       -0.357      865.695
01/08/2021  06:07:00       13.955       31.281        0.057      371.523       60.681      170.354   138029.696     3682.196    29020.546        8.592        8.537       34.253      243.653       50.600      331.713       -0.090      865.700
01/08/2021  06:08:00      -55.240       51.981        6.658      114.067       63.096       33.525    13011.277     3981.132     1123.952        1.195        0.906       75.852       35.456        0.219      331.641       -0.214      865.701
01/08/2021  06:09:00      -41.261       51.167        4.668      333.306       62.688      153.548   111092.857     3929.729    23577.047        7.144        6.930       65.731      215.491       10.748      331.656       -0.186      865.676
01/08/2021  06:10:00      -25.739       49.951      -13.018      379.120       71.116      183.396   143731.653     5057.510    33634.009        9.284        9.121       56.192      255.859       20.733      331.796        0.047      865.604
01/08/2021  06:11:00      -80.125       44.658        0.166      189.421       64.884       81.619    35880.257     4209.896     6661.608        2.757        2.338       91.729      105.086        1.312      331.637       -0.216      865.546
01/08/2021  06:12:00     -138.510       60.523       12.118       71.203       77.765       46.425     5069.797     6047.385     2155.241        1.813        0.664      151.156       45.847        0.092      331.532       -0.394      865.529
01/08/2021  06:13:00      -42.192       12.673        2.110      220.099       67.057      108.539    48443.532     4496.590    11780.616        3.332        3.236       44.054      127.164        8.332      331.641       -0.212      865.541
01/08/2021  06:14:00       23.534       29.368       -3.404      340.249       75.805      172.668   115769.274     5746.403    29814.168        7.635        7.566       37.634      233.889       38.624      331.768        0.000      865.563
01/08/2021  06:15:00      -18.473       31.004       -9.864      360.998       60.630      172.922   130319.292     3675.950    29901.911        8.261        8.195       36.090      242.152       45.020      331.902        0.222      865.565
01/08/2021  06:16:00       14.807       42.664       -8.462      381.026       63.737      184.553   145180.661     4062.352    34059.689        9.267        9.165       45.160      260.285       33.219      331.936        0.278      865.531
01/08/2021  06:17:00       -7.213       51.864      -17.693      381.119       52.362      180.738   145251.828     2741.765    32666.181        9.182        9.033       52.363      257.563       24.194      331.893        0.208      865.539
01/08/2021  06:18:00      -90.018       37.360      -17.067      344.268       62.531      164.033   118520.577     3910.178    26906.985        7.953        7.467       97.463      229.081        5.525      331.773        0.008      865.568
01/08/2021  06:19:00        0.432       12.759      -15.263      420.546       77.377      184.951   176859.020     5987.135    34207.026       10.868       10.853       12.767      266.295      435.087      331.808        0.069      865.602
01/08/2021  06:20:00     -141.901      118.173      -37.911      374.879       68.171      183.605   140534.592     4647.309    33710.950       10.718        8.945      184.664      253.076        1.878      331.673       -0.158      865.642
01/08/2021  06:21:00     -101.775       50.189      -22.884      290.329       74.090      141.514    84291.073     5489.355    20026.353        6.158        5.490      113.478      191.358        2.844      331.644       -0.207      865.647
01/08/2021  06:22:00       -6.315       37.237       -8.321      384.249       63.103      183.193   147647.038     3982.037    33559.723        9.330        9.259       37.769      259.287       47.130      331.824        0.094      865.591
01/08/2021  06:23:00      119.951       22.636      -24.932      484.278       52.858      231.289   234525.155     2793.986    53494.540       15.311       14.541      122.068      331.633        7.381      332.059        0.483      865.542
01/08/2021  06:24:00       64.694       11.120      -14.673      370.325       52.072      173.691   137140.665     2711.503    30168.631        8.724        8.501       65.643      249.175       14.409      332.072        0.503      865.623
01/08/2021  06:25:00       62.258       51.568       -1.939      357.447       51.474      169.615   127768.515     2649.584    28769.149        8.283        7.959       80.841      241.606        8.932      331.862        0.154      865.757
01/08/2021  06:26:00      124.739      108.305      -20.085      441.936       58.354      207.574   195307.187     3405.245    43087.139       13.470       12.090      165.196      298.490        3.265      331.963        0.323      865.759
01/08/2021  06:27:00       96.826      135.623       -8.926      180.003       90.137       83.366    32401.111     8124.606     6949.869        3.765        2.374      166.640      109.620        0.433      331.775        0.008      865.693
01/08/2021  06:28:00      104.200       92.731      -32.489      515.115       72.976      250.577   265343.486     5325.450    62788.673       17.692       16.673      139.487      355.237        6.486      332.300        0.881      865.664
01/08/2021  06:29:00       88.033       44.423      -10.298      414.191       56.851      201.367   171554.516     3232.002    40548.757       11.254       10.767       98.606      284.089        8.300      332.189        0.694      865.669
01/08/2021  06:30:00       45.738       11.834       11.670      294.241       57.974      143.529    86577.859     3361.020    20600.689        5.643        5.527       47.244      191.579       16.444      331.965        0.324      865.681
01/08/2021  06:31:00      -13.479       49.386       -0.658      381.607       89.945      180.440   145624.213     8090.049    32558.459        9.441        9.314       51.192      243.510       22.627      331.865        0.161      865.627
01/08/2021  06:32:00      -88.008       90.807      -24.797      432.984       56.506      208.794   187475.032     3192.976    43594.845       12.539       11.713      126.457      294.537        5.425      331.966        0.330      865.525
01/08/2021  06:33:00      -98.073       62.642      -17.891      240.112       59.363      118.679    57653.742     3523.932    14084.638        4.455        3.763      116.372      161.784        1.933      331.890        0.199      865.497
01/08/2021  06:34:00      -68.449       43.835      -16.231      377.387       67.114      182.431   142420.924     4504.244    33281.204        9.350        9.010       81.282      254.388        9.795      331.971        0.333      865.508
01/08/2021  06:35:00      -84.522       33.475       -9.553      354.417       70.164      170.908   125611.601     4923.012    29209.484        8.402        7.987       90.910      232.694        6.552      331.857        0.146      865.542
01/08/2021  06:36:00      -26.625       29.508      -29.905      467.403       63.016      215.918   218465.736     3971.050    46620.592       13.571       13.453       39.744      307.704       59.940      331.947        0.298      865.641
01/08/2021  06:37:00       78.936       87.503       -1.807      182.032       75.383       91.997    33135.614     5682.638     8463.519        3.058        2.364      117.846      117.993        1.003      331.755       -0.023      865.647
01/08/2021  06:38:00      161.764       96.886      -24.791      287.375       82.559      144.133    82584.328     6815.985    20774.336        7.315        5.509      188.559      194.982        1.069      331.886        0.192      865.583
01/08/2021  06:39:00      179.995       35.218      -45.743      526.531       80.419      252.120   277234.608     6467.154    63564.294       19.143       17.363      183.408      360.136        3.856      332.042        0.456      865.513
01/08/2021  06:40:00       61.832       48.403       -0.360      273.001       65.527      130.535    74529.655     4293.805    17039.486        5.099        4.793       78.524      182.019        5.373      331.750       -0.031      865.512
01/08/2021  06:41:00      -29.776       63.847      -15.275      329.663       57.522      162.077   108678.019     3308.825    26269.075        7.170        6.913       70.449      223.746       10.087      331.844        0.125      865.587
01/08/2021  06:42:00      -47.622       69.364      -28.167      393.923       58.004      193.877   155174.998     3364.408    37588.101       10.196        9.806       84.138      271.439       10.408      331.857        0.148      865.640
01/08/2021  06:43:00       75.237       65.658      -22.574      327.612       68.393      157.040   107329.344     4677.623    24661.538        7.355        6.833       99.858      222.043        4.944      332.133        0.600      865.576
01/08/2021  06:44:00      120.481       62.690      -33.953      464.894       72.656      225.534   216126.469     5278.824    50865.463       14.588       13.614      135.815      319.562        5.536      331.975        0.346      865.486
01/08/2021  06:45:00      100.507       23.206       -9.315      351.417       61.671      174.070   123493.880     3803.345    30300.195        8.413        7.880      103.151      242.068        5.507      331.961        0.318      865.504
01/08/2021  06:46:00      133.477       86.483      -15.503      433.107       58.023      213.875   187581.242     3366.698    45742.420       13.106       11.835      159.045      300.009        3.558      332.067        0.494      865.526
01/08/2021  06:47:00       33.070       83.794       -5.555      314.583       46.294      150.381    98962.592     2143.099    22614.400        6.591        6.186       90.083      213.200        5.601      331.906        0.226      865.552
01/08/2021  06:48:00       42.741        6.904       -1.851      232.715       60.242      113.743    54156.296     3629.148    12937.544        3.629        3.536       43.295      155.894       12.965      331.821        0.085      865.578
01/08/2021  06:49:00      169.773      -26.135      -36.201      279.777       68.661      129.147    78275.035     4714.265    16678.890        6.522        4.983      171.773      183.816        1.145      331.990        0.363      865.569
01/08/2021  06:50:00      123.028       23.564      -28.836      327.748       83.385      160.446   107419.031     6953.106    25742.886        7.829        7.006      125.264      221.855        3.137      331.793        0.041      865.467
01/08/2021  06:51:00      133.945       36.766      -22.574      439.983       57.746      210.736   193585.216     3334.612    44409.604       13.052       12.066      138.899      300.709        4.687      331.947        0.297      865.406
01/08/2021  06:52:00      190.362       15.605      -24.744      354.525       67.348      169.270   125687.740     4535.763    28652.475        9.795        7.944      191.001      239.632        1.574      331.946        0.293      865.408
01/08/2021  06:53:00      110.397       73.088        0.270      237.363       57.689      111.129    56341.174     3328.016    12349.684        4.476        3.601      132.399      152.373        1.324      331.771        0.003      865.430
01/08/2021  06:54:00      -19.015       55.329        4.464      233.452       61.263      115.915    54500.035     3753.203    13436.314        3.755        3.584       58.506      155.991        7.109      331.704       -0.106      865.518
01/08/2021  06:55:00       68.320       48.279      -24.566      449.103       59.981      214.345   201693.926     3597.750    45943.606       12.937       12.562       83.656      304.571       13.255      331.923        0.259      865.515
01/08/2021  06:56:00      261.395        9.083      -79.556      567.507       71.150      278.087   322064.572     5062.350    77332.356       23.951       20.223      261.553      392.917        2.257      332.270        0.833      865.360
01/08/2021  06:57:00      176.946        9.745      -38.650      344.381       68.641      164.878   118598.291     4711.557    27184.678        9.166        7.525      177.215      229.735        1.681      331.766       -0.003      865.272
01/08/2021  06:58:00      155.472       16.946      -11.103      356.993       70.026      174.591   127444.025     4903.601    30481.893        9.367        8.141      156.393      244.328        2.441      331.868        0.165      865.303
01/08/2021  06:59:00      167.072       47.386      -26.675      479.990       46.691      225.285   230390.677     2180.034    50753.228       15.704       14.166      173.662      326.169        3.528      331.834        0.112      865.322
01/08/2021  07:00:00      220.200       35.655      -43.800      554.731       59.683      266.728   307726.713     3562.070    71144.021       21.698       19.122      223.068      381.599        2.926      332.012        0.409      865.267
01/08/2021  07:01:00      148.963       49.262        3.056      403.206       72.059      192.686   162575.185     5192.542    37127.987       11.472       10.245      156.897      273.404        3.037      331.745       -0.036      865.175
01/08/2021  07:02:00       61.264       45.271        8.475      260.376       59.810      128.311    67795.485     3577.220    16463.714        4.684        4.392       76.176      175.524        5.309      331.651       -0.194      865.237
01/08/2021  07:03:00      104.754       -7.488      -10.108      338.833       54.332      167.765   114808.134     2951.960    28145.042        7.849        7.295      105.021      234.077        4.968      331.884        0.190      865.320
01/08/2021  07:04:00      178.632      -73.536      -40.839      477.145       55.342      231.754   227667.253     3062.745    53709.854       16.165       14.222      193.176      329.299        2.906      332.258        0.813      865.324
01/08/2021  07:05:00      150.826      -99.347      -35.241      401.858       59.431      191.985   161489.476     3532.050    36858.276       11.783       10.094      180.606      273.359        2.291      332.238        0.776      865.284
01/08/2021  07:06:00       36.033      -20.581       -5.917      239.475       51.619      117.020    57348.078     2664.502    13693.740        3.772        3.685       41.497      161.186       15.088      332.210        0.727      865.252
01/08/2021  07:07:00       22.162        9.168        1.360      249.051       64.288      121.801    62026.469     4132.890    14835.557        4.077        4.050       23.984      168.963       49.630      332.379        1.004      865.221
01/08/2021  07:08:00       74.170       75.206       -9.871      389.968       50.558      186.200   152075.194     2556.155    34670.302       10.024        9.465      105.627      265.728        6.329      332.349        0.958      865.190
01/08/2021  07:09:00       91.074       91.543      -31.105      452.162       52.582      217.372   204450.336     2764.814    47250.682       13.600       12.723      129.130      309.757        5.754      332.223        0.753      865.180
01/08/2021  07:10:00       90.328       68.469      -20.587      436.876       58.743      203.328   190860.207     3450.744    41342.366       12.441       11.783      113.345      293.833        6.720      332.207        0.727      865.176
01/08/2021  07:11:00      101.029      -32.145      -38.577      436.390       58.933      209.968   190436.455     3473.091    44086.663       12.531       11.900      106.020      299.089        7.958      332.107        0.561      865.193
01/08/2021  07:12:00       12.587       41.383        1.899      266.998       65.668      131.288    71288.045     4312.247    17236.499        4.734        4.642       43.255      180.092       17.335      332.040        0.447      865.346
01/08/2021  07:13:00      -19.084       -2.974      -13.768      452.647       65.374      206.407   204889.586     4273.762    42603.938       12.611       12.588       19.314      298.665      239.127      332.183        0.687      865.301
01/08/2021  07:14:00       -1.600       34.300       -7.783      350.593       56.403      167.515   122915.716     3181.336    28061.435        7.767        7.708       34.337      236.843       47.577      331.984        0.357      865.178
01/08/2021  07:15:00      -30.193       69.110       -3.337      366.483       53.872      174.682   134309.776     2902.167    30513.693        8.668        8.386       75.418      247.069       10.732      331.886        0.196      865.116
01/08/2021  07:16:00       41.494       65.342      -22.922      414.994       56.596      202.987   172220.087     3203.116    41203.786       11.153       10.831       77.404      286.336       13.684      332.048        0.463      865.138
01/08/2021  07:17:00       71.570       88.873        2.801      227.642       55.097      113.494    51820.946     3035.724    12880.911        4.037        3.387      114.108      152.551        1.787      332.022        0.418      865.116
01/08/2021  07:18:00       76.706       65.129        4.508      207.873       58.606      105.993    43211.117     3434.720    11234.463        3.400        2.894      100.626      139.591        1.924      332.073        0.500      865.104
01/08/2021  07:19:00       25.050      -16.859       -9.522      291.162       61.680      142.051    84775.303     3804.456    20178.590        5.486        5.438       30.195      197.242       42.672      332.216        0.737      865.163
01/08/2021  07:20:00       78.012      -23.890      -56.528      459.777       57.762      222.017   211395.022     3336.505    49291.445       13.688       13.201       81.589      315.808       14.983      332.395        1.037      865.230
01/08/2021  07:21:00       66.323       64.242      -15.116      273.962       63.254      136.736    75055.115     4001.109    18696.740        5.323        4.888       92.335      187.921        4.142      332.160        0.645      865.208
01/08/2021  07:22:00      155.773       72.304      -28.225      539.843       56.569      262.352   291430.138     3200.101    68828.585       19.680       18.173      171.736      373.642        4.734      332.420        1.081      865.154
01/08/2021  07:23:00       40.859       25.896        3.926      278.524       48.809      133.681    77575.505     2382.301    17870.692        5.007        4.891       48.374      188.128       15.125      332.123        0.584      865.183
01/08/2021  07:24:00       10.564       27.389       22.707      141.396       61.689       65.096    19992.697     3805.571     4237.519        1.470        1.402       29.356       84.251        8.237      332.057        0.472      865.243
01/08/2021  07:25:00       74.338       37.781      -12.917      433.585       61.866      216.281   187996.031     3827.400    46777.548       12.281       11.930       83.388      300.489       12.985      332.245        0.788      865.238
01/08/2021  07:26:00       56.295       -0.347      -16.460      321.805       52.305      153.098   103558.499     2735.771    23439.066        6.656        6.487       56.296      217.031       14.862      332.211        0.729      865.226
01/08/2021  07:27:00       58.941       46.276      -17.627      417.461       53.025      202.561   174273.711     2811.702    41031.126       11.198       10.906       74.937      287.556       14.725      332.285        0.853      865.193
01/08/2021  07:28:00        2.255       51.774        1.169      238.003       50.894      116.612    56645.210     2590.239    13598.257        3.775        3.642       51.823      161.766        9.744      332.055        0.470      865.161
01/08/2021  07:29:00       30.789       61.946        6.178      267.883       51.335      122.706    71761.244     2635.248    15056.863        4.712        4.473       69.175      174.509        6.364      331.985        0.357      865.182
01/08/2021  07:30:00       33.218       88.980        1.378      253.904       54.703      120.122    64467.213     2992.375    14429.277        4.544        4.094       94.978      169.537        3.186      331.984        0.354      865.186
01/08/2021  07:31:00        7.539      117.869        4.357      199.275       52.188       96.477    39710.614     2723.588     9307.843        3.285        2.587      118.110      131.594        1.241      331.977        0.341      865.146
01/08/2021  07:32:00       -3.990       89.699       -1.920      295.402       61.993      135.031    87262.443     3843.152    18233.256        5.868        5.467       89.788      192.876        4.614      332.160        0.644      865.124
01/08/2021  07:33:00       -8.115       88.334       -2.030      269.909       56.953      133.497    72850.903     3243.634    17821.518        5.088        4.696       88.706      183.894        4.298      332.130        0.593      865.103
01/08/2021  07:34:00       31.838      118.815      -10.104      345.071       53.749      164.559   119074.062     2888.951    27079.722        8.211        7.452      123.006      234.449        3.633      332.391        1.025      865.059
01/08/2021  07:35:00       42.895       72.936       -6.692      310.179       56.353      151.905    96210.903     3175.607    23075.080        6.481        6.123       84.614      212.579        6.312      332.220        0.745      865.044
01/08/2021  07:36:00       -2.918       47.882       -5.624      267.743       46.737      128.305    71686.136     2184.356    16462.282        4.631        4.517       47.971      180.135       14.100      332.066        0.490      865.054
01/08/2021  07:37:00     -109.154       33.138       -3.805       55.261       60.145       35.292     3053.747     3617.365     1245.514        1.047        0.396      114.073       38.358        0.113      331.723       -0.079      865.111
01/08/2021  07:38:00      -75.374       38.711       14.953      259.800       67.165      120.029    67495.933     4511.074    14406.931        4.689        4.321       84.734      156.400        3.407      331.706       -0.106      865.199
01/08/2021  07:39:00       23.814       14.031       -2.411      315.891       72.848      141.564    99787.086     5306.759    20040.277        6.293        6.257       27.641      199.207       51.942      331.803        0.058      865.238
01/08/2021  07:40:00     -130.918       85.183       12.647      178.439       70.219       90.455    31840.355     4930.750     8182.075        3.475        2.248      156.191      110.044        0.496      331.766       -0.007      865.226
01/08/2021  07:41:00      -49.395       93.537      -19.851      350.036       54.523      173.278   122524.897     2972.761    30025.387        8.352        7.776      105.778      239.437        5.124      331.998        0.378      865.168
01/08/2021  07:42:00      -44.410       53.902        3.359      154.592       55.557       75.932    23898.759     3086.601     5765.662        1.881        1.638       69.840       95.404        1.866      332.044        0.452      865.095
01/08/2021  07:43:00      -53.159       56.610        8.786       34.374       51.257       30.441     1181.550     2627.330      926.660        0.542        0.237       77.657       37.883        0.238      331.910        0.230      865.057
01/08/2021  07:44:00     -112.703       35.337       -4.396       68.006       47.427       33.000     4624.862     2249.335     1088.990        1.096        0.398      118.113       39.812        0.114      331.846        0.126      865.087
01/08/2021  07:45:00     -155.314       57.473        0.560      196.926       62.609       96.283    38780.013     3919.938     9270.490        3.969        2.599      165.606      121.139        0.535      331.843        0.120      865.112
01/08/2021  07:46:00     -149.139       34.378        1.623       55.300       67.864       38.399     3058.056     4605.471     1474.486        1.628        0.457      153.050       36.297        0.056      331.753       -0.028      865.108
01/08/2021  07:47:00     -120.734       58.296       -1.395       50.718       70.897       37.197     2572.267     5026.318     1383.638        1.348        0.449      134.072       37.667        0.079      331.834        0.105      865.081
01/08/2021  07:48:00     -102.443       43.293       12.284       66.570       63.523       41.537     4431.609     4035.121     1725.341        1.135        0.510      111.215       46.497        0.175      332.027        0.421      865.061
01/08/2021  07:49:00      -73.947       59.056        3.369       49.359       54.043       31.627     2436.275     2920.666     1000.272        0.766        0.318       94.635       39.899        0.178      332.146        0.620      865.063
01/08/2021  07:50:00       -2.718       18.927        3.053      142.289       55.541       75.597    20246.057     3084.783     5714.952        1.470        1.452       19.121       93.545       23.935      331.967        0.324      865.031
01/08/2021  07:51:00      -74.186       24.873       -7.355      243.067       53.756      118.364    59081.686     2889.695    14010.015        4.106        3.799       78.245      160.437        4.204      331.959        0.312      865.005
01/08/2021  07:52:00     -108.615       47.342        7.112       54.422       58.546       37.535     2961.744     3427.579     1408.898        1.094        0.390      118.484       39.983        0.114      331.958        0.308      864.976
01/08/2021  07:53:00     -128.263       65.325       -0.533      199.642       55.740       95.568    39856.994     3106.928     9133.200        3.640        2.605      143.940      127.162        0.780      332.077        0.506      864.975
01/08/2021  07:54:00     -105.250       39.557        0.388       75.154       62.054       33.008     5648.188     3850.675     1089.511        1.161        0.529      112.438       36.594        0.106      331.900        0.213      864.971
01/08/2021  07:55:00     -161.168       44.468       -4.512       48.606       60.387       42.026     2362.560     3646.630     1766.226        1.787        0.389      167.190       43.843        0.069      331.861        0.150      864.978
01/08/2021  07:56:00     -146.487       60.644       10.474       46.564       51.241       37.213     2168.190     2625.595     1384.835        1.571        0.309      158.543       40.701        0.066      331.901        0.214      865.003
01/08/2021  07:57:00     -159.839       66.678       13.669       45.461       57.456       35.812     2066.744     3301.200     1282.477        1.841        0.333      173.189       42.628        0.061      331.975        0.337      865.030
01/08/2021  07:58:00     -166.604       38.936        0.200       78.409       61.467       41.170     6147.949     3778.189     1694.960        2.044        0.581      171.093       45.315        0.070      331.970        0.327      865.046
01/08/2021  07:59:00     -220.984       80.070      -20.948       67.082       59.582       46.455     4499.975     3549.965     2158.081        3.294        0.510      235.043       42.205        0.032      331.886        0.187      865.095
01/08/2021  08:00:00     -160.393       49.789      -12.423      147.981       56.994       73.437    21898.502     3248.369     5392.993        2.944        1.527      167.943       76.995        0.210      331.834        0.103      865.121
01/08/2021  08:01:00      -61.401       61.827       -3.325      186.036       52.022       94.812    34609.239     2706.295     8989.358        2.694        2.315       87.136      124.886        2.054      331.898        0.212      865.077
01/08/2021  08:02:00     -133.712       41.451      -22.299      166.927       44.988       78.828    27864.758     2023.965     6213.834        2.809        1.805      139.989      109.213        0.609      332.068        0.491      865.067
01/08/2021  08:03:00     -124.179       51.400       -1.520      180.817       41.417       90.484    32694.821     1715.336     8187.429        3.032        2.130      134.396      119.849        0.795      332.081        0.513      865.067
01/08/2021  08:04:00      -50.941       33.486        2.218       55.136       32.320       20.708     3039.984     1044.579      428.835        0.412        0.226       60.961       17.266        0.080      332.199        0.706      865.032
01/08/2021  08:05:00        0.419       49.168        0.019       24.997       23.973       18.185      624.848      574.728      330.700        0.197        0.077       49.170        9.070        0.034      332.640        1.435      864.993
01/08/2021  08:06:00      -13.626       59.935       -4.785       32.907       35.629       17.941     1082.902     1269.404      321.872        0.324        0.134       61.464       18.861        0.094      332.685        1.509      864.997
01/08/2021  08:07:00      -16.064       -6.610       -0.876       35.778       15.957       18.455     1280.076      254.613      340.584        0.109        0.094       17.371       13.236        0.581      332.636        1.427      864.998
01/08/2021  08:08:00        3.951        0.433       -3.328       34.296        9.397       19.070     1176.223       88.311      363.672        0.083        0.081        3.975       17.989       20.483      332.492        1.191      864.979
01/08/2021  08:09:00      -59.821      -22.529       -9.991       47.657       23.019       25.730     2271.184      529.867      662.050        0.382        0.173       63.922       12.790        0.040      332.336        0.933      864.999
01/08/2021  08:10:00      -95.466      -17.043       -6.690       22.625       20.926       16.336      511.909      437.881      266.851        0.533        0.061       96.976        9.702        0.010      332.314        0.897      865.005
01/08/2021  08:11:00      -25.792       16.474       -8.438       45.021       10.927       18.393     2026.929      119.409      338.304        0.175        0.124       30.604       21.279        0.483      332.437        1.099      864.958
01/08/2021  08:12:00       29.739      -22.113      -17.659       46.098       29.578       22.238     2125.003      874.870      494.516        0.259        0.175       37.059       30.625        0.683      332.691        1.520      864.903
01/08/2021  08:13:00       51.240      -28.439      -20.434       37.733       38.073       19.708     1423.772     1449.543      388.424        0.356        0.163       58.603       14.365        0.060      332.828        1.745      864.858
01/08/2021  08:14:00      -11.424      -19.012       -4.876       31.753       17.937       11.052     1008.225      321.750      122.156        0.098        0.073       22.181       12.034        0.294      332.983        2.001      864.858
01/08/2021  08:15:00      -65.956       19.119      -13.213       33.576       22.207       17.948     1127.348      493.148      322.147        0.342        0.097       68.671       19.815        0.083      332.649        1.449      864.893
01/08/2021  08:16:00      -67.003       34.057       -9.680       41.593       16.223       18.110     1729.992      263.191      327.965        0.403        0.116       75.161       19.178        0.065      332.711        1.552      864.897
01/08/2021  08:17:00        4.493       34.799       -5.933       38.738       17.081       19.133     1500.605      291.758      366.061        0.171        0.108       35.088       22.369        0.406      333.191        2.345      864.874
01/08/2021  08:18:00       28.208       -0.731       -5.895       30.080       17.549       14.572      904.816      307.973      212.334        0.113        0.071       28.218       16.643        0.348      333.351        2.608      864.868
01/08/2021  08:19:00       -8.764       -2.047        1.588       21.740       13.662       10.602      472.609      186.638      112.399        0.043        0.039        9.000       12.771        2.014      333.326        2.566      864.853
01/08/2021  08:20:00      -28.771      -11.766       -9.885       20.961        8.177        9.068      439.373       66.866       82.233        0.083        0.029       31.084        9.694        0.097      332.985        2.004      864.817
01/08/2021  08:21:00      -19.556       16.088       -0.096        9.914       14.064        5.816       98.278      197.800       33.830        0.049        0.016       25.323        6.220        0.060      332.886        1.841      864.778
01/08/2021  08:22:00      -62.178       33.541       -5.653       15.289        6.535        6.245      233.755       42.708       39.005        0.267        0.016       70.648        5.564        0.006      332.809        1.714      864.792
01/08/2021  08:23:00     -112.995       34.095       -3.801       28.906       22.818       17.497      835.581      520.678      306.146        0.780        0.083      118.027       13.808        0.014      332.694        1.523      864.821
01/08/2021  08:24:00     -102.363       34.282        1.450       34.277       29.648       17.991     1174.882      879.033      323.687        0.702        0.119      107.952       12.338        0.013      332.697        1.528      864.795
01/08/2021  08:25:00      -76.622       -5.303      -10.836       45.348       16.376       22.085     2056.406      268.185      487.725        0.441        0.141       76.805       22.050        0.082      332.904        1.870      864.790
01/08/2021  08:26:00      -90.127      -23.697        0.380       51.994       28.065       28.031     2703.366      787.649      785.743        0.648        0.214       93.190       19.318        0.043      332.956        1.957      864.815
01/08/2021  08:27:00     -136.366      -16.234       -3.748       31.272       28.631       20.502      977.944      819.730      420.338        1.055        0.111      137.329       14.011        0.010      333.032        2.081      864.799
01/08/2021  08:28:00      -39.488       18.891        6.106       28.032       23.587       16.172      785.806      556.350      261.517        0.178        0.080       43.774       14.771        0.114      332.923        1.903      864.727
01/08/2021  08:29:00      -68.908        3.288       -3.415       35.363       15.613       13.474     1250.518      243.768      181.554        0.322        0.084       68.987       13.786        0.040      332.869        1.812      864.701
01/08/2021  08:30:00     -100.196      -29.142        2.197       46.582       29.772       23.780     2169.868      886.392      565.486        0.726        0.181      104.348       25.463        0.060      332.957        1.957      864.765
01/08/2021  08:31:00      -40.153       -1.731        6.823       63.164       37.034       35.147     3989.717     1371.530     1235.281        0.413        0.330       40.191       34.910        0.754      333.003        2.034      864.775
01/08/2021  08:32:00      -72.670      -26.344        0.238       47.120       38.720       28.501     2220.250     1499.203      812.322        0.525        0.227       77.298       19.703        0.065      333.031        2.080      864.748
01/08/2021  08:33:00      -47.692       -6.900        0.265       35.310       13.803       14.815     1246.785      190.529      219.488        0.199        0.083       48.188       15.122        0.098      333.101        2.195      864.691
01/08/2021  08:34:00       11.845       -2.495       -5.213       48.450       10.585       23.815     2347.380      112.037      567.134        0.160        0.151       12.105       33.242        7.542      333.362        2.628      864.653
01/08/2021  08:35:00       57.004     -112.028      -25.567       55.433       37.339       28.181     3072.868     1394.222      794.180        1.086        0.263      125.697       32.736        0.068      333.096        2.186      864.651
01/08/2021  08:36:00       -7.338      -61.199      -14.974       79.965       44.384       37.816     6394.388     1969.905     1430.026        0.691        0.490       61.637       20.018        0.105      333.121        2.229      864.673
01/08/2021  08:37:00      -20.894      -26.084       -5.106       56.278       36.139       30.452     3167.204     1305.998      927.321        0.327        0.270       33.421       20.825        0.388      333.151        2.277      864.703
01/08/2021  08:38:00      -73.131      -61.480       -9.141       69.716       33.248       34.187     4860.251     1105.413     1168.747        0.817        0.357       95.541       18.870        0.039      333.027        2.073      864.645
01/08/2021  08:39:00      -36.514       16.006       -3.431       69.398       53.595       33.975     4816.076     2872.375     1154.288        0.522        0.442       39.868       36.546        0.840      333.064        2.134      864.551
01/08/2021  08:40:00       -0.127       42.185       -6.673       42.756       39.771       25.327     1828.110     1581.733      641.453        0.294        0.203       42.186       22.829        0.293      333.334        2.582      864.468
01/08/2021  08:41:00      -50.967       42.709      -17.414       66.365       43.588       28.705     4404.263     1899.919      824.003        0.593        0.356       66.496       28.159        0.179      333.166        2.302      864.504
01/08/2021  08:42:00      -20.971      -14.017        4.134       77.828       49.911       42.039     6057.192     2491.105     1767.266        0.548        0.516       25.224       14.012        0.309      333.247        2.436      864.597
01/08/2021  08:43:00     -276.999      -26.700       -6.960       90.913       77.244       56.485     8265.096     5966.637     3190.601        4.745        0.871      278.283       53.597        0.037      333.001        2.026      864.691
01/08/2021  08:44:00     -235.217        1.290       -6.487       90.685       75.957       43.625     8223.756     5769.399     1903.153        3.563        0.795      235.221       41.206        0.031      332.932        1.912      864.675
01/08/2021  08:45:00      -84.287       27.913      -12.726       58.128       45.394       28.625     3378.899     2060.618      819.364        0.715        0.313       88.789       10.021        0.013      332.949        1.945      864.534
01/08/2021  08:46:00     -122.631      -10.780      -19.389      113.837       64.886       35.043    12958.832     4210.195     1228.028        1.696        0.920      123.103       26.030        0.045      333.012        2.046      864.583
01/08/2021  08:47:00     -216.069       47.515      -21.517      177.857       66.090       48.320    31633.143     4367.869     2334.829        4.386        1.917      221.232       19.475        0.008      333.058        2.123      864.574
01/08/2021  08:48:00     -255.588       61.960      -31.370       75.676       51.700       39.399     5726.815     2672.840     1552.255        4.005        0.498      262.991       22.165        0.007      333.210        2.373      864.527
01/08/2021  08:49:00     -103.945        0.732      -25.804       76.963       50.227       31.186     5923.238     2522.784      972.581        1.044        0.471      103.948       35.623        0.117      333.331        2.577      864.477
01/08/2021  08:50:00      -89.481      -13.956       -6.682       96.343       44.545       36.251     9281.956     1984.232     1314.147        1.041        0.629       90.563       18.664        0.042      333.465        2.796      864.446
01/08/2021  08:51:00     -121.367      -10.546        6.581      106.440       65.014       48.703    11329.448     4226.865     2371.999        1.640        0.896      121.825       50.442        0.171      333.508        2.868      864.522
01/08/2021  08:52:00     -113.984       32.361        9.357       98.317       53.535       46.190     9666.153     2865.981     2133.491        1.439        0.733      118.489       39.951        0.114      333.543        2.927      864.582
01/08/2021  08:53:00      -91.772       53.856      -18.821       90.416       33.865       29.077     8175.042     1146.853      845.480        1.092        0.508      106.408       15.873        0.022      333.758        3.281      864.524
01/08/2021  08:54:00       13.303        4.058      -12.767       65.983       33.774       29.644     4353.754     1140.665      878.744        0.336        0.319       13.908       37.101        7.116      333.966        3.628      864.428
01/08/2021  08:55:00       48.879      -21.658      -29.422       41.132       45.696       22.627     1691.825     2088.164      512.003        0.401        0.215       53.463       23.991        0.201      333.988        3.665      864.383
01/08/2021  08:56:00      -26.446       13.939      -14.980       70.271       22.883       32.101     4938.047      523.637     1030.450        0.380        0.325       29.894       39.292        1.728      334.143        3.922      864.406
01/08/2021  08:57:00      -58.250      -18.149      -15.932       60.764       35.882       30.459     3692.303     1287.495      927.731        0.494        0.295       61.012       24.644        0.163      333.998        3.680      864.459
01/08/2021  08:58:00      -19.625      -24.603      -15.688       64.960       24.191       33.877     4219.790      585.191     1147.629        0.359        0.298       31.471       37.577        1.426      334.200        4.016      864.467
01/08/2021  08:59:00       23.565      -25.493      -18.267       55.284       17.571       31.019     3056.301      308.729      962.188        0.293        0.216       34.716       37.446        1.163      334.649        4.761      864.381
01/08/2021  09:00:00       20.114      -13.219      -24.387       64.610       25.323       32.573     4174.406      641.248     1060.973        0.352        0.294       24.069       44.672        3.445      334.690        4.829      864.329
01/08/2021  09:01:00        4.430       27.005      -11.094       65.871       16.289       28.008     4338.931      265.338      784.459        0.313        0.269       27.366       32.136        1.379      334.622        4.716      864.336
01/08/2021  09:02:00      -71.473       32.903      -21.221       61.155       30.298       32.647     3739.874      917.975     1065.833        0.618        0.286       78.683       32.882        0.175      334.409        4.363      864.426
01/08/2021  09:03:00      -17.162       -8.951      -20.061       67.263       35.232       37.551     4524.301     1241.327     1410.053        0.397        0.359       19.356       32.220        2.771      334.543        4.585      864.529
01/08/2021  09:04:00        6.390       34.333      -19.361       58.384       19.066       27.119     3408.672      363.500      735.413        0.305        0.225       34.923       36.938        1.119      334.703        4.850      864.541
01/08/2021  09:05:00      -19.592       13.498       -5.313       48.075       16.376       27.310     2311.194      268.184      745.845        0.196        0.166       23.792       27.937        1.379      334.733        4.901      864.588
01/08/2021  09:06:00       37.351       49.074      -17.247       76.414       15.487       30.493     5839.158      239.842      929.800        0.555        0.350       61.671       38.976        0.399      334.834        5.068      864.528
01/08/2021  09:07:00       59.100       76.986      -16.713       70.128       28.089       33.747     4917.916      788.982     1138.874        0.827        0.342       97.055       37.561        0.150      334.955        5.270      864.470
01/08/2021  09:08:00       19.267       53.257      -16.828       57.766       29.603       30.052     3336.958      876.332      903.103        0.430        0.256       56.635       39.647        0.490      334.881        5.146      864.583
01/08/2021  09:09:00       13.425       18.971       -7.185       42.009       10.696       26.101     1764.780      114.402      681.237        0.158        0.128       23.240       28.449        1.498      335.010        5.359      864.696
01/08/2021  09:10:00      -16.143       12.689       -7.277       45.992       14.237       20.001     2115.269      202.700      400.043        0.160        0.136       20.533       23.985        1.365      334.976        5.304      864.761
01/08/2021  09:11:00      -32.694       13.461      -10.042       44.909       15.576       15.843     2016.841      242.624      251.007        0.193        0.126       35.357       19.586        0.307      334.836        5.073      864.806
01/08/2021  09:12:00       31.899        1.557      -11.344       51.246       23.717       27.285     2626.165      562.512      744.463        0.254        0.197       31.937       35.121        1.209      335.239        5.741      864.781
01/08/2021  09:13:00       73.604       16.436      -14.326       84.638       70.272       50.245     7163.636     4938.116     2524.546        1.026        0.731       75.417       51.726        0.470      335.310        5.859      864.693
01/08/2021  09:14:00      134.794        9.054      -24.503      116.354       90.567       62.861    13538.285     8202.456     3951.461        2.227        1.285      135.098       52.267        0.150      334.906        5.187      864.566
01/08/2021  09:15:00      116.011       19.462       -1.520      117.138       54.231       46.949    13721.330     2940.972     2204.219        1.635        0.943      117.632       53.255        0.205      334.599        4.677      864.660
01/08/2021  09:16:00       61.500       24.678       -7.185       48.862       20.328       26.224     2387.488      413.235      687.723        0.396        0.174       66.266       31.952        0.232      334.687        4.825      864.848
01/08/2021  09:17:00       84.284       22.481      -22.686       42.193       61.551       38.614     1780.232     3788.540     1491.018        0.759        0.353       87.230       34.365        0.155      334.697        4.840      864.806
01/08/2021  09:18:00       66.477      -11.648      -25.603       74.710       55.926       44.971     5581.567     3127.715     2022.397        0.797        0.537       67.490       45.007        0.445      335.038        5.406      864.666
01/08/2021  09:19:00      121.470       17.549      -41.462       89.669       68.333       40.767     8040.509     4669.443     1661.976        1.557        0.719      122.732       41.934        0.117      334.936        5.238      864.500
01/08/2021  09:20:00      185.560       68.439      -15.396       99.425       51.383       38.731     9885.237     2640.206     1500.098        2.669        0.701      197.778       44.864        0.051      334.706        4.855      864.378
01/08/2021  09:21:00      146.336      102.372      -24.627       73.664       41.286       41.883     5426.327     1704.513     1754.190        2.069        0.444      178.590       44.479        0.062      334.848        5.088      864.429
01/08/2021  09:22:00       84.227       17.671      -12.552       82.498       37.962       38.808     6805.954     1441.133     1506.039        0.866        0.488       86.061       51.726        0.361      335.077        5.470      864.452
01/08/2021  09:23:00       22.592       23.622       -7.258       64.681       39.991       32.140     4183.572     1599.305     1032.985        0.397        0.341       32.686       23.279        0.507      335.201        5.677      864.531
01/08/2021  09:24:00       -5.952      -47.031      -10.594       42.812       45.095       27.349     1832.833     2033.580      747.977        0.349        0.231       47.406       27.792        0.344      335.144        5.584      864.652
01/08/2021  09:25:00        5.653      -20.335      -20.704       56.741       59.457       33.132     3219.582     3535.143     1097.757        0.436        0.393       21.106       23.846        1.276      335.359        5.941      864.623
01/08/2021  09:26:00       90.307      -84.264      -42.765       66.423       85.900       43.174     4412.047     7378.895     1864.000        1.537        0.683      123.514       44.775        0.131      335.286        5.818      864.514
01/08/2021  09:27:00       99.240     -105.954      -44.723       59.837       51.011       28.948     3580.422     2602.148      837.963        1.505        0.351      145.172       31.948        0.048      335.160        5.609      864.452
01/08/2021  09:28:00       90.963      -50.870      -30.527       58.662       56.159       40.501     3441.226     3153.794     1640.331        1.001        0.412      104.222       38.490        0.136      335.370        5.959      864.352
01/08/2021  09:29:00       99.866      -17.054      -26.731       69.108       56.183       37.751     4775.855     3156.542     1425.163        1.017        0.468      101.312       38.815        0.147      335.263        5.781      864.357
01/08/2021  09:30:00      119.684      -26.114       -9.425       89.948       54.014       48.228     8090.693     2917.540     2325.949        1.421        0.667      122.500       51.558        0.177      335.177        5.638      864.349
01/08/2021  09:31:00      138.871      -96.073      -28.684       80.505       55.959       53.419     6481.040     3131.422     2853.592        2.090        0.623      168.864       56.933        0.114      334.997        5.339      864.303
01/08/2021  09:32:00      118.277     -135.753      -30.584       62.295       52.421       34.362     3880.686     2747.911     1180.779        2.058        0.390      180.051       37.482        0.043      335.069        5.457      864.336
01/08/2021  09:33:00      110.764      -47.415      -23.116       65.651       47.969       26.635     4310.060     2301.056      709.406        1.118        0.366      120.486       33.152        0.076      335.055        5.436      864.331
01/08/2021  09:34:00       20.971       28.617       -7.400       35.939       18.938       21.705     1291.634      358.661      471.104        0.172        0.106       35.478       24.627        0.482      335.336        5.902      864.350
01/08/2021  09:35:00       42.074       47.363      -21.177       47.658       20.725       25.132     2271.318      429.542      631.630        0.390        0.167       63.352       31.389        0.245      335.365        5.950      864.349
01/08/2021  09:36:00      -13.437       22.466        7.394       20.074       11.780        9.933      402.971      138.764       98.658        0.069        0.032       26.177        4.446        0.029      335.316        5.867      864.352
01/08/2021  09:37:00       63.091       42.322      -20.041       39.523       25.121       25.407     1562.041      631.089      645.508        0.451        0.142       75.971       25.218        0.110      335.432        6.061      864.288
01/08/2021  09:38:00       85.235        4.033      -34.065       71.719       61.363       47.639     5143.603     3765.396     2269.429        0.981        0.559       85.330       40.729        0.228      335.544        6.249      864.169
01/08/2021  09:39:00      118.383     -114.847      -39.677       64.363       88.768       38.716     4142.538     7879.831     1498.929        2.115        0.676      164.937       34.470        0.044      335.482        6.143      864.093
01/08/2021  09:40:00       88.101      -91.874       -7.864       77.576       63.012       49.675     6018.072     3970.464     2467.605        1.436        0.623      127.290       47.171        0.137      335.386        5.984      864.085
01/08/2021  09:41:00       74.401      -71.468      -28.358       55.475       55.906       27.312     3077.507     3125.500      745.965        0.920        0.347      103.166       20.880        0.041      335.577        6.304      864.169
01/08/2021  09:42:00       24.976      -84.191      -17.792       50.122       42.337       27.736     2512.198     1792.416      769.262        0.655        0.254       87.818       26.963        0.094      335.604        6.349      864.199
01/08/2021  09:43:00       35.994       39.673      -22.770       65.738       60.417       27.064     4321.545     3650.249      732.436        0.604        0.435       53.568       30.015        0.314      335.612        6.362      864.216
01/08/2021  09:44:00       90.656      -98.345      -42.995       58.499       62.429       36.065     3422.189     3897.335     1300.653        1.418        0.431      133.754       28.079        0.044      335.709        6.522      864.035
01/08/2021  09:45:00      103.254      -25.912      -28.106       74.790       55.595       47.020     5593.572     3090.827     2210.891        1.151        0.545      106.456       41.323        0.151      335.805        6.682      863.868
01/08/2021  09:46:00       67.339       22.558      -10.147       57.452       52.701       33.611     3300.735     2777.367     1129.718        0.618        0.360       71.017       33.616        0.224      335.980        6.976      863.879
01/08/2021  09:47:00       57.993      -12.571       -8.965       56.794       71.862       28.095     3225.578     5164.210      789.304        0.639        0.459       59.340       17.909        0.091      335.910        6.858      863.958
01/08/2021  09:48:00       41.418      -89.466      -25.859       48.208       28.725       23.609     2323.977      825.123      557.398        0.705        0.185       98.588       23.439        0.057      335.875        6.801      864.047
01/08/2021  09:49:00       62.549      -20.136      -15.440       54.532       39.300       29.337     2973.759     1544.466      860.680        0.497        0.269       65.710       28.842        0.193      335.875        6.801      864.144
01/08/2021  09:50:00       37.912      -37.751      -11.720       51.443       52.949       28.192     2646.390     2803.596      794.762        0.462        0.312       53.502       26.984        0.254      336.094        7.166      864.116
01/08/2021  09:51:00       42.972      -32.936      -28.337       68.485       66.464       45.557     4690.146     4417.521     2075.405        0.746        0.559       54.142       43.333        0.641      336.076        7.136      863.964
01/08/2021  09:52:00       51.360      -62.223      -11.779       50.036       53.336       34.075     2503.588     2844.756     1161.073        0.658        0.325       80.682       31.444        0.152      336.052        7.096      863.980
01/08/2021  09:53:00       56.085       14.711      -19.728       51.886       72.493       38.212     2692.175     5255.294     1460.137        0.658        0.470       57.982       34.135        0.347      336.038        7.071      863.974
01/08/2021  09:54:00       -3.833       -9.225        5.231       23.271       28.898       19.197      541.558      835.112      368.515        0.094        0.087        9.990       14.669        2.156      336.134        7.232      864.043
01/08/2021  09:55:00        7.136      -45.069      -10.897       44.846       41.556       24.645     2011.168     1726.895      607.379        0.327        0.217       45.630       23.436        0.264      336.194        7.331      864.069
01/08/2021  09:56:00       92.520      -31.324      -32.394       82.447       86.852       41.711     6797.582     7543.337     1739.800        1.333        0.804       97.679       51.869        0.282      336.044        7.080      863.919
01/08/2021  09:57:00       75.372     -131.187      -28.461       70.796       57.509       42.358     5012.054     3307.247     1794.188        1.691        0.506      151.298       39.386        0.068      336.020        7.041      863.880
01/08/2021  09:58:00       -8.913      -84.487      -31.548       56.023       41.097       28.723     3138.603     1688.941      824.989        0.693        0.283       84.956       13.666        0.026      335.953        6.930      863.980
01/08/2021  09:59:00       73.579      -58.769      -20.096       45.676       57.985       26.744     2086.278     3362.266      715.253        0.772        0.308       94.168       28.853        0.094      336.025        7.049      864.031
01/08/2021  10:00:00      -11.194       -6.399      -22.120       40.404       60.745       17.377     1632.516     3690.007      301.962        0.314        0.281       12.894       23.217        3.242      336.161        7.276      864.072
01/08/2021  10:01:00        2.415       -1.371       -0.713       22.838       22.545       17.642      521.552      508.298      311.249        0.067        0.067        2.777       13.151       22.427      336.431        7.729      864.004
01/08/2021  10:02:00       16.527      -42.294       -9.021       35.047       46.672       21.147     1228.322     2178.292      447.199        0.300        0.193       45.408       19.365        0.182      336.509        7.859      863.896
01/08/2021  10:03:00      101.369     -124.024      -33.999       48.852       68.326       30.318     2386.495     4668.386      919.174        1.739        0.399      160.180       32.733        0.042      336.236        7.399      863.885
01/08/2021  10:04:00      143.348     -111.279      -41.769       66.434       62.097       31.598     4413.489     3856.087      998.421        2.197        0.463      181.471       39.965        0.048      336.247        7.418      863.836
01/08/2021  10:05:00      142.289     -158.176      -44.442       58.818       56.360       35.680     3459.604     3176.472     1273.072        2.757        0.395      212.757       34.314        0.026      336.248        7.419      863.739
01/08/2021  10:06:00      106.833     -164.627      -30.232       47.667       33.151       31.296     2272.132     1098.960      979.454        2.189        0.218      196.254       30.365        0.024      336.253        7.429      863.764
01/08/2021  10:07:00       90.947      -94.452      -21.208       32.309       41.426       24.631     1043.892     1716.133      606.710        1.050        0.168      131.120       20.010        0.023      336.447        7.756      863.749
01/08/2021  10:08:00       62.633       -4.396      -12.269       55.663       60.561       30.085     3098.332     3667.574      905.121        0.588        0.384       62.787       37.026        0.348      336.737        8.239      863.761
01/08/2021  10:09:00      -43.519       58.012       -2.451       22.876       26.749       20.465      523.323      715.494      418.797        0.346        0.083       72.521       14.155        0.038      336.949        8.594      863.752
01/08/2021  10:10:00      -84.736       55.701      -13.020       33.231       35.504       17.979     1104.324     1260.562      323.234        0.657        0.134      101.404       12.802        0.016      336.960        8.612      863.697
01/08/2021  10:11:00      -45.536       31.537      -14.042       34.641       19.711       15.379     1199.992      388.508      236.513        0.254        0.091       55.390       14.770        0.071      336.884        8.484      863.740
01/08/2021  10:12:00      -84.530       39.999      -11.523       36.968       29.277       14.777     1366.656      857.137      218.364        0.566        0.122       93.516       13.398        0.021      336.991        8.663      863.719
01/08/2021  10:13:00      -71.564       46.122      -10.165       42.019       41.267       18.390     1765.574     1702.927      338.188        0.558        0.190       85.139       13.422        0.025      337.142        8.917      863.746
01/08/2021  10:14:00      -82.803       -7.265       -3.804       60.215       44.367       26.438     3625.865     1968.422      698.982        0.661        0.315       83.121       21.543        0.067      337.007        8.691      863.787
01/08/2021  10:15:00     -157.252     -100.523      -21.070       54.103       53.027       24.320     2927.086     2811.912      591.441        2.080        0.317      186.636       20.986        0.013      337.216        9.040      863.817
01/08/2021  10:16:00      -92.522       55.685      -10.415       72.677       74.313       34.602     5281.979     5522.407     1197.265        1.188        0.600      107.987       25.111        0.054      337.493        9.504      863.790
01/08/2021  10:17:00     -156.839       32.666       -7.516      101.009      153.223       60.611    10202.899    23477.356     3673.652        3.153        1.868      160.205       67.102        0.175      337.833       10.071      863.786
01/08/2021  10:18:00     -291.804     -118.457      -22.846      184.253      103.471       57.105    33949.067    10706.339     3260.941        7.380        2.396      314.931       72.319        0.053      337.709        9.863      863.810
01/08/2021  10:19:00     -230.296      -80.764      -26.119      154.812       77.681       55.905    23966.787     6034.330     3125.387        4.668        1.656      244.047       64.881        0.071      337.853       10.105      863.770
01/08/2021  10:20:00     -323.169      -94.393      -19.390      238.168      130.103       66.937    56723.807    16926.787     4480.586        9.591        3.907      336.672       71.508        0.045      337.940       10.252      863.777
01/08/2021  10:21:00     -351.054      -82.404      -17.061      193.283      114.316       87.982    37358.232    13068.145     7740.864        9.423        2.908      360.596       94.262        0.068      338.039       10.417      863.724
01/08/2021  10:22:00     -361.792      -19.311      -35.605      200.774      158.306       95.795    40310.136    25060.725     9176.613       10.352        3.727      362.307      104.374        0.083      338.094       10.507      863.687
01/08/2021  10:23:00     -268.509      -63.671      -22.877      247.304      178.246      119.774    61159.492    31771.554    14345.908        9.195        5.364      275.955      115.702        0.176      338.164       10.628      863.657
01/08/2021  10:24:00     -461.983      -40.134       -7.624      266.834      170.028      137.741    71200.467    28909.687    18972.472       16.706        5.954      463.723      137.196        0.088      338.129       10.568      863.601
01/08/2021  10:25:00     -383.087       -3.274       -4.945      288.836      230.978      118.898    83426.246    53350.869    14136.714       14.882        7.546      383.101      121.401        0.100      338.189       10.670      863.556
01/08/2021  10:26:00     -301.776      -17.692        2.032      302.689      166.734      110.807    91620.890    27800.367    12278.273       11.151        6.585      302.294      102.617        0.115      338.220       10.719      863.520
01/08/2021  10:27:00     -432.158      -40.391      -24.163      246.707      173.505      103.503    60864.116    30104.107    10712.795       14.531        5.084      434.041       96.506        0.049      338.215       10.711      863.520
01/08/2021  10:28:00     -599.265      -77.149      -41.098      311.561      217.759      126.883    97070.304    47418.864    16099.389       26.364        8.029      604.211      134.566        0.050      338.146       10.596      863.466
01/08/2021  10:29:00     -574.563      -90.549      -15.756      397.457      213.340      150.498   157972.284    45513.901    22649.627       28.230       11.307      581.655      169.908        0.085      338.115       10.544      863.457
01/08/2021  10:30:00     -271.100       48.510      -24.228      221.456      146.026       88.969    49042.794    21323.558     7915.527        7.734        3.914      275.405       93.660        0.116      338.205       10.696      863.461
01/08/2021  10:31:00     -312.540       30.104       -6.285      183.204      194.515       86.162    33563.552    37836.169     7423.815        8.871        3.941      313.986       89.996        0.082      338.267       10.799      863.434
01/08/2021  10:32:00     -332.131      -66.294      -13.991      252.051      137.234      104.480    63529.631    18833.069    10916.077       10.407        4.664      338.683      126.858        0.140      338.255       10.780      863.401
01/08/2021  10:33:00     -105.416       -9.112       -1.510      194.513      145.175       76.687    37835.413    21075.720     5880.949        3.798        3.240      105.809       34.236        0.105      338.272       10.808      863.362
01/08/2021  10:34:00     -237.275      -42.203       -0.322      160.206      149.038       83.207    25665.888    22212.231     6923.388        5.643        2.740      240.999       87.812        0.133      338.333       10.912      863.350
01/08/2021  10:35:00     -618.544     -159.584      -36.065      324.363      164.567      121.620   105211.314    27082.265    14791.543       27.819        7.354      638.799      140.290        0.048      338.238       10.750      863.264
01/08/2021  10:36:00     -449.276      -20.560       -7.258      288.112      218.522      126.704    83008.275    47751.753    16053.841       17.454        7.341      449.746      127.487        0.080      338.329       10.905      863.275
01/08/2021  10:37:00     -459.589      -31.268      -27.007      278.929      210.992      103.369    77801.164    44517.705    10685.188       17.294        6.650      460.651       85.387        0.034      338.320       10.888      863.328
01/08/2021  10:38:00     -413.485      -89.941      -29.923      189.088      198.229       87.139    35754.419    39294.742     7593.226       13.128        4.132      423.154       55.902        0.017      338.279       10.818      863.353
01/08/2021  10:39:00     -306.786      -29.457       -5.468      236.841      125.138       93.532    56093.746    15659.551     8748.312        8.774        4.025      308.197       96.021        0.097      338.323       10.892      863.312
01/08/2021  10:40:00     -454.572       62.357        4.778      210.100      174.773      101.993    44142.048    30545.685    10402.668       14.780        4.255      458.829      106.175        0.054      338.357       10.949      863.323
01/08/2021  10:41:00     -499.339      -39.840       -5.741      249.418      168.820      106.421    62209.365    28500.288    11325.532       17.648        5.102      500.926      112.143        0.050      338.277       10.816      863.320
01/08/2021  10:42:00     -355.140      -75.287       -7.683      250.951      149.364       94.059    62976.557    22309.558     8847.115       11.297        4.707      363.032      109.520        0.091      338.345       10.931      863.342
01/08/2021  10:43:00     -258.300       -6.933       -9.173      166.080      117.279       67.335    27582.691    13754.299     4534.060        5.635        2.294      258.393       73.671        0.081      338.425       11.065      863.326
01/08/2021  10:44:00     -262.643       21.296       20.861      170.487      157.387       88.879    29065.786    24770.519     7899.446        6.579        3.087      263.505       87.936        0.111      338.538       11.255      863.342
01/08/2021  10:45:00     -443.997      -40.763      -34.310      223.909      139.167       94.628    50135.378    19367.418     8954.383       13.920        3.923      445.865       74.772        0.028      338.429       11.071      863.417
01/08/2021  10:46:00     -434.171       -3.591      -11.388      310.919      188.326      112.733    96670.778    35466.509    12708.743       16.672        7.242      434.186      134.552        0.096      338.345       10.930      863.490
01/08/2021  10:47:00     -315.030      -64.494       -3.504      217.626      129.979      117.733    47361.057    16894.472    13861.088        9.075        3.906      321.564      122.180        0.144      338.333       10.911      863.515
01/08/2021  10:48:00     -178.006       49.942      -34.862      129.360       96.103       76.612    16734.043     9235.837     5869.432        3.361        1.592      184.879       71.090        0.148      338.366       10.966      863.483
01/08/2021  10:49:00     -249.864       30.897       11.123      232.833      126.821       80.971    54211.117    16083.646     6556.341        7.016        3.843      251.767       98.857        0.154      338.417       11.052      863.464
01/08/2021  10:50:00     -430.908      -24.239      -14.818      199.477      146.280       83.147    39791.221    21397.926     6913.486       12.728        3.405      431.589       75.119        0.030      338.243       10.757      863.462
01/08/2021  10:51:00     -356.006     -110.697      -16.156      303.215      158.929      125.806    91939.431    25258.509    15827.132       13.611        6.651      372.819      134.876        0.131      338.307       10.865      863.475
01/08/2021  10:52:00     -381.287      -31.384       -1.443      267.514      179.774      105.227    71563.949    32318.664    11072.668       13.064        5.748      382.576      101.486        0.070      338.328       10.901      863.544
01/08/2021  10:53:00     -557.110      -46.462      -15.332      358.487      247.366      151.637   128512.816    61190.086    22993.688       26.269       10.635      559.044      169.244        0.092      338.269       10.802      863.486
01/08/2021  10:54:00     -475.201      -20.001        0.840      410.312      217.721      171.670   168356.099    47402.424    29470.719       23.567       12.261      475.622      197.442        0.172      338.250       10.771      863.445
01/08/2021  10:55:00     -261.631        9.406        0.876      304.991      161.671      115.589    93019.711    26137.582    13360.777       10.050        6.626      261.800      119.794        0.209      338.315       10.880      863.444
01/08/2021  10:56:00     -255.918       38.193       -0.691      221.637      174.940       90.040    49123.027    30603.932     8107.243        7.737        4.392      258.752       96.747        0.140      338.364       10.963      863.441
01/08/2021  10:57:00     -350.836      106.560       18.621      243.616      177.307      107.792    59348.694    31437.946    11619.187       11.857        5.120      366.662       96.084        0.069      338.368       10.969      863.403
01/08/2021  10:58:00     -160.439      -19.195       -8.854      145.257       97.079       75.022    21099.684     9424.289     5628.290        3.116        1.808      161.583       77.243        0.229      338.462       11.127      863.377
01/08/2021  10:59:00     -276.607       57.205      -18.318      314.120      209.743      121.700    98671.362    43992.257    14810.790       11.876        7.874      282.460      129.925        0.212      338.361       10.958      863.384
01/08/2021  11:00:00     -406.722      -68.146      -31.655      352.254      233.313      110.258   124083.110    54435.121    12156.928       18.083        9.534      412.391      108.798        0.070      338.263       10.791      863.368
01/08/2021  11:01:00     -513.684      -45.766      -16.207      302.243      195.161      123.044    91350.699    38087.883    15139.861       20.537        7.229      515.718      137.400        0.071      338.157       10.614      863.335
01/08/2021  11:02:00     -536.958     -116.917        9.284      371.295      222.542      139.299   137859.956    49524.824    19404.235       25.439       10.339      549.539      155.672        0.080      338.135       10.578      863.275
01/08/2021  11:03:00     -499.155      -49.346      -25.919      301.510      180.936      132.734    90908.553    32737.759    17618.316       19.673        7.063      501.588      155.158        0.096      338.126       10.562      863.279
01/08/2021  11:04:00     -386.965      -37.961      -17.633      264.979      215.524      127.626    70213.732    46450.776    16288.446       14.220        6.648      388.823      125.399        0.104      338.125       10.561      863.203
01/08/2021  11:05:00     -304.806      -39.345      -20.671      224.204      147.181       88.020    50267.379    21662.260     7747.584        8.726        3.984      307.335       86.962        0.080      338.201       10.690      863.196
01/08/2021  11:06:00     -263.456       42.948        4.108      186.578      153.995       91.516    34811.471    23714.459     8375.146        6.907        3.345      266.934      101.094        0.143      338.288       10.834      863.248
01/08/2021  11:07:00     -271.799     -121.975      -23.976      191.852      188.135       95.011    36807.206    35394.931     9027.115        8.526        4.061      297.914      108.696        0.133      338.187       10.667      863.257
01/08/2021  11:08:00     -182.509      -14.359      -21.855      260.575      151.850       99.534    67899.561    23058.438     9907.063        6.741        5.043      183.073       76.451        0.174      338.281       10.824      863.204
01/08/2021  11:09:00     -212.274       98.627       -1.737      186.846      131.210       78.246    34911.391    17216.061     6122.503        5.651        2.912      234.068       78.376        0.112      338.508       11.203      863.210
01/08/2021  11:10:00     -413.784      -68.778      -11.317      269.574      172.040      105.369    72670.044    29597.617    11102.539       14.470        5.669      419.461      105.972        0.064      338.169       10.633      863.184
01/08/2021  11:11:00     -313.049       70.679       -1.814      207.059      146.004       75.144    42873.507    21317.125     5646.654        8.640        3.492      320.929       73.531        0.052      338.257       10.782      863.234
01/08/2021  11:12:00     -394.223       -6.230        1.779      292.843      197.878      108.860    85756.950    39155.673    11850.422       14.608        6.838      394.272       97.081        0.061      338.225       10.728      863.182
01/08/2021  11:13:00     -362.592       -7.273        3.209      227.061      156.487      102.038    51556.741    24488.169    10411.691       10.898        4.323      362.665       86.225        0.057      338.216       10.713      863.266
01/08/2021  11:14:00     -353.983      -32.207      -10.170      373.906      192.633      129.119   139805.973    37107.343    16671.684       15.997        9.679      355.445      153.644        0.187      338.170       10.636      863.314
01/08/2021  11:15:00     -623.201      188.057       -2.378      312.745      208.175      144.813    97809.201    43336.879    20970.836       29.290        8.106      650.957      135.908        0.044      338.133       10.573      863.274
01/08/2021  11:16:00     -494.237       23.751      -17.915      344.647      224.064      122.494   118781.576    50204.798    15004.758       21.453        9.200      494.808      111.164        0.050      338.086       10.494      863.302
01/08/2021  11:17:00     -277.167      -57.005      -12.341      219.489      140.936       92.699    48175.265    19863.078     8593.097        7.841        3.832      282.968       99.989        0.125      338.153       10.608      863.350
01/08/2021  11:18:00     -270.311       35.272       -7.227      312.604      192.191      136.755    97721.264    36937.572    18701.795       11.383        7.668      272.602      152.341        0.312      338.129       10.567      863.327
01/08/2021  11:19:00     -295.195       -5.151        2.965      319.118      146.343      117.599   101836.351    21416.129    13829.450       11.210        6.854      295.240      127.045        0.185      338.210       10.704      863.333
01/08/2021  11:20:00     -372.987       53.110       10.046      367.764      224.201      140.182   135250.689    50266.029    19651.082       17.356       10.258      376.749      157.554        0.175      338.214       10.711      863.333
01/08/2021  11:21:00     -837.951       16.503      -38.335      379.098      216.801      127.017   143715.024    47002.507    16133.359       45.533       10.343      838.114      130.117        0.024      338.102       10.523      863.316
01/08/2021  11:22:00     -267.305      -42.612      -11.398      290.226      127.003      108.335    84231.390    16129.778    11736.496        9.272        5.605      270.680      107.183        0.157      338.299       10.854      863.391
01/08/2021  11:23:00     -356.615      -55.429      -14.419      263.128      199.264      115.334    69236.331    39706.066    13302.025       12.632        6.112      360.897      110.272        0.093      338.253       10.776      863.429
01/08/2021  11:24:00     -578.432       -2.444      -29.575      366.865      290.521      147.453   134590.075    84402.674    21742.400       28.805       12.037      578.437      157.493        0.074      338.160       10.621      863.469
01/08/2021  11:25:00     -418.451      -67.954      -10.234      257.958      207.391      118.357    66542.182    43011.081    14008.280       15.167        6.178      423.933      121.536        0.082      338.120       10.553      863.447
01/08/2021  11:26:00     -445.443      -27.784      -19.076      391.416      182.996      115.377   153206.864    33487.695    13311.946       19.974       10.000      446.309      113.497        0.065      338.168       10.634      863.460
01/08/2021  11:27:00     -527.719       73.293       -4.841      308.851      213.816      119.946    95389.022    45717.258    14387.155       21.966        7.775      532.785      122.213        0.053      338.081       10.487      863.430
01/08/2021  11:28:00     -683.353      -75.033       -9.875      377.432      200.618      143.345   142455.022    40247.752    20547.818       33.793       10.163      687.460      135.996        0.039      338.035       10.409      863.441
01/08/2021  11:29:00     -453.639      -43.826       -9.708      263.998      236.651      139.121    69695.012    56003.754    19354.750       17.640        7.253      455.752      135.512        0.088      338.113       10.539      863.404
01/08/2021  11:30:00     -380.516       54.030        2.594      244.590      176.392      103.128    59824.467    31114.132    10635.435       12.462        5.079      384.333      100.229        0.068      338.213       10.708      863.338
01/08/2021  11:31:00     -547.075      -63.985        7.634      318.792      211.835      126.943   101628.416    44873.924    16114.589       23.300        8.131      550.804      140.065        0.065      338.070       10.468      863.341
01/08/2021  11:32:00     -362.390      -28.591       -4.956      236.684      177.427      121.014    56019.418    31480.196    14644.350       11.713        5.107      363.516      120.784        0.110      338.147       10.598      863.324
01/08/2021  11:33:00     -499.891      -44.725       -9.967      377.103      191.639      151.508   142206.514    36725.439    22954.762       22.690       10.094      501.888      157.345        0.098      338.144       10.592      863.235
01/08/2021  11:34:00     -597.875      -90.069      -26.569      343.426      253.409      146.367   117941.324    64215.944    21423.424       28.488       10.179      604.621      149.295        0.061      338.081       10.487      863.166
01/08/2021  11:35:00     -529.923      -17.375       -8.975      256.259      182.601      110.982    65668.446    33343.084    12316.987       19.624        5.566      530.207      107.709        0.041      338.118       10.549      863.154
01/08/2021  11:36:00     -453.626      -41.284      -28.423      249.751      158.078       90.620    62375.410    24988.721     8212.055       15.191        4.779      455.501       91.230        0.040      338.094       10.509      863.136
01/08/2021  11:37:00     -259.161      -12.923        6.683      216.107      150.408       81.582    46702.282    22622.586     6655.573        7.166        3.799      259.483       81.269        0.098      338.258       10.785      863.114
01/08/2021  11:38:00     -504.253      -71.916      -12.435      291.484      223.062      127.513    84962.748    49756.748    16259.633       20.526        7.549      509.356      139.529        0.075      338.160       10.619      863.017
01/08/2021  11:39:00     -301.247      -18.433      -23.444      238.797      199.636      107.664    57023.778    39854.514    11591.516       10.003        5.423      301.810       89.041        0.087      338.265       10.796      863.040
01/08/2021  11:40:00     -314.364      -55.204        2.845      369.739      197.880      145.008   136707.142    39156.301    21027.253       14.934        9.845      319.174      154.739        0.235      338.123       10.556      863.011
01/08/2021  11:41:00     -271.166        0.387       -6.159      297.494      160.210      115.471    88502.647    25667.108    13333.571       10.051        6.375      271.166      132.994        0.241      338.190       10.670      863.032
01/08/2021  11:42:00     -645.637       37.218      -40.546      455.473      261.055      124.145   207455.288    68149.695    15411.966       35.538       14.551      646.709      164.782        0.065      338.046       10.428      863.039
01/08/2021  11:43:00     -507.538      -54.501      -27.968      329.920      168.287      114.668   108847.378    28320.502    13148.707       20.580        7.516      510.456      114.061        0.050      338.009       10.367      863.030
01/08/2021  11:44:00     -387.065       43.876      -18.932      324.881      163.016      113.284   105547.576    26574.337    12833.261       14.850        7.248      389.544      137.288        0.124      338.179       10.652      863.009
01/08/2021  11:45:00     -763.674       14.641      -35.486      409.639      203.784      117.983   167804.223    41527.827    13920.033       40.391       11.163      763.814      115.428        0.023      338.108       10.532      862.977
01/08/2021  11:46:00     -537.069       80.677       -2.878      419.496      242.038      130.171   175977.086    58582.191    16944.619       27.318       12.575      543.095      152.630        0.079      338.127       10.564      863.000
01/08/2021  11:47:00     -312.726      -48.371      -14.119      414.286      240.500      136.218   171633.195    57840.333    18555.355       17.413       12.401      316.445      146.301        0.214      338.155       10.610      863.051
01/08/2021  11:48:00     -563.871      -78.291      -17.829      387.613      251.966      164.179   150244.032    63487.023    26954.812       28.249       12.034      569.281      181.343        0.101      338.054       10.440      863.005
01/08/2021  11:49:00     -443.783      -70.940       -2.002      367.295      232.219      138.819   134905.481    53925.873    19270.756       20.500       10.405      449.417      159.685        0.126      338.191       10.672      862.990
01/08/2021  11:50:00     -629.929      -38.837      -14.638      468.956      214.449      141.981   219920.035    45988.295    20158.606       34.224       14.303      631.125      174.594        0.077      338.165       10.628      863.050
01/08/2021  11:51:00     -587.444     -139.413      -14.513      379.806      269.269      162.317   144252.895    72505.938    26346.763       30.387       12.155      603.761      170.057        0.079      338.100       10.518      863.056
01/08/2021  11:52:00     -668.606      -84.391      -20.508      306.576      232.505      138.493    93988.653    54058.669    19180.333       31.087        8.361      673.910      147.551        0.048      338.074       10.474      863.070
01/08/2021  11:53:00     -695.455      -82.310      -44.613      388.609      254.413      151.536   151016.624    64726.177    22963.252       36.551       11.935      700.309      184.040        0.069      338.033       10.406      863.084
01/08/2021  11:54:00     -560.353       33.113      -11.525      381.794      262.087      141.966   145766.702    68689.425    20154.323       27.487       11.731      561.330      158.030        0.079      338.142       10.589      863.077
01/08/2021  11:55:00     -584.995      -28.862      -42.108      314.486      228.059      130.894    98901.200    52011.092    17133.155       25.640        8.402      585.707      133.842        0.052      338.104       10.525      863.126
01/08/2021  11:56:00     -481.700      -21.452      -18.293      250.914      236.403      116.982    62957.771    55886.493    13684.821       18.265        6.626      482.177      107.315        0.050      338.248       10.766      863.171
01/08/2021  11:57:00     -467.188      -76.736        0.786      381.527      232.579      150.045   145562.477    54093.030    22513.416       22.311       11.108      473.448      182.822        0.149      338.150       10.603      863.170
01/08/2021  11:58:00     -613.989     -135.911      -48.247      438.274      302.627      182.538   192084.278    91583.079    33320.174       35.732       15.849      628.852      173.130        0.076      338.054       10.442      863.145
01/08/2021  11:59:00     -392.717      -97.600       -9.276      268.238      166.236      113.330    71951.888    27634.293    12843.663       13.811        5.621      404.664      114.553        0.080      338.179       10.651      863.136
01/08/2021  12:00:00     -567.038     -200.303      -21.816      288.423      215.522      153.232    83188.066    46449.776    23480.058       25.759        7.656      601.376      152.047        0.064      338.191       10.671      863.129
01/08/2021  12:01:00     -566.137       56.640      -23.398      379.648      246.481      139.994   144132.329    60752.876    19598.214       27.433       11.224      568.964      135.039        0.056      338.277       10.815      863.135
01/08/2021  12:02:00     -629.559      -70.617      -35.594      364.576      259.370      150.262   132915.440    67272.602    22578.708       31.263       11.138      633.507      165.056        0.068      338.176       10.646      863.106
01/08/2021  12:03:00     -495.113      -59.283       17.199      371.428      264.527      156.726   137958.520    69974.732    24563.154       24.067       11.625      498.650      165.173        0.110      338.207       10.698      863.074
01/08/2021  12:04:00     -476.412       -9.582      -14.088      357.758      275.485      159.383   127991.102    75891.987    25402.812       22.822       11.464      476.508      181.140        0.145      338.184       10.660      863.117
01/08/2021  12:05:00     -579.259      107.960      -14.565      348.050      206.113      123.604   121138.506    42482.485    15277.876       26.312        8.945      589.234      138.395        0.055      338.139       10.584      863.128
01/08/2021  12:06:00     -464.193       -5.288       -1.155      272.973      214.901      141.327    74514.194    46182.423    19973.331       17.806        7.033      464.223      155.263        0.112      338.203       10.692      863.081
01/08/2021  12:07:00     -453.173       90.333      -13.604      333.890      225.864      123.794   111482.643    51014.680    15325.071       19.573        8.891      462.089      137.465        0.088      338.326       10.898      863.128
01/08/2021  12:08:00     -443.658       55.015       19.115      262.702      176.795      125.879    69012.538    31256.573    15845.527       15.814        5.806      447.056      134.595        0.091      338.383       10.993      863.158
01/08/2021  12:09:00     -503.847       11.189        9.155      378.116      221.271      130.153   142971.906    48960.974    16939.893       23.143       10.444      503.971      147.509        0.086      338.354       10.945      863.169
01/08/2021  12:10:00     -782.565      -46.367      -33.522      429.385      317.142      160.397   184371.129   100579.064    25727.102       46.311       15.534      783.938      180.185        0.053      338.172       10.638      863.135
01/08/2021  12:11:00     -827.349     -173.344      -44.997      410.872      250.770      176.501   168815.636    62885.589    31152.592       48.966       13.143      845.313      198.671        0.055      338.169       10.635      863.140
01/08/2021  12:12:00     -705.691       46.783      -12.408      440.996      314.558      159.612   194477.495    98946.544    25475.913       40.955       15.945      707.240      156.592        0.049      338.189       10.667      863.105
01/08/2021  12:13:00     -757.262      107.870      -26.790      429.930      299.107      159.542   184839.573    89464.938    25453.564       44.272       14.988      764.906      165.989        0.047      338.204       10.693      863.114
01/08/2021  12:14:00     -721.503       38.553      -19.841      420.912      233.951      134.242   177167.045    54733.206    18021.020       38.613       12.496      722.533      141.814        0.039      338.158       10.616      863.115
01/08/2021  12:15:00     -511.712      -56.559       11.140      445.485      296.303      192.573   198456.991    87795.200    37084.390       29.419       16.167      514.829      228.347        0.197      338.205       10.695      863.028
01/08/2021  12:16:00     -589.560        9.391      -39.158      398.884      244.796      142.282   159108.816    59925.279    20244.269       29.419       11.964      589.635      163.502        0.077      338.177       10.648      863.083
01/08/2021  12:17:00     -649.261       34.854      -18.087      335.467      285.431      133.585   112537.836    81470.703    17844.983       31.742       10.593      650.196      133.118        0.042      338.228       10.734      863.056
01/08/2021  12:18:00     -541.831       61.931       -2.678      334.045      235.228      159.031   111586.005    55332.112    25290.984       24.478        9.610      545.359      160.123        0.086      338.285       10.830      863.038
01/08/2021  12:19:00     -615.458       -8.598      -36.843      366.311      224.302      141.371   134184.104    50311.190    19985.625       29.231       10.224      615.518      148.771        0.058      338.228       10.735      863.022
01/08/2021  12:20:00     -625.868      -76.895      -33.260      346.789      291.328      133.401   120262.938    84872.112    17795.795       31.078       11.147      630.574      132.007        0.044      338.230       10.736      862.993
01/08/2021  12:21:00     -509.286      -80.838      -24.311      415.986      282.044      183.350   173044.501    79548.573    33617.145       27.629       14.311      515.662      237.232        0.212      338.247       10.766      863.008
01/08/2021  12:22:00     -450.272       51.718      -24.952      322.892      218.228      112.877   104259.194    47623.246    12741.150       18.530        8.231      453.233      121.485        0.072      338.350       10.937      862.993
01/08/2021  12:23:00     -702.177     -119.834      -12.744      464.558      260.260      184.524   215814.044    67735.178    34049.121       41.252       15.880      712.329      217.327        0.093      338.171       10.638      862.934
01/08/2021  12:24:00     -721.376      -70.222      -28.169      406.310      304.849      202.941   165087.658    92932.702    41184.882       41.259       14.960      724.786      209.668        0.084      338.146       10.595      862.853
01/08/2021  12:25:00     -628.047     -118.116      -27.158      415.506      195.853      140.909   172645.520    38358.318    19855.244       31.995       11.543      639.057      177.763        0.077      338.274       10.811      862.930
01/08/2021  12:26:00     -628.422      -72.362       -7.927      377.459      239.217      155.660   142475.350    57224.859    24230.154       31.202       11.197      632.574      167.886        0.070      338.284       10.829      862.899
01/08/2021  12:27:00     -477.584      -10.558       -5.504      461.762      250.875      168.308   213223.995    62938.163    28327.476       26.629       15.224      477.701      209.477        0.192      338.278       10.818      862.929
01/08/2021  12:28:00     -365.768      -71.633       -1.227      297.079      216.284      153.301    88256.159    46778.747    23501.337       14.869        7.927      372.716      152.633        0.168      338.340       10.922      862.911
01/08/2021  12:29:00     -547.771      -64.474      -21.842      342.762      236.100      146.923   117485.783    55743.156    21586.407       24.971        9.741      551.552      159.552        0.084      338.275       10.812      862.890
01/08/2021  12:30:00     -558.730     -104.205      -40.254      388.548      203.770      163.198   150969.280    41522.294    26633.660       27.185       10.956      568.365      198.491        0.122      338.210       10.703      862.854
01/08/2021  12:31:00     -510.344     -102.788       -8.294      435.955      239.531      158.878   190056.826    57375.110    25242.234       27.182       13.634      520.592      163.685        0.099      338.164       10.626      862.852
01/08/2021  12:32:00     -292.924        6.679        9.974      357.201      219.229      137.409   127592.691    48061.305    18881.253       14.020        9.727      293.000      155.599        0.282      338.302       10.859      862.864
01/08/2021  12:33:00     -902.975      141.696        0.960      458.435      307.115      168.102   210162.942    94319.678    28258.303       58.402       16.637      914.025      171.591        0.035      338.142       10.588      862.768
01/08/2021  12:34:00     -545.979      -79.045      -15.634      372.601      309.266      150.142   138831.437    95645.232    22542.495       28.075       12.851      551.671      164.481        0.089      338.209       10.702      862.842
01/08/2021  12:35:00     -687.483      -66.852      -23.341      466.002      307.906      181.808   217157.404    94806.262    33054.071       41.126       17.251      690.726      220.207        0.102      338.159       10.618      862.829
01/08/2021  12:36:00     -653.385      -71.904      -23.366      263.311      218.578      125.466    69332.834    47776.146    15741.756       28.271        6.643      657.330      114.568        0.030      338.147       10.597      862.806
01/08/2021  12:37:00     -753.064      -80.029      -26.845      416.399      314.869      189.598   173388.120    99142.385    35947.468       44.129       15.424      757.304      210.998        0.078      338.098       10.514      862.814
01/08/2021  12:38:00     -707.119      -93.147      -53.007      414.538      280.975      163.125   171841.914    78946.713    26609.647       39.439       13.870      713.228      176.765        0.061      338.137       10.580      862.819
01/08/2021  12:39:00     -898.208       -9.406      -33.868      472.454      320.247      166.925   223213.207   102558.096    27863.899       58.075       17.682      898.258      173.002        0.037      338.097       10.514      862.815
01/08/2021  12:40:00     -868.674      -33.453      -15.390      446.532      309.007      185.292   199390.974    95485.018    34333.089       54.251       16.460      869.318      211.394        0.059      338.112       10.539      862.830
01/08/2021  12:41:00     -369.918      -23.141       -2.382      334.716      269.581      145.867   112034.976    72673.784    21277.190       17.164       10.299      370.641      139.300        0.141      338.249       10.768      862.882
01/08/2021  12:42:00     -663.209      -40.779        9.419      386.216      266.856      163.715   149162.975    71212.166    26802.740       34.433       12.359      664.461      178.918        0.073      338.188       10.667      862.880
01/08/2021  12:43:00     -926.316      -49.812      -34.975      399.022      318.440      167.825   159218.352   101403.818    28165.172       57.522       14.439      927.654      190.518        0.042      338.045       10.427      862.856
01/08/2021  12:44:00     -701.701     -153.442      -25.056      420.021      328.170      196.873   176418.049   107695.823    38758.901       41.965       16.144      718.282      214.135        0.089      338.065       10.461      862.868
01/08/2021  12:45:00     -695.879       43.364       -1.161      461.943      300.652      188.175   213391.665    90391.705    35409.698       41.259       16.960      697.229      209.038        0.090      338.040       10.418      862.815
01/08/2021  12:46:00     -606.569      -63.673      -22.993      502.893      300.522      171.306   252901.488    90313.566    29345.623       37.246       18.628      609.902      199.033        0.106      338.056       10.445      862.786
01/08/2021  12:47:00     -545.456      -87.477        2.926      426.491      282.388      165.688   181894.422    79743.213    27452.459       29.707       14.455      552.426      192.364        0.121      338.044       10.425      862.799
01/08/2021  12:48:00     -714.249      -26.983      -21.056      432.026      306.570      177.362   186646.652    93985.216    31457.187       41.164       15.604      714.759      190.148        0.071      337.966       10.295      862.794
01/08/2021  12:49:00     -667.402     -104.956      -15.525      470.465      289.089      173.931   221337.705    83572.284    30251.875       39.585       16.758      675.605      201.051        0.089      338.008       10.364      862.768
01/08/2021  12:50:00     -774.496      -88.380      -34.185      492.814      390.873      200.829   242866.099   152781.779    40332.100       52.231       21.799      779.522      233.211        0.090      337.922       10.221      862.745
01/08/2021  12:51:00     -766.857      -14.682       -5.893      560.875      278.682      176.977   314580.401    77663.410    31320.995       50.585       21.178      766.997      219.404        0.082      337.932       10.236      862.810
01/08/2021  12:52:00     -609.600      -90.831      -27.074      432.500      278.383      188.018   187056.469    77497.174    35350.944       34.019       14.995      616.330      197.758        0.103      337.961       10.286      862.782
01/08/2021  12:53:00     -547.270     -103.501       -5.415      480.831      315.219      182.907   231198.856    99362.731    33454.819       33.705       18.201      556.971      213.649        0.147      337.946       10.262      862.766
01/08/2021  12:54:00     -926.004     -126.070      -68.000      424.461      352.965      228.831   180166.965   124584.223    52363.422       61.748       17.856      934.547      207.584        0.049      337.875       10.139      862.778
01/08/2021  12:55:00     -504.824      -83.848      -16.913      350.992      231.284      160.516   123195.566    53492.099    25765.415       23.227       10.123      511.740      167.860        0.108      338.012       10.371      862.860
01/08/2021  12:56:00     -591.471      -92.330      -17.916      464.598      278.050      186.385   215851.335    77311.750    34739.243       34.322       16.395      598.634      204.615        0.117      337.989       10.333      862.862
01/08/2021  12:57:00     -717.434     -130.207      -24.227      518.600      303.039      183.369   268945.762    91832.333    33624.230       46.324       19.720      729.154      203.724        0.078      337.958       10.281      862.828
01/08/2021  12:58:00     -722.511      -65.439      -34.697      426.957      320.930      151.279   182291.884   102996.167    22885.443       41.777       15.409      725.468      172.496        0.057      337.929       10.232      862.771
01/08/2021  12:59:00     -521.597     -129.591      -35.137      288.127      210.677      115.232    83016.961    44384.667    13278.424       21.536        7.034      537.455      114.102        0.045      338.022       10.387      862.794
01/08/2021  13:00:00     -335.843      -58.894        0.195      300.071      205.696      137.733    90042.506    42310.641    18970.430       13.376        7.566      340.968      138.365        0.165      338.071       10.470      862.789
01/08/2021  13:01:00     -910.976     -151.559      -31.907      468.658      293.935      175.262   219639.932    86397.545    30716.770       59.524       16.838      923.497      198.835        0.046      337.941       10.252      862.799
01/08/2021  13:02:00     -781.359     -157.228      -27.566      473.059      317.969      179.477   223785.141   101104.413    32211.828       49.647       17.855      797.021      194.234        0.059      337.895       10.175      862.765
01/08/2021  13:03:00     -743.365      -27.379      -36.368      412.775      292.920      171.004   170383.186    85801.994    29242.255       41.998       14.271      743.869      150.834        0.041      337.908       10.197      862.806
01/08/2021  13:04:00     -451.518     -141.660      -32.272      362.137      274.339      171.171   131143.429    75262.128    29299.469       23.029       11.785      473.219      178.874        0.143      337.956       10.279      862.782
01/08/2021  13:05:00     -622.427      -78.622      -39.611      440.311      244.549      157.711   193873.924    59804.097    24872.680       33.680       13.928      627.373      169.602        0.073      337.945       10.259      862.780
01/08/2021  13:06:00     -851.836      -95.821      -35.132      522.259      326.586      177.941   272754.033   106658.283    31662.948       57.347       20.554      857.208      192.115        0.050      337.833       10.071      862.706
01/08/2021  13:07:00     -745.177      -54.169      -20.798      436.497      324.828      193.084   190529.232   105513.473    37281.284       44.592       16.666      747.143      197.217        0.070      337.980       10.318      862.749
01/08/2021  13:08:00     -907.128     -110.868      -43.792      540.957      321.047      183.860   292634.956   103071.077    33804.390       63.321       21.476      913.878      199.585        0.048      337.910       10.200      862.726
01/08/2021  13:09:00     -712.527      -46.591      -17.640      331.252      248.461      159.072   109727.971    61732.733    25303.878       35.343        9.838      714.049      163.792        0.053      337.885       10.159      862.746
01/08/2021  13:10:00     -676.220      -14.753       -6.807      420.212      246.513      131.388   176577.963    60768.460    17262.826       35.602       12.730      676.381      117.537        0.030      337.906       10.192      862.750
01/08/2021  13:11:00     -502.289      -99.581      -23.326      390.642      314.158      166.475   152601.422    98695.230    27713.857       27.082       13.951      512.065      183.587        0.129      337.923       10.221      862.710
01/08/2021  13:12:00     -658.008      -77.521      -29.910      423.570      294.805      169.398   179411.139    86909.865    28695.609       36.738       14.751      662.559      159.747        0.058      337.940       10.250      862.740
01/08/2021  13:13:00     -723.022     -170.594      -30.012      398.086      232.550      153.953   158472.546    54079.609    23701.486       39.446       11.813      742.875      185.255        0.062      337.916       10.210      862.760
01/08/2021  13:14:00     -775.676     -227.950      -39.954      415.724      271.902      176.931   172826.520    73930.663    31304.492       46.659       13.903      808.476      193.837        0.057      337.897       10.179      862.750
01/08/2021  13:15:00     -767.270      -72.295        1.839      384.036      269.644      155.499   147483.312    72707.739    24179.794       41.910       12.219      770.668      161.702        0.044      337.873       10.137      862.731
01/08/2021  13:16:00     -643.689      -85.337      -29.155      484.994      266.755      165.857   235219.433    71158.154    27508.534       37.810       16.694      649.321      193.875        0.089      337.850       10.100      862.705
01/08/2021  13:17:00     -838.094      -88.307      -62.547      378.941      290.435      151.344   143595.916    84352.272    22904.912       48.243       12.543      842.733      180.187        0.046      337.926       10.227      862.732
01/08/2021  13:18:00     -819.630     -176.831      -62.804      335.710      299.899      160.584   112700.899    89939.382    25787.264       46.767       11.421      838.488      158.590        0.036      337.946       10.260      862.680
01/08/2021  13:19:00     -653.904      -60.781      -15.773      391.045      265.969      142.458   152916.042    70739.751    20294.185       33.769       12.197      656.722      159.407        0.059      338.041       10.421      862.734
01/08/2021  13:20:00     -634.743      -62.060       15.645      505.589      253.734      174.525   255620.050    64381.148    30459.064       37.865       17.523      637.770      179.476        0.079      337.978       10.315      862.685
01/08/2021  13:21:00     -622.502     -105.918      -25.205      375.636      248.021      143.426   141102.353    61514.662    20570.914       31.123       11.159      631.449      164.480        0.068      338.057       10.449      862.727
01/08/2021  13:22:00     -595.291      -38.632      -10.399      543.080      322.880      173.295   294936.152   104251.370    30031.141       39.250       21.461      596.543      189.227        0.101      337.941       10.252      862.687
01/08/2021  13:23:00     -989.770     -113.714      -55.865      459.325      311.911      178.745   210979.222    97288.203    31949.902       66.788       17.011      996.281      184.199        0.034      337.882       10.154      862.683
01/08/2021  13:24:00     -482.023      -75.303       -7.647      327.040      252.771      142.053   106955.011    63892.942    20179.146       21.451        9.551      487.869      141.061        0.084      337.991       10.335      862.763
01/08/2021  13:25:00     -562.881      -92.374      -37.405      357.128      287.406      158.355   127540.086    82602.134    25076.346       28.094       11.761      570.411      169.438        0.088      337.967       10.295      862.775
01/08/2021  13:26:00     -721.248     -107.294      -29.146      435.424      246.293      157.555   189594.060    60660.028    24823.527       40.376       13.754      729.185      184.771        0.064      337.919       10.215      862.789
01/08/2021  13:27:00     -565.489      -29.188      -17.972      343.540      265.568      152.211   118019.585    70526.155    23168.041       26.629       10.586      566.242      161.237        0.081      337.936       10.244      862.780
01/08/2021  13:28:00     -705.960     -116.653      -15.671      415.660      324.449      200.596   172773.105   105267.189    40238.811       41.519       15.914      715.533      202.494        0.080      337.833       10.072      862.751
01/08/2021  13:29:00     -696.691     -119.590      -56.889      412.987      273.579      155.412   170558.406    74845.378    24152.799       38.618       13.478      706.881      184.377        0.068      337.815       10.041      862.744
01/08/2021  13:30:00     -524.605      -88.870       -6.145      443.296      260.720      160.910   196511.710    67974.886    25891.889       28.670       14.519      532.079      186.750        0.123      337.875       10.140      862.734
01/08/2021  13:31:00     -629.285      -54.679      -15.699      363.066      249.199      153.636   131816.589    62100.086    23604.116       30.833       10.876      631.656      164.898        0.068      337.891       10.168      862.696
01/08/2021  13:32:00     -834.545      -70.071      -30.241      472.914      323.578      179.405   223648.036   104703.021    32186.037       53.134       18.027      837.482      190.821        0.052      337.758        9.944      862.625
01/08/2021  13:33:00     -522.632      -57.501      -12.914      385.334      294.084      169.948   148482.299    86485.560    28882.392       27.018       13.193      525.786      180.168        0.117      337.863       10.120      862.617
01/08/2021  13:34:00     -850.933      -82.375       -8.025      459.917      329.389      162.061   211523.651   108497.140    26263.715       53.854       17.314      854.911      186.608        0.048      337.792       10.002      862.650
01/08/2021  13:35:00     -646.174      -23.242      -15.057      410.172      295.053      181.663   168241.341    87056.269    33001.602       35.324       14.415      646.592      175.217        0.073      337.710        9.865      862.667
01/08/2021  13:36:00     -631.331       29.637       -7.563      299.876      318.247      165.019    89925.673   101281.423    27231.305       30.893       10.922      632.026      146.278        0.054      337.810       10.031      862.662
01/08/2021  13:37:00     -562.348     -145.267       -8.148      429.457      311.519      164.549   184433.594    97044.013    27076.311       32.291       15.428      580.808      172.208        0.088      337.835       10.073      862.673
01/08/2021  13:38:00     -683.677     -144.209        4.207      539.285      301.807      175.041   290828.479    91087.450    30639.469       45.030       20.628      698.721      229.076        0.107      337.746        9.925      862.673
01/08/2021  13:39:00     -854.864      -75.646      -42.000      507.870      291.327      185.743   257932.392    84871.674    34500.342       55.771       18.865      858.204      230.965        0.072      337.703        9.852      862.637
01/08/2021  13:40:00     -727.291      -91.020      -52.836      437.966      237.553      153.153   191813.868    56431.646    23455.709       40.581       13.585      732.965      173.199        0.056      337.690        9.831      862.680
01/08/2021  13:41:00     -652.065       17.408      -28.336      374.731      251.772      140.069   140423.581    63388.931    19619.415       32.482       11.172      652.298      138.108        0.045      337.807       10.027      862.668
01/08/2021  13:42:00     -610.465     -100.328      -35.110      354.773      276.736      130.967   125864.128    76583.060    17152.290       30.174       10.980      618.655      150.167        0.059      337.761        9.951      862.607
01/08/2021  13:43:00     -667.908      -63.309      -17.407      391.532      260.599      146.612   153297.522    67911.641    21495.108       34.651       12.135      670.902      160.916        0.058      337.767        9.959      862.633
01/08/2021  13:44:00     -780.126      -84.737      -28.888      481.532      334.485      190.060   231873.106   111879.884    36122.693       49.816       18.994      784.714      194.110        0.061      337.638        9.744      862.609
01/08/2021  13:45:00     -640.481      -93.034      -17.477      468.814      328.473      210.605   219787.035   107894.689    44354.306       39.553       18.602      647.202      248.243        0.147      337.652        9.768      862.639
01/08/2021  13:46:00     -483.396       -1.628      -19.252      428.600      281.935      157.823   183697.884    79487.325    24908.086       26.101       14.405      483.399      182.762        0.143      337.704        9.854      862.700
01/08/2021  13:47:00     -368.917      -72.867       17.048      377.897      193.968      149.073   142806.002    37623.700    22222.854       17.213       10.133      376.044      172.908        0.211      337.805       10.024      862.748
01/08/2021  13:48:00     -723.999      -42.189      -10.673      399.472      275.829      150.064   159577.934    76081.417    22519.352       39.207       12.909      725.227      172.571        0.057      337.760        9.949      862.732
01/08/2021  13:49:00     -874.997      -92.689      -27.393      478.925      310.043      178.178   229369.051    96126.394    31747.265       56.603       17.862      879.893      197.782        0.051      337.650        9.764      862.681
01/08/2021  13:50:00     -675.831      -38.310      -29.458      374.505      234.403      151.948   140254.318    54944.780    23088.057       33.864       10.914      676.916      145.938        0.046      337.682        9.816      862.770
01/08/2021  13:51:00     -660.396     -132.734      -30.831      352.765      254.095      161.765   124442.819    64564.021    26167.786       33.489       10.759      673.603      160.508        0.057      337.696        9.840      862.797
01/08/2021  13:52:00     -540.043      -39.581       -0.109      446.790      242.321      154.103   199620.924    58719.462    23747.785       28.759       14.104      541.492      196.716        0.132      337.715        9.875      862.837
01/08/2021  13:53:00     -333.136      -87.033       -4.053      280.496      212.373      130.234    78677.979    45102.145    16960.993       12.963        7.037      344.317      147.179        0.183      337.817       10.045      862.896
01/08/2021  13:54:00     -386.554      -19.383      -13.782      269.568      168.583      114.869    72667.090    28420.106    13194.904       13.211        5.714      387.040       89.358        0.053      337.844       10.090      862.955
01/08/2021  13:55:00     -415.490     -171.013      -40.832      295.724      207.246      126.111    87452.857    42951.079    15903.879       17.489        7.315      449.307      146.885        0.107      337.885       10.157      862.909
01/08/2021  13:56:00     -775.004      -61.563      -44.718      444.408      312.981      165.511   197498.587    97956.901    27393.799       46.457       16.142      777.446      170.445        0.048      337.699        9.845      862.848
01/08/2021  13:57:00     -599.768      -45.545      -24.622      339.211      275.342      133.642   115063.873    75813.491    17860.189       28.553       10.437      601.495      126.997        0.045      337.757        9.942      862.856
01/08/2021  13:58:00     -659.360      -95.505      -24.431      419.306      258.012      152.708   175817.822    66570.210    23319.652       35.503       13.285      666.241      175.963        0.070      337.768        9.963      862.858
01/08/2021  13:59:00     -691.652      -67.934       -8.547      484.836      298.741      167.847   235066.398    89246.423    28172.725       41.770       17.624      694.980      196.297        0.080      337.723        9.885      862.859
01/08/2021  14:00:00     -659.350     -105.235      -18.625      372.869      305.323      187.140   139031.445    93221.845    35021.508       35.666       13.364      667.695      177.938        0.071      337.707        9.862      862.874
01/08/2021  14:01:00     -568.459     -137.076      -21.643      352.158      275.930      169.850   124015.115    76137.140    28849.007       28.565       11.450      584.752      183.671        0.099      337.750        9.931      862.903
01/08/2021  14:02:00     -387.842      -88.726       -0.633      373.796      256.020      156.785   139723.449    65546.146    24581.517       19.402       11.493      397.861      173.894        0.191      337.770        9.964      862.935
01/08/2021  14:03:00     -360.749      -53.056      -20.628      305.705      187.886      117.672    93455.753    35301.005    13846.805       13.796        7.130      364.630      117.687        0.104      337.898       10.181      862.997
01/08/2021  14:04:00     -627.701       75.656      -10.938      417.407      300.851      160.643   174228.405    90511.230    25806.334       34.514       14.527      632.244      194.592        0.095      337.805       10.025      862.996
01/08/2021  14:05:00     -454.381      -81.297      -22.032      294.681      258.483      127.646    86837.030    66813.257    16293.402       19.171        8.497      461.597      119.615        0.067      337.850       10.100      863.036
01/08/2021  14:06:00     -336.382      -64.111       -5.858      278.943      168.165      130.365    77809.170    28279.431    16995.139       12.016        6.154      342.437      141.413        0.171      337.929       10.232      863.103
01/08/2021  14:07:00     -621.323      -33.182      -15.976      399.831      270.605      154.030   159864.448    73227.071    23725.310       32.205       12.841      622.208      157.686        0.064      337.793       10.003      863.089
01/08/2021  14:08:00     -647.089       35.736      -24.522      358.481      237.256      130.804   128508.347    56290.183    17109.620       31.121       10.095      648.075      154.256        0.057      337.739        9.912      863.134
01/08/2021  14:09:00     -763.774        3.004      -25.853      465.288      287.206      144.700   216493.049    82487.186    20938.205       45.191       15.996      763.780      146.781        0.037      337.640        9.747      863.147
01/08/2021  14:10:00     -534.611      -55.054      -11.144      385.485      259.931      130.557   148598.525    67564.330    17045.105       26.104       11.660      537.438      164.738        0.094      337.721        9.883      863.216
01/08/2021  14:11:00     -667.703     -135.735      -40.566      358.443      250.254      157.737   128481.563    62627.038    24881.107       34.090       10.799      681.360      169.326        0.062      337.667        9.794      863.199
01/08/2021  14:12:00     -611.807      -40.507      -13.984      337.356      280.120      146.619   113808.933    78467.029    21497.078       29.491       10.689      613.146      170.226        0.077      337.679        9.813      863.203
01/08/2021  14:13:00     -651.485     -133.865      -39.380      388.463      208.282      146.284   150903.657    43381.318    21399.031       32.975       10.784      665.096      173.009        0.068      337.728        9.895      863.252
01/08/2021  14:14:00     -383.638      -78.335      -26.032      262.883      164.315      102.630    69107.261    26999.410    10532.914       13.029        5.332      391.554      120.550        0.095      337.863       10.122      863.295
01/08/2021  14:15:00     -313.928       -5.823        5.966      299.292      170.086      119.278    89575.957    28929.106    14227.156       11.565        6.637      313.982      129.228        0.169      337.949       10.266      863.377
01/08/2021  14:16:00     -716.306     -103.928      -31.095      363.133      245.865      135.403   131865.666    60449.363    18333.918       36.771       10.532      723.806      142.687        0.039      337.640        9.748      863.381
01/08/2021  14:17:00     -525.861       67.159       -2.115      455.471      268.899      162.369   207453.702    72306.760    26363.610       29.352       15.306      530.132      185.429        0.122      337.730        9.898      863.398
01/08/2021  14:18:00     -475.994      -85.265        2.662      379.925      194.783      145.839   144342.951    37940.358    21268.930       21.866       10.178      483.571      174.378        0.130      337.781        9.984      863.430
01/08/2021  14:19:00     -572.418     -178.562      -46.472      379.006      279.657      161.426   143645.272    78207.897    26058.426       30.476       12.396      599.623      153.547        0.066      337.666        9.790      863.404
01/08/2021  14:20:00     -465.430      -82.152      -15.533      249.062      229.360      143.329    62031.784    52606.187    20543.343       17.937        6.759      472.625      142.838        0.091      337.711        9.865      863.428
01/08/2021  14:21:00     -525.798       99.851      -11.374      313.847      271.408      132.194    98500.120    73662.559    17475.181       23.806        9.482      535.196      124.617        0.054      337.851       10.100      863.536
01/08/2021  14:22:00     -597.030      180.789        1.211      302.212      263.843      127.932    91332.362    69612.952    16366.645       28.318        8.866      623.802      116.197        0.035      337.789        9.997      863.546
01/08/2021  14:23:00     -342.744      -84.089      -24.963      222.800      180.732      101.696    49639.699    32664.005    10342.176       10.889        4.632      352.908       78.519        0.050      337.855       10.107      863.609
01/08/2021  14:24:00     -527.435       53.857       -7.550      340.742      239.516      147.780   116105.048    57367.965    21838.948       23.819        9.766      530.178      162.348        0.094      337.762        9.954      863.606
01/08/2021  14:25:00     -438.945      -34.354        8.585      303.374      207.030      126.253    92036.000    42861.466    15939.920       17.235        7.542      440.288      125.937        0.082      337.750        9.931      863.681
01/08/2021  14:26:00     -467.995      -58.458      -16.283      309.879      234.124      141.248    96024.871    54813.922    19950.922       19.671        8.539      471.632      145.074        0.095      337.634        9.735      863.663
01/08/2021  14:27:00     -417.286        5.484      -11.762      371.232      257.079      135.981   137813.336    66089.651    18490.800       19.830       11.120      417.322      154.202        0.137      337.692        9.834      863.678
01/08/2021  14:28:00     -609.215      -28.391      -38.504      412.423      227.232      146.779   170092.691    51634.534    21544.012       30.830       12.164      609.876      160.012        0.069      337.596        9.674      863.660
01/08/2021  14:29:00     -742.912      -56.371      -55.900      450.138      238.408      146.730   202624.205    56838.481    21529.638       41.955       14.050      745.048      131.631        0.031      337.567        9.624      863.730
01/08/2021  14:30:00     -387.751       83.503        5.975      275.315      175.118      101.414    75798.517    30666.286    10284.776       13.703        5.837      396.641       96.370        0.059      337.819       10.048      863.787
01/08/2021  14:31:00     -507.657       49.368      -16.650      281.238      197.411      104.711    79094.578    38971.188    10964.373       19.470        6.452      510.052      116.460        0.052      337.692        9.834      863.763
01/08/2021  14:32:00     -550.711      125.305      -41.719      356.630      195.545      114.205   127185.138    38238.009    13042.873       24.956        8.923      564.787      125.933        0.050      337.718        9.879      863.776
01/08/2021  14:33:00     -493.318       80.125        5.022      300.365      232.147      124.574    90218.922    53892.405    15518.589       20.469        7.981      499.782      139.400        0.078      337.716        9.873      863.782
01/08/2021  14:34:00     -559.545       46.301      -13.005      288.442      217.394      135.455    83198.743    47260.152    18348.017       23.207        7.440      561.457      148.379        0.070      337.719        9.880      863.781
01/08/2021  14:35:00     -427.602       16.280        3.607      302.666      219.610      126.971    91606.788    48228.759    16121.551       16.951        7.798      427.912      142.049        0.110      337.766        9.959      863.850
01/08/2021  14:36:00     -364.387      -43.244      -29.635      331.379      160.992       97.919   109811.811    25918.564     9588.154       14.039        7.266      366.944       98.375        0.072      337.772        9.971      863.861
01/08/2021  14:37:00     -453.522      123.584       11.748      259.055      181.265      106.938    67109.688    32856.941    11435.692       16.622        5.570      470.059      112.176        0.057      337.824       10.056      863.918
01/08/2021  14:38:00     -412.122      122.710       -0.375      275.630      231.985      101.519    75972.055    53816.996    10306.064       16.247        7.005      430.003      101.095        0.055      337.856       10.110      863.971
01/08/2021  14:39:00     -408.631       68.929       -2.750      264.539      197.191      115.601    69981.005    38884.328    13363.659       14.696        6.111      414.404      129.990        0.098      337.898       10.181      863.982
01/08/2021  14:40:00     -310.765       38.752      -13.911      190.554      147.619       83.142    36310.948    21791.460     6912.643        8.163        3.251      313.172       84.158        0.072      337.905       10.191      863.986
01/08/2021  14:41:00     -313.863        0.773      -23.341      264.519      182.464      119.807    69970.369    33293.047    14353.782       10.831        5.881      313.864      107.378        0.117      337.790       10.000      864.015
01/08/2021  14:42:00     -172.560       90.510       -2.092      132.054      125.532       71.835    17438.229    15758.402     5160.315        3.816        1.918      194.856       63.617        0.107      338.097       10.514      864.051
01/08/2021  14:43:00     -281.065       58.085      -27.843      269.530      158.283      106.467    72646.635    25053.544    11335.315        9.607        5.452      287.004      114.294        0.159      337.931       10.236      864.063
01/08/2021  14:44:00     -400.501       35.545      -17.001      244.159      139.671       91.107    59613.677    19508.123     8300.431       12.467        4.371      402.075       92.644        0.053      337.865       10.124      864.054
01/08/2021  14:45:00     -214.740       19.879      -20.477      195.557      123.091       86.121    38242.734    15151.272     7416.822        5.386        3.041      215.658       60.135        0.078      337.980       10.317      864.060
01/08/2021  14:46:00     -304.423       94.828      -11.297      213.313      157.410       89.594    45502.305    24777.764     8027.131        9.003        3.915      318.851       98.718        0.096      337.921       10.218      864.060
01/08/2021  14:47:00     -411.929      -31.873      -17.140      261.299      248.375      100.490    68277.077    61689.941    10098.170       15.550        7.003      413.160      103.980        0.063      337.788        9.997      864.078
01/08/2021  14:48:00     -278.392       85.688       10.121      305.411      172.295      110.165    93276.065    29685.671    12136.278       10.999        6.755      291.281       88.418        0.092      337.812       10.038      864.115
01/08/2021  14:49:00     -432.360       53.429      -10.541      219.820      140.707       80.586    48320.930    19798.393     6494.174       13.224        3.731      435.648       80.480        0.034      337.791       10.000      864.082
01/08/2021  14:50:00     -392.032        6.960      -25.482      262.859      159.626      110.634    69094.837    25480.603    12239.795       13.058        5.341      392.094      127.054        0.105      337.820       10.048      864.095
01/08/2021  14:51:00     -236.813       53.141       10.299      227.145      169.295       85.471    51594.967    28660.904     7305.287        7.327        4.378      242.702       61.895        0.065      337.929       10.231      864.112
01/08/2021  14:52:00     -635.128      227.025      -49.754      249.455      203.632      123.002    62227.953    41466.129    15129.596       28.809        5.941      674.484      111.723        0.027      337.732        9.900      864.139
01/08/2021  14:53:00     -433.650      -25.784      -14.059      290.263      183.834      110.674    84252.646    33794.860    12248.781       15.958        6.515      434.416      119.790        0.076      337.705        9.856      864.131
01/08/2021  14:54:00     -419.017      105.347       -1.043      232.712      156.379       93.926    54154.895    24454.421     8822.087       13.703        4.372      432.057      105.959        0.060      337.823       10.054      864.155
01/08/2021  14:55:00     -463.958      189.545      -11.748      308.382      203.741      108.520    95099.306    41510.501    11776.590       19.982        7.419      501.183      135.771        0.073      337.803       10.021      864.160
01/08/2021  14:56:00     -324.088      107.460       -8.451      216.081      142.018       90.001    46690.831    20169.065     8100.158        9.579        3.748      341.439      102.592        0.090      337.884       10.157      864.192
01/08/2021  14:57:00     -224.605      -13.582      -11.041      159.885      153.886       68.417    25563.371    23680.888     4680.866        5.233        2.696      225.015       74.629        0.110      337.863       10.121      864.206
01/08/2021  14:58:00     -254.615      102.625      -19.331      153.010      140.932       71.174    23412.091    19861.892     5065.808        6.203        2.417      274.520       65.023        0.056      337.952       10.271      864.271
01/08/2021  14:59:00     -332.537       56.653       -3.118      327.660      242.398      121.410   107361.367    58756.671    14740.314       14.729        9.043      337.328       90.507        0.072      337.833       10.071      864.258
01/08/2021  15:00:00     -514.000      147.019        3.617      413.637      180.653      113.351   171095.517    32635.648    12848.508       25.115       10.829      534.612      132.019        0.061      337.839       10.081      864.249
01/08/2021  15:01:00     -511.192       83.882       -4.236      271.344      231.817      119.549    73627.466    53738.930    14291.906       20.498        7.083      518.029      131.433        0.064      337.768        9.961      864.298
01/08/2021  15:02:00     -629.789       45.318      -10.754      288.935      194.425      119.906    83483.294    37800.912    14377.363       26.720        6.783      631.417      124.465        0.039      337.631        9.732      864.286
01/08/2021  15:03:00     -427.408      136.348        8.311      282.902      167.172       98.745    80033.291    27946.410     9750.587       15.951        5.887      448.630      113.009        0.063      337.679        9.813      864.358
01/08/2021  15:04:00     -392.841       23.918      -40.981      336.397      201.300       98.847   113162.673    40521.796     9770.672       15.998        8.173      393.569      104.874        0.071      337.676        9.807      864.360
01/08/2021  15:05:00     -334.235       42.944       -5.294      266.496      177.890      106.800    71020.025    31644.694    11406.230       11.380        5.704      336.983      126.279        0.140      337.716        9.876      864.408
01/08/2021  15:06:00     -318.724       26.390       -7.766      255.496      152.052       85.330    65278.048    23119.773     7281.175        9.899        4.784      319.815      108.283        0.115      337.774        9.972      864.449
01/08/2021  15:07:00     -455.961       76.352       13.407      307.563      139.049       97.966    94594.710    19334.656     9597.378       16.869        6.176      462.309       98.187        0.045      337.713        9.870      864.487
01/08/2021  15:08:00     -462.797       -1.209        2.440      241.675      153.974      105.642    58407.045    23707.895    11160.281       15.371        4.664      462.799      103.572        0.050      337.634        9.737      864.477
01/08/2021  15:09:00     -436.014       65.126      -24.632      207.316      152.114       85.467    42979.985    23138.729     7304.523       13.417        3.671      440.851       86.532        0.039      337.691        9.833      864.450
01/08/2021  15:10:00     -256.885       44.859       -9.860      293.814      149.972      100.406    86326.609    22491.564    10081.338        9.347        5.945      260.772      101.994        0.153      337.691        9.833      864.434
01/08/2021  15:11:00     -240.753       48.553        0.267      240.493      165.452       95.022    57836.850    27374.420     9029.182        7.726        4.712      245.600       93.702        0.146      337.784        9.989      864.470
01/08/2021  15:12:00     -506.219      113.237       -7.828      170.361      131.169       82.884    29022.854    17205.364     6869.716       16.111        2.655      518.730       84.110        0.026      337.647        9.760      864.503
01/08/2021  15:13:00     -309.477       92.378       -4.047      224.757      141.925       86.282    50515.873    20142.743     7444.528        9.120        3.905      322.970       68.636        0.045      337.832       10.069      864.519
01/08/2021  15:14:00     -425.927       81.136        3.607      297.875      160.834       99.554    88729.302    25867.624     9910.983       15.623        6.225      433.586      128.154        0.087      337.758        9.946      864.508
01/08/2021  15:15:00     -459.135      138.477        4.684      218.270      159.763      101.626    47641.814    25524.072    10327.908       15.673        4.175      479.563      104.488        0.047      337.725        9.890      864.528
01/08/2021  15:16:00     -452.537      103.693       -0.928      176.021      140.328       92.165    30983.290    19691.911     8494.384       13.734        2.958      464.265       91.929        0.039      337.726        9.891      864.551
01/08/2021  15:17:00     -236.102       -4.425        7.730      233.241      172.517      107.660    54401.429    29761.989    11590.775        7.577        4.788      236.143      108.383        0.211      337.757        9.943      864.528
01/08/2021  15:18:00     -397.629        1.265      -17.276      284.515      144.385       90.829    80948.917    20847.075     8249.979       13.420        5.502      397.631       90.354        0.052      337.741        9.918      864.535
01/08/2021  15:19:00     -368.563      100.578      -29.765      219.145      153.920       84.500    48024.378    23691.249     7140.306       11.283        3.943      382.040       63.358        0.028      337.701        9.849      864.556
01/08/2021  15:20:00     -390.133      103.888      -28.816      243.475      150.469       89.507    59280.018    22640.841     8011.454       12.686        4.497      403.728       84.720        0.044      337.746        9.926      864.545
01/08/2021  15:21:00     -289.507       50.031       28.593      248.254      138.268       81.796    61630.134    19117.992     6690.561        8.727        4.372      293.798       74.420        0.064      337.770        9.966      864.517
01/08/2021  15:22:00     -372.543      110.035       -7.175      219.630      154.187       88.032    48237.180    23773.760     7749.609       11.534        3.988      388.454      103.074        0.070      337.700        9.849      864.529
01/08/2021  15:23:00     -429.260       27.575      -36.959      139.169      118.980       81.589    19367.984    14156.258     6656.804       11.328        2.009      430.145       74.002        0.030      337.663        9.785      864.541
01/08/2021  15:24:00     -310.799      -85.024       -6.319      276.996      168.103      118.751    76726.733    28258.604    14101.873       11.145        5.954      322.219      133.177        0.171      337.627        9.725      864.502
01/08/2021  15:25:00     -338.455       70.044      -17.289      365.760      172.055      101.024   133780.095    29602.803    10205.948       14.664        8.679      345.627       63.068        0.033      337.639        9.746      864.512
01/08/2021  15:26:00     -423.924       76.509        9.917      257.120      174.146      104.023    66110.764    30326.987    10820.879       14.644        5.363      430.773      106.308        0.061      337.608        9.695      864.501
01/08/2021  15:27:00     -129.241        6.002        0.880      202.074      127.124       81.010    40833.772    16160.392     6562.637        4.013        3.178      129.380       59.346        0.210      337.774        9.972      864.553
01/08/2021  15:28:00     -276.362      -38.238      -25.239      170.660      163.888       81.519    29124.735    26859.309     6645.404        7.054        3.131      278.995       59.634        0.046      337.609        9.696      864.524
01/08/2021  15:29:00     -268.699      -56.290      -22.380      224.698      182.144      119.161    50489.079    33176.496    14199.454        8.685        4.893      274.532      116.536        0.180      337.590        9.664      864.534
01/08/2021  15:30:00     -377.940      -34.510      -17.507      291.344      160.855      108.463    84881.394    25874.285    11764.267       13.340        6.126      379.512       85.267        0.050      337.569        9.628      864.511
01/08/2021  15:31:00     -163.543       68.616        4.134      186.667      141.091       71.084    34844.672    19906.656     5052.905        4.563        2.990      177.354       83.263        0.220      337.837       10.078      864.563
01/08/2021  15:32:00     -162.277      -27.330        2.750      178.870      123.243       82.760    31994.474    15188.810     6849.188        4.055        2.702      164.562       66.673        0.164      337.744        9.922      864.572
01/08/2021  15:33:00     -485.770      -90.542      -34.375      317.095      191.654      122.385   100549.309    36731.326    14978.015       19.877        7.613      494.136      124.456        0.063      337.505        9.519      864.554
01/08/2021  15:34:00     -392.513      -87.037      -16.015      282.824      178.364      129.137    79989.563    31813.688    16676.482       14.516        6.424      402.047      129.769        0.104      337.415        9.370      864.556
01/08/2021  15:35:00     -297.071       -5.684       -6.753      275.123      152.350      100.183    75692.893    23210.471    10036.705        9.861        5.447      297.125      116.941        0.155      337.408        9.358      864.580
01/08/2021  15:36:00     -443.572       15.350      -30.344      293.627      183.426      106.852    86216.868    33645.071    11417.371       16.457        6.564      443.837      126.128        0.081      337.420        9.379      864.622
01/08/2021  15:37:00     -421.109       45.356      -11.338      231.173      159.407       83.785    53441.184    25410.531     7019.892       13.268        4.294      423.544       75.072        0.031      337.355        9.271      864.651
01/08/2021  15:38:00     -207.740       27.134       -5.192      248.615      168.227       85.658    61809.186    28300.442     7337.318        7.066        4.872      209.505       77.699        0.138      337.460        9.446      864.681
01/08/2021  15:39:00     -327.405      -54.517       -9.346      266.464      173.759      100.049    71003.257    30192.232    10009.842       11.071        5.560      331.913      114.393        0.119      337.361        9.282      864.718
01/08/2021  15:40:00     -304.925       16.842      -17.481      208.421      131.415       99.431    43439.167    17269.837     9886.592        8.207        3.530      305.390      105.085        0.118      337.334        9.236      864.750
01/08/2021  15:41:00     -265.867       -6.937      -11.963      189.805      147.924      101.443    36025.854    21881.558    10290.593        6.952        3.410      265.957       98.685        0.138      337.336        9.239      864.759
01/08/2021  15:42:00     -406.175       26.464      -25.056      226.924      187.801       94.922    51494.646    35269.365     9010.167       13.102        4.789      407.037       80.890        0.039      337.291        9.163      864.774
01/08/2021  15:43:00     -325.397       56.265       -6.193      157.154      150.154       80.556    24697.420    22546.297     6489.347        8.140        2.687      330.225       74.484        0.051      337.292        9.166      864.804
01/08/2021  15:44:00     -197.611       66.510      -20.708       98.497      100.953       50.734     9701.744    10191.466     2573.948        3.318        1.123      208.503       43.443        0.043      337.389        9.325      864.823
01/08/2021  15:45:00     -259.950       12.236       -3.311      159.071       96.575       62.893    25303.473     9326.727     3955.529        5.315        1.929      260.238       65.114        0.063      337.300        9.180      864.864
01/08/2021  15:46:00     -264.750       18.381       -3.973      170.133      136.254       80.468    28945.273    18565.189     6475.105        6.220        2.699      265.388       90.034        0.115      337.211        9.030      864.890
01/08/2021  15:47:00     -247.985      -13.944      -11.879      162.014      104.112       67.541    26248.558    10839.358     4561.725        5.173        2.082      248.377       67.623        0.074      337.228        9.058      864.917
01/08/2021  15:48:00     -260.057       78.196        7.164      187.838      124.644       78.724    35283.223    15536.124     6197.404        6.539        2.851      271.559       86.149        0.101      337.275        9.137      864.951
01/08/2021  15:49:00     -317.850       28.195       -2.474      172.988      120.349       73.470    29924.797    14483.989     5397.894        7.581        2.490      319.098       82.915        0.068      337.201        9.012      864.979
01/08/2021  15:50:00     -428.234       79.293      -11.099      162.946      167.242       80.591    26551.269    27969.854     6494.879       12.539        3.051      435.513       78.248        0.032      337.200        9.010      864.951
01/08/2021  15:51:00     -129.306      -11.991       -5.187      161.818       94.316       57.054    26185.134     8895.456     3255.206        2.761        1.917      129.861       42.841        0.109      337.303        9.186      864.971
01/08/2021  15:52:00     -141.655       53.367       -0.453      108.628       81.296       43.243    11799.980     6609.098     1869.945        2.159        1.014      151.374       41.831        0.076      337.347        9.259      864.995
01/08/2021  15:53:00     -261.612        7.906      -12.048      178.655      108.855       70.091    31917.470    11849.463     4912.780        5.865        2.434      261.731       82.783        0.100      337.353        9.267      865.012
01/08/2021  15:54:00     -164.377       10.902       -1.506       90.741       75.018       61.668     8233.976     5627.684     3802.996        2.240        0.883      164.738       51.805        0.099      337.447        9.425      865.040
01/08/2021  15:55:00     -295.615       60.576       10.738      157.739      113.270       66.698    24881.735    12830.012     4448.640        6.666        2.108      301.758       71.902        0.057      337.325        9.219      865.067
01/08/2021  15:56:00     -174.668       67.027        0.779      149.130      104.893       62.810    22239.690    11002.461     3945.038        3.609        1.859      187.087       57.473        0.094      337.439        9.411      865.090
01/08/2021  15:57:00     -248.735       51.932        0.068      185.017      101.686       73.812    34231.210    10340.075     5448.153        5.728        2.501      254.098       75.886        0.089      337.393        9.333      865.134
01/08/2021  15:58:00     -485.256      105.137      -10.876      161.892      121.549       71.637    26209.148    14774.205     5131.836       14.637        2.306      496.515       61.090        0.015      337.255        9.104      865.162
01/08/2021  15:59:00     -172.600       55.541       -4.902      138.847       93.662       59.499    19278.487     8772.485     3540.116        3.224        1.580      181.316       60.612        0.112      337.332        9.232      865.203
01/08/2021  16:00:00     -143.242       48.184       -6.358       93.691       82.890       45.838     8777.981     6870.807     2101.155        2.031        0.887      151.129       42.208        0.078      337.449        9.429      865.207
01/08/2021  16:01:00     -151.727       43.986      -10.429      134.041       83.688       53.034    17967.002     7003.634     2812.574        2.642        1.389      157.974       47.071        0.089      337.369        9.295      865.240
01/08/2021  16:02:00      -98.676       46.638        6.888      133.367       93.221       55.700    17786.714     8690.100     3102.455        2.076        1.479      109.142       38.378        0.124      337.571        9.635      865.269
01/08/2021  16:03:00     -174.136       16.250       -9.666      132.628       86.506       59.027    17590.207     7483.233     3484.216        2.961        1.428      174.892       54.809        0.098      337.339        9.245      865.279
01/08/2021  16:04:00     -114.939       42.424      -18.773       97.729       96.023       52.977     9551.040     9220.437     2806.597        1.847        1.079      122.518       36.508        0.089      337.361        9.282      865.266
01/08/2021  16:05:00     -160.956       22.080       -3.023      133.340       98.862       67.072    17779.468     9773.768     4498.695        2.922        1.603      162.464       58.632        0.130      337.414        9.368      865.249
01/08/2021  16:06:00     -216.513       69.976      -16.848      127.730       74.017       43.625    16314.980     5478.460     1903.137        3.787        1.185      227.540       19.174        0.007      337.271        9.129      865.238
01/08/2021  16:07:00     -248.504       11.155      -11.082       81.900       79.838       47.977     6707.571     6374.117     2301.786        3.869        0.769      248.754       34.900        0.020      337.261        9.113      865.224
01/08/2021  16:08:00     -253.985       33.994      -12.311      127.872       91.295       59.660    16351.202     8334.818     3559.276        4.702        1.412      256.250       51.158        0.040      337.295        9.170      865.226
01/08/2021  16:09:00     -153.834       63.246       -7.059      115.496       82.375       48.656    13339.278     6785.686     2367.421        2.510        1.125      166.328       50.475        0.092      337.363        9.285      865.256
01/08/2021  16:10:00     -362.354      104.047      -16.075      149.676      113.662       65.620    22403.037    12919.124     4306.003        9.100        1.981      376.997       59.298        0.025      337.266        9.121      865.251
01/08/2021  16:11:00     -167.485       26.196        8.022      160.808       88.349       55.682    25859.154     7805.463     3100.454        3.278        1.838      169.521       45.612        0.072      337.384        9.320      865.255
01/08/2021  16:12:00      -49.248       53.366        0.859       58.673       53.035       32.696     3442.538     2812.711     1069.052        0.630        0.366       72.617       24.642        0.115      337.441        9.417      865.297
01/08/2021  16:13:00      -39.222      -23.869      -21.668       61.659       89.469       34.097     3801.783     8004.629     1162.626        0.777        0.648       45.914       30.440        0.440      337.545        9.590      865.311
01/08/2021  16:14:00       -4.076        9.519      -14.753       53.284       42.489       34.233     2839.143     1805.285     1171.905        0.307        0.291       10.355       27.508        7.057      337.406        9.358      865.338
01/08/2021  16:15:00     -154.418       70.138      -21.951       74.808       68.273       30.600     5596.166     4661.183      936.385        2.022        0.560      169.600       20.548        0.015      337.361        9.282      865.362
01/08/2021  16:16:00     -147.509        8.689      -27.353      115.906       81.883       54.824    13434.258     6704.802     3005.679        2.286        1.157      147.764       52.795        0.128      337.313        9.202      865.385
01/08/2021  16:17:00      -87.644       18.550      -11.450       67.548       56.317       44.056     4562.746     3171.634     1940.968        0.891        0.484       89.585       30.852        0.119      337.384        9.322      865.403
01/08/2021  16:18:00       11.318       22.407       -5.913       36.720       22.679       23.734     1348.328      514.339      563.305        0.155        0.121       25.103       14.637        0.340      337.395        9.340      865.431
01/08/2021  16:19:00       -2.376       53.208       -6.646       44.210       62.621       27.646     1954.543     3921.386      764.281        0.476        0.332       53.261       21.372        0.161      337.361        9.282      865.451
01/08/2021  16:20:00      -51.508        2.353       -3.538       94.307       62.582       36.707     8893.895     3916.461     1347.428        0.841        0.708       51.562       24.792        0.231      337.315        9.207      865.491
01/08/2021  16:21:00      -12.308     -101.471      -19.264       85.532       54.690       46.587     7315.788     2990.997     2170.337        1.165        0.624      102.215       27.669        0.073      337.246        9.091      865.486
01/08/2021  16:22:00     -135.225       16.486      -17.185       97.592       63.371       46.367     9524.295     4015.876     2149.853        1.727        0.785      136.226       40.040        0.086      337.237        9.072      865.504
01/08/2021  16:23:00      -88.283        7.729       -3.311      103.494       67.058       41.069    10711.031     4496.832     1686.653        1.238        0.845       88.621       33.358        0.142      337.189        8.994      865.532
01/08/2021  16:24:00       32.975       11.601      -12.231       57.588       46.227       29.479     3316.339     2136.971      869.029        0.385        0.316       34.956       11.553        0.109      337.241        9.083      865.576
01/08/2021  16:25:00      -24.830       -0.063        2.117       80.016       47.878       34.465     6402.496     2292.268     1187.822        0.525        0.494       24.831       15.113        0.370      337.210        9.029      865.585
01/08/2021  16:26:00      -31.550       37.695       -5.582       46.277       30.707       24.017     2141.593      942.924      576.806        0.305        0.183       49.156       20.847        0.180      337.073        8.801      865.599
01/08/2021  16:27:00       -0.238       33.473        5.822       47.049       46.803       22.268     2213.593     2190.514      495.875        0.303        0.245       33.473       17.043        0.259      337.203        9.018      865.639
01/08/2021  16:28:00       57.020       64.066       -4.912       38.101       31.617       23.572     1451.649      999.654      555.637        0.519        0.150       85.766       17.330        0.041      337.096        8.840      865.685
01/08/2021  16:29:00       39.193       55.648       -7.230       46.811       63.287       26.174     2191.287     4005.297      685.102        0.578        0.344       68.065       22.544        0.110      336.883        8.485      865.749
01/08/2021  16:30:00       71.931       63.284      -14.502       90.862      100.988       35.892     8255.931    10198.536     1288.206        1.456        0.987       95.807       28.993        0.092      336.626        8.053      865.786
01/08/2021  16:31:00      -13.156      150.614      -16.452       68.560       92.116       47.915     4700.461     8485.372     2295.817        1.930        0.774      151.187       40.343        0.071      336.631        8.060      865.803
01/08/2021  16:32:00       87.936      183.544      -20.284      128.253       88.202       52.268    16448.707     7779.536     2731.994        3.439        1.348      203.521       57.270        0.079      336.454        7.764      865.824
01/08/2021  16:33:00        0.521      267.218      -16.957       76.013      114.505       45.613     5778.036    13111.284     2080.516        4.633        1.048      267.219       41.069        0.024      336.370        7.623      865.884
01/08/2021  16:34:00       -5.789      162.112      -19.968       52.436       72.688       28.999     2749.556     5283.488      840.963        1.779        0.444      162.216       26.257        0.026      336.355        7.600      865.909
01/08/2021  16:35:00       48.010       34.099      -11.420       60.574       71.124       38.244     3669.186     5058.588     1462.635        0.689        0.510       58.887       31.749        0.291      336.499        7.841      865.928
01/08/2021  16:36:00       17.817      350.368      -41.608      106.536      116.944       55.855    11349.929    13675.796     3119.827        7.647        1.407      350.821       56.076        0.026      336.357        7.600      865.964
01/08/2021  16:37:00       26.206      289.518      -19.308      130.968      189.721       71.018    17152.693    35994.206     5043.553        7.152        2.910      290.702       87.284        0.090      336.361        7.608      865.979
01/08/2021  16:38:00     -112.098      318.174      -25.519       78.008      125.920       48.319     6085.261    15855.753     2334.716        6.936        1.214      337.343       42.912        0.016      336.316        7.533      865.985
01/08/2021  16:39:00      -76.536      264.404       -3.435       76.603      102.437       45.795     5868.063    10493.282     2097.167        4.711        0.923      275.258       41.976        0.023      336.343        7.577      866.017
01/08/2021  16:40:00      -57.341      206.244      -27.112       89.543       98.807       48.117     8017.912     9762.861     2315.293        3.332        1.005      214.067       32.941        0.024      336.354        7.597      866.034
01/08/2021  16:41:00       35.777      343.893      -37.041       96.471      127.278       49.779     9306.674    16199.776     2477.904        7.444        1.399      345.749       50.296        0.021      336.267        7.451      866.045
01/08/2021  16:42:00       -4.680      306.954      -31.125      114.567      101.213       57.911    13125.584    10244.007     3353.723        6.096        1.336      306.989       43.462        0.020      336.320        7.538      866.054
01/08/2021  16:43:00      -20.758      295.765      -25.657      129.230      140.099       61.771    16700.469    19627.622     3815.606        6.435        2.007      296.492       17.956        0.004      336.312        7.528      866.067
01/08/2021  16:44:00      -16.211      315.777       -8.109      123.957      175.839       77.678    15365.447    30919.351     6033.806        7.617        2.616      316.193       87.700        0.077      336.273        7.462      866.091
01/08/2021  16:45:00       -7.747      391.047      -30.146      135.346      118.554       65.299    18318.587    14055.079     4264.020        9.525        1.832      391.124       42.488        0.012      336.215        7.362      866.098
01/08/2021  16:46:00      -69.178      285.731      -31.850      109.637      102.583       49.792    12020.325    10523.229     2479.259        5.623        1.251      293.986       46.182        0.025      336.239        7.404      866.136
01/08/2021  16:47:00      -16.110      186.978       -9.822       82.965       96.741       44.235     6883.181     9358.762     1956.703        2.675        0.910      187.671       42.377        0.051      336.337        7.569      866.129
01/08/2021  16:48:00      -86.279      243.010      -19.724      176.992      134.624       58.637    31326.140    18123.628     3438.278        5.988        2.644      257.872       56.016        0.047      336.331        7.557      866.139
01/08/2021  16:49:00      -52.695      199.158      -26.551      112.518      147.103       56.855    12660.364    21639.383     3232.533        4.033        1.877      206.012       74.474        0.131      336.303        7.512      866.107
01/08/2021  16:50:00       -5.944      378.563      -14.319      121.464      145.641       68.432    14753.490    21211.356     4682.962        9.209        2.032      378.610       63.132        0.028      336.183        7.310      866.149
01/08/2021  16:51:00       54.794      303.527      -29.790      101.540       99.036       52.732    10310.367     9808.053     2780.655        5.945        1.145      308.433       46.978        0.023      336.160        7.272      866.152
01/08/2021  16:52:00       34.454      418.618      -39.485      110.133      155.668       63.557    12129.345    24232.387     4039.532       10.919        2.020      420.034       65.888        0.025      336.146        7.248      866.148
01/08/2021  16:53:00      118.796      468.445      -43.458       82.800       96.983       54.175     6855.888     9405.644     2934.981       12.732        0.960      483.274       54.763        0.013      336.038        7.069      866.171
01/08/2021  16:54:00      -33.818      290.784      -28.339      109.380      103.882       48.745    11963.899    10791.532     2376.049        5.581        1.257      292.744       36.090        0.015      336.136        7.232      866.203
01/08/2021  16:55:00      -37.855      403.530      -15.806      113.830      136.032       63.670    12957.169    18504.684     4053.902       10.001        1.776      405.302       61.200        0.023      336.100        7.171      866.231
01/08/2021  16:56:00      -13.310      322.758      -20.332      121.553      121.093       56.970    14775.144    14663.457     3245.597        6.872        1.634      323.033       52.360        0.026      336.096        7.166      866.232
01/08/2021  16:57:00      -69.296      241.565      -13.962      103.387       93.739       61.651    10688.842     8786.916     3800.872        4.331        1.164      251.307       48.482        0.037      336.150        7.254      866.272
01/08/2021  16:58:00      -72.585      275.316      -24.575      105.757       99.797       49.413    11184.464     9959.424     2441.662        5.262        1.179      284.724       43.245        0.023      336.048        7.084      866.319
01/08/2021  16:59:00      -38.069      132.184      -38.302      138.578      113.760       42.863    19203.788    12941.386     1837.225        2.718        1.699      137.556       29.432        0.046      336.053        7.095      866.283
01/08/2021  17:00:00      -62.806      165.720      -22.348      136.298      130.890       51.301    18577.091    17132.161     2631.745        3.512        1.917      177.222       42.018        0.056      336.070        7.122      866.303
01/08/2021  17:01:00      -32.804      320.486      -13.692      102.651      132.991       66.688    10537.148    17686.501     4447.259        6.832        1.634      322.161       57.120        0.031      336.041        7.073      866.364
01/08/2021  17:02:00      -96.039      258.526       -8.647       87.556      119.403       46.956     7665.974    14257.086     2204.877        5.013        1.206      275.788       37.444        0.018      336.043        7.077      866.391
01/08/2021  17:03:00      -75.882      139.560       -1.675       98.848       94.118       49.488     9771.011     8858.193     2449.049        2.315        1.054      158.856       36.032        0.051      336.127        7.219      866.400
01/08/2021  17:04:00     -121.893      388.738      -26.845      106.555      122.488       57.281    11354.058    15003.299     3281.073        9.816        1.482      407.401       53.904        0.018      335.963        6.942      866.427
01/08/2021  17:05:00      -34.600      265.093      -17.457      105.707      137.628       51.726    11174.057    18941.588     2675.573        5.228        1.640      267.342       52.071        0.038      335.963        6.943      866.472
01/08/2021  17:06:00      -49.004      240.429      -16.772       84.223      154.573       44.824     7093.597    23892.821     2009.185        4.674        1.650      245.372       49.065        0.040      335.958        6.937      866.503
01/08/2021  17:07:00     -120.696      202.924       -9.787       98.909       93.825       47.371     9782.977     8803.041     2244.022        3.833        1.042      236.105       39.316        0.028      336.014        7.029      866.507
01/08/2021  17:08:00      -79.325      243.833      -30.159      119.911       99.918       54.081    14378.554     9983.640     2924.729        4.697        1.364      256.412       36.553        0.020      335.864        6.778      866.520
01/08/2021  17:09:00     -104.493      334.812      -17.018      127.408       90.347       53.995    16232.924     8162.546     2915.412        7.530        1.366      350.739       48.789        0.019      335.811        6.689      866.521
01/08/2021  17:10:00      -95.411      264.932      -26.409       95.660      108.266       55.347     9150.880    11721.609     3063.341        5.196        1.197      281.589       50.721        0.032      335.902        6.841      866.545
01/08/2021  17:11:00     -107.076      271.985      -19.663       78.547      126.326       51.586     6169.684    15958.203     2661.109        5.530        1.239      292.304       39.821        0.019      335.878        6.802      866.593
01/08/2021  17:12:00      -22.922      200.594       -8.528       70.546       71.941       47.631     4976.784     5175.467     2268.751        2.663        0.621      201.899       20.470        0.010      335.816        6.700      866.642
01/08/2021  17:13:00      -93.605      260.689      -22.700       80.872      117.107       50.156     6540.247    13714.138     2515.597        5.000        1.138      276.985       45.803        0.027      335.781        6.642      866.645
01/08/2021  17:14:00      -56.305      196.866      -26.417       97.331       91.282       45.882     9473.417     8332.411     2105.143        3.126        0.996      204.760       35.084        0.029      335.778        6.637      866.669
01/08/2021  17:15:00      -59.480      148.848       -8.980       98.259       87.312       52.022     9654.821     7623.445     2706.279        2.288        0.999      160.292       35.806        0.050      335.793        6.663      866.684
01/08/2021  17:16:00      -63.959      334.831      -23.342      130.861       92.678       59.739    17124.718     8589.258     3568.753        7.301        1.464      340.885       44.131        0.017      335.692        6.491      866.692
01/08/2021  17:17:00      -98.459      257.540      -15.172      145.110      144.082       64.650    21056.944    20759.679     4179.623        6.111        2.300      275.719       61.845        0.050      335.759        6.604      866.735
01/08/2021  17:18:00      -26.182      270.626      -11.913       96.192      106.103       61.698     9252.828    11257.846     3806.634        4.919        1.216      271.889       53.461        0.039      335.752        6.591      866.748
01/08/2021  17:19:00     -124.956      227.461       -4.512      121.153      100.785       65.050    14677.992    10157.549     4231.454        4.821        1.453      259.523       59.387        0.052      335.826        6.716      866.797
01/08/2021  17:20:00      -53.009      256.241      -19.789       65.320       94.656       36.490     4266.724     8959.767     1331.513        4.171        0.728      261.667       24.398        0.009      335.780        6.637      866.817
01/08/2021  17:21:00      -21.694      343.044      -23.786       86.691      117.796       61.185     7515.360    13875.838     3743.604        7.192        1.257      343.729       56.013        0.027      335.752        6.591      866.829
01/08/2021  17:22:00     -100.607      286.258      -28.903      101.460      107.062       51.073    10294.232    11462.249     2608.409        5.863        1.218      303.423       37.986        0.016      335.744        6.578      866.848
01/08/2021  17:23:00      -52.861      174.920       -0.821       78.453       96.075       39.329     6154.828     9230.392     1546.731        2.516        0.847      182.733       34.163        0.035      335.767        6.618      866.892
01/08/2021  17:24:00      -64.349      298.828      -22.357       78.175       94.098       48.765     6111.264     8854.462     2378.024        5.564        0.867      305.678       36.090        0.014      335.701        6.506      866.929
01/08/2021  17:25:00     -111.809      295.980      -29.989      124.000      162.564       65.549    15375.914    26427.029     4296.685        7.354        2.305      316.394       52.528        0.028      335.671        6.457      866.962
01/08/2021  17:26:00      -95.616      298.178      -10.668       91.618      134.285       57.696     8393.901    18032.487     3328.798        6.395        1.488      313.133       57.705        0.034      335.663        6.442      866.977
01/08/2021  17:27:00      -78.051      316.701      -17.030       89.149      147.104       60.718     7947.537    21639.477     3686.663        6.997        1.664      326.177       57.798        0.031      335.636        6.399      866.983
01/08/2021  17:28:00      -99.481      263.654      -25.370       91.225       99.513       57.080     8322.025     9902.788     3258.154        5.076        1.074      281.797       40.764        0.021      335.671        6.456      866.986
01/08/2021  17:29:00     -122.131      215.639      -33.169       75.300      130.291       55.052     5670.140    16975.639     3030.683        4.409        1.284      247.823       37.358        0.023      335.685        6.480      866.989
01/08/2021  17:30:00      -89.693      128.106      -22.538       75.462       90.600       46.281     5694.438     8208.441     2141.941        2.050        0.802      156.384       26.826        0.029      335.762        6.612      866.989
01/08/2021  17:31:00      -68.545      200.844       -1.185       82.146      101.829       45.505     6748.006    10369.117     2070.746        3.211        0.959      212.219       36.355        0.029      335.727        6.552      866.986
01/08/2021  17:32:00     -168.346      212.184      -24.037      139.213      101.690       56.689    19380.261    10340.846     3213.689        5.343        1.647      270.855       43.358        0.026      335.657        6.434      867.002
01/08/2021  17:33:00      -50.619      242.111      -11.252       85.759      113.201       48.971     7354.646    12814.577     2398.149        4.193        1.128      247.346       46.143        0.035      335.718        6.535      867.006
01/08/2021  17:34:00     -115.964      289.647      -26.593       95.847       92.674       57.436     9186.716     8588.444     3298.875        5.956        1.054      311.999       30.725        0.010      335.651        6.424      867.006
01/08/2021  17:35:00     -143.067      260.778      -28.695      125.217      116.991       59.387    15679.302    13686.997     3526.811        6.109        1.645      297.445       52.859        0.032      335.633        6.393      867.021
01/08/2021  17:36:00     -122.832      298.210      -14.800      102.748       95.592       54.817    10557.241     9137.779     3004.850        6.346        1.135      322.516       37.489        0.014      335.657        6.432      867.024
01/08/2021  17:37:00     -117.104      251.610      -13.646       74.773       99.965       52.581     5591.040     9993.007     2764.814        4.777        0.917      277.527       46.402        0.028      335.642        6.409      867.038
01/08/2021  17:38:00     -113.867      354.544      -23.951       89.560       88.662       50.569     8020.940     7860.963     2557.237        7.884        0.922      372.381       29.102        0.006      335.535        6.229      867.029
01/08/2021  17:39:00      -39.409      346.445      -17.814      121.329      108.931       66.629    14720.806    11865.969     4439.398        7.645        1.551      348.679       62.532        0.032      335.534        6.228      867.033
01/08/2021  17:40:00      -29.489      403.690      -16.677      148.161      174.698       71.893    21951.647    30519.539     5168.636       11.086        2.882      404.765       79.107        0.038      335.594        6.327      867.034
01/08/2021  17:41:00     -117.417      315.880      -29.813       81.246      135.289       59.276     6600.969    18303.168     3513.596        7.143        1.421      336.997       49.164        0.021      335.607        6.350      867.069
01/08/2021  17:42:00      -64.780      360.595      -19.894      105.607      116.137       63.462    11152.827    13487.742     4027.393        8.164        1.433      366.368       57.744        0.025      335.588        6.320      867.116
01/08/2021  17:43:00     -110.076      271.578      -20.832      119.541      122.024       57.634    14290.059    14889.816     3321.675        5.940        1.625      293.039       51.282        0.031      335.561        6.273      867.111
01/08/2021  17:44:00      -37.927      207.798      -19.003       83.210      102.358       48.296     6923.826    10477.241     2332.484        3.235        0.987      211.231       41.518        0.039      335.579        6.305      867.109
01/08/2021  17:45:00     -167.144      251.339      -31.387      117.582      132.747       62.195    13825.640    17621.730     3868.204        6.370        1.766      301.842       55.781        0.034      335.595        6.331      867.106
01/08/2021  17:46:00     -111.715      273.898      -21.493      118.913      162.850       65.892    14140.411    26520.180     4341.815        6.647        2.250      295.804       46.155        0.024      335.540        6.240      867.135
01/08/2021  17:47:00     -102.570      335.641      -17.212      107.722      105.829       61.420    11604.023    11199.696     3772.375        7.502        1.329      350.964       48.996        0.019      335.536        6.231      867.166
01/08/2021  17:48:00     -105.655      260.281       -8.848       99.738       99.755       49.887     9947.697     9951.011     2488.735        5.068        1.119      280.908       34.974        0.016      335.517        6.200      867.180
01/08/2021  17:49:00     -126.989      257.309      -13.209      117.381      104.160       50.092    13778.385    10849.327     2509.258        5.482        1.357      286.939       30.507        0.011      335.510        6.187      867.191
01/08/2021  17:50:00      -51.804      271.940       -3.494       79.661      116.901       55.037     6345.917    13665.817     3029.064        4.984        1.152      276.830       53.666        0.038      335.494        6.161      867.197
01/08/2021  17:51:00     -139.468      251.312      -28.030       87.065      113.431       45.479     7580.298    12866.556     2068.329        5.295        1.126      287.418       33.759        0.014      335.503        6.176      867.187
01/08/2021  17:52:00      -52.555      230.802      -18.212       63.285       86.145       40.895     4005.016     7421.027     1672.361        3.473        0.655      236.710       30.331        0.016      335.480        6.139      867.214
01/08/2021  17:53:00      -80.510      216.655      -15.137       99.883      130.688       50.759     9976.631    17079.273     2576.429        4.163        1.482      231.130       37.952        0.027      335.450        6.089      867.232
01/08/2021  17:54:00      -68.988      250.147      -13.884       65.989       90.539       42.986     4354.580     8197.285     1847.804        4.096        0.720      259.486       33.036        0.016      335.470        6.121      867.236
01/08/2021  17:55:00      -65.029      190.862       -4.592       66.731       77.800       42.942     4453.003     6052.842     1843.980        2.651        0.617      201.636       25.492        0.016      335.494        6.163      867.243
01/08/2021  17:56:00      -64.323      166.658       -4.058       62.193       73.906       36.638     3867.910     5462.054     1342.376        2.130        0.534      178.640       23.854        0.018      335.429        6.054      867.248
01/08/2021  17:57:00     -131.589      226.401      -30.024      103.457       98.540       51.498    10703.385     9710.064     2652.083        4.627        1.153      261.865       42.262        0.026      335.396        5.999      867.238
01/08/2021  17:58:00     -145.063      190.550      -15.769       91.601       82.362       45.476     8390.660     6783.557     2068.063        3.742        0.862      239.483       26.900        0.013      335.392        5.993      867.222
01/08/2021  17:59:00     -130.435      308.390      -29.193       96.182       82.777       58.088     9250.881     6851.992     3374.207        6.622        0.974      334.840       43.148        0.017      335.369        5.953      867.210
01/08/2021  18:00:00     -106.095      256.555      -16.035      111.045       94.338       49.873    12331.027     8899.606     2487.351        5.052        1.186      277.626       41.488        0.022      335.377        5.967      867.204
01/08/2021  18:01:00      -75.784      319.345      -19.704       95.376      103.918       58.551     9096.594    10798.922     3428.195        6.571        1.166      328.214       38.760        0.014      335.283        5.811      867.208
01/08/2021  18:02:00     -124.928      231.780      -21.358       67.344       94.365       41.828     4535.234     8904.824     1749.592        4.248        0.759      263.304       22.784        0.007      335.339        5.903      867.206
01/08/2021  18:03:00      -68.325      215.351      -12.915       53.098       61.838       41.316     2819.366     3823.966     1707.044        2.978        0.418      225.930       11.821        0.003      335.292        5.826      867.203
01/08/2021  18:04:00      -40.032       90.207       -6.337       82.135       69.701       36.382     6746.110     4858.263     1323.647        1.135        0.646       98.690       31.425        0.101      335.291        5.825      867.208
01/08/2021  18:05:00      -82.866      213.196       -8.470       91.432       96.656       39.436     8359.888     9342.386     1555.178        3.582        0.963      228.734       38.316        0.028      335.284        5.812      867.220
01/08/2021  18:06:00      -99.453      220.789      -21.790       74.626       60.381       42.053     5568.982     3645.811     1768.416        3.505        0.549      242.154       27.719        0.013      335.254        5.762      867.227
01/08/2021  18:07:00      -86.733      204.961      -11.848       62.899       93.562       33.387     3956.315     8753.932     1114.698        3.175        0.691      222.557       18.735        0.007      335.291        5.824      867.226
01/08/2021  18:08:00     -102.676      333.046      -27.353      143.321      106.806       58.136    20540.785    11407.434     3379.782        7.876        1.766      348.514       37.706        0.012      335.284        5.811      867.225
01/08/2021  18:09:00     -135.521      240.940      -19.505      120.225       96.610       63.239    14453.980     9333.513     3999.131        5.229        1.389      276.438       47.416        0.029      335.313        5.859      867.229
01/08/2021  18:10:00      -46.863      220.175       -9.139       81.952      106.245       44.821     6716.187    11287.937     2008.941        3.538        1.001      225.107       41.040        0.033      335.245        5.747      867.242
01/08/2021  18:11:00      -86.286      281.349      -12.929       99.735      138.182       56.011     9947.138    19094.310     3137.182        5.947        1.609      294.283       48.094        0.027      335.231        5.723      867.267
01/08/2021  18:12:00     -105.027      276.285      -21.214       92.104       68.438       54.592     8483.080     4683.802     2980.245        5.198        0.807      295.574       45.597        0.024      335.190        5.656      867.284
01/08/2021  18:13:00      -76.848      286.493      -26.900       90.876       79.859       44.736     8258.408     6377.384     2001.291        5.267        0.832      296.621       24.428        0.007      335.192        5.659      867.282
01/08/2021  18:14:00      -49.274      322.373      -24.746       76.786       83.962       49.022     5896.039     7049.620     2403.137        6.115        0.767      326.117       29.622        0.008      335.154        5.596      867.274
01/08/2021  18:15:00      -95.438      317.229      -15.478       92.229       91.363       53.416     8506.213     8347.172     2853.250        6.484        0.985      331.274       41.826        0.016      335.168        5.620      867.280
01/08/2021  18:16:00      -51.068      226.797      -10.063       76.651       84.095       40.716     5875.407     7071.931     1657.821        3.437        0.730      232.475       34.915        0.023      335.159        5.605      867.293
01/08/2021  18:17:00      -77.917      257.862      -12.890       90.294      133.791       65.536     8153.072    17900.065     4294.987        5.153        1.517      269.377       51.975        0.037      335.135        5.565      867.328
01/08/2021  18:18:00      -22.251      294.048       -8.464       85.061      108.174       56.785     7235.363    11701.645     3224.585        5.459        1.108      294.888       47.882        0.026      335.079        5.472      867.377
01/08/2021  18:19:00      -32.261      257.313       -7.398       90.474       94.376       54.631     8185.471     8906.844     2984.539        4.369        1.004      259.328       40.380        0.024      335.099        5.506      867.418
01/08/2021  18:20:00      -33.764      251.237      -10.112      102.632       87.654       47.860    10533.403     7683.261     2290.585        4.243        1.025      253.495       37.628        0.022      335.024        5.380      867.445
01/08/2021  18:21:00       31.470      274.328      -12.055       71.036       82.741       41.240     5046.106     6846.036     1700.740        4.499        0.680      276.127       33.798        0.015      334.999        5.341      867.469
01/08/2021  18:22:00       42.089      352.761      -32.623       89.080      122.905       47.772     7935.235    15105.670     2282.185        7.629        1.266      355.263       39.242        0.012      334.993        5.330      867.512
01/08/2021  18:23:00      -17.833      415.827      -26.792      114.359      122.348       59.369    13078.058    14968.966     3524.681       10.275        1.579      416.209       50.634        0.015      334.939        5.240      867.562
01/08/2021  18:24:00      -33.765      468.524      -25.651      101.480      112.339       63.366    10298.157    12620.136     4015.201       12.412        1.347      469.739       55.463        0.014      334.891        5.160      867.606
01/08/2021  18:25:00       29.762      371.263      -21.870      120.700      121.203       67.150    14568.417    14690.181     4509.173        8.648        1.688      372.454       45.288        0.015      334.861        5.109      867.640
01/08/2021  18:26:00       93.229      360.831      -23.944      183.804      141.687       68.282    33783.758    20075.118     4662.465        9.898        2.926      372.680       66.644        0.032      334.730        4.893      867.681
01/08/2021  18:27:00      164.526      404.086      -37.779      141.519      162.257       85.926    20027.750    26327.419     7383.327       12.275        2.687      436.296       80.732        0.034      334.639        4.741      867.728
01/08/2021  18:28:00       91.475      422.621      -25.815      104.259      134.775       60.784    10870.000    18164.179     3694.691       11.018        1.636      432.407       60.397        0.020      334.616        4.702      867.752
01/08/2021  18:29:00       76.029      258.181      -12.915       98.580      118.248       66.143     9718.079    13982.616     4374.835        5.033        1.404      269.143       64.684        0.058      334.609        4.692      867.754
01/08/2021  18:30:00       51.353      436.638      -22.186      103.241      168.830       63.673    10658.641    28503.535     4054.305       11.849        2.161      439.647       65.035        0.022      334.580        4.642      867.774
01/08/2021  18:31:00      131.162      501.001      -40.916      122.610      155.998       71.859    15033.303    24335.244     5163.780       15.720        2.227      517.885       75.941        0.022      334.534        4.566      867.794
01/08/2021  18:32:00       64.191      396.349      -13.482      127.791      166.058       83.984    16330.596    27575.259     7053.389       10.617        2.548      401.514       96.299        0.058      334.528        4.558      867.827
01/08/2021  18:33:00      161.467      617.532      -58.128      105.320      168.582       69.584    11092.200    28419.939     4841.923       22.757        2.218      638.293       68.935        0.012      334.492        4.498      867.874
01/08/2021  18:34:00      135.367      543.599      -45.126      111.109      148.071       79.090    12345.153    21925.016     6255.156       17.818        2.026      560.200       62.339        0.012      334.499        4.509      867.910
01/08/2021  18:35:00       23.533      391.386      -29.483      144.638      149.911       69.099    20920.192    22473.395     4774.693       10.138        2.408      392.092       69.154        0.031      334.531        4.562      867.933
01/08/2021  18:36:00       18.834      381.593      -13.781      125.194      135.292       70.714    15673.448    18304.027     5000.540        9.256        1.949      382.058       74.033        0.038      334.501        4.513      867.970
01/08/2021  18:37:00       63.549      366.780      -22.129      119.300      154.002       69.027    14232.589    23716.660     4764.680        9.088        2.136      372.244       78.467        0.044      334.479        4.476      867.992
01/08/2021  18:38:00       71.020      383.929      -36.995       97.564      165.478       44.408     9518.691    27382.901     1972.095        9.634        1.944      390.442       44.644        0.013      334.488        4.490      867.995
01/08/2021  18:39:00       51.664      329.161      -25.840      103.643      159.381       53.090    10741.875    25402.269     2818.521        7.531        1.948      333.190       57.286        0.030      334.468        4.457      867.990
01/08/2021  18:40:00      115.015      427.916      -42.165      102.050      147.101       60.747    10414.256    21638.698     3690.206       11.692        1.787      443.104       64.654        0.021      334.446        4.421      868.006
01/08/2021  18:41:00       25.106      483.902      -43.429      132.200      148.900       68.434    17476.793    22171.201     4683.215       14.050        2.217      484.553       53.855        0.012      334.436        4.404      868.017
01/08/2021  18:42:00       53.530      439.783      -30.555      108.382      144.189       62.645    11746.691    20790.579     3924.388       11.683        1.823      443.029       58.149        0.017      334.403        4.351      868.020
01/08/2021  18:43:00       86.774      534.555      -30.204      112.104      170.811       67.893    12567.326    29176.438     4609.490       17.026        2.318      541.552       86.051        0.025      334.385        4.319      868.040
01/08/2021  18:44:00       91.482      512.490      -34.847      128.040      142.630       73.989    16394.219    20343.427     5474.431       15.721        2.111      520.591       78.017        0.022      334.367        4.290      868.051
01/08/2021  18:45:00       25.377      392.530      -32.140      128.625      151.430       67.233    16544.512    22931.056     4520.278        9.987        2.200      393.349       73.718        0.035      334.371        4.296      868.066
01/08/2021  18:46:00       37.354      326.793      -21.962      117.966      118.931       67.463    13915.993    14144.668     4551.257        7.063        1.631      328.921       63.568        0.037      334.370        4.294      868.099
01/08/2021  18:47:00       91.326      418.751      -36.854      109.384      125.840       66.855    11964.842    15835.682     4469.583       10.865        1.614      428.594       66.057        0.024      334.352        4.266      868.109
01/08/2021  18:48:00       22.689      304.211      -22.577      116.725      131.941       64.033    13624.682    17408.422     4100.186        6.434        1.757      305.056       48.247        0.025      334.367        4.289      868.133
01/08/2021  18:49:00       71.500      427.699      -50.754      123.650      113.237       70.955    15289.301    12822.618     5034.636       11.187        1.657      433.634       58.956        0.018      334.363        4.284      868.159
01/08/2021  18:50:00      -65.425      319.095      -32.873      108.697      137.796       60.160    11815.086    18987.864     3619.280        7.080        1.721      325.733       53.710        0.027      334.421        4.380      868.176
01/08/2021  18:51:00      -34.172      444.607      -29.696      139.727      152.882       74.439    19523.693    23372.913     5541.212       12.407        2.422      445.918       65.479        0.022      334.376        4.304      868.170
01/08/2021  18:52:00       38.980      378.464      -21.235      104.047      100.192       56.910    10825.841    10038.339     3238.759        8.465        1.205      380.467       48.930        0.017      334.362        4.282      868.166
01/08/2021  18:53:00      -18.699      249.314        1.859       94.508       85.903       60.790     8931.724     7379.383     3695.409        4.125        1.000      250.014       48.500        0.038      334.353        4.267      868.172
01/08/2021  18:54:00      -76.847      356.976      -18.908      108.215      117.105       63.997    11710.579    13713.677     4095.650        8.160        1.476      365.154       49.993        0.019      334.331        4.230      868.156
01/08/2021  18:55:00       33.170      311.060      -24.958       82.670       95.746       49.602     6834.401     9167.221     2460.326        5.847        0.923      312.823       35.874        0.013      334.306        4.187      868.128
01/08/2021  18:56:00      -65.191      360.812      -42.614      159.802      142.004       66.789    25536.752    20165.135     4460.721        9.320        2.508      366.654       59.712        0.027      334.328        4.225      868.116
01/08/2021  18:57:00      -68.533      462.503      -34.532      115.845      170.532       76.004    13420.176    29081.039     5776.617       13.403        2.414      467.553       80.822        0.030      334.313        4.201      868.135
01/08/2021  18:58:00      -58.730      391.732      -21.619      103.388      123.971       60.845    10689.132    15368.830     3702.160        9.356        1.488      396.110       62.902        0.025      334.292        4.164      868.129
01/08/2021  18:59:00      -14.611      491.945      -36.756      122.208      117.826       74.534    14934.887    13882.854     5555.293       13.897        1.719      492.162       58.059        0.014      334.275        4.137      868.133
01/08/2021  19:00:00      -31.171      578.963      -27.645      156.039      154.679       83.935    24348.229    23925.523     7045.053       19.611        2.766      579.801       75.196        0.017      334.288        4.158      868.138
01/08/2021  19:01:00       -6.398      604.732      -31.931      164.463      185.101       83.200    27048.045    34262.384     6922.174       21.748        3.412      604.766       91.779        0.023      334.261        4.115      868.156
01/08/2021  19:02:00      -40.321      447.440      -24.906      107.975      166.410       72.733    11658.591    27692.259     5290.148       12.354        2.232      449.253       67.212        0.022      334.278        4.140      868.171
01/08/2021  19:03:00     -117.386      385.428      -31.436      159.013      130.190       65.578    25285.081    16949.485     4300.439       10.492        2.327      402.907       60.361        0.022      334.262        4.113      868.181
01/08/2021  19:04:00      -58.537      425.878      -30.512      132.531      144.341       71.910    17564.464    20834.410     5171.073       11.464        2.178      429.883       79.231        0.034      334.236        4.071      868.171
01/08/2021  19:05:00      -49.826      414.225      -22.820      121.885      151.129       70.351    14855.872    22840.072     4949.316       10.861        2.132      417.211       62.903        0.023      334.227        4.056      868.158
01/08/2021  19:06:00      -26.945      453.797      -44.723      159.221      167.810       78.044    25351.346    28160.181     6090.872       13.412        2.980      454.596       72.722        0.026      334.227        4.057      868.134
01/08/2021  19:07:00      -36.227      314.447       -8.823      105.625      167.651       64.687    11156.705    28106.930     4184.368        7.185        2.172      316.527       69.544        0.048      334.220        4.045      868.108
01/08/2021  19:08:00      -39.292      357.323      -19.015      116.277      123.561       66.053    13520.356    15267.407     4363.031        8.136        1.658      359.477       48.548        0.018      334.194        4.003      868.093
01/08/2021  19:09:00      -96.737      444.532      -34.663      109.530      187.792       60.047    11996.810    35265.995     3605.619       12.951        2.543      454.936       62.671        0.019      334.167        3.958      868.095
01/08/2021  19:10:00      -90.424      327.024      -19.261      111.093      131.750       60.454    12341.753    17358.073     3654.643        7.442        1.668      339.295       45.627        0.018      334.154        3.933      868.109
01/08/2021  19:11:00      -91.011      319.689      -16.823      118.629      125.463       69.013    14072.938    15740.999     4762.744        7.266        1.729      332.391       62.097        0.035      334.130        3.896      868.114
01/08/2021  19:12:00     -136.127      259.312       -7.600       70.427       60.443       48.977     4959.949     3653.415     2398.722        4.842        0.551      292.871       18.823        0.004      334.066        3.790      868.115
01/08/2021  19:13:00     -159.437      314.142      -31.447      116.673      121.972       59.125    13612.577    14877.155     3495.743        7.853        1.599      352.286       45.536        0.017      334.022        3.718      868.083
01/08/2021  19:14:00     -129.506      375.387      -34.730      113.062      159.274       51.157    12783.061    25368.192     2617.079        9.982        2.038      397.099       48.942        0.015      333.976        3.640      868.062
01/08/2021  19:15:00     -115.641      293.707      -12.739       80.080      119.205       49.155     6412.798    14209.899     2416.258        6.141        1.152      315.653       42.898        0.018      333.949        3.595      868.069
01/08/2021  19:16:00     -154.017      327.958      -20.624      105.138      124.286       55.210    11054.071    15446.892     3048.119        8.062        1.477      362.323       41.602        0.013      333.954        3.604      868.085
01/08/2021  19:17:00      -96.875      322.092      -36.616      126.442       94.502       63.254    15987.626     8930.538     4001.047        7.169        1.446      336.345       42.156        0.016      333.938        3.578      868.083
01/08/2021  19:18:00     -110.673      263.374       -8.873       84.727       98.046       46.840     7178.626     9613.041     2194.028        5.034        0.949      285.683       38.342        0.018      333.939        3.578      868.061
01/08/2021  19:19:00      -78.642      238.372      -20.262       86.615       87.385       58.625     7502.215     7636.180     3436.925        4.099        0.929      251.010       43.258        0.030      333.927        3.560      868.048
01/08/2021  19:20:00     -114.937      262.639      -27.381       77.867      112.039       49.357     6063.314    12552.631     2436.076        5.199        1.053      286.688       49.487        0.030      333.901        3.515      868.066
01/08/2021  19:21:00      -52.633      311.798      -24.793       90.504      116.022       51.567     8190.891    13461.086     2659.199        6.245        1.216      316.209       52.024        0.027      333.889        3.495      868.073
01/08/2021  19:22:00       -9.231      354.027      -16.455       94.802      135.062       62.531     8987.401    18241.659     3910.094        7.841        1.557      354.147       65.721        0.034      333.857        3.442      868.101
01/08/2021  19:23:00      -63.252      332.982      -27.879       95.177       81.148       56.046     9058.722     6584.956     3141.149        6.722        0.939      338.936       37.819        0.012      333.880        3.481      868.117
01/08/2021  19:24:00      -39.401      257.783       -6.551       96.253      104.288       61.636     9264.727    10876.008     3798.982        4.599        1.197      260.777       61.839        0.056      333.870        3.464      868.143
01/08/2021  19:25:00      -35.992      304.869       -9.693      114.789      141.880       68.414    13176.436    20129.948     4680.424        6.615        1.899      306.986       59.366        0.037      333.845        3.424      868.156
01/08/2021  19:26:00      -89.524      328.008      -25.947       82.497      119.301       58.798     6805.677    14232.646     3457.252        7.038        1.225      340.005       49.151        0.021      333.855        3.439      868.163
01/08/2021  19:27:00      -32.963      299.924      -21.457       83.584      117.267       63.521     6986.288    13751.504     4034.963        5.813        1.239      301.730       65.623        0.047      333.839        3.415      868.157
01/08/2021  19:28:00      -67.809      298.554      -29.584      136.799      109.433       51.771    18713.911    11975.574     2680.274        6.398        1.668      306.158       41.600        0.018      333.846        3.423      868.141
01/08/2021  19:29:00      -57.007      363.996      -14.297      115.172      130.485       67.687    13264.573    17026.366     4581.587        8.540        1.744      368.433       66.306        0.032      333.817        3.379      868.124
01/08/2021  19:30:00      -92.958      347.784      -26.809      124.995      120.821       72.273    15623.825    14597.754     5223.350        8.287        1.772      359.993       60.230        0.028      333.809        3.364      868.131
01/08/2021  19:31:00      -94.369      360.493      -16.684      115.353      139.527       55.610    13306.271    19467.879     3092.500        8.750        1.793      372.641       57.813        0.024      333.787        3.327      868.138
01/08/2021  19:32:00     -133.357      347.752      -16.988      113.245       98.917       60.858    12824.350     9784.513     3703.710        8.265        1.316      372.445       31.132        0.007      333.749        3.264      868.146
01/08/2021  19:33:00      -93.249      299.187      -38.383      119.666      132.447       61.583    14320.011    17542.139     3792.493        6.766        1.783      313.382       31.596        0.010      333.736        3.242      868.144
01/08/2021  19:34:00     -134.553      248.234      -26.186      111.854      115.644       54.760    12511.409    13373.543     2998.635        5.464        1.444      282.355       46.268        0.027      333.742        3.249      868.140
01/08/2021  19:35:00     -130.591      310.972      -31.262       89.827      116.354       47.988     8068.829    13538.285     2302.817        6.932        1.195      337.280       46.747        0.019      333.706        3.191      868.134
01/08/2021  19:36:00      -90.421      312.492      -21.023       73.017      131.859       56.075     5331.445    17386.922     3144.442        6.606        1.293      325.311       46.294        0.020      333.702        3.187      868.160
01/08/2021  19:37:00     -130.354      309.640      -20.860       99.680       92.184       53.913     9936.075     8497.881     2906.586        6.732        1.067      335.960       41.248        0.015      333.713        3.204      868.165
01/08/2021  19:38:00     -119.237      271.528      -14.574      102.296      112.626       58.854    10464.521    12684.682     3463.787        5.738        1.331      296.555       45.361        0.023      333.738        3.245      868.167
01/08/2021  19:39:00     -149.101      320.294      -21.426      125.302      100.577       62.394    15700.505    10115.810     3893.010        7.749        1.485      353.298       48.846        0.019      333.755        3.274      868.169
01/08/2021  19:40:00     -103.674      314.426      -11.624       92.889      103.681       55.239     8628.289    10749.673     3051.383        6.608        1.121      331.077       43.717        0.017      333.761        3.282      868.182
01/08/2021  19:41:00      -93.155      309.414      -18.812       98.962      122.330       58.219     9793.450    14964.548     3389.409        6.645        1.407      323.133       60.300        0.035      333.744        3.256      868.191
01/08/2021  19:42:00     -166.425      375.102      -28.991      120.240      111.693       72.688    14457.553    12475.413     5283.505       10.072        1.611      410.364       37.381        0.008      333.774        3.306      868.205
01/08/2021  19:43:00     -104.573      338.790      -36.366       82.770       97.795       56.384     6850.826     9563.893     3179.111        7.331        0.980      354.562       47.792        0.018      333.790        3.331      868.230
01/08/2021  19:44:00     -143.962      315.487      -32.456      111.079       90.131       46.894    12338.493     8123.620     2199.082        7.198        1.133      346.781       15.901        0.002      333.811        3.367      868.273
01/08/2021  19:45:00      -48.902      287.589      -18.609      112.665      100.242       56.136    12693.459    10048.434     3151.229        5.566        1.295      291.717       57.725        0.039      333.769        3.296      868.327
01/08/2021  19:46:00      -73.500      251.251      -22.125       72.517      149.727       44.798     5258.723    22418.126     2006.853        4.934        1.484      261.781       48.759        0.035      333.794        3.339      868.377
01/08/2021  19:47:00      -57.006      188.680       -0.806      117.438      130.263       52.431    13791.688    16968.487     2749.054        3.617        1.675      197.104       30.903        0.025      333.788        3.330      868.419
01/08/2021  19:48:00       -7.159      345.253      -18.170      120.931      125.379       68.961    14624.219    15719.833     4755.611        7.733        1.755      345.327       59.055        0.029      333.778        3.312      868.457
01/08/2021  19:49:00      -36.854      245.153      -16.259       82.103       98.376       51.881     6740.911     9677.930     2691.608        4.041        0.956      247.908       43.533        0.031      333.763        3.286      868.486
01/08/2021  19:50:00       44.327      234.081      -21.350       66.826       98.856       47.751     4465.707     9772.466     2280.181        3.686        0.826      238.241       36.881        0.024      333.752        3.270      868.513
01/08/2021  19:51:00       -6.285      255.174      -15.849       96.368       90.250       58.627     9286.786     8145.112     3437.089        4.313        1.043      255.252       45.734        0.032      333.726        3.225      868.534
01/08/2021  19:52:00       51.432      407.765      -31.560      100.649      112.474       66.652    10130.160    12650.435     4442.497        9.856        1.361      410.996       63.906        0.024      333.713        3.205      868.556
01/08/2021  19:53:00      -37.114      249.071      -24.908       79.725       89.711       49.643     6356.057     8048.048     2464.383        4.045        0.843      251.821       47.776        0.036      333.720        3.217      868.583
01/08/2021  19:54:00       24.142      217.695       -2.581       78.655       82.329       56.613     6186.627     6778.072     3205.005        3.207        0.808      219.029       44.106        0.041      333.704        3.191      868.610
01/08/2021  19:55:00       40.236      326.704      -34.728       68.762       83.631       46.761     4728.194     6994.141     2186.589        6.173        0.695      329.172       41.274        0.016      333.678        3.147      868.648
01/08/2021  19:56:00      -58.910      244.471      -13.267      103.638       99.045       61.018    10740.856     9809.996     3723.256        4.384        1.214      251.469       40.574        0.026      333.656        3.111      868.686
01/08/2021  19:57:00       -0.341      336.919      -23.388       91.264      110.111       53.130     8329.192    12124.466     2822.759        6.866        1.164      336.919       50.398        0.022      333.638        3.080      868.722
01/08/2021  19:58:00      -34.188      308.752      -26.648       97.615       84.239       50.047     9528.618     7096.264     2504.751        5.816        0.956      310.639       39.627        0.016      333.642        3.087      868.750
01/08/2021  19:59:00        4.363      336.304      -20.977      100.699      100.173       55.459    10140.311    10034.560     3075.749        6.840        1.163      336.333       52.190        0.024      333.619        3.050      868.791
01/08/2021  20:00:00       71.163      354.924      -20.551       78.586      110.308       39.520     6175.726    12167.767     1561.833        7.568        0.995      361.987       52.805        0.021      333.602        3.022      868.823
01/08/2021  20:01:00      -26.010      299.130      -25.697       98.067      103.173       46.821     9617.125    10644.609     2192.201        5.663        1.123      300.259       42.314        0.020      333.610        3.034      868.869
01/08/2021  20:02:00        7.185      351.212      -25.253       89.807      106.624       49.601     8065.318    11368.740     2460.275        7.296        1.095      351.285       41.046        0.014      333.589        2.999      868.911
01/08/2021  20:03:00        9.926      333.321      -17.449       87.780       82.055       48.860     7705.377     6733.065     2387.326        6.416        0.841      333.468       38.028        0.013      333.596        3.011      868.932
01/08/2021  20:04:00       46.109      339.639      -25.354       85.352       93.547       43.410     7285.018     8751.036     1884.424        6.802        0.896      342.755       45.486        0.018      333.567        2.963      868.956
01/08/2021  20:05:00        2.900      282.503      -18.986       85.017       97.875       49.260     7227.925     9579.587     2426.499        4.970        0.962      282.518       44.891        0.025      333.573        2.971      868.962
01/08/2021  20:06:00      -24.182      288.573      -28.098      118.819       83.016       51.108    14117.879     6891.738     2612.028        5.413        1.181      289.584       40.280        0.019      333.614        3.041      868.966
01/08/2021  20:07:00      -47.632      337.152      -32.554       69.703       88.486       45.680     4858.575     7829.763     2086.638        6.588        0.739      340.500       37.390        0.012      333.586        2.994      868.960
01/08/2021  20:08:00       12.734      335.398      -15.739       86.202      100.615       54.960     7430.741    10123.437     3020.643        6.673        1.029      335.640       54.512        0.026      333.597        3.013      868.954
01/08/2021  20:09:00        0.617      337.134      -16.359       84.466       96.528       54.206     7134.530     9317.673     2938.288        6.665        0.970      337.135       50.544        0.022      333.585        2.994      868.938
01/08/2021  20:10:00        8.021      283.687      -18.445       68.347       95.429       47.465     4671.317     9106.769     2252.971        4.845        0.802      283.800       43.293        0.023      333.597        3.013      868.922
01/08/2021  20:11:00        8.083      250.181      -22.956       61.847       91.784       48.357     3825.030     8424.354     2338.406        3.888        0.729      250.311       51.117        0.042      333.552        2.939      868.900
01/08/2021  20:12:00       10.134      305.066      -16.979       68.353       86.286       46.121     4672.108     7445.255     2127.143        5.385        0.712      305.235       33.330        0.012      333.571        2.969      868.887
01/08/2021  20:13:00       25.185      305.380      -13.416       67.102       74.385       42.258     4502.648     5533.145     1785.751        5.294        0.591      306.416       35.574        0.013      333.556        2.944      868.874
01/08/2021  20:14:00      -42.462      249.702      -20.417       72.038       92.282       44.019     5189.452     8516.040     1937.660        4.010        0.782      253.286       35.923        0.020      333.559        2.951      868.873
01/08/2021  20:15:00       -6.120      370.509      -19.873       87.539       96.184       53.426     7663.026     9251.305     2854.338        7.873        0.988      370.559       52.936        0.020      333.559        2.951      868.874
01/08/2021  20:16:00      -41.923      268.283      -14.645       79.679      121.565       44.018     6348.738    14778.142     1937.572        4.850        1.153      271.539       40.878        0.023      333.573        2.974      868.870
01/08/2021  20:17:00      -32.370      227.656       -7.354       70.493       77.957       44.099     4969.209     6077.337     1944.716        3.296        0.650      229.946       36.318        0.025      333.579        2.983      868.867
01/08/2021  20:18:00      -40.410      240.573       -0.970       76.496       97.937       49.472     5851.568     9591.624     2447.451        3.870        0.895      243.943       42.515        0.030      333.547        2.930      868.853
01/08/2021  20:19:00       16.906      302.929      -23.513      140.985      105.166       59.878    19876.808    11059.827     3585.395        6.356        1.726      303.401       54.029        0.032      333.531        2.902      868.833
01/08/2021  20:20:00       12.218      264.375      -20.704       88.515      115.922       50.007     7834.828    13437.861     2500.664        4.712        1.189      264.657       37.997        0.021      333.520        2.884      868.827
01/08/2021  20:21:00      -83.766      198.144      -16.478      105.886       80.345       56.168    11211.820     6455.301     3154.826        3.368        1.041      215.122       41.843        0.038      333.506        2.862      868.812
01/08/2021  20:22:00        7.135      275.224      -13.149       92.298       89.899       51.930     8518.988     8081.829     2696.741        4.763        0.965      275.316       36.642        0.018      333.465        2.793      868.795
01/08/2021  20:23:00       29.031      345.752      -29.592      119.305      100.238       53.877    14233.751    10047.633     2902.715        7.422        1.359      346.969       48.771        0.020      333.465        2.793      868.797
01/08/2021  20:24:00        3.713      288.179      -16.218       78.817      110.456       59.453     6212.182    12200.437     3534.635        5.263        1.097      288.203       41.732        0.021      333.445        2.760      868.797
01/08/2021  20:25:00      -26.032      367.833      -27.242       84.817      111.704       60.815     7193.893    12477.791     3698.495        8.004        1.169      368.753       56.958        0.024      333.438        2.749      868.794
01/08/2021  20:26:00       14.496      357.076      -29.936       90.681      139.945       60.842     8222.980    19584.466     3701.744        8.005        1.575      357.370       60.231        0.028      333.417        2.716      868.791
01/08/2021  20:27:00      -11.509      274.834        3.118       92.293      112.197       56.527     8518.015    12588.230     3195.251        4.998        1.215      275.075       57.097        0.043      333.411        2.705      868.787
01/08/2021  20:28:00       -1.805      292.100       -4.696       99.223      104.806       49.118     9845.170    10984.315     2412.591        5.429        1.162      292.105       38.616        0.017      333.404        2.692      868.787
01/08/2021  20:29:00      -11.720      303.510      -10.646       86.070      123.004       56.531     7408.077    15129.962     3195.734        5.905        1.287      303.736       43.850        0.021      333.396        2.681      868.793
01/08/2021  20:30:00      -24.796      335.790      -19.674      110.764      108.619       52.412    12268.582    11798.107     2747.058        7.028        1.341      336.704       40.641        0.015      333.376        2.647      868.794
01/08/2021  20:31:00       40.616      278.860      -10.444      117.625      146.502       59.718    13835.523    21462.779     3566.268        5.918        1.943      281.802       70.305        0.062      333.343        2.594      868.809
01/08/2021  20:32:00       78.240      376.076      -19.538      120.383      126.737       63.434    14492.175    16062.168     4023.893        9.125        1.729      384.129       65.224        0.029      333.291        2.506      868.839
01/08/2021  20:33:00       -8.701      232.998       -2.391       97.152       85.533       48.094     9438.590     7315.810     2313.030        3.671        0.953      233.160       37.835        0.026      333.296        2.515      868.884
01/08/2021  20:34:00       63.178      299.533      -20.730       78.066       86.797       47.499     6094.345     7533.643     2256.126        5.501        0.794      306.124       42.224        0.019      333.339        2.585      868.907
01/08/2021  20:35:00      113.778      323.735      -27.452       75.605      127.905       47.949     5716.133    16359.633     2299.097        7.143        1.219      343.147       50.544        0.022      333.298        2.518      868.903
01/08/2021  20:36:00       79.281      296.364      -29.089       70.243      144.172       49.403     4934.049    20785.586     2440.635        6.156        1.408      306.786       61.779        0.041      333.284        2.494      868.910
01/08/2021  20:37:00      104.160      365.000      -33.581       74.964      111.702       46.754     5619.578    12477.438     2185.956        8.274        1.014      379.571       41.641        0.012      333.297        2.515      868.911
01/08/2021  20:38:00       48.121      284.224      -34.754      119.405      102.992       49.633    14257.491    10607.305     2463.466        5.581        1.366      288.269       52.353        0.033      333.325        2.562      868.932
01/08/2021  20:39:00       35.783      331.929      -24.066       81.648      106.600       58.121     6666.321    11363.600     3377.999        6.672        1.070      333.852       47.670        0.020      333.310        2.538      868.949
01/08/2021  20:40:00       47.051      328.617      -21.281       79.782      111.770       50.294     6365.176    12492.575     2529.507        6.602        1.069      331.969       53.963        0.026      333.369        2.635      868.985
01/08/2021  20:41:00       -2.063      227.659      -15.918       84.311      110.495       47.526     7108.307    12209.181     2258.748        3.683        1.079      227.668       52.248        0.053      333.346        2.599      869.013
01/08/2021  20:42:00       25.391      174.592      -10.539       64.766       66.044       39.575     4194.643     4361.875     1566.162        2.068        0.506      176.429       43.956        0.062      333.303        2.528      869.027
01/08/2021  20:43:00       24.371      153.138       -6.887       74.758       51.735       31.406     5588.725     2676.526      986.351        1.667        0.463      155.065       19.888        0.016      333.322        2.560      869.020
01/08/2021  20:44:00      -31.381      146.433       -2.562       73.909       50.045       40.319     5462.612     2504.528     1625.629        1.601        0.480      149.758       24.649        0.027      333.370        2.641      869.029
01/08/2021  20:45:00      -17.123      252.192      -10.384       73.031       93.079       46.197     5333.483     8663.682     2134.147        4.006        0.807      252.773       41.467        0.027      333.342        2.591      869.016
01/08/2021  20:46:00      -83.468      220.039      -17.403       59.557      114.465       42.062     3547.084    13102.259     1769.233        3.705        0.921      235.338       39.480        0.028      333.403        2.692      869.011
01/08/2021  20:47:00      -42.438       99.065       -9.167       71.263       89.015       38.694     5078.413     7923.603     1497.190        1.310        0.725      107.772       14.350        0.018      333.412        2.710      869.002
01/08/2021  20:48:00      -84.611      187.720      -11.783       81.972       77.515       45.816     6719.384     6008.519     2099.115        2.868        0.741      205.907       37.849        0.034      333.445        2.763      869.002
01/08/2021  20:49:00     -130.577      216.718      -16.249       67.410       91.282       51.891     4544.129     8332.487     2692.719        3.992        0.778      253.015       46.926        0.034      333.439        2.751      868.989
01/08/2021  20:50:00      -95.472      225.987      -22.310       76.686       74.020       44.054     5880.749     5478.933     1940.747        3.699        0.665      245.326       33.210        0.018      333.428        2.733      868.976
01/08/2021  20:51:00     -129.430      157.358      -25.146       95.290       97.347       48.617     9080.244     9476.402     2363.612        3.153        1.046      203.749       42.627        0.044      333.401        2.690      868.973
01/08/2021  20:52:00     -146.139      175.096      -25.366       95.484       91.697       53.569     9117.273     8408.343     2869.684        3.652        1.020      228.068       35.513        0.024      333.386        2.663      868.954
01/08/2021  20:53:00      -49.175      120.547      -10.464       56.188       82.753       43.562     3157.051     6847.981     1897.618        1.448        0.595      130.191       32.920        0.064      333.369        2.638      868.959
01/08/2021  20:54:00      -58.177       64.720      -11.509       62.029       52.576       55.011     3847.560     2764.252     3026.167        0.867        0.482       87.025       38.536        0.196      333.377        2.652      868.970
01/08/2021  20:55:00      -65.346      161.366      -12.064       73.978       70.553       36.171     5472.729     4977.682     1308.362        2.110        0.588      174.095       15.930        0.008      333.349        2.603      868.973
01/08/2021  20:56:00      -77.391      134.222      -19.112       84.658       89.069       44.887     7167.011     7933.319     2014.851        2.074        0.856      154.935       22.639        0.021      333.343        2.593      868.968
01/08/2021  20:57:00     -151.958      101.968      -21.783       76.196      105.262       42.779     5805.837    11080.064     1830.008        2.634        0.936      183.000       34.116        0.035      333.297        2.519      868.946
01/08/2021  20:58:00     -102.306       84.012      -18.911       73.049       69.503       42.821     5336.187     4830.652     1833.632        1.494        0.600      132.380       37.699        0.081      333.285        2.499      868.929
01/08/2021  20:59:00     -115.838       51.885      -16.113      117.038       72.734       35.484    13697.961     5290.255     1259.143        1.830        1.012      126.927       37.767        0.089      333.224        2.397      868.917
01/08/2021  21:00:00      -36.956       36.211        9.480       64.307       73.597       39.079     4135.386     5416.573     1527.138        0.692        0.554       51.739       24.043        0.216      333.211        2.376      868.897
01/08/2021  21:01:00       17.255       28.230        0.926       78.972       78.747       48.748     6236.619     6201.097     2376.344        0.795        0.741       33.085       36.856        1.241      333.211        2.377      868.902
01/08/2021  21:02:00      -56.820       72.647      -11.603       82.121       75.563       33.969     6743.821     5709.821     1153.896        1.112        0.680       92.228       18.579        0.041      333.210        2.374      868.920
01/08/2021  21:03:00      -86.925      151.526      -17.910       89.300       79.064       35.918     7974.519     6251.053     1290.104        2.317        0.776      174.688       27.432        0.025      333.233        2.411      868.942
01/08/2021  21:04:00     -118.433      209.805      -14.314       80.141       85.188       44.114     6422.620     7256.919     1946.086        3.693        0.781      240.924       39.763        0.027      333.219        2.386      868.979
01/08/2021  21:05:00      -60.508      115.048      -18.636       62.385       59.127       42.636     3891.923     3495.954     1817.828        1.322        0.460      129.989       38.090        0.086      333.227        2.403      869.019
01/08/2021  21:06:00      -37.854       97.459       -4.509       50.709       45.042       27.262     2571.425     2028.774      743.240        0.815        0.267      104.553       20.688        0.039      333.228        2.404      869.064
01/08/2021  21:07:00      -38.554       57.358       -7.252       44.493       44.935       25.986     1979.597     2019.156      675.256        0.475        0.234       69.111       20.265        0.086      333.193        2.346      869.094
01/08/2021  21:08:00      -17.529      -34.354        1.226       41.175       28.740       25.582     1695.413      825.970      654.443        0.233        0.159       38.567       12.685        0.108      333.219        2.390      869.107
01/08/2021  21:09:00      -50.937       15.753       -1.747       51.626       33.410       19.297     2665.229     1116.229      372.383        0.350        0.208       53.317       11.877        0.050      333.182        2.329      869.128
01/08/2021  21:10:00      -61.653        0.767       -6.151       51.379       20.966       13.968     2639.781      439.571      195.104        0.356        0.164       61.658       13.850        0.050      333.123        2.234      869.147
01/08/2021  21:11:00       84.672       12.893      -12.317       54.366       42.920       35.612     2955.633     1842.128     1268.196        0.678        0.303       85.648       24.645        0.083      333.266        2.468      869.149
01/08/2021  21:12:00       16.724       15.418       -5.543       38.738       31.494       23.595     1500.595      991.899      556.732        0.180        0.152       22.747       14.031        0.380      333.207        2.370      869.174
01/08/2021  21:13:00      -33.177       -4.326        2.415       42.834       29.670       22.995     1834.734      880.289      528.787        0.218        0.162       33.458       11.743        0.123      333.152        2.278      869.183
01/08/2021  21:14:00      -65.188        3.457       -8.070       55.777       66.682       36.700     3111.119     4446.530     1346.856        0.661        0.445       65.280       13.388        0.042      333.114        2.219      869.177
01/08/2021  21:15:00      -45.005       -7.759      -25.526       64.714       48.420       32.531     4187.951     2344.462     1058.280        0.516        0.380       45.669       27.633        0.366      333.209        2.372      869.159
01/08/2021  21:16:00       28.683       22.435       -9.899       42.736       31.272       27.521     1826.378      977.931      757.407        0.249        0.178       36.415       20.677        0.322      333.237        2.420      869.141
01/08/2021  21:17:00       17.155      -55.494      -12.927       32.901       45.304       26.708     1082.487     2052.458      713.301        0.369        0.192       58.085       13.443        0.054      333.191        2.344      869.114
01/08/2021  21:18:00        6.077      -31.027       -3.392       38.438       47.201       25.516     1477.512     2227.907      651.084        0.268        0.218       31.616       17.171        0.295      333.166        2.303      869.085
01/08/2021  21:19:00     -103.827      -43.597       -5.186       67.334       37.684       31.826     4533.934     1420.072     1012.880        0.984        0.348      112.609       35.290        0.098      333.163        2.297      869.056
01/08/2021  21:20:00      -29.755       17.329       -5.788       63.293       38.885       19.224     4006.009     1512.011      369.568        0.355        0.294       34.433       10.473        0.093      333.187        2.337      869.041
01/08/2021  21:21:00      -70.638       22.896       -5.592       73.535       25.178       29.393     5407.432      633.923      863.948        0.622        0.345       74.256       34.973        0.222      333.074        2.151      869.043
01/08/2021  21:22:00      -28.992      -40.073       -4.347       35.590       44.228       22.559     1266.635     1956.132      508.893        0.310        0.187       49.461       19.214        0.151      333.108        2.207      869.038
01/08/2021  21:23:00      -55.940       30.994       -7.081       41.467       31.641       21.536     1719.521     1001.169      463.809        0.366        0.159       63.953       16.598        0.067      333.045        2.101      869.034
01/08/2021  21:24:00        5.515      -31.895       -7.601       29.458       42.875       19.651      867.791     1838.238      386.168        0.210        0.155       32.368       22.516        0.484      333.052        2.112      869.034
01/08/2021  21:25:00      -36.517      -26.068      -20.223       65.579       31.128       23.503     4300.596      968.928      552.411        0.412        0.291       44.867       30.931        0.475      333.095        2.185      869.043
01/08/2021  21:26:00      -60.038       -5.706       -6.097       39.917       36.861       25.675     1593.375     1358.705      659.199        0.364        0.181       60.309       23.631        0.154      333.028        2.074      869.064
01/08/2021  21:27:00      -93.969      -82.712       -9.546       30.251       31.851       19.079      915.138     1014.465      364.001        0.903        0.115      125.186       11.922        0.009      333.067        2.140      869.071
01/08/2021  21:28:00     -138.029        1.551       -5.567       61.648       51.441       24.129     3800.504     2646.159      582.199        1.306        0.351      138.038       24.847        0.032      333.065        2.135      869.097
01/08/2021  21:29:00      -96.292       20.000       -6.998       56.052       48.454       31.487     3141.882     2347.799      991.436        0.810        0.324       98.348       24.137        0.060      332.935        1.921      869.123
01/08/2021  21:30:00      -69.254      -10.407        2.759       66.792       52.856       26.472     4461.155     2793.707      700.789        0.643        0.398       70.032       22.464        0.103      333.026        2.072      869.149
01/08/2021  21:31:00     -100.378       -4.806      -16.190       59.450       50.557       37.046     3534.331     2556.018     1372.421        0.891        0.373      100.493       29.660        0.087      333.131        2.244      869.105
01/08/2021  21:32:00      -60.929       43.928       -4.743       35.868       38.297       23.541     1286.481     1466.673      554.163        0.449        0.165       75.114       27.344        0.133      333.148        2.272      869.087
01/08/2021  21:33:00      -50.254       49.109      -11.944       32.275       31.488       16.498     1041.654      991.463      272.193        0.369        0.115       70.265       15.276        0.047      333.101        2.195      869.106
01/08/2021  21:34:00      -55.176       67.956        0.508       26.828       23.551       15.884      719.754      554.661      252.289        0.459        0.076       87.535       16.139        0.034      332.993        2.018      869.133
01/08/2021  21:35:00      -43.376       49.463       -2.749       23.738       24.878       16.339      563.478      618.894      266.978        0.289        0.072       65.788       14.036        0.046      333.049        2.110      869.136
01/08/2021  21:36:00      -43.694       21.908       -6.329       25.865       32.115       22.027      669.017     1031.389      485.178        0.231        0.109       48.879       25.666        0.276      333.038        2.090      869.119
01/08/2021  21:37:00      -52.758       -8.845       -4.796       34.841       23.346       15.456     1213.924      545.042      238.901        0.244        0.100       53.494       12.250        0.052      333.048        2.108      869.106
01/08/2021  21:38:00      -64.091       -2.108        3.209       52.354       29.290       19.088     2740.896      857.888      364.370        0.404        0.198       64.125       18.869        0.087      333.068        2.142      869.107
01/08/2021  21:39:00      -83.789        1.635        1.530       42.393       33.662       24.713     1797.203     1133.118      610.710        0.528        0.177       83.805       19.666        0.055      333.160        2.292      869.112
01/08/2021  21:40:00      -70.208        0.823        8.387       37.085       28.760       23.504     1375.288      827.159      552.416        0.388        0.138       70.213       19.162        0.074      333.114        2.217      869.110
01/08/2021  21:41:00      -55.592       -3.410        1.697       41.711       34.174       19.171     1739.849     1167.869      367.520        0.319        0.164       55.696       19.828        0.127      333.124        2.233      869.113
01/08/2021  21:42:00      -80.922       12.387       -2.366       64.878       28.746       22.168     4209.108      826.328      491.418        0.612        0.276       81.865       29.739        0.132      333.158        2.290      869.120
01/08/2021  21:43:00      -94.801       16.871        0.855       28.933       34.658       24.822      837.128     1201.179      616.131        0.596        0.133       96.291       23.336        0.059      333.074        2.152      869.125
01/08/2021  21:44:00      -32.029       28.035       -1.346       34.605       22.997       14.301     1197.514      528.881      204.521        0.187        0.097       42.565       14.493        0.116      333.215        2.384      869.116
01/08/2021  21:45:00        3.236       29.344        0.909       21.917       19.897       13.901      480.336      395.887      193.234        0.097        0.053       29.522       12.289        0.173      333.342        2.592      869.113
01/08/2021  21:46:00      -25.530       47.726        2.058       24.966       28.564       17.092      623.326      815.897      292.131        0.233        0.087       54.125       18.174        0.113      333.277        2.486      869.148
01/08/2021  21:47:00      -22.452       23.253       -0.923       24.220       30.527       17.485      586.600      931.923      305.710        0.143        0.091       32.323       19.959        0.381      333.181        2.329      869.177
01/08/2021  21:48:00        6.767       39.855        6.187       22.003       33.949       19.960      484.112     1152.562      398.416        0.185        0.102       40.425       18.910        0.219      333.181        2.328      869.201
01/08/2021  21:49:00       16.402       46.768        3.008       35.445       24.453       17.229     1256.350      597.928      296.854        0.231        0.108       49.560       15.855        0.102      333.177        2.319      869.226
01/08/2021  21:50:00       57.643       13.891       -3.490       29.595       28.428       20.365      875.836      808.174      414.720        0.281        0.105       59.293       15.469        0.068      333.165        2.301      869.232
01/08/2021  21:51:00       61.996        3.574       -3.016       42.092       32.528       26.521     1771.776     1058.081      703.338        0.370        0.177       62.099       23.810        0.147      333.055        2.121      869.226
01/08/2021  21:52:00       45.248        9.794       -3.827       45.139       16.202       23.108     2037.510      262.509      533.976        0.250        0.142       46.296       26.832        0.336      332.815        1.723      869.228
01/08/2021  21:53:00       39.886       31.211       -5.229       40.607       24.687       24.341     1648.965      609.437      592.463        0.272        0.143       50.646       20.649        0.166      332.711        1.553      869.239
01/08/2021  21:54:00       85.844       32.098       -4.059       51.590       33.419       26.420     2661.536     1116.812      697.992        0.645        0.224       91.649       28.422        0.096      332.756        1.625      869.234
01/08/2021  21:55:00       81.639       25.444      -10.159       47.039       30.618       24.605     2212.658      937.456      605.430        0.558        0.188       85.512       26.819        0.098      332.816        1.725      869.223
01/08/2021  21:56:00       93.545       58.745       -6.511       37.093       30.767       18.979     1375.883      946.604      360.204        0.746        0.134      110.461       17.126        0.024      332.727        1.578      869.206
01/08/2021  21:57:00       80.466       54.020      -11.498       26.541       26.147       18.497      704.399      683.684      342.134        0.563        0.087       96.917       14.213        0.022      332.819        1.730      869.190
01/08/2021  21:58:00       60.682       51.269       -9.052       49.175       28.302       24.011     2418.135      801.016      576.550        0.509        0.190       79.441       24.082        0.092      332.757        1.627      869.180
01/08/2021  21:59:00       59.791       62.175       -5.785       36.562       34.307       23.017     1336.809     1176.960      529.780        0.526        0.152       86.260       18.901        0.048      332.571        1.319      869.171
01/08/2021  22:00:00       64.207       71.504       -3.344       48.152       24.226       26.062     2318.586      586.920      679.243        0.641        0.179       96.100       24.535        0.065      332.610        1.385      869.172
01/08/2021  22:01:00       83.621       71.609       -7.457       55.562       32.108       25.471     3087.133     1030.917      648.783        0.847        0.238      110.092       23.932        0.047      332.560        1.303      869.178
01/08/2021  22:02:00      138.287       66.765      -11.973       47.304       43.982       28.582     2237.639     1934.422      816.947        1.436        0.249      153.561       16.877        0.012      332.633        1.422      869.189
01/08/2021  22:03:00      114.326       70.184       -8.214       52.152       36.879       31.349     2719.835     1360.085      982.784        1.156        0.253      134.150       24.429        0.033      332.684        1.506      869.205
01/08/2021  22:04:00      104.307       45.521      -10.677       61.507       44.427       32.677     3783.156     1973.726     1067.780        0.994        0.341      113.807       33.709        0.088      332.673        1.489      869.218
01/08/2021  22:05:00      102.391       32.287       -3.133       84.315       52.100       33.506     7109.075     2714.371     1122.650        1.124        0.547      107.360       42.397        0.156      332.726        1.573      869.243
01/08/2021  22:06:00       69.397       22.996       -4.522       55.723       39.260       33.570     3105.099     1541.327     1126.940        0.557        0.289       73.108       30.273        0.171      332.711        1.551      869.249
01/08/2021  22:07:00       74.131       33.184      -10.792       47.344       44.171       24.935     2241.455     1951.107      621.732        0.576        0.241       81.219       23.913        0.087      332.497        1.199      869.256
01/08/2021  22:08:00       78.914        8.698      -10.346       49.946       43.265       26.652     2494.609     1871.825      710.318        0.574        0.254       79.392       28.162        0.126      332.515        1.229      869.255
01/08/2021  22:09:00      105.378       44.658      -11.766       49.279       27.071       25.179     2428.387      732.865      633.973        0.852        0.190      114.450       28.069        0.060      332.350        0.955      869.267
01/08/2021  22:10:00      100.461       75.308      -11.050       42.927       33.205       24.937     1842.767     1102.543      621.875        0.973        0.178      125.553       23.975        0.036      332.523        1.241      869.282
01/08/2021  22:11:00      115.737       35.928       -7.475       41.177       43.197       25.955     1695.529     1866.014      673.655        0.949        0.212      121.185       22.583        0.035      332.603        1.373      869.276
01/08/2021  22:12:00      105.633       17.160       -1.632       48.516       41.171       30.387     2353.836     1695.062      923.384        0.821        0.249      107.018       25.182        0.055      332.684        1.507      869.273
01/08/2021  22:13:00      115.722       23.465      -10.474       50.426       39.570       29.559     2542.795     1565.819      873.749        0.952        0.249      118.077       29.843        0.064      332.581        1.336      869.285
01/08/2021  22:14:00      130.544       57.637      -16.788       58.563       51.498       35.898     3429.642     2651.994     1288.688        1.401        0.369      142.701       29.858        0.044      332.552        1.288      869.293
01/08/2021  22:15:00      120.775       65.923      -15.080       42.226       35.467       23.550     1783.022     1257.902      554.606        1.138        0.180      137.595       13.870        0.010      332.530        1.252      869.319
01/08/2021  22:16:00      103.105      112.088      -16.026       43.304       39.834       25.505     1875.242     1586.749      650.483        1.378        0.206      152.297       16.469        0.012      332.573        1.323      869.353
01/08/2021  22:17:00       75.027       46.696      -12.244       39.590       50.042       22.877     1567.372     2504.174      523.353        0.628        0.230       88.372       16.459        0.035      332.582        1.339      869.352
01/08/2021  22:18:00       16.358        7.763        3.021       38.096       35.888       26.917     1451.319     1287.928      724.547        0.190        0.173       18.106       20.215        1.247      332.475        1.160      869.344
01/08/2021  22:19:00       77.774       51.021      -20.190       67.318       49.633       32.001     4531.696     2463.401     1024.039        0.854        0.401       93.015       23.950        0.066      332.352        0.959      869.360
01/08/2021  22:20:00      135.581       44.152      -11.424       49.569       50.025       30.095     2457.097     2502.540      905.705        1.316        0.293      142.589       24.676        0.030      332.446        1.114      869.374
01/08/2021  22:21:00       97.861       32.555       -4.330       50.278       42.995       30.191     2527.845     1848.607      911.518        0.797        0.264      103.134       20.347        0.039      332.391        1.023      869.388
01/08/2021  22:22:00       66.206       24.773        2.608       44.970       39.076       29.297     2022.288     1526.963      858.341        0.470        0.220       70.689       20.232        0.082      332.330        0.923      869.414
01/08/2021  22:23:00       61.847       38.804       -2.462       56.236       66.660       28.734     3162.536     4443.550      825.616        0.688        0.422       73.013       22.174        0.092      332.448        1.117      869.442
01/08/2021  22:24:00       85.094       39.845       -9.640       51.200       52.402       29.122     2621.435     2745.981      848.120        0.757        0.311       93.960       26.570        0.080      332.422        1.072      869.465
01/08/2021  22:25:00       50.814        9.099       -5.789       57.271       30.113       27.314     3279.950      906.810      746.041        0.381        0.247       51.622       30.172        0.342      332.385        1.012      869.490
01/08/2021  22:26:00       77.024       20.543       -9.490       42.055       30.354       23.475     1768.659      921.337      551.096        0.484        0.162       79.717       22.824        0.082      332.473        1.160      869.506
01/08/2021  22:27:00       57.371        1.866        2.595       49.151       25.675       26.565     2415.781      659.185      705.678        0.354        0.189       57.401       26.021        0.205      332.447        1.114      869.515
01/08/2021  22:28:00       97.976       30.547       -7.979       54.568       39.030       29.930     2977.684     1523.369      895.781        0.800        0.270      102.627       28.793        0.079      332.461        1.137      869.533
01/08/2021  22:29:00      103.847       43.942       -9.658       53.015       34.845       29.142     2810.630     1214.151      849.264        0.884        0.244      112.761       30.545        0.073      332.454        1.126      869.551
01/08/2021  22:30:00       79.891       27.916       -5.248       50.814       44.190       33.978     2582.040     1952.779     1154.536        0.644        0.284       84.628       35.069        0.172      332.455        1.128      869.570
01/08/2021  22:31:00       21.800       30.336        0.054       41.096       35.176       25.346     1688.877     1237.359      642.432        0.248        0.178       37.357       25.631        0.471      332.400        1.036      869.581
01/08/2021  22:32:00       -8.865       56.368        2.913       33.567       42.394       24.061     1126.759     1797.256      578.912        0.338        0.175       57.061       26.612        0.218      332.491        1.189      869.584
01/08/2021  22:33:00      -47.765       44.295        5.826       36.753       41.401       26.342     1350.753     1714.061      693.875        0.402        0.188       65.142       28.565        0.192      332.535        1.260      869.587
01/08/2021  22:34:00      -29.677       43.178        2.645       38.546       46.999       28.140     1485.797     2208.885      791.863        0.362        0.224       52.393       30.253        0.333      332.467        1.149      869.580
01/08/2021  22:35:00      -49.544       57.529        1.765       35.853       47.585       28.104     1285.430     2264.347      789.819        0.505        0.217       75.923       34.730        0.209      332.546        1.278      869.568
01/08/2021  22:36:00      -77.776       58.106        9.359       56.136       50.271       32.167     3151.223     2527.199     1034.727        0.811        0.336       97.085       32.250        0.110      332.531        1.254      869.566
01/08/2021  22:37:00     -107.378       45.287      -11.724      129.631       41.921       65.357    16804.080     1757.342     4271.581        1.827        1.142      116.537       87.106        0.559      332.546        1.280      869.548
01/08/2021  22:38:00      -75.349       73.850       -4.327       51.498       64.679       36.925     2652.025     4183.338     1363.489        0.967        0.410      105.505       31.129        0.087      332.532        1.255      869.533
01/08/2021  22:39:00      -50.315       15.503       -8.193       64.305       47.205       28.775     4135.119     2228.307      827.980        0.501        0.360       52.649       26.230        0.248      332.430        1.087      869.513
01/08/2021  22:40:00      -78.932       32.963       -1.757       77.669       49.503       38.918     6032.409     2450.542     1514.611        0.866        0.500       85.538       28.867        0.114      332.407        1.048      869.501
01/08/2021  22:41:00     -108.139       38.714      -10.197       60.714       44.307       30.574     3686.151     1963.089      934.757        0.994        0.329      114.860       29.320        0.065      332.466        1.147      869.492
01/08/2021  22:42:00     -105.800       20.701        0.095       38.072       42.287       31.610     1449.472     1788.160      999.217        0.793        0.212      107.806       27.296        0.064      332.421        1.072      869.486
01/08/2021  22:43:00      -86.432       24.162       -1.669       67.459       51.746       31.919     4550.740     2677.630     1018.848        0.815        0.412       89.746       31.370        0.122      332.378        1.002      869.490
01/08/2021  22:44:00     -154.537       46.259       -4.637       45.362       48.846       33.269     2057.709     2385.977     1106.838        1.580        0.278      161.312       32.450        0.040      332.408        1.052      869.501
01/08/2021  22:45:00        0.068        2.399       -1.966       78.219       51.189       36.305     6118.148     2620.312     1318.020        0.503        0.503        2.400       18.448       59.068      332.391        1.024      869.528
01/08/2021  22:46:00     -132.741       27.730        7.028       67.940       64.277       35.297     4615.815     4131.575     1245.891        1.421        0.500      135.606       33.104        0.060      332.208        0.721      869.547
01/08/2021  22:47:00     -142.602       61.646        0.327       65.622       69.988       41.026     4306.299     4898.298     1683.101        1.751        0.544      155.356       40.357        0.067      332.084        0.516      869.563
01/08/2021  22:48:00     -105.883       26.334       13.102       70.810       60.867       33.520     5013.994     3704.790     1123.614        1.096        0.492      109.109       36.232        0.110      332.034        0.434      869.574
01/08/2021  22:49:00     -128.524       56.094        4.641       40.400       52.031       32.587     1632.160     2707.214     1061.931        1.254        0.270      140.232       31.993        0.052      332.081        0.511      869.593
01/08/2021  22:50:00     -109.311       60.053       -0.904       59.843       64.553       26.159     3581.193     4167.056      684.305        1.199        0.422      124.721       24.555        0.039      332.007        0.389      869.610
01/08/2021  22:51:00      -66.797       35.129        5.129       57.719       39.758       29.929     3331.501     1580.728      895.719        0.576        0.290       75.471       30.067        0.159      331.995        0.371      869.615
01/08/2021  22:52:00      -60.524        3.922        3.644       64.987       42.098       34.642     4223.254     1772.225     1200.068        0.544        0.360       60.651       30.738        0.257      332.053        0.467      869.617
01/08/2021  22:53:00       11.073       12.370        9.866       52.356       38.420       33.392     2741.146     1476.076     1115.039        0.285        0.267       16.603       25.762        2.408      332.125        0.585      869.620
01/08/2021  22:54:00       24.878       19.277       -9.074       56.628       35.013       29.598     3206.771     1225.932      876.026        0.319        0.265       31.472       29.787        0.896      332.149        0.625      869.639
01/08/2021  22:55:00       60.681       77.010      -14.747       49.142       45.978       30.713     2414.932     2113.931      943.270        0.765        0.274       98.045       29.778        0.092      332.127        0.588      869.657
01/08/2021  22:56:00       84.693       26.538       -4.867       71.665       55.126       36.952     5135.940     3038.854     1365.422        0.872        0.477       88.753       34.363        0.150      332.068        0.490      869.646
01/08/2021  22:57:00      125.722       -1.143       -4.035       80.782       53.718       44.044     6525.658     2885.594     1939.882        1.359        0.568      125.727       41.628        0.110      332.075        0.500      869.641
01/08/2021  22:58:00       88.933       26.893      -11.315      290.187       60.538      137.005    84208.268     3664.790    18770.438        5.768        5.332       92.910      191.842        4.263      332.235        0.768      869.639
01/08/2021  22:59:00       55.075       25.367      -11.174      178.043       57.026       89.975    31699.179     3252.001     8095.547        2.342        2.152       60.636      121.171        3.993      332.351        0.958      869.637
01/08/2021  23:00:00       70.082      -18.707      -14.419      156.252       52.519       77.895    24414.624     2758.252     6067.585        1.935        1.662       72.536      102.377        1.992      332.455        1.129      869.619
01/08/2021  23:01:00       26.673       40.148        3.332       47.047       41.396       30.865     2213.407     1713.617      952.623        0.361        0.244       48.201       30.056        0.389      332.292        0.861      869.606
01/08/2021  23:02:00       87.457       42.375       -5.549       53.619       48.539       36.255     2874.966     2356.078     1314.415        0.801        0.327       97.182       37.028        0.145      332.426        1.082      869.592
01/08/2021  23:03:00      112.579       27.593      -18.467      201.354       44.315       99.942    40543.414     1963.841     9988.314        3.313        2.625      115.911      137.020        1.397      332.486        1.182      869.592
01/08/2021  23:04:00       88.382       51.496       -8.670      157.415       45.764       76.285    24779.380     2094.315     5819.450        2.161        1.635      102.289      103.914        1.032      332.401        1.041      869.593
01/08/2021  23:05:00       97.470       16.303       -1.419       39.871       47.761       28.803     1589.714     2281.110      829.620        0.723        0.235       98.824       26.719        0.073      332.231        0.758      869.597
01/08/2021  23:06:00       80.487       32.921       -9.964      144.534       42.625       71.780    20890.053     1816.919     5152.400        1.775        1.393       86.960       95.928        1.217      332.254        0.796      869.603
01/08/2021  23:07:00       53.491       25.238       -7.860      229.535       44.971      103.126    52686.192     2022.350    10635.038        3.444        3.267       59.146      149.875        6.421      332.412        1.061      869.613
01/08/2021  23:08:00      -17.175       30.389        6.099       36.753       49.222       28.840     1350.747     2422.791      831.730        0.293        0.230       34.907       35.016        1.006      332.099        0.542      869.615
01/08/2021  23:09:00        1.928       26.445        4.357       55.331       55.941       35.066     3061.495     3129.415     1229.611        0.407        0.371       26.515       36.350        1.879      332.051        0.461      869.621
01/08/2021  23:10:00      -77.640       47.055       -6.045      192.019       43.188       95.812    36871.260     1865.198     9179.955        2.809        2.396       90.786      130.778        2.075      331.939        0.279      869.623
01/08/2021  23:11:00      -15.853       16.162        0.883       53.689       49.480       32.920     2882.521     2448.254     1083.735        0.346        0.321       22.639       33.248        2.157      331.978        0.341      869.621
01/08/2021  23:12:00       12.187        7.805        9.248       48.947       45.873       33.064     2395.768     2104.328     1093.260        0.294        0.280       14.472       30.878        4.552      332.057        0.473      869.638
01/08/2021  23:13:00      -41.168       26.848        0.258       41.944       48.210       32.845     1759.265     2324.210     1078.782        0.379        0.258       49.149       34.984        0.507      332.085        0.518      869.658
01/08/2021  23:14:00       24.569       16.607       -7.284      271.305       43.964      130.856    73606.292     1932.814    17123.203        4.678        4.633       29.656      185.141       38.975      332.271        0.826      869.681
01/08/2021  23:15:00       77.080       27.455      -10.115      205.541       46.885      102.538    42247.075     2198.169    10513.956        3.087        2.748       81.824      139.831        2.920      332.273        0.830      869.682
01/08/2021  23:16:00       72.540       27.591       -5.047      162.080       47.790       82.934    26270.068     2283.882     6878.087        2.073        1.772       77.610      108.388        1.950      332.236        0.768      869.674
01/08/2021  23:17:00       77.149       29.407      -21.561      266.041       59.847      130.001    70777.814     3581.641    16900.133        4.925        4.563       82.564      180.590        4.784      332.217        0.739      869.663
01/08/2021  23:18:00       70.742       28.011       -3.647      183.565       50.080       92.552    33696.225     2508.049     8565.836        2.528        2.239       76.086      124.234        2.666      332.128        0.590      869.641
01/08/2021  23:19:00      105.510       40.100        3.524       53.407       45.879       41.409     2852.269     2104.891     1714.729        0.971        0.334      112.873       40.749        0.130      332.126        0.586      869.634
01/08/2021  23:20:00       87.261       29.314        7.847       51.476       51.092       37.543     2649.729     2610.435     1409.449        0.760        0.333       92.053       38.427        0.174      332.302        0.878      869.628
01/08/2021  23:21:00       38.787       26.675       16.772       51.981       49.527       34.737     2702.014     2452.922     1206.651        0.443        0.318       47.074       35.098        0.556      332.218        0.738      869.622
01/08/2021  23:22:00       13.514       34.041        3.157       60.990       48.393       38.438     3719.766     2341.926     1477.478        0.444        0.377       36.626       36.380        0.987      332.062        0.481      869.619
01/08/2021  23:23:00      -35.285       42.460        1.031       40.346       47.426       29.363     1627.763     2249.252      862.165        0.389        0.237       55.208       33.022        0.358      331.906        0.223      869.619
01/08/2021  23:24:00      -39.733       46.710        7.478       53.400       49.391       33.153     2851.567     2439.452     1099.114        0.510        0.320       61.323       36.625        0.357      331.943        0.284      869.633
01/08/2021  23:25:00      -27.038       33.811       -0.589       41.285       46.755       30.714     1704.464     2185.997      943.325        0.335        0.242       43.292       33.659        0.604      331.966        0.321      869.663
01/08/2021  23:26:00       -7.164       45.862        9.736       36.536       45.893       28.628     1334.909     2106.212      819.559        0.325        0.213       46.419       33.693        0.527      332.002        0.380      869.698
01/08/2021  23:27:00       11.348       57.275       11.894       38.123       49.634       30.409     1453.330     2463.566      924.729        0.420        0.242       58.388       37.546        0.413      332.095        0.536      869.743
01/08/2021  23:28:00       69.417       46.746        5.154      126.438       46.781       62.717    15986.617     2188.473     3933.468        1.456        1.105       83.689       79.796        0.909      332.220        0.742      869.776
01/08/2021  23:29:00       89.875       36.406       -2.497       61.469       46.761       35.828     3778.464     2186.590     1283.618        0.833        0.362       96.969       36.091        0.139      332.205        0.718      869.801
01/08/2021  23:30:00      137.107       49.161      -13.876      272.978       52.078      131.509    74517.019     2712.148    17294.720        5.795        4.726      145.654      184.562        1.606      332.101        0.549      869.815
01/08/2021  23:31:00      130.523       33.722       -8.364      188.635       47.772       92.158    35583.097     2282.162     8493.027        3.229        2.318      134.809      125.447        0.866      332.092        0.530      869.807
01/08/2021  23:32:00      110.411       29.684       -1.839       58.389       50.718       39.739     3409.225     2572.320     1579.213        1.032        0.378      114.331       38.884        0.116      332.362        0.977      869.786
01/08/2021  23:33:00       16.702       39.729        7.786       43.580       40.670       28.173     1899.174     1654.045      793.721        0.313        0.217       43.097       29.677        0.474      332.212        0.729      869.755
01/08/2021  23:34:00      -42.888       44.130       -3.283      173.164       46.992       86.693    29985.711     2208.229     7515.693        2.175        1.985       61.537      116.053        3.557      332.041        0.448      869.724
01/08/2021  23:35:00      -61.870       39.131        0.179       38.203       52.006       30.032     1459.435     2704.589      901.921        0.521        0.253       73.206       37.552        0.263      331.963        0.317      869.693
01/08/2021  23:36:00      -54.446       40.019       -3.206       43.066       43.925       28.250     1854.704     1929.435      798.054        0.458        0.229       67.572       29.509        0.191      331.998        0.375      869.673
01/08/2021  23:37:00      -50.250       44.324        5.134       54.370       53.660       33.872     2956.131     2879.436     1147.331        0.575        0.349       67.005       35.309        0.278      332.097        0.539      869.674
01/08/2021  23:38:00      -38.885      115.851        3.700       39.939       58.735       30.365     1595.091     3449.827      922.020        1.046        0.298      122.203       32.902        0.072      332.333        0.928      869.684
01/08/2021  23:39:00      -58.340      107.938        6.132       36.593       57.122       30.963     1339.015     3262.922      958.711        1.033        0.278      122.696       33.512        0.075      332.300        0.874      869.700
01/08/2021  23:40:00      -32.027       39.394        4.581       43.834       54.207       30.216     1921.404     2938.452      912.987        0.418        0.289       50.770       37.606        0.549      332.113        0.563      869.713
01/08/2021  23:41:00      -20.751       25.201        2.962       39.085       45.149       27.427     1527.667     2038.445      752.225        0.270        0.216       32.645       27.733        0.722      332.020        0.411      869.723
01/08/2021  23:42:00      -29.887       31.262       -5.328      186.231       59.557       89.785    34681.979     3547.092     8061.278        2.409        2.315       43.250      116.644        7.274      332.179        0.673      869.723
01/08/2021  23:43:00      -72.181       30.988       -0.532       41.790       51.578       32.432     1746.411     2660.287     1051.861        0.581        0.273       78.552       33.448        0.181      332.090        0.527      869.718
01/08/2021  23:44:00      -41.560       34.618        1.338       38.085       47.441       26.302     1450.505     2250.644      691.779        0.366        0.220       54.089       28.855        0.285      332.026        0.421      869.704
01/08/2021  23:45:00      -11.840       41.225        5.215       39.453       52.440       28.292     1556.539     2749.953      800.465        0.349        0.255       42.891       36.033        0.706      332.053        0.466      869.691
01/08/2021  23:46:00      -71.971       30.370       -8.320       45.169       42.743       28.141     2040.255     1826.924      791.904        0.541        0.233       78.116       29.990        0.147      332.062        0.480      869.687
01/08/2021  23:47:00      -43.113       38.757        1.987      161.983       51.042       83.362    26238.562     2605.256     6949.248        1.957        1.790       57.973      106.862        3.398      332.105        0.552      869.693
01/08/2021  23:48:00      -21.990       12.790        7.356       45.754       41.076       29.713     2093.436     1687.267      882.837        0.268        0.233       25.439       26.622        1.095      332.058        0.474      869.708
01/08/2021  23:49:00      -44.706       55.125        7.917       60.660       52.666       29.928     3679.591     2773.757      895.692        0.622        0.367       70.974       29.330        0.171      331.970        0.330      869.719
01/08/2021  23:50:00     -103.496       76.736        1.987       43.955       46.582       33.929     1932.010     2169.884     1151.163        1.093        0.263      128.840       30.366        0.056      331.747       -0.040      869.719
01/08/2021  23:51:00     -120.641       70.532        5.671       57.269       49.950       37.661     3279.696     2495.028     1418.338        1.338        0.360      139.746       31.288        0.050      331.636       -0.221      869.720
01/08/2021  23:52:00     -133.058       88.546        9.861       43.941       51.487       38.679     1930.811     2650.961     1496.027        1.586        0.304      159.828       36.178        0.051      331.523       -0.408      869.729
01/08/2021  23:53:00      -95.210       61.076        5.087      165.629       56.831       82.158    27432.947     3229.728     6749.855        2.511        1.871      113.116      104.325        0.851      331.481       -0.476      869.750
01/08/2021  23:54:00      -98.844       79.603        3.794      147.413       59.482       75.846    21730.495     3538.157     5752.688        2.357        1.551      126.913       89.487        0.497      331.533       -0.389      869.760
01/08/2021  23:55:00     -101.405       64.781        2.421      172.117       69.132       81.928    29624.128     4779.182     6712.232        2.779        2.056      120.331      104.921        0.760      331.370       -0.658      869.764
01/08/2021  23:56:00     -107.557       72.724       -4.526      183.983       62.299       92.426    33849.763     3881.128     8542.551        3.157        2.314      129.836      115.394        0.790      331.310       -0.758      869.771
01/08/2021  23:57:00     -134.708       82.781        6.679       66.170       77.033       47.775     4378.446     5934.018     2282.420        1.882        0.630      158.111       52.145        0.109      331.400       -0.610      869.777
01/08/2021  23:58:00     -133.898       76.515       -2.277       64.793       60.988       44.627     4198.103     3719.547     1991.557        1.685        0.495      154.218       42.531        0.076      331.369       -0.660      869.774
01/08/2021  23:59:00     -125.453       65.499      -16.262       67.463       56.434       38.396     4551.306     3184.789     1474.287        1.475        0.461      141.523       34.516        0.059      331.329       -0.726      869.772
01/09/2021  00:00:00      -68.065       42.584      -14.790      103.804       77.341       45.543    10775.201     5981.679     2074.189        1.274        0.942       80.289       33.122        0.170      331.371       -0.659      869.770
01/09/2021  00:01:00      -61.469       38.599       -1.400      245.402       65.252      109.511    60222.193     4257.817    11992.661        4.086        3.824       72.584      146.835        4.092      331.364       -0.667      869.758
01/09/2021  00:02:00        2.255       39.265      -10.206      369.524       60.593      182.218   136547.804     3671.515    33203.329        8.750        8.671       39.330      252.690       41.279      331.530       -0.394      869.740
01/09/2021  00:03:00      -45.199       55.656      -13.662       70.899       80.975       43.461     5026.671     6556.890     1888.858        0.940        0.674       71.698       35.066        0.239      331.363       -0.669      869.710
01/09/2021  00:04:00      -56.769       36.015      -13.723      190.889       54.251       86.277    36438.510     2943.187     7443.642        2.576        2.341       67.230      103.419        2.366      331.363       -0.670      869.675
01/09/2021  00:05:00       55.237       55.003      -32.173      493.994       74.445      230.109   244030.277     5542.045    52950.018       15.476       15.126       77.951      330.660       17.994      331.695       -0.118      869.642
01/09/2021  00:06:00      -47.200       62.346        7.749       83.652       67.079       43.476     6997.654     4499.550     1890.173        0.978        0.669       78.198       42.590        0.297      331.406       -0.599      869.626
01/09/2021  00:07:00      -70.697       94.097      -13.090      246.245       66.548      122.716    60636.717     4428.583    15059.151        4.706        4.006      117.696      164.998        1.965      331.462       -0.506      869.618
01/09/2021  00:08:00      -45.041       34.401      -32.544      298.764       56.426      140.358    89259.848     3183.931    19700.481        5.818        5.607       56.675      196.223       11.987      331.468       -0.493      869.627
01/09/2021  00:09:00      -39.602       50.275       -5.983       66.001       74.850       44.570     4356.120     5602.527     1986.523        0.804        0.597       63.999       44.507        0.484      331.389       -0.626      869.650
01/09/2021  00:10:00      -17.895       54.466        0.384      196.644       77.456       91.960    38668.826     5999.496     8456.634        2.820        2.656       57.331      115.493        4.058      331.455       -0.519      869.654
01/09/2021  00:11:00      -67.301       43.686       -3.693      228.039       59.040      109.239    52001.679     3485.679    11933.066        3.692        3.371       80.236      147.296        3.370      331.445       -0.532      869.649
01/09/2021  00:12:00      -77.705       81.690        9.143      170.280       64.864       89.915    28995.270     4207.330     8084.696        2.703        2.064      112.745      109.549        0.944      331.389       -0.628      869.640
01/09/2021  00:13:00      -83.419       56.514       11.437       57.968       69.197       42.305     3360.242     4788.281     1789.693        1.011        0.497      100.760       36.611        0.132      331.270       -0.821      869.623
01/09/2021  00:14:00      -58.580       73.151       -1.761      293.862       56.012      146.413    86354.823     3137.384    21436.823        5.983        5.546       93.716      199.430        4.529      331.465       -0.500      869.612
01/09/2021  00:15:00      -66.759       62.315       -9.511      257.137       62.416      118.528    66119.478     3895.710    14048.871        4.623        4.203       91.324      166.897        3.340      331.430       -0.557      869.611
01/09/2021  00:16:00       29.514       50.932       -4.245      284.745       61.191      136.947    81079.822     3744.278    18754.452        5.351        5.179       58.865      190.576       10.481      331.488       -0.459      869.619
01/09/2021  00:17:00       35.157       55.623      -17.086      427.760       73.330      197.760   182978.930     5377.231    39109.061       11.600       11.373       65.803      286.003       18.891      331.556       -0.346      869.638
01/09/2021  00:18:00      -66.368       68.427        1.739       56.209       65.276       41.217     3159.400     4260.904     1698.825        0.910        0.456       95.326       46.788        0.241      331.344       -0.702      869.662
01/09/2021  00:19:00      -85.018       73.971       -2.538      203.388       62.149       96.737    41366.556     3862.503     9358.037        3.364        2.729      112.693      129.691        1.324      331.296       -0.778      869.695
01/09/2021  00:20:00       24.617       71.029      -46.905      574.270       61.178      275.591   329785.858     3742.749    75950.353       20.858       20.474       75.174      393.491       27.399      331.645       -0.197      869.717
01/09/2021  00:21:00      -56.535       64.414      -12.779      395.720       62.817      192.601   156594.060     3946.035    37095.225       10.253        9.882       85.705      269.608        9.896      331.403       -0.600      869.727
01/09/2021  00:22:00      -63.705       53.998      -29.636      443.736       55.240      218.368   196902.049     3051.480    47684.558       12.770       12.382       83.511      307.478       13.556      331.431       -0.553      869.718
01/09/2021  00:23:00        1.999       50.166       -8.812      335.470       76.260      162.010   112540.434     5815.656    26247.323        7.357        7.230       50.206      222.318       19.608      331.440       -0.539      869.706
01/09/2021  00:24:00      -27.471       55.876      -23.979      264.224       71.093      132.118    69814.515     5054.246    17455.215        4.837        4.616       62.264      173.082        7.727      331.380       -0.642      869.703
01/09/2021  00:25:00     -110.089       82.560       -5.439      299.143       68.846      142.086    89486.238     4739.792    20188.298        6.667        5.721      137.607      194.882        2.006      331.173       -0.981      869.712
01/09/2021  00:26:00     -105.513       97.866        4.145      168.070       79.939       84.415    28247.411     6390.274     7125.880        3.124        2.088      143.912      101.962        0.502      331.215       -0.914      869.720
01/09/2021  00:27:00      -63.310       70.111      -18.783      391.201       66.813      192.869   153038.052     4463.961    37198.372       10.195        9.735       94.465      268.933        8.105      331.319       -0.737      869.710
01/09/2021  00:28:00      -61.081       49.966       -0.644       81.644       67.691       49.298     6665.805     4582.069     2430.310        0.995        0.684       78.914       42.460        0.290      331.164       -0.999      869.700
01/09/2021  00:29:00      -48.469       89.350       -7.974      189.702       70.723       96.292    35986.953     5001.672     9272.163        3.032        2.513      101.650      120.519        1.406      331.319       -0.742      869.700
01/09/2021  00:30:00      -84.863      131.537      -10.144      249.435       67.104      119.157    62217.946     4502.981    14198.389        5.275        4.046      156.537      161.725        1.067      331.417       -0.582      869.696
01/09/2021  00:31:00      -66.748       88.584      -14.708      287.619       68.191      132.787    82724.764     4650.050    17632.290        5.874        5.250      110.917      185.163        2.787      331.351       -0.689      869.684
01/09/2021  00:32:00      -91.901       80.240      -14.261      187.147       71.071       94.312    35024.020     5051.049     8894.812        3.202        2.448      122.001      122.464        1.008      331.360       -0.674      869.676
01/09/2021  00:33:00      -98.289       53.513       -2.220      221.373       55.212      104.503    49006.150     3048.372    10920.960        3.774        3.149      111.912      135.181        1.459      331.403       -0.604      869.665
01/09/2021  00:34:00      -75.302      101.969       13.236       72.898       66.027       42.368     5314.091     4359.620     1795.047        1.385        0.573      126.760       36.795        0.084      331.333       -0.720      869.667
01/09/2021  00:35:00      -60.015       98.745      -12.500      238.026       62.317      121.902    56656.218     3883.446    14860.023        4.444        3.770      115.553      160.423        1.927      331.370       -0.655      869.675
01/09/2021  00:36:00      -39.366       68.130       -7.820      232.597       69.824      115.255    54101.543     4875.422    13283.618        3.924        3.613       78.685      153.217        3.792      331.350       -0.691      869.673
01/09/2021  00:37:00       15.681       31.329       -6.870      181.418       67.776       83.051    32912.561     4593.564     6897.550        2.283        2.220       35.034      106.787        9.291      331.337       -0.714      869.688
01/09/2021  00:38:00       40.502       31.655       17.579       63.892       65.834       46.016     4082.244     4334.083     2117.468        0.674        0.527       51.405       46.750        0.827      331.285       -0.798      869.698
01/09/2021  00:39:00       49.865       58.716      -12.472      377.242       65.985      185.766   142311.457     4354.044    34509.051        9.360        9.059       77.033      259.178       11.320      331.470       -0.491      869.711
01/09/2021  00:40:00       42.762       59.407      -22.781      372.125       55.411      174.764   138476.955     3070.351    30542.454        8.895        8.604       73.197      250.203       11.684      331.468       -0.492      869.724
01/09/2021  00:41:00      -13.045       58.148        4.620      223.417       61.273      110.028    49915.151     3754.379    12106.134        3.466        3.289       59.594      145.159        5.933      331.375       -0.649      869.729
01/09/2021  00:42:00       24.403       51.247      -19.779      379.375       62.157      188.913   143925.308     3863.528    35688.116        9.351        9.174       56.761      263.417       21.537      331.554       -0.351      869.726
01/09/2021  00:43:00       -4.208       58.458        8.279       62.842       59.183       38.039     3949.100     3502.599     1446.967        0.620        0.445       58.609       42.435        0.524      331.329       -0.726      869.717
01/09/2021  00:44:00       53.107       81.113        6.076      334.698       62.447      152.272   112022.544     3899.673    23186.622        7.424        6.955       96.952      219.913        5.145      331.420       -0.573      869.704
01/09/2021  00:45:00       45.669       60.929      -42.843      509.838       70.022      230.960   259934.766     4903.089    53342.547       16.284       15.909       76.144      338.465       19.758      331.544       -0.362      869.678
01/09/2021  00:46:00       -5.150       67.832      -18.790      321.472       68.258      152.578   103344.557     4659.197    23280.054        6.811        6.564       68.027      215.467       10.032      331.328       -0.724      869.654
01/09/2021  00:47:00      -53.081       63.420      -14.362      323.022       61.395      157.756   104343.316     3769.403    24887.051        7.000        6.650       82.702      220.205        7.090      331.236       -0.876      869.642
01/09/2021  00:48:00      -12.505       83.290      -36.675      489.231       57.902      226.628   239347.413     3352.590    51360.195       15.119       14.703       84.223      328.763       15.237      331.336       -0.707      869.631
01/09/2021  00:49:00      -51.862       80.352      -23.453      317.516       55.988      145.353   100816.195     3134.612    21127.574        6.736        6.254       95.636      208.542        4.755      331.223       -0.899      869.637
01/09/2021  00:50:00      -84.649       94.697      -18.033      157.377       59.260       81.813    24767.470     3511.772     6693.359        2.571        1.749      127.016      101.289        0.636      331.172       -0.984      869.639
01/09/2021  00:51:00      -69.486       75.757      -13.653      235.696       62.503      116.054    55552.652     3906.610    13468.590        4.183        3.646      102.797      155.286        2.282      331.190       -0.953      869.635
01/09/2021  00:52:00      -29.249       74.438      -12.772      324.448       61.595      162.015   105266.244     3793.936    26248.727        7.091        6.765       79.978      221.968        7.703      331.337       -0.710      869.640
01/09/2021  00:53:00      -30.161       63.891      -22.461      313.941       58.931      155.491    98559.101     3472.852    24177.455        6.583        6.310       70.652      214.072        9.181      331.341       -0.703      869.644
01/09/2021  00:54:00      -34.548       54.568      -11.598      327.364       59.702      160.103   107166.915     3564.327    25632.979        7.031        6.818       64.585      222.266       11.844      331.376       -0.647      869.654
01/09/2021  00:55:00      -12.683       46.010       16.652      180.465       54.585       90.094    32567.707     2979.476     8116.875        2.310        2.183       47.726      114.003        5.706      331.233       -0.882      869.661
01/09/2021  00:56:00      -40.213       58.788       13.920      177.553       65.975       88.031    31524.997     4352.760     7749.460        2.444        2.181       71.225      112.189        2.481      331.224       -0.897      869.663
01/09/2021  00:57:00      -91.133       83.482        0.106       64.220       60.008       38.699     4124.202     3600.901     1497.620        1.225        0.461      123.590       38.742        0.098      331.124       -1.062      869.652
01/09/2021  00:58:00      -82.118       81.633      -13.105      211.097       57.303      103.068    44562.108     3283.640    10623.045        3.601        2.923      115.790      137.239        1.405      331.133       -1.048      869.642
01/09/2021  00:59:00      -88.868       64.250      -24.192      181.089       61.493       87.864    32793.129     3781.435     7720.130        2.844        2.215      109.661      113.351        1.068      331.152       -1.016      869.637
01/09/2021  01:00:00      -50.703       77.231      -40.872      385.484       54.047      178.916   148597.867     2921.063    32010.880        9.683        9.176       92.387      257.064        7.742      331.210       -0.914      869.620
01/09/2021  01:01:00      -66.592       68.636      -26.191      357.301       58.419      170.741   127664.358     3412.767    29152.592        8.500        8.011       95.632      240.459        6.322      331.075       -1.139      869.609
01/09/2021  01:02:00      -44.056       97.317      -41.446      313.405       72.555      151.453    98222.746     5264.179    22938.109        6.975        6.321      106.825      207.950        3.789      331.177       -0.974      869.610
01/09/2021  01:03:00       -3.600       99.165       -6.536      298.668       66.165      143.274    89202.408     4377.819    20527.380        6.198        5.705       99.230      199.521        4.043      331.183       -0.963      869.618
01/09/2021  01:04:00      -67.213       69.624      -16.131       64.163       61.477       41.349     4116.832     3779.405     1709.738        0.961        0.480       96.774       39.976        0.171      331.078       -1.140      869.637
01/09/2021  01:05:00        3.435       46.842       -3.145      251.756       63.539      123.831    63380.937     4037.175    15334.023        4.247        4.138       46.967      170.672       13.205      331.145       -1.027      869.657
01/09/2021  01:06:00       30.794       73.285      -10.216      321.233       64.755      161.890   103190.368     4193.255    26208.300        6.998        6.680       79.492      220.849        7.719      331.164       -0.995      869.677
01/09/2021  01:07:00        1.567       33.588       -4.100      248.687       73.700      121.371    61845.410     5431.624    14730.928        4.156        4.100       33.624      161.637       23.108      331.078       -1.136      869.698
01/09/2021  01:08:00       88.411       50.378      -39.608      598.547       60.634      282.476   358258.878     3676.476    79792.895       22.674       22.086      101.757      407.329       16.024      331.372       -0.642      869.713
01/09/2021  01:09:00       94.885       28.760      -19.813      475.149       56.400      235.114   225767.004     3180.907    55278.538       14.717       14.211       99.147      330.265       11.096      331.252       -0.845      869.727
01/09/2021  01:10:00       85.538       52.982      -17.629      433.948       61.325      212.754   188311.186     3760.716    45264.261       12.384       11.867      100.617      299.755        8.875      331.157       -1.003      869.743
01/09/2021  01:11:00      -10.676       32.892      -20.214      383.716      276.764      223.270   147237.671    76598.205    49849.352       13.759       13.684       34.581      232.907       45.360      331.167       -0.985      869.753
01/09/2021  01:12:00       26.510       50.446       -9.042      382.453       65.523      184.172   146270.001     4293.304    33919.492        9.387        9.224       56.988      259.811       20.785      331.131       -1.046      869.754
01/09/2021  01:13:00       17.388       59.945      -25.515      513.038       61.919      249.568   263208.443     3833.927    62283.967       16.687       16.466       62.416      353.730       32.118      331.295       -0.773      869.744
01/09/2021  01:14:00      -21.953       60.385        2.909      306.116       68.419      150.001    93707.290     4681.149    22500.360        6.249        6.044       64.252      205.335       10.213      331.089       -1.118      869.738
01/09/2021  01:15:00      -46.439       76.803      -15.027      388.052       60.424      179.835   150584.229     3651.022    32340.711        9.739        9.329       89.751      257.946        8.260      331.157       -1.005      869.722
01/09/2021  01:16:00       60.956       56.343      -28.625      526.296       62.682      256.248   276987.506     3929.003    65662.879       17.708       17.329       83.007      363.852       19.214      331.479       -0.469      869.718
01/09/2021  01:17:00       46.542       37.373      -18.793      467.148       57.366      220.838   218226.979     3290.853    48769.377       13.705       13.514       59.690      316.836       28.175      331.325       -0.725      869.716
01/09/2021  01:18:00       15.697       28.199        0.157      254.030       62.191      129.567    64531.277     3867.700    16787.600        4.310        4.259       32.273      173.750       28.984      331.176       -0.976      869.715
01/09/2021  01:19:00       46.208       41.023      -32.182      471.679       52.173      223.561   222480.767     2722.041    49979.665       13.996       13.759       61.790      320.343       26.878      331.431       -0.550      869.710
01/09/2021  01:20:00       31.912       37.231       10.863      307.270       57.691      145.290    94414.970     3328.285    21109.095        6.066        5.943       49.036      204.551       17.401      331.167       -0.990      869.702
01/09/2021  01:21:00       78.137       46.101      -35.489      522.383       55.470      249.470   272884.097     3076.882    62235.464       17.377       16.910       90.724      357.550       15.532      331.390       -0.618      869.704
01/09/2021  01:22:00       35.951       47.987       -0.427      351.089       59.129      170.036   123263.348     3496.242    28912.334        7.960        7.784       59.960      238.527       15.825      331.121       -1.063      869.711
01/09/2021  01:23:00      160.239       49.067      -66.243      693.153       57.150      332.863   480461.378     3266.176   110797.657       31.338       29.726      167.583      478.223        8.143      331.534       -0.373      869.711
01/09/2021  01:24:00       16.059       59.152       -6.633      366.910       58.572      176.412   134623.265     3430.706    31121.369        8.645        8.459       61.293      250.355       16.683      331.022       -1.225      869.712
01/09/2021  01:25:00       47.828       46.720      -26.786      446.485       64.071      220.131   199349.280     4105.126    48457.496       12.850       12.596       66.860      308.381       21.274      331.211       -0.915      869.707
01/09/2021  01:26:00       -9.813       37.482        0.498       61.449       59.868       38.872     3776.006     3584.223     1511.019        0.518        0.444       38.746       42.136        1.183      330.934       -1.374      869.710
01/09/2021  01:27:00       46.539       34.122       -1.011      360.616       64.760      178.056   130044.146     4193.802    31703.990        8.460        8.297       57.708      247.956       18.462      331.125       -1.057      869.708
01/09/2021  01:28:00      -34.177       41.136       -3.162      305.228       56.699      142.553    93164.409     3214.777    20321.323        5.976        5.835       53.481      202.139       14.286      330.997       -1.270      869.713
01/09/2021  01:29:00      -27.337       52.020       18.646      176.938       66.083       87.991    31307.163     4366.959     7742.417        2.360        2.171       58.766      110.801        3.555      330.927       -1.385      869.716
01/09/2021  01:30:00       67.965       41.970       -3.768      436.388       60.195      209.336   190434.234     3623.436    43821.654       12.209       11.894       79.879      297.163       13.840      331.196       -0.938      869.734
01/09/2021  01:31:00       46.494       38.987       18.430      221.062       56.064      111.830    48868.420     3143.157    12505.994        3.426        3.226       60.676      150.148        6.123      331.100       -1.101      869.757
01/09/2021  01:32:00       36.034       31.614       29.575       36.077       57.847       31.658     1301.528     3346.242     1002.244        0.441        0.283       47.937       44.316        0.855      330.960       -1.333      869.775
01/09/2021  01:33:00       40.864       37.352      -17.913      452.321       55.237      214.355   204594.041     3051.096    45948.169       12.844       12.680       55.363      307.600       30.870      331.095       -1.104      869.793
01/09/2021  01:34:00       52.924       28.476      -18.296      464.286       65.727      230.136   215561.897     4320.057    52962.750       13.834       13.642       60.099      322.319       28.763      331.222       -0.895      869.808
01/09/2021  01:35:00      -28.760       44.222       -7.420      330.587       59.846      160.100   109287.973     3581.506    25632.002        7.064        6.925       52.751      223.156       17.896      331.040       -1.198      869.817
01/09/2021  01:36:00       14.880       56.564      -18.058      480.362       66.317      226.191   230747.916     4397.964    51162.570       14.497       14.315       58.489      324.154       30.716      331.153       -1.008      869.817
01/09/2021  01:37:00       23.680       64.526      -37.399      520.344       62.997      254.157   270757.783     3968.632    64595.896       17.265       16.966       68.734      359.387       27.339      331.161       -0.995      869.821
01/09/2021  01:38:00       89.961       18.671      -52.896      622.921       60.581      300.287   388030.867     3670.036    90172.381       24.646       24.094       91.878      429.454       21.848      331.356       -0.670      869.822
01/09/2021  01:39:00       -5.545       52.622      -11.092      330.381       63.080      155.450   109151.614     3979.146    24164.716        7.008        6.865       52.913      220.511       17.368      331.011       -1.245      869.823
01/09/2021  01:40:00       62.165       49.337      -44.290      613.245       64.378      295.760   376069.970     4144.530    87473.883       23.788       23.384       79.364      422.447       28.333      331.241       -0.858      869.828
01/09/2021  01:41:00      -38.549       27.849       16.638       57.426       54.531       37.594     3297.709     2973.579     1413.333        0.511        0.384       47.556       34.318        0.521      330.765       -1.652      869.828
01/09/2021  01:42:00      150.059       35.440      -38.507      646.999       60.819      308.173   418608.276     3698.996    94970.900       27.116       25.864      154.187      442.662        8.242      331.417       -0.565      869.839
01/09/2021  01:43:00       26.488       22.080       -1.889      360.416       65.013      178.514   129899.535     4226.737    31867.255        8.356        8.300       34.484      246.996       51.303      331.109       -1.083      869.853
01/09/2021  01:44:00       77.624       13.461      -24.734      521.390       53.720      251.311   271847.425     2885.891    63157.377       17.229       16.895       78.783      358.463       20.703      331.224       -0.889      869.867
01/09/2021  01:45:00       14.161        3.591        8.082      306.154       51.510      144.044    93730.452     2653.278    20748.549        5.868        5.857       14.609      203.450      193.945      330.965       -1.321      869.879
01/09/2021  01:46:00       -1.385       -3.941      -11.329      336.799       60.307      164.930   113433.574     3636.992    27201.862        7.218        7.214        4.177      230.987     3057.694      330.968       -1.315      869.882
01/09/2021  01:47:00       -3.752       15.433       -9.792      358.607       67.551      177.997   128598.990     4563.124    31682.872        8.256        8.242       15.883      246.207      240.303      331.014       -1.240      869.874
01/09/2021  01:48:00      -73.738       29.614        5.306       59.660       60.672       38.896     3559.340     3681.140     1512.874        0.755        0.438       79.462       40.774        0.263      330.856       -1.504      869.875
01/09/2021  01:49:00       36.886       35.758       -5.315      327.144       59.954      157.228   107023.330     3594.439    24720.750        6.898        6.767       51.374      221.680       18.620      331.015       -1.238      869.879
01/09/2021  01:50:00       80.302       54.855      -27.640      425.530       55.343      203.538   181075.584     3062.880    41427.522       11.785       11.278       97.250      291.263        8.970      331.100       -1.097      869.891
01/09/2021  01:51:00      166.135       54.884      -62.702      635.884       55.062      297.967   404348.595     3031.813    88784.209       26.525       24.808      174.966      432.984        6.124      331.452       -0.511      869.900
01/09/2021  01:52:00      126.747       64.925      -31.173      519.846       59.814      242.794   270239.882     3577.727    58948.686       17.694       16.638      142.408      351.712        6.100      331.276       -0.805      869.892
01/09/2021  01:53:00       31.213       41.581       -0.783      265.694       52.270      127.426    70593.556     2732.135    16237.437        4.612        4.478       51.993      178.625       11.803      331.023       -1.226      869.875
01/09/2021  01:54:00       64.046        9.042      -17.921      417.838       53.485      203.246   174588.640     2860.615    41308.924       11.159       10.938       64.681      288.559       19.903      331.165       -0.991      869.862
01/09/2021  01:55:00       56.412       17.145       -6.507      294.982       56.413      148.363    87014.153     3182.430    22011.464        5.784        5.610       58.960      204.309       12.008      331.120       -1.065      869.865
01/09/2021  01:56:00       17.753        2.287        5.619      279.533       52.168      135.858    78138.569     2721.480    18457.286        4.981        4.966       17.900      189.202      111.722      330.995       -1.272      869.867
01/09/2021  01:57:00       19.582       21.714       -4.481      354.853       58.317      176.216   125920.345     3400.816    31052.089        8.059        8.019       29.240      245.111       70.270      331.106       -1.089      869.866
01/09/2021  01:58:00       74.638       25.797      -14.548      466.123       50.609      228.163   217270.253     2561.299    52058.333       13.911       13.594       78.971      323.418       16.772      331.158       -0.999      869.861
01/09/2021  01:59:00       37.636       21.511        1.127      280.604       56.416      140.425    78738.347     3182.723    19719.274        5.174        5.082       43.350      192.003       19.618      330.970       -1.314      869.863
01/09/2021  02:00:00       45.733       28.608       -8.868      368.187       54.756      178.473   135561.768     2998.181    31852.586        8.667        8.521       53.943      251.530       21.742      331.137       -1.037      869.877
01/09/2021  02:01:00      146.056       43.984      -45.405      497.963       53.355      240.986   247967.146     2846.797    58074.070       16.704       15.444      152.535      343.528        5.072      331.303       -0.759      869.897
01/09/2021  02:02:00      202.784       45.638      -17.435      336.749       68.520      151.597   113399.946     4694.949    22981.642        9.226        7.054      207.856      216.936        1.089      330.711       -1.739      869.919
01/09/2021  02:03:00       96.886       43.399       -7.075      158.395       81.254       79.930    25089.124     6602.188     6388.809        2.469        1.904      106.161       97.138        0.837      330.486       -2.110      869.950
01/09/2021  02:04:00      133.202       62.899      -27.290      408.835       60.046      202.631   167145.681     3605.537    41059.132       11.708       10.591      147.306      283.386        3.701      330.668       -1.807      869.972
01/09/2021  02:05:00      117.215       47.430      -23.014      388.225       53.840      189.584   150718.305     2898.761    35942.131       10.300        9.478      126.448      267.912        4.489      330.538       -2.021      869.985
01/09/2021  02:06:00      113.539       52.659      -14.461      348.209       48.781      169.957   121249.705     2379.589    28885.526        8.416        7.626      125.156      239.840        3.672      330.557       -1.990      869.975
01/09/2021  02:07:00      125.789       63.355      -21.074      446.016       52.245      209.765   198930.646     2729.567    44001.445       13.292       12.283      140.842      302.502        4.613      330.625       -1.875      869.971
01/09/2021  02:08:00      113.271       52.510      -17.477      411.984       44.322      194.539   169730.554     1964.411    37845.337       11.267       10.477      124.850      280.417        5.045      330.557       -1.987      869.962
01/09/2021  02:09:00      100.009       56.775       -7.953      270.296       33.008      129.597    73059.765     1089.537    16795.436        5.210        4.547      115.000      184.775        2.582      330.433       -2.194      869.956
01/09/2021  02:10:00      127.778       54.644      -26.879      428.839       39.147      205.636   183902.725     1532.471    42286.365       12.383       11.386      138.972      294.878        4.502      330.581       -1.948      869.947
01/09/2021  02:11:00      127.568       67.847      -33.914      410.959       36.410      193.597   168886.903     1325.676    37479.925       11.482       10.385      144.489      280.150        3.759      330.553       -1.995      869.935
01/09/2021  02:12:00       93.577       63.353       -3.937      271.938       43.815      132.998    73950.269     1919.717    17688.519        5.315        4.678      113.006      186.363        2.720      330.403       -2.245      869.929
01/09/2021  02:13:00       70.671       27.791        0.600      258.766       52.579      127.608    66959.887     2764.565    16283.883        4.587        4.300       75.939      177.431        5.459      330.539       -2.020      869.925
01/09/2021  02:14:00       77.466       25.135      -12.154      340.819       37.976      163.436   116157.335     1442.207    26711.322        7.552        7.216       81.441      233.856        8.245      330.617       -1.892      869.928
01/09/2021  02:15:00       71.118       10.981      -12.394      349.454       40.063      166.249   122118.018     1605.021    27638.658        7.831        7.568       71.960      238.294       10.966      330.758       -1.659      869.938
01/09/2021  02:16:00       13.489        7.724        8.795       21.643       32.296       18.176      468.437     1043.002      330.373        0.108        0.092       15.544       22.949        2.180      330.581       -1.954      869.953
01/09/2021  02:17:00       50.147       16.997       -6.426      260.158       36.377      124.310    67682.248     1323.277    15452.973        4.363        4.223       52.949      177.170       11.196      330.716       -1.730      869.965
01/09/2021  02:18:00       42.702       27.943       -3.367      258.680       37.962      125.805    66915.091     1441.086    15826.803        4.338        4.209       51.032      177.631       12.116      330.701       -1.754      869.973
01/09/2021  02:19:00       35.289       33.776       -2.188      245.690       41.831      120.501    60363.587     1749.870    14520.375        3.950        3.832       48.848      168.758       11.935      330.671       -1.805      869.968
01/09/2021  02:20:00       36.230       30.280      -16.056      312.358       33.646      150.972    97567.500     1132.052    22792.651        6.196        6.075       47.218      215.355       20.802      330.658       -1.824      869.958
01/09/2021  02:21:00       94.068       43.061      -45.724      530.740       39.127      253.829   281685.124     1530.903    64429.135       18.015       17.382      103.456      365.600       12.488      330.888       -1.441      869.941
01/09/2021  02:22:00      105.827       23.500      -60.332      609.633       36.862      294.458   371652.407     1358.779    86705.427       23.746       22.986      108.405      422.433       15.185      331.045       -1.181      869.932
01/09/2021  02:23:00        6.817       21.821      -32.546      398.800       43.083      193.594   159041.483     1856.103    37478.450        9.994        9.919       22.861      275.419      145.149      330.730       -1.706      869.936
01/09/2021  02:24:00        9.089       32.696      -31.762      461.292       48.371      221.744   212790.016     2339.718    49170.464       13.318       13.215       33.936      317.012       87.265      330.805       -1.580      869.942
01/09/2021  02:25:00       20.330       17.074      -45.981      503.426       44.108      241.434   253437.930     1945.477    58290.467       15.818       15.684       26.549      345.933      169.780      330.861       -1.488      869.945
01/09/2021  02:26:00       98.133       10.780      -73.175      629.375       41.147      300.636   396112.920     1693.087    90381.943       25.154       24.409       98.724      432.118       19.159      331.016       -1.228      869.952
01/09/2021  02:27:00       23.184       13.163      -27.902      455.099       49.030      218.951   207115.160     2403.950    47939.334       12.942       12.873       26.660      308.938      134.279      330.659       -1.822      869.966
01/09/2021  02:28:00        4.550       19.749      -30.934      462.049       44.413      227.632   213489.255     1972.487    51816.479       13.427       13.364       20.266      320.676      250.366      330.724       -1.712      869.978
01/09/2021  02:29:00       80.163       41.012      -50.880      578.378       44.843      273.262   334520.791     2010.902    74672.222       21.087       20.560       90.045      395.726       19.314      330.789       -1.602      869.989
01/09/2021  02:30:00      140.043       41.402      -94.061      750.049       47.092      356.379   562573.996     2217.644   127006.239       36.084       34.590      146.034      515.316       12.452      331.120       -1.050      869.995
01/09/2021  02:31:00       26.955        2.325      -21.266      394.045       50.518      188.683   155271.421     2552.109    35601.190        9.726        9.671       27.055      266.900       97.321      330.676       -1.793      870.007
01/09/2021  02:32:00       57.509       10.782      -28.546      420.609       52.477      204.115   176911.622     2753.824    41663.084       11.274       11.066       58.511      289.330       24.452      330.617       -1.891      870.016
01/09/2021  02:33:00       10.311       36.464      -53.342      529.550       47.824      258.273   280423.476     2287.181    66705.039       17.677       17.471       37.893      366.421       93.504      330.680       -1.783      870.036
01/09/2021  02:34:00       21.182       28.376      -47.552      557.650       50.729      270.209   310973.138     2573.389    73012.668       19.496       19.328       35.410      384.076      117.647      330.667       -1.805      870.047
01/09/2021  02:35:00       16.605       49.210      -50.892      580.553       59.880      282.085   337042.222     3585.622    79572.125       21.266       21.010       51.936      400.599       59.495      330.661       -1.813      870.057
01/09/2021  02:36:00      -53.757        5.478      -26.162      408.696       50.922      195.088   167032.513     2593.046    38059.258       10.560       10.384       54.036      276.235       26.133      330.485       -2.106      870.063
01/09/2021  02:37:00      -61.580       34.238      -19.299      386.404       48.790      186.523   149307.953     2380.446    34790.678        9.587        9.324       70.458      263.631       14.000      330.452       -2.161      870.070
01/09/2021  02:38:00      -31.560       33.239      -36.549      468.138       51.388      231.693   219153.446     2640.701    53681.439       13.940       13.774       45.836      324.117       50.003      330.484       -2.107      870.079
01/09/2021  02:39:00       15.303       14.693       -6.095      276.930       48.240      132.606    76690.092     2327.058    17584.417        4.852        4.830       21.215      184.291       75.462      330.265       -2.469      870.103
01/09/2021  02:40:00       21.895       25.889      -22.503      413.602       53.732      201.113   171066.674     2887.081    40446.459       10.798       10.720       33.906      284.020       70.168      330.486       -2.107      870.111
01/09/2021  02:41:00       77.224        9.862      -47.677      547.526       47.985      263.803   299784.864     2302.561    69591.887       18.993       18.584       77.851      377.136       23.467      330.651       -1.830      870.126
01/09/2021  02:42:00       59.188       46.857      -52.276      539.153       61.274      262.342   290685.765     3754.451    68823.453       18.577       18.163       75.491      371.474       24.214      330.645       -1.839      870.144
01/09/2021  02:43:00      -54.289       36.038      -28.656      340.390       45.250      159.755   115865.479     2047.538    25521.617        7.422        7.172       65.162      229.189       12.371      330.431       -2.198      870.155
01/09/2021  02:44:00       45.471       39.730      -20.972      407.079       47.835      194.981   165713.616     2288.234    38017.438       10.501       10.301       60.383      277.598       21.135      330.409       -2.231      870.169
01/09/2021  02:45:00      -11.973       39.956      -15.510      270.904       54.099      129.189    73389.183     2926.724    16689.894        4.747        4.650       41.712      182.493       19.142      330.246       -2.503      870.180
01/09/2021  02:46:00      -10.144       39.290      -46.094      482.158       46.002      230.310   232476.579     2116.146    53042.722       14.564       14.382       40.578      329.232       65.830      330.486       -2.101      870.184
01/09/2021  02:47:00       56.287       32.553      -46.593      481.465       50.158      234.440   231808.615     2515.780    54961.987       14.778       14.464       65.022      332.858       26.206      330.476       -2.120      870.197
01/09/2021  02:48:00       23.648       62.680      -46.196      460.447       37.993      220.240   212011.685     1443.501    48505.819       13.424       13.098       66.993      315.372       22.161      330.489       -2.099      870.211
01/09/2021  02:49:00       45.402       -7.466      -33.577      437.774       47.793      216.954   191646.375     2284.142    47068.840       12.207       12.050       46.012      301.273       42.873      330.483       -2.109      870.225
01/09/2021  02:50:00       13.559       46.968      -42.689      471.997       35.119      223.751   222781.157     1233.364    50064.682       13.909       13.704       48.886      321.614       43.281      330.529       -2.032      870.236
01/09/2021  02:51:00       -2.159       53.890      -23.380      401.311       43.327      189.870   161050.237     1877.215    36050.802       10.118        9.949       53.933      273.943       25.799      330.536       -2.022      870.245
01/09/2021  02:52:00      -22.047       61.823      -47.706      498.989       36.991      236.996   248990.429     1368.308    56167.307       15.649       15.326       65.637      341.965       27.144      330.614       -1.892      870.254
01/09/2021  02:53:00       27.420       38.461      -39.173      448.829       41.406      219.310   201447.091     1714.415    48097.005       12.746       12.563       47.234      310.474       43.205      330.518       -2.051      870.262
01/09/2021  02:54:00      120.804        5.572      -71.439      614.406       36.907      294.859   377494.864     1362.094    86942.049       24.267       23.290      120.933      423.438       12.260      330.840       -1.517      870.266
01/09/2021  02:55:00       79.461       -8.406      -19.402      416.163      109.837      206.549   173191.575    12064.102    42662.310       11.729       11.396       79.904      279.037       12.195      330.557       -1.987      870.272
01/09/2021  02:56:00       45.178      -10.101       -5.579      260.785       38.849      124.707    68008.562     1509.221    15551.813        4.360        4.253       46.293      178.349       14.843      330.407       -2.238      870.275
01/09/2021  02:57:00        5.271        7.761      -25.357      343.850       40.437      163.537   118232.588     1635.169    26744.369        7.364        7.331        9.381      233.935      621.842      330.382       -2.277      870.276
01/09/2021  02:58:00       13.468        0.186      -19.832      335.312       32.844      158.978   112434.036     1078.751    25274.085        6.965        6.939       13.469      228.771      288.485      330.335       -2.355      870.272
01/09/2021  02:59:00       44.661        0.407      -30.372      444.621       34.892      212.155   197688.120     1217.447    45009.750       12.336       12.196       44.663      305.341       46.739      330.468       -2.133      870.261
01/09/2021  03:00:00      118.075       10.268      -67.820      659.310       32.638      312.665   434689.675     1065.272    97759.492       27.597       26.676      118.521      452.286       14.563      330.663       -1.804      870.247
01/09/2021  03:01:00        2.918        6.934       -8.564      295.293       39.169      136.084    87197.805     1534.231    18518.758        5.367        5.363        7.523      194.979      671.735      330.166       -2.631      870.230
01/09/2021  03:02:00        9.600       -3.862      -14.629      283.766       41.902      139.610    80523.048     1755.805    19490.977        5.102        5.088       10.347      194.539      353.462      330.205       -2.569      870.227
01/09/2021  03:03:00       56.334       12.502      -44.509      459.730       30.775      222.520   211351.617      947.122    49515.179       13.351       13.091       57.705      317.768       30.325      330.389       -2.263      870.229
01/09/2021  03:04:00        9.394       18.145       -9.727      253.027       33.494      122.985    64022.485     1121.848    15125.196        4.037        4.013       20.432      173.833       72.381      330.190       -2.594      870.231
01/09/2021  03:05:00       88.720       15.137      -36.149      482.848       34.958      230.742   233142.081     1222.066    53241.751       14.845       14.380       90.002      332.537       13.651      330.400       -2.243      870.239
01/09/2021  03:06:00       46.150       -0.092      -19.569      359.693       20.606      173.734   129379.063      424.590    30183.663        8.122        7.999       46.150      248.973       29.105      330.345       -2.337      870.253
01/09/2021  03:07:00        5.368       -3.941      -15.827      258.711       29.075      123.506    66931.365      845.350    15253.642        4.164        4.152        6.659      176.827      705.149      330.223       -2.541      870.255
01/09/2021  03:08:00       11.648       19.908       -4.243      234.949       26.410      114.379    55201.079      697.470    13082.476        3.475        3.449       23.065      161.969       49.310      330.192       -2.590      870.259
01/09/2021  03:09:00       76.048        9.041      -44.108      520.339       26.918      248.808   270752.642      724.577    61905.306       17.053       16.669       76.584      358.797       21.950      330.499       -2.079      870.271
01/09/2021  03:10:00        2.921       13.255      -27.104      378.024       28.454      180.670   142902.334      809.636    32641.574        8.860        8.818       13.573      260.343      367.917      330.304       -2.404      870.276
01/09/2021  03:11:00       -2.798       17.023      -27.895      392.794       27.553      187.729   154287.386      759.153    35242.342        9.564        9.514       17.251      270.341      245.571      330.255       -2.484      870.292
01/09/2021  03:12:00       23.458       30.601      -51.502      524.291       26.723      249.681   274880.912      714.143    62340.512       17.097       16.897       38.557      360.918       87.620      330.409       -2.227      870.303
01/09/2021  03:13:00      128.301       23.707     -109.289      783.307       29.747      373.034   613569.297      884.863   139154.239       39.113       37.680      130.472      539.866       17.121      330.803       -1.570      870.301
01/09/2021  03:14:00        5.144       19.512      -45.481      486.732       34.021      230.346   236908.450     1157.435    53059.362       14.674       14.556       20.179      332.245      271.090      330.390       -2.260      870.296
01/09/2021  03:15:00      115.455       26.450     -100.650      741.291       42.186      357.941   549513.044     1779.658   128122.108       35.165       33.971      118.446      513.747       18.813      330.740       -1.676      870.295
01/09/2021  03:16:00      -21.709       41.711      -35.361      457.215       32.116      218.504   209045.550     1031.469    47744.001       13.059       12.891       47.022      314.465       44.724      330.217       -2.544      870.294
01/09/2021  03:17:00      -53.237       29.903      -27.844      360.380       33.727      172.593   129873.687     1137.530    29788.378        8.262        8.040       61.061      247.744       16.462      330.136       -2.680      870.290
01/09/2021  03:18:00       85.992       19.284      -86.438      688.873       36.698      332.396   474545.925     1346.712   110487.262       30.069       29.319       88.128      477.020       29.299      330.552       -1.987      870.296
01/09/2021  03:19:00      -55.460       29.941      -18.920      237.082       29.297      112.398    56207.954      858.292    12633.377        3.700        3.485       63.026      161.222        6.544      329.990       -2.922      870.304
01/09/2021  03:20:00       -4.505       18.721      -24.840      410.970       33.806      197.518   168896.389     1142.814    39013.339       10.498       10.453       19.256      283.090      216.136      330.070       -2.787      870.306
01/09/2021  03:21:00      -20.619       18.043       -2.483      234.821       31.641      108.032    55140.833     1001.148    11670.882        3.427        3.391       27.398      154.719       31.889      329.997       -2.909      870.310
01/09/2021  03:22:00       64.126       12.520      -43.391      512.460       33.845      246.813   262614.756     1145.478    60916.814       16.535       16.234       65.337      354.033       29.361      330.355       -2.317      870.315
01/09/2021  03:23:00        4.327       24.584      -36.309      430.313       30.276      207.908   185169.228      916.623    43225.558       11.558       11.466       24.962      297.795      142.322      330.188       -2.592      870.328
01/09/2021  03:24:00       15.150       32.026      -51.691      506.579       34.397      242.420   256622.764     1183.180    58767.524       16.018       15.829       35.429      349.181       97.139      330.236       -2.512      870.330
01/09/2021  03:25:00      -39.726       37.350      -31.911      406.381       28.443      194.738   165145.854      809.032    37923.019       10.389       10.194       54.526      279.977       26.365      330.106       -2.728      870.327
01/09/2021  03:26:00       41.757       32.580      -77.659      622.527       27.289      298.028   387540.362      744.709    88820.813       24.287       23.855       52.963      430.094       65.944      330.402       -2.233      870.325
01/09/2021  03:27:00        6.945       25.736      -42.669      432.353       34.183      207.734   186929.371     1168.467    43153.398       11.684       11.563       26.656      298.457      125.360      330.200       -2.575      870.326
01/09/2021  03:28:00       39.214       22.674      -58.810      547.770       32.890      264.532   300052.368     1081.731    69976.965       18.823       18.556       45.297      379.537       70.204      330.398       -2.246      870.336
01/09/2021  03:29:00      -23.906       10.426      -22.178      374.742       28.689      175.304   140431.882      823.054    30731.549        8.654        8.599       26.080      254.812       95.458      330.127       -2.696      870.343
01/09/2021  03:30:00       40.108       -1.072      -35.626      505.249       35.761      243.434   255276.304     1278.879    59259.914       15.928       15.791       40.122      348.723       75.544      330.368       -2.295      870.349
01/09/2021  03:31:00        8.777       16.507      -43.827      452.056       29.921      217.886   204354.883      895.253    47474.098       12.744       12.636       18.696      312.490      279.377      330.245       -2.499      870.352
01/09/2021  03:32:00       38.021       15.758      -55.266      564.029       33.634      269.125   318128.257     1131.232    72428.051       19.814       19.584       41.157      387.907       88.830      330.409       -2.226      870.342
01/09/2021  03:33:00       -8.547       29.896      -30.783      370.418       30.175      179.161   137209.612      910.538    32098.689        8.603        8.511       31.093      256.106       67.842      330.119       -2.707      870.317
01/09/2021  03:34:00      -13.421       22.557      -21.445      373.630       29.731      178.626   139599.382      883.953    31907.341        8.673        8.620       26.248      256.273       95.329      330.047       -2.825      870.292
01/09/2021  03:35:00       54.609        6.370      -51.899      557.856       34.182      269.647   311203.566     1168.442    72709.668       19.532       19.254       54.980      385.588       49.186      330.435       -2.184      870.272
01/09/2021  03:36:00       13.998        0.367      -38.925      468.982       30.393      221.648   219944.555      923.709    49127.972       13.580       13.500       14.003      320.782      524.770      330.311       -2.390      870.261
01/09/2021  03:37:00       -0.309       14.621      -41.664      522.740       33.344      248.577   273257.209     1111.825    61790.614       16.898       16.808       14.624      358.658      601.486      330.284       -2.433      870.271
01/09/2021  03:38:00       21.580       15.717      -46.676      502.757       25.854      240.822   252764.216      668.444    57995.400       15.709       15.571       26.696      347.078      169.025      330.285       -2.431      870.294
01/09/2021  03:39:00       -4.831        8.390      -34.129      452.281       33.637      217.471   204558.137     1131.481    47293.803       12.707       12.649        9.681      311.752     1036.929      330.252       -2.486      870.315
01/09/2021  03:40:00        7.784        6.034      -32.973      433.501       31.529      206.082   187922.803      994.095    42469.661       11.624       11.569        9.849      296.233      904.703      330.204       -2.567      870.322
01/09/2021  03:41:00       -0.024       14.427      -18.472      399.731       28.304      191.236   159784.540      801.126    36571.151        9.881        9.858       14.427      273.431      359.215      330.144       -2.665      870.293
01/09/2021  03:42:00       59.207        8.712      -48.934      558.018       32.853      264.768   311383.731     1079.317    70101.903       19.419       19.128       59.844      382.724       40.900      330.410       -2.224      870.268
01/09/2021  03:43:00       24.686       22.972      -61.497      608.502       28.314      292.793   370275.272      801.674    85727.959       23.077       22.840       33.721      420.794      155.715      330.368       -2.291      870.255
01/09/2021  03:44:00      -12.661       27.268      -41.962      488.624       30.258      235.229   238753.057      915.570    55332.546       14.877       14.750       30.064      336.952      125.617      330.116       -2.709      870.257
01/09/2021  03:45:00       37.687       14.006      -55.461      572.021       27.223      274.930   327207.551      741.115    75586.266       20.403       20.177       40.205      394.550       96.303      330.318       -2.375      870.264
01/09/2021  03:46:00       87.120       14.479      -87.410      720.746       28.408      340.436   519475.007      806.998   115896.816       32.568       31.809       88.315      494.220       31.316      330.538       -2.008      870.271
01/09/2021  03:47:00       20.425       19.867      -36.276      498.779       32.336      240.953   248779.994     1045.645    58058.492       15.494       15.394       28.493      343.987      145.746      330.088       -2.754      870.254
01/09/2021  03:48:00       -4.675       17.587      -43.279      488.085       33.379      232.450   238226.480     1114.149    54032.895       14.773       14.669       18.198      334.817      338.509      330.095       -2.742      870.233
01/09/2021  03:49:00       18.140       18.429      -51.752      569.034       34.400      272.267   323799.946     1183.388    74129.532       20.115       19.956       25.859      392.050      229.864      330.157       -2.640      870.212
01/09/2021  03:50:00      -30.765       14.271      -22.430      442.823       36.987      208.511   196091.881     1368.070    43476.736       12.124       12.047       33.914      300.737       78.635      329.996       -2.906      870.201
01/09/2021  03:51:00        9.381       30.556      -58.609      632.851       37.824      308.859   400500.156     1430.687    95394.111       25.079       24.866       31.964      440.369      189.808      330.219       -2.535      870.180
01/09/2021  03:52:00      -45.388       43.553      -31.175      460.993       29.024      219.309   212514.609      842.418    48096.237       13.314       13.073       62.904      315.093       25.091      329.817       -3.199      870.168
01/09/2021  03:53:00      -92.465       55.754      -32.575      419.822       34.203      199.831   176250.224     1169.849    39932.408       11.499       10.868      107.974      286.689        7.050      329.707       -3.382      870.161
01/09/2021  03:54:00      -71.312       25.909      -35.285      395.795       42.661      191.838   156653.929     1819.970    36801.856       10.110        9.764       75.873      273.746       13.017      329.787       -3.250      870.171
01/09/2021  03:55:00      -88.941       39.937      -34.198      423.792       29.467      205.017   179599.545      868.282    42031.818       11.654       11.125       97.496      292.129        8.978      329.737       -3.329      870.175
01/09/2021  03:56:00      -76.841       23.062      -20.952      389.832       34.240      185.881   151968.777     1172.367    34551.793        9.724        9.385       80.227      265.547       10.956      329.759       -3.297      870.174
01/09/2021  03:57:00       -0.144       -5.763      -14.068      358.595       31.746      169.774   128590.107     1007.837    28823.101        7.929        7.921        5.765      243.020     1777.286      329.804       -3.224      870.174
01/09/2021  03:58:00       66.547        0.556      -15.367      362.766       29.854      174.221   131599.389      891.289    30352.854        8.372        8.142       66.549      249.898       14.101      329.833       -3.175      870.175
01/09/2021  03:59:00      -14.881      -14.815      -11.365       34.217       32.091       19.343     1170.814     1029.856      374.141        0.157        0.129       20.999       20.224        0.928      329.788       -3.256      870.199
01/09/2021  04:00:00       32.634       -7.232      -14.960      282.311       20.446      134.593    79699.446      418.052    18115.398        4.977        4.912       33.425      194.125       33.729      329.783       -3.260      870.222
01/09/2021  04:01:00       32.704       -1.532      -11.808      247.894       13.570      118.931    61451.597      184.134    14144.652        3.848        3.789       32.740      171.407       27.409      329.831       -3.183      870.232
01/09/2021  04:02:00       44.187       15.967      -10.557      272.278       21.366      129.151    74135.079      456.513    16679.952        4.678        4.564       46.984      186.761       15.801      330.036       -2.846      870.231
01/09/2021  04:03:00       40.757       20.595      -11.432      224.652       21.926      104.917    50468.718      480.739    11007.623        3.207        3.098       45.665      152.304       11.124      329.987       -2.926      870.217
01/09/2021  04:04:00       32.589       12.444      -20.901      354.142       23.837      168.603   125416.817      568.226    28426.957        7.800        7.721       34.884      243.222       48.612      329.956       -2.974      870.186
01/09/2021  04:05:00       -6.971       -8.845      -11.364      145.233       22.902       69.426    21092.612      524.514     4819.922        1.334        1.322       11.262       98.581       76.624      329.847       -3.157      870.154
01/09/2021  04:06:00       59.488       -6.515      -37.824      445.486       20.116      213.866   198457.524      404.668    45738.722       12.475       12.230       59.843      308.086       26.504      330.011       -2.881      870.142
01/09/2021  04:07:00        8.156       -7.336       -9.775      288.148       23.479      138.036    83029.019      551.249    19054.067        5.140        5.132       10.970      198.320      326.822      329.831       -3.181      870.148
01/09/2021  04:08:00        8.049       11.139        0.047      202.085       27.891       97.926    40838.310      777.927     9589.587        2.569        2.560       13.743      138.061      100.921      329.758       -3.300      870.154
01/09/2021  04:09:00       17.328       12.094       -8.190      238.197       13.257      114.158    56737.806      175.748    13032.072        3.521        3.497       21.131      163.345       59.755      329.844       -3.160      870.154
01/09/2021  04:10:00      -32.989       10.160       -2.056      147.973       22.655       73.146    21895.919      513.242     5350.410        1.447        1.388       34.519      101.511        8.648      329.809       -3.220      870.164
01/09/2021  04:11:00        5.149        8.472      -32.211      384.491       15.573      182.232   147833.197      242.517    33208.681        9.117        9.064        9.914      264.148      709.844      329.946       -2.991      870.184
01/09/2021  04:12:00       27.874       11.009      -31.058      433.566       11.797      206.293   187979.095      139.178    42556.844       11.622       11.534       29.969      298.765       99.384      329.955       -2.973      870.219
01/09/2021  04:13:00       25.714       14.293      -20.822      351.791       21.221      168.615   123757.122      450.343    28431.169        7.694        7.632       29.420      242.969       68.206      329.870       -3.115      870.247
01/09/2021  04:14:00      -12.973        5.211       -8.035      148.126       18.722       71.629    21941.434      350.497     5130.728        1.384        1.371       13.980      101.905       53.135      329.819       -3.203      870.266
01/09/2021  04:15:00      -13.046        0.994       -3.136       15.628       19.314       12.038      244.246      373.031      144.904        0.047        0.038       13.084       15.256        1.360      329.878       -3.107      870.268
01/09/2021  04:16:00        8.032        8.356       -4.076      201.659       18.549       96.783    40666.479      344.057     9366.872        2.525        2.519       11.591      138.897      143.604      329.900       -3.071      870.265
01/09/2021  04:17:00        8.220        2.406       -5.165      198.825       13.108       94.879    39531.390      171.812     9002.051        2.439        2.435        8.565      136.663      254.590      329.874       -3.113      870.253
01/09/2021  04:18:00       13.663        1.742       -0.640      183.469       22.196       87.382    33660.836      492.666     7635.589        2.098        2.089       13.773      125.421       82.920      329.765       -3.287      870.225
01/09/2021  04:19:00        6.792      -10.007       -8.796      221.765       15.376      106.330    49179.721      236.422    11306.022        3.046        3.036       12.094      152.908      159.845      329.788       -3.252      870.201
01/09/2021  04:20:00       20.502       -9.033       -9.264      291.709       12.890      139.870    85093.907      166.157    19563.711        5.268        5.241       22.403      201.594       80.973      329.758       -3.300      870.196
01/09/2021  04:21:00       35.865       10.792      -33.243      431.031       14.887      204.016   185787.874      221.608    41622.689       11.502       11.382       37.454      295.878       62.407      329.952       -2.979      870.201
01/09/2021  04:22:00       25.378       11.854      -36.935      444.904       15.332      210.465   197939.377      235.056    44295.679       12.226       12.124       28.010      305.586      119.025      329.922       -3.029      870.211
01/09/2021  04:23:00       21.755       17.054      -30.876      422.181       21.813      202.516   178236.655      475.819    41012.559       11.068       10.986       27.643      291.697      111.354      329.881       -3.095      870.209
01/09/2021  04:24:00       70.911        5.528      -46.503      509.012       25.191      245.096   259093.331      634.610    60071.923       16.344       15.990       71.126      352.353       24.541      330.094       -2.744      870.198
01/09/2021  04:25:00      -20.638       12.457       -6.364      165.010       15.055       78.991    27228.273      226.639     6239.543        1.715        1.685       24.106      113.112       22.018      329.776       -3.272      870.191
01/09/2021  04:26:00      -40.216       14.221       -8.715      172.133       11.627       82.592    29629.891      135.179     6821.462        1.923        1.829       42.656      118.578        7.727      329.714       -3.375      870.179
01/09/2021  04:27:00       12.069       17.389      -44.001      476.846       16.036      228.407   227382.078      257.160    52169.586       14.104       13.990       21.167      329.646      242.533      329.977       -2.937      870.180
01/09/2021  04:28:00      -33.967       19.058      -26.537      385.780       18.917      185.753   148826.100      357.843    34504.069        9.292        9.184       38.949      266.516       46.824      329.795       -3.237      870.187
01/09/2021  04:29:00        3.796       11.816      -60.303      565.117       17.017      269.889   319357.629      289.593    72839.998       19.806       19.624       12.411      390.003      987.456      329.977       -2.935      870.189
01/09/2021  04:30:00      -41.151       23.696      -39.380      464.585       15.364      222.637   215839.303      236.039    49567.255       13.467       13.282       47.486      320.944       45.681      329.724       -3.350      870.184
01/09/2021  04:31:00      -23.464       34.618      -41.439      479.806       25.823      228.004   230213.351      666.832    51985.719       14.311       14.143       41.821      329.927       62.238      329.684       -3.416      870.177
01/09/2021  04:32:00       10.436       21.167      -43.438      487.814       26.886      230.867   237962.618      722.843    53299.414       14.715       14.599       23.600      334.509      200.909      329.698       -3.395      870.171
01/09/2021  04:33:00        6.310       17.625      -41.138      514.596       21.936      244.816   264808.973      481.197    59934.956       16.357       16.261       18.721      353.921      357.403      329.762       -3.288      870.158
01/09/2021  04:34:00      -16.210        0.273      -23.766      388.638       22.224      185.546   151039.381      493.904    34427.441        9.335        9.298       16.212      266.095      269.386      329.650       -3.474      870.141
01/09/2021  04:35:00      -20.853        1.892      -31.549      438.657       26.739      207.313   192419.763      714.984    42978.557       11.872       11.806       20.939      300.415      205.845      329.769       -3.278      870.134
01/09/2021  04:36:00      -53.488       10.399      -12.339      259.214       21.761      122.677    67191.953      473.530    15049.637        4.290        4.136       54.490      176.239       10.461      329.443       -3.817      870.146
01/09/2021  04:37:00      -33.551       -0.085      -14.605      303.501       22.616      145.340    92112.603      511.491    21123.705        5.752        5.687       33.551      208.232       38.520      329.578       -3.595      870.169
01/09/2021  04:38:00       16.380       -6.820      -22.178      428.988       31.628      206.121   184030.665     1000.325    42485.739       11.411       11.376       17.744      295.417      277.197      329.722       -3.356      870.207
01/09/2021  04:39:00        1.183        4.548      -15.867      340.831       23.994      162.559   116165.825      575.704    26425.310        7.169        7.158        4.699      233.706     2473.733      329.591       -3.572      870.246
01/09/2021  04:40:00       -2.043       10.161      -20.288      308.513       23.461      148.620    95180.413      550.439    22087.950        5.914        5.891       10.364      213.233      423.279      329.567       -3.612      870.274
01/09/2021  04:41:00       20.314        7.069      -37.417      444.855       11.563      213.303   197895.767      133.712    45498.323       12.264       12.176       21.509      307.739      204.700      329.684       -3.418      870.269
01/09/2021  04:42:00       13.964       -4.671       -8.691      307.508       23.015      145.879    94560.886      529.700    21280.601        5.831        5.819       14.725      210.832      205.003      329.635       -3.501      870.233
01/09/2021  04:43:00       39.707        2.928      -25.055      401.847       20.364      192.647   161480.948      414.677    37112.928       10.057        9.950       39.815      277.657       48.633      329.709       -3.378      870.194
01/09/2021  04:44:00       32.752       29.305      -29.670      449.861       16.339      213.937   202375.014      266.970    45768.903       12.556       12.421       43.948      309.846       49.706      329.663       -3.451      870.162
01/09/2021  04:45:00      -16.255       29.868      -23.485      323.984       18.761      154.424   104965.868      351.966    23846.759        6.541        6.458       34.005      222.757       42.913      329.536       -3.663      870.148
01/09/2021  04:46:00      -18.957       12.182      -15.742      280.872       24.261      135.667    78888.835      588.606    18405.440        4.930        4.894       22.534      193.734       73.916      329.462       -3.785      870.155
01/09/2021  04:47:00      -54.904       11.052      -24.371      298.500       22.236      142.958    89102.174      494.429    20437.073        5.686        5.502       56.006      204.604       13.346      329.435       -3.828      870.160
01/09/2021  04:48:00       16.078       -2.285      -26.042      342.785       22.238      167.034   117501.429      494.513    27900.227        7.339        7.295       16.239      237.798      214.424      329.479       -3.756      870.152
01/09/2021  04:49:00      -12.145        3.062      -19.363      328.037       22.535      157.339   107608.428      507.816    24755.426        6.667        6.644       12.525      225.829      325.066      329.460       -3.788      870.140
01/09/2021  04:50:00       -3.771        9.113       -8.323      225.975       18.775      108.834    51064.577      352.482    11844.878        3.170        3.163        9.862      155.579      248.846      329.317       -4.022      870.121
01/09/2021  04:51:00       83.197        4.119      -30.501      452.495       18.085      216.230   204751.426      327.082    46755.323       12.980       12.592       83.299      312.378       14.063      329.577       -3.592      870.106
01/09/2021  04:52:00       39.931       -7.365      -19.418      361.197        8.043      173.274   130463.375       64.686    30023.967        8.126        8.028       40.605      249.889       37.874      329.507       -3.711      870.087
01/09/2021  04:53:00        0.724        5.319       -7.028      256.845       26.060      124.020    65969.448      679.111    15380.897        4.104        4.101        5.368      177.371     1091.890      329.380       -3.921      870.079
01/09/2021  04:54:00       25.937        5.290      -23.539      353.956       17.269      170.119   125285.192      298.220    28940.391        7.786        7.726       26.471      244.776       85.504      329.368       -3.935      870.072
01/09/2021  04:55:00      -16.645        2.278      -19.047      298.051       18.946      141.686    88834.609      358.965    20074.936        5.493        5.463       16.801      204.668      148.406      329.378       -3.921      870.067
01/09/2021  04:56:00      -45.026        7.608      -16.382      251.829       18.870      120.855    63417.776      356.083    14605.979        4.035        3.919       45.664      173.110       14.371      329.414       -3.864      870.070
01/09/2021  04:57:00      -77.335       11.680      -18.736      232.824       18.039      112.890    54206.800      325.413    12744.114        3.686        3.364       78.212      160.835        4.229      329.327       -4.008      870.072
01/09/2021  04:58:00      -47.871       22.753      -20.143      316.838       16.570      153.379   100386.001      274.557    23525.193        6.367        6.209       53.003      219.427       17.139      329.319       -4.017      870.085
01/09/2021  04:59:00      -64.425       24.756      -14.187      251.014       18.741      120.922    63008.062      351.227    14622.094        4.146        3.899       69.017      173.497        6.319      329.287       -4.071      870.093
01/09/2021  05:00:00      -36.647       22.031      -35.476      387.910       18.391      182.751   150474.490      338.235    33398.086        9.361        9.211       42.760      265.452       38.539      329.450       -3.802      870.094
01/09/2021  05:01:00        7.268       28.654      -47.741      472.846       17.219      226.954   223583.147      296.503    51507.999       13.921       13.769       29.561      327.107      122.445      329.550       -3.634      870.089
01/09/2021  05:02:00      -23.124       24.295      -40.499      439.777        9.273      210.655   193403.549       85.992    44375.668       12.026       11.893       33.541      303.989       82.143      329.489       -3.737      870.096
01/09/2021  05:03:00      -16.909       16.209      -35.625      382.917       15.954      182.447   146625.658      254.535    33286.994        9.095        9.008       23.423      263.879      126.923      329.477       -3.759      870.088
01/09/2021  05:04:00       33.460        1.451      -29.471      396.591       22.206      189.357   157284.609      493.108    35856.079        9.777        9.682       33.492      273.428       66.652      329.525       -3.680      870.079
01/09/2021  05:05:00       19.370       -7.123      -18.163      307.846        7.705      145.962    94769.257       59.362    21304.938        5.842        5.807       20.638      211.700      105.220      329.445       -3.813      870.081
01/09/2021  05:06:00       50.832       11.193      -19.790      369.931       14.619      176.892   136848.610      213.729    31290.736        8.569        8.418       52.050      255.546       24.105      329.510       -3.706      870.091
01/09/2021  05:07:00       10.039       24.958       -2.231      176.882        9.391       85.624    31287.156       88.184     7331.454        1.971        1.935       26.901      122.747       20.820      329.393       -3.899      870.121
01/09/2021  05:08:00       33.985       27.048      -15.609      282.847        6.448      135.350    80002.380       41.577    18319.731        5.023        4.918       43.435      195.546       20.269      329.606       -3.547      870.152
01/09/2021  05:09:00       58.731       18.579      -43.577      482.115       11.038      230.791   232434.461      121.846    53264.396       14.570       14.291       61.600      333.298       29.276      329.785       -3.252      870.178
01/09/2021  05:10:00       10.995       17.652      -24.590      331.389       14.000      158.392   109818.478      196.013    25087.995        6.804        6.755       20.797      228.870      121.113      329.527       -3.678      870.199
01/09/2021  05:11:00      -10.033        1.423      -17.462      264.781       16.670      127.202    70109.040      277.888    16180.336        4.347        4.328       10.133      182.856      325.617      329.370       -3.936      870.205
01/09/2021  05:12:00      -24.540       24.661      -26.347      329.532        6.881      157.353   108591.504       47.351    24759.883        6.762        6.670       34.791      227.565       42.784      329.343       -3.979      870.210
01/09/2021  05:13:00      -12.829        9.776      -12.983      208.682       21.652      100.046    43548.199      468.807    10009.110        2.722        2.701       16.130      143.680       79.350      329.283       -4.079      870.206
01/09/2021  05:14:00       31.763        7.767      -20.598      315.215        9.692      150.025    99360.744       93.927    22507.401        6.170        6.098       32.699      217.085       44.075      329.389       -3.902      870.196
01/09/2021  05:15:00        8.037        1.185       -7.389      220.547       12.021      104.956    48641.153      144.504    11015.861        2.995        2.990        8.124      151.676      348.588      329.501       -3.723      870.157
01/09/2021  05:16:00       13.120       12.761        3.991      137.839       14.166       66.422    18999.668      200.668     4411.877        1.198        1.181       18.302       93.926       26.336      329.513       -3.703      870.120
01/09/2021  05:17:00       41.907       35.407       -7.170      225.878       13.804      107.981    51021.015      190.561    11659.826        3.295        3.144       54.863      155.779        8.062      329.624       -3.520      870.093
01/09/2021  05:18:00       41.404       20.727       -4.512      261.799       12.462      124.999    68538.725      155.290    15624.646        4.322        4.216       46.302      180.626       15.218      329.637       -3.501      870.072
01/09/2021  05:19:00       -5.858        4.196       -4.606      129.244       12.325       61.235    16704.005      151.908     3749.759        1.033        1.030        7.205       88.592      151.171      329.580       -3.595      870.066
01/09/2021  05:20:00        1.410       -0.817      -13.270      276.799       11.547      129.775    76617.498      133.342    16841.622        4.687        4.680        1.630      188.773    13417.505      329.388       -3.905      870.066
01/09/2021  05:21:00      -17.878       14.704      -33.436      438.858       27.436      209.414   192596.714      752.753    43854.239       11.938       11.860       23.149      302.005      170.208      329.417       -3.852      870.064
01/09/2021  05:22:00      -79.804       41.975      -18.189      217.327       14.690      103.957    47231.046      215.803    10807.017        3.335        2.913       90.170      148.472        2.711      329.138       -4.317      870.070
01/09/2021  05:23:00      -42.761       30.142      -45.100      490.768       13.488      232.559   240853.276      181.929    54083.558       14.988       14.756       52.317      337.280       41.562      329.342       -3.974      870.083
01/09/2021  05:24:00      -73.008       24.982      -34.462      420.029       24.504      200.967   176424.350      600.451    40387.620       11.223       10.871       77.164      289.977       14.122      329.249       -4.130      870.107
01/09/2021  05:25:00      -93.727        8.772      -19.264      254.077       24.305      121.822    64555.358      590.734    14840.565        4.459        3.999       94.137      174.807        3.448      329.162       -4.276      870.111
01/09/2021  05:26:00      -51.390        0.587       -5.822      200.595       24.960       95.570    40238.293      622.992     9133.635        2.632        2.500       51.393      134.303        6.829      329.099       -4.379      870.104
01/09/2021  05:27:00       21.048       -1.233      -32.027      415.275       21.133      200.415   172453.591      446.584    40165.986       10.722       10.653       21.085      286.390      184.496      329.282       -4.076      870.093
01/09/2021  05:28:00      -41.785        5.557      -19.888      262.039       24.482      126.584    68664.586      599.364    16023.600        4.371        4.264       42.152      180.400       18.316      329.232       -4.161      870.090
01/09/2021  05:29:00        6.805        4.366      -38.841      457.097       24.723      220.085   208937.490      611.249    48437.227       12.972       12.899        8.085      315.395     1521.626      329.345       -3.972      870.102
01/09/2021  05:30:00      -34.465        8.972       -2.048       49.411       19.355       16.157     2441.442      374.632      261.037        0.217        0.154       35.614       19.406        0.297      329.046       -4.467      870.119
01/09/2021  05:31:00      -22.479       -4.732       -8.378      228.645       27.956      106.845    52278.744      781.561    11415.887        3.252        3.224       22.972      152.776       44.229      329.152       -4.293      870.143
01/09/2021  05:32:00       21.221       -3.234       -2.569      182.568       17.464       87.144    33331.218      305.004     7594.123        2.084        2.062       21.466      124.786       33.793      329.095       -4.386      870.174
01/09/2021  05:33:00       54.204        9.279      -35.177      384.947       17.269      182.535   148184.376      298.231    33318.924        9.299        9.090       54.993      263.951       23.037      329.210       -4.194      870.203
01/09/2021  05:34:00       55.298      -18.296      -28.429      397.079       39.909      188.224   157671.440     1592.740    35428.392        9.941        9.735       58.246      272.054       21.816      329.126       -4.331      870.230
01/09/2021  05:35:00       41.443      -25.970      -24.857      320.535       30.536      152.674   102742.490      932.432    23309.404        6.497        6.349       48.907      219.600       20.161      329.029       -4.492      870.240
01/09/2021  05:36:00      -32.318        2.832       -3.408       26.625       29.469       23.690      708.868      868.418      561.228        0.160        0.107       32.442       19.617        0.366      328.909       -4.691      870.244
01/09/2021  05:37:00        0.811       11.290       -7.359       32.876       23.589       16.059     1080.814      556.431      257.900        0.104        0.095       11.319        8.405        0.551      328.964       -4.601      870.240
01/09/2021  05:38:00        4.757      -17.163      -20.288      272.833       21.592      131.971    74438.000      466.209    17416.331        4.651        4.616       17.810      188.615      112.161      329.039       -4.476      870.236
01/09/2021  05:39:00       17.290        5.235      -34.845      413.512       23.476      197.729   170991.822      551.116    39096.601       10.604       10.532       18.065      285.000      248.898      329.173       -4.255      870.236
01/09/2021  05:40:00       21.274       12.383      -27.501      377.844       19.877      176.783   142765.948      395.102    31252.170        8.785        8.721       24.615      257.261      109.231      329.159       -4.277      870.217
01/09/2021  05:41:00        8.095       11.458      -21.943      304.910       19.106      146.532    92969.818      365.047    21471.589        5.772        5.740       14.029      209.814      223.682      329.143       -4.305      870.201
01/09/2021  05:42:00       -0.677       16.671      -19.551      315.787       11.768      149.543    99721.482      138.492    22363.159        6.142        6.111       16.685      216.929      169.039      329.284       -4.075      870.196
01/09/2021  05:43:00      -23.061       13.073      -11.969      179.005       14.388       84.036    32042.825      207.012     7062.045        2.007        1.966       26.508      121.458       20.994      329.072       -4.425      870.198
01/09/2021  05:44:00       -7.179       -5.668       -8.796      200.912       18.781       95.115    40365.477      352.722     9046.885        2.495        2.488        9.146      136.526      222.802      329.050       -4.458      870.215
01/09/2021  05:45:00       53.557        8.354      -16.976      343.573       14.650      165.518   118042.589      214.610    27396.113        7.441        7.283       54.205      237.782       19.243      329.139       -4.310      870.225
01/09/2021  05:46:00        3.387      -17.583       -7.451      203.479       23.216      100.994    41403.721      539.002    10199.717        2.625        2.607       17.906      140.054       61.175      329.022       -4.505      870.247
01/09/2021  05:47:00       24.825        2.514      -12.923      268.316       18.528      127.218    71993.575      343.289    16184.348        4.464        4.426       24.952      183.600       54.144      329.038       -4.478      870.257
01/09/2021  05:48:00       -4.256       -4.225      -21.582      349.924       22.714      165.955   122446.806      515.907    27540.916        7.547        7.525        5.996      238.372     1580.242      329.094       -4.384      870.270
01/09/2021  05:49:00      -91.021       16.669      -13.898       19.069       18.825       15.475      363.621      354.370      239.466        0.486        0.048       92.534       10.190        0.012      328.962       -4.604      870.284
01/09/2021  05:50:00      -68.827        1.914      -28.444      250.217       21.771      119.156    62608.487      473.984    14198.128        4.140        3.864       68.853      170.941        6.164      329.106       -4.368      870.288
01/09/2021  05:51:00      -62.286       22.006      -27.120      347.717       13.968      164.936   120906.940      195.118    27203.988        7.667        7.415       66.059      238.891       13.078      329.032       -4.486      870.297
01/09/2021  05:52:00      -61.340       30.236      -36.246      380.526       13.121      181.089   144799.671      172.157    32793.335        9.184        8.888       68.387      262.098       14.689      329.014       -4.515      870.312
01/09/2021  05:53:00      -94.515       30.164      -10.145      181.052       21.653       86.215    32780.003      468.859     7433.092        2.531        2.034       99.212      122.751        1.531      328.889       -4.721      870.328
01/09/2021  05:54:00      -64.645       19.685      -18.811      274.730       18.942      131.433    75476.364      358.793    17274.516        4.900        4.655       67.576      189.154        7.835      328.897       -4.708      870.353
01/09/2021  05:55:00      -16.606      -12.844      -11.485      267.062       25.561      126.476    71322.339      653.377    15996.122        4.425        4.399       20.993      180.900       74.254      328.975       -4.579      870.368
01/09/2021  05:56:00       -3.916        4.160        3.249      175.341       31.831       84.391    30744.379     1013.226     7121.845        1.945        1.944        5.713      118.777      432.230      328.937       -4.644      870.378
01/09/2021  05:57:00        4.133      -13.952      -10.406       25.575       19.099       12.551      654.102      364.784      157.527        0.075        0.059       14.551        9.462        0.423      328.932       -4.653      870.386
01/09/2021  05:58:00      -48.868       16.844      -13.939      236.208       20.148      112.542    55794.324      405.930    12665.638        3.585        3.443       51.689      160.071        9.590      328.943       -4.632      870.393
01/09/2021  05:59:00      -97.079       15.725      -17.085      164.803       20.022       80.035    27159.992      400.891     6405.607        2.196        1.698       98.345      112.809        1.316      328.908       -4.691      870.382
01/09/2021  06:00:00      -89.226       17.242      -24.521      264.951       15.829      127.255    70198.819      250.543    16193.902        4.773        4.332       90.877      182.650        4.040      328.945       -4.630      870.389
01/09/2021  06:01:00      -75.677       20.106      -30.404      288.128       16.171      134.558    83017.905      261.498    18105.767        5.420        5.069       78.302      196.224        6.280      329.037       -4.480      870.397
01/09/2021  06:02:00      -55.883        3.722       -7.032      173.895       25.504       85.548    30239.502      650.460     7318.430        2.069        1.910       56.007      118.493        4.476      329.020       -4.509      870.386
01/09/2021  06:03:00      -43.664        0.240      -23.489      270.823       27.723      129.725    73345.298      768.584    16828.452        4.668        4.547       43.665      186.152       18.175      329.019       -4.508      870.386
01/09/2021  06:04:00      -36.535       18.030      -17.582      300.562       20.001      143.668    90337.739      400.049    20640.611        5.665        5.569       40.742      207.011       25.817      328.972       -4.585      870.377
01/09/2021  06:05:00      -10.246        0.372      -24.779      347.889       31.038      165.908   121027.047      963.388    27525.580        7.509        7.476       10.253      238.488      541.095      329.095       -4.382      870.362
01/09/2021  06:06:00      -55.641       17.436      -21.498      326.271       27.086      155.614   106452.494      733.678    24215.847        6.760        6.570       58.309      224.125       14.774      329.021       -4.505      870.352
01/09/2021  06:07:00      -78.611       27.248       -4.156       15.594       13.955       10.508      243.169      194.753      110.419        0.374        0.027       83.199        5.282        0.004      328.844       -4.797      870.354
01/09/2021  06:08:00        0.773       22.709      -45.788      498.621       15.841      238.935   248622.964      250.952    57089.941       15.422       15.298       22.723      344.509      229.872      329.165       -4.264      870.369
01/09/2021  06:09:00      -44.276       40.950      -27.742      384.001       19.055      179.907   147456.818      363.093    32366.510        9.226        9.009       60.309      262.097       18.887      328.983       -4.565      870.397
01/09/2021  06:10:00      -61.386       48.994      -20.542      323.384       20.162      154.682   104577.100      406.490    23926.605        6.772        6.446       78.540      220.993        7.917      328.938       -4.640      870.420
01/09/2021  06:11:00      -99.726       55.711      -18.199      255.423       25.693      123.609    65240.890      660.144    15279.190        4.726        4.059      114.232      175.535        2.361      328.807       -4.854      870.431
01/09/2021  06:12:00      -58.689       37.001      -29.758      389.335       19.702      182.308   151581.849      388.186    33236.209        9.541        9.260       69.379      264.431       14.527      328.875       -4.740      870.441
01/09/2021  06:13:00     -101.516       27.813       -5.778       29.047       17.416       16.731      843.731      303.312      279.934        0.627        0.071      105.257       16.758        0.025      328.680       -5.066      870.446
01/09/2021  06:14:00      -75.243        9.636      -16.060      191.493       16.221       93.833    36669.406      263.122     8804.597        2.587        2.287       75.857      131.947        3.026      328.807       -4.856      870.443
01/09/2021  06:15:00      -53.955       17.664      -24.018      281.893       14.899      133.242    79463.885      221.970    17753.336        5.060        4.872       56.772      192.905       11.545      328.825       -4.826      870.427
01/09/2021  06:16:00      -26.989      -10.063      -26.377      312.350       20.914      151.929    97562.218      437.388    23082.523        6.128        6.054       28.804      216.514       56.501      328.951       -4.618      870.410
01/09/2021  06:17:00       -7.886       10.874      -28.462      388.277       19.962      185.308   150758.973      398.489    34338.921        9.320        9.275       13.433      266.190      392.705      329.018       -4.507      870.403
01/09/2021  06:18:00      -69.178       18.373      -19.140      220.470       12.621      103.929    48607.195      159.298    10801.187        3.252        2.978       71.577      150.783        4.438      328.814       -4.844      870.395
01/09/2021  06:19:00       16.280        7.541      -48.144      499.068       21.771      237.907   249069.315      473.977    56599.880       15.433       15.307       17.941      343.779      367.151      329.140       -4.305      870.396
01/09/2021  06:20:00       15.272        8.859      -32.967      412.146       17.036      195.238   169864.116      290.222    38117.794       10.479       10.414       17.655      282.610      256.231      329.059       -4.441      870.405
01/09/2021  06:21:00      -28.414       21.735      -26.054      331.829       14.174      158.187   110110.249      200.900    25023.131        6.862        6.767       35.774      228.507       40.800      328.888       -4.721      870.411
01/09/2021  06:22:00      -29.393       19.233      -38.768      368.797       12.451      175.978   136011.373      155.018    30968.129        8.490        8.357       35.127      254.472       52.482      328.961       -4.601      870.426
01/09/2021  06:23:00      -46.879       26.307      -33.711      369.231       18.069      176.114   136331.243      326.475    31016.049        8.581        8.384       53.756      254.491       22.413      328.921       -4.666      870.427
01/09/2021  06:24:00      -57.254       34.380      -25.255      348.283       15.949      167.147   121301.052      254.368    27937.997        7.726        7.475       66.783      240.233       12.940      328.857       -4.775      870.421
01/09/2021  06:25:00      -38.556       34.595      -36.533      427.716        8.727      203.690   182940.700       76.166    41489.429       11.421       11.225       51.801      294.811       32.390      328.937       -4.640      870.417
01/09/2021  06:26:00      -26.871       20.929      -38.508      439.302       14.347      209.040   192986.360      205.837    43697.526       11.972       11.844       34.060      302.576       78.919      328.947       -4.621      870.422
01/09/2021  06:27:00      -43.660       18.013      -35.631      390.584       18.045      187.069   152555.674      325.607    34994.949        9.565        9.394       47.230      269.697       32.608      328.954       -4.611      870.419
01/09/2021  06:28:00      -88.472       26.622      -20.803      306.678       14.858      145.821    94051.650      220.764    21263.825        6.223        5.777       92.390      210.619        5.197      328.870       -4.751      870.418
01/09/2021  06:29:00      -94.554       25.581       -8.420      183.415       27.784       88.841    33641.108      771.925     7892.753        2.598        2.115       97.954      124.773        1.623      328.821       -4.833      870.407
01/09/2021  06:30:00      -38.375       19.998      -39.467      448.936       19.702      217.063   201543.759      388.170    47116.244       12.619       12.452       43.273      311.226       51.727      329.038       -4.474      870.403
01/09/2021  06:31:00      -73.109       35.165      -27.845      390.262       22.233      186.373   152304.262      494.292    34734.927        9.741        9.377       81.127      268.187       10.928      328.844       -4.792      870.402
01/09/2021  06:32:00      -27.020       11.971      -28.982      379.198       21.698      182.212   143791.305      470.798    33201.384        8.955        8.873       29.553      261.133       78.077      328.888       -4.719      870.411
01/09/2021  06:33:00       -6.933       10.207      -19.351      337.066       24.509      163.423   113613.766      600.689    26707.104        7.069        7.046       12.339      232.965      356.489      328.906       -4.691      870.421
01/09/2021  06:34:00      -23.724       15.159      -10.046      261.405       31.431      127.666    68332.524      987.878    16298.620        4.324        4.281       28.154      177.511       39.754      328.853       -4.780      870.425
01/09/2021  06:35:00      -30.017       18.323      -23.961      343.639       20.399      167.121   118087.820      416.116    27929.449        7.409        7.322       35.167      237.751       45.705      328.845       -4.792      870.427
01/09/2021  06:36:00        9.110        0.163      -33.135      415.927       26.329      197.552   172995.081      693.199    39026.706       10.690       10.636        9.111      285.514      982.005      328.981       -4.567      870.420
01/09/2021  06:37:00      -33.868       21.263      -26.800      373.985       18.521      178.230   139864.878      343.013    31766.002        8.711        8.599       39.990      257.272       41.390      328.809       -4.850      870.419
01/09/2021  06:38:00      -60.373       38.570      -40.852      434.276       13.832      207.667   188595.647      191.311    43125.645       11.931       11.596       71.642      300.002       17.535      328.820       -4.829      870.419
01/09/2021  06:39:00      -87.704       23.641      -22.852      255.052       18.800      121.450    65051.435      353.438    14750.146        4.445        4.008       90.835      175.210        3.721      328.698       -5.031      870.427
01/09/2021  06:40:00      -11.231       18.941      -42.997      512.423       19.566      242.363   262577.605      382.816    58739.654       16.195       16.085       22.020      351.365      254.610      329.011       -4.514      870.437
01/09/2021  06:41:00       19.517       -0.397      -21.785      299.733       17.416      144.402    89839.787      303.328    20851.827        5.590        5.550       19.521      206.971      112.412      328.820       -4.834      870.448
01/09/2021  06:42:00       41.913       -5.591      -22.203      273.803       15.674      131.017    74968.280      245.661    17165.494        4.731        4.619       42.285      188.198       19.809      328.840       -4.800      870.455
01/09/2021  06:43:00       16.860        2.738       -4.072      247.809       33.075      117.641    61409.215     1093.943    13839.372        3.831        3.817       17.081      169.685       98.685      328.754       -4.942      870.460
01/09/2021  06:44:00      118.196        8.935      -68.298      643.593       17.459      306.114   414212.391      304.830    93706.056       26.336       25.411      118.534      443.456       13.996      329.243       -4.131      870.451
01/09/2021  06:45:00       62.423        9.155      -49.911      551.956       21.248      262.950   304655.167      451.466    69142.935       19.028       18.712       63.090      380.394       36.353      329.154       -4.281      870.439
01/09/2021  06:46:00       11.630       -1.835      -16.874      304.287       16.729      145.896    92590.614      279.852    21285.645        5.727        5.708       11.774      210.038      318.218      328.949       -4.623      870.423
01/09/2021  06:47:00       47.967        2.006      -24.263      403.752       24.753      191.194   163015.664      612.688    36555.010       10.150       10.009       48.009      276.951       33.278      328.992       -4.549      870.414
01/09/2021  06:48:00       24.352      -12.236      -19.438      351.395       15.744      167.558   123478.195      247.887    28075.581        7.643        7.590       27.253      242.004       78.851      328.962       -4.598      870.417
01/09/2021  06:49:00       69.068       -1.404      -39.720      497.969       15.491      237.263   247972.896      239.964    56293.578       15.536       15.225       69.082      343.118       24.669      329.076       -4.409      870.439
01/09/2021  06:50:00       44.327      -11.677      -39.086      445.148       20.932      210.785   198156.707      438.129    44430.107       12.327       12.151       45.839      305.070       44.293      329.093       -4.383      870.451
01/09/2021  06:51:00       30.149       -8.905      -24.309      373.604       20.979      176.974   139579.957      440.108    31319.865        8.642        8.567       31.437      256.377       66.510      329.020       -4.504      870.458
01/09/2021  06:52:00       71.663      -17.560      -46.299      546.337       19.480      258.809   298483.680      379.476    66981.905       18.664       18.292       73.783      375.044       25.838      329.223       -4.167      870.458
01/09/2021  06:53:00       -7.828       -8.547      -14.214      246.193       20.309      117.424    60611.078      412.469    13788.293        3.756        3.741       11.590      169.301      213.371      328.830       -4.816      870.445
01/09/2021  06:54:00      -26.370       18.211       -4.954      161.897       14.388       78.167    26210.537      207.020     6110.124        1.678        1.626       32.047      111.744       12.158      328.827       -4.824      870.428
01/09/2021  06:55:00       10.983       -0.757       -9.789      216.761       11.456      103.543    46985.365      131.238    10721.070        2.902        2.892       11.009      148.974      183.114      328.901       -4.704      870.418
01/09/2021  06:56:00      100.359       -4.952      -55.327      552.408       20.172      266.528   305154.253      406.928    71037.025       19.480       18.830      100.481      383.152       14.540      329.226       -4.161      870.407
01/09/2021  06:57:00       75.064       -2.291      -50.186      510.667       15.035      243.269   260780.515      226.065    59179.792       16.410       16.009       75.099      351.808       21.945      329.168       -4.258      870.413
01/09/2021  06:58:00      100.761       -6.521      -56.867      583.902       19.168      277.450   340941.225      367.396    76978.347       21.577       20.914      100.971      401.944       15.846      329.292       -4.055      870.412
01/09/2021  06:59:00       93.391      -12.172      -45.146      535.957       17.236      254.765   287249.720      297.076    64905.316       18.161       17.623       94.181      368.679       15.324      329.302       -4.039      870.415
01/09/2021  07:00:00       30.331       -3.942      -35.540      444.077       15.885      212.640   197204.811      252.342    45215.746       12.238       12.134       30.586      306.192      100.215      329.179       -4.243      870.415
01/09/2021  07:01:00       -7.343       -2.423      -30.998      420.801       16.116      199.333   177073.763      259.741    39733.808       10.900       10.853        7.732      288.658     1393.680      329.193       -4.222      870.408
01/09/2021  07:02:00       27.122      -10.364      -26.695      377.913       23.733      181.047   142817.885      563.278    32778.064        8.882        8.808       29.034      260.292       80.371      329.207       -4.198      870.401
01/09/2021  07:03:00        9.763       -2.332      -24.987      431.739       19.974      206.829   186398.264      398.965    42778.241       11.510       11.479       10.038      296.985      875.354      328.993       -4.548      870.390
01/09/2021  07:04:00       61.019        2.730      -32.414      484.460       13.228      231.872   234701.247      174.967    53764.799       14.665       14.432       61.080      332.670       29.664      329.148       -4.292      870.396
01/09/2021  07:05:00       -8.747       -8.316      -39.788      481.385       19.756      228.826   231731.639      390.311    52361.154       14.304       14.224       12.069      330.753      751.008      329.116       -4.344      870.395
01/09/2021  07:06:00       30.068       -6.993      -31.445      442.409       25.036      211.526   195726.046      626.779    44743.408       12.147       12.055       30.870      304.264       97.146      329.121       -4.338      870.392
01/09/2021  07:07:00      -40.212        0.177      -16.541      332.970       26.639      157.390   110868.810      709.661    24771.476        6.909        6.817       40.213      227.721       32.069      328.962       -4.602      870.401
01/09/2021  07:08:00        8.337       -5.878      -18.307      394.135       29.638      192.493   155342.553      878.386    37053.428        9.682        9.664       10.201      273.632      719.541      328.942       -4.632      870.404
01/09/2021  07:09:00       17.510       -2.834      -20.410      411.686       27.109      194.519   169484.987      734.898    37837.780       10.435       10.403       17.738      281.561      251.959      329.113       -4.352      870.409
01/09/2021  07:10:00       -5.878      -18.456       -9.734      278.209       23.074      132.362    77400.384      532.409    17519.805        4.794        4.773       19.370      190.060       96.281      328.931       -4.652      870.427
01/09/2021  07:11:00        0.532       -7.487      -30.987      387.313       32.309      184.863   150011.049     1043.871    34174.374        9.308        9.261        7.506      265.784     1253.914      328.998       -4.539      870.443
01/09/2021  07:12:00        2.941      -17.705      -20.380      396.941       30.578      189.335   157562.088      935.026    35847.667        9.750        9.717       17.948      272.618      230.721      329.116       -4.348      870.469
01/09/2021  07:13:00      -15.100       -4.566       -5.067      282.105       25.642      133.296    79583.252      657.503    17767.731        4.912        4.900       15.775      191.629      147.560      328.975       -4.581      870.490
01/09/2021  07:14:00       25.354       -6.874      -27.402      449.859       19.331      215.098   202373.306      373.701    46267.212       12.517       12.451       26.269      308.274      137.712      329.145       -4.299      870.502
01/09/2021  07:15:00       10.888      -17.225       -7.427      285.315       27.574      135.855    81404.724      760.322    18456.583        5.052        5.031       20.378      195.235       91.791      329.015       -4.515      870.496
01/09/2021  07:16:00       33.967      -25.260      -14.933      310.917       31.702      146.159    96669.112     1005.004    21362.349        6.050        5.952       42.330      211.413       24.944      329.015       -4.514      870.490
01/09/2021  07:17:00       19.507       21.737      -31.761      409.545       18.157      194.054   167726.992      329.689    37656.878       10.374       10.286       29.207      281.182       92.687      328.981       -4.566      870.488
01/09/2021  07:18:00      -31.076       20.449      -27.587      366.057       19.594      171.115   133997.392      383.943    29280.220        8.287        8.183       37.200      248.676       44.686      328.886       -4.723      870.495
01/09/2021  07:19:00      -53.787        8.881      -16.259      225.409       15.799      108.216    50809.182      249.595    11710.796        3.299        3.138       54.515      153.861        7.966      328.788       -4.886      870.502
01/09/2021  07:20:00      -80.644        3.934      -14.965      195.854       19.526       95.023    38358.833      381.249     9029.309        2.725        2.388       80.740      133.378        2.729      328.808       -4.854      870.509
01/09/2021  07:21:00      -97.418       14.985        0.418       36.570       27.990       18.665     1337.356      783.465      348.395        0.609        0.123       98.564       17.344        0.031      328.708       -5.018      870.528
01/09/2021  07:22:00      -95.396       23.939      -23.187      341.272       18.240      162.185   116466.901      332.682    26304.066        7.663        7.155       98.354      234.541        5.687      328.731       -4.977      870.548
01/09/2021  07:23:00      -88.499       18.411      -25.616      347.124       19.776      165.586   120494.768      391.093    27418.757        7.853        7.415       90.394      238.895        6.985      328.720       -4.997      870.570
01/09/2021  07:24:00      -59.340        4.956      -20.343      314.594       18.628      152.644    98969.655      346.993    23300.220        6.326        6.131       59.546      217.801       13.378      328.754       -4.940      870.587
01/09/2021  07:25:00      -54.149        1.718      -22.305      287.226       16.268      134.687    82498.836      264.660    18140.478        5.215        5.045       54.177      195.136       12.973      328.722       -4.995      870.601
01/09/2021  07:26:00        1.965      -16.967      -26.846      393.462       16.986      187.537   154812.674      288.514    35170.132        9.560        9.514       17.080      270.364      250.566      328.837       -4.803      870.603
01/09/2021  07:27:00       49.227       -6.545      -16.601      337.284       13.430      160.705   113760.613      180.374    25826.108        7.122        6.988       49.660      232.403       21.901      328.803       -4.860      870.597
01/09/2021  07:28:00       30.628        5.485       -4.098      289.722       17.963      137.431    83938.729      322.684    18887.208        5.204        5.157       31.116      198.539       40.713      328.760       -4.932      870.580
01/09/2021  07:29:00       18.667        8.272      -17.734      332.919       13.209      159.435   110834.807      174.487    25419.516        6.855        6.821       20.418      229.526      126.373      328.711       -5.009      870.572
01/09/2021  07:30:00       27.360        8.769      -28.466      356.514       15.935      169.252   127101.907      253.918    28646.330        7.879        7.800       28.731      245.192       72.830      328.817       -4.836      870.575
01/09/2021  07:31:00       12.794       10.000      -22.490      324.902       21.397      156.361   105561.306      457.825    24448.868        6.559        6.523       16.239      224.537      191.193      328.756       -4.936      870.575
01/09/2021  07:32:00       58.022        2.209      -31.948      423.863       17.453      202.204   179659.833      304.605    40886.271       11.257       11.043       58.064      292.347       25.350      328.904       -4.692      870.578
01/09/2021  07:33:00       31.318       -1.104      -16.025      336.937       18.686      160.360   113526.698      349.181    25715.280        7.039        6.980       31.338      231.734       54.682      328.781       -4.894      870.578
01/09/2021  07:34:00       36.747       -0.293      -28.497      421.698       19.050      202.411   177828.899      362.885    40970.181       11.062       10.958       36.748      291.581       62.959      328.899       -4.702      870.578
01/09/2021  07:35:00      -57.500        9.716      -19.600      264.546       19.522      126.246    69984.822      381.119    15937.927        4.503        4.315       58.315      182.249        9.767      328.690       -5.046      870.567
01/09/2021  07:36:00      -34.736        8.515      -10.248      235.574       19.014      113.751    55494.947      361.536    12939.364        3.508        3.440       35.765      161.578       20.411      328.701       -5.030      870.560
01/09/2021  07:37:00       -1.558       14.096      -21.077      348.926       17.226      167.209   121749.527      296.736    27958.996        7.529        7.500       14.182      240.258      287.015      328.826       -4.821      870.563
01/09/2021  07:38:00       17.294       25.970      -38.172      485.159       24.610      228.716   235379.301      605.672    52310.970       14.530       14.415       31.202      332.354      113.461      328.912       -4.676      870.580
01/09/2021  07:39:00      -17.709       22.097      -27.841      384.189       15.923      181.949   147600.860      253.535    33105.313        9.123        9.048       28.317      263.884       86.842      328.742       -4.959      870.597
01/09/2021  07:40:00      -32.515       20.068      -22.290      319.764       12.751      151.533   102249.296      162.579    22962.351        6.364        6.269       38.210      219.379       32.964      328.744       -4.956      870.610
01/09/2021  07:41:00       -5.383       17.488      -37.225      460.924       17.007      218.664   212450.820      289.236    47813.957       13.108       13.028       18.298      316.926      299.986      328.919       -4.667      870.612
01/09/2021  07:42:00       -0.101       18.438      -14.656      344.540      173.562      184.584   118707.714    30123.657    34071.205        9.169        9.145       18.438      215.854      137.048      328.917       -4.673      870.607
01/09/2021  07:43:00       80.920       12.246      -61.311      632.000       23.843      302.021   399423.380      568.476    91216.445       25.073       24.560       81.841      436.275       28.417      329.251       -4.119      870.611
01/09/2021  07:44:00      -18.656       18.876      -12.934      264.884       23.647      122.687    70163.510      559.198    15052.094        4.331        4.289       26.540      179.182       45.582      328.820       -4.834      870.616
01/09/2021  07:45:00      -23.648       15.588       -1.019      200.020       28.942       97.446    40007.991      837.620     9495.678        2.556        2.517       28.324      137.081       23.424      328.837       -4.806      870.621
01/09/2021  07:46:00        0.468       35.945       -8.489      197.273       37.441       97.831    38916.541     1401.850     9570.864        2.562        2.494       35.948      135.338       14.174      328.941       -4.637      870.617
01/09/2021  07:47:00       77.156       41.964      -28.482      454.268       47.526      218.061   206359.870     2258.694    47550.383       13.229       12.808       87.830      312.199       12.635      329.244       -4.136      870.601
01/09/2021  07:48:00       19.173       55.473        0.629      280.407       51.194      137.184    78628.239     2620.798    18819.536        5.174        5.003       58.693      191.681       10.666      329.037       -4.478      870.586
01/09/2021  07:49:00       -1.480       58.530        4.035      182.659       48.914       91.208    33364.401     2392.573     8318.949        2.375        2.204       58.548      122.644        4.388      328.999       -4.543      870.573
01/09/2021  07:50:00      141.949       59.567      -41.401      627.852       51.889      301.908   394198.145     2692.424    91148.420       25.662       24.402      153.940      433.015        7.912      329.630       -3.498      870.575
01/09/2021  07:51:00      121.142       50.502      -13.841      421.958       57.602      205.661   178048.867     3317.985    42296.389       12.050       11.183      131.247      291.309        4.926      329.510       -3.703      870.577
01/09/2021  07:52:00      104.285       58.156       -2.590      346.763       70.399      166.688   120244.484     4956.002    27784.831        8.359        7.649      119.404      234.797        3.867      329.579       -3.592      870.570
01/09/2021  07:53:00      132.414       52.051      -14.019      381.164       56.325      179.981   145285.710     3172.465    32393.148       10.061        9.043      142.278      257.548        3.277      329.568       -3.609      870.577
01/09/2021  07:54:00      117.369       51.198       -4.773      351.436       58.075      173.748   123507.021     3372.690    30188.474        8.671        7.853      128.050      242.598        3.589      329.566       -3.614      870.589
01/09/2021  07:55:00      133.699       47.201      -27.074      448.824       61.017      215.864   201443.399     3723.086    46597.405       13.625       12.588      141.786      307.448        4.702      329.700       -3.391      870.603
01/09/2021  07:56:00      188.922       68.957      -27.298      469.286       64.037      224.506   220229.803     4100.752    50402.830       15.791       13.737      201.113      320.377        2.538      329.657       -3.462      870.616
01/09/2021  07:57:00      106.539       68.718        7.743       51.045       67.919       40.780     2605.564     4612.977     1663.016        1.251        0.444      126.778       45.992        0.132      329.311       -4.036      870.629
01/09/2021  07:58:00      209.617       93.605      -46.504      514.891       64.523      250.428   265112.627     4163.276    62714.302       19.336       16.600      229.567      354.281        2.382      329.739       -3.326      870.643
01/09/2021  07:59:00      197.091      106.750      -33.164      471.305       63.547      226.462   222128.752     4038.175    51284.929       16.434       13.873      224.143      322.344        2.068      329.713       -3.370      870.646
01/09/2021  08:00:00      141.426       88.747       -9.730      257.760       65.688      129.115    66440.000     4314.974    16670.701        5.768        4.371      166.965      174.099        1.087      329.425       -3.848      870.642
01/09/2021  08:01:00      152.301       88.344      -11.597      319.140       60.804      161.727   101850.203     3697.069    26155.558        8.139        6.585      176.069      221.728        1.586      329.394       -3.898      870.633
01/09/2021  08:02:00      153.137       62.620      -14.779      363.691       53.454      175.284   132271.474     2857.366    30724.347        9.669        8.293      165.446      247.497        2.238      329.374       -3.928      870.629
01/09/2021  08:03:00      154.394       76.234      -22.970      389.070       57.903      190.602   151375.642     3352.741    36328.937       11.058        9.553      172.190      268.204        2.426      329.513       -3.698      870.637
01/09/2021  08:04:00      168.902       91.006      -26.820      408.902       63.289      200.270   167201.172     4005.437    40108.253       12.438       10.566      191.860      281.433        2.152      329.579       -3.592      870.647
01/09/2021  08:05:00      106.801       73.919      -10.492      342.779       59.097      167.826   117497.549     3492.419    28165.403        8.304        7.458      129.886      234.652        3.264      329.457       -3.792      870.653
01/09/2021  08:06:00       55.298       53.028        2.991      378.256       56.295      180.097   143077.552     3169.176    32434.959        9.224        8.934       76.615      256.550       11.213      329.537       -3.660      870.662
01/09/2021  08:07:00       11.846       46.673       14.496      155.383       51.171       80.549    24143.803     2618.493     6488.205        1.788        1.663       48.153      104.049        4.669      329.384       -3.913      870.678
01/09/2021  08:08:00       12.146       59.829        3.182      284.725       54.352      139.700    81068.523     2954.087    19516.077        5.362        5.177       61.049      194.456       10.146      329.369       -3.937      870.699
01/09/2021  08:09:00        8.199       61.546        9.917      220.347       51.791      110.305    48552.662     2682.322    12167.171        3.366        3.170       62.090      149.907        5.829      329.349       -3.972      870.717
01/09/2021  08:10:00      132.181       37.018      -46.213      566.001       40.561      272.263   320357.007     1645.214    74127.004       20.847       19.806      137.267      390.952        8.112      329.873       -3.103      870.727
01/09/2021  08:11:00      139.657       48.985      -34.435      523.717       45.506      250.354   274279.037     2070.839    62676.881       18.099       16.951      147.998      359.794        5.910      329.977       -2.934      870.741
01/09/2021  08:12:00      144.117       61.206      -45.128      502.449       44.094      243.450   252455.250     1944.294    59267.778       17.004       15.683      156.575      347.609        4.929      329.790       -3.242      870.759
01/09/2021  08:13:00      121.985       67.717      -35.175      429.465       43.876      202.334   184440.062     1925.080    40939.055       12.396       11.365      139.520      292.397        4.392      329.706       -3.383      870.783
01/09/2021  08:14:00       89.738       64.769      -18.095      286.169       42.873      134.432    81892.449     1838.122    18071.951        5.717        5.090      110.671      192.951        3.040      329.601       -3.558      870.811
01/09/2021  08:15:00       91.276       59.488      -11.555      304.725       47.637      142.439    92857.195     2269.302    20288.942        6.369        5.771      108.950      204.758        3.532      329.712       -3.376      870.827
01/09/2021  08:16:00       83.710       44.808      -17.178      339.883       32.885      161.761   115520.312     1081.415    26166.553        7.601        7.138       94.948      232.833        6.013      329.654       -3.468      870.845
01/09/2021  08:17:00      102.361       40.382      -29.348      466.327       36.993      221.056   217460.838     1368.513    48865.779       14.028       13.385      110.039      319.657        8.439      329.921       -3.029      870.860
01/09/2021  08:18:00      153.518       18.529      -55.265      585.399       29.920      274.243   342691.625      895.208    75209.489       22.280       20.940      154.632      399.912        6.689      330.307       -2.393      870.889
01/09/2021  08:19:00      156.427       50.661      -56.075      539.784       27.465      258.759   291367.134      754.317    66956.454       19.455       17.954      164.426      372.914        5.144      330.025       -2.856      870.917
01/09/2021  08:20:00      206.441       45.640      -79.844      661.887       25.284      316.502   438093.946      639.297   100173.557       29.488       26.945      211.426      457.191        4.676      330.153       -2.642      870.941
01/09/2021  08:21:00      157.500       46.096      -53.406      510.668       17.948      243.408   260781.906      322.135    59247.500       17.500       16.018      164.107      352.056        4.602      329.987       -2.920      870.944
01/09/2021  08:22:00      134.998       27.880      -50.105      476.297       43.401      226.569   226858.999     1883.630    51333.300       15.074       14.004      137.846      327.591        5.648      330.156       -2.645      870.936
01/09/2021  08:23:00      141.521       45.727      -43.529      432.432       27.278      208.406   186997.721      744.099    43433.010       12.755       11.559      148.725      299.536        4.056      329.980       -2.933      870.924
01/09/2021  08:24:00      133.925       46.731      -40.613      414.339       25.652      195.905   171676.506      658.037    38378.776       11.620       10.536      141.844      284.160        4.013      329.923       -3.028      870.915
01/09/2021  08:25:00      117.970       28.534      -40.879      446.398       44.779      210.762   199270.861     2005.179    44420.607       13.100       12.285      121.371      305.589        6.339      330.103       -2.732      870.903
01/09/2021  08:26:00      163.443       57.906      -53.553      542.022       29.022      258.694   293787.556      842.258    66922.649       19.717       18.078      173.397      373.704        4.645      330.154       -2.646      870.910
01/09/2021  08:27:00      127.032       29.303      -50.012      469.705       32.898      227.293   220622.466     1082.255    51661.972       14.637       13.668      130.368      325.613        6.238      330.226       -2.528      870.909
01/09/2021  08:28:00      142.153       60.019      -44.530      502.443       29.340      240.960   252448.756      860.862    58061.930       16.852       15.569      154.305      347.140        5.061      330.258       -2.476      870.911
01/09/2021  08:29:00      135.102       46.040      -45.207      463.430       32.958      219.473   214767.126     1086.229    48168.499       14.316       13.201      142.732      317.688        4.954      330.236       -2.512      870.905
01/09/2021  08:30:00      126.530       69.450      -33.803      328.807       25.500      157.028   108114.264      650.241    24657.886        7.767        6.671      144.337      226.337        2.459      329.855       -3.142      870.910
01/09/2021  08:31:00      151.081       63.238      -43.857      354.090       28.394      165.855   125379.676      806.246    27507.767        9.119        7.685      163.782      241.187        2.169      330.042       -2.835      870.913
01/09/2021  08:32:00       99.240        8.973      -26.752      258.796       55.290      123.927    66975.521     3056.968    15358.017        4.800        4.270       99.645      177.310        3.166      330.038       -2.842      870.933
01/09/2021  08:33:00       77.893       33.059      -16.005      173.452       35.295       86.156    30085.614     1245.748     7422.863        2.308        1.938       84.618      120.464        2.027      329.907       -3.059      870.958
01/09/2021  08:34:00       89.031       -6.379      -37.366      341.637       38.435      162.180   116715.647     1477.229    26302.210        7.690        7.225       89.259      234.253        6.888      330.310       -2.395      870.984
01/09/2021  08:35:00       61.225       15.410      -20.546      290.825       32.742      139.694    84578.999     1072.064    19514.513        5.476        5.258       63.134      200.658       10.101      330.146       -2.665      871.007
01/09/2021  08:36:00       61.597        6.038      -16.005      336.251       48.242      159.811   113064.417     2327.309    25539.512        7.248        7.047       61.892      230.718       13.896      330.322       -2.376      871.016
01/09/2021  08:37:00      115.516      -36.758      -43.243      475.525       34.401      227.729   226123.593     1183.434    51860.543       14.781       13.958      121.223      328.266        7.333      330.495       -2.087      871.029
01/09/2021  08:38:00      104.300      -22.668      -39.245      436.628       31.818      203.930   190643.660     1012.380    41587.623       12.304       11.662      106.734      297.360        7.762      330.746       -1.678      871.036
01/09/2021  08:39:00       59.821      -24.597      -23.164      191.069       48.979       96.087    36507.335     2398.924     9232.744        2.642        2.407       64.680      131.956        4.162      330.422       -2.215      871.048
01/09/2021  08:40:00       61.821      -25.977      -22.177      173.655       40.482       85.764    30156.011     1638.787     7355.394        2.206        1.958       67.057      119.079        3.153      330.454       -2.162      871.072
01/09/2021  08:41:00       60.769        2.685      -11.387       36.516       48.484       28.098     1333.402     2350.695      789.499        0.415        0.224       60.829       22.242        0.134      330.194       -2.589      871.109
01/09/2021  08:42:00       52.692      -12.736      -14.806      251.796       35.549      125.284    63401.297     1263.757    15695.986        4.174        4.018       54.210      175.241       10.450      330.523       -2.048      871.147
01/09/2021  08:43:00       78.900      -14.157      -14.536       41.878       24.425       23.612     1753.738      596.565      557.507        0.477        0.145       80.160       23.695        0.087      330.267       -2.469      871.172
01/09/2021  08:44:00       20.099      -42.499      -18.188       52.025       41.233       30.869     2706.570     1700.157      952.890        0.395        0.268       47.012       31.478        0.448      330.499       -2.089      871.191
01/09/2021  08:45:00      103.845      -65.897      -33.721      286.163       44.677      140.342    81889.040     1996.053    19695.813        5.990        5.179      122.989      198.529        2.606      330.611       -1.901      871.197
01/09/2021  08:46:00       37.663      -21.694      -26.258      237.454       31.613      114.048    56384.268      999.382    13006.893        3.647        3.520       43.464      161.712       13.843      330.615       -1.896      871.206
01/09/2021  08:47:00       49.754      -68.048      -13.787       48.292       46.021       29.368     2332.129     2117.900      862.472        0.630        0.266       84.297       28.579        0.115      330.490       -2.104      871.211
01/09/2021  08:48:00       86.298       15.101      -21.872       44.717       37.731       27.081     1999.592     1423.631      733.385        0.615        0.208       87.609       22.618        0.067      330.225       -2.538      871.209
01/09/2021  08:49:00       43.131        6.935      -18.731       45.175       45.439       23.992     2040.814     2064.673      575.593        0.347        0.234       43.685       27.401        0.393      330.432       -2.198      871.205
01/09/2021  08:50:00       45.186       -9.095      -12.453       48.828       40.514       31.668     2384.161     1641.417     1002.892        0.365        0.251       46.092       34.395        0.557      330.536       -2.030      871.196
01/09/2021  08:51:00      106.883       81.351      -16.390       43.612       30.486       25.531     1902.031      929.378      651.835        1.090        0.174      134.321       26.172        0.038      330.230       -2.530      871.194
01/09/2021  08:52:00       94.421       20.925      -16.777       34.326       22.975       20.158     1178.241      527.852      406.341        0.587        0.106       96.712       18.374        0.036      330.229       -2.531      871.196
01/09/2021  08:53:00       66.835       44.036      -20.419       44.894       17.087       21.729     2015.433      291.956      472.147        0.480        0.139       80.038       27.695        0.120      330.350       -2.335      871.197
01/09/2021  08:54:00       26.392        9.136       -4.758       48.501       45.889       26.502     2352.336     2105.822      702.360        0.298        0.258       27.929       26.616        0.908      330.645       -1.849      871.209
01/09/2021  08:55:00        5.730      -44.476      -17.748       39.906       32.790       22.439     1592.456     1075.167      503.499        0.275        0.159       44.843       20.077        0.200      330.703       -1.754      871.210
01/09/2021  08:56:00       -3.036      -37.702      -10.468       47.793       26.944       23.710     2284.158      726.003      562.157        0.256        0.179       37.824       25.877        0.468      330.810       -1.579      871.207
01/09/2021  08:57:00       50.049       22.299       -4.996       40.657       41.314       21.193     1653.030     1706.842      449.126        0.342        0.190       54.792       24.634        0.202      330.633       -1.870      871.196
01/09/2021  08:58:00       30.057       30.522       -6.020       40.807       24.674       25.474     1665.181      608.789      648.933        0.240        0.146       42.837       27.072        0.399      330.664       -1.820      871.198
01/09/2021  08:59:00      -36.209      -15.074      -13.971       43.409       13.731       21.687     1884.316      188.549      470.321        0.214        0.127       39.221       27.366        0.487      330.526       -2.045      871.193
01/09/2021  09:00:00      -44.935      -21.090      -11.101       44.520       18.138       24.224     1982.060      328.991      586.785        0.274        0.145       49.638       25.168        0.257      330.525       -2.046      871.185
01/09/2021  09:01:00      -20.653       -3.148       -3.108       45.885       24.606       26.824     2105.476      605.470      719.520        0.194        0.172       20.891       18.884        0.817      330.629       -1.877      871.191
01/09/2021  09:02:00      -32.488       -5.516        3.571       42.841       24.469       22.103     1835.343      598.731      488.544        0.201        0.146       32.953       12.495        0.144      330.666       -1.814      871.192
01/09/2021  09:03:00        8.921       -7.662       -5.006       35.517       21.003       19.129     1261.429      441.138      365.911        0.112        0.103       11.760       19.863        2.853      330.786       -1.619      871.201
01/09/2021  09:04:00        5.170        3.244       -5.255       25.082       16.551       17.113      629.120      273.946      292.860        0.063        0.060        6.104       17.267        8.002      330.792       -1.609      871.217
01/09/2021  09:05:00       10.074        4.310       -7.449       37.344       13.213       22.008     1394.564      174.583      484.354        0.111        0.103       10.957       24.168        4.865      330.849       -1.516      871.228
01/09/2021  09:06:00      -26.195       14.438      -11.721       41.203       14.274       18.567     1697.713      203.742      344.743        0.164        0.112       29.910       24.638        0.679      330.567       -1.978      871.231
01/09/2021  09:07:00       -9.569        7.659       -2.795       45.737       18.417       22.578     2091.841      339.169      509.762        0.155        0.147       12.257       26.040        4.513      330.781       -1.627      871.231
01/09/2021  09:08:00       -2.110       21.799       -6.419       41.180       14.696       17.728     1695.815      215.986      314.298        0.137        0.111       21.901       22.962        1.099      330.673       -1.804      871.219
01/09/2021  09:09:00      -11.150        4.834       -0.681       20.035        6.810       11.097      401.386       46.371      123.144        0.036        0.029       12.153       13.088        1.160      330.722       -1.723      871.225
01/09/2021  09:10:00       29.380      -24.684      -13.893       45.819       37.281       32.953     2099.396     1389.885     1085.878        0.312        0.229       38.373       26.289        0.469      331.132       -1.052      871.219
01/09/2021  09:11:00       52.054       -3.595      -14.358       41.442       43.612       35.074     1717.434     1902.037     1230.167        0.389        0.242       52.178       31.875        0.373      331.254       -0.849      871.225
01/09/2021  09:12:00       63.934       60.352       -6.508       42.940       50.108       23.720     1843.864     2510.833      562.628        0.634        0.246       87.920       18.601        0.045      330.867       -1.484      871.228
01/09/2021  09:13:00       62.221      -29.404      -24.165       50.493       47.747       23.246     2549.553     2279.734      540.356        0.534        0.268       68.819       24.880        0.131      330.805       -1.588      871.237
01/09/2021  09:14:00       46.025      -48.531      -27.319       50.371       40.941       32.509     2537.250     1676.206     1056.823        0.524        0.264       66.885       29.902        0.200      331.240       -0.872      871.242
01/09/2021  09:15:00       82.806      -67.981      -25.850       37.029       51.035       28.646     1371.161     2604.618      820.587        0.847        0.240      107.137       23.042        0.046      331.026       -1.225      871.264
01/09/2021  09:16:00      112.169      -10.024      -26.457       62.334       46.400       42.708     3885.536     2152.951     1823.957        1.062        0.393      112.616       37.288        0.110      331.045       -1.193      871.283
01/09/2021  09:17:00       83.854       17.227      -22.973       62.578       58.678       38.326     3915.979     3443.132     1468.895        0.834        0.441       85.605       39.274        0.210      331.012       -1.248      871.302
01/09/2021  09:18:00       32.900      -22.033      -33.250       51.132       51.864       32.911     2614.467     2689.888     1083.148        0.453        0.319       39.596       31.646        0.639      331.143       -1.030      871.310
01/09/2021  09:19:00       75.179      -48.160      -32.008       48.144       39.841       27.665     2317.891     1587.336      765.357        0.683        0.234       89.281       28.059        0.099      330.930       -1.381      871.315
01/09/2021  09:20:00       57.425      -13.915      -19.753       45.190       38.622       26.912     2042.140     1491.688      724.258        0.407        0.213       59.087       23.158        0.154      331.049       -1.185      871.308
01/09/2021  09:21:00       77.158      -46.739      -21.162       48.731       60.804       28.990     2374.663     3697.149      840.410        0.775        0.346       90.210       30.496        0.114      330.962       -1.331      871.294
01/09/2021  09:22:00       79.522      -54.646      -24.918       42.889       32.378       27.410     1839.439     1048.356      751.324        0.678        0.182       96.488       24.389        0.064      331.075       -1.143      871.278
01/09/2021  09:23:00       62.929       40.912      -15.239       44.025       59.924       28.646     1938.169     3590.927      820.586        0.611        0.317       75.059       28.096        0.140      330.994       -1.278      871.269
01/09/2021  09:24:00       85.391       67.681      -23.081       43.973       23.417       23.210     1933.609      548.360      538.717        0.771        0.151      108.961       25.949        0.057      330.793       -1.607      871.254
01/09/2021  09:25:00       54.064       21.289      -18.203       44.591       44.869       26.108     1988.346     2013.199      681.650        0.419        0.234       58.104       27.454        0.223      330.978       -1.302      871.241
01/09/2021  09:26:00       54.087        7.062      -24.088       50.449       46.615       32.688     2545.073     2172.946     1068.508        0.467        0.289       54.546       27.558        0.255      331.460       -0.509      871.232
01/09/2021  09:27:00       69.902       -6.965       -7.338       50.297       39.474       31.851     2529.753     1558.226     1014.514        0.504        0.255       70.248       26.693        0.144      331.283       -0.802      871.235
01/09/2021  09:28:00       36.098      -22.610       -6.292       41.922       45.317       31.834     1757.415     2053.611     1013.392        0.334        0.241       42.594       22.010        0.267      331.547       -0.368      871.235
01/09/2021  09:29:00       78.772      -17.280      -26.547       55.490       37.044       32.748     3079.094     1372.269     1072.435        0.636        0.276       80.645       30.849        0.146      331.195       -0.948      871.235
01/09/2021  09:30:00       95.023      -17.657      -11.403       47.233       27.369       24.082     2230.982      749.074      579.949        0.651        0.178       96.650       26.069        0.073      331.092       -1.115      871.216
01/09/2021  09:31:00       74.312        3.936      -27.262       64.993       53.115       36.029     4224.061     2821.218     1298.092        0.731        0.417       74.416       33.599        0.204      331.390       -0.626      871.199
01/09/2021  09:32:00       60.475      -27.749      -15.695       70.297       66.001       48.605     4941.722     4356.114     2362.465        0.816        0.583       66.538       49.441        0.552      331.510       -0.429      871.196
01/09/2021  09:33:00       96.960      -68.203      -36.061       50.347       39.226       25.725     2534.852     1538.698      661.782        1.004        0.237      118.545       28.503        0.058      331.263       -0.833      871.178
01/09/2021  09:34:00       72.784      -61.260      -29.452       53.220       47.761       33.232     2832.379     2281.068     1104.392        0.807        0.311       95.133       31.960        0.113      331.464       -0.503      871.171
01/09/2021  09:35:00       74.850       27.482      -13.135       57.923       70.348       34.357     3355.037     4948.882     1180.401        0.801        0.474       79.735       41.511        0.271      331.396       -0.616      871.179
01/09/2021  09:36:00       59.389       68.024       -4.547       46.097       36.864       30.925     2124.946     1358.945      956.335        0.631        0.222       90.302       33.568        0.138      331.256       -0.846      871.174
01/09/2021  09:37:00       99.194       92.089      -23.281       61.660       27.145       36.580     3801.980      736.866     1338.083        1.237        0.294      135.351       42.189        0.097      331.280       -0.807      871.172
01/09/2021  09:38:00       41.689       22.250        1.716       64.314       58.419       31.878     4136.280     3412.837     1016.216        0.540        0.428       47.255       34.225        0.525      331.701       -0.114      871.175
01/09/2021  09:39:00       63.526       38.053      -21.507       61.906       53.876       41.336     3832.367     2902.643     1708.631        0.719        0.422       74.052       37.818        0.261      331.723       -0.077      871.185
01/09/2021  09:40:00       31.256       -8.033       -2.501       57.200       53.950       30.174     3271.896     2910.601      910.491        0.407        0.355       32.271       33.126        1.054      331.771       -0.001      871.184
01/09/2021  09:41:00       69.658       18.320       -9.039       59.208       58.764       43.501     3505.536     3453.243     1892.360        0.706        0.443       72.027       35.694        0.246      331.818        0.077      871.177
01/09/2021  09:42:00       63.687      -79.097      -21.573       80.356       56.914       40.315     6457.041     3239.205     1625.294        1.105        0.566      101.550       47.159        0.216      331.538       -0.383      871.171
01/09/2021  09:43:00      107.707      -31.441      -28.554       69.726       47.250       36.395     4861.670     2232.569     1324.598        1.091        0.421      112.202       39.214        0.122      331.562       -0.343      871.174
01/09/2021  09:44:00      105.485       12.684      -17.385       68.020       56.442       41.434     4626.755     3185.735     1716.783        1.056        0.476      106.245       42.534        0.160      331.368       -0.660      871.180
01/09/2021  09:45:00       70.363       12.392      -15.025       68.879       53.309       30.653     4744.349     2841.818      939.616        0.693        0.426       71.445       36.867        0.266      331.622       -0.245      871.187
01/09/2021  09:46:00      119.613       47.182      -22.365       62.800       57.020       32.439     3943.822     3251.289     1052.310        1.264        0.412      128.582       35.825        0.078      331.286       -0.796      871.188
01/09/2021  09:47:00      101.469        8.151      -24.380       69.442       89.427       34.495     4822.138     7997.113     1189.890        1.248        0.700      101.796       37.339        0.135      331.665       -0.173      871.196
01/09/2021  09:48:00       73.482      -39.956      -28.907       62.638       57.029       31.377     3923.465     3252.257      984.512        0.799        0.408       83.642       32.692        0.153      331.692       -0.128      871.190
01/09/2021  09:49:00      137.569      -45.980      -44.812       61.720       41.965       30.583     3809.361     1761.046      935.297        1.478        0.325      145.050       34.406        0.056      331.378       -0.645      871.182
01/09/2021  09:50:00      100.310      -67.276      -31.287       61.055       56.548       33.866     3727.679     3197.701     1146.914        1.182        0.404      120.781       25.251        0.044      331.505       -0.436      871.174
01/09/2021  09:51:00      116.609      -52.565      -43.991       63.949       48.462       33.084     4089.445     2348.534     1094.534        1.291        0.377      127.909       32.976        0.066      331.949        0.294      871.170
01/09/2021  09:52:00      112.433      -69.208      -54.504       50.704       49.603       28.968     2570.866     2460.496      839.173        1.313        0.294      132.026       21.778        0.027      331.512       -0.425      871.158
01/09/2021  09:53:00      101.113      -55.097      -29.203       63.224       49.702       37.048     3997.318     2470.283     1372.556        1.097        0.392      115.150       38.531        0.112      331.637       -0.219      871.153
01/09/2021  09:54:00       90.281       36.298      -20.543       60.560       59.558       29.151     3667.522     3547.181      849.779        0.898        0.403       97.305       31.366        0.104      331.660       -0.180      871.157
01/09/2021  09:55:00       79.715      -34.743      -19.234       71.064       73.461       38.124     5050.111     5396.553     1453.469        0.991        0.595       86.957       45.199        0.270      331.677       -0.154      871.174
01/09/2021  09:56:00       92.152      -60.025      -33.545       54.956       52.574       28.128     3020.197     2764.077      791.171        0.990        0.329      109.977       32.084        0.085      331.718       -0.086      871.197
01/09/2021  09:57:00       42.461      -12.739      -10.822       56.425       40.076       31.309     3183.751     1606.080      980.279        0.392        0.289       44.330       33.500        0.571      331.897        0.210      871.205
01/09/2021  09:58:00       86.287      -37.886      -29.329       62.120       42.435       34.553     3858.848     1800.739     1193.917        0.830        0.343       94.238       36.951        0.154      331.827        0.092      871.204
01/09/2021  09:59:00      108.694        9.874      -22.578       51.567       47.456       32.537     2659.108     2252.087     1058.655        0.919        0.298      109.142       34.299        0.099      331.715       -0.092      871.208
01/09/2021  10:00:00       11.099      -49.711      -25.326       51.468       44.595       25.651     2648.949     1988.688      657.993        0.426        0.265       50.935       26.376        0.268      331.620       -0.246      871.194
01/09/2021  10:01:00       86.026      -70.399      -39.717       55.279       56.514       28.426     3055.717     3193.788      808.060        1.049        0.353      111.160       28.442        0.065      331.765       -0.008      871.195
01/09/2021  10:02:00       82.356      -57.173      -23.378       50.620       32.442       24.369     2562.373     1052.482      593.864        0.740        0.210      100.256       25.046        0.062      331.454       -0.519      871.210
01/09/2021  10:03:00       26.841       -7.181      -10.190       47.665       34.148       28.913     2271.973     1166.084      835.944        0.257        0.214       27.785       32.967        1.408      331.834        0.105      871.229
01/09/2021  10:04:00       53.177       17.091      -10.042       58.791       38.843       30.116     3456.402     1508.749      906.997        0.455        0.294       55.856       33.841        0.367      332.005        0.387      871.241
01/09/2021  10:05:00       59.046      -22.311      -15.734       70.522       47.306       34.152     4973.354     2237.876     1166.326        0.630        0.419       63.121       43.111        0.466      332.104        0.551      871.240
01/09/2021  10:06:00       94.318      -83.436      -33.115       58.095       60.776       34.606     3375.015     3693.696     1197.597        1.261        0.413      125.926       37.359        0.088      331.721       -0.082      871.228
01/09/2021  10:07:00       89.911      -42.917      -26.001       58.003       37.013       27.654     3364.357     1369.954      764.719        0.805        0.275       99.629       26.611        0.071      331.997        0.373      871.220
01/09/2021  10:08:00       91.258      -47.672      -35.276       66.683       47.774       36.801     4446.567     2282.312     1354.280        0.996        0.404      102.959       42.014        0.167      332.100        0.543      871.210
01/09/2021  10:09:00       99.777      -65.376      -34.057       62.239       59.960       32.776     3873.665     3595.224     1074.294        1.196        0.427      119.288       34.194        0.082      331.851        0.133      871.211
01/09/2021  10:10:00       26.018      -33.472      -15.100       63.157       63.485       40.786     3988.817     4030.382     1663.489        0.585        0.484       42.395       29.825        0.495      332.248        0.787      871.206
01/09/2021  10:11:00       72.154      -30.491      -25.811       68.509       75.737       44.987     4693.534     5736.041     2023.815        0.963        0.623       78.332       45.257        0.334      332.144        0.615      871.223
01/09/2021  10:12:00       93.846       21.967      -12.990       56.897       35.992       33.235     3237.242     1295.416     1104.543        0.755        0.282       96.383       33.322        0.120      331.867        0.159      871.233
01/09/2021  10:13:00      150.558       40.695      -30.591       62.298       38.318       32.883     3880.980     1468.279     1081.305        1.584        0.322      155.961       36.320        0.054      331.585       -0.306      871.226
01/09/2021  10:14:00      101.430       41.747      -25.424       52.932       18.060       27.285     2801.796      326.180      744.465        0.827        0.194      109.686       35.014        0.102      331.550       -0.364      871.232
01/09/2021  10:15:00       64.260       30.294      -24.009       63.373       52.996       34.910     4016.150     2808.621     1218.675        0.683        0.402       71.043       43.466        0.374      331.955        0.304      871.233
01/09/2021  10:16:00       96.704      -65.909      -35.506       61.826       45.996       27.985     3822.490     2115.676      783.158        1.084        0.336      117.028       33.998        0.084      331.997        0.374      871.229
01/09/2021  10:17:00       35.716      -17.346      -18.278       66.065       29.411       28.057     4364.640      865.003      787.185        0.396        0.301       39.705       39.136        0.972      332.084        0.518      871.233
01/09/2021  10:18:00       66.352      -26.237      -29.353       50.652       33.858       29.567     2565.635     1146.388      874.182        0.527        0.229       71.351       30.796        0.186      332.222        0.744      871.229
01/09/2021  10:19:00       41.850       14.246      -21.927       67.156       56.784       29.789     4509.947     3224.452      887.387        0.553        0.431       44.208       39.896        0.814      332.134        0.599      871.221
01/09/2021  10:20:00       29.142      -22.032      -23.533       57.264       45.040       30.814     3279.173     2028.643      949.524        0.407        0.313       36.533       37.797        1.070      332.389        1.019      871.221
01/09/2021  10:21:00       24.558      -36.157      -27.496       61.717       43.175       29.926     3808.979     1864.049      895.574        0.462        0.328       43.708       36.322        0.691      332.458        1.133      871.223
01/09/2021  10:22:00       84.201      -67.409      -29.247       54.012       38.419       29.078     2917.301     1476.052      845.526        0.886        0.262      107.860       36.079        0.112      332.138        0.606      871.226
01/09/2021  10:23:00       61.877      -46.530      -20.557       65.945       34.568       32.341     4348.766     1194.946     1045.938        0.650        0.329       77.419       39.980        0.267      332.401        1.041      871.231
01/09/2021  10:24:00       49.443      -15.278      -26.937       62.305       33.177       31.287     3881.941     1100.685      978.893        0.468        0.298       51.750       39.757        0.590      332.460        1.137      871.232
01/09/2021  10:25:00       59.873      -20.063      -25.583       64.034       40.719       35.089     4100.305     1658.021     1231.220        0.581        0.349       63.145       38.906        0.380      332.543        1.273      871.235
01/09/2021  10:26:00       89.997       45.904      -23.060       55.657       51.640       30.447     3097.665     2666.739      927.024        0.871        0.335      101.028       30.548        0.091      332.058        0.474      871.243
01/09/2021  10:27:00       94.030       86.440       -9.129       64.236       44.388       36.032     4126.274     1970.338     1298.297        1.189        0.370      127.725       33.829        0.070      332.569        1.319      871.242
01/09/2021  10:28:00       89.001       87.127      -20.902       69.540       32.670       36.315     4835.871     1067.338     1318.749        1.158        0.361      124.549       43.299        0.121      332.498        1.200      871.243
01/09/2021  10:29:00       67.239       58.998      -26.615       68.238       34.531       34.645     4656.479     1192.363     1200.267        0.788        0.352       89.453       42.378        0.224      332.308        0.886      871.234
01/09/2021  10:30:00       53.528       27.496       -3.437       63.263       37.347       42.285     4002.217     1394.820     1788.011        0.541        0.359       60.177       41.121        0.467      332.541        1.270      871.234
01/09/2021  10:31:00       15.736       73.427      -15.169       52.181       32.602       36.227     2722.871     1062.865     1312.415        0.548        0.255       75.094       38.199        0.259      332.161        0.646      871.221
01/09/2021  10:32:00        2.988        3.228      -26.784       63.915       33.810       28.567     4085.092     1143.095      816.080        0.339        0.302        4.398       30.829       49.133      332.765        1.641      871.199
01/09/2021  10:33:00       55.985       -6.038      -18.245       80.375       74.279       39.465     6460.086     5517.412     1557.477        0.852        0.677       56.309       36.425        0.418      332.796        1.692      871.185
01/09/2021  10:34:00      108.143       57.850      -32.481       49.896       26.066       23.053     2489.659      679.431      531.435        0.990        0.185      122.644       29.491        0.058      331.979        0.345      871.176
01/09/2021  10:35:00       87.422       62.846      -33.399       55.673       17.464       28.486     3099.440      304.980      811.464        0.846        0.211      107.667       34.585        0.103      332.139        0.606      871.161
01/09/2021  10:36:00      105.270       60.971      -36.202       62.833       21.115       29.915     3947.974      445.824      894.885        1.070        0.264      121.652       40.555        0.111      332.064        0.484      871.155
01/09/2021  10:37:00       70.784       64.572      -28.160       55.610       24.560       33.553     3092.419      603.183     1125.810        0.740        0.241       95.811       37.939        0.157      332.209        0.723      871.146
01/09/2021  10:38:00       90.607       67.735      -26.826       67.943       25.078       31.250     4616.300      628.914      976.582        0.987        0.311      113.127       38.784        0.118      332.508        1.216      871.152
01/09/2021  10:39:00       52.983       56.184      -11.621       56.485       33.822       32.072     3190.507     1143.936     1028.600        0.573        0.268       77.226       35.316        0.209      332.653        1.457      871.148
01/09/2021  10:40:00       27.912       30.545       -1.987       76.768       56.050       33.154     5893.351     3141.552     1099.216        0.592        0.507       41.377       31.617        0.584      332.919        1.894      871.133
01/09/2021  10:41:00      -36.885        0.210      -22.888       55.527       29.837       27.668     3083.280      890.261      765.498        0.331        0.237       36.886       28.253        0.587      332.603        1.372      871.123
01/09/2021  10:42:00       15.133      -32.536      -34.123       71.932       53.656       34.276     5174.279     2879.008     1174.866        0.584        0.461       35.883       39.984        1.242      332.798        1.694      871.109
01/09/2021  10:43:00      102.590      -93.357      -34.406       68.471       41.513       31.170     4688.276     1723.316      971.586        1.390        0.369      138.709       33.025        0.057      332.460        1.137      871.089
01/09/2021  10:44:00      106.200      -57.110      -31.149       49.885       50.827       24.753     2488.557     2583.366      612.698        1.060        0.284      120.582       28.623        0.056      332.357        0.967      871.074
01/09/2021  10:45:00       92.115      -77.094      -28.971       61.951       47.582       31.311     3837.953     2264.073      980.395        1.117        0.354      120.120       36.600        0.093      332.699        1.531      871.047
01/09/2021  10:46:00       66.928      -42.671      -29.725       60.975       39.300       36.429     3717.890     1544.491     1327.075        0.689        0.329       79.374       39.975        0.254      332.971        1.980      871.028
01/09/2021  10:47:00       46.686      -16.912      -11.708       66.615       73.553       38.492     4437.556     5409.974     1481.644        0.696        0.566       49.655       39.919        0.646      332.847        1.777      871.011
01/09/2021  10:48:00      148.326      -35.779      -40.655       62.608       98.365       36.511     3919.782     9675.658     1333.064        1.993        0.746      152.580       30.205        0.039      332.914        1.888      870.991
01/09/2021  10:49:00      114.581       56.867      -18.561       62.818       38.386       30.128     3946.058     1473.504      907.668        1.152        0.316      127.916       38.376        0.090      332.662        1.471      870.988
01/09/2021  10:50:00       78.565       18.762      -32.894       59.478       56.018       31.509     3537.689     3137.972      992.847        0.764        0.383       80.775       37.381        0.214      332.928        1.909      870.974
01/09/2021  10:51:00       77.116      -54.848      -24.611       73.399       53.901       37.469     5387.486     2905.286     1403.911        0.963        0.485       94.631       46.748        0.244      333.130        2.243      870.971
01/09/2021  10:52:00      112.122      -98.865      -42.278       75.096       48.433       35.870     5639.474     2345.734     1286.641        1.670        0.464      149.484       42.693        0.082      332.919        1.893      870.961
01/09/2021  10:53:00      115.885      -67.891      -39.117       61.216       44.078       33.145     3747.398     1942.904     1098.568        1.318        0.339      134.308       38.928        0.084      332.934        1.920      870.953
01/09/2021  10:54:00      118.022     -102.473      -51.527       48.070       43.642       23.374     2310.711     1904.651      546.321        1.592        0.238      156.301       26.696        0.029      332.699        1.530      870.935
01/09/2021  10:55:00       79.746      -43.264      -33.155       67.387       52.138       40.805     4540.966     2718.372     1665.059        0.913        0.446       90.726       44.982        0.246      333.090        2.178      870.914
01/09/2021  10:56:00      129.271      -89.471      -55.192       60.895       59.484       32.406     3708.224     3538.303     1050.123        1.803        0.415      157.214       35.491        0.051      332.824        1.737      870.884
01/09/2021  10:57:00      129.119     -121.765      -45.752       43.563       23.916       20.077     1897.754      571.966      403.085        1.823        0.144      177.478       25.042        0.020      332.470        1.151      870.859
01/09/2021  10:58:00      127.301      -68.868      -32.557       53.084       45.189       28.530     2817.924     2042.046      813.966        1.384        0.284      144.735       29.298        0.041      332.676        1.493      870.842
01/09/2021  10:59:00       55.886      -42.268      -31.477       61.077       42.361       34.252     3730.401     1794.446     1173.227        0.630        0.335       70.070       40.079        0.327      332.978        1.992      870.828
01/09/2021  11:00:00       41.407      -53.063      -34.728       78.507       53.140       37.150     6163.364     2823.908     1380.099        0.805        0.518       67.307       41.434        0.379      333.195        2.351      870.819
01/09/2021  11:01:00       14.243        0.781      -37.495       64.312       42.221       29.559     4135.973     1782.603      873.753        0.420        0.340       14.264       36.617        6.590      333.176        2.321      870.810
01/09/2021  11:02:00       23.462      -10.488      -28.668       59.572       32.813       31.133     3548.787     1076.720      969.282        0.354        0.280       25.699       36.647        2.033      333.228        2.406      870.797
01/09/2021  11:03:00       25.289      -24.983      -13.910       61.038       44.005       34.248     3725.692     1936.452     1172.903        0.414        0.342       35.548       35.472        0.996      333.032        2.082      870.787
01/09/2021  11:04:00       14.189      -38.662      -22.992       61.018       36.149       34.898     3723.206     1306.746     1217.890        0.423        0.312       41.184       34.360        0.696      333.174        2.316      870.777
01/09/2021  11:05:00      -56.365      -36.830      -35.330       74.150       50.736       29.036     5498.177     2574.104      843.084        0.735        0.446       67.331       30.261        0.202      332.879        1.830      870.766
01/09/2021  11:06:00      -15.347      -18.220      -12.742       36.896       31.579       22.519     1361.351      997.250      507.090        0.180        0.143       23.822       25.009        1.102      332.991        2.012      870.757
01/09/2021  11:07:00       50.387      -54.016      -38.733       61.190       43.347       29.856     3744.259     1878.968      891.376        0.673        0.326       73.869       33.071        0.200      333.222        2.395      870.738
01/09/2021  11:08:00        4.974       -7.167      -21.641       51.213       29.801       28.447     2622.784      888.099      809.213        0.243        0.216        8.724       33.124       14.417      333.360        2.624      870.722
01/09/2021  11:09:00      -24.450       42.322       -2.583       46.453       18.382       28.226     2157.915      337.907      796.695        0.284        0.165       48.877       12.908        0.070      332.920        1.898      870.714
01/09/2021  11:10:00       -9.157       22.865       -7.574       38.416       17.966       21.129     1475.760      322.776      446.415        0.145        0.112       24.631       23.920        0.943      333.075        2.153      870.703
01/09/2021  11:11:00       -6.466       -3.992       -4.338       36.790       25.996       24.552     1353.469      675.815      602.780        0.135        0.132        7.599       23.867        9.864      333.328        2.571      870.685
01/09/2021  11:12:00      -30.314       -0.068       -5.388       27.026       24.303       19.309      730.402      590.615      372.829        0.132        0.085       30.314       14.262        0.221      333.334        2.581      870.664
01/09/2021  11:13:00      -11.901      -26.705      -11.692       43.492       35.616       23.312     1891.536     1268.524      543.434        0.235        0.185       29.237       18.013        0.380      333.460        2.790      870.643
01/09/2021  11:14:00      -50.942      -60.708      -14.525       57.977       47.682       37.111     3361.349     2273.575     1377.209        0.675        0.351       79.250       24.086        0.092      333.248        2.439      870.630
01/09/2021  11:15:00      -41.259        6.755      -10.807       37.263       26.325       22.984     1388.564      693.012      528.247        0.224        0.130       41.808       17.602        0.177      332.943        1.934      870.633
01/09/2021  11:16:00       60.410       -4.102      -20.916       65.657       51.141       32.275     4310.820     2615.371     1041.703        0.603        0.398       60.549       37.806        0.390      333.256        2.452      870.618
01/09/2021  11:17:00       90.660      -18.536      -19.038       51.682       35.564       24.812     2670.986     1264.790      615.622        0.674        0.228       92.536       21.977        0.056      333.187        2.338      870.615
01/09/2021  11:18:00       92.524     -128.828      -45.963       58.428       62.145       28.687     3413.850     3861.945      822.944        1.768        0.405      158.611       34.213        0.047      333.048        2.107      870.598
01/09/2021  11:19:00      118.546     -101.622      -42.916       54.309       51.975       30.995     2949.423     2701.373      960.703        1.642        0.331      156.142       33.529        0.046      333.127        2.238      870.583
01/09/2021  11:20:00       97.491      -83.119      -30.127       42.482       33.487       24.720     1804.755     1121.382      611.057        1.043        0.177      128.115       22.464        0.031      332.983        2.000      870.573
01/09/2021  11:21:00       98.204      -39.966      -24.792       46.760       36.207       24.154     2186.475     1310.944      583.426        0.797        0.204      106.025       24.635        0.054      333.175        2.318      870.560
01/09/2021  11:22:00       61.663      -23.931      -31.040       65.836       74.467       36.880     4334.358     5545.325     1360.118        0.829        0.562       66.144       40.434        0.374      333.276        2.485      870.546
01/09/2021  11:23:00       67.698      -63.825      -30.717       42.768       37.940       26.231     1829.076     1439.425      688.061        0.678        0.198       93.041       27.594        0.088      333.037        2.091      870.522
01/09/2021  11:24:00       29.676      -77.469      -29.694       41.715       33.541       25.654     1740.170     1124.999      658.145        0.564        0.176       82.959       29.239        0.124      333.074        2.151      870.512
01/09/2021  11:25:00       67.261       39.864      -19.449       54.060       52.766       26.309     2922.511     2784.263      692.173        0.644        0.320       78.187       23.468        0.090      333.445        2.763      870.497
01/09/2021  11:26:00       59.171       36.157      -25.009       58.783       50.674       30.105     3455.394     2567.823      906.282        0.618        0.346       69.343       34.865        0.253      333.626        3.064      870.489
01/09/2021  11:27:00       13.000       -0.451      -16.235       51.225       45.071       33.398     2624.009     2031.373     1115.451        0.310        0.289       13.007       24.649        3.591      333.982        3.654      870.470
01/09/2021  11:28:00      125.328       10.234      -23.164       60.127       62.021       30.878     3615.281     3846.621      953.473        1.238        0.421      125.745       29.731        0.056      333.392        2.677      870.461
01/09/2021  11:29:00       78.905       -9.656      -29.599       67.478       68.110       33.301     4553.342     4638.964     1108.965        0.875        0.515       79.494       33.926        0.182      333.522        2.892      870.435
01/09/2021  11:30:00       61.953      -25.853      -26.134       52.189       87.166       29.270     2723.660     7597.962      856.712        0.818        0.559       67.131       23.963        0.127      333.523        2.894      870.420
01/09/2021  11:31:00       82.221     -103.194      -25.377       44.515       36.573       23.778     1981.588     1337.553      565.389        1.097        0.194      131.945       26.088        0.039      333.183        2.331      870.407
01/09/2021  11:32:00       81.168      -82.650      -33.018       53.309       52.646       27.830     2841.881     2771.645      774.484        1.045        0.319      115.842       30.405        0.069      333.168        2.305      870.395
01/09/2021  11:33:00       -0.105       21.652      -26.875       41.109       22.655       27.404     1689.984      513.258      750.989        0.207        0.148       21.652       23.193        1.147      333.413        2.711      870.370
01/09/2021  11:34:00       78.560      -97.880      -22.228       48.664       74.472       34.458     2368.141     5546.036     1187.357        1.267        0.455      125.508       37.822        0.091      333.248        2.439      870.332
01/09/2021  11:35:00       -0.669      -45.939      -16.096       60.314       37.481       23.865     3637.822     1404.808      569.550        0.399        0.281       45.943       20.592        0.201      333.556        2.949      870.307
01/09/2021  11:36:00      -47.348      -30.531      -13.757       34.329       26.611       22.263     1178.457      708.170      495.643        0.287        0.119       56.338       12.974        0.053      333.665        3.130      870.273
01/09/2021  11:37:00       -5.179      -19.662       -2.719       42.778       28.186       24.166     1829.916      794.475      583.981        0.181        0.160       20.333       22.545        1.229      333.852        3.439      870.246
01/09/2021  11:38:00       80.507       11.039      -21.651       75.823       72.032       34.070     5749.066     5188.556     1160.782        0.958        0.605       81.260       27.672        0.116      333.616        3.050      870.209
01/09/2021  11:39:00      112.898      -66.758      -32.810       43.511       48.999       25.937     1893.223     2400.924      672.747        1.162        0.248      131.158       19.910        0.023      333.376        2.649      870.191
01/09/2021  11:40:00      108.421      -17.325      -16.885       56.264       39.949       40.542     3165.605     1595.947     1643.669        0.937        0.320      109.796       41.236        0.141      333.402        2.693      870.169
01/09/2021  11:41:00       80.734       35.309      -12.387       62.996       73.391       39.094     3968.496     5386.300     1528.311        0.940        0.544       88.117       28.913        0.108      333.603        3.026      870.156
01/09/2021  11:42:00       83.741      -31.766      -21.312       56.173       60.152       41.350     3155.389     3618.314     1709.802        0.848        0.424       89.564       36.266        0.164      333.597        3.016      870.148
01/09/2021  11:43:00       78.301       22.957      -20.694       64.909       61.562       29.287     4213.140     3789.905      857.718        0.797        0.443       81.597       31.954        0.153      333.664        3.128      870.135
01/09/2021  11:44:00       12.063      -35.314      -15.199       54.261       39.880       26.591     2944.259     1590.407      707.063        0.343        0.262       37.318       32.676        0.767      333.565        2.963      870.133
01/09/2021  11:45:00       18.331       27.073      -12.029       78.760       39.934       32.313     6203.138     1594.739     1044.113        0.503        0.442       32.695       35.403        1.173      333.677        3.148      870.136
01/09/2021  11:46:00      123.582       56.269      -22.610       37.307       33.762       22.577     1391.831     1139.872      509.730        1.099        0.152      135.789       17.138        0.016      333.363        2.629      870.143
01/09/2021  11:47:00      105.359       71.039      -24.660       32.374       14.887       16.154     1048.054      221.628      260.952        0.914        0.077      127.071       19.409        0.023      333.134        2.248      870.145
01/09/2021  11:48:00       82.555       28.069      -17.497       47.193       42.804       27.097     2227.206     1832.154      734.227        0.635        0.240       87.197       29.285        0.113      333.471        2.807      870.130
01/09/2021  11:49:00       89.298       14.493      -11.868       40.321       36.228       28.087     1625.757     1312.476      788.881        0.603        0.186       90.467       26.630        0.087      333.375        2.647      870.118
01/09/2021  11:50:00       20.115       31.610       -1.928       47.962       38.682       22.410     2300.390     1496.313      502.223        0.285        0.215       37.468       24.837        0.439      333.665        3.128      870.091
01/09/2021  11:51:00       13.106       53.652       -7.464       42.757       28.974       25.086     1828.202      839.493      629.296        0.320        0.165       55.230       14.601        0.070      333.665        3.128      870.064
01/09/2021  11:52:00        0.911       -2.615       -7.303       38.604       30.981       20.903     1490.298      959.830      436.931        0.147        0.144        2.769       21.791       61.928      334.006        3.695      870.036
01/09/2021  11:53:00      -11.807      -63.370      -26.533       51.804       33.269       27.760     2683.695     1106.836      770.623        0.471        0.228       64.460       35.915        0.310      333.711        3.204      870.017
01/09/2021  11:54:00      -24.207       44.706      -15.086       34.933       37.193       22.157     1220.330     1383.292      490.928        0.295        0.155       50.839       21.670        0.182      333.749        3.268      870.000
01/09/2021  11:55:00      -15.140       41.536        3.672       31.190       23.269       18.864      972.789      541.468      355.833        0.192        0.094       44.209       11.938        0.073      334.007        3.695      869.978
01/09/2021  11:56:00      -22.892       17.008       -3.784       26.822       23.661       19.090      719.416      559.838      364.446        0.124        0.082       28.518        9.265        0.106      334.156        3.944      869.952
01/09/2021  11:57:00        4.410      -20.013       -6.689       34.850       28.063       19.123     1214.547      787.521      365.680        0.142        0.118       20.493       19.485        0.904      334.352        4.269      869.912
01/09/2021  11:58:00       34.727      -94.791      -20.913       61.321       70.054       33.917     3760.263     4907.528     1150.350        1.022        0.491      100.952       40.150        0.158      334.111        3.867      869.866
01/09/2021  11:59:00      102.316     -207.288      -34.341       60.290       38.782       41.958     3634.917     1504.068     1760.435        3.076        0.345      231.164       35.700        0.024      333.568        2.965      869.820
01/09/2021  12:00:00       65.866     -122.669      -29.809       41.467       49.513       29.063     1719.498     2451.550      844.667        1.264        0.251      139.234       34.578        0.062      333.515        2.880      869.791
01/09/2021  12:01:00       69.430      -68.006      -19.988       39.349       48.839       25.296     1548.363     2385.241      639.885        0.721        0.229       97.187       22.765        0.055      333.817        3.382      869.765
01/09/2021  12:02:00       63.920      -49.711      -31.850       43.107       62.993       23.935     1858.186     3968.093      572.906        0.698        0.320       80.975       10.119        0.016      334.093        3.840      869.750
01/09/2021  12:03:00      108.592      -97.471      -33.068       50.429       64.208       31.670     2543.053     4122.727     1002.972        1.503        0.383      145.920       30.970        0.045      333.877        3.480      869.752
01/09/2021  12:04:00       81.924      -85.557      -30.695       62.525       64.460       33.728     3909.389     4155.121     1137.550        1.209        0.460      118.455       42.616        0.129      333.805        3.359      869.748
01/09/2021  12:05:00       72.779      -83.236      -18.076       42.242       44.206       29.584     1784.346     1954.127      875.208        0.858        0.231      110.567       25.116        0.052      333.991        3.668      869.738
01/09/2021  12:06:00       14.087      -31.213      -18.336       48.048       37.313       35.778     2308.626     1392.225     1280.047        0.324        0.249       34.245       11.066        0.104      334.320        4.216      869.725
01/09/2021  12:07:00       67.749      -28.023       -4.484       61.856       46.740       37.099     3826.218     2184.589     1376.325        0.639        0.369       73.316       29.403        0.161      333.965        3.628      869.700
01/09/2021  12:08:00       85.204        2.993      -20.902       67.180       77.412       50.676     4513.104     5992.676     2568.075        1.039        0.654       85.257       39.376        0.213      333.916        3.545      869.672
01/09/2021  12:09:00      100.186       27.177      -23.567       59.278       63.710       24.452     3513.909     4058.949      597.891        0.975        0.409      103.807       17.288        0.028      333.840        3.418      869.656
01/09/2021  12:10:00      105.954        5.326       -6.270       82.468       65.558       40.482     6801.042     4297.892     1638.828        1.201        0.637      106.088       38.001        0.128      334.008        3.697      869.646
01/09/2021  12:11:00       85.635      -21.363      -24.660       66.930      101.678       48.884     4479.576    10338.500     2389.684        1.280        0.860       88.259       41.612        0.222      334.239        4.081      869.681
01/09/2021  12:12:00      114.014      -13.549      -10.179       61.118       44.590       31.866     3735.390     1988.268     1015.419        1.001        0.337      114.816       30.377        0.070      333.852        3.438      869.666
01/09/2021  12:13:00       86.563       35.472      -23.687       49.697       53.840       29.038     2469.798     2898.787      843.225        0.776        0.311       93.549       22.505        0.058      334.199        4.014      869.636
01/09/2021  12:14:00      137.486      -26.489      -31.545       93.507       62.454       41.911     8743.521     3900.508     1756.499        1.750        0.720      140.015       45.105        0.104      333.964        3.623      869.605
01/09/2021  12:15:00       99.405      -18.507      -19.671       56.377       60.396       44.486     3178.402     3647.692     1979.020        0.971        0.440      101.113       36.603        0.131      333.883        3.490      869.592
01/09/2021  12:16:00      114.021      -59.492      -25.322       60.515       50.312       28.343     3662.080     2531.346      803.310        1.209        0.350      128.609       30.311        0.056      333.677        3.148      869.597
01/09/2021  12:17:00       40.471       54.799        5.955       64.230       50.496       36.416     4125.516     2549.837     1326.121        0.634        0.400       68.124       29.742        0.191      334.062        3.786      869.606
01/09/2021  12:18:00       32.533       53.821       -1.005       34.263       29.797       34.292     1173.967      887.859     1175.926        0.360        0.162       62.890       27.898        0.197      333.798        3.350      869.607
01/09/2021  12:19:00       75.389       42.747       -4.688       55.342       62.266       31.009     3062.784     3877.036      961.535        0.772        0.395       86.665       30.201        0.121      334.046        3.761      869.582
01/09/2021  12:20:00       40.926       13.194      -10.368       57.359       51.666       29.190     3290.101     2669.403      852.032        0.438        0.341       43.000       25.325        0.347      334.270        4.131      869.558
01/09/2021  12:21:00       21.606       36.941       -4.834       39.366       24.182       20.296     1549.695      584.777      411.948        0.220        0.127       42.795       22.107        0.267      334.101        3.853      869.533
01/09/2021  12:22:00       16.231        4.311       -6.123       62.818       41.298       33.082     3946.096     1705.507     1094.426        0.353        0.337       16.793       37.426        4.967      334.519        4.545      869.515
01/09/2021  12:23:00       78.120        5.186       -4.921       57.425       53.604       30.506     3297.677     2873.426      930.624        0.663        0.355       78.292       33.419        0.182      334.067        3.796      869.497
01/09/2021  12:24:00       36.321      -39.279      -23.255       44.329       56.479       27.477     1965.060     3189.865      755.001        0.466        0.295       53.498       23.182        0.188      334.390        4.331      869.474
01/09/2021  12:25:00       38.743        0.942       -4.990       26.645       19.109       18.472      709.982      365.173      341.213        0.147        0.071       38.754       11.727        0.092      333.927        3.563      869.454
01/09/2021  12:26:00       11.146        0.058      -16.334       28.896       14.000       10.487      834.992      196.006      109.973        0.077        0.057       11.146       10.996        0.973      333.805        3.360      869.422
01/09/2021  12:27:00        6.640      -13.927       -9.744       28.624       51.522       19.199      819.320     2654.564      368.605        0.209        0.192       15.429       16.387        1.128      334.148        3.930      869.398
01/09/2021  12:28:00       58.294      -52.615      -16.230       50.060       46.707       29.475     2506.027     2181.536      868.795        0.599        0.278       78.527       22.490        0.082      334.203        4.020      869.367
01/09/2021  12:29:00       70.782      -24.286      -28.949       60.657       76.147       36.235     3679.233     5798.327     1313.009        0.861        0.540       74.833       29.438        0.155      334.397        4.341      869.341
01/09/2021  12:30:00       60.536       22.976        5.355       66.483       77.865       53.354     4419.999     6062.887     2846.596        0.877        0.666       64.749       36.410        0.316      334.339        4.245      869.314
01/09/2021  12:31:00       20.437       -6.514       -3.336       75.260       70.834       35.633     5664.045     5017.521     1269.726        0.621        0.598       21.450       41.384        3.722      334.504        4.519      869.305
01/09/2021  12:32:00       64.354      -10.693      -17.451       51.539       49.838       29.510     2656.275     2483.831      870.823        0.528        0.301       65.236       25.334        0.151      334.489        4.495      869.307
01/09/2021  12:33:00       30.365       35.411        3.085       55.232       50.862       36.710     3050.594     2586.942     1347.616        0.458        0.349       46.647       32.426        0.483      334.503        4.519      869.295
01/09/2021  12:34:00       86.973      -28.023       -2.369       66.472       31.701       31.287     4418.477     1004.968      978.887        0.738        0.320       91.376       28.495        0.097      334.015        3.710      869.288
01/09/2021  12:35:00      102.161       21.610      -13.916       87.300       61.484       36.348     7621.251     3780.224     1321.184        1.191        0.636      104.422       44.139        0.179      334.207        4.027      869.270
01/09/2021  12:36:00      119.866        5.240      -16.366       71.146       48.893       29.739     5061.697     2390.491      884.412        1.150        0.417      119.980       31.475        0.069      334.112        3.869      869.263
01/09/2021  12:37:00       86.704      -56.170      -25.498       72.121      127.967       54.398     5201.447    16375.652     2959.126        1.792        1.227      103.308       52.212        0.255      334.429        4.395      869.235
01/09/2021  12:38:00      162.717      -28.692      -22.196       96.916       86.166       69.243     9392.781     7424.633     4794.555        2.470        1.081      165.227       60.376        0.134      334.279        4.144      869.224
01/09/2021  12:39:00      137.684      -11.272      -33.824       99.508       84.750       63.081     9901.893     7182.628     3979.213        2.064        1.053      138.144       49.371        0.128      334.156        3.941      869.208
01/09/2021  12:40:00      122.010       -9.638      -11.221       64.097       39.699       27.107     4108.466     1576.031      734.814        1.076        0.321      122.390       31.764        0.067      333.858        3.447      869.203
01/09/2021  12:41:00       65.350      -47.088      -18.295       73.416       90.510       37.768     5389.920     8192.117     1426.412        1.091        0.750       80.548       35.435        0.194      334.576        4.639      869.173
01/09/2021  12:42:00       62.803     -131.578      -24.658       42.499       50.917       35.296     1806.174     2592.513     1245.797        1.375        0.282      145.797       30.581        0.044      334.159        3.947      869.146
01/09/2021  12:43:00       46.667       -4.185      -27.752       42.974       40.323       25.558     1846.762     1625.977      653.203        0.354        0.206       46.854       17.264        0.136      334.474        4.470      869.115
01/09/2021  12:44:00       77.388       32.360      -13.176       76.322       40.499       27.989     5825.002     1640.142      783.407        0.773        0.412       83.881       19.856        0.056      334.533        4.569      869.095
01/09/2021  12:45:00      133.784       28.266       -6.076       85.526       68.294       43.275     7314.680     4664.040     1872.734        1.629        0.693      136.737       36.296        0.070      334.412        4.367      869.060
01/09/2021  12:46:00      198.097       68.089      -30.279       65.481       57.963       34.636     4287.800     3359.738     1199.627        2.682        0.442      209.472       24.125        0.013      334.399        4.343      869.033
01/09/2021  12:47:00      154.512       56.888      -15.802       87.015       59.822       42.906     7571.617     3578.699     1840.909        2.017        0.650      164.651       27.476        0.028      334.517        4.539      869.011
01/09/2021  12:48:00       90.387       22.091      -13.618       88.512       83.670       47.292     7834.295     7000.739     2236.507        1.295        0.854       93.047       20.698        0.049      334.814        5.033      869.000
01/09/2021  12:49:00      122.891      -19.798      -23.059       91.646       73.898       42.050     8399.025     5460.849     1768.216        1.582        0.781      124.476       40.064        0.104      334.661        4.780      868.982
01/09/2021  12:50:00      113.947      -24.237      -17.413       52.691       41.900       32.327     2776.378     1755.609     1045.048        0.972        0.279      116.496       27.698        0.057      334.225        4.058      868.948
01/09/2021  12:51:00       67.260        1.374      -13.037       50.733       39.242       20.835     2573.823     1539.898      434.101        0.462        0.227       67.274       16.084        0.057      334.470        4.464      868.908
01/09/2021  12:52:00       51.182      -55.417      -19.020       37.625       66.423       30.848     1415.643     4411.995      951.584        0.641        0.339       75.437       24.482        0.105      334.834        5.070      868.883
01/09/2021  12:53:00      161.314        4.093      -16.945       96.999       96.188       43.061     9408.822     9252.172     1854.278        2.342        1.026      161.366       24.452        0.023      334.580        4.645      868.858
01/09/2021  12:54:00       98.881       10.546        5.634       89.703       60.956       42.795     8046.650     3715.619     1831.402        1.175        0.680       99.442       44.493        0.200      334.722        4.882      868.846
01/09/2021  12:55:00       69.814      -47.306      -24.212       61.718       86.133       44.507     3809.158     7418.821     1980.843        1.045        0.660       84.332       41.511        0.242      334.791        4.996      868.834
01/09/2021  12:56:00       86.803       36.636      -32.201       47.088       61.165       30.979     2217.267     3741.209      959.725        0.841        0.346       94.217       18.807        0.040      334.825        5.054      868.814
01/09/2021  12:57:00       39.342       -5.906       -3.587       55.287       62.396       33.040     3056.643     3893.225     1091.644        0.482        0.402       39.783       26.981        0.460      335.032        5.397      868.790
01/09/2021  12:58:00      178.436       27.248       -8.954       82.594       78.974       38.614     6821.784     6236.949     1491.069        2.360        0.727      180.505       11.244        0.004      334.504        4.519      868.770
01/09/2021  12:59:00       95.599        5.396       -0.145       79.420       58.720       40.349     6307.541     3448.047     1628.045        1.027        0.569       95.751       20.978        0.048      334.723        4.883      868.763
01/09/2021  13:00:00       72.287      -64.498       -1.128       63.866       40.213       31.903     4078.908     1617.072     1017.780        0.805        0.336       96.878       36.321        0.141      334.396        4.341      868.758
01/09/2021  13:01:00       54.965       -6.653       -4.259       64.449       74.481       30.891     4153.630     5547.446      954.266        0.687        0.533       55.366       26.342        0.226      334.776        4.971      868.764
01/09/2021  13:02:00       94.237      -92.303      -40.737       96.927      127.954       37.115     9394.887    16372.311     1377.536        2.310        1.357      131.910       49.929        0.143      334.749        4.925      868.773
01/09/2021  13:03:00      116.958     -169.756      -35.195       56.265       67.582       27.649     3165.774     4567.366      764.491        2.611        0.425      206.146       32.616        0.025      334.259        4.113      868.811
01/09/2021  13:04:00       53.490     -162.005      -27.251       54.178       60.026       35.344     2935.249     3603.143     1249.186        1.882        0.389      170.607       28.180        0.027      334.492        4.500      868.832
01/09/2021  13:05:00      -12.723      -54.922      -18.602       65.474       39.045       24.190     4286.784     1524.478      585.166        0.496        0.320       56.376       21.168        0.141      334.426        4.391      868.850
01/09/2021  13:06:00      -56.640       28.080      -10.465       48.268       75.730       29.876     2329.823     5735.072      892.595        0.653        0.448       63.218       15.050        0.057      334.551        4.599      868.835
01/09/2021  13:07:00      -26.534       39.774       -1.920       40.682       17.045       24.343     1655.044      290.517      592.605        0.241        0.127       47.812       10.659        0.050      334.346        4.259      868.819
01/09/2021  13:08:00        2.684       -6.863      -15.684       31.620       27.402       19.192      999.821      750.889      368.321        0.121        0.106        7.369       15.584        4.472      334.531        4.565      868.816
01/09/2021  13:09:00       45.219       21.726       -8.713       44.382       34.169       17.231     1969.776     1167.545      296.909        0.301        0.172       50.168       14.446        0.083      334.751        4.931      868.805
01/09/2021  13:10:00      128.032       14.473      -22.181      104.274       64.322       42.005    10873.032     4137.290     1764.452        1.693        0.839      128.848       45.116        0.123      334.621        4.712      868.791
01/09/2021  13:11:00      116.883      -14.408       -7.041       97.710       55.071       41.774     9547.203     3032.866     1745.083        1.412        0.716      117.768       39.800        0.114      334.796        5.005      868.784
01/09/2021  13:12:00      159.110       83.060      -21.290      112.702       82.627       40.368    12701.735     6827.142     1629.567        2.691        1.058      179.485       44.839        0.062      334.812        5.028      868.791
01/09/2021  13:13:00       76.879       50.703       -6.110       41.770       53.783       28.947     1744.716     2892.558      837.941        0.700        0.274       92.093       19.165        0.043      334.465        4.456      868.812
01/09/2021  13:14:00      124.617       40.623      -17.882       67.430       66.821       30.095     4546.756     4465.032      905.738        1.371        0.496      131.071       18.895        0.021      334.652        4.765      868.821
01/09/2021  13:15:00      131.231       53.952      -28.747       58.344       50.469       27.577     3404.066     2547.144      760.505        1.383        0.336      141.889       17.194        0.015      334.531        4.564      868.819
01/09/2021  13:16:00      111.995        8.580       -0.029       83.735       57.085       42.394     7011.493     3258.678     1797.212        1.234        0.603      112.323       35.206        0.098      334.978        5.308      868.800
01/09/2021  13:17:00       89.211        9.104      -10.952       57.684       64.865       35.793     3327.387     4207.429     1281.136        0.849        0.441       89.674       20.475        0.052      335.017        5.373      868.804
01/09/2021  13:18:00       98.525      -16.560       -6.611       82.023       58.896       52.595     6727.691     3468.750     2766.274        1.149        0.648       99.907       52.197        0.273      334.847        5.089      868.791
01/09/2021  13:19:00       44.519      -43.331      -26.955       60.855       77.021       33.606     3703.376     5932.259     1129.336        0.767        0.538       62.125       34.395        0.307      334.918        5.209      868.776
01/09/2021  13:20:00       26.497      -57.069       -7.572       72.989       79.482       41.850     5327.346     6317.428     1751.384        0.870        0.670       62.920       53.660        0.727      334.623        4.718      868.785
01/09/2021  13:21:00       27.202      -31.703      -17.395       42.797       63.337       22.338     1831.563     4011.525      498.997        0.419        0.317       41.773       24.840        0.354      334.894        5.169      868.783
01/09/2021  13:22:00       30.396       -6.195       -2.143       50.314       43.543       25.638     2531.542     1895.997      657.308        0.302        0.254       31.021        7.305        0.055      335.010        5.360      868.787
01/09/2021  13:23:00       37.308        7.727      -16.860       45.502       45.081       29.142     2070.389     2032.325      849.268        0.334        0.248       38.099       26.634        0.489      334.778        4.976      868.781
01/09/2021  13:24:00       57.826      -20.726       -4.327       26.393       43.000       24.728      696.589     1849.022      611.456        0.347        0.158       61.428       17.355        0.080      334.942        5.247      868.777
01/09/2021  13:25:00       29.550      -70.493      -22.095       40.465       43.352       21.781     1637.396     1879.402      474.402        0.516        0.200       76.436       18.352        0.058      335.059        5.442      868.772
01/09/2021  13:26:00      -26.997      -12.380      -12.533       31.160       39.542       18.635      970.926     1563.584      347.277        0.196        0.144       29.700       15.754        0.281      334.887        5.155      868.777
01/09/2021  13:27:00        1.343       14.174       -0.160       20.177       15.828       14.769      407.109      250.540      218.111        0.054        0.044       14.237       11.611        0.665      334.857        5.106      868.776
01/09/2021  13:28:00       30.591       39.799       -7.614       35.271       27.152       20.061     1244.026      737.234      402.451        0.248        0.119       50.197       22.687        0.204      334.911        5.197      868.778
01/09/2021  13:29:00      -45.467       33.358      -11.709       46.945       42.852       25.227     2203.815     1836.291      636.410        0.400        0.234       56.392       18.079        0.103      335.155        5.602      868.760
01/09/2021  13:30:00       31.808      125.342       -7.341       73.809       48.847       30.109     5447.842     2386.058      906.555        1.276        0.437      129.315       18.485        0.020      334.899        5.176      868.752
01/09/2021  13:31:00       88.320       70.185      -15.969       42.728       31.900       26.033     1825.720     1017.588      677.719        0.825        0.176      112.811       20.126        0.032      334.762        4.948      868.735
01/09/2021  13:32:00       76.896       96.752      -18.074       51.534       43.010       34.991     2655.763     1849.870     1224.350        1.066        0.286      123.588       23.551        0.036      334.801        5.014      868.718
01/09/2021  13:33:00       64.123      -61.775      -27.053       56.882       70.351       42.409     3235.617     4949.215     1798.522        0.932        0.499       89.039       29.056        0.106      335.191        5.660      868.675
01/09/2021  13:34:00       50.501       23.210      -14.129       52.934       47.750       37.760     2801.976     2280.093     1425.828        0.490        0.325       55.579       33.896        0.372      334.947        5.256      868.658
01/09/2021  13:35:00       36.148      -16.731       -5.124       31.583       59.109       25.695      997.488     3493.844      660.212        0.338        0.258       39.833       16.581        0.173      334.877        5.139      868.629
01/09/2021  13:36:00       36.907      -25.818       -5.096       35.592       62.844       32.176     1266.793     3949.329     1035.305        0.415        0.313       45.041       27.191        0.364      335.017        5.373      868.601
01/09/2021  13:37:00       61.399       -3.338      -19.391       53.142       44.770       37.487     2824.043     2004.338     1405.296        0.519        0.312       61.489       28.472        0.214      335.405        6.017      868.576
01/09/2021  13:38:00      161.000      -13.325      -18.644      127.332       57.780       53.638    16213.364     3338.534     2877.006        2.443        1.121      161.550       63.736        0.156      334.898        5.173      868.548
01/09/2021  13:39:00       99.455       13.492      -12.205       90.759       72.712       43.281     8237.197     5287.017     1873.215        1.281        0.770      100.366       40.386        0.162      334.850        5.095      868.532
01/09/2021  13:40:00       86.276       -4.289       -5.751       61.951       60.497       37.178     3837.919     3659.869     1382.189        0.819        0.444       86.382       22.493        0.068      335.059        5.443      868.537
01/09/2021  13:41:00       76.170     -150.435      -15.939       51.021       52.621       32.517     2603.171     2768.932     1057.334        1.756        0.321      168.619       29.871        0.031      334.945        5.254      868.532
01/09/2021  13:42:00       95.204       35.919      -17.736       85.854       90.915       52.480     7370.892     8265.617     2754.170        1.453        0.920      101.754       50.429        0.246      335.152        5.595      868.514
01/09/2021  13:43:00      122.106      -11.173      -30.284       91.039       76.005       60.425     8288.131     5776.811     3651.237        1.683        0.886      122.616       53.739        0.192      334.866        5.120      868.494
01/09/2021  13:44:00      152.075      -33.598      -17.548       64.134       45.555       49.083     4113.134     2075.257     2409.157        1.658        0.430      155.742       41.042        0.069      334.671        4.797      868.487
01/09/2021  13:45:00       95.048      -16.778      -12.440       61.269       35.611       38.321     3753.861     1268.168     1468.495        0.798        0.325       96.517       37.325        0.150      334.792        4.999      868.466
01/09/2021  13:46:00       89.190       11.886      -12.294       80.160       51.332       38.872     6425.677     2634.963     1511.005        0.941        0.529       89.979       48.242        0.287      334.927        5.222      868.445
01/09/2021  13:47:00      161.071       66.006      -18.702       37.422       32.529       19.679     1400.405     1058.168      387.259        1.675        0.142      174.071       11.725        0.005      334.611        4.698      868.444
01/09/2021  13:48:00      100.819       67.141       -9.372       38.159       26.931       21.211     1456.140      725.286      449.918        0.870        0.132      121.130       16.491        0.019      334.618        4.708      868.444
01/09/2021  13:49:00       45.883       48.889       -3.000       42.746       29.433       24.531     1827.213      866.329      601.763        0.390        0.165       67.048       24.219        0.130      334.801        5.014      868.440
01/09/2021  13:50:00       87.627       82.122        0.988       48.659       35.782       27.852     2367.684     1280.357      775.753        0.942        0.221      120.094       24.290        0.041      334.773        4.966      868.461
01/09/2021  13:51:00      100.443      -16.791      -12.594       86.282       53.047       39.039     7444.549     2814.003     1524.056        1.115        0.589      101.836       40.815        0.161      335.012        5.363      868.471
01/09/2021  13:52:00       81.939        4.010      -22.269       67.293       63.291       43.708     4528.302     4005.801     1910.366        0.883        0.522       82.037       36.438        0.197      335.047        5.422      868.475
01/09/2021  13:53:00       89.119       18.831      -11.423       62.431       74.615       37.374     3897.609     5567.437     1396.847        0.964        0.543       91.087       33.347        0.134      335.083        5.482      868.472
01/09/2021  13:54:00       32.873      -10.577      -10.295       48.472       53.764       26.995     2349.530     2890.528      728.724        0.363        0.298       34.533       25.531        0.547      335.152        5.595      868.436
01/09/2021  13:55:00       36.524       28.204       -1.587       31.550       21.217       22.088      995.401      450.146      487.876        0.203        0.097       46.147       19.518        0.179      335.097        5.506      868.403
01/09/2021  13:56:00       34.560        3.498       -6.774       26.106       29.028       10.998      681.539      842.606      120.967        0.145        0.082       34.737        8.942        0.066      335.128        5.558      868.395
01/09/2021  13:57:00       62.674       35.096      -12.920       69.796       40.393       22.512     4871.477     1631.580      506.798        0.617        0.350       71.831       23.475        0.107      335.229        5.724      868.412
01/09/2021  13:58:00       29.266      -22.942      -12.106       65.628       45.367       23.686     4306.999     2058.128      561.047        0.423        0.346       37.186       25.252        0.461      335.400        6.008      868.418
01/09/2021  13:59:00       26.434        7.633       -9.896       49.662       39.021       23.394     2466.278     1522.607      547.289        0.269        0.227       27.514       25.746        0.876      335.560        6.274      868.417
01/09/2021  14:00:00      100.211       45.720      -23.161       64.222       72.870       35.779     4124.495     5309.991     1280.132        1.169        0.536      110.148       21.668        0.039      335.227        5.722      868.405
01/09/2021  14:01:00       88.530        7.559       -7.664       53.036       51.329       40.351     2812.832     2634.702     1628.210        0.751        0.354       88.852       33.093        0.139      335.058        5.441      868.385
01/09/2021  14:02:00       96.652       72.089      -14.028       49.821       48.721       21.237     2482.157     2373.714      451.021        1.002        0.265      120.575       15.184        0.016      334.899        5.175      868.367
01/09/2021  14:03:00      159.586       85.145       -5.909       70.833       67.174       32.522     5017.248     4512.338     1057.648        2.167        0.529      180.879       24.647        0.019      334.951        5.261      868.363
01/09/2021  14:04:00       87.133       -1.807      -13.799       83.852       87.742       52.740     7031.081     7698.624     2781.509        1.264        0.876       87.152       50.431        0.335      335.250        5.760      868.358
01/09/2021  14:05:00       28.638      -62.823      -14.135       63.552       75.903       42.342     4038.916     5761.278     1792.865        0.828        0.580       69.042       36.221        0.275      335.268        5.788      868.360
01/09/2021  14:06:00       21.803       12.742       15.343       54.615       58.013       34.493     2982.809     3365.516     1189.771        0.420        0.377       25.254       31.104        1.517      335.588        6.322      868.368
01/09/2021  14:07:00      112.797        3.262      -13.662       71.105       67.015       36.802     5055.984     4490.953     1354.412        1.191        0.545      112.844       33.720        0.089      335.200        5.676      868.379
01/09/2021  14:08:00       97.906       13.887       -0.407       61.043       40.068       30.351     3726.236     1605.463      921.188        0.801        0.313       98.886       27.510        0.077      335.032        5.398      868.373
01/09/2021  14:09:00      135.225      -25.076       -1.095       80.217       62.571       41.049     6434.714     3915.098     1685.053        1.547        0.602      137.530       39.542        0.083      335.093        5.499      868.348
01/09/2021  14:10:00      121.681        6.528      -30.067       69.650       57.010       41.389     4851.089     3250.107     1713.074        1.278        0.491      121.856       38.450        0.100      335.147        5.587      868.323
01/09/2021  14:11:00       73.741      -51.616      -14.832       57.249       45.484       33.265     3277.416     2068.822     1106.529        0.739        0.323       90.011       35.131        0.152      335.067        5.456      868.316
01/09/2021  14:12:00       84.268      -52.170      -14.446       48.775       46.304       23.908     2378.955     2144.023      571.598        0.756        0.255       99.110       17.522        0.031      335.033        5.399      868.311
01/09/2021  14:13:00       43.481        9.566       -9.286       64.972       65.983       36.806     4221.313     4353.744     1354.672        0.600        0.496       44.520       35.516        0.636      335.373        5.963      868.317
01/09/2021  14:14:00       54.363      -13.719      -14.188       83.137       80.404       45.454     6911.808     6464.791     2066.061        0.939        0.772       56.067       36.553        0.425      335.308        5.855      868.308
01/09/2021  14:15:00      106.887        3.720      -19.052       78.452       88.395       31.945     6154.662     7813.745     1020.487        1.339        0.749      106.952       22.848        0.046      335.315        5.867      868.303
01/09/2021  14:16:00       48.936      -26.770      -21.994       46.971       63.955       42.507     2206.312     4090.287     1806.870        0.585        0.405       55.780       28.525        0.262      335.602        6.345      868.281
01/09/2021  14:17:00      144.319       34.677      -14.477       68.610       52.740       35.941     4707.315     2781.558     1291.759        1.551        0.439      148.427       31.156        0.044      335.133        5.564      868.274
01/09/2021  14:18:00      159.052       81.639      -18.672       64.104       52.860       32.254     4109.329     2794.208     1040.350        2.013        0.397      178.781       21.845        0.015      335.043        5.413      868.268
01/09/2021  14:19:00       76.443       51.215       -7.837       51.008       45.534       29.210     2601.861     2073.341      853.248        0.703        0.276       92.014       22.357        0.059      335.388        5.988      868.273
01/09/2021  14:20:00      168.919       88.339      -16.050       58.579       41.443       28.346     3431.490     1717.528      803.479        2.127        0.298      190.624       29.347        0.024      335.079        5.475      868.280
01/09/2021  14:21:00      161.282      103.097      -11.828       48.640       47.774       25.116     2365.871     2282.373      630.802        2.103        0.264      191.419       19.343        0.010      335.065        5.452      868.278
01/09/2021  14:22:00      115.568      -16.662      -18.801      102.266       51.587       42.006    10458.327     2661.170     1764.501        1.443        0.744      116.763       52.327        0.201      335.373        5.962      868.254
01/09/2021  14:23:00       93.214      -37.245      -20.426       68.365       74.214       42.827     4673.763     5507.680     1834.126        1.125        0.601      100.380       35.498        0.125      335.324        5.882      868.215
01/09/2021  14:24:00      156.542      -30.164      -29.651      113.454       68.505       46.998    12871.759     4692.996     2208.802        2.303        0.989      159.421       54.812        0.118      335.082        5.478      868.178
01/09/2021  14:25:00      140.611       17.515      -21.741       36.391       44.437       27.726     1324.324     1974.665      768.707        1.231        0.203      141.698       21.371        0.023      334.971        5.297      868.179
01/09/2021  14:26:00       48.993       14.841      -10.526       40.385       13.795       18.735     1630.948      190.307      351.010        0.245        0.109       51.191       21.803        0.181      334.935        5.237      868.167
01/09/2021  14:27:00       52.786      -45.460      -10.488       74.520       32.263       28.910     5553.202     1040.917      835.790        0.619        0.371       69.664       33.199        0.227      335.340        5.909      868.179
01/09/2021  14:28:00       79.530       -9.379       -5.180       63.174       87.119       29.162     3991.013     7589.696      850.446        0.943        0.622       80.082       27.169        0.115      335.329        5.891      868.177
01/09/2021  14:29:00       89.641     -146.961      -30.228       56.469       34.540       29.631     3188.786     1193.023      877.995        1.790        0.263      172.143       31.385        0.033      335.312        5.861      868.185
01/09/2021  14:30:00       96.706     -129.218      -29.685       68.979       61.923       35.913     4758.038     3834.478     1289.772        1.840        0.494      161.398       32.694        0.041      335.396        6.001      868.178
01/09/2021  14:31:00      167.881     -301.182      -58.531       62.721       57.986       30.574     3933.970     3362.390      934.765        6.527        0.412      344.811       29.954        0.008      334.943        5.245      868.145
01/09/2021  14:32:00      113.607     -162.500      -37.403       52.190       55.067       36.666     2723.813     3032.335     1344.399        2.390        0.355      198.274       32.903        0.028      335.182        5.644      868.134
01/09/2021  14:33:00       29.823      -20.179      -13.640       75.830       58.188       31.242     5750.132     3385.855      976.078        0.580        0.506       36.008       34.703        0.929      335.326        5.885      868.108
01/09/2021  14:34:00      -16.990      -76.429      -28.759       60.428       47.718       35.231     3651.515     2276.989     1241.194        0.706        0.358       78.294       27.594        0.124      335.551        6.260      868.079
01/09/2021  14:35:00       14.538      -88.927      -19.743       78.344       44.238       24.712     6137.838     1957.023      610.662        0.861        0.435       90.108       28.250        0.098      335.541        6.244      868.085
01/09/2021  14:36:00       12.875      -62.639      -10.540       53.799       35.065       27.332     2894.290     1229.581      747.026        0.453        0.244       63.949       22.474        0.124      335.496        6.168      868.096
01/09/2021  14:37:00       -8.617      -52.809      -41.963       38.286       49.486       29.021     1465.824     2448.877      842.209        0.469        0.238       53.507       22.889        0.183      335.588        6.321      868.099
01/09/2021  14:38:00       28.648      -28.607       -8.097       47.746       67.274       23.843     2279.694     4525.763      568.509        0.454        0.369       40.486       23.448        0.335      335.452        6.095      868.094
01/09/2021  14:39:00       -5.248      -67.090      -17.234       61.761       56.741       24.705     3814.412     3219.582      610.356        0.623        0.382       67.295       21.952        0.106      335.540        6.242      868.084
01/09/2021  14:40:00        9.476      -31.442       -3.443       47.609       31.390       26.869     2266.613      985.325      721.924        0.253        0.199       32.839       20.916        0.406      335.705        6.516      868.087
01/09/2021  14:41:00       95.743      -20.262      -11.667       58.269       35.574       32.057     3395.297     1265.484     1027.629        0.770        0.284       97.864       26.510        0.073      335.544        6.249      868.100
01/09/2021  14:42:00       72.934      -86.634      -24.211       67.234       80.628       28.049     4520.402     6500.825      786.774        1.261        0.590      113.247       27.484        0.059      335.620        6.375      868.130
01/09/2021  14:43:00       55.441      -30.489      -12.678       77.698       93.941       50.691     6036.980     8824.972     2569.553        1.079        0.872       63.271       46.623        0.543      335.708        6.521      868.160
01/09/2021  14:44:00       39.743        9.746      -11.406       51.645       38.819       23.957     2667.217     1506.932      573.947        0.328        0.237       40.920       20.077        0.241      335.578        6.305      868.210
01/09/2021  14:45:00      115.195      -41.509      -16.787       62.164       54.340       38.009     3864.360     2952.880     1444.715        1.177        0.413      122.446       26.297        0.046      335.393        5.997      868.232
01/09/2021  14:46:00       59.641       -1.074       -3.718       60.596       62.347       42.964     3671.821     3887.119     1845.862        0.649        0.470       59.651       38.502        0.417      335.400        6.008      868.257
01/09/2021  14:47:00       77.852        8.852      -45.093       87.396       71.862       46.789     7638.117     5164.137     2189.196        1.158        0.750       78.354       48.779        0.388      335.418        6.037      868.259
01/09/2021  14:48:00      135.491      -47.594      -42.695       58.819       50.855       33.284     3459.617     2586.184     1107.794        1.480        0.358      143.607       28.896        0.040      335.314        5.863      868.261
01/09/2021  14:49:00       81.141       13.895      -35.136       58.013       57.541       40.694     3365.462     3310.913     1655.997        0.817        0.417       82.322       30.010        0.133      335.368        5.955      868.250
01/09/2021  14:50:00      104.200        2.235      -16.738       72.192       55.779       39.157     5211.646     3111.328     1533.309        1.050        0.493      104.224       35.757        0.118      335.351        5.926      868.234
01/09/2021  14:51:00       60.022      -25.470       -1.511       56.461       41.765       31.301     3187.868     1744.334      979.766        0.508        0.296       65.202       28.874        0.196      335.534        6.232      868.230
01/09/2021  14:52:00       65.350      -15.489      -10.895       36.572       65.353       28.705     1337.536     4271.056      823.976        0.553        0.322       67.160       22.679        0.114      335.499        6.173      868.236
01/09/2021  14:53:00       80.701       25.642      -18.376       49.695       40.375       21.901     2469.598     1630.160      479.633        0.604        0.229       84.677       25.000        0.087      335.483        6.146      868.243
01/09/2021  14:54:00       62.805       58.033        0.826       35.431       29.513       27.469     1255.363      871.000      754.555        0.510        0.144       85.512       17.848        0.044      335.358        5.939      868.252
01/09/2021  14:55:00       56.560       61.556        0.558       28.240       18.864       18.382      797.494      355.864      337.883        0.424        0.075       83.595       18.133        0.047      335.197        5.672      868.246
01/09/2021  14:56:00       19.359       -3.249        0.218       33.706       44.549       23.466     1136.070     1984.581      550.659        0.203        0.184       19.630       18.711        0.909      335.573        6.298      868.240
01/09/2021  14:57:00       75.678      -90.847      -23.741       92.042       97.455       39.231     8471.718     9497.415     1539.107        1.702        0.975      118.238       58.212        0.242      335.608        6.354      868.235
01/09/2021  14:58:00      124.630     -187.761      -38.625       65.832       53.376       37.652     4333.805     2848.989     1417.667        3.044        0.430      225.359       43.869        0.038      335.262        5.776      868.225
01/09/2021  14:59:00       82.200      -96.079      -18.718       41.507       43.851       25.792     1722.826     1922.944      665.246        1.032        0.216      126.443       20.958        0.027      335.387        5.986      868.237
01/09/2021  15:00:00       14.990      -60.094      -28.698       52.893       34.922       24.217     2797.630     1219.515      586.476        0.463        0.230       61.936       19.519        0.099      335.685        6.483      868.240
01/09/2021  15:01:00      -26.682      -39.581      -16.339       36.530       30.773       20.526     1334.465      946.974      421.318        0.262        0.135       47.735       10.976        0.053      335.933        6.897      868.239
01/09/2021  15:02:00      -15.598      -81.771      -28.687       73.433       38.461       20.666     5392.411     1479.269      427.094        0.752        0.365       83.245       10.957        0.017      335.601        6.344      868.251
01/09/2021  15:03:00       68.116      -88.833      -26.311       38.444       45.296       19.643     1477.912     2051.730      385.846        0.857        0.196      111.942       22.284        0.040      335.312        5.861      868.264
01/09/2021  15:04:00       22.455      -48.878      -34.560       50.217       34.614       21.423     2521.710     1198.096      458.929        0.413        0.209       53.789       18.964        0.124      335.655        6.433      868.276
01/09/2021  15:05:00       45.568        5.005      -20.993       72.525       41.696       33.699     5259.928     1738.554     1135.617        0.534        0.407       45.842       34.151        0.555      335.612        6.362      868.279
01/09/2021  15:06:00       61.064      -44.033      -13.531       32.122       24.956       19.769     1031.819      622.806      390.795        0.395        0.102       75.284       18.890        0.063      335.349        5.923      868.285
01/09/2021  15:07:00       49.632       39.318      -14.081       38.440       54.662       29.356     1477.617     2987.983      861.785        0.477        0.266       63.318       21.445        0.115      335.373        5.962      868.278
01/09/2021  15:08:00       63.018       70.575       -5.065       32.081       31.045       22.981     1029.171      963.787      528.118        0.575        0.126       94.616       22.480        0.056      335.236        5.736      868.266
01/09/2021  15:09:00       23.899       43.359       -3.491       25.035       17.351       13.178      626.770      301.069      173.671        0.178        0.055       49.510       14.469        0.085      335.239        5.740      868.242
01/09/2021  15:10:00       17.095       28.588       -3.429       23.787       19.389       13.632      565.828      375.947      185.827        0.112        0.056       33.309       13.632        0.167      335.305        5.850      868.217
01/09/2021  15:11:00       22.133       28.023       -4.346       20.884       16.502        9.943      436.130      272.319       98.865        0.105        0.040       35.709        5.191        0.021      335.283        5.814      868.201
01/09/2021  15:12:00        0.290        7.692       -0.777       14.776       10.743       13.312      218.334      115.406      177.220        0.029        0.026        7.697        8.562        1.237      335.618        6.372      868.177
01/09/2021  15:13:00       15.867       40.592       -2.623       26.344       12.121       13.969      693.994      146.916      195.136        0.147        0.052       43.583       17.406        0.159      335.376        5.966      868.163
01/09/2021  15:14:00       19.097       12.070       -3.134       23.186       12.119       14.339      537.584      146.878      205.610        0.070        0.045       22.592       15.751        0.486      335.595        6.332      868.165
01/09/2021  15:15:00       17.180       -5.041       -4.576       27.078       25.702       18.500      733.241      660.585      342.233        0.104        0.087       17.905       16.217        0.820      335.873        6.797      868.163
01/09/2021  15:16:00       21.993        6.205        9.854       37.779       29.159       18.923     1427.215      850.241      358.063        0.163        0.132       22.851       11.191        0.240      335.682        6.479      868.173
01/09/2021  15:17:00       33.239       18.696       -8.876       32.572       38.001       22.497     1060.959     1444.057      506.097        0.227        0.151       38.136       14.552        0.146      335.525        6.216      868.184
01/09/2021  15:18:00       15.480      -31.883        7.155       43.382       56.020       31.800     1882.035     3138.283     1011.243        0.367        0.302       35.442       30.267        0.729      335.793        6.664      868.191
01/09/2021  15:19:00       82.670       -1.485      -18.407       42.681       68.496       33.875     1821.661     4691.665     1147.490        0.742        0.383       82.683       25.325        0.094      335.591        6.327      868.204
01/09/2021  15:20:00       92.722       30.787       -8.876       64.198       62.285       30.547     4121.382     3879.474      933.121        0.928        0.447       97.700       19.193        0.039      335.558        6.271      868.214
01/09/2021  15:21:00       65.466       14.040       -5.019       36.700       60.374       26.382     1346.895     3644.960      696.029        0.510        0.284       66.954       19.074        0.081      335.564        6.281      868.216
01/09/2021  15:22:00      111.267       -3.943      -20.971       55.780       70.537       31.349     3111.463     4975.505      982.769        1.095        0.453      111.337       17.726        0.025      335.569        6.288      868.206
01/09/2021  15:23:00      111.857       -9.177       -3.197       65.988       45.834       36.231     4354.468     2100.772     1312.668        1.019        0.388      112.233       34.662        0.095      335.454        6.098      868.193
01/09/2021  15:24:00      122.334       26.728      -12.734       48.371       42.502       30.877     2339.744     1806.447      953.398        1.047        0.255      125.220       27.050        0.047      335.395        5.997      868.178
01/09/2021  15:25:00      203.734       75.979       -7.286       45.089       37.186       29.732     2032.993     1382.834      883.965        2.582        0.215      217.441       26.596        0.015      335.298        5.834      868.170
01/09/2021  15:26:00      158.220       43.414      -21.437       46.086       25.224       22.728     2123.880      636.251      516.578        1.533        0.164      164.068       19.875        0.015      335.329        5.889      868.172
01/09/2021  15:27:00      109.034       69.151      -15.329       28.343       19.269       16.980      803.339      371.296      288.323        0.918        0.073      129.113       14.467        0.013      335.334        5.897      868.178
01/09/2021  15:28:00       76.175       53.973      -19.114       33.667       17.579       19.359     1133.468      309.008      374.786        0.545        0.091       93.358       20.221        0.047      335.313        5.862      868.192
01/09/2021  15:29:00       18.738       40.262       -6.277       31.615       24.543       18.006      999.531      602.355      324.212        0.197        0.096       44.409       21.218        0.228      335.461        6.109      868.197
01/09/2021  15:30:00       48.008       71.581      -13.894       26.088       19.261       14.902      680.591      370.996      222.081        0.445        0.064       86.189       11.902        0.019      335.356        5.934      868.206
01/09/2021  15:31:00       28.809       53.821      -15.362       37.141       24.330       17.816     1379.429      591.943      317.410        0.313        0.114       61.046        9.845        0.026      335.512        6.195      868.207
01/09/2021  15:32:00      138.796       82.920      -15.604       42.623       30.190       23.803     1816.707      911.448      566.589        1.484        0.165      161.679       17.387        0.012      335.351        5.924      868.196
01/09/2021  15:33:00      140.027       60.984      -10.915       36.188       23.309       19.395     1309.564      543.330      376.162        1.284        0.111      152.731       12.784        0.007      335.298        5.836      868.176
01/09/2021  15:34:00      106.878       28.671       -9.231       39.696       31.857       25.584     1575.765     1014.869      654.564        0.779        0.162      110.657       26.141        0.056      335.367        5.952      868.158
01/09/2021  15:35:00       43.393       51.820      -21.608       52.415       25.042       21.109     2747.285      627.093      445.572        0.443        0.191       67.589       22.398        0.110      335.403        6.012      868.134
01/09/2021  15:36:00       68.383       82.217      -24.731       49.725       28.605       23.465     2472.566      818.273      550.598        0.794        0.192      106.938       14.170        0.018      335.537        6.237      868.111
01/09/2021  15:37:00       95.135       47.092       -4.449       52.565       21.139       24.606     2763.029      446.847      605.433        0.755        0.191      106.152       27.868        0.069      335.419        6.039      868.073
01/09/2021  15:38:00       20.070       -6.690       -8.085       47.520       43.463       22.445     2258.159     1889.034      503.778        0.258        0.233       21.156       24.897        1.385      335.533        6.229      868.013
01/09/2021  15:39:00      -45.761      -20.013       -7.801       46.313       19.632       26.311     2144.867      385.414      692.276        0.289        0.161       49.946       17.752        0.126      335.960        6.942      867.955
01/09/2021  15:40:00       42.359      -81.019      -18.713       53.638       44.343       33.267     2877.023     1966.280     1106.702        0.733        0.298       91.424       34.886        0.146      335.775        6.633      867.938
01/09/2021  15:41:00        4.732      -25.020       -6.699       42.370       34.837       27.831     1795.217     1213.621      774.550        0.224        0.189       25.464       22.565        0.785      335.862        6.778      867.936
01/09/2021  15:42:00       51.461      -13.337      -14.187       59.877       47.034       33.358     3585.302     2212.182     1112.729        0.497        0.346       53.161       25.560        0.231      335.709        6.525      867.937
01/09/2021  15:43:00       51.007       -0.456      -13.480       57.418       65.525       37.597     3296.836     4293.567     1413.528        0.589        0.450       51.009       36.339        0.508      335.743        6.580      867.938
01/09/2021  15:44:00       99.982      -73.216      -18.991       63.962       70.157       37.371     4091.127     4921.972     1396.559        1.306        0.520      123.924       36.830        0.088      335.587        6.320      867.942
01/09/2021  15:45:00      139.260      -76.206      -26.074       86.262       54.839       32.493     7441.157     3007.283     1055.822        1.869        0.575      158.747       32.551        0.042      335.597        6.335      867.941
01/09/2021  15:46:00      138.112       38.435      -21.496       49.291       49.708       29.532     2429.558     2470.935      872.131        1.339        0.289      143.360       26.728        0.035      335.428        6.056      867.975
01/09/2021  15:47:00       99.214       23.273      -12.784       72.329       48.830       30.855     5231.472     2384.392      952.019        0.956        0.428      101.907       34.319        0.113      335.475        6.134      868.006
01/09/2021  15:48:00       84.786       -2.366      -12.363       71.661       46.804       31.651     5135.354     2190.622     1001.795        0.784        0.416       84.819       40.425        0.227      335.506        6.184      868.038
01/09/2021  15:49:00       84.231       -6.388      -11.555       48.441       42.525       31.066     2346.565     1808.370      965.073        0.619        0.256       84.473       29.369        0.121      335.529        6.222      868.074
01/09/2021  15:50:00       53.209       16.040      -10.321       54.866       63.073       27.735     3010.232     3978.160      769.216        0.547        0.388       55.574       26.248        0.223      335.596        6.334      868.081
01/09/2021  15:51:00       31.393        5.315      -11.404       63.354       42.830       33.521     4013.756     1834.379     1123.630        0.406        0.349       31.840       33.131        1.083      335.666        6.451      868.081
01/09/2021  15:52:00      119.565       13.378       -9.606       67.167       45.778       35.942     4511.416     2095.631     1291.849        1.123        0.395      120.312       34.145        0.081      335.464        6.115      868.083
01/09/2021  15:53:00      193.178        2.160      -16.232       67.494       47.691       39.642     4555.447     2274.454     1571.474        2.299        0.420      193.190       43.250        0.050      335.404        6.013      868.088
01/09/2021  15:54:00      142.171       17.634      -20.676       66.517       32.004       28.344     4424.498     1024.225      803.365        1.360        0.313      143.261       37.361        0.068      335.414        6.030      868.095
01/09/2021  15:55:00      134.468       52.960      -18.981       55.816       33.963       28.314     3115.436     1153.493      801.663        1.316        0.254      144.521       30.982        0.046      335.353        5.930      868.114
01/09/2021  15:56:00      152.000       51.633      -15.226       55.176       31.496       29.152     3044.404      991.972      849.863        1.544        0.244      160.531       30.317        0.036      335.344        5.914      868.137
01/09/2021  15:57:00      112.636       43.800      -17.317       58.026       21.429       23.299     3366.972      459.184      542.843        0.964        0.218      120.852       30.179        0.062      335.356        5.936      868.149
01/09/2021  15:58:00      114.018       47.077      -21.344       57.828       32.362       29.857     3344.108     1047.331      891.416        1.048        0.264      123.354       34.644        0.079      335.461        6.111      868.142
01/09/2021  15:59:00      144.951       42.450      -28.141       54.840       39.536       30.673     3007.459     1563.077      940.822        1.456        0.276      151.039       28.492        0.036      335.540        6.240      868.122
01/09/2021  16:00:00       99.711       26.368      -11.049       60.120       44.882       34.702     3614.412     2014.379     1204.214        0.879        0.342      103.139       34.287        0.111      335.424        6.048      868.084
01/09/2021  16:01:00      139.973       -5.767      -26.101       61.648       36.609       31.723     3800.445     1340.187     1006.328        1.323        0.307      140.092       36.716        0.069      335.473        6.130      868.046
01/09/2021  16:02:00       68.045      -22.171      -13.914       55.683       32.405       30.794     3100.645     1050.101      948.301        0.521        0.255       71.565       37.334        0.272      335.466        6.119      868.021
01/09/2021  16:03:00       76.069        3.120       -9.188       61.893       35.561       34.281     3830.803     1264.571     1175.176        0.607        0.314       76.133       39.708        0.272      335.454        6.099      868.000
01/09/2021  16:04:00       65.916        6.671       -6.324       50.030       21.149       24.732     2502.962      447.298      611.653        0.399        0.178       66.252       27.103        0.167      335.422        6.045      867.995
01/09/2021  16:05:00       79.824       -6.891      -11.938       52.307       43.277       31.078     2736.057     1872.927      965.866        0.607        0.279       80.121       30.409        0.144      335.419        6.040      868.000
01/09/2021  16:06:00      113.200      -41.650      -16.020       66.026       40.308       37.072     4359.421     1624.722     1374.356        1.108        0.368      120.619       38.042        0.099      335.450        6.091      868.007
01/09/2021  16:07:00       82.633      -17.488      -18.268       64.136       41.863       35.632     4113.470     1752.482     1269.664        0.730        0.357       84.464       35.309        0.175      335.501        6.176      868.003
01/09/2021  16:08:00       87.503      -11.881      -20.604       48.353       47.311       27.352     2337.997     2238.334      748.112        0.677        0.266       88.306       23.477        0.071      335.499        6.174      868.005
01/09/2021  16:09:00       73.711      -16.390      -14.257       49.636       29.995       30.482     2463.756      899.677      929.152        0.510        0.215       75.511       32.933        0.190      335.420        6.040      867.999
01/09/2021  16:10:00       55.904      -13.805      -12.298       31.168       16.642       15.825      971.447      276.960      250.438        0.248        0.075       57.584       17.679        0.094      335.374        5.963      867.991
01/09/2021  16:11:00       15.504        0.822       -6.992       22.731        5.755       13.025      516.695       33.125      169.653        0.050        0.036       15.526       14.631        0.888      335.411        6.026      867.982
01/09/2021  16:12:00        1.421       19.779        3.864       24.299        6.120       12.355      590.466       37.457      152.634        0.059        0.039       19.830       15.694        0.626      335.358        5.938      867.989
01/09/2021  16:13:00       14.700       -0.144       -3.981       31.731        7.060       15.712     1006.831       49.844      246.852        0.077        0.065       14.701       21.494        2.138      335.435        6.066      868.007
01/09/2021  16:14:00       34.568       41.564       -8.025       33.738        9.826       16.938     1138.226       96.554      286.880        0.225        0.076       54.060       22.762        0.177      335.347        5.920      868.034
01/09/2021  16:15:00       26.865       27.442       -9.439       39.019       12.711       20.592     1522.499      161.562      424.010        0.184        0.105       38.403       26.779        0.486      335.377        5.967      868.071
01/09/2021  16:16:00       30.587        9.439       -4.751       37.114        9.940       20.992     1377.481       98.801      440.677        0.148        0.096       32.010       24.444        0.583      335.388        5.987      868.094
01/09/2021  16:17:00       30.366       14.454       -7.278       36.777        8.171       19.262     1352.563       66.766      371.013        0.149        0.090       33.630       24.635        0.537      335.369        5.954      868.121
01/09/2021  16:18:00        8.459       10.852       -3.190       26.648        7.149       14.615      710.105       51.115      213.595        0.059        0.049       13.760       18.245        1.758      335.385        5.983      868.146
01/09/2021  16:19:00       14.993       19.359        3.644       32.782        8.993       17.996     1074.631       80.879      323.860        0.105        0.074       24.486       21.456        0.768      335.435        6.067      868.162
01/09/2021  16:20:00       -1.788       19.262       -5.843       53.250       15.043       20.917     2835.607      226.287      437.508        0.195        0.175       19.345       27.322        1.995      335.545        6.249      868.176
01/09/2021  16:21:00       -4.296       18.112       -9.694       40.422       18.078       18.360     1633.937      326.818      337.102        0.137        0.115       18.614       20.911        1.262      335.555        6.267      868.192
01/09/2021  16:22:00      -21.671       39.682       -6.939       40.996       26.733       17.704     1680.676      714.661      313.445        0.240        0.135       45.214       13.949        0.095      335.498        6.172      868.204
01/09/2021  16:23:00       18.256       39.574       -8.540       22.876       11.189       12.538      523.290      125.187      157.213        0.139        0.040       43.582       14.159        0.106      335.410        6.026      868.208
01/09/2021  16:24:00       32.337       33.999       -6.996       34.890       12.456       18.324     1217.290      155.150      335.768        0.198        0.085       46.921       23.720        0.256      335.394        5.999      868.189
01/09/2021  16:25:00       39.658       23.231       -4.876       33.973       15.848       14.083     1154.157      251.157      198.318        0.187        0.080       45.962       19.755        0.185      335.373        5.962      868.165
01/09/2021  16:26:00       45.883        8.271       -5.882       43.141       17.935       22.539     1861.138      321.659      507.993        0.245        0.135       46.623       28.973        0.386      335.336        5.901      868.142
01/09/2021  16:27:00       37.672       10.250       -7.996       35.439       11.365       17.015     1255.924      129.168      289.522        0.163        0.084       39.042       21.889        0.314      335.314        5.864      868.127
01/09/2021  16:28:00       32.350       23.401       -2.102       33.886       10.093       17.248     1148.282      101.876      297.507        0.157        0.077       39.926       21.735        0.296      335.310        5.857      868.120
01/09/2021  16:29:00       24.716       17.416       -8.296       27.980       13.459       15.065      782.883      181.139      226.958        0.109        0.060       30.236       16.714        0.306      335.297        5.835      868.135
01/09/2021  16:30:00        7.946       20.180       -0.848       29.563       21.631       16.550      873.946      467.891      273.916        0.104        0.081       21.688       15.425        0.506      335.293        5.831      868.171
01/09/2021  16:31:00      -20.053       24.027      -11.010       29.779       10.856       16.854      886.797      117.854      284.069        0.119        0.064       31.296       18.573        0.352      335.370        5.959      868.218
01/09/2021  16:32:00      -37.132       13.009       -4.402       38.691       23.102       16.790     1497.029      533.698      281.911        0.194        0.116       39.345       14.705        0.140      335.431        6.059      868.245
01/09/2021  16:33:00      -11.146        1.265       -6.534       37.076       16.180       21.022     1374.620      261.785      441.942        0.112        0.104       11.217       21.959        3.832      335.471        6.127      868.262
01/09/2021  16:34:00       14.152        6.952        0.677       38.062       13.837       19.492     1448.715      191.462      379.924        0.113        0.101       15.767       23.602        2.241      335.450        6.092      868.256
01/09/2021  16:35:00       17.464       50.985       -2.899       29.345       20.248       15.920      861.110      409.998      253.453        0.222        0.076       53.893       17.550        0.106      335.399        6.007      868.240
01/09/2021  16:36:00       16.667       45.244       -9.020       28.758       16.790       14.073      827.042      281.904      198.052        0.186        0.065       48.216       16.314        0.114      335.379        5.972      868.238
01/09/2021  16:37:00       26.741       38.954       -5.984       29.569       19.922       17.615      874.309      396.896      310.299        0.192        0.079       47.250       18.577        0.155      335.311        5.860      868.255
01/09/2021  16:38:00       21.901       55.288       -8.375       35.734       19.034       20.534     1276.890      362.277      421.625        0.283        0.103       59.468       22.889        0.148      335.364        5.947      868.273
01/09/2021  16:39:00       54.504       35.317       -9.437       34.735       11.293       16.369     1206.511      127.522      267.946        0.295        0.080       64.946       18.421        0.080      335.280        5.809      868.293
01/09/2021  16:40:00       62.704        8.822       -8.491       36.328       27.913       16.783     1319.758      779.135      281.686        0.323        0.119       63.321       21.143        0.111      335.272        5.795      868.299
01/09/2021  16:41:00      111.669       26.977       -2.608       69.021       34.352       30.469     4763.861     1180.087      928.344        1.004        0.344      114.881       35.679        0.096      335.147        5.588      868.301
01/09/2021  16:42:00      117.988       50.348       -8.436       52.146       30.564       25.249     2719.246      934.163      637.536        1.041        0.215      128.282       27.361        0.045      335.017        5.373      868.308
01/09/2021  16:43:00      107.286       55.801      -10.071       47.168       29.527       24.960     2224.796      871.865      622.978        0.922        0.186      120.930       24.893        0.042      334.987        5.323      868.318
01/09/2021  16:44:00      123.269       62.376      -12.979       49.749       32.743       27.873     2474.967     1072.072      776.909        1.179        0.216      138.152       26.159        0.036      334.974        5.301      868.319
01/09/2021  16:45:00       93.579       69.856      -18.668       45.966       34.625       23.155     2112.875     1198.873      536.173        0.892        0.192      116.777       22.752        0.038      334.935        5.237      868.317
01/09/2021  16:46:00      113.144       88.853      -14.398       47.610       39.383       26.823     2266.732     1551.056      719.454        1.272        0.227      143.863       20.982        0.021      334.934        5.233      868.313
01/09/2021  16:47:00      105.862       57.944       -9.618       43.763       27.600       22.324     1915.158      761.786      498.352        0.892        0.159      120.683       19.717        0.027      334.915        5.202      868.297
01/09/2021  16:48:00       68.022       66.128      -13.655       47.838       37.315       26.211     2288.515     1392.425      687.029        0.678        0.218       94.868       26.175        0.076      334.896        5.171      868.289
01/09/2021  16:49:00       66.332       79.391      -11.063       41.735       42.792       26.524     1741.839     1831.182      703.523        0.755        0.214      103.455       21.871        0.045      334.861        5.112      868.281
01/09/2021  16:50:00       82.117       32.024       -4.762       72.571       41.508       23.782     5266.583     1722.925      565.593        0.767        0.378       88.141       31.413        0.127      334.841        5.082      868.274
01/09/2021  16:51:00      162.675       86.644      -10.059       55.937       40.305       28.721     3128.896     1624.485      824.916        1.982        0.279      184.311       30.017        0.027      334.800        5.009      868.267
01/09/2021  16:52:00      162.764       81.611      -19.392       55.819       40.786       31.999     3115.771     1663.481     1023.905        1.966        0.290      182.078       33.826        0.035      334.822        5.046      868.267
01/09/2021  16:53:00      108.483       34.069      -17.326       80.789       57.709       27.305     6526.840     3330.300      745.576        1.191        0.530      113.707       33.248        0.086      334.883        5.149      868.262
01/09/2021  16:54:00      109.093       33.124       -8.779       60.088       41.841       22.740     3610.595     1750.677      517.112        0.948        0.294      114.011       13.048        0.013      334.818        5.041      868.264
01/09/2021  16:55:00      110.939       52.599       -9.092       56.194       28.980       21.561     3157.763      839.851      464.893        0.981        0.223      122.777       21.798        0.032      334.734        4.902      868.260
01/09/2021  16:56:00      153.387       36.565       -9.092       75.389       40.788       29.424     5683.551     1663.637      865.755        1.658        0.411      157.685       22.398        0.020      334.749        4.926      868.243
01/09/2021  16:57:00      157.305       83.149       -9.682       53.292       35.871       25.812     2840.073     1286.695      666.275        1.827        0.240      177.929       24.103        0.018      334.744        4.917      868.227
01/09/2021  16:58:00      127.466       52.554      -11.836       65.315       49.123       25.421     4266.016     2413.092      646.231        1.324        0.366      137.875       22.232        0.026      334.721        4.880      868.202
01/09/2021  16:59:00      157.547       29.005      -10.112       60.206       40.306       29.611     3624.771     1624.593      876.818        1.594        0.306      160.195       26.148        0.027      334.745        4.919      868.168
01/09/2021  17:00:00      145.692       76.838      -20.158       54.610       57.075       26.901     2982.289     3257.554      723.662        1.725        0.348      164.712       19.839        0.015      334.694        4.836      868.145
01/09/2021  17:01:00      124.844       38.133       -2.353       72.320       63.418       37.385     5230.170     4021.899     1397.650        1.385        0.532      130.538       44.238        0.115      334.688        4.825      868.136
01/09/2021  17:02:00      161.859       92.189      -22.391       36.247       40.293       23.164     1313.879     1623.550      536.562        1.934        0.174      186.272       13.021        0.005      334.624        4.717      868.141
01/09/2021  17:03:00      162.218       77.568      -10.131       52.340       37.421       30.520     2739.505     1400.352      931.471        1.875        0.254      179.810       32.292        0.032      334.635        4.735      868.151
01/09/2021  17:04:00      161.198       79.779       -4.077       64.745       42.890       36.451     4191.969     1839.575     1328.642        1.986        0.368      179.859       35.071        0.038      334.638        4.740      868.162
01/09/2021  17:05:00      128.207       59.225       -5.559       45.984       35.465       23.460     2114.561     1257.756      550.349        1.195        0.196      141.225       21.624        0.023      334.557        4.609      868.172
01/09/2021  17:06:00      131.870       53.742       -3.463       38.341       34.332       21.648     1470.015     1178.719      468.627        1.170        0.156      142.401       18.843        0.018      334.552        4.600      868.185
01/09/2021  17:07:00      138.900       75.729       -7.704       31.794       35.566       25.548     1010.851     1264.940      652.684        1.401        0.146      158.203       19.584        0.015      334.587        4.657      868.205
01/09/2021  17:08:00      103.526       84.065      -10.952       36.025       33.943       24.288     1297.773     1152.152      589.904        1.047        0.152      133.359       20.092        0.023      334.597        4.674      868.231
01/09/2021  17:09:00       77.519       35.021      -11.189       60.938       51.323       27.934     3713.493     2634.060      780.308        0.724        0.356       85.063       31.080        0.133      334.633        4.733      868.250
01/09/2021  17:10:00      124.343       64.304      -13.822       52.184       28.470       20.630     2723.171      810.545      425.598        1.187        0.198      139.986       12.119        0.007      334.570        4.630      868.259
01/09/2021  17:11:00      125.121       24.730       -9.372       37.934       19.537       19.603     1439.004      381.692      384.263        0.928        0.110      127.542       17.247        0.018      334.566        4.622      868.267
01/09/2021  17:12:00       32.613       23.443        2.167       30.591       16.841       13.382      935.819      283.616      179.072        0.151        0.070       40.164       14.191        0.125      334.488        4.495      868.278
01/09/2021  17:13:00      128.197       65.961      -12.125       48.048       45.441       18.063     2308.644     2064.886      326.268        1.282        0.235      144.171       23.244        0.026      334.541        4.580      868.295
01/09/2021  17:14:00       98.157       36.493      -11.789       41.244       28.624       20.126     1701.036      819.353      405.060        0.701        0.146      104.721       17.919        0.029      334.511        4.531      868.308
01/09/2021  17:15:00       84.732       33.935       -2.302       26.550       22.071       17.364      704.893      487.116      301.496        0.491        0.075       91.275       12.589        0.019      334.464        4.454      868.301
01/09/2021  17:16:00       99.581       55.546      -18.510       30.510       25.492       18.229      930.863      649.844      332.288        0.763        0.096      114.025       17.449        0.023      334.531        4.563      868.290
01/09/2021  17:17:00       85.604       50.814      -14.070       35.181       31.612       17.197     1237.706      999.291      295.729        0.632        0.127       99.550       18.582        0.035      334.516        4.540      868.284
01/09/2021  17:18:00      107.873       68.449      -11.573       49.868       37.751       22.689     2486.771     1425.110      514.773        1.044        0.221      127.757       17.915        0.020      334.470        4.464      868.283
01/09/2021  17:19:00       91.030       55.444       -7.857       45.982       25.231       14.614     2114.316      636.585      213.583        0.719        0.148      106.586       13.088        0.015      334.406        4.359      868.288
01/09/2021  17:20:00       72.461       48.311       -0.462       45.200       23.433       16.001     2042.995      549.122      256.019        0.522        0.142       87.089       17.405        0.040      334.379        4.314      868.298
01/09/2021  17:21:00       84.499       65.513        0.079       28.659       23.886       19.170      821.322      570.525      367.484        0.660        0.088      106.921       13.979        0.017      334.393        4.337      868.301
01/09/2021  17:22:00       76.645       37.268        3.023       28.390       22.216       16.909      805.987      493.572      285.898        0.443        0.079       85.226       16.044        0.035      334.338        4.246      868.306
01/09/2021  17:23:00       81.455       29.342       -5.482       26.016       25.916       18.504      676.845      671.630      342.411        0.461        0.085       86.579       14.915        0.030      334.355        4.273      868.301
01/09/2021  17:24:00      143.923       72.543      -23.789       45.144       31.704       20.931     2037.994     1005.164      438.098        1.501        0.174      161.171       18.446        0.013      334.408        4.362      868.277
01/09/2021  17:25:00       91.638       51.724      -16.871       34.433       21.625       13.755     1185.647      467.648      189.205        0.660        0.092      105.228       10.563        0.010      334.388        4.330      868.284
01/09/2021  17:26:00       85.659       32.574       -8.423       36.911       25.806       20.013     1362.444      665.949      400.527        0.545        0.121       91.643       18.948        0.043      334.360        4.282      868.305
01/09/2021  17:27:00       44.803       35.002       -5.326       30.739       20.354       19.258      944.867      414.286      370.857        0.250        0.087       56.855       16.337        0.083      334.358        4.279      868.339
01/09/2021  17:28:00       32.381       19.799       -1.338       21.230       17.231       14.224      450.698      296.923      202.326        0.120        0.047       37.955       14.227        0.141      334.309        4.199      868.383
01/09/2021  17:29:00       22.948       41.457        0.484       23.186       27.377       19.137      537.593      749.476      366.209        0.195        0.083       47.384       14.183        0.090      334.370        4.300      868.413
01/09/2021  17:30:00       44.913       51.549       -6.258       32.619       32.690       16.721     1064.002     1068.661      279.591        0.356        0.121       68.370       15.597        0.052      334.347        4.261      868.438
01/09/2021  17:31:00       38.775       63.066      -10.578       24.809       17.382       14.462      615.494      302.120      209.149        0.336        0.056       74.032       17.132        0.054      334.351        4.269      868.451
01/09/2021  17:32:00       16.987       68.132       -3.610       14.674       24.240       10.232      215.329      587.555      104.704        0.293        0.045       70.218        7.118        0.010      334.413        4.371      868.461
01/09/2021  17:33:00       47.134       60.542       -3.331       21.726       19.347       12.843      472.021      374.288      164.940        0.345        0.051       76.726       10.932        0.020      334.361        4.283      868.483
01/09/2021  17:34:00       38.381       63.552       -5.806       25.192       19.208       14.409      634.659      368.931      207.625        0.338        0.061       74.243       13.451        0.033      334.297        4.178      868.507
01/09/2021  17:35:00       -4.308       81.021       -4.384       30.162       25.246       13.984      909.771      637.355      195.547        0.417        0.087       81.135        6.691        0.007      334.430        4.398      868.534
01/09/2021  17:36:00      -18.184       91.351       -8.125       20.923       29.141       10.960      437.781      849.199      120.121        0.507        0.070       93.143        6.186        0.004      334.394        4.339      868.558
01/09/2021  17:37:00      -13.664       67.068       -6.508       26.890       26.926       15.446      723.062      724.998      238.584        0.321        0.084       68.446       13.260        0.038      334.344        4.256      868.579
01/09/2021  17:38:00        7.861      109.522       -8.135       29.564       20.638       17.540      874.040      425.927      307.646        0.686        0.080      109.804       10.217        0.009      334.424        4.387      868.587
01/09/2021  17:39:00       35.733       93.718       -7.093       26.137       34.284       17.222      683.128     1175.384      296.610        0.613        0.108      100.299       14.662        0.021      334.417        4.377      868.598
01/09/2021  17:40:00       55.072       54.206       -8.057       28.195       18.368       18.331      794.958      337.371      336.018        0.375        0.073       77.273       16.239        0.044      334.271        4.133      868.601
01/09/2021  17:41:00       22.966       85.756       -5.973       21.964       21.423       15.431      482.417      458.930      238.118        0.455        0.059       88.778       10.271        0.013      334.443        4.419      868.600
01/09/2021  17:42:00       29.332       40.807        1.904       18.500       26.641       12.710      342.258      709.758      161.542        0.187        0.061       50.255       13.456        0.072      334.243        4.087      868.611
01/09/2021  17:43:00       12.534       13.934        4.517       16.609       19.788       11.553      275.864      391.565      133.463        0.059        0.040       18.742       12.086        0.416      334.220        4.048      868.610
01/09/2021  17:44:00       51.932       66.891       -3.752       33.648       26.641       17.005     1132.203      709.731      289.183        0.466        0.107       84.684       16.679        0.039      334.273        4.137      868.604
01/09/2021  17:45:00       32.709       68.086        4.555       26.988       26.643       19.725      728.348      709.865      389.069        0.378        0.091       75.535       16.001        0.045      334.237        4.077      868.591
01/09/2021  17:46:00       59.291       70.040       -6.043       32.012       27.308       19.341     1024.739      745.714      374.072        0.530        0.107       91.766       21.249        0.054      334.196        4.009      868.576
01/09/2021  17:47:00       53.129       54.655       -1.399       26.432       19.354       18.931      698.663      374.575      358.397        0.362        0.072       76.222       10.585        0.019      334.129        3.897      868.532
01/09/2021  17:48:00       90.216       46.386      -12.502       27.913       21.620       15.583      779.144      467.407      242.837        0.597        0.074      101.442       15.221        0.023      334.110        3.866      868.488
01/09/2021  17:49:00       72.798       30.086       -4.161       26.901       25.211       13.554      723.656      635.575      183.717        0.388        0.077       78.771       10.144        0.017      333.989        3.667      868.448
01/09/2021  17:50:00       66.950       24.780       -4.381       33.910       23.522       12.220     1149.895      553.275      149.338        0.348        0.093       71.389        8.954        0.016      333.996        3.679      868.418
01/09/2021  17:51:00       78.031       12.686       -5.471       27.530       17.925       14.993      757.886      321.320      224.793        0.379        0.065       79.056       10.397        0.017      333.996        3.678      868.413
01/09/2021  17:52:00       27.723       19.659        1.218       29.913       18.887       15.329      894.797      356.723      234.970        0.132        0.074       33.985       16.736        0.243      333.941        3.586      868.443
01/09/2021  17:53:00        6.964       25.975       -3.047       17.660       17.852       13.692      311.875      318.678      187.480        0.078        0.041       26.892       13.628        0.257      334.017        3.712      868.498
01/09/2021  17:54:00        6.971       43.510       -1.108       29.104       20.831       14.960      847.057      433.913      223.813        0.172        0.075       44.065       12.351        0.079      334.057        3.778      868.552
01/09/2021  17:55:00        8.632       31.105       -1.462       36.641       18.086       13.991     1342.540      327.100      195.741        0.145        0.093       32.280       10.378        0.103      334.039        3.749      868.602
01/09/2021  17:56:00       30.053       46.638       -4.388       25.289       20.386       16.551      639.545      415.600      273.924        0.221        0.066       55.482       16.991        0.094      334.061        3.785      868.651
01/09/2021  17:57:00        2.142       40.332        4.659       22.266       23.955       11.749      495.773      573.841      138.036        0.143        0.060       40.389       12.381        0.094      334.058        3.779      868.692
01/09/2021  17:58:00       -5.689       61.329       -7.806       14.705       30.875       10.214      216.224      953.261      104.332        0.256        0.064       61.593       11.395        0.034      334.108        3.864      868.737
01/09/2021  17:59:00      -29.640       56.295        0.249       26.673       22.076       18.654      711.437      487.343      347.981        0.280        0.077       63.621       12.541        0.039      334.021        3.719      868.769
01/09/2021  18:00:00       -3.490      114.322        0.428       37.206       27.796       18.694     1384.323      772.627      349.457        0.779        0.125      114.375       10.579        0.009      334.016        3.712      868.813
01/09/2021  18:01:00        8.081      108.513      -11.086       25.856       32.113       18.550      668.523     1031.268      344.114        0.700        0.102      108.814       12.512        0.013      334.117        3.878      868.849
01/09/2021  18:02:00       26.167      119.158       -6.549       23.098       28.594       20.181      533.527      817.642      407.290        0.834        0.088      121.997       13.948        0.013      334.116        3.876      868.883
01/09/2021  18:03:00        1.882       57.741       -6.739       26.582       25.540       14.108      706.577      652.291      199.031        0.247        0.078       57.772       14.700        0.065      333.974        3.641      868.899
01/09/2021  18:04:00       -2.191       71.150      -10.142       16.993       22.353       10.859      288.772      499.639      117.924        0.304        0.045       71.183        8.099        0.013      333.970        3.634      868.890
01/09/2021  18:05:00       40.389       77.604       -1.438       35.435       37.115       18.429     1255.624     1377.541      339.612        0.531        0.149       87.485       18.084        0.043      334.007        3.697      868.857
01/09/2021  18:06:00      112.650       67.127       -4.953       50.622       30.517       19.727     2562.612      931.296      389.158        1.055        0.194      131.133       21.339        0.026      333.931        3.570      868.787
01/09/2021  18:07:00      105.023       34.212       -8.301       42.814       38.560       22.467     1833.038     1486.886      504.753        0.805        0.191      110.455       19.082        0.030      333.856        3.446      868.713
01/09/2021  18:08:00       91.585       15.393      -12.856       48.409       38.344       26.444     2343.455     1470.294      699.272        0.665        0.226       92.870       22.452        0.058      333.758        3.282      868.652
01/09/2021  18:09:00       99.556       43.562       -1.650       38.358       30.616       21.905     1471.332      937.350      479.812        0.735        0.144      108.669       11.504        0.011      333.703        3.193      868.634
01/09/2021  18:10:00       61.264       63.081       -9.835       39.318       24.424       20.787     1545.926      596.532      432.118        0.520        0.129       87.934       16.795        0.036      333.739        3.252      868.656
01/09/2021  18:11:00       24.510       73.237       -2.223       28.022       30.647       16.157      785.221      939.228      261.057        0.398        0.099       77.230       16.071        0.043      333.825        3.394      868.707
01/09/2021  18:12:00       17.652       87.358       -2.623       24.593       34.502       18.708      604.808     1190.397      349.973        0.505        0.107       89.123       13.296        0.022      333.891        3.504      868.761
01/09/2021  18:13:00       -8.771       66.265       -8.167       24.924       33.009       17.645      621.221     1089.626      311.343        0.328        0.101       66.843        9.618        0.021      333.837        3.415      868.799
01/09/2021  18:14:00      -15.315       49.461       -3.189       17.344       24.329       13.297      300.812      591.913      176.814        0.188        0.053       51.777        8.192        0.025      333.837        3.414      868.812
01/09/2021  18:15:00      -32.406       17.408       -8.689       20.878       21.368       10.909      435.885      456.601      119.011        0.122        0.051       36.786        8.357        0.052      333.805        3.360      868.803
01/09/2021  18:16:00      -22.057       58.476      -11.149       27.590       36.816       12.894      761.201     1355.436      166.252        0.316        0.114       62.498       12.416        0.039      333.824        3.392      868.783
01/09/2021  18:17:00      -14.560       27.899        1.116       19.448       14.652       13.594      378.218      214.695      184.792        0.088        0.039       31.470        2.873        0.008      333.908        3.531      868.772
01/09/2021  18:18:00       22.577       35.397       -2.090       33.324       16.107       16.950     1110.512      259.434      287.287        0.171        0.083       41.984       13.998        0.111      333.914        3.541      868.759
01/09/2021  18:19:00        0.128       42.135        2.935       21.946       16.278       13.422      481.616      264.966      180.147        0.136        0.046       42.135       11.691        0.077      333.853        3.441      868.763
01/09/2021  18:20:00        7.757       11.489        0.931        6.602       11.334        6.678       43.591      128.463       44.599        0.020        0.011       13.862        3.707        0.072      333.767        3.297      868.765
01/09/2021  18:21:00        6.884       17.825        3.207       10.815       11.043        6.367      116.959      121.938       40.541        0.033        0.014       19.108        5.902        0.095      333.810        3.368      868.757
01/09/2021  18:22:00       18.311       37.491        3.859       16.756       24.967       12.977      280.749      623.334      168.395        0.141        0.054       41.724       11.700        0.079      333.867        3.465      868.753
01/09/2021  18:23:00       27.042       33.539       -0.206       18.383       22.675       11.643      337.951      514.152      135.563        0.142        0.049       43.083       10.060        0.055      333.810        3.370      868.756
01/09/2021  18:24:00       45.534       51.967       -3.855       28.203       30.176       17.005      795.403      910.603      289.162        0.339        0.100       69.094       19.702        0.081      333.760        3.287      868.758
01/09/2021  18:25:00       54.755       64.204      -10.006       28.082       17.780       14.847      788.585      316.123      220.437        0.427        0.066       84.382       15.598        0.034      333.790        3.336      868.754
01/09/2021  18:26:00       54.777       46.775       -7.295       17.340       13.034       11.943      300.684      169.874      142.628        0.293        0.031       72.030        9.954        0.019      333.749        3.267      868.752
01/09/2021  18:27:00       68.648       65.093      -11.645       24.646       21.561       12.955      607.422      464.875      167.839        0.516        0.062       94.603       11.016        0.014      333.754        3.278      868.749
01/09/2021  18:28:00       37.597       58.459       -3.378       28.634       24.651       17.990      819.921      607.673      323.646        0.330        0.088       69.505       16.120        0.054      333.682        3.157      868.751
01/09/2021  18:29:00       38.800       49.426       -4.342       23.709       20.676       13.810      562.112      427.503      190.720        0.257        0.059       62.836        8.656        0.019      333.680        3.153      868.758
01/09/2021  18:30:00       37.782       43.605        1.974       27.687       22.399       15.676      766.552      501.711      245.745        0.242        0.076       57.696       13.309        0.053      333.710        3.204      868.776
01/09/2021  18:31:00       30.934       75.111       -2.429       21.989       27.755       14.148      483.518      770.363      200.161        0.403        0.073       81.231       11.446        0.020      333.821        3.388      868.782
01/09/2021  18:32:00       49.030       73.139       -5.731       22.709       17.513       13.300      515.706      306.707      176.897        0.439        0.050       88.053        9.514        0.012      333.780        3.319      868.791
01/09/2021  18:33:00       51.793       58.226       -2.398       20.961       27.502       14.790      439.371      756.348      218.751        0.375        0.071       77.928       13.513        0.030      333.748        3.267      868.800
01/09/2021  18:34:00       34.535       43.530       -4.267       23.157       19.350       13.667      536.257      374.430      186.774        0.210        0.055       55.565       11.151        0.040      333.671        3.140      868.807
01/09/2021  18:35:00       20.624       30.653        0.108       24.941       18.631       15.132      622.038      347.119      228.991        0.128        0.060       36.945       14.305        0.150      333.648        3.099      868.815
01/09/2021  18:36:00       43.237       55.000       -3.889       22.770       32.152       12.513      518.470     1033.779      156.565        0.331        0.085       69.960       12.735        0.033      333.698        3.185      868.809
01/09/2021  18:37:00       27.356       98.352        2.507       22.561       30.570       13.386      508.995      934.547      179.198        0.602        0.081      102.086        6.934        0.005      333.800        3.353      868.807
01/09/2021  18:38:00       44.232       92.321       -2.492       25.964       36.129       14.094      674.110     1305.315      198.631        0.633        0.109      102.371       12.676        0.015      333.718        3.216      868.807
01/09/2021  18:39:00       39.020       61.254       -0.051       24.867       27.899       16.690      618.361      778.344      278.540        0.347        0.084       72.626       15.366        0.045      333.657        3.116      868.804
01/09/2021  18:40:00       49.738       80.584        1.450       31.648       27.424       17.682     1001.582      752.074      312.667        0.552        0.103       94.698       16.208        0.029      333.698        3.184      868.800
01/09/2021  18:41:00       58.082       56.309       -5.763       23.302       27.149       19.949      543.003      737.083      397.974        0.413        0.084       80.897       13.998        0.030      333.644        3.095      868.789
01/09/2021  18:42:00       70.501       50.298       -7.400       21.642       13.607       15.529      468.356      185.163      241.158        0.422        0.045       86.604       12.522        0.021      333.594        3.012      868.786
01/09/2021  18:43:00       49.801       41.580       -6.526       28.380       17.514       12.748      805.412      306.751      162.509        0.276        0.064       64.877        9.531        0.022      333.576        2.982      868.780
01/09/2021  18:44:00       42.757       33.569        4.032       23.670       19.640       17.232      560.272      385.749      296.929        0.211        0.062       54.361       17.664        0.106      333.542        2.926      868.776
01/09/2021  18:45:00       43.039       59.597       -2.060       19.165       18.616       14.636      367.282      346.572      214.225        0.317        0.046       73.513        9.812        0.018      333.604        3.030      868.778
01/09/2021  18:46:00       39.149       63.264        2.920       22.220       25.594       16.269      493.722      655.078      264.685        0.348        0.071       74.398       12.590        0.029      333.585        2.995      868.773
01/09/2021  18:47:00       52.366       73.135       -4.817       26.699       24.776       16.364      712.852      613.844      267.793        0.485        0.080       89.949       15.795        0.031      333.578        2.984      868.773
01/09/2021  18:48:00       51.477       71.617       -4.726       16.817       23.628       14.250      282.806      558.289      203.050        0.442        0.052       88.198       11.660        0.017      333.513        2.876      868.777
01/09/2021  18:49:00       47.877       64.516       -2.493       24.299       25.933       18.160      590.429      672.505      329.794        0.403        0.080       80.340       15.205        0.036      333.438        2.752      868.779
01/09/2021  18:50:00       56.622       61.971       -2.169       26.005       22.338       16.344      676.283      498.986      267.120        0.425        0.072       83.943       13.163        0.025      333.414        2.714      868.781
01/09/2021  18:51:00       51.827       67.475       -7.040       28.423       19.143       17.393      807.893      366.463      302.501        0.438        0.074       85.082       14.627        0.030      333.403        2.695      868.776
01/09/2021  18:52:00       85.845       74.172       -8.192       39.528       22.785       15.982     1562.425      519.159      255.433        0.764        0.117      113.450       11.160        0.010      333.454        2.779      868.777
01/09/2021  18:53:00       69.210       62.203       -5.128       37.032       23.699       16.798     1371.342      561.653      282.177        0.545        0.111       93.055       18.383        0.039      333.420        2.723      868.781
01/09/2021  18:54:00       87.268       70.060       -8.648       33.853       25.298       18.731     1146.002      639.966      350.839        0.737        0.107      111.911       13.449        0.014      333.395        2.681      868.777
01/09/2021  18:55:00       52.947       55.314       -1.499       32.391       22.572       18.377     1049.188      509.515      337.704        0.388        0.095       76.570       13.815        0.033      333.417        2.719      868.767
01/09/2021  18:56:00       53.363       61.495        0.277       27.966       24.493       18.336      782.075      599.902      336.219        0.417        0.086       81.420       14.265        0.031      333.397        2.684      868.764
01/09/2021  18:57:00       60.524       69.501       -7.248       24.547       22.249       18.978      602.561      495.028      360.169        0.500        0.073       92.160       13.972        0.023      333.415        2.714      868.762
01/09/2021  18:58:00       62.230       66.664       -9.559       32.662       18.997       14.241     1066.830      360.873      202.813        0.502        0.082       91.195       11.961        0.017      333.410        2.706      868.776
01/09/2021  18:59:00       37.433       80.027       -1.905       24.905       21.014       13.802      620.241      441.587      190.499        0.453        0.063       88.349        9.121        0.011      333.424        2.729      868.780
01/09/2021  19:00:00       51.364       96.938        3.223       24.835       22.772       16.071      616.771      518.582      258.283        0.672        0.070      109.705       14.850        0.018      333.500        2.855      868.765
01/09/2021  19:01:00       62.251      106.162       -7.566       21.645       18.342       11.167      468.498      336.429      124.694        0.807        0.046      123.067       10.828        0.008      333.469        2.805      868.751
01/09/2021  19:02:00       62.871       94.674      -10.860       20.337       25.570       15.345      413.612      653.827      235.455        0.717        0.065      113.649       14.626        0.017      333.384        2.663      868.736
01/09/2021  19:03:00       53.024       78.827       -4.850       24.838       32.505       18.109      616.902     1056.590      327.941        0.552        0.100       95.001       20.075        0.045      333.320        2.558      868.736
01/09/2021  19:04:00       47.568       87.956       -3.538       29.071       30.106       20.467      845.106      906.371      418.883        0.609        0.109       99.995       18.770        0.035      333.304        2.531      868.758
01/09/2021  19:05:00       46.169      105.401        0.246       25.109       22.969       14.899      630.475      527.574      221.989        0.731        0.069      115.069       13.440        0.014      333.418        2.719      868.784
01/09/2021  19:06:00       29.202      115.047        1.686       18.756       26.101       16.268      351.790      681.243      264.635        0.769        0.065      118.696       13.087        0.012      333.460        2.789      868.797
01/09/2021  19:07:00       38.282      131.368       -4.007       24.390       22.881       19.586      594.851      523.557      383.622        1.012        0.075      136.832        9.601        0.005      333.492        2.841      868.792
01/09/2021  19:08:00       42.055      120.474       -7.069       30.240       20.997       14.259      914.455      440.864      203.322        0.895        0.078      127.603        8.784        0.005      333.433        2.744      868.781
01/09/2021  19:09:00       31.772      129.411        1.818       26.391       22.694       17.968      696.469      515.020      322.832        0.965        0.077      133.254       14.247        0.011      333.379        2.655      868.769
01/09/2021  19:10:00       33.920      130.327        2.064       30.013       22.687       17.423      900.782      514.699      303.557        0.993        0.086      134.668       13.722        0.010      333.402        2.694      868.754
01/09/2021  19:11:00       18.152      124.220       -4.675       20.875       26.024       18.949      435.759      677.238      359.061        0.863        0.074      125.539        8.496        0.005      333.378        2.652      868.731
01/09/2021  19:12:00       35.993      117.390        3.486       26.690       23.717       17.477      712.348      562.493      305.445        0.833        0.079      122.784       13.103        0.011      333.285        2.499      868.718
01/09/2021  19:13:00       43.153       92.160       -0.821       23.335       30.154       15.189      544.526      909.281      230.718        0.602        0.084      101.762       12.833        0.016      333.211        2.376      868.724
01/09/2021  19:14:00       35.129       83.225        0.670       21.615       26.466       15.002      467.216      700.468      225.055        0.478        0.070       90.336       12.079        0.018      333.215        2.384      868.751
01/09/2021  19:15:00        8.765       72.645       -2.375       22.077       29.499       14.551      487.391      870.215      211.735        0.346        0.078       73.172       10.103        0.019      333.268        2.472      868.791
01/09/2021  19:16:00      -37.930       20.155       -6.108       23.205       14.230       12.382      538.493      202.501      153.326        0.139        0.045       42.953        7.433        0.030      332.879        1.827      868.826
01/09/2021  19:17:00      -36.718       33.532       -5.936       28.901       20.138       10.158      835.244      405.529      103.190        0.193        0.067       49.726        9.368        0.035      332.791        1.685      868.843
01/09/2021  19:18:00      -19.936       49.573      -12.432       19.571       30.656       10.320      383.025      939.794      106.503        0.222        0.071       53.432        6.271        0.014      332.869        1.812      868.841
01/09/2021  19:19:00      -19.748       30.266       -0.819       29.175       26.530       15.750      851.169      703.827      248.075        0.155        0.090       36.139       14.320        0.157      332.940        1.928      868.818
01/09/2021  19:20:00       -2.641       35.351        5.394       22.940       25.656       17.925      526.223      658.234      321.319        0.140        0.075       35.449       14.934        0.177      333.079        2.159      868.791
01/09/2021  19:21:00        7.948       69.699       -7.981       27.054       31.265       13.292      731.900      977.487      176.682        0.344        0.094       70.151        7.968        0.013      333.114        2.218      868.760
01/09/2021  19:22:00       -2.235       51.971        3.772       19.471       37.855       15.313      379.108     1432.994      234.503        0.238        0.102       52.019       15.465        0.088      333.091        2.178      868.732
01/09/2021  19:23:00        0.292       93.908       -6.313       24.857       32.648       18.648      617.852     1065.890      347.738        0.544        0.102       93.909       17.775        0.036      333.190        2.344      868.721
01/09/2021  19:24:00       -8.422       56.931       -8.584       21.490       30.737       18.244      461.811      944.755      332.828        0.256        0.087       57.551        9.917        0.030      333.062        2.130      868.720
01/09/2021  19:25:00       -0.530       71.442       -2.395       27.740       31.675       16.567      769.511     1003.284      274.467        0.358        0.102       71.444       14.894        0.043      333.088        2.173      868.721
01/09/2021  19:26:00       -1.332       47.693        6.226       23.822       26.440       13.874      567.505      699.060      192.477        0.189        0.073       47.712       12.140        0.065      332.986        2.005      868.708
01/09/2021  19:27:00       10.583       94.071       -7.615       28.886       32.757       18.418      834.408     1072.991      339.216        0.563        0.112       94.664       16.785        0.031      333.151        2.279      868.691
01/09/2021  19:28:00       18.277      115.572      -10.408       24.787       24.049       16.860      614.409      578.371      284.257        0.764        0.074      117.008       10.546        0.008      333.237        2.421      868.663
01/09/2021  19:29:00       23.578      116.412       -4.134       18.467       24.756       20.124      341.040      612.864      404.959        0.774        0.068      118.775       11.130        0.009      333.285        2.501      868.634
01/09/2021  19:30:00       20.326      121.911       -8.202       22.961       27.861       20.791      527.211      776.240      432.285        0.854        0.087      123.593        3.351        0.001      333.295        2.516      868.623
01/09/2021  19:31:00       13.618      103.432      -10.547       21.699       27.235       16.444      470.832      741.744      270.410        0.624        0.074      104.325        3.024        0.001      333.236        2.419      868.640
01/09/2021  19:32:00        0.350       80.972       -4.158       26.131       41.712       24.346      682.837     1739.894      592.717        0.479        0.151       80.973       24.273        0.090      333.079        2.158      868.666
01/09/2021  19:33:00       -4.309       41.429       -1.896       23.901       30.551       16.856      571.236      933.378      284.136        0.176        0.089       41.652        7.241        0.030      333.004        2.036      868.700
01/09/2021  19:34:00      -33.275       21.504      -11.306       19.272       17.432       13.563      371.420      303.875      183.966        0.128        0.043       39.619        6.232        0.025      332.640        1.434      868.715
01/09/2021  19:35:00       -5.677       74.857       -7.214       30.120       35.456       17.022      907.206     1257.157      289.751        0.407        0.123       75.072       17.179        0.052      332.999        2.027      868.718
01/09/2021  19:36:00       25.740       68.328        1.691       38.973       32.010       23.667     1518.860     1024.667      560.147        0.422        0.155       73.016       22.891        0.098      333.139        2.259      868.719
01/09/2021  19:37:00       -7.728       83.411       -9.552       26.841       39.702       20.672      720.422     1576.265      427.335        0.492        0.136       83.768       17.195        0.042      333.105        2.202      868.723
01/09/2021  19:38:00      -45.735       37.021       -5.360       29.857       21.480       15.681      891.460      461.386      245.909        0.254        0.080       58.841       16.517        0.079      332.741        1.601      868.745
01/09/2021  19:39:00      -49.202       44.962      -14.157       29.291       23.013       12.000      857.979      529.615      144.007        0.309        0.077       66.652       13.520        0.041      332.493        1.192      868.768
01/09/2021  19:40:00      -55.046       41.843       -8.410       26.947       19.235       15.926      726.135      370.002      253.640        0.310        0.067       69.144        9.907        0.021      332.370        0.988      868.777
01/09/2021  19:41:00      -55.543       44.839       -9.652       26.896       19.235       16.909      723.406      369.970      285.924        0.328        0.069       71.383        4.616        0.004      332.440        1.104      868.779
01/09/2021  19:42:00      -48.320       54.020      -14.270       27.925       40.076       16.168      779.823     1606.114      261.416        0.405        0.132       72.477        9.715        0.018      332.607        1.380      868.771
01/09/2021  19:43:00        8.991       46.941        6.113       45.708       43.499       18.210     2089.214     1892.142      331.606        0.332        0.216       47.795       14.147        0.088      333.098        2.190      868.770
01/09/2021  19:44:00      -33.777       18.154       -4.711       16.478       18.026       11.960      271.508      324.951      143.039        0.112        0.037       38.346       10.522        0.075      332.379        1.002      868.771
01/09/2021  19:45:00      -58.604       24.892      -11.428       26.944       19.843       13.284      725.967      393.729      176.471        0.274        0.065       63.672        8.329        0.017      332.290        0.855      868.772
01/09/2021  19:46:00      -25.105       11.677       -2.302       29.238       22.773       16.485      854.865      518.601      271.767        0.121        0.082       27.688       14.845        0.287      332.284        0.847      868.771
01/09/2021  19:47:00      -59.024       22.298       -5.943       30.806       26.688       17.407      949.006      712.236      302.989        0.299        0.098       63.096       19.735        0.098      332.324        0.913      868.768
01/09/2021  19:48:00      -59.949       21.832       -7.345       25.504       26.063       14.217      650.430      679.288      202.109        0.283        0.077       63.801       13.160        0.043      332.337        0.933      868.770
01/09/2021  19:49:00      -51.312       22.756      -10.199       31.026       20.808       13.708      962.589      432.961      187.912        0.242        0.079       56.131        5.424        0.009      332.313        0.893      868.771
01/09/2021  19:50:00      -56.292       16.094       -7.629       24.132       27.044       15.975      582.333      731.351      255.192        0.253        0.078       58.548       15.359        0.069      332.326        0.915      868.774
01/09/2021  19:51:00      -91.197       39.956      -11.759       27.847       27.330       18.480      775.479      746.929      341.521        0.596        0.093       99.566       12.312        0.015      332.365        0.980      868.765
01/09/2021  19:52:00      -81.204       25.607      -16.825       25.875       26.514       16.548      669.495      702.980      273.849        0.459        0.082       85.146        9.644        0.013      332.306        0.883      868.748
01/09/2021  19:53:00      -24.963       26.138       -6.141       24.726       31.939       17.434      611.355     1020.123      303.960        0.164        0.097       36.143       16.840        0.217      332.309        0.888      868.736
01/09/2021  19:54:00      -26.159       21.673       -3.994       24.286       21.389       18.640      589.815      457.485      347.455        0.128        0.070       33.971       14.449        0.181      332.307        0.885      868.720
01/09/2021  19:55:00      -45.340       20.160       -6.595       26.234       30.794       18.082      688.202      948.287      326.961        0.223        0.098       49.620       16.805        0.115      332.374        0.995      868.711
01/09/2021  19:56:00      -23.154        6.290       -5.278       31.491       22.852       16.910      991.684      522.215      285.934        0.120        0.090       23.993        9.177        0.146      332.425        1.079      868.710
01/09/2021  19:57:00      -11.956       30.861       -6.508       30.364       30.390       20.449      921.989      923.541      418.164        0.170        0.113       33.096       21.011        0.403      332.600        1.368      868.712
01/09/2021  19:58:00      -16.339       49.143       -9.957       28.685       33.810       20.525      822.850     1143.090      421.286        0.258        0.119       51.788       20.945        0.164      332.757        1.629      868.718
01/09/2021  19:59:00      -26.505       21.898       -6.811       19.815       23.261       18.322      392.629      541.096      335.680        0.125        0.063       34.381       14.132        0.169      332.674        1.492      868.719
01/09/2021  20:00:00       31.799       75.165       -6.752       44.527       45.927       15.511     1982.654     2109.311      240.592        0.552        0.217       81.614        9.409        0.013      332.924        1.903      868.716
01/09/2021  20:01:00       20.940       46.294        6.304       27.552       29.158       18.003      759.113      850.213      324.121        0.228        0.097       50.809       16.737        0.109      332.922        1.900      868.707
01/09/2021  20:02:00       24.359       72.898        7.288       28.073       32.960       17.620      788.080     1086.383      310.470        0.407        0.109       76.860       15.991        0.043      333.141        2.261      868.694
01/09/2021  20:03:00       45.953       61.997        0.635       23.959       23.633       13.843      574.012      558.536      191.639        0.364        0.066       77.170       10.184        0.017      333.239        2.422      868.668
01/09/2021  20:04:00       47.874       74.630       -1.926       28.390       27.271       15.468      806.014      743.704      239.266        0.483        0.089       88.666       11.005        0.015      333.065        2.136      868.581
01/09/2021  20:05:00       43.556       78.112       -3.723       18.566       25.074       11.970      344.704      628.698      143.278        0.456        0.056       89.435        8.193        0.008      333.078        2.159      868.551
01/09/2021  20:06:00       26.790       83.558       -1.257       31.129       23.894       14.855      969.016      570.917      220.667        0.473        0.088       87.747       11.354        0.017      333.217        2.386      868.561
01/09/2021  20:07:00       28.841       83.371        5.459       29.654       33.934       21.793      879.339     1151.531      474.954        0.516        0.125       88.219       15.760        0.032      333.117        2.224      868.593
01/09/2021  20:08:00        8.174       69.062       -0.492       28.016       30.961       24.134      784.893      958.592      582.428        0.358        0.116       69.544       17.686        0.065      333.027        2.073      868.621
01/09/2021  20:09:00      -10.188       39.418        2.541       27.735       34.637       21.153      769.242     1199.718      447.430        0.204        0.121       40.713        7.828        0.037      332.880        1.830      868.636
01/09/2021  20:10:00      -50.189       24.321       -8.740       24.565       20.959       12.181      603.436      439.281      148.378        0.219        0.060       55.772        8.184        0.022      332.453        1.124      868.662
01/09/2021  20:11:00      -71.300       41.458      -10.247       20.714       24.570       16.297      429.050      603.692      265.603        0.410        0.065       82.477       14.866        0.032      332.333        0.927      868.683
01/09/2021  20:12:00      -38.430       30.098       -0.833       29.697       25.573       14.544      881.884      653.995      211.531        0.207        0.087       48.814       11.524        0.056      332.263        0.812      868.699
01/09/2021  20:13:00       44.540       56.806        2.665       37.680       26.935       17.611     1419.812      725.509      310.150        0.384        0.123       72.186        9.591        0.018      332.775        1.657      868.700
01/09/2021  20:14:00        4.435       72.110       -4.018       27.950       30.202       19.251      781.193      912.184      370.583        0.365        0.103       72.246       10.826        0.022      332.959        1.960      868.690
01/09/2021  20:15:00       38.414       82.324        0.377       32.119       45.142       21.294     1031.612     2037.785      453.442        0.589        0.176       90.846        6.912        0.006      332.941        1.932      868.671
01/09/2021  20:16:00       53.473       79.405       -3.295       30.393       33.357       14.194      923.754     1112.661      201.469        0.571        0.112       95.732       11.345        0.014      332.882        1.835      868.652
01/09/2021  20:17:00       36.914       50.436       -4.893       22.909       17.391       12.673      524.806      302.436      160.615        0.246        0.049       62.502        4.142        0.004      332.847        1.776      868.650
01/09/2021  20:18:00       20.134       28.345        0.051       18.051       22.838       13.317      325.837      521.567      177.347        0.112        0.051       34.768       12.747        0.134      332.863        1.804      868.663
01/09/2021  20:19:00        5.903       41.736        0.482       13.669       24.820       11.619      186.852      616.027      135.001        0.136        0.047       42.152        7.461        0.031      332.860        1.799      868.681
01/09/2021  20:20:00        1.392       60.915       -6.245       45.418       35.662       21.879     2062.758     1271.772      478.688        0.378        0.191       60.931       18.635        0.094      332.775        1.658      868.692
01/09/2021  20:21:00      -41.765       21.768       -6.421       45.924       20.542       16.330     2109.051      421.981      266.672        0.253        0.140       47.097       10.360        0.048      332.506        1.213      868.704
01/09/2021  20:22:00      -65.853       26.207       -9.197       15.476       18.118       10.348      239.497      328.274      107.081        0.289        0.034       70.876        8.968        0.016      332.183        0.681      868.716
01/09/2021  20:23:00      -60.425       15.202       -8.262       21.989       27.106       21.238      483.497      734.743      451.047        0.281        0.083       62.308       20.804        0.111      332.286        0.849      868.735
01/09/2021  20:24:00      -67.426       18.257      -15.371       17.293       19.556       15.815      299.033      382.419      250.105        0.302        0.047       69.854       10.594        0.023      332.131        0.593      868.763
01/09/2021  20:25:00      -78.055       27.451      -11.299       22.820       22.059       14.488      520.755      486.589      209.910        0.410        0.061       82.741       13.171        0.025      332.095        0.536      868.784
01/09/2021  20:26:00      -52.244        8.028       -9.668       34.837       37.193       20.096     1213.612     1383.298      403.860        0.294        0.150       52.858       16.849        0.102      332.101        0.545      868.797
01/09/2021  20:27:00      -35.362        4.096       -7.170       35.588       30.201       21.396     1266.533      912.096      457.802        0.198        0.132       35.598       15.612        0.192      332.048        0.458      868.802
01/09/2021  20:28:00      -48.501       23.514       -8.215       19.812       27.293       18.068      392.524      744.934      326.454        0.222        0.073       53.900       17.793        0.109      332.100        0.544      868.795
01/09/2021  20:29:00      -27.820       19.065       -7.126       22.684       23.489       15.957      514.551      551.724      254.615        0.125        0.066       33.726       11.034        0.107      332.197        0.701      868.792
01/09/2021  20:30:00      -16.482       23.259       -4.140       25.754       31.112       14.607      663.279      967.975      213.357        0.134        0.092       28.507       11.575        0.165      332.381        1.008      868.785
01/09/2021  20:31:00      -45.830       18.120       -8.366       24.665       33.549       19.559      608.366     1125.563      382.542        0.231        0.106       49.282       20.938        0.181      332.436        1.098      868.780
01/09/2021  20:32:00      -49.342       13.767       -8.504       19.702       28.925       15.705      388.179      836.672      246.635        0.208        0.074       51.226       14.307        0.078      332.093        0.532      868.804
01/09/2021  20:33:00      -49.847       29.230       -4.813       24.842       28.936       19.129      617.141      837.277      365.937        0.259        0.091       57.786       21.205        0.135      332.106        0.552      868.829
01/09/2021  20:34:00      -87.526       19.345      -12.572       43.365       39.855       21.788     1880.507     1588.445      474.734        0.607        0.197       89.638       21.085        0.055      332.000        0.377      868.855
01/09/2021  20:35:00      -92.758       33.566      -10.531       57.529       47.480       22.938     3309.559     2254.333      526.133        0.796        0.305       98.644       19.776        0.040      331.932        0.268      868.878
01/09/2021  20:36:00      -30.403       14.442        3.125       48.832       38.329       30.563     2384.589     1469.143      934.103        0.296        0.239       33.658       24.270        0.520      331.932        0.266      868.894
01/09/2021  20:37:00      -73.720        9.549       -4.529       59.508       37.938       26.315     3541.249     1439.302      692.495        0.561        0.284       74.336       28.175        0.144      332.058        0.473      868.900
01/09/2021  20:38:00      -62.951       23.046       -8.110       52.824       34.968       29.239     2790.330     1222.766      854.916        0.471        0.243       67.037       26.286        0.154      331.995        0.371      868.905
01/09/2021  20:39:00      -38.355       10.816      -12.157       46.102       35.997       23.368     2125.376     1295.809      546.057        0.285        0.198       39.851       18.508        0.216      331.975        0.338      868.905
01/09/2021  20:40:00      -26.925       38.909       -2.728       33.083       37.701       29.385     1094.458     1421.329      863.452        0.281        0.169       47.317       28.196        0.355      331.961        0.315      868.907
01/09/2021  20:41:00      -70.407       41.105       -5.857       33.888       33.306       21.899     1148.428     1109.298      479.575        0.471        0.137       81.528       24.913        0.093      331.892        0.200      868.910
01/09/2021  20:42:00      -40.541       30.279       -9.500       22.020       33.065       18.689      484.859     1093.316      349.294        0.229        0.096       50.600       22.427        0.196      332.020        0.411      868.907
01/09/2021  20:43:00      -22.396       18.142       -6.711       21.854       33.288       19.613      477.595     1108.088      384.686        0.142        0.099       28.822       23.924        0.689      332.079        0.510      868.894
01/09/2021  20:44:00      -33.744       22.459       -2.912       23.171       34.520       20.312      536.878     1191.599      412.588        0.190        0.107       40.535       26.402        0.424      332.166        0.651      868.869
01/09/2021  20:45:00        8.130       37.589        9.622       32.693       37.257       21.082     1068.800     1388.119      444.465        0.224        0.145       38.459       26.180        0.463      332.391        1.022      868.829
01/09/2021  20:46:00       10.387       34.375        8.342       27.864       33.555       18.042      776.376     1125.930      325.510        0.179        0.111       35.910       14.474        0.162      332.455        1.128      868.788
01/09/2021  20:47:00       45.350       96.418        7.093       28.680       47.716       23.005      822.553     2276.798      529.215        0.752        0.181      106.551       20.047        0.035      332.933        1.918      868.753
01/09/2021  20:48:00       49.715       91.434        3.435       29.931       41.185       20.486      895.869     1696.181      419.664        0.693        0.151      104.076       17.809        0.029      332.856        1.789      868.740
01/09/2021  20:49:00       48.742       63.912        5.157       32.170       37.722       23.059     1034.911     1422.939      531.740        0.474        0.149       80.378       21.493        0.071      332.743        1.605      868.739
01/09/2021  20:50:00       30.623       51.218        2.844       24.420       29.830       18.208      596.354      889.854      331.516        0.269        0.091       59.674       10.087        0.029      332.708        1.547      868.759
01/09/2021  20:51:00       25.907       66.809        7.332       24.418       39.323       19.154      596.245     1546.308      366.874        0.385        0.125       71.656       18.996        0.070      332.801        1.700      868.779
01/09/2021  20:52:00       -2.119       60.798        2.359       29.483       44.731       20.522      869.261     2000.893      421.169        0.350        0.165       60.835       22.658        0.139      332.726        1.577      868.810
01/09/2021  20:53:00      -51.490       14.261       -6.900       25.919       25.769       15.446      671.773      664.062      238.577        0.224        0.079       53.429       13.294        0.062      332.298        0.871      868.854
01/09/2021  20:54:00      -90.058       40.644       -4.576       21.067       29.024       16.736      443.822      842.396      280.104        0.567        0.078       98.805       19.358        0.038      332.119        0.574      868.885
01/09/2021  20:55:00      -72.897       39.890       -9.935       21.070       25.968       17.142      443.947      674.362      293.852        0.421        0.071       83.097       15.964        0.037      332.210        0.725      868.897
01/09/2021  20:56:00      -33.143       17.852        0.772       20.506       25.557       16.379      420.504      653.159      268.265        0.138        0.067       37.645       18.531        0.242      332.437        1.097      868.879
01/09/2021  20:57:00      -30.871       12.419       -4.388       31.260       27.723       19.122      977.214      768.558      365.649        0.162        0.106       33.275        8.922        0.072      332.495        1.193      868.850
01/09/2021  20:58:00       17.095       38.520       -4.862       26.066       29.651       13.134      679.450      879.189      172.491        0.177        0.087       42.143       11.819        0.079      332.607        1.380      868.813
01/09/2021  20:59:00       46.174       50.401        4.469       25.517       29.373       18.460      651.125      862.748      340.776        0.327        0.093       68.354       11.541        0.029      332.814        1.721      868.769
01/09/2021  21:00:00       49.449       57.264       -1.035       27.579       28.354       18.088      760.598      803.925      327.188        0.381        0.095       75.660        9.577        0.016      332.873        1.820      868.733
01/09/2021  21:01:00       53.159       68.713       -3.159       32.776       37.154       21.685     1074.281     1380.410      470.236        0.524        0.146       86.875       12.653        0.021      332.775        1.656      868.715
01/09/2021  21:02:00       25.324       46.799        1.084       22.479       23.794       16.089      505.285      566.167      258.859        0.208        0.067       53.212       13.097        0.061      332.639        1.433      868.704
01/09/2021  21:03:00       34.797       96.434        1.284       24.465       40.919       19.947      598.526     1674.393      397.877        0.659        0.134      102.520       19.131        0.035      332.886        1.840      868.698
01/09/2021  21:04:00       31.469      113.756        0.897       28.701       28.874       17.515      823.739      833.687      306.789        0.795        0.098      118.028       16.145        0.019      332.937        1.923      868.694
01/09/2021  21:05:00       18.721      103.008        1.861       35.612       45.264       22.844     1268.237     2048.861      521.870        0.740        0.192      104.695       16.590        0.025      332.819        1.731      868.689
01/09/2021  21:06:00        9.259       65.230      -18.830      192.260       41.583       92.026    36963.746     1729.107     8468.843        2.592        2.358       65.884      130.440        3.920      332.657        1.464      868.697
01/09/2021  21:07:00       41.770      121.020        3.673       31.334       50.078       23.722      981.849     2507.809      562.715        1.023        0.203      128.026       17.315        0.018      332.873        1.820      868.707
01/09/2021  21:08:00       28.812      102.122        7.302       27.478       40.021       23.767      755.059     1601.719      564.890        0.712        0.146      106.108       13.514        0.016      332.824        1.739      868.719
01/09/2021  21:09:00       35.366      111.170        1.261       24.960       49.212       22.580      622.988     2421.793      509.845        0.858        0.178      116.660       18.296        0.025      332.878        1.829      868.726
01/09/2021  21:10:00       63.124       83.666       -2.394       28.283       42.854       23.247      799.918     1836.453      540.401        0.708        0.159      104.807       14.104        0.018      332.755        1.625      868.729
01/09/2021  21:11:00       45.653       84.657        0.871       30.605       36.192       22.081      936.686     1309.883      487.553        0.599        0.137       96.182       19.877        0.043      332.891        1.849      868.735
01/09/2021  21:12:00       41.244       56.220        5.544       30.117       36.637       19.287      907.015     1342.296      371.978        0.376        0.131       69.726        6.490        0.009      332.730        1.584      868.746
01/09/2021  21:13:00       25.568       79.486        2.001       29.311       29.633       16.390      859.132      878.101      268.646        0.449        0.100       83.497       14.505        0.030      332.774        1.656      868.766
01/09/2021  21:14:00       20.008       76.337        4.334       25.297       34.512       16.971      639.959     1191.058      288.023        0.418        0.106       78.915       10.627        0.018      332.800        1.698      868.776
01/09/2021  21:15:00       -0.656       47.475       -0.759       36.993       31.387       16.357     1368.465      985.121      267.537        0.244        0.131       47.480       14.268        0.090      332.549        1.285      868.783
01/09/2021  21:16:00      -43.974       24.428       -8.296       18.071       27.246       16.772      326.557      742.336      281.309        0.197        0.068       50.303       14.429        0.082      332.143        0.614      868.801
01/09/2021  21:17:00      -47.756       30.570      -12.699       21.846       25.183       13.960      477.242      634.162      194.872        0.234        0.065       56.703       10.308        0.033      332.104        0.550      868.830
01/09/2021  21:18:00      -33.073       11.637       -9.140      150.299       36.398       72.574    22589.878     1324.785     5266.998        1.524        1.459       35.061       97.895        7.796      332.082        0.515      868.857
01/09/2021  21:19:00      -44.307       11.344       -6.429       30.845       31.742       18.698      951.411     1007.546      349.602        0.222        0.115       45.737       19.885        0.189      331.947        0.290      868.884
01/09/2021  21:20:00      -68.864       33.481      -10.931       29.539       32.730       17.160      872.545     1071.268      294.451        0.411        0.112       76.572       17.935        0.055      331.974        0.335      868.906
01/09/2021  21:21:00      -40.842       15.775       -0.070       33.159       30.950       19.198     1099.548      957.926      368.555        0.217        0.121       43.783       18.907        0.186      331.991        0.364      868.912
01/09/2021  21:22:00      -44.270       24.599       -6.958       21.202       24.583       16.920      449.530      604.343      286.303        0.198        0.067       50.645       16.924        0.112      331.968        0.325      868.917
01/09/2021  21:23:00      -33.392       17.342       -7.535       20.895       24.016       14.861      436.616      576.789      220.858        0.135        0.062       37.627       15.172        0.163      332.071        0.495      868.910
01/09/2021  21:24:00        4.025       14.820        0.749       23.083       27.321       17.974      532.811      746.442      323.048        0.092        0.080       15.356       19.041        1.537      331.984        0.351      868.902
01/09/2021  21:25:00       17.155       47.791        6.003       29.365       32.405       19.957      862.312     1050.081      398.295        0.246        0.116       50.777       14.168        0.078      332.494        1.192      868.898
01/09/2021  21:26:00        8.221       74.782        1.031       21.524       26.551       18.245      463.291      704.947      332.863        0.358        0.075       75.233       13.183        0.031      332.644        1.441      868.897
01/09/2021  21:27:00      -45.213       23.196       -1.029       26.645       26.922       16.050      709.945      724.782      257.600        0.214        0.085       50.816        8.566        0.028      332.163        0.648      868.906
01/09/2021  21:28:00      -50.574       23.896       -9.515       15.394       17.461       11.159      236.965      304.900      124.532        0.194        0.033       55.936       11.822        0.045      331.982        0.350      868.912
01/09/2021  21:29:00      -69.415       25.018       -8.669       22.065       16.238       10.366      486.873      263.682      107.462        0.319        0.043       73.786       10.423        0.020      331.966        0.321      868.927
01/09/2021  21:30:00      -20.419       -3.461       -2.574       31.557       30.138       18.830      995.822      908.275      354.584        0.135        0.113       20.710       19.707        0.905      331.918        0.243      868.940
01/09/2021  21:31:00      -50.313       27.145      -12.949       23.323       32.437       21.877      543.968     1052.142      478.616        0.275        0.104       57.168       21.824        0.146      331.960        0.311      868.961
01/09/2021  21:32:00      -53.121       37.771       -4.578       26.176       36.239       18.219      685.171     1313.298      331.937        0.330        0.117       65.181       19.146        0.086      332.229        0.755      868.979
01/09/2021  21:33:00      -24.041       43.657       -4.060       34.070       39.569       17.970     1160.770     1565.701      322.933        0.277        0.152       49.838       20.556        0.170      332.251        0.794      868.993
01/09/2021  21:34:00      -19.486       34.258      -13.264       24.386       25.012       15.369      594.693      625.621      236.210        0.159        0.073       39.412       14.652        0.138      332.017        0.407      868.997
01/09/2021  21:35:00       -2.167       40.047       -6.787       34.737       28.408       16.388     1206.637      807.003      268.560        0.197        0.114       40.105       16.003        0.159      332.468        1.150      868.983
01/09/2021  21:36:00       57.685       50.710        1.883       37.668       25.044       16.268     1418.908      627.221      264.633        0.411        0.116       76.805       10.562        0.019      332.731        1.585      868.965
01/09/2021  21:37:00       30.609       52.788       -0.982       31.412       18.807       14.099      986.709      353.708      198.786        0.263        0.077       61.020       11.194        0.034      332.704        1.540      868.956
01/09/2021  21:38:00       35.413       63.775        3.111       27.524       19.553       16.235      757.554      382.329      263.573        0.337        0.070       72.948       15.387        0.044      332.717        1.560      868.952
01/09/2021  21:39:00       33.757       79.493        2.818       31.274       31.179       16.107      978.086      972.112      259.422        0.484        0.110       86.364       12.044        0.019      332.764        1.639      868.964
01/09/2021  21:40:00        1.124       44.463        0.427       29.571       20.797       14.565      874.459      432.522      212.133        0.175        0.076       44.477        8.586        0.037      332.592        1.354      868.983
01/09/2021  21:41:00      -22.069        8.277       -4.461       24.213       13.717       14.280      586.253      188.153      203.915        0.078        0.049       23.570        7.175        0.093      332.452        1.125      869.007
01/09/2021  21:42:00      -14.784        1.596       -3.833       19.385       17.831       14.814      375.776      317.944      219.452        0.057        0.046       14.870        7.106        0.228      332.258        0.805      869.029
01/09/2021  21:43:00      -45.583        9.600       -7.046       33.700       25.676       14.197     1135.715      659.238      201.560        0.211        0.100       46.583       13.362        0.082      332.166        0.652      869.062
01/09/2021  21:44:00      -86.713       28.087       -9.384       35.704       31.036       17.069     1274.754      963.222      291.366        0.546        0.126       91.148       16.794        0.034      332.031        0.429      869.088
01/09/2021  21:45:00      -93.268       26.958      -11.908       28.480       24.149       20.999      811.120      583.189      440.964        0.570        0.092       97.086       16.494        0.029      332.020        0.411      869.109
01/09/2021  21:46:00      -82.740       20.016       -5.921       29.527       30.719       20.285      871.862      943.636      411.498        0.475        0.111       85.127       19.663        0.053      332.022        0.416      869.111
01/09/2021  21:47:00      -55.548       39.758       -5.708       23.702       26.181       15.971      561.787      685.435      255.081        0.310        0.075       68.311       15.093        0.049      332.131        0.594      869.109
01/09/2021  21:48:00      -45.932       29.767       -1.691       22.586       26.966       12.261      510.117      727.152      150.342        0.219        0.069       54.734       11.041        0.041      332.221        0.742      869.101
01/09/2021  21:49:00        3.137        3.654        4.790       28.384       15.948       15.226      805.652      254.341      231.837        0.067        0.065        4.816       10.987        5.205      332.243        0.778      869.084
01/09/2021  21:50:00        2.281       11.869        4.943       18.584       20.844       13.459      345.380      434.477      181.154        0.057        0.048       12.086       12.715        1.107      332.286        0.850      869.071
01/09/2021  21:51:00       48.921       53.575       -3.260       27.235       22.758       15.290      741.764      517.912      233.798        0.338        0.075       72.550        9.937        0.019      332.668        1.481      869.065
01/09/2021  21:52:00       18.230       49.103       -3.336       19.034       17.061        8.998      362.312      291.083       80.961        0.174        0.037       52.377        5.936        0.013      332.623        1.407      869.062
01/09/2021  21:53:00       23.271       39.752        5.786       23.690       25.096       16.530      561.215      629.823      273.238        0.181        0.073       46.062       11.822        0.066      332.689        1.515      869.061
01/09/2021  21:54:00        3.572       49.365        2.553       21.876       30.036       13.903      478.572      902.142      193.285        0.201        0.079       49.494        7.537        0.023      332.716        1.558      869.066
01/09/2021  21:55:00       -8.978        2.209        1.791       18.017       12.847       12.697      324.610      165.042      161.226        0.037        0.033        9.245        8.282        0.802      332.418        1.070      869.071
01/09/2021  21:56:00       -6.955       20.344        2.957       16.610       30.077       16.221      275.901      904.644      263.131        0.096        0.072       21.500        6.508        0.092      332.444        1.109      869.083
01/09/2021  21:57:00       -8.541        0.144        0.726       16.122       11.580       10.213      259.909      134.099      104.296        0.029        0.025        8.542        8.495        0.989      332.309        0.887      869.095
01/09/2021  21:58:00      -25.890       14.734       -0.703       24.086       27.265       16.258      580.120      743.362      264.309        0.124        0.079       29.789       16.303        0.300      332.300        0.873      869.113
01/09/2021  21:59:00      -35.453       23.653       -6.787       21.429       17.534       12.685      459.196      307.429      160.904        0.139        0.046       42.619       11.973        0.079      332.209        0.724      869.127
01/09/2021  22:00:00      -48.020       33.508       -6.169       19.960       20.237       15.016      398.410      409.522      225.483        0.225        0.052       58.555       14.238        0.059      332.195        0.700      869.156
01/09/2021  22:01:00      -10.433       27.217       -6.179       25.952       20.780       17.149      673.495      431.814      294.080        0.114        0.070       29.148       14.022        0.231      332.093        0.533      869.179
01/09/2021  22:02:00      -12.814       17.472       -5.982       24.406       18.321       14.483      595.637      335.651      209.768        0.082        0.057       21.667       11.728        0.293      332.277        0.834      869.185
01/09/2021  22:03:00       16.638       31.735        2.133       30.345       23.016       13.184      920.832      529.738      173.828        0.146        0.081       35.831        7.807        0.047      332.508        1.216      869.161
01/09/2021  22:04:00       66.321       49.159       -1.428       35.965       18.487       15.050     1293.496      341.779      226.511        0.434        0.093       82.554       15.826        0.037      332.659        1.465      869.115
01/09/2021  22:05:00       75.999       39.236       -3.832       22.083       21.820       15.351      487.663      476.132      235.654        0.426        0.060       85.530        6.362        0.006      332.660        1.466      869.082
01/09/2021  22:06:00       55.766       43.392        3.020       28.777       19.936       15.195      828.144      397.443      230.886        0.323        0.073       70.659       12.203        0.030      332.681        1.502      869.054
01/09/2021  22:07:00       55.804       17.274       -2.488       27.190       23.913       13.832      739.281      571.817      191.329        0.246        0.075       58.416       12.855        0.048      332.602        1.372      869.062
01/09/2021  22:08:00       45.479       44.076        0.534       36.037       20.719       15.724     1298.693      429.276      247.254        0.299        0.099       63.333        9.246        0.021      332.603        1.371      869.087
01/09/2021  22:09:00       48.104       39.811       -4.155       24.426       10.764       12.917      596.632      115.862      166.842        0.240        0.044       62.441       13.809        0.049      332.669        1.481      869.121
01/09/2021  22:10:00       34.980       38.519        1.471       18.570       17.499       12.565      344.858      306.216      157.876        0.176        0.040       52.031       12.559        0.058      332.683        1.505      869.140
01/09/2021  22:11:00       16.909        5.666       -3.798       17.471       10.330       11.527      305.248      106.706      132.875        0.044        0.027       17.833        9.601        0.290      332.630        1.417      869.148
01/09/2021  22:12:00       12.923       13.381        5.003       16.236        9.207        9.773      263.592       84.766       95.515        0.041        0.022       18.603       10.336        0.309      332.609        1.385      869.152
01/09/2021  22:13:00        2.960       -0.635       -3.681       17.815       11.042       10.404      317.388      121.931      108.240        0.029        0.027        3.028        8.272        7.466      332.599        1.367      869.152
01/09/2021  22:14:00      -14.994       -1.685        0.855       20.271        7.286        6.545      410.916       53.089       42.831        0.037        0.025       15.088        3.616        0.057      332.441        1.105      869.149
01/09/2021  22:15:00      -39.043        9.604       -3.657       15.496       10.427        9.190      240.131      108.725       84.449        0.103        0.022       40.207        8.220        0.042      332.312        0.892      869.151
01/09/2021  22:16:00      -34.405       17.624       -3.216       11.633        8.137        6.639      135.324       66.209       44.073        0.088        0.012       38.656        4.346        0.013      332.230        0.759      869.149
01/09/2021  22:17:00      -25.663       20.966       -1.794       16.713       18.534        9.655      279.332      343.524       93.213        0.091        0.036       33.139       10.157        0.094      332.223        0.745      869.134
01/09/2021  22:18:00      -47.506       18.853       -4.621       12.628        7.291        7.733      159.460       53.161       59.804        0.145        0.014       51.110        7.895        0.024      332.236        0.769      869.128
01/09/2021  22:19:00      -66.631       15.742       -1.359       17.816       14.298       10.037      317.428      204.439      100.733        0.266        0.031       68.466        7.177        0.011      332.211        0.727      869.137
01/09/2021  22:20:00      -69.301       10.061       -3.151       25.371       16.539       13.690      643.678      273.531      187.406        0.301        0.055       70.027       12.307        0.031      332.213        0.730      869.140
01/09/2021  22:21:00      -90.298        7.873       -3.999       16.344       12.323       10.991      267.140      151.867      120.793        0.439        0.027       90.640        5.461        0.004      332.195        0.699      869.137
01/09/2021  22:22:00      -72.779        4.728       -3.665       22.512       13.891       11.971      506.811      192.960      143.305        0.309        0.042       72.932        8.754        0.014      332.201        0.709      869.136
01/09/2021  22:23:00      -64.115       17.307       -5.757       20.502       16.428       13.104      420.350      269.879      171.709        0.265        0.043       66.410        9.679        0.021      332.152        0.629      869.127
01/09/2021  22:24:00      -67.718        6.356       -6.001       16.137       17.354       12.040      260.387      301.167      144.965        0.268        0.035       68.016       10.736        0.025      332.226        0.750      869.117
01/09/2021  22:25:00      -67.381       10.826       -2.660       23.258       17.282       14.676      540.922      298.676      215.386        0.286        0.053       68.245       11.652        0.029      332.235        0.766      869.095
01/09/2021  22:26:00      -30.287        4.782        0.237       25.101       15.041       11.903      630.080      226.229      141.689        0.097        0.050       30.662        6.271        0.042      332.191        0.693      869.073
01/09/2021  22:27:00      -43.565       11.161       -3.219       24.072       13.154       11.992      579.450      173.038      143.805        0.146        0.045       44.972        5.127        0.013      332.178        0.673      869.052
01/09/2021  22:28:00      -62.112        6.247       -7.556       26.349       15.270       12.822      694.270      233.158      164.414        0.252        0.055       62.426        6.133        0.010      332.167        0.654      869.045
01/09/2021  22:29:00      -75.500        4.982       -3.102       23.750       20.012       14.481      564.042      400.482      209.711        0.345        0.059       75.664       10.882        0.021      332.172        0.662      869.047
01/09/2021  22:30:00     -104.467       16.372       -6.795       18.163       16.441       11.501      329.883      270.303      132.273        0.598        0.037      105.742        6.902        0.004      332.073        0.497      869.069
01/09/2021  22:31:00      -92.861        9.498       -8.449       24.949       18.186       14.836      622.466      330.747      220.118        0.498        0.059       93.345        7.665        0.007      332.099        0.542      869.092
01/09/2021  22:32:00      -96.324       20.488      -13.573       14.782       16.800       11.989      218.505      282.234      143.727        0.526        0.032       98.479        9.492        0.009      332.023        0.415      869.104
01/09/2021  22:33:00      -71.294       14.082       -7.488       16.487       21.779       14.238      271.807      474.338      202.708        0.314        0.047       72.671       11.107        0.023      332.014        0.403      869.114
01/09/2021  22:34:00      -60.434        5.825       -8.545       21.639       23.798       13.560      468.254      566.356      183.865        0.249        0.061       60.714       12.376        0.042      332.038        0.441      869.110
01/09/2021  22:35:00      -72.746       13.116       -6.295       17.787       17.611       12.910      316.363      310.131      166.669        0.315        0.040       73.919       10.965        0.022      331.992        0.365      869.102
01/09/2021  22:36:00      -92.287        8.593       -8.110       21.718       23.654       19.994      471.652      559.513      399.778        0.504        0.072       92.686       17.592        0.036      331.950        0.297      869.105
01/09/2021  22:37:00     -111.659       33.929       -7.460       16.558       23.176       13.122      274.163      537.128      172.192        0.733        0.049      116.700       13.012        0.012      331.910        0.231      869.136
01/09/2021  22:38:00      -93.322        2.586       -8.451       41.699       30.083       19.044     1738.817      904.965      362.671        0.590        0.150       93.358       21.649        0.054      331.936        0.274      869.180
01/09/2021  22:39:00      -78.911       10.860       -2.191       38.987       35.053       18.068     1519.982     1228.730      326.436        0.471        0.154       79.655       12.071        0.023      331.932        0.266      869.205
01/09/2021  22:40:00     -100.661       26.454       -7.658       20.862       25.840       15.575      435.234      667.699      242.593        0.612        0.067      104.079       10.931        0.011      331.837        0.109      869.229
01/09/2021  22:41:00      -84.429        1.404       -6.285       24.851       27.968       19.980      617.583      782.194      399.208        0.448        0.090       84.441       14.476        0.029      331.883        0.186      869.233
01/09/2021  22:42:00      -85.409       15.570       -3.625       21.075       27.443       17.665      444.146      753.114      312.037        0.453        0.075       86.816       13.545        0.024      331.885        0.189      869.228
01/09/2021  22:43:00      -70.837        9.447       -5.264       30.683       23.412       15.709      941.439      548.102      246.786        0.344        0.087       71.464       12.551        0.031      331.910        0.229      869.211
01/09/2021  22:44:00      -67.994       16.078       -3.567       16.160       21.979       16.107      261.157      483.095      259.420        0.295        0.050       69.869       13.364        0.037      331.887        0.192      869.185
01/09/2021  22:45:00      -63.037       16.415       -5.296       18.230       22.008       14.264      332.328      484.343      203.450        0.265        0.051       65.139       13.265        0.041      331.860        0.148      869.150
01/09/2021  22:46:00      -54.860       38.103       -4.543       27.351       26.217       17.892      748.100      687.347      320.121        0.312        0.088       66.794       14.382        0.046      331.852        0.134      869.118
01/09/2021  22:47:00      -81.905       22.505       -5.612       21.691       18.889       14.662      470.484      356.798      214.987        0.414        0.052       84.941       11.512        0.018      331.829        0.096      869.091
01/09/2021  22:48:00      -22.912       -0.047        0.087       39.418       29.795       21.069     1553.772      887.729      443.882        0.170        0.144       22.912       19.377        0.715      331.872        0.167      869.080
01/09/2021  22:49:00       40.743       -1.603        4.355       45.877       28.374       23.374     2104.728      805.059      546.325        0.257        0.173       40.775       22.199        0.296      331.948        0.291      869.078
01/09/2021  22:50:00        2.172       12.215       -4.109       51.394       28.166       24.240     2641.315      793.319      587.554        0.210        0.201       12.407       21.979        3.138      331.945        0.287      869.094
01/09/2021  22:51:00      -22.457       -1.547        2.284       39.066       34.130       24.966     1526.186     1164.864      623.320        0.191        0.166       22.510       25.339        1.267      331.900        0.215      869.100
01/09/2021  22:52:00        1.422       10.837        0.103       34.896       34.168       22.647     1217.761     1167.448      512.902        0.151        0.145       10.930       20.510        3.522      331.818        0.077      869.110
01/09/2021  22:53:00       15.371        6.295       -6.637       35.018       35.195       22.302     1226.244     1238.711      497.387        0.164        0.148       16.610       22.883        1.898      331.903        0.216      869.114
01/09/2021  22:54:00       16.627        5.288      -11.013       34.989       34.538       24.948     1224.250     1192.901      622.412        0.173        0.152       17.448       20.769        1.417      331.917        0.241      869.121
01/09/2021  22:55:00       35.430       12.346      -12.127      164.401       35.139       81.313    27027.809     1234.744     6611.809        1.821        1.744       37.519      112.710        9.024      332.039        0.443      869.109
01/09/2021  22:56:00        2.914       15.075        2.365       25.074       28.386       19.135      628.687      805.764      366.157        0.102        0.090       15.354       21.201        1.907      331.956        0.304      869.092
01/09/2021  22:57:00       -8.980       14.119       -3.951       28.135       29.984       19.803      791.589      899.041      392.177        0.119        0.104       16.733       20.802        1.545      331.948        0.291      869.068
01/09/2021  22:58:00       -7.536       13.833       -0.596       33.463       34.320       21.088     1119.800     1177.834      444.688        0.149        0.137       15.753       24.242        2.368      331.901        0.216      869.048
01/09/2021  22:59:00      -26.444       18.807       -1.439       33.578       39.822       24.214     1127.466     1585.773      586.303        0.218        0.165       32.450       27.859        0.737      331.899        0.213      869.033
01/09/2021  23:00:00      -54.542       20.129       -5.763       30.312       35.333       22.225      918.799     1248.416      493.970        0.304        0.133       58.137       25.517        0.193      331.858        0.144      869.022
01/09/2021  23:01:00      -59.962       16.925       -2.080       35.250       36.122       20.502     1242.594     1304.789      420.335        0.343        0.148       62.305       22.570        0.131      331.803        0.054      869.020
01/09/2021  23:02:00      -91.088       36.880       -4.795       30.653       34.211       21.195      939.591     1170.378      449.220        0.612        0.128       98.271       17.119        0.030      331.855        0.139      869.010
01/09/2021  23:03:00      -69.396       32.712        1.759       32.807       33.143       19.579     1076.327     1098.484      383.335        0.422        0.128       76.720       20.519        0.072      331.736       -0.057      868.985
01/09/2021  23:04:00       -1.490       16.862        2.832       24.084       26.229       18.755      580.052      687.952      351.768        0.096        0.081       16.928       17.579        1.078      331.808        0.062      868.956
01/09/2021  23:05:00       -1.090       22.110       -3.423       24.920       35.521       20.682      620.983     1261.727      427.763        0.141        0.116       22.137       27.004        1.488      331.935        0.272      868.934
01/09/2021  23:06:00        2.395       21.398        5.354       27.620       28.663       19.687      762.870      821.589      387.597        0.123        0.099       21.532       18.091        0.706      332.099        0.541      868.922
01/09/2021  23:07:00       -1.939       17.425       -0.567       24.065       24.775       17.373      579.124      613.817      301.830        0.090        0.075       17.532       15.092        0.741      331.952        0.299      868.928
01/09/2021  23:08:00        1.590        5.723       -7.797       23.023       30.401       19.524      530.057      924.195      381.192        0.097        0.092        5.940       22.987       14.977      331.898        0.210      868.943
01/09/2021  23:09:00      -24.941       13.785       -1.329       25.994       24.789       16.140      675.696      614.512      260.485        0.118        0.078       28.497       14.831        0.271      331.863        0.153      868.965
01/09/2021  23:10:00      -22.715       19.028        1.442       29.381       41.568       23.581      863.223     1727.885      556.056        0.201        0.157       29.631       28.434        0.921      331.874        0.171      868.974
01/09/2021  23:11:00        9.295        8.958        9.920       21.607       29.493       18.055      466.857      869.820      325.997        0.096        0.083       12.909       21.912        2.881      331.871        0.164      868.968
01/09/2021  23:12:00       10.784        3.994        3.471       27.589       27.740       20.621      761.172      769.505      425.210        0.105        0.098       11.500       20.666        3.229      331.856        0.141      868.962
01/09/2021  23:13:00        7.356       21.832       -0.096       27.813       34.309       21.785      773.561     1177.096      474.603        0.148        0.121       23.038       23.514        1.042      331.890        0.196      868.949
01/09/2021  23:14:00      -59.303       17.933       -7.626       40.101       26.930       16.961     1608.086      725.243      287.664        0.326        0.131       61.955       19.548        0.100      331.807        0.060      868.947
01/09/2021  23:15:00      -61.064        7.831       -9.968       33.718       42.965       22.731     1136.920     1845.959      516.677        0.369        0.175       61.564       20.690        0.113      331.788        0.028      868.938
01/09/2021  23:16:00      -33.489        7.731       -2.258       29.943       25.126       17.376      896.610      631.311      301.918        0.151        0.091       34.370       17.959        0.273      331.728       -0.069      868.930
01/09/2021  23:17:00       -4.776       -2.495       -2.280       33.970       26.821       19.556     1153.986      719.378      382.425        0.114        0.113        5.389       14.741        7.483      331.785        0.024      868.914
01/09/2021  23:18:00      -42.047        6.018       -5.781       28.254       27.890       19.646      798.265      777.846      385.952        0.190        0.098       42.475       17.677        0.173      331.778        0.012      868.910
01/09/2021  23:19:00      -18.230        9.457       -2.196       31.711       29.480       18.203     1005.615      869.086      331.332        0.132        0.110       20.537       12.591        0.376      331.763       -0.013      868.924
01/09/2021  23:20:00       -2.285       -0.690       -0.985       20.919       22.163       15.525      437.615      491.217      241.022        0.059        0.058        2.387       14.749       38.178      331.787        0.025      868.955
01/09/2021  23:21:00      -16.405       -9.936       -1.695       41.465       27.122       22.412     1719.387      735.604      502.313        0.166        0.148       19.179       20.606        1.154      331.815        0.073      868.980
01/09/2021  23:22:00      -59.257       11.709       12.194       58.169       32.835       22.812     3383.577     1078.169      520.378        0.439        0.249       60.403       25.671        0.181      331.833        0.104      868.991
01/09/2021  23:23:00      -52.784        5.256       -1.743       42.275       33.133       21.396     1787.208     1097.811      457.775        0.308        0.167       53.045       18.247        0.118      331.884        0.187      868.984
01/09/2021  23:24:00      -64.717        2.462        0.096       38.253       33.357       20.800     1463.322     1112.669      432.655        0.360        0.150       64.764       16.124        0.062      331.854        0.138      868.963
01/09/2021  23:25:00      -75.330       11.777        1.859       21.351       22.828       14.228      455.863      521.109      202.434        0.350        0.059       76.245       11.911        0.024      331.821        0.083      868.940
01/09/2021  23:26:00      -58.807       17.414       -4.371       19.136       22.499       14.681      366.169      506.204      215.524        0.243        0.054       61.331       16.975        0.077      331.876        0.174      868.931
01/09/2021  23:27:00      -45.098        1.745       -4.987       32.721       25.431       16.635     1070.693      646.731      276.720        0.203        0.100       45.132       15.884        0.124      331.958        0.308      868.953
01/09/2021  23:28:00      -51.380       -6.164       -2.088       33.705       20.043       15.533     1136.009      401.734      241.281        0.223        0.089       51.748       16.156        0.097      331.990        0.363      868.990
01/09/2021  23:29:00      -22.617        0.467        5.313       29.592       21.490       18.083      875.709      461.814      326.984        0.110        0.083       22.622        7.033        0.097      331.992        0.365      869.023
01/09/2021  23:30:00       -9.398       -4.357       -7.712       25.468       24.249       16.945      648.621      588.034      287.130        0.084        0.076       10.359       15.231        2.162      332.070        0.495      869.037
01/09/2021  23:31:00      -34.041       -1.651       -0.857       34.436       29.108       22.061     1185.813      847.271      486.676        0.184        0.126       34.081       20.083        0.347      332.017        0.406      869.049
01/09/2021  23:32:00      -86.085        8.091       -7.660       21.312       17.404       14.869      454.213      302.890      221.086        0.426        0.049       86.464        9.341        0.012      331.935        0.271      869.038
01/09/2021  23:33:00      -55.742        3.177       -2.519       43.916       30.804       14.746     1928.584      948.908      217.446        0.311        0.155       55.832       13.782        0.061      331.967        0.325      869.024
01/09/2021  23:34:00        0.381       -4.197        0.993       24.493       17.329       13.228      599.911      300.295      174.981        0.055        0.054        4.214        7.901        3.515      332.028        0.425      869.004
01/09/2021  23:35:00      -34.653        8.950       -1.730       24.126       18.044       14.062      582.051      325.576      197.728        0.119        0.055       35.790       11.263        0.099      331.953        0.302      868.984
01/09/2021  23:36:00      -42.186        1.658       -2.852       21.727       22.373       15.474      472.053      500.548      239.431        0.150        0.061       42.218       10.744        0.065      331.998        0.375      868.985
01/09/2021  23:37:00      -41.861      -11.338        9.162       37.662       26.529       20.803     1418.444      703.807      432.757        0.226        0.128       43.369       16.325        0.142      331.979        0.343      869.013
01/09/2021  23:38:00      -42.383       -4.618       -1.009       42.037       28.341       16.727     1767.105      803.206      279.789        0.233        0.143       42.633       15.049        0.125      331.954        0.304      869.042
01/09/2021  23:39:00       -8.822      -10.641       -0.796       40.366       24.917       17.829     1629.445      620.862      317.880        0.138        0.128       13.822       12.903        0.871      332.004        0.386      869.056
01/09/2021  23:40:00       -5.542       -3.148        4.438       21.438       19.716       14.881      459.579      388.715      221.430        0.056        0.053        6.374       11.015        2.987      332.077        0.505      869.054
01/09/2021  23:41:00      -36.646       25.877       -1.057       18.762       26.025       16.224      352.015      677.311      263.208        0.165        0.065       44.861       18.201        0.165      331.920        0.245      869.030
01/09/2021  23:42:00      -29.590       17.344       -0.804       17.142       18.050       11.548      293.851      325.807      133.355        0.096        0.038       34.299        7.846        0.052      331.864        0.154      869.010
01/09/2021  23:43:00      -21.855       -0.829       -2.699       23.414       26.981       19.238      548.208      727.966      370.094        0.107        0.082       21.871       17.417        0.634      331.998        0.375      868.995
01/09/2021  23:44:00        0.917      -20.946        1.950       21.021       18.545       13.883      441.869      343.913      192.727        0.071        0.049       20.966       12.898        0.378      332.086        0.521      868.982
01/09/2021  23:45:00        1.614       -0.429       -2.484       21.567       25.384       14.789      465.137      644.322      218.700        0.067        0.066        1.670       13.473       65.100      332.103        0.548      868.952
01/09/2021  23:46:00        8.447       -9.560       -1.693       20.717       29.298       13.016      429.189      858.356      169.405        0.081        0.073       12.757       12.681        0.988      331.987        0.357      868.928
01/09/2021  23:47:00       -6.384      -50.687        7.996       23.604       21.030       20.593      557.165      442.281      424.088        0.205        0.071       51.088       10.719        0.044      332.120        0.576      868.920
01/09/2021  23:48:00       -2.954      -42.359       -2.647       20.588       23.614       21.053      423.864      557.603      443.228        0.162        0.071       42.462       16.244        0.146      332.157        0.636      868.929
01/09/2021  23:49:00       23.186      -20.014       -5.344       25.275       20.809       17.265      638.834      433.013      298.090        0.117        0.068       30.629       12.225        0.159      332.141        0.611      868.958
01/09/2021  23:50:00       29.174       -1.044       -2.587       26.509       21.239       17.603      702.733      451.104      309.876        0.116        0.073       29.193       16.570        0.322      332.113        0.564      868.986
01/09/2021  23:51:00       19.984      -12.600       -8.040       18.005       24.779       13.149      324.175      613.984      172.888        0.087        0.056       23.624        9.608        0.165      332.110        0.561      868.991
01/09/2021  23:52:00       27.433        9.118       -7.912       24.969       26.108       15.731      623.453      681.608      247.466        0.123        0.078       28.909       16.033        0.308      332.083        0.515      868.992
01/09/2021  23:53:00       24.602        9.088       -8.055       28.332       21.421       12.348      802.688      458.848      152.475        0.108        0.071       26.227       10.861        0.171      332.079        0.509      868.971
01/09/2021  23:54:00       -0.930        4.154        0.011       16.758       16.961       14.745      280.832      287.664      217.411        0.040        0.039        4.257       12.553        8.695      332.062        0.481      868.962
01/09/2021  23:55:00       -2.344       -0.531       -8.063       23.424       20.536       13.210      548.689      421.743      174.498        0.061        0.057        2.403       13.228       30.292      332.027        0.422      868.956
01/09/2021  23:56:00      -23.844       19.655        0.217       21.638       20.063       14.088      468.191      402.517      198.484        0.101        0.053       30.901       14.223        0.212      331.998        0.375      868.953
01/09/2021  23:57:00       -3.605        1.957       -3.824       20.735       18.797       11.317      429.941      353.338      128.079        0.047        0.046        4.102        8.307        4.101      331.979        0.345      868.942
01/09/2021  23:58:00       14.497       -3.409       -4.407      160.140       23.098       77.718    25644.958      533.522     6040.063        1.622        1.611       14.893      110.386       54.938      332.119        0.575      868.920
01/09/2021  23:59:00       21.977       21.906        0.023       23.216       19.951       12.141      538.972      398.047      147.416        0.102        0.054       31.030       11.269        0.132      331.927        0.259      868.901
01/10/2021  00:00:00       31.537       21.156       -5.860       23.923       16.853       14.803      572.307      284.017      219.131        0.128        0.054       37.976       13.954        0.135      331.820        0.080      868.892
01/10/2021  00:01:00       29.215       10.654       -2.613       29.130       28.313       15.126      848.573      801.647      228.792        0.143        0.094       31.098       15.480        0.248      331.865        0.156      868.895
01/10/2021  00:02:00       24.415       32.760        4.355       26.222       21.757       18.810      687.613      473.363      353.825        0.160        0.076       40.858       14.787        0.131      331.687       -0.137      868.897
01/10/2021  00:03:00       19.492       27.353        2.853       23.601       27.473       18.373      557.024      754.784      337.576        0.139        0.082       33.588       13.534        0.162      331.645       -0.206      868.899
01/10/2021  00:04:00       48.294       37.024       -2.187      205.019       24.491       98.776    42032.682      599.797     9756.613        2.804        2.619       60.853      141.032        5.371      331.702       -0.110      868.901
01/10/2021  00:05:00       34.574       27.479       -2.088       31.933       27.845       18.681     1019.740      775.342      348.986        0.205        0.107       44.164       16.938        0.147      331.685       -0.140      868.889
01/10/2021  00:06:00       53.251       15.628      -17.836      261.072       18.386      123.522    68158.521      338.062    15257.590        4.356        4.188       55.497      178.695       10.368      331.779        0.017      868.865
01/10/2021  00:07:00       55.704       20.770      -18.929      316.605       24.242      152.078   100238.553      587.673    23127.803        6.390        6.198       59.450      218.273       13.480      331.845        0.127      868.838
01/10/2021  00:08:00       40.449       28.388       -1.910       29.842       27.064       15.889      890.526      732.459      252.476        0.216        0.094       49.416       17.196        0.121      331.695       -0.123      868.809
01/10/2021  00:09:00       34.419       20.994       -8.749       24.850       17.904       13.512      617.533      320.548      182.587        0.141        0.056       40.316       12.001        0.089      331.671       -0.163      868.778
01/10/2021  00:10:00       42.980      -19.485      -19.506      336.625       30.412      159.498   113316.720      924.880    25439.471        7.111        6.984       47.191      230.590       23.876      331.986        0.358      868.760
01/10/2021  00:11:00        4.509      -22.464        6.864       23.482       23.067       16.818      551.424      532.094      282.837        0.097        0.068       22.912       14.283        0.389      331.899        0.211      868.766
01/10/2021  00:12:00       27.335      -12.375       -4.653      178.135       27.757       85.106    31731.956      770.424     7243.075        2.033        1.987       30.006      121.253       16.330      331.844        0.121      868.779
01/10/2021  00:13:00        2.475       32.758        1.102       29.577       35.651       19.309      874.827     1271.000      372.829        0.180        0.126       32.852       23.199        0.499      331.701       -0.113      868.818
01/10/2021  00:14:00      -40.428       38.055       -3.447       22.096       32.418       17.436      488.248     1050.958      304.026        0.247        0.092       55.522       20.948        0.142      331.790        0.032      868.853
01/10/2021  00:15:00      -40.678        4.465       -1.458      158.568       29.661       72.964    25143.817      879.763     5323.729        1.651        1.567       40.922      103.645        6.415      331.858        0.145      868.885
01/10/2021  00:16:00       15.329        5.047       -1.069      215.762       27.174      104.574    46553.152      738.428    10935.714        2.923        2.911       16.139      147.998       84.092      332.019        0.411      868.919
01/10/2021  00:17:00       -0.202        0.193        2.201      225.050       32.463      107.121    50647.458     1053.819    11474.802        3.158        3.159        0.280      151.282   292271.241      332.023        0.418      868.960
01/10/2021  00:18:00      -44.953      -21.915        6.264       44.465       35.786       26.226     1977.142     1280.659      687.778        0.324        0.197       50.011       22.210        0.197      331.942        0.284      868.990
01/10/2021  00:19:00      -50.551      -19.133       -5.124      238.145       30.954      112.438    56713.268      958.144    12642.194        3.662        3.516       54.051      156.694        8.404      331.979        0.346      869.001
01/10/2021  00:20:00      -33.021       15.139      -10.650      133.985       27.660       60.886    17952.099      765.092     3707.113        1.192        1.121       36.326       80.552        4.917      331.924        0.255      868.993
01/10/2021  00:21:00      -36.858        1.117        3.990       29.219       28.257       23.865      853.750      798.483      569.558        0.180        0.111       36.875       19.215        0.272      331.851        0.132      868.979
01/10/2021  00:22:00       -9.427       13.090      -18.213      342.619       29.612      165.491   117387.523      876.857    27387.119        7.309        7.283       16.131      236.087      214.208      331.993        0.371      868.961
01/10/2021  00:23:00      -47.916       27.474        0.336      170.033       37.446       83.325    28911.227     1402.213     6943.054        2.015        1.863       55.234      114.092        4.267      331.785        0.025      868.949
01/10/2021  00:24:00      -17.549        8.798        4.273       30.130       35.176       18.810      907.837     1237.371      353.806        0.145        0.125       19.631       19.919        1.030      331.844        0.121      868.936
01/10/2021  00:25:00       -9.108      -10.940      -12.730      263.482       33.261      125.063    69422.622     1106.304    15640.834        4.325        4.308       14.235      179.380      158.783      332.004        0.388      868.929
01/10/2021  00:26:00      -31.018        3.849        7.256       32.956       30.908       21.473     1086.113      955.321      461.101        0.177        0.125       31.256       21.550        0.475      331.857        0.141      868.917
01/10/2021  00:27:00       37.611        4.324      -11.120      323.500       30.746      157.193   104652.128      945.300    24709.730        6.590        6.515       37.859      224.137       35.050      332.070        0.497      868.899
01/10/2021  00:28:00       -7.156        3.183        0.706       17.295       19.532       14.488      299.125      381.498      209.912        0.048        0.045        7.832       12.725        2.640      331.837        0.114      868.882
01/10/2021  00:29:00       -6.105       10.571        0.229       22.431       24.377       16.122      503.130      594.255      259.931        0.075        0.068       12.207       18.089        2.196      331.769       -0.003      868.872
01/10/2021  00:30:00      -33.018       17.924      -11.263      181.405       29.017       89.328    32907.600      842.014     7979.507        2.162        2.086       37.570      124.125       10.916      331.889        0.197      868.873
01/10/2021  00:31:00      -43.362        8.653       -6.088      162.676       28.736       80.778    26463.520      825.773     6525.119        1.790        1.691       44.217      111.941        6.409      331.932        0.269      868.875
01/10/2021  00:32:00       -5.448        7.109      -10.497      213.776       31.369      101.493    45700.389      984.021    10300.842        2.858        2.849        8.956      144.391      259.913      331.966        0.323      868.867
01/10/2021  00:33:00      -13.506        1.724       -4.317      264.676       32.337      126.289    70053.252     1045.657    15948.925        4.361        4.352       13.615      180.347      175.454      331.999        0.380      868.854
01/10/2021  00:34:00      -30.508       19.331        0.814      145.815       28.958       72.198    21262.138      838.554     5212.479        1.430        1.366       36.117       99.342        7.566      331.933        0.270      868.828
01/10/2021  00:35:00      -54.839       12.785       -4.740       30.500       29.295       18.443      930.257      858.199      340.155        0.266        0.106       56.310       15.639        0.077      331.806        0.059      868.805
01/10/2021  00:36:00      -56.194        7.665        0.534       25.298       24.441       17.893      639.998      597.355      320.166        0.239        0.078       56.714       18.174        0.103      331.848        0.128      868.804
01/10/2021  00:37:00      -61.225        9.114        3.689       29.328       30.124       21.803      860.127      907.472      475.366        0.304        0.112       61.899       22.063        0.127      331.905        0.221      868.819
01/10/2021  00:38:00      -48.418        5.368        5.741       34.889       29.615       22.076     1217.246      877.044      487.349        0.249        0.129       48.715       22.121        0.206      331.938        0.276      868.844
01/10/2021  00:39:00      -27.562       -9.684        2.540       35.291       26.461       14.969     1245.422      700.166      224.080        0.151        0.108       29.214       15.232        0.272      331.970        0.330      868.866
01/10/2021  00:40:00      -73.222       11.821        4.377       21.976       25.731       18.154      482.953      662.100      329.555        0.350        0.074       74.170       16.996        0.053      331.902        0.216      868.866
01/10/2021  00:41:00      -12.068       14.480       -1.135      142.286       27.549       67.868    20245.366      758.955     4606.101        1.298        1.281       18.849       94.860       25.327      331.862        0.153      868.830
01/10/2021  00:42:00       14.939        0.724       -8.133      147.799       20.958       72.510    21844.465      439.225     5257.754        1.391        1.377       14.956      101.740       46.274      331.966        0.324      868.787
01/10/2021  00:43:00      -11.828        2.528       -0.602       25.998       23.091       14.752      675.879      533.212      217.615        0.079        0.071       12.095       12.248        1.026      331.960        0.312      868.757
01/10/2021  00:44:00      -35.855       18.698        0.170       25.470       28.772       17.584      648.740      827.845      309.180        0.171        0.089       40.437       21.127        0.273      331.902        0.216      868.729
01/10/2021  00:45:00      -25.375       13.513        1.036       23.244       26.137       15.408      540.285      683.162      237.397        0.114        0.073       28.749       15.105        0.276      331.892        0.200      868.706
01/10/2021  00:46:00       -7.497       21.357       -6.321      186.165       29.064       89.886    34657.568      844.697     8079.477        2.206        2.179       22.634      126.640       31.305      331.914        0.237      868.685
01/10/2021  00:47:00        2.480        3.966       -1.910      201.738       19.656       93.980    40698.349      386.349     8832.331        2.496        2.496        4.678      136.648      853.451      331.947        0.291      868.689
01/10/2021  00:48:00       -7.588       11.886       -4.601      149.200       25.427       72.580    22260.722      646.552     5267.792        1.419        1.409       14.102      101.990       52.309      331.943        0.286      868.699
01/10/2021  00:49:00        6.243        6.394       -4.332      186.943       25.732       87.143    34947.856      662.130     7593.880        2.164        2.160        8.937      126.099      199.103      331.927        0.260      868.708
01/10/2021  00:50:00      -11.185       13.266        4.059       23.901       24.387       18.771      571.274      594.722      352.343        0.092        0.076       17.352       16.300        0.882      331.901        0.217      868.706
01/10/2021  00:51:00      -21.148       15.484       -0.256      117.576       27.163       58.595    13824.097      737.824     3433.365        0.934        0.900       26.211       79.677        9.241      331.994        0.371      868.710
01/10/2021  00:52:00        0.006       19.072      -11.722      249.293       22.937      119.732    62147.247      526.114    14335.834        3.874        3.850       19.072      171.759       81.109      332.007        0.392      868.707
01/10/2021  00:53:00      -13.150       13.068       -4.158       21.531       19.326       13.197      463.590      373.500      174.160        0.069        0.051       18.539        8.804        0.226      331.890        0.196      868.716
01/10/2021  00:54:00       12.580       -4.558        2.637       28.834       23.566       16.135      831.422      555.342      260.344        0.092        0.082       13.380       18.200        1.850      331.939        0.279      868.711
01/10/2021  00:55:00       28.524       -3.335      -17.275      245.273       26.351      116.332    60158.648      694.386    13533.075        3.774        3.719       28.718      167.828       34.153      331.995        0.373      868.708
01/10/2021  00:56:00      -12.703       12.045       -9.879      183.225       31.914       88.174    33571.466     1018.498     7774.592        2.138        2.118       17.506      124.906       50.911      331.894        0.205      868.682
01/10/2021  00:57:00      -13.464       21.416       -3.827      158.122       24.569       76.622    25002.711      603.630     5870.859        1.606        1.574       25.297      108.239       18.307      331.903        0.218      868.644
01/10/2021  00:58:00        4.038       14.965        8.908       21.192       20.358       14.960      449.105      414.455      223.812        0.070        0.054       15.500       13.606        0.771      331.829        0.095      868.597
01/10/2021  00:59:00       25.994       23.439        1.957      118.176       25.430       58.392    13965.613      646.681     3409.574        0.962        0.901       35.000       80.155        5.245      331.869        0.164      868.556
01/10/2021  01:00:00        6.063      -10.114        5.801       26.749       20.740       17.006      715.485      430.166      289.205        0.080        0.072       11.792       13.276        1.268      331.960        0.311      868.522
01/10/2021  01:01:00       12.326      -16.021        0.171       22.642       16.860       15.346      512.653      284.272      235.495        0.072        0.052       20.214       12.335        0.372      331.961        0.315      868.513
01/10/2021  01:02:00       24.525      -15.767       -4.077       27.176       22.934       21.413      738.518      525.951      458.520        0.129        0.086       29.156       16.556        0.322      331.942        0.283      868.506
01/10/2021  01:03:00       29.329        9.157       -7.885      189.525       24.077       91.658    35919.754      579.709     8401.173        2.294        2.245       30.725      130.270       17.976      331.916        0.242      868.483
01/10/2021  01:04:00       42.681       22.229       -5.841       34.081       26.695       18.249     1161.519      712.638      333.022        0.228        0.110       48.123       17.046        0.125      331.811        0.065      868.442
01/10/2021  01:05:00       38.757       17.368       -5.896       27.079       33.521       16.277      733.295     1123.674      264.947        0.198        0.106       42.471       15.204        0.128      331.766       -0.008      868.416
01/10/2021  01:06:00        7.838       11.123       -2.290       28.559       21.907       18.120      815.614      479.936      328.333        0.091        0.081       13.608       12.883        0.896      331.788        0.028      868.412
01/10/2021  01:07:00       17.958        4.322       -2.982      188.845       26.542       90.164    35662.425      704.490     8129.521        2.241        2.225       18.471      128.337       48.275      331.927        0.257      868.429
01/10/2021  01:08:00       36.060       20.852       -7.545      154.945       22.545       75.287    24007.806      508.298     5668.174        1.598        1.509       41.654      106.505        6.538      331.827        0.093      868.455
01/10/2021  01:09:00       23.478       37.756       -3.320      140.447       23.428       67.384    19725.452      548.876     4540.641        1.340        1.241       44.460       95.068        4.572      331.797        0.044      868.477
01/10/2021  01:10:00       -3.530       35.680       -4.628      177.466       26.178       85.318    31494.062      685.296     7279.157        2.037        1.973       35.854      121.380       11.461      331.832        0.101      868.493
01/10/2021  01:11:00      -13.519       22.504       -0.063       18.487       19.307       13.124      341.755      372.772      172.236        0.079        0.044       26.252       13.814        0.277      331.829        0.096      868.503
01/10/2021  01:12:00        9.184       22.801       -4.880       19.743       19.507       14.282      389.778      380.522      203.985        0.080        0.049       24.581       14.357        0.341      331.800        0.049      868.475
01/10/2021  01:13:00       65.769       33.594      -12.483      267.506       25.604      127.628    71559.722      655.566    16288.865        4.704        4.425       73.852      183.887        6.200      331.907        0.228      868.436
01/10/2021  01:14:00       53.488       35.068       -3.191       38.651       36.011       17.771     1493.893     1296.824      315.822        0.360        0.155       63.959       10.261        0.026      331.811        0.066      868.385
01/10/2021  01:15:00       47.358        8.764        4.649       48.358       34.566       30.132     2338.531     1194.812      907.920        0.339        0.222       48.162       24.354        0.256      331.818        0.078      868.333
01/10/2021  01:16:00       43.320       16.762       -1.276       55.857       39.306       27.592     3120.014     1544.992      761.313        0.379        0.271       46.450       21.445        0.213      331.757       -0.022      868.286
01/10/2021  01:17:00       46.864        9.556        9.167       41.605       34.493       26.475     1730.996     1189.787      700.941        0.300        0.181       47.828       21.240        0.197      331.677       -0.154      868.286
01/10/2021  01:18:00       29.526        3.891        0.255       31.536       29.148       20.523      994.538      849.625      421.212        0.158        0.113       29.781       16.102        0.292      331.743       -0.045      868.330
01/10/2021  01:19:00       57.470       17.433       -3.317       22.520       25.126       15.182      507.153      631.340      230.496        0.249        0.068       60.056       17.446        0.084      331.698       -0.120      868.357
01/10/2021  01:20:00       58.001        2.937       -9.743      285.139       31.673      134.189    81304.512     1003.207    18006.744        5.187        5.016       58.075      194.061       11.166      331.910        0.233      868.326
01/10/2021  01:21:00       50.791       33.182       -7.995       34.664       43.217       26.596     1201.560     1867.712      707.365        0.376        0.189       60.669       16.186        0.071      331.835        0.106      868.260
01/10/2021  01:22:00       96.305       -4.213      -21.147      198.044       50.291       94.961    39221.563     2529.196     9017.572        3.024        2.538       96.397      133.140        1.908      331.805        0.059      868.190
01/10/2021  01:23:00       99.422       -5.987      -20.084      240.686       34.606      117.732    57929.737     1197.575    13860.715        4.164        3.649       99.602      166.908        2.808      331.782        0.022      868.156
01/10/2021  01:24:00       62.121      -13.504        0.182       38.024       28.014       22.649     1445.825      784.784      512.964        0.339        0.137       63.572       20.604        0.105      331.683       -0.144      868.190
01/10/2021  01:25:00       67.906       -4.374       -7.380      230.390       30.696      110.745    53079.482      942.215    12264.458        3.547        3.314       68.046      157.496        5.357      331.761       -0.014      868.243
01/10/2021  01:26:00       43.556       -5.390        1.665       35.307       33.214       20.974     1246.577     1103.168      439.910        0.236        0.139       43.888       17.446        0.158      331.717       -0.087      868.287
01/10/2021  01:27:00       83.309       16.417      -17.982      310.829       30.974      149.005    96614.379      959.412    22202.379        6.363        5.989       84.911      213.800        6.340      331.885        0.192      868.313
01/10/2021  01:28:00       67.060       52.194       -9.347       28.411       30.800       19.139      807.172      948.636      366.291        0.471        0.106       84.978       18.510        0.047      331.687       -0.134      868.299
01/10/2021  01:29:00       93.949       53.780      -14.388      154.706       42.637       73.050    23933.872     1817.921     5336.357        2.150        1.554      108.253      103.897        0.921      331.707       -0.103      868.251
01/10/2021  01:30:00      109.843       48.885      -21.143      279.404       30.262      132.488    78066.833      915.816    17553.068        5.570        4.827      120.230      190.548        2.512      331.785        0.028      868.170
01/10/2021  01:31:00       54.992       33.305        5.276       33.724       34.548       25.381     1137.289     1193.579      644.203        0.357        0.149       64.292       11.580        0.032      331.737       -0.054      868.105
01/10/2021  01:32:00       56.830       34.063       -3.490      151.080       28.215       72.747    22825.129      796.109     5292.091        1.665        1.446       66.256      101.397        2.342      331.753       -0.027      868.053
01/10/2021  01:33:00       39.426       24.967        6.796       32.845       31.419       25.889     1078.782      987.165      670.262        0.248        0.137       46.667       17.359        0.138      331.734       -0.059      868.014
01/10/2021  01:34:00       50.708        3.926      -12.823      198.746       34.970       93.507    39500.090     1222.870     8743.466        2.610        2.473       50.859      133.265        6.866      331.800        0.051      867.952
01/10/2021  01:35:00       47.296       36.261        0.345       38.142       47.654       31.211     1454.834     2270.924      974.110        0.412        0.235       59.597       20.378        0.117      331.711       -0.097      867.918
01/10/2021  01:36:00       34.112       18.677      -11.065       41.844       53.410       28.408     1750.892     2852.633      807.030        0.352        0.271       38.890       17.152        0.195      331.788        0.030      867.907
01/10/2021  01:37:00       36.070       30.169       -8.265      142.458       44.844       72.601    20294.220     2010.977     5270.933        1.492        1.379       47.023       95.302        4.107      331.736       -0.055      867.906
01/10/2021  01:38:00       61.116        9.695        3.026      224.031       34.275      109.966    50189.958     1174.744    12092.515        3.363        3.173       61.880      154.199        6.210      331.764       -0.007      867.901
01/10/2021  01:39:00       57.838        8.314       -3.423      178.194       37.980       88.282    31752.942     1442.495     7793.788        2.220        2.049       58.433      122.112        4.367      331.772        0.004      867.908
01/10/2021  01:40:00       53.032       15.263        0.192      179.577       29.326       86.627    32247.827      860.021     7504.199        2.182        2.031       55.184      122.510        4.928      331.667       -0.170      867.930
01/10/2021  01:41:00       87.379       22.995      -28.096      378.544       35.126      183.847   143295.368     1233.866    33799.654        9.360        8.916       90.354      262.160        8.419      331.812        0.074      867.984
01/10/2021  01:42:00       37.311       24.259       -3.768      188.862       34.027       91.805    35668.992     1157.808     8428.072        2.362        2.263       44.504      128.666        8.359      331.662       -0.172      868.044
01/10/2021  01:43:00      -18.040       44.883        2.696       39.929       38.873       27.860     1594.344     1511.105      776.172        0.311        0.194       48.373       28.099        0.337      331.732       -0.063      868.081
01/10/2021  01:44:00       -4.706       16.155      -11.566      234.396       39.339      106.726    54941.254     1547.548    11390.540        3.413        3.394       16.827      154.566       84.378      331.813        0.073      868.101
01/10/2021  01:45:00       49.150        8.084      -17.290      332.824       31.436      159.877   110771.857      988.200    25560.707        7.002        6.866       49.810      229.041       21.144      331.906        0.226      868.103
01/10/2021  01:46:00       53.335       44.346        6.234       31.127       42.148       24.183      968.920     1776.447      584.831        0.409        0.167       69.363       28.868        0.173      331.762       -0.014      868.098
01/10/2021  01:47:00       59.824       40.875        1.606       30.128       30.411       21.657      907.706      924.834      469.031        0.378        0.115       72.455       21.938        0.092      331.744       -0.043      868.101
01/10/2021  01:48:00       65.337       34.709       -6.248      255.665       37.599      118.825    65364.361     1413.687    14119.420        4.319        4.045       73.983      171.419        5.368      331.853        0.139      868.115
01/10/2021  01:49:00       36.619       53.960        1.595      224.392       44.907      110.791    50351.680     2016.674    12274.703        3.444        3.232       65.212      153.745        5.558      331.837        0.111      868.128
01/10/2021  01:50:00        5.639       46.755      -10.648      256.195       37.466      124.856    65635.779     1403.669    15589.036        4.246        4.131       47.094      176.086       13.980      331.861        0.152      868.118
01/10/2021  01:51:00        6.784       42.283       -2.623      201.224       39.761       90.868    40491.171     1580.943     8257.079        2.607        2.516       42.823      130.370        9.268      331.816        0.076      868.082
01/10/2021  01:52:00       10.528       30.168        3.234      200.048       44.803       94.135    40019.005     2007.270     8861.445        2.595        2.544       31.952      132.481       17.192      331.839        0.114      868.052
01/10/2021  01:53:00      -16.494       24.543        5.918      145.830       43.736       75.508    21266.462     1912.800     5701.394        1.489        1.444       29.570       95.179       10.360      331.866        0.157      868.024
01/10/2021  01:54:00      -50.418       25.174       -1.177      157.936       45.348       77.476    24943.742     2056.468     6002.463        1.808        1.650       56.353      103.915        3.400      331.818        0.079      868.013
01/10/2021  01:55:00      -52.692       25.237       -6.702      185.616       41.558       92.883    34453.174     1727.081     8627.316        2.412        2.240       58.424      126.053        4.655      331.832        0.104      868.006
01/10/2021  01:56:00      -23.901        1.423        2.538      126.935       41.689       63.367    16112.565     1737.965     4015.382        1.122        1.093       23.943       79.607       11.054      331.737       -0.055      868.008
01/10/2021  01:57:00      -16.863       21.140       -6.201      244.381       42.251      117.740    59722.197     1785.182    13862.694        3.805        3.769       27.042      162.896       36.286      331.713       -0.093      868.004
01/10/2021  01:58:00       -9.613       24.374      -12.600      290.915       43.656      142.613    84631.368     1905.889    20338.431        5.384        5.344       26.201      199.790       58.146      331.757       -0.020      867.990
01/10/2021  01:59:00      -24.112       37.514       -2.357      267.427       45.975      129.372    71517.203     2113.708    16737.106        4.616        4.518       44.595      181.517       16.568      331.700       -0.113      867.970
01/10/2021  02:00:00      -26.562       31.439       -2.405      204.176       52.250       98.314    41687.918     2730.090     9665.560        2.788        2.704       41.158      134.463       10.673      331.755       -0.025      867.940
01/10/2021  02:01:00      -40.983       24.237       -9.756      288.052       46.765      133.631    82973.713     2187.005    17857.224        5.267        5.151       47.613      191.847       16.235      331.757       -0.019      867.928
01/10/2021  02:02:00      -57.170       30.181       -3.162      200.101       41.866       99.909    40040.327     1752.722     9981.859        2.797        2.589       64.647      135.157        4.371      331.643       -0.209      867.928
01/10/2021  02:03:00      -50.421       31.893       -2.831      220.785       49.188      110.724    48746.210     2419.462    12259.850        3.348        3.171       59.661      150.198        6.338      331.718       -0.084      867.948
01/10/2021  02:04:00       -8.925       32.133      -19.523      408.981       47.857      192.692   167265.626     2290.248    37130.095       10.405       10.334       33.349      277.549       69.265      331.865        0.161      867.980
01/10/2021  02:05:00      -61.263       40.776        3.624      237.767       53.289      108.657    56533.059     2839.674    11806.416        3.829        3.559       73.593      152.484        4.293      331.628       -0.233      868.019
01/10/2021  02:06:00      -42.331       51.818        2.174      279.234       50.556      140.003    77971.618     2555.901    19600.860        5.228        5.006       66.911      192.931        8.314      331.604       -0.273      868.060
01/10/2021  02:07:00      -42.680       35.140        9.473      223.041       60.774      111.294    49747.355     3693.487    12386.262        3.447        3.291       55.285      149.273        7.290      331.581       -0.310      868.084
01/10/2021  02:08:00      -44.201       58.937       -0.488      243.531       53.175      120.348    59307.175     2827.546    14483.585        4.101        3.831       73.670      163.186        4.907      331.608       -0.266      868.078
01/10/2021  02:09:00      -31.647       35.560        8.182      211.024       50.307       98.845    44531.122     2530.795     9770.250        2.957        2.842       47.603      135.642        8.119      331.583       -0.306      868.061
01/10/2021  02:10:00        0.245       43.650      -11.518      365.189       46.327      174.469   133362.781     2146.195    30439.594        8.396        8.297       43.651      248.543       32.421      331.649       -0.193      868.033
01/10/2021  02:11:00      -15.736       49.485       -0.658      263.521       49.985      120.061    69443.298     2498.498    14414.536        4.451        4.318       51.927      171.916       10.961      331.553       -0.356      867.995
01/10/2021  02:12:00       -4.794       53.763        1.947      295.978       57.172      142.974    87603.059     3268.585    20441.554        5.709        5.566       53.976      200.901       13.853      331.660       -0.179      867.971
01/10/2021  02:13:00       -0.759       50.793      -17.500      376.998       47.816      183.301   142127.357     2286.405    33599.276        9.041        8.901       50.799      259.860       26.168      331.725       -0.070      867.974
01/10/2021  02:14:00      -46.914       48.385       10.154       37.993       51.552       33.021     1443.445     2657.624     1090.407        0.492        0.260       67.394       40.489        0.361      331.582       -0.310      867.990
01/10/2021  02:15:00      -36.780       35.057        8.453      172.409       53.511       81.623    29724.786     2863.408     6662.312        2.094        1.963       50.811      109.298        4.627      331.597       -0.284      868.017
01/10/2021  02:16:00      -75.886       48.510       10.435      161.571       57.439       79.131    26105.065     3299.191     6261.676        2.194        1.783       90.066      102.137        1.286      331.553       -0.358      868.047
01/10/2021  02:17:00      -43.466       56.205       -0.318      307.110       56.384      146.275    94316.517     3179.171    21396.393        6.195        5.945       71.052      204.966        8.322      331.533       -0.387      868.061
01/10/2021  02:18:00      -11.250       68.049      -18.635      421.446       57.500      203.219   177616.973     3306.195    41297.947       11.362       11.111       68.972      288.429       17.487      331.625       -0.232      868.054
01/10/2021  02:19:00      -28.211       53.338       12.650      205.767       54.492      104.039    42340.105     2969.390    10824.027        2.996        2.807       60.339      139.215        5.323      331.415       -0.583      868.028
01/10/2021  02:20:00      -35.871       43.195       10.142      156.968       63.456       79.174    24639.038     4026.714     6268.594        1.909        1.747       56.148       99.873        3.164      331.548       -0.364      867.995
01/10/2021  02:21:00       -3.163       32.774        2.078      302.051       52.899      149.328    91234.924     2798.255    22298.832        5.869        5.817       32.926      206.473       39.322      331.605       -0.269      867.982
01/10/2021  02:22:00      -28.760       46.853       -4.145      299.830       48.813      146.744    89898.149     2382.708    21533.836        5.840        5.691       54.976      205.268       13.941      331.639       -0.212      867.978
01/10/2021  02:23:00      -48.508       41.649       10.828      190.960       57.926       97.183    36465.846     3355.371     9444.629        2.673        2.463       63.935      127.889        4.001      331.533       -0.388      867.992
01/10/2021  02:24:00      -69.995       39.101       14.214       46.788       58.263       35.602     2189.087     3394.555     1267.536        0.674        0.343       80.176       43.122        0.289      331.469       -0.495      868.010
01/10/2021  02:25:00      -33.177       36.617      -10.629      309.415       50.861      140.528    95737.399     2586.822    19748.158        6.029        5.904       49.411      202.564       16.806      331.587       -0.298      868.033
01/10/2021  02:26:00       26.214       47.098      -14.873      426.047       63.861      209.138   181516.388     4078.207    43738.850       11.618       11.467       53.902      293.034       29.554      331.732       -0.057      868.075
01/10/2021  02:27:00      -64.142       52.233        9.872       42.575       51.911       32.112     1812.610     2694.741     1031.200        0.624        0.277       82.720       39.462        0.228      331.359       -0.676      868.122
01/10/2021  02:28:00        7.082       49.094      -14.886      425.778       58.534      199.447   181287.326     3426.220    39779.248       11.354       11.225       49.602      287.529       33.602      331.557       -0.345      868.154
01/10/2021  02:29:00       24.854       53.763      -15.295      389.660       56.992      191.169   151834.921     3248.108    36545.462        9.765        9.581       59.229      267.901       20.458      331.576       -0.315      868.144
01/10/2021  02:30:00       20.253       49.923       -7.354      273.811       50.429      132.281    74972.260     2543.120    17498.153        4.897        4.751       53.875      185.749       11.887      331.503       -0.439      868.130
01/10/2021  02:31:00       -0.424       54.663       14.474       40.452       53.132       31.060     1636.363     2823.027      964.735        0.431        0.271       54.665       38.428        0.494      331.492       -0.457      868.100
01/10/2021  02:32:00       34.044       60.250       -2.694      318.308       57.172      157.435   101319.769     3268.602    24785.686        6.706        6.469       69.204      218.895       10.005      331.612       -0.256      868.074
01/10/2021  02:33:00       15.395       63.530       -8.120      348.837       53.904      168.148   121687.462     2905.671    28273.747        7.857        7.643       65.369      238.150       13.273      331.590       -0.292      868.055
01/10/2021  02:34:00        4.972       57.788        6.674      220.691       61.526      107.769    48704.328     3785.456    11614.136        3.374        3.205       58.002      146.584        6.387      331.514       -0.420      868.039
01/10/2021  02:35:00       13.368       53.870        0.783      175.182       55.766       89.781    30688.736     3109.812     8060.628        2.246        2.093       55.504      117.559        4.486      331.461       -0.507      868.030
01/10/2021  02:36:00       50.833       67.580        5.321      246.556       58.384      117.729    60789.715     3408.703    13860.176        4.260        3.903       84.564      163.450        3.736      331.557       -0.349      868.015
01/10/2021  02:37:00       40.882       60.957       14.200      213.315       55.004      108.270    45503.463     3025.459    11722.449        3.291        3.013       73.397      145.553        3.933      331.528       -0.398      867.999
01/10/2021  02:38:00       42.665       19.538       -1.625      209.570       46.643      104.722    43919.512     2175.607    10966.611        2.962        2.853       46.926      142.748        9.254      331.519       -0.411      867.982
01/10/2021  02:39:00       22.238       47.638       -0.129      256.023       60.212      128.327    65547.697     3625.520    16467.699        4.419        4.282       52.573      173.986       10.952      331.442       -0.538      867.972
01/10/2021  02:40:00       88.266       54.699      -42.818      534.882       58.581      258.452   286098.824     3431.703    66797.402       18.440       17.816      103.840      368.906       12.621      331.653       -0.185      867.962
01/10/2021  02:41:00       18.655       54.687      -10.064      363.806       56.547      175.469   132354.579     3197.595    30789.230        8.486        8.317       57.781      248.203       18.452      331.494       -0.451      867.951
01/10/2021  02:42:00       16.691       57.741        2.412      293.077       55.740      139.250    85894.299     3106.981    19390.649        5.598        5.420       60.106      196.267       10.663      331.492       -0.455      867.929
01/10/2021  02:43:00       24.902       46.310        9.953       41.242       53.002       28.490     1700.942     2809.230      811.701        0.409        0.266       52.581       37.566        0.510      331.425       -0.571      867.925
01/10/2021  02:44:00      111.021       61.205      -20.067      439.706       57.661      215.583   193341.565     3324.783    46476.145       12.976       12.157      126.774      304.166        5.757      331.812        0.074      867.936
01/10/2021  02:45:00       50.712       43.910        9.049      180.699       58.293       92.938    32652.021     3398.099     8637.453        2.463        2.234       67.081      121.155        3.262      331.557       -0.352      867.961
01/10/2021  02:46:00        2.347       50.562        3.256      283.465       60.123      131.025    80352.369     3614.747    17167.635        5.183        5.057       50.616      184.410       13.274      331.396       -0.613      867.982
01/10/2021  02:47:00      -49.846       54.128        0.890      282.506       60.712      133.296    79809.877     3685.932    17767.772        5.332        5.063       73.583      187.331        6.481      331.305       -0.763      868.000
01/10/2021  02:48:00      -16.288       52.484        2.537      316.373       62.301      156.225   100091.614     3881.467    24406.284        6.568        6.419       54.954      215.698       15.406      331.455       -0.516      867.998
01/10/2021  02:49:00        8.104       58.207       -7.659      345.388       62.934      168.555   119292.988     3960.643    28410.655        7.756        7.583       58.768      234.904       15.977      331.421       -0.570      867.947
01/10/2021  02:50:00       -0.334       36.933       -1.574      233.114       49.776      115.697    54342.286     2477.693    13385.852        3.577        3.510       36.934      159.274       18.597      331.259       -0.839      867.873
01/10/2021  02:51:00       38.801       40.814      -11.136      319.119       55.036      153.121   101836.678     3028.942    23445.901        6.578        6.416       56.314      216.341       14.758      331.340       -0.705      867.808
01/10/2021  02:52:00       58.282       51.933      -12.844      355.937       56.497      167.503   126691.420     3191.939    28057.161        8.207        7.897       78.063      239.648        9.424      331.516       -0.414      867.780
01/10/2021  02:53:00        8.203       52.746       -7.508      275.470       50.405      126.616    75883.714     2540.698    16031.629        4.866        4.723       53.380      182.259       11.658      331.432       -0.554      867.778
01/10/2021  02:54:00      -18.940       55.786        9.187       45.683       59.425       36.497     2086.892     3531.288     1332.005        0.525        0.348       58.913       44.299        0.565      331.362       -0.672      867.776
01/10/2021  02:55:00      -42.958       62.176       13.182       50.614       58.188       35.322     2561.743     3385.844     1247.636        0.654        0.360       75.573       41.755        0.305      331.318       -0.745      867.760
01/10/2021  02:56:00      -71.289       58.641        5.255      135.920       60.420       69.738    18474.233     3650.519     4863.432        1.776        1.349       92.309       84.288        0.834      331.184       -0.963      867.754
01/10/2021  02:57:00     -102.435       56.678        8.498       45.423       57.693       34.934     2063.205     3328.508     1220.409        1.019        0.331      117.070       43.910        0.141      331.095       -1.110      867.760
01/10/2021  02:58:00      -57.534       56.871       -4.085      314.609       66.256      147.556    98978.794     4389.856    21772.894        6.583        6.257       80.898      207.709        6.592      331.268       -0.822      867.781
01/10/2021  02:59:00      -54.378       49.096       -9.831      325.344       61.398      155.377   105848.497     3769.670    24142.127        6.958        6.688       73.262      216.198        8.708      331.197       -0.940      867.791
01/10/2021  03:00:00      -49.185       37.511       13.478      143.455       55.744       75.483    20579.251     3107.435     5697.757        1.669        1.469       61.857       89.677        2.102      331.120       -1.068      867.793
01/10/2021  03:01:00      -16.193       33.242       15.858      156.495       64.010       75.032    24490.769     4097.276     5629.767        1.791        1.711       36.976       94.490        6.530      331.121       -1.067      867.777
01/10/2021  03:02:00       68.563       36.798      -10.399      393.214       60.184      183.244   154616.936     3622.143    33578.456        9.895        9.591       77.814      261.511       11.294      331.274       -0.811      867.755
01/10/2021  03:03:00      -34.510       44.392       -0.931      298.474       65.164      148.809    89086.862     4246.401    22144.079        5.930        5.774       56.228      201.082       12.789      331.115       -1.076      867.752
01/10/2021  03:04:00     -133.246       85.106        9.332      192.225       66.506       95.119    36950.481     4423.103     9047.702        3.774        2.521      158.106      120.312        0.579      330.942       -1.360      867.759
01/10/2021  03:05:00      -37.663       69.585       -1.244      425.562       72.209      202.608   181103.329     5214.203    41049.867       11.677       11.368       79.124      284.722       12.949      331.090       -1.113      867.761
01/10/2021  03:06:00      -37.890       63.582      -17.321      423.558       63.744      196.381   179401.453     4063.261    38565.457       11.386       11.102       74.016      279.795       14.290      331.016       -1.234      867.757
01/10/2021  03:07:00      -67.738       85.062        6.536      154.373       71.504       81.072    23830.970     5112.784     6572.613        2.368        1.776      108.738       95.738        0.775      330.876       -1.470      867.746
01/10/2021  03:08:00       -5.991       55.977       -7.766      350.845       66.133      164.014   123092.168     4373.562    26900.452        7.877        7.718       56.297      233.054       17.137      330.959       -1.330      867.728
01/10/2021  03:09:00       28.573       49.548       -1.191      253.422       65.603      121.312    64222.925     4303.758    14716.584        4.324        4.162       57.197      166.535        8.478      330.937       -1.367      867.715
01/10/2021  03:10:00       30.395       21.610       13.747       62.761       59.831       38.148     3938.930     3579.775     1455.258        0.528        0.449       37.294       41.927        1.264      330.969       -1.318      867.701
01/10/2021  03:11:00       66.469       41.349      -10.012      356.462       55.697      167.854   127064.816     3102.103    28174.904        8.225        7.917       78.281      239.736        9.379      331.155       -1.006      867.690
01/10/2021  03:12:00      117.266       34.115      -22.163      384.487       57.188      185.236   147830.567     3270.470    34312.411       10.037        9.271      122.127      261.570        4.587      331.204       -0.927      867.672
01/10/2021  03:13:00      116.629       43.025      -20.519      453.090       56.777      217.494   205290.643     3223.603    47303.587       13.580       12.791      124.312      310.338        6.232      331.226       -0.888      867.653
01/10/2021  03:14:00      104.774       40.463      -13.281      345.739       58.927      165.029   119535.394     3472.401    27234.673        8.149        7.512      112.316      233.893        4.337      331.225       -0.895      867.636
01/10/2021  03:15:00       91.114        4.218      -19.074      395.112       56.302      183.158   156113.696     3169.915    33546.771       10.072        9.642       91.212      264.108        8.384      331.371       -0.650      867.629
01/10/2021  03:16:00      105.015       -5.913      -14.723      368.809       63.448      182.404   136019.971     4025.687    33271.157        9.226        8.666      105.181      254.264        5.844      331.402       -0.602      867.633
01/10/2021  03:17:00      131.537       17.614      -34.444      496.735       54.845      234.186   246745.402     3007.952    54843.117       16.164       15.230      132.711      336.750        6.439      331.477       -0.474      867.642
01/10/2021  03:18:00       61.169       41.862       -3.653      301.231       59.713      143.905    90740.170     3565.664    20708.685        6.024        5.751       74.122      202.169        7.439      331.254       -0.849      867.653
01/10/2021  03:19:00       96.248       27.157      -26.699      470.551       49.737      227.770   221418.250     2473.803    51878.969       14.319       13.789      100.006      324.425       10.524      331.284       -0.792      867.666
01/10/2021  03:20:00      132.119       36.125      -44.574      581.128       55.459      272.727   337709.471     3075.664    74379.987       21.787       20.758      136.969      395.579        8.341      331.324       -0.722      867.668
01/10/2021  03:21:00      163.658       27.909      -52.086      603.496       50.196      288.754   364207.408     2519.661    83379.015       24.010       22.505      166.021      415.247        6.256      331.390       -0.614      867.661
01/10/2021  03:22:00      112.280       46.847      -29.478      522.718       59.928      253.661   273233.996     3591.357    64343.788       17.835       17.058      121.662      360.820        8.796      331.307       -0.753      867.646
01/10/2021  03:23:00       62.918       62.549      -21.478      524.768       58.074      249.432   275381.814     3372.567    62216.456       17.458       17.049       88.719      358.337       16.314      331.343       -0.693      867.622
01/10/2021  03:24:00       63.513       59.306      -22.435      484.577       62.453      236.595   234815.172     3900.335    55977.019       15.131       14.735       86.897      335.167       14.877      331.368       -0.654      867.608
01/10/2021  03:25:00       -3.543       62.607       -0.063      286.013       55.894      136.063    81803.237     3124.129    18513.028        5.366        5.172       62.707      192.058        9.381      331.029       -1.216      867.579
01/10/2021  03:26:00      -10.854       56.601      -15.459      406.933       55.657      198.678   165594.397     3097.675    39473.021       10.582       10.408       57.633      280.051       23.612      331.087       -1.119      867.542
01/10/2021  03:27:00       -8.749       70.104      -16.156      444.385       60.112      206.683   197478.424     3613.395    42717.874       12.448       12.190       70.648      299.070       17.921      331.070       -1.146      867.518
01/10/2021  03:28:00       -7.963       45.297       -6.321      347.489       59.080      171.245   120748.533     3490.440    29324.907        7.783        7.678       45.992      238.607       26.916      331.061       -1.163      867.507
01/10/2021  03:29:00      -43.030       68.613       -6.701      315.334       60.426      152.384    99435.334     3651.259    23221.021        6.643        6.315       80.990      213.826        6.970      330.985       -1.286      867.508
01/10/2021  03:30:00      -46.100       46.270       -2.639      288.987       60.777      138.478    83513.563     3693.846    19176.186        5.531        5.319       65.316      192.361        8.674      330.940       -1.363      867.509
01/10/2021  03:31:00      -48.365       57.101        0.544      253.208       59.798      128.938    64114.506     3575.802    16625.122        4.494        4.216       74.832      173.864        5.398      330.852       -1.506      867.508
01/10/2021  03:32:00       13.987       62.880      -24.562      471.064       59.460      223.829   221901.542     3535.487    50099.296       14.009       13.777       64.417      320.570       24.766      331.010       -1.242      867.500
01/10/2021  03:33:00       18.592       61.759      -22.553      459.133       61.217      224.287   210803.351     3747.570    50304.739       13.471       13.243       64.497      316.734       24.117      331.053       -1.172      867.500
01/10/2021  03:34:00       11.913       42.335      -11.767      382.043       66.027      173.089   145957.214     4359.594    29959.811        9.114        9.014       43.979      251.123       32.605      331.030       -1.212      867.500
01/10/2021  03:35:00       87.370       28.432      -22.459      483.727       65.100      228.631   233991.923     4237.993    52271.944       14.967       14.525       91.880      328.383       12.774      331.115       -1.070      867.514
01/10/2021  03:36:00      -74.813       53.446       -7.564      301.127       60.268      150.015    90677.478     3632.227    22504.416        6.264        5.841       91.943      206.296        5.034      330.822       -1.556      867.533
01/10/2021  03:37:00     -116.548       85.466       11.979       45.639       61.458       41.846     2082.910     3777.052     1751.127        1.432        0.381      144.527       47.327        0.107      330.616       -1.895      867.545
01/10/2021  03:38:00      -52.978       76.532       -1.935      355.116       64.477      177.522   126107.376     4157.288    31513.998        8.519        8.089       93.079      244.387        6.894      330.799       -1.592      867.544
01/10/2021  03:39:00      -18.288       48.579       -1.346      273.279       61.643      130.192    74681.610     3799.842    16950.051        4.904        4.772       51.908      181.376       12.209      330.816       -1.568      867.532
01/10/2021  03:40:00       48.413       21.078      -25.913      417.908       56.360      201.607   174647.077     3176.505    40645.424       11.092       10.923       52.803      286.373       29.414      330.899       -1.427      867.512
01/10/2021  03:41:00       79.584       15.226       -7.045      316.886       54.604      150.716   100416.974     2981.600    22715.365        6.634        6.306       81.027      213.222        6.925      330.862       -1.489      867.481
01/10/2021  03:42:00       47.303       53.898      -17.407      430.323       57.437      203.706   185177.867     3298.961    41496.000       11.766       11.499       71.712      291.606       16.535      330.979       -1.295      867.467
01/10/2021  03:43:00       13.863       32.524        5.269      274.035       54.598      133.091    75095.058     2980.920    17713.097        4.851        4.789       35.356      185.208       27.441      330.865       -1.485      867.446
01/10/2021  03:44:00       69.573       48.911      -39.322      525.218       56.843      252.865   275854.039     3231.097    63940.794       17.583       17.151       85.046      361.591       18.077      331.081       -1.124      867.415
01/10/2021  03:45:00       68.015       39.985      -38.145      521.057       55.009      247.174   271500.684     3026.000    61094.739       17.158       16.781       78.897      356.030       20.363      331.088       -1.114      867.382
01/10/2021  03:46:00       92.206       38.704      -34.826      506.697       50.798      245.862   256742.097     2580.473    60448.325       16.543       15.989      100.000      350.605       12.292      331.124       -1.055      867.350
01/10/2021  03:47:00       77.415       39.893      -34.252      500.427       56.688      244.644   250426.913     3213.571    59850.572       16.106       15.675       87.089      346.779       15.855      331.224       -0.890      867.334
01/10/2021  03:48:00      -10.907       49.780        1.771      247.970       54.977      114.226    61488.961     3022.495    13047.663        4.006        3.878       50.960      162.649       10.187      330.957       -1.336      867.342
01/10/2021  03:49:00      -25.348       41.027       -8.736      263.241       50.179      131.268    69295.576     2517.939    17231.335        4.570        4.452       48.226      181.418       14.152      330.879       -1.464      867.366
01/10/2021  03:50:00      -28.592       50.821      -13.294      298.104       49.585      147.129    88865.991     2458.654    21646.998        5.825        5.649       58.312      205.426       12.411      330.844       -1.520      867.378
01/10/2021  03:51:00       29.468       70.143      -36.554      509.179       50.719      249.715   259263.270     2572.425    62357.723       16.559       16.210       76.082      353.976       21.647      331.079       -1.127      867.378
01/10/2021  03:52:00      -29.922       63.014      -19.177      379.401       54.245      185.384   143944.916     2942.549    34367.087        9.321        9.063       69.757      260.566       13.953      330.852       -1.504      867.370
01/10/2021  03:53:00      -52.848       61.665       -2.278      301.184       56.754      142.046    90711.920     3221.073    20177.117        6.033        5.706       81.212      200.985        6.125      330.777       -1.628      867.375
01/10/2021  03:54:00      -29.421       58.936      -21.987      439.097       58.152      204.980   192805.771     3381.618    42016.777       12.147       11.910       65.871      295.645       20.144      330.913       -1.403      867.390
01/10/2021  03:55:00      -63.431       45.157      -10.710      308.280       60.102      149.857    95036.623     3612.248    22457.235        6.362        6.055       77.863      208.843        7.194      330.799       -1.594      867.403
01/10/2021  03:56:00       -6.512       61.508      -25.191      500.993       56.648      247.067   250994.430     3209.035    61041.929       15.979       15.762       61.852      347.449       31.556      330.995       -1.267      867.413
01/10/2021  03:57:00      -51.822       55.516      -19.320      401.578       55.118      196.625   161264.551     3038.037    38661.384       10.451       10.148       75.945      276.699       13.275      330.818       -1.562      867.426
01/10/2021  03:58:00      -49.839       44.417      -19.214      350.772       53.416      168.509   123040.908     2853.277    28395.128        7.953        7.714       66.759      237.935       12.703      330.815       -1.566      867.437
01/10/2021  03:59:00       35.987       23.998      -23.784      440.622       58.472      210.669   194148.070     3418.918    44381.429       12.214       12.097       43.255      299.621       47.982      331.000       -1.261      867.440
01/10/2021  04:00:00       16.047       50.196      -34.450      496.791       48.408      239.602   246801.161     2343.360    57409.156       15.520       15.328       52.699      340.398       41.722      331.069       -1.145      867.436
01/10/2021  04:01:00       18.847       70.688      -43.439      535.580       57.251      253.594   286846.180     3277.715    64309.977       18.076       17.722       73.157      364.355       24.805      331.087       -1.114      867.413
01/10/2021  04:02:00      -12.247       69.236      -24.730      441.154       54.365      210.400   194616.816     2955.566    44268.182       12.365       12.092       70.311      300.269       18.238      330.929       -1.377      867.399
01/10/2021  04:03:00      -77.345       57.493        6.218      188.784       56.426       89.032    35639.444     3183.892     7926.617        2.803        2.337       96.373      120.933        1.575      330.700       -1.759      867.383
01/10/2021  04:04:00      -52.366       47.797      -29.915      496.625       51.249      238.276   246636.460     2626.414    56775.551       15.592       15.302       70.899      340.364       23.046      331.010       -1.242      867.372
01/10/2021  04:05:00       -8.824       32.364      -25.773      429.533       62.851      211.164   184498.879     3950.293    44590.051       11.737       11.652       33.545      294.604       77.130      330.912       -1.403      867.380
01/10/2021  04:06:00      -17.681       21.485       -2.686      362.048       62.821      174.101   131079.020     3946.525    30311.265        8.303        8.267       27.825      242.027       75.659      330.814       -1.567      867.392
01/10/2021  04:07:00       11.494       39.268      -42.344      570.800       54.981      272.098   325812.491     3022.931    74037.382       20.309       20.144       40.916      390.176       90.937      331.041       -1.189      867.404
01/10/2021  04:08:00      -26.279       48.384      -33.317      456.678       52.465      209.044   208554.796     2752.571    43699.328       12.952       12.750       55.060      304.172       30.519      330.901       -1.423      867.418
01/10/2021  04:09:00      -19.775       61.366      -12.593      422.646       55.341      207.135   178629.937     3062.675    42904.706       11.441       11.230       64.473      291.259       20.408      330.751       -1.669      867.435
01/10/2021  04:10:00       10.732       56.620      -43.123      583.455       49.141      284.020   340419.224     2414.883    80667.310       21.425       21.175       57.628      404.753       49.330      330.992       -1.269      867.444
01/10/2021  04:11:00      -68.301       65.561      -13.210      406.403       50.462      196.388   165163.154     2546.408    38568.191       10.767       10.314       94.675      278.786        8.671      330.809       -1.576      867.443
01/10/2021  04:12:00       -2.511       51.117      -36.917      538.543       57.695      254.325   290028.993     3328.687    64681.246       18.093       17.902       51.179      367.325       51.514      330.985       -1.281      867.422
01/10/2021  04:13:00       -0.721       53.363       -9.397      423.983       59.257      201.327   179761.299     3511.416    40532.606       11.332       11.190       53.367      287.059       28.933      330.935       -1.368      867.371
01/10/2021  04:14:00       89.329       41.073      -54.305      636.775       55.231      305.364   405482.437     3050.453    93247.117       25.709       25.089       98.319      438.428       19.885      331.202       -0.921      867.308
01/10/2021  04:15:00       18.153       40.771      -15.896      392.738       51.181      194.155   154243.111     2619.537    37696.053        9.836        9.728       44.630      272.257       37.214      330.909       -1.411      867.242
01/10/2021  04:16:00       63.339       42.684      -39.195      555.793       54.304      260.787   308906.258     2948.890    68009.760       19.354       18.993       76.379      378.082       24.503      331.093       -1.101      867.185
01/10/2021  04:17:00       99.521       27.300      -57.886      598.434       51.911      283.864   358123.133     2694.753    80578.524       22.761       22.070      103.197      409.330       15.733      331.211       -0.906      867.144
01/10/2021  04:18:00      118.733       50.005      -69.196      676.527       57.340      331.351   457688.777     3287.919   109793.638       29.596       28.539      128.833      471.028       13.367      331.363       -0.653      867.123
01/10/2021  04:19:00       13.268       50.328      -32.091      480.854       58.638      233.360   231220.153     3438.386    54457.049       14.637       14.456       52.048      331.845       40.651      330.966       -1.315      867.121
01/10/2021  04:20:00      -55.930       35.031      -14.472      404.018       52.145      186.986   163230.622     2719.057    34963.890       10.270       10.046       65.995      270.828       16.841      330.901       -1.424      867.131
01/10/2021  04:21:00      -45.651       45.466       -4.213      290.856       58.552      142.102    84597.278     3428.284    20193.057        5.617        5.411       64.430      195.561        9.213      330.774       -1.636      867.166
01/10/2021  04:22:00       58.038       26.168      -13.743      413.051       60.116      195.842   170611.004     3613.966    38354.173       10.837       10.629       63.664      279.700       19.302      330.882       -1.455      867.198
01/10/2021  04:23:00        1.886       36.251        2.335      162.998       50.764       76.196    26568.246     2576.985     5805.802        1.813        1.748       36.300       99.223        7.472      330.719       -1.726      867.197
01/10/2021  04:24:00      -36.686       63.713       -0.419      254.587       57.783      127.499    64814.493     3338.885    16255.887        4.489        4.220       73.521      172.010        5.474      330.743       -1.687      867.163
01/10/2021  04:25:00       15.324       39.721       -1.219      374.306       59.663      177.477   140104.811     3559.702    31497.959        8.845        8.758       42.575      251.622       34.930      330.866       -1.482      867.113
01/10/2021  04:26:00        1.989       33.079        1.731      216.774       48.209      106.959    46990.858     2324.108    11440.165        3.092        3.038       33.139      146.586       19.567      330.661       -1.821      867.060
01/10/2021  04:27:00       97.769       14.965      -42.951      552.698       53.432      265.275   305474.859     2854.957    70371.053       19.509       18.935       98.908      379.814       14.746      331.102       -1.089      867.025
01/10/2021  04:28:00       40.127       38.199      -24.951      481.675       49.678      233.317   232010.566     2467.921    54437.037       14.624       14.446       55.401      332.105       35.934      331.085       -1.119      867.001
01/10/2021  04:29:00       71.243       35.102      -34.430      509.666       59.355      244.745   259759.869     3523.053    59900.344       16.527       16.159       79.421      348.705       19.277      331.185       -0.954      867.004
01/10/2021  04:30:00      137.486       18.777      -49.999      536.278       49.286      255.370   287594.567     2429.065    65214.015       18.842       17.762      138.762      366.900        6.991      331.269       -0.815      867.027
01/10/2021  04:31:00       59.629       42.356      -12.015      356.870       59.577      173.651   127355.977     3549.360    30154.808        8.324        8.053       73.142      243.915       11.121      330.911       -1.408      867.021
01/10/2021  04:32:00      200.852       43.744      -92.931      739.965       48.936      354.770   547548.639     2394.733   125861.441       36.321       33.790      205.560      510.862        6.176      331.517       -0.399      867.000
01/10/2021  04:33:00       -5.772       62.428      -24.375      426.731       56.996      204.681   182099.494     3248.569    41894.420       11.584       11.362       62.694      291.650       21.641      330.985       -1.285      867.003
01/10/2021  04:34:00      -50.380       66.643      -11.026      281.686       49.994      136.384    79347.048     2499.361    18600.709        5.375        5.022       83.543      190.785        5.215      330.839       -1.529      867.006
01/10/2021  04:35:00      -29.931       35.620      -13.480      366.465       52.342      172.987   134296.440     2739.673    29924.405        8.462        8.348       46.526      246.582       28.089      330.807       -1.579      867.004
01/10/2021  04:36:00       23.020       47.897      -38.803      557.832       55.207      270.035   311176.579     3047.796    72918.826       19.566       19.357       53.142      384.693       52.403      331.029       -1.208      867.012
01/10/2021  04:37:00       31.497       28.475      -23.576      442.380       61.631      211.966   195699.938     3798.348    44929.698       12.334       12.221       42.461      302.038       50.600      330.939       -1.358      867.017
01/10/2021  04:38:00       11.849       35.962      -23.696      411.372       54.914      199.755   169226.786     3015.528    39902.079       10.703       10.607       37.864      283.012       55.868      330.964       -1.320      867.011
01/10/2021  04:39:00       83.589       47.912      -67.360      668.062       46.445      317.744   446306.566     2157.122   100961.225       28.151       27.471       96.347      458.488       22.646      331.221       -0.889      867.013
01/10/2021  04:40:00      -22.033       60.722      -20.395      445.462       58.273      209.193   198436.042     3395.787    43761.804       12.504       12.280       64.596      300.503       21.641      330.849       -1.507      867.008
01/10/2021  04:41:00       30.475       31.009      -33.154      553.512       53.931      265.079   306375.651     2908.579    70267.000       19.119       18.978       43.478      379.289       76.104      331.084       -1.118      866.991
01/10/2021  04:42:00      -19.637       23.120      -11.588      408.093       53.886      194.191   166540.225     2903.656    37710.209       10.406       10.358       30.334      274.364       81.810      330.861       -1.488      866.995
01/10/2021  04:43:00      -34.025       16.188      -12.611      398.882       58.415      194.526   159106.505     3412.327    37840.542       10.093       10.018       37.680      269.253       51.062      330.799       -1.591      866.992
01/10/2021  04:44:00       39.141       15.363      -30.703      528.310       57.314      256.779   279111.102     3284.861    65935.299       17.545       17.417       42.048      363.451       74.715      330.956       -1.330      866.988
01/10/2021  04:45:00      -46.453       29.259       -5.896      325.806       50.843      157.564   106149.828     2585.031    24826.563        6.828        6.678       54.900      222.090       16.365      330.754       -1.667      866.980
01/10/2021  04:46:00       18.014       41.568      -37.036      490.644       48.840      231.647   240731.238     2385.343    53660.456       15.004       14.839       45.303      333.503       54.193      330.878       -1.459      866.970
01/10/2021  04:47:00       86.557       26.290      -52.196      646.857       57.667      320.214   418424.417     3325.459   102536.734       26.749       26.214       90.461      452.019       24.968      331.155       -0.998      866.966
01/10/2021  04:48:00      -29.068       40.243        6.814      190.245       53.124       97.702    36192.985     2822.162     9545.593        2.553        2.428       49.643      125.144        6.355      330.598       -1.925      866.961
01/10/2021  04:49:00      -62.886       27.488       10.570       49.373       51.451       38.106     2437.645     2647.243     1452.051        0.568        0.327       68.632       38.460        0.314      330.596       -1.930      866.963
01/10/2021  04:50:00      -53.170       33.327       -1.585      302.692       60.518      144.839    91622.532     3662.383    20978.272        6.008        5.813       62.751      202.903       10.455      330.761       -1.655      866.984
01/10/2021  04:51:00       63.110       15.442      -11.198      469.139       55.374      220.344   220091.137     3066.239    48551.595       13.797       13.585       64.972      314.821       23.479      330.898       -1.428      867.023
01/10/2021  04:52:00       84.072       17.123      -17.124      403.736       61.933      199.574   163002.437     3835.740    39829.894       10.712       10.333       85.798      277.812       10.485      330.799       -1.593      867.039
01/10/2021  04:53:00      103.890       37.584      -38.645      566.552       50.893      266.807   320981.281     2590.100    71185.978       20.415       19.738      110.480      386.078       12.212      330.909       -1.407      867.031
01/10/2021  04:54:00       63.412       32.427       -6.577      434.823       64.029      209.441   189071.455     4099.724    43865.336       12.103       11.852       71.222      296.148       17.290      330.770       -1.638      867.018
01/10/2021  04:55:00       48.603       41.762      -38.815      502.054       55.706      241.823   252058.679     3103.168    58478.153       15.956       15.682       64.081      344.609       28.920      330.880       -1.456      867.025
01/10/2021  04:56:00      -47.387       56.739        2.105      205.815       59.521       97.351    42359.638     3542.711     9477.149        3.041        2.769       73.925      133.857        3.279      330.603       -1.918      867.038
01/10/2021  04:57:00       17.686       38.372      -37.125      495.009       52.971      234.062   245034.268     2805.959    54785.122       15.283       15.131       42.252      337.314       63.735      330.856       -1.495      867.043
01/10/2021  04:58:00      107.176       16.773      -19.716      457.249       51.764      222.743   209076.410     2679.517    49614.493       13.671       13.069      108.481      314.662        8.414      330.895       -1.432      867.049
01/10/2021  04:59:00      117.520        3.052      -26.260      502.440       47.740      242.624   252446.293     2279.130    58866.334       16.398       15.680      117.560      346.136        8.669      330.940       -1.356      867.063
01/10/2021  05:00:00       66.542       20.501       -6.856      402.103       48.546      193.656   161687.040     2356.681    37502.500       10.318       10.077       69.628      275.485       15.654      330.786       -1.613      867.065
01/10/2021  05:01:00       43.126       23.119       -6.518      363.139       55.020      180.739   131869.663     3027.188    32666.667        8.497        8.378       48.932      250.869       26.285      330.792       -1.603      867.056
01/10/2021  05:02:00      103.461       31.715      -49.838      578.868       54.319      279.047   335088.482     2950.505    77867.036       21.497       20.795      108.213      398.268       13.545      331.053       -1.168      867.050
01/10/2021  05:03:00       55.442       67.073      -57.137      644.212       46.685      302.451   415009.166     2179.460    91476.852       25.964       25.433       87.021      439.216       25.474      330.892       -1.430      867.037
01/10/2021  05:04:00      -10.938       57.769      -17.431      415.467       48.599      199.103   172613.230     2361.890    39641.937       10.915       10.731       58.796      283.503       23.250      330.554       -1.994      867.029
01/10/2021  05:05:00      -29.498       49.948      -29.962      450.614       44.494      217.307   203053.001     1979.685    47222.460       12.821       12.613       58.008      309.776       28.518      330.570       -1.966      867.026
01/10/2021  05:06:00      -50.835       51.628      -21.512      364.490       45.848      173.606   132853.051     2102.008    30138.994        8.537        8.255       72.454      248.375       11.751      330.509       -2.068      867.038
01/10/2021  05:07:00      -29.918       26.563      -29.177      395.526       41.046      190.618   156440.842     1684.801    36335.130        9.842        9.723       40.009      271.345       45.997      330.539       -2.018      867.069
01/10/2021  05:08:00       17.794       36.365       -9.527      287.166       47.670      143.481    82464.043     2272.445    20586.673        5.350        5.266       40.485      194.816       23.156      330.536       -2.025      867.113
01/10/2021  05:09:00       83.580       23.603      -22.369      369.917       46.280      176.832   136838.470     2141.807    31269.586        8.911        8.512       86.849      252.916        8.481      330.633       -1.865      867.128
01/10/2021  05:10:00      101.602       22.574      -48.737      524.682       47.514      250.567   275291.478     2257.627    62783.578       17.670       17.017      104.079      360.602       12.004      330.658       -1.819      867.120
01/10/2021  05:11:00       48.280       35.235      -38.832      469.084       39.608      224.651   220040.243     1568.819    50468.291       13.852       13.604       59.771      322.918       29.188      330.791       -1.602      867.126
01/10/2021  05:12:00      115.912       21.547      -50.001      548.041       49.819      252.902   300349.068     2481.897    63959.506       19.152       18.340      117.898      369.640        9.830      330.938       -1.357      867.174
01/10/2021  05:13:00       84.498       36.309      -17.745      404.245       45.495      195.738   163414.193     2069.829    38313.533       10.624       10.190       91.969      278.499        9.170      330.659       -1.822      867.226
01/10/2021  05:14:00       -0.374       48.564      -15.545      357.737       49.435      168.514   127975.709     2443.820    28397.030        8.068        7.941       48.565      241.315       24.690      330.592       -1.934      867.252
01/10/2021  05:15:00       24.643       28.472      -43.942      482.088       42.852      228.738   232409.129     1836.294    52321.113       14.490       14.328       37.656      330.156       76.874      330.675       -1.791      867.260
01/10/2021  05:16:00       48.692       28.090      -30.328      459.505       50.582      215.160   211145.132     2558.559    46293.836       13.199       13.000       56.214      311.064       30.620      330.700       -1.753      867.264
01/10/2021  05:17:00       77.108       16.881      -28.791      462.502       40.887      224.593   213908.444     1671.781    50442.193       13.649       13.301       78.934      320.496       16.486      330.733       -1.697      867.277
01/10/2021  05:18:00       74.952       28.350      -42.221      513.915       43.161      248.815   264108.880     1862.846    61908.917       16.797       16.394       80.135      355.752       19.709      330.774       -1.628      867.279
01/10/2021  05:19:00      124.944       30.770      -83.569      702.936       41.865      335.788   494119.294     1752.716   112753.841       31.596       30.431      128.677      483.818       14.137      331.010       -1.232      867.253
01/10/2021  05:20:00       88.763       34.580      -52.768      580.625       44.493      276.880   337125.263     1979.593    76662.269       21.373       20.788       95.261      398.714       17.518      330.871       -1.467      867.226
01/10/2021  05:21:00      110.924       27.124      -50.663      593.088       45.565      288.652   351753.530     2076.160    83320.033       22.629       21.857      114.192      411.639       12.995      330.849       -1.502      867.208
01/10/2021  05:22:00       74.893       19.636      -36.827      451.675       45.141      217.443   204010.426     2037.699    47281.287       13.029       12.666       77.424      310.955       16.130      330.687       -1.774      867.223
01/10/2021  05:23:00       96.496       19.625      -23.329      485.669       44.937      236.410   235874.065     2019.354    55889.777       15.195       14.689       98.471      336.691       11.691      330.680       -1.783      867.255
01/10/2021  05:24:00      -42.244       33.570      -19.132      348.518       54.851      170.386   121464.468     3008.615    29031.296        7.836        7.675       53.959      239.338       19.675      330.435       -2.189      867.291
01/10/2021  05:25:00       57.393       36.416      -53.386      554.523       46.112      268.167   307495.254     2126.305    71913.351       19.442       19.077       67.971      383.206       31.784      330.718       -1.720      867.314
01/10/2021  05:26:00       34.510       29.347      -13.500      389.033       46.174      190.678   151347.054     2132.073    36357.986        9.600        9.492       45.301      269.493       35.390      330.506       -2.072      867.336
01/10/2021  05:27:00       94.729       25.556      -48.967      549.320       42.897      264.971   301752.722     1840.143    70209.419       19.284       18.690       98.116      379.959       14.997      330.684       -1.774      867.333
01/10/2021  05:28:00       28.477      -30.336      -26.000      396.482       46.902      190.991   157198.342     2199.829    36477.383        9.910        9.794       41.608      271.592       42.607      330.402       -2.243      867.326
01/10/2021  05:29:00      -17.210      -30.763      -33.894      348.209       49.629      168.886   121249.414     2463.074    28522.482        7.728        7.612       35.250      239.134       46.023      330.356       -2.320      867.318
01/10/2021  05:30:00      -16.584       15.963      -13.792      340.028       51.062      164.324   115618.895     2607.357    27002.527        7.294        7.261       23.018      231.478      101.128      330.458       -2.153      867.307
01/10/2021  05:31:00      -55.487       31.823       -6.692      192.906       44.599       87.976    37212.561     1989.078     7739.821        2.553        2.347       63.965      123.008        3.698      330.332       -2.361      867.314
01/10/2021  05:32:00       -3.115       24.081      -29.503      438.292       49.921      207.584   192099.476     2492.098    43091.199       11.952       11.884       24.281      297.776      150.394      330.548       -2.004      867.329
01/10/2021  05:33:00       73.099       19.617      -44.020      568.338       47.408      272.303   323008.469     2247.483    74148.929       20.345       19.970       75.685      389.867       26.535      330.667       -1.803      867.318
01/10/2021  05:34:00      119.674       16.907      -70.592      661.089       46.232      317.953   437038.264     2137.438   101094.001       27.982       27.013      120.862      456.419       14.261      330.983       -1.279      867.283
01/10/2021  05:35:00       12.162        6.028      -19.015      380.230       45.939      187.001   144575.197     2110.407    34969.271        9.106        9.083       13.574      262.706      374.569      330.574       -1.962      867.256
01/10/2021  05:36:00       77.085       26.000      -45.750      560.231       41.687      270.926   313858.816     1737.835    73400.721       19.877       19.450       81.352      387.107       22.643      330.814       -1.561      867.274
01/10/2021  05:37:00       10.864       18.003      -42.528      510.504       40.511      240.614   260614.563     1641.182    57894.961       16.113       16.008       21.026      348.112      274.100      330.739       -1.686      867.317
01/10/2021  05:38:00      -28.457       27.439      -30.625      406.215       41.920      199.780   165010.600     1757.323    39911.914       10.455       10.334       39.531      281.528       50.718      330.593       -1.929      867.377
01/10/2021  05:39:00       22.495       23.717      -45.341      564.093       41.290      273.808   318200.660     1704.894    74971.011       19.892       19.744       32.688      390.416      142.655      330.673       -1.792      867.418
01/10/2021  05:40:00      -18.145       21.904      -24.429      443.479       42.926      215.015   196673.614     1842.658    46231.327       12.302       12.237       28.443      306.212      115.899      330.522       -2.044      867.444
01/10/2021  05:41:00      170.853       22.936      -88.829      766.953       48.570      369.580   588217.178     2359.057   136589.673       38.224       36.358      172.386      530.636        9.475      331.151       -0.997      867.440
01/10/2021  05:42:00       98.828        1.170      -53.641      585.692       41.435      279.081   343035.618     1716.885    77886.048       21.755       21.132       98.835      402.361       16.573      330.929       -1.371      867.394
01/10/2021  05:43:00       35.163        7.794      -23.648      390.755       99.668      190.187   152689.215     9933.640    36171.257       10.028        9.940       36.016      259.318       51.840      330.749       -1.675      867.355
01/10/2021  05:44:00       79.714        6.559      -48.147      599.425       43.539      285.472   359310.904     1895.682    81494.140       22.562       22.135       79.983      411.855       26.515      331.069       -1.140      867.343
01/10/2021  05:45:00      -13.434       12.418      -10.144      328.944       46.975      158.041   108204.314     2206.658    24976.930        6.788        6.769       18.294      223.749      149.595      330.789       -1.611      867.353
01/10/2021  05:46:00      -23.932      -14.495      -25.310      345.685       39.151      163.699   119498.168     1532.791    26797.348        7.460        7.391       27.979      234.343       70.151      330.701       -1.754      867.363
01/10/2021  05:47:00       61.820        6.796      -35.262      522.617       47.465      250.117   273128.069     2252.958    62558.755       17.146       16.897       62.192      358.647       33.255      330.923       -1.383      867.382
01/10/2021  05:48:00      118.017       25.089      -51.344      604.080       43.339      289.545   364912.745     1878.270    83836.337       23.382       22.531      120.655      416.639       11.924      331.045       -1.179      867.420
01/10/2021  05:49:00      -54.119       25.654      -19.392      345.779       48.959      166.009   119562.843     2396.946    27558.887        7.671        7.476       59.891      236.240       15.559      330.676       -1.794      867.463
01/10/2021  05:50:00       58.003       48.299      -64.111      639.774       41.587      303.011   409311.351     1729.498    91815.816       25.623       25.143       75.479      437.974       33.670      330.877       -1.454      867.494
01/10/2021  05:51:00       15.524       40.278      -26.903      452.804       49.196      219.151   205031.061     2420.292    48027.193       12.898       12.774       43.166      311.339       52.021      330.569       -1.967      867.501
01/10/2021  05:52:00       56.813       18.325      -30.448      468.990       47.775      229.046   219951.304     2282.486    52462.019       13.954       13.735       59.695      323.551       29.377      330.641       -1.849      867.508
01/10/2021  05:53:00       96.282        4.558      -46.767      531.313       43.407      250.560   282293.297     1884.206    62780.409       17.915       17.348       96.390      362.980       14.181      330.768       -1.639      867.514
01/10/2021  05:54:00       67.338       20.412      -22.810      427.557       40.967      208.878   182805.053     1678.313    43629.898       11.674       11.406       70.363      296.494       17.756      330.613       -1.895      867.519
01/10/2021  05:55:00      101.604       18.024      -67.547      669.149       28.775      319.043   447760.883      828.003   101788.146       28.268       27.519      103.190      460.991       19.958      330.937       -1.354      867.509
01/10/2021  05:56:00       23.678       20.839      -39.242      500.490       41.884      241.789   250490.614     1754.263    58461.696       15.656       15.535       31.542      345.336      119.868      330.787       -1.608      867.497
01/10/2021  05:57:00       32.441       17.619      -25.002      414.459       43.263      202.580   171776.231     1871.720    41038.725       10.829       10.734       36.916      286.966       60.426      330.687       -1.774      867.488
01/10/2021  05:58:00       -0.837       18.339      -16.484      334.807       38.770      161.536   112095.521     1503.086    26093.767        7.012        6.985       18.359      229.625      156.446      330.646       -1.844      867.463
01/10/2021  05:59:00       -8.562       21.768      -19.237      379.841       41.986      185.125   144278.913     1762.808    34271.149        9.058        9.016       23.391      262.364      125.809      330.657       -1.824      867.445
01/10/2021  06:00:00      -34.423       20.314      -37.821      478.526       33.846      232.644   228987.150     1145.567    54123.234       14.358       14.213       39.970      331.962       68.978      330.720       -1.717      867.470
01/10/2021  06:01:00      -43.074       14.843       -8.771      333.564       41.429      154.964   111265.203     1716.391    24013.759        6.955        6.850       45.560      223.465       24.057      330.538       -2.021      867.499
01/10/2021  06:02:00       46.602       17.584      -38.637      550.031       36.609      262.188   302534.115     1340.216    68742.809       18.822       18.631       49.809      378.492       57.744      330.818       -1.554      867.475
01/10/2021  06:03:00       -5.788        3.136       -4.145      243.856       41.338      116.467    59465.912     1708.797    13564.470        3.738        3.737        6.583      164.471      624.178      330.659       -1.825      867.444
01/10/2021  06:04:00      156.602        6.713      -69.082      629.298       42.612      304.372   396015.886     1815.758    92642.360       25.981       24.524      156.746      436.192        7.744      331.143       -1.016      867.445
01/10/2021  06:05:00      132.092        1.425      -56.808      613.040       43.164      293.424   375817.804     1863.126    86097.717       24.213       23.189      132.100      422.321       10.221      331.079       -1.125      867.456
01/10/2021  06:06:00       49.521       27.409      -51.710      559.401       32.433      267.008   312929.202     1051.889    71293.376       19.550       19.264       56.600      385.349       46.353      330.899       -1.423      867.455
01/10/2021  06:07:00       11.470       30.087      -37.531      511.891       41.172      247.276   262032.280     1695.138    61145.578       16.359       16.244       32.199      353.924      120.819      330.836       -1.526      867.467
01/10/2021  06:08:00      -15.910       26.189      -16.554      384.185       47.620      185.438   147598.487     2267.675    34387.371        9.269        9.213       30.643      264.114       74.287      330.709       -1.738      867.483
01/10/2021  06:09:00       61.203       10.113      -54.043      578.222       39.448      279.345   334340.865     1556.150    78033.625       21.026       20.697       62.033      400.376       41.657      330.973       -1.299      867.486
01/10/2021  06:10:00       71.195       15.507      -43.405      538.065       37.310      259.701   289513.486     1392.031    67444.513       18.270       17.918       72.865      371.829       26.041      330.925       -1.380      867.472
01/10/2021  06:11:00       90.692       18.846      -57.179      601.814       42.810      290.161   362180.382     1832.700    84193.372       22.993       22.410       92.629      415.781       20.148      330.969       -1.307      867.458
01/10/2021  06:12:00       76.423        6.598      -25.460      455.373       36.162      216.508   207365.006     1307.700    46875.669       13.099       12.777       76.707      312.113       16.556      330.793       -1.601      867.439
01/10/2021  06:13:00      145.037        9.818      -71.282      605.029       28.018      289.983   366060.629      785.005    84090.149       23.848       22.547      145.369      417.921        8.265      330.994       -1.265      867.421
01/10/2021  06:14:00      110.646       14.889      -65.605      606.781       34.023      291.434   368183.201     1157.554    84933.500       23.543       22.714      111.643      419.510       14.120      331.011       -1.236      867.394
01/10/2021  06:15:00       76.873       18.217      -54.797      587.505       41.043      281.264   345162.349     1684.540    79109.360       21.751       21.298       79.003      404.885       26.265      330.971       -1.302      867.380
01/10/2021  06:16:00      101.260       -6.400      -36.056      515.907       36.338      244.212   266159.932     1320.479    59639.275       16.929       16.356      101.462      353.226       12.120      330.869       -1.475      867.392
01/10/2021  06:17:00      102.570       13.811      -65.281      536.214       36.469      258.090   287524.923     1329.970    66610.504       18.515       17.773      103.495      370.787       12.835      330.846       -1.510      867.369
01/10/2021  06:18:00      113.219       37.603      -60.993      583.297       36.684      281.592   340235.056     1345.740    79294.235       21.933       21.044      119.300      404.092       11.473      330.918       -1.391      867.370
01/10/2021  06:19:00       64.030       22.651      -38.313      484.104       33.414      231.907   234356.951     1116.471    53781.044       14.761       14.463       67.918      333.880       24.166      330.750       -1.668      867.394
01/10/2021  06:20:00       81.297       25.953      -58.418      568.853       34.416      264.772   323593.639     1184.460    70104.306       20.271       19.744       85.339      386.979       20.563      330.752       -1.663      867.409
01/10/2021  06:21:00       79.855       17.555      -38.978      484.846       30.677      231.935   235075.179      941.096    53793.741       14.895       14.491       81.762      334.378       16.725      330.581       -1.946      867.400
01/10/2021  06:22:00       43.449       22.498      -34.618      456.040       34.222      220.608   207972.388     1171.145    48667.730       13.065       12.891       48.928      315.590       41.603      330.661       -1.818      867.411
01/10/2021  06:23:00       45.547       35.713      -32.815      470.774       32.642      226.087   221628.526     1065.525    51115.232       13.906       13.690       57.879      324.748       31.482      330.620       -1.882      867.456
01/10/2021  06:24:00      145.987       30.508      -72.790      674.700       30.545      323.937   455220.593      932.983   104935.337       29.420       28.054      149.140      466.669        9.791      330.751       -1.660      867.498
01/10/2021  06:25:00       29.268       29.193      -45.574      488.813       28.243      233.689   238937.710      797.673    54610.371       14.900       14.717       41.338      337.036       66.474      330.619       -1.884      867.543
01/10/2021  06:26:00       41.896       33.664      -42.554      486.825       38.487      232.561   236998.829     1481.278    54084.751       14.857       14.628       53.745      334.335       38.697      330.564       -1.975      867.566
01/10/2021  06:27:00       40.731       32.369      -28.423      402.665       39.647      192.386   162139.087     1571.891    37012.393       10.208       10.036       52.027      276.493       28.243      330.468       -2.136      867.579
01/10/2021  06:28:00       94.438       16.093      -68.388      642.685       31.956      304.840   413043.617     1021.212    92927.587       26.032       25.350       95.800      441.099       21.200      330.728       -1.700      867.614
01/10/2021  06:29:00       60.340       18.955      -53.750      555.473       30.837      268.977   308549.845      950.903    72348.721       19.429       19.092       63.247      385.310       37.114      330.550       -1.996      867.637
01/10/2021  06:30:00      -21.815       12.122      -21.982      411.673       40.420      200.706   169474.443     1633.748    40282.968       10.620       10.570       24.956      285.042      130.453      330.441       -2.177      867.652
01/10/2021  06:31:00       21.443       24.985      -69.788      643.300       39.582      307.234   413835.120     1566.728    94392.774       25.777       25.490       32.925      443.345      181.313      330.701       -1.744      867.652
01/10/2021  06:32:00       10.529        5.424       -2.961      283.334       41.627      135.503    80278.204     1732.837    18361.178        5.024        5.019       11.844      192.261      263.488      330.384       -2.275      867.644
01/10/2021  06:33:00       36.011       32.968      -38.502      513.648       36.711      244.823   263834.265     1347.716    59938.095       16.443       16.256       48.823      352.730       52.196      330.548       -2.000      867.631
01/10/2021  06:34:00       40.043       41.606      -53.845      584.396       42.300      280.193   341519.260     1789.272    78507.938       21.394       21.091       57.745      403.393       48.801      330.606       -1.902      867.628
01/10/2021  06:35:00      -29.140       27.840      -34.719      427.474       33.175      206.661   182733.847     1100.591    42708.876       11.464       11.327       40.301      295.229       53.664      330.409       -2.232      867.635
01/10/2021  06:36:00        7.688       17.338      -15.659      428.600       45.938      207.155   183697.814     2110.293    42913.349       11.462       11.436       18.966      294.526      241.144      330.469       -2.133      867.647
01/10/2021  06:37:00       97.025        8.145      -60.882      611.319       39.496      292.179   373710.810     1559.943    85368.818       23.682       23.032       97.366      421.060       18.701      330.696       -1.753      867.594
01/10/2021  06:38:00       52.386       -6.154      -33.653      453.154       33.209      218.508   205348.328     1102.844    47745.758       12.900       12.710       52.746      313.381       35.299      330.596       -1.922      867.538
01/10/2021  06:39:00      111.022       10.923      -38.448      520.270       40.384      249.978   270680.563     1630.861    62488.946       17.429       16.740      111.558      358.878       10.349      330.764       -1.645      867.519
01/10/2021  06:40:00       75.140        1.689      -34.756      480.828       33.370      230.373   231195.693     1113.567    53071.843       14.606       14.269       75.159      331.461       19.449      330.611       -1.897      867.519
01/10/2021  06:41:00      127.496        4.502      -54.954      584.731       35.005      284.624   341910.266     1225.338    81010.767       22.163       21.207      127.576      406.806       10.168      330.858       -1.487      867.546
01/10/2021  06:42:00       40.390      -13.596      -35.356      403.371      208.575      215.197   162708.102    43503.477    46309.684       12.774       12.626       42.617      248.120       33.896      330.513       -2.058      867.584
01/10/2021  06:43:00       56.710        5.793      -28.911      450.449       30.508      216.167   202904.064      930.714    46727.962       12.727       12.528       57.005      310.465       29.662      330.586       -1.938      867.641
01/10/2021  06:44:00       73.302        8.787      -43.859      507.877       27.228      245.326   257939.333      741.382    60185.074       16.305       15.943       73.826      352.078       22.743      330.616       -1.888      867.695
01/10/2021  06:45:00       88.627       18.493      -37.746      496.333       33.788      238.185   246346.061     1141.612    56732.296       15.686       15.211       90.536      342.604       14.320      330.511       -2.061      867.698
01/10/2021  06:46:00      113.632       36.804      -73.510      662.881       26.907      318.077   439410.799      723.967   101173.275       28.038       27.065      119.444      458.526       14.737      330.767       -1.634      867.700
01/10/2021  06:47:00       38.332       52.331      -25.263      420.819       31.887      198.902   177088.289     1016.764    39562.032       11.121       10.883       64.868      287.842       19.690      330.444       -2.172      867.728
01/10/2021  06:48:00      189.667       57.356      -70.563      656.106       37.298      314.916   430475.263     1391.172    99172.111       28.753       26.552      198.149      453.137        5.230      330.685       -1.769      867.732
01/10/2021  06:49:00      115.545       20.681      -42.590      509.528      108.725      250.059   259619.082    11821.186    62529.497       17.471       16.698      117.381      344.945        8.636      330.455       -2.153      867.747
01/10/2021  06:50:00      156.819       18.141      -58.275      576.288       28.167      274.334   332108.030      793.400    75259.001       21.815       20.408      157.865      396.508        6.309      330.531       -2.026      867.758
01/10/2021  06:51:00      138.322       19.532      -56.044      587.777       27.178      278.563   345481.844      738.661    77597.189       22.315       21.191      139.694      403.827        8.357      330.463       -2.137      867.778
01/10/2021  06:52:00      103.447       20.695      -37.764      494.014       29.908      238.903   244049.757      894.508    57074.444       15.722       15.101      105.497      342.508       10.541      330.362       -2.305      867.791
01/10/2021  06:53:00       95.516        6.252      -32.991      489.171       22.465      235.910   239288.400      504.663    55653.707       15.279       14.772       95.721      338.881       12.534      330.264       -2.466      867.788
01/10/2021  06:54:00      101.380       22.293      -38.819      515.273       22.575      245.746   265506.465      509.612    60390.901       16.927       16.320      103.802      355.171       11.708      330.455       -2.154      867.799
01/10/2021  06:55:00      114.886       28.284      -45.874      544.912       22.481      260.578   296929.197      505.400    67900.794       19.064       18.267      118.317      376.291       10.115      330.716       -1.723      867.798
01/10/2021  06:56:00      223.496       38.804      -80.499      730.584       28.431      350.613   533752.729      808.305   122929.364       35.758       32.875      226.839      505.419        4.964      331.016       -1.222      867.785
01/10/2021  06:57:00      113.611       38.656      -34.962      505.516       28.998      242.275   255546.868      840.893    58697.349       16.529       15.754      120.007      349.002        8.457      330.579       -1.949      867.787
01/10/2021  06:58:00       95.244       14.268      -42.116      539.104       18.256      258.188   290633.587      333.279    66661.217       18.426       17.881       96.306      372.696       14.976      330.668       -1.802      867.794
01/10/2021  06:59:00      107.801       14.837      -58.418      573.873       15.836      274.515   329330.584      250.774    75358.441       21.001       20.247      108.817      396.623       13.285      330.719       -1.716      867.789
01/10/2021  07:00:00       62.406       23.923      -40.701      475.656       31.119      228.206   226249.080      968.383    52077.958       14.265       13.965       66.835      328.385       24.141      330.548       -2.001      867.800
01/10/2021  07:01:00       47.085       21.111      -40.829      468.820       31.133      224.458   219792.445      969.248    50381.500       13.768       13.557       51.601      322.981       39.178      330.548       -2.003      867.804
01/10/2021  07:02:00       44.733       17.228      -28.767      458.932       38.391      221.062   210618.942     1473.875    48868.454       13.199       13.048       47.936      316.103       43.484      330.385       -2.269      867.799
01/10/2021  07:03:00      112.278        3.759      -53.223      545.871       30.514      262.136   297975.391      931.103    68715.484       19.146       18.381      112.341      377.233       11.276      330.390       -2.258      867.826
01/10/2021  07:04:00      -18.612       21.338      -15.807      259.567       31.755      125.221    67375.074     1008.362    15680.250        4.254        4.203       28.315      177.948       39.496      330.097       -2.746      867.851
01/10/2021  07:05:00      119.857        8.019      -63.545      607.054       29.930      291.936   368514.824      895.831    85226.768       23.646       22.732      120.125      419.949       12.222      330.474       -2.117      867.869
01/10/2021  07:06:00       33.457        2.664      -25.844      398.124       29.467      191.749   158502.465      868.317    36767.805        9.893        9.807       33.562      274.411       66.849      330.181       -2.605      867.884
01/10/2021  07:07:00       81.081       16.524      -31.307      492.714       28.835      237.833   242766.694      831.456    56564.458       15.393       15.008       82.747      341.315       17.014      330.252       -2.486      867.907
01/10/2021  07:08:00       18.468       19.619      -25.031      382.437       28.856      181.296   146258.375      832.657    32868.341        9.062        8.998       26.943      262.007       94.563      330.147       -2.661      867.926
01/10/2021  07:09:00      108.516       14.674      -58.838      613.391       22.173      292.932   376248.121      491.652    85809.179       23.890       23.127      109.503      423.299       14.943      330.401       -2.237      867.933
01/10/2021  07:10:00       96.657        1.593      -49.009      558.537       30.031      267.416   311963.990      901.852    71511.582       19.798       19.219       96.670      385.468       15.900      330.349       -2.324      867.944
01/10/2021  07:11:00       42.138       -4.518      -46.534      489.880      208.414      247.816   239982.881    43436.337    61412.988       17.432       17.242       42.380      304.233       51.534      330.371       -2.289      867.952
01/10/2021  07:12:00       -0.132       24.960      -35.217      404.689       29.555      193.738   163773.080      873.477    37534.566       10.198       10.109       24.960      278.668      124.647      330.201       -2.571      867.955
01/10/2021  07:13:00        7.309       21.052      -46.305      544.006       29.806      257.912   295942.466      888.411    66518.705       18.292       18.167       22.285      373.767      281.313      330.284       -2.432      867.964
01/10/2021  07:14:00       16.321       24.717      -45.312      495.616       26.628      236.563   245635.086      709.075    55962.215       15.256       15.115       29.619      341.169      132.674      330.222       -2.537      867.982
01/10/2021  07:15:00       34.488        2.942      -16.122      377.698       27.614      180.972   142655.410      762.523    32751.006        8.878        8.808       34.613      260.358       56.580      330.153       -2.652      868.000
01/10/2021  07:16:00       39.936       21.149      -15.836      297.493       28.847      144.740    88501.908      832.176    20949.659        5.627        5.514       45.190      205.896       20.759      330.156       -2.650      868.027
01/10/2021  07:17:00      177.721       28.786      -60.178      600.513       26.452      287.988   360615.938      699.727    82937.102       24.005       22.213      180.037      415.235        5.319      330.577       -1.950      868.058
01/10/2021  07:18:00      104.925       21.565      -31.082      482.221       29.733      231.766   232536.618      884.078    53715.574       14.973       14.357      107.119      333.255        9.679      330.375       -2.285      868.082
01/10/2021  07:19:00       75.022       17.155      -29.736      431.372       27.155      206.490   186081.512      737.373    42637.919       11.808       11.473       76.959      297.567       14.951      330.344       -2.337      868.090
01/10/2021  07:20:00      120.587       -3.889      -66.334      631.879       29.694      298.257   399270.741      881.714    88957.295       25.393       24.455      120.649      433.397       12.904      330.548       -1.995      868.093
01/10/2021  07:21:00       49.397       -0.926      -17.472      420.427       27.702      202.038   176758.532      767.415    40819.206       11.050       10.917       49.406      289.724       34.389      330.130       -2.688      868.094
01/10/2021  07:22:00       15.004       -4.107      -12.516      246.184       30.417      118.744    60606.644      925.218    14100.188        3.800        3.782       15.556      168.953      117.958      330.134       -2.685      868.074
01/10/2021  07:23:00       93.633       22.779      -53.432      579.874       28.089      279.084   336254.273      789.017    77888.125       21.345       20.747       96.364      401.609       17.369      330.467       -2.129      868.062
01/10/2021  07:24:00       45.597       -3.460      -34.515      411.676       30.974      196.228   169477.327      959.367    38505.599       10.607       10.447       45.728      282.818       38.251      330.333       -2.356      868.047
01/10/2021  07:25:00       20.033       -5.924      -21.705      372.220       30.310      178.956   138547.610      918.679    32025.314        8.616        8.575       20.891      256.423      150.665      330.285       -2.436      868.030
01/10/2021  07:26:00       83.793       13.796      -40.929      494.242       30.107      238.592   244275.130      906.430    56926.313       15.543       15.105       84.921      342.126       16.231      330.467       -2.134      868.003
01/10/2021  07:27:00       28.963       19.139      -34.041      431.109       25.130      205.971   185854.742      631.517    42424.161       11.559       11.446       34.715      297.202       73.293      330.332       -2.356      867.978
01/10/2021  07:28:00       79.731       19.102      -58.171      567.303       27.927      271.301   321832.166      779.900    73604.265       20.308       19.811       81.987      391.337       22.783      330.517       -2.049      867.959
01/10/2021  07:29:00       56.763        8.213      -15.021      340.057       32.539      164.431   115639.061     1058.760    27037.684        7.360        7.187       57.354      234.850       16.767      330.178       -2.612      867.946
01/10/2021  07:30:00       73.199       15.249      -22.497      425.135       31.573      204.134   180740.183      996.859    41670.857       11.471       11.170       74.771      293.383       15.396      330.273       -2.455      867.937
01/10/2021  07:31:00       77.988       14.756      -35.322      448.037       30.822      215.340   200737.401      950.017    46371.237       12.775       12.403       79.372      309.498       15.205      330.476       -2.121      867.928
01/10/2021  07:32:00      126.042       19.288      -48.244      576.579       39.896      275.140   332443.780     1591.702    75701.907       21.408       20.487      127.509      396.940        9.691      330.741       -1.679      867.903
01/10/2021  07:33:00      256.276      -66.966      -84.350      621.314       61.867      294.502   386030.675     3827.580    86731.273       27.683       23.829      264.881      425.549        2.581      331.085       -1.114      867.881
01/10/2021  07:34:00      222.932      -96.638      -60.379      496.818       46.940      238.908   246828.144     2203.365    57077.019       18.433       15.305      242.977      342.316        1.985      330.940       -1.357      867.855
01/10/2021  07:35:00      149.572     -120.270      -24.268      302.593       65.525      142.076    91562.244     4293.508    20185.528        7.671        5.802      191.929      202.887        1.117      330.819       -1.562      867.853
01/10/2021  07:36:00       91.593      -39.864      -13.895      369.432       66.230      177.394   136479.661     4386.399    31468.521        9.122        8.617       99.892      250.901        6.309      330.844       -1.518      867.858
01/10/2021  07:37:00      133.540      -36.900      -38.769      534.415       57.045      252.500   285599.043     3254.163    63756.010       18.658       17.630      138.545      362.575        6.849      331.063       -1.154      867.861
01/10/2021  07:38:00      167.780       44.110      -61.235      699.503       54.606      322.017   489304.530     2981.774   103694.934       31.479       29.799      173.482      471.909        7.400      331.097       -1.090      867.869
01/10/2021  07:39:00      104.589       26.046      -16.027      514.052       53.353      243.273   264249.381     2846.539    59181.606       16.901       16.314      107.784      350.784       10.592      330.876       -1.460      867.885
01/10/2021  07:40:00       76.265       29.927      -22.918      472.229       55.111      227.259   223000.028     3037.199    51646.590       14.240       13.884       81.927      324.424       15.681      330.847       -1.511      867.893
01/10/2021  07:41:00       99.802       39.551      -24.279      519.513       53.644      240.960   269893.421     2877.729    58061.738       17.141       16.542      107.353      350.868       10.682      330.898       -1.425      867.900
01/10/2021  07:42:00       53.862       44.642       -5.527      367.060       58.053      180.297   134733.397     3370.167    32507.132        8.773        8.531       69.958      252.691       13.047      330.772       -1.636      867.932
01/10/2021  07:43:00      155.237       36.271      -52.365      593.275       58.338      278.660   351975.167     3403.369    77651.305       23.050       21.651      159.418      403.474        6.406      331.004       -1.249      867.978
01/10/2021  07:44:00       58.108        1.297       -7.171      353.449       53.215      173.613   124925.846     2831.822    30141.473        8.063        7.895       58.122      242.683       17.434      330.720       -1.721      868.002
01/10/2021  07:45:00       73.342       37.596      -33.639      495.657       66.965      238.199   245675.669     4484.309    56738.910       15.735       15.345       82.416      340.691       17.088      330.896       -1.428      868.014
01/10/2021  07:46:00       99.891       26.360      -22.212      501.102       52.969      240.803   251103.092     2805.714    57985.889       16.147       15.595      103.311      344.120       11.095      330.922       -1.385      868.059
01/10/2021  07:47:00      144.500       31.631      -49.022      610.869       49.673      290.184   373160.969     2467.424    84206.845       24.197       22.992      147.922      418.978        8.023      331.022       -1.217      868.088
01/10/2021  07:48:00      154.986       22.795      -32.324      492.061       52.791      234.831   242124.428     2786.846    55145.418       16.276       15.003      156.653      337.211        4.634      330.894       -1.433      868.074
01/10/2021  07:49:00      126.456       -3.303      -37.236      493.388       45.090      239.856   243432.026     2033.136    57530.948       16.013       15.150      126.499      341.466        7.286      330.929       -1.377      868.099
01/10/2021  07:50:00      123.135        5.098      -37.530      522.879       43.156      253.118   273402.711     1862.453    64068.734       17.789       16.967      123.240      361.841        8.620      331.021       -1.222      868.152
01/10/2021  07:51:00      168.665       41.364      -31.890      514.001       49.557      243.665   264196.992     2455.872    59372.743       17.853       16.301      173.663      351.698        4.101      330.748       -1.671      868.184
01/10/2021  07:52:00      112.364       66.553      -11.539      354.444       49.366      169.760   125630.758     2437.008    28818.463        8.700        7.844      130.595      241.675        3.425      330.620       -1.887      868.210
01/10/2021  07:53:00      131.323       34.428      -49.180      571.438       45.178      277.442   326540.990     2041.072    76974.217       21.312       20.278      135.761      396.376        8.524      330.852       -1.498      868.230
01/10/2021  07:54:00      126.054       34.191      -45.865      548.171       41.514      263.663   300491.843     1723.419    69517.967       19.537       18.587      130.609      378.577        8.402      330.863       -1.481      868.237
01/10/2021  07:55:00       67.660       23.369      -20.383      376.447       49.429      182.019   141712.384     2443.257    33131.080        9.138        8.864       71.582      258.729       13.064      330.661       -1.818      868.228
01/10/2021  07:56:00       51.016       19.627      -27.331      392.673       32.550      189.502   154192.453     1059.477    35910.845        9.741        9.558       54.661      271.320       24.638      330.552       -1.996      868.206
01/10/2021  07:57:00       40.541       14.919      -30.028      464.638       26.493      222.494   215888.837      701.903    49503.760       13.438       13.305       43.199      320.461       55.031      330.540       -2.014      868.188
01/10/2021  07:58:00       28.958       -0.402      -15.217      344.668       27.152      159.321   118795.946      737.254    25383.060        7.296        7.246       28.961      232.912       64.680      330.512       -2.064      868.166
01/10/2021  07:59:00      -18.376       11.150      -18.438      308.237       30.918      150.187    95010.073      955.913    22556.170        5.964        5.926       21.494      212.605       97.840      330.479       -2.119      868.150
01/10/2021  08:00:00       58.056       -4.122      -41.213      529.403       37.553      253.205   280267.957     1410.203    64112.836       17.537       17.290       58.202      363.671       39.043      330.755       -1.660      868.137
01/10/2021  08:01:00      -42.955        6.404      -20.853      376.845       49.839      180.529   142012.306     2483.912    32590.891        8.967        8.854       43.430      256.515       34.886      330.540       -2.018      868.112
01/10/2021  08:02:00      -46.453        1.589        3.562      178.566       38.877       82.692    31885.749     1511.438     6838.043        2.120        2.012       46.480      112.564        5.865      330.365       -2.307      868.096
01/10/2021  08:03:00      -22.360        2.892      -20.679      329.811       40.352      156.144   108775.108     1628.270    24380.794        6.783        6.739       22.546      221.998       96.951      330.548       -2.005      868.099
01/10/2021  08:04:00        5.259       16.606      -26.621      474.431       40.676      223.432   225085.100     1654.527    49921.970       13.878       13.833       17.419      323.707      345.346      330.628       -1.871      868.109
01/10/2021  08:05:00      111.502       17.580      -57.730      556.388       26.387      263.305   309567.070      696.263    69329.621       19.775       18.980      112.880      381.874       11.445      330.848       -1.506      868.097
01/10/2021  08:06:00       17.056       -4.328      -14.994      239.808       27.836      116.101    57507.834      774.834    13479.478        3.613        3.588       17.597      165.489       88.444      330.642       -1.852      868.102
01/10/2021  08:07:00       49.732       27.698      -42.208      496.955       26.311      238.931   246964.086      692.251    57088.012       15.482       15.237       56.925      343.406       36.392      330.760       -1.652      868.116
01/10/2021  08:08:00       39.810       27.084      -30.097      400.892       18.237      191.876   160714.615      332.581    36816.590       10.050        9.893       48.149      276.377       32.948      330.718       -1.724      868.112
01/10/2021  08:09:00      130.764       21.819      -56.129      539.785       12.144      257.479   291367.841      147.468    66295.307       18.919       17.891      132.572      372.411        7.891      331.038       -1.193      868.119
01/10/2021  08:10:00       17.359       17.083       -1.866      192.739       16.692       93.717    37148.464      278.617     8782.813        2.339        2.310       24.355      133.936       30.242      330.768       -1.645      868.166
01/10/2021  08:11:00       24.481       22.576      -19.728      353.961       14.782      172.625   125288.278      218.496    29799.347        7.837        7.765       33.302      246.295       54.698      330.852       -1.505      868.222
01/10/2021  08:12:00        7.648       41.520      -14.613      300.700       31.073      142.822    90420.228      965.537    20398.188        5.687        5.589       42.219      205.990       23.806      330.745       -1.681      868.276
01/10/2021  08:13:00       29.932       58.516      -23.291      335.715       23.183      158.668   112704.750      537.474    25175.512        7.161        6.921       65.727      230.299       12.277      330.805       -1.582      868.301
01/10/2021  08:14:00       54.422       54.444      -25.689      377.112       32.893      180.701   142213.667     1081.948    32652.781        9.123        8.797       76.980      260.077       11.414      330.927       -1.382      868.289
01/10/2021  08:15:00       61.426       39.929       -7.372      137.073       17.115       64.922    18788.919      292.911     4214.891        1.435        1.165       73.263       92.554        1.596      330.810       -1.578      868.273
01/10/2021  08:16:00       68.036       37.018       -9.979       27.307       21.641       12.903      745.676      468.339      166.497        0.374        0.069       77.455       10.587        0.019      330.665       -1.818      868.264
01/10/2021  08:17:00       44.281       40.995        3.153       44.880       25.442       22.285     2014.203      647.286      496.608        0.340        0.158       60.344       27.533        0.208      330.806       -1.584      868.257
01/10/2021  08:18:00       20.900       57.000       -2.098      156.178       28.911       73.367    24391.418      835.821     5382.698        1.714        1.530       60.710      105.901        3.043      330.915       -1.405      868.247
01/10/2021  08:19:00       59.107       53.207      -44.483      452.561       20.672      216.876   204811.115      427.330    47034.993       13.023       12.614       79.528      312.699       15.460      331.115       -1.069      868.237
01/10/2021  08:20:00      -40.007       28.268      -18.949      176.073       12.027       83.930    31001.714      144.658     7044.180        2.047        1.910       48.985      120.911        6.093      330.763       -1.655      868.247
01/10/2021  08:21:00      -84.868       31.930      -13.256       43.399       17.876       19.124     1883.494      319.554      365.709        0.548        0.128       90.676       17.497        0.037      330.672       -1.806      868.270
01/10/2021  08:22:00      -86.219       24.083      -20.431      237.324       22.130      110.230    56322.638      489.715    12150.706        3.868        3.448       89.520      158.919        3.151      330.722       -1.722      868.286
01/10/2021  08:23:00      -97.051       38.656       -9.545      232.341       21.388      110.644    53982.179      457.452    12242.169        3.883        3.334      104.466      157.052        2.260      330.716       -1.732      868.292
01/10/2021  08:24:00     -121.782       32.552       -0.539       43.256       30.073       24.900     1871.105      904.393      620.030        0.964        0.170      126.057       17.012        0.018      330.705       -1.752      868.315
01/10/2021  08:25:00     -119.255       52.168      -18.916      214.984       25.265      101.578    46217.941      638.329    10318.148        3.723        2.859      130.166      146.084        1.260      330.736       -1.700      868.318
01/10/2021  08:26:00        4.569        5.834      -22.132      305.967       33.541      145.883    93615.680     1124.980    21281.970        5.826        5.801        7.410      208.515      791.841      330.980       -1.297      868.316
01/10/2021  08:27:00      -99.843        9.320      -15.951      154.595       32.914       72.653    23899.634     1083.306     5278.454        2.028        1.513      100.277      101.420        1.023      330.799       -1.595      868.334
01/10/2021  08:28:00      -80.058       33.929       -9.652      136.622       33.042       63.467    18665.566     1091.768     4028.067        1.571        1.189       86.951       87.521        1.013      330.809       -1.580      868.347
01/10/2021  08:29:00     -111.066       62.598      -11.268       28.852       16.414       17.670      832.426      269.435      312.216        0.890        0.071      127.492       14.163        0.012      330.783       -1.623      868.364
01/10/2021  08:30:00      -87.545       46.513       -9.109       34.423       22.200       18.380     1184.916      492.826      337.821        0.596        0.101       99.134       18.744        0.036      330.842       -1.525      868.378
01/10/2021  08:31:00      -47.813       26.727      -18.726      156.159       16.911       73.347    24385.631      285.973     5379.746        1.669        1.503       54.777      104.346        3.629      330.954       -1.340      868.367
01/10/2021  08:32:00      -53.893        5.856       -2.467       62.091       40.538       29.962     3855.261     1643.308      897.711        0.467        0.320       54.210       27.594        0.259      331.023       -1.230      868.360
01/10/2021  08:33:00     -122.992        8.758       -3.132       36.757       23.760       16.902     1351.083      564.545      285.676        0.871        0.110      123.303        8.783        0.005      330.935       -1.373      868.356
01/10/2021  08:34:00     -113.932      -17.700      -13.687       37.151       18.968       19.222     1380.187      359.782      369.490        0.779        0.105      115.299       13.187        0.013      331.006       -1.258      868.355
01/10/2021  08:35:00      -85.096      -16.031      -10.247       36.458       37.421       16.806     1329.210     1400.312      282.436        0.531        0.151       86.593        5.883        0.005      331.021       -1.233      868.351
01/10/2021  08:36:00      -82.206      -33.645      -10.515       35.557       22.835       18.460     1264.285      521.437      340.778        0.506        0.106       88.825       14.668        0.027      331.108       -1.091      868.364
01/10/2021  08:37:00      -56.322       -6.678       -4.848       42.201       25.176       19.400     1780.959      633.813      376.357        0.302        0.140       56.716       11.852        0.044      331.267       -0.827      868.346
01/10/2021  08:38:00      -13.498       -1.946       -6.200       35.619       12.506       18.100     1268.698      156.394      327.597        0.099        0.088       13.637       21.718        2.536      331.338       -0.711      868.327
01/10/2021  08:39:00      -41.192       -6.871       -8.037       72.281       18.349       19.345     5224.551      336.690      374.211        0.387        0.297       41.761       13.713        0.108      331.278       -0.809      868.334
01/10/2021  08:40:00      -37.871      -14.401       -5.265       42.032       23.975       27.686     1766.650      574.806      766.516        0.239        0.155       40.516       12.307        0.092      331.362       -0.671      868.352
01/10/2021  08:41:00      -13.430       -8.783       -5.024       47.055       28.109       24.370     2214.188      790.114      593.921        0.194        0.180       16.047       22.988        2.052      331.352       -0.687      868.366
01/10/2021  08:42:00      -23.641       -8.910        2.825       40.562       23.498       20.362     1645.273      552.147      414.623        0.163        0.131       25.264       11.124        0.194      331.576       -0.320      868.376
01/10/2021  08:43:00      -65.945       -0.582       -3.583       41.297       19.411       20.128     1705.465      376.768      405.125        0.342        0.124       65.947       18.989        0.083      331.280       -0.804      868.385
01/10/2021  08:44:00        1.193        0.367        7.180       28.539       14.027       15.099      814.446      196.765      227.987        0.065        0.062        1.249       15.204      148.286      331.608       -0.267      868.410
01/10/2021  08:45:00      -14.829        6.197       -6.814       39.827        9.816       19.807     1586.178       96.348      392.315        0.119        0.104       16.072       23.673        2.169      331.453       -0.523      868.434
01/10/2021  08:46:00       -3.186        3.338      -10.381       44.301        9.279       19.518     1962.616       86.095      380.963        0.128        0.121        4.614       26.355       32.620      331.603       -0.276      868.463
01/10/2021  08:47:00        9.311       -6.555      -18.420       36.552        9.151       18.916     1336.047       83.745      357.821        0.112        0.089       11.387       24.090        4.476      331.869        0.163      868.477
01/10/2021  08:48:00       -1.522       19.056       -8.258       34.566       16.781       17.680     1194.817      281.610      312.577        0.111        0.089       19.117       20.766        1.180      331.667       -0.171      868.487
01/10/2021  08:49:00       37.717       53.109       -0.621       31.257       13.748       16.889      976.983      189.002      285.222        0.285        0.073       65.140       17.749        0.074      331.753       -0.028      868.497
01/10/2021  08:50:00       62.369       65.129       -2.636       33.821       26.547       20.066     1143.856      704.744      402.660        0.519        0.113       90.176       16.048        0.032      331.807        0.058      868.493
01/10/2021  08:51:00       59.950       28.773       -6.294       37.315       31.742       21.179     1392.387     1007.535      448.556        0.365        0.142       66.497       14.788        0.049      331.861        0.150      868.511
01/10/2021  08:52:00       52.633       29.497      -10.656       39.379       22.031       21.808     1550.702      485.374      475.589        0.313        0.126       60.335       24.352        0.163      331.695       -0.123      868.536
01/10/2021  08:53:00       58.242       34.238       -9.446       29.564       15.285       18.092      874.050      233.627      327.321        0.304        0.072       67.560       19.465        0.083      331.614       -0.257      868.531
01/10/2021  08:54:00       73.909       54.047      -19.441       30.477       20.726       20.259      928.835      429.573      410.441        0.526        0.088       91.562       20.032        0.048      331.529       -0.399      868.541
01/10/2021  08:55:00       47.101       41.182      -19.009       36.497       13.839       19.859     1332.004      191.505      394.386        0.310        0.096       62.565       23.109        0.136      331.622       -0.243      868.562
01/10/2021  08:56:00       54.599       48.764      -14.414       39.792       14.322       20.397     1583.395      205.113      416.038        0.389        0.110       73.205       24.055        0.108      331.669       -0.167      868.573
01/10/2021  08:57:00       53.057       47.181      -12.425       45.753       23.364       29.019     2093.307      545.881      842.095        0.434        0.174       71.001       31.541        0.197      331.800        0.049      868.562
01/10/2021  08:58:00       29.638       77.746      -10.749       44.349       24.277       22.381     1966.792      589.375      500.926        0.505        0.153       83.204       27.862        0.112      332.085        0.518      868.553
01/10/2021  08:59:00       10.444       86.066       -3.987       47.269       37.611       27.897     2234.353     1414.606      778.254        0.598        0.221       86.697       26.976        0.097      332.034        0.433      868.565
01/10/2021  09:00:00       23.160       51.760      -10.134       60.779       31.541       31.751     3694.138      994.827     1008.129        0.451        0.285       56.706       35.534        0.393      332.066        0.487      868.571
01/10/2021  09:01:00      -10.889       29.309      -11.539       52.669       23.204       28.430     2774.020      538.431      808.284        0.261        0.206       31.267       32.072        1.052      331.833        0.103      868.571
01/10/2021  09:02:00       -0.229       31.952      -14.936       53.985       16.769       26.452     2914.432      281.208      699.687        0.257        0.195       31.953       35.051        1.203      331.940        0.279      868.555
01/10/2021  09:03:00        4.363        1.186       -3.374       52.479       22.367       27.833     2754.004      500.264      774.671        0.203        0.201        4.522       34.702       58.902      332.143        0.613      868.530
01/10/2021  09:04:00       48.899       22.753      -13.329       54.667       30.424       34.480     2988.492      925.621     1188.848        0.409        0.255       53.933       36.254        0.452      332.076        0.504      868.515
01/10/2021  09:05:00        2.236       -0.599      -11.281       51.198       14.977       26.425     2621.229      224.306      698.262        0.184        0.177        2.315       31.789      188.621      332.162        0.646      868.512
01/10/2021  09:06:00      -18.057      -20.086      -16.654       50.217       14.777       29.113     2521.797      218.351      847.561        0.230        0.179       27.010       28.829        1.139      332.007        0.389      868.509
01/10/2021  09:07:00      -54.637        5.581       -8.954       45.241       19.136       27.086     2046.728      366.178      733.628        0.312        0.157       54.921       21.320        0.151      331.931        0.264      868.515
01/10/2021  09:08:00      -27.199        6.014      -11.721       38.480       15.779       20.211     1480.719      248.974      408.467        0.153        0.107       27.856       20.087        0.520      331.961        0.315      868.532
01/10/2021  09:09:00      -15.921        4.847       -8.461       54.222       30.156       26.864     2940.013      909.374      721.671        0.246        0.229       16.643       27.189        2.669      332.059        0.476      868.570
01/10/2021  09:10:00      -28.464      -10.433      -11.898       69.670       36.292       33.883     4853.867     1317.138     1148.032        0.419        0.366       30.316       25.394        0.702      332.290        0.856      868.610
01/10/2021  09:11:00      -35.985      -15.885      -10.550       68.724       30.097       27.747     4723.030      905.816      769.871        0.403        0.320       39.335       28.934        0.541      332.177        0.669      868.638
01/10/2021  09:12:00      -59.657      -20.192        1.045       59.708       25.441       32.412     3565.064      647.253     1050.518        0.461        0.263       62.981       16.931        0.072      332.115        0.569      868.642
01/10/2021  09:13:00      -43.620       -3.803      -13.002       54.912       19.057       27.234     3015.300      363.179      741.707        0.310        0.206       43.785       35.029        0.640      332.051        0.462      868.634
01/10/2021  09:14:00      -33.527      -36.390      -28.906       47.435       16.324       25.465     2250.117      266.472      648.486        0.322        0.158       49.480       32.601        0.434      332.131        0.595      868.639
01/10/2021  09:15:00      -13.549      -12.960      -11.871       47.114       14.249       22.511     2219.750      203.044      506.757        0.171        0.146       18.749       22.056        1.384      332.336        0.932      868.646
01/10/2021  09:16:00       -8.246      -10.062       -1.955       44.497       20.040       25.549     1979.993      401.611      652.741        0.160        0.152       13.009       25.443        3.825      332.502        1.206      868.632
01/10/2021  09:17:00        5.981        4.637      -12.024       49.856       25.621       26.386     2485.585      656.412      696.200        0.202        0.192        7.568       31.418       17.234      332.331        0.923      868.604
01/10/2021  09:18:00       -9.303       24.189       -7.749       36.632       16.807       21.857     1341.931      282.472      477.745        0.142        0.105       25.916       23.598        0.829      332.142        0.613      868.582
01/10/2021  09:19:00        5.777       -9.842       -5.156       44.667       25.381       24.643     1995.177      644.215      607.264        0.170        0.162       11.412       28.612        6.286      332.405        1.046      868.578
01/10/2021  09:20:00      -39.040      -23.245      -12.355       46.510       23.952       26.660     2163.134      573.680      710.741        0.283        0.172       45.436       25.495        0.315      332.285        0.848      868.575
01/10/2021  09:21:00      -23.625       -5.861       -6.775       48.222       20.030       25.793     2325.330      401.181      665.282        0.201        0.170       24.341       24.867        1.044      332.396        1.032      868.565
01/10/2021  09:22:00       -4.643      -20.972      -29.476       71.379       26.761       28.334     5094.942      716.151      802.809        0.397        0.331       21.480       33.885        2.489      332.323        0.911      868.571
01/10/2021  09:23:00        8.659       12.773       -4.988       43.726       39.882       33.173     1911.960     1590.539     1100.451        0.243        0.230       15.431       29.046        3.543      332.471        1.155      868.589
01/10/2021  09:24:00       18.301       49.046      -18.650       55.885       18.863       28.133     3123.188      355.813      791.443        0.368        0.214       52.349       33.447        0.408      332.366        0.983      868.611
01/10/2021  09:25:00       18.650       31.591      -10.071       55.591       27.751       29.478     3090.308      770.099      868.930        0.309        0.236       36.686       30.914        0.710      332.511        1.222      868.632
01/10/2021  09:26:00      -38.718      -12.729      -12.731       55.478       40.219       28.872     3077.854     1617.529      833.612        0.367        0.276       40.756       32.291        0.628      332.341        0.940      868.630
01/10/2021  09:27:00      -14.621        8.172       -3.183       54.041       21.370       21.872     2920.454      456.678      478.367        0.207        0.193       16.750       23.125        1.906      332.231        0.760      868.625
01/10/2021  09:28:00        9.648        4.933       -7.944       53.880       35.118       32.630     2903.018     1233.272     1064.713        0.269        0.260       10.836       27.793        6.578      332.540        1.269      868.632
01/10/2021  09:29:00       -6.128       18.600      -21.992       36.753       21.499       19.197     1350.784      462.226      368.531        0.152        0.109       19.583       23.902        1.490      332.449        1.118      868.655
01/10/2021  09:30:00       18.462      -14.017      -16.014       58.896       53.561       34.494     3468.705     2868.775     1189.819        0.416        0.376       23.180       34.229        2.180      332.446        1.115      868.669
01/10/2021  09:31:00      -42.245      -54.235      -21.475       62.949       39.459       37.591     3962.577     1557.002     1413.074        0.606        0.347       68.747       32.477        0.223      332.403        1.041      868.669
01/10/2021  09:32:00      -33.823       -9.862      -13.286       36.738       23.939       20.263     1349.653      573.086      410.571        0.188        0.117       35.232       19.312        0.300      332.412        1.058      868.675
01/10/2021  09:33:00      -10.349      -40.928      -17.106       60.304       34.498       33.127     3636.577     1190.122     1097.388        0.400        0.296       42.217       27.547        0.426      332.636        1.428      868.687
01/10/2021  09:34:00       -4.322      -14.177      -21.418       45.148       30.557       25.389     2038.329      933.757      644.626        0.215        0.181       14.821       25.129        2.875      332.651        1.452      868.712
01/10/2021  09:35:00      -16.126       10.969        3.326       35.608       16.447       19.195     1267.916      270.516      368.458        0.115        0.095       19.503        9.621        0.243      332.587        1.347      868.733
01/10/2021  09:36:00      -23.858       10.695       -0.617       38.985       15.689       17.644     1519.855      246.136      311.301        0.138        0.104       26.145       17.778        0.462      332.454        1.128      868.732
01/10/2021  09:37:00      -18.797       -2.899       -7.022       26.907       19.114       13.000      723.986      365.357      169.010        0.083        0.063       19.019        9.718        0.261      332.535        1.259      868.718
01/10/2021  09:38:00        8.240        6.426       -8.758       33.106       13.582       19.511     1095.989      184.459      380.696        0.092        0.083       10.450       20.844        3.979      332.851        1.783      868.706
01/10/2021  09:39:00      -15.185        0.002      -12.225       36.407       19.443       19.749     1325.445      378.026      390.040        0.124        0.105       15.185       17.364        1.308      332.675        1.492      868.713
01/10/2021  09:40:00      100.431       -9.030      -26.112       74.428       55.162       41.065     5539.483     3042.855     1686.375        1.056        0.513      100.836       48.089        0.227      332.641        1.436      868.733
01/10/2021  09:41:00      -11.560       -0.957       -2.757       40.312       28.767       27.588     1625.058      827.526      761.084        0.168        0.161       11.600       22.417        3.735      332.728        1.579      868.743
01/10/2021  09:42:00       33.602       15.405       -6.424       69.469       27.907       30.442     4825.895      778.791      926.727        0.397        0.327       36.965       39.332        1.132      332.657        1.463      868.745
01/10/2021  09:43:00       28.071      -30.346      -15.973       47.950       25.332       26.680     2299.234      641.700      711.808        0.281        0.183       41.338       25.948        0.394      332.817        1.727      868.726
01/10/2021  09:44:00       75.551      -11.342      -30.922       79.907       55.555       35.501     6385.203     3086.362     1260.319        0.876        0.537       76.397       35.437        0.215      332.734        1.589      868.683
01/10/2021  09:45:00       62.142      -50.260      -28.593       72.474       59.143       30.043     5252.502     3497.932      902.594        0.843        0.483       79.923       37.430        0.219      332.860        1.798      868.643
01/10/2021  09:46:00       81.782      -68.900      -27.418       72.778       49.304       32.469     5296.578     2430.840     1054.238        1.048        0.439      106.937       39.964        0.140      332.700        1.535      868.621
01/10/2021  09:47:00       40.621      -66.877       -7.073       68.306       71.164       40.864     4665.758     5064.314     1669.848        0.878        0.570       78.247       44.224        0.319      333.036        2.088      868.613
01/10/2021  09:48:00       43.537      -51.337      -27.362       57.406       48.324       35.363     3295.501     2335.235     1250.573        0.608        0.344       67.313       37.149        0.305      333.074        2.152      868.623
01/10/2021  09:49:00      108.699     -103.869      -38.104       69.847       43.045       31.872     4878.658     1852.875     1015.801        1.590        0.387      150.347       35.099        0.055      332.572        1.323      868.660
01/10/2021  09:50:00       65.950      -32.299      -25.074       51.626       28.224       28.610     2665.203      796.608      818.521        0.515        0.214       73.435       35.656        0.236      332.599        1.367      868.709
01/10/2021  09:51:00       81.274       12.575      -22.038       60.084       60.874       34.240     3610.047     3705.600     1172.360        0.787        0.424       82.241       35.807        0.190      332.997        2.024      868.727
01/10/2021  09:52:00      119.399       -8.314      -30.500       64.202       43.716       33.029     4121.938     1911.128     1090.939        1.119        0.356      119.689       38.684        0.104      332.673        1.488      868.721
01/10/2021  09:53:00       42.689      -33.919      -15.312       62.545       32.323       35.770     3911.899     1044.751     1279.471        0.472        0.312       54.524       41.112        0.569      333.180        2.327      868.726
01/10/2021  09:54:00       86.226       28.497      -25.094       69.394       51.761       41.107     4815.500     2679.184     1689.824        0.903        0.459       90.813       43.114        0.225      333.059        2.126      868.744
01/10/2021  09:55:00      124.986       56.535      -15.453       95.849       66.304       44.264     9187.044     4396.238     1959.287        1.730        0.777      137.178       48.101        0.123      332.991        2.012      868.747
01/10/2021  09:56:00      128.401       26.306      -13.880       88.662       69.032       49.348     7860.897     4765.349     2435.253        1.621        0.753      131.068       49.734        0.144      332.879        1.828      868.756
01/10/2021  09:57:00       86.328       -5.659      -12.442       80.557       50.836       44.070     6489.380     2584.323     1942.171        0.933        0.551       86.514       48.431        0.313      333.022        2.066      868.754
01/10/2021  09:58:00      149.195       12.433      -23.267       86.302       59.544       51.162     7448.110     3545.546     2617.549        1.828        0.681      149.712       51.674        0.119      332.825        1.739      868.763
01/10/2021  09:59:00       63.375      -11.714      -13.593       65.851       56.538       43.869     4336.389     3196.508     1924.531        0.690        0.473       64.449       41.128        0.407      333.136        2.254      868.751
01/10/2021  10:00:00      104.470      -21.123      -29.934       59.556       39.524       30.953     3546.956     1562.157      958.093        0.916        0.303      106.584       35.294        0.110      332.874        1.820      868.714
01/10/2021  10:01:00      107.796      -38.931      -31.055       73.163       76.404       37.213     5352.858     5837.606     1384.771        1.333        0.629      114.611       44.890        0.153      332.794        1.688      868.672
01/10/2021  10:02:00      145.896      -59.372      -37.587       90.617       60.330       42.897     8211.508     3639.726     1840.177        1.995        0.685      157.514       51.029        0.105      332.807        1.709      868.667
01/10/2021  10:03:00       86.561      -22.686      -19.871       69.347       60.294       39.712     4809.048     3635.385     1577.036        0.921        0.501       89.485       42.351        0.224      333.015        2.054      868.691
01/10/2021  10:04:00      125.383       65.423      -27.089       69.420       55.099       36.358     4819.106     3035.871     1321.898        1.495        0.459      141.425       39.589        0.078      332.754        1.622      868.718
01/10/2021  10:05:00      108.663       81.264      -21.791       60.542       42.817       35.083     3665.299     1833.301     1230.833        1.281        0.336      135.689       37.081        0.075      333.038        2.091      868.742
01/10/2021  10:06:00      167.799       71.361      -28.748       66.492       38.018       35.433     4421.205     1445.363     1255.532        2.060        0.356      182.343       40.916        0.050      332.714        1.555      868.759
01/10/2021  10:07:00      153.724       49.299      -36.030       83.502       58.678       33.241     6972.581     3443.059     1104.993        1.944        0.576      161.436       42.546        0.069      332.808        1.712      868.734
01/10/2021  10:08:00      141.287       54.770      -31.609       68.416       32.297       31.886     4680.774     1043.090     1016.747        1.535        0.337      151.532       41.571        0.075      332.727        1.577      868.715
01/10/2021  10:09:00      126.563       45.054      -26.914       73.674       36.210       33.939     5427.839     1311.145     1151.838        1.333        0.395      134.343       41.426        0.095      332.904        1.871      868.714
01/10/2021  10:10:00      123.299       55.129      -31.561       47.267       17.663       22.943     2234.125      311.985      526.390        1.115        0.154      135.063       30.373        0.051      332.500        1.202      868.716
01/10/2021  10:11:00      105.503       78.121      -18.213       53.832       33.295       29.469     2897.927     1108.531      868.434        1.122        0.244      131.277       28.357        0.047      332.705        1.540      868.685
01/10/2021  10:12:00      163.891       46.949      -36.177       61.755       33.129       37.604     3813.665     1097.514     1414.084        1.835        0.316      170.483       36.298        0.045      332.788        1.679      868.662
01/10/2021  10:13:00      120.128       82.732      -31.771       48.218       17.031       27.520     2325.020      290.068      757.349        1.283        0.169      145.861       30.014        0.042      332.654        1.457      868.678
01/10/2021  10:14:00       48.036       42.201      -20.882       59.264       43.815       33.000     3512.180     1919.787     1088.971        0.552        0.326       63.940       40.382        0.399      333.124        2.233      868.707
01/10/2021  10:15:00      116.419      -76.619      -43.641       69.874       59.423       34.810     4882.369     3531.105     1211.765        1.547        0.481      139.369       43.724        0.098      332.981        1.997      868.718
01/10/2021  10:16:00      105.069      -66.403      -28.379       44.488       24.727       21.898     1979.210      611.414      479.514        0.966        0.154      124.294       27.298        0.048      332.624        1.407      868.738
01/10/2021  10:17:00       92.930      -14.809      -21.892       82.798       71.039       39.298     6855.492     5046.522     1544.322        1.139        0.672       94.102       44.892        0.228      333.355        2.616      868.751
01/10/2021  10:18:00      138.534       28.009      -30.819       60.670       37.802       35.123     3680.860     1428.996     1233.659        1.363        0.317      141.337       40.596        0.083      333.031        2.079      868.769
01/10/2021  10:19:00      107.265       41.264      -23.651       57.394       49.707       32.830     3294.022     2470.785     1077.791        1.030        0.342      114.929       32.662        0.081      332.855        1.788      868.769
01/10/2021  10:20:00       68.232       -2.916      -25.813       74.393       50.490       32.136     5534.285     2549.247     1032.696        0.722        0.456       68.294       40.237        0.347      333.386        2.667      868.762
01/10/2021  10:21:00      103.467      -28.581      -18.790       77.452       51.037       42.001     5998.775     2604.788     1764.125        1.112        0.518      107.342       43.377        0.163      333.095        2.184      868.756
01/10/2021  10:22:00       79.953      -48.825      -19.866       58.450       84.188       35.147     3416.413     7087.622     1235.339        1.045        0.587       93.682       37.191        0.158      333.273        2.479      868.748
01/10/2021  10:23:00      172.487       78.379      -33.027       56.551       28.535       29.127     3198.029      814.253      848.366        2.092        0.243      189.460       32.417        0.029      332.912        1.884      868.763
01/10/2021  10:24:00       59.979       34.676       -8.341       56.817       51.624       29.734     3228.163     2665.053      884.083        0.582        0.339       69.281       32.899        0.225      333.336        2.585      868.756
01/10/2021  10:25:00      114.554      -53.233      -23.688       80.217       68.445       47.315     6434.705     4684.671     2238.694        1.493        0.668      126.318       44.885        0.126      333.378        2.651      868.764
01/10/2021  10:26:00       89.806      -63.208      -33.071       69.238       62.094       38.280     4793.874     3855.689     1465.363        1.163        0.506      109.819       37.467        0.116      333.387        2.668      868.794
01/10/2021  10:27:00       66.691      -14.203      -32.581       70.155       58.137       46.507     4921.657     3379.895     2162.903        0.809        0.523       68.186       40.117        0.346      333.501        2.857      868.795
01/10/2021  10:28:00       88.043      -33.888      -21.830       97.536       62.577       50.608     9513.357     3915.940     2561.141        1.268        0.800       94.339       59.176        0.393      333.444        2.763      868.785
01/10/2021  10:29:00      107.227      -73.250      -34.450       81.757       68.191       43.565     6684.203     4649.977     1897.880        1.564        0.662      129.858       44.663        0.118      333.431        2.742      868.778
01/10/2021  10:30:00       71.766        7.732      -19.801       60.061       51.582       43.389     3607.264     2660.746     1882.598        0.687        0.408       72.181       38.852        0.290      333.593        3.008      868.796
01/10/2021  10:31:00       58.466       36.212       -6.099       83.612       52.585       42.666     6991.049     2765.191     1820.347        0.817        0.579       68.772       50.289        0.535      333.836        3.412      868.813
01/10/2021  10:32:00      112.475       89.550      -23.155       58.253       40.815       34.936     3393.362     1665.885     1220.508        1.374        0.314      143.770       29.601        0.042      333.695        3.179      868.825
01/10/2021  10:33:00      127.394       75.610      -31.575       68.584       34.973       30.485     4703.786     1223.081      929.357        1.490        0.343      148.142       38.471        0.067      333.351        2.608      868.848
01/10/2021  10:34:00      100.264      -36.822      -25.855       83.533       54.443       42.366     6977.742     2964.038     1794.860        1.190        0.587      106.811       47.349        0.197      333.693        3.176      868.838
01/10/2021  10:35:00       97.734      -51.208      -31.430       67.340       79.641       47.541     4534.712     6342.748     2260.160        1.315        0.657      110.337       45.721        0.172      333.701        3.188      868.817
01/10/2021  10:36:00      150.558      -64.480      -33.194       72.173       67.108       44.594     5209.009     4503.498     1988.634        1.981        0.585      163.785       42.973        0.069      333.368        2.636      868.797
01/10/2021  10:37:00      126.006        0.985      -21.797       65.633      108.590       35.537     4307.719    11791.842     1262.892        1.685        0.868      126.010       35.054        0.077      333.503        2.859      868.783
01/10/2021  10:38:00      111.879       22.807      -32.501       71.559       73.347       38.564     5120.741     5379.800     1487.154        1.304        0.599      114.180       39.702        0.121      333.542        2.925      868.764
01/10/2021  10:39:00      139.801      -64.061      -21.299       82.641       78.979       51.790     6829.481     6237.649     2682.200        1.992        0.787      153.780       57.940        0.142      333.286        2.500      868.733
01/10/2021  10:40:00       68.909      -61.927      -35.935       79.149       61.453       39.929     6264.522     3776.502     1594.320        1.075        0.582       92.646       37.628        0.165      333.676        3.146      868.733
01/10/2021  10:41:00       56.776      -22.441      -23.772       82.060       61.585       43.854     6733.861     3792.659     1923.198        0.837        0.622       61.050       38.241        0.392      334.006        3.694      868.718
01/10/2021  10:42:00      137.251      -18.876      -21.082       95.711       51.713       50.656     9160.548     2674.285     2566.066        1.702        0.720      138.543       55.912        0.163      333.587        2.999      868.692
01/10/2021  10:43:00      102.112      -23.137      -19.190       84.100       48.801       43.475     7072.848     2381.570     1890.063        1.134        0.567      104.700       48.450        0.214      333.586        2.997      868.685
01/10/2021  10:44:00      135.266      -79.068      -30.903       70.216       66.648       40.044     4930.297     4441.922     1603.528        1.824        0.549      156.680       44.555        0.081      333.415        2.714      868.689
01/10/2021  10:45:00       93.266      -22.523      -30.624       66.266       69.522       32.667     4391.149     4833.305     1067.158        1.022        0.515       95.947       27.477        0.082      333.828        3.400      868.706
01/10/2021  10:46:00      121.312       18.805      -23.458       60.243       50.392       39.309     3629.278     2539.399     1545.196        1.167        0.386      122.761       33.518        0.075      333.738        3.250      868.717
01/10/2021  10:47:00      117.589      -21.587      -20.792       78.132       80.981       37.416     6104.636     6557.849     1399.955        1.439        0.703      119.554       42.267        0.125      333.659        3.119      868.702
01/10/2021  10:48:00       86.381       -1.814      -23.324       69.197       70.341       51.530     4788.212     4947.881     2655.336        1.020        0.620       86.401       45.717        0.280      334.015        3.709      868.689
01/10/2021  10:49:00       91.632      -19.918      -34.433       67.434       75.462       37.980     4547.398     5694.526     1442.516        1.083        0.584       93.772       32.901        0.123      333.807        3.365      868.678
01/10/2021  10:50:00      116.385      -76.091      -37.714       60.798       51.198       43.639     3696.369     2621.204     1904.322        1.449        0.411      139.051       32.922        0.056      333.700        3.186      868.655
01/10/2021  10:51:00      154.650      -88.117      -41.342       47.281       53.921       31.286     2235.494     2907.516      978.801        1.975        0.306      177.993       25.100        0.020      333.345        2.597      868.609
01/10/2021  10:52:00       93.739      -16.672       -6.563       72.146       52.053       48.000     5205.037     2709.504     2304.041        0.966        0.511       95.210       49.483        0.270      333.779        3.318      868.570
01/10/2021  10:53:00      139.823       11.379      -32.645       78.274       71.771       40.721     6126.763     5151.135     1658.197        1.684        0.647      140.285       35.035        0.062      333.740        3.252      868.562
01/10/2021  10:54:00      111.664        7.349      -27.522       69.199       64.048       43.625     4788.510     4102.106     1903.109        1.203        0.540      111.906       39.078        0.122      333.507        2.867      868.568
01/10/2021  10:55:00       72.945      -69.004      -28.974       61.820       63.459       34.257     3821.668     4027.083     1173.512        0.997        0.451      100.412       36.273        0.130      333.741        3.255      868.541
01/10/2021  10:56:00       87.021       39.222      -18.587       79.251       73.536       50.682     6280.758     5407.544     2568.696        1.185        0.713       95.452       41.908        0.193      333.910        3.535      868.516
01/10/2021  10:57:00       86.017       33.054      -33.009       57.872       59.060       41.602     3349.153     3488.058     1730.690        0.907        0.428       92.150       33.510        0.132      333.851        3.436      868.503
01/10/2021  10:58:00      122.729      -44.662      -41.400       86.225       60.768       38.116     7434.721     3692.694     1452.821        1.567        0.629      130.603       45.823        0.123      333.728        3.232      868.492
01/10/2021  10:59:00      108.749      -28.737      -44.614       61.382       60.503       45.813     3767.721     3660.587     2098.873        1.208        0.476      112.482       30.321        0.073      333.964        3.623      868.527
01/10/2021  11:00:00       98.896       -2.453      -23.536       75.583       82.203       49.758     5712.793     6757.370     2475.892        1.264        0.747       98.926       47.260        0.228      333.881        3.485      868.531
01/10/2021  11:01:00       83.584        0.508      -25.102       84.381       76.795       50.502     7120.174     5897.475     2550.477        1.159        0.778       83.586       39.698        0.226      333.943        3.590      868.523
01/10/2021  11:02:00       93.147      -24.377      -21.097       93.716       70.052       46.807     8782.743     4907.270     2190.869        1.279        0.794       96.284       53.546        0.309      333.930        3.568      868.526
01/10/2021  11:03:00       81.626      -43.919      -35.672       59.640       43.780       32.091     3556.978     1916.701     1029.861        0.818        0.325       92.691       29.136        0.099      333.985        3.659      868.534
01/10/2021  11:04:00      107.690      -49.575      -41.155       58.975       64.395       39.101     3478.024     4146.736     1528.856        1.245        0.458      118.553       32.956        0.077      333.955        3.609      868.532
01/10/2021  11:05:00       48.606       27.115      -29.413       53.937       54.381       34.873     2909.152     2957.247     1216.122        0.552        0.354       55.658       34.818        0.391      334.278        4.146      868.552
01/10/2021  11:06:00      119.904      -85.711      -28.107       85.662       51.562       36.776     7338.027     2658.684     1352.445        1.693        0.567      147.388       43.257        0.086      333.750        3.268      868.571
01/10/2021  11:07:00      156.607     -140.678      -44.086       58.641       52.914       31.842     3438.783     2799.938     1013.905        2.675        0.363      210.514       31.037        0.022      333.770        3.300      868.567
01/10/2021  11:08:00      120.446      -13.606      -25.527       63.685       54.547       38.622     4055.723     2975.422     1491.682        1.193        0.426      121.212       34.131        0.079      334.103        3.854      868.549
01/10/2021  11:09:00       88.153        9.938      -13.231       64.690       91.089       39.783     4184.760     8297.223     1582.657        1.105        0.703       88.712       38.234        0.186      334.292        4.167      868.502
01/10/2021  11:10:00      -23.171     -102.929      -20.031       73.348       65.982       32.001     5379.967     4353.628     1024.036        1.114        0.538      105.504       37.633        0.127      334.129        3.899      868.486
01/10/2021  11:11:00      107.980     -103.821      -22.113       59.231       61.043       27.926     3508.349     3726.295      779.840        1.547        0.401      149.795       30.832        0.042      333.892        3.503      868.488
01/10/2021  11:12:00      166.053     -124.884      -41.563       68.849       63.110       40.433     4740.242     3982.879     1634.863        2.763        0.518      207.773       37.769        0.033      333.765        3.292      868.483
01/10/2021  11:13:00      106.547      -45.980      -11.834       51.435       35.652       33.478     2645.589     1271.076     1120.774        0.932        0.252      116.045       27.001        0.054      333.742        3.257      868.466
01/10/2021  11:14:00      127.978      -25.014      -16.841       85.136       93.477       51.859     7248.055     8738.008     2689.363        1.798        0.934      130.399       54.796        0.177      334.041        3.752      868.437
01/10/2021  11:15:00      142.984       26.304      -11.900       98.443       75.810       46.515     9691.014     5747.084     2163.612        1.944        0.880      145.383       50.943        0.123      333.890        3.499      868.403
01/10/2021  11:16:00      154.341       28.852      -19.932       93.013       53.961       38.540     8651.407     2911.773     1485.307        1.905        0.652      157.014       43.441        0.077      334.025        3.725      868.367
01/10/2021  11:17:00      128.769       -8.748      -38.498       86.577       84.182       46.259     7495.602     7086.618     2139.890        1.743        0.836      129.066       43.295        0.113      334.156        3.943      868.326
01/10/2021  11:18:00       83.003      -78.572      -32.890       57.940       34.114       28.419     3357.009     1163.783      807.638        0.974        0.266      114.294       23.877        0.044      333.883        3.490      868.305
01/10/2021  11:19:00       72.342      -40.710      -34.902       63.471       64.945       36.379     4028.513     4217.895     1323.435        0.884        0.478       83.010       32.743        0.156      334.509        4.526      868.298
01/10/2021  11:20:00       89.346       -8.402      -25.466       75.519       64.575       38.785     5703.169     4169.946     1504.275        1.004        0.569       89.740       40.707        0.206      334.302        4.186      868.316
01/10/2021  11:21:00       38.242       28.295      -15.573       67.905       48.806       33.332     4611.054     2382.007     1111.035        0.530        0.405       47.572       39.691        0.696      334.131        3.901      868.323
01/10/2021  11:22:00       81.492      -50.927      -31.311       63.989       88.693       37.979     4094.577     7866.459     1442.387        1.181        0.670       96.096       38.003        0.156      334.259        4.113      868.309
01/10/2021  11:23:00      103.148      -55.719      -28.386       76.057       68.683       40.196     5784.610     4717.333     1615.723        1.333        0.606      117.235       43.840        0.140      334.364        4.287      868.280
01/10/2021  11:24:00       83.449       15.291      -17.377       64.782       68.917       33.066     4196.654     4749.596     1093.347        0.877        0.502       84.838       25.979        0.094      334.293        4.169      868.255
01/10/2021  11:25:00       79.083      -47.226      -18.512       70.164       91.555       47.580     4922.937     8382.246     2263.885        1.219        0.778       92.111       45.101        0.240      334.488        4.493      868.200
01/10/2021  11:26:00       86.447      -98.742      -41.023       62.447       76.943       31.374     3899.644     5920.237      984.338        1.485        0.540      131.237       32.521        0.061      333.978        3.649      868.162
01/10/2021  11:27:00       74.882      -70.247      -31.762       61.567       69.223       34.661     3790.462     4791.785     1201.388        1.067        0.489      102.674       36.364        0.125      334.265        4.123      868.123
01/10/2021  11:28:00      103.552       31.114      -18.793       72.737       61.193       36.509     5290.609     3744.582     1332.938        1.120        0.518      108.125       38.308        0.126      334.187        3.992      868.096
01/10/2021  11:29:00       99.637       56.080      -19.275       59.850       30.741       31.065     3582.024      945.030      965.056        0.947        0.275      114.334       36.274        0.101      334.173        3.971      868.071
01/10/2021  11:30:00       14.247      -32.090      -17.138       59.858       29.162       27.975     3582.997      850.423      782.595        0.337        0.261       35.111       33.798        0.927      334.522        4.549      868.045
01/10/2021  11:31:00        4.088      -56.554      -14.456       66.767       36.791       28.558     4457.808     1353.551      815.562        0.502        0.331       56.701       33.773        0.355      334.455        4.438      868.034
01/10/2021  11:32:00       14.817        7.536      -14.208       47.109       24.213       24.892     2219.252      586.259      619.587        0.195        0.171       16.623       29.615        3.174      334.619        4.712      868.023
01/10/2021  11:33:00       18.723      -61.718      -25.342       75.341       49.038       34.535     5676.243     2404.759     1192.661        0.704        0.464       64.495       35.937        0.310      334.425        4.389      868.005
01/10/2021  11:34:00       71.900      -85.342      -33.443       46.021       33.735       23.005     2117.967     1138.072      529.240        0.868        0.189      111.592       28.232        0.064      334.008        3.698      867.989
01/10/2021  11:35:00       54.778        2.743      -15.805       71.587       53.623       32.054     5124.650     2875.463     1027.483        0.614        0.451       54.846       36.811        0.450      334.333        4.237      867.967
01/10/2021  11:36:00       98.529       41.796      -26.914       62.218       46.275       29.229     3871.054     2141.376      854.335        0.952        0.343      107.027       34.187        0.102      334.293        4.169      867.956
01/10/2021  11:37:00       41.408       45.502       -0.583       59.345       32.132       27.666     3521.775     1032.467      765.410        0.455        0.266       61.523       36.604        0.354      334.258        4.112      867.944
01/10/2021  11:38:00       44.752       50.479        5.353       75.011       43.439       33.020     5626.695     1886.911     1090.293        0.659        0.430       67.461       36.360        0.290      334.361        4.284      867.945
01/10/2021  11:39:00       63.638      -48.732      -30.677       59.443       72.255       32.035     3533.478     5220.792     1026.213        0.857        0.489       80.154       32.516        0.165      334.398        4.345      867.940
01/10/2021  11:40:00       40.099        0.673       -9.825       60.142       68.795       29.554     3617.022     4732.732      873.418        0.546        0.461       40.104       32.999        0.677      334.328        4.228      867.953
01/10/2021  11:41:00       99.190       25.371      -21.287       57.718       47.124       28.500     3331.409     2220.704      812.253        0.865        0.318      102.384       33.150        0.105      334.313        4.202      867.958
01/10/2021  11:42:00      109.607       32.075      -14.363       55.285       45.145       30.327     3056.404     2038.065      919.727        0.963        0.301      114.204       32.067        0.079      334.269        4.131      867.964
01/10/2021  11:43:00       71.419       31.690      -18.246       60.456       39.284       28.520     3654.982     1543.205      813.393        0.622        0.301       78.134       36.724        0.221      334.257        4.110      867.964
01/10/2021  11:44:00       83.932       74.914      -20.092       52.469       42.049       26.384     2752.984     1768.159      696.089        0.914        0.261      112.502       25.791        0.053      334.085        3.825      867.945
01/10/2021  11:45:00       56.504       83.750      -16.319       41.129       17.630       23.399     1691.633      310.812      547.503        0.651        0.127      101.029       27.093        0.072      334.088        3.830      867.925
01/10/2021  11:46:00      106.090       77.987      -21.318       65.711       22.244       29.887     4317.913      494.789      893.255        1.175        0.285      131.670       40.171        0.093      334.201        4.018      867.886
01/10/2021  11:47:00      113.022       67.311      -21.812       45.032       21.493       27.580     2027.848      461.958      760.683        1.051        0.163      131.548       28.305        0.046      334.186        3.992      867.854
01/10/2021  11:48:00       99.106       53.585      -25.315       53.300       19.810       23.383     2840.924      392.444      546.756        0.856        0.189      112.665       31.787        0.080      334.174        3.972      867.836
01/10/2021  11:49:00       19.917        3.874       -6.291       49.191       28.458       25.274     2419.739      809.859      638.790        0.216        0.193       20.290       31.627        2.430      334.539        4.580      867.838
01/10/2021  11:50:00       90.363      -56.540      -30.847       54.816       58.016       30.140     3004.743     3365.897      908.438        0.979        0.364      106.594       33.706        0.100      334.487        4.492      867.843
01/10/2021  11:51:00       62.377      -38.607      -24.229       68.191       58.629       31.611     4650.057     3437.305      999.282        0.753        0.454       73.358       35.565        0.235      334.682        4.815      867.846
01/10/2021  11:52:00      125.017      -95.913      -31.701       62.776       40.217       27.415     3940.844     1617.438      751.602        1.607        0.315      157.571       35.163        0.050      334.240        4.081      867.843
01/10/2021  11:53:00      103.343      -49.037      -22.684       58.570       35.492       27.641     3430.391     1259.678      764.015        0.953        0.273      114.387       34.059        0.089      334.384        4.321      867.841
01/10/2021  11:54:00       35.825     -134.919      -18.257       53.291       57.333       32.040     2839.898     3287.074     1026.567        1.349        0.358      139.594       34.912        0.063      334.481        4.482      867.830
01/10/2021  11:55:00       91.302     -110.969      -35.845       62.017       55.021       34.621     3846.121     3027.334     1198.614        1.500        0.404      143.701       40.920        0.081      334.454        4.436      867.812
01/10/2021  11:56:00      126.406      -22.313      -29.789       77.121       60.670       43.298     5947.711     3680.895     1874.697        1.443        0.575      128.360       45.606        0.126      334.680        4.813      867.791
01/10/2021  11:57:00       78.186      -10.838      -15.803       55.769       51.203       31.745     3110.226     2621.773     1007.770        0.661        0.337       78.933       33.981        0.185      334.652        4.766      867.773
01/10/2021  11:58:00       70.240      -20.297      -21.837       62.891       47.746       32.082     3955.317     2279.716     1029.236        0.654        0.363       73.114       31.924        0.191      334.790        4.996      867.720
01/10/2021  11:59:00       91.086      -38.533      -22.580       62.781       62.315       35.673     3941.417     3883.172     1272.595        0.969        0.455       98.901       31.790        0.103      334.724        4.886      867.689
01/10/2021  12:00:00      189.691       44.758      -15.602       72.105       45.431       29.593     5199.165     2063.992      875.772        2.318        0.407      194.900       32.745        0.028      334.436        4.406      867.663
01/10/2021  12:01:00       95.558        7.439      -28.910       72.612       80.943       33.356     5272.513     6551.703     1112.652        1.148        0.647       95.847       31.638        0.109      334.707        4.856      867.648
01/10/2021  12:02:00       96.632     -110.846      -29.001       68.588       85.557       36.809     4704.319     7319.999     1354.918        1.792        0.669      147.053       44.151        0.090      334.423        4.386      867.635
01/10/2021  12:03:00      145.238       58.433      -20.716       57.665       43.870       27.395     3325.293     1924.616      750.471        1.547        0.300      156.552       27.495        0.031      334.438        4.409      867.634
01/10/2021  12:04:00       95.238       25.229      -24.402       59.658       91.354       30.294     3559.123     8345.468      917.731        1.156        0.641       98.523       25.006        0.064      334.570        4.629      867.631
01/10/2021  12:05:00      121.575      -87.867      -39.067       52.189       43.672       23.447     2723.668     1907.273      549.760        1.460        0.259      150.003       25.512        0.029      334.343        4.252      867.637
01/10/2021  12:06:00      113.697      -72.038      -42.068       60.933       48.137       31.279     3712.860     2317.218      978.351        1.345        0.350      134.597       36.326        0.073      334.450        4.431      867.635
01/10/2021  12:07:00       65.206      -21.535      -16.454       45.353       27.867       26.828     2056.862      776.584      719.754        0.427        0.178       68.670       30.316        0.195      334.601        4.681      867.639
01/10/2021  12:08:00       42.819       -6.381       -7.738       54.194       20.302       26.446     2936.970      412.182      699.368        0.299        0.202       43.292       32.369        0.559      334.661        4.780      867.618
01/10/2021  12:09:00       59.917       20.960      -21.480       50.574       41.954       27.877     2557.772     1760.163      777.137        0.479        0.255       63.477       23.132        0.133      334.648        4.758      867.584
01/10/2021  12:10:00       62.656      -35.031      -23.813       72.803       59.866       44.017     5300.258     3583.948     1937.458        0.827        0.541       71.784       44.500        0.384      334.765        4.954      867.527
01/10/2021  12:11:00      143.092     -101.882      -34.865       60.675       52.245       33.507     3681.473     2729.492     1122.740        1.980        0.377      175.656       38.733        0.049      334.562        4.614      867.498
01/10/2021  12:12:00       68.511      -31.075      -25.355       52.437       61.492       35.693     2749.683     3781.253     1273.962        0.705        0.390       75.229       28.856        0.147      334.772        4.964      867.492
01/10/2021  12:13:00       78.663      -22.657      -16.248       49.863       42.512       25.971     2486.287     1807.228      674.495        0.597        0.248       81.861       27.477        0.113      334.665        4.789      867.513
01/10/2021  12:14:00       36.720      -25.146      -10.114       56.620       54.016       28.020     3205.852     2917.762      785.113        0.449        0.345       44.505       26.196        0.346      334.726        4.888      867.528
01/10/2021  12:15:00        2.412      -27.250        2.974       52.786       48.155       33.676     2786.349     2318.944     1134.083        0.350        0.312       27.356       29.257        1.144      335.006        5.354      867.543
01/10/2021  12:16:00       64.705       27.968      -11.504       58.733       52.820       34.311     3449.619     2789.994     1177.253        0.626        0.371       70.491       28.372        0.162      334.716        4.873      867.547
01/10/2021  12:17:00       78.910       23.149       -7.087       46.855       40.696       22.094     2195.387     1656.154      488.129        0.558        0.217       82.236       25.681        0.098      334.591        4.665      867.525
01/10/2021  12:18:00       37.886      -17.331       -1.150       50.831       23.505       22.711     2583.837      552.504      515.792        0.269        0.183       41.662       26.906        0.417      334.757        4.940      867.485
01/10/2021  12:19:00       33.724        2.670       -2.431       52.019       38.032       27.784     2706.026     1446.421      771.958        0.304        0.246       33.829       24.459        0.523      334.921        5.213      867.454
01/10/2021  12:20:00       55.036       37.530       -9.628       52.338       46.746       26.862     2739.258     2185.218      721.575        0.509        0.282       66.615       25.425        0.146      334.842        5.083      867.442
01/10/2021  12:21:00       76.181       24.981      -23.775       56.578       47.258       27.671     3201.064     2233.348      765.700        0.660        0.310       80.173       29.988        0.140      334.806        5.022      867.435
01/10/2021  12:22:00      102.121       64.618      -21.420       28.096       15.494       19.440      789.406      240.055      377.932        0.823        0.070      120.848       12.685        0.011      334.439        4.413      867.436
01/10/2021  12:23:00       85.423       63.573      -14.062       34.040       30.201       20.134     1158.690      912.105      405.392        0.701        0.124      106.483       16.857        0.025      334.588        4.659      867.436
01/10/2021  12:24:00       33.635       38.556       -9.294       56.248       39.814       27.608     3163.811     1585.116      762.183        0.411        0.276       51.166       26.557        0.269      334.905        5.185      867.431
01/10/2021  12:25:00       90.106      -49.877      -26.995       72.456       73.095       37.469     5249.884     5342.903     1403.897        1.166        0.600      102.989       37.116        0.130      334.900        5.177      867.417
01/10/2021  12:26:00      100.490      -53.051      -23.306       80.812       66.966       51.471     6530.620     4484.407     2649.247        1.356        0.683      113.634       48.412        0.182      334.840        5.077      867.406
01/10/2021  12:27:00       92.896       12.582      -28.945       58.181       73.036       36.611     3385.028     5334.225     1340.342        0.984        0.503       93.745       30.989        0.109      334.787        4.990      867.378
01/10/2021  12:28:00       34.347       12.840       -9.791       52.727       61.357       31.658     2780.092     3764.631     1002.251        0.449        0.377       36.669       26.161        0.509      334.818        5.041      867.330
01/10/2021  12:29:00       59.329       11.792       -3.119       68.447       69.132       35.200     4685.039     4779.168     1239.008        0.718        0.535       60.489       15.974        0.070      334.829        5.060      867.289
01/10/2021  12:30:00       22.708       10.019      -15.864       55.623       44.305       29.250     3093.955     1962.953      855.590        0.339        0.296       24.820       31.203        1.581      334.870        5.128      867.269
01/10/2021  12:31:00        7.690      -19.100       -2.562       53.371       58.751       43.237     2848.418     3451.709     1869.396        0.430        0.408       20.590       34.513        2.810      335.121        5.544      867.262
01/10/2021  12:32:00      111.020      -89.341      -29.960       48.393       35.326       24.166     2341.902     1247.916      583.993        1.269        0.209      142.504       23.865        0.028      334.705        4.854      867.265
01/10/2021  12:33:00       87.026      -46.064      -20.852       50.421       33.770       32.425     2542.323     1140.383     1051.355        0.743        0.237       98.465       30.943        0.099      334.783        4.982      867.263
01/10/2021  12:34:00       52.678      -87.277      -21.205       52.467       40.137       26.801     2752.797     1610.944      718.313        0.796        0.254      101.942       27.739        0.074      334.832        5.064      867.247
01/10/2021  12:35:00       58.864       10.656      -15.742       63.346       43.982       25.653     4012.765     1934.404      658.088        0.521        0.330       59.820       27.459        0.211      335.067        5.455      867.214
01/10/2021  12:36:00       73.174       32.812       -8.555       52.283       61.070       29.269     2733.495     3729.523      856.688        0.691        0.366       80.194       23.292        0.084      335.068        5.457      867.190
01/10/2021  12:37:00       98.870       75.565      -11.665       32.502       29.882       20.566     1056.370      892.961      422.970        0.900        0.119      124.440       18.807        0.023      334.764        4.952      867.161
01/10/2021  12:38:00       49.899       33.340      -18.012       62.525       31.155       22.484     3909.383      970.619      505.535        0.465        0.269       60.012       29.128        0.236      335.006        5.354      867.140
01/10/2021  12:39:00       34.179      -60.435      -18.716       63.617       55.548       29.139     4047.134     3085.632      849.095        0.657        0.399       69.430       36.827        0.281      335.234        5.731      867.124
01/10/2021  12:40:00       70.651     -151.063      -32.594       30.112       23.203       16.992      906.739      538.384      288.733        1.530        0.087      166.768       17.310        0.011      334.647        4.756      867.100
01/10/2021  12:41:00       58.170      -92.867      -20.924       42.725       38.054       21.843     1825.437     1448.120      477.119        0.810        0.188      109.581       19.883        0.033      334.704        4.853      867.097
01/10/2021  12:42:00       59.997       40.332      -15.571       36.165       52.660       18.824     1307.931     2773.114      354.360        0.495        0.222       72.293       21.316        0.087      334.776        4.971      867.105
01/10/2021  12:43:00       44.925       66.626       -9.587       21.054       15.290       12.392      443.268      233.770      153.564        0.369        0.042       80.357        9.683        0.015      334.689        4.826      867.105
01/10/2021  12:44:00       13.339       53.821       -9.328       36.229       18.431       22.168     1312.568      339.704      491.440        0.265        0.107       55.450       18.996        0.117      334.896        5.170      867.093
01/10/2021  12:45:00       32.359       62.353       -6.669       42.885       26.431       23.718     1839.119      698.596      562.553        0.404        0.155       70.249       24.807        0.125      335.052        5.430      867.079
01/10/2021  12:46:00       30.107       28.974      -15.542       35.619       20.158       17.804     1268.713      406.331      316.974        0.199        0.100       41.784       19.226        0.212      335.126        5.554      867.061
01/10/2021  12:47:00       32.359       41.534       -8.648       53.794       23.364       22.387     2893.745      545.859      501.159        0.339        0.197       52.651       25.316        0.231      335.193        5.665      867.039
01/10/2021  12:48:00       35.197       30.260       -8.200       36.750       17.200       18.235     1350.567      295.854      332.523        0.210        0.099       46.416       20.020        0.186      335.184        5.650      867.016
01/10/2021  12:49:00       35.566       17.071      -10.552       41.505       17.933       21.687     1722.660      321.578      470.327        0.209        0.126       39.450       24.097        0.373      335.208        5.689      867.008
01/10/2021  12:50:00      -14.497       30.416       -8.359       30.096       15.224       20.455      905.760      231.777      418.400        0.138        0.078       33.695       15.230        0.204      335.305        5.848      867.014
01/10/2021  12:51:00      -18.666        4.205      -10.675       30.845       17.396       15.463      951.399      302.611      239.110        0.099        0.075       19.133        8.159        0.182      335.382        5.978      867.024
01/10/2021  12:52:00        5.062       -3.597       12.876       34.896       22.803       19.221     1217.726      519.976      369.435        0.116        0.105        6.209       16.587        7.135      335.804        6.681      867.037
01/10/2021  12:53:00       -2.654       38.961       -7.585       36.882       27.018       21.937     1360.277      729.998      481.222        0.208        0.129       39.051       20.757        0.283      335.386        5.985      867.065
01/10/2021  12:54:00      -27.235       -1.793       -4.491       37.539       31.421       22.352     1409.208      987.250      499.617        0.183        0.145       27.294       15.133        0.307      335.482        6.145      867.078
01/10/2021  12:55:00      -58.411       25.782       -2.563       38.214       21.876       17.853     1460.314      478.539      318.729        0.317        0.113       63.848       14.713        0.053      335.388        5.989      867.075
01/10/2021  12:56:00       -3.639       -2.620       12.916       30.625       32.697       21.524      937.879     1069.083      463.271        0.133        0.124        4.484       14.886       11.022      335.988        6.988      867.032
01/10/2021  12:57:00      -31.178      -14.030      -13.016       28.772       29.158       21.807      827.815      850.163      475.556        0.175        0.108       34.189       15.078        0.194      335.667        6.455      866.979
01/10/2021  12:58:00      -26.762       -2.815       10.564       26.828       18.361       20.198      719.747      337.116      407.954        0.115        0.073       26.909       19.016        0.499      335.783        6.648      866.940
01/10/2021  12:59:00       10.835       12.277       -1.118       23.334       20.004       15.307      544.463      400.173      234.289        0.072        0.059       16.374        6.577        0.161      335.488        6.156      866.909
01/10/2021  13:00:00      -27.713      -37.612      -15.215       38.198       28.922       19.210     1459.100      836.494      369.032        0.254        0.133       46.719       12.300        0.069      335.562        6.280      866.874
01/10/2021  13:01:00      -62.006        7.708       -2.345       45.920       22.044       20.973     2108.627      485.933      439.855        0.347        0.152       62.484       18.838        0.091      335.551        6.262      866.847
01/10/2021  13:02:00      -44.635       17.947       -8.345       26.041       13.324       14.068      678.153      177.533      197.909        0.172        0.053       48.108       14.367        0.089      335.289        5.824      866.826
01/10/2021  13:03:00      -90.674       28.131       -9.698       34.075       29.196       19.815     1161.122      852.415      392.638        0.576        0.120       94.937        8.228        0.008      335.350        5.926      866.810
01/10/2021  13:04:00      -62.853       28.578       -6.698       23.351       29.782       22.626      545.256      886.967      511.931        0.338        0.097       69.045       13.328        0.037      335.478        6.138      866.798
01/10/2021  13:05:00      -26.186       11.691      -15.414       29.327       22.310       15.303      860.086      497.734      234.171        0.133        0.080       28.677        9.280        0.105      335.655        6.433      866.774
01/10/2021  13:06:00      -13.283       -3.136       -7.982       26.216       26.858       17.832      687.274      721.340      317.963        0.099        0.086       13.648        9.248        0.459      335.980        6.974      866.754
01/10/2021  13:07:00       -0.741        2.984       13.223       18.603       29.169       22.705      346.090      850.821      515.534        0.095        0.086        3.075       15.221       24.502      336.301        7.511      866.739
01/10/2021  13:08:00      -65.670      -29.252       -9.082       40.505       39.539       29.304     1640.620     1563.304      858.726        0.466        0.203       71.890       22.929        0.102      335.779        6.639      866.721
01/10/2021  13:09:00      -39.870       18.325       12.220       53.444       35.669       21.681     2856.310     1272.269      470.064        0.334        0.230       43.880       25.790        0.345      336.129        7.225      866.705
01/10/2021  13:10:00     -135.205       18.118      -13.347       37.184       43.098       26.558     1382.657     1857.413      705.321        1.137        0.197      136.414       21.765        0.025      335.658        6.438      866.687
01/10/2021  13:11:00      -60.183       19.984       -7.987       41.327       28.956       18.304     1707.938      838.439      335.031        0.348        0.144       63.414       13.984        0.049      335.665        6.449      866.666
01/10/2021  13:12:00      -36.181      -35.914      -11.748       20.166       15.537       10.576      406.675      241.411      111.860        0.175        0.038       50.979        7.942        0.024      335.426        6.052      866.632
01/10/2021  13:13:00       -3.123      -34.374       -7.865       16.894       26.631       14.206      285.409      709.234      201.799        0.122        0.060       34.515        8.899        0.066      335.646        6.420      866.596
01/10/2021  13:14:00      -44.951       45.843       -0.725       34.337       31.628       17.862     1179.012     1000.349      319.048        0.331        0.125       64.204       15.651        0.059      336.074        7.132      866.571
01/10/2021  13:15:00      -33.720       80.956      -14.710       38.374       22.166       21.811     1472.602      491.340      475.712        0.517        0.122       87.698       16.600        0.036      335.745        6.584      866.561
01/10/2021  13:16:00       11.521       15.652       -9.051       26.712       22.508       15.493      713.556      506.618      240.046        0.096        0.073       19.435       13.331        0.471      335.769        6.625      866.552
01/10/2021  13:17:00       70.379       62.886       -7.110       29.909       30.143       13.744      894.553      908.581      188.909        0.547        0.100       94.382        6.166        0.004      335.682        6.479      866.565
01/10/2021  13:18:00       21.434       71.294        5.802       41.709       36.651       25.971     1739.652     1343.272      674.498        0.467        0.188       74.446       25.116        0.114      335.874        6.798      866.580
01/10/2021  13:19:00       44.438       49.657      -14.712       29.091       40.456       19.635      846.273     1636.680      385.529        0.376        0.143       66.637       22.503        0.114      335.780        6.642      866.589
01/10/2021  13:20:00       98.239       87.998      -16.187       25.450       30.680       19.165      647.681      941.255      367.295        0.981        0.098      131.888       17.372        0.017      335.700        6.507      866.599
01/10/2021  13:21:00       11.909       46.833      -24.391       64.943       39.802       22.434     4217.615     1584.164      503.263        0.462        0.315       48.323       28.838        0.356      335.792        6.661      866.602
01/10/2021  13:22:00      -10.508       40.132      -17.970       24.152       24.443        9.827      583.309      597.444       96.575        0.166        0.064       41.485       12.117        0.085      335.707        6.520      866.609
01/10/2021  13:23:00        6.225       29.784       -5.742       30.432       28.591       19.959      926.117      817.426      398.363        0.155        0.107       30.427       11.659        0.147      335.959        6.940      866.616
01/10/2021  13:24:00       37.758       53.692       -5.739       28.184       22.526       15.212      794.358      507.416      231.393        0.294        0.077       65.639        6.546        0.010      336.023        7.045      866.630
01/10/2021  13:25:00       86.090       72.427       -8.292       23.185       24.335       16.045      537.558      592.188      257.426        0.706        0.069      112.504        9.844        0.008      335.845        6.751      866.641
01/10/2021  13:26:00       37.096       46.161      -13.750       20.460       22.981       17.534      418.597      528.122      307.458        0.247        0.063       59.219       17.827        0.091      335.797        6.671      866.639
01/10/2021  13:27:00       37.519       65.069       -8.252       35.221       30.121       21.712     1240.494      907.271      471.420        0.416        0.131       75.111       16.873        0.050      336.012        7.029      866.652
01/10/2021  13:28:00       82.793       84.533       -7.085       48.132       29.468       23.115     2316.693      868.357      534.289        0.888        0.186      118.323       22.783        0.037      335.959        6.939      866.678
01/10/2021  13:29:00       69.406       68.715       -8.698       27.270       25.362       19.774      743.654      643.226      390.995        0.570        0.089       97.668       17.086        0.031      335.895        6.833      866.688
01/10/2021  13:30:00       71.389       57.105      -17.651       14.312       13.156       10.578      204.821      173.072      111.903        0.458        0.024       91.419        6.322        0.005      335.784        6.649      866.681
01/10/2021  13:31:00       35.492       18.863      -10.243       11.043       18.713       13.701      121.954      350.158      187.719        0.119        0.033       40.193       12.968        0.104      335.877        6.804      866.666
01/10/2021  13:32:00       45.086       17.489      -12.233       12.742       13.679        8.704      162.352      187.111       75.762        0.146        0.021       48.359        4.155        0.007      335.826        6.719      866.664
01/10/2021  13:33:00       12.637        7.278      -11.474        6.684       10.890        8.147       44.674      118.596       66.372        0.029        0.011       14.583        4.845        0.110      336.083        7.149      866.663
01/10/2021  13:34:00       -1.023       13.474      -16.408       12.200       17.605        9.255      148.837      309.930       85.656        0.050        0.027       13.513        9.410        0.485      336.174        7.299      866.674
01/10/2021  13:35:00      -23.812       -1.748       -3.169       15.542       15.988       12.940      241.568      255.611      167.453        0.062        0.033       23.876       10.174        0.182      336.141        7.244      866.675
01/10/2021  13:36:00      -22.578       -6.962       -8.726       19.795       19.510       26.541      391.838      380.657      704.450        0.106        0.074       23.627       18.475        0.611      336.439        7.742      866.664
01/10/2021  13:37:00       40.542      -58.576      -13.321       38.765       44.657       23.920     1502.724     1994.265      572.160        0.466        0.203       71.238       22.740        0.102      336.297        7.504      866.637
01/10/2021  13:38:00       47.970       18.144      -13.116       31.737       26.918       23.323     1007.247      724.577      543.977        0.254        0.114       51.286       16.808        0.107      336.480        7.811      866.604
01/10/2021  13:39:00       -4.442       18.860       -0.291       26.822       20.784       16.908      719.411      431.978      285.885        0.091        0.072       19.376       16.102        0.691      336.901        8.517      866.583
01/10/2021  13:40:00      -13.701        6.602        4.907       20.478       25.906       16.602      419.345      671.140      275.641        0.081        0.068       15.208       13.442        0.781      336.833        8.400      866.573
01/10/2021  13:41:00        0.788      -29.146       -8.017       41.863       42.818       29.317     1752.518     1833.393      859.461        0.268        0.222       29.157       13.962        0.229      337.010        8.696      866.561
01/10/2021  13:42:00        9.271      -67.778       -5.033       53.003       52.554       25.252     2809.341     2761.926      637.678        0.546        0.310       68.409       15.206        0.049      336.696        8.171      866.559
01/10/2021  13:43:00      -17.166       29.876       -0.707       56.657       46.933       20.870     3210.017     2202.688      435.548        0.352        0.292       34.457       14.418        0.175      336.587        7.989      866.550
01/10/2021  13:44:00        9.455       -4.238       -1.589       40.680       37.254       29.038     1654.864     1387.861      843.227        0.200        0.194       10.361       29.183        7.933      336.872        8.465      866.540
01/10/2021  13:45:00       16.731        0.289      -10.574       41.263       35.852       23.248     1702.664     1285.339      540.447        0.196        0.176       16.733       17.103        1.045      336.864        8.452      866.536
01/10/2021  13:46:00       -0.486       21.860       -5.283       36.190       34.603       24.754     1309.708     1197.360      612.777        0.181        0.156       21.866       13.463        0.379      336.914        8.535      866.518
01/10/2021  13:47:00       20.104      -36.649       -4.034       52.420       55.429       41.588     2747.823     3072.398     1729.554        0.466        0.377       41.801       22.708        0.295      336.712        8.198      866.512
01/10/2021  13:48:00       44.192       26.899      -22.144       62.235       60.545       38.994     3873.157     3665.700     1520.495        0.611        0.453       51.735       20.381        0.155      336.498        7.839      866.508
01/10/2021  13:49:00       99.416       24.774      -13.960       49.088       67.627       27.847     2409.661     4573.452      775.460        0.922        0.388      102.456       25.025        0.060      336.375        7.633      866.517
01/10/2021  13:50:00      106.679       61.964       -8.557       45.787       28.815       23.381     2096.421      830.290      546.672        0.938        0.174      123.369       22.305        0.033      336.207        7.355      866.535
01/10/2021  13:51:00       69.916       75.763      -10.025       40.930       29.625       21.749     1675.255      877.619      473.000        0.688        0.151      103.093       19.692        0.036      336.234        7.398      866.543
01/10/2021  13:52:00       51.751      -54.642      -10.774       56.802       42.938       32.496     3226.499     1843.680     1056.016        0.595        0.306       75.259       36.756        0.239      336.387        7.654      866.544
01/10/2021  13:53:00       95.688     -116.590      -35.582       44.160       60.603       28.964     1950.068     3672.701      838.918        1.524        0.323      150.829       19.161        0.016      336.347        7.587      866.554
01/10/2021  13:54:00       71.501      -76.257      -18.602       37.741       46.951       25.042     1424.413     2204.398      627.085        0.776        0.213      104.534       25.720        0.061      336.254        7.433      866.568
01/10/2021  13:55:00       95.369       15.511       -3.923       73.681       68.972       44.028     5428.898     4757.085     1938.458        1.074        0.606       96.622       31.235        0.105      336.425        7.718      866.570
01/10/2021  13:56:00       83.674      -50.885      -19.534       77.570       53.665       42.777     6017.154     2879.925     1829.911        1.035        0.536       97.931       42.022        0.184      336.510        7.858      866.577
01/10/2021  13:57:00       91.601       31.842      -16.094       61.482       59.072       33.569     3779.994     3489.488     1126.909        0.903        0.420       96.978       19.581        0.041      336.279        7.474      866.581
01/10/2021  13:58:00       74.466       55.609      -12.700       61.405       43.621       30.743     3770.624     1902.792      945.141        0.771        0.331       92.938       36.197        0.152      336.225        7.383      866.567
01/10/2021  13:59:00       68.452      -66.010      -20.463       63.255       66.509       33.820     4001.219     4423.412     1143.796        0.951        0.478       95.095       25.852        0.074      336.331        7.559      866.567
01/10/2021  14:00:00       21.016       22.607      -13.338       49.351       40.744       28.131     2435.497     1660.067      791.357        0.301        0.244       30.867       20.873        0.457      336.440        7.743      866.572
01/10/2021  14:01:00       44.037      -93.561      -26.528       21.316       33.392       22.933      454.361     1115.040      525.921        0.675        0.105      103.407       10.964        0.011      336.162        7.279      866.585
01/10/2021  14:02:00       78.023      -38.959      -21.435       23.789       30.102       21.024      565.919      906.109      442.006        0.499        0.096       87.209       13.367        0.023      336.158        7.270      866.601
01/10/2021  14:03:00       17.448      -50.195      -17.615       48.435       37.694       22.745     2345.997     1420.865      517.332        0.371        0.214       53.141       12.471        0.055      336.437        7.739      866.608
01/10/2021  14:04:00       27.855     -104.048      -12.882       45.746       58.519       28.879     2092.742     3424.440      834.012        0.906        0.318      107.712       20.652        0.037      336.456        7.770      866.603
01/10/2021  14:05:00       73.667     -105.060      -29.868       47.913       34.476       27.912     2295.680     1188.627      779.077        1.081        0.213      128.314       23.154        0.033      336.483        7.814      866.629
01/10/2021  14:06:00       28.374      -23.934      -11.912       51.994       73.875       33.249     2703.352     5457.527     1105.472        0.539        0.463       37.121       29.497        0.631      336.444        7.751      866.652
01/10/2021  14:07:00        7.928       25.127       -0.023       44.128       37.320       19.750     1947.278     1392.810      390.056        0.221        0.187       26.348       16.347        0.385      336.458        7.773      866.666
01/10/2021  14:08:00       60.089       18.851       -8.393       45.553       41.591       23.059     2075.033     1729.807      531.714        0.419        0.217       62.977       21.771        0.120      336.464        7.784      866.686
01/10/2021  14:09:00      179.831       41.876       -8.734       56.908       41.218       37.023     3238.467     1698.920     1370.713        2.024        0.315      184.642       33.038        0.032      336.273        7.460      866.707
01/10/2021  14:10:00      206.357       25.802      -18.091       59.443       44.215       38.210     3533.520     1954.977     1459.997        2.526        0.347      207.964       38.409        0.034      336.156        7.266      866.733
01/10/2021  14:11:00       97.561       31.012      -19.135       65.288       65.150       31.651     4262.505     4244.487     1001.789        1.018        0.475      102.371       33.790        0.109      336.333        7.563      866.748
01/10/2021  14:12:00      160.215       36.057      -19.932       78.551       51.926       37.179     6170.193     2696.261     1382.258        1.881        0.512      164.223       32.639        0.040      336.258        7.437      866.743
01/10/2021  14:13:00       59.794      -12.024       -5.124       58.790       47.544       36.388     3456.268     2260.410     1324.099        0.539        0.352       60.991       34.559        0.321      336.288        7.488      866.730
01/10/2021  14:14:00      102.477       79.884      -11.419       45.753       43.545       23.469     2093.309     1896.156      550.793        1.078        0.227      129.934       24.355        0.035      336.131        7.226      866.717
01/10/2021  14:15:00       48.479       -2.999       -9.103       52.951       87.357       28.538     2803.777     7631.265      814.446        0.684        0.562       48.572       33.756        0.483      336.327        7.556      866.708
01/10/2021  14:16:00       22.005       -8.756       -1.628       59.100       82.585       36.956     3492.803     6820.338     1365.731        0.612        0.584       23.683       30.542        1.663      336.464        7.783      866.713
01/10/2021  14:17:00       29.027      -27.927       -5.408       62.747       50.415       36.265     3937.152     2541.721     1315.117        0.472        0.390       40.280       30.312        0.566      336.565        7.952      866.726
01/10/2021  14:18:00       82.551      -82.044      -22.569       64.806       62.649       36.159     4199.862     3924.885     1307.455        1.174        0.472      116.387       34.149        0.086      336.509        7.858      866.738
01/10/2021  14:19:00       71.994      -32.261      -12.699       68.521       50.136       35.957     4695.109     2513.599     1292.876        0.744        0.425       78.892       36.452        0.213      336.359        7.608      866.752
01/10/2021  14:20:00       72.195      -29.522       -8.531       66.515       60.310       43.167     4424.239     3637.292     1863.432        0.804        0.496       77.998       41.452        0.282      336.378        7.639      866.759
01/10/2021  14:21:00      115.897       11.722      -13.740       68.595       83.875       43.763     4705.238     7034.967     1915.236        1.370        0.683      116.488       38.202        0.108      336.278        7.471      866.773
01/10/2021  14:22:00      102.144       36.682      -25.929       78.119       52.973       34.290     6102.539     2806.113     1175.807        1.127        0.504      108.531       36.456        0.113      336.318        7.538      866.779
01/10/2021  14:23:00       89.584       44.691      -27.207       53.721       67.201       32.176     2885.969     4515.996     1035.326        0.960        0.422      100.113       22.913        0.052      336.455        7.768      866.791
01/10/2021  14:24:00       86.426       63.138      -17.634       77.491       57.107       38.314     6004.864     3261.171     1467.998        1.125        0.537      107.032       42.413        0.157      336.367        7.620      866.814
01/10/2021  14:25:00      145.459       21.966      -27.983       66.844       51.459       30.323     4468.170     2647.989      919.511        1.523        0.402      147.108       20.134        0.019      336.349        7.590      866.843
01/10/2021  14:26:00      100.861       38.284      -12.696       54.148       30.576       26.719     2931.967      934.911      713.879        0.819        0.229      107.882       30.762        0.081      336.378        7.640      866.873
01/10/2021  14:27:00       76.248       37.368      -13.655       46.198       36.202       26.255     2134.227     1310.601      689.319        0.576        0.207       84.913       24.522        0.083      336.463        7.782      866.888
01/10/2021  14:28:00      125.899       54.897      -27.731       42.952       28.773       26.303     1844.894      827.892      691.873        1.150        0.168      137.347       20.654        0.023      336.265        7.451      866.897
01/10/2021  14:29:00       48.776       68.162       -4.804       51.565       39.485       28.044     2658.996     1559.057      786.472        0.603        0.250       83.816       29.919        0.127      336.354        7.599      866.897
01/10/2021  14:30:00       39.371       35.257       -9.370       42.288       24.291       27.110     1788.311      590.051      734.933        0.300        0.156       52.850       29.559        0.313      336.439        7.741      866.904
01/10/2021  14:31:00       21.515       11.917      -10.327       37.076       28.227       23.276     1374.635      796.768      541.785        0.171        0.136       24.595       14.120        0.330      336.533        7.898      866.902
01/10/2021  14:32:00       34.613       12.224      -16.512       54.966       51.967       26.181     3021.210     2700.589      685.445        0.401        0.320       36.708       26.707        0.529      336.488        7.824      866.906
01/10/2021  14:33:00       54.572       24.129      -16.994       60.070       83.668       34.413     3608.349     7000.315     1184.248        0.782        0.590       59.668       27.215        0.208      336.485        7.818      866.906
01/10/2021  14:34:00       17.543      -10.141      -13.732       45.135       50.359       29.828     2037.165     2536.064      889.687        0.303        0.273       20.263       30.598        2.280      336.537        7.905      866.912
01/10/2021  14:35:00       64.119       16.970        1.245       70.642       34.697       31.263     4990.293     1203.908      977.392        0.578        0.359       66.327       27.748        0.175      336.512        7.863      866.916
01/10/2021  14:36:00       43.922       14.587      -11.050       61.117       54.193       29.718     3735.277     2936.892      883.144        0.491        0.378       46.281       27.364        0.350      336.579        7.976      866.921
01/10/2021  14:37:00       83.446       14.489      -20.751       63.318       74.119       37.181     4009.129     5493.603     1382.398        0.924        0.544       84.694       34.287        0.164      336.418        7.706      866.921
01/10/2021  14:38:00       63.034       16.583      -14.231       51.015       73.089       35.210     2602.493     5341.932     1239.727        0.682        0.459       65.179       30.093        0.213      336.406        7.686      866.923
01/10/2021  14:39:00       70.154       15.891      -31.970       50.963       58.735       30.947     2597.248     3449.833      957.724        0.660        0.350       71.932       24.696        0.118      336.491        7.829      866.933
01/10/2021  14:40:00       55.672      -70.699      -18.843       54.248       66.751       43.362     2942.798     4455.759     1880.251        0.886        0.464       89.987       32.092        0.127      336.490        7.826      866.955
01/10/2021  14:41:00       34.917      -27.024      -19.531       47.646       49.517       32.635     2270.104     2451.884     1065.041        0.406        0.289       44.153       23.640        0.287      336.451        7.761      866.970
01/10/2021  14:42:00       72.101        0.369      -37.023       55.683       78.959       35.272     3100.557     6234.546     1244.113        0.857        0.529       72.102       30.449        0.178      336.469        7.791      866.977
01/10/2021  14:43:00       63.813      -42.079      -18.729       56.238       59.992       34.530     3162.708     3599.002     1192.337        0.707        0.398       76.437       29.099        0.145      336.554        7.933      866.984
01/10/2021  14:44:00       61.362      -49.687      -27.023       52.117       63.084       38.324     2716.181     3979.602     1468.719        0.756        0.408       78.957       28.086        0.127      336.562        7.948      866.995
01/10/2021  14:45:00       90.291      -94.394      -20.077       80.127       78.523       54.977     6420.321     6165.888     3022.496        1.653        0.780      130.625       56.936        0.190      336.635        8.069      867.004
01/10/2021  14:46:00      126.185     -101.442      -35.827       74.068       59.614       42.604     5486.106     3553.868     1815.119        1.917        0.543      161.905       41.474        0.066      336.520        7.876      867.026
01/10/2021  14:47:00       91.778      -72.464       -9.348       87.438       65.967       46.929     7645.392     4351.676     2202.358        1.398        0.710      116.937       54.864        0.220      336.587        7.988      867.052
01/10/2021  14:48:00      129.471       41.810      -19.522       94.213       39.884       30.561     8876.172     1590.747      933.983        1.514        0.570      136.054       42.981        0.100      336.559        7.941      867.075
01/10/2021  14:49:00       61.423      -15.525      -28.361       63.769       67.223       37.924     4066.426     4518.962     1438.217        0.742        0.501       63.355       39.327        0.385      336.593        8.001      867.083
01/10/2021  14:50:00       96.608       -8.907      -28.340       75.609       64.286       41.609     5716.696     4132.638     1731.276        1.090        0.579       97.018       28.718        0.088      336.428        7.723      867.084
01/10/2021  14:51:00       82.345      -75.114      -32.475       55.968       67.313       35.787     3132.447     4531.028     1280.721        1.121        0.447      111.458       38.470        0.119      336.421        7.711      867.086
01/10/2021  14:52:00       56.316      -66.086      -29.932       59.445       50.933       30.919     3533.752     2594.177      955.956        0.776        0.354       86.826       30.322        0.122      336.572        7.963      867.086
01/10/2021  14:53:00       79.974       -6.630      -38.475       58.458       74.296       34.265     3417.346     5519.921     1174.066        0.901        0.506       80.248       30.344        0.143      336.627        8.057      867.092
01/10/2021  14:54:00      162.040       40.360       -9.768       83.193       56.920       38.705     6921.105     3239.863     1498.108        1.982        0.583      166.991       41.332        0.061      336.547        7.920      867.088
01/10/2021  14:55:00      166.189        2.193        1.784       81.292       64.223       41.423     6608.469     4124.581     1715.864        2.004        0.622      166.203       42.511        0.065      336.475        7.800      867.078
01/10/2021  14:56:00       84.206        0.653      -19.126       52.190       72.322       31.710     2723.780     5230.466     1005.548        0.821        0.448       84.208       23.797        0.080      336.453        7.765      867.071
01/10/2021  14:57:00       48.057      -25.437       -8.012       49.165       78.774       33.233     2417.178     6205.394     1104.439        0.637        0.486       54.374       25.572        0.221      336.500        7.843      867.080
01/10/2021  14:58:00       79.631       -1.529      -10.572       53.591       77.650       36.183     2872.040     6029.473     1309.237        0.833        0.511       79.646       31.114        0.153      336.491        7.828      867.088
01/10/2021  14:59:00       51.910       -1.264       -5.653       61.498       88.143       62.435     3781.963     7769.124     3898.139        0.909        0.772       51.925       46.587        0.805      336.565        7.951      867.106
01/10/2021  15:00:00      134.653      -37.778      -38.332       56.207       94.281       41.404     3159.212     8888.826     1714.314        1.739        0.688      139.852       22.494        0.026      336.561        7.945      867.127
01/10/2021  15:01:00      124.855      -59.586      -26.091       79.144       79.651       40.536     6263.703     6344.227     1643.200        1.703        0.713      138.345       37.490        0.073      336.518        7.873      867.137
01/10/2021  15:02:00      135.783      -76.903      -46.451       76.498       83.998       45.975     5851.901     7055.625     2113.726        2.076        0.751      156.049       41.306        0.070      336.465        7.783      867.146
01/10/2021  15:03:00       91.967      -30.152      -19.901       84.260       61.968       52.106     7099.796     3839.983     2715.033        1.171        0.683       96.783       52.851        0.298      336.468        7.789      867.151
01/10/2021  15:04:00       95.382      -26.442      -32.595       75.496       66.718       44.730     5699.602     4451.261     2000.768        1.150        0.608       98.980       44.971        0.206      336.394        7.665      867.162
01/10/2021  15:05:00       50.413      -30.909      -11.696       55.872       56.698       31.227     3121.703     3214.641      975.143        0.547        0.366       59.134       31.157        0.278      336.471        7.794      867.161
01/10/2021  15:06:00       22.301        9.299       -7.464       64.466       52.069       49.922     4155.853     2711.225     2492.172        0.500        0.468       24.162       43.274        3.208      336.648        8.090      867.155
01/10/2021  15:07:00      125.125      -35.924      -28.308       77.119       79.621       39.724     5947.337     6339.478     1577.962        1.580        0.693      130.180       39.929        0.094      336.473        7.797      867.161
01/10/2021  15:08:00       91.019       -1.967      -16.624       74.238       74.702       40.958     5511.257     5580.356     1677.537        1.066        0.638       91.040       39.936        0.192      336.557        7.940      867.176
01/10/2021  15:09:00       84.073       -9.854      -25.907       55.669       84.842       35.536     3099.014     7198.226     1262.801        0.970        0.578       84.649       32.558        0.148      336.697        8.174      867.196
01/10/2021  15:10:00      101.011       35.143      -23.840       78.715       71.247       35.583     6196.046     5076.137     1266.174        1.227        0.627      106.950       26.831        0.063      336.700        8.179      867.215
01/10/2021  15:11:00       79.453       34.303      -12.950       51.349       66.440       37.544     2636.764     4414.221     1409.538        0.806        0.423       86.542       27.030        0.098      336.619        8.046      867.217
01/10/2021  15:12:00       69.012       44.913      -13.865       46.247       48.467       28.280     2138.823     2349.057      799.786        0.613        0.264       82.340       23.036        0.078      336.643        8.083      867.233
01/10/2021  15:13:00      140.765       31.027       -9.718       50.969       45.341       29.976     2597.857     2055.788      898.583        1.321        0.278      144.144       26.949        0.035      336.512        7.863      867.246
01/10/2021  15:14:00      107.575       74.702      -13.743       34.737       44.152       23.385     1206.681     1949.423      546.863        1.052        0.185      130.969       23.605        0.032      336.569        7.960      867.262
01/10/2021  15:15:00       24.560       15.615      -10.228       39.841       31.487       20.661     1587.308      991.404      426.876        0.198        0.150       29.104       21.624        0.552      336.807        8.358      867.280
01/10/2021  15:16:00       21.814        3.698      -23.418       35.996       26.026       18.930     1295.716      677.365      358.358        0.168        0.117       22.126       20.222        0.835      336.860        8.444      867.293
01/10/2021  15:17:00       16.420       -3.552      -15.707       59.609       46.908       28.758     3553.264     2200.345      826.999        0.355        0.329       16.799       19.502        1.348      336.958        8.609      867.306
01/10/2021  15:18:00       53.686       11.875       -8.663       69.509       62.338       30.597     4831.449     3886.025      936.188        0.637        0.483       54.984       21.826        0.158      336.724        8.218      867.321
01/10/2021  15:19:00       60.223       24.878       -2.648       62.335       63.661       36.806     3885.705     4052.697     1354.703        0.677        0.465       65.160       24.719        0.144      336.887        8.491      867.335
01/10/2021  15:20:00      177.245       52.496      -12.392       62.349       52.809       29.247     3887.453     2788.767      855.379        2.093        0.377      184.856       31.347        0.029      336.607        8.020      867.350
01/10/2021  15:21:00      147.161       67.647        1.650       77.311       62.573       40.696     5976.928     3915.355     1656.160        1.889        0.577      161.964       38.049        0.055      336.618        8.039      867.354
01/10/2021  15:22:00      169.938       66.722       -9.086       41.583       45.846       30.787     1729.143     2101.874      947.827        1.910        0.239      182.567       17.505        0.009      336.577        7.971      867.366
01/10/2021  15:23:00       53.588        3.043       -5.767       61.865       43.130       26.158     3827.292     1860.188      684.216        0.464        0.319       53.674       23.870        0.198      336.770        8.296      867.385
01/10/2021  15:24:00       35.217      -30.909       -7.453       47.774       64.453       29.494     2282.385     4154.127      869.872        0.478        0.365       46.858       24.273        0.268      336.864        8.453      867.385
01/10/2021  15:25:00       61.814      -83.336      -17.660       44.207       74.930       36.446     1954.278     5614.468     1328.275        0.999        0.445      103.759       35.152        0.115      336.788        8.324      867.373
01/10/2021  15:26:00      104.351      -49.150      -14.278       71.138       61.667       34.313     5060.567     3802.793     1177.371        1.177        0.502      115.346       42.906        0.138      336.734        8.234      867.361
01/10/2021  15:27:00      102.485       -4.981      -11.809       79.867       73.381       43.215     6378.788     5384.839     1867.573        1.215        0.682      102.606       40.644        0.157      336.799        8.343      867.345
01/10/2021  15:28:00       79.229      -18.581      -15.787       67.193       66.365       45.737     4514.885     4404.359     2091.837        0.894        0.551       81.379       30.164        0.137      336.971        8.631      867.347
01/10/2021  15:29:00       56.985       32.170      -19.089       58.849       53.175       32.948     3463.188     2827.615     1085.567        0.601        0.369       65.439       26.402        0.163      336.912        8.530      867.371
01/10/2021  15:30:00       28.580       -7.538       -5.048       37.006       43.010       25.117     1369.415     1849.821      630.873        0.237        0.193       29.558       15.199        0.264      336.948        8.592      867.380
01/10/2021  15:31:00       74.010      -46.772      -25.999       60.396       52.498       31.937     3647.719     2756.033     1019.961        0.788        0.371       87.550       24.142        0.076      337.020        8.711      867.383
01/10/2021  15:32:00       85.391      -61.793      -22.380       91.356       87.856       39.231     8345.868     7718.757     1539.056        1.460        0.880      105.404       40.716        0.149      336.908        8.525      867.390
01/10/2021  15:33:00      100.921      -30.611      -17.240       82.513       92.422       41.492     6808.345     8541.889     1721.548        1.424        0.854      105.461       39.582        0.141      336.864        8.450      867.396
01/10/2021  15:34:00       24.634       63.722       14.304       58.701       55.049       32.112     3445.818     3030.368     1031.207        0.619        0.375       68.318       27.898        0.167      337.028        8.727      867.407
01/10/2021  15:35:00      132.208       35.221      -16.862       57.236       52.270       29.996     3276.013     2732.159      899.761        1.295        0.345      136.819       25.456        0.035      337.033        8.732      867.418
01/10/2021  15:36:00      116.129       33.633      -10.088       68.337       76.749       42.921     4669.973     5890.392     1842.230        1.356        0.620      120.902       23.962        0.039      336.869        8.458      867.409
01/10/2021  15:37:00      165.424       43.862      -26.125       72.267       56.655       34.277     5222.450     3209.796     1174.899        1.979        0.480      171.140       34.655        0.041      336.877        8.471      867.404
01/10/2021  15:38:00      202.963       39.094      -26.686       83.902       60.593       38.403     7039.580     3671.516     1474.753        2.781        0.609      206.694       36.533        0.031      336.895        8.501      867.398
01/10/2021  15:39:00      121.950        0.190      -31.000      104.805       80.163       47.829    10983.993     6426.028     2287.592        1.776        0.985      121.950       34.210        0.079      336.972        8.631      867.401
01/10/2021  15:40:00       76.781      -36.411        5.361       87.373       61.861       53.831     7634.073     3826.754     2897.748        1.080        0.718       84.977       50.934        0.359      336.945        8.585      867.418
01/10/2021  15:41:00       95.123      -25.531      -34.258       81.559       92.509       35.612     6651.819     8557.999     1268.230        1.367        0.824       98.490       35.861        0.133      336.958        8.610      867.427
01/10/2021  15:42:00      159.469      -43.075      -28.347       89.498      117.797       53.763     8009.967    13876.075     2890.467        2.643        1.239      165.184       45.787        0.077      336.807        8.356      867.434
01/10/2021  15:43:00      163.541       31.502      -26.872      127.044       61.041       43.691    16140.203     3726.043     1908.906        2.511        1.089      166.548       50.259        0.091      336.822        8.380      867.446
01/10/2021  15:44:00      196.472       32.476      -17.223       91.303       92.158       44.831     8336.238     8493.019     2009.822        2.939        0.942      199.138       43.522        0.048      336.744        8.250      867.465
01/10/2021  15:45:00      248.611       20.337      -20.276       99.926       69.640       49.573     9985.135     4849.745     2457.476        3.996        0.865      249.441       38.927        0.024      336.684        8.148      867.476
01/10/2021  15:46:00      167.459       72.466      -16.846       81.192       54.340       35.086     6592.165     2952.792     1231.001        2.217        0.539      182.466       32.706        0.032      336.750        8.259      867.494
01/10/2021  15:47:00      153.385       63.941      -18.710       63.044       52.221       37.066     3974.561     2727.019     1373.889        1.802        0.404      166.179       27.097        0.027      336.843        8.417      867.503
01/10/2021  15:48:00       99.346        5.724      -30.958       57.170      103.588       42.532     3268.369    10730.560     1808.990        1.333        0.790       99.511       32.989        0.110      336.888        8.493      867.514
01/10/2021  15:49:00      205.650       58.497       -4.117       81.482       54.186       43.222     6639.253     2936.167     1868.151        2.858        0.572      213.807       42.789        0.040      336.774        8.300      867.519
01/10/2021  15:50:00      182.693       20.548      -10.247      102.883       62.502       44.542    10584.876     3906.450     1983.980        2.519        0.824      183.845       32.648        0.032      336.783        8.313      867.516
01/10/2021  15:51:00      142.194       13.123       -9.611       70.737       70.760       39.546     5003.748     5006.911     1563.888        1.603        0.579      142.799       30.057        0.044      336.774        8.301      867.513
01/10/2021  15:52:00      125.790       -4.080       -8.188       88.141       67.223       40.749     7768.763     4518.900     1660.444        1.492        0.697      125.856       37.566        0.089      336.776        8.305      867.516
01/10/2021  15:53:00      128.468        1.132      -19.130       56.038       77.544       31.966     3140.206     6013.085     1021.843        1.352        0.509      128.473       21.896        0.029      336.778        8.309      867.515
01/10/2021  15:54:00      154.816       63.054      -22.876       91.175       49.568       30.453     8312.877     2457.002      927.370        2.008        0.585      167.164       29.283        0.031      336.834        8.400      867.522
01/10/2021  15:55:00       72.610        8.411      -12.205       76.872       91.805       52.420     5909.250     8428.167     2747.834        1.128        0.854       73.096       47.238        0.418      336.818        8.375      867.529
01/10/2021  15:56:00      157.992      -45.634      -19.628       77.983       66.991       46.555     6081.278     4487.841     2167.351        2.008        0.637      164.451       40.448        0.060      336.752        8.265      867.535
01/10/2021  15:57:00       92.212      -53.016      -13.478       90.404       68.684       46.414     8172.818     4717.479     2154.286        1.327        0.752      106.366       38.695        0.132      336.837        8.406      867.540
01/10/2021  15:58:00       82.364      -24.471       -7.839       66.734       79.334       58.530     4453.393     6293.897     3425.762        1.081        0.709       85.922       41.032        0.228      336.812        8.364      867.540
01/10/2021  15:59:00       87.003      -15.660       -3.270      103.364       67.294       48.773    10684.170     4528.503     2378.783        1.270        0.880       88.402       54.538        0.381      336.775        8.303      867.561
01/10/2021  16:00:00      125.250      -10.317      -27.074       70.715       90.087       40.666     5000.565     8115.645     1653.715        1.565        0.738      125.674       37.775        0.090      336.703        8.182      867.571
01/10/2021  16:01:00       55.887        0.381       -9.333       62.599       75.314       50.664     3918.665     5672.274     2566.839        0.768        0.608       55.888       38.604        0.477      336.745        8.255      867.571
01/10/2021  16:02:00      138.256        5.059      -16.630       73.075       70.397       37.554     5339.889     4955.709     1410.267        1.556        0.585      138.348       23.225        0.028      336.657        8.105      867.565
01/10/2021  16:03:00      135.234       12.965       -8.161       93.772       56.934       41.363     8793.252     3241.459     1710.935        1.613        0.687      135.854       41.064        0.091      336.685        8.152      867.553
01/10/2021  16:04:00      145.650       30.755      -14.412       85.453       81.456       40.081     7302.165     6635.031     1606.525        1.895        0.777      148.861       34.199        0.053      336.666        8.119      867.542
01/10/2021  16:05:00       96.055       50.312       -6.659       56.892       63.308       34.060     3236.743     4007.927     1160.077        1.010        0.420      108.433       30.391        0.079      336.711        8.197      867.534
01/10/2021  16:06:00       42.987      -23.515      -11.749       53.275       71.736       36.002     2838.265     5146.049     1296.132        0.591        0.464       48.999       31.507        0.413      336.727        8.225      867.526
01/10/2021  16:07:00       44.986      -13.690      -23.580       74.278       76.571       39.230     5517.152     5863.133     1539.024        0.784        0.646       47.022       33.407        0.505      336.666        8.121      867.542
01/10/2021  16:08:00       31.399      -28.550      -10.747       46.931       74.306       40.340     2202.494     5521.319     1627.294        0.563        0.468       42.438       31.701        0.558      336.688        8.159      867.566
01/10/2021  16:09:00       64.524       -2.039      -16.053       67.457       87.729       41.630     4550.498     7696.446     1733.044        0.920        0.699       64.556       40.388        0.391      336.625        8.053      867.598
01/10/2021  16:10:00       22.594      -18.786      -16.075       43.313       50.143       34.015     1876.015     2514.322     1157.011        0.333        0.277       29.383       21.245        0.523      336.665        8.121      867.615
01/10/2021  16:11:00       66.832      -63.699      -30.214       60.117       56.137       41.641     3614.086     3151.315     1733.972        0.897        0.425       92.326       29.821        0.104      336.638        8.076      867.621
01/10/2021  16:12:00       74.839       -9.238      -22.301       43.821       56.860       29.220     1920.311     3233.058      853.803        0.609        0.300       75.407       24.415        0.105      336.580        7.978      867.625
01/10/2021  16:13:00       66.738       21.502      -20.835       49.237       63.026       26.537     2424.276     3972.331      704.235        0.622        0.355       70.116       17.867        0.065      336.611        8.030      867.636
01/10/2021  16:14:00       97.712       51.010      -18.577       42.325       39.263       21.956     1791.411     1541.593      482.067        0.815        0.191      110.225       21.465        0.038      336.639        8.077      867.652
01/10/2021  16:15:00      103.593       76.490      -22.784       43.827       33.289       21.936     1920.827     1108.174      481.204        1.031        0.176      128.773       17.797        0.019      336.621        8.048      867.666
01/10/2021  16:16:00       79.665       45.714      -19.284       42.594       37.909       21.961     1814.282     1437.099      482.287        0.627        0.187       91.849       18.570        0.041      336.674        8.135      867.679
01/10/2021  16:17:00       54.933      -28.196      -17.041       50.539       62.517       30.393     2554.180     3908.328      923.762        0.574        0.369       61.747       26.704        0.187      336.657        8.106      867.699
01/10/2021  16:18:00       56.401       28.677      -17.744       40.178       34.837       24.321     1614.290     1213.625      591.489        0.387        0.171       63.272       18.013        0.081      336.596        8.005      867.712
01/10/2021  16:19:00       81.154       43.814      -15.598       43.967       37.916       23.122     1933.082     1437.660      534.622        0.633        0.195       92.226       14.477        0.025      336.586        7.987      867.730
01/10/2021  16:20:00      118.431       32.367      -17.898       46.778       31.045       22.813     2188.191      963.810      520.453        0.953        0.184      122.774       27.701        0.051      336.538        7.906      867.759
01/10/2021  16:21:00       84.979       51.726      -13.725       53.905       33.607       29.479     2905.705     1129.440      869.007        0.749        0.245       99.484       30.274        0.093      336.580        7.976      867.779
01/10/2021  16:22:00       35.711      -18.688      -23.554       51.105       43.774       29.934     2611.760     1916.136      896.067        0.380        0.271       40.305       30.895        0.588      336.600        8.012      867.796
01/10/2021  16:23:00       40.610      -27.750      -21.042       49.055       50.424       34.144     2406.421     2542.613     1165.845        0.449        0.306       49.185       31.862        0.420      336.497        7.838      867.803
01/10/2021  16:24:00       66.659      -27.348      -26.515       52.304       71.616       25.755     2735.745     5128.898      663.298        0.721        0.426       72.051       27.479        0.145      336.512        7.864      867.817
01/10/2021  16:25:00       62.246      -39.015      -22.620       52.813       63.858       35.069     2789.181     4077.901     1229.814        0.700        0.405       73.463       32.720        0.198      336.531        7.896      867.821
01/10/2021  16:26:00       64.972      -34.245      -33.460       66.161       56.404       37.947     4377.218     3181.376     1439.990        0.775        0.450       73.444       39.926        0.296      336.461        7.778      867.826
01/10/2021  16:27:00       86.963      -22.266      -45.104       65.380       55.414       31.771     4274.609     3070.732     1009.425        0.922        0.418       89.768       37.030        0.170      336.447        7.754      867.824
01/10/2021  16:28:00       81.647      -50.672      -26.866       67.792       51.369       37.312     4595.799     2638.769     1392.153        0.929        0.431       96.093       37.322        0.151      336.462        7.779      867.812
01/10/2021  16:29:00       52.072      -16.370      -21.318       56.127       59.657       37.386     3150.289     3558.987     1397.689        0.577        0.405       54.585       38.892        0.508      336.412        7.695      867.803
01/10/2021  16:30:00       75.353      -27.567      -34.516       61.672       53.786       35.276     3803.429     2892.943     1244.416        0.778        0.397       80.238       35.344        0.194      336.389        7.657      867.797
01/10/2021  16:31:00       69.173       18.624      -26.669       55.927       47.656       34.770     3127.779     2271.115     1208.967        0.622        0.330       71.637       32.489        0.206      336.369        7.625      867.800
01/10/2021  16:32:00       98.060      -69.386      -31.341       51.897       37.818       28.780     2693.306     1430.194      828.281        1.018        0.248      120.126       25.925        0.047      336.453        7.764      867.801
01/10/2021  16:33:00       98.274        1.260      -36.615       73.162       72.938       39.213     5352.624     5319.962     1537.663        1.160        0.611       98.282       33.428        0.116      336.352        7.595      867.812
01/10/2021  16:34:00      103.566      -25.753      -28.774       65.930       54.310       34.936     4346.756     2949.579     1220.525        1.037        0.426      106.720       37.436        0.123      336.405        7.684      867.814
01/10/2021  16:35:00      149.387      -41.741      -15.819       77.298       40.330       44.591     5975.029     1626.506     1988.337        1.695        0.479      155.109       44.597        0.083      336.412        7.694      867.813
01/10/2021  16:36:00      103.295      -28.959       -7.645       91.202       43.481       43.223     8317.776     1890.585     1868.192        1.182        0.604      107.278       51.224        0.228      336.373        7.631      867.812
01/10/2021  16:37:00      158.516      -53.409      -24.900       61.409       30.353       32.782     3771.088      921.333     1074.685        1.718        0.288      167.272       37.779        0.051      336.399        7.672      867.815
01/10/2021  16:38:00      126.289      -38.806      -15.676       77.420       38.393       39.251     5993.870     1474.019     1540.627        1.335        0.450      132.117       46.854        0.126      336.401        7.677      867.810
01/10/2021  16:39:00       74.826      -21.658      -14.998       61.364       43.582       38.724     3765.549     1899.383     1499.583        0.673        0.358       77.897       39.539        0.258      336.375        7.632      867.812
01/10/2021  16:40:00       83.401       -7.406      -26.927       54.152       41.883       30.117     2932.403     1754.178      907.050        0.666        0.280       83.729       32.809        0.154      336.305        7.517      867.816
01/10/2021  16:41:00       73.747      -30.486      -29.688       53.307       46.693       27.133     2841.638     2180.228      736.216        0.650        0.288       79.800       33.986        0.181      336.322        7.544      867.819
01/10/2021  16:42:00       66.432      -37.813      -42.811       62.669       43.636       30.572     3927.436     1904.139      934.627        0.722        0.338       76.440       36.047        0.222      336.352        7.596      867.822
01/10/2021  16:43:00       88.622      -42.480      -31.198       50.942       38.905       29.920     2595.106     1513.588      895.206        0.782        0.250       98.277       32.398        0.109      336.363        7.614      867.826
01/10/2021  16:44:00       68.606        6.889      -31.222       52.447       37.143       28.081     2750.715     1379.602      788.547        0.532        0.246       68.951       33.016        0.229      336.255        7.434      867.839
01/10/2021  16:45:00       74.400        1.776      -36.117       53.621       34.029       27.382     2875.249     1157.997      749.771        0.581        0.239       74.421       30.011        0.163      336.232        7.395      867.839
01/10/2021  16:46:00       61.744       -5.569      -29.338       47.620       51.342       25.121     2267.620     2636.009      631.063        0.512        0.277       61.994       26.972        0.189      336.229        7.390      867.831
01/10/2021  16:47:00       97.888       46.329      -12.616       46.885       36.376       27.710     2198.185     1323.195      767.823        0.809        0.214      108.298       27.125        0.063      336.175        7.300      867.831
01/10/2021  16:48:00      112.031       26.188      -25.185       61.549       24.414       27.117     3788.330      596.056      735.319        0.949        0.256      115.051       33.516        0.085      336.206        7.352      867.825
01/10/2021  16:49:00      112.561       26.196      -23.229       51.572       25.565       27.553     2659.660      653.558      759.155        0.898        0.204      115.569       34.090        0.087      336.198        7.338      867.816
01/10/2021  16:50:00      104.040       29.573      -10.908       55.338       38.729       32.611     3062.318     1499.926     1063.476        0.872        0.281      108.162       35.927        0.110      336.158        7.271      867.811
01/10/2021  16:51:00       86.882       33.327       -3.534       74.865       55.537       38.215     5604.722     3084.359     1460.354        0.941        0.507       93.055       42.029        0.204      336.198        7.338      867.805
01/10/2021  16:52:00      150.994       30.324      -17.112       69.989       40.816       30.712     4898.393     1665.947      943.214        1.576        0.375      154.009       40.457        0.069      336.130        7.225      867.804
01/10/2021  16:53:00      149.345       30.399      -15.983       65.560       32.755       32.752     4298.172     1072.879     1072.700        1.496        0.322      152.408       41.263        0.073      336.081        7.143      867.807
01/10/2021  16:54:00      157.688       14.176      -17.240       62.486       26.028       37.106     3904.474      677.476     1376.831        1.566        0.298      158.324       41.832        0.070      336.034        7.064      867.802
01/10/2021  16:55:00      134.961       23.713      -15.159       50.357       28.046       27.752     2535.785      786.555      770.169        1.155        0.205      137.028       31.364        0.052      335.950        6.923      867.800
01/10/2021  16:56:00      131.251       12.638      -14.724       53.057       37.824       30.449     2815.067     1430.662      927.151        1.139        0.259      131.858       30.062        0.052      335.953        6.928      867.806
01/10/2021  16:57:00      141.611       26.801      -18.393       50.009       31.619       26.552     2500.934      999.745      705.003        1.266        0.210      144.125       28.413        0.039      335.900        6.841      867.812
01/10/2021  16:58:00      160.643       28.418      -15.863       54.585       32.982       32.776     2979.536     1087.796     1074.245        1.600        0.257      163.137       35.280        0.047      335.917        6.870      867.823
01/10/2021  16:59:00      121.028       23.811      -10.927       57.947       43.611       32.683     3357.798     1901.903     1068.173        1.083        0.316      123.348       29.703        0.058      335.917        6.870      867.836
01/10/2021  17:00:00      152.544       40.191      -13.046       50.879       46.141       36.602     2588.652     2129.035     1339.680        1.555        0.303      157.750       31.612        0.040      335.932        6.894      867.851
01/10/2021  17:01:00      133.021       23.540      -14.895       70.208       67.753       30.992     4929.155     4590.478      960.535        1.447        0.524      135.088       25.798        0.036      335.884        6.814      867.880
01/10/2021  17:02:00      145.540       29.771      -13.134       49.007       43.006       30.636     2401.682     1849.514      938.552        1.371        0.259      148.554       30.639        0.043      335.789        6.657      867.906
01/10/2021  17:03:00      116.123       22.308       -9.038       47.948       41.495       26.262     2299.024     1721.795      689.688        0.939        0.236      118.247       27.540        0.054      335.768        6.621      867.936
01/10/2021  17:04:00      112.725       22.199       -7.009       68.025       39.485       29.801     4627.351     1559.045      888.091        1.016        0.354      114.890       36.264        0.100      335.747        6.588      867.955
01/10/2021  17:05:00      121.362       20.782      -14.191       60.509       41.177       29.997     3661.306     1695.537      899.815        1.081        0.313      123.129       32.321        0.069      335.760        6.608      867.972
01/10/2021  17:06:00      124.938       19.294       -6.625       50.206       24.890       28.404     2520.619      619.524      806.790        0.999        0.197      126.419       31.775        0.063      335.716        6.535      867.984
01/10/2021  17:07:00      127.784       26.031      -14.234       35.872       24.634       23.759     1286.831      606.816      564.476        0.983        0.123      130.408       18.972        0.021      335.698        6.507      867.990
01/10/2021  17:08:00       81.177       27.416      -12.760       46.737       43.896       25.497     2184.381     1926.857      650.082        0.613        0.238       85.682       22.996        0.072      335.635        6.400      867.996
01/10/2021  17:09:00       34.636      -10.125      -19.195       39.688       41.009       24.581     1575.161     1681.734      604.207        0.277        0.193       36.086       24.838        0.474      335.735        6.566      867.999
01/10/2021  17:10:00       80.538       25.816      -16.244       45.520       52.700       24.715     2072.045     2777.274      610.835        0.644        0.273       84.575       16.820        0.040      335.688        6.489      868.011
01/10/2021  17:11:00       71.709       28.742      -14.450       39.736       44.566       20.512     1578.922     1986.164      420.724        0.508        0.199       77.255       20.879        0.073      335.613        6.363      868.024
01/10/2021  17:12:00      112.230       21.203      -16.287       44.680       44.579       25.577     1996.302     1987.318      654.165        0.897        0.232      114.215       24.502        0.046      335.584        6.316      868.027
01/10/2021  17:13:00      142.727       16.482      -13.565       46.216       32.184       25.001     2135.956     1035.780      625.061        1.231        0.190      143.676       23.248        0.026      335.552        6.262      868.053
01/10/2021  17:14:00       94.794       43.653      -13.404       58.904       38.330       24.348     3469.722     1469.173      592.843        0.830        0.277      104.362       29.537        0.080      335.496        6.168      868.082
01/10/2021  17:15:00      119.977       20.238      -15.788       41.867       44.565       22.344     1752.833     1985.997      499.260        0.964        0.212      121.671       25.441        0.044      335.486        6.151      868.113
01/10/2021  17:16:00       68.932        3.886       -1.098       56.246       28.119       21.124     3163.609      790.673      446.206        0.458        0.220       69.042       25.376        0.135      335.470        6.124      868.140
01/10/2021  17:17:00       89.106       32.101      -12.206       39.204       25.178       19.586     1536.990      633.923      383.626        0.584        0.128       94.712       18.058        0.036      335.405        6.016      868.160
01/10/2021  17:18:00      103.348       61.794      -15.078       37.644       31.124       20.024     1417.050      968.686      400.962        0.876        0.139      120.413       18.890        0.025      335.456        6.102      868.183
01/10/2021  17:19:00      106.439       60.135      -20.343       32.631       33.984       23.022     1064.786     1154.945      530.007        0.905        0.137      122.252       17.277        0.020      335.462        6.110      868.207
01/10/2021  17:20:00       99.047       41.661       -9.430       29.904       22.968       17.031      894.225      527.529      290.054        0.667        0.086      107.452       17.054        0.025      335.442        6.077      868.223
01/10/2021  17:21:00       80.816       33.283       -4.935       27.729       17.719       13.078      768.874      313.953      171.045        0.446        0.063       87.401       14.480        0.027      335.420        6.041      868.251
01/10/2021  17:22:00       65.879       24.802      -10.257       24.022       20.987       14.822      577.041      440.435      219.679        0.315        0.062       70.393       15.315        0.047      335.407        6.019      868.281
01/10/2021  17:23:00       82.233       47.345       -8.450       28.173       21.257       17.429      793.736      451.857      303.755        0.531        0.077       94.888       17.196        0.033      335.403        6.013      868.319
01/10/2021  17:24:00       64.735       43.108       -3.621       35.678       26.101       17.730     1272.885      681.284      314.344        0.416        0.113       77.775       18.109        0.054      335.356        5.934      868.348
01/10/2021  17:25:00       53.037       39.023       -0.819       28.143       21.910       15.992      792.040      480.061      255.755        0.293        0.076       65.847       13.014        0.039      335.278        5.805      868.377
01/10/2021  17:26:00       97.633       64.890      -14.248       40.301       18.930       18.629     1624.187      358.327      347.048        0.814        0.116      117.230       19.461        0.028      335.301        5.845      868.404
01/10/2021  17:27:00       87.691       52.060      -21.646       30.181       21.676       17.526      910.910      469.848      307.166        0.628        0.084      101.980       13.257        0.017      335.370        5.957      868.423
01/10/2021  17:28:00      112.009       49.079      -26.180       36.551       33.034       18.446     1336.002     1091.247      340.241        0.920        0.138      122.290       19.928        0.027      335.325        5.883      868.438
01/10/2021  17:29:00      104.404       34.760       -6.003       41.229       31.744       21.604     1699.841     1007.667      466.741        0.766        0.159      110.038       25.315        0.053      335.221        5.712      868.441
01/10/2021  17:30:00       89.539        3.800       -6.517       40.535       26.598       21.435     1643.106      707.428      459.468        0.544        0.141       89.620       21.418        0.057      335.226        5.719      868.442
01/10/2021  17:31:00       90.165       12.080       -0.814       48.372       25.187       20.011     2339.805      634.402      400.446        0.582        0.169       90.971       23.264        0.065      335.161        5.612      868.451
01/10/2021  17:32:00      125.249       23.253       -5.323       41.743       23.505       22.231     1742.481      552.477      494.230        0.952        0.139      127.390       17.368        0.019      335.075        5.470      868.463
01/10/2021  17:33:00       82.626       21.537       -6.848       35.321       26.333       22.216     1247.596      693.408      493.567        0.489        0.122       85.386       14.750        0.030      335.100        5.512      868.482
01/10/2021  17:34:00       71.799       21.161       -7.973       24.499       17.423       14.841      600.204      303.554      220.261        0.340        0.056       74.853       12.959        0.030      335.050        5.429      868.510
01/10/2021  17:35:00       60.980       19.320      -12.763       18.367       12.654       10.731      337.352      160.126      115.154        0.243        0.031       63.968       10.806        0.029      335.118        5.541      868.536
01/10/2021  17:36:00       54.412       48.233       -8.696       27.352       25.823       16.177      748.135      666.828      261.682        0.352        0.084       72.712       12.983        0.032      335.095        5.503      868.572
01/10/2021  17:37:00       40.633       -4.172      -19.513       32.053       31.464       18.657     1027.419      990.000      348.074        0.221        0.118       40.847       18.258        0.200      335.102        5.513      868.598
01/10/2021  17:38:00       18.620        6.249       -3.676       28.224       24.912       14.802      796.606      620.618      219.102        0.102        0.082       19.640       16.168        0.678      335.080        5.477      868.607
01/10/2021  17:39:00       45.186       11.312       -3.355       30.462       19.609       17.134      927.926      384.524      293.590        0.189        0.080       46.580       19.159        0.169      335.076        5.470      868.622
01/10/2021  17:40:00       77.855       14.866       -7.554       25.032        9.606       13.007      626.578       92.281      169.181        0.361        0.044       79.261       16.430        0.043      335.077        5.472      868.634
01/10/2021  17:41:00       76.553       16.666      -13.711       24.741       10.323       13.699      612.097      106.564      187.653        0.362        0.045       78.346       15.944        0.041      335.076        5.471      868.648
01/10/2021  17:42:00       51.514        8.261      -13.923       18.841       16.785       10.313      354.967      281.720      106.351        0.183        0.037       52.173        8.666        0.028      335.037        5.407      868.674
01/10/2021  17:43:00       64.957       21.305      -14.182       22.218       14.765       11.380      493.652      218.008      129.509        0.286        0.042       68.362        9.819        0.021      335.008        5.359      868.695
01/10/2021  17:44:00       50.898        4.354       -5.271       28.768       20.679       16.431      827.623      427.635      269.968        0.208        0.076       51.084       20.098        0.155      335.009        5.361      868.724
01/10/2021  17:45:00       48.933       25.746       -2.726       23.901       10.060       11.680      571.244      101.200      136.417        0.194        0.040       55.292       13.899        0.063      335.020        5.378      868.741
01/10/2021  17:46:00      -18.775       22.814       -5.704       26.243       10.946        9.151      688.681      119.808       83.744        0.090        0.045       29.546       10.233        0.120      334.796        5.006      868.761
01/10/2021  17:47:00      -48.185        9.004       -8.254       29.027       19.184       16.113      842.562      368.023      259.614        0.197        0.074       49.019       13.362        0.074      334.442        4.418      868.764
01/10/2021  17:48:00      -47.373       21.650       -6.397       16.510       13.615       14.007      272.581      185.362      196.196        0.170        0.033       52.086        5.698        0.012      334.466        4.459      868.770
01/10/2021  17:49:00      -48.348       13.183       -7.883       19.832       12.763       10.570      393.308      162.903      111.719        0.162        0.033       50.113        6.777        0.018      334.414        4.372      868.778
01/10/2021  17:50:00      -66.320       18.754      -11.175       23.242       22.370       12.918      540.213      500.395      166.874        0.304        0.060       68.921        6.217        0.008      334.436        4.407      868.779
01/10/2021  17:51:00      -67.085        5.496       -8.248       29.610       21.240       17.138      876.771      451.150      293.699        0.311        0.081       67.310       12.376        0.034      334.257        4.112      868.793
01/10/2021  17:52:00     -121.381       29.660      -17.086       30.758       20.022       11.409      946.072      400.885      130.174        0.869        0.074      124.952        7.180        0.003      334.159        3.948      868.796
01/10/2021  17:53:00      -80.463       -0.227       -9.590       75.238       30.980       17.826     5660.823      959.766      317.771        0.675        0.347       80.463       19.259        0.057      334.084        3.823      868.803
01/10/2021  17:54:00     -119.140       12.993       -7.702       46.954       30.304       22.617     2204.678      918.335      511.513        0.903        0.182      119.847       13.936        0.014      334.070        3.799      868.805
01/10/2021  17:55:00     -107.233       38.642       -5.372       28.462       21.765       16.154      810.062      473.713      260.950        0.728        0.077      113.983       13.229        0.013      334.152        3.935      868.808
01/10/2021  17:56:00      -64.160       31.159       -1.024       41.561       20.679       21.718     1727.317      427.615      471.654        0.386        0.131       71.326        9.287        0.017      334.153        3.936      868.807
01/10/2021  17:57:00      -70.572       12.578       -3.904       31.437       22.564       15.616      988.299      509.146      243.855        0.345        0.087       71.685       12.827        0.032      334.164        3.956      868.808
01/10/2021  17:58:00      -38.625       20.543       -8.906       28.652       37.471       14.271      820.953     1404.100      203.673        0.221        0.121       43.748       17.551        0.161      334.438        4.411      868.811
01/10/2021  17:59:00      -43.415       15.741       -5.193       27.499       19.874       17.759      756.216      394.990      315.370        0.181        0.073       46.181       12.727        0.076      334.304        4.189      868.806
01/10/2021  18:00:00      -29.240       13.488       -4.104       27.678       18.981       15.152      766.088      360.275      229.579        0.120        0.068       32.201       13.645        0.180      334.268        4.128      868.803
01/10/2021  18:01:00      -61.716       13.347       -9.997       28.908       21.618       13.840      835.693      467.351      191.555        0.279        0.075       63.143        7.962        0.016      334.140        3.914      868.806
01/10/2021  18:02:00      -65.215        6.467       -4.638       23.824       18.904       13.553      567.604      357.369      183.680        0.271        0.055       65.535        8.448        0.017      334.086        3.826      868.815
01/10/2021  18:03:00     -104.132       14.679       -6.740       33.278       22.776       14.302     1107.403      518.731      204.541        0.647        0.092      105.162       13.166        0.016      334.079        3.815      868.835
01/10/2021  18:04:00     -118.562       27.398       -3.663       45.989       29.320       19.070     2115.033      859.681      363.662        0.908        0.167      121.687       10.023        0.007      334.005        3.692      868.862
01/10/2021  18:05:00      -98.733       26.446       -5.534       47.316       29.307       19.921     2238.774      858.913      396.831        0.699        0.175      102.213       19.899        0.038      333.911        3.537      868.885
01/10/2021  18:06:00     -119.430       27.939       -2.814       38.390       30.445       22.893     1473.817      926.873      524.094        0.899        0.146      122.654       20.680        0.028      333.844        3.425      868.916
01/10/2021  18:07:00     -122.788       53.609       -3.256       41.899       32.823       25.452     1755.563     1077.360      647.782        1.072        0.174      133.980       22.476        0.028      333.772        3.307      868.939
01/10/2021  18:08:00     -111.255       15.613      -13.056       32.924       29.747       21.268     1083.984      884.896      452.336        0.761        0.121      112.345       13.452        0.014      333.777        3.314      868.956
01/10/2021  18:09:00      -53.602        0.962       -7.500       48.660       22.497       20.254     2367.815      506.097      410.226        0.311        0.164       53.610       20.823        0.151      333.844        3.426      868.961
01/10/2021  18:10:00      -61.611       -9.294      -11.297       39.028       36.373       21.304     1523.219     1322.992      453.846        0.365        0.165       62.309       10.632        0.029      333.792        3.339      868.972
01/10/2021  18:11:00      -89.309       23.994       -4.079       55.010       25.313       21.500     3026.058      640.763      462.261        0.635        0.206       92.476       24.737        0.072      333.816        3.379      868.991
01/10/2021  18:12:00      -76.690       15.400       -6.062       34.532       32.733       18.264     1192.473     1071.431      333.579        0.438        0.130       78.221       15.774        0.041      333.847        3.431      869.013
01/10/2021  18:13:00      -50.910       19.563       -5.772       36.817       38.508       21.093     1355.465     1482.892      444.911        0.314        0.164       54.539       16.092        0.087      333.844        3.425      869.020
01/10/2021  18:14:00     -107.989       40.713       -8.176       35.675       29.321       18.812     1272.718      859.699      353.882        0.794        0.124      115.408       17.235        0.022      333.853        3.441      869.030
01/10/2021  18:15:00      -84.965       22.688       -9.257       32.979       21.516       17.311     1087.644      462.956      299.660        0.483        0.093       87.942       17.820        0.041      333.823        3.391      869.030
01/10/2021  18:16:00      -84.397       19.282       -4.577       36.356       30.662       18.071     1321.745      940.175      326.555        0.505        0.129       86.571       14.165        0.027      334.013        3.706      869.041
01/10/2021  18:17:00      -80.116       47.665       -5.508       34.722       31.915       21.574     1205.649     1018.585      465.453        0.570        0.134       93.223       16.965        0.033      334.079        3.814      869.048
01/10/2021  18:18:00      -73.858       52.973       -8.096       54.813       49.889       27.386     3004.414     2488.886      749.991        0.728        0.312       90.891       27.547        0.092      334.229        4.063      869.054
01/10/2021  18:19:00      -99.335       57.989      -10.815       44.195       35.265       22.754     1953.211     1243.585      517.739        0.853        0.186      115.022       15.146        0.017      334.330        4.233      869.029
01/10/2021  18:20:00      -83.395      113.382      -12.718       42.253       72.620       27.014     1785.314     5273.624      729.755        1.388        0.389      140.748       32.359        0.053      334.348        4.261      869.019
01/10/2021  18:21:00      -46.801       20.224      -10.177       34.271       42.839       20.894     1174.517     1835.221      436.573        0.307        0.172       50.983       10.312        0.041      334.222        4.053      869.003
01/10/2021  18:22:00      -71.286       38.799      -20.026       32.613       29.095       20.303     1063.604      846.505      412.229        0.465        0.116       81.160       10.018        0.015      334.257        4.111      868.989
01/10/2021  18:23:00        1.814        5.649       -7.143       20.015       25.154       18.965      400.620      632.703      359.668        0.074        0.070        5.933       15.813        7.104      334.277        4.145      868.973
01/10/2021  18:24:00      -52.796       11.232       -5.607       45.840       49.477       31.720     2101.298     2447.975     1006.171        0.425        0.278       53.978       18.382        0.116      334.218        4.045      868.968
01/10/2021  18:25:00      -81.879       19.768      -12.801       38.223       31.106       26.121     1461.033      967.598      682.295        0.518        0.156       84.232       23.031        0.075      334.164        3.957      868.975
01/10/2021  18:26:00      -57.186        7.761       -6.897       40.624       28.386       22.148     1650.326      805.766      490.552        0.316        0.147       57.710       20.479        0.126      334.104        3.856      868.984
01/10/2021  18:27:00      -63.814        3.224      -10.488       48.334       28.784       19.304     2336.151      828.533      372.647        0.386        0.177       63.896       17.634        0.076      334.197        4.011      868.998
01/10/2021  18:28:00      -14.655       28.893       -4.399       23.419       30.480       17.660      548.451      929.039      311.893        0.143        0.089       32.398       15.233        0.221      334.284        4.157      869.022
01/10/2021  18:29:00       39.024        8.710       -1.052       29.178       35.050       21.879      851.353     1228.518      478.678        0.208        0.128       39.984       19.207        0.231      334.331        4.234      869.040
01/10/2021  18:30:00       27.702      -43.308      -13.091       43.804       43.240       27.169     1918.781     1869.705      738.173        0.367        0.226       51.409       20.411        0.158      334.382        4.318      869.063
01/10/2021  18:31:00       51.709      -49.861      -21.959       35.183       47.972       25.832     1237.821     2301.333      667.288        0.492        0.210       71.833       17.569        0.060      334.436        4.408      869.086
01/10/2021  18:32:00       55.711      -38.333      -21.833       32.084       36.895       22.367     1029.389     1361.253      500.264        0.397        0.145       67.624       17.635        0.068      334.342        4.252      869.105
01/10/2021  18:33:00        7.136        3.218       -3.543       21.924       24.972       14.094      480.682      623.606      198.650        0.069        0.065        7.828       11.591        2.193      334.267        4.126      869.115
01/10/2021  18:34:00       -3.185        7.652       -2.340       10.895       11.928        9.036      118.697      142.281       81.647        0.021        0.017        8.288        5.029        0.368      334.303        4.187      869.121
01/10/2021  18:35:00      -24.514       23.021        2.316       19.918       18.600       10.504      396.708      345.973      110.340        0.099        0.043       33.629        9.339        0.077      334.344        4.255      869.110
01/10/2021  18:36:00      -56.891       42.792       -7.456       26.593       28.667       19.365      707.178      821.785      375.012        0.351        0.095       71.188       11.313        0.025      334.392        4.336      869.113
01/10/2021  18:37:00       30.681       27.056      -10.767       53.546       28.828       20.644     2867.166      831.051      426.157        0.296        0.206       40.907       13.874        0.115      334.420        4.381      869.125
01/10/2021  18:38:00      -15.818        9.679        1.748       19.873       18.980       10.437      394.928      360.225      108.937        0.061        0.043       18.545        9.560        0.266      334.417        4.377      869.130
01/10/2021  18:39:00      -22.926       35.461        1.976       29.974       30.964       15.474      898.420      958.794      239.433        0.194        0.105       42.226       12.499        0.088      334.327        4.226      869.135
01/10/2021  18:40:00      -33.751       28.385       -5.383       19.151       32.045       10.903      366.753     1026.900      118.874        0.174        0.076       44.100        8.614        0.038      334.378        4.311      869.142
01/10/2021  18:41:00      -39.373       11.838       -4.261       19.915       15.213       12.084      396.589      231.435      146.012        0.124        0.039       41.114        7.685        0.035      334.257        4.110      869.128
01/10/2021  18:42:00      -23.243       12.289       -1.972       18.555       18.740        8.959      344.283      351.176       80.262        0.074        0.039       26.291        7.354        0.078      334.212        4.034      869.116
01/10/2021  18:43:00        8.378       32.584       -2.618       14.845       11.220        7.197      220.387      125.888       51.793        0.077        0.020       33.644        6.593        0.038      334.204        4.022      869.095
01/10/2021  18:44:00       44.809       25.661       -1.879       31.537       14.585       10.606      994.590      212.715      112.487        0.199        0.066       51.637       12.883        0.062      334.108        3.864      869.077
01/10/2021  18:45:00      106.095       18.270      -15.024       21.268       15.725       12.961      452.321      247.265      167.976        0.634        0.043      107.656       11.213        0.011      334.083        3.821      869.063
01/10/2021  18:46:00       72.052       28.310       -7.069       19.460        8.228        8.398      378.686       67.707       70.533        0.328        0.026       77.414       10.915        0.020      334.120        3.882      869.059
01/10/2021  18:47:00       85.026       23.761       -8.923       25.493       16.623       16.145      649.900      276.321      260.647        0.453        0.059       88.284       15.348        0.030      334.176        3.975      869.062
01/10/2021  18:48:00       48.724      -12.949      -19.119       32.189       48.406       18.865     1036.154     2343.171      355.878        0.332        0.187       50.415        9.101        0.033      334.196        4.008      869.061
01/10/2021  18:49:00       52.959        4.508      -31.619       30.200       58.738       24.054      912.038     3450.153      578.585        0.438        0.247       53.150        6.778        0.016      334.159        3.946      869.084
01/10/2021  18:50:00       47.080        5.806      -21.342       38.894       43.614       24.794     1512.782     1902.218      614.750        0.337        0.201       47.437       13.808        0.085      334.101        3.852      869.108
01/10/2021  18:51:00       59.420        5.463       -9.109       28.974       36.228       16.937      839.512     1312.475      286.871        0.304        0.122       59.671       11.418        0.037      333.888        3.499      869.124
01/10/2021  18:52:00       47.275        5.591       -7.458       36.768       27.850       14.017     1351.887      775.629      196.482        0.232        0.116       47.605        6.065        0.016      333.810        3.371      869.131
01/10/2021  18:53:00       38.596        9.862      -12.840       14.803       44.247       15.765      219.122     1957.802      248.537        0.209        0.121       39.836        8.553        0.046      333.930        3.569      869.136
01/10/2021  18:54:00       44.738      -68.969      -14.065       33.600       34.860       23.768     1128.969     1215.191      564.898        0.493        0.145       82.208       20.144        0.060      334.220        4.050      869.132
01/10/2021  18:55:00       54.922      -75.115      -24.109       29.458       45.185       20.854      867.794     2041.727      434.877        0.629        0.167       93.051       15.037        0.026      334.204        4.022      869.127
01/10/2021  18:56:00       46.638      -31.235       -5.638       38.771       38.701       28.340     1503.222     1497.762      803.170        0.349        0.190       56.131       22.360        0.159      334.197        4.010      869.127
01/10/2021  18:57:00        6.323       -4.482        5.187       32.203       32.381       26.666     1037.011     1048.519      711.062        0.144        0.140        7.750       21.025        7.359      334.056        3.777      869.127
01/10/2021  18:58:00       36.996      -40.287      -10.354       47.241       50.524       29.651     2231.755     2552.716      879.208        0.438        0.283       54.697       22.689        0.172      334.033        3.738      869.122
01/10/2021  18:59:00       31.709      -46.478       -4.218       37.221       50.728       25.231     1385.423     2573.302      636.579        0.389        0.230       56.264       22.559        0.161      334.082        3.818      869.130
01/10/2021  19:00:00       -0.700       13.611        0.387       19.957       23.734       13.573      398.264      563.311      184.237        0.067        0.057       13.629       11.267        0.683      333.993        3.674      869.141
01/10/2021  19:01:00       28.789       18.810       -5.612       23.981       23.210       16.624      575.098      538.700      276.372        0.130        0.070       34.390        9.633        0.078      333.802        3.354      869.150
01/10/2021  19:02:00       39.455       20.093       -4.885       22.859       17.898       13.803      522.553      320.332      190.525        0.151        0.052       44.276        9.175        0.043      333.819        3.385      869.160
01/10/2021  19:03:00       38.961       16.720       -6.970       22.143       26.566       13.154      490.291      705.756      173.015        0.161        0.068       42.397       12.938        0.093      333.829        3.401      869.179
01/10/2021  19:04:00       26.179        9.728      -17.805       18.962       23.605       12.493      359.546      557.205      156.065        0.108        0.054       27.928        9.989        0.128      333.805        3.360      869.194
01/10/2021  19:05:00       20.565       14.981       -5.092       16.054       14.757       12.211      257.734      217.757      149.099        0.065        0.031       25.443       12.134        0.227      333.805        3.361      869.223
01/10/2021  19:06:00      -10.537        0.139        1.282        6.437        6.674        4.870       41.433       44.543       23.717        0.011        0.005       10.538        3.674        0.122      333.806        3.363      869.238
01/10/2021  19:07:00      -11.216       -2.757       -0.276        6.431        6.314        3.171       41.356       39.872       10.058        0.011        0.005       11.550        2.702        0.055      333.813        3.373      869.259
01/10/2021  19:08:00      -10.898        1.537       -1.767       16.234        7.443        9.867      263.540       55.393       97.358        0.027        0.021       11.006        6.916        0.395      333.784        3.327      869.273
01/10/2021  19:09:00      -19.760        4.040       -3.223       13.775        8.305        7.265      189.759       68.980       52.777        0.036        0.016       20.169        5.255        0.068      333.925        3.561      869.287
01/10/2021  19:10:00      -20.431        7.845       -2.676       10.440        5.747        5.557      108.985       33.026       30.880        0.033        0.009       21.885        4.633        0.045      334.071        3.799      869.302
01/10/2021  19:11:00      -49.603        3.041       -6.903       15.563        9.860        6.482      242.213       97.226       42.020        0.145        0.019       49.696        5.248        0.011      334.037        3.745      869.321
01/10/2021  19:12:00      -46.064       -0.223       -1.744       30.069       13.740       12.696      904.135      188.784      161.182        0.169        0.063       46.064        4.082        0.008      333.930        3.570      869.330
01/10/2021  19:13:00      -11.674       -9.270       -0.057       21.357       19.519       14.656      456.126      380.992      214.796        0.064        0.053       14.907        9.771        0.430      333.753        3.274      869.349
01/10/2021  19:14:00      -25.243       -6.074       -0.339       32.879       18.458       13.365     1081.035      340.682      178.611        0.114        0.080       25.963        6.976        0.072      333.771        3.303      869.365
01/10/2021  19:15:00      -65.264        9.205        3.291       26.945       21.225       15.647      726.028      450.490      244.839        0.289        0.071       65.910       13.622        0.043      333.698        3.182      869.389
01/10/2021  19:16:00      -67.687       11.864        0.781       29.458       17.153       11.659      867.761      294.240      135.941        0.301        0.065       68.719       14.040        0.042      333.763        3.291      869.403
01/10/2021  19:17:00      -60.289        4.901        0.986       24.658       16.531       12.514      608.022      273.272      156.608        0.235        0.052       60.488        6.588        0.012      333.836        3.413      869.418
01/10/2021  19:18:00      -70.894        3.987       -0.991       29.419       20.237       17.715      865.475      409.538      313.826        0.332        0.079       71.006       17.179        0.059      333.876        3.478      869.435
01/10/2021  19:19:00      -71.486        5.685       -2.070       31.327       18.730       15.593      981.372      350.805      243.134        0.336        0.079       71.712       15.345        0.046      333.802        3.355      869.446
01/10/2021  19:20:00      -74.024        0.846        2.008       26.795       22.741       17.220      717.987      517.166      296.543        0.351        0.077       74.029       13.898        0.035      333.780        3.319      869.454
01/10/2021  19:21:00      -42.487       -3.694        1.671       27.856       18.416       14.950      775.975      339.148      223.500        0.158        0.067       42.648       12.022        0.079      333.923        3.557      869.463
01/10/2021  19:22:00      -75.636        6.666       -4.334       29.049       16.738       13.285      843.824      280.146      176.499        0.354        0.065       75.929        9.505        0.016      333.991        3.669      869.477
01/10/2021  19:23:00      -96.510        5.946       -3.609       47.921       28.991       19.525     2296.440      840.466      381.225        0.644        0.176       96.693        6.874        0.005      333.789        3.336      869.485
01/10/2021  19:24:00     -126.469        9.395        0.713       40.436       28.705       22.329     1635.080      823.964      498.568        0.952        0.148      126.818        9.013        0.005      333.578        2.985      869.505
01/10/2021  19:25:00      -87.419       15.561        1.630       44.649       24.899       19.849     1993.571      619.982      393.985        0.545        0.150       88.793       22.324        0.063      333.525        2.897      869.511
01/10/2021  19:26:00      -76.254       17.065       -2.240       53.867       35.638       18.915     2901.681     1270.039      357.777        0.532        0.226       78.140       21.137        0.073      333.473        2.811      869.520
01/10/2021  19:27:00      -86.139       14.514       -5.504       29.638       25.989       19.967      878.417      675.418      398.679        0.481        0.098       87.353       15.948        0.033      333.425        2.731      869.524
01/10/2021  19:28:00      -98.710        7.041       -6.094       25.760       20.829       14.469      663.563      433.830      209.346        0.557        0.065       98.960       10.633        0.012      333.430        2.740      869.523
01/10/2021  19:29:00      -72.808       11.645       -1.878       28.200       21.298       15.059      795.240      453.615      226.765        0.346        0.074       73.734       10.249        0.019      333.334        2.581      869.508
01/10/2021  19:30:00      -75.985       18.715       -6.397       25.197       18.766       13.903      634.896      352.153      193.290        0.367        0.059       78.255        9.058        0.013      333.364        2.629      869.485
01/10/2021  19:31:00      -45.536       10.866        4.374       30.376       26.079       13.784      922.685      680.127      189.995        0.200        0.090       46.814        6.656        0.020      333.401        2.691      869.456
01/10/2021  19:32:00      -67.620       44.754       -5.385       26.096       19.344       14.030      680.992      374.199      196.843        0.393        0.063       81.089        8.993        0.012      333.364        2.631      869.436
01/10/2021  19:33:00      -73.101       50.041       -7.837       10.454       12.160        7.001      109.295      147.857       49.020        0.411        0.015       88.589        3.472        0.002      333.491        2.840      869.420
01/10/2021  19:34:00      -76.106       48.633      -10.014       28.234       15.406       14.648      797.175      237.354      214.565        0.475        0.062       90.318       13.834        0.023      333.489        2.837      869.401
01/10/2021  19:35:00      -88.191       15.994       -3.388       43.442       30.657       19.453     1887.196      939.823      378.401        0.562        0.160       89.629       23.582        0.069      333.539        2.921      869.392
01/10/2021  19:36:00      -29.197        2.787        3.091       31.263       21.045       17.298      977.406      442.897      299.222        0.129        0.086       29.330        9.307        0.101      333.458        2.786      869.389
01/10/2021  19:37:00      -20.798        1.611       -1.548       24.279       16.569       15.231      589.459      274.535      231.997        0.077        0.055       20.861        9.074        0.189      333.400        2.690      869.396
01/10/2021  19:38:00       -9.850      -14.850       -4.600       26.863       20.546       20.320      721.623      422.131      412.902        0.095        0.078       17.819       15.246        0.732      333.350        2.608      869.418
01/10/2021  19:39:00        3.140       -3.072       -4.177       24.389       28.621       18.503      594.838      819.158      342.374        0.090        0.088        4.393       12.489        8.084      333.250        2.440      869.443
01/10/2021  19:40:00       -8.837       -4.489       -3.547       31.316       24.416       16.424      980.670      596.126      269.760        0.098        0.092        9.912       16.796        2.872      333.265        2.466      869.465
01/10/2021  19:41:00      -84.493        6.073       -5.568       44.159       18.010       22.194     1949.983      324.374      492.565        0.499        0.138       84.711       13.153        0.024      333.167        2.304      869.482
01/10/2021  19:42:00     -127.390       17.303       -9.373       29.025       27.473       19.194      842.458      754.743      368.426        0.929        0.098      128.559       18.991        0.022      333.169        2.308      869.478
01/10/2021  19:43:00      -89.012        4.878        1.288       37.777       22.971       19.038     1427.121      527.662      362.427        0.513        0.116       89.146       17.363        0.038      333.132        2.247      869.469
01/10/2021  19:44:00     -109.961        6.089       -3.360       29.440       24.137       15.371      866.709      582.613      236.283        0.691        0.084      110.129       15.814        0.021      333.200        2.358      869.449
01/10/2021  19:45:00      -69.911       -0.469       -3.957       33.093       26.858       18.927     1095.159      721.346      358.248        0.354        0.109       69.913       13.107        0.035      333.160        2.293      869.443
01/10/2021  19:46:00      -80.066       -5.453       -7.426       38.950       27.588       21.346     1517.089      761.113      455.648        0.461        0.137       80.251       12.111        0.023      333.142        2.262      869.443
01/10/2021  19:47:00      -93.614        3.387       -0.729       43.974       30.872       21.238     1933.690      953.073      451.044        0.606        0.167       93.675       20.256        0.047      333.082        2.165      869.466
01/10/2021  19:48:00     -115.550       20.482      -10.944       28.851       30.047       20.370      832.374      902.805      414.928        0.802        0.108      117.351       18.943        0.026      333.019        2.061      869.495
01/10/2021  19:49:00      -75.794       16.748        0.073       29.269       32.590       22.246      856.691     1062.088      494.904        0.422        0.121       77.622       11.924        0.024      333.038        2.090      869.539
01/10/2021  19:50:00      -75.862        6.126       -3.252       35.457       32.447       20.654     1257.221     1052.797      426.568        0.427        0.137       76.109       18.906        0.062      333.020        2.061      869.578
01/10/2021  19:51:00      -92.636        3.701       -2.769       26.918       22.353       18.631      724.575      499.647      347.126        0.509        0.079       92.710       12.347        0.018      333.028        2.075      869.612
01/10/2021  19:52:00      -73.809      -11.535       -2.376       25.870       31.509       14.638      669.252      992.829      214.282        0.373        0.094       74.705       16.648        0.050      333.194        2.348      869.631
01/10/2021  19:53:00      -44.938        0.332        1.617       32.159       17.554       11.882     1034.214      308.129      141.187        0.175        0.074       44.940       10.342        0.053      333.152        2.279      869.637
01/10/2021  19:54:00      -34.076        5.469       -1.607       33.381       11.261       12.733     1114.289      126.821      162.127        0.130        0.070       34.512       14.926        0.187      333.181        2.329      869.635
01/10/2021  19:55:00      -19.353        9.386        2.014       16.537       12.852       11.423      273.487      165.164      130.490        0.052        0.028       21.509        8.848        0.169      333.219        2.391      869.623
01/10/2021  19:56:00      -15.631       12.592        1.635        7.771       13.094        7.570       60.394      171.462       57.302        0.035        0.014       20.072        9.706        0.234      333.343        2.595      869.613
01/10/2021  19:57:00       -8.108        4.332       -5.798       17.113        8.313        8.248      292.847       69.108       68.030        0.027        0.021        9.193        9.608        1.092      333.369        2.637      869.596
01/10/2021  19:58:00       -3.107       -2.703       -1.547       14.472       14.997        9.696      209.440      224.908       94.017        0.027        0.026        4.119       10.017        5.915      333.362        2.627      869.587
01/10/2021  19:59:00      -23.341      -21.359       -5.499       20.794       13.226       13.564      432.401      174.923      183.970        0.091        0.040       31.639        7.007        0.049      333.297        2.519      869.590
01/10/2021  20:00:00      -23.484      -15.342       -5.448       15.288       18.147       13.491      233.727      329.301      182.012        0.078        0.037       28.051       11.563        0.170      333.193        2.348      869.602
01/10/2021  20:01:00      -15.907        2.575        0.014       14.587       12.685        7.644      212.775      160.918       58.424        0.035        0.022       16.114        7.445        0.213      333.015        2.053      869.602
01/10/2021  20:02:00      -10.131        7.916        0.052       10.533        4.300        6.047      110.946       18.494       36.563        0.017        0.008       12.857        6.573        0.261      333.052        2.115      869.591
01/10/2021  20:03:00        6.355        1.415       -1.061       22.006        8.885       11.006      484.259       78.948      121.129        0.036        0.034        6.510       13.731        4.448      333.136        2.254      869.562
01/10/2021  20:04:00       54.576       20.100       -8.054       32.356       14.047       15.894     1046.888      197.324      252.612        0.247        0.075       58.160       19.613        0.114      332.952        1.951      869.527
01/10/2021  20:05:00       62.091       -6.313       -3.581       32.117       28.348       18.445     1031.484      803.602      340.219        0.304        0.109       62.412       19.743        0.100      332.987        2.007      869.504
01/10/2021  20:06:00       67.336       35.690       -3.523       27.478       13.266       12.560      755.045      175.991      157.748        0.345        0.054       76.209       13.931        0.033      332.797        1.694      869.510
01/10/2021  20:07:00       48.972       39.583        2.365       25.620       19.314       15.254      656.397      373.039      232.692        0.262        0.063       62.969       10.759        0.029      332.963        1.968      869.539
01/10/2021  20:08:00        8.757       11.621       -1.542       20.563       12.988       10.776      422.838      168.677      116.126        0.046        0.035       14.551       12.650        0.756      333.014        2.052      869.590
01/10/2021  20:09:00      -20.597      -14.888        0.037       17.477       14.805       10.984      305.443      219.179      120.638        0.065        0.032       25.415        9.514        0.140      333.161        2.294      869.654
01/10/2021  20:10:00      -25.470      -22.849       -9.253       15.365       15.541       11.415      236.095      241.517      130.302        0.093        0.030       34.217       10.104        0.087      332.907        1.877      869.703
01/10/2021  20:11:00       -5.038      -25.647      -13.584       19.757       13.719       11.571      390.331      188.211      133.885        0.079        0.036       26.137       10.848        0.172      333.006        2.038      869.733
01/10/2021  20:12:00      -14.877       -3.599        5.963       18.037       13.807       10.124      325.335      190.625      102.498        0.044        0.031       15.306        8.459        0.305      333.144        2.265      869.743
01/10/2021  20:13:00       49.027       12.281       -8.955       38.089       25.080       17.413     1450.762      628.995      303.220        0.251        0.119       50.542       19.615        0.151      332.938        1.926      869.745
01/10/2021  20:14:00       66.080        8.554       -3.266       43.997       29.885       22.856     1935.716      893.103      522.389        0.390        0.168       66.631       24.261        0.133      332.823        1.736      869.736
01/10/2021  20:15:00       50.766        2.455       -4.544       44.781       38.747       24.008     2005.324     1501.340      576.382        0.334        0.204       50.825       25.660        0.255      332.866        1.808      869.721
01/10/2021  20:16:00       56.638       -4.528        6.314       50.426       29.271       26.725     2542.762      856.773      714.239        0.369        0.206       56.819       25.796        0.206      332.885        1.840      869.719
01/10/2021  20:17:00       71.110       -7.945       -0.272       50.918       29.024       28.092     2592.619      842.383      789.183        0.467        0.211       71.552       26.246        0.135      333.088        2.174      869.730
01/10/2021  20:18:00       50.338       -9.470       -4.558       42.856       35.888       22.500     1836.639     1287.973      506.243        0.314        0.182       51.221       18.939        0.137      333.210        2.376      869.763
01/10/2021  20:19:00       75.907      -27.325      -19.006       46.802       47.439       27.196     2190.450     2250.421      739.596        0.602        0.259       80.675       25.344        0.099      333.283        2.497      869.802
01/10/2021  20:20:00       75.453      -23.644      -13.930       56.970       53.426       21.964     3245.637     2854.362      482.424        0.651        0.329       79.071       29.756        0.142      333.271        2.476      869.825
01/10/2021  20:21:00       92.270      -41.524       -6.650       55.925       36.860       29.148     3127.620     1358.629      849.605        0.781        0.267      101.183       33.359        0.109      333.162        2.296      869.787
01/10/2021  20:22:00       50.695      -30.055        3.988       47.871       40.249       30.513     2291.653     1620.003      931.072        0.416        0.242       58.935       33.259        0.318      333.081        2.163      869.831
01/10/2021  20:23:00       77.567      -25.079       -4.526       42.779       27.072       20.252     1830.081      732.870      410.138        0.482        0.149       81.521       24.113        0.087      333.014        2.051      869.868
01/10/2021  20:24:00       56.016       -0.329      -19.144       35.848       44.763       20.944     1285.101     2003.740      438.648        0.362        0.186       56.017        7.545        0.018      333.031        2.079      869.887
01/10/2021  20:25:00       42.470       -7.694        5.993       45.858       33.543       28.021     2102.983     1125.115      785.169        0.296        0.201       43.161       27.211        0.397      333.016        2.055      869.902
01/10/2021  20:26:00       46.964       -4.174        8.715       50.349       23.479       22.556     2535.020      551.253      508.795        0.295        0.180       47.149       26.112        0.307      332.994        2.019      869.923
01/10/2021  20:27:00       83.702        0.965        0.675       32.816       23.468       18.111     1076.911      550.729      328.007        0.448        0.098       83.708       12.459        0.022      332.985        2.003      869.943
01/10/2021  20:28:00       34.183       21.503       12.342       34.630       41.500       18.461     1199.237     1722.270      340.817        0.252        0.163       40.384       19.135        0.225      332.981        1.998      869.968
01/10/2021  20:29:00       66.342       52.988        2.371       28.021       24.640       15.351      785.176      607.106      235.645        0.442        0.081       84.905       10.570        0.015      332.914        1.887      869.999
01/10/2021  20:30:00       60.793       24.429       -7.447       23.124       26.427       16.405      534.715      698.376      269.130        0.292        0.075       65.518       10.097        0.024      332.921        1.898      870.025
01/10/2021  20:31:00       45.499        3.203       -0.201       26.759       19.793       17.426      716.050      391.780      303.665        0.175        0.071       45.612       14.640        0.103      332.974        1.986      870.025
01/10/2021  20:32:00       44.929       15.772       -1.515       27.374       20.671       13.678      749.318      427.306      187.077        0.182        0.068       47.617       14.132        0.088      332.985        2.004      870.017
01/10/2021  20:33:00       39.386       29.038       -1.144       19.833       19.401       12.537      393.349      376.409      157.168        0.166        0.046       48.933       12.257        0.063      332.965        1.970      870.012
01/10/2021  20:34:00       40.692       34.250       -0.234       17.635       21.455       12.363      310.987      460.323      152.836        0.188        0.046       53.187       12.808        0.058      332.949        1.945      869.994
01/10/2021  20:35:00       24.916       35.367       -1.476       18.829       16.597       12.975      354.547      275.451      168.353        0.134        0.040       43.262       10.702        0.061      332.929        1.913      869.983
01/10/2021  20:36:00        8.609       35.758        3.319       19.554       22.235       13.331      382.347      494.396      177.722        0.121        0.053       36.779       17.177        0.218      332.973        1.984      869.973
01/10/2021  20:37:00       -5.582       -1.217        0.770       24.147       21.666       15.184      583.058      469.406      230.557        0.066        0.064        5.713       12.265        4.610      332.692        1.520      869.958
01/10/2021  20:38:00      -47.026       11.399       -4.689       27.645       18.486       13.009      764.227      341.722      169.229        0.182        0.064       48.388        7.620        0.025      332.459        1.135      869.943
01/10/2021  20:39:00      -55.350       21.190      -11.309       18.015       14.395       10.011      324.545      207.229      100.230        0.214        0.032       59.268        9.397        0.025      332.552        1.289      869.926
01/10/2021  20:40:00      -23.601       18.849       -5.146       26.656       18.144       13.096      710.528      329.203      171.512        0.107        0.061       30.204       11.728        0.151      332.368        0.984      869.923
01/10/2021  20:41:00       -7.495       16.704        1.639       17.152       23.815       13.097      294.185      567.169      171.543        0.069        0.052       18.308       16.874        0.849      332.743        1.605      869.915
01/10/2021  20:42:00        7.034       16.829        5.786       19.056       26.814       15.847      363.134      719.014      251.135        0.085        0.067       18.240       19.935        1.194      332.867        1.810      869.913
01/10/2021  20:43:00        5.043       17.860        4.442       24.650       30.640       18.223      607.615      938.818      332.063        0.112        0.094       18.559       22.809        1.511      332.799        1.696      869.916
01/10/2021  20:44:00       -8.863       -0.052       -3.453       23.121       18.484       15.416      534.580      341.655      237.643        0.060        0.056        8.863       12.480        1.983      332.610        1.384      869.917
01/10/2021  20:45:00      -21.097        0.098       -2.962       33.726       28.959       20.075     1137.453      838.647      403.001        0.142        0.119       21.097       18.399        0.761      332.344        0.945      869.909
01/10/2021  20:46:00      -25.398        6.162       -2.632       48.912       29.327       25.939     2392.404      860.053      672.856        0.231        0.196       26.135       20.011        0.586      332.230        0.758      869.905
01/10/2021  20:47:00      -41.880        6.691       -6.398       40.450       24.689       19.421     1636.194      609.555      377.168        0.223        0.131       42.411       13.893        0.107      332.172        0.661      869.896
01/10/2021  20:48:00      -94.132       21.877      -13.140       21.217       22.346       13.863      450.146      499.355      192.183        0.533        0.057       96.641       12.672        0.017      332.217        0.737      869.885
01/10/2021  20:49:00     -100.200       32.962       -6.480       27.378       26.105       19.031      749.536      681.486      362.165        0.648        0.090      105.482       19.005        0.032      332.160        0.641      869.878
01/10/2021  20:50:00      -97.824       10.540       -2.828       33.804       28.623       22.770     1142.699      819.304      518.458        0.608        0.124       98.390       24.502        0.062      332.202        0.712      869.868
01/10/2021  20:51:00     -110.288       25.641      -10.353       27.880       25.022       21.735      777.303      626.089      472.401        0.740        0.094      113.229       12.209        0.012      332.132        0.595      869.857
01/10/2021  20:52:00     -109.152       25.676       -1.111       28.990       29.951       19.048      840.392      897.043      362.842        0.734        0.105      112.132       19.224        0.029      332.103        0.549      869.851
01/10/2021  20:53:00     -117.266       35.785       -2.035       48.404       35.873       26.495     2342.970     1286.840      701.996        0.968        0.217      122.604       25.257        0.042      332.004        0.385      869.850
01/10/2021  20:54:00      -92.176       14.171        0.316       51.509       37.198       26.481     2653.167     1383.698      701.268        0.672        0.237       93.259       22.285        0.057      332.086        0.519      869.845
01/10/2021  20:55:00      -94.869       34.383        0.535       53.378       50.751       29.012     2849.201     2575.710      841.702        0.822        0.313      100.908       25.671        0.065      332.035        0.436      869.847
01/10/2021  20:56:00     -137.064       45.646        1.176       43.197       55.787       33.401     1865.985     3112.219     1115.650        1.348        0.305      144.465       28.255        0.038      331.967        0.324      869.864
01/10/2021  20:57:00     -155.213       66.299      -12.201       49.306       59.771       40.745     2431.075     3572.620     1660.129        1.815        0.383      168.780       31.096        0.034      331.949        0.292      869.887
01/10/2021  20:58:00     -166.177       42.821      -28.618       73.379       46.655       28.210     5384.448     2176.686      795.813        1.931        0.418      171.605       24.427        0.020      332.016        0.403      869.919
01/10/2021  20:59:00      -94.278       37.509      -23.925       76.013       52.633       40.171     5778.020     2770.253     1613.669        1.051        0.508      101.465       35.945        0.125      332.005        0.385      869.945
01/10/2021  21:00:00      -30.965       -2.893      -10.832       87.824       41.384       36.054     7713.006     1712.631     1299.882        0.590        0.536       31.100       39.020        1.574      332.024        0.419      869.951
01/10/2021  21:01:00       -8.401        9.778       -4.363       78.514       54.827       34.886     6164.481     3005.991     1217.051        0.528        0.519       12.891       23.173        3.232      331.981        0.347      869.957
01/10/2021  21:02:00     -126.063        7.131       -8.048       70.232       52.115       35.524     4932.489     2715.990     1261.943        1.246        0.446      126.264       27.920        0.049      331.885        0.190      869.962
01/10/2021  21:03:00     -175.459       75.941        6.395       42.421       47.312       32.147     1799.499     2238.458     1033.416        2.083        0.254      191.188       30.706        0.026      331.836        0.107      869.968
01/10/2021  21:04:00     -155.419       49.433       -3.446       52.886       44.361       34.265     2796.941     1967.919     1174.101        1.627        0.297      163.091       25.704        0.025      331.837        0.108      869.976
01/10/2021  21:05:00     -206.710       45.747       -4.525       56.799       58.595       35.616     3226.178     3433.379     1268.490        2.638        0.396      211.711       27.975        0.017      331.972        0.329      869.992
01/10/2021  21:06:00     -133.231       32.335       -8.910       78.291       62.105       34.618     6129.421     3857.062     1198.378        1.503        0.559      137.099       24.397        0.032      331.972        0.331      870.010
01/10/2021  21:07:00      -97.921       21.774       -6.047       82.508       46.044       33.395     6807.552     2120.070     1115.257        1.007        0.502      100.312       31.919        0.101      331.938        0.275      870.037
01/10/2021  21:08:00     -153.457       28.080      -24.574      203.591       42.581       96.282    41449.444     1813.160     9270.257        3.873        2.627      156.005      132.522        0.722      332.023        0.417      870.081
01/10/2021  21:09:00     -180.023       43.270      -19.538       55.419       50.037       32.621     3071.246     2503.727     1064.159        2.065        0.332      185.150       28.121        0.023      331.977        0.340      870.118
01/10/2021  21:10:00     -177.155       42.829      -15.824      133.359       52.585       69.833    17784.643     2765.209     4876.703        2.944        1.271      182.259       82.971        0.207      332.049        0.458      870.141
01/10/2021  21:11:00     -134.086        5.494      -16.414      195.258       54.665       87.834    38125.585     2988.227     7714.825        3.354        2.441      134.199      119.206        0.789      332.061        0.479      870.146
01/10/2021  21:12:00      -93.972       42.963      -14.129      192.512       56.849       87.930    37060.791     3231.837     7731.707        2.944        2.401      103.328      106.252        1.057      332.050        0.462      870.131
01/10/2021  21:13:00      -61.861        2.901        1.903       68.866       53.378       36.896     4742.498     2849.159     1361.287        0.639        0.448       61.929       36.386        0.345      332.066        0.486      870.111
01/10/2021  21:14:00     -123.028       33.865      -10.265       46.129       51.591       33.833     2127.881     2661.640     1144.663        1.116        0.297      127.604       30.732        0.058      332.149        0.623      870.105
01/10/2021  21:15:00      -62.697       11.524      -11.766       71.937       50.164       30.142     5174.980     2516.461      908.540        0.640        0.430       63.747       27.751        0.190      332.081        0.512      870.114
01/10/2021  21:16:00      -80.059       24.541       -4.590       62.408       55.995       33.818     3894.764     3135.434     1143.630        0.760        0.409       83.735       39.135        0.218      332.062        0.481      870.122
01/10/2021  21:17:00     -131.898       26.251       -3.153       42.874       45.643       28.989     1838.147     2083.263      840.386        1.143        0.238      134.485       29.259        0.047      332.022        0.413      870.146
01/10/2021  21:18:00     -109.400       24.556      -13.935       31.819       42.665       29.978     1012.477     1820.284      898.657        0.825        0.187      112.122       28.515        0.065      332.065        0.485      870.151
01/10/2021  21:19:00      -50.758       22.942      -12.010      268.562       39.987      131.048    72125.411     1598.922    17173.644        4.705        4.545       55.702      184.256       10.942      332.175        0.668      870.139
01/10/2021  21:20:00      -51.552       15.444        0.087       35.231       48.165       25.656     1241.215     2319.836      658.208        0.356        0.211       53.816       30.721        0.326      332.225        0.749      870.118
01/10/2021  21:21:00      -22.316       18.989       -0.820       42.304       41.846       26.525     1789.619     1751.080      703.600        0.255        0.212       29.302       32.923        1.262      332.294        0.863      870.084
01/10/2021  21:22:00      -12.208        2.856       -2.686       33.707       35.745       20.402     1136.135     1277.733      416.244        0.150        0.142       12.538       23.390        3.480      332.396        1.031      870.048
01/10/2021  21:23:00        7.760       16.588        5.247      148.665       34.400       73.452    22101.181     1183.335     5395.235        1.452        1.434       18.313       97.679       28.450      332.335        0.932      870.023
01/10/2021  21:24:00      -24.450        3.607        6.434       35.177       36.306       26.268     1237.412     1318.153      690.034        0.195        0.162       24.714       29.544        1.429      332.293        0.862      870.020
01/10/2021  21:25:00      -53.608        8.655        0.559       37.438       42.236       27.345     1401.591     1783.892      747.758        0.344        0.197       54.302       28.615        0.278      332.278        0.837      870.026
01/10/2021  21:26:00      -52.712        1.437       -2.101       40.513       36.783       23.482     1641.270     1352.971      551.409        0.316        0.177       52.731       21.352        0.164      332.291        0.857      870.032
01/10/2021  21:27:00      -45.189       10.762        5.664       46.148       36.773       23.016     2129.593     1352.221      529.723        0.310        0.201       46.452       27.725        0.356      332.269        0.822      870.018
01/10/2021  21:28:00      -31.903       -4.951        1.978       35.235       39.373       23.077     1241.513     1550.239      532.549        0.218        0.166       32.285       27.235        0.712      332.284        0.847      869.993
01/10/2021  21:29:00       -8.534       10.355        6.086       32.396       43.262       22.170     1049.527     1871.638      491.500        0.181        0.171       13.418       27.604        4.232      332.306        0.882      869.978
01/10/2021  21:30:00       15.306       10.177       -2.373       29.744       36.302       22.645      884.687     1317.819      512.785        0.153        0.136       18.381       24.292        1.747      332.292        0.860      869.982
01/10/2021  21:31:00      -12.065       -0.454       -5.248       52.917       38.582       25.972     2800.250     1488.532      674.530        0.257        0.248       12.073       16.155        1.791      332.227        0.751      869.995
01/10/2021  21:32:00      -36.014      -15.987      -17.474      230.911       40.175      120.984    53319.704     1614.063    14637.202        3.570        3.479       39.403      161.028       16.701      332.267        0.820      870.009
01/10/2021  21:33:00      -96.832       15.447        4.888       79.089       42.910       32.098     6255.022     1841.284     1030.303        0.938        0.456       98.056       36.199        0.136      332.150        0.626      870.022
01/10/2021  21:34:00     -129.854       30.581       -1.766       44.363       39.622       30.247     1968.100     1569.883      914.863        1.113        0.223      133.406       30.506        0.052      332.043        0.449      870.023
01/10/2021  21:35:00     -103.245       29.503       -6.432       41.412       41.175       28.486     1714.936     1695.404      811.480        0.790        0.211      107.377       24.913        0.054      332.034        0.434      870.015
01/10/2021  21:36:00     -109.009       40.517       -4.690       62.426       50.668       33.350     3897.044     2567.205     1112.213        1.056        0.379      116.296       32.158        0.076      331.997        0.373      870.005
01/10/2021  21:37:00     -155.878       27.783       -8.643       28.413       43.928       28.251      807.273     1929.636      798.113        1.434        0.177      158.334       28.481        0.032      332.004        0.384      870.000
01/10/2021  21:38:00     -118.748       45.008        0.011       47.502       32.181       25.941     2256.478     1035.634      672.945        1.005        0.198      126.991       25.158        0.039      331.961        0.313      869.995
01/10/2021  21:39:00      -90.900       56.329       -0.754       37.559       40.937       27.107     1410.692     1675.847      734.808        0.763        0.191      106.938       25.818        0.058      331.978        0.342      869.988
01/10/2021  21:40:00      -96.447       17.602        3.919       48.649       46.111       25.764     2366.726     2126.212      663.804        0.739        0.258       98.040       26.602        0.074      332.023        0.416      869.994
01/10/2021  21:41:00      -85.670       27.047        2.347       77.585       41.211       21.860     6019.382     1698.374      477.845        0.813        0.410       89.838       28.740        0.102      332.121        0.576      870.005
01/10/2021  21:42:00      -14.379       -3.320        5.725       37.944       38.860       25.217     1439.719     1510.106      635.901        0.192        0.179       14.757       23.890        2.621      332.202        0.712      870.024
01/10/2021  21:43:00      -13.214      -16.603       -4.088       27.643       33.317       19.681      764.144     1110.044      387.350        0.136        0.113       21.219       16.123        0.577      332.226        0.751      870.044
01/10/2021  21:44:00       -5.284       -3.944       -6.506       26.574       30.277       19.564      706.198      916.724      382.735        0.105        0.100        6.594       21.589       10.719      332.257        0.802      870.059
01/10/2021  21:45:00        1.070      -10.568      -12.131       23.683       25.081       17.085      560.883      629.045      291.903        0.087        0.074       10.622       10.010        0.888      332.246        0.783      870.067
01/10/2021  21:46:00      -11.933      -35.402       -9.561       30.230       28.453       18.827      913.829      809.592      354.460        0.178        0.104       37.358       16.432        0.193      332.272        0.828      870.077
01/10/2021  21:47:00       -4.276      -30.778      -10.143       27.787       26.378       16.399      772.134      695.785      268.928        0.140        0.087       31.073       15.355        0.244      332.316        0.899      870.069
01/10/2021  21:48:00       -8.520        9.687       -1.125       20.177       24.965       16.163      407.121      623.237      261.249        0.073        0.065       12.901       18.573        2.073      332.295        0.864      870.074
01/10/2021  21:49:00        8.356        3.291      -15.297       23.634       27.192       17.878      558.571      739.425      319.621        0.097        0.081        8.981       12.179        1.839      332.477        1.165      870.071
01/10/2021  21:50:00      -10.245      -16.693       -2.514       35.317       35.299       25.933     1247.256     1246.005      672.495        0.178        0.158       19.586       19.974        1.040      332.515        1.227      870.090
01/10/2021  21:51:00      -12.948       -5.658       -0.821       26.410       20.829       15.402      697.506      433.848      237.212        0.078        0.068       14.130       14.421        1.042      332.471        1.156      870.106
01/10/2021  21:52:00       -3.312      -15.142       -8.988       24.867       23.784       19.064      618.363      565.682      363.419        0.093        0.077       15.500       18.230        1.383      332.436        1.097      870.111
01/10/2021  21:53:00       22.236       27.848        6.180       25.654       34.509       16.173      658.137     1190.838      261.558        0.171        0.106       35.636       12.860        0.130      332.393        1.027      870.089
01/10/2021  21:54:00       53.514      -12.512       -2.846       42.004       31.075       24.834     1764.364      965.663      616.705        0.319        0.167       54.957       23.535        0.183      332.277        0.835      870.038
01/10/2021  21:55:00       17.322        0.128       -1.063       38.465       47.182       31.343     1479.548     2226.114      982.375        0.249        0.234       17.322       25.983        2.250      332.396        1.033      869.970
01/10/2021  21:56:00       -2.895       -2.493       19.746       35.563       37.555       31.011     1264.740     1410.343      961.666        0.202        0.182        3.820       16.732       19.183      332.274        0.830      869.899
01/10/2021  21:57:00       16.953       -1.793        3.848       45.843       54.928       36.507     2101.593     3017.085     1332.730        0.338        0.323       17.047       22.210        1.697      332.224        0.749      869.845
01/10/2021  21:58:00       54.615      -15.293        6.663       57.942       37.124       40.979     3357.235     1378.223     1679.297        0.484        0.321       56.716       39.093        0.475      332.230        0.757      869.807
01/10/2021  21:59:00       75.456       -4.948       -2.071       53.854       51.980       37.266     2900.237     2701.943     1388.768        0.636        0.350       75.618       33.431        0.195      332.469        1.152      869.778
01/10/2021  22:00:00       58.062       26.258        3.512       43.119       54.859       31.664     1859.290     3009.459     1002.624        0.497        0.294       63.723       27.743        0.190      332.545        1.277      869.757
01/10/2021  22:01:00       66.695        0.234        2.479       39.398       48.065       26.130     1552.170     2310.256      682.792        0.450        0.227       66.696       15.553        0.054      332.405        1.046      869.745
01/10/2021  22:02:00       88.226       13.538       10.521       48.315       38.674       27.399     2334.313     1495.699      750.727        0.633        0.229       89.258       24.227        0.074      332.266        0.817      869.737
01/10/2021  22:03:00      110.584        6.207       -0.195       48.168       38.186       25.966     2320.187     1458.156      674.251        0.836        0.223      110.758       17.127        0.024      332.265        0.816      869.739
01/10/2021  22:04:00      112.296        8.105        1.687       34.492       16.891       22.770     1189.712      285.313      518.495        0.734        0.100      112.588       21.761        0.037      332.252        0.794      869.742
01/10/2021  22:05:00      103.118        0.345        1.909       36.953       33.683       22.108     1365.498     1134.515      488.751        0.681        0.149      103.118       18.108        0.031      332.324        0.914      869.741
01/10/2021  22:06:00       86.682       29.097       -3.191       27.499       28.595       23.028      756.186      817.660      530.305        0.524        0.105       91.435       18.135        0.039      332.188        0.689      869.746
01/10/2021  22:07:00       59.548       37.955       -7.495      103.025       25.986       50.590    10614.050      675.298     2559.353        0.944        0.692       70.616       68.686        0.946      332.168        0.655      869.749
01/10/2021  22:08:00       48.456       38.298       -2.210       29.582       33.121       17.876      875.120     1097.025      319.555        0.306        0.115       61.764       15.208        0.061      332.164        0.648      869.743
01/10/2021  22:09:00       60.932       54.084       -9.953       25.504       23.412       17.821      650.459      548.130      317.590        0.413        0.076       81.473       14.660        0.032      332.156        0.636      869.725
01/10/2021  22:10:00       85.887       61.476       -9.039       32.019       25.706       17.712     1025.210      660.792      313.713        0.662        0.100      105.621       15.679        0.022      332.099        0.541      869.698
01/10/2021  22:11:00       89.950       40.142       -2.213       33.646       30.990       20.819     1132.076      960.371      433.428        0.612        0.126       98.500       18.466        0.035      332.082        0.513      869.664
01/10/2021  22:12:00       92.656       56.781        5.119       39.652       32.797       26.102     1572.285     1075.652      681.295        0.758        0.166      108.670       17.771        0.027      332.096        0.536      869.636
01/10/2021  22:13:00       93.515       66.747       -4.023       40.117       25.724       20.739     1609.367      661.730      430.111        0.796        0.135      114.892       14.973        0.017      332.103        0.547      869.614
01/10/2021  22:14:00       81.227       69.118       -1.314       34.568       36.328       22.044     1194.934     1319.747      485.936        0.719        0.150      106.655       14.407        0.018      332.064        0.485      869.606
01/10/2021  22:15:00       98.536       73.281       -9.437       42.233       31.720       24.358     1783.658     1006.161      593.298        0.928        0.169      122.798       12.811        0.011      332.042        0.447      869.621
01/10/2021  22:16:00      110.777       91.385      -19.862       43.232       36.202       24.202     1869.021     1310.566      585.720        1.239        0.188      143.606       13.735        0.009      332.047        0.455      869.644
01/10/2021  22:17:00       67.489       73.225      -10.263       36.780       41.022       23.216     1352.789     1682.773      539.001        0.680        0.179       99.583       10.220        0.011      332.031        0.430      869.655
01/10/2021  22:18:00       63.130       77.418       -8.102       38.469       38.218       26.345     1479.871     1460.581      694.035        0.684        0.182       99.895        8.127        0.007      332.035        0.436      869.658
01/10/2021  22:19:00       33.889       94.427        5.580       41.296       52.320       26.120     1705.365     2737.345      682.235        0.761        0.256      100.324        6.307        0.004      332.136        0.603      869.670
01/10/2021  22:20:00       34.076      161.278      -14.971       26.016       36.551       19.449      676.842     1335.977      378.264        1.489        0.120      164.839       13.373        0.007      332.178        0.671      869.693
01/10/2021  22:21:00       28.360      150.774      -13.631       31.644       31.692       21.369     1001.329     1004.378      456.622        1.309        0.123      153.417       12.489        0.007      332.202        0.712      869.740
01/10/2021  22:22:00       28.354      146.315       -6.193       39.404       45.892       27.867     1552.690     2106.117      776.561        1.334        0.222      149.037       17.934        0.014      332.267        0.819      869.791
01/10/2021  22:23:00       18.194      128.511       -6.662       29.669       40.096       26.313      880.228     1607.704      692.384        1.003        0.159      129.793        3.429        0.001      332.301        0.874      869.823
01/10/2021  22:24:00      -13.093      111.454        2.109       40.154       37.126       23.348     1612.360     1378.355      545.126        0.807        0.177      112.220        9.755        0.008      332.320        0.905      869.831
01/10/2021  22:25:00      -35.126       82.194       -2.012       33.907       38.340       24.163     1149.692     1469.991      583.858        0.560        0.160       89.385       20.309        0.052      332.383        1.008      869.830
01/10/2021  22:26:00      -23.633       75.722       -1.972       25.786       52.539       17.891      664.931     2760.376      320.085        0.502        0.187       79.324       12.412        0.024      332.379        1.003      869.843
01/10/2021  22:27:00       -0.621      100.561        0.490       27.482       33.394       23.067      755.269     1115.172      532.074        0.626        0.120      100.563       17.417        0.030      332.447        1.116      869.863
01/10/2021  22:28:00      -22.911       48.197       -2.044       27.676       32.920       18.351      765.976     1083.742      336.759        0.252        0.109       53.366       17.684        0.110      332.432        1.091      869.885
01/10/2021  22:29:00      -53.863       22.310       -9.634       25.959       41.106       20.629      673.886     1689.672      425.545        0.314        0.139       58.301       22.086        0.144      332.413        1.059      869.893
01/10/2021  22:30:00      -54.702       32.523       -7.150       34.015       35.188       23.710     1157.001     1238.167      562.156        0.353        0.148       63.640       17.609        0.077      332.379        1.003      869.886
01/10/2021  22:31:00      -73.771       44.274       -3.950       29.860       35.477       24.850      891.625     1258.652      617.507        0.509        0.138       86.037       25.588        0.088      332.371        0.988      869.859
01/10/2021  22:32:00      -71.094       20.962       -8.581       27.455       35.973       21.437      753.751     1294.075      459.533        0.404        0.125       74.120       19.293        0.068      332.410        1.053      869.847
01/10/2021  22:33:00      -79.535       24.691      -12.434       26.713       28.071       23.816      713.567      788.004      567.186        0.458        0.103       83.280       19.599        0.055      332.341        0.940      869.848
01/10/2021  22:34:00     -105.385       50.013       -7.725       30.801       38.765       23.020      948.727     1502.695      529.938        0.832        0.149      116.650       24.544        0.044      332.283        0.847      869.855
01/10/2021  22:35:00     -101.081       86.201      -10.530       34.885       39.671       26.080     1216.964     1573.780      680.151        1.061        0.174      132.846       27.137        0.042      332.282        0.844      869.845
01/10/2021  22:36:00      -75.164       54.637       -5.932       22.656       33.739       20.705      513.288     1138.314      428.680        0.537        0.104       92.924       21.023        0.051      332.263        0.812      869.831
01/10/2021  22:37:00      -84.833       77.276       -7.261       30.539       43.814       23.759      932.607     1919.680      564.510        0.832        0.171      114.753       24.881        0.047      332.284        0.846      869.816
01/10/2021  22:38:00      -63.598       49.850       -1.942       35.212       37.264       24.273     1239.866     1388.625      589.181        0.487        0.161       80.807       16.390        0.041      332.303        0.878      869.792
01/10/2021  22:39:00      -42.827      106.130       -2.658       34.825       45.633       23.405     1212.799     2082.392      547.809        0.847        0.192      114.445       18.967        0.027      332.536        1.263      869.743
01/10/2021  22:40:00      -49.937      112.850        1.022       30.845       48.181       30.707      951.402     2321.402      942.917        0.972        0.211      123.405       20.312        0.027      332.563        1.307      869.683
01/10/2021  22:41:00      -59.760      130.389       -5.494       31.124       48.294       27.689      968.724     2332.339      766.689        1.233        0.203      143.431       14.998        0.011      332.637        1.429      869.629
01/10/2021  22:42:00      -40.364       51.711        3.151       27.041       37.996       22.174      731.197     1443.728      491.680        0.349        0.133       65.600       17.440        0.071      332.565        1.310      869.606
01/10/2021  22:43:00      -61.169       29.016      -20.867       23.412       33.234       18.998      548.116     1104.510      360.930        0.352        0.101       67.702       19.964        0.087      332.432        1.089      869.605
01/10/2021  22:44:00      -38.524       17.356       -5.090       41.305       37.652       22.058     1706.072     1417.664      486.534        0.271        0.181       42.253       18.101        0.184      332.289        0.855      869.607
01/10/2021  22:45:00      -89.059       36.020       -7.100       22.944       31.369       20.700      526.410      984.013      428.499        0.561        0.097       96.067       21.874        0.052      332.331        0.925      869.594
01/10/2021  22:46:00      -74.795       28.548       -3.074       32.903       33.163       22.289     1082.618     1099.758      496.806        0.455        0.134       80.058       17.770        0.049      332.320        0.906      869.565
01/10/2021  22:47:00      -55.891        8.528       -7.378       17.403       23.253       14.818      302.865      540.692      219.565        0.216        0.053       56.537       15.271        0.073      332.372        0.992      869.538
01/10/2021  22:48:00       -6.279       -4.571        7.585       28.535       27.100       15.013      814.251      734.429      225.376        0.095        0.089        7.767       14.440        3.456      332.367        0.984      869.526
01/10/2021  22:49:00        0.907       -4.257        3.104       27.971       27.418       19.998      782.350      751.763      399.922        0.098        0.097        4.352       19.033       19.123      332.449        1.120      869.514
01/10/2021  22:50:00       -5.438        8.432       -4.573       24.911       30.590       17.396      620.578      935.752      302.621        0.099        0.093       10.034       20.922        4.348      332.482        1.174      869.487
01/10/2021  22:51:00        6.904       -0.941        2.801       22.787       27.542       17.799      519.262      758.558      316.817        0.083        0.080        6.968       18.750        7.241      332.552        1.289      869.446
01/10/2021  22:52:00        8.315        1.853        5.100       27.930       36.671       22.611      780.073     1344.780      511.247        0.137        0.132        8.519       26.265        9.505      332.592        1.355      869.399
01/10/2021  22:53:00       24.524      -21.341       -3.503       31.420       43.321       24.945      987.238     1876.698      622.250        0.228        0.174       32.509       25.218        0.602      332.649        1.449      869.362
01/10/2021  22:54:00       -0.597      -15.473       -6.652       28.551       30.840       19.992      815.174      951.113      399.687        0.122        0.108       15.484       22.128        2.042      332.594        1.360      869.344
01/10/2021  22:55:00        5.001       10.297        3.548       30.348       32.973       21.985      920.990     1087.188      483.355        0.132        0.125       11.448       24.675        4.646      332.576        1.327      869.331
01/10/2021  22:56:00      -22.296       17.072       -1.633       19.711       23.142       15.106      388.528      535.531      228.197        0.097        0.058       28.081       14.873        0.281      332.368        0.982      869.326
01/10/2021  22:57:00      -11.264       21.902       -3.644      126.837       28.533       62.844    16087.670      814.118     3949.385        1.073        1.043       24.628       86.258       12.267      332.441        1.105      869.319
01/10/2021  22:58:00       15.210       34.894        5.091      146.308       33.712       73.252    21405.891     1136.482     5365.844        1.469        1.395       38.065       99.780        6.871      332.612        1.389      869.287
01/10/2021  22:59:00       22.420       20.679        2.273       29.613       27.716       16.834      876.958      768.150      283.386        0.143        0.096       30.500       19.023        0.389      332.568        1.315      869.254
01/10/2021  23:00:00       10.078       -8.952        4.919       29.072       27.628       20.598      845.175      763.290      424.294        0.112        0.102       13.479       20.534        2.321      332.588        1.347      869.212
01/10/2021  23:01:00       -1.634        6.587       -1.380      113.493       31.546       57.818    12880.632      995.129     3342.889        0.863        0.861        6.786       76.718      127.792      332.457        1.132      869.179
01/10/2021  23:02:00      -21.292        5.440       -1.349      171.402       36.491       83.114    29378.739     1331.585     6907.871        1.904        1.881       21.976      115.500       27.624      332.448        1.117      869.152
01/10/2021  23:03:00       -5.306        6.341        4.773       40.027       35.289       23.556     1602.122     1245.348      554.886        0.175        0.170        8.268       22.109        7.150      332.356        0.965      869.128
01/10/2021  23:04:00      -31.866        1.497        1.081       41.019       36.577       25.739     1682.590     1337.887      662.483        0.235        0.184       31.902       25.024        0.615      332.268        0.820      869.104
01/10/2021  23:05:00      -91.886       -1.172        2.069       28.884       27.736       20.797      834.261      769.310      432.501        0.524        0.102       91.894       18.417        0.040      332.285        0.848      869.076
01/10/2021  23:06:00      -35.162       -0.501       -0.241       34.675       34.566       20.923     1202.350     1194.814      437.789        0.204        0.142       35.166       18.148        0.266      332.375        0.997      869.070
01/10/2021  23:07:00      -35.979       -1.093       -4.102      145.634       26.847       69.758    21209.321      720.744     4866.187        1.405        1.340       35.996       96.092        7.126      332.352        0.959      869.088
01/10/2021  23:08:00      -66.343        4.548       -0.465       28.919       33.013       20.031      836.327     1089.865      401.232        0.337        0.116       66.499       18.488        0.077      332.357        0.967      869.115
01/10/2021  23:09:00      -41.233       13.518        6.832      190.923       40.219       89.483    36451.738     1617.565     8007.214        2.399        2.304       43.392      125.660        8.386      332.345        0.949      869.137
01/10/2021  23:10:00      -53.814        4.641        8.827       41.651       41.950       27.441     1734.765     1759.836      753.002        0.362        0.212       54.014       28.516        0.279      332.334        0.928      869.160
01/10/2021  23:11:00      -27.072       -2.408       -8.799      214.376       44.855      101.897    45956.921     2011.954    10382.908        2.957        2.918       27.179      140.852       26.857      332.185        0.686      869.178
01/10/2021  23:12:00      -19.671      -28.713       -2.694      171.603       41.879       86.118    29447.520     1753.878     7416.244        1.991        1.931       34.805      110.334       10.049      332.164        0.649      869.196
01/10/2021  23:13:00        2.763        6.489        6.473       45.676       37.195       30.278     2086.264     1383.437      916.751        0.224        0.219        7.053       25.143       12.707      332.170        0.659      869.212
01/10/2021  23:14:00      -60.020       -7.366       -2.853       74.190       50.812       34.734     5504.209     2581.894     1206.425        0.648        0.465       60.470       31.426        0.270      332.090        0.526      869.225
01/10/2021  23:15:00      -79.749      -14.443        4.200       78.040       51.090       30.472     6090.307     2610.144      928.541        0.811        0.481       81.046       28.207        0.121      332.005        0.386      869.236
01/10/2021  23:16:00     -121.586      -11.867        4.407       62.405       48.139       29.262     3894.331     2317.347      856.278        1.100        0.353      122.164       29.110        0.057      331.943        0.284      869.252
01/10/2021  23:17:00      -78.206        8.087       -5.663       59.081       52.813       32.448     3490.550     2789.196     1052.902        0.677        0.367       78.623       28.329        0.130      331.959        0.311      869.268
01/10/2021  23:18:00      -64.037       23.447        1.532      188.981       53.956       89.992    35713.795     2911.267     8098.585        2.568        2.336       68.194      118.096        2.999      331.991        0.365      869.284
01/10/2021  23:19:00      -84.429       15.065        6.977      177.807       75.448       88.743    31615.461     5692.440     7875.265        2.628        2.259       85.763      103.102        1.445      332.019        0.410      869.289
01/10/2021  23:20:00      -68.434       13.372       -7.012      312.950       50.457      142.864    97937.721     2545.901    20410.087        6.288        6.045       69.728      201.051        8.314      332.043        0.451      869.296
01/10/2021  23:21:00     -171.228       17.330        5.680      105.175       70.369       42.349    11061.823     4951.773     1793.466        2.373        0.890      172.103       52.716        0.094      331.894        0.201      869.312
01/10/2021  23:22:00     -148.530      -15.154       -6.003      202.360       67.225      103.159    40949.639     4519.159    10641.726        3.921        2.806      149.301      132.118        0.783      331.970        0.330      869.326
01/10/2021  23:23:00     -132.800       -0.296        3.191       75.545       68.096       37.202     5707.033     4637.056     1384.025        1.468        0.586      132.800       26.956        0.041      331.906        0.224      869.336
01/10/2021  23:24:00     -144.524       20.985       -7.844       46.248       53.607       31.064     2138.870     2873.671      964.968        1.368        0.299      146.040       29.591        0.041      331.914        0.236      869.332
01/10/2021  23:25:00     -114.521       20.053       -5.916       59.332       51.234       29.965     3520.274     2624.925      897.912        1.030        0.352      116.263       33.129        0.081      331.939        0.278      869.319
01/10/2021  23:26:00      -81.376       50.466      -14.609      364.828       57.269      170.302   133099.532     3279.694    29002.865        8.735        8.269       95.755      243.864        6.486      332.113        0.568      869.306
01/10/2021  23:27:00      -95.567       49.793       -4.423      295.101       53.548      139.332    87084.609     2867.335    19413.511        6.048        5.468      107.761      197.113        3.346      332.127        0.589      869.294
01/10/2021  23:28:00      -66.740        3.578        6.447      170.439       48.469       78.583    29049.285     2349.276     6175.350        2.103        1.879       66.836      104.809        2.459      332.035        0.437      869.289
01/10/2021  23:29:00      -45.496       32.192        1.231      260.954       49.345      128.592    68096.921     2434.944    16535.825        4.507        4.353       55.734      176.297       10.006      332.094        0.536      869.296
01/10/2021  23:30:00      -36.332       47.454       -7.053      298.143       53.540      144.580    88889.132     2866.510    20903.295        5.812        5.633       59.765      202.268       11.454      332.127        0.590      869.303
01/10/2021  23:31:00      -38.602       23.785       10.940      242.007       48.939      118.785    58567.276     2395.058    14109.955        3.861        3.754       45.341      162.806       12.893      332.088        0.525      869.305
01/10/2021  23:32:00      -57.375       28.896       -0.400      246.763       51.299      116.163    60892.005     2631.583    13493.810        4.056        3.851       64.240      163.520        6.479      332.058        0.474      869.320
01/10/2021  23:33:00      -10.253       25.717      -25.649      434.085       40.870      208.137   188429.781     1670.353    43321.004       11.737       11.671       27.685      297.667      115.600      332.300        0.878      869.326
01/10/2021  23:34:00      -31.801       27.443        0.730      243.080       52.266      122.627    59087.701     2731.757    15037.426        3.929        3.843       42.005      166.295       15.673      332.131        0.598      869.315
01/10/2021  23:35:00        9.037       21.396        3.945      289.324       56.893      143.191    83708.598     3236.827    20503.540        5.398        5.372       23.226      196.888       71.861      332.240        0.777      869.283
01/10/2021  23:36:00      -59.062       22.131        8.466      173.667       46.738       87.589    30160.248     2184.455     7671.900        2.202        2.001       63.072      115.885        3.376      332.080        0.512      869.253
01/10/2021  23:37:00      -30.619       16.507        0.594      244.613       46.865      116.892    59835.737     2196.307    13663.843        3.844        3.785       34.785      162.394       21.795      332.137        0.607      869.223
01/10/2021  23:38:00      -70.254       19.847        8.754       38.418       50.629       26.704     1475.974     2563.336      713.118        0.508        0.238       73.004       34.230        0.220      332.105        0.550      869.208
01/10/2021  23:39:00      -60.022       30.775       15.060       42.907       51.154       31.939     1841.001     2616.781     1020.101        0.513        0.274       67.451       38.834        0.331      332.108        0.555      869.206
01/10/2021  23:40:00      -81.217       36.137        7.646       32.647       52.407       29.291     1065.814     2746.463      857.951        0.631        0.234       88.894       37.480        0.178      332.072        0.497      869.196
01/10/2021  23:41:00     -116.554       31.491       -1.924      187.816       41.695       92.113    35274.694     1738.495     8484.791        3.003        2.275      120.733      124.667        1.066      332.004        0.386      869.181
01/10/2021  23:42:00     -114.071       36.390        0.926      184.899       48.178       93.725    34187.499     2321.134     8784.358        2.981        2.265      119.735      124.720        1.085      331.989        0.360      869.164
01/10/2021  23:43:00      -54.722       26.782      -11.043      347.904       51.280      157.280   121037.271     2629.613    24736.969        7.609        7.420       60.924      228.544       14.072      332.074        0.505      869.154
01/10/2021  23:44:00      -57.320       30.790        8.837      187.999       50.590       90.711    35343.653     2559.369     8228.543        2.521        2.307       65.066      120.846        3.450      331.963        0.319      869.147
01/10/2021  23:45:00      -73.298       34.335       11.397       39.683       48.528       30.417     1574.748     2354.937      925.216        0.577        0.243       80.942       35.860        0.196      331.986        0.354      869.145
01/10/2021  23:46:00      -53.800       34.496        0.519      300.301       52.238      136.066    90180.405     2728.823    18513.942        5.773        5.571       63.909      196.673        9.470      332.022        0.417      869.149
01/10/2021  23:47:00      -95.567       43.675        4.040       34.565       51.093       31.123     1194.754     2610.536      968.623        0.791        0.239      105.074       38.422        0.134      331.903        0.218      869.158
01/10/2021  23:48:00      -95.476       46.228       -5.076      225.174       49.919      112.922    50703.424     2491.876    12751.307        3.860        3.297      106.079      153.857        2.104      331.968        0.328      869.166
01/10/2021  23:49:00      -94.854       46.203        6.030       36.575       52.221       32.506     1337.707     2727.074     1056.668        0.814        0.256      105.508       39.221        0.138      331.857        0.144      869.163
01/10/2021  23:50:00      -83.138       45.078        0.881       44.012       51.365       32.806     1937.064     2638.341     1076.251        0.730        0.283       94.573       34.379        0.132      331.858        0.145      869.157
01/10/2021  23:51:00      -73.352       40.794        6.641       46.213       54.952       32.788     2135.599     3019.774     1075.028        0.666        0.312       83.932       37.722        0.202      331.883        0.184      869.148
01/10/2021  23:52:00      -54.184       38.807        8.586       47.196       59.839       32.883     2227.465     3580.694     1081.260        0.570        0.344       66.647       37.486        0.316      331.945        0.287      869.147
01/10/2021  23:53:00      -58.935       40.846        7.964       55.858       46.924       27.271     3120.149     2201.907      743.697        0.563        0.303       71.706       29.375        0.168      331.921        0.248      869.153
01/10/2021  23:54:00      -97.014       44.005        1.279       31.996       45.447       31.619     1023.770     2065.471      999.766        0.772        0.204      106.528       30.507        0.082      331.831        0.100      869.161
01/10/2021  23:55:00     -106.392       23.807        6.032       35.491       52.531       31.279     1259.595     2759.520      978.348        0.846        0.250      109.023       35.296        0.105      331.861        0.148      869.170
01/10/2021  23:56:00       -1.885        6.118       -3.089      271.602       53.083      129.932    73767.618     2817.776    16882.330        4.674        4.673        6.402      180.956      799.022      331.880        0.185      869.181
01/10/2021  23:57:00      -32.561       23.888       11.962       59.581       53.224       31.919     3549.930     2832.835     1018.840        0.459        0.370       40.384       37.257        0.851      331.857        0.144      869.186
01/10/2021  23:58:00       10.746        8.128        5.680      146.818       41.016       72.442    21555.570     1682.318     5247.831        1.434        1.424       13.474       95.366       50.096      331.908        0.227      869.196
01/10/2021  23:59:00       49.689       25.982       14.900       51.006       51.614       35.331     2601.640     2663.981     1248.255        0.494        0.326       56.072       36.513        0.424      331.954        0.302      869.203
01/11/2021  00:00:00      -10.687       49.601        2.958       44.908       49.568       32.785     2016.706     2456.983     1074.871        0.406        0.277       50.740       34.316        0.457      331.872        0.166      869.208
01/11/2021  00:01:00      -25.754       38.434        9.554       40.080       50.978       32.019     1606.429     2598.729     1025.215        0.373        0.262       46.265       34.238        0.548      331.910        0.230      869.217
01/11/2021  00:02:00      -23.934       21.567       -3.844      134.403       42.785       62.286    18064.237     1830.569     3879.530        1.241        1.189       32.218       82.102        6.494      331.919        0.244      869.215
01/11/2021  00:03:00       15.176       16.143        0.825      194.650       49.951       91.904    37888.615     2495.056     8446.321        2.465        2.441       22.157      126.175       32.429      331.922        0.249      869.220
01/11/2021  00:04:00       28.577       22.347      -21.229      344.038       50.904      159.223   118362.082     2591.197    25352.077        7.401        7.315       36.277      229.697       40.091      332.038        0.445      869.210
01/11/2021  00:05:00        5.696       16.051       11.833       45.859       46.054       28.732     2103.087     2120.983      825.555        0.274        0.252       17.031       31.628        3.449      331.877        0.177      869.190
01/11/2021  00:06:00      -61.868       22.285        6.455       43.827       47.940       31.086     1920.791     2298.223      966.359        0.477        0.259       65.759       32.615        0.246      331.831        0.100      869.165
01/11/2021  00:07:00      -63.553       21.417        8.494      132.756       46.653       68.588    17624.145     2176.491     4704.264        1.453        1.225       67.064       85.603        1.629      331.875        0.172      869.146
01/11/2021  00:08:00      -42.191       12.325        8.645       47.673       46.034       31.513     2272.667     2119.141      993.064        0.369        0.269       43.954       34.996        0.634      331.919        0.245      869.132
01/11/2021  00:09:00      -38.333       32.799       -5.178      331.983       50.780      162.653   110212.570     2578.559    26455.969        7.088        6.962       50.450      227.998       20.424      332.078        0.512      869.110
01/11/2021  00:10:00       -9.569       12.759        5.486       41.002       47.075       32.200     1681.172     2216.036     1036.856        0.261        0.247       15.949       36.261        5.169      332.013        0.400      869.103
01/11/2021  00:11:00       -0.361       18.002       10.843       48.076       54.576       32.302     2311.314     2978.568     1043.404        0.339        0.317       18.005       38.989        4.689      332.017        0.406      869.103
01/11/2021  00:12:00       -7.092        9.629       12.458       36.902       40.342       27.889     1361.770     1627.458      777.781        0.203        0.188       11.959       27.911        5.447      331.918        0.244      869.110
01/11/2021  00:13:00      -15.622       14.941        1.329      212.752       50.959      102.866    45263.266     2596.791    10581.506        2.944        2.922       21.616      142.457       43.432      331.945        0.288      869.104
01/11/2021  00:14:00      -24.577       19.645       12.000       45.011       48.066       27.349     2025.973     2310.328      747.941        0.311        0.254       31.464       34.638        1.212      331.964        0.319      869.103
01/11/2021  00:15:00      -13.562       11.489       -1.536      268.466       46.922      128.737    72074.122     2201.631    16573.218        4.556        4.542       17.774      180.009      102.565      332.048        0.461      869.090
01/11/2021  00:16:00       22.313        5.700       -3.309      211.726       44.871      102.486    44827.923     2013.395    10503.330        2.893        2.867       23.030      142.497       38.285      332.002        0.382      869.068
01/11/2021  00:17:00      -10.235       16.921        2.788      193.693       47.935       94.924    37517.035     2297.762     9010.580        2.460        2.441       19.776      128.461       42.197      332.031        0.430      869.076
01/11/2021  00:18:00       16.476       30.930        6.818      147.902       51.919       75.698    21874.973     2695.615     5730.139        1.578        1.515       35.045       97.925        7.808      331.994        0.368      869.073
01/11/2021  00:19:00      113.816       65.697      -11.983      454.198       45.562      217.790   206296.188     2075.924    47432.570       13.655       12.790      131.416      311.530        5.620      332.192        0.702      869.071
01/11/2021  00:20:00       72.815       55.821       -3.221       43.259       56.820       30.464     1871.322     3228.497      928.040        0.723        0.301       91.750       35.706        0.151      332.028        0.425      869.053
01/11/2021  00:21:00       67.221       45.950       -5.572      255.592       42.552      124.095    65327.077     1810.706    15399.487        4.458        4.127       81.425      174.742        4.605      331.910        0.232      869.026
01/11/2021  00:22:00       62.417       53.730        7.200       45.681       46.659       29.194     2086.749     2177.078      852.291        0.597        0.256       82.358       33.422        0.165      331.714       -0.093      869.003
01/11/2021  00:23:00      127.524       47.749      -26.010      342.042       32.954      165.991   116992.470     1085.989    27553.139        8.240        7.282      136.170      236.390        3.014      331.863        0.157      868.984
01/11/2021  00:24:00       48.085       30.156        6.898       45.792       57.612       36.603     2096.928     3319.172     1339.805        0.501        0.338       56.759       41.477        0.534      331.821        0.082      868.969
01/11/2021  00:25:00       77.913       35.081        8.683       40.494       48.390       30.878     1639.763     2341.611      953.453        0.615        0.247       85.447       32.761        0.147      331.689       -0.134      868.958
01/11/2021  00:26:00       83.832       35.323        5.589       57.753       55.182       32.318     3335.405     3045.026     1044.449        0.786        0.371       90.970       37.736        0.172      331.686       -0.140      868.946
01/11/2021  00:27:00       90.146       80.656        4.800       49.824       59.857       34.179     2482.385     3582.874     1168.235        1.094        0.362      120.962       35.779        0.087      331.582       -0.312      868.933
01/11/2021  00:28:00       99.251       65.966       -3.391       49.608       47.683       33.253     2460.918     2273.641     1105.760        1.003        0.292      119.173       31.213        0.069      331.655       -0.189      868.922
01/11/2021  00:29:00      113.513       58.711        0.873      184.685       47.477       92.535    34108.402     2254.066     8562.671        3.062        2.246      127.797      125.074        0.958      331.687       -0.137      868.912
01/11/2021  00:30:00       88.545       28.656       -4.006      162.181       40.805       81.047    26302.809     1665.021     6568.647        2.160        1.727       93.066      109.210        1.377      331.704       -0.108      868.895
01/11/2021  00:31:00       94.075       44.751       -1.298      242.815       52.030      115.518    58959.134     2707.139    13344.307        4.292        3.751      104.177      161.448        2.402      331.819        0.082      868.881
01/11/2021  00:32:00       94.142       43.763        1.281       49.925       50.555       32.110     2492.546     2555.794     1031.059        0.843        0.304      103.816       32.503        0.098      331.715       -0.091      868.856
01/11/2021  00:33:00      104.032       40.678        5.325       52.243       46.331       34.343     2729.366     2146.604     1179.462        0.928        0.303      111.702       34.575        0.096      331.857        0.141      868.825
01/11/2021  00:34:00       81.423       32.297       -1.248      244.398       46.287      119.743    59730.413     2142.530    14338.336        4.193        3.811       87.595      166.533        3.614      331.957        0.307      868.799
01/11/2021  00:35:00       99.871       27.659       -4.460      275.282       43.527      131.139    75779.939     1894.626    17197.557        5.280        4.744      103.630      186.070        3.224      331.914        0.238      868.785
01/11/2021  00:36:00      103.960       46.361        3.484      181.301       70.620       86.702    32870.233     4987.174     7517.320        2.916        2.269      113.829      113.666        0.997      331.964        0.319      868.771
01/11/2021  00:37:00       37.620       25.160       15.203       46.658       57.851       39.283     2176.936     3346.775     1543.193        0.467        0.353       45.258       29.025        0.411      331.900        0.213      868.769
01/11/2021  00:38:00       92.178       44.649        1.105       59.755       59.064       35.412     3570.718     3488.566     1253.990        0.940        0.416      102.423       30.734        0.090      331.726       -0.073      868.765
01/11/2021  00:39:00       86.084       46.650        8.682       48.417       53.481       32.448     2344.229     2860.173     1052.852        0.796        0.313       97.912       33.900        0.120      331.609       -0.266      868.758
01/11/2021  00:40:00      102.630       52.827        6.529       47.008       49.815       32.349     2209.770     2481.538     1046.433        0.955        0.287      115.428       30.420        0.069      331.606       -0.272      868.763
01/11/2021  00:41:00       99.984       58.092        4.272      178.200       54.412       91.589    31755.314     2960.638     8388.587        2.824        2.155      115.635      119.303        1.064      331.668       -0.171      868.778
01/11/2021  00:42:00       90.584       56.229        3.537      182.837       53.248       84.675    33429.438     2835.351     7169.860        2.740        2.172      106.617      115.788        1.179      331.670       -0.166      868.795
01/11/2021  00:43:00       64.555       61.405        2.491       57.279       48.305       33.989     3280.933     2333.408     1155.238        0.736        0.338       89.095       35.008        0.154      331.680       -0.150      868.805
01/11/2021  00:44:00       62.169       51.567        5.962      201.367       56.165       98.835    40548.658     3154.537     9768.367        3.000        2.674       80.772      133.324        2.725      331.805        0.059      868.802
01/11/2021  00:45:00       46.076       36.558        4.866       57.888       47.953       31.419     3351.041     2299.458      987.179        0.506        0.332       58.817       32.606        0.307      331.756       -0.023      868.798
01/11/2021  00:46:00       85.183       66.803        5.499      182.374       57.307       92.065    33260.284     3284.130     8475.920        2.838        2.251      108.253      121.350        1.257      331.898        0.211      868.787
01/11/2021  00:47:00       72.861       42.450       -7.114      251.725       58.121      121.201    63365.457     3378.058    14689.595        4.428        4.072       84.325      169.022        4.018      331.915        0.240      868.770
01/11/2021  00:48:00       99.622       15.778      -12.869      347.483       54.331      171.727   120744.511     2951.870    29490.000        8.173        7.659      100.863      240.005        5.662      332.212        0.731      868.751
01/11/2021  00:49:00      108.423      -15.497      -36.848      503.243       48.842      240.222   253253.586     2385.506    57706.458       16.329       15.667      109.525      345.305        9.940      332.412        1.068      868.749
01/11/2021  00:50:00       48.818        6.060      -24.105      381.391       55.240      187.384   145459.152     3051.466    35112.881        9.327        9.181       49.193      263.569       28.707      331.975        0.343      868.771
01/11/2021  00:51:00      -10.374       16.079        3.104       39.830       45.241       30.594     1586.448     2046.775      936.019        0.247        0.228       19.135       33.059        2.985      331.794        0.040      868.810
01/11/2021  00:52:00       17.395       20.083        7.486      183.339       45.382       93.181    33613.065     2059.535     8682.630        2.255        2.218       26.569      123.194       21.499      331.863        0.154      868.860
01/11/2021  00:53:00       69.510        6.263      -15.118      361.377       55.632      175.249   130593.305     3094.883    30712.234        8.472        8.220       69.791      248.352       12.663      332.066        0.491      868.895
01/11/2021  00:54:00      -13.879       27.872        6.362       53.983       50.944       34.792     2914.203     2595.245     1210.479        0.386        0.336       31.136       37.494        1.450      331.866        0.158      868.918
01/11/2021  00:55:00       16.666       24.383       14.728      121.314       50.970       63.117    14717.108     2597.991     3983.760        1.119        1.065       29.535       74.027        6.282      331.909        0.227      868.919
01/11/2021  00:56:00       20.418        6.243        7.145       44.389       50.335       32.846     1970.346     2533.654     1078.863        0.304        0.279       21.351       34.189        2.564      331.867        0.159      868.918
01/11/2021  00:57:00       38.130       22.368       -1.389      288.937       53.728      139.478    83484.316     2886.751    19454.035        5.387        5.291       44.206      195.142       19.487      332.038        0.444      868.917
01/11/2021  00:58:00       40.187       42.579        5.698      190.304       53.308       96.649    36215.631     2841.740     9341.033        2.592        2.420       58.549      128.493        4.816      331.903        0.220      868.920
01/11/2021  00:59:00       60.721       13.205      -21.356      338.840       49.457      163.778   114812.499     2446.015    26823.156        7.417        7.204       62.140      231.064       13.827      332.041        0.448      868.919
01/11/2021  01:00:00       59.802       36.229       -2.134      152.726       61.551       80.029    23325.225     3788.575     6404.619        1.920        1.676       69.920       97.882        1.960      331.846        0.125      868.906
01/11/2021  01:01:00      112.296       18.878      -19.169      374.425       62.774      183.051   140194.028     3940.551    33507.680        9.545        8.882      113.871      257.054        5.096      332.158        0.642      868.898
01/11/2021  01:02:00       55.951       24.910       13.394       51.996       65.022       42.485     2703.601     4227.824     1805.011        0.633        0.437       61.245       37.631        0.378      331.977        0.340      868.890
01/11/2021  01:03:00      103.057       40.521      -14.489      349.775       67.101      162.579   122342.842     4502.516    26432.090        8.284        7.664      110.737      232.920        4.424      332.053        0.469      868.885
01/11/2021  01:04:00       75.513        6.861      -24.842      367.634       73.944      163.821   135155.064     5467.659    26837.445        8.688        8.373       75.824      240.978       10.100      332.079        0.514      868.884
01/11/2021  01:05:00       65.773      -17.790       -1.398      161.021       54.815       82.489    25927.727     3004.688     6804.434        2.018        1.787       68.137      105.330        2.390      331.989        0.361      868.889
01/11/2021  01:06:00       82.533       28.092       -8.815      213.439       58.311      106.470    45556.214     3400.180    11335.921        3.397        3.015       87.183      143.918        2.725      331.840        0.116      868.900
01/11/2021  01:07:00       90.196       50.497      -15.752      400.340       49.552      192.646   160272.414     2455.419    37112.491       10.535        9.992      103.369      274.563        7.055      331.960        0.317      868.914
01/11/2021  01:08:00      137.334       47.135      -24.745      462.716       56.843      224.370   214105.994     3231.072    50342.104       14.463       13.384      145.198      318.703        4.818      332.091        0.535      868.933
01/11/2021  01:09:00      132.769       21.922      -29.949      492.903       49.459      231.943   242953.150     2446.151    53797.385       15.904       14.960      134.567      335.212        6.205      332.167        0.661      868.953
01/11/2021  01:10:00      105.521       34.203      -16.483      453.019       53.906      222.150   205226.002     2905.906    49350.422       13.498       12.874      110.926      314.008        8.013      332.101        0.552      868.964
01/11/2021  01:11:00      109.694       48.814      -25.454      385.019       52.589      182.369   148239.335     2765.631    33258.619        9.963        9.213      120.065      261.309        4.737      332.089        0.530      868.969
01/11/2021  01:12:00       87.545       55.155       -1.994      239.011       53.232      117.625    57126.411     2833.602    13835.625        4.224        3.690      103.471      161.277        2.429      331.975        0.337      868.964
01/11/2021  01:13:00       65.415       57.901        1.948      148.389       57.568       76.152    22019.179     3314.032     5799.191        1.938        1.557       87.359       96.671        1.225      331.898        0.213      868.964
01/11/2021  01:14:00       71.374       51.794      -10.834      351.138       51.443      161.373   123298.166     2646.391    26041.319        7.991        7.599       88.186      234.646        7.080      331.960        0.315      868.980
01/11/2021  01:15:00       45.527       38.122        4.238      135.478       48.475       71.147    18354.209     2349.845     5061.954        1.465        1.288       59.380       90.517        2.324      331.789        0.030      868.992
01/11/2021  01:16:00       63.510       23.276       -3.712      228.404       42.296      112.279    52168.556     1788.916    12606.642        3.556        3.328       67.641      155.899        5.312      331.983        0.350      869.010
01/11/2021  01:17:00       54.834       32.082        2.760      298.322       48.776      145.885    88996.272     2379.079    21282.578        5.833        5.633       63.530      204.738       10.386      332.004        0.385      869.037
01/11/2021  01:18:00      109.253       46.367      -21.745      484.508       53.384      232.062   234748.075     2849.892    53852.869       15.294       14.573      118.685      332.149        7.832      332.194        0.706      869.044
01/11/2021  01:19:00       16.511       27.210      -10.478      292.139       50.119      136.771    85345.443     2511.901    18706.345        5.382        5.328       31.827      195.834       37.860      331.896        0.210      869.056
01/11/2021  01:20:00      -21.308       30.044      -11.489      339.790       56.370      167.148   115457.102     3177.621    27938.370        7.400        7.329       36.833      233.872       40.317      331.780        0.020      869.058
01/11/2021  01:21:00     -122.776       53.924        1.918      190.969       51.411       93.628    36469.297     2643.074     8766.242        3.292        2.394      134.096      125.906        0.882      331.591       -0.294      869.073
01/11/2021  01:22:00      -72.395       33.892       -8.366      302.710       56.008      149.605    91633.065     3136.897    22381.536        6.178        5.858       79.936      204.213        6.527      331.673       -0.157      869.093
01/11/2021  01:23:00      -68.728       25.679        8.745      272.968       62.444      131.128    74511.751     3899.256    17194.674        5.051        4.780       73.369      180.541        6.055      331.670       -0.163      869.110
01/11/2021  01:24:00      -68.468        5.132        0.181      235.776       58.814      111.940    55590.295     3459.080    12530.485        3.813        3.579       68.660      150.399        4.798      331.659       -0.181      869.119
01/11/2021  01:25:00      -40.823       12.779        8.483      223.625       63.027       97.066    50007.963     3972.412     9421.819        3.264        3.170       42.776      133.874        9.795      331.666       -0.171      869.119
01/11/2021  01:26:00     -117.145       24.811       18.670       45.504       46.980       37.106     2070.612     2207.098     1376.847        1.017        0.283      119.744       41.205        0.118      331.649       -0.199      869.116
01/11/2021  01:27:00      -25.769       26.155       -3.373      290.663       55.641      139.221    84485.208     3095.908    19382.524        5.414        5.348       36.716      193.408       27.748      331.731       -0.061      869.106
01/11/2021  01:28:00      -40.603       24.071        3.940      258.695       51.499      123.026    66922.943     2652.110    15135.456        4.346        4.236       47.202      172.846       13.409      331.813        0.074      869.104
01/11/2021  01:29:00      -53.841       33.883       -3.379      139.908       51.225       75.016    19574.138     2623.953     5627.473        1.594        1.391       63.616       92.540        2.116      331.761       -0.014      869.116
01/11/2021  01:30:00      -20.971       37.232        8.249      155.538       61.495       72.174    24192.011     3781.690     5209.053        1.753        1.659       42.732       94.972        4.940      331.815        0.075      869.144
01/11/2021  01:31:00       33.982       44.907       -9.633      355.816       55.157      172.595   126605.054     3042.271    29788.877        8.132        7.972       56.316      243.626       18.715      331.881        0.188      869.174
01/11/2021  01:32:00       43.244       59.501      -31.910      482.436       56.234      235.340   232744.014     3162.217    55385.123       14.880       14.565       73.556      333.437       20.549      331.976        0.348      869.201
01/11/2021  01:33:00      -28.522       45.670        1.521      210.219       52.035      103.362    44192.218     2707.632    10683.752        3.023        2.879       53.844      141.247        6.881      331.688       -0.132      869.208
01/11/2021  01:34:00      -44.469       50.037        2.913      199.678       51.960       98.331    39871.289     2699.846     9668.929        2.835        2.612       66.942      133.332        3.967      331.735       -0.057      869.214
01/11/2021  01:35:00      -18.003       27.858       -5.356      309.558       54.693      141.850    95825.978     2991.273    20121.319        6.001        5.947       33.169      204.407       37.978      331.786        0.029      869.216
01/11/2021  01:36:00       24.970       28.380       -9.205      337.938       59.445      159.722   114202.208     3533.674    25511.212        7.235        7.162       37.801      226.862       36.018      331.919        0.249      869.202
01/11/2021  01:37:00       40.754        2.720       -2.646      193.058       48.548       95.512    37271.359     2356.895     9122.532        2.520        2.438       40.845      130.096       10.145      331.845        0.123      869.187
01/11/2021  01:38:00       57.851       17.579       -3.194      368.075       56.217      172.010   135478.892     3160.381    29587.354        8.591        8.411       60.463      247.387       16.741      332.003        0.387      869.192
01/11/2021  01:39:00       10.023        8.266       -2.526      316.291       46.604      155.277   100040.252     2171.937    24110.804        6.322        6.316       12.992      216.556      277.842      331.969        0.331      869.207
01/11/2021  01:40:00      -22.905        9.453       10.822       47.037       49.806       28.858     2212.518     2480.612      832.792        0.313        0.276       24.779       35.231        2.022      331.817        0.077      869.221
01/11/2021  01:41:00      -91.863       12.344       -1.359       57.147       47.752       30.682     3265.760     2280.218      941.361        0.754        0.324       92.688       36.349        0.154      331.700       -0.116      869.242
01/11/2021  01:42:00     -100.881       19.288       -4.177      253.020       43.788      120.273    64019.011     1917.402    14465.649        4.547        4.020      102.708      169.332        2.718      331.752       -0.028      869.264
01/11/2021  01:43:00     -133.433       45.076       -4.693      159.521       46.281       79.323    25446.906     2141.970     6292.135        2.686        1.694      140.841      104.637        0.552      331.694       -0.126      869.280
01/11/2021  01:44:00      -84.723        9.563      -10.415      188.547       50.998       92.163    35549.911     2600.805     8494.108        2.700        2.332       85.261      119.250        1.956      331.742       -0.045      869.300
01/11/2021  01:45:00      -40.521        8.260        8.016      156.157       56.935       77.486    24385.112     3241.599     6004.147        1.770        1.682       41.354       89.529        4.687      331.791        0.035      869.305
01/11/2021  01:46:00       17.468       26.885       -8.159      347.011       59.562      169.142   120416.949     3547.679    28608.864        7.680        7.629       32.061      236.262       54.303      331.936        0.277      869.301
01/11/2021  01:47:00       -3.866       18.325        1.253      228.422       50.332      110.607    52176.424     2533.331    12233.911        3.363        3.347       18.729      150.797       64.828      331.841        0.117      869.295
01/11/2021  01:48:00        3.543        7.431        0.369      302.522       47.430      140.321    91519.427     2249.607    19690.121        5.674        5.673        8.232      201.036      596.333      331.989        0.361      869.295
01/11/2021  01:49:00       30.009       -4.009       -7.221      308.514       51.947      139.981    95180.741     2698.500    19594.705        5.920        5.874       30.276      202.676       44.814      332.162        0.648      869.296
01/11/2021  01:50:00       19.479        7.015       -6.684      262.320       44.216      123.162    68811.875     1955.026    15168.981        4.319        4.297       20.704      176.578       72.741      332.064        0.486      869.308
01/11/2021  01:51:00       68.290        1.567      -16.529      399.854       41.916      192.650   159883.553     1756.980    37113.953       10.181        9.938       68.308      275.547       16.272      332.224        0.753      869.324
01/11/2021  01:52:00       41.325       -8.304       -5.231      248.696       39.592      122.573    61849.812     1567.548    15024.195        4.011        3.922       42.151      170.650       16.391      332.050        0.462      869.333
01/11/2021  01:53:00       18.396        7.500      -12.730      295.063       42.303      143.641    87062.178     1789.578    20632.660        5.500        5.474       19.866      202.108      103.499      332.090        0.529      869.354
01/11/2021  01:54:00       23.748       28.345        5.611      301.071       53.160      144.609    90643.702     2826.030    20911.624        5.787        5.719       36.979      202.216       29.904      332.114        0.568      869.369
01/11/2021  01:55:00      -52.906      -10.567        5.058       49.214       39.848       25.946     2421.978     1587.850      673.209        0.381        0.234       53.951       29.581        0.301      331.977        0.340      869.391
01/11/2021  01:56:00      -34.028      -18.536      -13.566      343.821       47.033      161.042   118212.567     2212.103    25934.579        7.399        7.318       38.749      231.860       35.803      332.060        0.480      869.402
01/11/2021  01:57:00      -96.525      -23.931       -4.435       27.779       42.743       25.817      771.698     1826.955      666.530        0.659        0.163       99.447       29.312        0.087      331.855        0.139      869.415
01/11/2021  01:58:00      -80.439       -0.950        4.900       51.773       56.270       29.356     2680.460     3166.332      861.767        0.660        0.335       80.445       37.262        0.215      331.940        0.280      869.428
01/11/2021  01:59:00      -84.256      -58.923      -20.816      220.227       38.786      106.740    48499.788     1504.360    11393.367        3.619        3.070      102.815      150.045        2.130      331.948        0.295      869.436
01/11/2021  02:00:00      -51.071      -34.701      -23.938      317.929       40.471      153.123   101078.778     1637.919    23446.631        6.525        6.308       61.745      217.240       12.379      332.072        0.502      869.452
01/11/2021  02:01:00      -30.845       -7.977       -7.805      293.368       41.888      139.727    86064.571     1754.645    19523.691        5.419        5.367       31.860      198.301       38.740      332.098        0.544      869.466
01/11/2021  02:02:00      -19.218      -19.235       -9.185      213.322       43.994      100.902    45506.244     1935.497    10181.231        2.921        2.881       27.190      140.880       26.845      332.045        0.454      869.474
01/11/2021  02:03:00        0.925        9.830       -9.646      346.371       49.283      165.069   119972.780     2428.785    27247.870        7.489        7.482        9.874      235.541      569.067      332.135        0.605      869.471
01/11/2021  02:04:00       12.861       14.290       -1.783      312.951       50.920      147.894    97938.471     2592.887    21872.749        6.136        6.120       19.225      209.742      119.022      332.094        0.537      869.472
01/11/2021  02:05:00      -56.658       24.083        4.495      213.253       44.685      107.329    45476.851     1996.748    11519.433        3.139        2.950       61.564      144.792        5.531      331.981        0.349      869.464
01/11/2021  02:06:00      -17.980        6.891       -4.719      251.205       40.463      117.659    63104.170     1637.264    13843.623        3.947        3.929       19.255      167.137       75.343      332.043        0.451      869.449
01/11/2021  02:07:00       27.750       22.982       -5.403      320.418       48.865      148.305   102667.551     2387.782    21994.442        6.416        6.352       36.031      214.065       35.297      332.035        0.439      869.442
01/11/2021  02:08:00      -11.615       28.941       -7.986      256.747       38.881      124.601    65918.815     1511.717    15525.375        4.198        4.148       31.184      176.484       32.028      331.914        0.240      869.439
01/11/2021  02:09:00      -11.209       40.996       -7.488      287.214       42.755      137.423    82491.700     1828.027    18885.115        5.251        5.160       42.501      195.663       21.194      331.970        0.332      869.437
01/11/2021  02:10:00       -2.906       17.795      -15.652      332.726       38.236      159.905   110706.405     1462.018    25569.671        6.912        6.887       18.031      228.087      160.015      332.040        0.447      869.434
01/11/2021  02:11:00       -6.603        7.515      -10.228      306.058       42.466      149.167    93671.541     1803.402    22250.661        5.894        5.886       10.003      209.628      439.146      332.088        0.526      869.425
01/11/2021  02:12:00       19.108        6.454       -4.324      231.048       43.475      108.398    53383.272     1890.094    11750.190        3.371        3.351       20.169      154.216       58.465      332.070        0.496      869.415
01/11/2021  02:13:00        5.309       29.794       -1.118      241.283       45.786      116.254    58217.442     2096.367    13515.039        3.736        3.691       30.263      162.719       28.911      332.018        0.409      869.402
01/11/2021  02:14:00       28.325       31.577        1.045      271.505       39.463      132.163    73715.129     1557.346    17467.111        4.725        4.637       42.420      186.307       19.289      332.029        0.430      869.396
01/11/2021  02:15:00       54.474       38.799      -27.185      430.881       41.186      196.798   185658.038     1696.302    38729.622       11.560       11.304       66.879      288.913       18.662      332.205        0.722      869.382
01/11/2021  02:16:00      -21.944       14.642        8.216       29.036       40.443       23.944      843.087     1635.639      573.326        0.191        0.153       26.380       29.039        1.212      331.914        0.235      869.385
01/11/2021  02:17:00      -30.402       15.599       -1.009      184.960       37.671       90.629    34210.174     1419.071     8213.547        2.250        2.192       34.170      124.602       13.297      331.904        0.221      869.387
01/11/2021  02:18:00      -54.002       20.308        4.966       38.797       34.132       21.510     1505.173     1165.011      462.670        0.324        0.157       57.694       26.734        0.215      331.807        0.060      869.379
01/11/2021  02:19:00      -40.471       22.959      -17.091      288.514       33.338      138.372    83240.191     1111.418    19146.809        5.296        5.175       46.530      197.712       18.055      331.939        0.280      869.360
01/11/2021  02:20:00      -15.518       19.051       -5.693      274.433       40.769      126.916    75313.443     1662.141    16107.684        4.684        4.654       24.571      183.008       55.474      331.974        0.337      869.328
01/11/2021  02:21:00      -30.900       20.643        1.521      196.971       43.917       88.931    38797.385     1928.694     7908.678        2.500        2.432       37.161      127.050       11.689      332.014        0.404      869.305
01/11/2021  02:22:00       -6.109       12.597        4.301      198.282       42.978       91.789    39315.807     1847.133     8425.239        2.489        2.479       14.000      129.863       86.042      332.024        0.420      869.294
01/11/2021  02:23:00       61.620       19.717       -3.255      291.845       43.377      142.286    85173.764     1881.538    20245.190        5.573        5.365       64.698      200.298        9.585      332.133        0.601      869.278
01/11/2021  02:24:00       89.587       16.647      -39.485      503.233       43.118      227.634   253243.432     1859.160    51817.240       15.833       15.346       91.120      336.609       13.646      332.333        0.936      869.261
01/11/2021  02:25:00       60.302        4.944      -13.422      337.697       42.711      164.673   114039.391     1824.272    27117.039        7.338        7.149       60.504      232.993       14.829      332.175        0.672      869.242
01/11/2021  02:26:00       35.751       17.920        0.406      204.679       44.641      101.262    41893.508     1992.858    10254.007        2.786        2.707       39.991      139.640       12.193      332.096        0.539      869.223
01/11/2021  02:27:00       55.014       41.864       -6.577      249.203       47.208      123.236    62102.104     2228.570    15187.220        4.215        3.976       69.131      171.211        6.134      332.059        0.478      869.199
01/11/2021  02:28:00       39.849       -5.443        6.433       38.948       54.984       33.634     1516.941     3023.241     1131.242        0.366        0.284       40.219       35.813        0.793      332.100        0.543      869.179
01/11/2021  02:29:00       51.797      -67.211      -16.048      256.545       44.134      124.747    65815.452     1947.777    15561.773        4.537        4.166       84.855      175.366        4.271      332.151        0.629      869.162
01/11/2021  02:30:00       55.237      -60.953      -24.077      296.118       54.119      138.700    87686.088     2928.881    19237.608        5.858        5.493       82.258      198.131        5.802      332.112        0.566      869.145
01/11/2021  02:31:00      -15.412       -2.728      -11.111       36.746       44.462       28.576     1350.278     1976.860      816.604        0.226        0.207       15.652       32.137        4.216      331.869        0.163      869.125
01/11/2021  02:32:00       -7.138      -11.015       -3.225       35.117       38.360       26.932     1233.233     1471.507      725.348        0.181        0.172       13.125       27.446        4.373      331.845        0.122      869.108
01/11/2021  02:33:00       26.933       38.559      -13.281      256.101       53.189      124.746    65587.773     2829.071    15561.452        4.317        4.199       47.034      174.501       13.765      331.849        0.131      869.088
01/11/2021  02:34:00       42.573       54.891      -18.923      331.022       44.549      157.388   109575.455     1984.629    24770.869        7.073        6.817       69.466      226.072       10.591      331.792        0.040      869.082
01/11/2021  02:35:00       23.331       66.868       -6.170      288.168       48.881      140.247    83040.900     2389.387    19669.168        5.505        5.255       70.821      197.233        7.756      331.742       -0.043      869.088
01/11/2021  02:36:00       15.889       42.381      -24.597      354.761       41.160      170.711   125855.066     1694.117    29142.252        7.964        7.835       45.262      243.924       29.043      331.825        0.095      869.105
01/11/2021  02:37:00       17.949       59.284      -12.901      314.952       53.223      155.177    99194.877     2832.693    24079.791        6.503        6.305       61.942      217.064       12.280      331.761       -0.012      869.114
01/11/2021  02:38:00       -7.564       47.956        1.647      171.239       46.655       86.242    29322.935     2176.677     7437.603        2.064        1.947       48.549      113.543        5.470      331.655       -0.188      869.120
01/11/2021  02:39:00       -4.637       41.859       11.429       47.596       49.851       30.715     2265.365     2485.168      943.406        0.380        0.285       42.115       36.770        0.762      331.609       -0.265      869.126
01/11/2021  02:40:00      -16.404       30.737        4.929      175.934       41.863       87.778    30952.796     1752.544     7705.014        2.082        2.021       34.841      118.338       11.537      331.660       -0.182      869.125
01/11/2021  02:41:00       -8.195       26.775       12.244      147.272       48.455       73.771    21688.937     2347.896     5442.205        1.520        1.474       28.001       96.135       11.788      331.732       -0.062      869.120
01/11/2021  02:42:00        9.408       39.128      -20.105      348.710       46.219      165.397   121598.346     2136.218    27356.306        7.653        7.555       40.243      236.685       34.592      331.792        0.040      869.110
01/11/2021  02:43:00      -23.746       38.776       11.176       45.185       48.064       30.969     2041.720     2310.118      959.101        0.375        0.266       45.469       34.237        0.567      331.595       -0.290      869.099
01/11/2021  02:44:00       -4.704       51.371       10.828      169.461       50.954       85.799    28717.071     2596.326     7361.511        2.072        1.934       51.586      112.896        4.790      331.662       -0.178      869.086
01/11/2021  02:45:00       14.668       46.898      -16.549      284.295       40.243      133.949    80823.475     1619.531    17942.324        5.152        5.019       49.138      192.275       15.311      331.688       -0.133      869.082
01/11/2021  02:46:00       50.577       56.020      -14.388      401.509       49.102      195.654   161209.279     2411.045    38280.592       10.386       10.095       75.474      277.227       13.492      331.836        0.113      869.090
01/11/2021  02:47:00       15.458       55.869       -8.443      260.190       46.289      125.128    67698.906     2142.684    15656.963        4.445        4.275       57.968      176.742        9.296      331.781        0.021      869.108
01/11/2021  02:48:00       -8.151       56.172       11.031       32.057       48.696       27.922     1027.671     2371.346      779.629        0.376        0.209       56.760       36.544        0.415      331.641       -0.214      869.110
01/11/2021  02:49:00       37.341       57.282       -1.524      306.529       58.247      150.253    93960.046     3392.723    22575.986        6.228        5.996       68.378      209.552        9.392      331.808        0.064      869.105
01/11/2021  02:50:00       49.200       50.893       -4.085      307.014       54.584      150.805    94257.837     2979.406    22742.249        6.248        5.999       70.786      210.455        8.839      331.760       -0.014      869.094
01/11/2021  02:51:00       91.265       56.868       -8.070      360.190       54.848      169.183   129736.850     3008.332    28622.958        8.647        8.068      107.532      242.389        5.081      331.850        0.134      869.072
01/11/2021  02:52:00      101.597       53.870       -3.045      253.696       57.514      117.278    64361.713     3307.856    13754.174        4.731        4.071      114.996      166.169        2.088      331.600       -0.278      869.053
01/11/2021  02:53:00      125.626       54.534      -17.575      367.163       57.968      178.842   134808.304     3360.335    31984.416        9.457        8.508      136.952      251.722        3.378      331.555       -0.350      869.034
01/11/2021  02:54:00       92.212       63.677        1.578      277.522       50.765      136.495    77018.397     2577.069    18630.803        5.537        4.911      112.062      189.789        2.868      331.436       -0.547      869.017
01/11/2021  02:55:00       98.405       69.285       -9.955      275.410       54.279      132.401    75850.532     2946.259    17529.962        5.544        4.816      120.349      185.171        2.367      331.520       -0.408      869.023
01/11/2021  02:56:00      190.465       57.179      -48.665      575.019       53.971      278.961   330647.299     2912.869    77819.280       22.656       20.569      198.862      397.836        4.002      331.880        0.192      869.035
01/11/2021  02:57:00      121.195       68.781      -12.611      347.915       51.349      174.277   121045.028     2636.694    30372.509        8.679        7.703      139.353      242.217        3.021      331.646       -0.199      869.044
01/11/2021  02:58:00      117.344       72.043      -17.219      347.454       55.587      172.902   120724.427     3089.949    29895.151        8.645        7.685      137.694      240.655        3.055      331.577       -0.314      869.059
01/11/2021  02:59:00       77.474      101.475        0.506      313.079       59.805      148.325    98018.231     3576.589    22000.171        6.992        6.180      127.669      210.411        2.716      331.514       -0.418      869.094
01/11/2021  03:00:00      115.433      121.987      -19.234      448.434       54.524      216.303   201093.361     2972.886    46786.979       13.966       12.543      167.945      307.831        3.360      331.704       -0.102      869.119
01/11/2021  03:01:00       70.572       92.973       -3.190      327.657       53.268      152.148   107358.873     2837.520    23149.133        7.346        6.667      116.724      219.275        3.529      331.527       -0.398      869.136
01/11/2021  03:02:00       55.481       69.091       10.676      156.246       53.426       80.299    24412.676     2854.364     6447.958        2.083        1.686       88.610      104.222        1.383      331.391       -0.623      869.128
01/11/2021  03:03:00       70.427       45.365        5.392      226.917       53.478      109.555    51491.515     2859.925    12002.243        3.669        3.318       83.773      150.892        3.244      331.460       -0.510      869.103
01/11/2021  03:04:00       53.846       43.458        9.146      172.378       51.692       76.611    29714.248     2672.020     5869.176        2.156        1.913       69.196      104.995        2.302      331.417       -0.581      869.067
01/11/2021  03:05:00       93.597       58.217      -14.432      426.667       59.256      209.534   182044.507     3511.327    43904.523       12.086       11.473      110.225      295.184        7.172      331.700       -0.107      869.034
01/11/2021  03:06:00       -2.339       55.657        5.823       43.893       51.775       30.474     1926.565     2680.657      928.651        0.434        0.277       55.706       35.556        0.407      331.387       -0.633      868.996
01/11/2021  03:07:00       70.235       53.560      -20.345      451.100       53.253      215.446   203491.638     2835.882    46416.856       13.043       12.637       88.326      308.521       12.201      331.662       -0.171      868.963
01/11/2021  03:08:00       66.738       45.390      -10.123      390.597       52.593      185.071   152565.997     2766.042    34251.360        9.806        9.479       80.710      265.175       10.795      331.663       -0.170      868.917
01/11/2021  03:09:00      129.297       51.829      -50.830      611.907       57.469      294.424   374430.127     3302.673    86685.437       24.311       23.221      139.298      422.038        9.179      332.025        0.431      868.880
01/11/2021  03:10:00       29.597       32.559        7.168      206.064       53.974      103.577    42462.328     2913.204    10728.285        2.903        2.805       44.001      139.394       10.036      331.570       -0.326      868.851
01/11/2021  03:11:00       41.554       51.495       -7.640      425.286       55.754      197.724   180867.935     3108.564    39094.898       11.371       11.154       66.170      286.484       18.745      331.676       -0.148      868.838
01/11/2021  03:12:00       18.896       46.168       -7.925      303.090       55.600      149.699    91863.315     3091.409    22409.913        5.993        5.868       49.885      208.100       17.402      331.580       -0.308      868.841
01/11/2021  03:13:00      -21.000       66.462        5.832      261.207       64.620      129.124    68228.959     4175.721    16672.947        4.697        4.454       69.701      176.396        6.405      331.532       -0.390      868.867
01/11/2021  03:14:00      -31.444       46.216      -10.311      299.595       49.943      135.760    89756.936     2494.293    18430.776        5.693        5.534       55.899      197.836       12.526      331.515       -0.417      868.896
01/11/2021  03:15:00       -6.051       62.942      -24.257      416.277       64.929      200.380   173286.503     4215.740    40152.023       11.108       10.883       63.232      283.876       20.155      331.612       -0.255      868.940
01/11/2021  03:16:00       16.394       50.415      -34.614      470.575       57.502      225.772   221440.483     3306.486    50972.779       13.981       13.786       53.013      321.698       36.824      331.577       -0.313      868.980
01/11/2021  03:17:00      -68.349       54.941       -4.834      223.023       56.718      108.239    49739.221     3216.960    11715.736        3.618        3.234       87.693      145.387        2.749      331.294       -0.783      869.016
01/11/2021  03:18:00      -23.345       61.480      -22.001      345.567       62.658      166.783   119416.821     3925.996    27816.667        7.795        7.558       65.763      233.347       12.590      331.418       -0.577      869.041
01/11/2021  03:19:00      -71.690       61.050      -11.341      226.266       68.934      107.748    51196.262     4751.884    11609.612        3.826        3.378       94.163      147.232        2.445      331.332       -0.720      869.060
01/11/2021  03:20:00      -24.239       88.748      -13.580      321.561       61.681      151.046   103401.198     3804.570    22814.779        6.931        6.501       91.998      214.104        5.416      331.401       -0.605      869.057
01/11/2021  03:21:00      -30.530       33.436      -12.801      221.534       56.466      108.034    49077.399     3188.432    11671.339        3.306        3.197       45.278      146.028       10.402      331.331       -0.721      869.038
01/11/2021  03:22:00       56.021       15.389       -0.666      270.052       57.242      131.685    72928.000     3276.602    17340.927        4.844        4.677       58.096      181.445        9.754      331.375       -0.647      869.018
01/11/2021  03:23:00        6.108       47.611       14.462      189.860       61.644       89.707    36046.847     3800.022     8047.425        2.519        2.395       48.001      114.079        5.648      331.242       -0.870      869.016
01/11/2021  03:24:00       37.207       23.276      -26.478      419.033       53.092      206.274   175588.823     2818.732    42548.819       11.175       11.048       43.888      288.182       43.117      331.382       -0.634      869.017
01/11/2021  03:25:00      -20.892       49.497      -14.988      344.797       52.491      155.659   118885.027     2755.309    24229.591        7.446        7.293       53.726      220.194       16.798      331.233       -0.880      869.028
01/11/2021  03:26:00     -106.606       65.768       14.068       63.643       61.436       41.767     4050.418     3774.415     1744.466        1.273        0.478      125.261       42.732        0.116      331.013       -1.244      869.037
01/11/2021  03:27:00      -69.260       73.200      -26.031      332.147       56.713      156.361   110321.890     3216.414    24448.871        7.438        6.899      100.773      222.467        4.874      331.213       -0.912      869.040
01/11/2021  03:28:00      -27.158       69.524      -20.566      382.876       61.185      177.273   146594.213     3743.561    31425.549        9.384        9.088       74.641      253.927       11.574      331.334       -0.713      869.037
01/11/2021  03:29:00        4.076      101.080      -43.011      539.561       62.818      254.627   291126.194     3946.135    64834.703       18.592       17.995      101.162      366.923       13.156      331.483       -0.464      869.036
01/11/2021  03:30:00      -32.329      132.606      -41.124      511.235       60.242      246.093   261360.959     3629.105    60561.667       17.287       16.278      136.490      350.221        6.584      331.544       -0.365      869.054
01/11/2021  03:31:00      -23.438      116.752      -32.294      451.634       62.320      216.012   203973.214     3883.804    46661.162       13.482       12.726      119.081      307.894        6.685      331.501       -0.437      869.065
01/11/2021  03:32:00      -71.218      107.512       -6.909      243.403       57.156      114.423    59244.821     3266.774    13092.597        4.613        3.780      128.960      159.557        1.531      331.323       -0.734      869.060
01/11/2021  03:33:00      -41.292       95.832      -13.490      374.219       63.670      180.749   140039.778     4053.880    32670.348        9.388        8.838      104.349      254.485        5.948      331.509       -0.424      869.045
01/11/2021  03:34:00      -35.097       63.943      -10.278      334.172       56.925      165.206   111670.615     3240.473    27293.044        7.379        7.110       72.942      229.472        9.897      331.418       -0.579      869.038
01/11/2021  03:35:00      -17.609       75.998      -20.410      378.590       59.052      174.329   143330.177     3487.120    30390.702        9.182        8.860       78.012      251.918       10.428      331.507       -0.428      869.023
01/11/2021  03:36:00      -27.110       54.417      -26.879      452.633       59.845      221.568   204876.661     3581.464    49092.472       13.093       12.878       60.796      312.735       26.461      331.548       -0.359      869.014
01/11/2021  03:37:00      -48.430       52.807      -15.513      332.633       55.586      155.553   110644.713     3089.851    24196.843        7.162        6.897       71.652      221.903        9.591      331.546       -0.364      869.028
01/11/2021  03:38:00      -95.204       40.235        9.905       45.060       54.589       37.731     2030.431     2979.920     1423.658        0.861        0.322      103.357       42.560        0.170      331.292       -0.787      869.050
01/11/2021  03:39:00       56.464       56.546      -37.615      519.432       60.935      250.837   269809.559     3713.129    62919.425       17.205       16.822       79.910      357.014       19.960      331.601       -0.270      869.075
01/11/2021  03:40:00      109.865       41.722      -51.197      581.812       55.949      264.237   338504.865     3130.328    69821.096       21.386       20.573      117.520      389.326       10.975      331.754       -0.014      869.080
01/11/2021  03:41:00      132.126       31.480      -41.453      596.000       61.512      291.992   355216.439     3783.684    85259.575       23.212       22.213      135.825      413.837        9.283      331.794        0.052      869.058
01/11/2021  03:42:00      130.750       26.084      -45.755      539.886       54.652      253.628   291476.375     2986.851    64327.042       18.926       17.940      133.326      366.865        7.571      331.806        0.069      869.021
01/11/2021  03:43:00      110.932       15.510      -28.489      467.738       56.044      225.858   218778.923     3140.968    51011.666       14.309       13.647      112.011      321.351        8.231      331.862        0.158      868.987
01/11/2021  03:44:00       63.511       20.441      -14.415      362.164       55.381      178.755   131162.467     3067.085    31953.390        8.539        8.309       66.719      250.550       14.102      331.732       -0.060      868.974
01/11/2021  03:45:00       43.024       15.331       -3.266      287.495       45.892      139.073    82653.402     2106.108    19341.372        5.308        5.205       45.674      195.923       18.401      331.485       -0.466      868.987
01/11/2021  03:46:00        4.737       28.205      -16.041      278.294       52.624      134.691    77447.368     2769.329    18141.793        4.970        4.918       28.600      189.127       43.729      331.367       -0.659      869.011
01/11/2021  03:47:00       44.353       28.408      -25.671      409.605       53.393      191.098   167776.441     2850.840    36518.601       10.525       10.357       52.671      276.116       27.482      331.566       -0.332      869.027
01/11/2021  03:48:00       68.064       29.397      -24.139      430.581       60.015      207.680   185399.707     3601.843    43130.940       11.906       11.607       74.141      295.614       15.898      331.553       -0.352      869.024
01/11/2021  03:49:00       62.194       46.966       -4.800      222.113       49.319      111.084    49334.257     2432.392    12339.620        3.509        3.205       77.935      150.638        3.736      331.758       -0.019      869.010
01/11/2021  03:50:00      136.977       49.539      -17.442      447.456       60.256      219.020   200217.112     3630.743    47969.677       13.662       12.591      145.660      308.636        4.490      332.061        0.487      868.992
01/11/2021  03:51:00      113.787       29.382      -19.652      479.255       55.932      231.683   229685.727     3128.392    53676.906       15.029       14.325      117.520      329.583        7.865      332.096        0.546      868.991
01/11/2021  03:52:00       38.004       34.809        2.429      293.980       50.790      145.389    86424.317     2579.634    21137.918        5.638        5.507       51.536      202.916       15.503      331.525       -0.401      869.014
01/11/2021  03:53:00       57.508       34.173      -20.697      441.657       56.473      213.584   195060.836     3189.199    45617.989       12.434       12.193       66.895      303.704       20.611      331.678       -0.145      869.043
01/11/2021  03:54:00        9.055       38.006        1.768      240.675       61.101      119.795    57924.421     3733.390    14350.912        3.875        3.800       39.069      162.755       17.354      331.411       -0.588      869.083
01/11/2021  03:55:00       24.840       13.060      -16.470      427.215       55.729      199.630   182512.608     3105.681    39852.096       11.322       11.274       28.064      287.853      105.204      331.547       -0.360      869.121
01/11/2021  03:56:00       10.702       12.356      -25.939      445.632       49.424      216.436   198587.523     2442.736    46844.436       12.436       12.394       16.346      306.792      352.250      331.537       -0.378      869.145
01/11/2021  03:57:00      -14.454       42.746      -14.604      493.120       63.042      235.004   243167.741     3974.350    55226.876       15.225       15.118       45.123      335.885       55.409      331.621       -0.237      869.161
01/11/2021  03:58:00      -48.271       28.086       15.168      147.055       57.284       73.805    21625.168     3281.488     5447.146        1.685        1.518       55.847       87.335        2.446      331.394       -0.617      869.164
01/11/2021  03:59:00      -88.023       40.300      -13.546      348.003       56.090      169.389   121106.370     3146.143    28692.652        8.122        7.647       96.810      237.316        6.009      331.432       -0.553      869.164
01/11/2021  04:00:00      -98.653       43.840        5.508      285.804       57.391      138.325    81683.692     3293.684    19133.916        5.788        5.206      107.956      186.457        2.983      331.342       -0.705      869.180
01/11/2021  04:01:00      -48.937       37.992       -0.365      315.283       59.980      153.727    99403.142     3597.560    23631.901        6.521        6.332       61.953      211.135       11.614      331.341       -0.703      869.201
01/11/2021  04:02:00       23.554       31.652      -33.318      582.268       59.396      265.258   339036.036     3527.834    70361.984       20.771       20.646       39.454      387.839       96.630      331.499       -0.437      869.217
01/11/2021  04:03:00     -105.243       63.399       -6.741      325.514       64.607      148.852   105959.237     4174.068    22156.874        7.369        6.615      122.864      210.580        2.938      331.163       -0.996      869.220
01/11/2021  04:04:00      -63.071       40.828       -6.202      313.401       52.431      143.521    98220.149     2748.994    20598.138        6.360        6.078       75.133      202.748        7.282      331.144       -1.026      869.191
01/11/2021  04:05:00       53.117       32.441        6.805      374.747       52.154      177.807   140435.389     2720.008    31615.399        8.931        8.739       62.240      251.001       16.263      331.267       -0.824      869.134
01/11/2021  04:06:00       23.564       48.622      -17.622      398.763       61.709      190.263   159011.673     3808.012    36200.001       10.108        9.951       54.031      269.571       24.892      331.467       -0.494      869.067
01/11/2021  04:07:00      -11.329       57.175        5.649      295.503       61.877      140.620    87322.130     3828.820    19774.110        5.715        5.546       58.287      197.363       11.466      331.374       -0.649      869.021
01/11/2021  04:08:00      -11.994       43.421       11.661      213.657       52.163      107.284    45649.160     2721.019    11509.849        3.101        2.994       45.047      144.299       10.261      331.383       -0.635      869.013
01/11/2021  04:09:00       59.251       24.885       -6.699      351.272       56.973      163.173   123391.918     3245.910    26625.379        7.869        7.663       64.265      233.927       13.250      331.582       -0.306      869.025
01/11/2021  04:10:00       82.185       36.455      -12.594      386.053       51.569      189.764   149037.272     2659.362    36010.386        9.794        9.385       89.908      267.304        8.839      331.675       -0.153      869.040
01/11/2021  04:11:00      117.301       55.124      -15.068      411.370       54.658      196.282   169225.539     2987.511    38526.487       11.384       10.537      129.607      280.232        4.675      331.536       -0.381      869.044
01/11/2021  04:12:00       87.051       95.669       11.252      185.697       61.920       94.483    34483.295     3834.083     8926.943        3.204        2.362      129.347      122.138        0.892      331.395       -0.618      869.042
01/11/2021  04:13:00      100.075       72.915        1.129      236.473       57.084      113.549    55919.357     3258.590    12893.319        4.369        3.604      123.821      157.343        1.615      331.147       -1.023      869.052
01/11/2021  04:14:00      104.330       42.992       -2.028      277.229       46.482      135.539    76856.154     2160.532    18370.817        5.504        4.869      112.841      189.666        2.825      331.144       -1.027      869.054
01/11/2021  04:15:00      145.159       42.344      -19.190      375.190       54.282      183.692   140767.456     2946.570    33742.633       10.031        8.873      151.209      258.345        2.919      331.368       -0.658      869.058
01/11/2021  04:16:00      182.486       56.302      -34.227      480.470       53.907      230.724   230851.896     2905.988    53233.536       16.226       14.350      190.974      329.836        2.983      331.514       -0.414      869.061
01/11/2021  04:17:00      179.064       48.756      -45.393      495.483       53.347      231.296   245503.601     2845.882    53497.830       16.911       15.092      185.583      335.931        3.277      331.515       -0.411      869.076
01/11/2021  04:18:00      191.591       45.375      -48.864      540.220       58.459      252.862   291837.970     3417.442    63939.085       20.010       17.960      196.890      366.557        3.466      331.509       -0.420      869.086
01/11/2021  04:19:00       91.708       22.316       -1.457      235.809       52.050      113.606    55606.104     2709.236    12906.371        4.005        3.561       94.385      157.554        2.786      331.315       -0.748      869.092
01/11/2021  04:20:00       56.505       30.030        6.021      199.431       52.372       94.751    39772.804     2742.813     8977.798        2.780        2.575       63.989      130.315        4.147      331.343       -0.702      869.100
01/11/2021  04:21:00       91.131       24.649       -9.882      450.012       58.345      213.076   202511.235     3404.167    45401.498       13.011       12.566       94.405      305.671       10.484      331.548       -0.359      869.113
01/11/2021  04:22:00       83.621       32.828      -11.135      401.283       56.831      192.723   161027.664     3229.745    37142.005       10.476       10.070       89.833      273.796        9.289      331.617       -0.246      869.133
01/11/2021  04:23:00       97.373       17.757      -13.275      458.043       51.418      218.948   209803.658     2643.860    47938.324       13.513       13.019       98.979      313.395       10.025      331.517       -0.408      869.148
01/11/2021  04:24:00       25.968       35.296        3.087      245.878       56.046      122.338    60456.220     3141.106    14966.646        4.023        3.928       43.819      166.524       14.442      331.282       -0.803      869.159
01/11/2021  04:25:00       33.549       21.617       -0.160      343.303       50.697      166.948   117856.942     2570.187    27871.528        7.492        7.415       39.910      235.192       34.727      331.351       -0.686      869.161
01/11/2021  04:26:00       47.876       24.519      -17.687      412.293       54.209      192.208   169985.592     2938.625    36944.030       10.649       10.493       53.789      278.125       26.735      331.467       -0.493      869.163
01/11/2021  04:27:00       77.515       21.328      -21.447      422.864       67.730      201.225   178813.873     4587.414    40491.468       11.536       11.195       80.395      286.599       12.708      331.579       -0.307      869.174
01/11/2021  04:28:00       18.054       37.926       13.914       52.209       53.856       37.266     2725.804     2900.421     1388.774        0.449        0.351       42.004       40.981        0.952      331.310       -0.757      869.187
01/11/2021  04:29:00      -29.722       37.615       14.400       48.531       56.144       35.398     2355.302     3152.110     1253.007        0.463        0.338       47.940       39.247        0.670      331.149       -1.022      869.191
01/11/2021  04:30:00      -18.015       24.287       -4.777      281.111       47.986      136.107    79023.320     2302.611    18524.981        5.037        4.993       30.240      191.160       39.962      331.256       -0.844      869.205
01/11/2021  04:31:00       73.491       49.760      -51.024      577.568       57.800      280.584   333585.052     3340.894    78727.469       21.298       20.783       88.752      399.545       20.266      331.631       -0.219      869.218
01/11/2021  04:32:00       27.104       41.614      -45.675      529.579       45.295      248.233   280453.446     2051.657    61619.857       17.427       17.206       49.662      360.292       52.633      331.431       -0.549      869.235
01/11/2021  04:33:00       12.778       36.814       -1.772      313.773       56.155      155.025    98453.499     3153.400    24032.719        6.355        6.282       38.969      213.670       30.064      331.272       -0.818      869.268
01/11/2021  04:34:00       41.454       30.913      -15.461      472.495       59.071      220.622   223251.725     3489.405    48674.056       13.911       13.771       51.711      318.159       37.856      331.407       -0.589      869.283
01/11/2021  04:35:00       75.016       31.040      -46.451      577.083       51.163      274.826   333024.402     2617.670    75529.503       20.988       20.559       81.185      395.790       23.767      331.468       -0.486      869.290
01/11/2021  04:36:00        6.700       27.803        1.397      255.768       55.833      127.927    65417.309     3117.288    16365.198        4.284        4.245       28.599      175.239       37.545      331.108       -1.088      869.277
01/11/2021  04:37:00      -29.240       45.123        5.916      223.503       57.051      106.246    49953.554     3254.770    11288.159        3.370        3.225       53.768      145.596        7.332      331.106       -1.091      869.252
01/11/2021  04:38:00       53.946       40.637      -28.858      523.735       56.186      252.103   274298.221     3156.857    63555.881       17.313       17.051       67.539      360.570       28.502      331.326       -0.721      869.236
01/11/2021  04:39:00       77.257       37.601      -39.586      545.639       56.251      255.767   297721.522     3164.191    65416.989       18.755       18.315       85.921      370.794       18.624      331.494       -0.445      869.232
01/11/2021  04:40:00      -17.970       30.671        7.200      155.939       52.601       81.157    24316.929     2766.880     6586.519        1.749        1.684       35.548      102.880        8.376      331.190       -0.954      869.234
01/11/2021  04:41:00       23.159       14.465       -5.868      345.737       55.050      170.044   119534.200     3030.523    28914.826        7.610        7.574       27.305      237.718       75.796      331.450       -0.525      869.245
01/11/2021  04:42:00       12.814       28.752        9.318      243.704       56.290      113.889    59391.851     3168.528    12970.764        3.829        3.777       31.478      160.641       26.043      331.415       -0.585      869.246
01/11/2021  04:43:00       10.764       45.476       11.847      196.495       58.544       91.991    38610.467     3427.360     8462.384        2.640        2.525       46.733      124.415        7.088      331.322       -0.736      869.237
01/11/2021  04:44:00       40.869       46.713      -18.739      407.588       54.330      192.532   166128.054     2951.720    37068.389       10.513       10.307       62.067      276.390       19.830      331.377       -0.643      869.229
01/11/2021  04:45:00       -4.972       40.096        4.901       49.921       57.021       35.689     2492.091     3251.353     1273.685        0.434        0.351       40.404       41.666        1.063      331.132       -1.050      869.216
01/11/2021  04:46:00       15.723       43.919       -9.361      311.763       51.276      153.436    97196.094     2629.181    23542.512        6.279        6.168       46.649      214.945       21.231      331.245       -0.859      869.211
01/11/2021  04:47:00       63.460       36.303      -36.027      558.896       49.462      267.343   312364.720     2446.502    71472.292       19.639       19.314       73.110      384.057       27.596      331.465       -0.491      869.214
01/11/2021  04:48:00      -18.796       42.202       -3.108      279.648       53.648      138.246    78202.815     2878.075    19111.823        5.115        5.010       46.199      191.846       17.244      331.192       -0.947      869.233
01/11/2021  04:49:00       46.011       45.663      -22.504      468.522       58.021      225.573   219512.811     3366.395    50883.147       13.918       13.688       64.824      321.484       24.595      331.413       -0.578      869.255
01/11/2021  04:50:00       64.311       45.457      -32.959      527.104       51.857      257.472   277838.796     2689.115    66291.602       17.698       17.341       78.755      365.618       21.553      331.334       -0.707      869.284
01/11/2021  04:51:00       83.213       47.639      -32.873      511.919       54.915      246.096   262061.164     3015.650    60563.462       16.789       16.282       95.884      351.617       13.448      331.320       -0.731      869.312
01/11/2021  04:52:00       92.654       52.340      -13.243      426.680       58.248      199.577   182055.552     3392.845    39831.065       11.834       11.264      106.415      288.016        7.325      331.251       -0.847      869.322
01/11/2021  04:53:00      100.062       58.951      -11.864      410.434       60.226      191.498   168456.315     3627.164    36671.458       11.115       10.438      116.136      275.698        5.636      331.327       -0.724      869.329
01/11/2021  04:54:00       86.519       48.036      -12.931      414.080       49.258      201.558   171462.552     2426.315    40625.770       11.220       10.726       98.960      285.915        8.348      331.228       -0.887      869.331
01/11/2021  04:55:00      113.384       31.807      -19.301      509.488       50.835      243.263   259577.568     2584.158    59176.730       16.772       16.067      117.761      349.449        8.806      331.212       -0.909      869.336
01/11/2021  04:56:00      159.890       54.381      -44.945      587.763       50.715      274.869   345465.477     2571.990    75552.854       22.698       21.180      168.885      399.446        5.594      331.417       -0.569      869.345
01/11/2021  04:57:00      134.128       51.927      -27.122      508.993       52.487      244.785   259074.360     2754.834    59919.617       17.152       16.087      143.828      349.877        5.918      331.259       -0.833      869.339
01/11/2021  04:58:00      100.007       48.247      -10.300      359.376       50.373      177.312   129150.983     2537.412    31439.684        8.775        8.156      111.036      248.984        5.028      331.076       -1.138      869.340
01/11/2021  04:59:00      106.485       66.336      -11.330      369.716       52.853      177.469   136689.815     2793.449    31495.372        9.339        8.549      125.457      252.775        4.060      331.063       -1.160      869.337
01/11/2021  05:00:00      158.518       63.403      -40.542      535.700       55.877      257.768   286974.317     3122.218    66444.546       19.360       17.827      170.727      368.822        4.667      331.323       -0.725      869.324
01/11/2021  05:01:00      148.290       50.934      -26.563      512.728       56.745      247.756   262890.213     3220.033    61383.012       17.632       16.375      156.794      353.488        5.083      331.287       -0.788      869.310
01/11/2021  05:02:00      110.901       64.515      -11.580      337.180       56.268      156.722   113690.630     3166.046    24561.915        7.898        7.071      128.301      224.337        3.057      331.122       -1.062      869.316
01/11/2021  05:03:00       75.603       34.435       -9.602      344.731       48.035      161.211   118839.624     2307.362    25989.120        7.704        7.357       83.075      232.294        7.819      331.075       -1.139      869.322
01/11/2021  05:04:00       83.926       51.959      -23.693      473.261       57.333      234.203   223975.917     3287.065    54851.045       14.615       14.106       98.708      329.535       11.145      331.307       -0.753      869.343
01/11/2021  05:05:00      138.860       37.618      -82.392      741.235       54.541      356.769   549429.872     2974.749   127283.872       35.345       33.984      143.865      512.281       12.680      331.480       -0.459      869.383
01/11/2021  05:06:00      -36.759       10.706       -5.681      329.638       53.443      159.975   108661.343     2856.176    25592.054        6.928        6.855       38.287      224.518       34.388      330.933       -1.374      869.428
01/11/2021  05:07:00      -43.583       21.464      -16.704      356.466       51.905      171.532   127068.084     2694.115    29423.125        8.088        7.959       48.582      241.654       24.743      330.960       -1.329      869.463
01/11/2021  05:08:00       21.672       36.927      -39.948      570.521       55.722      276.821   325493.664     3104.983    76630.111       20.425       20.261       42.816      394.000       84.678      331.259       -0.829      869.485
01/11/2021  05:09:00        6.228        6.022      -16.760      436.975       51.826      211.648   190947.446     2685.906    44794.666       11.934       11.921        8.663      300.034     1199.391      331.105       -1.088      869.495
01/11/2021  05:10:00       60.615       15.377      -27.755      513.883       49.429      253.420   264075.668     2443.259    64221.832       16.764       16.537       62.535      356.137       32.433      331.216       -0.903      869.496
01/11/2021  05:11:00      -15.423       17.318        9.061      332.144       63.293      162.583   110319.455     4006.067    26433.361        7.066        7.038       23.190      225.051       94.179      330.975       -1.304      869.488
01/11/2021  05:12:00       76.193       27.109      -24.787      516.663       51.002      243.558   266941.144     2601.180    59320.649       16.794       16.443       80.872      349.584       18.686      331.151       -1.008      869.495
01/11/2021  05:13:00       71.004       17.510      -20.556      446.264       56.908      214.107   199151.597     3238.476    45841.935       12.695       12.412       73.132      304.506       17.337      331.050       -1.176      869.500
01/11/2021  05:14:00       35.390       23.388      -23.096      446.916       52.132      212.265   199733.506     2717.723    45056.405       12.487       12.375       42.420      304.317       51.466      331.043       -1.189      869.518
01/11/2021  05:15:00       66.388       24.835      -44.434      541.188       48.366      258.658   292884.369     2339.273    66903.880       18.449       18.106       70.881      371.510       27.471      331.284       -0.790      869.551
01/11/2021  05:16:00       44.884       24.597      -18.410      432.749       53.765      210.193   187271.487     2890.684    44181.058       11.860       11.717       51.182      297.130       33.702      331.137       -1.036      869.568
01/11/2021  05:17:00       11.994       36.287      -20.550      329.639       46.959      157.036   108662.127     2205.173    24660.425        6.868        6.776       38.218      223.664       34.249      330.892       -1.440      869.578
01/11/2021  05:18:00      242.043       41.374      -89.571      763.440       57.125      361.927   582839.881     3263.312   130991.361       39.256       35.855      245.553      523.338        4.542      331.510       -0.409      869.566
01/11/2021  05:19:00      106.263       76.444       -5.911      305.688       56.810      147.097    93445.437     3227.392    21637.663        6.772        5.916      130.903      206.417        2.487      331.204       -0.931      869.539
01/11/2021  05:20:00      135.821       58.602       -8.104      293.571       62.009      145.642    86183.809     3845.160    21211.524        6.657        5.562      147.924      200.140        1.831      331.004       -1.258      869.515
01/11/2021  05:21:00      117.537       37.140      -11.517      370.839       54.142      180.581   137521.630     2931.322    32609.450        9.416        8.653      123.266      255.850        4.308      330.965       -1.321      869.489
01/11/2021  05:22:00      110.458       35.696       -6.744      335.941       59.817      159.807   112856.597     3578.106    25538.268        7.772        7.099      116.082      226.768        3.816      331.032       -1.210      869.461
01/11/2021  05:23:00      147.206       30.420      -18.533      418.217       62.216      206.372   174905.444     3870.839    42589.583       12.211       11.068      150.316      289.157        3.700      331.107       -1.085      869.447
01/11/2021  05:24:00      120.475       56.186       -2.194      307.689       60.665      153.128    94672.428     3680.221    23448.331        6.971        6.090      132.932      211.224        2.525      331.011       -1.246      869.438
01/11/2021  05:25:00      116.204       32.044       -8.927      348.816       49.255      167.137   121672.467     2426.009    27934.769        8.329        7.602      120.541      236.750        3.858      330.984       -1.290      869.452
01/11/2021  05:26:00      157.174       38.856      -25.927      496.236       57.284      237.012   246249.817     3281.479    56174.878       16.623       15.285      161.906      339.785        4.404      331.124       -1.055      869.480
01/11/2021  05:27:00      165.765       65.820      -25.188      441.344       58.971      209.824   194784.429     3477.621    44026.150       13.732       12.114      178.355      300.058        2.830      331.149       -1.015      869.514
01/11/2021  05:28:00      113.091       80.053        4.056      309.750       57.875      148.501    95945.082     3349.460    22052.441        7.026        6.067      138.557      208.758        2.270      331.029       -1.216      869.546
01/11/2021  05:29:00      120.025       63.741       -2.784      290.744       59.322      142.654    84532.118     3519.100    20350.235        6.342        5.420      135.901      198.571        2.135      331.074       -1.143      869.547
01/11/2021  05:30:00      122.772       24.282      -13.768      437.949       56.996      210.216   191799.022     3248.540    44190.610       12.750       11.962      125.150      299.777        5.738      331.217       -0.904      869.518
01/11/2021  05:31:00      138.659       34.767      -15.198      394.632       53.616      185.327   155734.711     2874.685    34346.119       10.677        9.648      142.951      266.690        3.480      331.104       -1.090      869.509
01/11/2021  05:32:00      203.194       49.122      -41.425      543.260       44.496      252.434   295131.933     1979.928    63722.717       20.305       18.042      209.047      368.316        3.104      331.225       -0.888      869.535
01/11/2021  05:33:00      137.752       56.550       -7.491      349.577       54.398      171.615   122203.835     2959.129    29451.835        8.839        7.731      148.908      240.469        2.608      331.007       -1.252      869.580
01/11/2021  05:34:00      227.385       76.614      -39.912      573.166       61.079      279.652   328519.141     3730.586    78205.325       23.473       20.523      239.945      396.795        2.735      331.316       -0.737      869.623
01/11/2021  05:35:00      128.930       66.410        4.163      222.498       55.584      106.666    49505.318     3089.541    11377.671        4.250        3.199      145.028      146.123        1.015      330.971       -1.314      869.645
01/11/2021  05:36:00      122.140       52.103       -2.762      259.956       53.092      126.826    67577.236     2818.738    16084.743        5.204        4.324      132.789      175.952        1.756      331.004       -1.257      869.654
01/11/2021  05:37:00      165.942       69.028      -23.756      485.232       57.533      238.627   235450.265     3310.051    56942.989       16.422       14.785      179.726      336.733        3.510      331.260       -0.832      869.661
01/11/2021  05:38:00      119.704       56.097      -17.936      426.902       47.247      202.041   182245.095     2232.323    40820.377       12.150       11.265      132.197      290.928        4.843      331.177       -0.969      869.673
01/11/2021  05:39:00      188.047       64.854      -37.716      629.902       52.859      305.242   396776.170     2794.043    93172.726       26.677       24.637      198.917      436.016        4.805      331.578       -0.302      869.683
01/11/2021  05:40:00       64.617       60.257      -11.246      335.332       50.817      162.004   112447.758     2582.331    26245.443        7.457        7.064       88.353      228.039        6.662      331.151       -1.015      869.695
01/11/2021  05:41:00       92.135       58.611      -37.908      518.741       51.574      249.781   269092.259     2659.861    62390.311       17.368       16.707      109.198      357.134       10.696      331.227       -0.887      869.691
01/11/2021  05:42:00       49.925       41.723       14.211       45.945       55.836       33.109     2110.963     3117.675     1096.194        0.538        0.316       65.064       36.158        0.309      330.929       -1.384      869.664
01/11/2021  05:43:00      147.051       53.137      -41.488      483.125       59.427      234.725   233409.937     3531.551    55095.981       15.904       14.602      156.357      333.453        4.548      331.421       -0.567      869.599
01/11/2021  05:44:00       92.786       12.213      -45.927      474.018       53.038      227.060   224693.181     2813.005    51556.155       14.491       13.953       93.586      325.395       12.089      331.356       -0.675      869.540
01/11/2021  05:45:00       90.461      -46.283      -13.338      368.874       59.731      181.863   136068.257     3567.810    33073.978        9.157        8.636      101.614      255.213        6.308      331.290       -0.786      869.495
01/11/2021  05:46:00      142.019      -95.764      -31.740      256.403       60.833      119.864    65742.589     3700.642    14367.388        5.706        4.191      171.290      169.954        0.984      331.246       -0.861      869.468
01/11/2021  05:47:00      167.457      -69.536      -34.145      361.256       63.588      174.714   130505.564     4043.456    30525.040        9.953        8.254      181.321      245.893        1.839      331.390       -0.623      869.460
01/11/2021  05:48:00      122.847      -83.944      -25.314      227.536       53.757      113.670    51772.719     2889.810    12920.964        4.517        3.379      148.789      153.905        1.070      331.346       -0.696      869.460
01/11/2021  05:49:00       80.428      -48.309        5.110      236.125       62.457      116.397    55754.817     3900.901    13548.208        4.100        3.660       93.821      159.803        2.901      331.257       -0.842      869.470
01/11/2021  05:50:00      113.108       36.724      -41.071      474.729       53.131      227.318   225367.217     2822.914    51673.619       14.779       13.993      118.921      325.546        7.494      331.418       -0.572      869.474
01/11/2021  05:51:00      149.573       13.774      -45.611      484.742       70.485      236.140   234974.934     4968.161    55761.906       16.011       14.785      150.206      335.504        4.989      331.466       -0.494      869.480
01/11/2021  05:52:00      101.783      -17.689      -24.637      314.560       61.862      156.237    98948.044     3826.935    24410.099        6.921        6.359      103.308      214.298        4.303      331.442       -0.537      869.479
01/11/2021  05:53:00      181.607       24.590      -63.245      591.149       75.211      283.313   349456.970     5656.673    80266.482       23.639       21.769      183.265      405.777        4.903      331.682       -0.134      869.471
01/11/2021  05:54:00       99.412       21.702      -33.500      390.873       69.986      190.245   152781.699     4898.060    36193.143       10.263        9.694      101.753      268.638        6.970      331.371       -0.652      869.462
01/11/2021  05:55:00       87.269       -5.350      -25.621      364.453       74.444      179.096   132826.099     5541.972    32075.221        8.934        8.522       87.433      251.182        8.253      331.380       -0.638      869.460
01/11/2021  05:56:00      155.732      -54.862      -54.604      472.139       66.321      222.307   222915.280     4398.486    49420.449       15.343       13.837      165.113      320.328        3.764      331.524       -0.397      869.455
01/11/2021  05:57:00      119.715      -70.514      -12.438      374.601       63.308      180.254   140325.667     4007.948    32491.522        9.811        8.841      138.938      254.532        3.356      331.474       -0.482      869.446
01/11/2021  05:58:00      193.390      -55.268      -55.458      587.980       57.010      281.795   345720.337     3250.188    79408.358       23.587       21.419      201.132      404.200        4.039      331.705       -0.094      869.451
01/11/2021  05:59:00      175.737      -33.206      -58.988      555.475       58.313      270.161   308552.960     3400.438    72987.183       21.012       19.247      178.847      384.317        4.618      331.662       -0.167      869.450
01/11/2021  06:00:00       78.203      -21.454       -7.976      333.996       53.010      158.684   111553.035     2810.017    25180.713        7.306        6.977       81.093      224.888        7.691      331.305       -0.761      869.463
01/11/2021  06:01:00      102.421      -12.751      -20.017      424.976       53.228      205.482   180604.318     2833.268    42222.971       11.831       11.283      103.212      291.739        7.990      331.378       -0.639      869.467
01/11/2021  06:02:00      171.358       -8.834      -46.876      575.651       56.181      274.283   331373.779     3156.327    75231.172       22.062       20.488      171.585      394.578        5.288      331.612       -0.251      869.463
01/11/2021  06:03:00      151.768       -2.555      -38.519      553.677       50.175      268.142   306557.717     2517.548    71900.302       20.267       19.049      151.790      383.058        6.369      331.537       -0.374      869.463
01/11/2021  06:04:00       91.559      -44.640      -29.069      384.036       48.679      184.785   147483.476     2369.649    34145.535        9.757        9.200      101.861      263.255        6.679      331.314       -0.744      869.455
01/11/2021  06:05:00       19.893       -8.311        2.869      250.038       60.146      126.581    62519.139     3617.556    16022.733        4.130        4.108       21.560      173.521       64.778      331.129       -1.053      869.447
01/11/2021  06:06:00       44.132       16.916      -22.193      411.636       51.780      192.830   169444.388     2681.143    37183.436       10.598       10.465       47.263      277.935       34.582      331.239       -0.866      869.433
01/11/2021  06:07:00       10.569       32.286       15.069      200.593       52.963      100.933    40237.592     2805.103    10187.493        2.729        2.662       33.972      134.837       15.754      331.043       -1.194      869.419
01/11/2021  06:08:00       56.604       21.447      -15.610      436.493       44.829      202.632   190526.053     2009.670    41059.749       11.870       11.680       60.531      294.872       23.731      331.186       -0.956      869.417
01/11/2021  06:09:00       86.244       28.995      -24.303      409.844       53.266      197.049   167971.740     2837.217    38828.334       10.921       10.482       90.987      281.016        9.539      331.273       -0.814      869.436
01/11/2021  06:10:00       47.123       39.859      -14.030      436.646       47.767      213.188   190659.696     2281.710    45449.030       12.115       11.920       61.720      301.944       23.933      331.286       -0.790      869.439
01/11/2021  06:11:00      152.602       50.180      -59.343      631.372       50.058      295.384   398629.980     2505.779    87251.642       25.876       24.419      160.641      429.528        7.149      331.487       -0.452      869.433
01/11/2021  06:12:00      168.796       43.008      -60.068      649.057       50.002      311.334   421275.243     2500.221    96928.642       27.722       26.035      174.189      447.372        6.596      331.439       -0.530      869.408
01/11/2021  06:13:00      144.311       49.674      -47.812      569.185       49.064      275.342   323971.750     2407.229    75813.220       21.380       20.110      152.621      393.689        6.654      331.334       -0.708      869.361
01/11/2021  06:14:00      150.555       52.286      -39.630      545.292       46.208      256.610   297343.485     2135.166    65848.728       19.607       18.266      159.376      371.922        5.446      331.275       -0.806      869.325
01/11/2021  06:15:00      150.487       68.598      -30.004      498.486       55.519      230.360   248488.451     3082.318    53065.783       16.638       15.232      165.384      335.524        4.116      331.176       -0.970      869.304
01/11/2021  06:16:00      110.952       74.419       -5.335      378.787       58.269      178.234   143479.458     3395.265    31767.349        9.822        8.932      133.598      255.297        3.652      330.933       -1.373      869.303
01/11/2021  06:17:00      112.512       65.450      -23.826      445.957       49.540      215.401   198877.615     2454.227    46397.438       13.257       12.386      130.164      306.935        5.560      331.027       -1.218      869.327
01/11/2021  06:18:00       90.827       64.902      -27.844      486.524       48.531      234.453   236705.345     2355.244    54968.012       15.357       14.701      111.633      335.191        9.016      331.036       -1.199      869.360
01/11/2021  06:19:00      -12.749       46.930      -20.053      315.051       45.980      151.866    99256.935     2114.128    23063.395        6.358        6.222       48.631      213.615       19.295      330.811       -1.575      869.405
01/11/2021  06:20:00       39.423       33.632      -47.284      512.516       49.313      238.900   262672.204     2431.785    57073.200       16.348       16.109       51.820      346.641       44.747      330.843       -1.514      869.441
01/11/2021  06:21:00      -66.992       44.259      -17.647      258.733       51.143      132.487    66942.775     2615.630    17552.685        4.692        4.356       80.292      176.697        4.843      330.599       -1.922      869.469
01/11/2021  06:22:00      -62.598       65.877      -12.992      231.497       58.123      113.225    53591.075     3378.326    12819.825        3.909        3.489       90.875      154.457        2.889      330.510       -2.070      869.470
01/11/2021  06:23:00      -30.707       71.169      -17.960      375.645       56.357      180.777   141109.390     3176.132    32680.383        9.161        8.848       77.511      256.141       10.920      330.677       -1.793      869.464
01/11/2021  06:24:00       14.392       75.425      -29.029      469.091       53.280      217.429   220046.685     2838.727    47275.505       13.839       13.508       76.786      315.822       16.917      330.805       -1.580      869.445
01/11/2021  06:25:00       86.559       49.132      -58.684      524.822       55.097      255.265   275438.422     3035.659    65160.223       17.842       17.182       99.531      363.121       13.310      330.995       -1.265      869.419
01/11/2021  06:26:00       46.252       55.254      -35.278      476.380       45.837      228.142   226937.999     2101.070    52048.969       14.370       14.054       72.057      327.504       20.657      330.890       -1.439      869.408
01/11/2021  06:27:00       -6.362       35.018       -5.189      267.284       47.960      132.091    71440.503     2300.177    17448.127        4.622        4.559       35.591      182.754       26.366      330.782       -1.622      869.388
01/11/2021  06:28:00       43.632       36.653      -41.041      469.632       43.996      228.562   220554.650     1935.668    52240.770       13.978       13.737       56.984      325.222       32.572      330.998       -1.261      869.385
01/11/2021  06:29:00       80.847       37.415      -45.721      576.362       51.601      273.884   332193.175     2662.664    75012.300       20.986       20.493       89.085      394.727       19.633      331.070       -1.139      869.390
01/11/2021  06:30:00       -5.905       36.907      -14.354      340.727       62.416      163.063   116095.161     3895.776    26589.411        7.406        7.329       37.376      228.328       37.318      330.765       -1.649      869.406
01/11/2021  06:31:00       60.341       22.255      -46.412      562.151       45.475      266.758   316013.460     2067.934    71159.579       19.769       19.462       64.314      384.308       35.706      330.971       -1.302      869.435
01/11/2021  06:32:00      -22.097       35.592      -12.957      283.520       51.283      138.974    80383.342     2629.985    19313.728        5.210        5.116       41.893      194.122       21.471      330.723       -1.718      869.462
01/11/2021  06:33:00       34.380       40.713      -39.475      453.117       50.439      217.234   205314.931     2544.117    47190.406       12.967       12.752       53.287      310.886       34.037      330.888       -1.443      869.491
01/11/2021  06:34:00       61.370       25.724      -38.972      483.372       48.488      232.932   233648.553     2351.084    54257.419       14.804       14.513       66.543      332.726       25.002      330.837       -1.526      869.516
01/11/2021  06:35:00       24.309       30.302      -32.757      474.430       43.472      231.636   225084.090     1889.801    53655.060       14.155       14.031       38.848      329.100       71.768      330.773       -1.633      869.539
01/11/2021  06:36:00       25.530       29.936      -50.606      529.640       45.655      254.335   280519.015     2084.404    64686.449       17.563       17.364       39.344      364.626       85.889      330.939       -1.358      869.551
01/11/2021  06:37:00       37.347       27.820      -51.998      549.665       49.930      268.304   302131.563     2492.977    71987.136       19.066       18.831       46.570      381.416       67.080      330.922       -1.383      869.553
01/11/2021  06:38:00       27.161       24.982      -57.326      550.445       46.883      264.081   302990.095     2198.026    69738.825       18.971       18.746       36.903      379.032      105.492      330.909       -1.404      869.560
01/11/2021  06:39:00      -55.292       22.381      -26.670      358.103       42.405      174.886   128237.502     1798.145    30584.980        8.241        8.031       59.650      247.769       17.254      330.661       -1.819      869.573
01/11/2021  06:40:00       13.859       32.654      -48.518      517.882       54.989      251.488   268201.447     3023.766    63246.394       16.897       16.724       35.473      357.449      101.540      330.908       -1.409      869.582
01/11/2021  06:41:00      -63.763       26.833      -18.903      270.842       39.350      135.345    73355.339     1548.421    18318.310        4.916        4.661       69.179      187.446        7.342      330.597       -1.926      869.585
01/11/2021  06:42:00      -27.445       21.218      -36.039      413.832       34.126      199.403   171257.316     1164.590    39761.615       10.730       10.609       34.690      284.959       67.476      330.729       -1.706      869.582
01/11/2021  06:43:00      -16.318       28.087      -32.229      464.308       41.231      225.168   215581.936     1700.021    50700.609       13.498       13.399       32.483      320.965       97.633      330.774       -1.629      869.587
01/11/2021  06:44:00      -48.904       21.903      -28.235      371.503       43.977      178.356   138014.223     1933.995    31810.902        8.768        8.588       53.585      254.351       22.531      330.711       -1.737      869.603
01/11/2021  06:45:00       47.689       42.059      -60.170      608.077       40.722      290.630   369757.784     1658.263    84466.027       23.168       22.794       63.586      417.687       43.149      330.974       -1.297      869.621
01/11/2021  06:46:00        4.001       48.338      -38.240      498.596       42.561      238.547   248597.537     1811.416    56904.474       15.550       15.366       48.503      342.286       49.800      330.752       -1.667      869.643
01/11/2021  06:47:00      -53.044       63.349      -25.315      360.654       35.548      174.350   130071.579     1263.629    30398.077        8.457        8.087       82.624      248.647        9.056      330.620       -1.887      869.659
01/11/2021  06:48:00      -17.778       55.035      -31.711      429.515       42.277      207.834   184483.259     1787.377    43195.068       11.686       11.473       57.836      296.460       26.275      330.739       -1.690      869.676
01/11/2021  06:49:00       50.590       51.935      -78.361      663.681       37.331      318.283   440472.286     1393.602   101304.371       27.717       27.159       72.502      458.279       39.954      330.987       -1.274      869.703
01/11/2021  06:50:00      -98.790       41.976      -26.901      409.246       42.579      199.447   167482.539     1812.940    39779.035       11.062       10.454      107.338      282.258        6.915      330.560       -1.983      869.728
01/11/2021  06:51:00      -92.822       41.706       -7.664      316.970       46.214      153.538   100470.111     2135.732    23573.806        6.827        6.309      101.761      214.737        4.453      330.410       -2.232      869.752
01/11/2021  06:52:00       42.283       25.089      -65.116      665.827       41.932      313.456   443325.103     1758.274    98254.623       27.488       27.167       49.166      454.510       85.458      330.778       -1.616      869.771
01/11/2021  06:53:00      -25.801       55.431      -49.366      459.561       40.796      222.406   211196.743     1664.341    49464.341       13.420       13.116       61.142      317.114       26.900      330.535       -2.023      869.774
01/11/2021  06:54:00       28.202       65.571      -45.174      528.109       44.980      253.121   278899.155     2023.199    64070.411       17.599       17.250       71.379      362.208       25.750      330.663       -1.811      869.769
01/11/2021  06:55:00       36.765       42.744      -52.261      555.927       37.562      266.088   309054.936     1410.937    70802.558       19.351       19.063       56.380      382.576       46.045      330.678       -1.785      869.771
01/11/2021  06:56:00      -45.225       75.017      -32.386      392.563       46.133      186.401   154105.691     2128.292    34745.269        9.981        9.549       87.595      267.395        9.319      330.534       -2.027      869.771
01/11/2021  06:57:00       67.586       75.884     -100.736      730.664       46.453      344.755   533869.591     2157.875   118856.230       33.754       32.744      101.618      500.324       24.242      330.994       -1.257      869.778
01/11/2021  06:58:00      -13.633       59.323      -49.623      562.428       40.026      266.465   316325.318     1602.065    71003.438       19.747       19.447       60.870      383.137       39.619      330.616       -1.886      869.791
01/11/2021  06:59:00      -17.410       56.345      -67.117      631.592       35.711      305.318   398908.190     1275.242    93219.021       25.059       24.670       58.973      436.145       54.695      330.734       -1.689      869.805
01/11/2021  07:00:00      -23.624       56.914      -41.960      544.725       44.689      259.357   296724.988     1997.108    67266.118       18.570       18.299       61.622      371.664       36.377      330.580       -1.946      869.816
01/11/2021  07:01:00      -90.876       65.968      -13.153      345.043       53.379      167.736   119054.719     2849.293    28135.338        8.138        7.502      112.295      235.230        4.388      330.373       -2.291      869.807
01/11/2021  07:02:00      -29.170       73.745      -50.751      463.955       39.035      219.175   215253.986     1523.730    48037.580       13.678       13.241       79.304      316.108       15.888      330.546       -2.004      869.803
01/11/2021  07:03:00      -49.947       57.612      -30.630      433.232       37.202      210.830   187690.096     1383.983    44449.326       12.009       11.676       76.249      298.078       15.283      330.493       -2.094      869.790
01/11/2021  07:04:00      -70.229       73.302      -21.735      308.988       45.591      149.841    95473.790     2078.535    22452.240        6.537        6.000      101.515      210.300        4.292      330.362       -2.309      869.765
01/11/2021  07:05:00      -36.339       51.590      -31.406      429.155       47.746      203.090   184174.386     2279.676    41245.564       11.629       11.385       63.104      292.329       21.460      330.552       -1.996      869.738
01/11/2021  07:06:00      -81.612       64.040      -10.618      242.084       39.674      118.070    58604.766     1574.056    13940.600        4.248        3.706      103.739      163.040        2.470      330.365       -2.308      869.710
01/11/2021  07:07:00       -1.669       30.537      -27.584      434.502       39.232      209.964   188792.225     1539.162    44084.893       11.801       11.721       30.582      299.050       95.620      330.566       -1.973      869.686
01/11/2021  07:08:00      -47.475       52.505      -44.761      400.027       37.512      187.543   160021.932     1407.157    35172.481       10.177        9.830       70.785      271.159       14.674      330.643       -1.848      869.669
01/11/2021  07:09:00      -13.594       30.113      -42.301      460.954       41.280      218.943   212478.577     1704.051    47936.175       13.245       13.106       33.039      315.092       90.951      330.770       -1.639      869.653
01/11/2021  07:10:00      -11.967       48.664      -33.290      459.283       41.722      222.867   210940.510     1740.718    49669.592       13.293       13.118       50.114      317.616       40.169      330.746       -1.677      869.642
01/11/2021  07:11:00      -86.133       49.188       -7.677      203.112       38.546       93.102    41254.564     1485.801     8667.999        3.064        2.570       99.188      130.461        1.730      330.531       -2.036      869.628
01/11/2021  07:12:00      -10.356       38.658      -36.680      456.130       32.698      218.845   208054.138     1069.144    47893.060       12.993       12.851       40.021      314.289       61.671      330.730       -1.703      869.632
01/11/2021  07:13:00       32.165       48.873      -55.251      593.760       42.195      279.021   352550.362     1780.381    77852.572       21.924       21.609       58.508      405.157       47.954      330.945       -1.345      869.645
01/11/2021  07:14:00      -11.224       17.407      -27.093      412.451       43.295      196.976   170115.757     1874.418    38799.741       10.593       10.539       20.712      281.943      185.301      330.845       -1.515      869.665
01/11/2021  07:15:00       99.506        6.864      -45.682      553.383       40.943      264.976   306232.357     1676.315    70212.491       19.500       18.906       99.743      380.307       14.538      331.072       -1.137      869.682
01/11/2021  07:16:00       28.517        0.311      -35.545      514.266       44.816      249.914   264469.225     2008.506    62457.209       16.544       16.447       28.519      356.101      155.913      331.017       -1.231      869.678
01/11/2021  07:17:00       21.709       -6.852      -27.350      425.505       57.702      209.096   181054.334     3329.486    43720.964       11.464       11.405       22.764      294.254      167.085      330.946       -1.348      869.666
01/11/2021  07:18:00      -72.694        5.056      -27.312      351.848       40.370      166.561   123796.937     1629.756    27742.497        7.958        7.658       72.870      237.696       10.640      330.784       -1.619      869.658
01/11/2021  07:19:00       11.169       25.154      -19.623      465.824       52.557      226.239   216992.051     2762.282    51184.246       13.598       13.547       27.522      320.897      135.949      330.961       -1.324      869.659
01/11/2021  07:20:00       76.875       -5.977      -51.216      556.285       50.866      268.655   309453.188     2587.347    72175.421       19.631       19.211       77.107      382.995       24.672      331.183       -0.956      869.667
01/11/2021  07:21:00       99.592        3.531      -55.981      539.752       46.552      255.625   291332.377     2167.051    65344.284       18.588       17.942       99.655      369.284       13.732      331.228       -0.881      869.677
01/11/2021  07:22:00      112.871       -3.602      -65.086      603.582       43.440      291.796   364311.512     1887.034    85144.719       23.407       22.567      112.929      417.262       13.652      331.335       -0.703      869.684
01/11/2021  07:23:00       -9.627        2.534      -13.877      350.036       53.112      165.007   122524.934     2820.866    27227.337        7.640        7.629        9.955      234.938      556.919      331.062       -1.159      869.681
01/11/2021  07:24:00       82.693      -14.598      -34.958      519.415       53.091      254.130   269791.727     2818.608    64581.969       17.266       16.860       83.971      360.151       18.395      331.298       -0.769      869.672
01/11/2021  07:25:00      110.995       16.854      -36.457      533.065       53.974      255.004   284158.236     2913.154    65027.073       18.294       17.605      112.267      364.515       10.542      331.339       -0.699      869.670
01/11/2021  07:26:00       92.596       -0.510      -40.752      525.367       47.681      253.498   276009.966     2273.449    64261.213       17.632       17.127       92.597      362.216       15.302      331.352       -0.679      869.668
01/11/2021  07:27:00      117.513       11.593      -40.945      575.052       48.673      271.462   330684.544     2369.022    73691.879       21.110       20.337      118.084      392.677       11.058      331.356       -0.670      869.666
01/11/2021  07:28:00       46.436       12.622      -10.394      394.098       54.753      192.018   155313.097     2997.869    36870.830        9.876        9.759       48.121      270.422       31.581      331.052       -1.177      869.657
01/11/2021  07:29:00       75.735       32.431      -25.798      456.033       55.475      222.123   207965.952     3077.518    49338.628       13.386       13.019       82.386      314.103       14.536      331.109       -1.080      869.651
01/11/2021  07:30:00       90.649       40.156      -24.983      467.437       62.835      224.702   218497.310     3948.238    50491.101       14.164       13.647       99.145      319.826       10.406      331.214       -0.910      869.634
01/11/2021  07:31:00       58.648       30.461      -12.684      446.413       61.730      216.688   199284.850     3810.654    46953.726       12.724       12.502       66.086      305.375       21.352      331.117       -1.066      869.614
01/11/2021  07:32:00      131.196       41.289      -40.438      572.838       56.767      272.965   328143.922     3222.446    74509.911       21.313       20.294      137.539      392.281        8.135      331.333       -0.708      869.614
01/11/2021  07:33:00       24.413       33.669       -4.233      381.137       57.794      180.909   145265.591     3340.166    32728.021        9.150        9.067       41.588      256.352       37.995      331.050       -1.178      869.611
01/11/2021  07:34:00       12.068       39.349      -11.735      450.164       55.251      221.043   202647.774     3052.681    48860.004       12.814       12.728       41.158      311.614       57.323      331.095       -1.103      869.627
01/11/2021  07:35:00       36.450       49.022      -19.642      504.782       54.294      244.381   254804.854     2947.829    59722.116       16.073       15.874       61.088      347.717       32.400      331.113       -1.073      869.650
01/11/2021  07:36:00      -26.028       35.814       -6.959      325.873       58.963      156.324   106193.376     3476.613    24437.173        6.803        6.705       44.273      220.239       24.747      330.893       -1.439      869.668
01/11/2021  07:37:00      -53.543       48.039        0.164      247.679       52.467      119.822    61344.690     2752.798    14357.199        4.180        3.923       71.935      166.209        5.339      330.774       -1.636      869.694
01/11/2021  07:38:00       29.399       57.877      -36.254      535.863       52.705      258.517   287148.726     2777.867    66830.884       18.107       17.838       64.916      368.848       32.285      331.008       -1.245      869.708
01/11/2021  07:39:00       61.004       54.005      -37.272      580.521       59.815      268.557   337004.237     3577.785    72123.056       21.028       20.635       81.474      391.566       23.098      331.048       -1.175      869.713
01/11/2021  07:40:00       25.797       40.941      -24.395      446.724       54.353      218.476   199562.514     2954.290    47731.593       12.654       12.512       48.391      307.692       40.431      330.935       -1.367      869.712
01/11/2021  07:41:00       21.071       30.580      -13.169      367.731       59.486      175.040   135226.018     3538.582    30638.912        8.544        8.470       37.136      248.004       44.598      330.953       -1.341      869.705
01/11/2021  07:42:00      140.263       31.643      -35.444      515.530       66.577      247.659   265771.469     4432.520    61334.847       17.667       16.577      143.788      352.857        6.022      331.175       -0.971      869.715
01/11/2021  07:43:00       -7.505       47.470       13.002      113.397       53.940       58.772    12858.888     2909.532     3454.161        1.085        0.961       48.059       67.287        1.960      330.721       -1.726      869.736
01/11/2021  07:44:00       69.146       55.870      -35.690      541.030       64.536      256.515   292712.939     4164.908    65799.718       18.585       18.134       88.897      368.657       17.198      331.067       -1.146      869.745
01/11/2021  07:45:00       27.260       45.723      -22.530      387.364       57.722      189.774   150051.201     3331.828    36014.198        9.633        9.470       53.233      266.943       25.147      330.950       -1.344      869.736
01/11/2021  07:46:00       93.458       28.221      -32.171      539.374       55.763      248.090   290924.444     3109.539    61548.611       18.300       17.779       97.625      361.643       13.723      331.049       -1.175      869.723
01/11/2021  07:47:00       48.359       40.481        6.128      274.242       55.274      129.892    75208.620     3055.192    16871.989        4.956        4.757       63.066      182.888        8.410      330.885       -1.452      869.705
01/11/2021  07:48:00      110.328       59.304       -9.829      475.966       57.109      222.296   226543.743     3261.459    49415.582       14.745       13.961      125.257      321.515        6.589      330.998       -1.263      869.676
01/11/2021  07:49:00      108.096       57.714      -40.659      564.884       51.319      272.305   319094.094     2633.665    74150.157       20.619       19.794      122.539      389.939       10.126      331.013       -1.235      869.679
01/11/2021  07:50:00       78.269       54.285      -13.450      389.516       60.113      188.183   151722.846     3613.568    35412.927        9.996        9.537       95.252      266.040        7.801      330.896       -1.431      869.680
01/11/2021  07:51:00       96.516       56.501      -14.423      370.797       51.758      177.366   137490.345     2678.926    31458.852        9.214        8.581      111.838      252.730        5.107      330.857       -1.498      869.700
01/11/2021  07:52:00      163.286       75.330      -25.517      507.636       66.255      237.803   257694.449     4389.725    56550.074       17.575       15.932      179.825      342.977        3.638      331.067       -1.147      869.716
01/11/2021  07:53:00      106.198       66.671        2.183      380.216       63.143      181.142   144564.373     3987.093    32812.603        9.851        9.068      125.392      256.943        4.199      330.927       -1.383      869.723
01/11/2021  07:54:00      136.584       80.263      -17.497      457.680       61.827      215.852   209470.964     3822.599    46592.258       14.259       12.994      158.421      310.344        3.838      330.922       -1.389      869.714
01/11/2021  07:55:00      122.969       58.888      -11.394      420.756       61.112      197.638   177035.342     3734.661    39060.634       11.923       10.992      136.342      283.405        4.321      330.858       -1.493      869.690
01/11/2021  07:56:00      283.181       72.026      -78.246      769.017       56.545      367.197   591386.473     3197.295   134833.444       41.031       36.471      292.197      529.180        3.280      331.460       -0.489      869.672
01/11/2021  07:57:00      155.258       70.917      -30.275      531.348       60.660      258.369   282330.983     3679.634    66754.646       19.134       17.638      170.688      367.338        4.632      331.058       -1.164      869.663
01/11/2021  07:58:00      158.239       83.914      -29.485      532.822       55.219      256.672   283899.667     3049.107    65880.597       19.282       17.641      179.112      366.723        4.192      331.066       -1.149      869.638
01/11/2021  07:59:00      141.671       81.898      -12.794      405.351       56.403      191.931   164309.094     3181.314    36837.402       11.559       10.216      163.640      274.840        2.821      330.928       -1.379      869.625
01/11/2021  08:00:00      115.194       46.080      -16.471      389.972       52.306      178.181   152078.492     2735.956    31748.531       10.108        9.328      124.069      259.075        4.360      330.964       -1.319      869.620
01/11/2021  08:01:00      157.929       60.337      -36.349      538.515       53.722      254.500   289998.131     2886.054    64770.177       19.371       17.883      169.063      367.043        4.713      331.124       -1.053      869.606
01/11/2021  08:02:00      207.521       76.300      -33.989      554.205       53.872      258.804   307143.155     2902.142    66979.674       21.346       18.851      221.103      375.713        2.888      331.180       -0.961      869.602
01/11/2021  08:03:00      156.276       70.628      -19.962      393.003       49.984      184.811   154451.235     2498.355    34154.992       11.042        9.555      171.495      265.974        2.405      330.979       -1.298      869.598
01/11/2021  08:04:00      111.844       71.597      -11.826      354.908       50.383      166.834   125959.496     2538.446    27833.581        8.702        7.817      132.798      239.437        3.251      330.968       -1.317      869.588
01/11/2021  08:05:00       68.810       65.642       -0.882      279.239       51.076      132.907    77974.264     2608.755    17664.149        5.363        4.912       95.098      187.898        3.904      330.982       -1.294      869.581
01/11/2021  08:06:00      105.523       70.409      -27.956      478.245       43.498      230.313   228718.321     1892.045    53044.197       15.021       14.183      126.856      329.825        6.760      331.202       -0.927      869.573
01/11/2021  08:07:00      105.328       61.841      -36.476      502.724       44.026      239.984   252731.182     1938.321    57592.468       16.419       15.613      122.140      345.506        8.002      331.248       -0.850      869.566
01/11/2021  08:08:00       98.799       24.233      -38.239      511.182       35.327      245.864   261307.415     1247.964    60448.928       16.734       16.150      101.728      353.226       12.057      331.246       -0.854      869.562
01/11/2021  08:09:00       74.382       32.893      -24.818      395.723       26.662      188.442   156596.793      710.842    35510.427        9.998        9.641       81.330      271.845       11.172      331.171       -0.983      869.541
01/11/2021  08:10:00      124.562       59.724      -38.891      433.326       26.016      206.660   187771.364      676.849    42708.231       12.583       11.558      138.140      298.162        4.659      331.257       -0.839      869.506
01/11/2021  08:11:00      147.048       43.460      -43.549      468.874       33.050      227.074   219842.675     1092.325    51562.444       14.890       13.625      153.336      325.252        4.499      331.342       -0.699      869.472
01/11/2021  08:12:00      137.793       49.238      -40.005      434.952       35.591      205.645   189183.170     1266.687    42289.786       12.783       11.637      146.326      297.703        4.139      331.263       -0.829      869.445
01/11/2021  08:13:00      126.909       42.774      -28.741      424.190       42.392      201.645   179937.482     1797.083    40660.851       12.053       11.120      133.923      290.763        4.714      331.425       -0.562      869.441
01/11/2021  08:14:00      141.483       45.451      -47.857      466.451       27.478      223.482   217576.135      755.017    49944.232       14.627       13.414      148.604      321.945        4.694      331.390       -0.619      869.452
01/11/2021  08:15:00       94.750       49.175      -31.599      454.665       28.996      217.644   206720.275      840.779    47368.705       13.361       12.746      106.751      313.476        8.623      331.314       -0.743      869.480
01/11/2021  08:16:00      149.812       24.475      -60.019      609.137       23.741      289.021   371047.757      563.639    83533.423       24.080       22.757      151.798      418.938        7.617      331.559       -0.334      869.513
01/11/2021  08:17:00       18.960       11.061      -21.580      331.555       24.771      160.088   109928.941      613.618    25628.166        6.853        6.809       21.951      229.313      109.135      331.046       -1.188      869.536
01/11/2021  08:18:00       88.605        6.886      -59.680      583.579       18.924      279.544   340565.000      358.108    78144.729       21.518       20.953       88.872      403.111       20.574      331.378       -0.634      869.557
01/11/2021  08:19:00      -44.551       19.838        4.387       29.029       32.798       21.908      842.703     1075.710      479.973        0.240        0.120       48.768       19.932        0.167      330.900       -1.430      869.576
01/11/2021  08:20:00      -46.294       19.069      -17.871      264.277       23.901      127.700    69842.553      571.258    16307.202        4.476        4.336       50.067      182.022       13.217      331.019       -1.231      869.602
01/11/2021  08:21:00      -17.200       18.283      -29.679      390.363       31.891      189.974   152382.973     1017.066    36090.010        9.546        9.475       25.102      270.306      115.957      331.139       -1.033      869.621
01/11/2021  08:22:00      -10.024        7.534      -14.473      325.656       31.208      159.077   106052.126      973.969    25305.357        6.632        6.617       12.540      224.229      319.748      331.073       -1.144      869.625
01/11/2021  08:23:00      -97.882       13.018      -11.932      156.932       26.373       77.305    24627.805      695.528     5976.069        2.059        1.565       98.744      105.281        1.137      330.912       -1.411      869.614
01/11/2021  08:24:00      -29.955       10.808      -20.228      334.657       32.736      157.190   111995.326     1071.652    24708.713        6.957        6.889       31.845      225.607       50.190      331.132       -1.048      869.599
01/11/2021  08:25:00       14.749        0.510      -22.556      348.829       30.125      164.295   121681.734      907.516    26992.724        7.512        7.479       14.758      237.756      259.546      331.226       -0.892      869.577
01/11/2021  08:26:00        9.583        0.888      -21.373      386.534       25.959      183.907   149408.237      673.889    33821.927        9.219        9.195        9.624      263.547      749.960      331.283       -0.796      869.555
01/11/2021  08:27:00      -33.865       13.842      -23.776      325.684       25.002      154.617   106069.770      625.106    23906.456        6.623        6.530       36.585      222.370       36.944      331.207       -0.923      869.533
01/11/2021  08:28:00      -72.122       -0.567       -7.560      152.838       27.964       71.237    23359.345      781.979     5074.748        1.723        1.461       72.124      100.120        1.927      331.108       -1.090      869.506
01/11/2021  08:29:00      -52.642       -3.890       -8.477      134.208       22.620       64.174    18011.702      511.686     4118.291        1.275        1.132       52.785       86.517        2.686      331.202       -0.935      869.490
01/11/2021  08:30:00        7.357       -4.886      -29.825      355.397       21.590      169.872   126306.808      466.129    28856.509        7.827        7.781        8.832      244.888      768.862      331.359       -0.673      869.485
01/11/2021  08:31:00      -39.323        1.566      -24.695      311.874       14.086      149.692    97265.377      198.429    22407.575        6.099        5.994       39.354      215.604       30.015      331.273       -0.816      869.484
01/11/2021  08:32:00       30.456       -7.405      -44.743      458.906       15.721      220.579   210594.626      247.161    48655.038       13.119       12.975       31.344      316.741      102.120      331.559       -0.342      869.497
01/11/2021  08:33:00      -21.576        4.990       -8.302      217.453       18.083      104.280    47285.671      326.989    10874.309        2.951        2.924       22.146      147.409       44.307      331.368       -0.659      869.529
01/11/2021  08:34:00      -21.295        0.979       -6.168      179.496       13.887       85.538    32218.727      192.838     7316.812        2.010        1.986       21.317      121.298       32.378      331.329       -0.721      869.571
01/11/2021  08:35:00       12.935      -11.278       -8.488      276.728       17.249      132.984    76578.435      297.513    17684.822        4.744        4.728       17.162      189.273      121.637      331.522       -0.406      869.610
01/11/2021  08:36:00       -9.701       -9.040      -16.197      266.172       24.269      125.549    70847.509      588.962    15762.477        4.380        4.360       13.261      178.362      180.917      331.523       -0.404      869.638
01/11/2021  08:37:00      -19.022       -3.629      -24.776      291.501       20.209      139.410    84972.780      408.403    19435.037        5.288        5.241       19.365      200.261      106.941      331.505       -0.435      869.654
01/11/2021  08:38:00      -23.072      -22.444      -15.450      243.887       18.551      114.685    59480.990      344.122    13152.677        3.711        3.649       32.188      165.254       26.358      331.578       -0.315      869.651
01/11/2021  08:39:00      -66.364        5.749      -13.719       41.203       18.246       19.206     1697.680      332.920      368.889        0.351        0.120       66.612       11.114        0.028      331.461       -0.510      869.664
01/11/2021  08:40:00      -10.348        4.285        3.680       30.796       21.100       19.977      948.396      445.195      399.097        0.097        0.090       11.200       16.976        2.297      331.509       -0.429      869.685
01/11/2021  08:41:00      -28.404        5.916      -16.902      191.517       19.295       90.066    36678.952      372.307     8111.809        2.314        2.258       29.014      126.974       19.153      331.530       -0.394      869.718
01/11/2021  08:42:00      -41.356       11.478      -14.315       33.427       17.759       16.548     1117.342      315.375      273.836        0.188        0.085       42.919       16.860        0.154      331.520       -0.411      869.751
01/11/2021  08:43:00        1.102        5.750       -6.263      196.563       15.456       91.753    38637.074      238.880     8418.635        2.367        2.365        5.854      130.115      493.961      331.622       -0.243      869.770
01/11/2021  08:44:00      -27.876       -7.097       -5.362       48.614       22.384       18.810     2363.282      501.027      353.817        0.204        0.161       28.765       15.927        0.307      331.699       -0.118      869.777
01/11/2021  08:45:00      -42.942        0.383      -11.835      159.135       16.949       74.468    25323.986      287.274     5545.439        1.656        1.558       42.943      106.991        6.207      331.682       -0.145      869.783
01/11/2021  08:46:00      -28.939      -20.435      -15.258       42.871       18.895       16.671     1837.932      357.011      277.922        0.198        0.124       35.427       20.396        0.331      331.701       -0.113      869.781
01/11/2021  08:47:00       27.333       -5.217       -9.575      155.014       13.430       73.479    24029.243      180.368     5399.124        1.523        1.480       27.827      105.176       14.286      331.906        0.224      869.786
01/11/2021  08:48:00      -16.403       -6.640       -6.931       34.766       17.844       18.328     1208.693      318.409      335.921        0.111        0.093       17.696       13.988        0.625      331.779        0.014      869.790
01/11/2021  08:49:00      -20.932        5.464      -10.939       42.742       25.801       21.976     1826.888      665.700      482.944        0.178        0.149       21.633       23.598        1.190      331.820        0.080      869.778
01/11/2021  08:50:00       17.619       -7.493      -25.000      256.744       20.611      121.078    65917.424      424.803    14659.863        4.098        4.050       19.146      175.306       83.838      331.981        0.348      869.778
01/11/2021  08:51:00       -8.919      -19.182      -11.090       48.030       14.208       24.729     2306.885      201.867      611.519        0.184        0.156       21.154       31.041        2.153      331.979        0.343      869.779
01/11/2021  08:52:00      -11.917       -0.164        4.581       27.279       11.009       14.966      744.131      121.194      223.982        0.063        0.054       11.918       16.815        1.991      332.057        0.473      869.778
01/11/2021  08:53:00      -25.868       -1.227       -9.753       38.747        9.195       19.739     1501.327       84.550      389.619        0.137        0.099       25.897       26.013        1.009      331.893        0.202      869.789
01/11/2021  08:54:00      -14.237       10.393       -9.369       41.222        8.986       20.559     1699.223       80.756      422.678        0.130        0.110       17.627       28.423        2.600      331.946        0.290      869.800
01/11/2021  08:55:00      -36.942       11.084       -5.761       27.049        7.531       12.470      731.655       56.709      155.503        0.123        0.047       38.569       13.276        0.118      331.907        0.225      869.822
01/11/2021  08:56:00      -23.649        8.732      -15.523       42.197        7.837       19.816     1780.622       61.421      392.676        0.156        0.112       25.209       26.341        1.092      332.014        0.402      869.855
01/11/2021  08:57:00      -14.154       -9.350      -15.471       40.918       16.990       18.139     1674.245      288.645      329.036        0.141        0.115       16.964       21.429        1.596      332.124        0.582      869.874
01/11/2021  08:58:00      -40.607       19.848      -10.232       55.022       11.400       26.669     3027.391      129.951      711.224        0.301        0.193       45.198       24.035        0.283      332.126        0.586      869.892
01/11/2021  08:59:00      -40.428       -1.300      -14.051       34.398       10.922       20.208     1183.246      119.281      408.351        0.177        0.086       40.449       20.095        0.247      332.088        0.524      869.910
01/11/2021  09:00:00      -24.908        1.398       -6.389       37.470       22.242       18.644     1403.977      494.717      347.588        0.145        0.112       24.947       10.741        0.185      332.166        0.651      869.912
01/11/2021  09:01:00      -35.250      -30.951      -10.077       42.129       21.145       18.645     1774.872      447.094      347.624        0.244        0.128       46.910       18.345        0.153      332.205        0.717      869.888
01/11/2021  09:02:00      -42.840      -18.734       -9.120       32.441       19.125       18.459     1052.422      365.754      340.723        0.201        0.088       46.757       20.783        0.198      332.150        0.627      869.858
01/11/2021  09:03:00      -19.287       -9.475      -10.989       38.906       15.214       18.217     1513.700      231.457      331.842        0.133        0.104       21.489       21.686        1.018      332.177        0.669      869.827
01/11/2021  09:04:00        2.004        7.249      -11.892       39.241       13.699       19.797     1539.838      187.672      391.939        0.116        0.106        7.521       26.354       12.280      332.335        0.929      869.803
01/11/2021  09:05:00        1.430       -1.432      -15.258       49.671       15.980       24.509     2467.237      255.376      600.685        0.178        0.166        2.024       32.818      262.984      332.455        1.128      869.784
01/11/2021  09:06:00      -24.335      -28.634      -11.508       41.535       21.730       21.300     1725.160      472.186      453.693        0.210        0.133       37.578       26.187        0.486      332.349        0.954      869.790
01/11/2021  09:07:00       -9.452       16.598       -5.218       29.978       15.647       16.992      898.706      244.823      288.728        0.091        0.072       19.101       19.909        1.086      332.424        1.078      869.803
01/11/2021  09:08:00       -8.269       15.740       -6.684       26.612       12.562       13.446      708.194      157.816      180.786        0.070        0.052       17.780       17.365        0.954      332.348        0.952      869.814
01/11/2021  09:09:00       -2.703       -4.161        2.116       24.780        9.165       14.831      614.058       83.998      219.946        0.047        0.046        4.962       15.168        9.345      332.830        1.748      869.820
01/11/2021  09:10:00      -13.626        0.728       -4.897       22.096        7.851       13.621      488.250       61.645      185.544        0.047        0.037       13.645       12.144        0.792      332.561        1.305      869.809
01/11/2021  09:11:00       37.310      -76.430      -14.643       55.165       20.490       27.996     3043.162      419.839      783.792        0.585        0.212       85.051       34.344        0.163      332.799        1.697      869.797
01/11/2021  09:12:00       64.965      -61.031      -25.706       53.878       40.892       30.835     2902.829     1672.134      950.826        0.706        0.276       89.136       32.622        0.134      332.821        1.732      869.773
01/11/2021  09:13:00       93.772      -76.891      -28.515       57.417       29.262       30.201     3296.749      856.268      912.085        1.029        0.253      121.265       38.094        0.099      332.495        1.194      869.761
01/11/2021  09:14:00       92.915      -83.812      -31.549       66.368       48.199       36.903     4404.723     2323.108     1361.818        1.237        0.404      125.130       43.470        0.121      332.744        1.604      869.762
01/11/2021  09:15:00       85.025      -58.673      -34.656       60.572       38.063       33.993     3668.983     1448.817     1155.536        0.907        0.314      103.304       40.981        0.157      332.659        1.466      869.779
01/11/2021  09:16:00       53.731      -53.555      -20.419       53.414       56.860       32.844     2853.037     3233.024     1078.745        0.667        0.358       75.863       35.267        0.216      332.889        1.845      869.790
01/11/2021  09:17:00       86.582      -15.767      -40.628       71.390       51.381       33.344     5096.492     2639.968     1111.805        0.912        0.442       88.006       40.746        0.214      332.892        1.851      869.820
01/11/2021  09:18:00       87.244      -39.992      -23.382       63.882       42.955       34.251     4080.935     1845.108     1173.139        0.843        0.355       95.973       38.576        0.162      332.799        1.697      869.842
01/11/2021  09:19:00       94.843      -15.380      -25.448       65.909       41.433       33.577     4343.935     1716.714     1127.421        0.853        0.359       96.082       36.823        0.147      332.668        1.479      869.858
01/11/2021  09:20:00      121.698        4.494      -28.887       81.432       43.410       36.919     6631.213     1884.458     1363.023        1.277        0.494      121.781       46.728        0.147      332.810        1.713      869.857
01/11/2021  09:21:00      113.641       21.895      -16.777       79.935       60.004       44.297     6389.636     3600.515     1962.231        1.281        0.598      115.731       47.337        0.167      332.791        1.683      869.839
01/11/2021  09:22:00      102.879      -16.037      -30.307       79.061       51.419       40.764     6250.645     2643.893     1661.676        1.116        0.528      104.122       45.889        0.194      332.693        1.522      869.819
01/11/2021  09:23:00      105.617      -25.358      -28.824       65.475       60.156       39.122     4286.921     3618.734     1530.519        1.103        0.472      108.618       40.581        0.140      332.684        1.506      869.821
01/11/2021  09:24:00      116.382       31.173      -37.735       70.433       60.575       42.747     4960.800     3669.372     1827.269        1.320        0.523      120.484       39.455        0.107      332.798        1.694      869.832
01/11/2021  09:25:00       83.890      -10.097      -27.995       70.344       58.617       37.405     4948.263     3435.950     1399.165        0.885        0.489       84.496       43.376        0.264      332.942        1.933      869.855
01/11/2021  09:26:00      111.188       11.505      -34.296       70.833       50.644       40.128     5017.260     2564.826     1610.281        1.143        0.460      111.782       41.982        0.141      332.868        1.809      869.874
01/11/2021  09:27:00      134.042       14.010      -23.895       58.766       63.682       31.677     3453.423     4055.338     1003.442        1.362        0.426      134.773       37.168        0.076      332.599        1.366      869.900
01/11/2021  09:28:00      134.903       55.761      -23.606       58.944       38.324       32.598     3474.397     1468.749     1062.622        1.393        0.300      145.973       37.269        0.065      332.620        1.401      869.916
01/11/2021  09:29:00       89.827       13.952      -32.775       72.237       59.933       33.355     5218.131     3591.917     1112.533        0.963        0.496       90.904       40.564        0.199      332.843        1.768      869.923
01/11/2021  09:30:00      114.526        7.616      -40.648       61.567       57.648       36.202     3790.522     3323.322     1310.591        1.162        0.421      114.779       32.538        0.080      332.884        1.837      869.929
01/11/2021  09:31:00      104.774        5.888      -33.498       64.751       49.982       40.902     4192.700     2498.215     1673.008        1.025        0.418      104.939       42.096        0.161      332.757        1.627      869.951
01/11/2021  09:32:00      116.395      -22.067      -21.959       67.752       46.529       36.341     4590.308     2164.992     1320.638        1.129        0.404      118.468       38.149        0.104      332.768        1.646      869.973
01/11/2021  09:33:00      101.291      -15.276      -20.684       64.411       49.630       40.439     4148.808     2463.158     1635.301        0.958        0.412      102.436       43.290        0.179      332.890        1.846      869.977
01/11/2021  09:34:00      101.189       -9.890      -27.964       72.573       61.475       46.939     5266.907     3779.233     2203.288        1.118        0.562      101.671       43.399        0.182      332.939        1.928      869.984
01/11/2021  09:35:00       92.985       34.699      -17.849       53.684       63.990       37.994     2881.972     4094.767     1443.521        0.929        0.421       99.248       32.954        0.110      332.896        1.856      869.972
01/11/2021  09:36:00       73.603       -5.154      -27.210       60.368       50.220       36.184     3644.242     2522.080     1309.309        0.683        0.374       73.783       35.028        0.225      333.089        2.175      869.945
01/11/2021  09:37:00       75.679       -1.745      -21.860       66.164       50.182       42.924     4377.616     2518.232     1842.429        0.747        0.437       75.699       45.086        0.355      332.896        1.857      869.918
01/11/2021  09:38:00       92.158       19.025      -18.115       88.819       34.676       38.073     7888.776     1202.446     1449.565        0.986        0.527       94.101       46.551        0.245      332.891        1.848      869.888
01/11/2021  09:39:00       83.345     -119.566      -45.812       89.821       52.683       34.119     8067.847     2775.506     1164.086        1.767        0.600      145.748       47.572        0.107      332.817        1.725      869.860
01/11/2021  09:40:00      112.307     -104.512      -34.471       50.735       30.899       28.467     2574.069      954.729      810.382        1.453        0.217      153.413       33.643        0.048      332.703        1.539      869.843
01/11/2021  09:41:00      115.201      -64.763      -27.362       69.531       52.331       35.561     4834.553     2738.553     1264.552        1.352        0.442      132.157       40.934        0.096      332.967        1.974      869.815
01/11/2021  09:42:00      133.429     -177.484      -40.816       68.958       34.953       37.877     4755.219     1221.712     1434.634        2.919        0.371      222.045       45.096        0.041      332.746        1.606      869.807
01/11/2021  09:43:00      154.477     -133.383      -59.387       67.223       50.257       29.303     4518.991     2525.772      858.637        2.654        0.395      204.093       41.863        0.042      332.584        1.339      869.822
01/11/2021  09:44:00      117.328     -108.660      -45.409       61.471       49.648       38.267     3778.664     2464.908     1464.386        1.767        0.385      159.915       41.240        0.067      332.950        1.944      869.841
01/11/2021  09:45:00      115.687      -72.743      -32.772       57.048       42.779       32.650     3254.439     1830.001     1066.053        1.295        0.308      136.656       40.624        0.088      332.854        1.786      869.858
01/11/2021  09:46:00      136.934      -55.389      -44.508       77.106       67.432       40.544     5945.272     4547.102     1643.825        1.797        0.607      147.712       48.981        0.110      333.016        2.053      869.857
01/11/2021  09:47:00       87.906      -52.539      -36.968       59.526       51.160       35.563     3543.315     2617.378     1264.710        0.964        0.371      102.410       36.998        0.131      333.116        2.219      869.867
01/11/2021  09:48:00      106.180      -33.469      -43.519       65.848       63.464       33.940     4336.010     4027.741     1151.897        1.190        0.476      111.330       39.477        0.126      333.051        2.111      869.874
01/11/2021  09:49:00      100.494      -56.445      -20.670       59.740       49.309       33.866     3568.918     2431.345     1146.931        1.043        0.357      115.260       36.056        0.098      332.938        1.927      869.882
01/11/2021  09:50:00       95.310      -67.680      -34.206       54.981       57.992       28.034     3022.929     3363.085      785.884        1.100        0.359      116.895       32.997        0.080      333.084        2.166      869.893
01/11/2021  09:51:00      111.641     -140.018      -46.218       60.982       45.993       29.372     3718.762     2115.314      862.706        2.045        0.335      179.077       36.841        0.042      332.958        1.958      869.901
01/11/2021  09:52:00      101.660     -123.220      -42.321       60.975       30.800       26.013     3717.941      948.638      676.699        1.633        0.267      159.744       35.787        0.050      332.864        1.805      869.898
01/11/2021  09:53:00      112.177      -99.259      -45.735       64.426       40.386       32.145     4150.693     1631.039     1033.310        1.567        0.341      149.786       34.419        0.053      333.146        2.270      869.887
01/11/2021  09:54:00       66.705      -37.347      -35.543       49.872       41.693       23.061     2487.184     1738.296      531.795        0.593        0.238       76.449       28.832        0.142      332.866        1.808      869.874
01/11/2021  09:55:00       60.693      -20.374      -18.848       61.228       58.132       33.491     3748.896     3379.382     1121.650        0.635        0.412       64.022       35.310        0.304      333.273        2.478      869.854
01/11/2021  09:56:00      106.652       13.288      -35.143       64.306       49.543       36.924     4135.255     2454.542     1363.411        1.037        0.398      107.476       40.521        0.142      333.152        2.281      869.846
01/11/2021  09:57:00       59.227      -18.905      -17.470       62.398       70.106       35.986     3893.538     4914.852     1295.016        0.713        0.505       62.171       40.340        0.421      333.340        2.591      869.847
01/11/2021  09:58:00      -14.798      -19.593      -10.045       49.730       32.636       30.090     2473.068     1065.085      905.392        0.257        0.222       24.553       33.184        1.827      333.401        2.692      869.864
01/11/2021  09:59:00       68.111      -79.406      -37.496       60.772       34.210       36.136     3693.239     1170.313     1305.789        0.926        0.308      104.616       41.021        0.154      333.281        2.491      869.889
01/11/2021  10:00:00       66.485      -60.188      -24.776       58.680       27.346       31.980     3443.306      747.782     1022.711        0.693        0.261       89.682       37.234        0.172      333.222        2.395      869.909
01/11/2021  10:01:00       54.256      -70.484      -29.905       63.663       27.632       30.573     4052.966      763.517      934.712        0.728        0.288       88.948       36.794        0.171      333.277        2.486      869.932
01/11/2021  10:02:00       43.513      -24.295      -29.193       60.283       44.716       32.065     3634.024     1999.554     1028.148        0.500        0.333       49.836       35.300        0.502      333.456        2.783      869.945
01/11/2021  10:03:00       88.620      -54.556      -40.435       63.186       37.166       33.095     3992.473     1381.327     1095.271        0.947        0.323      104.067       41.395        0.158      333.430        2.739      869.950
01/11/2021  10:04:00       45.992      -21.994      -26.916       60.204       36.071       31.052     3624.582     1301.139      964.214        0.461        0.294       50.981       33.951        0.444      333.773        3.308      869.945
01/11/2021  10:05:00       85.105       -4.665      -28.923       63.779       41.113       36.650     4067.772     1690.304     1343.245        0.760        0.355       85.233       41.978        0.243      333.575        2.980      869.933
01/11/2021  10:06:00       79.132        1.315      -21.917       73.958       62.887       43.155     5469.797     3954.834     1862.318        0.901        0.564       79.143       46.784        0.349      333.383        2.662      869.917
01/11/2021  10:07:00      125.462       -9.346      -24.480       75.497       42.627       40.081     5699.817     1817.065     1606.487        1.277        0.456      125.810       49.509        0.155      333.344        2.596      869.913
01/11/2021  10:08:00      124.657       -9.850      -30.462       56.425       35.773       29.130     3183.730     1279.703      848.583        1.094        0.266      125.046       33.552        0.072      333.175        2.318      869.914
01/11/2021  10:09:00       70.748        8.300      -12.748       60.055       34.733       27.358     3606.634     1206.410      748.446        0.540        0.278       71.233       36.882        0.268      333.251        2.445      869.916
01/11/2021  10:10:00       91.578       69.835      -36.104       65.309       32.598       34.521     4265.220     1062.640     1191.718        1.054        0.326      115.168       43.998        0.146      333.185        2.333      869.913
01/11/2021  10:11:00       68.875       74.992      -32.399       62.946       22.909       26.649     3962.202      524.812      710.180        0.831        0.260      101.821       35.209        0.120      333.127        2.236      869.913
01/11/2021  10:12:00      -26.620       44.484       -1.646       27.237       18.809       17.880      741.828      353.766      319.708        0.205        0.071       51.841       12.867        0.062      333.093        2.181      869.906
01/11/2021  10:13:00       18.011       51.097      -22.479       78.556       22.181       24.135     6171.114      491.977      582.483        0.534        0.362       54.178       14.283        0.070      333.363        2.629      869.899
01/11/2021  10:14:00       84.530       45.408      -31.732       72.461       39.070       32.547     5250.540     1526.436     1059.288        0.902        0.392       95.954       41.777        0.190      333.804        3.359      869.902
01/11/2021  10:15:00      149.970       61.916      -25.447       68.491       48.061       33.665     4691.075     2309.865     1133.336        1.755        0.407      162.248       36.412        0.050      333.539        2.917      869.896
01/11/2021  10:16:00      135.015       72.324      -33.428       73.702       55.728       32.863     5432.039     3105.600     1079.993        1.710        0.481      153.166       38.200        0.062      333.460        2.788      869.899
01/11/2021  10:17:00      103.033       78.805      -37.840       61.924       41.929       32.544     3834.616     1758.067     1059.127        1.245        0.333      129.715       37.649        0.084      333.638        3.084      869.898
01/11/2021  10:18:00       95.736       49.949      -34.033       62.649       39.920       32.068     3924.894     1593.617     1028.347        0.968        0.327      107.982       38.301        0.126      333.723        3.223      869.885
01/11/2021  10:19:00       42.854      -35.956      -31.938       82.587       63.328       44.477     6820.571     4010.437     1978.193        0.848        0.640       55.941       49.012        0.768      333.991        3.668      869.861
01/11/2021  10:20:00      118.372      -25.516      -48.006       84.789       65.117       51.516     7189.236     4240.211     2653.868        1.552        0.704      121.091       49.537        0.167      333.890        3.502      869.837
01/11/2021  10:21:00      100.398       -2.448      -24.628       85.086       51.638       43.778     7239.560     2666.441     1916.538        1.125        0.591      100.428       51.923        0.267      333.652        3.107      869.833
01/11/2021  10:22:00      141.560      -28.950      -32.287       77.453       37.924       39.724     5999.022     1438.237     1578.000        1.547        0.451      144.490       47.033        0.106      333.560        2.954      869.827
01/11/2021  10:23:00      130.402      -11.714      -20.115       72.682       32.862       42.760     5282.707     1079.903     1828.440        1.287        0.410      130.927       49.060        0.140      333.572        2.976      869.815
01/11/2021  10:24:00      100.739       21.658      -21.533       73.128       48.404       39.500     5347.726     2342.920     1560.287        1.016        0.463      103.041       47.896        0.216      333.701        3.188      869.814
01/11/2021  10:25:00       20.369       10.740      -13.791       58.350       32.990       28.595     3404.757     1088.336      817.674        0.301        0.266       23.028       36.699        2.540      333.663        3.125      869.810
01/11/2021  10:26:00       81.334       24.564      -10.684       80.146       46.501       32.067     6423.442     2162.379     1028.272        0.847        0.481       84.962       35.890        0.178      333.720        3.219      869.787
01/11/2021  10:27:00      108.719       49.656      -16.965       69.104       59.026       39.876     4775.326     3484.039     1590.077        1.221        0.492      119.522       39.630        0.110      333.798        3.349      869.764
01/11/2021  10:28:00      137.935       70.452      -26.076       74.637       55.857       36.516     5570.631     3120.057     1333.450        1.734        0.501      154.885       39.849        0.066      333.719        3.218      869.741
01/11/2021  10:29:00       94.901        2.623      -39.458       66.589       83.323       50.717     4434.154     6942.663     2572.264        1.226        0.697       94.937       40.086        0.178      333.673        3.142      869.715
01/11/2021  10:30:00      162.495      -15.868      -39.742       79.601       60.301       45.363     6336.357     3636.152     2057.769        2.013        0.602      163.268       41.576        0.065      333.663        3.125      869.682
01/11/2021  10:31:00      166.963      -30.966      -24.085       89.894       45.597       44.405     8080.910     2079.102     1971.765        2.077        0.607      169.810       55.675        0.107      333.523        2.893      869.671
01/11/2021  10:32:00      103.116      -25.841      -27.720       60.531       35.767       31.381     3663.953     1279.309      984.766        0.900        0.296      106.305       36.537        0.118      333.604        3.028      869.677
01/11/2021  10:33:00      103.495      -24.034      -20.166       75.476       62.043       44.069     5696.699     3849.279     1942.089        1.159        0.574      106.249       46.598        0.192      333.682        3.157      869.683
01/11/2021  10:34:00       85.465      -14.939      -22.602       68.747       45.590       37.504     4726.086     2078.487     1406.534        0.812        0.411       86.760       44.593        0.264      333.923        3.555      869.728
01/11/2021  10:35:00       62.782       42.647      -21.359       80.554       48.844       34.613     6488.945     2385.726     1198.054        0.814        0.504       75.897       43.483        0.328      333.699        3.186      869.779
01/11/2021  10:36:00       85.087      -39.979      -32.797       71.715       38.936       33.120     5142.978     1516.029     1096.904        0.883        0.388       94.012       41.370        0.194      333.873        3.473      869.791
01/11/2021  10:37:00       92.027      -29.662      -23.103       79.208       36.755       35.655     6273.861     1350.909     1271.299        0.939        0.445       96.690       47.362        0.240      333.792        3.339      869.798
01/11/2021  10:38:00       87.757      -45.059      -32.350       75.689       45.099       35.885     5728.809     2033.956     1287.711        0.991        0.453       98.649       42.885        0.189      334.074        3.806      869.812
01/11/2021  10:39:00      120.706      -19.695      -34.514       62.064       39.198       29.721     3851.928     1536.491      883.338        1.121        0.314      122.303       38.087        0.097      333.812        3.373      869.811
01/11/2021  10:40:00       45.783      -27.728      -28.009       73.859       38.161       35.881     5455.125     1456.238     1287.480        0.592        0.410       53.525       38.983        0.530      334.119        3.882      869.797
01/11/2021  10:41:00       -3.551      -33.560      -12.955       48.904       25.417       26.414     2391.591      646.042      697.703        0.252        0.187       33.747       28.272        0.702      334.114        3.872      869.788
01/11/2021  10:42:00       54.907       83.898       -7.921       61.951       48.197       35.594     3837.914     2322.983     1266.966        0.877        0.371      100.268       35.339        0.124      333.952        3.604      869.774
01/11/2021  10:43:00       37.574       87.159      -15.603       57.450       25.054       30.699     3300.554      627.709      942.435        0.706        0.244       94.913       36.425        0.147      333.937        3.581      869.760
01/11/2021  10:44:00       72.283       76.339      -24.209       65.395       29.218       33.724     4276.561      853.671     1137.290        0.895        0.313      105.131       43.182        0.169      334.177        3.977      869.749
01/11/2021  10:45:00       44.398       81.678       -8.495       54.028       30.537       32.697     2919.076      932.515     1069.122        0.682        0.246       92.965       34.873        0.141      334.014        3.706      869.734
01/11/2021  10:46:00       18.342       17.571      -18.508       52.023       28.408       28.886     2706.353      806.998      834.381        0.267        0.217       25.400       26.625        1.099      334.310        4.197      869.711
01/11/2021  10:47:00        5.156       37.464      -15.665       51.092       24.602       25.379     2610.412      605.267      644.095        0.277        0.193       37.817       30.580        0.654      334.073        3.806      869.699
01/11/2021  10:48:00       28.028      -17.354      -14.870       54.224       31.669       27.782     2940.225     1002.923      771.847        0.301        0.236       32.965       32.671        0.982      334.427        4.393      869.691
01/11/2021  10:49:00       49.267       39.375       -3.186       58.303       63.282       38.527     3399.227     4004.600     1484.363        0.644        0.444       63.068       43.591        0.478      334.454        4.438      869.696
01/11/2021  10:50:00       57.257       90.825        1.390       50.127       34.789       32.535     2512.754     1210.257     1058.518        0.815        0.239      107.367       31.742        0.087      334.175        3.975      869.686
01/11/2021  10:51:00       78.989       49.730      -16.399       46.143       51.681       29.049     2129.199     2670.896      843.847        0.731        0.282       93.339       25.114        0.072      334.113        3.871      869.677
01/11/2021  10:52:00       43.630       59.536      -23.514       55.865       31.457       31.774     3120.858      989.556     1009.566        0.556        0.256       73.811       37.502        0.258      333.873        3.473      869.663
01/11/2021  10:53:00       69.951       68.642      -27.350       47.808       36.151       26.117     2285.597     1306.869      682.090        0.731        0.214       98.005       24.430        0.062      333.942        3.587      869.636
01/11/2021  10:54:00       58.696       30.449       -6.977       56.021       49.285       36.634     3138.384     2429.021     1342.053        0.566        0.345       66.124       36.824        0.310      334.201        4.016      869.616
01/11/2021  10:55:00       89.801       -8.936      -23.212       63.429       49.105       35.884     4023.190     2411.296     1287.671        0.820        0.386       90.244       37.341        0.171      334.067        3.794      869.604
01/11/2021  10:56:00       44.588       29.259       -7.020       54.863       46.238       32.190     3009.963     2137.937     1036.208        0.454        0.309       53.331       35.053        0.432      334.059        3.783      869.607
01/11/2021  10:57:00       69.707       -9.962      -26.938       59.369       46.385       31.005     3524.702     2151.569      961.325        0.616        0.332       70.415       34.308        0.237      334.246        4.092      869.591
01/11/2021  10:58:00       98.713      -78.789      -32.404       58.203       56.144       37.653     3387.620     3152.114     1417.718        1.248        0.398      126.301       39.420        0.097      334.280        4.148      869.576
01/11/2021  10:59:00       60.610      -72.877      -33.729       66.693       51.877       33.067     4447.958     2691.220     1093.445        0.918        0.412       94.787       33.539        0.125      334.355        4.272      869.575
01/11/2021  11:00:00       77.818        3.706      -21.747       62.934       61.811       35.430     3960.736     3820.594     1255.305        0.779        0.452       77.906       35.806        0.211      334.442        4.417      869.575
01/11/2021  11:01:00       54.769      -18.544      -12.598       57.553       37.723       35.017     3312.382     1423.034     1226.221        0.473        0.298       57.823       33.965        0.345      334.572        4.633      869.587
01/11/2021  11:02:00       76.488        8.150      -16.337       54.288       38.363       31.656     2947.230     1471.728     1002.127        0.580        0.271       76.921       32.008        0.173      334.098        3.847      869.608
01/11/2021  11:03:00       33.288       20.361      -10.819       51.884       68.143       30.779     2691.986     4643.527      947.356        0.496        0.414       39.021       31.311        0.644      334.320        4.215      869.632
01/11/2021  11:04:00      -30.069        6.850      -12.196       43.686       32.609       26.036     1908.441     1063.332      677.894        0.237        0.182       30.840       26.426        0.734      334.463        4.453      869.645
01/11/2021  11:05:00      -46.154       40.687       -2.337       34.211       31.925       21.615     1170.361     1019.210      467.188        0.322        0.133       61.527       16.401        0.071      334.275        4.142      869.655
01/11/2021  11:06:00      -34.319       29.295      -10.948       33.048       24.002       19.046     1092.185      576.106      362.732        0.209        0.102       45.122       15.186        0.113      334.120        3.883      869.657
01/11/2021  11:07:00      -23.570       12.752       -2.363       14.080       13.175        9.573      198.252      173.574       91.636        0.059        0.023       26.798        7.819        0.085      334.145        3.924      869.647
01/11/2021  11:08:00      101.932       56.438      -21.357       50.873       32.313       22.545     2588.073     1044.124      508.285        0.909        0.207      116.513       24.854        0.046      334.121        3.885      869.651
01/11/2021  11:09:00       26.355       22.468        6.189       62.162       29.575       30.967     3864.129      874.681      958.966        0.347        0.285       34.632       34.232        0.977      334.652        4.767      869.642
01/11/2021  11:10:00       37.607       76.604       -2.199       51.118       30.366       26.684     2613.040      922.094      712.022        0.577        0.212       85.337       27.223        0.102      334.723        4.884      869.630
01/11/2021  11:11:00       20.338       28.239      -13.443       45.702       31.194       25.861     2088.651      973.092      668.792        0.256        0.187       34.800       27.358        0.618      334.568        4.626      869.610
01/11/2021  11:12:00       25.641       -3.543        1.000       42.429       36.868       25.213     1800.188     1359.274      635.673        0.223        0.190       25.885       19.973        0.595      334.812        5.031      869.579
01/11/2021  11:13:00       21.453      -76.509      -17.916       50.194       35.794       25.442     2519.395     1281.209      647.311        0.554        0.222       79.459       28.470        0.128      334.650        4.762      869.551
01/11/2021  11:14:00       30.233      -32.414      -10.146       49.981       54.471       33.131     2498.127     2967.071     1097.631        0.431        0.328       44.325       34.474        0.605      334.943        5.248      869.535
01/11/2021  11:15:00       89.510       57.979      -31.296       44.205       39.681       28.713     1954.121     1574.553      824.435        0.835        0.218      106.647       25.035        0.055      334.499        4.511      869.528
01/11/2021  11:16:00       33.364       44.549      -19.900       39.217       22.251       23.187     1537.984      495.094      537.637        0.303        0.129       55.658       24.674        0.197      334.437        4.408      869.532
01/11/2021  11:17:00      -31.128       17.682        3.101       21.257       24.007       16.696      451.881      576.316      278.753        0.130        0.065       35.800        6.138        0.029      334.870        5.127      869.533
01/11/2021  11:18:00      -27.183       10.724       -7.681       30.625       37.511       21.043      937.904     1407.107      442.819        0.185        0.139       29.222       18.506        0.401      334.845        5.087      869.528
01/11/2021  11:19:00       -9.543       -5.896       13.861       29.677       39.732       22.953      880.720     1578.670      526.860        0.165        0.149       11.217       12.946        1.332      335.144        5.584      869.518
01/11/2021  11:20:00       19.248      -17.986       -9.081       50.104       68.125       36.052     2510.447     4641.038     1299.758        0.461        0.423       26.344       41.137        2.438      335.066        5.454      869.507
01/11/2021  11:21:00       88.622       47.052      -31.625       58.486       57.350       24.485     3420.644     3289.027      599.520        0.919        0.365      100.338       18.041        0.032      334.896        5.172      869.493
01/11/2021  11:22:00       82.594       84.345      -32.012       49.494       25.336       26.056     2449.637      641.935      678.908        0.936        0.189      118.050       25.492        0.047      334.701        4.848      869.467
01/11/2021  11:23:00       30.043       24.301      -10.723       38.951       25.128       25.577     1517.209      631.438      654.207        0.220        0.140       38.641       22.119        0.328      334.946        5.255      869.429
01/11/2021  11:24:00       99.252       79.072      -20.374       36.827       25.922       24.801     1356.235      671.929      615.074        0.958        0.132      126.899       20.881        0.027      334.750        4.929      869.389
01/11/2021  11:25:00       64.020       18.154       -9.053       60.143       55.068       29.680     3617.141     3032.521      880.881        0.602        0.377       66.544       27.784        0.174      335.135        5.567      869.356
01/11/2021  11:26:00       72.117       27.418      -15.917       63.258       64.082       30.045     4001.583     4106.520      902.697        0.761        0.451       77.153       19.406        0.063      335.340        5.910      869.336
01/11/2021  11:27:00       52.595      -22.551      -29.604       47.374       66.964       28.031     2244.285     4484.218      785.716        0.583        0.376       57.225       27.016        0.223      335.320        5.875      869.342
01/11/2021  11:28:00       34.921      -25.338       -8.564       52.052       50.576       39.057     2709.414     2557.904     1525.471        0.436        0.340       43.145       28.283        0.430      335.282        5.812      869.343
01/11/2021  11:29:00      137.365       39.329      -28.230       68.981       66.948       42.290     4758.413     4482.059     1788.429        1.612        0.551      142.885       35.578        0.062      335.026        5.385      869.352
01/11/2021  11:30:00       74.582       -9.447      -19.712       74.347       59.596       55.854     5527.445     3551.642     3119.698        0.912        0.610       75.178       47.049        0.392      335.147        5.589      869.331
01/11/2021  11:31:00       90.407      -53.354      -23.091       65.378       66.825       37.730     4274.290     4465.522     1423.552        1.086        0.508      104.977       38.963        0.138      334.988        5.324      869.303
01/11/2021  11:32:00       64.695      -26.862      -16.943       49.988       50.381       23.827     2498.777     2538.249      567.728        0.540        0.280       70.050       28.237        0.162      335.003        5.350      869.258
01/11/2021  11:33:00       68.443      -16.923       -4.850       56.824       73.372       50.338     3228.968     5383.451     2533.915        0.807        0.557       70.504       40.220        0.325      335.337        5.904      869.204
01/11/2021  11:34:00       94.164       22.403       -6.216       67.704       80.691       35.123     4583.887     6511.107     1233.655        1.087        0.616       96.792       27.495        0.081      335.173        5.631      869.168
01/11/2021  11:35:00       93.598       64.000      -11.352       54.318       81.830       37.806     2950.467     6696.108     1429.294        1.203        0.554      113.387       26.010        0.053      335.184        5.649      869.135
01/11/2021  11:36:00       47.253       23.331       -8.221       53.769       58.644       29.290     2891.148     3439.078      857.877        0.501        0.359       52.699       28.892        0.301      335.270        5.792      869.114
01/11/2021  11:37:00      120.994       27.245      -24.918       87.334       57.778       33.014     7627.178     3338.328     1089.916        1.403        0.603      124.024       40.745        0.108      335.195        5.666      869.096
01/11/2021  11:38:00      167.548       28.733      -16.611       66.941       77.894       36.355     4481.103     6067.413     1321.669        2.052        0.594      169.994       19.075        0.013      335.174        5.632      869.081
01/11/2021  11:39:00       53.051      -32.600       -2.088       68.936       79.585       48.459     4752.158     6333.722     2348.285        0.865        0.672       62.267       39.633        0.405      335.409        6.022      869.065
01/11/2021  11:40:00       94.085      -20.327      -19.389       73.071       80.788       57.085     5339.338     6526.735     3258.672        1.238        0.756       96.255       52.462        0.297      335.167        5.620      869.063
01/11/2021  11:41:00      104.978       22.363      -12.923       63.511       55.698       27.290     4033.598     3102.317      744.725        0.978        0.394      107.333       30.198        0.079      335.075        5.469      869.067
01/11/2021  11:42:00      129.779       78.991      -21.080       61.006       45.040       30.917     3721.733     2028.639      955.857        1.511        0.335      151.928       33.604        0.049      334.979        5.309      869.066
01/11/2021  11:43:00      107.288       31.888      -19.181       73.528       67.662       43.599     5406.315     4578.206     1900.903        1.239        0.594      111.926       34.330        0.094      335.209        5.691      869.063
01/11/2021  11:44:00       41.212       24.832      -14.632       52.720       66.424       38.023     2779.437     4412.183     1445.754        0.558        0.432       48.115       24.832        0.266      335.267        5.788      869.049
01/11/2021  11:45:00      107.600      -14.137      -25.840       64.456       56.211       34.231     4154.636     3159.628     1171.735        1.046        0.424      108.524       33.711        0.096      334.995        5.337      869.045
01/11/2021  11:46:00       72.593      -27.038      -13.285       44.528       29.932       24.761     1982.715      895.914      613.109        0.483        0.175       77.465       26.552        0.117      335.077        5.473      869.019
01/11/2021  11:47:00       51.596      -16.246      -21.155       60.023       66.511       30.588     3602.701     4423.737      935.617        0.617        0.448       54.093       31.384        0.337      335.497        6.170      868.992
01/11/2021  11:48:00      132.645      -14.061       -9.004       95.435       57.306       48.756     9107.792     3284.022     2377.180        1.632        0.738      133.388       55.962        0.176      335.196        5.669      868.964
01/11/2021  11:49:00      110.279        0.012       -9.100       72.769       62.940       48.842     5295.372     3961.385     2385.543        1.194        0.582      110.279       39.506        0.128      335.158        5.607      868.945
01/11/2021  11:50:00       66.724      -27.719       -7.921       61.662       50.048       36.783     3802.236     2504.809     1352.971        0.647        0.383       72.253       42.654        0.349      335.124        5.550      868.935
01/11/2021  11:51:00      123.735      -30.436      -12.760       76.764       61.840       43.285     5892.638     3824.136     1873.563        1.399        0.580      127.423       37.235        0.085      335.135        5.566      868.923
01/11/2021  11:52:00      160.153       -4.246      -26.132       83.096       73.591       51.642     6904.921     5415.579     2666.904        2.067        0.749      160.209       53.128        0.110      335.178        5.639      868.913
01/11/2021  11:53:00       52.707      -24.640      -22.036       61.483       41.832       32.978     3780.099     1749.876     1087.577        0.524        0.331       58.182       30.845        0.281      335.335        5.901      868.907
01/11/2021  11:54:00      -28.284      -33.204       -5.078       35.547       36.935       27.301     1263.572     1364.164      745.329        0.265        0.169       43.618       23.695        0.295      335.391        5.996      868.907
01/11/2021  11:55:00       18.988      -20.837      -11.253       34.785       39.926       24.246     1209.982     1594.096      587.867        0.216        0.170       28.191       20.445        0.526      335.681        6.477      868.893
01/11/2021  11:56:00       93.886       49.718      -10.044       61.315       29.212       25.579     3759.584      853.343      654.290        0.833        0.263      106.238       29.551        0.077      335.278        5.806      868.872
01/11/2021  11:57:00       61.030        0.130      -21.912       52.939       62.289       31.138     2802.586     3879.918      969.568        0.593        0.383       61.030       28.159        0.213      335.563        6.281      868.854
01/11/2021  11:58:00      123.094      -17.301      -29.992       85.670       62.058       37.581     7339.354     3851.227     1412.302        1.447        0.630      124.304       44.162        0.126      335.292        5.828      868.826
01/11/2021  11:59:00       95.094      -14.693      -20.748       69.185       43.031       37.709     4786.560     1851.691     1422.006        0.887        0.403       96.222       40.888        0.181      335.223        5.714      868.809
01/11/2021  12:00:00       94.395       -9.375      -24.946       46.074       42.737       25.965     2122.810     1826.492      674.163        0.712        0.231       94.859       23.766        0.063      335.125        5.552      868.791
01/11/2021  12:01:00      136.364      -29.915      -14.652       60.576       43.747       39.368     3669.438     1913.833     1549.810        1.342        0.357      139.607       37.429        0.072      335.141        5.578      868.769
01/11/2021  12:02:00       91.877      -25.006      -16.385       50.323       40.836       31.697     2532.395     1667.583     1004.669        0.727        0.260       95.219       25.464        0.072      335.237        5.739      868.755
01/11/2021  12:03:00       14.540      -41.589      -18.725       37.757       32.961       21.969     1425.611     1086.409      482.647        0.264        0.150       44.058       25.263        0.329      335.145        5.585      868.735
01/11/2021  12:04:00       78.221       37.847       -2.158       74.589       66.562       36.029     5563.574     4430.447     1298.107        0.942        0.565       86.896       37.847        0.190      335.460        6.109      868.708
01/11/2021  12:05:00      199.750       72.808      -23.984       50.514       33.932       27.146     2551.679     1151.372      736.919        2.511        0.222      212.605       18.853        0.008      335.056        5.436      868.681
01/11/2021  12:06:00      160.448       62.656      -23.672       61.084       32.691       32.511     3731.266     1068.671     1056.965        1.804        0.293      172.248       37.454        0.047      335.096        5.504      868.647
01/11/2021  12:07:00      149.442      104.978      -28.755       65.958       46.573       33.971     4350.507     2169.014     1154.016        2.093        0.384      182.629       32.456        0.032      335.136        5.568      868.610
01/11/2021  12:08:00      137.911       28.562      -27.097       81.817       86.027       41.364     6693.969     7400.612     1710.976        1.818        0.790      140.837       34.959        0.062      335.540        6.241      868.563
01/11/2021  12:09:00      129.167      -10.238      -31.241       93.139       81.932       52.294     8674.944     6712.904     2734.711        1.794        0.906      129.572       29.382        0.051      335.534        6.232      868.525
01/11/2021  12:10:00      103.111       32.311      -22.728       60.885       85.991       48.827     3707.004     7394.372     2384.097        1.284        0.674      108.055       29.593        0.075      335.420        6.041      868.506
01/11/2021  12:11:00      104.889      -46.278      -34.458       51.860       80.876       38.960     2689.482     6540.954     1517.886        1.254        0.537      114.645       18.548        0.026      335.425        6.050      868.485
01/11/2021  12:12:00      100.720     -168.581      -38.113       46.559       49.925       25.547     2167.741     2492.554      652.675        2.266        0.266      196.377       29.712        0.023      335.105        5.518      868.478
01/11/2021  12:13:00      112.244     -107.029      -35.332       42.228       62.869       21.662     1783.238     3952.518      469.243        1.575        0.310      155.094       28.493        0.034      334.977        5.305      868.458
01/11/2021  12:14:00       38.942      -30.108       -5.827       36.762       27.726       21.900     1351.464      768.748      479.627        0.253        0.130       49.223       22.845        0.215      335.373        5.965      868.457
01/11/2021  12:15:00       95.836     -163.078      -35.967       54.427       53.503       32.829     2962.305     2862.620     1077.751        2.199        0.345      189.153       25.431        0.018      335.369        5.956      868.441
01/11/2021  12:16:00      123.387     -148.325      -45.479       46.860       46.524       25.243     2195.862     2164.443      637.193        2.214        0.250      192.937       25.774        0.018      335.137        5.570      868.436
01/11/2021  12:17:00      108.235     -124.922      -33.830       41.670       23.799       23.513     1736.378      566.372      552.878        1.566        0.143      165.288       26.252        0.025      335.150        5.592      868.429
01/11/2021  12:18:00       87.240      -57.842      -24.343       34.147       49.195       19.417     1166.009     2420.149      377.030        0.776        0.198      104.673       22.044        0.044      335.179        5.640      868.418
01/11/2021  12:19:00      -24.797      -42.093      -17.961       60.515       29.712       25.160     3662.015      882.786      633.049        0.394        0.259       48.854       17.560        0.129      335.659        6.439      868.390
01/11/2021  12:20:00       -3.850      -10.198        4.801       42.634       38.741       32.848     1817.639     1500.875     1078.969        0.227        0.220       10.901       21.278        3.810      335.948        6.920      868.361
01/11/2021  12:21:00       -9.936      -63.117      -27.217       49.473       59.397       21.998     2447.592     3528.032      483.899        0.564        0.323       63.894       27.693        0.188      335.900        6.842      868.335
01/11/2021  12:22:00        6.211      -25.089      -18.565       39.013       45.998       27.682     1521.975     2115.773      766.307        0.271        0.220       25.847       23.308        0.813      335.810        6.691      868.313
01/11/2021  12:23:00       -0.274       32.054      -11.154       35.078       29.410       20.577     1230.496      864.945      423.403        0.183        0.126       32.055       15.094        0.222      335.876        6.801      868.296
01/11/2021  12:24:00       32.521       14.033      -18.012       55.748       43.096       29.717     3107.786     1857.245      883.084        0.371        0.292       35.420       34.860        0.969      335.792        6.661      868.271
01/11/2021  12:25:00       51.384        2.986       -9.911       61.156       29.087       30.322     3740.052      846.057      919.450        0.413        0.275       51.470       29.717        0.333      335.965        6.951      868.252
01/11/2021  12:26:00      140.473      -34.639      -27.649       66.656       55.854       33.795     4443.036     3119.628     1142.076        1.520        0.435      144.681       30.632        0.045      335.705        6.517      868.230
01/11/2021  12:27:00       45.202       27.051       -4.112       76.850       54.503       34.049     5905.904     2970.553     1159.311        0.641        0.502       52.678       37.303        0.501      335.828        6.723      868.215
01/11/2021  12:28:00       66.175        2.113      -18.673       75.120       58.297       32.794     5643.049     3398.499     1075.442        0.742        0.506       66.208       27.462        0.172      335.842        6.745      868.209
01/11/2021  12:29:00      101.595       20.309      -28.994       68.670       70.793       35.472     4715.538     5011.655     1258.265        1.128        0.549      103.605       30.261        0.085      335.646        6.418      868.203
01/11/2021  12:30:00       86.197       -2.586      -12.508       65.422       70.918       42.413     4280.019     5029.415     1798.885        0.935        0.555       86.236       36.881        0.183      335.858        6.772      868.183
01/11/2021  12:31:00      147.971       16.755      -31.359       64.916       50.651       30.790     4214.082     2565.480      948.014        1.544        0.386      148.916       28.245        0.036      335.514        6.199      868.165
01/11/2021  12:32:00       61.329       39.880      -13.013       62.230       52.701       18.674     3872.521     2777.343      348.708        0.626        0.350       73.156       22.905        0.098      335.479        6.140      868.136
01/11/2021  12:33:00       78.306      -82.378      -22.686       74.004       57.385       36.893     5476.592     3293.027     1361.066        1.178        0.507      113.657       42.289        0.138      335.844        6.749      868.096
01/11/2021  12:34:00      139.432     -140.864      -41.723       33.220       31.915       18.332     1103.542     1018.575      336.050        2.174        0.123      198.202       15.570        0.006      335.345        5.917      868.055
01/11/2021  12:35:00       90.305     -104.824      -25.276       44.768       50.178       27.557     2004.137     2517.804      759.369        1.253        0.264      138.359       33.856        0.060      335.400        6.006      868.024
01/11/2021  12:36:00       94.274     -134.858      -34.885       52.488       40.122       32.029     2755.012     1609.790     1025.829        1.684        0.270      164.542       26.154        0.025      335.574        6.297      867.990
01/11/2021  12:37:00      112.338      -93.811      -36.570       50.918       44.364       25.086     2592.629     1968.201      629.302        1.397        0.260      146.357       30.718        0.044      335.491        6.160      867.949
01/11/2021  12:38:00        6.215       -6.895       -5.577       53.253       26.959       24.662     2835.914      726.787      608.205        0.214        0.209        9.282       33.624       13.121      335.692        6.494      867.914
01/11/2021  12:39:00       77.050       -2.898      -20.611       53.973       53.547       35.944     2913.036     2867.254     1292.002        0.672        0.354       77.104       31.691        0.169      335.859        6.773      867.878
01/11/2021  12:40:00      129.306        1.891      -27.261       43.693       45.078       28.003     1909.107     2032.064      784.149        1.110        0.236      129.320       16.569        0.016      335.704        6.516      867.854
01/11/2021  12:41:00      127.632      -19.719      -24.331       45.572       60.822       31.523     2076.812     3699.363      993.679        1.202        0.338      129.146       29.253        0.051      335.709        6.522      867.835
01/11/2021  12:42:00       58.698        0.649       -0.724       59.508       51.773       34.088     3541.217     2680.471     1162.001        0.541        0.369       58.701       35.654        0.369      335.822        6.711      867.812
01/11/2021  12:43:00       32.123       -0.727       -5.113       56.341       47.708       26.216     3174.348     2276.062      687.275        0.360        0.307       32.131       32.032        0.994      335.726        6.552      867.811
01/11/2021  12:44:00       37.315       76.509       -0.355       49.842       21.842       26.391     2484.201      477.092      696.460        0.545        0.183       85.124       24.383        0.082      335.695        6.499      867.799
01/11/2021  12:45:00        8.295       32.422        7.299       60.767       38.935       28.966     3692.640     1515.940      839.005        0.361        0.302       33.467       24.474        0.535      336.037        7.070      867.803
01/11/2021  12:46:00       86.535     -126.319      -23.886       56.605       73.110       34.386     3204.111     5345.138     1182.395        1.687        0.487      153.117       32.633        0.045      335.699        6.506      867.816
01/11/2021  12:47:00       80.335      -30.526      -18.372       43.993       82.167       27.930     1935.368     6751.394      780.101        0.859        0.473       85.939       28.302        0.108      335.711        6.527      867.828
01/11/2021  12:48:00      106.945     -174.862      -40.967       38.637       49.596       24.138     1492.812     2459.745      582.632        2.411        0.227      204.973       23.867        0.014      335.557        6.267      867.828
01/11/2021  12:49:00      126.403     -100.513      -31.969       47.789       62.457       25.709     2283.808     3900.847      660.929        1.697        0.342      161.495       34.415        0.045      335.585        6.316      867.823
01/11/2021  12:50:00       66.300      -33.882      -28.992       38.529       26.881       18.427     1484.455      722.567      339.549        0.446        0.127       74.456       24.173        0.105      335.626        6.386      867.834
01/11/2021  12:51:00       -0.491       21.816       -3.190       29.277       12.230       20.209      857.141      149.574      408.394        0.095        0.071       21.821       19.303        0.782      335.846        6.752      867.820
01/11/2021  12:52:00      -24.924        2.040        0.912       32.774       27.516       20.967     1074.131      757.136      439.628        0.145        0.114       25.007        9.701        0.150      336.166        7.286      867.793
01/11/2021  12:53:00       10.351        3.076        1.635       30.124       32.529       23.273      907.443     1058.111      541.650        0.131        0.125       10.798       19.425        3.236      336.367        7.622      867.766
01/11/2021  12:54:00      103.931      -86.615      -35.035       90.339       79.502       34.073     8161.120     6320.507     1160.983        1.758        0.782      135.292       48.699        0.130      336.168        7.288      867.731
01/11/2021  12:55:00      123.670     -155.237      -41.076       53.713       82.900       33.955     2885.046     6872.428     1152.947        2.599        0.546      198.476       32.285        0.026      335.822        6.709      867.697
01/11/2021  12:56:00      104.528     -106.348      -28.476       45.300       81.283       32.987     2052.045     6606.887     1088.139        1.639        0.487      149.117       43.087        0.083      335.858        6.771      867.676
01/11/2021  12:57:00       81.777      -57.839      -25.192       55.667       44.242       31.068     3098.849     1957.365      965.239        0.834        0.301      100.164       38.495        0.148      335.993        6.996      867.633
01/11/2021  12:58:00      111.574     -164.886      -35.877       48.709       67.319       27.983     2372.614     4531.878      783.030        2.430        0.384      199.088       27.439        0.019      335.742        6.576      867.593
01/11/2021  12:59:00      164.228     -156.063      -40.122       57.397       57.588       29.989     3294.453     3316.399      899.369        3.022        0.376      226.553       34.391        0.023      335.723        6.545      867.557
01/11/2021  13:00:00      117.791     -148.496      -36.419       55.316       36.757       28.664     3059.893     1351.053      821.603        2.124        0.262      189.541       32.018        0.029      335.706        6.518      867.540
01/11/2021  13:01:00      127.503      -77.107      -24.465       73.814       75.566       35.727     5448.547     5710.202     1276.451        1.762        0.622      149.005       35.189        0.056      335.995        6.997      867.524
01/11/2021  13:02:00      106.738       18.049      -20.216       56.507       53.625       32.244     3193.050     2875.623     1039.685        0.962        0.355      108.253       29.074        0.072      335.937        6.903      867.522
01/11/2021  13:03:00        5.724      -51.715       -6.377       51.881       35.704       24.439     2691.650     1274.774      597.267        0.365        0.228       52.031       24.788        0.227      336.236        7.402      867.509
01/11/2021  13:04:00       95.016     -120.809      -21.547       58.329       53.817       34.838     3402.214     2896.229     1213.689        1.580        0.376      153.697       34.529        0.050      335.932        6.895      867.504
01/11/2021  13:05:00       67.287      -68.203      -27.363       45.617       64.045       26.517     2080.888     4101.801      703.177        0.841        0.344       95.808       21.721        0.051      335.988        6.990      867.491
01/11/2021  13:06:00      101.582       87.731      -12.408       60.369       43.012       26.293     3644.368     1850.061      691.318        1.218        0.309      134.222       21.522        0.026      335.987        6.985      867.476
01/11/2021  13:07:00       82.805      -20.595       -5.143       71.579       58.613       37.262     5123.516     3435.465     1388.472        0.863        0.497       85.328       36.369        0.182      336.316        7.536      867.454
01/11/2021  13:08:00       57.242       25.933      -16.153       72.346       69.102       35.314     5234.003     4775.143     1247.073        0.773        0.563       62.842       25.271        0.162      336.353        7.596      867.425
01/11/2021  13:09:00       84.542       20.867      -15.358       74.855       76.274       45.076     5603.337     5817.798     2031.874        1.063        0.673       87.079       34.072        0.153      336.391        7.660      867.394
01/11/2021  13:10:00       93.963     -146.118      -31.004       73.145       71.434       39.888     5350.211     5102.782     1591.031        2.159        0.602      173.723       42.586        0.060      336.272        7.462      867.372
01/11/2021  13:11:00      129.701     -144.586      -54.550       50.289       60.559       30.735     2528.969     3667.414      944.636        2.392        0.357      194.236       27.545        0.020      336.184        7.313      867.341
01/11/2021  13:12:00      117.283     -119.911      -33.549       70.554       66.221       33.402     4977.921     4385.184     1115.682        1.987        0.524      167.731       40.314        0.058      336.132        7.228      867.318
01/11/2021  13:13:00      137.532       -2.212      -25.035       83.466       89.736       50.078     6966.535     8052.491     2507.827        1.853        0.876      137.550       44.347        0.104      336.248        7.422      867.283
01/11/2021  13:14:00       60.657       15.092       -6.375       80.347       66.267       49.744     6455.587     4391.301     2474.426        0.863        0.666       62.507       40.048        0.410      336.283        7.481      867.248
01/11/2021  13:15:00      106.803       13.577      -33.806       64.155       76.742       43.223     4115.848     5889.320     1868.185        1.230        0.594      107.662       33.911        0.099      336.248        7.422      867.223
01/11/2021  13:16:00      114.855      -46.564      -26.535       57.901       74.109       43.015     3352.484     5492.080     1850.290        1.338        0.535      123.935       38.518        0.097      336.296        7.502      867.196
01/11/2021  13:17:00      102.683      -13.262      -18.287       52.456       64.601       28.265     2751.675     4173.307      798.918        0.939        0.386      103.536       26.377        0.065      336.155        7.266      867.174
01/11/2021  13:18:00       66.654      -44.552      -12.919       43.341       52.201       29.976     1878.421     2724.953      898.588        0.605        0.275       80.173       24.995        0.097      336.202        7.346      867.146
01/11/2021  13:19:00      140.556      -87.117      -30.129       38.507       46.185       29.048     1482.776     2133.044      843.797        1.636        0.223      165.365       27.891        0.028      336.077        7.137      867.119
01/11/2021  13:20:00       68.245      -45.005      -13.992       49.829       48.617       24.857     2482.917     2363.596      617.860        0.617        0.273       81.749       20.739        0.064      336.271        7.460      867.101
01/11/2021  13:21:00      100.972      -23.465      -14.763       30.459       35.868       20.742      927.743     1286.483      430.236        0.680        0.132      103.662       13.425        0.017      336.189        7.324      867.073
01/11/2021  13:22:00       90.602       64.106      -17.430       31.371       45.876       22.332      984.116     2104.592      498.727        0.810        0.179      110.988       14.799        0.018      336.266        7.452      867.049
01/11/2021  13:23:00       67.535      -12.814       -3.809       69.785       56.296       33.949     4869.909     3169.189     1152.525        0.696        0.460       68.740       28.697        0.174      336.524        7.884      867.023
01/11/2021  13:24:00       95.110     -111.835      -35.582       79.549       78.887       37.913     6328.075     6223.089     1437.372        1.840        0.699      146.809       34.709        0.056      336.544        7.917      866.990
01/11/2021  13:25:00      144.704     -133.219      -43.994       37.431       76.076       27.331     1401.081     5787.563      746.969        2.428        0.397      196.689       34.721        0.031      336.117        7.201      866.968
01/11/2021  13:26:00       72.165      -23.567      -17.236       40.559       33.781       23.912     1645.058     1141.140      571.791        0.471        0.168       75.916       23.518        0.096      336.318        7.539      866.948
01/11/2021  13:27:00       57.362      -56.423      -28.419       54.866       57.433       36.258     3010.266     3298.537     1314.624        0.745        0.381       80.461       28.194        0.123      336.447        7.756      866.925
01/11/2021  13:28:00       26.959      -24.631       -8.364       34.896       32.424       21.265     1217.728     1051.314      452.198        0.206        0.136       36.517       23.651        0.419      336.379        7.640      866.902
01/11/2021  13:29:00       39.205        1.813       -1.057       30.223       21.281       20.847      913.400      452.866      434.590        0.167        0.090       39.247       18.674        0.226      336.501        7.845      866.892
01/11/2021  13:30:00       63.989        1.958      -10.599       21.168       32.492       16.290      448.075     1055.724      265.356        0.299        0.088       64.019       12.457        0.038      336.455        7.769      866.875
01/11/2021  13:31:00       34.277       15.741        5.095       35.928       14.584       19.722     1290.785      212.701      388.956        0.167        0.095       37.718       21.995        0.340      336.683        8.149      866.859
01/11/2021  13:32:00       16.450      -26.476       -8.432       52.407       38.710       23.700     2746.540     1498.444      561.668        0.292        0.240       31.170       15.099        0.235      336.670        8.128      866.844
01/11/2021  13:33:00       78.518       10.535      -15.468       74.803       61.947       39.468     5595.490     3837.421     1557.689        0.875        0.550       79.222       44.877        0.321      336.523        7.882      866.835
01/11/2021  13:34:00       33.969      -39.626      -17.155       63.950       54.708       32.295     4089.552     2992.985     1042.941        0.557        0.406       52.193       26.860        0.265      336.596        8.004      866.823
01/11/2021  13:35:00       -0.831       -8.529       -3.927       37.333       39.189       22.948     1393.785     1535.800      526.595        0.177        0.173        8.569       19.370        5.109      336.735        8.237      866.828
01/11/2021  13:36:00       -5.106       13.416      -10.889       27.386       33.697       18.483      749.966     1135.501      341.617        0.128        0.111       14.355       14.819        1.066      336.859        8.444      866.811
01/11/2021  13:37:00       49.751       59.186       -4.447       96.799       48.602       41.999     9370.092     2362.107     1763.888        0.974        0.675       77.319       12.339        0.025      336.692        8.165      866.789
01/11/2021  13:38:00        5.798     -101.597      -22.978       64.917       36.409       25.660     4214.258     1325.641      658.437        0.854        0.310      101.763       16.273        0.026      336.653        8.098      866.769
01/11/2021  13:39:00       60.369      -80.515      -22.481       45.490       56.691       25.455     2069.369     3213.837      647.945        0.828        0.297      100.633       28.191        0.078      336.757        8.273      866.766
01/11/2021  13:40:00      -16.976      -31.186       -9.131       49.550       35.463       29.087     2455.205     1257.630      846.072        0.295        0.228       35.507       15.231        0.184      336.974        8.637      866.747
01/11/2021  13:41:00       28.378       15.930       -9.434       58.120       49.884       29.412     3377.990     2488.383      865.060        0.394        0.337       32.544        9.483        0.085      336.874        8.469      866.740
01/11/2021  13:42:00       25.057      -33.367        3.437       39.518       31.542       23.894     1561.691      994.894      570.905        0.244        0.156       41.727       11.272        0.073      337.045        8.754      866.735
01/11/2021  13:43:00        6.928       -7.918      -10.239       44.122       32.582       14.569     1946.767     1061.583      212.259        0.172        0.161       10.521       15.454        2.158      336.908        8.526      866.734
01/11/2021  13:44:00       12.657      -53.025       -2.438       28.496       37.091       22.996      811.997     1375.721      528.826        0.285        0.136       54.514       21.565        0.156      337.066        8.791      866.729
01/11/2021  13:45:00       60.734      -32.962       -6.741       53.028       45.144       33.292     2811.944     2037.979     1108.383        0.539        0.298       69.103       25.463        0.136      336.880        8.478      866.713
01/11/2021  13:46:00       49.513      -44.066       -8.591       32.393       31.712       16.838     1049.331     1005.652      283.527        0.340        0.117       66.282       12.640        0.036      336.786        8.322      866.704
01/11/2021  13:47:00       42.771      -49.525      -11.265       46.099       62.588       24.497     2125.115     3917.240      600.102        0.552        0.332       65.438       30.777        0.221      336.900        8.513      866.690
01/11/2021  13:48:00       40.913      -47.659       -8.082       40.178       38.882       23.420     1614.253     1511.819      548.508        0.384        0.184       62.812       19.228        0.094      337.155        8.938      866.681
01/11/2021  13:49:00       83.145     -131.907      -39.122       56.265       65.279       32.764     3165.698     4261.369     1073.499        1.717        0.425      155.924       33.404        0.046      336.845        8.419      866.685
01/11/2021  13:50:00       56.110      -72.523      -11.643       36.441       49.677       25.317     1327.917     2467.790      640.953        0.649        0.222       91.694       20.410        0.050      336.743        8.250      866.689
01/11/2021  13:51:00      103.089      -12.595      -14.096       27.412       42.961       20.491      751.438     1845.673      419.870        0.700        0.151      103.856       15.173        0.021      336.588        7.991      866.687
01/11/2021  13:52:00       82.778       23.718      -16.885       26.384       37.837       21.970      696.116     1431.622      482.695        0.515        0.131       86.109       15.676        0.033      336.561        7.946      866.703
01/11/2021  13:53:00       27.043       57.944        0.586       31.537       20.996       20.931      994.589      440.849      438.087        0.298        0.094       63.944       16.150        0.064      336.670        8.126      866.700
01/11/2021  13:54:00        1.470       43.161      -12.477       15.848       24.486       14.635      251.151      599.565      214.177        0.154        0.053       43.186       10.877        0.063      336.869        8.460      866.715
01/11/2021  13:55:00      -38.060       30.622       12.211       38.642       32.912       20.645     1493.177     1083.228      426.200        0.277        0.150       48.850       11.962        0.060      337.277        9.143      866.706
01/11/2021  13:56:00      -50.974       15.795       -3.271       51.415       36.091       23.791     2643.528     1302.536      566.025        0.368        0.226       53.365       22.099        0.171      337.180        8.980      866.706
01/11/2021  13:57:00      -38.828      -18.296        7.321       50.214       45.564       21.788     2521.464     2076.042      474.718        0.348        0.254       42.923       17.017        0.157      337.265        9.123      866.703
01/11/2021  13:58:00      -10.012      -35.989       -5.709       22.680       16.177       18.700      514.377      261.694      349.698        0.128        0.056       37.355        7.956        0.045      337.126        8.891      866.710
01/11/2021  13:59:00      -30.210      -31.279       -8.814       33.339       20.542       15.389     1111.463      421.973      236.809        0.187        0.089       43.486       12.297        0.080      336.995        8.670      866.718
01/11/2021  14:00:00      -99.979      -57.235       -8.893       59.076       48.461       25.557     3489.954     2348.484      653.180        0.992        0.325      115.203       21.462        0.035      336.932        8.566      866.723
01/11/2021  14:01:00      -93.868      -66.844      -17.683       47.363       44.438       32.424     2243.276     1974.756     1051.320        0.943        0.263      115.236       31.834        0.076      336.821        8.380      866.724
01/11/2021  14:02:00      -50.181      -10.537       -3.099       49.057       49.164       30.447     2406.574     2417.148      927.044        0.419        0.288       51.276       29.878        0.340      337.113        8.868      866.728
01/11/2021  14:03:00      -71.849      -21.829       -1.164       49.472       46.694       30.178     2447.431     2180.303      910.690        0.559        0.277       75.092       21.940        0.085      337.175        8.972      866.737
01/11/2021  14:04:00     -124.495      -53.553      -19.547       47.621       51.971       35.868     2267.733     2700.992     1286.539        1.250        0.313      135.524       13.905        0.011      336.895        8.504      866.733
01/11/2021  14:05:00      -53.352      -14.421       -0.572       43.143       44.089       29.058     1861.361     1943.855      844.389        0.385        0.232       55.266       23.453        0.180      337.146        8.924      866.736
01/11/2021  14:06:00      -82.889      -30.643       -0.411       57.152       34.674       27.548     3266.332     1202.301      758.897        0.652        0.261       88.371       21.815        0.061      337.096        8.841      866.744
01/11/2021  14:07:00       -9.742       -1.918       12.463       32.806       53.292       24.803     1076.231     2840.009      615.207        0.239        0.227        9.929       21.024        4.484      337.364        9.288      866.762
01/11/2021  14:08:00      -25.059      -30.282       -3.095       42.400       39.763       25.288     1797.766     1581.117      639.493        0.279        0.201       39.306       14.525        0.137      337.303        9.186      866.773
01/11/2021  14:09:00      -60.009       -9.020        9.983       40.299       28.942       20.564     1623.993      837.663      422.876        0.333        0.144       60.683       20.085        0.110      337.274        9.138      866.783
01/11/2021  14:10:00      -49.283       64.287        7.139       26.116       23.312       23.969      682.055      543.451      574.522        0.421        0.090       81.004       16.246        0.040      336.901        8.514      866.787
01/11/2021  14:11:00      -11.941       31.321       -2.559       31.086       19.859       18.883      966.340      394.391      356.553        0.142        0.086       33.520        6.967        0.043      337.161        8.947      866.800
01/11/2021  14:12:00      -48.313        8.062        1.724       25.140       22.056       15.960      632.019      486.453      254.718        0.189        0.069       48.981       10.655        0.047      337.136        8.906      866.818
01/11/2021  14:13:00      -35.958       -0.069        5.525       48.550       33.935       20.201     2357.081     1151.598      408.100        0.262        0.196       35.958       22.333        0.386      337.311        9.199      866.829
01/11/2021  14:14:00       -5.940      -50.157        3.958       33.903       23.929       25.292     1149.386      572.584      639.665        0.246        0.118       50.508       17.870        0.125      337.404        9.355      866.852
01/11/2021  14:15:00       11.793      -37.199       -6.061       58.781       53.894       34.349     3455.245     2904.532     1179.853        0.455        0.377       39.023       24.460        0.393      337.368        9.295      866.872
01/11/2021  14:16:00       37.048      -79.885      -16.333       39.755       40.670       29.334     1580.496     1654.055      860.485        0.606        0.205       88.057       25.063        0.081      337.136        8.905      866.892
01/11/2021  14:17:00      -31.902      -34.486        9.282       63.825       41.228       30.633     4073.613     1699.771      938.376        0.450        0.336       46.978       29.784        0.402      337.316        9.208      866.918
01/11/2021  14:18:00      -77.494      -30.267       -0.154       78.152       35.658       31.872     6107.797     1271.521     1015.802        0.766        0.420       83.196       27.757        0.111      337.234        9.070      866.952
01/11/2021  14:19:00      -31.966       -8.088       -3.409       46.872       31.960       22.136     2196.969     1021.432      490.000        0.240        0.185       32.973       19.574        0.352      337.356        9.274      866.994
01/11/2021  14:20:00      -52.761      -53.355      -18.148       39.896       47.616       30.187     1591.682     2267.310      911.234        0.536        0.239       75.036       12.883        0.029      337.155        8.939      867.036
01/11/2021  14:21:00       -6.249       33.744       -0.522       46.691       37.376       20.675     2180.011     1396.994      427.460        0.259        0.200       34.318       14.490        0.178      337.071        8.796      867.095
01/11/2021  14:22:00      -70.821      -31.460       -1.854       28.979       35.619       19.552      839.782     1268.745      382.274        0.425        0.125       77.494       14.861        0.037      337.083        8.818      867.152
01/11/2021  14:23:00       -4.131       -8.916       17.056       26.974       37.878       20.492      727.574     1434.742      419.904        0.148        0.129        9.826       21.932        4.982      337.364        9.289      867.203
01/11/2021  14:24:00      -79.672      -11.474       -5.333       53.482       34.507       29.693     2860.311     1190.699      881.663        0.572        0.247       80.494       25.614        0.101      337.224        9.053      867.247
01/11/2021  14:25:00     -185.114      -10.408      -11.749       75.913       45.196       35.805     5762.752     2042.665     1281.971        2.180        0.454      185.406       38.356        0.043      337.097        8.841      867.292
01/11/2021  14:26:00     -168.595      -88.196       -3.208       63.051       59.656       39.598     3975.399     3558.861     1568.001        2.266        0.455      190.270       36.090        0.036      337.043        8.748      867.327
01/11/2021  14:27:00     -160.376      -38.513       -3.137      106.859       55.843       43.012    11418.878     3118.423     1850.074        2.180        0.819      164.936       45.438        0.076      337.105        8.851      867.362
01/11/2021  14:28:00     -131.441      -12.375       -7.901      114.848       72.811       49.300    13190.157     5301.481     2430.499        1.920        1.046      132.022       57.161        0.187      337.129        8.893      867.388
01/11/2021  14:29:00      -56.447       -5.333        5.118       92.731       51.251       35.605     8598.955     2626.669     1267.727        0.786        0.625       56.699       36.789        0.421      337.249        9.096      867.415
01/11/2021  14:30:00     -103.639       -6.595        0.315       51.915       30.449       30.138     2695.182      927.132      908.289        0.766        0.227      103.848       22.513        0.047      337.126        8.888      867.422
01/11/2021  14:31:00      -53.731      -30.334      -15.889       38.720       13.141       17.154     1499.245      172.694      294.251        0.301        0.098       61.702       14.737        0.057      337.005        8.689      867.420
01/11/2021  14:32:00      -44.034        8.723       -9.351       30.689       19.931       18.657      941.823      397.229      348.087        0.189        0.084       44.890        9.551        0.045      337.209        9.028      867.399
01/11/2021  14:33:00      -74.522       35.069       -7.638       31.832       21.233       20.605     1013.262      450.832      424.549        0.436        0.094       82.361       15.106        0.034      337.352        9.267      867.385
01/11/2021  14:34:00      -34.551       34.646       -4.690       48.805       22.903       18.040     2381.974      524.546      325.438        0.282        0.162       48.930        8.586        0.031      337.278        9.144      867.375
01/11/2021  14:35:00        6.160       30.045      -10.136       36.725       23.382       19.104     1348.747      546.701      364.963        0.165        0.113       30.670       15.406        0.252      337.468        9.464      867.362
01/11/2021  14:36:00       -2.535        0.422       -5.923       27.163       29.876       21.375      737.840      892.604      456.899        0.106        0.104        2.570       18.253       50.434      337.522        9.553      867.354
01/11/2021  14:37:00      -29.435        7.522       -8.502       28.616       15.054       18.086      818.878      226.614      327.095        0.118        0.069       30.381       11.795        0.151      337.305        9.188      867.347
01/11/2021  14:38:00      -19.863      -28.330       13.069       37.612       41.094       22.306     1414.675     1688.738      497.550        0.248        0.180       34.600       17.560        0.258      337.515        9.541      867.328
01/11/2021  14:39:00      -38.782      -36.368      -14.652       28.520       19.732       15.278      813.370      389.360      233.426        0.224        0.072       53.166       16.808        0.100      337.247        9.094      867.300
01/11/2021  14:40:00        5.586        6.065       -0.690       35.370       17.192       18.388     1251.028      295.553      338.130        0.098        0.094        8.245       19.581        5.640      337.472        9.469      867.251
01/11/2021  14:41:00       71.161      -16.723       -4.954       69.142       55.167       42.800     4780.567     3043.437     1831.855        0.751        0.483       73.099       46.374        0.402      337.457        9.445      867.176
01/11/2021  14:42:00       75.255       10.049       -3.438       65.824       69.080       37.601     4332.778     4772.004     1413.804        0.815        0.526       75.923       34.440        0.206      337.388        9.328      867.147
01/11/2021  14:43:00      114.384       63.512      -14.429       44.196       27.330       23.115     1953.326      746.907      534.289        1.028        0.162      130.834       18.858        0.021      337.145        8.921      867.136
01/11/2021  14:44:00       94.928       19.779      -10.337       73.569       47.626       30.644     5412.414     2268.233      939.049        0.906        0.431       96.967       34.701        0.128      337.312        9.200      867.128
01/11/2021  14:45:00      103.738      -31.168       -8.413       81.337       52.455       48.369     6615.651     2751.543     2339.512        1.175        0.585      108.319       52.170        0.232      337.298        9.178      867.096
01/11/2021  14:46:00      111.799      -19.250      -21.343       44.800       33.516       26.546     2007.038     1123.352      704.711        0.858        0.192      113.445       23.559        0.043      337.208        9.028      867.083
01/11/2021  14:47:00      132.311       15.447      -14.533       44.207       34.028       24.138     1954.231     1157.887      582.655        1.082        0.185      133.210       22.929        0.030      337.166        8.955      867.045
01/11/2021  14:48:00       44.480       31.323       -6.686       63.799       42.959       29.135     4070.341     1845.453      848.826        0.488        0.338       54.402       34.343        0.399      337.521        9.550      866.996
01/11/2021  14:49:00       77.021        5.118       -3.071       59.443       68.077       36.841     3533.424     4634.538     1357.264        0.774        0.476       77.191       17.347        0.051      337.535        9.574      866.965
01/11/2021  14:50:00      140.507       -0.084       -5.169       74.057       65.879       39.808     5484.488     4339.977     1584.657        1.559        0.570      140.507       39.051        0.077      337.346        9.256      866.953
01/11/2021  14:51:00      149.677       91.540      -12.253       52.524       40.006       29.666     2758.722     1600.443      880.079        1.809        0.262      175.451       21.034        0.014      337.176        8.973      866.950
01/11/2021  14:52:00       83.289       27.605       -8.569       56.763       56.970       25.176     3222.009     3245.628      633.827        0.744        0.355       87.744       20.908        0.057      337.284        9.155      866.955
01/11/2021  14:53:00       79.052      -32.674       -8.578       61.869       47.128       34.999     3827.794     2221.094     1224.895        0.733        0.364       85.538       41.995        0.241      337.392        9.334      866.951
01/11/2021  14:54:00       81.293      -92.966      -31.194       52.186       69.607       24.090     2723.382     4845.142      580.324        1.218        0.407      123.496       26.603        0.046      337.361        9.283      866.951
01/11/2021  14:55:00       73.868      -49.984      -16.523       42.765       57.903       25.468     1828.882     3352.797      648.613        0.703        0.292       89.190       23.136        0.067      337.426        9.391      866.938
01/11/2021  14:56:00       88.696      -37.690      -21.009       73.294       80.039       34.157     5371.938     6406.221     1166.677        1.133        0.647       96.372       17.880        0.034      337.428        9.395      866.904
01/11/2021  14:57:00      132.569      -59.561      -18.323       71.680       58.794       36.463     5138.070     3456.706     1329.578        1.569        0.496      145.335       39.196        0.073      337.310        9.197      866.869
01/11/2021  14:58:00      126.957      -29.462      -20.036       56.578       67.533       31.830     3201.031     4560.686     1013.130        1.308        0.439      130.331       30.230        0.054      337.391        9.333      866.836
01/11/2021  14:59:00       93.224       34.045      -26.489       55.788       67.415       31.955     3112.281     4544.818     1021.119        0.961        0.434       99.246       20.095        0.041      337.430        9.399      866.801
01/11/2021  15:00:00      141.068       23.619      -10.082       85.235       80.834       36.415     7265.087     6534.155     1326.031        1.784        0.756      143.031       38.362        0.072      337.423        9.386      866.768
01/11/2021  15:01:00      236.073       15.809      -18.293       85.374       83.291       47.077     7288.803     6937.356     2216.231        3.638        0.822      236.602       42.324        0.032      337.304        9.185      866.741
01/11/2021  15:02:00      148.721       66.209       -6.082       90.834       71.870       40.544     8250.874     5165.327     1643.833        2.080        0.753      162.793       52.087        0.102      337.348        9.260      866.738
01/11/2021  15:03:00       55.245        6.686       -3.604       64.204       55.796       32.853     4122.140     3113.224     1079.335        0.571        0.416       55.648       32.347        0.338      337.496        9.509      866.737
01/11/2021  15:04:00       75.605      -12.291      -24.315       60.590       67.491       42.531     3671.205     4555.068     1808.913        0.824        0.502       76.598       21.569        0.079      337.452        9.434      866.735
01/11/2021  15:05:00      140.348       22.997       -7.287       58.620       50.694       37.338     3436.291     2569.889     1394.124        1.384        0.370      142.220       29.139        0.042      337.363        9.287      866.713
01/11/2021  15:06:00      168.522       40.230       -9.994       58.281       56.484       34.541     3396.618     3190.444     1193.114        1.895        0.389      173.258       24.643        0.020      337.430        9.399      866.692
01/11/2021  15:07:00       83.491      -20.580       -5.367      121.156       90.483       72.224    14678.682     8187.148     5216.268        1.775        1.404       85.990       61.635        0.514      337.474        9.473      866.659
01/11/2021  15:08:00      226.441       -4.401      -12.751      127.206       75.344       54.693    16181.437     5676.650     2991.300        3.815        1.242      226.484       56.561        0.062      337.401        9.346      866.655
01/11/2021  15:09:00      179.884       -2.271      -12.477      111.074       61.571       49.601    12337.425     3790.983     2460.210        2.555        0.929      179.898       48.448        0.073      337.350        9.262      866.667
01/11/2021  15:10:00       97.711      -10.620       -7.650       70.898       72.959       50.582     5026.542     5323.084     2558.556        1.131        0.645       98.287       41.150        0.175      337.431        9.399      866.666
01/11/2021  15:11:00      121.382      -10.003      -14.376       72.257       68.053       40.122     5221.031     4631.237     1609.813        1.325        0.573      121.793       41.445        0.116      337.464        9.455      866.677
01/11/2021  15:12:00      190.216       41.316       -6.463      117.257       98.236       53.828    13749.184     9650.276     2897.438        3.211        1.315      194.652       56.011        0.083      337.355        9.271      866.675
01/11/2021  15:13:00      189.746       54.821      -11.519       73.758       56.748       38.895     5440.263     3220.282     1512.796        2.466        0.509      197.507       25.690        0.017      337.382        9.315      866.678
01/11/2021  15:14:00      122.841       40.109       -5.527       74.424       78.087       31.436     5538.960     6097.655      988.198        1.467        0.631      129.223       25.019        0.037      337.451        9.433      866.690
01/11/2021  15:15:00      134.748       18.171        0.463       87.976       68.574       41.954     7739.844     4702.376     1760.123        1.634        0.710      135.968       23.430        0.030      337.449        9.429      866.690
01/11/2021  15:16:00      103.832       20.417        2.992       66.522       93.357       58.666     4425.158     8715.593     3441.720        1.389        0.829      105.820       40.153        0.144      337.465        9.456      866.703
01/11/2021  15:17:00      182.604       90.041      -27.388       72.180       58.498       39.818     5209.971     3421.973     1585.460        2.621        0.511      203.596       39.671        0.038      337.399        9.345      866.708
01/11/2021  15:18:00      178.142       94.062      -18.816       85.115       86.605       43.263     7244.616     7500.361     1871.713        2.877        0.831      201.450       22.772        0.013      337.354        9.268      866.725
01/11/2021  15:19:00      173.245       43.609      -13.712       77.699       94.746       37.114     6037.191     8976.896     1377.461        2.424        0.820      178.649       29.785        0.028      337.425        9.387      866.738
01/11/2021  15:20:00      119.555       20.582       -2.410       88.403       50.645       36.479     7815.114     2564.869     1330.725        1.321        0.586      121.314       40.927        0.114      337.437        9.410      866.745
01/11/2021  15:21:00       63.512      -41.121       -1.418       71.439       76.823       46.169     5103.506     5901.803     2131.609        0.943        0.657       75.662       44.315        0.343      337.464        9.456      866.728
01/11/2021  15:22:00       78.997       27.118      -10.047       59.296       70.528       44.651     3516.036     4974.132     1993.747        0.878        0.524       83.522       28.221        0.114      337.485        9.490      866.709
01/11/2021  15:23:00      177.652       42.431      -20.132       70.516       43.371       30.235     4972.574     1881.068      914.158        2.077        0.388      182.649       19.577        0.011      337.317        9.207      866.692
01/11/2021  15:24:00      118.935       49.309      -11.385       33.268       26.796       18.711     1106.756      718.009      350.110        0.944        0.109      128.751       16.208        0.016      337.226        9.059      866.689
01/11/2021  15:25:00       54.290       32.761      -12.571       39.936       40.411       14.322     1594.886     1633.027      205.126        0.381        0.172       63.409       15.343        0.059      337.362        9.284      866.689
01/11/2021  15:26:00      149.320      -42.835       -9.579       82.093       37.604       33.051     6739.273     1414.094     1092.352        1.673        0.462      155.343       26.939        0.030      337.422        9.384      866.686
01/11/2021  15:27:00       64.516      -14.232       -4.984       97.919       71.303       59.395     9588.170     5084.104     3527.754        1.129        0.910       66.068       55.888        0.716      337.534        9.572      866.682
01/11/2021  15:28:00       25.636      -11.052      -13.969       63.854       60.263       36.809     4077.364     3631.625     1354.881        0.502        0.453       27.917       34.141        1.496      337.558        9.613      866.700
01/11/2021  15:29:00       39.679      -14.569      -10.590       50.134       30.309       24.581     2513.459      918.650      604.224        0.297        0.202       42.269       26.039        0.379      337.493        9.502      866.688
01/11/2021  15:30:00       89.076        6.157       -8.191       90.593       31.333       27.515     8207.169      981.759      757.081        0.899        0.497       89.289       34.885        0.153      337.489        9.497      866.678
01/11/2021  15:31:00      170.241       35.426      -22.639       50.468       55.188       24.020     2546.975     3045.723      576.962        1.846        0.308      173.888       25.285        0.021      337.350        9.264      866.665
01/11/2021  15:32:00       85.146       32.773      -10.197       39.192       39.694       21.643     1536.007     1575.643      468.423        0.600        0.179       91.235       19.462        0.046      337.404        9.356      866.651
01/11/2021  15:33:00       78.780       35.790       -8.037       29.539       17.293       13.619      872.541      299.059      185.487        0.445        0.068       86.529       10.948        0.016      337.326        9.225      866.630
01/11/2021  15:34:00       32.106        9.607       -7.983       29.133       22.610       16.599      848.711      511.196      275.528        0.141        0.082       33.512       16.107        0.231      337.461        9.450      866.608
01/11/2021  15:35:00       83.552       53.047        2.161       57.473       54.146       32.418     3303.195     2931.782     1050.898        0.854        0.364       98.969       32.391        0.107      337.448        9.428      866.598
01/11/2021  15:36:00      139.157       38.340      -16.651       67.857       68.835       38.711     4604.593     4738.285     1498.560        1.597        0.542      144.342       35.991        0.062      337.512        9.535      866.588
01/11/2021  15:37:00       66.050       29.353       -0.805       54.799       47.581       24.842     3002.980     2263.953      617.125        0.555        0.294       72.279       23.358        0.104      337.457        9.442      866.599
01/11/2021  15:38:00       55.169       64.828        2.705       47.943       42.664       30.941     2298.533     1820.234      957.336        0.616        0.254       85.125       25.078        0.087      337.475        9.473      866.604
01/11/2021  15:39:00       60.106       54.608       -1.109       59.984       28.157       27.126     3598.133      792.807      735.807        0.586        0.256       81.209       23.747        0.086      337.510        9.533      866.601
01/11/2021  15:40:00       51.741       69.012       -3.888       45.692       37.328       25.511     2087.715     1393.408      650.810        0.579        0.207       86.254       27.884        0.105      337.466        9.458      866.598
01/11/2021  15:41:00       40.862       56.757       -2.576       33.522       48.059       26.907     1123.716     2309.677      723.981        0.453        0.208       69.936       26.075        0.139      337.466        9.460      866.594
01/11/2021  15:42:00       60.145       34.517      -15.591       57.814       42.386       20.355     3342.420     1796.571      414.344        0.530        0.278       69.346       13.394        0.037      337.508        9.527      866.589
01/11/2021  15:43:00       39.999       30.578       -5.542       37.324       32.996       21.724     1393.063     1088.752      471.932        0.276        0.148       50.348       14.452        0.082      337.473        9.469      866.584
01/11/2021  15:44:00       42.930       37.065       -4.228       36.176       15.719       18.814     1308.691      247.084      353.982        0.257        0.095       56.717       13.858        0.060      337.443        9.421      866.576
01/11/2021  15:45:00       32.821       37.411       -7.682       34.663       20.110       18.419     1201.526      404.396      339.248        0.224        0.097       49.767       19.460        0.153      337.426        9.391      866.562
01/11/2021  15:46:00       16.994       17.623       -9.661       21.356       10.935       12.338      456.072      119.582      152.236        0.071        0.036       24.482       13.885        0.322      337.450        9.432      866.545
01/11/2021  15:47:00       13.141       18.416        1.265       25.341       20.301       15.596      642.190      412.137      243.243        0.091        0.065       22.623       13.819        0.373      337.536        9.575      866.517
01/11/2021  15:48:00       54.811       26.708       -1.705       41.070       22.876       17.960     1686.785      523.333      322.551        0.313        0.127       60.972       17.359        0.081      337.475        9.472      866.494
01/11/2021  15:49:00       39.535       -4.301       -3.648       30.815       25.431       20.148      949.538      646.713      405.930        0.180        0.100       39.768       15.963        0.161      337.534        9.571      866.463
01/11/2021  15:50:00       70.258       31.601      -10.353       55.887       35.315       17.104     3123.345     1247.136      292.558        0.535        0.233       77.037       15.839        0.042      337.425        9.390      866.435
01/11/2021  15:51:00       30.696       48.767       -7.527       27.572       21.447       15.008      760.230      459.976      225.231        0.241        0.072       57.623       16.591        0.083      337.455        9.439      866.404
01/11/2021  15:52:00       39.890       11.654       -3.717       23.596       12.714       16.039      556.750      161.652      257.237        0.136        0.049       41.558       15.676        0.142      337.482        9.486      866.378
01/11/2021  15:53:00       32.438       -2.505      -10.529       57.870       32.708       21.325     3348.916     1069.785      454.757        0.302        0.244       32.535       26.060        0.642      337.659        9.782      866.358
01/11/2021  15:54:00       85.175       52.327      -17.031       56.116       37.817       27.777     3148.963     1430.149      771.581        0.782        0.268       99.964       13.314        0.018      337.463        9.454      866.353
01/11/2021  15:55:00       51.988       58.844       -7.156       34.060       18.035       16.967     1160.059      325.265      287.896        0.399        0.089       78.520        9.980        0.016      337.428        9.395      866.351
01/11/2021  15:56:00       41.215       18.259       -7.689       36.119       19.193       17.511     1304.571      368.352      306.632        0.203        0.099       45.079       21.840        0.235      337.481        9.484      866.354
01/11/2021  15:57:00       65.397       20.796       -6.661       33.372       15.086       13.317     1113.683      227.586      177.332        0.314        0.076       68.624       16.415        0.057      337.452        9.435      866.354
01/11/2021  15:58:00       58.542       62.535       -8.505       33.607       46.651       21.980     1129.439     2176.318      483.104        0.560        0.189       85.661       24.207        0.080      337.445        9.422      866.347
01/11/2021  15:59:00       29.063       79.943       -4.086       36.162       25.988       18.870     1307.714      675.383      356.058        0.480        0.117       85.062       13.023        0.023      337.536        9.577      866.339
01/11/2021  16:00:00       36.823        1.383       -5.480       44.510       37.558       23.172     1981.119     1410.568      536.931        0.266        0.196       36.849       19.876        0.291      337.550        9.599      866.319
01/11/2021  16:01:00       69.236       11.815        0.159       57.848       42.495       33.821     3346.422     1805.830     1143.839        0.561        0.315       70.237       39.841        0.322      337.468        9.461      866.299
01/11/2021  16:02:00       79.649       22.838       -8.587       45.717       33.546       22.748     2090.067     1125.308      517.478        0.534        0.187       82.859       22.002        0.071      337.441        9.417      866.288
01/11/2021  16:03:00      100.539       59.056      -16.361       50.155       37.187       23.332     2515.555     1382.901      544.384        0.915        0.222      116.601       24.075        0.043      337.406        9.358      866.273
01/11/2021  16:04:00       94.738       54.907      -15.995       55.669       29.067       24.587     3099.081      844.898      604.534        0.840        0.227      109.499       31.073        0.081      337.389        9.329      866.284
01/11/2021  16:05:00       53.223       18.211       -9.233       52.400       25.664       22.505     2745.757      658.650      506.488        0.358        0.196       56.253       31.707        0.318      337.401        9.349      866.287
01/11/2021  16:06:00       76.053      -28.043      -11.621       45.678       19.306       21.406     2086.488      372.718      458.218        0.481        0.146       81.058       26.865        0.110      337.461        9.450      866.293
01/11/2021  16:07:00       29.877      -24.390      -12.019       31.224       22.055       17.138      974.911      486.436      293.709        0.169        0.088       38.568       20.588        0.285      337.488        9.495      866.307
01/11/2021  16:08:00       44.214       28.142       -3.616       31.122       12.782       19.417      968.552      163.382      377.014        0.213        0.075       52.410       20.019        0.146      337.431        9.398      866.323
01/11/2021  16:09:00       20.631        9.997      -10.613       36.263       19.332       17.231     1314.990      373.710      296.924        0.131        0.099       22.925       20.835        0.826      337.433        9.402      866.325
01/11/2021  16:10:00       28.246       15.898       -7.506       37.382       10.923       20.002     1397.414      119.322      400.070        0.151        0.096       32.413       25.860        0.637      337.439        9.411      866.321
01/11/2021  16:11:00       51.732        8.413       -7.489       44.781       18.200       24.330     2005.374      331.224      591.954        0.287        0.146       52.412       29.572        0.318      337.436        9.409      866.315
01/11/2021  16:12:00       16.331        0.620       -5.931       29.271       22.313       20.154      856.773      497.868      406.167        0.103        0.088       16.342       18.788        1.322      337.437        9.408      866.294
01/11/2021  16:13:00       46.037       25.102       -6.653       49.012       32.468       26.229     2402.141     1054.199      687.952        0.347        0.207       52.436       25.287        0.233      337.508        9.529      866.282
01/11/2021  16:14:00       56.434        8.609      -10.598       47.631       27.924       20.759     2268.759      779.761      430.951        0.342        0.174       57.087       24.190        0.180      337.494        9.505      866.277
01/11/2021  16:15:00       49.270        4.569      -12.178       41.941       19.810       19.835     1759.082      392.450      393.422        0.257        0.127       49.481       27.262        0.304      337.437        9.410      866.287
01/11/2021  16:16:00       57.771       14.017      -10.178       37.586       13.135       17.630     1412.694      172.521      310.823        0.277        0.095       59.447       24.471        0.169      337.396        9.341      866.296
01/11/2021  16:17:00       37.055       23.740       -1.852       35.084       25.429       16.461     1230.914      646.628      270.976        0.204        0.107       44.008       21.428        0.237      337.439        9.412      866.301
01/11/2021  16:18:00       23.174       73.430        2.532       32.492       12.479       18.160     1055.730      155.737      329.785        0.374        0.077       77.000       19.754        0.066      337.557        9.612      866.304
01/11/2021  16:19:00       26.367       58.716       -3.747       34.926       18.946       16.640     1219.815      358.969      276.904        0.301        0.093       64.364       19.958        0.096      337.522        9.552      866.302
01/11/2021  16:20:00       31.646       21.053        2.076       28.745        9.835       15.067      826.286       96.731      227.029        0.130        0.058       38.009       18.370        0.234      337.426        9.392      866.309
01/11/2021  16:21:00       15.822       55.011       -7.653       30.933       23.279       17.233      956.872      541.908      296.969        0.257        0.090       57.242       19.396        0.115      337.566        9.626      866.314
01/11/2021  16:22:00       -3.543       34.028       -6.035       30.194       25.951       18.262      911.680      673.444      333.486        0.156        0.096       34.212       15.993        0.219      337.527        9.560      866.311
01/11/2021  16:23:00      -16.549       -4.251       -2.804       29.040       17.698       17.509      843.326      313.230      306.550        0.088        0.073       17.086        8.865        0.269      337.627        9.728      866.309
01/11/2021  16:24:00      -18.958        5.368       -5.063       33.589       27.161       22.361     1128.250      737.740      500.013        0.139        0.118       19.703       13.137        0.445      337.617        9.711      866.297
01/11/2021  16:25:00      -62.475       16.575        0.145       34.529       25.796       19.773     1192.239      665.434      390.956        0.321        0.112       64.637        6.270        0.009      337.583        9.656      866.282
01/11/2021  16:26:00      -33.577       52.653       -1.014       34.298       35.783       23.676     1176.380     1280.415      560.547        0.346        0.151       62.448       14.406        0.053      337.728        9.897      866.271
01/11/2021  16:27:00      -35.962        4.646        4.024       41.821       23.281       20.814     1749.000      542.005      433.240        0.203        0.136       36.261        8.527        0.055      337.587        9.661      866.265
01/11/2021  16:28:00      -59.351       13.270       -3.960       54.311       17.085       22.173     2949.665      291.893      491.622        0.372        0.187       60.816       15.716        0.067      337.460        9.448      866.264
01/11/2021  16:29:00       -1.582       37.956      -10.610       34.385       34.033       18.760     1182.344     1158.212      351.924        0.212        0.135       37.989       15.923        0.176      337.533        9.571      866.264
01/11/2021  16:30:00       -0.795       24.992       -5.719       36.892       22.982       20.747     1361.002      528.163      430.453        0.149        0.116       25.005       17.754        0.504      337.600        9.683      866.265
01/11/2021  16:31:00      -13.583       59.599       -0.724       38.677       32.628       21.786     1495.896     1064.584      474.646        0.339        0.152       61.127       18.378        0.090      337.612        9.704      866.274
01/11/2021  16:32:00       -0.659       65.639       -6.418       34.253       16.339       18.801     1173.245      266.954      353.467        0.307        0.090       65.643       21.439        0.107      337.658        9.780      866.279
01/11/2021  16:33:00      -11.189       67.198       -6.528       37.563       12.256       17.828     1410.974      150.217      317.854        0.328        0.094       68.123       21.531        0.100      337.728        9.898      866.289
01/11/2021  16:34:00       -2.888       68.524       -4.802       35.331       23.540       18.317     1248.282      554.124      335.522        0.343        0.107       68.585       21.492        0.098      337.512        9.534      866.306
01/11/2021  16:35:00      -11.493       71.823       -6.259       34.938       22.527       15.261     1220.642      507.476      232.894        0.364        0.098       72.736       18.543        0.065      337.616        9.710      866.321
01/11/2021  16:36:00      -12.736       62.052       -5.113       34.828       33.659       18.822     1212.979     1132.910      354.272        0.337        0.135       63.345       16.264        0.066      337.524        9.556      866.334
01/11/2021  16:37:00       -1.059       19.661        0.793       47.403       22.979       26.154     2247.012      528.039      684.046        0.192        0.173       19.689       28.654        2.118      337.352        9.268      866.342
01/11/2021  16:38:00      -48.961       14.128       -0.381       47.547       18.953       23.145     2260.689      359.207      535.708        0.288        0.158       50.959       23.949        0.221      337.317        9.210      866.352
01/11/2021  16:39:00      -25.127        0.773      -10.675       47.797       15.522       21.727     2284.515      240.944      472.055        0.187        0.150       25.138       27.674        1.212      337.322        9.218      866.362
01/11/2021  16:40:00        3.887        4.443        1.411       34.898        8.580       18.639     1217.871       73.622      347.401        0.084        0.082        5.903       22.407       14.407      337.261        9.117      866.354
01/11/2021  16:41:00       38.659       18.887       -2.659       51.978       10.782       24.058     2701.707      116.251      578.790        0.263        0.170       43.026       33.875        0.620      337.321        9.217      866.336
01/11/2021  16:42:00       58.520       18.434      -10.177       52.826       10.566       25.660     2790.547      111.646      658.441        0.371        0.178       61.354       36.277        0.350      337.343        9.254      866.317
01/11/2021  16:43:00       64.912       13.580      -13.174       54.661        4.437       27.092     2987.845       19.683      733.972        0.416        0.187       66.317       37.969        0.328      337.301        9.183      866.290
01/11/2021  16:44:00       83.418        7.451      -16.694       59.733       10.629       28.665     3568.022      112.966      821.704        0.590        0.225       83.750       40.284        0.231      337.267        9.126      866.266
01/11/2021  16:45:00       68.788        7.023      -10.472       49.712       14.072       23.101     2471.322      198.032      533.639        0.405        0.160       69.145       32.132        0.216      337.175        8.972      866.254
01/11/2021  16:46:00       73.971        5.482      -10.512       53.680        8.988       24.152     2881.524       80.783      583.338        0.458        0.177       74.174       34.051        0.211      337.196        9.005      866.254
01/11/2021  16:47:00       53.025        0.835      -10.425       54.291        9.709       25.432     2947.492       94.273      646.772        0.330        0.184       53.032       34.469        0.422      337.056        8.772      866.262
01/11/2021  16:48:00       54.210       13.964       -5.056       52.204       16.103       24.373     2725.249      259.315      594.066        0.337        0.179       55.979       33.116        0.350      337.207        9.024      866.264
01/11/2021  16:49:00       22.984      -14.054       -4.546       49.522       18.041       27.556     2452.441      325.490      759.320        0.214        0.177       26.941       32.415        1.448      337.232        9.067      866.267
01/11/2021  16:50:00       36.787      -21.883       -8.729       53.557       16.136       26.336     2868.322      260.355      693.610        0.286        0.191       42.804       35.061        0.671      337.292        9.168      866.280
01/11/2021  16:51:00       67.997      -19.274      -11.566       48.935       14.861       24.482     2394.647      220.859      599.392        0.417        0.161       70.676       32.600        0.213      337.282        9.151      866.287
01/11/2021  16:52:00        5.018       -6.375       -3.419       39.886       12.043       19.933     1590.854      145.038      397.343        0.110        0.107        8.113       23.135        8.131      337.177        8.975      866.293
01/11/2021  16:53:00        3.230       -5.589       -6.032       43.119       10.963       21.312     1859.223      120.191      454.200        0.126        0.122        6.455       28.290       19.206      336.879        8.478      866.298
01/11/2021  16:54:00      -38.498       -8.196      -14.032       37.999       11.513       20.607     1443.914      132.548      424.652        0.187        0.100       39.361       24.113        0.375      336.720        8.211      866.296
01/11/2021  16:55:00      -27.511       -5.689       -5.381       31.194       15.134       16.341      973.042      229.025      267.020        0.114        0.073       28.093       16.717        0.354      336.644        8.084      866.310
01/11/2021  16:56:00      -21.062       -6.271      -10.078       38.876       13.358       19.993     1511.352      178.434      399.735        0.134        0.104       21.976       23.970        1.190      336.644        8.085      866.319
01/11/2021  16:57:00      -42.739       26.342      -11.479       37.926        8.625       18.600     1438.414       74.388      345.942        0.226        0.093       50.205       25.189        0.252      336.672        8.131      866.332
01/11/2021  16:58:00      -39.721       25.308       -7.782       33.326        8.029       14.965     1110.596       64.473      223.958        0.184        0.070       47.099       19.383        0.169      336.759        8.277      866.333
01/11/2021  16:59:00        4.356        9.884       -5.897       39.901       11.305       20.266     1592.101      127.797      410.696        0.114        0.107       10.802       26.535        6.035      336.780        8.310      866.327
01/11/2021  17:00:00       36.092        5.444       -8.215       42.924        7.200       19.740     1842.432       51.838      389.667        0.184        0.114       36.500       27.768        0.579      336.821        8.379      866.314
01/11/2021  17:01:00       31.265       18.478       -4.395       31.876        8.018       15.200     1016.083       64.284      231.026        0.132        0.066       36.317       21.151        0.339      336.958        8.611      866.298
01/11/2021  17:02:00       27.885       24.276       -4.075       39.083       10.592       18.455     1527.461      112.180      340.595        0.168        0.099       36.972       26.140        0.500      337.051        8.764      866.278
01/11/2021  17:03:00       19.180       13.747       -5.436       34.972        7.488       16.992     1223.072       56.069      288.730        0.108        0.078       23.598       23.343        0.979      336.914        8.536      866.260
01/11/2021  17:04:00       10.026       31.653       -8.511       44.614       10.735       22.412     1990.426      115.248      502.285        0.189        0.130       33.203       30.786        0.860      337.012        8.699      866.249
01/11/2021  17:05:00      -42.173        3.153       -9.355       34.777       20.004       16.511     1209.441      400.167      272.597        0.188        0.094       42.290       18.959        0.201      336.327        7.553      866.244
01/11/2021  17:06:00      -51.584       14.315      -13.200       24.929       19.429       17.116      621.471      377.482      292.956        0.217        0.065       53.533       13.451        0.063      336.185        7.316      866.238
01/11/2021  17:07:00      -47.344       12.436      -14.306       26.158       19.389       14.097      684.252      375.926      198.722        0.193        0.063       48.950        9.836        0.040      336.103        7.180      866.237
01/11/2021  17:08:00      -75.943       19.546      -10.988       30.157       16.626       17.211      909.429      276.431      296.203        0.388        0.074       78.418       16.861        0.046      336.017        7.036      866.225
01/11/2021  17:09:00      -54.644       12.803      -20.379       28.483       16.564       20.141      811.280      274.365      405.669        0.253        0.075       56.124       15.589        0.077      335.986        6.984      866.217
01/11/2021  17:10:00      -52.386       -0.336      -22.960       33.421       19.059       20.779     1116.984      363.243      431.778        0.259        0.096       52.387       17.155        0.107      335.977        6.969      866.206
01/11/2021  17:11:00      -57.974       13.249      -14.762       21.980        7.558       12.350      483.131       57.129      152.513        0.222        0.035       59.468       13.079        0.048      335.973        6.963      866.200
01/11/2021  17:12:00      -44.402       17.836      -10.399       28.003       12.100       15.935      784.146      146.414      253.910        0.179        0.059       47.850       18.014        0.142      336.309        7.524      866.199
01/11/2021  17:13:00      -68.904       14.502      -13.983       24.112       14.525       15.532      581.378      210.985      241.229        0.309        0.052       70.414       11.197        0.025      335.905        6.851      866.212
01/11/2021  17:14:00      -82.618       17.276      -21.706       26.804       20.359       17.282      718.466      414.478      298.657        0.451        0.072       84.405       10.103        0.014      335.859        6.774      866.229
01/11/2021  17:15:00      -99.100       16.995      -20.388       28.969       22.343       19.348      839.182      499.189      374.347        0.612        0.086      100.546        9.360        0.009      335.704        6.515      866.244
01/11/2021  17:16:00      -95.885       18.054      -20.469       29.654       21.566       18.980      879.367      465.091      360.234        0.582        0.085       97.570       11.965        0.015      335.659        6.439      866.266
01/11/2021  17:17:00      -90.345        0.012      -24.404       27.839       14.975       18.654      775.027      224.251      347.976        0.505        0.067       90.345       11.035        0.015      335.539        6.239      866.281
01/11/2021  17:18:00      -97.413        3.492      -20.730       35.384       29.575       21.563     1252.046      874.675      464.983        0.626        0.130       97.475        9.715        0.010      335.492        6.161      866.297
01/11/2021  17:19:00      -89.074        4.081       -6.913       44.035       28.709       22.272     1939.064      824.213      496.050        0.563        0.163       89.168       17.068        0.037      335.485        6.150      866.315
01/11/2021  17:20:00      -92.465       -0.545        0.260       55.198       34.024       27.008     3046.867     1157.620      729.456        0.674        0.247       92.466       15.586        0.028      335.391        5.993      866.329
01/11/2021  17:21:00     -111.410       36.650       -6.305       51.141       49.896       31.239     2615.362     2489.649      975.901        0.994        0.304      117.284       19.286        0.027      335.473        6.130      866.338
01/11/2021  17:22:00     -109.471       23.170       -5.122       61.062       52.312       28.401     3728.542     2736.593      806.619        0.991        0.364      111.896       17.250        0.024      335.532        6.229      866.354
01/11/2021  17:23:00     -157.991       19.126      -28.166       55.633       39.676       33.752     3095.076     1574.182     1139.193        1.596        0.290      159.145       27.795        0.031      335.359        5.939      866.368
01/11/2021  17:24:00      -77.542       46.618      -16.941       89.182       49.271       31.954     7953.472     2427.654     1021.033        0.994        0.570       90.477       32.481        0.129      335.407        6.019      866.368
01/11/2021  17:25:00      -70.742       43.363      -18.653       64.518       43.010       41.796     4162.540     1849.819     1746.908        0.749        0.388       82.975       43.345        0.273      335.484        6.146      866.370
01/11/2021  17:26:00      -13.156       -4.305       -9.564       52.465       39.893       28.167     2752.580     1591.485      793.359        0.271        0.257       13.842       20.899        2.280      335.362        5.946      866.369
01/11/2021  17:27:00       -6.381      -36.165       -9.392       32.849       38.575       22.123     1079.026     1488.026      489.413        0.225        0.153       36.723       10.871        0.088      335.184        5.650      866.347
01/11/2021  17:28:00      -32.002      -10.942       -0.153       47.388       26.215       21.875     2245.621      687.247      478.537        0.228        0.171       33.821       14.372        0.181      335.107        5.523      866.327
01/11/2021  17:29:00      -46.469       -3.244      -10.242       36.908       27.363       20.723     1362.165      748.711      429.458        0.241        0.127       46.582       17.172        0.136      335.097        5.505      866.308
01/11/2021  17:30:00      -20.949        3.074        0.112       42.276       16.049       16.549     1787.245      257.566      273.856        0.138        0.116       21.173        9.558        0.204      335.050        5.428      866.297
01/11/2021  17:31:00      -38.681        3.029       -4.344       37.509       21.777       15.559     1406.912      474.259      242.092        0.182        0.106       38.800        5.400        0.019      335.088        5.491      866.278
01/11/2021  17:32:00      -35.267        9.188       -7.923       22.021       10.918       11.955      484.916      119.203      142.934        0.107        0.037       36.444        6.633        0.033      335.104        5.518      866.267
01/11/2021  17:33:00      -30.142       22.386       -3.758       22.245       14.455        9.307      494.856      208.960       86.617        0.111        0.040       37.545        9.284        0.061      335.461        6.110      866.267
01/11/2021  17:34:00      -41.174        5.932       -9.107       24.346       21.369       12.452      592.729      456.632      155.049        0.151        0.060       41.599       10.535        0.064      335.263        5.782      866.275
01/11/2021  17:35:00      -35.642       17.566       -7.332       31.846       18.407       18.571     1014.142      338.823      344.893        0.166        0.085       39.736       12.387        0.097      335.325        5.885      866.301
01/11/2021  17:36:00      -69.290       11.417      -12.723       10.351       14.187       12.455      107.140      201.273      155.120        0.278        0.023       70.225       10.620        0.023      335.053        5.434      866.335
01/11/2021  17:37:00      -75.292        4.328      -17.615       23.668       13.742       16.431      560.157      188.839      269.992        0.351        0.051       75.416       12.217        0.026      335.047        5.422      866.365
01/11/2021  17:38:00      -72.173       -1.759      -20.639       19.551       24.579       10.986      382.236      604.135      120.700        0.337        0.055       72.194        7.713        0.011      334.926        5.221      866.393
01/11/2021  17:39:00      -58.796       -7.970      -15.225       32.118       22.143       19.597     1031.566      490.317      384.041        0.283        0.095       59.334       16.165        0.074      334.972        5.298      866.421
01/11/2021  17:40:00      -85.008       -4.594      -15.520       35.369       34.464       19.484     1251.001     1187.745      379.637        0.515        0.141       85.132       15.126        0.032      334.845        5.087      866.437
01/11/2021  17:41:00      -89.800        9.617      -15.078       30.266       27.669       22.897      916.042      765.560      524.291        0.529        0.110       90.314       18.803        0.043      334.820        5.046      866.445
01/11/2021  17:42:00      -74.967       16.424       -6.079       40.646       27.856       23.580     1652.133      775.933      556.008        0.445        0.149       76.745       22.276        0.084      334.854        5.102      866.446
01/11/2021  17:43:00      -47.729        0.744      -12.363       37.851       27.313       24.312     1432.677      745.990      591.096        0.260        0.138       47.735       20.934        0.192      334.897        5.174      866.439
01/11/2021  17:44:00      -64.963        8.552      -12.356       23.855       20.041       16.698      569.060      401.629      278.807        0.285        0.062       65.524       16.828        0.066      334.866        5.122      866.434
01/11/2021  17:45:00      -66.743       17.303      -14.989       23.998       18.117       11.714      575.927      328.225      137.217        0.301        0.052       68.949        9.400        0.019      334.934        5.236      866.438
01/11/2021  17:46:00      -55.797       16.181      -17.195       26.401       23.137       14.704      697.035      535.314      216.201        0.256        0.072       58.096       11.418        0.039      334.900        5.179      866.447
01/11/2021  17:47:00      -91.555       11.732      -18.805       20.808       19.953       14.254      432.954      398.125      203.180        0.495        0.052       92.303        9.147        0.010      334.799        5.010      866.458
01/11/2021  17:48:00      -86.499        5.003      -17.795       24.237       22.708       17.845      587.427      515.653      318.446        0.462        0.071       86.643       10.820        0.016      334.746        4.921      866.468
01/11/2021  17:49:00      -96.510       33.067      -14.436       33.845       34.357       18.418     1145.465     1180.397      339.214        0.664        0.133      102.018       13.253        0.017      334.723        4.884      866.478
01/11/2021  17:50:00     -107.246       28.736      -14.675       30.958       22.394       14.973      958.400      501.494      224.177        0.711        0.084      111.029        7.673        0.005      334.657        4.773      866.472
01/11/2021  17:51:00      -96.887       19.213      -16.870       20.929       18.215       13.399      438.031      331.778      179.538        0.549        0.047       98.774        7.894        0.006      334.582        4.649      866.467
01/11/2021  17:52:00      -99.542       32.215      -15.304       19.391       15.885       13.840      376.000      252.338      191.538        0.600        0.041      104.625       10.356        0.010      334.602        4.682      866.453
01/11/2021  17:53:00      -57.272       35.774      -11.845       22.702       21.093       10.539      515.378      444.929      111.067        0.289        0.054       67.526        6.572        0.009      334.567        4.626      866.444
01/11/2021  17:54:00      -61.061       27.786      -17.316       29.282       17.713       13.521      857.426      313.749      182.827        0.308        0.068       67.086        8.582        0.016      334.583        4.651      866.444
01/11/2021  17:55:00      -76.602       20.004      -17.235       23.755       25.253       13.527      564.318      637.736      182.987        0.397        0.069       79.171       11.288        0.020      334.555        4.605      866.445
01/11/2021  17:56:00      -91.043       14.593      -18.107       25.854       26.001       19.639      668.447      676.064      385.692        0.528        0.087       92.205       10.714        0.014      334.582        4.650      866.445
01/11/2021  17:57:00      -85.466       12.756      -10.047       29.102       30.911       17.350      846.920      955.512      301.013        0.484        0.105       86.413       13.299        0.024      334.548        4.594      866.450
01/11/2021  17:58:00      -77.529       22.734       -8.039       32.616       21.195       19.707     1063.774      449.220      388.360        0.425        0.095       80.793       14.593        0.033      334.495        4.505      866.461
01/11/2021  17:59:00      -78.276       25.219      -16.422       28.081       20.811       13.338      788.518      433.102      177.912        0.422        0.070       82.239        6.545        0.006      334.486        4.490      866.463
01/11/2021  18:00:00      -51.493       25.859      -10.966       20.666       15.384       12.913      427.088      236.659      166.747        0.214        0.042       57.622        8.302        0.021      334.715        4.870      866.455
01/11/2021  18:01:00        6.604       57.611       -2.809       32.939       24.398       15.422     1085.008      595.282      237.844        0.264        0.096       57.988        7.916        0.019      335.102        5.514      866.446
01/11/2021  18:02:00       51.218       56.819       -5.515       26.845       29.854       20.048      720.631      891.247      401.928        0.395        0.101       76.496       21.302        0.078      335.437        6.070      866.446
01/11/2021  18:03:00       47.252       60.699       -2.746       21.129       21.472       16.035      446.447      461.046      257.135        0.354        0.058       76.923       11.362        0.022      335.432        6.062      866.439
01/11/2021  18:04:00       39.231       95.461       -2.081       25.981       33.079       18.958      675.021     1094.223      359.393        0.639        0.106      103.207       16.558        0.026      335.558        6.273      866.449
01/11/2021  18:05:00       34.715      110.727        1.994       25.614       22.503       16.068      656.098      506.402      258.170        0.744        0.071      116.042       14.622        0.016      335.807        6.688      866.472
01/11/2021  18:06:00      -42.705       48.410      -21.440       38.398       47.738       17.616     1474.405     2278.896      310.308        0.434        0.203       64.554       19.125        0.088      335.138        5.574      866.511
01/11/2021  18:07:00      -73.874       30.940      -16.389       16.050       17.205       11.063      257.608      296.026      122.396        0.368        0.034       80.092        7.064        0.008      334.376        4.309      866.547
01/11/2021  18:08:00     -109.881       52.134      -14.335       24.833       25.290       21.540      616.663      639.593      463.953        0.836        0.086      121.621       13.024        0.011      334.371        4.301      866.564
01/11/2021  18:09:00     -110.214       42.333       -9.632       32.001       27.393       18.137     1024.069      750.350      328.956        0.807        0.105      118.065       17.163        0.021      334.421        4.384      866.567
01/11/2021  18:10:00     -102.146       54.071      -11.618       18.592       23.435       15.205      345.679      549.217      231.196        0.731        0.056      115.575        7.078        0.004      334.482        4.484      866.579
01/11/2021  18:11:00     -102.335       50.834       -8.844       36.717       27.297       24.272     1348.127      745.118      589.131        0.791        0.134      114.265       22.213        0.038      334.420        4.381      866.582
01/11/2021  18:12:00      -88.273       40.994      -12.972       32.840       25.076       16.564     1078.498      628.825      274.371        0.581        0.099       97.327       13.377        0.019      334.411        4.367      866.580
01/11/2021  18:13:00      -95.028       30.660      -11.201       42.447       34.936       22.207     1801.726     1220.525      493.172        0.680        0.176       99.852       17.162        0.030      334.456        4.442      866.578
01/11/2021  18:14:00     -119.808       51.027      -13.235       41.992       39.763       19.070     1763.366     1581.064      363.658        1.042        0.185      130.222       16.250        0.016      334.401        4.350      866.584
01/11/2021  18:15:00      -67.991       10.619      -12.382       44.823       37.877       22.301     2009.062     1434.686      497.351        0.441        0.197       68.815       12.263        0.032      334.343        4.253      866.595
01/11/2021  18:16:00      -95.522       22.388      -22.041       30.124       23.147       15.128      907.445      535.768      228.868        0.589        0.084       98.111       11.957        0.015      334.371        4.300      866.607
01/11/2021  18:17:00      -82.363       29.327      -21.383       16.810       17.749       12.672      282.581      315.043      160.583        0.443        0.038       87.429        5.654        0.004      334.318        4.213      866.617
01/11/2021  18:18:00      -58.358       37.865      -15.560       29.448       15.738       12.690      867.163      247.696      161.028        0.318        0.064       69.566        8.872        0.016      334.311        4.201      866.628
01/11/2021  18:19:00      -47.893       37.410       -8.989       26.815       16.192       16.980      719.049      262.166      288.315        0.252        0.063       60.773       15.681        0.067      334.574        4.636      866.633
01/11/2021  18:20:00      -24.975       56.246       -7.092       23.459       24.269       21.208      550.345      588.975      449.777        0.271        0.079       61.542        9.303        0.023      334.863        5.117      866.651
01/11/2021  18:21:00      -35.048       27.827      -13.350       13.727       15.033       11.174      188.432      225.996      124.861        0.136        0.027       44.752        9.086        0.041      334.416        4.375      866.668
01/11/2021  18:22:00      -70.365       19.392      -14.522       19.317       16.082       13.463      373.139      258.641      181.263        0.318        0.041       72.988        7.675        0.011      334.363        4.287      866.684
01/11/2021  18:23:00      -61.354       20.888      -10.792       31.921       29.231       13.829     1018.922      854.477      191.247        0.319        0.103       64.813       10.354        0.026      334.443        4.420      866.710
01/11/2021  18:24:00     -109.486       24.061      -15.337       33.478       26.572       16.279     1120.746      706.076      264.996        0.745        0.105      112.099       13.535        0.015      334.330        4.232      866.734
01/11/2021  18:25:00     -117.108       30.027      -15.078       30.131       25.791       21.829      907.851      665.194      476.506        0.845        0.102      120.896       12.132        0.010      334.357        4.277      866.750
01/11/2021  18:26:00      -92.688       35.433      -14.019       23.240       15.182       14.000      540.087      230.492      196.004        0.550        0.048       99.230        9.954        0.010      334.281        4.150      866.749
01/11/2021  18:27:00      -54.120       31.872      -10.569       30.332       15.666       12.177      920.043      245.419      148.275        0.268        0.066       62.808       10.583        0.028      334.316        4.209      866.728
01/11/2021  18:28:00      -18.146       47.658       -0.939       28.296       26.079       13.082      800.640      680.111      171.130        0.213        0.083       50.996        6.939        0.019      334.576        4.640      866.717
01/11/2021  18:29:00       -3.152       72.830       -6.768       17.307       24.652       14.178      299.543      607.719      201.026        0.323        0.055       72.899        7.598        0.011      335.137        5.570      866.715
01/11/2021  18:30:00       15.148       74.439        1.680       44.506       55.872       20.960     1980.752     3121.635      439.308        0.566        0.277       75.965        9.906        0.017      335.083        5.482      866.729
01/11/2021  18:31:00       29.272       79.735       -6.267       36.129       28.118       13.919     1305.315      790.623      193.734        0.477        0.114       84.938       16.769        0.039      335.348        5.922      866.753
01/11/2021  18:32:00        6.314       38.591        0.650       33.296       27.921       12.287     1108.618      779.591      150.973        0.178        0.102       39.104       16.429        0.177      335.193        5.665      866.756
01/11/2021  18:33:00       26.985       54.287       -0.875       20.438       26.527       16.374      417.711      703.705      268.117        0.253        0.069       60.624       12.833        0.045      335.240        5.742      866.752
01/11/2021  18:34:00       37.436       62.539       -4.296       30.390       16.480       14.290      923.555      271.574      204.206        0.336        0.070       72.888       13.519        0.034      335.264        5.781      866.747
01/11/2021  18:35:00       18.023       77.856        1.015       27.993       22.750       14.059      783.623      517.549      197.661        0.394        0.075       79.915        9.794        0.015      335.371        5.961      866.756
01/11/2021  18:36:00       36.983       56.919       -0.767       23.778       26.404       19.104      565.413      697.172      364.975        0.312        0.081       67.878       12.330        0.033      335.258        5.772      866.764
01/11/2021  18:37:00       46.190       61.029       -5.560       22.125       18.473       13.277      489.538      341.245      176.280        0.345        0.050       76.538       10.490        0.019      335.205        5.685      866.767
01/11/2021  18:38:00       37.586       81.663       -2.100       19.714       23.840       13.551      388.636      568.322      183.626        0.461        0.057       89.897       11.248        0.016      335.307        5.854      866.789
01/11/2021  18:39:00       31.063       79.410        2.513       19.697       30.607       18.810      387.964      936.769      353.825        0.448        0.084       85.270       14.427        0.029      335.270        5.791      866.809
01/11/2021  18:40:00       30.949       80.870       -0.968       23.830       21.414       15.737      567.857      458.545      247.657        0.439        0.064       86.590       13.757        0.025      335.317        5.869      866.811
01/11/2021  18:41:00       48.135       49.536       -4.240       28.506       19.061       16.417      812.596      363.310      269.515        0.312        0.072       69.071       17.000        0.061      335.163        5.615      866.785
01/11/2021  18:42:00       57.828       46.842       -4.637       22.518       14.998        9.893      507.066      224.934       97.876        0.319        0.041       74.419        2.889        0.002      335.219        5.706      866.759
01/11/2021  18:43:00       60.299       48.849       -6.359       20.737       15.160       12.177      430.011      229.835      148.272        0.344        0.040       77.602        8.150        0.011      335.134        5.568      866.736
01/11/2021  18:44:00       36.901       38.744       -3.477       20.251       13.565       12.912      410.109      184.007      166.710        0.182        0.038       53.505       11.790        0.049      335.081        5.478      866.728
01/11/2021  18:45:00       93.479       77.744       -6.286       31.749       29.815       24.442     1007.992      888.956      597.433        0.866        0.125      121.583       21.546        0.031      335.246        5.753      866.713
01/11/2021  18:46:00       61.756       39.099       -4.264       28.262       30.246       12.221      798.747      914.801      149.350        0.361        0.093       73.093        9.831        0.018      335.184        5.649      866.712
01/11/2021  18:47:00       62.651       35.220      -10.032       22.424       20.479       12.512      502.855      419.375      156.562        0.317        0.054       71.872       11.304        0.025      335.172        5.628      866.709
01/11/2021  18:48:00       46.743       34.907       -4.537       23.050       13.321       11.928      531.297      177.461      142.270        0.214        0.043       58.339       10.457        0.032      335.097        5.506      866.706
01/11/2021  18:49:00       69.219       46.320       -3.458       37.617       26.778       15.837     1415.036      717.073      250.811        0.467        0.119       83.288       17.268        0.043      335.113        5.533      866.706
01/11/2021  18:50:00       90.135       58.766       -5.588       38.340       40.839       20.567     1469.992     1667.818      423.022        0.758        0.178      107.600       14.444        0.018      335.173        5.630      866.710
01/11/2021  18:51:00       80.920       37.669       -6.840       33.424       38.990       19.455     1117.185     1520.196      378.491        0.551        0.151       89.258       16.776        0.035      335.111        5.529      866.724
01/11/2021  18:52:00       66.236       24.685       -0.170       19.755       21.170       14.041      390.269      448.181      197.145        0.302        0.052       70.686        9.799        0.019      335.044        5.418      866.735
01/11/2021  18:53:00      158.104       16.339      -10.978       29.641       20.792       17.921      878.617      432.297      321.171        1.351        0.082      158.946       13.239        0.007      335.136        5.570      866.741
01/11/2021  18:54:00       72.436       20.983       -3.987       27.369       24.082       13.084      749.044      579.947      171.180        0.360        0.075       75.414       10.172        0.018      335.032        5.398      866.739
01/11/2021  18:55:00       65.022        3.844       -5.966       36.276       32.959       19.216     1315.930     1086.306      369.264        0.352        0.139       65.136       17.188        0.070      334.982        5.315      866.744
01/11/2021  18:56:00       64.308       20.384       -7.519       19.606       18.175       12.191      384.407      330.317      148.620        0.274        0.043       67.461       12.153        0.032      334.935        5.238      866.742
01/11/2021  18:57:00       83.979       36.255       -4.911       27.777       33.227       16.524      771.585     1104.012      273.032        0.527        0.107       91.471        9.879        0.012      334.987        5.323      866.748
01/11/2021  18:58:00       78.323       25.941       -1.051       40.632       38.745       23.747     1650.955     1501.190      563.918        0.526        0.186       82.507       17.682        0.046      334.929        5.225      866.749
01/11/2021  18:59:00      100.766       14.689       -3.858       36.994       19.855       18.377     1368.555      394.207      337.710        0.624        0.105      101.831       15.595        0.023      334.937        5.240      866.767
01/11/2021  19:00:00       81.365       22.019       -4.363       24.368       18.325       13.179      593.796      335.814      173.686        0.411        0.055       84.292       10.604        0.016      334.894        5.168      866.784
01/11/2021  19:01:00       87.295        4.014       -3.107       34.487       26.318       14.350     1189.327      692.624      205.931        0.487        0.104       87.387       16.667        0.036      334.897        5.173      866.791
01/11/2021  19:02:00       67.184       -5.008        1.915       46.831       26.937       14.505     2193.157      725.619      210.387        0.384        0.156       67.370       15.417        0.052      334.889        5.159      866.785
01/11/2021  19:03:00       76.853      -16.825       -4.345       46.191       24.300       20.716     2133.574      590.467      429.172        0.468        0.158       78.673       23.513        0.089      334.870        5.128      866.771
01/11/2021  19:04:00      101.666      -31.735       -5.572       42.079       32.277       20.064     1770.601     1041.795      402.548        0.729        0.161      106.503       15.465        0.021      334.939        5.244      866.755
01/11/2021  19:05:00       99.444      -32.752       -6.530       30.843       25.722       21.737      951.262      661.620      472.504        0.654        0.104      104.698       12.224        0.014      334.901        5.180      866.747
01/11/2021  19:06:00       82.510      -22.059       -7.720       48.761       31.853       24.732     2377.612     1014.589      611.665        0.568        0.200       85.408       24.956        0.085      334.892        5.164      866.737
01/11/2021  19:07:00       80.718      -13.035       -5.325       51.355       41.861       29.458     2637.336     1752.340      867.780        0.598        0.263       81.764       23.479        0.082      334.975        5.302      866.735
01/11/2021  19:08:00       76.080      -13.160       -2.173       45.675       27.132       23.316     2086.240      736.152      543.625        0.467        0.168       77.209       23.400        0.092      334.895        5.169      866.739
01/11/2021  19:09:00       91.969      -26.027        1.925       62.857       38.881       31.089     3951.043     1511.756      966.519        0.778        0.321       95.581       34.993        0.134      334.886        5.155      866.741
01/11/2021  19:10:00       85.895      -36.478       -6.628       65.612       39.198       27.297     4304.968     1536.467      745.109        0.767        0.329       93.320       31.444        0.114      334.904        5.184      866.737
01/11/2021  19:11:00      101.133      -48.673      -10.275       50.194       37.527       32.839     2519.389     1408.273     1078.412        0.885        0.250      112.236       27.557        0.060      334.952        5.264      866.735
01/11/2021  19:12:00      109.456      -43.871      -13.204       54.895       48.243       32.438     3013.416     2327.390     1052.234        1.023        0.320      117.921       32.955        0.078      334.929        5.226      866.729
01/11/2021  19:13:00      108.653      -59.945      -13.226       53.686       36.274       24.395     2882.175     1315.805      595.128        1.018        0.240      124.092       15.426        0.015      334.960        5.277      866.721
01/11/2021  19:14:00       81.758      -46.054      -12.538       38.387       53.291       19.978     1473.589     2839.954      399.120        0.684        0.236       93.837       16.383        0.030      334.900        5.177      866.713
01/11/2021  19:15:00       72.467      -29.576      -17.894       34.076       48.834       21.268     1161.147     2384.717      452.338        0.522        0.200       78.270       19.297        0.061      334.868        5.125      866.702
01/11/2021  19:16:00       37.471      -22.093      -13.049       34.827       37.245       22.958     1212.895     1387.166      527.069        0.259        0.156       43.499       15.064        0.120      334.932        5.231      866.693
01/11/2021  19:17:00       66.000       -5.238      -13.180       52.348       41.628       25.621     2740.261     1732.886      656.418        0.484        0.256       66.207       18.273        0.076      334.956        5.273      866.671
01/11/2021  19:18:00      115.797      -46.703      -12.605       51.255       44.321       29.719     2627.101     1964.373      883.246        1.061        0.274      124.860       25.190        0.041      334.895        5.170      866.665
01/11/2021  19:19:00      114.671      -47.904      -10.803       36.780       37.068       24.258     1352.747     1374.013      588.464        0.944        0.166      124.275       21.286        0.029      334.877        5.139      866.656
01/11/2021  19:20:00       72.549       -7.006       -6.829       39.235       39.443       25.127     1539.385     1555.762      631.367        0.454        0.186       72.886       24.724        0.115      334.804        5.018      866.648
01/11/2021  19:21:00       41.941      -15.767       -6.306       37.512       29.462       22.348     1407.156      868.030      499.441        0.241        0.139       44.807       18.923        0.178      334.768        4.959      866.639
01/11/2021  19:22:00       79.292      -27.816       -6.685       51.901       27.454       24.344     2693.696      753.712      592.647        0.557        0.202       84.030       20.166        0.058      334.749        4.928      866.641
01/11/2021  19:23:00       44.405      -22.383       -1.062       23.443       24.848       19.693      549.583      617.438      387.799        0.201        0.078       49.727       16.016        0.104      334.755        4.937      866.638
01/11/2021  19:24:00       50.618      -20.577       -8.283       28.353       24.428       13.320      803.884      596.740      177.423        0.232        0.079       54.641       11.966        0.048      334.738        4.908      866.642
01/11/2021  19:25:00       19.604       -2.507      -14.065       20.876       25.141       14.293      435.798      632.068      204.288        0.093        0.064       19.763       12.634        0.409      334.697        4.841      866.644
01/11/2021  19:26:00      -18.544        1.287        0.661       20.197       16.370       12.552      407.916      267.983      157.559        0.059        0.042       18.588       10.868        0.342      334.685        4.821      866.650
01/11/2021  19:27:00       -8.317      -10.244       -3.285       15.862        9.361        8.674      251.606       87.620       75.244        0.030        0.021       13.196        7.776        0.347      334.659        4.776      866.673
01/11/2021  19:28:00       -0.718      -13.020       -4.347       21.082       14.029        9.235      444.471      196.824       85.281        0.046        0.036       13.040        8.016        0.378      334.571        4.632      866.696
01/11/2021  19:29:00      -28.835       -6.737       -4.665       13.320       13.069        8.672      177.433      170.794       75.196        0.066        0.021       29.612        2.476        0.007      334.026        3.729      866.720
01/11/2021  19:30:00      -51.046        1.768       -0.727       19.381       19.593       12.198      375.617      383.901      148.790        0.176        0.045       51.076        8.153        0.025      333.860        3.453      866.732
01/11/2021  19:31:00      -81.833       19.815      -12.697       17.050       14.721        9.668      290.692      216.699       93.461        0.393        0.030       84.198        6.729        0.006      333.686        3.165      866.753
01/11/2021  19:32:00      -69.562       13.323      -13.190       30.862       22.010       15.312      952.465      484.428      234.453        0.343        0.084       70.826       15.971        0.051      333.723        3.226      866.766
01/11/2021  19:33:00      -60.224       15.836      -18.607       22.782       18.414       15.778      519.011      339.065      248.957        0.267        0.055       62.271        8.777        0.020      333.666        3.130      866.777
01/11/2021  19:34:00      -83.962       24.737      -11.922       27.450       14.917       17.022      753.509      222.531      289.754        0.453        0.063       87.530       14.653        0.028      333.602        3.025      866.778
01/11/2021  19:35:00     -104.762       25.524      -19.702       29.148       29.122       18.124      849.630      848.065      328.489        0.702        0.101      107.826        7.951        0.005      333.556        2.949      866.777
01/11/2021  19:36:00     -138.577       25.519       -7.964       40.667       40.152       18.253     1653.772     1612.214      333.165        1.176        0.180      140.907       14.971        0.011      333.491        2.840      866.780
01/11/2021  19:37:00      -81.058       -4.598        3.508       49.749       34.946       27.593     2474.977     1221.238      761.361        0.553        0.223       81.188       27.076        0.111      333.476        2.815      866.789
01/11/2021  19:38:00      -77.933       -0.400       -0.825       46.274       26.002       19.285     2141.312      676.126      371.922        0.463        0.159       77.934       18.493        0.056      333.477        2.817      866.786
01/11/2021  19:39:00      -94.554        4.913       -7.707       47.536       30.496       18.330     2259.638      929.983      335.978        0.627        0.176       94.682       11.668        0.015      333.495        2.848      866.786
01/11/2021  19:40:00      -19.936      -23.384       -6.292       35.101       31.526       17.674     1232.090      993.862      312.365        0.176        0.127       30.729       10.242        0.111      333.531        2.906      866.782
01/11/2021  19:41:00      -65.480        5.257      -11.233       43.159       17.089       18.332     1862.726      292.018      336.070        0.347        0.125       65.691       21.167        0.104      333.495        2.847      866.775
01/11/2021  19:42:00      -23.758       -9.531       -0.852       30.185       26.956       13.697      911.143      726.648      187.617        0.124        0.091       25.598        9.569        0.140      333.561        2.957      866.766
01/11/2021  19:43:00      -27.112      -10.374       -0.485       31.045       19.266       16.274      963.811      371.176      264.858        0.122        0.080       29.029       12.497        0.185      333.515        2.879      866.760
01/11/2021  19:44:00      -51.960       -6.171       -2.435       18.297       25.205       13.868      334.790      635.271      192.308        0.195        0.058       52.325        8.021        0.023      333.557        2.949      866.761
01/11/2021  19:45:00      -76.873        3.970       -8.183       25.434       16.925       15.538      646.900      286.442      241.437        0.358        0.059       76.975        5.039        0.004      333.560        2.955      866.777
01/11/2021  19:46:00      -74.382        3.204       -6.914       51.467       30.657       20.549     2648.837      939.821      422.241        0.480        0.201       74.451       16.962        0.052      333.553        2.943      866.805
01/11/2021  19:47:00      -99.113       18.986       -4.357       53.829       38.109       29.709     2897.556     1452.311      882.627        0.772        0.262      100.916       24.039        0.057      333.525        2.896      866.838
01/11/2021  19:48:00      -78.437       -0.352       -3.490       76.694       32.361       27.258     5881.932     1047.205      742.994        0.692        0.384       78.438       21.778        0.077      333.514        2.878      866.877
01/11/2021  19:49:00     -142.332       35.064        0.662       56.535       34.161       28.201     3196.178     1166.972      795.291        1.332        0.258      146.588       27.096        0.034      333.350        2.607      866.905
01/11/2021  19:50:00     -182.630       44.220       -8.895       62.554       41.328       36.598     3912.956     1708.032     1339.392        2.117        0.348      187.908       26.896        0.020      333.361        2.625      866.928
01/11/2021  19:51:00     -177.235       42.557      -26.796       56.021       42.038       32.768     3138.358     1767.183     1073.719        1.996        0.299      182.272       20.280        0.012      333.447        2.766      866.934
01/11/2021  19:52:00     -140.616       29.316      -23.731       45.915       36.431       27.935     2108.193     1327.237      780.342        1.270        0.211      143.640       12.877        0.008      333.395        2.681      866.935
01/11/2021  19:53:00     -134.585       30.620      -25.827       38.501       25.034       23.875     1482.322      626.677      570.012        1.120        0.134      138.024        8.302        0.004      333.464        2.796      866.935
01/11/2021  19:54:00     -122.183       36.376      -23.184       36.028       23.234       23.678     1298.037      539.817      560.628        0.959        0.120      127.483       14.850        0.014      333.513        2.876      866.946
01/11/2021  19:55:00     -120.014       33.097      -19.774       33.805       26.789       21.689     1142.798      717.640      470.397        0.911        0.117      124.494       16.399        0.017      333.487        2.832      866.967
01/11/2021  19:56:00     -130.895       24.953       -9.452       37.623       26.441       25.210     1415.462      699.114      635.526        1.030        0.138      133.253       21.579        0.026      333.453        2.777      866.987
01/11/2021  19:57:00     -110.339        9.527       -4.532       44.868       40.019       24.772     2013.160     1601.511      613.640        0.826        0.211      110.749       21.414        0.037      333.402        2.694      867.010
01/11/2021  19:58:00      -87.337       10.686       -4.396       51.710       30.476       21.458     2673.921      928.763      460.435        0.591        0.203       87.989       15.622        0.032      333.506        2.866      867.033
01/11/2021  19:59:00      -90.499       29.153       -2.202       32.710       40.055       16.568     1069.951     1604.434      274.488        0.600        0.147       95.079       15.157        0.025      333.335        2.582      867.058
01/11/2021  20:00:00     -104.648       25.994      -12.902       32.138       27.001       18.877     1032.856      729.063      356.327        0.696        0.106      107.828       10.752        0.010      333.276        2.484      867.088
01/11/2021  20:01:00     -113.807        9.106      -20.934       35.060       27.489       18.943     1229.233      755.632      358.838        0.791        0.117      114.171        9.979        0.008      333.339        2.588      867.115
01/11/2021  20:02:00      -87.922       26.893      -13.710       57.980       36.829       20.458     3361.654     1356.375      418.539        0.689        0.257       91.943       19.918        0.047      333.293        2.514      867.139
01/11/2021  20:03:00     -117.848       54.523      -16.647       35.142       23.154       22.447     1234.971      536.123      503.876        0.971        0.114      129.850       18.297        0.020      333.449        2.772      867.154
01/11/2021  20:04:00      -96.627       24.898      -20.096       48.024       30.316       27.853     2306.286      919.076      775.798        0.718        0.200       99.783       24.088        0.058      333.566        2.965      867.154
01/11/2021  20:05:00      -48.714        4.583      -14.256       24.578       27.996       16.904      604.076      783.755      285.748        0.214        0.084       48.929       11.431        0.055      333.470        2.805      867.141
01/11/2021  20:06:00      -43.810       33.210      -10.637       43.340       28.159       22.007     1878.326      792.924      484.308        0.314        0.158       54.975       20.896        0.144      333.790        3.335      867.114
01/11/2021  20:07:00      -12.093       91.490       -9.173       40.608       55.005       22.265     1649.035     3025.557      495.729        0.688        0.259       92.286       19.564        0.045      334.191        4.000      867.096
01/11/2021  20:08:00      -29.860      103.704       -8.522       35.152       45.604       27.803     1235.654     2079.706      773.006        0.790        0.204      107.917       19.120        0.031      334.177        3.978      867.092
01/11/2021  20:09:00      -22.196       26.642        3.981       26.276       32.140       23.610      690.435     1033.011      557.411        0.175        0.114       34.677       17.902        0.267      333.689        3.168      867.091
01/11/2021  20:10:00      -19.309       18.154       -5.813       16.962       14.923       10.107      287.708      222.697      102.150        0.067        0.031       26.503        6.398        0.058      333.691        3.171      867.092
01/11/2021  20:11:00      -22.379        8.594       -6.687       14.739       17.007       13.127      217.238      289.242      172.307        0.065        0.034       23.972        7.261        0.092      333.699        3.187      867.094
01/11/2021  20:12:00      -68.766       12.174      -12.908       33.107       12.329       15.186     1096.043      152.004      230.610        0.326        0.074       69.835       14.189        0.041      333.490        2.839      867.112
01/11/2021  20:13:00      -65.209      -21.422       -7.095       31.108       28.747       20.051      967.727      826.405      402.058        0.348        0.110       68.638       14.089        0.042      333.445        2.765      867.131
01/11/2021  20:14:00      -29.592       -7.102       -7.673       30.008       29.694       21.064      900.476      881.743      443.677        0.160        0.111       30.432       19.025        0.391      333.489        2.838      867.141
01/11/2021  20:15:00      -63.662       -4.945       -0.658       24.795       21.463       12.516      614.801      460.662      156.660        0.265        0.062       63.854        5.736        0.008      333.542        2.926      867.147
01/11/2021  20:16:00      -64.712      -12.635       -3.263       25.420       17.147       13.444      646.165      294.030      180.728        0.274        0.056       65.934        7.661        0.014      333.702        3.190      867.134
01/11/2021  20:17:00      -68.229      -49.257      -15.400       17.947       14.439        9.874      322.106      208.480       97.502        0.397        0.031       84.152        5.038        0.004      333.810        3.369      867.115
01/11/2021  20:18:00      -66.027      -24.011      -14.788       17.281       15.664       13.225      298.635      245.358      174.913        0.294        0.036       70.257        7.369        0.011      333.933        3.574      867.089
01/11/2021  20:19:00      -69.138      -27.331       -5.128       20.019       13.194       12.526      400.775      174.079      156.909        0.314        0.037       74.344       10.702        0.021      333.873        3.475      867.068
01/11/2021  20:20:00      -44.551      -14.416       -2.518       23.261       21.408       14.331      541.073      458.317      205.376        0.170        0.060       46.825       10.067        0.046      333.821        3.388      867.043
01/11/2021  20:21:00      -46.199      -16.402       -3.752       32.555       20.624       21.029     1059.829      425.361      442.226        0.217        0.096       49.025       12.416        0.064      333.728        3.232      867.025
01/11/2021  20:22:00      -65.594      -20.839       -1.423       30.759       26.592       17.846      946.089      707.129      318.496        0.335        0.099       68.825       16.258        0.056      333.655        3.112      867.029
01/11/2021  20:23:00      -91.161       -9.119        0.654       43.368       23.479       16.258     1880.810      551.271      264.321        0.554        0.135       91.616        9.512        0.011      333.656        3.114      867.038
01/11/2021  20:24:00     -101.056       -8.413       -2.581       32.784       21.762       20.921     1074.793      473.565      437.668        0.614        0.099      101.406       19.738        0.038      333.627        3.066      867.033
01/11/2021  20:25:00      -77.488      -19.372       -1.056       46.632       35.510       22.255     2174.502     1260.931      495.270        0.515        0.197       79.873       23.664        0.088      333.654        3.111      867.020
01/11/2021  20:26:00      -36.956      -21.602        1.880       44.514       34.179       27.268     1981.502     1168.185      743.538        0.286        0.195       42.807       20.942        0.239      333.640        3.088      867.023
01/11/2021  20:27:00      -86.232        2.065        3.578       53.225       43.785       29.061     2832.872     1917.119      844.534        0.652        0.280       86.257       29.573        0.118      333.672        3.141      867.028
01/11/2021  20:28:00     -141.145       -4.998       -9.092       59.781       25.302       16.131     3573.775      640.187      260.206        1.225        0.224      141.233       12.996        0.008      333.646        3.097      867.034
01/11/2021  20:29:00     -126.367      -25.212       -9.157       62.345       42.535       21.749     3886.941     1809.191      473.028        1.143        0.308      128.858       18.533        0.021      333.589        3.004      867.038
01/11/2021  20:30:00     -114.494       -4.793        3.454       77.608       52.637       28.004     6023.023     2770.666      784.239        1.136        0.479      114.595       31.276        0.074      333.542        2.924      867.054
01/11/2021  20:31:00     -152.367      -13.186       -5.226       55.486       46.554       30.557     3078.687     2167.284      933.707        1.480        0.309      152.936       29.914        0.038      333.538        2.918      867.053
01/11/2021  20:32:00     -153.570        2.481       -0.500       39.143       33.819       24.349     1532.195     1143.713      592.894        1.343        0.163      153.590       16.220        0.011      333.510        2.871      867.052
01/11/2021  20:33:00     -134.128      -19.234       -0.460       57.669       38.587       26.962     3325.691     1488.935      726.938        1.195        0.277      135.500       20.484        0.023      333.456        2.781      867.049
01/11/2021  20:34:00     -119.063       -7.478        9.652       69.314       38.912       33.711     4804.454     1514.175     1136.417        1.089        0.373      119.297       30.483        0.065      333.404        2.697      867.048
01/11/2021  20:35:00     -114.767      -14.008        7.848       52.680       32.326       24.193     2775.192     1044.949      585.321        0.892        0.220      115.618       20.551        0.032      333.473        2.811      867.066
01/11/2021  20:36:00     -133.057      -28.739      -11.280       32.345       29.680       21.773     1046.220      880.880      474.046        1.053        0.120      136.126       20.486        0.023      333.522        2.891      867.082
01/11/2021  20:37:00      -85.258      -22.486        3.344       33.661       34.262       19.946     1133.075     1173.909      397.825        0.524        0.135       88.173       16.694        0.036      333.590        3.005      867.098
01/11/2021  20:38:00      -60.755      -12.036       -1.188       21.584       25.450       15.049      465.881      647.691      226.480        0.259        0.067       61.935        6.876        0.012      333.672        3.141      867.115
01/11/2021  20:39:00      -44.470      -24.709       -2.071       26.186       19.840       12.829      685.683      393.619      164.577        0.192        0.062       50.874       10.892        0.046      333.719        3.219      867.133
01/11/2021  20:40:00      -44.934      -21.995       -4.037       25.085       21.449       13.933      629.238      460.042      194.129        0.190        0.064       50.029        8.089        0.026      333.711        3.204      867.155
01/11/2021  20:41:00      -51.874      -13.693       -3.487       28.785       25.043       18.828      828.578      627.148      354.487        0.235        0.091       53.651       10.040        0.035      333.708        3.201      867.162
01/11/2021  20:42:00      -57.363      -15.169       -2.672       20.464       23.823       12.098      418.787      567.530      146.373        0.233        0.057       59.335        6.983        0.014      333.664        3.128      867.150
01/11/2021  20:43:00      -76.215      -19.962       -7.066       26.877       23.601       15.508      722.400      557.022      240.510        0.389        0.076       78.785       12.154        0.024      333.677        3.150      867.126
01/11/2021  20:44:00      -74.580        2.840        1.037       45.040       22.929       18.848     2028.603      525.749      355.247        0.424        0.145       74.634       19.659        0.069      333.709        3.203      867.110
01/11/2021  20:45:00      -67.635       11.571        5.654       50.992       26.550       20.497     2600.228      704.894      420.137        0.423        0.186       68.618       22.469        0.107      333.647        3.101      867.093
01/11/2021  20:46:00      -61.532      -28.001       -3.007       43.471       30.377       23.103     1889.707      922.760      533.758        0.396        0.167       67.604       18.044        0.071      333.670        3.137      867.081
01/11/2021  20:47:00      -84.735       -4.400      -10.051       41.198       32.706       20.668     1697.288     1069.712      427.151        0.525        0.160       84.850       22.117        0.068      333.615        3.047      867.086
01/11/2021  20:48:00      -77.333       24.565       -0.232       35.018       20.032       16.616     1226.227      401.273      276.080        0.424        0.095       81.141       16.067        0.039      333.606        3.030      867.119
01/11/2021  20:49:00      -43.114        4.357        6.542       38.776       19.786       17.272     1503.576      391.476      298.339        0.206        0.110       43.333       16.604        0.147      333.586        2.999      867.162
01/11/2021  20:50:00      -45.172        4.674        8.424       36.955       23.132       18.688     1365.674      535.082      349.250        0.219        0.113       45.413       12.619        0.077      333.611        3.040      867.202
01/11/2021  20:51:00      -73.805       11.382      -12.855       43.185       27.875       19.099     1864.976      777.021      364.784        0.437        0.150       74.678       19.008        0.065      333.552        2.943      867.222
01/11/2021  20:52:00     -118.208       26.208       -8.233       33.245       32.781       15.926     1105.252     1074.614      253.653        0.858        0.122      121.078       14.153        0.014      333.478        2.818      867.237
01/11/2021  20:53:00     -126.024       44.950       -6.318       39.894       28.083       18.640     1591.500      788.645      347.449        1.033        0.136      133.801       11.653        0.008      333.517        2.883      867.241
01/11/2021  20:54:00      -50.988       19.796       -3.191       37.392       31.813       24.488     1398.141     1012.096      599.672        0.301        0.150       54.696       20.465        0.140      333.511        2.875      867.247
01/11/2021  20:55:00      -17.978       44.550        1.027       41.863       27.444       14.676     1752.505      753.156      215.382        0.251        0.136       48.041       11.308        0.055      333.556        2.948      867.264
01/11/2021  20:56:00      -12.233       48.232        2.490       19.102       35.252       15.642      364.875     1242.702      244.661        0.217        0.093       49.759       12.648        0.065      333.517        2.884      867.282
01/11/2021  20:57:00       16.521       24.984       -2.395       23.329       14.456       11.782      544.226      208.966      138.808        0.090        0.045       29.953       13.762        0.211      333.492        2.842      867.277
01/11/2021  20:58:00       40.948       44.189      -17.976       18.622       14.299       11.518      346.767      204.473      132.660        0.232        0.034       60.244        7.713        0.016      333.491        2.841      867.256
01/11/2021  20:59:00       20.191       16.190       -3.817       21.826       17.716       13.809      476.394      313.865      190.678        0.083        0.049       25.881       10.460        0.163      333.455        2.781      867.245
01/11/2021  21:00:00       -0.133       15.175       -2.656       14.357       20.741        9.167      206.137      430.207       84.032        0.048        0.036       15.176        7.730        0.259      333.452        2.776      867.228
01/11/2021  21:01:00      -22.608       68.375       -1.184       19.677       11.942       11.124      387.179      142.620      123.750        0.292        0.033       72.016        9.597        0.018      333.769        3.300      867.213
01/11/2021  21:02:00        0.190       60.601       -0.426       13.405       19.893       13.867      179.690      395.717      192.283        0.222        0.038       60.601       13.039        0.046      333.687        3.166      867.211
01/11/2021  21:03:00        9.862       56.756        1.758       16.626       10.713        9.620      276.423      114.770       92.535        0.190        0.024       57.606        8.032        0.019      333.905        3.528      867.205
01/11/2021  21:04:00       -5.610       34.976       -1.874       16.329       17.669        9.906      266.645      312.209       98.120        0.097        0.034       35.423       10.891        0.095      333.771        3.304      867.192
01/11/2021  21:05:00      -13.988       47.097       -0.997       15.835       20.518        9.014      250.734      420.999       81.259        0.158        0.038       49.130        2.124        0.002      333.828        3.398      867.180
01/11/2021  21:06:00       10.212       19.330       -2.909       13.244       19.696       13.463      175.407      387.935      181.250        0.062        0.037       21.862        9.940        0.207      333.783        3.324      867.165
01/11/2021  21:07:00       -6.668      -39.480       -1.754       24.709       16.388       16.866      610.513      268.580      284.459        0.138        0.058       40.039       17.134        0.183      333.540        2.921      867.163
01/11/2021  21:08:00       -7.976        2.353       -6.317       13.189       13.867        8.048      173.955      192.297       64.762        0.027        0.022        8.315        4.934        0.352      333.427        2.734      867.169
01/11/2021  21:09:00       -6.337       10.311       -6.108       10.373        5.617        5.110      107.597       31.545       26.107        0.017        0.008       12.103        5.097        0.177      333.396        2.683      867.173
01/11/2021  21:10:00      -16.031       19.917       -3.532       14.618        6.423        5.091      213.691       41.249       25.923        0.047        0.014       25.568        3.930        0.024      333.534        2.911      867.172
01/11/2021  21:11:00        2.212        8.688       -2.408       12.881        7.279        7.132      165.922       52.982       50.861        0.018        0.013        8.965        8.034        0.803      333.505        2.862      867.164
01/11/2021  21:12:00       16.220       74.954        3.656       19.712       42.704       17.020      388.558     1823.632      289.696        0.420        0.125       76.689       20.362        0.070      333.861        3.454      867.153
01/11/2021  21:13:00       11.670      127.282       -3.479       21.207       25.250       21.493      449.720      637.586      461.931        0.895        0.077      127.816       14.861        0.014      333.965        3.627      867.133
01/11/2021  21:14:00        4.589       96.564      -13.076       23.265       38.419       21.776      541.252     1475.998      474.180        0.600        0.125       96.673       18.866        0.038      333.827        3.398      867.119
01/11/2021  21:15:00       -3.173       58.384       -6.218       32.953       24.774       18.065     1085.892      613.754      326.332        0.274        0.101       58.470       12.824        0.048      333.708        3.201      867.125
01/11/2021  21:16:00       10.562       55.998        1.084       27.175       28.236       16.237      738.487      797.286      263.655        0.252        0.090       56.986       12.230        0.046      333.729        3.235      867.134
01/11/2021  21:17:00       33.310       82.313        0.393       28.365       30.397       20.377      804.545      923.948      415.204        0.501        0.107       88.797       12.392        0.019      333.749        3.267      867.126
01/11/2021  21:18:00       37.510       70.707        0.487       27.010       30.427       15.263      729.552      925.783      232.960        0.415        0.094       80.040       13.901        0.030      333.706        3.196      867.110
01/11/2021  21:19:00       17.994       98.106       -2.714       21.475       44.514       18.021      461.193     1981.463      324.774        0.636        0.138       99.742       18.224        0.033      333.776        3.314      867.108
01/11/2021  21:20:00        3.140      106.074      -17.706       30.281       43.577       14.401      916.969     1898.967      207.391        0.730        0.151      106.120        6.816        0.004      333.797        3.347      867.119
01/11/2021  21:21:00      -44.636       25.416       -3.334       28.547       18.932       17.871      814.940      358.416      319.378        0.207        0.075       51.365       16.309        0.101      333.581        2.991      867.136
01/11/2021  21:22:00      -52.791       37.074       -7.412       21.377       23.582       15.634      456.975      556.089      244.414        0.274        0.063       64.508       11.354        0.031      333.543        2.927      867.145
01/11/2021  21:23:00      -33.534       67.703      -10.473       20.857       49.177       12.855      434.994     2418.371      165.262        0.442        0.151       75.553        6.433        0.007      333.741        3.255      867.136
01/11/2021  21:24:00      -27.456      137.191       -4.102       29.036       26.351       19.970      843.065      694.357      398.806        1.076        0.097      139.911       16.225        0.013      333.885        3.493      867.132
01/11/2021  21:25:00       28.902      138.407      -13.117       25.460       28.929       16.013      648.222      836.914      256.429        1.095        0.087      141.393       15.269        0.012      333.981        3.653      867.146
01/11/2021  21:26:00       20.637       92.319       -0.369       28.672       33.989       21.793      822.097     1155.224      474.947        0.570        0.123       94.597       19.150        0.041      333.934        3.576      867.181
01/11/2021  21:27:00       19.868       73.091        3.196       22.115       35.704       16.136      489.095     1274.786      260.357        0.389        0.101       75.743       16.256        0.046      333.862        3.454      867.207
01/11/2021  21:28:00      -26.125       41.296        1.903       31.428       38.268       14.285      987.702     1464.431      204.065        0.252        0.133       48.865        8.219        0.028      333.770        3.302      867.213
01/11/2021  21:29:00      -45.848       19.354      -14.886       13.850       21.282       10.696      191.819      452.933      114.410        0.173        0.038       49.766        8.453        0.029      333.592        3.008      867.201
01/11/2021  21:30:00      -37.262       14.881       -8.050       30.305       22.236       15.216      918.391      494.455      231.538        0.166        0.082       40.124        9.587        0.057      333.535        2.912      867.182
01/11/2021  21:31:00      -61.905       24.414      -18.744       22.139       18.309       16.128      490.126      335.208      260.128        0.293        0.054       66.545        6.020        0.008      333.533        2.910      867.178
01/11/2021  21:32:00      -35.013        8.264       -7.812       33.177       24.326       25.225     1100.693      591.733      636.285        0.184        0.116       35.975       23.002        0.409      333.602        3.024      867.183
01/11/2021  21:33:00      -26.198       47.539       -8.017       17.705       45.426       16.038      313.484     2063.544      257.202        0.282        0.132       54.280       18.046        0.111      333.806        3.362      867.179
01/11/2021  21:34:00      -13.992       99.756       -5.421       18.159       23.350       13.589      329.750      545.228      184.660        0.562        0.053      100.733       11.649        0.013      333.854        3.443      867.168
01/11/2021  21:35:00       24.143      118.185       -5.635       26.991       36.891       25.207      728.489     1360.946      635.395        0.865        0.136      120.626       23.976        0.040      334.060        3.783      867.158
01/11/2021  21:36:00       25.747      132.879      -12.339       23.158       26.872       19.360      536.299      722.093      374.827        1.005        0.082      135.351       11.199        0.007      334.105        3.859      867.149
01/11/2021  21:37:00       22.675      102.746        6.849       22.254       33.897       21.516      495.244     1149.007      462.927        0.661        0.105      105.219       10.944        0.011      334.012        3.703      867.137
01/11/2021  21:38:00       37.438      106.562       -3.695       29.503       44.173       24.364      870.423     1951.245      593.586        0.809        0.171      112.948       17.694        0.025      333.940        3.584      867.123
01/11/2021  21:39:00       35.934      117.958       -0.112       26.169       34.817       25.617      684.808     1212.254      656.217        0.888        0.128      123.310       16.357        0.018      334.024        3.723      867.116
01/11/2021  21:40:00       48.157      119.590        2.664       38.132       32.995       25.146     1454.045     1088.662      632.322        0.990        0.159      128.922       21.225        0.027      333.932        3.571      867.118
01/11/2021  21:41:00       30.099      146.624        0.490       25.797       34.223       27.324      665.502     1171.205      746.628        1.249        0.129      149.681       18.486        0.015      333.994        3.674      867.120
01/11/2021  21:42:00       22.167      151.079      -13.081       16.854       27.102       14.366      284.069      734.520      206.394        1.236        0.061      152.697       12.798        0.007      334.007        3.697      867.138
01/11/2021  21:43:00      -39.716       11.998       -5.543       32.082       32.264       14.627     1029.236     1040.990      213.950        0.202        0.114       41.488        3.354        0.007      333.516        2.884      867.165
01/11/2021  21:44:00      -55.464       22.346       -2.726       40.147       20.336       17.038     1611.744      413.539      290.300        0.295        0.116       59.796       14.802        0.061      333.284        2.498      867.184
01/11/2021  21:45:00      -37.376       34.538      -11.820       32.219       17.485       13.929     1038.061      305.729      194.027        0.213        0.077       50.891        9.899        0.038      333.270        2.474      867.165
01/11/2021  21:46:00      -20.255       40.587       -1.206       22.319       25.770       14.592      498.159      664.077      212.941        0.172        0.069       45.360       12.978        0.082      333.495        2.849      867.141
01/11/2021  21:47:00      -17.782       25.327        1.792       22.229       33.706       15.379      494.116     1136.076      236.528        0.141        0.093       30.946       12.812        0.171      333.606        3.032      867.153
01/11/2021  21:48:00      -29.536       16.086      -11.407       37.219       26.563       15.238     1385.261      705.583      232.190        0.179        0.116       33.633       14.085        0.175      333.314        2.548      867.181
01/11/2021  21:49:00      -34.838       11.305      -10.681       36.690       27.118       19.958     1346.146      735.372      398.306        0.197        0.124       36.626       15.421        0.177      333.204        2.364      867.202
01/11/2021  21:50:00      -46.601        6.062       -3.221       42.426       32.018       23.843     1799.955     1025.134      568.467        0.281        0.170       46.994       22.543        0.230      333.147        2.271      867.210
01/11/2021  21:51:00      -70.987        2.771      -13.176       35.698       23.686       22.041     1274.313      561.047      485.803        0.377        0.116       71.041        9.584        0.018      333.164        2.297      867.199
01/11/2021  21:52:00      -99.830       16.935      -16.133       28.345       23.206       15.593      803.441      538.536      243.148        0.605        0.079      101.257        7.093        0.005      333.142        2.264      867.185
01/11/2021  21:53:00      -89.905        8.642       -7.942       26.750       25.009       20.208      715.559      625.436      408.368        0.498        0.087       90.320       13.867        0.024      333.134        2.250      867.178
01/11/2021  21:54:00      -54.424       10.826        1.151       56.178       28.580       21.358     3155.981      816.798      456.165        0.375        0.221       55.490       20.778        0.140      333.109        2.209      867.196
01/11/2021  21:55:00      -65.822       -8.128       -8.671       30.021       27.398       21.165      901.257      750.655      447.949        0.329        0.105       66.322       10.159        0.023      333.209        2.374      867.214
01/11/2021  21:56:00      -69.666        5.604       -2.823       41.872       24.209       19.359     1753.291      586.095      374.774        0.380        0.136       69.891       15.698        0.050      333.226        2.402      867.207
01/11/2021  21:57:00      -96.661       19.462       -6.162       30.883       31.086       22.191      953.752      966.368      492.436        0.609        0.121       98.601       14.823        0.023      333.361        2.625      867.181
01/11/2021  21:58:00     -108.494       30.294      -20.894       31.998       26.395       19.485     1023.900      696.705      379.682        0.761        0.105      112.644       13.280        0.014      333.356        2.617      867.170
01/11/2021  21:59:00     -103.284       42.997      -15.474       31.546       24.420       19.537      995.145      596.357      381.706        0.736        0.099      111.876       15.738        0.020      333.272        2.478      867.159
01/11/2021  22:00:00      -99.036       36.820      -15.471       27.433       24.988       18.338      752.551      624.376      336.268        0.656        0.086      105.659       15.430        0.021      333.253        2.446      867.150
01/11/2021  22:01:00      -93.031       12.778      -10.714       41.530       29.089       22.383     1724.758      846.199      500.991        0.600        0.154       93.904       20.108        0.046      333.148        2.274      867.146
01/11/2021  22:02:00      -90.708        7.682      -10.626       50.577       34.635       19.701     2558.054     1199.561      388.131        0.627        0.207       91.033       18.382        0.041      333.079        2.161      867.151
01/11/2021  22:03:00     -109.380       13.046       -9.913       41.967       24.807       18.415     1761.203      615.389      339.100        0.747        0.136      110.155       18.332        0.028      333.037        2.089      867.172
01/11/2021  22:04:00      -65.091       10.946       -3.581       47.392       27.149       18.684     2246.030      737.081      349.100        0.385        0.167       66.005       23.137        0.123      333.115        2.219      867.188
01/11/2021  22:05:00      -88.745       17.128       -4.459       36.441       25.258       18.021     1327.946      637.991      324.758        0.524        0.115       90.382       13.989        0.024      333.084        2.168      867.190
01/11/2021  22:06:00      -95.818       26.048       -4.837       39.425       28.873       23.034     1554.326      833.639      530.548        0.640        0.146       99.296       18.124        0.033      333.069        2.143      867.175
01/11/2021  22:07:00      -64.460       20.861        0.095       47.074       30.533       25.033     2215.917      932.270      626.640        0.418        0.189       67.751       25.221        0.139      333.200        2.356      867.162
01/11/2021  22:08:00      -72.773       26.566      -10.280       31.695       24.055       16.938     1004.589      578.632      286.899        0.399        0.094       77.471       12.785        0.027      333.299        2.523      867.158
01/11/2021  22:09:00      -90.764       14.601      -13.219       28.493       30.436       18.188      811.856      926.342      330.785        0.535        0.103       91.931       11.263        0.015      333.390        2.674      867.164
01/11/2021  22:10:00      -61.243        0.740      -10.059       34.124       25.213       17.372     1164.436      635.698      301.799        0.298        0.105       61.247       14.719        0.058      333.307        2.536      867.170
01/11/2021  22:11:00      -46.180       10.874       -0.189       37.139       23.003       18.089     1379.298      529.147      327.217        0.224        0.112       47.444       14.326        0.091      333.285        2.499      867.164
01/11/2021  22:12:00      -26.971       -9.030       -3.226       17.228       17.340        9.404      296.810      300.690       88.427        0.075        0.034       28.443        4.502        0.025      333.289        2.506      867.153
01/11/2021  22:13:00      -18.979        2.492       -1.614       23.631       12.080        9.760      558.432      145.920       95.261        0.058        0.040       19.142        4.865        0.065      333.390        2.673      867.167
01/11/2021  22:14:00      -99.819       19.702       -5.910       67.219       30.842       18.464     4518.412      951.213      340.908        0.810        0.291      101.745       15.967        0.025      333.347        2.602      867.171
01/11/2021  22:15:00     -129.826       26.026       -9.505       30.303       32.600       20.684      918.258     1062.731      427.832        1.002        0.120      132.409       13.407        0.010      333.284        2.498      867.173
01/11/2021  22:16:00     -109.801       17.250        7.665       56.018       40.149       28.064     3138.040     1611.905      787.594        0.897        0.277      111.147       26.771        0.058      333.225        2.402      867.203
01/11/2021  22:17:00     -100.456       18.876        4.169       64.603       31.113       26.469     4173.518      967.997      700.601        0.815        0.292      102.214       29.751        0.085      333.228        2.406      867.259
01/11/2021  22:18:00     -104.341       18.973       -2.039       39.054       30.612       23.388     1525.198      937.116      547.005        0.713        0.150      106.052       18.929        0.032      333.215        2.383      867.314
01/11/2021  22:19:00      -88.675        8.212       -1.937       23.919       22.007       15.272      572.095      484.316      233.221        0.461        0.064       89.054       11.746        0.017      333.265        2.465      867.343
01/11/2021  22:20:00      -74.074       15.412       -6.369       31.669       16.891       14.748     1002.956      285.301      217.516        0.364        0.075       75.660       10.525        0.019      333.319        2.557      867.347
01/11/2021  22:21:00      -64.818       10.873        0.003       41.082       28.293       16.619     1687.713      800.492      276.181        0.354        0.138       65.723       16.489        0.063      333.287        2.502      867.344
01/11/2021  22:22:00      -78.469        3.696        5.235       58.649       34.731       24.526     3439.761     1206.214      601.502        0.572        0.262       78.556       25.540        0.106      333.328        2.571      867.373
01/11/2021  22:23:00      -12.628      -10.751        7.267       53.642       32.782       25.446     2877.456     1074.641      647.509        0.246        0.230       16.585       26.260        2.507      333.290        2.508      867.414
01/11/2021  22:24:00      -32.447        6.941       -0.541       40.849       39.036       26.718     1668.666     1523.844      713.875        0.250        0.195       33.181       11.192        0.114      333.279        2.490      867.461
01/11/2021  22:25:00     -116.757       15.838       -4.500       36.560       30.622       27.037     1336.637      937.701      730.990        0.845        0.150      117.827       19.065        0.026      333.378        2.653      867.497
01/11/2021  22:26:00      -42.055       -1.043        3.184       44.755       29.673       16.901     2002.987      880.483      285.636        0.247        0.158       42.068        7.959        0.036      333.402        2.693      867.552
01/11/2021  22:27:00      -50.293      -32.297       -0.561       55.896       32.337       18.572     3124.338     1045.653      344.909        0.404        0.226       59.770       15.720        0.069      333.475        2.814      867.572
01/11/2021  22:28:00      -75.086      -16.033        0.784       43.144       29.433       24.984     1861.368      866.302      624.211        0.462        0.168       76.779       21.829        0.081      333.462        2.794      867.569
01/11/2021  22:29:00      -75.478       -6.483       -1.990       38.876       36.457       28.278     1511.351     1329.109      799.654        0.469        0.182       75.756       20.238        0.071      333.386        2.666      867.544
01/11/2021  22:30:00      -49.399       -7.475        4.116       31.209       31.278       25.336      974.000      978.301      641.923        0.255        0.130       49.961       17.637        0.125      333.391        2.675      867.528
01/11/2021  22:31:00      -43.320       -2.939        7.556       38.735       30.627       21.857     1500.401      938.012      477.729        0.243        0.146       43.419       20.646        0.226      333.407        2.701      867.506
01/11/2021  22:32:00      -35.305       -1.806       -5.280       15.628       17.004        9.506      244.250      289.144       90.367        0.095        0.031       35.351        7.384        0.044      333.383        2.663      867.464
01/11/2021  22:33:00        4.044       -6.898       -4.480       13.961       10.525        9.215      194.919      110.766       84.908        0.024        0.020        7.996        7.563        0.894      333.435        2.748      867.441
01/11/2021  22:34:00       29.201      -24.886      -15.555       23.376       14.398       14.306      546.432      207.306      204.671        0.134        0.048       38.367       14.498        0.143      333.421        2.727      867.438
01/11/2021  22:35:00        9.250      -10.240       -7.264       16.858       14.608        7.474      284.187      213.405       55.865        0.040        0.028       13.799        7.107        0.265      333.430        2.740      867.451
01/11/2021  22:36:00      -23.558       35.960       -2.042       19.320       15.290        8.818      373.264      233.781       77.764        0.127        0.034       42.989       10.588        0.061      333.426        2.734      867.446
01/11/2021  22:37:00        5.394       24.079       -1.687       24.299        6.559        9.829      590.440       43.015       96.603        0.067        0.037       24.675       10.619        0.185      333.472        2.810      867.419
01/11/2021  22:38:00       49.269       44.936       -9.484       11.517       11.103        9.576      132.634      123.269       91.707        0.244        0.017       66.683        7.077        0.011      333.629        3.069      867.420
01/11/2021  22:39:00       12.443       23.305       -6.181       17.252       11.853       11.656      297.634      140.502      135.867        0.065        0.029       26.419       11.572        0.192      333.540        2.922      867.451
01/11/2021  22:40:00      -16.748      -11.753        3.234       19.590       22.830       11.578      383.783      521.186      134.061        0.073        0.052       20.460       11.723        0.328      333.504        2.862      867.494
01/11/2021  22:41:00      -10.071      -24.309      -13.184       21.829       10.499       10.852      476.503      110.235      117.760        0.079        0.035       26.313       13.278        0.255      333.346        2.602      867.533
01/11/2021  22:42:00      -19.063      -25.128       -9.852       15.950       12.882       10.037      254.415      165.954      100.750        0.081        0.026       31.541        8.802        0.078      333.411        2.707      867.557
01/11/2021  22:43:00      -21.169       -2.908       -4.985       23.083       16.722       16.189      532.837      279.637      262.068        0.078        0.054       21.367        9.426        0.195      333.524        2.896      867.560
01/11/2021  22:44:00      -22.449      -10.394        1.240       28.955       14.052       12.368      838.370      197.470      152.963        0.090        0.059       24.739       10.483        0.180      333.501        2.857      867.546
01/11/2021  22:45:00      -41.840      -43.476       -7.031       28.366       34.431       19.852      804.656     1185.498      394.087        0.304        0.119       60.339       14.482        0.058      333.542        2.925      867.540
01/11/2021  22:46:00      -38.529      -17.588        1.192       46.760       32.273       23.402     2186.475     1041.568      547.667        0.278        0.189       42.354       20.105        0.225      333.481        2.826      867.550
01/11/2021  22:47:00        0.527      -22.633       12.633       28.024       32.856       24.465      785.340     1079.498      598.534        0.157        0.123       22.639       20.843        0.848      333.496        2.848      867.561
01/11/2021  22:48:00      -77.136      -34.990        2.397       61.153       36.344       23.401     3739.674     1320.919      547.625        0.639        0.280       84.701       22.938        0.073      333.423        2.728      867.575
01/11/2021  22:49:00      -20.304      -19.069        5.583       34.736       27.128       18.010     1206.571      735.926      324.378        0.154        0.113       27.855       14.742        0.280      333.369        2.638      867.596
01/11/2021  22:50:00      -80.073       -7.756       -9.507       29.629       29.297       22.687      877.907      858.327      514.682        0.441        0.113       80.448       15.011        0.035      333.268        2.471      867.602
01/11/2021  22:51:00      -72.982      -11.673        0.163       34.947       16.899       13.950     1221.261      285.570      194.598        0.358        0.085       73.909        5.001        0.005      333.319        2.555      867.595
01/11/2021  22:52:00      -21.064      -12.433       -2.517       26.086       31.590       17.613      680.494      997.907      310.233        0.130        0.099       24.459        7.184        0.086      333.336        2.585      867.601
01/11/2021  22:53:00      -65.899      -24.901       -0.484       35.533       27.945       19.414     1262.587      780.911      376.896        0.369        0.121       70.447       14.536        0.043      333.374        2.649      867.640
01/11/2021  22:54:00      -47.197      -30.581       -1.091       57.065       33.884       19.443     3256.390     1148.142      378.039        0.397        0.239       56.238       11.086        0.039      333.399        2.688      867.692
01/11/2021  22:55:00      -77.497      -29.566       -2.269       64.303       44.760       29.168     4134.823     2003.502      850.756        0.694        0.349       82.946       24.949        0.090      333.361        2.626      867.733
01/11/2021  22:56:00     -102.086      -23.979        1.770       61.460       54.600       32.684     3777.331     2981.196     1068.225        0.941        0.391      104.864       26.879        0.066      333.276        2.485      867.748
01/11/2021  22:57:00      -85.295       -9.106      -13.238       57.447       38.380       29.012     3300.124     1473.059      841.692        0.657        0.281       85.780       23.751        0.077      333.223        2.397      867.739
01/11/2021  22:58:00     -117.712        7.708       -0.448       47.043       33.493       22.909     2213.057     1121.773      524.817        0.889        0.193      117.964       19.927        0.029      333.176        2.320      867.727
01/11/2021  22:59:00      -94.153       -0.418        4.160       54.817       32.834       27.695     3004.911     1078.100      767.017        0.687        0.243       94.154       21.050        0.050      333.080        2.160      867.732
01/11/2021  23:00:00      -79.630       -9.014       -0.966       54.716       40.841       30.095     2993.811     1667.960      905.716        0.599        0.278       80.138       27.102        0.114      333.114        2.217      867.769
01/11/2021  23:01:00      -87.649      -25.899        3.807       51.875       33.543       27.515     2691.042     1125.106      757.098        0.647        0.229       91.396       21.057        0.053      333.212        2.378      867.779
01/11/2021  23:02:00     -102.715      -76.150      -10.281       34.876       34.278       20.056     1216.301     1174.971      402.256        0.962        0.140      127.864       11.123        0.008      333.182        2.328      867.759
01/11/2021  23:03:00      -96.977      -33.354      -11.402       26.766       25.210       13.533      716.405      635.524      183.141        0.609        0.077      102.553        6.591        0.004      333.257        2.453      867.725
01/11/2021  23:04:00      -69.493       -1.871       -5.248       55.359       27.706       23.898     3064.662      767.603      571.115        0.463        0.220       69.519       19.289        0.077      333.275        2.483      867.702
01/11/2021  23:05:00      -14.241       -0.339        1.116       50.087       28.238       27.537     2508.754      797.391      758.309        0.213        0.203       14.245       25.198        3.129      333.248        2.438      867.703
01/11/2021  23:06:00       -3.817       -2.929        8.351       53.849       29.678       28.558     2899.710      880.801      815.585        0.234        0.230        4.811       19.046       15.671      333.198        2.354      867.719
01/11/2021  23:07:00      -67.065       11.220        9.869       61.378       23.881       25.471     3767.220      570.288      648.796        0.485        0.249       67.998       25.915        0.145      333.175        2.316      867.713
01/11/2021  23:08:00      -27.544      -15.144       -1.890       42.453       24.386       19.096     1802.285      594.665      364.650        0.188        0.138       31.433       10.930        0.121      333.256        2.451      867.672
01/11/2021  23:09:00       -8.393      -21.917       -8.630       13.696       26.608       10.380      187.581      707.960      107.745        0.081        0.050       23.469       12.788        0.297      333.218        2.387      867.631
01/11/2021  23:10:00       -7.136       -1.691       -0.977       19.309       11.674       12.868      372.830      136.277      165.595        0.036        0.034        7.334        8.740        1.420      333.321        2.559      867.627
01/11/2021  23:11:00       -1.435        6.438       -1.040       16.098       12.929        9.844      259.131      167.150       96.911        0.028        0.026        6.596        7.888        1.430      333.319        2.557      867.616
01/11/2021  23:12:00       -0.890       -3.661        0.834       13.073       14.215       10.169      170.901      202.080      103.415        0.025        0.024        3.768        9.836        6.815      333.316        2.551      867.596
01/11/2021  23:13:00       -3.440      -11.747       -1.994       15.955       14.236       10.833      254.554      202.658      117.361        0.036        0.029       12.241        8.778        0.514      333.369        2.641      867.576
01/11/2021  23:14:00      -24.815       21.533        1.658       17.417       15.266       10.727      303.348      233.053      115.077        0.087        0.033       32.855        7.737        0.055      333.329        2.572      867.569
01/11/2021  23:15:00       -3.036       19.295       -4.416       20.651       12.377        9.720      426.461      153.199       94.470        0.054        0.034       19.532        7.427        0.145      333.222        2.393      867.575
01/11/2021  23:16:00       -9.736       29.561       -2.670       22.545       10.871       11.158      508.266      118.182      124.495        0.086        0.038       31.123        8.313        0.071      333.192        2.344      867.591
01/11/2021  23:17:00       -4.900       38.823        2.012       23.018       15.224       13.262      529.817      231.762      175.882        0.124        0.047       39.131        9.368        0.057      333.183        2.330      867.593
01/11/2021  23:18:00        9.202       32.828       -8.027       25.127       14.257       10.851      631.364      203.257      117.741        0.109        0.048       34.093       14.198        0.173      333.217        2.386      867.620
01/11/2021  23:19:00       -7.416       20.664       -7.721       16.697        9.619       10.451      278.794       92.519      109.228        0.051        0.024       21.955        6.578        0.090      333.235        2.415      867.672
01/11/2021  23:20:00      -20.097       38.520        1.006       16.848        8.678        9.584      283.852       75.300       91.861        0.117        0.023       43.447        8.582        0.039      333.241        2.425      867.669
01/11/2021  23:21:00      -28.772       46.352       -1.282       16.660       19.285        8.070      277.558      371.901       65.122        0.185        0.036       54.556        7.272        0.018      333.283        2.496      867.635
01/11/2021  23:22:00      -25.341       39.871       -1.872       23.609       23.703       11.391      557.393      561.832      129.759        0.174        0.062       47.243        9.116        0.037      333.241        2.424      867.618
01/11/2021  23:23:00      -31.472       13.357       -6.709       15.498       11.627       10.098      240.193      135.176      101.963        0.085        0.024       34.189        5.051        0.022      333.238        2.420      867.617
01/11/2021  23:24:00      -46.444       11.018       -6.401       28.896       18.061       12.627      834.983      326.191      159.437        0.182        0.066       47.733       12.948        0.074      333.168        2.306      867.653
01/11/2021  23:25:00       -7.002        8.807        2.231       26.847       17.965       15.977      720.741      322.750      255.269        0.071        0.065       11.251       12.138        1.164      333.177        2.320      867.659
01/11/2021  23:26:00      -42.525        4.987        0.936       37.928       22.934       16.717     1438.567      525.989      279.452        0.204        0.112       42.817        9.631        0.051      333.136        2.253      867.644
01/11/2021  23:27:00        9.874       -9.049       -5.786       16.805       10.221       10.850      282.403      104.470      117.732        0.036        0.025       13.393        8.823        0.434      333.161        2.294      867.642
01/11/2021  23:28:00       14.769        1.545        1.366       21.332       14.995       11.990      455.068      224.855      143.762        0.052        0.041       14.850       13.958        0.884      333.172        2.312      867.644
01/11/2021  23:29:00        3.267       -2.967        0.694       20.312        8.134       10.257      412.590       66.164      105.208        0.030        0.029        4.413       12.018        7.416      333.066        2.136      867.621
01/11/2021  23:30:00       40.023       11.576       -6.095       32.257       17.874       14.822     1040.530      319.474      219.685        0.168        0.079       41.664       18.263        0.192      333.172        2.313      867.617
01/11/2021  23:31:00       28.095       -3.198      -10.808       23.234       16.672       13.848      539.834      277.957      191.754        0.096        0.050       28.276       15.508        0.301      333.129        2.241      867.638
01/11/2021  23:32:00        7.868      -21.937       -6.883       20.258       25.741       19.542      410.394      662.593      381.908        0.102        0.073       23.306       16.778        0.518      333.146        2.270      867.634
01/11/2021  23:33:00       -8.771      -34.262       -8.006       30.934       42.121       21.116      956.943     1774.140      445.900        0.225        0.159       35.367       21.219        0.360      333.186        2.335      867.638
01/11/2021  23:34:00        3.654       -1.116       -7.984       27.723       15.033       17.008      768.563      225.993      289.270        0.068        0.064        3.821       16.325       18.257      333.222        2.394      867.649
01/11/2021  23:35:00       38.644       18.928      -10.395       14.882       16.077       10.549      221.459      258.463      111.272        0.128        0.030       43.030        8.050        0.035      333.183        2.330      867.636
01/11/2021  23:36:00        2.679       12.162        1.987       25.418        7.813       11.866      646.071       61.035      140.801        0.050        0.042       12.453       14.194        1.299      333.093        2.183      867.637
01/11/2021  23:37:00       -7.576       31.733       -0.186       20.971       15.125       11.812      439.769      228.768      139.521        0.094        0.040       32.625       11.117        0.116      333.213        2.380      867.630
01/11/2021  23:38:00       -7.509       38.912        5.492       25.585       24.718       13.710      654.588      610.976      187.964        0.153        0.073       39.630        7.877        0.040      333.273        2.480      867.625
01/11/2021  23:39:00      -73.131       25.685       -8.638       21.031       15.523       13.441      442.317      240.965      180.648        0.347        0.043       77.510       10.150        0.017      333.149        2.275      867.635
01/11/2021  23:40:00      -63.245       70.789       -2.019       20.214       19.306       11.067      408.594      372.720      122.488        0.496        0.045       94.926        7.593        0.006      333.174        2.316      867.608
01/11/2021  23:41:00      -29.261       74.913       -5.700       29.742       33.446       13.323      884.594     1118.645      177.510        0.434        0.109       80.425       12.507        0.024      333.361        2.624      867.575
01/11/2021  23:42:00      -24.957       35.301       -3.522       28.789       19.712       17.424      828.809      388.564      303.604        0.170        0.076       43.232        5.969        0.019      333.218        2.389      867.597
01/11/2021  23:43:00       14.361      -15.039       -7.274       17.542       21.382        9.513      307.710      457.189       90.492        0.067        0.043       20.795       10.052        0.234      333.129        2.242      867.633
01/11/2021  23:44:00       12.026      -32.078       -8.384       19.755        9.316       11.654      390.241       86.782      135.811        0.093        0.031       34.258       12.738        0.138      333.307        2.535      867.643
01/11/2021  23:45:00       -1.382      -16.518       -3.825       22.643       14.145       12.150      512.725      200.092      147.616        0.057        0.043       16.576       14.629        0.779      333.181        2.328      867.628
01/11/2021  23:46:00       -0.435       -7.017       -2.990       14.945        7.644       10.254      223.354       58.438      105.152        0.022        0.019        7.031       10.561        2.256      333.261        2.457      867.608
01/11/2021  23:47:00        7.456        3.989        5.658       20.228       14.584       13.307      409.167      212.682      177.084        0.045        0.040        8.456       14.217        2.827      333.340        2.591      867.578
01/11/2021  23:48:00       23.814      -10.516       -6.735       24.207       18.083       11.905      585.976      326.978      141.718        0.089        0.053       26.032       13.003        0.250      333.331        2.575      867.541
01/11/2021  23:49:00       20.611      -18.685       -0.365       23.692       21.119       13.315      561.313      446.028      177.294        0.098        0.059       27.820       14.619        0.276      333.256        2.451      867.516
01/11/2021  23:50:00       32.903      -24.592      -14.445       27.123       26.448       16.910      735.676      699.516      285.954        0.181        0.086       41.077       16.466        0.161      333.158        2.289      867.501
01/11/2021  23:51:00       12.831      -12.027       -5.749       31.681       27.209       17.934     1003.656      740.334      321.627        0.120        0.103       17.586       17.023        0.937      333.258        2.456      867.488
01/11/2021  23:52:00       45.502        5.868      -28.041       42.105       36.931       27.852     1772.821     1363.866      775.751        0.340        0.196       45.879       23.574        0.264      333.186        2.336      867.447
01/11/2021  23:53:00       22.542       -0.410       -1.047       34.565       25.699       22.769     1194.752      660.444      518.443        0.144        0.119       22.546       23.120        1.052      333.117        2.222      867.431
01/11/2021  23:54:00       26.235        8.858       -5.491       30.594       26.993       14.142      935.991      728.643      199.999        0.133        0.093       27.690       11.937        0.186      333.002        2.034      867.441
01/11/2021  23:55:00       36.690        6.436       -9.315       23.631       23.239       13.433      558.406      540.069      180.455        0.138        0.064       37.250       13.554        0.132      333.019        2.061      867.428
01/11/2021  23:56:00       11.247       11.952        6.178       20.646       22.085       20.448      426.270      487.743      418.119        0.082        0.067       16.412       15.024        0.838      333.067        2.139      867.387
01/11/2021  23:57:00       58.414        1.615        0.015       43.678       27.167       24.662     1907.785      738.051      608.190        0.333        0.163       58.436       25.458        0.190      332.999        2.027      867.352
01/11/2021  23:58:00       59.309       16.785        0.225       23.592       21.165       15.947      556.599      447.956      254.307        0.253        0.063       61.639       10.229        0.028      333.047        2.106      867.339
01/11/2021  23:59:00       41.297      -26.738       -9.171       28.359       22.495       13.050      804.247      506.006      170.315        0.199        0.074       49.197       16.185        0.108      333.106        2.202      867.347
01/12/2021  00:00:00       62.946      -60.290      -28.044       31.956       36.288       20.259     1021.165     1316.849      410.422        0.557        0.137       87.161       18.931        0.047      333.271        2.475      867.367
01/12/2021  00:01:00       54.141      -45.165      -19.271       34.539       36.307       20.306     1192.922     1318.171      412.343        0.413        0.146       70.506       20.060        0.081      333.293        2.513      867.343
01/12/2021  00:02:00       39.448       -5.273       -8.716       30.551       24.172       16.878      933.357      584.287      284.868        0.173        0.090       39.799       12.227        0.094      333.289        2.506      867.304
01/12/2021  00:03:00       -0.082       -7.694        3.144       15.941        5.024       10.270      254.123       25.243      105.469        0.023        0.019        7.695       11.166        2.106      333.309        2.538      867.293
01/12/2021  00:04:00       -8.865      -30.843       -3.394       15.760       15.900       14.960      248.370      252.816      223.796        0.088        0.036       32.092       10.786        0.113      333.410        2.706      867.310
01/12/2021  00:05:00      -13.273      -39.148      -11.122       16.119       13.887       13.036      259.836      192.848      169.937        0.123        0.031       41.337        3.629        0.008      333.344        2.598      867.333
01/12/2021  00:06:00      -21.968       -5.429       -9.551       15.400       22.337        9.538      237.169      498.936       90.981        0.072        0.041       22.629       11.814        0.273      333.456        2.784      867.330
01/12/2021  00:07:00      -20.157       -2.251       -0.249       14.112       16.819       12.563      199.146      282.887      157.821        0.053        0.032       20.282        5.661        0.078      333.395        2.682      867.308
01/12/2021  00:08:00      -21.602      -16.805       -0.915       18.558       10.897        8.808      344.396      118.743       77.585        0.065        0.027       27.369        5.408        0.039      333.503        2.860      867.335
01/12/2021  00:09:00      -34.945        7.783       -2.290       21.455       16.438       13.692      460.324      270.205      187.475        0.110        0.046       35.801       11.345        0.100      333.391        2.674      867.370
01/12/2021  00:10:00      -33.256       36.226        0.428       21.329       14.155       15.888      454.944      200.372      252.432        0.166        0.045       49.176       13.670        0.077      333.268        2.471      867.375
01/12/2021  00:11:00      -28.863       25.323        1.835       22.070       27.279       12.873      487.086      744.117      165.702        0.144        0.070       38.397       12.784        0.111      333.280        2.491      867.359
01/12/2021  00:12:00      -29.239        0.242       -1.799       15.309       13.887        8.930      234.367      192.860       79.745        0.068        0.025       29.240        6.132        0.044      333.261        2.458      867.331
01/12/2021  00:13:00      -80.561       33.691      -10.864       22.113       14.656       11.971      488.965      214.786      143.304        0.429        0.042       87.322        7.380        0.007      333.276        2.484      867.293
01/12/2021  00:14:00      -89.387       12.912      -16.252       40.454       25.687       17.681     1636.534      659.822      312.619        0.551        0.130       90.314       12.886        0.020      333.249        2.440      867.308
01/12/2021  00:15:00      -85.711        5.610       -3.249       47.841       24.719       20.806     2288.729      611.046      432.908        0.536        0.167       85.895       16.112        0.035      333.165        2.301      867.347
01/12/2021  00:16:00      -41.055        3.264       -1.883       39.206       23.284       14.622     1537.081      542.160      213.815        0.200        0.115       41.185        7.133        0.030      333.122        2.229      867.347
01/12/2021  00:17:00       -9.779       31.004       -4.495       29.412       17.423       15.042      865.065      303.548      226.261        0.124        0.070       32.509       11.855        0.133      333.137        2.256      867.320
01/12/2021  00:18:00       -8.920       40.538       -1.084       17.987       15.690        9.760      323.536      246.184       95.263        0.119        0.033       41.508        7.451        0.032      333.210        2.374      867.324
01/12/2021  00:19:00       16.567       -4.207        5.153       20.267       15.836       15.997      410.737      250.791      255.891        0.062        0.046       17.093        8.327        0.237      333.180        2.326      867.346
01/12/2021  00:20:00        4.119      -10.405       -5.318       19.343       24.973       12.877      374.146      623.664      165.813        0.066        0.058       11.190        6.581        0.346      333.216        2.384      867.332
01/12/2021  00:21:00       10.860       14.212       -2.501       20.828       30.628       17.250      433.820      938.094      297.547        0.100        0.083       17.886       16.720        0.874      333.199        2.358      867.257
01/12/2021  00:22:00       -2.115      -15.105       -3.991       27.169       34.216       19.300      738.136     1170.725      372.488        0.126        0.114       15.252       21.078        1.910      333.260        2.457      867.181
01/12/2021  00:23:00        5.848      -28.909       -8.427       23.240       27.414       16.397      540.112      751.529      268.864        0.125        0.078       29.495       16.384        0.309      333.262        2.460      867.162
01/12/2021  00:24:00       -3.585       21.003       10.500       27.702       24.954       14.642      767.387      622.699      214.377        0.108        0.080       21.307        5.802        0.074      333.254        2.448      867.148
01/12/2021  00:25:00        3.918      -38.739       -8.191       23.323       17.120       13.103      543.970      293.101      171.700        0.130        0.050       38.937       10.758        0.076      333.267        2.469      867.124
01/12/2021  00:26:00      -37.172      -46.409      -15.038       21.410       17.857        9.391      458.387      318.885       88.199        0.231        0.043       59.461        6.801        0.013      333.311        2.544      867.141
01/12/2021  00:27:00      -55.855      -18.753       -1.912       38.519       31.903       19.980     1483.698     1017.798      399.181        0.319        0.145       58.919       15.753        0.071      333.368        2.638      867.161
01/12/2021  00:28:00       12.074       37.111        0.901       44.582       27.170       21.649     1987.516      738.192      468.675        0.236        0.160       39.026       13.053        0.112      333.341        2.593      867.130
01/12/2021  00:29:00       -7.090       35.722        3.690       24.649       19.980       18.070      607.563      399.213      326.530        0.134        0.067       36.418       11.189        0.094      333.343        2.597      867.079
01/12/2021  00:30:00      -17.154       -7.573       -2.483       22.207       13.102       14.053      493.129      171.672      197.482        0.061        0.043       18.751       11.359        0.367      333.324        2.564      867.049
01/12/2021  00:31:00      -23.732       13.381       -0.602       19.363       15.510       11.452      374.912      240.558      131.142        0.074        0.037       27.244       10.081        0.137      333.316        2.551      867.022
01/12/2021  00:32:00      -63.501       10.152       -1.642       29.776       20.397       15.432      886.601      416.018      238.137        0.284        0.077       64.307        9.815        0.023      333.344        2.597      867.015
01/12/2021  00:33:00      -25.930      -14.594        5.340       33.164       28.896       21.714     1099.847      834.957      471.496        0.166        0.120       29.755       17.001        0.326      333.310        2.542      867.033
01/12/2021  00:34:00      -38.930      -34.775       -9.149       26.593       29.010       16.642      707.194      841.589      276.944        0.232        0.091       52.200       13.463        0.067      333.384        2.662      867.060
01/12/2021  00:35:00      -33.304      -14.631       -2.981       32.879       14.143       11.225     1081.015      200.023      125.993        0.137        0.070       36.377       12.737        0.123      333.381        2.658      867.081
01/12/2021  00:36:00       10.744       20.367      -10.010       22.180       17.828       14.157      491.949      317.836      200.424        0.082        0.051       23.027       14.739        0.410      333.387        2.670      867.046
01/12/2021  00:37:00       72.630       39.622      -13.241       33.373       19.173       17.829     1113.736      367.602      317.870        0.441        0.090       82.735       19.515        0.056      333.354        2.615      866.992
01/12/2021  00:38:00       34.384      -51.475      -10.567       40.811       61.506       37.216     1665.556     3782.937     1385.060        0.539        0.342       61.903       42.705        0.476      333.374        2.648      867.008
01/12/2021  00:39:00       16.886      -74.167      -22.194       41.586       34.146       19.342     1729.436     1165.926      374.109        0.477        0.163       76.065       25.864        0.116      333.326        2.567      867.079
01/12/2021  00:40:00      -13.195       40.492       12.221       20.666       24.335       21.051      427.102      592.174      443.163        0.171        0.073       42.588       10.347        0.059      333.482        2.825      867.092
01/12/2021  00:41:00      -35.076       61.513       -5.275       33.842       28.324       17.932     1145.297      802.263      321.548        0.366        0.113       70.811       13.922        0.039      333.368        2.637      867.010
01/12/2021  00:42:00        2.841       84.695        6.659       22.913       28.637       21.495      525.013      820.089      462.053        0.452        0.090       84.743       16.554        0.038      333.326        2.566      866.911
01/12/2021  00:43:00       11.670       77.023        0.865       24.117       32.669       19.389      581.622     1067.261      375.916        0.405        0.101       77.902       16.838        0.047      333.327        2.570      866.905
01/12/2021  00:44:00      -33.459       -8.386      -10.041       48.371       42.061       24.147     2339.707     1769.153      583.054        0.299        0.235       34.494        9.181        0.071      333.312        2.544      866.977
01/12/2021  00:45:00        5.970        8.193        4.799       25.529       27.842       17.173      651.712      775.159      294.902        0.092        0.086       10.137       16.032        2.501      333.381        2.658      866.999
01/12/2021  00:46:00       -0.182       19.981       -3.071       26.882       13.699       11.784      722.642      187.649      138.873        0.073        0.052       19.982       10.073        0.254      333.218        2.387      866.917
01/12/2021  00:47:00       17.007       35.832      -10.653       20.922       11.831       10.136      437.741      139.961      102.747        0.118        0.034       39.663       10.862        0.075      333.269        2.472      866.872
01/12/2021  00:48:00       -2.110        3.314       -8.386       30.641       32.950       19.083      938.884     1085.680      364.142        0.124        0.119        3.929       13.883       12.484      333.356        2.617      866.949
01/12/2021  00:49:00      -12.539        2.003       -1.285       37.196       25.791       23.362     1383.535      665.199      545.797        0.138        0.130       12.698       11.354        0.800      333.340        2.590      867.004
01/12/2021  00:50:00        5.628        2.801       -2.242       41.700       31.731       19.747     1738.856     1006.868      389.933        0.159        0.157        6.287       15.234        5.872      333.313        2.546      866.981
01/12/2021  00:51:00        7.718       17.428       -3.660       34.642       14.478       16.008     1200.045      209.616      256.266        0.102        0.083       19.060       10.071        0.279      333.310        2.542      866.934
01/12/2021  00:52:00      -12.771       -6.954        0.997       17.500       26.525       14.407      306.266      703.550      207.573        0.071        0.061       14.542        7.367        0.257      333.435        2.748      866.931
01/12/2021  00:53:00      -11.375       -5.591       -2.953       20.215       23.225       13.741      408.660      539.419      188.824        0.065        0.057       12.675        8.774        0.479      333.386        2.666      866.935
01/12/2021  00:54:00      -46.475      -18.387       -1.115       26.613       22.612       14.563      708.250      511.290      212.090        0.197        0.072       49.981        8.337        0.028      333.374        2.646      866.940
01/12/2021  00:55:00      -59.372       -6.306        6.231       40.114       31.573       25.728     1609.106      996.858      661.954        0.344        0.163       59.706       19.239        0.104      333.391        2.674      866.953
01/12/2021  00:56:00      -82.726      -30.353        0.653       52.528       42.053       29.632     2759.146     1768.449      878.028        0.658        0.270       88.119       22.917        0.068      333.367        2.637      866.965
01/12/2021  00:57:00      -42.918      -13.821        5.612       36.183       31.297       17.260     1309.235      979.487      297.912        0.233        0.129       45.089        4.507        0.010      333.395        2.682      866.962
01/12/2021  00:58:00      -17.906      -23.751       -1.576       41.206       27.213       20.930     1697.915      740.553      438.064        0.188        0.144       29.745       20.194        0.461      333.394        2.679      866.966
01/12/2021  00:59:00      -55.099       -8.832       -4.777       50.210       29.535       26.074     2521.057      872.335      679.859        0.360        0.204       55.803       18.485        0.110      333.381        2.658      866.965
01/12/2021  01:00:00      -46.990       -0.978       -2.890       57.200       29.851       23.586     3271.842      891.085      556.317        0.347        0.236       47.000       23.312        0.246      333.334        2.581      866.937
01/12/2021  01:01:00      -98.801       20.495       -6.714       36.264       34.376       18.111     1315.074     1181.711      328.004        0.653        0.141      100.904       15.485        0.024      333.267        2.469      866.899
01/12/2021  01:02:00     -108.761       33.302      -11.456       24.897       25.658       14.364      619.857      658.318      206.315        0.728        0.074      113.745        7.424        0.004      333.281        2.492      866.875
01/12/2021  01:03:00      -97.369       14.687      -10.785       26.111       14.670       16.455      681.794      215.222      270.759        0.549        0.058       98.471       13.922        0.020      333.366        2.633      866.886
01/12/2021  01:04:00      -16.998       -4.474       -2.977       39.756       17.290       18.916     1580.570      298.944      357.813        0.128        0.112       17.577       13.007        0.548      333.441        2.758      866.922
01/12/2021  01:05:00      -24.164       -4.376        3.818       26.744       21.543       12.978      715.263      464.088      168.435        0.098        0.067       24.558        8.012        0.106      333.413        2.712      866.925
01/12/2021  01:06:00      -25.498      -38.666       -9.316       22.814       12.959       14.503      520.458      167.943      210.329        0.157        0.045       46.316        8.399        0.033      333.425        2.731      866.916
01/12/2021  01:07:00      -14.644      -39.567      -13.437       29.618       16.762       12.074      877.226      280.969      145.791        0.163        0.065       42.190        9.566        0.051      333.403        2.696      866.924
01/12/2021  01:08:00      -31.871      -10.174       -6.003       12.540       17.683       10.182      157.256      312.686      103.669        0.086        0.029       33.456        8.971        0.072      333.427        2.736      866.919
01/12/2021  01:09:00       12.830       16.267       -6.457       30.782       23.240       20.290      947.519      540.109      411.701        0.118        0.095       20.718       21.898        1.117      333.415        2.715      866.877
01/12/2021  01:10:00       42.443       -0.280       -4.637       44.629       36.465       18.904     1991.741     1329.731      357.358        0.275        0.184       42.444       24.808        0.342      333.401        2.693      866.842
01/12/2021  01:11:00       42.129       -1.285       -6.233       34.890       23.972       16.295     1217.303      574.673      265.534        0.194        0.103       42.149       13.760        0.107      333.346        2.601      866.839
01/12/2021  01:12:00       -0.302        0.763        0.705       17.499       25.351       11.893      306.231      642.679      141.434        0.055        0.055        0.820        8.750      113.848      333.332        2.580      866.849
01/12/2021  01:13:00      -50.508       20.892       -7.221       40.799       15.717       11.121     1664.548      247.019      123.686        0.254        0.102       54.658       15.175        0.077      333.269        2.474      866.854
01/12/2021  01:14:00      -56.743       -0.971       -7.284       71.342       39.619       25.674     5089.617     1569.698      659.129        0.529        0.366       56.751       23.200        0.167      333.212        2.379      866.877
01/12/2021  01:15:00      -96.231      -29.390        3.523       59.500       42.621       29.885     3540.209     1816.579      893.142        0.819        0.312      100.619       30.002        0.089      333.295        2.516      866.901
01/12/2021  01:16:00     -140.693      -21.496       -9.284       59.835       33.290       30.860     3580.199     1108.192      952.322        1.299        0.282      142.326       21.716        0.023      333.300        2.525      866.899
01/12/2021  01:17:00      -80.041       12.677       -6.003       37.474       22.435       20.346     1404.294      503.318      413.979        0.446        0.116       81.039       22.632        0.078      333.260        2.458      866.853
01/12/2021  01:18:00      -97.125        8.974      -11.768       35.114       20.932       16.659     1232.981      438.158      277.528        0.580        0.097       97.538        9.561        0.010      333.272        2.477      866.802
01/12/2021  01:19:00      -73.719        1.127       -6.588       60.407       25.640       21.388     3648.999      657.399      457.432        0.512        0.238       73.728       20.118        0.074      333.294        2.515      866.789
01/12/2021  01:20:00      -26.024      -15.128        1.832       74.394       36.979       29.516     5534.456     1367.469      871.180        0.434        0.389       30.102       30.391        1.019      333.288        2.504      866.830
01/12/2021  01:21:00      -99.234       10.281        7.082       73.237       41.386       28.649     5363.692     1712.817      820.784        0.895        0.395       99.765       27.489        0.076      333.221        2.392      866.928
01/12/2021  01:22:00     -107.254       -0.519       -3.625       50.358       35.387       21.876     2535.958     1252.226      478.546        0.789        0.213      107.256       16.539        0.024      333.144        2.266      866.979
01/12/2021  01:23:00      -43.590       44.816       -0.153       38.060       26.246       16.210     1448.537      688.862      262.771        0.315        0.120       62.518       10.258        0.027      333.138        2.258      866.944
01/12/2021  01:24:00      -74.594       55.726       -9.280       35.908       22.506       17.102     1289.404      506.530      292.474        0.542        0.104       93.111       12.500        0.018      333.281        2.493      866.908
01/12/2021  01:25:00      -61.604        9.229      -11.331       45.892       28.498       20.792     2106.084      812.164      432.325        0.368        0.168       62.292       22.599        0.132      333.261        2.460      866.920
01/12/2021  01:26:00       -9.106      -13.799       -0.019       41.827       23.182       18.431     1749.486      537.387      339.706        0.145        0.131       16.533        3.813        0.053      333.259        2.454      866.941
01/12/2021  01:27:00      -37.382        1.778       -5.960       35.414       20.998       15.242     1254.149      440.917      232.327        0.168        0.096       37.424       12.963        0.120      333.190        2.343      866.931
01/12/2021  01:28:00      -87.531        7.422       -9.024       26.173        9.243       10.600      685.009       85.433      112.369        0.434        0.044       87.845        6.344        0.005      333.207        2.369      866.912
01/12/2021  01:29:00      -52.274       -8.682       -6.436       55.062       27.627       16.454     3031.825      763.270      270.748        0.346        0.203       52.990       13.864        0.068      333.216        2.384      866.911
01/12/2021  01:30:00      -12.448      -17.150       -1.792       45.456       17.854       18.142     2066.224      318.774      329.134        0.158        0.136       21.192       18.462        0.759      333.252        2.445      866.930
01/12/2021  01:31:00       -0.937       -4.842       -4.681       20.732        7.777       12.140      429.801       60.481      147.381        0.034        0.032        4.932       11.711        5.638      333.248        2.439      866.952
01/12/2021  01:32:00        3.574        4.101       -9.446       26.036       23.306       15.230      677.874      543.177      231.943        0.079        0.073        5.440       15.007        7.611      333.248        2.437      866.975
01/12/2021  01:33:00        1.528       -4.444       -1.002       30.012       30.152       17.491      900.739      909.135      305.922        0.107        0.106        4.699       15.626       11.057      333.297        2.518      867.002
01/12/2021  01:34:00       41.095       29.572       -3.873       33.417       23.965       21.101     1116.705      574.304      445.252        0.236        0.107       50.629       17.967        0.126      333.153        2.281      867.024
01/12/2021  01:35:00       -2.490       -6.032        3.199       21.213       15.966       11.562      449.991      254.898      133.690        0.045        0.042        6.525       12.415        3.620      333.168        2.305      867.032
01/12/2021  01:36:00      -37.386       13.960       -7.024       23.052       17.052       10.362      531.400      290.759      107.362        0.129        0.046       39.907        4.780        0.014      333.245        2.432      867.046
01/12/2021  01:37:00        7.689      -27.083        0.737       19.843       20.690       15.753      393.757      428.058      248.155        0.093        0.053       28.153       15.568        0.306      333.319        2.556      867.049
01/12/2021  01:38:00       48.846       10.000      -17.862       35.437       34.178       22.016     1255.789     1168.159      484.702        0.286        0.145       49.860       20.386        0.167      333.191        2.344      867.033
01/12/2021  01:39:00       35.673        3.136      -13.363       46.869       38.039       29.508     2196.660     1446.953      870.713        0.299        0.226       35.810       27.678        0.597      333.086        2.172      867.015
01/12/2021  01:40:00      -28.465       27.145        3.142       35.038       26.618       16.981     1227.668      708.520      288.361        0.189        0.111       39.333        8.863        0.051      333.136        2.253      867.039
01/12/2021  01:41:00      -80.359       15.940       -9.776       32.701       29.303       20.913     1069.370      858.649      437.350        0.459        0.118       81.925       14.607        0.032      333.170        2.309      867.066
01/12/2021  01:42:00       -0.640       -8.465       -1.389       23.468       25.629       12.542      550.765      656.854      157.295        0.072        0.068        8.489        7.384        0.757      333.175        2.318      867.078
01/12/2021  01:43:00       45.707      -23.883      -24.003       51.300       52.864       24.129     2631.647     2794.654      582.217        0.462        0.300       51.571       27.870        0.292      333.288        2.504      867.070
01/12/2021  01:44:00       40.643       -7.585      -12.385       33.609       34.055       22.333     1129.556     1159.752      498.746        0.232        0.139       41.344       20.421        0.244      333.236        2.417      867.080
01/12/2021  01:45:00        9.016      -14.614       -2.784       27.183       19.991       15.164      738.914      399.628      229.947        0.084        0.068       17.171       12.628        0.541      333.251        2.442      867.113
01/12/2021  01:46:00      -33.307       31.889       -5.353       26.302       21.240       12.091      691.790      451.135      146.197        0.172        0.064       46.111        5.665        0.015      333.266        2.466      867.153
01/12/2021  01:47:00       -9.312       17.209       -1.566       20.993        8.789       11.802      440.713       77.242      139.283        0.052        0.033       19.567        8.234        0.177      333.317        2.553      867.182
01/12/2021  01:48:00       -0.864       -3.923       -0.034       22.838       16.331       15.553      521.558      266.713      241.904        0.052        0.052        4.017       16.300       16.467      333.276        2.484      867.228
01/12/2021  01:49:00       48.718        7.511       -8.463       34.957       16.880       12.899     1222.019      284.936      166.388        0.209        0.084       49.294       11.690        0.056      333.189        2.339      867.270
01/12/2021  01:50:00       76.522       44.392      -10.902       26.102       13.393       15.218      681.299      179.364      231.596        0.452        0.055       88.466       17.463        0.039      332.980        1.994      867.288
01/12/2021  01:51:00       71.042       56.861       -4.472       27.626       18.575       16.370      763.176      345.043      267.993        0.484        0.069       90.995       15.434        0.029      332.999        2.026      867.282
01/12/2021  01:52:00        2.252       29.669       -4.854       25.766       12.667       12.034      663.874      160.458      144.818        0.094        0.048       29.755       11.696        0.155      333.055        2.119      867.294
01/12/2021  01:53:00      -30.904       -4.292       -4.062       23.247       18.185        9.989      540.438      330.686       99.785        0.098        0.049       31.201        4.469        0.021      333.085        2.170      867.300
01/12/2021  01:54:00      -19.693       15.230       -4.484       24.772        7.505        9.909      613.669       56.329       98.186        0.070        0.038       24.895       10.783        0.188      333.103        2.197      867.266
01/12/2021  01:55:00       17.107       27.189       -5.381       21.751        8.546       10.080      473.104       73.041      101.596        0.085        0.032       32.123       11.988        0.139      333.119        2.224      867.194
01/12/2021  01:56:00       23.283       24.963       -2.659       22.669       14.785        9.351      513.891      218.606       87.447        0.100        0.041       34.136       11.393        0.111      333.164        2.298      867.142
01/12/2021  01:57:00       -4.390      -13.694       -7.317       19.924       13.627       13.198      396.974      185.706      174.196        0.051        0.038       14.380        8.627        0.360      333.237        2.420      867.165
01/12/2021  01:58:00      -13.711      -36.455       -9.752       36.000       25.053       17.201     1295.978      627.628      295.861        0.192        0.111       38.949       15.322        0.155      333.251        2.443      867.184
01/12/2021  01:59:00       -6.896       15.301       -8.172       25.722       12.830       14.535      661.633      164.620      211.271        0.069        0.052       16.783       12.088        0.519      333.235        2.415      867.181
01/12/2021  02:00:00      -22.012        6.891       -3.516       28.423       14.222       11.037      807.862      202.269      121.826        0.084        0.057       23.066        6.975        0.091      333.219        2.388      867.207
01/12/2021  02:01:00      -13.161      -12.200       -3.380       39.996       24.344       19.599     1599.691      592.649      384.125        0.145        0.129       17.946       12.500        0.485      333.264        2.465      867.249
01/12/2021  02:02:00       11.257      -13.796        9.329       21.492       14.700       14.053      461.902      216.085      197.473        0.064        0.044       17.806       11.544        0.420      333.233        2.412      867.270
01/12/2021  02:03:00        8.182       -0.837       -2.870       19.837       21.592       11.604      393.514      466.227      134.648        0.053        0.050        8.224       11.935        2.106      333.244        2.432      867.256
01/12/2021  02:04:00      -15.190       16.855       -6.669       19.082       10.326        8.777      364.123      106.636       77.035        0.055        0.027       22.690        4.675        0.042      333.193        2.346      867.243
01/12/2021  02:05:00      -66.339      -13.271       -5.676       38.233       29.575       20.087     1461.789      874.680      403.483        0.367        0.137       67.653        7.545        0.012      333.225        2.398      867.270
01/12/2021  02:06:00      -78.528      -11.397        1.362       54.922       41.601       31.997     3016.477     1730.673     1023.839        0.603        0.289       79.350       27.958        0.124      333.168        2.306      867.314
01/12/2021  02:07:00      -74.853      -81.857       -3.540       41.251       27.891       24.995     1701.668      777.917      624.743        0.771        0.155      110.921       12.675        0.013      333.263        2.463      867.326
01/12/2021  02:08:00      -20.847      -18.868       -6.760       41.316       59.661       27.101     1706.990     3559.383      734.440        0.342        0.300       28.118       28.296        1.013      333.292        2.510      867.257
01/12/2021  02:09:00       85.912       13.211      -13.240       38.518       29.907       23.451     1483.608      894.426      549.970        0.533        0.146       86.921       19.760        0.052      333.282        2.495      867.159
01/12/2021  02:10:00        0.242        2.748       -2.664       35.403       24.852       14.920     1253.389      617.624      222.592        0.105        0.105        2.759       13.337       23.374      333.274        2.482      867.133
01/12/2021  02:11:00       -6.849      -60.557      -13.631       27.982       38.427       25.318      783.011     1476.635      641.005        0.340        0.145       60.943       19.133        0.099      333.253        2.446      867.197
01/12/2021  02:12:00      -32.077      -20.016       -0.388       69.398       51.628       31.858     4816.082     2665.444     1014.942        0.496        0.425       37.810       27.564        0.531      333.253        2.446      867.261
01/12/2021  02:13:00      -47.280       -6.804       -3.058       46.623       36.964       20.906     2173.709     1366.333      437.081        0.313        0.199       47.768       17.386        0.132      333.183        2.329      867.264
01/12/2021  02:14:00       19.435       35.265        3.311       31.829       24.521       16.099     1013.096      601.301      259.192        0.175        0.094       40.266       18.984        0.222      333.157        2.288      867.189
01/12/2021  02:15:00       56.147       77.025       -6.567       31.322       29.378       18.940      981.068      863.083      358.731        0.567        0.110       95.317       15.812        0.028      333.008        2.042      867.101
01/12/2021  02:16:00       48.032       61.127       -0.858       28.441       30.719       17.751      808.907      943.652      315.114        0.406        0.103       77.740       16.052        0.043      333.067        2.139      867.083
01/12/2021  02:17:00       29.108       20.644       -2.639       19.039       17.504       12.867      362.468      306.402      165.548        0.106        0.042       35.685       12.280        0.118      333.051        2.114      867.150
01/12/2021  02:18:00      -26.435       11.702       -1.650       35.004       15.260       11.707     1225.300      232.854      137.046        0.122        0.080       28.909       12.961        0.201      333.037        2.090      867.221
01/12/2021  02:19:00      -34.243      -14.958       -3.726       28.787       26.735       17.284      828.695      714.780      298.738        0.163        0.092       37.367       10.753        0.083      333.063        2.132      867.253
01/12/2021  02:20:00      -30.656       10.336        2.109       33.716       22.597       17.166     1136.785      510.613      294.657        0.150        0.097       32.352       15.912        0.242      333.033        2.084      867.237
01/12/2021  02:21:00        9.294       25.670       -6.901       41.546       10.934       16.954     1726.108      119.551      287.450        0.146        0.107       27.301       21.300        0.609      332.937        1.927      867.189
01/12/2021  02:22:00       34.095       -0.130       -5.991       40.536       37.258       24.252     1643.160     1388.171      588.166        0.241        0.181       34.095       23.661        0.482      333.019        2.059      867.145
01/12/2021  02:23:00       12.630      -15.517        0.656       30.149       27.736       21.734      908.955      769.310      472.382        0.128        0.108       20.008       20.450        1.045      332.955        1.955      867.152
01/12/2021  02:24:00       10.783       20.986        7.361       25.801       19.532       16.218      665.695      381.497      263.029        0.096        0.066       23.594        9.107        0.149      333.032        2.081      867.197
01/12/2021  02:25:00       10.308      -38.750       -9.406       46.662       27.565       21.628     2177.372      759.806      467.769        0.255        0.170       40.098       19.944        0.247      333.115        2.221      867.209
01/12/2021  02:26:00       -4.937        9.673        5.350       35.749       21.871       17.646     1277.992      478.328      311.390        0.111        0.103       10.860       12.361        1.295      333.106        2.204      867.163
01/12/2021  02:27:00        7.123        9.450       -2.220       20.744        6.508        9.664      430.309       42.352       93.393        0.036        0.028       11.834        9.968        0.710      332.945        1.937      867.116
01/12/2021  02:28:00        5.235      -14.284       -5.524       21.191       20.994       12.047      449.054      440.733      145.119        0.065        0.052       15.213       14.501        0.909      333.041        2.095      867.105
01/12/2021  02:29:00      -18.357      -30.225       -6.155       30.762       35.058       14.875      946.281     1229.088      221.262        0.184        0.120       35.362       16.002        0.205      333.215        2.384      867.108
01/12/2021  02:30:00      -25.485       36.325       -3.274       22.953       12.780       12.122      526.863      163.336      146.942        0.141        0.042       44.373       14.217        0.103      333.129        2.242      867.109
01/12/2021  02:31:00      -88.694       61.246       -9.642       24.077       15.908       14.324      579.719      253.066      205.177        0.637        0.052      107.786       13.999        0.017      333.029        2.077      867.103
01/12/2021  02:32:00     -109.067       33.728      -17.855       41.880       27.252       25.238     1753.959      742.662      636.964        0.824        0.157      114.163       10.633        0.009      332.954        1.951      867.101
01/12/2021  02:33:00      -75.241       25.280      -14.910       34.422       27.182       23.455     1184.898      738.872      550.137        0.450        0.124       79.375       13.119        0.027      332.833        1.756      867.090
01/12/2021  02:34:00      -84.334       22.123      -19.172       30.801       31.578       22.444      948.675      997.152      503.720        0.521        0.122       87.188       11.555        0.018      332.822        1.735      867.058
01/12/2021  02:35:00      -11.733        7.237        1.329       45.160       30.800       24.298     2039.415      948.634      590.399        0.188        0.179       13.786       10.211        0.549      332.809        1.712      867.074
01/12/2021  02:36:00        4.955       -4.326        3.197       54.883       39.620       31.483     3012.125     1569.767      991.191        0.281        0.279        6.578       17.513        7.089      332.807        1.710      867.158
01/12/2021  02:37:00       -9.242        1.864        6.126       38.580       30.399       25.132     1488.395      924.110      631.626        0.158        0.152        9.428       16.404        3.028      332.779        1.664      867.216
01/12/2021  02:38:00       -1.186       11.709        6.612       26.666       21.416       16.368      711.077      458.650      267.903        0.081        0.072       11.769       16.413        1.945      332.751        1.617      867.190
01/12/2021  02:39:00       35.704       69.087       -6.604       28.806       29.233       17.436      829.807      854.596      304.027        0.404        0.099       77.768       15.548        0.040      332.736        1.592      867.084
01/12/2021  02:40:00      -33.019      108.782      -10.017       27.196       34.798       15.751      739.634     1210.935      248.085        0.761        0.110      113.683       10.910        0.009      332.742        1.603      867.023
01/12/2021  02:41:00       -8.663        1.889       -2.561       27.336       31.802       14.360      747.250     1011.343      206.222        0.102        0.098        8.866        9.565        1.164      332.799        1.697      867.076
01/12/2021  02:42:00       15.391      -15.252        1.396       37.347       37.236       28.027     1394.798     1386.530      785.518        0.202        0.178       21.669       11.137        0.264      332.832        1.753      867.154
01/12/2021  02:43:00      -22.358       10.217        8.553       69.361       27.121       19.754     4811.011      735.557      390.235        0.331        0.297       24.582        9.032        0.135      332.791        1.684      867.158
01/12/2021  02:44:00      -67.091       44.027       -4.955       46.609       19.344       17.438     2172.369      374.209      304.094        0.466        0.143       80.247        9.178        0.013      332.774        1.655      867.073
01/12/2021  02:45:00        6.287       37.225       -2.565       25.280       20.053       15.118      639.090      402.117      228.553        0.135        0.063       37.752       14.269        0.143      332.767        1.645      866.974
01/12/2021  02:46:00        0.379       22.180       -9.693       23.650       13.350       12.282      559.311      178.229      150.837        0.074        0.044       22.184       14.716        0.440      332.828        1.747      866.907
01/12/2021  02:47:00       -2.953       24.099       -4.645       20.600       13.149       12.072      424.377      172.907      145.737        0.068        0.037       24.279       13.747        0.321      332.881        1.834      866.900
01/12/2021  02:48:00      -29.122        1.193       -3.721       25.793       16.748       14.959      665.278      280.490      223.770        0.102        0.058       29.147       14.130        0.235      332.922        1.899      866.933
01/12/2021  02:49:00      -43.808      -12.800        2.925       43.930       31.504       20.793     1929.820      992.524      432.368        0.272        0.168       45.640       14.211        0.097      332.838        1.761      866.964
01/12/2021  02:50:00      -47.359      -11.851        9.153       63.014       27.550       27.046     3970.822      758.980      731.504        0.396        0.273       48.820       17.327        0.126      332.913        1.886      866.964
01/12/2021  02:51:00      -16.560      -10.558        2.576       39.757       25.774       18.530     1580.595      664.284      343.364        0.149        0.129       19.639       10.048        0.262      332.992        2.015      866.944
01/12/2021  02:52:00      -45.072      -11.314        6.276       38.566       27.708       20.083     1487.305      767.730      403.307        0.243        0.133       46.471        9.777        0.044      332.971        1.980      866.947
01/12/2021  02:53:00      -80.546      -14.073        3.117       42.390       24.899       25.744     1796.872      619.981      662.750        0.489        0.154       81.766       21.597        0.070      332.903        1.869      866.984
01/12/2021  02:54:00      -51.739        5.558        4.878       36.780       28.439       20.394     1352.740      808.794      415.930        0.265        0.129       52.037       16.499        0.101      332.952        1.949      866.992
01/12/2021  02:55:00      -29.803       36.117        0.381       21.075       13.489       12.820      444.170      181.958      164.351        0.149        0.040       46.825        7.250        0.024      332.955        1.955      866.958
01/12/2021  02:56:00      -55.357       33.351       -8.193       28.456       13.894       14.243      809.716      193.033      202.853        0.272        0.060       64.627       10.315        0.025      333.004        2.036      866.928
01/12/2021  02:57:00      -41.422        1.605      -11.175       62.585       26.267       21.410     3916.862      689.957      458.390        0.345        0.253       41.453       23.860        0.331      332.970        1.979      866.965
01/12/2021  02:58:00       33.639      -18.663        1.611       36.107       20.408       22.517     1303.716      416.476      507.019        0.185        0.111       38.469       14.539        0.143      332.979        1.993      867.029
01/12/2021  02:59:00        5.118        7.111        2.499       21.323       15.121       14.383      454.681      228.657      206.857        0.049        0.045        8.761       14.020        2.561      332.936        1.924      867.049
01/12/2021  03:00:00       12.390       42.075       -0.789       30.587       14.324       21.903      935.542      205.181      479.724        0.177        0.081       43.861       17.053        0.151      332.863        1.805      867.024
01/12/2021  03:01:00     -114.062       32.371      -18.582       54.721       34.970       24.732     2994.430     1222.893      611.682        0.962        0.241      118.567       20.221        0.029      332.857        1.793      867.038
01/12/2021  03:02:00      -55.062        4.393       -4.565      101.879       49.524       32.545    10379.371     2452.596     1059.183        0.848        0.695       55.237       29.960        0.294      332.732        1.585      867.083
01/12/2021  03:03:00      -28.516       17.752      -12.293       38.764       34.889       20.036     1502.677     1217.209      401.432        0.220        0.156       33.590       17.606        0.275      332.695        1.527      867.118
01/12/2021  03:04:00      -30.831       22.805       -1.018       25.437       20.740       12.844      647.055      430.155      164.971        0.136        0.062       38.349        9.290        0.059      332.708        1.548      867.126
01/12/2021  03:05:00      -52.467       19.732       -9.811       57.248       28.885       18.802     3277.371      834.344      353.528        0.385        0.223       56.055       14.561        0.067      332.948        1.943      867.151
01/12/2021  03:06:00      -27.056      -12.690       -4.168       54.672       42.754       34.307     2989.052     1827.916     1176.955        0.345        0.300       29.884       13.575        0.206      332.874        1.821      867.231
01/12/2021  03:07:00      -75.503      -13.870       -0.471       58.147       33.396       27.435     3381.116     1115.309      752.700        0.557        0.262       76.766       15.206        0.039      332.865        1.805      867.283
01/12/2021  03:08:00        3.834       34.982        1.664       25.348       16.468       14.577      642.515      271.193      212.503        0.118        0.056       35.191       12.254        0.121      332.852        1.785      867.225
01/12/2021  03:09:00       -5.509       75.272       -9.022       31.765       25.086       14.343     1009.036      629.286      205.735        0.381        0.092       75.474        7.284        0.009      332.965        1.970      867.139
01/12/2021  03:10:00      -49.901       48.586       -4.698       38.136       37.310       19.993     1454.360     1392.073      399.712        0.406        0.162       69.647       16.673        0.057      332.975        1.986      867.127
01/12/2021  03:11:00       -1.365        3.578       -0.867       44.618       23.549       17.576     1990.760      554.560      308.929        0.143        0.143        3.829        9.895        6.678      332.918        1.894      867.183
01/12/2021  03:12:00       -6.360      -18.452       -1.205       25.894       20.112       13.341      670.517      404.486      177.970        0.082        0.063       19.517       14.325        0.539      333.011        2.046      867.230
01/12/2021  03:13:00       -5.391        7.870        4.306       22.912       20.755       10.866      524.945      430.785      118.070        0.059        0.054        9.539        5.758        0.364      332.979        1.994      867.235
01/12/2021  03:14:00      -94.316       31.954      -17.699       45.338       20.684       19.471     2055.571      427.811      379.106        0.655        0.143       99.581        4.892        0.002      332.890        1.848      867.224
01/12/2021  03:15:00     -157.173       24.721      -14.699       68.379       43.303       31.888     4675.728     1875.159     1016.830        1.655        0.378      159.106       28.827        0.033      332.749        1.612      867.219
01/12/2021  03:16:00      -94.877       67.237      -17.389       52.367       45.667       28.363     2742.270     2085.472      804.448        0.973        0.282      116.286       27.936        0.058      332.859        1.796      867.197
01/12/2021  03:17:00      -43.447       50.681      -11.438       35.949       33.437       19.160     1292.320     1118.048      367.087        0.368        0.139       66.755       21.111        0.100      333.149        2.275      867.147
01/12/2021  03:18:00      -65.787       55.126       -7.653       35.979       23.837       19.544     1294.472      568.215      381.979        0.483        0.112       85.830        8.189        0.009      333.105        2.201      867.091
01/12/2021  03:19:00      -45.781       19.074       -4.887       44.467       21.905       20.347     1977.302      479.847      413.992        0.268        0.144       49.595       17.244        0.121      333.066        2.137      867.042
01/12/2021  03:20:00       -3.113       19.098        1.360       20.991       17.476       13.791      440.616      305.422      190.183        0.066        0.047       19.350       11.804        0.372      333.376        2.651      866.964
01/12/2021  03:21:00       10.318       -1.555       -0.319       16.623        8.866       11.184      276.337       78.612      125.080        0.029        0.024       10.435        7.684        0.542      333.466        2.801      866.884
01/12/2021  03:22:00        1.726       -3.881       -6.439       24.289       13.828        8.892      589.943      191.206       79.066        0.046        0.043        4.247       10.372        5.963      333.336        2.584      866.850
01/12/2021  03:23:00      -32.433       -9.486       -9.802       22.088       22.438       17.029      487.861      503.485      289.981        0.126        0.064       33.792       14.008        0.172      333.309        2.539      866.867
01/12/2021  03:24:00      -19.820      -29.319       -9.534       14.424       17.796       10.875      208.049      316.684      118.257        0.099        0.032       35.390        8.624        0.059      333.252        2.445      866.844
01/12/2021  03:25:00      -32.463       -9.627       -7.771       24.040       20.865       14.500      577.922      435.330      210.254        0.121        0.061       33.860       14.340        0.179      333.340        2.591      866.797
01/12/2021  03:26:00      -26.377       14.410       -4.499       19.428       10.366        7.988      377.449      107.462       63.811        0.074        0.027       30.057        7.790        0.067      333.205        2.367      866.770
01/12/2021  03:27:00       43.963        7.983       -7.885       34.923       21.320       15.882     1219.589      454.550      252.234        0.199        0.096       44.682       17.353        0.151      333.312        2.544      866.711
01/12/2021  03:28:00       44.189       -3.792       -4.749       33.011       29.145       16.192     1089.744      849.446      262.171        0.210        0.110       44.351       16.939        0.146      333.321        2.559      866.706
01/12/2021  03:29:00        2.973        9.458       -4.095       24.204       12.163       10.467      585.850      147.935      109.567        0.048        0.042        9.915        8.210        0.686      333.203        2.364      866.747
01/12/2021  03:30:00      -13.322       10.546       -2.227       13.833       14.626        8.322      191.354      213.917       69.255        0.038        0.024       16.990        5.725        0.114      333.196        2.350      866.801
01/12/2021  03:31:00      -27.585       34.526       -0.968       19.037       14.593       10.801      362.420      212.958      116.666        0.132        0.035       44.192       10.240        0.054      333.095        2.185      866.820
01/12/2021  03:32:00      -19.115      -11.482       -6.757       24.098       23.812        9.960      580.691      567.011       99.206        0.089        0.062       22.299        8.103        0.132      333.153        2.280      866.809
01/12/2021  03:33:00       10.624      -28.882      -17.007       25.441       23.090       12.887      647.237      533.164      166.073        0.129        0.067       30.774       14.674        0.227      333.231        2.411      866.802
01/12/2021  03:34:00      -12.547        8.263       -5.979       10.740        6.981        8.737      115.337       48.737       76.333        0.025        0.012       15.024        4.993        0.110      333.253        2.445      866.811
01/12/2021  03:35:00       -9.366      -18.996       -2.655       16.667       16.886       11.167      277.795      285.131      124.699        0.057        0.034       21.180        7.883        0.139      333.292        2.512      866.840
01/12/2021  03:36:00       44.924       11.350      -18.141       42.603       44.501       30.966     1814.976     1980.338      958.865        0.361        0.238       46.335       26.037        0.316      333.110        2.210      866.823
01/12/2021  03:37:00       14.360       -2.668       -1.913       52.639       43.379       35.778     2770.860     1881.763     1280.032        0.307        0.297       14.606       30.032        4.228      333.085        2.170      866.803
01/12/2021  03:38:00       19.474       -3.624       -2.579       41.107       39.583       29.518     1689.813     1566.775      871.294        0.226        0.206       19.809       26.201        1.750      332.975        1.988      866.821
01/12/2021  03:39:00       65.689        1.022       -8.356       64.852       30.908       23.310     4205.765      955.293      543.351        0.504        0.285       65.697       25.240        0.148      332.935        1.921      866.782
01/12/2021  03:40:00       93.028        8.254        0.768       54.475       46.302       26.138     2967.560     2143.880      683.170        0.726        0.290       93.394       23.713        0.064      332.792        1.686      866.689
01/12/2021  03:41:00       41.514        7.215        3.490       49.362       58.884       36.977     2436.614     3467.331     1367.293        0.453        0.364       42.136       28.558        0.459      332.722        1.570      866.672
01/12/2021  03:42:00       69.131      -10.232       -8.639       56.627       42.125       31.370     3206.625     1774.518      984.079        0.546        0.298       69.884       29.506        0.178      332.557        1.297      866.734
01/12/2021  03:43:00       86.648      -10.141       -0.951       68.359       45.795       38.249     4672.955     2097.158     1462.996        0.792        0.412       87.239       40.101        0.211      332.746        1.608      866.767
01/12/2021  03:44:00       82.584       -6.569      -10.356       63.798       45.791       34.919     4070.225     2096.774     1219.332        0.718        0.369       82.845       34.873        0.177      332.829        1.745      866.762
01/12/2021  03:45:00      106.643      -20.580      -22.162       39.985       29.783       20.148     1598.825      887.021      405.923        0.759        0.145      108.610       19.053        0.031      332.773        1.653      866.775
01/12/2021  03:46:00       78.401      -19.319       -1.724       44.386       27.844       31.370     1970.110      775.281      984.106        0.513        0.186       80.746       30.661        0.144      332.644        1.442      866.794
01/12/2021  03:47:00       78.868      -15.195        0.388       60.014       30.877       31.387     3601.655      953.370      985.173        0.599        0.277       80.319       31.563        0.154      332.627        1.413      866.743
01/12/2021  03:48:00      117.662        6.238       -0.673       69.908       60.483       39.163     4887.096     3658.139     1533.712        1.198        0.504      117.828       43.646        0.137      332.587        1.345      866.635
01/12/2021  03:49:00      148.340       47.777       -4.187       52.512       42.333       26.096     2757.545     1792.108      681.004        1.477        0.262      155.844       26.375        0.029      332.511        1.222      866.541
01/12/2021  03:50:00      133.340       82.566      -12.553       62.443       38.229       26.566     3899.134     1461.451      705.773        1.541        0.303      156.833       31.007        0.039      332.558        1.296      866.515
01/12/2021  03:51:00       48.285       41.537        1.627       45.801       32.851       22.473     2097.758     1079.182      505.055        0.387        0.184       63.692       24.672        0.150      332.544        1.276      866.530
01/12/2021  03:52:00       15.743       28.628        2.467       36.618       18.097       18.128     1340.858      327.491      328.631        0.153        0.100       32.671       20.584        0.397      332.493        1.190      866.539
01/12/2021  03:53:00        3.830       11.235       -6.607       23.834       12.622       12.250      568.062      159.310      150.059        0.053        0.044       11.870       14.776        1.550      332.562        1.304      866.549
01/12/2021  03:54:00       41.263       18.075       -8.569       47.911       25.095       19.874     2295.510      629.739      394.967        0.271        0.166       45.048       23.600        0.274      332.632        1.423      866.518
01/12/2021  03:55:00       96.875       14.615      -15.187       56.529       35.223       24.757     3195.539     1240.685      612.922        0.744        0.252       97.971       31.122        0.101      332.666        1.476      866.451
01/12/2021  03:56:00       33.844      -14.380       -4.324       36.945       39.280       25.155     1364.915     1542.947      632.768        0.246        0.177       36.772       23.941        0.424      332.646        1.444      866.458
01/12/2021  03:57:00       47.456      -41.884      -19.947       26.209       25.916       11.926      686.926      671.643      142.232        0.295        0.075       63.296       15.872        0.063      332.603        1.373      866.530
01/12/2021  03:58:00       -1.078       22.551        5.334       17.984       18.993       17.072      323.430      360.737      291.451        0.076        0.049       22.576       12.416        0.302      332.696        1.527      866.525
01/12/2021  03:59:00      -32.565       51.315       -5.726       30.090       17.945       12.184      905.414      322.024      148.447        0.255        0.069       60.776        7.303        0.014      332.730        1.583      866.441
01/12/2021  04:00:00      -86.011       37.806      -14.065       36.358       30.449       21.324     1321.921      927.125      454.695        0.586        0.135       93.953       18.444        0.039      332.774        1.655      866.410
01/12/2021  04:01:00      -53.488       53.812       -2.710       21.141       16.928       11.945      446.950      286.557      142.684        0.332        0.044       75.873        7.012        0.009      332.795        1.690      866.366
01/12/2021  04:02:00        7.253       27.225       -0.268       25.207       13.717       12.612      635.374      188.165      159.055        0.089        0.049       28.174       14.813        0.276      332.796        1.692      866.330
01/12/2021  04:03:00        7.725       49.412       -5.642       21.578       13.948       11.046      465.631      194.536      122.011        0.166        0.039       50.012        9.690        0.038      332.745        1.607      866.351
01/12/2021  04:04:00       11.179       14.006        0.347       18.904       18.088       15.427      357.350      327.158      237.979        0.062        0.046       17.921       12.134        0.458      332.783        1.672      866.435
01/12/2021  04:05:00      -12.664      -21.529        2.577       57.083       23.716       21.719     3258.521      562.442      471.724        0.246        0.215       24.977       13.714        0.301      332.854        1.788      866.503
01/12/2021  04:06:00     -131.704      -41.039        3.934       44.418       37.042       24.185     1972.951     1372.115      584.894        1.149        0.196      137.950       19.265        0.020      332.906        1.875      866.520
01/12/2021  04:07:00      -90.390      -26.534      -13.525       57.524       64.309       29.602     3309.056     4135.649      876.288        0.869        0.416       94.204       28.591        0.092      332.919        1.895      866.492
01/12/2021  04:08:00      -14.088       15.284       -0.667       25.902       16.223       14.443      670.903      263.185      208.610        0.079        0.057       20.786        8.378        0.162      332.900        1.865      866.434
01/12/2021  04:09:00      -56.051       10.297       -2.131       22.378       16.376       17.011      500.775      268.167      289.363        0.216        0.053       56.989       16.192        0.081      332.912        1.883      866.371
01/12/2021  04:10:00      -51.944       27.065       -6.018       18.687       18.692       11.727      349.200      349.400      137.531        0.215        0.042       58.573        6.756        0.013      332.990        2.013      866.356
01/12/2021  04:11:00      -20.921      -21.915      -14.520       22.553       18.168       15.321      508.625      330.087      234.725        0.110        0.054       30.298        3.642        0.014      333.016        2.055      866.382
01/12/2021  04:12:00      -19.433      -21.824       -8.667       18.946       29.942       17.709      358.938      896.511      313.598        0.125        0.078       29.222       14.623        0.250      332.984        2.003      866.402
01/12/2021  04:13:00      -33.995       29.338       -3.696       16.644        9.929        8.885      277.032       98.593       78.942        0.124        0.023       44.904        7.350        0.027      332.917        1.893      866.413
01/12/2021  04:14:00     -114.537       27.856      -13.040       54.729       26.172       23.916     2995.243      684.994      571.965        0.916        0.213      117.875       25.608        0.047      332.931        1.914      866.445
01/12/2021  04:15:00     -145.713       12.528       -8.338       61.849       38.390       32.933     3825.299     1473.799     1084.552        1.392        0.319      146.251       26.525        0.033      332.847        1.775      866.484
01/12/2021  04:16:00     -130.345       25.097       -9.790       41.905       26.291       26.274     1756.048      691.202      690.343        1.043        0.157      132.739       19.655        0.022      332.800        1.696      866.484
01/12/2021  04:17:00      -53.366       57.993       -8.004       30.277       31.108       19.185      916.680      967.682      368.065        0.426        0.113       78.810       12.013        0.023      332.781        1.666      866.453
01/12/2021  04:18:00      -53.260       83.108       -7.456      139.486       36.955       66.954    19456.233     1365.698     4482.890        1.755        1.265       98.710       92.046        0.870      332.915        1.889      866.474
01/12/2021  04:19:00      -26.555       12.873       -1.909       34.690       31.194       16.558     1203.423      973.081      274.171        0.166        0.123       29.511       11.688        0.157      332.883        1.835      866.552
01/12/2021  04:20:00      -26.527        8.857       -8.705       37.398       16.635       14.412     1398.642      276.723      207.716        0.137        0.094       27.967       11.576        0.171      332.882        1.835      866.636
01/12/2021  04:21:00      -67.025       45.461       -7.857       20.448       20.865       12.169      418.103      435.350      148.074        0.381        0.050       80.988        8.331        0.011      332.858        1.794      866.688
01/12/2021  04:22:00     -137.954       44.298      -12.400       43.060       22.699       20.252     1854.149      515.257      410.164        1.196        0.139      144.891       15.541        0.012      332.830        1.750      866.704
01/12/2021  04:23:00     -100.691        0.594      -10.124       58.930       34.548       30.555     3472.724     1193.576      933.608        0.792        0.280      100.693       22.164        0.048      332.883        1.836      866.692
01/12/2021  04:24:00     -102.229       33.332       -6.752       28.952       38.429       16.289      838.229     1476.751      265.322        0.709        0.129      107.526       14.237        0.018      332.783        1.670      866.682
01/12/2021  04:25:00      -16.995      -24.418       -4.516       28.428       23.952       18.754      808.147      573.693      351.698        0.132        0.087       29.750       12.179        0.168      332.902        1.867      866.693
01/12/2021  04:26:00      -40.770        3.871      -18.135       21.081        9.819       12.394      444.427       96.405      153.610        0.135        0.035       40.954       10.759        0.069      332.969        1.976      866.729
01/12/2021  04:27:00      -76.867      -15.668       -9.128       33.559       18.415       17.207     1126.200      339.114      296.064        0.400        0.088       78.447       16.313        0.043      333.003        2.034      866.763
01/12/2021  04:28:00     -155.124      -26.323       -5.044       38.644       36.419       26.493     1493.335     1326.332      701.895        1.415        0.176      157.342       18.467        0.014      332.963        1.967      866.773
01/12/2021  04:29:00      -68.471       -4.230        7.597       46.481       33.138       22.231     2160.500     1098.125      494.227        0.426        0.188       68.602       17.750        0.067      332.985        2.003      866.779
01/12/2021  04:30:00     -107.139      -10.596        3.944       57.290       26.885       24.109     3282.092      722.783      581.249        0.810        0.229      107.661       21.813        0.041      333.012        2.047      866.767
01/12/2021  04:31:00      -52.323       -0.688        2.093       33.719       16.653       12.395     1136.970      277.312      153.648        0.215        0.078       52.327        6.916        0.017      332.982        1.998      866.752
01/12/2021  04:32:00        1.097       14.514        3.718       14.535       10.869        8.927      211.267      118.145       79.684        0.032        0.020       14.555        5.841        0.161      333.002        2.031      866.738
01/12/2021  04:33:00       -3.226       10.509        6.024       13.251       13.671       12.590      175.601      186.894      158.510        0.034        0.026       10.993        7.037        0.410      333.014        2.051      866.723
01/12/2021  04:34:00       12.002       48.630        2.899       26.249       30.626       17.591      689.006      937.980      309.460        0.223        0.097       50.090       15.707        0.098      332.981        1.997      866.681
01/12/2021  04:35:00      -59.428       74.030      -11.484       38.657       31.937       17.570     1494.335     1019.978      308.712        0.598        0.141       94.932        9.095        0.009      333.076        2.154      866.627
01/12/2021  04:36:00      -80.182        6.375      -12.058       55.400       32.103       24.512     3069.153     1030.605      600.854        0.566        0.235       80.435       24.309        0.091      332.967        1.974      866.580
01/12/2021  04:37:00      -19.841        0.254        2.118       55.141       28.973       26.622     3040.542      839.458      708.725        0.249        0.229       19.843       29.888        2.269      332.963        1.968      866.565
01/12/2021  04:38:00      -30.838        5.494       -1.700       58.374       34.116       18.574     3407.506     1163.888      344.996        0.295        0.246       31.323       24.630        0.618      332.950        1.947      866.586
01/12/2021  04:39:00      -22.901        6.488       -8.067       40.147       15.717       15.351     1611.776      247.031      235.660        0.136        0.105       23.802        8.978        0.142      332.938        1.925      866.592
01/12/2021  04:40:00       43.029       30.952       -7.577       35.175       26.398       17.963     1237.265      696.836      322.658        0.256        0.113       53.005       20.150        0.145      332.988        2.009      866.559
01/12/2021  04:41:00       96.948       13.525       -7.890       51.718       38.688       26.421     2674.770     1496.750      698.089        0.726        0.243       97.887       25.967        0.070      332.952        1.949      866.530
01/12/2021  04:42:00       82.100       19.205       -5.905       46.281       35.163       26.770     2141.906     1236.463      716.646        0.562        0.205       84.317       18.108        0.046      332.864        1.806      866.531
01/12/2021  04:43:00        7.766      -13.277       -9.264       24.654       20.821       13.797      607.837      433.527      190.354        0.078        0.062       15.382       10.595        0.474      333.012        2.049      866.584
01/12/2021  04:44:00        2.645      -12.261        7.707       35.850       43.298       30.327     1285.201     1874.680      919.746        0.215        0.204       12.543       13.331        1.130      333.141        2.261      866.679
01/12/2021  04:45:00     -228.074      -52.725       -1.464      115.510       63.531       48.315    13342.475     4036.212     2334.353        3.725        0.986      234.089       54.456        0.054      333.051        2.110      866.738
01/12/2021  04:46:00     -147.499       31.744       -5.989      109.301       64.026       43.851    11946.673     4099.342     1922.931        2.038        0.898      150.876       43.831        0.084      333.019        2.059      866.739
01/12/2021  04:47:00      -35.102       12.924        2.189       39.286       55.785       27.875     1543.400     3111.921      777.002        0.342        0.272       37.406       17.819        0.227      332.986        2.005      866.694
01/12/2021  04:48:00      -16.082       23.585       -4.486       33.303       17.731       17.209     1109.057      314.404      296.138        0.128        0.086       28.547        4.551        0.025      333.020        2.061      866.634
01/12/2021  04:49:00        7.820       63.298        2.344       38.325       24.745       22.824     1468.814      612.295      520.949        0.334        0.130       63.779       16.606        0.068      333.132        2.246      866.588
01/12/2021  04:50:00       20.075       57.289       -6.603       25.132       23.022       15.722      631.609      530.013      247.180        0.257        0.070       60.704       13.719        0.051      333.092        2.181      866.568
01/12/2021  04:51:00        5.036       11.272       -5.881       33.220       47.644       21.205     1103.564     2269.906      449.658        0.200        0.191       12.346       15.732        1.624      333.237        2.420      866.579
01/12/2021  04:52:00      -51.800      -41.168        2.379       91.088       52.793       28.896     8296.946     2787.139      834.951        0.815        0.596       66.166       28.252        0.182      333.255        2.449      866.615
01/12/2021  04:53:00     -170.081     -118.980      -18.328       83.552      100.781       40.177     6981.004    10156.743     1614.219        3.108        0.938      207.566       43.637        0.044      333.167        2.302      866.642
01/12/2021  04:54:00     -119.659     -157.156       -6.970       71.275       69.796       46.096     5080.153     4871.440     2124.871        2.557        0.604      197.526       33.003        0.028      333.144        2.262      866.647
01/12/2021  04:55:00      -47.544      -52.194        5.798       52.505       63.942       44.422     2756.794     4088.592     1973.316        0.692        0.441       70.602       31.699        0.202      333.203        2.363      866.618
01/12/2021  04:56:00       66.639        3.357      -14.999       43.809       57.299       26.892     1919.188     3283.145      723.174        0.530        0.296       66.724       30.133        0.204      333.205        2.366      866.565
01/12/2021  04:57:00       54.605       14.745        6.398       49.844       62.033       40.457     2484.464     3848.119     1636.805        0.560        0.398       56.561       25.162        0.198      333.187        2.338      866.519
01/12/2021  04:58:00       89.343      -29.799      -21.515       48.331       52.028       34.754     2335.899     2706.928     1207.831        0.779        0.313       94.181       22.209        0.056      333.249        2.440      866.496
01/12/2021  04:59:00       55.230      -28.559       -8.478       32.492       46.105       20.132     1055.759     2125.695      405.282        0.376        0.179       62.177       22.393        0.130      333.233        2.414      866.518
01/12/2021  05:00:00        5.030        3.502      -13.518       39.478       26.521       14.014     1558.549      703.354      196.379        0.134        0.123        6.129       14.244        5.402      333.256        2.451      866.547
01/12/2021  05:01:00       -5.730      -32.136       -1.656       37.352       45.230       27.002     1395.204     2045.761      729.132        0.262        0.209       32.643       20.752        0.404      333.337        2.585      866.564
01/12/2021  05:02:00      -67.755       -0.048        7.827       47.597       36.293       31.843     2265.432     1317.157     1014.005        0.462        0.230       67.755       17.650        0.068      333.343        2.596      866.573
01/12/2021  05:03:00      -25.962      -28.101       -1.117       27.338       33.960       19.111      747.360     1153.260      365.225        0.186        0.113       38.258       14.506        0.144      333.400        2.689      866.551
01/12/2021  05:04:00      -18.139       11.669        2.428       28.386       23.716       17.274      805.743      562.430      298.400        0.107        0.083       21.568        7.298        0.114      333.423        2.727      866.500
01/12/2021  05:05:00       64.431        1.283      -10.991       41.504       31.726       24.829     1722.604     1006.552      616.474        0.381        0.167       64.444       22.904        0.126      333.404        2.696      866.451
01/12/2021  05:06:00       28.322       -5.296        4.845       41.900       32.787       29.501     1755.597     1074.979      870.299        0.228        0.185       28.813       25.868        0.806      333.399        2.688      866.418
01/12/2021  05:07:00       54.170      -12.822      -24.447       47.876       44.518       32.750     2292.158     1981.888     1072.566        0.452        0.267       55.667       29.250        0.276      333.453        2.778      866.399
01/12/2021  05:08:00       57.324      -17.820      -17.569       33.209       37.029       20.704     1102.823     1371.180      428.638        0.341        0.145       60.030       19.391        0.104      333.480        2.822      866.408
01/12/2021  05:09:00       35.050      -13.687        0.792       21.005       15.927       10.463      441.221      253.658      109.470        0.111        0.040       37.628       10.877        0.084      333.353        2.611      866.432
01/12/2021  05:10:00      -11.163       -0.659        4.780       16.854       15.052        9.498      284.054      226.552       90.208        0.037        0.030       11.182        4.674        0.175      333.427        2.735      866.461
01/12/2021  05:11:00      -72.576       18.837      -11.792       21.029       22.975       16.651      442.198      527.837      277.266        0.350        0.062       74.981        8.728        0.014      333.314        2.547      866.477
01/12/2021  05:12:00      -84.768       12.451        3.649       46.230       32.754       21.857     2137.178     1072.841      477.743        0.552        0.184       85.677       20.102        0.055      333.339        2.590      866.476
01/12/2021  05:13:00      -90.828       40.942        1.204       38.568       33.971       21.620     1487.515     1154.007      467.404        0.652        0.155       99.629       14.079        0.020      333.287        2.502      866.462
01/12/2021  05:14:00      -14.433       38.317        0.212       35.694       37.719       17.177     1274.091     1422.689      295.060        0.233        0.150       40.946       18.182        0.197      333.280        2.491      866.439
01/12/2021  05:15:00       75.899       19.810       -5.332       27.620       28.283       19.244      762.878      799.942      370.341        0.406        0.097       78.441       15.818        0.041      333.289        2.506      866.425
01/12/2021  05:16:00       35.953        6.509      -17.640       42.209       39.320       21.050     1781.573     1546.089      443.092        0.271        0.189       36.538       10.603        0.084      333.299        2.523      866.425
01/12/2021  05:17:00       19.713       37.235       12.413       28.562       33.312       27.367      815.799     1109.666      748.961        0.230        0.134       42.131       18.350        0.190      333.163        2.298      866.453
01/12/2021  05:18:00       -4.411      -26.362        5.347       25.688       19.535       18.772      659.874      381.613      352.388        0.107        0.070       26.729       11.098        0.172      333.326        2.566      866.490
01/12/2021  05:19:00      -14.535       -7.292        3.699       19.189       20.919       16.137      368.221      437.601      260.394        0.067        0.053       16.261       11.371        0.489      333.335        2.581      866.536
01/12/2021  05:20:00       21.310      -32.041      -10.357       16.265       14.217       10.990      264.549      202.122      120.789        0.109        0.029       38.480        6.673        0.030      333.316        2.551      866.592
01/12/2021  05:21:00        5.894      -18.453       -5.477       34.501       21.373       16.497     1190.291      456.791      272.150        0.116        0.096       19.371        8.212        0.180      333.327        2.569      866.608
01/12/2021  05:22:00       40.557       30.501       -1.302       23.180       25.628       12.460      537.304      656.817      155.259        0.196        0.067       50.747       10.208        0.040      333.271        2.475      866.589
01/12/2021  05:23:00       62.999       84.436      -11.758       25.957       13.210       13.663      673.782      174.508      186.682        0.614        0.052      105.349       11.673        0.012      333.124        2.234      866.552
01/12/2021  05:24:00        7.857       88.977       -1.547       27.900       21.300       15.785      778.404      453.683      249.174        0.473        0.074       89.323       13.604        0.023      333.344        2.598      866.521
01/12/2021  05:25:00      -24.513       70.296        1.524       18.965       21.062       14.961      359.668      443.597      223.819        0.329        0.051       74.447        9.414        0.016      333.358        2.621      866.543
01/12/2021  05:26:00      -62.490       39.021      -12.644       21.727       26.739       13.336      472.050      714.960      177.842        0.348        0.068       73.673       10.948        0.022      333.272        2.477      866.590
01/12/2021  05:27:00      -98.523       24.999      -15.965       36.460       24.204       20.510     1329.351      585.838      420.652        0.646        0.117      101.645       18.973        0.035      333.221        2.393      866.639
01/12/2021  05:28:00     -106.162        0.692       -7.984       53.924       29.983       19.985     2907.807      898.982      399.402        0.777        0.210      106.165       12.566        0.014      333.243        2.430      866.674
01/12/2021  05:29:00      -87.788        3.204       -3.159       56.405       26.384       26.675     3181.535      696.130      711.551        0.616        0.229       87.846       24.907        0.080      333.212        2.378      866.694
01/12/2021  05:30:00     -105.030       26.013       -3.568       32.715       35.137       23.930     1070.263     1234.599      572.633        0.730        0.144      108.204       14.938        0.019      333.160        2.295      866.720
01/12/2021  05:31:00      -44.075       36.444       -4.788      171.838       26.980       83.040    29528.283      727.945     6895.606        2.021        1.858       57.191      115.829        4.102      333.206        2.369      866.747
01/12/2021  05:32:00      -61.696       50.801       -7.065       34.764       22.619       19.883     1208.559      511.614      395.321        0.428        0.106       79.919       14.745        0.034      333.174        2.316      866.758
01/12/2021  05:33:00       25.669       18.832       -0.274       18.727       14.969       16.032      350.688      224.065      257.020        0.092        0.042       31.836        6.597        0.043      333.220        2.391      866.749
01/12/2021  05:34:00       24.001        6.552       -6.055       25.338       24.918       15.694      642.020      620.915      246.307        0.108        0.075       24.879       12.843        0.266      333.281        2.492      866.747
01/12/2021  05:35:00       18.740       14.673       -9.711       31.789       40.508       19.813     1010.527     1640.863      392.563        0.185        0.152       23.801       19.659        0.682      333.298        2.521      866.772
01/12/2021  05:36:00       46.797       50.467       -4.310       21.752       20.204       22.034      473.138      408.192      485.476        0.306        0.068       68.825       10.116        0.022      333.316        2.551      866.822
01/12/2021  05:37:00       27.183       20.990       -2.153       28.123       20.720        9.545      790.906      429.302       91.111        0.125        0.066       34.343        9.498        0.076      333.267        2.469      866.884
01/12/2021  05:38:00       10.816       -4.900       -1.488       16.267        7.773        9.298      264.623       60.423       86.456        0.028        0.021       11.874       10.145        0.730      333.282        2.493      866.966
01/12/2021  05:39:00       -4.118      -46.473      -18.914       21.029       16.253       13.371      442.202      264.147      178.773        0.171        0.044       46.655        9.697        0.043      333.341        2.594      866.994
01/12/2021  05:40:00       -7.305        6.774       -1.540       26.198       26.358       13.924      686.339      694.736      193.889        0.084        0.079        9.962       12.331        1.532      333.296        2.516      866.951
01/12/2021  05:41:00       86.586       24.788       -7.699       27.308       24.599       12.779      745.721      605.125      163.292        0.484        0.076       90.065       10.224        0.013      333.245        2.433      866.875
01/12/2021  05:42:00      118.199       19.782       -0.741       43.733       30.851       24.681     1912.596      951.786      609.170        0.892        0.174      119.843       20.378        0.029      333.276        2.485      866.817
01/12/2021  05:43:00       74.986       21.098       -9.329       46.667       36.755       24.856     2177.787     1350.966      617.811        0.515        0.207       77.898       16.666        0.046      333.236        2.419      866.807
01/12/2021  05:44:00       46.717       17.936       -3.262       40.667       45.048       25.394     1653.815     2029.296      644.851        0.342        0.216       50.042       21.881        0.191      333.133        2.249      866.823
01/12/2021  05:45:00        1.297       25.997       -3.841       25.868        9.523       13.175      669.178       90.693      173.585        0.081        0.047       26.029       13.347        0.263      333.020        2.061      866.872
01/12/2021  05:46:00      -32.099      -18.071      -11.911       21.057       37.576       14.681      443.389     1411.972      215.529        0.178        0.104       36.836       12.920        0.123      333.166        2.303      866.912
01/12/2021  05:47:00        7.749       -3.596       -2.092       20.650       17.792       10.182      426.439      316.546      103.667        0.046        0.042        8.542        8.510        0.993      333.162        2.296      866.899
01/12/2021  05:48:00       41.915       -6.744       -1.854       39.854       35.765       23.982     1588.362     1279.125      575.148        0.262        0.172       42.454       24.444        0.332      333.150        2.276      866.812
01/12/2021  05:49:00       54.738       15.772      -14.292       65.065       51.185       31.045     4233.517     2619.932      963.811        0.563        0.391       56.965       24.987        0.192      333.021        2.062      866.732
01/12/2021  05:50:00       26.908        3.748       -0.706       39.143       30.264       23.350     1532.146      915.911      545.220        0.187        0.150       27.167       16.432        0.366      333.009        2.042      866.733
01/12/2021  05:51:00       -0.046        9.395      -20.363       23.551       20.894       15.017      554.641      436.573      225.525        0.086        0.061        9.395       14.844        2.496      333.067        2.138      866.781
01/12/2021  05:52:00      -24.093        6.603      -10.446       47.868       21.308       17.384     2291.382      454.027      302.195        0.189        0.152       24.981        8.066        0.104      333.125        2.235      866.855
01/12/2021  05:53:00       12.911      -49.936      -16.073       23.764       23.258       15.702      564.739      540.935      246.556        0.214        0.068       51.578       11.166        0.047      333.216        2.385      866.885
01/12/2021  05:54:00       11.704       -6.637      -14.465       29.938       35.896       19.142      896.270     1288.529      366.425        0.147        0.128       13.455       16.628        1.527      333.327        2.570      866.861
01/12/2021  05:55:00      110.378     -125.857      -39.117       33.167       42.356       18.777     1100.040     1794.030      352.572        1.640        0.162      167.401       11.732        0.005      333.366        2.635      866.833
01/12/2021  05:56:00       48.920      -71.057       -6.620       43.558       37.349       24.780     1897.328     1394.940      614.051        0.570        0.195       86.269       28.332        0.108      333.480        2.822      866.819
01/12/2021  05:57:00       46.293      -41.428       -8.371       23.224       32.485       16.844      539.367     1055.280      283.729        0.290        0.094       62.123       10.693        0.030      333.430        2.739      866.804
01/12/2021  05:58:00       68.895       19.247       -9.782       13.420       10.369        6.506      180.096      107.522       42.334        0.277        0.016       71.533        7.934        0.012      333.421        2.725      866.767
01/12/2021  05:59:00       78.770       44.266       -6.997       23.626       21.923       17.347      558.200      480.636      300.935        0.478        0.067       90.356       17.696        0.038      333.318        2.554      866.733
01/12/2021  06:00:00       46.589        0.571       -1.385       34.051       37.913       26.081     1159.468     1437.380      680.240        0.272        0.164       46.592       20.483        0.193      333.301        2.526      866.771
01/12/2021  06:01:00       34.958      -19.085      -20.026       35.852       47.788       25.046     1285.358     2283.686      627.323        0.309        0.210       39.828       18.691        0.220      333.191        2.345      866.861
01/12/2021  06:02:00       57.133      -31.919       -6.336       39.052       26.838       20.524     1525.081      720.303      421.242        0.349        0.133       65.445       24.440        0.139      333.061        2.130      866.909
01/12/2021  06:03:00       49.395       -2.663      -18.338       27.991       35.428       20.326      783.502     1255.113      413.166        0.262        0.123       49.467        5.912        0.014      333.196        2.350      866.886
01/12/2021  06:04:00       71.883       26.132      -18.872       31.262       44.000       22.450      977.343     1936.029      504.019        0.481        0.171       76.485       18.447        0.058      333.396        2.683      866.829
01/12/2021  06:05:00       62.875       67.321       -5.547       24.727       20.833       15.569      611.433      433.994      242.395        0.490        0.064       92.117       11.020        0.014      333.152        2.279      866.799
01/12/2021  06:06:00       65.703       59.303       -4.800       42.958       25.666       25.358     1845.376      658.764      643.048        0.550        0.157       88.508       18.896        0.046      333.054        2.118      866.822
01/12/2021  06:07:00       51.418       33.050       -7.068       29.597       23.352       16.657      876.005      545.314      277.442        0.274        0.085       61.123       12.750        0.044      333.092        2.181      866.840
01/12/2021  06:08:00       47.161       29.115       -1.977       25.936       17.793       17.539      672.672      316.586      307.611        0.219        0.065       55.424       13.915        0.063      333.037        2.089      866.846
01/12/2021  06:09:00       19.663       16.700       -9.665       30.555       14.627       15.812      933.600      213.941      250.034        0.108        0.070       25.798       14.649        0.322      333.046        2.105      866.840
01/12/2021  06:10:00        0.544      -16.780       -0.470       18.927       31.809       13.309      358.236     1011.787      177.117        0.091        0.077       16.789        9.157        0.297      333.170        2.309      866.853
01/12/2021  06:11:00       -0.377      -13.335       -5.811       12.714       21.615       10.283      161.657      467.226      105.742        0.047        0.037       13.340        7.925        0.353      333.293        2.514      866.875
01/12/2021  06:12:00        5.591        9.927       -3.955       15.418        8.398        8.822      237.724       70.524       77.827        0.027        0.019       11.393        9.268        0.662      333.261        2.457      866.887
01/12/2021  06:13:00       -8.847       17.528        3.932       21.522        6.619        9.135      463.192       43.808       83.454        0.050        0.030       19.634        4.595        0.055      333.269        2.472      866.893
01/12/2021  06:14:00      -18.937        4.364       -2.793       23.829       12.036       11.046      567.831      144.857      122.018        0.061        0.042       19.434        4.482        0.053      333.426        2.731      866.894
01/12/2021  06:15:00        2.920       -3.641        7.591       19.123       16.233       13.571      365.705      263.506      184.171        0.045        0.041        4.667       10.533        5.094      333.461        2.790      866.898
01/12/2021  06:16:00      -64.622        4.334        6.643       40.350       28.654       19.350     1628.158      821.033      374.404        0.353        0.141       64.767       18.265        0.080      333.363        2.628      866.902
01/12/2021  06:17:00      -59.252       12.065       -2.830       30.100       19.461       14.912      906.027      378.718      222.379        0.259        0.075       60.468       12.181        0.041      333.219        2.388      866.907
01/12/2021  06:18:00        5.801        8.447       -7.316       23.631       19.996       12.978      558.436      399.833      168.435        0.064        0.056       10.247       11.465        1.252      333.254        2.447      866.892
01/12/2021  06:19:00       -4.906        0.530       -5.248       18.745        4.783       12.557      351.362       22.876      157.679        0.029        0.027        4.934       11.910        5.826      333.260        2.457      866.886
01/12/2021  06:20:00      -24.792        1.378       -4.189       29.587       28.438       17.340      875.398      808.722      300.670        0.131        0.099       24.830       16.680        0.451      333.335        2.583      866.894
01/12/2021  06:21:00       -0.620      -18.787        6.136       38.564       27.685       25.644     1487.218      766.465      657.636        0.165        0.146       18.798       19.327        1.057      333.328        2.571      866.913
01/12/2021  06:22:00      -49.664        6.298        6.392       71.129       31.530       24.948     5059.391      994.163      622.406        0.461        0.334       50.062       33.447        0.446      333.290        2.507      866.936
01/12/2021  06:23:00        8.955        0.436       -3.072       36.891       27.289       23.836     1360.967      744.680      568.171        0.138        0.134        8.966       18.033        4.046      333.324        2.564      866.956
01/12/2021  06:24:00        9.844       -3.926       -4.453       17.600       18.348       13.720      309.771      336.649      188.241        0.048        0.042       10.598       10.485        0.979      333.321        2.559      866.942
01/12/2021  06:25:00      -19.105        3.973       -4.595       20.023       14.866       13.956      400.923      220.988      194.771        0.061        0.041       19.514       10.567        0.293      333.365        2.633      866.908
01/12/2021  06:26:00        3.366      -12.103        5.194       30.646       36.474       19.178      939.153     1330.381      367.784        0.141        0.132       12.562       16.290        1.682      333.379        2.656      866.902
01/12/2021  06:27:00      -53.273       -5.836        4.145       67.827       42.698       29.334     4600.543     1823.113      860.510        0.509        0.364       53.592       17.109        0.102      333.330        2.574      866.921
01/12/2021  06:28:00     -108.783        6.760       -6.002       45.234       41.245       19.961     2046.142     1701.185      398.427        0.803        0.207      108.993       11.857        0.012      333.282        2.496      866.919
01/12/2021  06:29:00     -104.910       30.659        7.350       49.088       24.412       24.090     2409.625      595.956      580.339        0.779        0.179      109.298       23.563        0.046      333.274        2.481      866.894
01/12/2021  06:30:00      -86.682       19.299        4.427       50.227       30.158       22.801     2522.747      909.505      519.878        0.593        0.198       88.805       17.830        0.040      333.297        2.521      866.884
01/12/2021  06:31:00      -33.506       -8.811        3.873       47.090       31.222       23.647     2217.441      974.831      559.202        0.248        0.188       34.645       24.966        0.519      333.412        2.710      866.889
01/12/2021  06:32:00     -112.155      -14.365        5.896       46.757       32.205       28.445     2186.206     1037.169      809.145        0.843        0.202      113.071       23.078        0.042      333.291        2.509      866.884
01/12/2021  06:33:00      -55.502       22.340        0.507       39.038       23.569       13.763     1523.945      555.518      189.426        0.292        0.113       59.829       11.875        0.039      333.248        2.437      866.830
01/12/2021  06:34:00        4.287       54.602        0.095       25.636       28.515       16.856      657.217      813.102      284.118        0.238        0.088       54.770       17.426        0.101      333.345        2.598      866.763
01/12/2021  06:35:00      -17.112       61.285       -8.829       21.495       26.632       14.198      462.022      709.268      201.569        0.275        0.069       63.629        5.513        0.008      333.405        2.698      866.744
01/12/2021  06:36:00      -10.314      -13.418      -15.922       40.440       37.235       14.384     1635.433     1386.412      206.906        0.188        0.161       16.924       11.886        0.493      333.508        2.869      866.768
01/12/2021  06:37:00      -33.817      -66.938      -22.248       29.813       19.234       10.990      888.792      369.936      120.773        0.375        0.069       74.996        7.608        0.010      333.502        2.860      866.829
01/12/2021  06:38:00      -18.393      -14.897       -3.832       25.277       28.073       15.571      638.921      788.084      242.457        0.112        0.083       23.669       17.021        0.517      333.561        2.958      866.863
01/12/2021  06:39:00        6.567       43.597       -3.353       42.616       21.545       16.764     1816.138      464.198      281.026        0.226        0.128       44.089       18.679        0.179      333.535        2.914      866.852
01/12/2021  06:40:00        7.135       58.493       -1.001       28.287       18.324       15.507      800.162      335.754      240.464        0.242        0.069       58.927        6.995        0.014      333.472        2.810      866.833
01/12/2021  06:41:00      -75.483       67.914       -6.796       21.835       30.185       15.532      476.768      911.132      241.256        0.599        0.081      101.538       10.121        0.010      333.440        2.756      866.826
01/12/2021  06:42:00      -39.127      -13.636       -4.033       53.780       30.528       22.631     2892.254      931.979      512.144        0.303        0.217       41.435       19.179        0.214      333.426        2.733      866.847
01/12/2021  06:43:00       -1.789      -39.395       -9.364       24.597       24.289       13.746      604.995      589.936      188.945        0.151        0.069       39.436        8.515        0.047      333.510        2.873      866.885
01/12/2021  06:44:00      -10.469        2.130      -10.594       19.441       13.062       10.386      377.950      170.612      107.871        0.044        0.033       10.683        9.053        0.718      333.519        2.888      866.902
01/12/2021  06:45:00       34.906       32.446       -8.873       28.601       17.028       13.395      818.003      289.940      179.414        0.182        0.064       47.656       16.080        0.114      333.477        2.818      866.871
01/12/2021  06:46:00       25.480       38.130       -5.860       20.288       19.011       11.700      411.616      361.400      136.891        0.152        0.045       45.860        8.789        0.037      333.541        2.924      866.834
01/12/2021  06:47:00       49.915       26.070       -9.585       16.626       20.601       15.400      276.436      424.383      237.169        0.210        0.047       56.313       11.343        0.041      333.308        2.538      866.824
01/12/2021  06:48:00        8.834      -32.000      -11.274       23.678       25.290       12.873      560.634      639.602      165.708        0.130        0.068       33.197        9.575        0.083      333.404        2.695      866.854
01/12/2021  06:49:00       27.328      -45.071      -11.230       25.704       18.645       15.984      660.693      347.649      255.504        0.208        0.063       52.709       13.248        0.063      333.376        2.649      866.893
01/12/2021  06:50:00       30.856        9.633      -17.275       34.702       31.527       25.921     1204.201      993.938      671.898        0.211        0.144       32.325       19.939        0.380      333.372        2.644      866.902
01/12/2021  06:51:00        6.535       -8.423       -3.232       19.760       13.786       17.407      390.448      190.066      302.991        0.050        0.044       10.661        5.137        0.232      333.479        2.821      866.898
01/12/2021  06:52:00       -4.132        5.349       -0.232       17.826        6.164       10.374      317.759       37.995      107.627        0.025        0.023        6.759        9.801        2.103      333.413        2.713      866.912
01/12/2021  06:53:00       18.231       -9.536       -3.729       23.645       13.224       13.509      559.103      174.868      182.491        0.068        0.046       20.574       15.678        0.581      333.441        2.757      866.931
01/12/2021  06:54:00       47.855        7.282       -4.041       23.385       25.076       14.063      546.860      628.825      197.757        0.187        0.069       48.406       12.121        0.063      333.346        2.601      866.935
01/12/2021  06:55:00       65.257       15.242       -5.470       19.871       15.661       10.320      394.848      245.257      106.501        0.263        0.037       67.013        8.366        0.016      333.287        2.503      866.894
01/12/2021  06:56:00       58.465        2.951       -3.402       34.916       30.861       19.001     1219.109      952.391      361.027        0.298        0.127       58.540       15.759        0.072      333.301        2.526      866.822
01/12/2021  06:57:00       32.396       14.785       -5.483       26.883       24.581       19.361      722.709      604.241      374.854        0.150        0.085       35.610       12.266        0.119      333.256        2.450      866.790
01/12/2021  06:58:00       31.508       26.943        4.374       25.728       14.057       18.407      661.922      197.611      338.835        0.147        0.060       41.457        5.093        0.015      333.204        2.364      866.800
01/12/2021  06:59:00      -14.256       36.044        0.581       36.994       13.916       12.034     1368.560      193.651      144.826        0.160        0.085       38.761       13.177        0.116      333.219        2.387      866.824
01/12/2021  07:00:00      -91.558       31.259       -6.520       25.179       19.039       16.239      633.993      362.466      263.713        0.533        0.063       96.747       12.402        0.016      333.308        2.539      866.820
01/12/2021  07:01:00      -91.111       23.982       -0.208       48.859       32.425       20.655     2387.181     1051.357      426.619        0.637        0.193       94.214       24.337        0.067      333.434        2.746      866.803
01/12/2021  07:02:00      -53.763        5.656        1.130       39.055       24.224       19.015     1525.307      586.809      361.560        0.270        0.124       54.060       16.134        0.089      333.491        2.838      866.820
01/12/2021  07:03:00      -44.993       -0.890       -3.743       39.260       20.586       19.214     1541.314      423.774      369.177        0.219        0.117       45.002       22.199        0.243      333.528        2.902      866.861
01/12/2021  07:04:00      -39.722       17.132       -2.760       28.979       17.308       11.126      839.806      299.572      123.788        0.157        0.063       43.259        5.579        0.017      333.465        2.797      866.888
01/12/2021  07:05:00        8.767       -2.326        1.442       17.396       10.813       12.202      302.623      116.917      148.889        0.033        0.028        9.071       11.246        1.537      333.542        2.925      866.903
01/12/2021  07:06:00        9.792       -8.474       -5.000       19.068       11.168       10.516      363.576      124.725      110.580        0.040        0.030       12.950       11.128        0.738      333.538        2.919      866.913
01/12/2021  07:07:00       -8.874      -12.751       -0.936       24.115       11.967       13.392      581.516      143.200      179.342        0.057        0.045       15.535        9.571        0.380      333.625        3.063      866.953
01/12/2021  07:08:00       -6.104      -26.821        1.139       24.651       22.582       13.928      607.659      509.952      194.000        0.103        0.066       27.507        9.964        0.131      333.625        3.063      867.026
01/12/2021  07:09:00      -52.720       -7.746        7.792       52.334       23.143       21.693     2738.862      535.609      470.592        0.332        0.187       53.286       22.277        0.175      333.662        3.125      867.082
01/12/2021  07:10:00     -130.838      -14.844        0.631       62.551       32.622       27.520     3912.678     1064.226      757.362        1.154        0.287      131.677       26.110        0.039      333.703        3.192      867.113
01/12/2021  07:11:00     -103.988       12.121       -5.010       34.600       39.453       18.937     1197.130     1556.532      358.596        0.705        0.156      104.692        8.861        0.007      333.673        3.142      867.130
01/12/2021  07:12:00      -87.948       46.149       -6.865       33.942       21.525       18.864     1152.033      463.345      355.834        0.594        0.099       99.321       15.503        0.024      333.667        3.131      867.110
01/12/2021  07:13:00      -34.667       34.039       -3.968       25.617       30.510       13.900      656.219      930.842      193.220        0.208        0.089       48.585       11.542        0.056      333.682        3.158      867.092
01/12/2021  07:14:00      -85.037        4.040       -9.381       53.151       27.366       19.573     2824.990      748.895      383.101        0.565        0.198       85.133       12.629        0.022      333.644        3.092      867.090
01/12/2021  07:15:00     -147.357      -15.132       -2.934       65.272       35.405       31.596     4260.468     1253.520      998.315        1.423        0.326      148.132       29.193        0.039      333.424        2.730      867.110
01/12/2021  07:16:00     -118.877      -16.109       -6.370       41.608       24.385       17.723     1731.221      594.616      314.102        0.854        0.132      119.963       16.116        0.018      333.462        2.792      867.139
01/12/2021  07:17:00      -63.814      -59.721       -3.691       22.832       32.804       16.252      521.294     1076.117      264.127        0.476        0.093       87.401       12.453        0.020      333.593        3.008      867.152
01/12/2021  07:18:00      -30.131        4.580        0.869       41.547       30.399       18.817     1726.178      924.083      354.073        0.197        0.150       30.477       16.615        0.297      333.644        3.094      867.146
01/12/2021  07:19:00      -66.751      -35.822        3.029       63.727       50.701       29.918     4061.068     2570.589      895.104        0.664        0.376       75.755       27.376        0.131      333.652        3.108      867.154
01/12/2021  07:20:00     -101.340      -17.527        4.230       67.737       47.667       38.982     4588.302     2272.152     1519.593        0.949        0.419      102.845       29.763        0.084      333.645        3.096      867.181
01/12/2021  07:21:00      -28.678        7.324       12.111       59.648       31.837       27.425     3557.866     1013.567      752.115        0.317        0.266       29.599       29.537        0.996      333.671        3.139      867.226
01/12/2021  07:22:00     -108.631      -11.989       -1.331       60.006       36.602       21.454     3600.748     1339.700      460.295        0.867        0.270      109.291       21.825        0.040      333.657        3.115      867.223
01/12/2021  07:23:00      -84.614       -6.685       -0.228       62.664       32.746       26.233     3926.807     1072.290      688.147        0.644        0.284       84.878       29.181        0.118      333.644        3.096      867.202
01/12/2021  07:24:00      -86.898        1.316       -1.499       59.635       31.056       22.348     3556.386      964.472      499.428        0.629        0.251       86.908       17.352        0.040      333.613        3.043      867.224
01/12/2021  07:25:00      -71.116       12.694       -7.032       24.546       17.292       13.365      602.530      299.021      178.622        0.317        0.054       72.240       13.592        0.035      333.687        3.168      867.258
01/12/2021  07:26:00      -44.525       32.918       -4.207       18.131       18.953       13.504      328.732      359.222      182.345        0.198        0.044       55.372        8.708        0.025      333.631        3.072      867.238
01/12/2021  07:27:00        8.652       15.873        0.154       27.289       16.121       14.310      744.677      259.875      204.766        0.077        0.060       18.078        9.385        0.269      333.750        3.270      867.206
01/12/2021  07:28:00       23.786      -11.900       -1.963       19.494       32.868       19.012      380.017     1080.298      361.445        0.127        0.091       26.596       13.431        0.255      333.622        3.060      867.204
01/12/2021  07:29:00       -5.084       30.286       -3.040       39.178       13.367       16.708     1534.934      178.671      279.147        0.147        0.100       30.710       11.228        0.134      333.636        3.081      867.254
01/12/2021  07:30:00     -105.669       45.788      -20.588       25.848       27.362       17.747      668.102      748.674      314.956        0.771        0.087      115.163       17.091        0.022      333.701        3.189      867.304
01/12/2021  07:31:00      -56.655       36.461       -5.719       21.904       20.289       14.178      479.771      411.636      201.011        0.283        0.055       67.374       12.830        0.036      333.550        2.938      867.282
01/12/2021  07:32:00      -41.606       23.124       -8.213       23.965       26.730        9.780      574.307      714.499       95.653        0.186        0.069       47.601       10.677        0.050      333.533        2.910      867.225
01/12/2021  07:33:00       23.870      -10.618      -17.782       23.195       35.997       16.807      538.012     1295.798      282.478        0.156        0.106       26.125       16.748        0.411      333.622        3.058      867.216
01/12/2021  07:34:00       89.779      -65.641      -46.656       43.935       68.132       26.613     1930.296     4641.969      708.278        1.091        0.364      111.216       21.128        0.036      333.530        2.903      867.243
01/12/2021  07:35:00      101.519     -137.222      -25.982       59.172       46.238       30.336     3501.381     2137.958      920.298        1.818        0.328      170.692       36.330        0.045      333.598        3.017      867.284
01/12/2021  07:36:00       75.933     -110.467      -19.461       37.859       31.307       18.137     1433.328      980.106      328.956        1.054        0.137      134.047       20.287        0.023      333.615        3.045      867.310
01/12/2021  07:37:00       22.468      -46.635      -17.684       30.465       30.213       15.973      928.113      912.830      255.125        0.254        0.105       51.766        7.667        0.022      333.747        3.264      867.324
01/12/2021  07:38:00      -23.099        1.410       -0.191       17.558       23.909       12.646      308.289      571.657      159.916        0.079        0.052       23.142        7.092        0.094      333.757        3.281      867.325
01/12/2021  07:39:00       61.599       41.051       -0.972       36.708       27.104       19.094     1347.454      734.606      364.590        0.396        0.122       74.025       22.817        0.095      333.551        2.940      867.307
01/12/2021  07:40:00      102.764       50.796       -3.570       28.203       20.143       16.247      795.399      405.760      263.973        0.731        0.073      114.633       13.412        0.014      333.360        2.623      867.267
01/12/2021  07:41:00       71.235        3.475       -5.357       34.258       35.552       20.188     1173.579     1263.967      407.549        0.398        0.142       71.320       13.081        0.034      333.394        2.680      867.278
01/12/2021  07:42:00       -2.248      -22.954       -9.796       27.665       39.267       16.763      765.367     1541.917      281.004        0.161        0.129       23.064       16.505        0.512      333.552        2.942      867.379
01/12/2021  07:43:00       87.222     -117.283      -29.827       50.980       58.316       20.487     2598.996     3400.743      419.713        1.433        0.321      146.161       29.675        0.041      333.513        2.876      867.485
01/12/2021  07:44:00      165.426     -116.753      -53.459       56.561       70.038       30.879     3199.107     4905.317      953.496        2.645        0.453      202.477       26.777        0.017      333.610        3.034      867.467
01/12/2021  07:45:00      111.841      -54.623      -41.086       92.121      115.226       61.689     8486.191    13277.047     3805.555        2.137        1.278      124.467       53.754        0.187      333.459        2.786      867.390
01/12/2021  07:46:00      131.567      -15.338        5.375      118.943       64.018       58.032    14147.325     4098.364     3367.762        1.959        1.081      132.458       60.161        0.206      333.232        2.410      867.372
01/12/2021  07:47:00      131.269       38.429       -4.379       63.505       51.440       40.744     4032.878     2646.111     1660.111        1.353        0.417      136.778       30.671        0.050      333.146        2.270      867.442
01/12/2021  07:48:00      120.319       31.969      -12.791       48.328       36.270       26.445     2335.549     1315.541      699.350        1.001        0.218      124.494       23.892        0.037      333.138        2.256      867.501
01/12/2021  07:49:00      140.596       13.031       -6.101       44.998       31.628       23.516     2024.831     1000.324      552.993        1.178        0.179      141.199       25.194        0.032      333.097        2.189      867.518
01/12/2021  07:50:00      100.687        1.568       -0.058       63.660       33.186       37.430     4052.656     1101.316     1401.031        0.835        0.328      100.699       38.465        0.146      333.147        2.272      867.516
01/12/2021  07:51:00      107.720      -13.376       -8.282       81.010       39.295       44.282     6562.662     1544.072     1960.895        1.096        0.503      108.547       45.980        0.179      333.190        2.342      867.500
01/12/2021  07:52:00       83.951      -10.499      -27.783       65.437       71.140       38.427     4282.024     5060.844     1476.670        0.937        0.541       84.605       40.591        0.230      333.235        2.417      867.514
01/12/2021  07:53:00      113.873      -18.842      -24.801       64.289       69.159       42.445     4133.095     4782.926     1801.591        1.233        0.536      115.421       33.380        0.084      333.293        2.512      867.523
01/12/2021  07:54:00      131.274      -28.137      -16.253       62.812       68.776       34.058     3945.296     4730.185     1159.952        1.406        0.492      134.256       29.766        0.049      333.199        2.355      867.522
01/12/2021  07:55:00      111.899       -5.273        3.213       53.525       46.258       35.622     2864.950     2139.762     1268.944        0.942        0.314      112.023       27.033        0.058      333.192        2.345      867.532
01/12/2021  07:56:00      156.978       70.219       -4.201       51.082       48.404       29.653     2609.364     2342.935      879.320        1.771        0.292      171.967       30.046        0.031      333.086        2.171      867.528
01/12/2021  07:57:00      126.852       84.174       -5.858       53.486       28.316       24.347     2860.708      801.785      592.791        1.373        0.213      152.239       20.314        0.018      333.083        2.166      867.554
01/12/2021  07:58:00      113.560       74.688      -12.403       29.316       21.681       21.682      859.455      470.052      470.110        1.021        0.090      135.920       13.474        0.010      333.081        2.161      867.609
01/12/2021  07:59:00      120.285       48.115       -8.132       27.497       25.072       17.179      756.099      628.614      295.103        0.926        0.084      129.551       15.854        0.015      333.106        2.204      867.657
01/12/2021  08:00:00       64.860       25.813       -5.418       34.911       27.944       16.624     1218.768      780.847      276.366        0.359        0.114       69.808       18.365        0.069      333.138        2.256      867.709
01/12/2021  08:01:00       76.853       18.419       -6.725       29.489       17.751       15.144      869.575      315.112      229.329        0.385        0.071       79.030       14.792        0.035      333.104        2.200      867.757
01/12/2021  08:02:00       35.863       36.119       -0.062       25.062       21.850       18.803      628.106      477.431      353.541        0.202        0.073       50.900       16.854        0.110      333.124        2.234      867.797
01/12/2021  08:03:00       10.975       45.800       -3.083       16.851       13.562       12.471      283.966      183.940      155.521        0.143        0.031       47.097       10.517        0.050      333.077        2.158      867.838
01/12/2021  08:04:00      -25.312       46.662       -0.879       21.108       20.790       12.274      445.562      432.225      150.646        0.192        0.051       53.086        8.475        0.025      333.196        2.350      867.858
01/12/2021  08:05:00        1.544       71.803        1.316       35.239       29.023       19.767     1241.770      842.356      390.742        0.382        0.124       71.819       16.728        0.054      333.182        2.330      867.837
01/12/2021  08:06:00       32.520       77.180        3.959       40.021       29.450       25.530     1601.649      867.320      651.794        0.507        0.156       83.752       20.353        0.059      333.174        2.317      867.793
01/12/2021  08:07:00       56.363       65.903       -5.108       26.679       35.710       18.061      711.792     1275.219      326.211        0.493        0.116       86.718       12.999        0.022      333.144        2.266      867.820
01/12/2021  08:08:00       57.407       54.610        1.051       35.224       27.285       21.430     1240.742      744.481      459.236        0.436        0.122       79.233       20.676        0.068      333.112        2.212      867.890
01/12/2021  08:09:00       26.222       16.390       -4.785       38.537       34.242       16.352     1485.126     1172.503      267.382        0.195        0.146       30.923       22.903        0.549      333.151        2.278      867.953
01/12/2021  08:10:00       24.133       -8.167       -9.856       28.980       22.504       15.211      839.855      506.440      231.373        0.116        0.079       25.477       17.263        0.459      333.207        2.371      867.986
01/12/2021  08:11:00       46.211       23.404       -8.114       51.626       49.719       20.280     2665.200     2471.937      411.295        0.415        0.277       51.799       23.051        0.198      333.176        2.319      867.989
01/12/2021  08:12:00       95.395       61.715      -18.514       24.453       19.411       17.690      597.967      376.773      312.948        0.727        0.064      113.617       15.941        0.020      333.076        2.156      867.974
01/12/2021  08:13:00       94.021       39.367      -13.352       15.617       14.714       11.629      243.892      216.501      135.232        0.558        0.030      101.930        9.413        0.009      333.035        2.086      867.961
01/12/2021  08:14:00       66.423       31.403      -12.765       19.979       18.744       11.818      399.144      351.349      139.660        0.323        0.045       73.472        6.139        0.007      333.127        2.237      868.005
01/12/2021  08:15:00       25.369        5.598      -10.174       26.637       13.853       11.282      709.549      191.903      127.283        0.090        0.051       25.979       14.046        0.292      333.209        2.374      868.084
01/12/2021  08:16:00       21.464        7.324       -0.114       15.010       11.053        8.564      225.307      122.177       73.349        0.047        0.021       22.679        5.303        0.055      333.159        2.295      868.091
01/12/2021  08:17:00       62.137        8.835       -7.231       46.418       30.150       23.541     2154.634      909.051      554.180        0.380        0.181       62.762       27.788        0.196      333.202        2.363      868.046
01/12/2021  08:18:00       -5.941        3.575        8.714       19.025       20.210       14.383      361.941      408.452      206.880        0.055        0.049        6.934        5.973        0.742      333.282        2.495      868.056
01/12/2021  08:19:00       22.060       -7.439        4.587       28.465       19.809       10.705      810.232      392.415      114.597        0.094        0.066       23.280        5.780        0.062      333.224        2.398      868.070
01/12/2021  08:20:00      112.380       44.004      -18.171       32.230       28.368       16.510     1038.777      804.765      272.575        0.851        0.106      120.688        9.438        0.006      333.174        2.317      868.034
01/12/2021  08:21:00      132.726       60.680      -17.944       37.116       38.329       23.115     1377.608     1469.106      534.305        1.250        0.169      145.939       13.915        0.009      333.266        2.469      867.983
01/12/2021  08:22:00       46.364       42.797       -7.696       50.013       28.230       17.918     2501.295      796.935      321.064        0.383        0.181       63.097       23.212        0.135      333.086        2.171      867.980
01/12/2021  08:23:00        6.773       60.236        0.725       26.845       18.726       12.293      720.632      350.675      151.127        0.245        0.061       60.616        8.758        0.021      333.162        2.295      868.017
01/12/2021  08:24:00       19.488        6.196       10.907       17.979       12.945       12.453      323.252      167.570      155.073        0.059        0.032       20.449        8.861        0.188      333.274        2.480      868.074
01/12/2021  08:25:00       37.295       14.807       -7.316       16.502       10.993       14.246      272.323      120.854      202.938        0.113        0.030       40.127        9.334        0.054      333.232        2.411      868.119
01/12/2021  08:26:00        5.024        2.292        3.237       21.889       25.979       15.609      479.137      674.901      243.630        0.072        0.070        5.522       16.297        8.711      333.269        2.472      868.199
01/12/2021  08:27:00        4.600      -37.950       -7.097       17.356       16.116       15.109      301.244      259.721      228.270        0.115        0.039       38.228        8.038        0.044      333.450        2.774      868.267
01/12/2021  08:28:00      -27.094      -27.536        0.598       39.160       33.408       20.334     1533.534     1116.093      413.475        0.228        0.153       38.631       14.693        0.145      333.460        2.790      868.294
01/12/2021  08:29:00      -30.160        4.837        6.773       37.565       26.866       21.398     1411.115      721.794      457.871        0.178        0.130       30.545       11.751        0.148      333.450        2.773      868.306
01/12/2021  08:30:00      -42.574       42.360       12.601       37.132       29.863       25.144     1378.817      891.812      632.215        0.333        0.145       60.058        6.340        0.011      333.530        2.905      868.325
01/12/2021  08:31:00      -46.778       -6.655        6.082       36.468       32.544       23.773     1329.898     1059.129      565.175        0.261        0.148       47.249       15.627        0.109      333.555        2.947      868.340
01/12/2021  08:32:00       24.570        6.601       -5.123       33.845       35.911       27.153     1145.456     1289.594      737.267        0.192        0.159       25.441       17.971        0.499      333.536        2.914      868.325
01/12/2021  08:33:00      -21.641       -3.038        3.591       33.531       20.836       15.976     1124.348      434.150      255.244        0.115        0.091       21.853       10.119        0.214      333.513        2.877      868.296
01/12/2021  08:34:00      -14.340        0.205       -0.599       14.064        7.636       10.497      197.791       58.310      110.180        0.029        0.018       14.341        6.404        0.199      333.506        2.863      868.277
01/12/2021  08:35:00       -8.708       21.025        1.416       38.144       11.074       12.407     1454.949      122.631      153.945        0.113        0.087       22.757       12.771        0.315      333.551        2.940      868.316
01/12/2021  08:36:00        9.265      -27.466        8.417       38.455       45.191       27.004     1478.758     2042.263      729.239        0.258        0.213       28.987       16.133        0.310      333.654        3.112      868.387
01/12/2021  08:37:00      -12.589      -26.688        0.767       32.352       33.024       20.094     1046.633     1090.590      403.775        0.171        0.127       29.509       16.944        0.330      333.625        3.063      868.433
01/12/2021  08:38:00       48.276      -38.095      -17.977       58.331       49.857       32.939     3402.547     2485.675     1085.005        0.554        0.349       61.497       37.107        0.364      333.667        3.133      868.417
01/12/2021  08:39:00       28.486      -77.861       -7.123       72.204       49.198       33.744     5213.387     2420.446     1138.648        0.785        0.439       82.908       40.376        0.237      333.646        3.098      868.438
01/12/2021  08:40:00      -21.412        1.637        0.295       38.211       22.607       20.590     1460.088      511.059      423.935        0.143        0.120       21.474       14.248        0.440      333.704        3.194      868.507
01/12/2021  08:41:00       29.722       -2.633       -8.462       35.219       20.624       22.480     1240.355      425.339      505.358        0.157        0.109       29.839       24.096        0.652      333.688        3.167      868.533
01/12/2021  08:42:00      -12.409       -2.987        7.405       19.355       11.875       11.145      374.606      141.024      124.201        0.043        0.032       12.763        9.285        0.529      333.730        3.237      868.554
01/12/2021  08:43:00       -9.795       -6.713        1.165       15.783       12.864       10.561      249.115      165.473      111.530        0.033        0.026       11.875        6.079        0.262      333.825        3.395      868.610
01/12/2021  08:44:00       -7.674        5.627        3.428       14.583       17.737        9.393      212.655      314.595       88.220        0.036        0.031        9.516        5.756        0.366      333.768        3.300      868.618
01/12/2021  08:45:00      -34.104       45.971        3.322       26.989       22.052       15.315      728.408      486.306      234.559        0.237        0.072       57.240       11.063        0.037      333.689        3.168      868.578
01/12/2021  08:46:00      -96.389       57.812      -14.414       32.897       21.760       16.375     1082.239      473.505      268.146        0.733        0.091      112.397       10.893        0.009      333.591        3.005      868.585
01/12/2021  08:47:00      -29.381       30.947       -2.118       33.505       25.718       11.730     1122.603      661.409      137.605        0.187        0.096       42.673       10.253        0.058      333.596        3.013      868.633
01/12/2021  08:48:00       59.466       52.518      -11.692       39.065       36.820       22.284     1526.078     1355.720      496.572        0.490        0.169       79.337       17.289        0.047      333.610        3.037      868.642
01/12/2021  08:49:00        0.531       10.665       -6.658       35.487       33.536       23.983     1259.298     1124.661      575.171        0.156        0.148       10.678       17.375        2.648      333.647        3.100      868.658
01/12/2021  08:50:00       10.280      -34.253       -1.662       18.656       23.865       15.041      348.064      569.535      226.219        0.121        0.057       35.762       10.529        0.087      333.718        3.216      868.678
01/12/2021  08:51:00       41.496       14.053       -3.895       37.750       40.030       19.042     1425.092     1602.397      362.593        0.266        0.170       43.811       11.477        0.069      333.566        2.964      868.653
01/12/2021  08:52:00       79.852       36.921       -8.400       45.905       25.926       19.211     2107.252      672.158      369.068        0.548        0.157       87.975       16.958        0.037      333.426        2.734      868.659
01/12/2021  08:53:00       13.931       63.981       -3.974       38.153       22.154       22.740     1455.682      490.789      517.114        0.338        0.123       65.480       20.579        0.099      333.429        2.737      868.717
01/12/2021  08:54:00       34.480       -1.062       -6.647       24.248       37.861       16.458      587.976     1433.460      270.853        0.176        0.115       34.496       14.764        0.183      333.643        3.093      868.765
01/12/2021  08:55:00       36.661      -67.240      -18.239       47.958       56.492       19.933     2299.936     3191.296      397.309        0.604        0.294       76.585        7.718        0.010      333.599        3.020      868.794
01/12/2021  08:56:00       80.084       29.199      -13.358       29.473       29.940       16.896      868.663      896.399      285.465        0.475        0.103       85.241       13.805        0.026      333.481        2.823      868.775
01/12/2021  08:57:00      105.075       81.020       -9.202       38.826       21.867       19.116     1507.427      478.150      365.427        1.002        0.118      132.683       15.611        0.014      333.412        2.709      868.708
01/12/2021  08:58:00      116.237       71.336      -13.890       26.855       24.210       18.766      721.203      586.148      352.157        1.023        0.083      136.381       14.280        0.011      333.448        2.769      868.675
01/12/2021  08:59:00       93.623       63.680       -7.447       29.372       18.666       17.621      862.744      348.435      310.486        0.720        0.076      113.228       12.718        0.013      333.390        2.673      868.687
01/12/2021  09:00:00       42.278       23.468       -4.530       27.531       20.934       14.478      757.979      438.252      209.619        0.188        0.070       48.355       11.832        0.060      333.416        2.716      868.753
01/12/2021  09:01:00       25.003      -20.648       -8.258       20.771       30.779       17.659      431.416      947.340      311.843        0.140        0.085       32.427       16.856        0.270      333.631        3.073      868.843
01/12/2021  09:02:00       64.331      -20.150       -6.837       59.684       36.441       28.580     3562.198     1327.946      816.823        0.515        0.285       67.413       23.422        0.121      333.584        2.994      868.865
01/12/2021  09:03:00       26.227        3.957        1.918       40.832       33.493       27.948     1667.215     1121.765      781.102        0.214        0.179       26.524       26.194        0.975      333.600        3.022      868.862
01/12/2021  09:04:00        6.580       18.296       -1.471       13.392       12.792        9.972      179.346      163.623       99.449        0.041        0.022       19.443        7.278        0.140      333.507        2.868      868.894
01/12/2021  09:05:00       21.558       16.914       -1.330       23.260        7.466        7.956      541.015       55.739       63.302        0.071        0.033       27.401        9.256        0.114      333.460        2.789      868.890
01/12/2021  09:06:00       65.786       27.027       -8.265       23.179       25.803       16.759      537.246      665.797      280.852        0.330        0.074       71.122       11.569        0.026      333.488        2.835      868.851
01/12/2021  09:07:00       46.456       60.196       -5.285       27.906       23.095       16.636      778.717      533.391      276.745        0.370        0.079       76.038        9.333        0.015      333.462        2.793      868.845
01/12/2021  09:08:00       22.921       50.283       -5.645       26.448       13.583       13.816      699.478      184.489      190.872        0.208        0.054       55.261       16.645        0.091      333.494        2.845      868.870
01/12/2021  09:09:00       54.994      -15.589      -12.498       25.501       56.508       15.542      650.281     3193.195      241.544        0.375        0.204       57.160       11.537        0.041      333.572        2.975      868.909
01/12/2021  09:10:00       42.175      -72.339      -22.071       44.126       22.493       16.914     1947.095      505.918      286.069        0.512        0.137       83.736       18.725        0.050      333.672        3.140      868.988
01/12/2021  09:11:00       87.308      -34.936      -32.521       43.293       48.568       23.841     1874.301     2358.856      568.383        0.735        0.240       94.038       24.237        0.066      333.672        3.141      869.022
01/12/2021  09:12:00       45.503      -40.495      -23.051       45.545       41.531       27.815     2074.354     1724.836      773.662        0.441        0.229       60.912       29.330        0.232      333.720        3.219      869.028
01/12/2021  09:13:00        4.018      -51.533      -15.299       31.729       39.015       19.485     1006.733     1522.168      379.651        0.291        0.145       51.690       16.616        0.103      333.795        3.344      869.087
01/12/2021  09:14:00        0.909      -32.164      -17.550       31.216       40.127       23.371      974.441     1610.179      546.215        0.224        0.157       32.177       21.753        0.457      333.852        3.440      869.089
01/12/2021  09:15:00      105.271      -46.856      -56.189       64.915       76.854       38.740     4213.993     5906.604     1500.751        1.403        0.581      115.228       35.345        0.094      333.800        3.353      869.014
01/12/2021  09:16:00        6.812      -39.447       -7.188       54.764       60.417       26.948     2999.048     3650.205      726.202        0.451        0.369       40.031       28.239        0.498      333.823        3.390      869.026
01/12/2021  09:17:00      -95.363       47.174      -10.324       48.353       29.362       20.293     2338.049      862.121      411.803        0.752        0.181      106.393       15.527        0.021      333.832        3.406      869.091
01/12/2021  09:18:00      -51.623        2.220       -7.470       28.777       32.621       20.445      828.097     1064.104      418.018        0.252        0.116       51.671        9.230        0.032      333.870        3.469      869.089
01/12/2021  09:19:00      -13.324       -0.391       -6.918       13.626       23.484       14.476      185.671      551.519      209.557        0.059        0.047       13.330        9.389        0.496      333.944        3.591      869.074
01/12/2021  09:20:00       -4.789        5.067       -9.682       24.553       18.253       11.261      602.874      333.180      126.812        0.060        0.053        6.972       10.549        2.289      333.922        3.555      869.136
01/12/2021  09:21:00      -37.299       -2.824        3.482       54.029       40.878       27.833     2919.111     1670.986      774.702        0.339        0.268       37.406       17.872        0.228      333.937        3.580      869.189
01/12/2021  09:22:00      -99.925       15.593        2.142       33.129       29.106       15.040     1097.547      847.143      226.204        0.620        0.109      101.134        6.524        0.004      333.856        3.446      869.193
01/12/2021  09:23:00      -14.911       -1.425        8.160       41.498       19.156       18.126     1722.060      366.947      328.561        0.135        0.121       14.979       10.947        0.534      333.992        3.672      869.226
01/12/2021  09:24:00      -49.296        1.387        5.185       51.878       23.676       20.775     2691.351      560.542      431.608        0.307        0.184       49.315       17.682        0.129      334.029        3.733      869.261
01/12/2021  09:25:00     -110.476       -1.417       -7.586       57.603       35.730       24.225     3318.083     1276.653      586.844        0.872        0.259      110.485       20.909        0.036      333.946        3.595      869.286
01/12/2021  09:26:00      -36.253       -6.330        2.912       67.056       25.674       23.355     4496.554      659.172      545.442        0.353        0.285       36.801       25.741        0.489      333.920        3.551      869.322
01/12/2021  09:27:00     -105.399       11.075       -6.679       27.320       20.859       18.093      746.375      435.094      327.341        0.639        0.075      105.979       11.731        0.012      333.791        3.336      869.352
01/12/2021  09:28:00      -85.429       26.865       -8.352       13.988       10.535       12.295      195.657      110.979      151.172        0.427        0.023       89.554        6.838        0.006      333.705        3.195      869.336
01/12/2021  09:29:00      -46.328       27.734       -3.830       20.166       14.043       11.820      406.658      197.218      139.724        0.184        0.037       53.995        8.190        0.023      333.753        3.274      869.305
01/12/2021  09:30:00      -48.083       35.350      -10.061       32.087       32.393       14.851     1029.561     1049.315      220.557        0.298        0.115       59.680        5.848        0.010      333.820        3.387      869.295
01/12/2021  09:31:00      -86.926       68.826      -11.632       24.493       29.549       17.511      599.906      873.172      306.642        0.710        0.089      110.874       13.176        0.014      333.812        3.373      869.325
01/12/2021  09:32:00      -80.577       48.015      -16.397       38.305       28.627       22.633     1467.298      819.495      512.231        0.593        0.140       93.798       19.151        0.042      333.824        3.391      869.338
01/12/2021  09:33:00      -74.546       83.406       -4.952       55.639       45.587       25.935     3095.664     2078.208      672.641        0.919        0.292      111.865       23.168        0.043      333.793        3.341      869.321
01/12/2021  09:34:00      -20.136       96.539       -8.805       29.912       37.067       21.201      894.749     1373.940      449.500        0.626        0.136       98.617       14.542        0.022      333.853        3.440      869.298
01/12/2021  09:35:00      -33.826      125.037      -11.693       24.556       21.378       15.315      603.003      457.033      234.554        0.910        0.065      129.531       10.255        0.006      333.829        3.401      869.294
01/12/2021  09:36:00      -28.867       91.315       -4.410       26.425       20.189       19.802      698.260      407.612      392.120        0.534        0.075       95.769       11.265        0.014      333.881        3.488      869.290
01/12/2021  09:37:00       -2.809       65.490       -3.001       19.959       28.993       18.268      398.359      840.569      333.707        0.294        0.079       65.551       11.183        0.029      333.894        3.508      869.286
01/12/2021  09:38:00        0.586        8.233        1.389       18.030       12.092       13.095      325.087      146.213      171.485        0.036        0.032        8.254       11.984        2.108      333.962        3.620      869.296
01/12/2021  09:39:00      -44.861       13.251      -10.991       36.441       19.423       20.000     1327.982      377.255      399.998        0.221        0.105       46.777       17.473        0.140      334.008        3.699      869.308
01/12/2021  09:40:00        3.873       -4.828       11.072       35.949       27.430       23.919     1292.326      752.409      572.130        0.139        0.131        6.189       15.040        5.905      334.058        3.780      869.310
01/12/2021  09:41:00        2.636      -26.619      -12.615       30.499       18.769       23.691      930.179      352.267      561.269        0.136        0.092       26.749       14.085        0.277      334.057        3.779      869.303
01/12/2021  09:42:00       -9.696       -5.296      -10.373       28.440       25.358       20.665      808.838      643.011      427.058        0.105        0.094       11.048       20.388        3.405      334.020        3.717      869.269
01/12/2021  09:43:00       16.972       -5.118      -12.795       29.362       46.566       23.132      862.156     2168.417      535.100        0.202        0.178       17.727       19.042        1.154      334.112        3.870      869.204
01/12/2021  09:44:00        9.394       39.445       -7.471       32.787       15.504       11.909     1074.995      240.375      141.829        0.158        0.073       40.549       13.706        0.114      333.941        3.588      869.169
01/12/2021  09:45:00      -20.362       44.950       -6.371       23.099       18.110       13.020      533.552      327.965      169.528        0.175        0.052       49.347        9.528        0.037      334.052        3.770      869.178
01/12/2021  09:46:00      -31.625        1.812       -6.850       22.056       21.717       12.775      486.482      471.615      163.211        0.109        0.056       31.677       10.032        0.100      333.963        3.621      869.208
01/12/2021  09:47:00        7.238      -24.304       -1.017       28.211       37.188       17.965      795.875     1382.922      322.755        0.157        0.125       25.359       14.121        0.310      334.148        3.929      869.257
01/12/2021  09:48:00       60.530      -40.488      -26.439       31.377       52.789       21.844      984.547     2786.720      477.141        0.512        0.212       72.823       13.666        0.035      334.139        3.915      869.298
01/12/2021  09:49:00      129.663      -94.327      -34.142       52.238       47.189       30.581     2728.791     2226.794      935.194        1.638        0.295      160.344       28.579        0.032      334.058        3.780      869.296
01/12/2021  09:50:00       96.083      -73.493      -21.067       72.700       67.274       46.889     5285.245     4525.853     2198.569        1.354        0.600      120.968       48.847        0.163      334.138        3.912      869.253
01/12/2021  09:51:00       39.304      -43.690      -12.511       59.877       69.411       37.569     3585.300     4817.882     1411.405        0.671        0.491       58.767       35.241        0.360      334.227        4.060      869.257
01/12/2021  09:52:00      -10.593        6.641       -0.296       47.339       33.988       17.300     2240.953     1155.189      299.306        0.193        0.185       12.503       18.876        2.279      334.179        3.982      869.333
01/12/2021  09:53:00      -85.136       53.724      -15.144       49.910       35.203       19.965     2490.976     1239.225      398.618        0.725        0.206      100.670       11.431        0.013      334.227        4.059      869.396
01/12/2021  09:54:00        2.908       43.854       -9.496       52.056       32.499       17.146     2709.782     1056.174      293.995        0.304        0.203       43.951       17.134        0.152      334.078        3.813      869.416
01/12/2021  09:55:00       66.075       61.072      -14.018       44.244       41.249       30.285     1957.548     1701.479      917.183        0.643        0.229       89.976       23.863        0.070      334.124        3.890      869.403
01/12/2021  09:56:00       74.517        2.074      -28.629       60.849       64.980       37.563     3702.577     4222.443     1410.984        0.785        0.467       74.546       28.627        0.147      334.216        4.043      869.384
01/12/2021  09:57:00       65.110       44.920      -23.166       48.568       49.024       34.490     2358.872     2403.354     1189.591        0.637        0.298       79.102       23.068        0.085      334.172        3.968      869.387
01/12/2021  09:58:00       61.143        8.233       -5.818       44.621       49.661       26.603     1991.054     2466.225      707.727        0.450        0.258       61.695       23.431        0.144      334.119        3.883      869.410
01/12/2021  09:59:00       60.907       27.798       -3.763       21.917       22.038       12.721      480.342      485.676      161.826        0.281        0.056       66.950       10.802        0.026      334.038        3.747      869.450
01/12/2021  10:00:00        2.914       38.297        3.093       24.085       12.893       14.666      580.088      166.226      215.078        0.122        0.048       38.408       12.631        0.108      334.128        3.896      869.490
01/12/2021  10:01:00      -30.966       50.788       -2.039       43.944       19.927       17.037     1931.101      397.080      290.244        0.308        0.131       59.484       13.247        0.050      334.277        4.144      869.514
01/12/2021  10:02:00      -22.392       48.141       -3.482       35.653       17.734       15.183     1271.123      314.508      230.518        0.232        0.091       53.094       11.286        0.045      334.373        4.305      869.528
01/12/2021  10:03:00      -12.557       55.739       -4.521       25.730       21.373       20.951      662.057      456.825      438.955        0.242        0.078       57.136       14.884        0.068      334.236        4.075      869.510
01/12/2021  10:04:00      -11.902       81.621        4.498       37.003       32.412       21.923     1369.256     1050.523      480.637        0.486        0.145       82.484       16.442        0.040      334.304        4.188      869.465
01/12/2021  10:05:00      -15.208      150.983       -7.203       36.199       31.314       20.932     1310.348      980.559      438.158        1.290        0.136      151.747       15.535        0.010      334.176        3.974      869.413
01/12/2021  10:06:00       21.418      157.803      -14.089       41.968       29.641       23.085     1761.293      878.590      532.904        1.437        0.159      159.250       16.311        0.010      334.243        4.087      869.385
01/12/2021  10:07:00       54.786      162.183      -25.764       41.305       42.285       27.098     1706.118     1787.997      734.284        1.710        0.211      171.186       26.395        0.024      334.351        4.266      869.385
01/12/2021  10:08:00       62.848       30.900      -14.290       40.836       39.467       24.747     1667.559     1557.676      612.434        0.447        0.192       70.033       16.614        0.056      334.349        4.263      869.438
01/12/2021  10:09:00       30.419       33.686       -7.862       32.596       27.453       20.025     1062.484      753.657      400.992        0.217        0.111       45.388       18.533        0.167      334.400        4.349      869.523
01/12/2021  10:10:00       -8.903       17.253       -5.539       39.104       27.322       18.510     1529.115      746.496      342.609        0.151        0.131       19.414       18.193        0.878      334.519        4.545      869.568
01/12/2021  10:11:00      -49.699       64.155       -7.534       31.186       28.681       17.610      972.585      822.574      310.096        0.437        0.105       81.153        7.450        0.008      334.457        4.443      869.552
01/12/2021  10:12:00      -26.730       37.439       -1.382       32.129       25.261       16.105     1032.275      638.132      259.363        0.202        0.096       46.002       15.937        0.120      334.475        4.473      869.520
01/12/2021  10:13:00       -2.606       27.949       -5.374       31.943       13.052       21.280     1020.348      170.346      452.853        0.123        0.082       28.070       19.884        0.502      334.564        4.621      869.483
01/12/2021  10:14:00      -35.510       38.662        1.416       28.591       25.058       17.457      817.426      627.906      304.742        0.225        0.088       52.495       12.882        0.060      334.544        4.586      869.464
01/12/2021  10:15:00      -69.529       43.338      -22.479       31.969       35.704       18.953     1022.018     1274.776      359.234        0.494        0.133       81.930       16.265        0.039      334.496        4.506      869.468
01/12/2021  10:16:00     -116.415       43.365      -22.841       57.532       42.797       26.644     3309.947     1831.561      709.890        1.090        0.293      124.230       14.410        0.013      334.507        4.526      869.456
01/12/2021  10:17:00     -121.161       87.060      -16.436       51.204       30.379       29.960     2621.859      922.892      897.574        1.349        0.222      149.196       13.750        0.008      334.423        4.384      869.447
01/12/2021  10:18:00      -39.965       25.583       -0.086       73.911       57.178       35.761     5462.899     3269.350     1278.880        0.613        0.501       47.452       22.324        0.221      334.583        4.653      869.425
01/12/2021  10:19:00       -3.089       -5.911      -13.380       56.362       33.816       33.339     3176.622     1143.553     1111.482        0.283        0.272        6.670       26.260       15.500      334.650        4.764      869.390
01/12/2021  10:20:00       31.680        7.199      -11.327       40.983       20.283       20.957     1679.647      411.381      439.211        0.186        0.127       32.487       26.041        0.643      334.697        4.840      869.341
01/12/2021  10:21:00       97.777       55.721      -28.056       53.082       41.857       29.482     2817.651     1752.002      869.168        0.944        0.272      112.539       32.111        0.081      334.651        4.766      869.282
01/12/2021  10:22:00       86.207       35.455      -27.624       64.703       41.694       30.081     4186.489     1738.418      904.865        0.814        0.341       93.213       24.625        0.070      334.779        4.978      869.226
01/12/2021  10:23:00      144.864       45.070      -22.324       44.912       34.138       27.224     2017.097     1165.375      741.143        1.372        0.196      151.713       28.084        0.034      334.668        4.791      869.208
01/12/2021  10:24:00       38.798       38.926       -9.598       63.489       28.629       26.356     4030.790      819.631      694.642        0.433        0.277       54.959       22.288        0.164      334.683        4.816      869.250
01/12/2021  10:25:00      -97.968       18.302      -23.026       67.589       40.766       33.968     4568.290     1661.891     1153.837        0.892        0.369       99.663       13.078        0.017      334.888        5.158      869.305
01/12/2021  10:26:00      -15.862      -10.804      -32.435       66.552       28.212       33.158     4429.168      795.918     1099.438        0.387        0.316       19.191       33.451        3.038      334.915        5.203      869.325
01/12/2021  10:27:00       62.272       -5.625      -20.184       50.409       31.791       32.142     2541.068     1010.661     1033.101        0.445        0.229       62.526       32.002        0.262      334.901        5.180      869.301
01/12/2021  10:28:00       54.242       22.169      -12.594       54.552       49.999       36.427     2975.874     2499.892     1326.932        0.520        0.340       58.598       30.946        0.279      334.938        5.243      869.294
01/12/2021  10:29:00       50.575       28.881      -14.411       43.000       21.776       22.142     1849.019      474.173      490.252        0.321        0.141       58.240       26.808        0.212      334.791        4.997      869.296
01/12/2021  10:30:00      -33.621       11.179       -4.745       43.113       17.781       25.863     1858.761      316.179      668.904        0.206        0.142       35.431       25.237        0.507      334.992        5.331      869.300
01/12/2021  10:31:00      -30.685        0.915      -17.945       50.155       18.227       27.168     2515.558      332.233      738.118        0.242        0.179       30.698       33.945        1.223      334.947        5.256      869.302
01/12/2021  10:32:00       -0.764        2.495      -10.208       63.765       21.510       27.704     4065.916      462.672      767.510        0.270        0.265        2.609       38.870      221.974      335.016        5.372      869.312
01/12/2021  10:33:00       -9.702      -17.473      -11.816       66.974       25.409       30.001     4485.487      645.618      900.085        0.328        0.302       19.986       27.120        1.841      335.129        5.557      869.325
01/12/2021  10:34:00      -45.922      -17.280       -7.543       69.102       34.385       36.593     4775.113     1182.301     1339.038        0.488        0.365       49.065       21.064        0.184      335.111        5.528      869.319
01/12/2021  10:35:00      -22.709       16.596       -1.389       56.384       36.241       36.206     3179.198     1313.431     1310.892        0.330        0.290       28.127       29.700        1.115      335.147        5.588      869.276
01/12/2021  10:36:00       13.054      -31.516      -25.890       62.638       26.186       30.500     3923.515      685.690      930.269        0.369        0.277       34.113       38.758        1.291      335.292        5.828      869.212
01/12/2021  10:37:00       18.556      -33.320      -21.491       65.232       41.445       33.699     4255.159     1717.689     1135.622        0.451        0.355       38.139       38.774        1.034      335.353        5.930      869.167
01/12/2021  10:38:00       54.369      -19.690      -23.829       55.333       32.405       26.864     3061.784     1050.057      721.691        0.437        0.242       57.824       35.524        0.377      335.402        6.011      869.151
01/12/2021  10:39:00       27.806       -5.288       -9.848       57.489       22.259       27.203     3305.031      495.463      739.980        0.272        0.227       28.305       37.177        1.725      335.581        6.310      869.158
01/12/2021  10:40:00       12.293       35.745      -21.569       54.947       16.427       26.019     3019.202      269.852      677.000        0.293        0.198       37.799       35.055        0.860      335.361        5.943      869.174
01/12/2021  10:41:00        5.217       14.954      -13.960       64.832       23.767       31.377     4203.220      564.883      984.507        0.310        0.288       15.838       36.864        5.417      335.439        6.071      869.170
01/12/2021  10:42:00       62.268       21.380      -18.925       52.445       14.172       25.054     2750.511      200.859      627.695        0.414        0.179       65.836       32.593        0.245      335.285        5.819      869.149
01/12/2021  10:43:00       50.391        7.350      -17.665       56.008       38.695       28.800     3136.939     1497.285      829.422        0.418        0.273       50.924       36.421        0.512      335.446        6.085      869.112
01/12/2021  10:44:00       50.664      -62.255      -28.436       77.524       37.496       36.279     6009.959     1405.913     1316.190        0.799        0.437       80.265       45.632        0.323      335.525        6.217      869.067
01/12/2021  10:45:00      141.838     -138.973      -45.825       81.533       42.619       37.863     6647.558     1816.359     1433.627        2.571        0.495      198.574       52.009        0.069      335.363        5.945      869.012
01/12/2021  10:46:00      149.194     -107.887      -42.682       78.066       42.675       35.022     6094.374     1821.165     1226.549        2.243        0.457      184.115       42.136        0.052      335.287        5.819      868.960
01/12/2021  10:47:00      115.423      -68.769      -25.833       69.438       45.835       36.199     4821.634     2100.847     1310.369        1.347        0.412      134.356       45.396        0.114      335.328        5.890      868.939
01/12/2021  10:48:00       63.171        8.113      -12.219       69.918       67.664       37.629     4888.528     4578.400     1415.953        0.754        0.544       63.689       40.914        0.413      335.495        6.165      868.893
01/12/2021  10:49:00      122.114       63.284      -25.747       64.363       34.069       36.931     4142.633     1160.665     1363.913        1.312        0.333      137.538       40.691        0.088      335.275        5.801      868.839
01/12/2021  10:50:00      113.270       17.189      -21.112       79.565       46.172       40.363     6330.540     2131.862     1629.141        1.183        0.505      114.567       45.856        0.160      335.405        6.017      868.818
01/12/2021  10:51:00      112.046       16.536      -14.934       63.924       35.700       34.228     4086.283     1274.468     1171.548        0.979        0.327      113.260       40.494        0.128      335.294        5.831      868.834
01/12/2021  10:52:00      137.295       49.589      -26.867       64.916       26.113       32.470     4214.152      681.873     1054.295        1.399        0.298      145.976       41.822        0.082      335.112        5.530      868.835
01/12/2021  10:53:00      116.281       12.417      -27.919       88.710       35.270       39.629     7869.377     1243.971     1570.474        1.257        0.534      116.942       55.224        0.223      335.220        5.709      868.821
01/12/2021  10:54:00       77.541        8.383      -36.096       66.215       43.619       33.504     4384.364     1902.633     1122.545        0.740        0.370       77.993       42.920        0.303      335.388        5.987      868.802
01/12/2021  10:55:00       68.180      -55.719      -28.277       65.527       50.573       35.950     4293.747     2557.613     1292.375        0.835        0.407       88.052       43.290        0.242      335.396        6.002      868.802
01/12/2021  10:56:00       38.198       -8.861      -10.708       63.864       35.115       35.735     4078.589     1233.069     1277.011        0.412        0.329       39.212       40.989        1.093      335.487        6.152      868.792
01/12/2021  10:57:00       19.114      -22.708      -12.029       63.623       24.777       33.541     4047.868      613.912     1125.013        0.341        0.289       29.681       40.893        1.898      335.664        6.447      868.769
01/12/2021  10:58:00      -18.222       28.240      -19.339       63.054       24.392       28.393     3975.816      594.972      806.152        0.344        0.269       33.609       38.766        1.330      335.576        6.302      868.744
01/12/2021  10:59:00       20.799       29.765      -11.521       77.406       18.979       30.253     5991.636      360.201      915.218        0.436        0.363       36.312       37.292        1.055      335.528        6.222      868.696
01/12/2021  11:00:00       90.911       28.365      -26.913       59.648       36.140       30.185     3557.838     1306.118      911.125        0.778        0.289       95.233       35.688        0.140      335.443        6.079      868.643
01/12/2021  11:01:00       57.709        9.086      -34.880       58.675       45.492       33.056     3442.772     2069.521     1092.682        0.562        0.330       58.420       35.221        0.363      335.628        6.388      868.622
01/12/2021  11:02:00      123.961       46.024      -27.793       71.440       46.208       35.001     5103.670     2135.198     1225.049        1.336        0.423      132.229       43.025        0.106      335.406        6.018      868.620
01/12/2021  11:03:00       92.870       77.491      -13.348       51.747       28.039       31.390     2677.753      786.180      985.350        0.963        0.222      120.953       33.832        0.078      335.363        5.946      868.610
01/12/2021  11:04:00       27.020        1.861      -26.360       66.564       31.501       29.163     4430.757      992.334      850.472        0.385        0.314       27.084       36.047        1.771      335.591        6.325      868.598
01/12/2021  11:05:00       62.508       -9.304      -23.084       64.164       51.243       32.359     4117.048     2625.818     1047.113        0.616        0.389       63.197       35.551        0.316      335.457        6.103      868.606
01/12/2021  11:06:00       25.079       14.050      -15.013       59.272       18.221       29.179     3513.225      332.006      851.393        0.287        0.235       28.747       36.262        1.591      335.572        6.294      868.623
01/12/2021  11:07:00       12.548      -22.065      -14.088       59.459       25.188       33.192     3535.370      634.430     1101.739        0.306        0.264       25.383       32.643        1.654      335.735        6.567      868.621
01/12/2021  11:08:00       -2.806       37.320       -9.658       52.149       20.710       26.130     2719.530      428.898      682.778        0.266        0.192       37.425       31.092        0.690      335.431        6.060      868.587
01/12/2021  11:09:00       51.447       -9.739      -14.792       64.741       40.487       35.006     4191.414     1639.199     1225.398        0.501        0.353       52.360       43.628        0.694      335.683        6.481      868.550
01/12/2021  11:10:00       55.247      -20.332      -32.744       66.756       55.936       39.482     4456.354     3128.814     1558.799        0.684        0.457       58.869       42.283        0.516      335.678        6.471      868.511
01/12/2021  11:11:00       76.727      -22.416      -37.531       71.852       65.140       42.809     5162.749     4243.247     1832.635        0.952        0.562       79.934       44.659        0.312      335.697        6.504      868.476
01/12/2021  11:12:00       63.927        8.771      -27.789       71.978       72.172       45.757     5180.781     5208.783     2093.665        0.871        0.624       64.526       38.355        0.353      335.566        6.285      868.436
01/12/2021  11:13:00       86.042       34.663      -22.145       83.085       73.206       39.674     6903.038     5359.116     1573.998        1.146        0.692       92.762       43.135        0.216      335.545        6.249      868.388
01/12/2021  11:14:00       72.840        7.463      -13.944       69.693       76.177       46.757     4857.107     5802.923     2186.171        0.920        0.642       73.222       30.811        0.177      335.634        6.397      868.360
01/12/2021  11:15:00       94.846        6.090      -24.220       99.536       68.051       33.332     9907.379     4630.954     1111.021        1.263        0.782       95.042       37.228        0.153      335.605        6.350      868.415
01/12/2021  11:16:00       26.342     -110.038      -30.290       86.577       38.095       35.560     7495.538     1451.229     1264.506        1.196        0.511      113.147       42.723        0.143      335.633        6.396      868.511
01/12/2021  11:17:00      -54.589        2.675      -31.456       72.809       50.880       31.324     5301.215     2588.739      981.206        0.642        0.444       54.654       37.050        0.460      335.889        6.823      868.597
01/12/2021  11:18:00      -85.136       21.727       -8.918       54.751       43.345       37.163     2997.694     1878.756     1381.071        0.703        0.313       87.864       15.881        0.033      335.908        6.854      868.639
01/12/2021  11:19:00     -130.986       71.744      -24.058       62.792       38.848       30.652     3942.811     1509.204      939.523        1.464        0.320      149.347       23.063        0.024      335.667        6.453      868.617
01/12/2021  11:20:00      -74.988       49.790      -27.160       54.150       19.637       28.441     2932.224      385.630      808.895        0.648        0.206       90.013       33.970        0.142      335.724        6.549      868.568
01/12/2021  11:21:00      -14.709       16.770      -31.069       63.890       16.275       30.034     4081.909      264.871      902.017        0.335        0.262       22.307       33.857        2.304      335.656        6.436      868.516
01/12/2021  11:22:00       11.755      -37.954      -21.816       53.865       16.836       28.239     2901.479      283.463      797.464        0.302        0.199       39.733       35.224        0.786      335.660        6.441      868.509
01/12/2021  11:23:00       -8.621      -22.791      -25.386       51.746       32.320       27.670     2677.683     1044.559      765.614        0.286        0.224       24.367       29.352        1.451      335.850        6.759      868.515
01/12/2021  11:24:00       -3.220        2.767        1.067       53.447       14.574       28.879     2856.620      212.408      834.024        0.196        0.195        4.245       27.034       40.555      335.994        6.998      868.514
01/12/2021  11:25:00       -2.201        8.392      -11.894       59.694       17.146       31.758     3563.430      293.982     1008.576        0.254        0.243        8.676       39.676       20.914      335.895        6.833      868.507
01/12/2021  11:26:00       -6.457       29.757      -10.339       48.380       17.437       23.311     2340.650      304.032      543.423        0.211        0.159       30.450       27.749        0.830      335.873        6.798      868.467
01/12/2021  11:27:00       35.836       50.446      -22.650       69.817       15.722       30.158     4874.470      247.180      909.535        0.519        0.302       61.879       41.905        0.459      335.914        6.865      868.411
01/12/2021  11:28:00       65.710       25.862      -13.318       60.761       27.217       31.020     3691.919      740.791      962.270        0.528        0.270       70.616       39.582        0.314      336.028        7.055      868.347
01/12/2021  11:29:00       57.223       45.498      -13.981       49.254       18.890       23.905     2425.908      356.832      571.473        0.445        0.168       73.106       32.602        0.199      335.867        6.788      868.293
01/12/2021  11:30:00        4.859       -8.509      -10.636       47.479       32.074       28.773     2254.279     1028.717      827.899        0.216        0.206        9.799       31.112       10.081      336.161        7.277      868.293
01/12/2021  11:31:00      -40.091      -12.649      -24.169       77.004       40.549       33.378     5929.616     1644.249     1114.060        0.552        0.434       42.039       14.352        0.117      336.077        7.137      868.326
01/12/2021  11:32:00      -19.747      -10.650       -3.376       76.798       40.363       36.435     5897.857     1629.207     1327.525        0.468        0.443       22.436       14.798        0.435      336.072        7.129      868.377
01/12/2021  11:33:00     -127.610      -33.374      -14.403       61.914       42.809       31.256     3833.289     1832.592      976.930        1.212        0.332      131.902       21.236        0.026      335.967        6.953      868.370
01/12/2021  11:34:00      -24.193      -24.694       -5.489       47.804       32.201       24.580     2285.252     1036.880      604.160        0.257        0.196       34.571       23.739        0.472      336.105        7.182      868.302
01/12/2021  11:35:00      -16.373       11.275      -10.318       46.864       14.033       22.672     2196.250      196.934      513.998        0.170        0.145       19.880       23.188        1.360      336.112        7.194      868.192
01/12/2021  11:36:00        4.100       20.995       -5.309       44.156       11.677       23.344     1949.792      136.354      544.959        0.156        0.132       21.391       28.628        1.791      336.187        7.321      868.137
01/12/2021  11:37:00      -30.109       18.973      -12.766       42.544       15.073       21.262     1809.986      227.197      452.091        0.196        0.124       35.588       24.177        0.462      336.205        7.351      868.134
01/12/2021  11:38:00      -78.428       18.688      -11.757       58.661       26.842       25.792     3441.142      720.518      665.225        0.573        0.241       80.623       22.791        0.080      336.413        7.698      868.166
01/12/2021  11:39:00      -60.772       18.120      -13.622       48.394       28.508       23.376     2341.946      812.733      546.429        0.395        0.185       63.416       16.752        0.070      336.473        7.798      868.190
01/12/2021  11:40:00      -88.165       -0.347      -15.428       60.332       30.688       20.671     3640.010      941.728      427.276        0.651        0.250       88.166       10.900        0.015      336.344        7.582      868.208
01/12/2021  11:41:00     -106.717        1.497      -11.042       72.561       27.108       26.511     5265.130      734.821      702.847        0.911        0.335      106.728       10.803        0.010      336.279        7.473      868.211
01/12/2021  11:42:00      -13.278       -6.576        6.573       36.051       24.259       22.635     1299.694      588.520      512.324        0.133        0.120       14.818       16.394        1.224      336.448        7.758      868.174
01/12/2021  11:43:00       15.557      -29.037      -14.709       41.317       17.511       20.451     1707.063      306.641      418.263        0.187        0.122       32.942       24.236        0.541      336.353        7.598      868.077
01/12/2021  11:44:00       38.128       -5.903       -6.602       50.197       55.394       36.062     2519.745     3068.446     1300.504        0.421        0.344       38.582       30.850        0.639      336.601        8.013      867.996
01/12/2021  11:45:00       84.780       60.482      -28.188       56.213       25.894       30.187     3159.891      670.511      911.233        0.819        0.237      104.143       26.615        0.065      336.466        7.786      867.954
01/12/2021  11:46:00        8.641       39.770       -5.996       46.400       38.863       23.242     2153.006     1510.334      540.176        0.295        0.210       40.698       24.960        0.376      336.647        8.090      867.926
01/12/2021  11:47:00       -4.240      -31.631       -7.235       23.286       28.783       19.199      542.217      828.444      368.616        0.140        0.087       31.914       15.008        0.221      336.646        8.089      867.902
01/12/2021  11:48:00        5.789       18.853        4.605       13.353       13.990       13.579      178.314      195.732      184.389        0.048        0.028       19.721       10.145        0.265      336.857        8.441      867.829
01/12/2021  11:49:00        2.068       37.266       -6.822       21.420       18.603       13.136      458.806      346.080      172.542        0.121        0.049       37.323        7.577        0.041      336.718        8.208      867.791
01/12/2021  11:50:00      -72.574       -7.237       -6.834       51.365       51.672       27.842     2638.377     2670.011      775.196        0.572        0.304       72.934       15.915        0.048      336.718        8.207      867.789
01/12/2021  11:51:00      -80.524      -10.146       -5.932       48.565       17.650       17.250     2358.604      311.534      297.554        0.479        0.148       81.161       12.465        0.024      336.615        8.037      867.791
01/12/2021  11:52:00       19.193      -27.537      -23.063       37.346       50.873       32.491     1394.706     2588.053     1055.684        0.335        0.252       33.566       23.494        0.490      336.908        8.526      867.703
01/12/2021  11:53:00      121.760      -81.838      -53.682       63.387       75.893       31.709     4017.857     5759.672     1005.473        1.759        0.539      146.708       40.094        0.075      336.830        8.394      867.559
01/12/2021  11:54:00       64.721      -58.726      -16.321       46.468       61.218       36.092     2159.249     3747.676     1302.620        0.756        0.360       87.393       29.911        0.117      336.958        8.608      867.458
01/12/2021  11:55:00       22.506      -21.129       -3.724       48.878       66.101       37.387     2389.043     4369.346     1397.812        0.456        0.408       30.870       30.971        1.007      336.930        8.563      867.428
01/12/2021  11:56:00      -44.913      -74.943      -11.071       43.312       54.955       21.044     1875.926     3020.021      442.834        0.655        0.267       87.370       15.394        0.031      337.093        8.833      867.437
01/12/2021  11:57:00       -2.630      -48.594      -19.610       27.256       31.700       19.822      742.911     1004.897      392.918        0.245        0.107       48.665       19.631        0.163      337.219        9.046      867.481
01/12/2021  11:58:00       12.668      -60.206      -22.805       47.490       35.695       23.355     2255.339     1274.124      545.471        0.419        0.204       61.524       19.309        0.099      337.200        9.013      867.511
01/12/2021  11:59:00      -13.554      -34.981       -7.998       41.288       41.180       27.417     1704.707     1695.814      751.669        0.281        0.208       37.515       15.122        0.162      337.232        9.067      867.530
01/12/2021  12:00:00      -67.133      -32.925       -7.085       81.835       40.879       24.989     6697.017     1671.072      624.463        0.731        0.450       74.772       18.966        0.064      337.147        8.925      867.548
01/12/2021  12:01:00      -54.317      -14.945       -9.004       61.470       34.706       29.411     3778.586     1204.495      865.033        0.455        0.292       56.336       19.381        0.118      337.189        8.995      867.549
01/12/2021  12:02:00      -23.418        5.929       -8.433       22.567       30.960       22.662      509.262      958.510      513.561        0.132        0.099       24.157        3.036        0.016      337.183        8.984      867.528
01/12/2021  12:03:00      -50.197       30.506       -4.112       27.406       20.246       14.084      751.106      409.884      198.346        0.241        0.068       58.740       10.717        0.033      336.950        8.594      867.511
01/12/2021  12:04:00      -22.778      -14.600       -7.030       18.136       19.312       11.634      328.920      372.958      135.352        0.081        0.042       27.056        6.904        0.065      337.102        8.848      867.498
01/12/2021  12:05:00      -34.317      -22.672       -7.939       68.394       45.007       23.124     4677.791     2025.604      534.728        0.449        0.362       41.130        9.933        0.058      337.153        8.936      867.465
01/12/2021  12:06:00      -42.146      -14.796        0.555       41.021       25.959       18.718     1682.688      673.851      350.355        0.235        0.135       44.668       19.554        0.192      337.227        9.059      867.411
01/12/2021  12:07:00      -42.642      -60.192      -18.666       34.608       41.496       26.726     1197.700     1721.897      714.300        0.471        0.182       73.766       19.426        0.069      337.187        8.993      867.376
01/12/2021  12:08:00      -65.760      -24.316      -22.307       38.208       31.188       32.534     1459.814      972.718     1058.445        0.445        0.175       70.111       14.878        0.045      337.104        8.851      867.375
01/12/2021  12:09:00      -41.590       25.940       -4.399       20.760       27.165       16.285      430.982      737.941      265.202        0.193        0.072       49.017       13.837        0.080      337.337        9.243      867.347
01/12/2021  12:10:00      -31.866       21.855        2.264       14.447       13.727       15.632      208.726      188.423      244.347        0.107        0.032       38.640        7.204        0.035      337.279        9.147      867.316
01/12/2021  12:11:00        5.095        4.624        4.407       27.025       31.393       15.854      730.332      985.500      251.341        0.102        0.098        6.881       12.185        3.136      337.395        9.340      867.288
01/12/2021  12:12:00       -7.911      -18.448        3.366       25.884       50.357       29.746      669.967     2535.780      884.819        0.225        0.205       20.073       20.335        1.026      337.460        9.449      867.253
01/12/2021  12:13:00       11.340      -24.228      -10.799       38.810       43.405       27.341     1506.223     1883.963      747.514        0.248        0.207       26.751       26.494        0.981      337.268        9.127      867.243
01/12/2021  12:14:00       41.270      -16.085      -15.340       57.780       47.674       24.632     3338.585     2272.787      606.730        0.421        0.311       44.294       23.310        0.277      337.195        9.005      867.250
01/12/2021  12:15:00       85.636       12.009      -20.427       50.658       73.370       34.591     2566.240     5383.180     1196.537        0.852        0.457       86.474       26.960        0.097      337.144        8.919      867.257
01/12/2021  12:16:00      140.721       30.076      -19.424       72.572       47.260       30.001     5266.655     2233.542      900.084        1.474        0.420      143.899       17.764        0.015      337.035        8.736      867.252
01/12/2021  12:17:00      143.400       27.712      -17.065       47.875       56.403       30.179     2292.014     3181.243      910.785        1.400        0.319      146.053       23.896        0.027      337.066        8.789      867.260
01/12/2021  12:18:00      108.439       55.820      -12.737       44.462       40.838       30.203     1976.843     1667.776      912.214        0.980        0.228      121.962       27.336        0.050      337.115        8.872      867.258
01/12/2021  12:19:00       73.441       18.574       -9.673       56.174       51.982       30.225     3155.474     2702.151      913.524        0.630        0.339       75.754       23.699        0.098      337.214        9.037      867.241
01/12/2021  12:20:00      141.783       38.622      -17.091       47.481       40.116       24.872     2254.439     1609.270      618.593        1.318        0.224      146.949       18.766        0.016      337.078        8.809      867.223
01/12/2021  12:21:00      163.028       50.273      -29.866       43.291       27.871       25.890     1874.144      776.808      670.270        1.666        0.166      170.603       23.936        0.020      337.032        8.730      867.202
01/12/2021  12:22:00      132.234       30.333      -17.041       56.260       43.829       29.447     3165.138     1921.000      867.111        1.232        0.298      135.669       31.420        0.054      337.133        8.901      867.198
01/12/2021  12:23:00      100.323       60.231      -19.687       40.830       20.794       18.666     1667.088      432.382      348.406        0.826        0.122      117.015       22.505        0.037      337.129        8.896      867.233
01/12/2021  12:24:00       30.774       31.403      -11.238       38.192       24.946       18.057     1458.605      622.307      326.057        0.223        0.120       43.968       22.417        0.260      337.363        9.287      867.253
01/12/2021  12:25:00       29.493       43.160        0.581       26.660       26.577       22.095      710.782      706.332      488.196        0.232        0.095       52.274       11.925        0.052      337.597        9.678      867.259
01/12/2021  12:26:00       64.150       44.755       -5.083       56.170       29.108       23.326     3155.116      847.256      544.116        0.534        0.227       78.219        7.226        0.009      337.496        9.509      867.270
01/12/2021  12:27:00       59.211       46.803      -14.703       42.703       23.471       21.682     1823.585      550.911      470.113        0.438        0.142       75.475       23.889        0.100      337.308        9.195      867.285
01/12/2021  12:28:00       41.343       30.638       -5.723       22.585       15.235       17.588      510.089      232.114      309.321        0.187        0.053       51.458       13.572        0.070      337.390        9.333      867.285
01/12/2021  12:29:00       36.837      104.104       -3.489       35.958       34.378       20.988     1292.964     1181.819      440.494        0.756        0.146      110.430       15.555        0.020      337.506        9.527      867.285
01/12/2021  12:30:00       25.034       85.094      -13.356       22.330       28.214       18.722      498.631      796.040      350.508        0.485        0.082       88.700       12.663        0.020      337.497        9.511      867.272
01/12/2021  12:31:00        0.323      108.637      -12.772       40.126       32.198       19.643     1610.103     1036.690      385.862        0.750        0.152      108.637       16.017        0.022      337.661        9.785      867.253
01/12/2021  12:32:00       29.199      112.704       -8.914       21.105       32.109       20.549      445.406     1030.983      422.242        0.777        0.095      116.425       14.748        0.016      337.665        9.793      867.219
01/12/2021  12:33:00       48.007       91.631       -2.305       31.084       31.409       20.792      966.240      986.546      432.308        0.655        0.119      103.445       14.314        0.019      337.720        9.886      867.181
01/12/2021  12:34:00       49.588      108.612       -4.407       29.684       38.164       24.623      881.126     1456.525      606.298        0.861        0.147      119.396       13.281        0.012      337.815       10.045      867.151
01/12/2021  12:35:00       41.730      119.572       -7.728       29.037       38.893       27.150      843.147     1512.640      737.115        0.960        0.155      126.645       22.411        0.031      337.863       10.124      867.112
01/12/2021  12:36:00       66.134      118.313       -9.635       46.492       39.328       24.471     2161.486     1546.664      598.846        1.138        0.215      135.542       16.636        0.015      337.970       10.303      867.071
01/12/2021  12:37:00       86.265       79.532       -5.962       51.526       27.193       24.479     2654.908      739.437      599.202        0.890        0.200      117.333       21.219        0.033      337.941       10.256      867.052
01/12/2021  12:38:00       79.029       80.668      -11.505       34.946       19.890       17.995     1221.243      395.622      323.814        0.741        0.097      112.929       15.709        0.019      338.001       10.355      867.055
01/12/2021  12:39:00       84.100       60.949      -12.224       21.011       18.819       15.049      441.448      354.152      226.468        0.598        0.051      103.863        8.536        0.007      337.963       10.294      867.055
01/12/2021  12:40:00       72.468       62.972       -9.082       30.360       17.402       21.280      921.748      302.817      452.848        0.549        0.084       96.006       16.217        0.029      338.077       10.484      867.055
01/12/2021  12:41:00       82.070       65.329       -9.311       21.690       18.872       15.941      470.477      356.136      254.131        0.609        0.054      104.897       10.208        0.009      338.136       10.581      867.055
01/12/2021  12:42:00       60.481       54.555       -4.463       39.354       23.750       15.803     1548.714      564.069      249.742        0.451        0.118       81.451       15.445        0.036      338.298       10.853      867.050
01/12/2021  12:43:00       29.837       51.442        1.447       35.488       34.903       21.074     1259.414     1218.254      444.103        0.323        0.146       59.469       20.107        0.114      338.443       11.099      867.050
01/12/2021  12:44:00       70.830       47.361       -4.956       24.164       31.031       19.369      583.900      962.910      375.167        0.460        0.096       85.205       11.693        0.019      338.473       11.148      867.023
01/12/2021  12:45:00       50.891       56.006      -13.643       36.633       31.736       17.863     1341.973     1007.147      319.074        0.429        0.133       75.674       13.065        0.030      338.583       11.332      866.990
01/12/2021  12:46:00       30.985       -7.546      -11.817       28.726       38.525       17.681      825.175     1484.182      312.610        0.189        0.131       31.890       14.384        0.203      338.809       11.713      866.956
01/12/2021  12:47:00      -10.012      -19.860      -13.298       32.924       18.576       19.259     1083.963      345.068      370.897        0.124        0.090       22.241        9.415        0.179      338.877       11.827      866.932
01/12/2021  12:48:00        2.888       23.701       -8.161       30.102       25.112       19.515      906.157      630.609      380.829        0.128        0.096       23.876       14.276        0.358      338.814       11.720      866.930
01/12/2021  12:49:00       56.634       27.947      -14.873       35.913       31.746       27.871     1289.775     1007.828      776.818        0.364        0.154       63.154       26.089        0.171      338.759       11.630      866.907
01/12/2021  12:50:00       60.948       13.795      -10.902       44.707       75.909       29.331     1998.731     5762.175      860.289        0.632        0.431       62.490       18.391        0.087      338.781       11.663      866.895
01/12/2021  12:51:00      -33.206      -13.569        0.369       27.297       30.806       14.943      745.100      949.036      223.285        0.160        0.096       35.871        8.742        0.059      338.934       11.924      866.914
01/12/2021  12:52:00      -18.133      -28.834       -0.665       20.355       28.228       15.665      414.311      796.833      245.404        0.131        0.073       34.062       14.017        0.169      338.971       11.986      866.939
01/12/2021  12:53:00      -27.622      -32.152       -6.481       27.411       23.161       22.494      751.336      536.449      505.991        0.182        0.090       42.388       16.118        0.145      338.779       11.663      866.946
01/12/2021  12:54:00      -32.552      -15.971       11.975       43.849       31.069       24.271     1922.704      965.287      589.089        0.247        0.174       36.259       20.906        0.332      339.083       12.172      866.947
01/12/2021  12:55:00      -76.551       19.877       -1.647       66.262       25.086       21.898     4390.651      629.310      479.526        0.588        0.275       79.090       22.726        0.083      338.982       12.003      866.943
01/12/2021  12:56:00      -58.931       31.277       -2.919       25.439       20.662       13.214      647.166      426.933      174.606        0.285        0.062       66.717        7.474        0.013      338.811       11.718      866.951
01/12/2021  12:57:00      -21.627        7.418       -6.079       17.624        8.655        9.079      310.613       74.911       82.437        0.051        0.023       22.864        4.175        0.033      339.032       12.086      866.959
01/12/2021  12:58:00      -35.175      -29.490      -10.076       16.117       17.414       16.720      259.760      303.250      279.549        0.153        0.042       45.902       10.955        0.057      339.093       12.190      866.992
01/12/2021  12:59:00      -16.965      -20.369       -2.891       19.383       14.946       15.167      375.683      223.390      230.052        0.077        0.041       26.509       12.574        0.225      339.195       12.363      867.015
01/12/2021  13:00:00      -16.090        9.537       -0.403       13.563       13.204        8.539      183.947      174.354       72.914        0.039        0.022       18.704        6.197        0.110      339.446       12.785      867.028
01/12/2021  13:01:00       -8.778        2.336        7.556       20.384       17.360       12.484      415.509      301.365      155.838        0.051        0.044        9.084       12.593        1.922      339.405       12.716      867.055
01/12/2021  13:02:00       16.669       13.041        6.093       14.065       13.854       14.780      197.828      191.924      218.457        0.055        0.030       21.164        8.160        0.149      339.285       12.513      867.071
01/12/2021  13:03:00       54.565       26.780       -5.355       29.305       19.534       13.834      858.785      381.593      191.381        0.258        0.072       60.783        7.859        0.017      339.069       12.150      867.073
01/12/2021  13:04:00      -15.232      -64.569      -15.845       34.679       19.089       15.099     1202.652      364.407      227.981        0.322        0.090       66.342       14.364        0.047      339.307       12.550      867.093
01/12/2021  13:05:00       11.713      -69.381      -23.479       52.898       31.427       24.581     2798.175      987.667      604.220        0.495        0.220       70.363       11.444        0.026      339.190       12.354      867.113
01/12/2021  13:06:00       66.025      -82.088      -11.970       37.738       63.059       32.354     1424.169     3976.478     1046.791        0.884        0.322      105.346       27.912        0.070      339.145       12.278      867.079
01/12/2021  13:07:00       44.577      -68.724      -12.614       52.934       37.272       30.046     2801.982     1389.197      902.772        0.598        0.255       81.915       27.354        0.112      339.240       12.437      867.040
01/12/2021  13:08:00      103.504      -80.629      -24.275       26.410       39.834       16.338      697.467     1586.773      266.942        1.018        0.128      131.203       14.120        0.012      339.148       12.282      867.014
01/12/2021  13:09:00       70.968      -80.232      -15.670       33.387       34.596       19.810     1114.723     1196.849      392.428        0.721        0.135      107.115       21.342        0.040      339.212       12.392      867.005
01/12/2021  13:10:00       74.901      -89.534      -15.567       30.372       37.686       16.103      922.462     1420.221      259.294        0.823        0.130      116.733       13.253        0.013      339.150       12.286      866.993
01/12/2021  13:11:00       31.381     -109.170       -9.611       22.121       32.730       20.191      489.359     1071.267      407.691        0.748        0.098      113.591       14.028        0.015      339.150       12.286      866.972
01/12/2021  13:12:00       14.643       -4.091        8.783       30.183       40.303       21.270      910.990     1624.333      452.394        0.165        0.149       15.203       23.569        2.403      339.373       12.663      866.971
01/12/2021  13:13:00       49.082       53.277       -9.976       31.567       23.336       14.206      996.500      544.578      201.811        0.354        0.087       72.440        8.770        0.015      339.182       12.340      866.981
01/12/2021  13:14:00       83.834       46.114      -12.790       43.440       32.031       22.355     1887.048     1025.967      499.730        0.636        0.171       95.680       22.114        0.053      339.232       12.424      866.969
01/12/2021  13:15:00      114.112       42.005       -8.814       39.030       24.052       18.478     1523.365      578.520      341.425        0.865        0.122      121.597       17.112        0.020      339.070       12.154      866.948
01/12/2021  13:16:00       68.153       34.191       -3.231       33.610       13.991       14.861     1129.603      195.752      220.838        0.368        0.077       76.248       17.191        0.051      339.078       12.163      866.933
01/12/2021  13:17:00       48.060       31.456       -7.010       16.676       19.518       10.864      278.100      380.952      118.026        0.206        0.039       57.439       10.264        0.032      339.117       12.229      866.925
01/12/2021  13:18:00       56.294       40.006       -2.310       27.358       20.648       15.266      748.474      426.327      233.057        0.309        0.070       69.061        7.560        0.012      339.205       12.379      866.896
01/12/2021  13:19:00       49.294       21.953       -6.177       35.377       39.082       17.627     1251.504     1527.425      310.721        0.302        0.154       53.961       19.036        0.124      339.228       12.418      866.877
01/12/2021  13:20:00       -0.129       -7.340       -3.828       15.867       32.133       12.939      251.757     1032.539      167.420        0.076        0.073        7.341        6.980        0.904      339.406       12.718      866.873
01/12/2021  13:21:00       24.318        6.791      -16.196       27.535       32.301       16.751      758.198     1043.360      280.593        0.149        0.104       25.249        6.982        0.076      339.343       12.611      866.871
01/12/2021  13:22:00      116.523       38.780      -10.071       37.763       42.471       20.386     1426.011     1803.804      415.583        0.941        0.182      122.807       12.408        0.010      339.253       12.461      866.848
01/12/2021  13:23:00      132.919       60.214      -20.345       44.629       38.056       22.793     1991.729     1448.227      519.518        1.283        0.198      145.922       18.507        0.016      339.286       12.516      866.847
01/12/2021  13:24:00       83.025       26.814      -18.775       50.450       39.855       26.428     2545.232     1588.396      698.439        0.640        0.242       87.247       22.920        0.069      339.399       12.705      866.847
01/12/2021  13:25:00       79.542       15.934       -8.884       73.958       50.538       34.850     5469.767     2554.084     1214.553        0.795        0.462       81.123       24.197        0.089      339.404       12.714      866.825
01/12/2021  13:26:00      117.379       24.501      -17.992       68.443       48.200       30.245     4684.475     2323.264      914.764        1.131        0.396      119.909       17.250        0.021      339.222       12.405      866.808
01/12/2021  13:27:00      147.331       45.994       -7.553       41.341       35.404       24.591     1709.087     1253.477      604.711        1.372        0.178      154.343       19.041        0.015      339.276       12.498      866.823
01/12/2021  13:28:00      134.161       61.278       -9.624       49.379       37.825       23.162     2438.308     1430.698      536.460        1.313        0.220      147.493       18.434        0.016      339.320       12.572      866.844
01/12/2021  13:29:00      161.140       48.162      -15.340       56.521       56.946       25.000     3194.593     3242.900      624.997        1.779        0.353      168.183       19.599        0.014      339.378       12.669      866.828
01/12/2021  13:30:00       71.097      -29.680      -26.671       43.558       56.275       29.603     1897.323     3166.910      876.312        0.629        0.297       77.044       17.838        0.054      339.295       12.530      866.799
01/12/2021  13:31:00      101.133      -42.030      -36.090       58.667       71.916       38.999     3441.805     5171.902     1520.918        1.171        0.507      109.519       28.872        0.069      339.166       12.312      866.771
01/12/2021  13:32:00      120.956      -14.148      -16.533       93.689       78.084       47.590     8777.681     6097.131     2264.814        1.612        0.857      121.781       43.813        0.129      339.237       12.431      866.756
01/12/2021  13:33:00       57.783      -12.288        2.358       64.419       53.992       44.198     4149.767     2915.130     1953.426        0.625        0.451       59.075       39.953        0.457      339.239       12.436      866.749
01/12/2021  13:34:00       93.736        0.743       -3.234       71.560       64.438       40.276     5120.778     4152.285     1622.127        0.984        0.545       93.739       38.915        0.172      339.346       12.617      866.756
01/12/2021  13:35:00       50.083        4.168      -10.209       46.919       26.219       24.047     2201.386      687.420      578.279        0.305        0.173       50.256       24.546        0.239      339.506       12.886      866.746
01/12/2021  13:36:00       32.933      -27.628       -4.771       30.964       43.382       25.475      958.780     1881.962      649.000        0.268        0.174       42.987       13.144        0.093      339.419       12.739      866.746
01/12/2021  13:37:00      111.811      -25.028      -16.760       64.689       67.574       37.019     4184.649     4566.185     1370.419        1.176        0.506      114.578       30.513        0.071      339.130       12.252      866.722
01/12/2021  13:38:00       63.115      -25.148      -11.627       52.526       55.002       30.018     2758.971     3025.179      901.055        0.572        0.334       67.940       17.978        0.070      339.139       12.268      866.722
01/12/2021  13:39:00      106.606       10.280      -24.166       64.809       68.353       31.813     4200.194     4672.104     1012.092        1.097        0.494      107.100       20.612        0.037      339.182       12.340      866.730
01/12/2021  13:40:00      105.236       18.612      -13.501       56.029       80.233       25.073     3139.206     6437.298      628.672        1.090        0.510      106.869       20.370        0.036      339.193       12.359      866.742
01/12/2021  13:41:00       45.672      -40.876       -6.939       40.612       71.102       38.606     1649.303     5055.508     1490.405        0.600        0.410       61.292       21.163        0.119      339.234       12.428      866.759
01/12/2021  13:42:00       71.040      -36.558      -16.344       48.026       71.726       38.529     2306.475     5144.681     1484.522        0.779        0.447       79.895       31.028        0.151      339.190       12.353      866.770
01/12/2021  13:43:00       90.903      -70.603      -32.972       42.681       75.737       26.636     1821.679     5736.032      709.489        1.130        0.413      115.101       16.211        0.020      339.172       12.323      866.757
01/12/2021  13:44:00       57.305      -49.318      -16.219       47.146       56.547       31.638     2222.745     3197.523     1000.986        0.620        0.321       75.605       29.068        0.148      339.183       12.342      866.741
01/12/2021  13:45:00       65.650      -54.158      -17.766       45.709       42.612       22.256     2089.341     1815.752      495.333        0.598        0.220       85.106       21.949        0.067      339.201       12.372      866.744
01/12/2021  13:46:00       25.640      -17.207       -5.309       52.696       41.083       19.711     2776.855     1687.774      388.542        0.292        0.243       30.879       20.335        0.434      339.352       12.627      866.726
01/12/2021  13:47:00       72.021      -86.204      -19.022       35.218       52.220       22.496     1240.300     2726.979      506.073        0.873        0.224      112.330       17.447        0.024      339.516       12.903      866.703
01/12/2021  13:48:00        1.038      -21.461       -3.670       57.475       54.396       35.554     3303.390     2958.952     1264.105        0.400        0.376       21.487       30.409        2.003      339.535       12.936      866.639
01/12/2021  13:49:00       26.949       -0.829      -12.872       47.295       57.808       31.832     2236.780     3341.793     1013.298        0.374        0.330       26.961       30.028        1.240      339.383       12.681      866.623
01/12/2021  13:50:00      103.628     -136.983      -25.958       61.429       86.724       37.042     3773.579     7521.013     1372.133        2.142        0.633      171.765       41.373        0.058      339.605       13.051      866.650
01/12/2021  13:51:00      109.323     -153.646      -34.143       48.519       56.079       31.273     2354.062     3144.869      978.005        2.160        0.324      188.569       31.244        0.027      339.600       13.043      866.646
01/12/2021  13:52:00       89.649     -158.021      -35.874       46.091       28.362       20.742     2124.353      804.417      430.249        1.883        0.168      181.680       21.466        0.014      339.566       12.986      866.674
01/12/2021  13:53:00       69.333     -109.872      -25.421       43.577       31.405       26.250     1898.921      986.283      689.082        1.055        0.179      129.919       26.056        0.040      339.654       13.135      866.712
01/12/2021  13:54:00       68.975      -74.830      -21.554       37.261       37.429       25.699     1388.353     1400.965      660.457        0.713        0.172      101.770       23.022        0.051      339.664       13.152      866.745
01/12/2021  13:55:00       31.536       -7.887       -5.887       37.523       28.298       23.145     1407.953      800.795      535.676        0.192        0.137       32.507       18.562        0.326      339.582       13.013      866.753
01/12/2021  13:56:00       16.487      -33.394      -12.384       39.862       41.767       22.218     1588.974     1744.446      493.634        0.268        0.191       37.243       20.294        0.297      339.564       12.983      866.747
01/12/2021  13:57:00       25.177       -7.420       -0.727       47.318       30.543       27.686     2238.977      932.873      766.517        0.231        0.197       26.247       25.875        0.972      339.722       13.251      866.742
01/12/2021  13:58:00       36.672      -45.450      -15.853       37.802       38.237       20.775     1428.964     1462.068      431.617        0.349        0.166       58.400       17.841        0.093      339.857       13.477      866.743
01/12/2021  13:59:00       39.722      -66.469       -1.449       54.853       50.556       31.644     3008.886     2555.953     1001.362        0.628        0.328       77.434       33.796        0.190      339.828       13.427      866.756
01/12/2021  14:00:00       15.627      -38.736      -12.608       57.311       34.785       21.704     3284.503     1210.005      471.064        0.343        0.248       41.770       20.661        0.245      339.772       13.334      866.756
01/12/2021  14:01:00      -47.467      -18.173      -10.993       46.733       24.275       24.646     2184.017      589.283      607.425        0.304        0.169       50.827       28.186        0.308      339.824       13.423      866.749
01/12/2021  14:02:00        2.907      -31.433       -1.850       34.495       29.179       26.041     1189.916      851.411      678.151        0.186        0.136       31.567       18.294        0.336      339.906       13.561      866.749
01/12/2021  14:03:00      -44.832      -31.255       -1.772       37.703       26.780       16.659     1421.487      717.172      277.511        0.270        0.121       54.652       11.714        0.046      339.875       13.507      866.766
01/12/2021  14:04:00       99.182      -55.750      -22.468       42.402       38.894       25.119     1797.967     1512.746      630.976        0.870        0.197      113.777       16.186        0.020      339.786       13.357      866.793
01/12/2021  14:05:00       63.083      -44.889      -23.324       50.749       76.242       35.597     2575.433     5812.818     1267.179        0.809        0.483       77.424       35.928        0.215      339.754       13.305      866.791
01/12/2021  14:06:00       35.275      -54.237       -0.341       47.485       47.134       36.105     2254.851     2221.643     1303.541        0.498        0.289       64.699       36.339        0.315      339.914       13.573      866.813
01/12/2021  14:07:00       73.793     -101.232      -17.712       34.774       55.201       23.137     1209.229     3047.100      535.324        1.040        0.240      125.273       26.504        0.045      339.792       13.368      866.823
01/12/2021  14:08:00      101.084     -145.272      -34.136       37.072       38.201       19.729     1374.323     1459.294      389.219        1.785        0.161      176.980       19.979        0.013      339.759       13.311      866.812
01/12/2021  14:09:00      100.831     -133.428      -36.043       44.635       39.138       24.148     1992.321     1531.761      583.141        1.669        0.205      167.242       27.674        0.027      339.820       13.414      866.825
01/12/2021  14:10:00       84.216      -59.236      -26.182       34.305       51.766       23.185     1176.804     2679.756      537.550        0.784        0.220      102.962       16.636        0.026      339.773       13.337      866.842
01/12/2021  14:11:00       31.635      -66.781      -22.521       50.262       30.909       23.435     2526.246      955.396      549.214        0.500        0.202       73.896       21.659        0.086      339.959       13.649      866.865
01/12/2021  14:12:00        3.537      -56.412       -5.553       62.349       27.024       21.227     3887.379      730.304      450.585        0.415        0.253       56.523        9.296        0.027      339.941       13.618      866.907
01/12/2021  14:13:00       90.980      -87.868      -19.355       36.250       33.450       27.229     1314.056     1118.875      741.391        0.977        0.159      126.484       24.529        0.038      339.882       13.521      866.941
01/12/2021  14:14:00       91.249      -36.953      -27.038       44.933       49.912       33.749     2018.957     2491.213     1139.014        0.803        0.282       98.448       33.914        0.119      339.789       13.364      866.963
01/12/2021  14:15:00       80.489      -67.241      -23.957       42.669       21.047       19.480     1820.603      442.960      379.463        0.711        0.132      104.880       20.612        0.039      339.816       13.408      866.988
01/12/2021  14:16:00       45.715      -69.109      -14.029       34.699       25.148       18.518     1203.990      632.427      342.900        0.462        0.109       82.861       21.428        0.067      339.947       13.629      867.031
01/12/2021  14:17:00       12.600      -40.945      -10.905       42.437       35.771       21.693     1800.894     1279.555      470.579        0.275        0.178       42.840       24.432        0.325      340.007       13.730      867.082
01/12/2021  14:18:00       -6.339        1.420      -11.649       44.522       29.757       25.359     1982.248      885.492      643.064        0.184        0.176        6.496       19.530        9.038      340.038       13.783      867.120
01/12/2021  14:19:00       10.399      -65.648       -4.922       44.129       38.486       20.911     1947.366     1481.205      437.276        0.415        0.193       66.467       16.589        0.062      339.904       13.557      867.139
01/12/2021  14:20:00      -32.940       -3.293       -7.804       36.049       15.960       18.117     1299.522      254.730      328.213        0.152        0.094       33.105       16.859        0.259      339.984       13.691      867.117
01/12/2021  14:21:00      -19.557      -64.044      -13.298       49.727       43.946       34.657     2472.814     1931.259     1201.141        0.513        0.280       66.964       20.352        0.092      340.043       13.790      867.126
01/12/2021  14:22:00       51.094      -63.650      -24.262       85.387       47.875       31.045     7290.929     2291.969      963.773        0.890        0.527       81.621       19.221        0.055      340.019       13.751      867.114
01/12/2021  14:23:00       29.460      -16.019      -13.817       49.485       29.745       26.692     2448.788      884.793      712.457        0.268        0.202       33.534       21.022        0.393      340.052       13.808      867.087
01/12/2021  14:24:00      -14.043      -11.315        4.630       32.287       32.016       17.642     1042.445     1024.996      311.251        0.136        0.119       18.035       11.296        0.392      340.160       13.990      867.103
01/12/2021  14:25:00       15.583        9.097       -8.224       30.703       25.033       17.896      942.686      626.627      320.270        0.114        0.094       18.044       16.079        0.794      340.201       14.060      867.136
01/12/2021  14:26:00       16.449      -36.136      -10.870       36.887       17.039       21.301     1360.664      290.326      453.715        0.190        0.105       39.704       19.452        0.240      340.079       13.853      867.176
01/12/2021  14:27:00      -45.042      -16.597       -7.628       72.200       34.327       34.696     5212.837     1178.312     1203.791        0.498        0.380       48.003       22.616        0.222      340.060       13.820      867.197
01/12/2021  14:28:00     -137.180       21.054       -7.384       59.294       37.066       27.491     3515.763     1373.873      755.775        1.248        0.282      138.786       26.657        0.037      340.090       13.870      867.219
01/12/2021  14:29:00      -83.843      -16.802       -6.558       50.771       56.785       27.441     2577.651     3224.514      753.025        0.695        0.328       85.510       23.206        0.074      340.151       13.973      867.209
01/12/2021  14:30:00     -125.082     -139.905      -24.559       73.306      122.228       42.396     5373.829    14939.591     1797.431        2.896        1.106      187.667       49.695        0.070      340.191       14.040      867.209
01/12/2021  14:31:00     -131.042      -23.414      -12.048       79.028       66.417       30.766     6245.382     4411.160      946.573        1.473        0.580      133.117       24.566        0.034      340.149       13.969      867.240
01/12/2021  14:32:00      -92.800       10.055        2.253      100.806       90.563       49.279    10161.787     8201.626     2428.460        1.475        1.040       93.343       44.777        0.230      340.211       14.074      867.268
01/12/2021  14:33:00     -325.922       56.748       -6.457      171.620      137.386       79.677    29453.472    18874.976     6348.417        8.207        2.734      330.826       66.347        0.040      340.262       14.158      867.249
01/12/2021  14:34:00     -264.545      -15.408        7.631      230.138      120.168       81.821    52963.583    14440.397     6694.693        7.217        3.705      264.993       95.868        0.131      340.187       14.030      867.224
01/12/2021  14:35:00      -88.095       11.943      -10.376       95.670       86.761       49.394     9152.696     7527.534     2439.722        1.356        0.956       88.901       34.945        0.155      340.210       14.072      867.213
01/12/2021  14:36:00     -147.066       24.229       17.152      197.612       78.093       48.545    39050.432     6098.568     2356.603        3.500        2.375      149.048       55.018        0.136      340.237       14.116      867.171
01/12/2021  14:37:00     -352.366      -21.095      -14.345      232.393      113.175       68.306    54006.676    12808.685     4665.751        9.813        3.574      352.996       86.888        0.061      340.211       14.072      867.140
01/12/2021  14:38:00     -298.738       63.902        3.794      159.260      108.765       72.445    25363.729    11829.913     5248.338        6.788        2.122      305.496       55.079        0.033      340.274       14.177      867.105
01/12/2021  14:39:00     -223.895       61.807        6.640      131.541       96.321       55.863    17303.067     9277.769     3120.639        4.184        1.485      232.269       47.943        0.043      340.263       14.159      867.103
01/12/2021  14:40:00     -247.295       61.550       -7.296      129.917      117.573       64.764    16878.389    13823.417     4194.363        4.994        1.745      254.839       62.627        0.060      340.263       14.159      867.116
01/12/2021  14:41:00     -218.026      -56.317       -2.250      196.768      109.983       80.332    38717.506    12096.367     6453.198        5.398        2.863      225.182       69.066        0.094      340.217       14.082      867.129
01/12/2021  14:42:00     -245.085      -67.059      -13.752      210.469      139.280       90.779    44297.246    19398.979     8240.916        6.833        3.597      254.093       92.900        0.134      340.211       14.072      867.126
01/12/2021  14:43:00     -379.857       20.037      -19.403      245.671      149.252       87.178    60354.261    22276.143     7600.086       11.763        4.512      380.385       96.023        0.064      340.195       14.044      867.100
01/12/2021  14:44:00     -291.231       48.074       -4.459      242.841      157.233      102.133    58971.541    24722.190    10431.183        9.062        4.706      295.172      100.135        0.115      340.211       14.072      867.080
01/12/2021  14:45:00     -323.840      -26.440      -10.056      192.965      165.239       91.071    37235.562    27303.892     8294.011        8.924        3.642      324.917       92.422        0.081      340.218       14.082      867.056
01/12/2021  14:46:00     -273.165       42.849      -33.777      241.415      144.154       71.481    58281.440    20780.262     5109.592        8.087        4.209      276.505       45.302        0.027      340.235       14.112      867.038
01/12/2021  14:47:00     -223.726        4.100      -10.913      245.803      157.554       76.232    60419.027    24823.204     5811.294        7.060        4.553      223.764       71.929        0.103      340.267       14.167      867.019
01/12/2021  14:48:00     -293.310       21.309       -6.209      211.515      105.776       66.209    44738.572    11188.654     4383.695        7.340        3.016      294.083       72.445        0.061      340.272       14.175      867.006
01/12/2021  14:49:00     -365.927        4.988        0.507      209.439      193.336      109.046    43864.834    37378.710    11890.953       11.351        4.657      365.961      116.278        0.101      340.180       14.019      867.011
01/12/2021  14:50:00     -323.885      -30.605      -25.038      243.861      125.598       72.037    59468.386    15774.872     5189.350        9.343        4.022      325.328       67.926        0.044      340.153       13.975      866.964
01/12/2021  14:51:00     -285.664      -22.637      -15.164      214.952      129.919       89.826    46204.372    16879.019     8068.673        7.673        3.558      286.560       83.176        0.084      340.195       14.046      866.971
01/12/2021  14:52:00     -540.315      -90.475       -5.701      309.642      202.111      132.489    95878.261    40848.789    17553.277       22.719        7.714      547.837      146.543        0.072      340.132       13.938      866.959
01/12/2021  14:53:00     -490.318     -127.782      -38.573      220.094      179.326       99.903    48441.252    32157.922     9980.593       17.438        4.529      506.695       97.929        0.037      340.113       13.905      866.973
01/12/2021  14:54:00     -333.711      -40.169      -24.620      243.568      148.575      113.598    59325.599    22074.636    12904.514       10.392        4.715      336.120      116.027        0.119      340.133       13.942      866.940
01/12/2021  14:55:00     -220.150      -31.447      -35.130      196.405      142.980       89.567    38574.990    20443.348     8022.185        5.885        3.352      222.384       83.403        0.141      340.129       13.933      866.950
01/12/2021  14:56:00     -122.348       28.704       19.814      197.377      139.041       81.973    38957.816    19332.387     6719.591        4.058        3.250      125.671       79.421        0.399      340.167       14.000      866.965
01/12/2021  14:57:00     -340.949      -22.342       -8.514      222.359      128.570       94.354    49443.485    16530.175     8902.747        9.583        3.744      341.680      107.034        0.098      340.095       13.876      866.914
01/12/2021  14:58:00     -388.635       66.363       -3.659      244.925      148.548       92.224    59988.016    22066.498     8505.300       12.299        4.528      394.260       98.648        0.063      340.108       13.899      866.857
01/12/2021  14:59:00     -433.791      -47.469      -18.445      298.184      167.852      107.823    88913.565    28174.315    11625.895       15.971        6.436      436.380       94.621        0.047      340.043       13.787      866.854
01/12/2021  15:00:00     -534.894      -99.088      -41.678      218.679      133.899       97.667    47820.700    17928.895     9538.861       18.646        3.764      543.994       81.793        0.023      340.007       13.727      866.797
01/12/2021  15:01:00     -381.673      -93.099      -19.267      171.830      114.971       88.044    29525.416    13218.226     7751.826       10.259        2.525      392.863       81.719        0.043      340.029       13.766      866.779
01/12/2021  15:02:00     -265.488        3.178       -2.198      237.825      141.366       89.782    56560.874    19984.377     8060.827        7.753        4.230      265.507      114.237        0.185      340.047       13.795      866.772
01/12/2021  15:03:00     -191.532      -45.194       -7.852      206.717      147.263       91.843    42731.994    21686.538     8435.193        5.581        3.643      196.792       88.562        0.203      340.050       13.802      866.821
01/12/2021  15:04:00     -256.852       -8.338       -7.425      269.320      143.701       98.229    72533.076    20649.936     9648.951        8.444        5.142      256.987      117.021        0.207      340.010       13.734      866.835
01/12/2021  15:05:00     -284.729      -49.166       -6.796      228.002      152.098      102.530    51984.826    23133.866    10512.406        8.456        4.282      288.943       93.131        0.104      339.967       13.661      866.838
01/12/2021  15:06:00     -478.170       43.445      -32.039      243.647      171.043       83.011    59363.788    29255.565     6890.775       16.351        4.776      480.140       46.678        0.009      339.953       13.635      866.876
01/12/2021  15:07:00     -109.267       52.935       23.503      219.596      121.995       80.898    48222.456    14882.886     6544.551        4.246        3.482      121.414       87.105        0.515      339.979       13.681      866.920
01/12/2021  15:08:00     -450.731      102.032       15.221      169.484      139.544       83.833    28724.925    19472.619     7027.919       13.450        2.761      462.136       68.273        0.022      339.922       13.584      866.939
01/12/2021  15:09:00     -250.898       14.791        2.328      145.860      122.922       68.763    21275.126    15109.934     4728.410        5.214        2.056      251.334       65.168        0.067      339.935       13.606      866.941
01/12/2021  15:10:00     -295.543      -32.332        2.040      211.278      165.755       92.341    44638.448    27474.866     8526.832        8.450        4.032      297.306       98.467        0.110      339.909       13.564      866.911
01/12/2021  15:11:00     -237.774       78.685      -13.366      236.718      143.403       81.382    56035.470    20564.330     6623.088        7.305        4.161      250.455       59.825        0.057      339.928       13.595      866.899
01/12/2021  15:12:00     -124.748       -0.006      -13.328      114.209      130.781       65.901    13043.732    17103.641     4342.893        2.511        1.725      124.748       53.269        0.182      339.927       13.593      866.894
01/12/2021  15:13:00     -458.895      -56.199      -17.946      314.216      161.556      102.040    98731.708    26100.202    10412.242       17.463        6.762      462.323      113.424        0.060      339.906       13.557      866.883
01/12/2021  15:14:00     -530.917      -63.699      -30.471      176.838      107.616       76.883    31271.812    11581.283     5910.927       16.780        2.438      534.724       68.235        0.016      339.917       13.575      866.892
01/12/2021  15:15:00     -436.039      -68.140      -14.763      243.167      147.058       90.733    59130.121    21626.088     8232.531       14.197        4.449      441.331      100.539        0.052      339.896       13.540      866.868
01/12/2021  15:16:00     -448.266      -70.004       -6.798      270.838      194.317      127.499    73353.356    37758.945    16255.927       16.660        6.368      453.700      131.907        0.085      339.864       13.486      866.870
01/12/2021  15:17:00     -322.225       14.957      -25.917      277.145      195.714      114.167    76809.369    38303.971    13034.021       11.641        6.407      322.571      116.872        0.131      339.872       13.499      866.895
01/12/2021  15:18:00     -402.427      -43.757      -22.930      186.923      148.801       93.102    34940.205    22141.811     8667.932       11.506        3.287      404.799       92.527        0.052      339.859       13.477      866.889
01/12/2021  15:19:00     -165.477       -7.647        0.518      113.225      122.932       71.643    12819.823    15112.160     5132.760        3.025        1.653      165.653       59.673        0.130      339.877       13.508      866.921
01/12/2021  15:20:00     -417.316     -119.517      -32.765      189.417      145.990       88.924    35878.959    21312.970     7907.483       12.729        3.255      434.094       99.934        0.053      339.882       13.516      866.918
01/12/2021  15:21:00     -296.563      -59.922      -16.025      264.404      169.056      111.158    69909.453    28579.997    12356.082       10.130        5.542      302.556      112.841        0.139      339.879       13.511      866.930
01/12/2021  15:22:00     -231.488       22.395        7.246      183.418      150.975       85.308    33642.281    22793.455     7277.497        5.891        3.186      232.569       73.663        0.100      339.907       13.558      866.949
01/12/2021  15:23:00     -433.730      -56.953      -16.638      257.148      141.119       91.181    66124.985    19914.552     8314.026       14.298        4.718      437.453       94.086        0.046      339.865       13.486      866.986
01/12/2021  15:24:00     -179.293        3.823       -8.530      167.065      127.333       68.955    27910.594    16213.627     4754.738        4.055        2.444      179.334       60.340        0.113      339.891       13.532      867.039
01/12/2021  15:25:00     -453.427       -3.929      -19.232      204.535      152.444       73.500    41834.543    23239.264     5402.200       13.821        3.524      453.444       66.264        0.021      339.901       13.548      867.052
01/12/2021  15:26:00     -128.441      -40.147       -4.621      181.368      104.400       87.962    32894.308    10899.268     7737.391        3.482        2.577      134.569       84.485        0.394      339.868       13.493      867.094
01/12/2021  15:27:00     -233.858        5.078       -5.901      135.212      102.102       67.151    18282.331    10424.832     4509.298        4.398        1.661      233.913       51.812        0.049      339.851       13.465      867.061
01/12/2021  15:28:00     -327.647      -92.046      -24.960      207.051      124.274       86.709    42870.194    15443.985     7518.397        9.113        3.292      340.331       78.441        0.053      339.865       13.489      867.040
01/12/2021  15:29:00     -293.218      -38.281      -11.531      186.569      135.078       73.602    34808.123    18246.020     5417.267        7.301        2.924      295.706       91.073        0.095      339.837       13.440      867.064
01/12/2021  15:30:00     -164.490      -30.654       -6.452      168.905       88.699       59.926    28528.772     7867.578     3591.107        3.400        1.999      167.322       73.679        0.194      339.843       13.453      867.118
01/12/2021  15:31:00     -161.158        3.457       19.066      198.349      127.227       84.069    39342.377    16186.820     7067.652        4.446        3.130      161.195       78.199        0.235      339.830       13.429      867.081
01/12/2021  15:32:00      -24.331        3.961        8.669      125.313      100.996       70.028    15703.407    10200.124     4903.883        1.574        1.540       24.651       55.244        5.022      339.796       13.375      867.061
01/12/2021  15:33:00     -142.804      -23.078       10.499      225.255      121.514       80.499    50739.803    14765.755     6480.036        4.650        3.599      144.657       95.389        0.435      339.831       13.433      867.088
01/12/2021  15:34:00     -435.351     -284.022      -60.232      207.777      156.382       72.649    43171.333    24455.402     5277.855       17.335        3.645      519.807       88.227        0.029      339.831       13.429      867.072
01/12/2021  15:35:00     -169.705      -69.659      -25.193      137.992      105.611       43.845    19041.900    11153.739     1922.368        3.320        1.606      183.445       40.419        0.049      339.845       13.455      867.026
01/12/2021  15:36:00     -191.905       -5.064      -12.351      186.489      124.909       70.094    34777.991    15602.280     4913.178        4.614        2.765      191.972       73.949        0.148      339.841       13.449      867.039
01/12/2021  15:37:00     -252.359       -8.812       -7.526      205.762      132.720       76.499    42338.200    17614.593     5852.134        6.480        3.290      252.513       72.788        0.083      339.851       13.464      867.073
01/12/2021  15:38:00     -264.243     -105.042      -23.726      191.057      124.186       79.297    36502.674    15422.107     6287.941        6.980        2.911      284.356       69.365        0.060      339.908       13.560      867.075
01/12/2021  15:39:00     -243.080      -55.898      -14.575      104.558       96.903       60.098    10932.299     9390.167     3611.738        4.317        1.197      249.424       48.274        0.037      339.909       13.562      867.084
01/12/2021  15:40:00     -155.735       32.548       -8.175      141.640       78.522       50.315    20061.948     6165.730     2531.601        2.706        1.438      159.099       49.791        0.098      339.893       13.536      867.116
01/12/2021  15:41:00     -294.827       78.524       -4.454      210.774      136.878       84.899    44425.820    18735.499     7207.767        8.172        3.518      305.105       96.940        0.101      339.895       13.539      867.123
01/12/2021  15:42:00     -195.502       53.823       17.899      181.410      124.461       81.173    32909.592    15490.476     6589.077        4.820        2.749      202.776       91.550        0.204      339.861       13.482      867.158
01/12/2021  15:43:00     -234.419       27.087       -5.624      200.958      115.336       72.671    40384.151    13302.415     5281.107        5.733        2.948      235.978       64.670        0.075      339.820       13.414      867.178
01/12/2021  15:44:00     -361.076       37.280       -6.547      199.943      137.182       82.411    39977.317    18818.903     6791.597        9.868        3.279      362.995       82.359        0.051      339.823       13.418      867.177
01/12/2021  15:45:00     -382.812      -76.748      -16.629      180.088      112.749       81.811    32431.643    12712.227     6692.998       10.226        2.592      390.429       87.605        0.050      339.772       13.331      867.125
01/12/2021  15:46:00     -108.574       40.027        5.790       81.498       71.652       42.910     6641.887     5134.020     1841.267        1.352        0.681      115.717       18.258        0.025      339.809       13.398      867.116
01/12/2021  15:47:00     -225.545        7.216      -25.710      207.359      106.404       76.643    42997.690    11321.889     5874.120        5.588        3.010      225.660       84.393        0.140      339.740       13.279      867.094
01/12/2021  15:48:00     -211.509       46.480        1.988      156.520       95.731       64.512    24498.371     9164.410     4161.753        4.235        1.891      216.556       63.685        0.086      339.831       13.431      867.104
01/12/2021  15:49:00     -204.515      100.809       -5.009      127.373       90.607       57.789    16223.878     8209.552     3339.580        3.989        1.389      228.010       42.981        0.036      339.817       13.408      867.122
01/12/2021  15:50:00     -303.847       73.543       -3.154      124.309      130.600       61.460    15452.717    17056.338     3777.275        6.701        1.814      312.621       57.864        0.034      339.776       13.338      867.145
01/12/2021  15:51:00     -315.218       67.475        5.295      201.581      108.451       74.422    40634.930    11761.696     5538.681        8.093        2.897      322.358       76.101        0.056      339.708       13.224      867.164
01/12/2021  15:52:00     -331.503       10.276      -21.666      161.538      121.897       78.188    26094.364    14858.948     6113.300        7.876        2.353      331.662       78.447        0.056      339.696       13.204      867.198
01/12/2021  15:53:00     -475.896       65.015       -6.782      253.598      146.960       84.904    64311.905    21597.184     7208.617       16.191        4.656      480.316       98.828        0.042      339.671       13.159      867.187
01/12/2021  15:54:00     -297.138      -39.634       -9.398      167.387      157.930       99.483    28018.402    24941.790     9896.916        7.639        3.143      299.770       97.251        0.105      339.649       13.124      867.200
01/12/2021  15:55:00     -248.521        3.783        3.046      268.374      140.004       89.795    72024.568    19601.087     8063.124        8.072        4.984      248.550       97.420        0.154      339.614       13.065      867.224
01/12/2021  15:56:00     -273.623       32.084        1.087      184.796      118.517       76.525    34149.523    14046.265     5856.023        6.496        2.703      275.498       69.432        0.064      339.639       13.108      867.260
01/12/2021  15:57:00     -220.177       45.741       -0.244      145.847      109.038       73.480    21271.306    11889.381     5399.261        4.456        1.928      224.878       64.521        0.082      339.666       13.153      867.262
01/12/2021  15:58:00     -268.411       58.813       20.234      156.146       97.871       65.408    24381.462     9578.698     4278.213        5.707        1.912      274.779       63.694        0.054      339.606       13.053      867.250
01/12/2021  15:59:00     -296.532       92.713        6.498      135.431       91.460       68.762    18341.587     8364.927     4728.268        6.400        1.572      310.687       62.689        0.041      339.548       12.955      867.222
01/12/2021  16:00:00     -184.164      -21.348       -0.198      207.931      107.664       86.652    43235.126    11591.594     7508.483        4.834        3.117      185.397       97.060        0.274      339.539       12.939      867.227
01/12/2021  16:01:00     -188.942      106.460        2.529      167.813      134.978       77.019    28161.278    18219.008     5931.914        4.966        2.616      216.870       70.425        0.105      339.639       13.108      867.236
01/12/2021  16:02:00     -389.444       86.598        1.605      225.459      154.865       92.719    50831.823    23983.055     8596.814       12.127        4.171      398.956       86.909        0.047      339.545       12.949      867.264
01/12/2021  16:03:00     -212.988       39.026        6.221      222.167      118.103       68.973    49358.345    13948.356     4757.289        5.748        3.403      216.534       63.193        0.085      339.551       12.959      867.308
01/12/2021  16:04:00     -223.959       41.526       15.629      162.147      112.276       63.115    26291.490    12605.891     3983.520        4.749        2.144      227.776       59.360        0.068      339.566       12.985      867.306
01/12/2021  16:05:00     -104.661       48.553       13.099      125.597      123.267       59.762    15774.552    15194.730     3571.475        2.400        1.727      115.375       28.870        0.063      339.552       12.963      867.303
01/12/2021  16:06:00     -328.597       49.690        9.695      259.692      134.919       79.936    67439.828    18203.056     6389.717       10.127        4.602      332.333       44.739        0.018      339.506       12.884      867.284
01/12/2021  16:07:00     -398.253       51.138       -4.090      186.565      123.447       76.202    34806.646    15239.201     5806.729       10.853        2.793      401.523       49.278        0.015      339.443       12.778      867.274
01/12/2021  16:08:00     -245.356       40.230       -2.463      211.001      103.498       73.096    44521.220    10711.866     5342.970        6.119        3.029      248.632       79.284        0.102      339.464       12.813      867.291
01/12/2021  16:09:00      -84.761      -25.426       18.048      164.949      105.558       73.791    27208.057    11142.519     5445.062        2.597        2.190       88.492       75.484        0.728      339.445       12.781      867.263
01/12/2021  16:10:00      -60.131       -6.246       -1.683      124.690       91.435       51.698    15547.701     8360.441     2672.719        1.511        1.329       60.455       29.601        0.240      339.424       12.748      867.253
01/12/2021  16:11:00     -162.759      -11.751        2.679      193.808      152.200       97.488    37561.349    23164.872     9503.980        4.842        3.512      163.182       82.263        0.254      339.403       12.709      867.260
01/12/2021  16:12:00     -199.724       60.476        3.039      245.815       83.310       78.338    60425.011     6940.560     6136.771        5.851        3.675      208.680       81.379        0.152      339.498       12.870      867.281
01/12/2021  16:13:00     -290.583      -85.805       -2.711      236.631      144.187       90.844    55994.008    20789.778     8252.558        8.840        4.252      302.987       96.324        0.101      339.448       12.787      867.197
01/12/2021  16:14:00     -200.594      -16.900       -3.062      277.473      110.384      104.215    76991.126    12184.584    10860.866        7.026        5.002      201.305      122.428        0.370      339.384       12.679      867.177
01/12/2021  16:15:00     -272.466       27.667      -12.668      169.594      133.082       66.406    28761.957    17710.732     4409.791        6.301        2.544      273.867       60.212        0.048      339.393       12.692      867.243
01/12/2021  16:16:00     -195.872       70.895        2.091      135.307      120.266       69.054    18308.114    14463.827     4768.436        4.046        1.877      208.307       48.941        0.055      339.429       12.754      867.231
01/12/2021  16:17:00     -355.126       47.639       13.555      215.301      161.653      100.200    46354.661    26131.842    10039.963       10.553        4.126      358.307       84.707        0.056      339.347       12.614      867.216
01/12/2021  16:18:00     -311.566        3.089       13.267      245.193      159.555       98.724    60119.780    25457.655     9746.492        9.627        4.766      311.581      117.505        0.142      339.339       12.600      867.218
01/12/2021  16:19:00     -284.391       91.518       -6.468      191.038      112.901       75.307    36495.398    12746.595     5671.211        7.209        2.746      298.754       81.899        0.075      339.347       12.615      867.313
01/12/2021  16:20:00     -217.556      -12.957       -7.761      164.916      101.733       74.206    27197.407    10349.583     5506.505        4.530        2.153      217.942       52.662        0.058      339.339       12.600      867.332
01/12/2021  16:21:00     -200.785      121.343       -9.305      122.796      120.915       72.563    15078.945    14620.437     5265.322        4.504        1.748      234.603       63.746        0.074      339.441       12.773      867.343
01/12/2021  16:22:00     -132.598      -22.648      -14.314       80.586       75.033       45.025     6494.027     5629.955     2027.249        1.622        0.708      134.518       32.459        0.058      339.333       12.591      867.335
01/12/2021  16:23:00     -305.881       25.206        5.297      295.525      156.761       90.051    87335.061    24574.008     8109.249       10.710        6.001      306.917      105.150        0.117      339.312       12.556      867.344
01/12/2021  16:24:00     -328.319       86.727        3.037      194.207      154.627      100.472    37716.253    23909.399    10094.659        9.351        3.586      339.581       93.031        0.075      339.374       12.661      867.358
01/12/2021  16:25:00     -280.436      120.880       -3.112      190.593      214.793       85.431    36325.519    46136.191     7298.492        9.149        4.488      305.379       93.872        0.094      339.358       12.634      867.349
01/12/2021  16:26:00     -262.473      -35.392        5.990      198.729      150.514       96.253    39493.298    22654.417     9264.649        7.078        3.571      264.848       86.564        0.107      339.342       12.605      867.313
01/12/2021  16:27:00     -249.945        0.109       -9.543      363.092      194.881      112.437   131836.159    37978.422    12642.041       12.247        9.123      249.946      121.224        0.235      339.344       12.610      867.364
01/12/2021  16:28:00     -253.127      101.360      -11.805      176.048      145.727       73.699    30992.971    21236.441     5431.612        6.606        2.883      272.666       61.328        0.051      339.458       12.802      867.402
01/12/2021  16:29:00     -231.200       -0.465      -21.100      190.944      108.632       56.493    36459.438    11800.926     3191.414        5.266        2.573      231.200       36.072        0.024      339.361       12.639      867.375
01/12/2021  16:30:00     -126.928       37.160      -10.788       92.841      126.934       55.859     8619.426    16112.358     3120.217        2.272        1.393      132.256       50.659        0.147      339.378       12.668      867.326
01/12/2021  16:31:00     -440.375       48.585       -3.272      304.163      207.838      116.559    92515.175    43196.838    13586.012       17.277        7.465      443.047      118.490        0.072      339.297       12.530      867.360
01/12/2021  16:32:00     -297.915       28.247        2.063      200.964      163.839       86.754    40386.461    26843.088     7526.276        8.214        3.738      299.251       56.935        0.036      339.412       12.725      867.386
01/12/2021  16:33:00     -434.015       -7.855      -31.833      218.775      156.061      100.473    47862.657    24355.118    10094.748       13.586        4.116      434.086       84.815        0.038      339.412       12.724      867.439
01/12/2021  16:34:00     -359.544       16.215      -19.400      210.887      222.830      105.366    44473.190    49653.187    11101.947       11.755        5.261      359.910       88.444        0.060      339.392       12.690      867.426
01/12/2021  16:35:00     -445.581       -3.943      -36.878      239.898      172.288       86.045    57551.063    29683.295     7403.825       14.726        4.732      445.599       86.831        0.038      339.348       12.613      867.395
01/12/2021  16:36:00     -143.751       76.392      -12.994      229.770      128.528       82.284    52794.079    16519.402     6770.695        5.136        3.804      162.788       88.800        0.298      339.357       12.632      867.417
01/12/2021  16:37:00     -380.533       34.315      -12.130      143.232      136.132       67.393    20515.401    18531.996     4541.850        9.485        2.179      382.077       60.523        0.025      339.353       12.624      867.439
01/12/2021  16:38:00     -270.258       14.798        7.949      216.193      164.534      105.337    46739.405    27071.463    11095.976        7.910        4.245      270.663      104.135        0.148      339.307       12.546      867.414
01/12/2021  16:39:00     -328.488      -15.840       -7.110      231.273      162.479       87.788    53487.191    26399.293     7706.801        9.788        4.380      328.869       82.168        0.062      339.300       12.536      867.426
01/12/2021  16:40:00     -254.520       33.319      -15.859      136.871      154.944       68.335    18733.629    24007.592     4669.723        5.677        2.371      256.691       51.253        0.040      339.325       12.577      867.417
01/12/2021  16:41:00     -200.484       28.865        3.739      241.858      146.547       80.045    58495.268    21476.082     6407.255        6.369        4.319      202.551       92.842        0.210      339.327       12.582      867.429
01/12/2021  16:42:00     -168.496      -43.324      -12.156      120.786      131.791       64.300    14589.328    17368.995     4134.446        3.325        1.805      173.977       59.441        0.117      339.299       12.533      867.421
01/12/2021  16:43:00     -187.194      -91.109      -20.770      108.337       85.231       45.125    11736.929     7264.352     2036.223        3.240        1.052      208.189       43.040        0.043      339.267       12.479      867.417
01/12/2021  16:44:00     -202.718      -34.030      -18.239       78.523       68.534       48.072     6165.928     4696.922     2310.870        2.788        0.659      205.554       38.817        0.036      339.259       12.469      867.432
01/12/2021  16:45:00     -216.785       56.423       -3.566      153.093       91.452       59.428    23437.580     8363.385     3531.733        4.275        1.767      224.007       59.423        0.070      339.284       12.508      867.444
01/12/2021  16:46:00     -309.926       23.070       -9.428      141.826      104.858       64.139    20114.687    10995.111     4113.765        6.594        1.761      310.784       57.445        0.034      339.260       12.469      867.425
01/12/2021  16:47:00     -342.991      -32.670        0.940      185.554       98.934       78.728    34430.168     9788.016     6198.051        8.455        2.521      344.543       84.252        0.060      339.278       12.498      867.443
01/12/2021  16:48:00     -258.284      -55.540      -18.741      143.708      111.356       59.061    20651.983    12400.063     3488.236        5.334        1.827      264.188       53.919        0.042      339.308       12.548      867.482
01/12/2021  16:49:00     -234.593      -67.315      -16.034       91.016       73.768       52.795     8283.965     5441.744     2787.362        3.816        0.826      244.060       34.639        0.020      339.293       12.524      867.522
01/12/2021  16:50:00     -334.821      -36.484      -24.826      169.468      137.831       72.162    28719.367    18997.250     5207.420        8.348        2.646      336.803       73.488        0.048      339.278       12.497      867.504
01/12/2021  16:51:00     -254.813      -70.101      -25.095      162.429      112.343       56.778    26383.212    12621.036     3223.733        5.634        2.111      264.279       59.877        0.051      339.283       12.507      867.545
01/12/2021  16:52:00     -140.157       11.331       -7.298      113.639       91.398       54.431    12913.929     8353.514     2962.787        2.202        1.212      140.614       61.630        0.192      339.271       12.488      867.544
01/12/2021  16:53:00     -249.872        5.744      -12.046      114.645      115.034       57.661    13143.405    13232.926     3324.847        4.615        1.485      249.938       44.671        0.032      339.257       12.462      867.539
01/12/2021  16:54:00     -155.667        8.232      -14.258      120.680       66.266       44.590    14563.565     4391.141     1988.270        2.272        1.047      155.885       44.566        0.082      339.228       12.416      867.558
01/12/2021  16:55:00     -303.613       33.157      -24.044      148.650      124.657       61.267    22096.704    15539.344     3753.601        6.762        2.069      305.418       41.660        0.019      339.303       12.541      867.575
01/12/2021  16:56:00     -183.232      -38.583      -26.581       86.807       80.067       39.036     7535.509     6410.798     1523.830        2.562        0.774      187.250       22.750        0.015      339.280       12.504      867.619
01/12/2021  16:57:00     -215.170      -30.667       -5.784      108.278       89.604       51.257    11724.100     8028.896     2627.243        3.482        1.119      217.345       52.827        0.059      339.233       12.422      867.686
01/12/2021  16:58:00     -257.676      -61.184      -30.257      121.824       84.758       52.392    14841.094     7183.861     2744.899        4.791        1.238      264.840       49.108        0.034      339.230       12.419      867.698
01/12/2021  16:59:00     -164.650      -45.803       -2.377      139.201       82.342       52.888    19377.021     6780.145     2797.179        2.908        1.448      170.902       49.745        0.085      339.225       12.410      867.663
01/12/2021  17:00:00     -232.090       13.940        3.445      138.553       85.911       59.800    19196.889     7380.716     3576.039        4.211        1.508      232.508       59.922        0.066      339.171       12.319      867.717
01/12/2021  17:01:00     -290.463       11.127      -13.598      196.320      118.917       69.785    38541.737    14141.305     4869.977        7.110        2.878      290.676       58.161        0.040      339.177       12.329      867.746
01/12/2021  17:02:00     -272.769      -37.395      -13.955      108.444       97.762       59.752    11760.072     9557.409     3570.253        5.044        1.244      275.320       44.302        0.026      339.213       12.389      867.800
01/12/2021  17:03:00     -229.913      -88.885        0.817      115.820      153.809       50.984    13414.158    23657.092     2599.375        5.021        1.984      246.497       42.929        0.030      339.221       12.403      867.802
01/12/2021  17:04:00     -242.019      -46.017      -12.953      177.438      103.866       74.225    31484.309    10788.238     5509.327        5.431        2.389      246.355       77.203        0.098      339.229       12.417      867.839
01/12/2021  17:05:00     -141.820     -108.410       -8.646       84.076       89.166       38.965     7068.828     7950.627     1518.304        2.424        0.827      178.510       22.536        0.016      339.276       12.497      867.834
01/12/2021  17:06:00     -165.729      -56.453       -7.497       90.135       44.530       39.253     8124.381     1982.953     1540.813        2.118        0.582      175.080       27.154        0.024      339.221       12.405      867.834
01/12/2021  17:07:00     -132.921      -37.046       -9.289      157.404       81.876       47.767    24776.088     6703.722     2281.689        2.644        1.688      137.987       56.726        0.169      339.219       12.401      867.806
01/12/2021  17:08:00     -133.290       16.121       -4.474      133.373       99.744       59.285    17788.447     9948.768     3514.723        2.464        1.563      134.261       56.541        0.177      339.213       12.391      867.794
01/12/2021  17:09:00     -306.503      -68.917      -13.144      156.362      113.735       68.584    24449.180    12935.538     4703.767        7.047        2.104      314.155       68.416        0.047      339.183       12.340      867.792
01/12/2021  17:10:00     -335.639       43.886        4.851      203.348      145.113       84.061    41350.550    21057.803     7066.321        9.202        3.474      338.496       74.201        0.048      339.232       12.422      867.765
01/12/2021  17:11:00     -392.708       -0.238      -10.094      175.349      121.550       80.118    30747.395    14774.522     6418.895       10.312        2.597      392.708       84.529        0.046      339.255       12.459      867.810
01/12/2021  17:12:00     -405.863       32.675       -4.018      193.821      140.774       87.800    37566.468    19817.321     7708.774       11.544        3.255      407.176       87.983        0.047      339.233       12.421      867.808
01/12/2021  17:13:00     -333.046      -19.899      -13.521      196.671      103.541       77.404    38679.613    10720.769     5991.358        8.343        2.770      333.640       78.171        0.055      339.267       12.480      867.852
01/12/2021  17:14:00     -162.660       24.886       -6.689       83.437       67.193       39.586     6961.783     4514.862     1567.080        2.008        0.652      164.552       40.115        0.059      339.412       12.725      867.858
01/12/2021  17:15:00      -98.280       60.962      -12.528       59.601       48.348       37.492     3552.330     2337.502     1405.653        1.041        0.365      115.652       29.084        0.063      339.409       12.723      867.837
01/12/2021  17:16:00     -170.185      -30.974      -22.129      112.173       84.668       48.419    12582.852     7168.678     2344.387        2.625        1.105      172.981       46.205        0.071      339.316       12.564      867.843
01/12/2021  17:17:00     -116.980      105.287      -25.877       59.422       47.723       32.158     3531.000     2277.478     1034.128        1.614        0.342      157.383       25.109        0.025      339.324       12.577      867.814
01/12/2021  17:18:00      -83.622       19.368       -7.271       56.937       72.087       37.268     3241.787     5196.529     1388.892        0.862        0.491       85.836       31.952        0.139      339.337       12.600      867.797
01/12/2021  17:19:00     -194.021        8.708       -3.004      118.747       61.042       43.985    14100.892     3726.068     1934.650        2.874        0.988      194.216       40.468        0.043      339.269       12.485      867.818
01/12/2021  17:20:00     -326.435       -3.387       -3.526      109.755       94.340       57.252    12046.196     8900.085     3277.778        6.540        1.211      326.452       53.328        0.027      339.238       12.432      867.831
01/12/2021  17:21:00     -292.498      -34.061      -23.557      169.819       93.699       65.897    28838.568     8779.575     4342.381        6.461        2.098      294.475       69.711        0.056      339.298       12.533      867.803
01/12/2021  17:22:00     -256.318       -7.862        2.532      203.148      114.556       82.922    41269.009    13123.092     6876.141        6.350        3.063      256.438       75.385        0.086      339.244       12.443      867.796
01/12/2021  17:23:00     -366.999      -16.097       -3.884      216.563      112.612       78.537    46899.654    12681.379     6168.056       10.034        3.287      367.352       88.621        0.058      339.234       12.426      867.853
01/12/2021  17:24:00     -299.553       39.024       10.573      215.921      109.765       73.129    46621.726    12048.324     5347.794        7.768        3.201      302.085       61.752        0.042      339.315       12.562      867.877
01/12/2021  17:25:00     -323.060        8.880       -5.462      194.050      109.351       66.838    37655.405    11957.705     4467.297        7.927        2.704      323.182       64.320        0.040      339.301       12.538      867.882
01/12/2021  17:26:00     -166.281      -61.847       -7.836      154.183       96.492       73.544    23772.326     9310.785     5408.666        3.501        1.925      177.410       66.234        0.139      339.292       12.524      867.927
01/12/2021  17:27:00     -252.194      -85.947      -18.486      114.540      103.265       59.543    13119.419    10663.658     3545.348        4.932        1.366      266.437       59.174        0.049      339.304       12.541      867.980
01/12/2021  17:28:00     -171.883      -27.590       -2.858      131.956       72.699       53.704    17412.374     5285.081     2884.098        2.794        1.279      174.083       62.628        0.129      339.330       12.587      867.972
01/12/2021  17:29:00     -148.989      -15.245      -14.300       79.600       75.324       41.007     6336.189     5673.731     1681.561        1.816        0.685      149.767       33.359        0.050      339.257       12.465      867.966
01/12/2021  17:30:00     -123.931      -11.511      -15.200       87.536       68.659       28.286     7662.597     4714.029      800.123        1.445        0.659      124.464       22.031        0.031      339.244       12.443      867.916
01/12/2021  17:31:00     -155.009       41.957        7.633      106.859       57.797       37.537    11418.931     3340.520     1409.007        2.100        0.808      160.587       25.725        0.026      339.221       12.405      867.898
01/12/2021  17:32:00     -102.914      -52.317       -2.698       96.476       86.892       47.586     9307.537     7550.272     2264.392        1.622        0.956      115.448       41.095        0.127      339.201       12.371      867.871
01/12/2021  17:33:00     -215.926      -40.319      -11.928      173.618      101.975       53.883    30143.224    10398.952     2903.354        4.591        2.172      219.658       50.504        0.053      339.209       12.384      867.816
01/12/2021  17:34:00     -301.818       34.340        2.247      206.282      107.673       68.609    42552.435    11593.546     4707.215        7.555        2.943      303.765       60.434        0.040      339.176       12.327      867.800
01/12/2021  17:35:00     -390.800       16.494      -22.200      135.976      101.921       64.730    18489.431    10387.923     4189.950        9.327        1.653      391.148       69.051        0.031      339.160       12.299      867.802
01/12/2021  17:36:00     -367.386       -7.442       -9.933      167.968      114.318       63.279    28213.229    13068.556     4004.227        9.020        2.264      367.462       61.216        0.028      339.108       12.212      867.796
01/12/2021  17:37:00     -365.810       23.239        8.438      233.939      139.882       97.443    54727.366    19566.964     9495.166       10.909        4.189      366.548      105.869        0.083      339.092       12.186      867.777
01/12/2021  17:38:00     -312.841       80.456       12.380      241.913      138.582       95.636    58521.900    19204.990     9146.167        9.567        4.344      323.021       95.608        0.088      339.139       12.265      867.762
01/12/2021  17:39:00     -403.980       79.645       11.499      250.653      172.607      101.664    62827.067    29793.125    10335.659       13.629        5.148      411.756       91.917        0.050      339.129       12.248      867.765
01/12/2021  17:40:00     -466.419       41.438      -18.274      138.695      118.464       71.608    19236.374    14033.735     5127.697       12.899        1.920      468.256       63.810        0.019      339.110       12.217      867.806
01/12/2021  17:41:00     -310.668      -27.722      -18.140      218.708      131.138       85.141    47833.046    17197.174     7248.916        8.493        3.614      311.903       78.204        0.063      339.086       12.173      867.791
01/12/2021  17:42:00     -271.398        6.808      -22.124      148.715      106.221       71.340    22116.149    11282.991     5089.455        5.633        1.924      271.483       76.128        0.079      339.069       12.146      867.786
01/12/2021  17:43:00     -113.346       45.795       -9.201      135.615       97.531       64.694    18391.416     9512.335     4185.364        2.355        1.604      122.247       56.135        0.211      339.067       12.145      867.777
01/12/2021  17:44:00     -336.593       16.834       16.729      261.582      129.281       86.758    68425.265    16713.512     7526.950       10.324        4.633      337.014       93.872        0.078      339.042       12.101      867.764
01/12/2021  17:45:00     -313.869      -28.289      -18.493      280.363      157.296      106.167    78603.653    24741.930    11271.403       10.711        5.731      315.141      112.713        0.128      339.105       12.209      867.769
01/12/2021  17:46:00     -404.095      -23.644      -37.202      241.832      160.315      102.647    58482.535    25701.042    10536.327       12.996        4.736      404.786       97.181        0.058      339.150       12.284      867.755
01/12/2021  17:47:00     -404.687      -34.653      -19.198      207.689      159.549       78.261    43134.777    25455.964     6124.848       12.001        3.736      406.168       84.341        0.043      339.098       12.196      867.826
01/12/2021  17:48:00     -232.306      -22.125        7.831      236.945      137.197      104.911    56142.748    18823.080    11006.388        7.023        4.299      233.357       97.034        0.173      339.088       12.180      867.881
01/12/2021  17:49:00     -219.674       34.011      -17.712      162.079       95.781       61.616    26269.644     9174.024     3796.513        4.448        1.962      222.292       64.704        0.085      339.109       12.214      867.873
01/12/2021  17:50:00     -435.611       67.354       -2.656      213.438      162.407       94.254    45555.590    26376.128     8883.814       13.754        4.041      440.788       79.026        0.032      339.035       12.089      867.871
01/12/2021  17:51:00     -436.617      109.017        8.529      165.330      105.259       72.236    27333.933    11079.487     5218.008       12.310        2.182      450.021       61.534        0.019      339.048       12.112      867.843
01/12/2021  17:52:00     -312.091       70.058       10.102      144.609      108.729       65.446    20911.640    11822.040     4283.193        6.971        1.851      319.858       75.244        0.055      339.003       12.038      867.817
01/12/2021  17:53:00     -255.228       44.337        6.303      187.195      149.827       91.719    35041.895    22448.105     8412.411        6.651        3.295      259.050       83.493        0.104      339.030       12.082      867.818
01/12/2021  17:54:00     -203.890       41.258      -11.977      172.065       94.299       65.401    29606.344     8892.331     4277.313        4.309        2.139      208.022       28.385        0.019      338.984       12.006      867.853
01/12/2021  17:55:00     -255.621        7.460      -22.871      129.746      109.064       61.037    16834.023    11894.991     3725.528        4.918        1.623      255.730       63.580        0.062      339.046       12.108      867.918
01/12/2021  17:56:00     -175.858       14.705       10.457      147.667       96.141       62.827    21805.547     9243.092     3947.220        3.312        1.750      176.472       71.910        0.166      338.974       11.989      867.981
01/12/2021  17:57:00     -130.945      -31.312      -12.361      127.152       81.685       51.856    16167.650     6672.483     2689.035        2.190        1.276      134.636       55.610        0.171      338.988       12.012      868.037
01/12/2021  17:58:00     -337.068       23.569      -29.753      233.151      110.377       67.226    54359.524    12183.006     4519.279        9.304        3.553      337.891       71.308        0.045      338.991       12.016      868.077
01/12/2021  17:59:00     -273.703      -38.240      -13.487      145.478      120.771       71.266    21163.983    14585.533     5078.792        5.868        2.041      276.361       67.054        0.059      338.997       12.026      868.101
01/12/2021  18:00:00     -173.920      -32.892      -10.966      136.604       82.264       53.334    18660.627     6767.370     2844.565        2.986        1.414      177.002       60.209        0.116      338.989       12.013      868.120
01/12/2021  18:01:00     -217.280       38.578      -15.236      117.473       79.194       52.060    13800.008     6271.696     2710.290        3.585        1.139      220.679       58.249        0.070      339.045       12.108      868.140
01/12/2021  18:02:00     -179.503      -45.877      -19.723      126.234       93.740       61.604    15935.005     8787.151     3795.048        3.161        1.426      185.273       69.408        0.140      338.974       11.988      868.149
01/12/2021  18:03:00     -133.422      -31.257        0.466      169.626      101.260       70.080    28772.960    10253.663     4911.275        3.135        2.197      137.034       66.158        0.233      338.969       11.979      868.211
01/12/2021  18:04:00     -389.457      -84.181      -16.775      204.099      110.886       81.449    41656.260    12295.716     6633.963       10.980        3.029      398.451       85.137        0.046      339.066       12.140      868.205
01/12/2021  18:05:00     -228.459      -13.884       -8.481      134.803       82.386       49.779    18171.877     6787.533     2477.958        3.994        1.372      228.880       45.579        0.040      339.027       12.077      868.235
01/12/2021  18:06:00      -24.437       -5.171        2.921       84.542       56.125       44.808     7147.425     3150.034     2007.784        0.647        0.615       24.978       40.833        2.672      338.975       11.993      868.264
01/12/2021  18:07:00     -190.107      -25.609        7.810      170.543       95.786       69.838    29084.764     9175.000     4877.299        3.999        2.157      191.824       74.573        0.151      338.950       11.948      868.279
01/12/2021  18:08:00     -376.817      -41.025      -30.578      189.665      132.623       75.288    35972.659    17588.900     5668.255       10.191        2.961      379.044       85.889        0.051      338.979       11.997      868.286
01/12/2021  18:09:00     -156.548      -38.865       -4.827      141.249      131.433       71.358    19951.344    17274.687     5091.913        3.417        2.116      161.301       68.486        0.180      338.944       11.937      868.312
01/12/2021  18:10:00     -271.529        9.443       -0.524      179.142      127.412       81.594    32091.885    16233.800     6657.629        6.439        2.749      271.693       81.568        0.090      338.974       11.985      868.342
01/12/2021  18:11:00     -239.051      -62.598       -1.644      162.325      111.981       76.299    26349.434    12539.778     5821.463        5.288        2.236      247.111       69.415        0.079      338.958       11.960      868.371
01/12/2021  18:12:00     -268.149       -8.345      -16.223      132.507      100.098       62.041    17558.136    10019.554     3849.127        5.183        1.571      268.279       67.267        0.063      338.968       11.978      868.379
01/12/2021  18:13:00     -234.208       -3.085      -16.592      107.563      100.063       52.014    11569.893    10012.605     2705.442        3.971        1.214      234.229       37.630        0.026      338.961       11.964      868.394
01/12/2021  18:14:00     -175.747      -24.757       -9.358      107.464       71.502       54.659    11548.474     5112.518     2987.581        2.561        0.982      177.482       59.213        0.111      338.989       12.014      868.408
01/12/2021  18:15:00     -106.088      -77.307       -1.309       72.952       79.203       42.074     5322.015     6273.167     1770.249        1.530        0.668      131.267       24.250        0.034      338.962       11.970      868.416
01/12/2021  18:16:00     -145.782      -14.531      -18.118       73.281       57.420       34.393     5370.087     3296.999     1182.903        1.582        0.492      146.505       26.622        0.033      338.943       11.935      868.445
01/12/2021  18:17:00     -195.922       20.006      -17.770      120.887       77.955       46.413    14613.653     6076.909     2154.208        3.097        1.142      196.940       37.128        0.036      338.936       11.926      868.449
01/12/2021  18:18:00     -271.562      -42.459      -29.778      141.644       79.536       48.168    20063.162     6325.929     2320.196        5.257        1.435      274.861       46.000        0.028      338.949       11.945      868.460
01/12/2021  18:19:00     -341.087      -73.721      -16.038      152.669       87.588       69.773    23307.864     7671.705     4868.221        7.893        1.792      348.963       76.980        0.049      338.994       12.022      868.457
01/12/2021  18:20:00      -96.666      -19.658        7.696      122.484       78.478       53.946    15002.345     6158.737     2910.130        1.693        1.204       98.644       54.543        0.306      338.937       11.926      868.516
01/12/2021  18:21:00     -122.134        9.051        4.074       91.022       74.945       51.345     8284.964     5616.703     2636.289        1.577        0.827      122.469       41.375        0.114      338.935       11.924      868.558
01/12/2021  18:22:00     -139.739      -21.441       -4.883       94.805       52.798       45.234     8987.944     2787.659     2046.085        1.691        0.691      141.375       43.024        0.093      338.926       11.909      868.588
01/12/2021  18:23:00     -242.854      -58.644      -12.174      124.805       81.698       63.072    15576.346     6674.608     3978.112        4.439        1.311      249.834       62.568        0.063      338.888       11.842      868.606
01/12/2021  18:24:00     -241.226      -36.615      -16.627      152.932       81.939       56.879    23388.139     6714.061     3235.208        4.657        1.667      243.989       46.852        0.037      338.897       11.857      868.621
01/12/2021  18:25:00     -225.208      -13.638       -6.592      158.791       86.800       55.080    25214.587     7534.296     3033.834        4.336        1.789      225.620       48.692        0.047      338.880       11.830      868.632
01/12/2021  18:26:00     -223.988      -22.283      -22.927      160.504      113.389       66.057    25761.415    12857.119     4363.477        4.708        2.149      225.094       60.960        0.073      338.880       11.829      868.640
01/12/2021  18:27:00     -198.855      -13.723       -2.173      171.932      106.065       64.699    29560.768    11249.873     4185.947        4.236        2.250      199.328       57.888        0.084      338.892       11.850      868.641
01/12/2021  18:28:00     -169.144      -63.776        4.072      159.749      126.867       76.709    25519.804    16095.342     5884.206        4.009        2.375      180.768       75.911        0.176      338.899       11.862      868.627
01/12/2021  18:29:00     -219.254      -28.671        4.626      162.676       90.830       67.092    26463.369     8250.134     4501.357        4.406        1.961      221.120       63.143        0.082      338.875       11.823      868.646
01/12/2021  18:30:00     -230.737      -37.458      -10.191      122.327       64.189       63.223    14964.016     4120.282     3997.164        3.891        1.154      233.757       56.965        0.059      338.861       11.796      868.676
01/12/2021  18:31:00     -271.157      -85.101      -13.557      172.219      121.970       84.673    29659.515    14876.620     7169.558        6.632        2.585      284.197       83.466        0.086      339.071       12.151      868.695
01/12/2021  18:32:00     -224.233      -17.791        2.894      194.418      113.128       76.985    37798.329    12797.931     5926.718        5.355        2.826      224.938       83.653        0.138      339.103       12.205      868.722
01/12/2021  18:33:00     -207.740      -27.757      -20.161      140.478       85.966       61.902    19734.102     7390.199     3831.811        3.764        1.548      209.587       57.081        0.074      339.076       12.159      868.751
01/12/2021  18:34:00      -62.978       13.090      -16.495       89.014       72.790       52.528     7923.469     5298.396     2759.229        1.019        0.799       64.324       37.005        0.331      339.049       12.117      868.777
01/12/2021  18:35:00     -104.136       -5.320        1.891      126.480       95.733       56.688    15997.306     9164.821     3213.484        1.962        1.419      104.272       59.358        0.324      339.034       12.091      868.783
01/12/2021  18:36:00     -313.086       11.702       -7.796      120.372       92.676       52.788    14489.515     8588.892     2786.621        6.204        1.293      313.305       51.266        0.027      339.079       12.163      868.792
01/12/2021  18:37:00     -180.647      -33.301      -15.058      181.701       79.456       68.883    33015.173     6313.217     4744.814        3.901        2.204      183.691       82.888        0.204      339.019       12.064      868.796
01/12/2021  18:38:00     -126.538      -30.645        0.759      157.666       90.376       77.314    24858.714     8167.852     5977.468        2.797        1.950      130.196       77.101        0.351      339.018       12.063      868.823
01/12/2021  18:39:00     -241.067       49.633       -5.391      151.428       90.820       71.455    22930.490     8248.256     5105.886        4.844        1.814      246.123       62.049        0.064      339.081       12.169      868.832
01/12/2021  18:40:00     -239.810      -22.894        5.254      255.679       93.589       72.128    65371.545     8758.955     5202.396        6.868        3.967      240.900       91.911        0.146      339.101       12.202      868.845
01/12/2021  18:41:00     -214.061      -30.991        5.753      224.647      112.416       78.858    50466.486    12637.432     6218.522        5.805        3.466      216.293       81.964        0.144      339.127       12.244      868.812
01/12/2021  18:42:00     -171.843       -6.434        1.872      168.577       86.270       66.526    28418.227     7442.522     4425.672        3.492        2.014      171.964       68.314        0.158      339.088       12.179      868.824
01/12/2021  18:43:00     -215.189       22.904       -5.443      141.878       90.451       65.729    20129.495     8181.335     4320.354        3.974        1.632      216.404       63.812        0.087      339.038       12.096      868.829
01/12/2021  18:44:00     -176.426       52.278        1.971      135.173       91.175       57.760    18271.608     8312.888     3336.267        3.189        1.496      184.008       62.363        0.115      339.124       12.240      868.840
01/12/2021  18:45:00     -173.232       25.582      -10.318       99.034       66.880       39.743     9807.706     4472.919     1579.499        2.331        0.793      175.111       11.236        0.004      339.088       12.180      868.855
01/12/2021  18:46:00     -222.181       17.865      -15.178      135.632       70.437       61.526    18395.980     4961.307     3785.439        3.852        1.357      222.898       66.863        0.090      339.021       12.067      868.865
01/12/2021  18:47:00     -168.940       21.104       -5.047       86.266       54.788       44.937     7441.882     3001.688     2019.329        2.073        0.623      170.253       38.235        0.050      338.989       12.013      868.868
01/12/2021  18:48:00     -117.386        7.535       -3.205      118.084       85.614       59.329    13943.717     7329.693     3519.926        1.931        1.240      117.628       60.129        0.261      339.022       12.071      868.866
01/12/2021  18:49:00     -163.855       23.075       -0.401      120.592       69.926       42.920    14542.350     4889.614     1842.111        2.432        1.064      165.472       40.373        0.060      338.942       11.934      868.877
01/12/2021  18:50:00      -85.507       -9.577       -2.996       91.714       69.714       37.662     8411.456     4860.034     1418.435        1.105        0.734       86.042       26.601        0.096      338.899       11.864      868.906
01/12/2021  18:51:00     -208.830       20.267      -17.857      112.615       74.825       48.014    12682.181     5598.814     2305.373        3.246        1.029      209.811       47.661        0.052      338.947       11.943      868.890
01/12/2021  18:52:00     -264.998      -10.044       -2.130      183.632      113.756       67.434    33720.872    12940.459     4547.313        6.076        2.560      265.188       44.891        0.029      338.967       11.975      868.864
01/12/2021  18:53:00     -350.390      -45.676        1.186      208.575       98.897       79.922    43503.726     9780.541     6387.539        9.225        2.984      353.355       81.005        0.053      339.057       12.127      868.828
01/12/2021  18:54:00     -401.052      -29.812      -31.082      152.039       92.417       63.885    23115.920     8540.928     4081.249        9.921        1.787      402.158       47.307        0.014      339.021       12.066      868.827
01/12/2021  18:55:00     -260.373      -22.566      -17.322      101.224       78.758       52.566    10246.251     6202.874     2763.234        4.390        0.961      261.349       25.147        0.009      339.001       12.034      868.832
01/12/2021  18:56:00     -136.373       11.580        0.122      132.408       92.380       51.343    17531.916     8534.153     2636.125        2.371        1.435      136.864       36.506        0.071      338.961       11.967      868.847
01/12/2021  18:57:00     -163.805        1.701       -8.307      160.268       91.657       49.510    25685.957     8401.088     2451.263        3.171        1.827      163.814       60.217        0.135      338.936       11.925      868.838
01/12/2021  18:58:00     -206.438       12.302      -12.751      163.559       89.944       57.864    26751.482     8089.984     3348.247        4.055        1.909      206.804       47.589        0.053      338.930       11.913      868.802
01/12/2021  18:59:00     -207.806       -0.807       -6.481      164.994       99.463       66.257    27223.127     9892.974     4389.950        4.236        2.075      207.808       72.037        0.120      338.950       11.947      868.787
01/12/2021  19:00:00     -246.591      -48.388       -4.214      158.971      110.494       71.214    25271.816    12209.016     5071.459        5.285        2.128      251.293       68.254        0.074      338.988       12.012      868.795
01/12/2021  19:01:00     -320.226       -0.566      -22.565      132.490       96.256       66.607    17553.532     9265.233     4436.474        6.715        1.563      320.226       61.922        0.037      338.975       11.990      868.805
01/12/2021  19:02:00     -308.454      -89.632      -18.669      125.244       93.718       65.723    15686.113     8782.984     4319.467        6.615        1.439      321.213       64.148        0.040      338.966       11.975      868.785
01/12/2021  19:03:00     -257.275      -55.786       -0.608      149.502      102.591       70.855    22350.883    10524.951     5020.365        5.359        1.895      263.253       67.710        0.066      338.950       11.948      868.785
01/12/2021  19:04:00     -248.013      -13.898      -16.682      101.355       78.084       56.234    10272.752     6097.049     3162.264        4.075        0.977      248.402       43.551        0.031      338.917       11.890      868.837
01/12/2021  19:05:00     -302.713      -28.622      -20.677      135.931      121.668       58.053    18477.140    14803.062     3370.170        6.476        1.833      304.064       61.715        0.041      338.897       11.857      868.869
01/12/2021  19:06:00     -108.589       -9.885      -27.481      118.449       96.330       50.922    14030.168     9279.453     2593.025        1.927        1.295      109.038       42.082        0.149      338.892       11.852      868.872
01/12/2021  19:07:00     -251.858      -67.294       -8.338      209.138      114.483       89.177    43738.873    13106.362     7952.550        6.640        3.240      260.693       98.089        0.142      338.897       11.857      868.871
01/12/2021  19:08:00     -168.371      -32.607      -14.154      128.284      116.449       70.322    16456.862    13560.359     4945.188        3.228        1.748      171.499       47.060        0.075      338.932       11.918      868.927
01/12/2021  19:09:00     -209.292      -95.651      -10.998      142.183      119.831       62.718    20216.093    14359.409     3933.565        4.578        1.925      230.114       57.689        0.063      338.988       12.012      868.957
01/12/2021  19:10:00     -188.074     -109.174      -23.613       90.588      105.644       51.001     8206.192    11160.552     2601.138        3.490        1.098      217.465       50.725        0.054      339.009       12.047      868.951
01/12/2021  19:11:00     -127.477      -43.479      -13.812       77.981       81.215       41.508     6081.051     6595.798     1722.945        1.636        0.720      134.687       30.703        0.052      338.964       11.973      868.941
01/12/2021  19:12:00     -152.105      -74.645      -21.703       83.978       59.217       40.543     7052.244     3506.632     1643.712        2.069        0.610      169.434       33.809        0.040      338.947       11.943      868.956
01/12/2021  19:13:00      -57.164     -142.510      -21.825       97.553       91.054       35.908     9516.647     8290.785     1289.416        2.157        0.955      153.548       25.329        0.027      339.046       12.111      868.937
01/12/2021  19:14:00      -12.236      -99.263      -36.210       68.700       48.700       32.062     4719.755     2371.707     1027.981        0.972        0.406      100.015       28.496        0.081      339.012       12.053      868.977
01/12/2021  19:15:00       -4.476      -42.322      -24.400       62.357       55.457       33.172     3888.427     3075.430     1100.414        0.523        0.403       42.558       37.761        0.787      339.037       12.096      869.002
01/12/2021  19:16:00      -58.698      -53.925      -19.350       61.258       57.760       25.513     3752.553     3336.228      650.906        0.723        0.387       79.708       19.550        0.060      338.957       11.960      869.041
01/12/2021  19:17:00      -96.258       -5.390       -4.490       52.171       27.106       30.120     2721.788      734.727      907.191        0.684        0.218       96.409       23.331        0.059      338.906       11.874      869.062
01/12/2021  19:18:00     -165.944      -17.961       -6.771       56.319       40.035       29.711     3171.805     1602.806      882.747        1.678        0.283      166.913       10.793        0.004      338.821       11.734      869.109
01/12/2021  19:19:00     -267.482      -52.054       -3.185      211.359       89.808       69.066    44672.701     8065.480     4770.060        6.587        2.875      272.500       61.629        0.051      338.865       11.806      869.128
01/12/2021  19:20:00     -317.037      -11.241       -9.674      167.085      140.308       73.030    27917.333    19686.207     5333.421        7.682        2.647      317.237       76.449        0.058      338.949       11.945      869.163
01/12/2021  19:21:00     -143.335     -132.126      -33.114      178.379      143.901       61.758    31819.060    20707.406     3814.020        4.771        2.817      194.942       69.860        0.128      338.977       11.992      869.169
01/12/2021  19:22:00      -26.349      -27.453      -18.190      143.420       84.067       59.906    20569.329     7067.178     3588.729        1.650        1.561       38.052       41.026        1.162      338.983       12.004      869.154
01/12/2021  19:23:00      -41.821       -6.696      -10.668       64.518       84.396       33.398     4162.512     7122.752     1115.424        0.715        0.620       42.354       14.621        0.119      338.894       11.855      869.211
01/12/2021  19:24:00       50.096      -41.637      -20.837       64.546       55.790       39.054     4166.204     3112.569     1525.215        0.674        0.440       65.140       42.362        0.423      338.838       11.759      869.206
01/12/2021  19:25:00      -14.311      -85.049      -14.512       59.898       42.550       40.375     3587.758     1810.487     1630.174        0.734        0.351       86.245       33.799        0.154      339.047       12.112      869.182
01/12/2021  19:26:00       48.859     -102.069      -28.742       83.559       54.972       36.686     6982.118     3021.866     1345.862        1.249        0.567      113.160       35.502        0.098      339.017       12.063      869.158
01/12/2021  19:27:00        0.051      -22.202        1.459       49.900       38.383       34.887     2490.010     1473.267     1217.069        0.284        0.259       22.202       29.553        1.772      338.841       11.768      869.104
01/12/2021  19:28:00      114.596     -176.888      -33.105       69.357       74.518       45.929     4810.419     5552.876     2109.444        2.899        0.624      210.765       41.909        0.040      338.894       11.853      869.096
01/12/2021  19:29:00       86.754     -180.748      -44.307       83.713       76.876       49.839     7007.825     5909.961     2483.927        2.878        0.770      200.490       46.447        0.054      338.844       11.770      869.094
01/12/2021  19:30:00      -36.929      -47.211      -19.069       88.795       48.710       40.375     7884.485     2372.708     1630.140        0.792        0.594       59.939       29.644        0.245      338.870       11.815      869.128
01/12/2021  19:31:00       16.693      -72.108      -18.942       67.002       45.006       31.122     4489.213     2025.569      968.555        0.666        0.374       74.015       30.442        0.169      338.902       11.868      869.156
01/12/2021  19:32:00       90.357      -78.646      -36.230       71.491       58.909       37.818     5110.981     3470.239     1430.196        1.283        0.501      119.790       36.790        0.094      338.948       11.945      869.156
01/12/2021  19:33:00       14.207      -14.372      -21.271       48.647       54.115       37.406     2366.551     2928.413     1399.201        0.378        0.335       20.209       31.475        2.426      338.786       11.674      869.184
01/12/2021  19:34:00      -51.869       16.046      -10.487       70.255       45.307       30.491     4935.719     2052.702      929.689        0.549        0.396       54.294       22.629        0.174      338.747       11.609      869.198
01/12/2021  19:35:00      -35.700       -6.691        4.659       41.466       24.584       22.702     1719.447      604.387      515.361        0.209        0.142       36.322       13.643        0.141      338.786       11.674      869.172
01/12/2021  19:36:00     -108.699      -74.884      -17.809       84.786       48.852       29.478     7188.664     2386.509      868.965        1.409        0.522      131.996       15.019        0.013      338.826       11.743      869.184
01/12/2021  19:37:00     -111.908      -71.697      -22.638       81.868       51.728       42.267     6702.408     2675.745     1786.518        1.467        0.558      132.905       29.338        0.049      338.793       11.687      869.187
01/12/2021  19:38:00       45.120     -104.130      -10.361       64.877       81.015       39.965     4209.034     6563.439     1597.169        1.268        0.618      113.485       39.190        0.119      338.904       11.872      869.182
01/12/2021  19:39:00       17.797      -98.337      -15.594      103.045       75.246       36.870    10618.370     5661.939     1359.410        1.393        0.882       99.935       42.020        0.177      338.867       11.809      869.198
01/12/2021  19:40:00      -49.428     -125.679      -28.087       79.398       57.785       34.745     6304.035     3339.104     1207.200        1.494        0.543      135.049       34.882        0.067      338.912       11.885      869.222
01/12/2021  19:41:00       15.871      -48.579      -22.908       58.081       40.425       29.390     3373.418     1634.192      863.784        0.450        0.294       51.106       26.172        0.262      338.905       11.872      869.181
01/12/2021  19:42:00      -51.118      -35.964      -11.273       50.423       36.563       28.999     2542.437     1336.851      840.922        0.438        0.236       62.501       23.543        0.142      338.806       11.708      869.145
01/12/2021  19:43:00      -43.184      -88.212       -3.814       82.297       65.543       35.938     6772.773     4295.926     1291.565        1.101        0.618       98.215       31.814        0.105      338.929       11.913      869.153
01/12/2021  19:44:00      -57.630      -96.363      -21.319      103.689       64.578       42.044    10751.329     4170.366     1767.669        1.487        0.834      112.281       31.952        0.081      338.798       11.692      869.166
01/12/2021  19:45:00      -42.167      -36.029      -15.400       64.905       44.927       34.442     4212.616     2018.391     1186.232        0.536        0.371       55.463       29.611        0.285      338.703       11.535      869.181
01/12/2021  19:46:00       15.900      -98.196      -33.687      103.513       61.383       34.303    10714.893     3767.856     1176.664        1.334        0.783       99.474       40.016        0.162      338.816       11.723      869.170
01/12/2021  19:47:00      118.021     -233.654      -68.451       99.530      100.438       46.857     9906.170    10087.737     2195.592        4.769        1.109      261.769       48.660        0.035      338.776       11.655      869.118
01/12/2021  19:48:00       81.821     -176.395      -40.436      100.060       74.141       45.367    10012.026     5496.862     2058.127        2.850        0.878      194.448       55.199        0.081      338.792       11.681      869.129
01/12/2021  19:49:00       29.528      -93.895      -29.395       75.075       59.124       39.117     5636.279     3495.691     1530.116        1.060        0.533       98.428       33.438        0.115      338.689       11.511      869.169
01/12/2021  19:50:00       74.381     -128.624      -21.807      104.936       92.305       48.768    11011.572     8520.279     2378.305        2.223        1.096      148.582       58.151        0.153      338.729       11.575      869.150
01/12/2021  19:51:00      -24.676      -44.277      -12.947       71.043       70.859       26.718     5047.155     5020.997      713.863        0.676        0.539       50.689       29.535        0.340      338.657       11.457      869.141
01/12/2021  19:52:00     -104.831        3.657      -14.136       75.085       55.889       32.965     5637.810     3123.547     1086.662        1.052        0.492      104.894       11.266        0.012      338.500       11.192      869.195
01/12/2021  19:53:00      -95.105      -20.923       15.178       85.194       59.429       41.370     7257.959     3531.795     1711.510        1.110        0.625       97.379       33.355        0.117      338.509       11.208      869.250
01/12/2021  19:54:00     -173.075      -10.033      -22.198       60.417       34.653       28.837     3650.197     1200.862      831.560        1.811        0.284      173.366       14.966        0.007      338.520       11.227      869.280
01/12/2021  19:55:00      -89.050        6.635       -6.930       50.020       56.564       32.484     2502.021     3199.496     1055.222        0.739        0.338       89.296       29.528        0.109      338.432       11.080      869.294
01/12/2021  19:56:00      -64.742      -15.916      -17.372       61.617       50.060       33.101     3796.659     2505.955     1095.687        0.607        0.370       66.670       19.493        0.085      338.507       11.206      869.283
01/12/2021  19:57:00      -48.160      -28.402       -7.865       54.132       56.624       30.236     2930.251     3206.242      914.213        0.512        0.353       55.911       17.925        0.103      338.508       11.207      869.312
01/12/2021  19:58:00     -143.542      -21.574      -11.891       50.455       36.887       30.031     2545.748     1360.665      901.867        1.301        0.240      145.155       24.623        0.029      338.436       11.084      869.353
01/12/2021  19:59:00      -92.448      -23.178      -16.242       60.147       52.812       27.718     3617.666     2789.090      768.308        0.826        0.359       95.309       19.610        0.042      338.438       11.089      869.364
01/12/2021  20:00:00     -112.488      -84.824      -10.065       52.136       40.352       29.715     2718.154     1628.245      882.992        1.259        0.261      140.886       21.398        0.023      338.486       11.170      869.389
01/12/2021  20:01:00      -25.536      -52.966      -20.158       63.688       29.128       28.981     4056.204      848.429      839.915        0.480        0.287       58.800       31.347        0.284      338.531       11.246      869.374
01/12/2021  20:02:00       52.524      -21.739      -11.677       78.374       54.317       40.646     6142.478     2950.353     1652.137        0.705        0.537       56.845       35.000        0.379      338.406       11.036      869.378
01/12/2021  20:03:00      -53.038      -16.636       -3.379       51.680       55.448       30.787     2670.834     3074.445      947.849        0.490        0.335       55.585       23.546        0.179      338.442       11.096      869.411
01/12/2021  20:04:00      -76.106       -7.266       -0.506       60.446       30.454       23.650     3653.749      927.416      559.323        0.549        0.257       76.452        6.917        0.008      338.389       11.008      869.468
01/12/2021  20:05:00      -44.672      -28.283       -9.759       38.225       35.414       20.154     1461.117     1254.141      406.175        0.301        0.156       52.873       21.563        0.166      338.330       10.907      869.483
01/12/2021  20:06:00       31.857       -5.506      -14.299       47.476       41.381       30.942     2253.988     1712.377      957.395        0.309        0.246       32.330       22.959        0.504      338.389       11.007      869.495
01/12/2021  20:07:00       25.733     -111.502      -24.899       74.854       53.465       37.666     5603.071     2858.505     1418.732        1.180        0.494      114.433       18.584        0.026      338.392       11.012      869.503
01/12/2021  20:08:00       38.610      -73.625      -25.837       97.497       43.707       41.909     9505.605     1910.265     1756.373        1.037        0.659       83.135       34.458        0.172      338.454       11.116      869.518
01/12/2021  20:09:00       -7.878      -25.230       -9.854       53.553       28.242       25.249     2867.946      797.603      637.506        0.255        0.215       26.431       23.175        0.769      338.440       11.092      869.517
01/12/2021  20:10:00       76.979      -53.238      -21.943       52.126       55.869       32.394     2717.101     3121.389     1049.366        0.806        0.344       93.595       31.798        0.115      338.362       10.961      869.511
01/12/2021  20:11:00      -12.193      -21.970        1.385       39.779       44.129       21.875     1582.358     1947.389      478.521        0.232        0.200       25.127       25.285        1.013      338.391       11.010      869.543
01/12/2021  20:12:00       33.182      -84.531      -27.487       71.651       57.230       27.893     5133.892     3275.277      778.047        0.909        0.459       90.811       17.000        0.035      338.393       11.014      869.571
01/12/2021  20:13:00      -16.538       -6.120       -6.714       51.376       20.911       25.623     2639.474      437.259      656.532        0.204        0.187       17.634       15.012        0.725      338.236       10.751      869.594
01/12/2021  20:14:00       55.216      -43.281      -14.329       73.266       69.976       36.269     5367.922     4896.683     1315.458        0.835        0.579       70.157       45.599        0.422      338.390       11.009      869.590
01/12/2021  20:15:00       59.316      -79.579      -20.407       57.974       33.090       32.547     3361.026     1094.932     1059.285        0.789        0.276       99.253       34.091        0.118      338.441       11.094      869.580
01/12/2021  20:16:00       62.667      -58.961      -18.487       61.892       44.674       35.278     3830.592     1995.805     1244.529        0.741        0.354       86.044       31.541        0.134      338.496       11.186      869.604
01/12/2021  20:17:00       44.421      -26.264      -15.789       64.956       52.902       34.926     4219.295     2798.650     1219.843        0.557        0.412       51.605       41.802        0.656      338.523       11.232      869.658
01/12/2021  20:18:00       47.019      -55.071      -12.974       48.035       39.625       29.013     2307.320     1570.130      841.751        0.506        0.236       72.413       31.307        0.187      338.398       11.022      869.678
01/12/2021  20:19:00       28.818       30.213        2.866       40.013       31.584       20.453     1601.077      997.577      418.310        0.238        0.151       41.753       24.889        0.355      338.320       10.893      869.710
01/12/2021  20:20:00       66.374      -58.522      -10.960       79.045       36.732       33.615     6248.101     1349.253     1129.989        0.834        0.436       88.489       33.230        0.141      338.343       10.931      869.733
01/12/2021  20:21:00       81.152      -65.196      -24.482       78.365       60.695       40.089     6141.009     3683.844     1607.098        1.143        0.572      104.096       43.856        0.177      338.398       11.020      869.706
01/12/2021  20:22:00       21.760       35.490      -20.938       57.229       50.926       45.571     3275.190     2593.435     2076.746        0.506        0.397       41.630       34.563        0.689      338.260       10.790      869.673
01/12/2021  20:23:00        5.754        7.277       11.682       58.015       47.324       30.348     3365.716     2239.545      920.984        0.337        0.326        9.277       17.732        3.653      338.624       11.402      869.711
01/12/2021  20:24:00        2.191      -70.096      -16.621       53.153       26.583       29.389     2825.190      706.647      863.706        0.479        0.220       70.130       21.093        0.090      338.550       11.277      869.727
01/12/2021  20:25:00       10.856      -29.799      -10.808       40.967       16.151       22.436     1678.269      260.858      503.377        0.178        0.122       31.715       20.576        0.421      338.517       11.223      869.744
01/12/2021  20:26:00      -10.869        9.996       -6.535       65.118       38.942       35.485     4240.322     1516.506     1259.215        0.364        0.351       14.767       29.227        3.917      338.117       10.550      869.803
01/12/2021  20:27:00      -41.997       -3.741       -4.421       62.894       34.269       26.553     3955.616     1174.345      705.077        0.381        0.292       42.164       17.520        0.173      338.120       10.555      869.813
01/12/2021  20:28:00      -16.854       21.569       -8.055       38.236       15.264       15.095     1462.007      232.976      227.864        0.137        0.096       27.373       14.494        0.280      338.284       10.830      869.788
01/12/2021  20:29:00      -41.151      -11.351       -6.161       46.880       16.151       22.138     2197.764      260.870      490.076        0.240        0.147       42.688       10.110        0.056      338.281       10.825      869.792
01/12/2021  20:30:00       19.951       -4.152       -7.510       36.835       11.989       22.533     1356.837      143.739      507.758        0.124        0.100       20.379       22.979        1.271      338.218       10.718      869.760
01/12/2021  20:31:00       36.591      -35.714      -17.582       41.466       30.179       23.291     1719.468      910.796      542.472        0.305        0.159       51.131       27.957        0.299      338.310       10.873      869.722
01/12/2021  20:32:00       12.234      -28.586      -22.976       57.064       33.479       31.297     3256.289     1120.864      979.515        0.342        0.268       31.094       28.698        0.852      338.494       11.184      869.676
01/12/2021  20:33:00        6.362      -17.873      -14.172       50.776       33.941       27.174     2578.194     1152.010      738.442        0.251        0.223       18.972       15.561        0.673      338.331       10.909      869.697
01/12/2021  20:34:00      -46.767      -26.613       -4.847       41.945       43.659       27.661     1759.413     1906.081      765.129        0.367        0.222       53.809       26.013        0.234      338.305       10.865      869.687
01/12/2021  20:35:00      -39.749      -16.001       -4.302       45.165       36.497       24.095     2039.899     1332.034      580.589        0.290        0.198       42.849       10.299        0.058      338.234       10.746      869.705
01/12/2021  20:36:00      -10.023      -23.398        2.037       60.624       34.210       29.014     3675.249     1170.312      841.814        0.317        0.284       25.454       28.010        1.211      338.347       10.937      869.752
01/12/2021  20:37:00        5.000     -112.701      -23.350       91.050       73.580       46.019     8290.161     5413.974     2117.732        1.454        0.791      112.812       37.882        0.113      338.491       11.177      869.791
01/12/2021  20:38:00     -106.084      -62.443      -12.572       59.552       65.907       33.373     3546.438     4343.704     1113.767        1.216        0.450      123.097       29.959        0.059      338.381       10.993      869.797
01/12/2021  20:39:00      -45.332       33.634      -13.212       49.107       39.303       28.828     2411.477     1544.739      831.074        0.407        0.239       56.446       20.180        0.128      338.226       10.733      869.826
01/12/2021  20:40:00      -88.042       -5.446       -6.581       52.673       39.144       32.974     2774.445     1532.273     1087.296        0.661        0.270       88.210       23.950        0.074      338.166       10.633      869.825
01/12/2021  20:41:00     -106.994       -0.311      -21.897       50.420       32.345       26.063     2542.207     1046.229      679.278        0.810        0.213      106.994       22.841        0.046      338.166       10.632      869.786
01/12/2021  20:42:00      -72.771        9.885       -6.955       59.310       18.802       19.375     3517.634      353.503      375.388        0.484        0.212       73.439       16.520        0.051      338.127       10.566      869.779
01/12/2021  20:43:00      -84.794       19.061       -8.221       37.548       22.748       20.433     1409.827      517.492      417.522        0.498        0.117       86.910        7.557        0.008      338.135       10.581      869.762
01/12/2021  20:44:00     -107.484       20.081      -10.391       51.434       30.750       24.169     2645.429      945.539      584.117        0.812        0.209      109.344       15.031        0.019      338.131       10.575      869.751
01/12/2021  20:45:00     -106.542       49.368       -1.083       59.456       38.879       32.404     3535.054     1511.605     1049.988        0.994        0.305      117.424       17.499        0.022      338.327       10.903      869.753
01/12/2021  20:46:00      -14.907       64.404       -1.662       47.997       55.224       23.225     2303.706     3049.650      539.411        0.513        0.295       66.107       14.860        0.051      338.283       10.829      869.740
01/12/2021  20:47:00      -23.998      -23.582      -16.649       44.415       15.573       17.768     1972.702      242.532      315.694        0.197        0.127       33.646       18.305        0.296      337.999       10.352      869.782
01/12/2021  20:48:00      -31.008      -18.467      -11.712       40.856       30.609       25.210     1669.230      936.902      635.558        0.234        0.162       36.090       20.760        0.331      337.857       10.115      869.841
01/12/2021  20:49:00      -34.884       -6.509        0.756       58.559       28.490       26.016     3429.159      811.662      676.828        0.309        0.246       35.486       14.049        0.157      337.841       10.088      869.873
01/12/2021  20:50:00      -76.008       -7.433       -9.113       59.025       22.089       24.421     3483.929      487.928      596.379        0.524        0.228       76.370       19.592        0.066      337.833       10.073      869.885
01/12/2021  20:51:00      -91.107       21.356      -12.636       39.872       20.587       20.558     1589.744      423.809      422.629        0.568        0.122       93.577       13.651        0.021      337.873       10.141      869.870
01/12/2021  20:52:00     -157.915       20.068       -5.655       43.692       33.054       21.979     1908.988     1092.547      483.080        1.443        0.174      159.185       10.186        0.004      337.917       10.214      869.848
01/12/2021  20:53:00      -96.543      -10.504        0.369       79.773       32.412       28.434     6363.654     1050.560      808.479        0.883        0.411       97.113       15.858        0.027      337.879       10.151      869.868
01/12/2021  20:54:00     -125.716       13.484       -8.646       47.775       34.397       28.233     2282.470     1183.181      797.108        1.016        0.213      126.437       16.723        0.017      338.009       10.369      869.845
01/12/2021  20:55:00      -67.432       26.502       -9.069       42.792       17.133       21.651     1831.178      293.549      468.758        0.396        0.130       72.453       10.376        0.021      338.021       10.390      869.792
01/12/2021  20:56:00      -27.929      -16.581       -4.428       42.909       25.654       21.388     1841.212      658.108      457.434        0.202        0.148       32.480       12.455        0.147      337.992       10.340      869.796
01/12/2021  20:57:00     -108.299       26.470       -6.736       52.770       29.276       27.802     2784.717      857.085      772.934        0.844        0.221      111.486       14.315        0.016      337.970       10.304      869.854
01/12/2021  20:58:00     -119.836       17.783       -3.402       46.322       21.464       20.726     2145.730      460.698      429.556        0.886        0.152      121.148        5.201        0.002      337.929       10.236      869.847
01/12/2021  20:59:00      -85.773       34.586      -10.058       39.320       20.337       20.252     1546.028      413.573      410.156        0.551        0.118       92.483       16.528        0.032      338.137       10.585      869.831
01/12/2021  21:00:00      -42.343       -2.306        0.874       44.215       28.921       19.832     1954.954      836.418      393.307        0.249        0.159       42.406        8.630        0.041      338.097       10.516      869.898
01/12/2021  21:01:00       41.144      -23.221      -18.592       45.073       22.428       22.660     2031.570      503.025      513.474        0.281        0.152       47.245       26.660        0.318      337.973       10.310      869.875
01/12/2021  21:02:00        4.163      -38.168      -10.574       49.845       43.681       22.471     2484.518     1908.019      504.951        0.324        0.245       38.394       28.329        0.544      338.154       10.612      869.873
01/12/2021  21:03:00        0.060       16.376      -19.836       48.112       29.918       21.959     2314.786      895.100      482.208        0.218        0.185       16.376       22.657        1.914      338.187       10.667      869.902
01/12/2021  21:04:00      -32.979       17.584       -5.950       31.687       20.281       17.280     1004.071      411.326      298.585        0.157        0.086       37.374       13.555        0.132      338.191       10.675      869.911
01/12/2021  21:05:00     -106.962        2.524       -8.964       57.326       47.998       26.257     3286.312     2303.766      689.452        0.890        0.314      106.991       19.767        0.034      338.031       10.405      869.981
01/12/2021  21:06:00      -74.411       13.061       -0.986       52.542       48.902       24.633     2760.669     2391.440      606.769        0.573        0.288       75.548        9.844        0.017      338.026       10.397      870.030
01/12/2021  21:07:00       29.117       -2.225      -11.079       46.409       23.049       27.440     2153.819      531.265      752.976        0.221        0.172       29.202       31.595        1.171      338.085       10.496      869.988
01/12/2021  21:08:00       77.812       31.526      -13.253       44.685       13.271       18.817     1996.763      176.112      354.067        0.488        0.126       83.956       26.104        0.097      338.128       10.568      870.015
01/12/2021  21:09:00      -20.585       -1.385      -15.763       56.446       24.039       20.914     3186.193      577.887      437.377        0.244        0.210       20.631       20.498        0.987      338.095       10.514      870.138
01/12/2021  21:10:00      -41.336       -2.018       -0.493       67.274       24.727       19.417     4525.827      611.413      377.001        0.361        0.276       41.386       21.793        0.277      337.934       10.243      870.234
01/12/2021  21:11:00      -68.285       53.367       -9.002       90.667       49.003       30.586     8220.424     2401.276      935.530        0.957        0.578       86.665       30.327        0.122      338.002       10.357      870.280
01/12/2021  21:12:00      -73.379      133.839       -6.616       52.999       34.257       24.485     2808.881     1173.549      599.522        1.396        0.229      152.635       16.252        0.011      338.228       10.736      870.321
01/12/2021  21:13:00      -23.537      138.190      -11.954       33.110       23.149       19.904     1096.287      535.871      396.171        1.091        0.101      140.180       18.188        0.017      338.236       10.750      870.315
01/12/2021  21:14:00      -36.141      114.291      -14.718       36.335       40.033       24.387     1320.246     1602.665      594.746        0.905        0.176      119.869       16.151        0.018      338.304       10.863      870.341
01/12/2021  21:15:00      -13.261        4.219       -0.248       61.262       36.565       26.217     3753.006     1336.991      687.331        0.298        0.289       13.916       27.360        3.865      338.382       10.997      870.333
01/12/2021  21:16:00      -63.103       63.031      -14.791       62.906       77.875       29.783     3957.143     6064.477      887.030        0.954        0.545       89.190       28.028        0.099      338.300       10.858      870.401
01/12/2021  21:17:00     -170.617       11.691      -20.375       67.599       49.938       36.357     4569.581     2493.837     1321.803        1.902        0.419      171.017       19.562        0.013      338.239       10.754      870.372
01/12/2021  21:18:00     -125.773       45.978       -9.232      101.553       77.568       40.744    10313.012     6016.862     1660.066        1.800        0.899      133.914       38.176        0.081      338.295       10.848      870.379
01/12/2021  21:19:00      -19.455       78.987        2.962       53.874       50.711       26.450     2902.457     2571.602      699.590        0.640        0.309       81.348       19.896        0.060      338.265       10.800      870.366
01/12/2021  21:20:00       63.261      -69.258      -36.351       51.236       76.556       28.301     2625.141     5860.853      800.956        0.970        0.464       93.801       36.286        0.150      338.156       10.617      870.342
01/12/2021  21:21:00       22.653      -24.588      -39.524       84.844      112.594       36.031     7198.496    12677.449     1298.226        1.192        1.059       33.433       21.624        0.418      338.139       10.586      870.358
01/12/2021  21:22:00      -66.390        8.848      -12.663       61.408       35.359       32.549     3770.963     1250.273     1059.470        0.536        0.304       66.977       26.454        0.156      338.285       10.832      870.378
01/12/2021  21:23:00       -8.770      -15.590      -14.526       47.305       30.314       29.199     2237.783      918.910      852.569        0.227        0.200       17.887       31.278        3.058      338.303       10.862      870.346
01/12/2021  21:24:00      -74.221      -77.637      -25.940      126.785       69.000       39.322    16074.554     4761.029     1546.240        1.729        1.119      107.407       23.196        0.047      338.408       11.038      870.300
01/12/2021  21:25:00     -113.680      -63.637      -14.434      150.011       77.941       48.238    22503.353     6074.763     2326.863        2.404        1.545      130.280       25.886        0.039      338.397       11.019      870.267
01/12/2021  21:26:00     -119.152     -165.625      -29.890       96.555      102.240       47.141     9322.779    10453.120     2222.249        3.226        1.100      204.031       29.816        0.021      338.528       11.238      870.252
01/12/2021  21:27:00     -128.517     -116.359      -25.195       70.622      108.944       37.473     4987.478    11868.772     1404.210        2.447        0.913      173.367        8.342        0.002      338.516       11.220      870.269
01/12/2021  21:28:00     -105.816       -6.778      -13.456      107.124       63.905       50.167    11475.450     4083.867     2516.678        1.475        0.904      106.033       44.696        0.178      338.469       11.140      870.250
01/12/2021  21:29:00     -122.491      -10.925       -6.266      100.402       70.924       43.311    10080.508     5030.163     1875.879        1.607        0.849      122.977       34.237        0.078      338.514       11.215      870.254
01/12/2021  21:30:00     -238.485      -51.490      -17.742      178.105       81.825       59.486    31721.419     6695.406     3538.570        5.089        2.098      243.980       69.460        0.081      338.534       11.248      870.284
01/12/2021  21:31:00     -121.723       40.410       -6.042       92.284       88.284       53.361     8516.343     7794.019     2847.347        1.782        0.958      128.255       35.244        0.076      338.626       11.405      870.248
01/12/2021  21:32:00     -117.690       -5.038      -19.809       94.052       65.653       38.512     8845.736     4310.296     1483.180        1.445        0.732      117.798       32.045        0.074      338.539       11.258      870.257
01/12/2021  21:33:00     -142.213        0.599      -21.306      110.136       63.847       47.125    12130.012     4076.466     2220.796        1.955        0.921      142.215       39.558        0.077      338.531       11.244      870.239
01/12/2021  21:34:00     -229.537       65.518      -20.769      127.733      101.606       59.098    16315.706    10323.817     3492.628        4.377        1.507      238.704       58.810        0.061      338.617       11.387      870.212
01/12/2021  21:35:00     -185.491       -0.890       -7.821      130.413      103.591       60.015    17007.441    10731.071     3601.749        3.290        1.567      185.493       55.454        0.089      338.584       11.334      870.220
01/12/2021  21:36:00     -228.401       -8.397       -9.465      121.115       93.405       47.821    14668.770     8724.574     2286.803        3.900        1.284      228.556       50.153        0.048      338.565       11.301      870.223
01/12/2021  21:37:00     -189.900       13.719       -7.401       98.382       71.172       46.845     9679.090     5065.499     2194.485        2.662        0.847      190.395       43.891        0.053      338.540       11.260      870.239
01/12/2021  21:38:00      -52.998       35.760      -13.268       83.072       40.302       30.508     6901.024     1624.249      930.753        0.686        0.473       63.934       18.240        0.081      338.566       11.305      870.231
01/12/2021  21:39:00     -164.042      -65.882       -1.309      152.083      118.924       56.709    23129.217    14142.822     3215.895        3.586        2.024      176.777       50.953        0.083      338.587       11.339      870.208
01/12/2021  21:40:00      -47.885      -25.371      -19.973       99.631      129.127       54.351     9926.310    16673.781     2953.994        1.644        1.478       54.190       31.110        0.330      338.585       11.335      870.172
01/12/2021  21:41:00     -137.690      -50.821        1.564      164.496       87.783       55.395    27059.098     7705.797     3068.593        2.968        1.892      146.770       46.378        0.100      338.582       11.330      870.174
01/12/2021  21:42:00     -180.811        2.236       -8.821      107.701      108.614       56.496    11599.566    11796.999     3191.804        2.968        1.329      180.825       56.452        0.097      338.635       11.418      870.166
01/12/2021  21:43:00     -275.101      -43.443      -16.982      115.451       88.942       53.320    13328.918     7910.743     2843.006        5.096        1.204      278.510       44.903        0.026      338.669       11.473      870.141
01/12/2021  21:44:00     -133.584      -50.710        9.776      131.629      103.034       72.041    17326.126    10615.993     5189.895        2.681        1.657      142.885       62.591        0.192      338.653       11.447      870.155
01/12/2021  21:45:00     -155.411      -54.239      -14.890      131.409       93.056       48.985    17268.238     8659.455     2399.563        2.782        1.416      164.604       49.625        0.091      338.681       11.495      870.152
01/12/2021  21:46:00     -202.111      -50.055      -18.843      135.073       84.230       60.171    18244.734     7094.640     3620.582        3.633        1.448      208.217       60.984        0.086      338.660       11.461      870.130
01/12/2021  21:47:00     -139.662     -101.600      -25.101      111.988      107.322       63.020    12541.368    11517.954     3971.485        2.924        1.402      172.708       51.880        0.090      338.735       11.586      870.114
01/12/2021  21:48:00      -37.167     -121.644      -18.395       88.602       60.793       42.738     7850.371     3695.731     1826.506        1.494        0.669      127.196       37.535        0.087      338.833       11.752      870.094
01/12/2021  21:49:00        1.715      -97.136      -30.572       83.571       72.281       40.012     6984.139     5224.536     1600.994        1.209        0.690       97.151       39.274        0.163      338.760       11.630      870.093
01/12/2021  21:50:00     -214.971     -133.095      -31.005       96.307      125.365       59.087     9275.074    15716.262     3491.245        4.668        1.424      252.838       43.966        0.030      338.711       11.544      870.082
01/12/2021  21:51:00      -89.566      -49.482      -12.929       80.901      122.428       44.951     6545.043    14988.514     2020.596        1.709        1.178      102.326       48.630        0.226      338.707       11.540      870.118
01/12/2021  21:52:00      -53.303      -39.363      -18.499       99.687       60.425       44.056     9937.579     3651.229     1940.922        1.013        0.776       66.262       26.819        0.164      338.675       11.487      870.164
01/12/2021  21:53:00       49.494       -4.351      -25.678       50.344       42.313       37.150     2534.550     1790.374     1380.147        0.442        0.285       49.685       33.059        0.443      338.550       11.277      870.134
01/12/2021  21:54:00        7.760      -68.856      -23.231       81.817       34.171       28.989     6694.006     1167.665      840.373        0.702        0.435       69.292       25.575        0.136      338.647       11.439      870.127
01/12/2021  21:55:00      -25.817      -96.921      -27.556      126.140       49.752       34.110    15911.362     2475.289     1163.514        1.518        0.978      100.300       18.973        0.036      338.658       11.459      870.137
01/12/2021  21:56:00       96.738      -87.460      -43.909       73.755       64.406       42.568     5439.859     4148.103     1812.005        1.517        0.570      130.413       31.720        0.059      338.472       11.145      870.129
01/12/2021  21:57:00       69.322     -110.437      -33.504       73.684      114.724       39.429     5429.319    13161.654     1554.613        1.913        1.007      130.391       42.818        0.108      338.442       11.095      870.154
01/12/2021  21:58:00       69.526     -123.397      -34.616       77.771       54.586       34.272     6048.261     2979.614     1174.595        1.573        0.510      141.636       38.253        0.073      338.338       10.921      870.183
01/12/2021  21:59:00       10.375      -56.349      -21.616       80.611       54.191       31.421     6498.208     2936.713      987.249        0.708        0.521       57.296       30.412        0.282      338.309       10.873      870.232
01/12/2021  22:00:00      -26.819      -15.532       -3.978       69.147       39.875       29.691     4781.307     1589.998      881.582        0.411        0.363       30.992       25.953        0.701      338.298       10.855      870.250
01/12/2021  22:01:00      -20.372      -30.864       -4.671       44.942       23.964       20.172     2019.813      574.272      406.926        0.219        0.150       36.981       23.974        0.420      338.289       10.840      870.248
01/12/2021  22:02:00      -46.037      -11.462      -15.370       47.640       24.226       24.002     2269.617      586.915      576.096        0.296        0.172       47.442       20.374        0.184      338.330       10.908      870.249
01/12/2021  22:03:00       73.419      -25.039      -13.165       46.992       23.781       24.293     2208.208      565.518      590.150        0.478        0.168       77.571       28.016        0.130      338.299       10.856      870.210
01/12/2021  22:04:00       15.125      -35.982      -21.060       64.338       31.180       22.541     4139.417      972.189      508.109        0.379        0.281       39.032       31.058        0.633      338.282       10.829      870.177
01/12/2021  22:05:00       13.042      -12.543       -9.586       38.589       18.763       21.003     1489.079      352.050      441.111        0.135        0.114       18.094       26.974        2.222      338.238       10.754      870.197
01/12/2021  22:06:00       -1.754      -47.314      -13.792       43.400       30.478       22.355     1883.536      928.939      499.727        0.287        0.166       47.347       25.501        0.290      338.375       10.984      870.180
01/12/2021  22:07:00      -64.475        7.152       -4.130       56.388       36.011       28.690     3179.621     1296.801      823.130        0.476        0.265       64.870       16.582        0.065      338.274       10.814      870.183
01/12/2021  22:08:00      -39.993      -19.474       -6.499       44.585       23.629       24.494     1987.803      558.338      599.963        0.258        0.157       44.482       11.519        0.067      338.221       10.726      870.191
01/12/2021  22:09:00      -52.478      -16.605       -3.306       37.284       26.205       20.645     1390.074      686.676      426.202        0.277        0.125       55.042       14.798        0.072      338.298       10.854      870.176
01/12/2021  22:10:00      -78.672       -2.211      -15.929       36.336       26.643       20.117     1320.296      709.842      404.686        0.444        0.122       78.703       17.920        0.052      338.258       10.788      870.131
01/12/2021  22:11:00      -84.407      -13.544       -8.808       39.532       17.777       17.371     1562.793      316.037      301.765        0.478        0.109       85.487       17.836        0.044      338.206       10.699      870.112
01/12/2021  22:12:00      -27.455      -41.905      -17.331       53.214       41.576       32.545     2831.714     1728.564     1059.149        0.421        0.281       50.098       22.854        0.208      338.263       10.795      870.118
01/12/2021  22:13:00      -94.910      -97.984       -4.891       64.440       55.425       32.407     4152.514     3071.929     1050.234        1.345        0.414      136.414       22.532        0.027      338.372       10.978      870.126
01/12/2021  22:14:00      -73.528      -42.056       -8.831       52.954       67.467       23.160     2804.078     4551.772      536.383        0.757        0.395       84.705       14.867        0.031      338.403       11.030      870.145
01/12/2021  22:15:00      -72.362       18.845      -15.320       45.910       16.730       17.812     2107.702      279.888      317.266        0.426        0.135       74.776       17.738        0.056      338.417       11.054      870.152
01/12/2021  22:16:00      -53.687      -15.966       -9.694       53.092       31.095       33.341     2818.808      966.894     1111.621        0.406        0.245       56.011       14.745        0.069      338.414       11.048      870.217
01/12/2021  22:17:00     -115.127     -136.842      -11.813       61.530       93.645       38.139     3785.982     8769.373     1454.616        2.306        0.700      178.830       17.710        0.010      338.588       11.339      870.218
01/12/2021  22:18:00        1.479     -116.197      -34.377       86.314       61.202       29.845     7450.042     3745.704      890.751        1.338        0.604      116.206       32.398        0.078      338.529       11.242      870.228
01/12/2021  22:19:00      146.931     -207.488      -79.799       79.727      109.606       38.968     6356.439    12013.487     1518.480        4.544        0.994      254.245       48.997        0.037      338.485       11.165      870.200
01/12/2021  22:20:00      150.136     -268.268      -53.498       55.607       47.100       32.066     3092.117     2218.396     1028.202        5.185        0.317      307.423       33.149        0.012      338.449       11.104      870.146
01/12/2021  22:21:00      134.721     -247.204      -54.605       65.793       46.594       35.032     4328.726     2170.957     1227.235        4.498        0.386      281.531       40.955        0.021      338.406       11.031      870.081
01/12/2021  22:22:00      142.348     -207.328      -54.856       58.942       46.324       29.538     3474.210     2145.915      872.521        3.637        0.325      251.492       37.108        0.022      338.390       11.005      869.950
01/12/2021  22:23:00        5.370      -37.665      -26.428       72.839       60.914       33.273     5305.513     3710.526     1107.078        0.613        0.506       38.045       42.959        1.275      338.317       10.885      869.913
01/12/2021  22:24:00      -53.152        9.746      -13.077       60.011       46.833       25.604     3601.271     2193.316      655.567        0.477        0.323       54.038       10.039        0.035      338.419       11.058      869.924
01/12/2021  22:25:00       63.928      -28.879      -19.509       62.861       59.150       34.747     3951.463     3498.715     1207.325        0.698        0.433       70.148       32.083        0.209      338.552       11.282      869.929
01/12/2021  22:26:00       42.599      -38.009      -20.041       66.084       44.943       35.703     4367.150     2019.871     1274.722        0.566        0.383       57.091       41.041        0.517      338.555       11.285      869.929
01/12/2021  22:27:00      -31.686       -2.770      -11.299       46.083       35.967       24.308     2123.670     1293.658      590.856        0.257        0.200       31.806       16.684        0.275      338.557       11.288      870.031
01/12/2021  22:28:00      -18.131      -74.234      -18.033       67.333       61.156       39.789     4533.669     3740.035     1583.160        0.801        0.493       76.416       35.249        0.213      338.696       11.522      870.112
01/12/2021  22:29:00       44.579      -75.174      -29.122       64.566       38.771       33.433     4168.766     1503.205     1117.757        0.764        0.339       87.398       25.590        0.086      338.971       11.985      870.113
01/12/2021  22:30:00      -56.496       41.256       -5.939       61.138       43.937       39.017     3737.808     1930.423     1522.360        0.606        0.360       69.956       30.571        0.191      338.992       12.022      870.082
01/12/2021  22:31:00       50.509      -46.376      -13.967       61.903       54.385       38.971     3831.926     2957.697     1518.703        0.660        0.415       68.570       34.040        0.246      338.774       11.654      870.050
01/12/2021  22:32:00       68.895      -99.375      -35.578       67.534       39.921       31.386     4560.775     1593.711      985.056        1.151        0.357      120.921       32.531        0.072      338.728       11.576      870.019
01/12/2021  22:33:00      113.479     -104.853      -45.963       63.509       66.779       34.899     4033.356     4459.424     1217.967        1.785        0.486      154.505       41.733        0.073      338.661       11.464      869.973
01/12/2021  22:34:00       92.832      -66.532      -25.728       61.655       79.730       42.671     3801.376     6356.947     1820.820        1.284        0.599      114.212       46.864        0.168      338.580       11.328      869.939
01/12/2021  22:35:00       38.372       -4.817      -13.999       60.468       35.988       29.902     3656.417     1295.106      894.159        0.377        0.292       38.673       31.924        0.681      338.423       11.065      869.993
01/12/2021  22:36:00       25.666       27.183      -15.172       51.035       35.006       22.563     2604.554     1225.439      509.098        0.298        0.217       37.385       27.794        0.553      338.372       10.978      870.030
01/12/2021  22:37:00       43.004       26.446       -0.456       53.692       36.525       26.573     2882.860     1334.043      706.110        0.373        0.246       50.485       33.231        0.433      338.314       10.881      870.000
01/12/2021  22:38:00        3.953       15.970        0.378       39.819       15.555       19.672     1585.520      241.969      386.998        0.124        0.111       16.451       25.228        2.351      338.301       10.861      870.025
01/12/2021  22:39:00        2.426       13.101       -6.253       38.839       20.522       22.264     1508.436      421.142      495.688        0.132        0.121       13.324       25.142        3.560      338.332       10.912      870.083
01/12/2021  22:40:00       55.594       35.439      -10.955       55.719       42.575       31.048     3104.588     1812.646      963.975        0.517        0.294       65.929       27.736        0.177      338.180       10.655      870.074
01/12/2021  22:41:00       77.397       37.370      -15.960       51.757       46.080       31.608     2678.786     2123.394      999.065        0.672        0.290       85.947       30.162        0.123      338.115       10.547      870.044
01/12/2021  22:42:00       65.069       26.242      -10.184       55.751       21.112       27.028     3108.123      445.733      730.503        0.465        0.214       70.161       34.356        0.240      338.122       10.559      870.057
01/12/2021  22:43:00       28.218       37.868       -3.615       48.600       19.908       24.741     2361.947      396.329      612.102        0.281        0.169       47.226       32.872        0.485      338.201       10.691      870.113
01/12/2021  22:44:00       26.565       45.971       -3.607       42.931       14.368       20.228     1843.096      206.436      409.153        0.264        0.123       53.095       27.760        0.273      338.320       10.893      870.149
01/12/2021  22:45:00      -18.319       36.644       -5.740       38.255       19.625       17.351     1463.454      385.155      301.068        0.193        0.107       40.968       19.697        0.231      338.251       10.775      870.147
01/12/2021  22:46:00       -3.517       84.589       -1.455       39.518       27.904       24.506     1561.638      778.624      600.553        0.505        0.147       84.662       24.331        0.083      338.311       10.876      870.124
01/12/2021  22:47:00       53.583      113.310      -19.526       42.654       28.950       22.479     1819.373      838.131      505.291        0.963        0.158      125.341       23.749        0.036      338.334       10.914      870.080
01/12/2021  22:48:00       68.668       76.486       -9.832       48.485       26.155       24.737     2350.791      684.109      611.924        0.715        0.182      102.788       28.963        0.079      338.382       10.994      870.064
01/12/2021  22:49:00       45.753       90.438      -11.865       47.429       26.301       24.031     2249.554      691.721      577.500        0.697        0.176      101.353       29.743        0.086      338.541       11.262      870.068
01/12/2021  22:50:00       43.899       70.789       -8.532       48.336       25.113       25.194     2336.357      630.682      634.748        0.531        0.180       83.296       29.215        0.123      338.692       11.515      870.086
01/12/2021  22:51:00       19.861       65.893      -23.643       48.595       14.451       24.602     2361.460      208.827      605.235        0.423        0.159       68.821       30.384        0.195      338.793       11.684      870.119
01/12/2021  22:52:00       13.481       -1.655      -20.761       40.045       25.723       23.663     1603.617      661.690      559.918        0.172        0.141       13.583       26.412        3.781      338.758       11.626      870.125
01/12/2021  22:53:00       27.944        5.974       -7.006       43.640       25.317       21.069     1904.456      640.935      443.894        0.193        0.149       28.576       28.795        1.015      338.776       11.656      870.108
01/12/2021  22:54:00       92.355       63.390      -22.723       63.988       25.235       33.225     4094.469      636.800     1103.909        0.945        0.292      112.017       39.338        0.123      338.830       11.748      870.088
01/12/2021  22:55:00       86.903       62.267      -17.932       60.478       17.023       27.004     3657.538      289.771      729.241        0.821        0.234      106.908       34.391        0.103      338.846       11.774      870.072
01/12/2021  22:56:00      138.004       98.208       -8.286       68.063       36.915       34.418     4632.570     1362.684     1184.603        1.797        0.359      169.381       33.956        0.040      338.814       11.718      870.056
01/12/2021  22:57:00       60.483      -26.126      -21.781       59.900       62.276       33.762     3588.057     3878.266     1139.847        0.671        0.430       65.884       33.414        0.257      338.615       11.385      870.068
01/12/2021  22:58:00       74.253      -61.709      -30.682       53.549       60.523       30.687     2867.539     3663.077      941.708        0.887        0.374       96.548       33.404        0.120      338.483       11.166      870.096
01/12/2021  22:59:00       48.545        9.788      -15.607       58.388       54.940       34.755     3409.123     3018.422     1207.918        0.516        0.382       49.522       35.790        0.522      338.438       11.089      870.068
01/12/2021  23:00:00      124.537       42.011       -8.964       52.256       43.047       34.003     2730.733     1853.011     1156.188        1.155        0.287      131.432       31.475        0.057      338.636       11.420      870.049
01/12/2021  23:01:00      137.728       43.938      -26.535       71.261       38.993       32.989     5078.074     1520.437     1088.298        1.464        0.384      144.566       37.229        0.066      338.781       11.664      870.036
01/12/2021  23:02:00       20.022       65.179       -4.375       39.480       27.848       21.651     1558.707      775.496      468.752        0.374        0.140       68.185       26.794        0.154      338.560       11.294      870.030
01/12/2021  23:03:00       47.108       30.765       -2.196       43.395       17.776       20.774     1883.137      315.973      431.560        0.290        0.132       56.264       27.540        0.240      338.548       11.273      870.000
01/12/2021  23:04:00       76.338       63.334      -13.260       48.491       17.322       23.767     2351.420      300.040      564.885        0.661        0.161       99.190       29.791        0.090      338.458       11.123      869.980
01/12/2021  23:05:00       53.109      137.142      -15.622       46.755       52.201       25.194     2186.041     2724.893      634.727        1.371        0.277      147.066       29.481        0.040      338.416       11.051      869.968
01/12/2021  23:06:00       80.215      123.792      -21.175       51.538       46.619       27.100     2656.193     2173.354      734.399        1.388        0.278      147.509       28.075        0.036      338.464       11.133      869.932
01/12/2021  23:07:00       65.426       91.448      -14.724       48.614       42.067       28.156     2363.334     1769.654      792.787        0.889        0.246      112.442       26.533        0.056      338.311       10.876      869.929
01/12/2021  23:08:00      108.658       71.588      -14.500       49.216       22.873       24.985     2422.202      523.177      624.261        1.035        0.178      130.121       30.279        0.054      338.192       10.675      869.933
01/12/2021  23:09:00       64.101       58.863       -9.112       59.776       29.824       30.997     3573.162      889.474      960.844        0.654        0.271       87.027       34.988        0.162      338.224       10.729      869.955
01/12/2021  23:10:00       26.167      114.646      -19.298       45.743       35.773       25.286     2092.461     1279.736      639.403        0.911        0.201      117.594       24.575        0.044      338.499       11.192      870.011
01/12/2021  23:11:00        8.912       92.253      -10.131       42.333       25.291       23.403     1792.099      639.621      547.686        0.584        0.149       92.682       25.102        0.073      338.466       11.137      870.031
01/12/2021  23:12:00       16.824      117.491       -5.855       46.847       20.917       22.141     2194.600      437.505      490.228        0.862        0.156      118.689       23.552        0.039      338.629       11.410      870.014
01/12/2021  23:13:00       54.441      147.474       -8.080       56.193       37.420       31.471     3157.692     1400.258      990.428        1.516        0.277      157.202       32.506        0.043      338.755       11.621      869.993
01/12/2021  23:14:00       81.033       91.791      -16.146       59.801       31.845       30.985     3576.131     1014.123      960.075        1.040        0.278      122.442       39.027        0.102      338.738       11.592      869.975
01/12/2021  23:15:00       52.894      113.105      -15.014       41.082       39.058       25.195     1687.708     1525.513      634.808        0.983        0.192      124.862       22.647        0.033      338.776       11.658      870.012
01/12/2021  23:16:00       74.738       87.030      -16.685       52.950       28.502       23.946     2803.725      812.359      573.410        0.881        0.209      114.717       27.235        0.056      338.766       11.640      870.063
01/12/2021  23:17:00       98.295       67.437      -10.109       56.634       19.533       29.340     3207.444      381.555      860.823        0.938        0.222      119.204       34.660        0.085      338.741       11.597      870.047
01/12/2021  23:18:00       27.138      -22.858      -18.061       58.276       41.075       23.083     3396.084     1687.173      532.822        0.360        0.281       35.482       27.903        0.618      338.436       11.087      870.023
01/12/2021  23:19:00      -43.932       -5.716      -20.153       55.345       46.062       27.274     3063.039     2121.747      743.878        0.415        0.296       44.302       23.278        0.276      338.256       10.783      870.065
01/12/2021  23:20:00     -146.480        1.034      -10.234       69.019       49.671       32.283     4763.611     2467.250     1042.197        1.492        0.414      146.483       22.576        0.024      338.345       10.933      870.088
01/12/2021  23:21:00      -21.476       13.143       -9.644       50.098       11.836       17.485     2509.844      140.085      305.732        0.184        0.148       25.179       18.750        0.555      338.449       11.107      870.048
01/12/2021  23:22:00       23.721        5.652      -11.499       33.295       10.533       16.211     1108.527      110.935      262.789        0.110        0.074       24.385       22.011        0.815      338.310       10.873      870.028
01/12/2021  23:23:00        6.784        9.355      -14.074       66.595       12.781       27.107     4434.846      163.355      734.812        0.283        0.267       11.556       28.430        6.053      338.420       11.060      870.009
01/12/2021  23:24:00     -154.638       56.296      -23.080       57.770       59.004       34.681     3337.396     3481.423     1202.805        1.782        0.401      164.567       11.220        0.005      338.281       10.825      870.048
01/12/2021  23:25:00      -85.413        7.012      -25.391       54.511       50.605       29.144     2971.502     2560.880      849.359        0.718        0.319       85.701       13.310        0.024      338.085       10.498      870.078
01/12/2021  23:26:00      -50.658      -36.784      -26.268       61.150       26.356       29.649     3739.327      694.663      879.061        0.496        0.266       62.604       26.250        0.176      338.184       10.664      870.070
01/12/2021  23:27:00       -1.110      -54.453      -28.930       60.722       29.064       27.178     3687.163      844.717      738.664        0.454        0.264       54.464       29.118        0.286      338.271       10.809      870.039
01/12/2021  23:28:00       -8.251        4.595       -3.437       51.331       36.893       22.979     2634.885     1361.124      528.054        0.231        0.226        9.444       29.518        9.769      338.307       10.870      870.004
01/12/2021  23:29:00        8.912       36.654      -12.903       39.268       10.944       20.527     1541.987      119.778      421.363        0.184        0.104       37.721       25.381        0.453      338.456       11.119      870.025
01/12/2021  23:30:00       18.540       50.811      -12.342       36.815       11.510       20.467     1355.323      132.474      418.894        0.249        0.095       54.087       24.756        0.209      338.630       11.411      870.050
01/12/2021  23:31:00       38.040       54.309      -10.727       46.103       16.284       19.926     2125.519      265.175      397.055        0.365        0.139       66.306       28.258        0.182      338.553       11.282      870.016
01/12/2021  23:32:00       79.603       55.218       -7.227       33.379       10.501       17.895     1114.191      110.272      320.242        0.549        0.077       96.880       21.949        0.051      338.423       11.066      869.969
01/12/2021  23:33:00       51.967        2.113      -11.112       54.063       30.911       24.086     2922.855      955.502      580.149        0.364        0.223       52.010       31.854        0.375      338.433       11.080      869.972
01/12/2021  23:34:00       46.957      -10.902      -29.329       48.444       28.064       27.437     2346.801      787.572      752.772        0.353        0.194       48.206       31.071        0.415      338.498       11.190      869.975
01/12/2021  23:35:00       19.424        3.085        0.647       41.016       11.497       19.594     1682.343      132.184      383.922        0.129        0.110       19.668       27.013        1.887      338.389       11.007      869.983
01/12/2021  23:36:00       37.376      -34.186      -26.167       46.351       30.651       27.828     2148.377      939.459      774.371        0.356        0.193       50.652       30.681        0.367      338.229       10.738      869.966
01/12/2021  23:37:00       66.641       16.046      -17.226       50.441       52.885       30.635     2544.306     2796.866      938.506        0.564        0.314       68.546       29.381        0.184      338.155       10.614      869.963
01/12/2021  23:38:00       88.080       34.470      -24.703       53.163       29.540       30.020     2826.290      872.605      901.208        0.708        0.230       94.585       33.532        0.126      338.365       10.967      869.977
01/12/2021  23:39:00      131.712       48.723      -24.348       68.269       41.312       34.081     4660.628     1706.648     1161.510        1.392        0.376      140.435       36.761        0.069      338.256       10.783      869.960
01/12/2021  23:40:00      151.063       43.270      -33.535       53.709       28.855       31.299     2884.697      832.604      979.658        1.526        0.235      157.138       34.717        0.049      338.368       10.971      869.949
01/12/2021  23:41:00      192.382       34.707      -21.483       54.950       26.801       33.466     3019.529      718.314     1120.001        2.177        0.243      195.488       35.762        0.033      338.336       10.917      869.956
01/12/2021  23:42:00      106.569        7.882      -29.988      103.533       19.269       29.241    10719.144      371.277      855.009        1.213        0.597      106.860       37.070        0.120      338.448       11.105      869.932
01/12/2021  23:43:00       12.085       48.014      -14.054       48.030       33.191       23.215     2306.880     1101.666      538.913        0.330        0.197       49.512       27.530        0.309      338.349       10.940      869.966
01/12/2021  23:44:00      168.810       74.344      -24.374       73.962       54.368       39.740     5470.361     2955.932     1579.301        2.231        0.500      184.456       43.784        0.056      338.539       11.256      869.970
01/12/2021  23:45:00       81.691       49.153      -19.518       80.929       43.080       31.701     6549.455     1855.924     1004.953        0.944        0.471       95.339       35.078        0.135      338.649       11.443      869.991
01/12/2021  23:46:00       47.150        2.301      -15.456       62.927       39.452       29.809     3959.801     1556.496      888.569        0.443        0.320       47.206       38.083        0.651      338.436       11.085      870.057
01/12/2021  23:47:00       62.314      -21.687      -39.660       57.912       60.541       34.718     3353.745     3665.271     1205.361        0.707        0.411       65.980       37.381        0.321      338.324       10.897      870.054
01/12/2021  23:48:00       60.128      -73.975      -22.259       50.924       41.076       30.038     2593.282     1687.268      902.254        0.738        0.259       95.330       31.615        0.110      338.481       11.161      870.076
01/12/2021  23:49:00       58.093      -62.417      -19.288       60.771       25.983       28.964     3693.059      675.138      838.936        0.642        0.260       85.269       39.899        0.219      338.536       11.254      870.137
01/12/2021  23:50:00       91.055      -60.651      -31.853       52.559       37.527       22.685     2762.410     1408.301      514.612        0.883        0.234      109.405       31.988        0.085      338.466       11.136      870.155
01/12/2021  23:51:00      107.093      -55.851      -31.772       62.481       56.034       37.478     3903.937     3139.849     1404.600        1.202        0.422      120.782       40.044        0.110      338.404       11.032      870.131
01/12/2021  23:52:00       49.480      -39.251      -17.524       55.113       59.150       34.954     3037.404     3498.716     1221.762        0.603        0.388       63.157       31.926        0.256      338.388       11.005      870.095
01/12/2021  23:53:00       48.485      -49.087      -13.649       50.532       42.134       29.264     2553.516     1775.264      856.393        0.506        0.259       68.996       34.421        0.249      338.575       11.321      870.137
01/12/2021  23:54:00       58.727      -16.598      -11.585       60.952       79.283       25.738     3715.136     6285.798      662.459        0.726        0.533       61.028       33.751        0.306      338.564       11.301      870.148
01/12/2021  23:55:00      133.369       68.581      -20.749       53.703       22.641       27.906     2884.029      512.618      778.761        1.355        0.209      149.969       36.294        0.059      338.550       11.277      870.120
01/12/2021  23:56:00       43.802       25.479      -13.761       64.117       31.259       27.475     4111.028      977.119      754.863        0.430        0.292       50.673       38.303        0.571      338.391       11.009      870.121
01/12/2021  23:57:00       -2.740      -21.937      -19.252       44.013       16.429       21.724     1937.148      269.900      471.946        0.177        0.134       22.107       27.840        1.586      338.257       10.787      870.112
01/12/2021  23:58:00      -21.451      -11.300       -9.913       41.210       11.580       18.109     1698.277      134.103      327.950        0.142        0.108       24.245       24.670        1.035      338.378       10.990      870.091
01/12/2021  23:59:00       46.256       45.817       -3.709       48.680       18.941       24.372     2369.779      358.751      593.979        0.379        0.166       65.106       28.342        0.190      338.383       10.998      870.081
01/13/2021  00:00:00       19.159       34.300       -9.349       43.399       28.305       21.740     1883.446      801.195      472.636        0.239        0.158       39.288       28.855        0.539      338.487       11.171      870.093
01/13/2021  00:01:00      -11.398       59.030       -9.709       51.008       34.786       23.965     2601.821     1210.041      574.345        0.405        0.219       60.121       25.890        0.185      338.666       11.470      870.105
01/13/2021  00:02:00       19.674       35.872       -5.783       43.135       16.609       22.111     1860.608      275.866      488.879        0.217        0.131       40.913       24.281        0.352      338.564       11.301      870.106
01/13/2021  00:03:00       91.629       80.084      -17.833       61.660       18.585       26.275     3801.911      345.393      690.370        0.998        0.242      121.693       36.259        0.089      338.626       11.406      870.100
01/13/2021  00:04:00       34.728       81.158      -11.744       46.178       24.808       20.827     2132.382      615.446      433.771        0.556        0.159       88.276       24.155        0.075      338.507       11.205      870.110
01/13/2021  00:05:00      109.938       80.160      -14.908       63.461       25.183       28.633     4027.295      634.173      819.869        1.211        0.274      136.059       37.089        0.074      338.497       11.189      870.083
01/13/2021  00:06:00      120.890       50.670      -17.361       49.705       29.846       27.852     2470.554      890.791      775.715        1.081        0.207      131.080       32.299        0.061      338.328       10.903      870.073
01/13/2021  00:07:00      130.090       44.436      -12.167       59.082       16.332       28.984     3490.665      266.737      840.047        1.182        0.230      137.470       36.358        0.070      338.249       10.771      870.024
01/13/2021  00:08:00       34.342       14.589      -10.275       56.072       31.872       28.910     3144.090     1015.812      835.802        0.325        0.250       37.312       28.875        0.599      338.233       10.745      870.023
01/13/2021  00:09:00      -18.362      -55.332      -12.169       61.380       49.112       32.590     3767.464     2412.015     1062.106        0.539        0.362       58.299       20.209        0.120      338.196       10.683      870.102
01/13/2021  00:10:00      -74.179      -82.784      -30.623      106.430       87.874       38.401    11327.336     7721.923     1474.611        1.690        1.026      111.156       26.189        0.056      337.959       10.285      870.148
01/13/2021  00:11:00      -21.866      -58.640       -6.676       54.911       52.238       37.474     3015.233     2728.787     1404.277        0.555        0.357       62.584       33.074        0.279      337.828       10.065      870.162
01/13/2021  00:12:00        4.849        3.120        0.849       46.117       26.312       27.710     2126.733      692.335      767.864        0.181        0.179        5.766       26.956       21.852      337.745        9.927      870.159
01/13/2021  00:13:00        0.380       -2.816      -10.877       60.599       33.833       33.800     3672.258     1144.690     1142.418        0.304        0.298        2.842       32.273      128.954      337.744        9.925      870.106
01/13/2021  00:14:00       67.765      -48.302      -23.126       66.678       43.734       36.235     4446.011     1912.704     1312.984        0.756        0.384       83.218       45.022        0.293      337.745        9.926      870.091
01/13/2021  00:15:00       21.140      -26.118      -16.383       62.245       37.885       31.262     3874.441     1435.240      977.302        0.384        0.314       33.601       28.318        0.710      337.695        9.843      870.174
01/13/2021  00:16:00      -33.343       -8.023      -18.158       73.664       30.383       37.149     5426.313      923.138     1380.015        0.462        0.386       34.295       35.068        1.046      337.734        9.908      870.249
01/13/2021  00:17:00        4.491       20.308       -6.422       56.428       20.285       29.559     3184.169      411.484      873.749        0.247        0.223       20.799       37.275        3.212      337.684        9.825      870.250
01/13/2021  00:18:00       24.897      -39.049      -20.350       61.604       46.712       33.463     3795.012     2181.980     1119.800        0.483        0.355       46.310       37.737        0.664      337.742        9.922      870.247
01/13/2021  00:19:00       37.269      -33.458      -17.723       54.306       64.463       35.529     2949.195     4155.516     1262.293        0.559        0.418       50.084       33.875        0.457      337.600        9.683      870.237
01/13/2021  00:20:00       68.419        7.243      -29.318       66.024       52.522       38.509     4359.206     2758.544     1482.960        0.710        0.430       68.801       41.501        0.364      337.513        9.537      870.138
01/13/2021  00:21:00       85.647       -3.239      -22.136       72.884       57.512       38.123     5312.070     3307.632     1453.393        0.895        0.504       85.708       43.339        0.256      337.568        9.629      870.094
01/13/2021  00:22:00      147.590       36.661      -23.314       79.313       47.474       43.018     6290.487     2253.783     1850.575        1.703        0.520      152.075       48.254        0.101      337.584        9.656      870.113
01/13/2021  00:23:00       95.612       14.149      -19.260       76.129       46.162       35.666     5795.597     2130.944     1272.080        0.945        0.460       96.653       44.035        0.208      337.601        9.684      870.135
01/13/2021  00:24:00       65.370       18.269      -24.300       63.111       59.609       36.268     3983.029     3553.260     1315.388        0.702        0.443       67.875       39.397        0.337      337.628        9.730      870.126
01/13/2021  00:25:00       38.263       -0.539      -17.217       53.933       17.751       25.704     2908.770      315.109      660.689        0.282        0.194       38.267       35.066        0.840      337.470        9.465      870.135
01/13/2021  00:26:00       -8.271       16.996      -15.550       49.648       16.655       26.228     2464.969      277.375      687.898        0.201        0.172       18.901       26.920        2.028      337.536        9.575      870.142
01/13/2021  00:27:00     -121.093       24.028      -26.321       46.499       17.314       21.318     2162.135      299.763      454.470        0.942        0.146      123.454       24.584        0.040      337.276        9.141      870.146
01/13/2021  00:28:00     -156.258       -0.752      -10.945       70.631       46.775       28.992     4988.808     2187.904      840.554        1.628        0.401      156.260       14.547        0.009      337.439        9.413      870.196
01/13/2021  00:29:00      -60.546       14.025       -6.472       65.271       43.808       29.452     4260.324     1919.171      867.403        0.547        0.352       62.149       22.997        0.137      337.542        9.586      870.245
01/13/2021  00:30:00      -32.539       42.919      -12.543       85.877       26.169       24.098     7374.863      684.804      580.733        0.585        0.432       53.859       28.567        0.281      337.975       10.312      870.211
01/13/2021  00:31:00      -52.610       47.031      -28.224      140.300       46.011       35.737    19683.960     2117.010     1277.132        1.442        1.154       70.567       35.419        0.252      337.885       10.160      870.178
01/13/2021  00:32:00     -112.550       61.504      -28.986      109.437       60.387       35.918    11976.551     3646.620     1290.120        1.710        0.846      128.259       21.052        0.027      337.602        9.686      870.217
01/13/2021  00:33:00       19.823       96.088      -10.732       56.009       48.528       27.367     3136.975     2354.930      748.974        0.799        0.312       98.111       30.417        0.096      337.945       10.261      870.148
01/13/2021  00:34:00      -10.266       49.625      -18.076       56.947       42.635       23.701     3242.938     1817.743      561.746        0.426        0.281       50.676       16.804        0.110      337.831       10.071      870.157
01/13/2021  00:35:00       24.001       21.287      -10.398       55.724       21.968       28.194     3105.175      482.587      794.906        0.276        0.219       32.081       34.592        1.163      337.823       10.056      870.237
01/13/2021  00:36:00      -13.593      -44.764      -11.906       54.276       32.651       29.431     2945.831     1066.112      866.186        0.360        0.244       46.782       31.060        0.441      337.897       10.182      870.266
01/13/2021  00:37:00       32.567       11.273      -21.494       53.134       30.806       27.403     2823.239      949.028      750.922        0.309        0.226       34.463       34.022        0.975      337.945       10.261      870.220
01/13/2021  00:38:00      -64.580       -3.431      -19.744       82.280       67.256       46.199     6770.038     4523.383     2134.323        0.900        0.671       64.671       20.002        0.096      337.782        9.989      870.200
01/13/2021  00:39:00      -62.890       -1.204        0.713       84.776       66.128       44.678     7186.981     4372.969     1996.162        0.875        0.678       62.901       29.790        0.224      337.467        9.460      870.184
01/13/2021  00:40:00       15.693       59.370      -33.974      101.466       40.506       35.635    10295.388     1640.724     1269.881        0.906        0.660       61.409       28.911        0.222      337.827       10.064      870.148
01/13/2021  00:41:00      140.191      101.819      -32.689       58.158       38.336       32.937     3382.380     1469.678     1084.861        1.851        0.297      173.264       29.653        0.029      338.009       10.368      870.119
01/13/2021  00:42:00       69.294       69.783      -16.201       82.941       51.461       31.995     6879.161     2648.202     1023.653        1.024        0.528       98.343       44.332        0.203      337.635        9.742      870.116
01/13/2021  00:43:00       34.358        3.801      -16.644       51.304       43.182       26.661     2632.088     1864.679      710.820        0.334        0.260       34.568       30.193        0.763      337.688        9.831      870.160
01/13/2021  00:44:00       12.422       -9.921      -10.832       50.191       44.106       34.437     2519.118     1945.362     1185.886        0.301        0.283       15.897       35.901        5.100      337.654        9.775      870.126
01/13/2021  00:45:00       78.807      -33.198      -37.088       56.898       73.395       34.544     3237.351     5386.854     1193.267        0.925        0.491       85.515       33.858        0.157      337.566        9.625      870.075
01/13/2021  00:46:00       65.203      -21.716      -36.018       72.291       61.748       33.342     5225.925     3812.763     1111.711        0.808        0.508       68.724       31.812        0.214      337.642        9.754      870.034
01/13/2021  00:47:00       28.310      -19.497      -20.549       69.732       42.326       35.878     4862.534     1791.470     1287.238        0.477        0.397       34.374       33.257        0.936      337.616        9.708      870.067
01/13/2021  00:48:00      -23.030        0.556      -12.781       92.134       56.605       45.908     8488.603     3204.089     2107.574        0.724        0.690       23.037       24.687        1.148      337.563        9.621      870.140
01/13/2021  00:49:00     -214.620      -43.359       -8.876      172.271       94.797       72.605    29677.130     8986.422     5271.512        4.597        2.197      218.956       63.063        0.083      337.394        9.336      870.197
01/13/2021  00:50:00     -134.938      -64.647      -24.810      107.066       66.853       53.057    11463.232     4469.363     2815.080        2.087        0.937      149.624       44.102        0.087      337.569        9.630      870.217
01/13/2021  00:51:00      -34.951      -20.524      -21.436       55.124       24.516       23.876     3038.688      601.027      570.041        0.316        0.210       40.532       30.723        0.575      337.790       10.002      870.191
01/13/2021  00:52:00       31.765       20.462      -12.369       51.353       18.015       26.232     2637.111      324.549      688.113        0.261        0.182       37.785       33.722        0.796      338.155       10.614      870.158
01/13/2021  00:53:00      -14.668      -73.633      -27.173       51.765       41.928       26.583     2679.605     1757.993      706.645        0.576        0.257       75.080       30.936        0.170      337.887       10.164      870.169
01/13/2021  00:54:00      -80.277      -31.473      -18.586       68.809       53.367       39.350     4734.658     2848.058     1548.420        0.845        0.457       86.226       32.865        0.145      337.729        9.900      870.200
01/13/2021  00:55:00      -71.720      -66.244      -11.883       93.864       55.536       44.960     8810.526     3084.194     2021.358        1.179        0.696       97.632       35.798        0.134      337.705        9.859      870.226
01/13/2021  00:56:00      -58.755      -35.541      -13.199       61.543       55.327       36.135     3787.514     3061.061     1305.741        0.652        0.408       68.668       35.735        0.271      337.577        9.644      870.236
01/13/2021  00:57:00      -53.798        6.919       -8.545       74.657       45.717       31.816     5573.664     2090.068     1012.267        0.584        0.434       54.241       22.949        0.179      337.489        9.498      870.226
01/13/2021  00:58:00     -201.119      -13.117      -13.792       94.266       67.171       37.694     8886.107     4511.904     1420.812        2.781        0.741      201.546       24.192        0.014      337.300        9.180      870.233
01/13/2021  00:59:00     -200.912        0.182      -14.911       84.079       53.592       30.283     7069.197     2872.066      917.081        2.572        0.543      200.912       22.018        0.012      337.347        9.258      870.233
01/13/2021  01:00:00      -64.936        5.092        8.767       75.685       49.841       36.962     5728.231     2484.162     1366.202        0.695        0.479       65.136       18.227        0.078      337.423        9.388      870.228
01/13/2021  01:01:00        5.055      -29.970      -11.830       60.985       31.793       31.946     3719.213     1010.792     1020.545        0.341        0.288       30.393       34.493        1.288      337.811       10.036      870.229
01/13/2021  01:02:00      -20.648      -35.580      -12.627       47.683       18.649       22.530     2273.649      347.771      507.601        0.249        0.156       41.137       27.773        0.456      337.775        9.976      870.236
01/13/2021  01:03:00      -76.122       -6.000      -14.377       86.288       46.457       34.618     7445.670     2158.237     1198.385        0.842        0.540       76.358       26.205        0.118      337.590        9.665      870.280
01/13/2021  01:04:00     -197.872      -16.470        2.811       82.110       56.650       46.643     6742.118     3209.249     2175.584        2.578        0.606      198.556       42.207        0.045      337.554        9.603      870.335
01/13/2021  01:05:00     -146.428       48.683       -6.324       85.160       49.517       37.514     7252.279     2451.899     1407.296        1.748        0.556      154.309       23.804        0.024      337.624        9.722      870.334
01/13/2021  01:06:00       32.484       45.298      -17.324       79.493       50.467       32.533     6319.082     2546.959     1058.391        0.666        0.496       55.742       39.632        0.506      337.639        9.747      870.269
01/13/2021  01:07:00      148.512       50.217      -28.718       63.400       27.052       31.635     4019.615      731.805     1000.784        1.558        0.288      156.772       37.828        0.058      337.460        9.448      870.134
01/13/2021  01:08:00      190.798       45.888      -23.622       93.025       51.950       38.594     8653.680     2698.838     1489.463        2.595        0.642      196.239       40.493        0.043      337.440        9.412      870.048
01/13/2021  01:09:00      103.517       35.768      -23.146       64.035       43.685       32.586     4100.491     1908.385     1061.832        0.980        0.354      109.522       35.570        0.105      337.391        9.333      870.095
01/13/2021  01:10:00       18.466        8.369       -6.435       62.471       27.605       32.942     3902.676      762.031     1085.172        0.310        0.287       20.273       23.163        1.305      337.467        9.460      870.170
01/13/2021  01:11:00      -19.720       -4.227       -5.008       81.495       56.644       42.994     6641.449     3208.539     1848.445        0.606        0.585       20.168       28.059        1.936      337.423        9.387      870.212
01/13/2021  01:12:00     -183.970      -21.797      -14.410       53.123       37.784       26.008     2822.090     1427.619      676.412        1.973        0.246      185.257       18.872        0.010      337.498        9.512      870.267
01/13/2021  01:13:00     -116.957        7.470      -10.195       84.329       40.769       32.507     7111.356     1662.071     1056.725        1.183        0.492      117.195       12.789        0.012      337.592        9.669      870.315
01/13/2021  01:14:00     -107.552       40.535      -10.888       79.910       39.406       38.633     6385.663     1552.796     1492.543        1.138        0.472      114.937       28.290        0.061      337.584        9.656      870.336
01/13/2021  01:15:00      -16.644       67.506      -12.630       59.492       33.476       24.992     3539.279     1120.646      624.602        0.514        0.264       69.527       27.846        0.160      337.781        9.989      870.326
01/13/2021  01:16:00        1.299       24.698      -12.575       54.602       23.943       27.148     2981.385      573.249      736.987        0.253        0.215       24.732       30.513        1.522      337.754        9.942      870.303
01/13/2021  01:17:00       63.404        7.648      -15.251       60.781       16.604       28.856     3694.275      275.678      832.681        0.456        0.240       63.864       39.265        0.378      337.701        9.853      870.291
01/13/2021  01:18:00       42.974      -64.048      -30.188       65.720       24.214       28.168     4319.060      586.321      793.432        0.628        0.285       77.129       41.188        0.285      337.668        9.796      870.283
01/13/2021  01:19:00      124.271     -128.063      -54.683       80.097       51.086       37.598     6415.607     2609.759     1413.646        2.263        0.522      178.447       45.497        0.065      337.707        9.860      870.262
01/13/2021  01:20:00      128.342      -52.643      -36.899       73.688       54.902       39.091     5429.854     3014.262     1528.118        1.529        0.499      138.719       47.380        0.117      337.781        9.987      870.185
01/13/2021  01:21:00       51.540      -74.365      -20.664       79.873       51.486       39.241     6379.726     2650.780     1539.877        0.959        0.529       90.480       47.960        0.281      337.882       10.156      870.155
01/13/2021  01:22:00       -9.976        6.234      -14.809       70.311       69.887       36.572     4943.629     4884.187     1337.507        0.576        0.558       11.764       21.114        3.221      337.652        9.771      870.180
01/13/2021  01:23:00     -157.413      -20.377       -6.219      100.465       48.090       38.411    10093.143     2312.673     1475.425        1.955        0.694      158.726       18.826        0.014      337.590        9.665      870.214
01/13/2021  01:24:00     -180.083      -25.087      -13.974      105.287       59.673       40.788    11085.284     3560.898     1663.643        2.478        0.815      181.822       37.644        0.043      337.513        9.535      870.233
01/13/2021  01:25:00      -93.323      -15.872      -13.421       97.448       47.821       34.097     9496.132     2286.809     1162.612        1.104        0.647       94.663       24.276        0.066      337.582        9.652      870.226
01/13/2021  01:26:00      -96.737        8.598       -6.365       69.173       26.370       27.653     4784.957      695.386      764.683        0.786        0.312       97.118       28.280        0.085      337.711        9.869      870.188
01/13/2021  01:27:00        8.511      -23.498      -27.587       54.070       22.864       27.257     2923.529      522.770      742.935        0.279        0.209       24.991       33.812        1.831      337.805       10.027      870.150
01/13/2021  01:28:00      -87.864       15.956      -17.142       66.963       35.826       28.105     4484.070     1283.473      789.871        0.741        0.328       89.301        5.156        0.003      337.582        9.654      870.131
01/13/2021  01:29:00      -69.803       -9.852       -5.761       81.455       44.033       34.515     6634.957     1938.876     1191.282        0.738        0.488       70.495       17.140        0.059      337.345        9.257      870.134
01/13/2021  01:30:00     -143.847       27.547        2.048       75.722       42.687       35.471     5733.799     1822.199     1258.202        1.513        0.441      146.461        4.596        0.001      337.245        9.090      870.119
01/13/2021  01:31:00        2.401        6.330       -7.581       61.932       26.791       29.023     3835.612      717.773      842.325        0.275        0.270        6.770       33.911       25.091      337.412        9.369      870.033
01/13/2021  01:32:00      119.021       16.668      -30.179       64.402       26.322       32.150     4147.675      692.846     1033.597        1.061        0.294      120.183       42.458        0.125      337.378        9.312      869.937
01/13/2021  01:33:00       56.340      -16.915      -11.978       75.864       40.473       37.714     5755.380     1638.075     1422.316        0.621        0.441       58.824       49.034        0.695      337.718        9.881      869.907
01/13/2021  01:34:00       12.921      -53.852      -21.891       70.678       43.718       31.257     4995.344     1911.227      977.017        0.571        0.394       55.381       31.619        0.326      337.762        9.955      869.895
01/13/2021  01:35:00       60.548      -27.785      -21.195       65.865       22.348       31.420     4338.168      499.444      987.208        0.535        0.291       66.619       36.943        0.308      337.677        9.812      869.872
01/13/2021  01:36:00       60.452      -41.405      -11.291       77.900       55.396       50.607     6068.448     3068.696     2561.097        0.859        0.585       73.272       51.021        0.485      337.816       10.046      869.834
01/13/2021  01:37:00       83.073       22.428      -36.210       76.477       59.615       34.493     5848.724     3553.901     1189.800        0.965        0.530       86.047       40.968        0.227      337.754        9.942      869.824
01/13/2021  01:38:00       50.745      -36.590      -11.486       58.661       64.465       39.094     3441.061     4155.797     1528.360        0.658        0.456       62.561       41.111        0.432      337.828       10.066      869.836
01/13/2021  01:39:00       86.464      -46.663      -30.546       73.937       64.809       37.338     5466.750     4200.207     1394.122        1.082        0.553       98.252       45.600        0.215      338.087       10.501      869.870
01/13/2021  01:40:00       42.357     -101.007      -36.034      113.028      131.568       50.626    12775.229    17310.201     2562.949        2.296        1.632      109.528       59.211        0.292      338.515       11.217      869.934
01/13/2021  01:41:00     -114.649       67.665      -16.759       64.738       39.211       34.463     4191.030     1537.502     1187.680        1.246        0.346      133.128       13.632        0.010      337.848       10.100      870.010
01/13/2021  01:42:00     -150.675       22.764      -13.636       93.850       55.280       33.786     8807.849     3055.884     1141.513        1.820        0.650      152.385       17.954        0.014      337.647        9.761      870.062
01/13/2021  01:43:00      -72.905       22.118        6.203       94.675       42.568       35.989     8963.386     1812.030     1295.212        0.895        0.604       76.186       13.264        0.030      337.655        9.775      870.100
01/13/2021  01:44:00      -80.666        6.855        1.018      104.587       40.114       40.333    10938.539     1609.094     1626.760        1.036        0.709       80.957       15.245        0.035      337.655        9.775      870.128
01/13/2021  01:45:00      -76.274       20.772      -16.375       69.522       37.781       28.354     4833.280     1427.427      803.960        0.679        0.353       79.052       10.040        0.016      337.817       10.048      870.114
01/13/2021  01:46:00      -33.092       20.667       -5.428       59.277       31.406       34.361     3513.735      986.320     1180.692        0.361        0.284       39.015       25.816        0.438      337.920       10.220      870.083
01/13/2021  01:47:00      -78.566        5.640      -14.176       45.820       11.992       21.092     2099.437      143.807      444.869        0.455        0.134       78.768       23.484        0.089      338.200       10.688      870.047
01/13/2021  01:48:00       36.633      -19.725      -21.323       55.803       21.289       25.972     3113.963      453.223      674.557        0.321        0.212       41.606       35.017        0.708      338.205       10.698      869.977
01/13/2021  01:49:00       36.086      -26.299      -15.719       57.516       39.108       26.063     3308.044     1529.462      679.288        0.388        0.276       44.653       33.955        0.578      338.429       11.074      869.943
01/13/2021  01:50:00      -45.040       12.074       -9.858       55.959       27.384       25.428     3131.395      749.900      646.603        0.340        0.226       46.631       14.940        0.103      338.035       10.412      869.980
01/13/2021  01:51:00      -54.569      -18.234      -10.146       49.304       26.984       22.089     2430.917      728.138      487.911        0.353        0.182       57.535       26.360        0.210      337.967       10.298      870.008
01/13/2021  01:52:00      -49.245      -70.695      -16.375       77.990       31.677       28.557     6082.436     1003.418      815.503        0.779        0.395       86.156       37.657        0.191      338.731       11.582      869.981
01/13/2021  01:53:00       75.025     -107.641      -29.561       76.921       74.770       42.828     5916.813     5590.516     1834.201        1.571        0.667      131.207       52.453        0.160      338.511       11.211      869.882
01/13/2021  01:54:00       64.563     -119.801      -29.052       66.126       90.901       28.107     4372.643     8262.977      790.003        1.639        0.671      136.091       40.380        0.088      338.699       11.527      869.849
01/13/2021  01:55:00      -40.134      -36.691       -4.997       92.179       62.770       31.120     8497.048     3940.050      968.446        0.819        0.670       54.378       33.693        0.384      338.491       11.179      869.905
01/13/2021  01:56:00      -86.963     -106.908      -18.104       77.611       44.889       35.519     6023.411     2014.997     1261.595        1.431        0.465      137.811       16.498        0.014      338.922       11.902      869.897
01/13/2021  01:57:00     -148.625       -9.662      -13.555       62.717       33.595       33.870     3933.441     1128.649     1147.176        1.429        0.310      148.939       16.943        0.013      338.419       11.057      869.923
01/13/2021  01:58:00     -106.836      -18.037      -12.253       77.929       57.551       32.073     6072.926     3312.130     1028.660        1.115        0.521      108.348       26.474        0.060      338.485       11.170      869.926
01/13/2021  01:59:00     -132.358      -81.257      -27.575       64.696       58.988       34.288     4185.607     3479.638     1175.675        1.686        0.442      155.311       30.112        0.038      338.669       11.476      869.903
01/13/2021  02:00:00      -52.351      -86.938      -15.525      106.082       52.365       35.253    11253.337     2742.138     1242.751        1.289        0.762      101.483       31.550        0.097      338.764       11.637      869.873
01/13/2021  02:01:00     -164.336      -33.552      -11.667       90.802       58.220       45.186     8245.034     3389.560     2041.734        2.097        0.684      167.726       30.602        0.033      338.719       11.560      869.894
01/13/2021  02:02:00     -184.186      -57.358       -9.493      134.288       68.372       53.839    18033.326     4674.686     2898.647        3.145        1.280      192.910       39.568        0.042      338.763       11.632      869.899
01/13/2021  02:03:00      -96.892      -84.179        0.008      102.629      101.618       48.161    10532.621    10326.297     2319.463        1.982        1.159      128.351       36.884        0.083      338.862       11.800      869.871
01/13/2021  02:04:00     -140.729     -135.903      -27.607      109.280       89.568       47.289    11942.200     8022.480     2236.261        3.061        1.110      195.638       27.989        0.020      339.054       12.122      869.809
01/13/2021  02:05:00     -123.978     -107.962      -23.389       93.079       83.573       45.605     8663.718     6984.482     2079.799        2.265        0.886      164.397       39.492        0.058      339.037       12.095      869.796
01/13/2021  02:06:00      -61.134      -22.010      -18.908       72.924       39.008       30.502     5317.899     1521.592      930.399        0.617        0.388       64.976       11.942        0.034      338.902       11.870      869.838
01/13/2021  02:07:00     -149.401      -50.058      -11.364       81.350       57.855       41.901     6617.844     3347.164     1755.717        1.834        0.586      157.564       26.218        0.028      338.840       11.765      869.875
01/13/2021  02:08:00     -102.951      -83.315      -18.875       66.206       74.509       33.965     4383.227     5551.652     1153.601        1.449        0.554      132.440       20.160        0.023      338.893       11.853      869.911
01/13/2021  02:09:00     -152.172      -55.921      -22.240       84.369       61.424       40.198     7118.062     3772.958     1615.889        1.964        0.625      162.122       26.067        0.026      338.894       11.854      869.964
01/13/2021  02:10:00     -134.488     -149.629      -20.051       88.943      114.183       47.438     7910.935    13037.789     2250.359        3.203        1.160      201.186       29.567        0.022      339.001       12.035      869.980
01/13/2021  02:11:00     -133.430     -122.884      -29.539       71.492       78.030       40.929     5111.095     6088.668     1675.220        2.332        0.644      181.395       26.158        0.021      339.052       12.119      869.992
01/13/2021  02:12:00     -102.826     -112.310      -23.894       71.303       77.932       40.123     5084.096     6073.456     1609.889        1.826        0.638      152.271        6.668        0.002      339.078       12.163      869.973
01/13/2021  02:13:00     -148.658     -105.981      -24.557       80.338       89.390       40.867     6454.114     7990.596     1670.134        2.502        0.806      182.569       27.890        0.023      339.013       12.055      869.931
01/13/2021  02:14:00     -104.131      -48.413      -12.210       92.891       76.442       45.587     8628.776     5843.364     2078.166        1.494        0.828      114.835       23.801        0.043      338.979       11.997      869.961
01/13/2021  02:15:00     -171.478     -181.605      -20.026      136.701      142.316       55.521    18687.106    20253.831     3082.587        5.240        2.101      249.770       62.651        0.063      339.112       12.219      870.014
01/13/2021  02:16:00     -258.609     -215.598      -35.062       96.445      121.707       49.640     9301.674    14812.504     2464.150        7.058        1.329      336.691       45.853        0.019      339.169       12.314      870.039
01/13/2021  02:17:00     -167.291     -156.709      -15.222       93.664       92.947       50.126     8773.012     8639.098     2512.626        3.635        0.996      229.225       37.677        0.027      339.164       12.307      870.074
01/13/2021  02:18:00     -213.946      -64.730      -25.099      105.027       76.704       42.040    11030.676     5883.519     1767.327        3.463        0.934      223.524       34.966        0.024      339.162       12.303      870.057
01/13/2021  02:19:00      -64.077      -36.290      -15.960       77.355       65.676       35.213     5983.776     4313.315     1239.954        0.860        0.577       73.640       30.214        0.168      339.174       12.326      870.065
01/13/2021  02:20:00     -201.927        8.084       -9.192      137.912       93.336       52.302    19019.605     8711.523     2735.541        3.569        1.523      202.089       53.741        0.071      339.232       12.422      870.053
01/13/2021  02:21:00     -212.412      -69.385      -19.694      144.562      129.720       60.147    20898.206    16827.258     3617.671        4.582        2.067      223.457       50.104        0.050      339.258       12.464      870.065
01/13/2021  02:22:00     -211.696      -13.404      -22.752      188.522      134.490       78.012    35540.464    18087.493     6085.847        5.260        2.986      212.120       94.172        0.197      339.255       12.461      870.062
01/13/2021  02:23:00     -303.788       18.149      -10.621      191.068      134.240       86.522    36507.062    18020.491     7486.121        7.736        3.101      304.329       92.391        0.092      339.277       12.497      870.081
01/13/2021  02:24:00      -72.589       -6.010       -8.158      150.455       82.127       50.968    22636.600     6744.772     2597.703        1.867        1.599       72.837       39.116        0.288      339.244       12.445      870.095
01/13/2021  02:25:00      -95.882      -13.850        8.084      139.124       95.472       67.810    19355.523     9114.915     4598.259        2.125        1.653       96.877       70.049        0.523      339.237       12.433      870.098
01/13/2021  02:26:00      -70.179       -7.434       -5.446       96.661       64.567       41.719     9343.378     4168.928     1740.487        1.013        0.763       70.572       16.624        0.055      339.338       12.603      870.084
01/13/2021  02:27:00     -246.804       21.884      -29.161      228.162      126.146       64.461    52057.982    15912.768     4155.261        6.717        3.606      247.773       85.332        0.119      339.318       12.565      870.094
01/13/2021  02:28:00     -416.744      -17.945      -16.028      162.314      129.031       87.734    26345.713    16648.923     7697.199       11.246        2.535      417.130       84.423        0.041      339.320       12.569      870.072
01/13/2021  02:29:00     -283.023        0.133       -8.750      131.208      129.698       74.216    17215.611    16821.660     5508.001        5.985        1.977      283.023       63.089        0.050      339.302       12.537      870.081
01/13/2021  02:30:00     -283.714      -10.496       -0.182      170.156      128.108       77.374    28953.183    16411.591     5986.662        6.597        2.568      283.908       71.266        0.063      339.259       12.467      870.084
01/13/2021  02:31:00     -186.950      -26.289      -10.070      134.413      108.022       70.090    18066.848    11668.708     4912.610        3.519        1.732      188.789       62.357        0.109      339.260       12.470      870.092
01/13/2021  02:32:00     -194.942       64.830       -7.350      105.284      105.954       64.956    11084.815    11226.281     4219.239        3.439        1.327      205.440       58.366        0.081      339.317       12.565      870.090
01/13/2021  02:33:00     -150.999       -8.088       -7.016       97.455       67.650       54.014     9497.547     4576.569     2917.459        1.995        0.850      151.216       35.524        0.055      339.244       12.442      870.065
01/13/2021  02:34:00     -159.848      -64.017       -4.012      107.570       83.681       52.232    11571.346     7002.486     2728.190        2.548        1.065      172.191       34.138        0.039      339.235       12.427      870.037
01/13/2021  02:35:00     -225.333     -115.981      -33.731      143.793      109.289       69.925    20676.501    11944.139     4889.440        5.143        1.876      253.429       63.545        0.063      339.260       12.468      869.987
01/13/2021  02:36:00     -276.094      -66.834      -25.572      122.512       97.858       65.342    15009.190     9576.280     4269.602        5.510        1.443      284.068       34.235        0.015      339.226       12.412      869.969
01/13/2021  02:37:00     -328.968      -11.050      -29.392      111.519       77.496       53.130    12436.509     6005.695     2822.788        6.523        1.063      329.153       41.993        0.016      339.280       12.502      869.927
01/13/2021  02:38:00     -237.365       20.855      -18.469      148.535      149.617       63.461    22062.556    22385.276     4027.346        5.279        2.424      238.279       41.425        0.030      339.260       12.469      869.915
01/13/2021  02:39:00     -103.083       -1.512       -3.237      111.478      102.703       50.629    12427.330    10547.877     2563.268        1.808        1.277      103.094       43.447        0.178      339.242       12.441      869.895
01/13/2021  02:40:00     -256.015      -54.368        9.475      194.564      114.239       78.161    37855.288    13050.623     6109.085        6.279        2.851      261.724       84.568        0.104      339.287       12.513      869.833
01/13/2021  02:41:00     -313.247      -35.317       -8.852      205.321      111.460       70.996    42156.689    12423.349     5040.378        7.952        2.981      315.231       84.205        0.071      339.267       12.482      869.790
01/13/2021  02:42:00      -76.157      -37.442        0.759       98.601       80.077       44.212     9722.133     6412.248     1954.725        1.264        0.904       84.864       29.402        0.120      339.266       12.483      869.771
01/13/2021  02:43:00      -71.269      -27.675       -6.041       84.369       44.127       37.226     7118.064     1947.225     1385.788        0.816        0.523       76.454       19.923        0.068      339.256       12.467      869.739
01/13/2021  02:44:00     -180.061      -80.971      -14.800       74.931       48.216       35.074     5614.701     2324.735     1230.210        2.418        0.458      197.429       21.243        0.012      339.195       12.361      869.736
01/13/2021  02:45:00     -118.245      -86.640      -24.627       61.501       46.957       29.984     3782.366     2204.958      899.054        1.449        0.344      146.589       17.769        0.015      339.258       12.468      869.733
01/13/2021  02:46:00     -120.377      -85.797      -13.940       66.095       40.177       39.631     4368.596     1614.209     1570.597        1.480        0.378      147.824       11.894        0.006      339.225       12.412      869.736
01/13/2021  02:47:00       24.388      -51.982      -20.659       68.267       66.983       28.842     4660.443     4486.667      831.885        0.685        0.499       57.419       33.085        0.332      339.247       12.449      869.736
01/13/2021  02:48:00      100.515     -134.016      -53.862       90.172       74.436       33.350     8131.032     5540.690     1112.234        2.287        0.739      167.522       51.002        0.093      339.138       12.264      869.747
01/13/2021  02:49:00       91.038     -113.977      -28.171       53.920       84.100       43.748     2907.419     7072.762     1913.869        1.698        0.595      145.872       39.551        0.074      339.117       12.230      869.721
01/13/2021  02:50:00       89.875     -106.439      -46.797       64.691       53.815       33.760     4184.924     2896.037     1139.715        1.491        0.411      139.308       35.189        0.064      339.099       12.200      869.688
01/13/2021  02:51:00       59.098      -93.654      -35.275       59.310       48.921       30.008     3517.643     2393.297      900.510        1.016        0.341      110.742       28.368        0.066      339.053       12.123      869.670
01/13/2021  02:52:00      107.631     -139.249      -28.063       48.519       32.880       23.507     2354.101     1081.110      552.567        1.787        0.199      175.996       27.892        0.025      339.028       12.080      869.650
01/13/2021  02:53:00      103.811      -74.769      -29.818       59.609       47.334       36.125     3553.213     2240.514     1305.024        1.218        0.355      127.934       27.784        0.047      339.019       12.064      869.638
01/13/2021  02:54:00       63.530      -78.478      -22.588       54.905       42.122       32.069     3014.569     1774.269     1028.441        0.826        0.291      100.970       36.722        0.132      338.988       12.011      869.615
01/13/2021  02:55:00       68.066      -59.870      -30.015       52.628       58.750       36.679     2769.671     3451.588     1345.356        0.834        0.378       90.650       29.255        0.104      338.927       11.911      869.562
01/13/2021  02:56:00      -16.735      -27.171      -20.780       54.305       40.247       25.771     2948.984     1619.851      664.128        0.334        0.262       31.911       19.456        0.372      338.965       11.975      869.530
01/13/2021  02:57:00       71.490     -107.182      -35.757       63.814       71.016       33.452     4072.261     5043.312     1119.010        1.405        0.512      128.837       35.067        0.074      339.120       12.234      869.447
01/13/2021  02:58:00       26.707      -96.300      -41.251       92.693       58.573       44.514     8591.921     3430.754     1981.478        1.284        0.700       99.935       41.905        0.176      339.053       12.124      869.375
01/13/2021  02:59:00       -4.438      -24.209      -23.735       91.777       38.403       29.861     8422.941     1474.806      891.652        0.598        0.539       24.612       28.922        1.381      339.085       12.178      869.337
01/13/2021  03:00:00       -4.737      -45.876      -16.751       61.723       23.729       28.777     3809.715      563.056      828.119        0.380        0.260       46.119       23.097        0.251      339.120       12.235      869.370
01/13/2021  03:01:00      -62.142      -58.357      -30.436       59.938       56.690       34.006     3592.530     3213.768     1156.383        0.808        0.398       85.248       30.131        0.125      339.127       12.248      869.429
01/13/2021  03:02:00      -75.495      -18.347       -7.013       69.626       43.093       31.884     4847.806     1857.005     1016.578        0.690        0.386       77.692       16.266        0.044      338.991       12.018      869.458
01/13/2021  03:03:00       18.518      -20.490      -12.408       63.229       32.628       29.650     3997.956     1064.611      879.145        0.343        0.297       27.618       33.004        1.428      338.950       11.949      869.464
01/13/2021  03:04:00       23.584      -16.380      -15.350       49.242       36.073       30.328     2424.748     1301.291      919.783        0.285        0.232       28.714       31.213        1.182      338.867       11.810      869.488
01/13/2021  03:05:00       39.158      -47.712      -46.946       54.709       31.339       28.499     2993.118      982.110      812.167        0.540        0.239       61.724       33.382        0.293      338.915       11.891      869.503
01/13/2021  03:06:00      -11.553      -15.967      -14.591       49.966       31.878       25.905     2496.558     1016.217      671.069        0.239        0.209       19.708       30.329        2.368      339.025       12.075      869.509
01/13/2021  03:07:00       -5.230      -12.683        3.169       54.040       41.199       28.965     2920.313     1697.384      838.945        0.283        0.273       13.719       25.281        3.396      338.946       11.943      869.550
01/13/2021  03:08:00       -9.147      -97.665      -14.196       69.831       50.006       32.731     4876.378     2500.636     1071.324        0.913        0.422       98.093       27.023        0.076      339.013       12.054      869.553
01/13/2021  03:09:00       53.736     -115.879      -38.675       68.379       40.305       33.625     4675.748     1624.469     1130.658        1.262        0.372      127.732       37.024        0.084      338.892       11.853      869.528
01/13/2021  03:10:00       66.348     -104.719      -36.130       81.049       53.925       34.611     6569.021     2907.946     1197.904        1.367        0.534      123.968       43.252        0.122      338.873       11.821      869.483
01/13/2021  03:11:00       68.778      -80.560      -24.846       60.376       39.918       35.119     3645.228     1593.440     1233.375        0.915        0.324      105.926       35.577        0.113      338.789       11.679      869.390
01/13/2021  03:12:00        1.767      -40.031       -8.252       52.061       17.798       24.938     2710.299      316.753      621.920        0.266        0.182       40.070       32.344        0.652      338.792       11.684      869.364
01/13/2021  03:13:00       -2.242       22.618       -7.932       43.901       32.691       23.256     1927.291     1068.686      540.823        0.206        0.177       22.729       27.459        1.460      338.970       11.983      869.377
01/13/2021  03:14:00       -0.247       12.323       -8.782       48.984       28.070       29.366     2399.464      787.924      862.351        0.214        0.202       12.325       31.038        6.342      338.902       11.870      869.405
01/13/2021  03:15:00        0.082        7.984       -5.682       54.418       33.315       34.348     2961.342     1109.879     1179.773        0.267        0.263        7.985       36.040       20.372      338.896       11.859      869.383
01/13/2021  03:16:00      -14.744       16.734        0.625       41.101       26.337       29.389     1689.292      693.656      863.713        0.187        0.162       22.303       30.651        1.889      338.839       11.763      869.390
01/13/2021  03:17:00      -51.174       20.082      -12.928       50.142       21.014       21.771     2514.250      441.592      473.963        0.331        0.171       54.974       24.592        0.200      338.841       11.767      869.409
01/13/2021  03:18:00      -30.432      -43.452       -9.301       51.610       26.509       24.557     2663.624      702.733      603.028        0.343        0.198       53.048       25.606        0.233      338.861       11.799      869.419
01/13/2021  03:19:00       39.739      -38.761      -15.890       62.831       25.569       30.201     3947.735      653.774      912.077        0.442        0.276       55.513       38.859        0.490      338.868       11.813      869.418
01/13/2021  03:20:00       85.867     -119.300      -33.558       96.301       48.641       32.134     9273.836     2365.922     1032.574        1.770        0.634      146.988       48.676        0.110      338.723       11.568      869.458
01/13/2021  03:21:00      123.307      -61.597      -51.601       61.700       69.297       42.591     3806.903     4802.082     1813.967        1.604        0.521      137.836       39.361        0.082      338.617       11.389      869.450
01/13/2021  03:22:00      133.335     -139.860      -50.445       70.847      111.415       36.984     5019.340    12413.300     1367.847        2.934        0.940      193.233       46.079        0.057      338.679       11.492      869.437
01/13/2021  03:23:00      169.069     -243.185      -51.950       63.150       76.805       41.889     3987.981     5898.968     1754.651        5.103        0.582      296.181       40.448        0.019      338.642       11.428      869.412
01/13/2021  03:24:00      154.802     -191.672      -48.462       61.271       76.611       34.146     3754.148     5869.179     1165.938        3.692        0.539      246.377       34.026        0.019      338.674       11.481      869.388
01/13/2021  03:25:00      149.479     -212.275      -49.057       65.748       51.247       34.176     4322.795     2626.280     1167.980        3.896        0.406      259.624       38.226        0.022      338.629       11.405      869.395
01/13/2021  03:26:00      137.255     -174.636      -52.832       60.181       69.687       28.838     3621.743     4856.346      831.644        3.072        0.465      222.119       34.592        0.024      338.610       11.376      869.388
01/13/2021  03:27:00      108.510     -109.116      -42.966       68.615       56.643       32.092     4708.074     3208.440     1029.897        1.723        0.447      153.886       39.036        0.064      338.530       11.244      869.383
01/13/2021  03:28:00      108.955     -109.858      -41.384       63.569       57.219       32.302     4041.017     3274.012     1043.391        1.700        0.418      154.725       35.786        0.053      338.642       11.430      869.422
01/13/2021  03:29:00      153.571     -174.521      -51.825       60.380       54.768       36.173     3645.757     2999.585     1308.517        3.234        0.398      232.469       38.335        0.027      338.818       11.725      869.467
01/13/2021  03:30:00      147.456     -115.198      -55.588       68.310       63.971       38.460     4666.255     4092.230     1479.199        2.417        0.512      187.120       38.364        0.042      338.692       11.515      869.483
01/13/2021  03:31:00      137.654     -181.296      -54.618       85.051      119.114       44.909     7233.720    14188.173     2016.862        3.911        1.172      227.633       52.167        0.053      338.736       11.587      869.534
01/13/2021  03:32:00      169.623     -137.131      -64.874      118.736      132.014       57.827    14098.342    17427.589     3344.005        4.332        1.743      218.121       65.230        0.089      338.768       11.643      869.524
01/13/2021  03:33:00      114.127      -67.152      -46.783       80.754       94.389       59.909     6521.169     8909.369     3589.066        1.937        0.951      132.417       56.436        0.182      338.851       11.782      869.472
01/13/2021  03:34:00       39.243      -58.252      -14.257       76.459       65.425       40.894     5845.949     4280.424     1672.347        0.847        0.590       70.238       39.981        0.324      338.846       11.775      869.525
01/13/2021  03:35:00       32.981       15.169      -13.596       64.869       36.136       32.034     4207.929     1305.820     1026.206        0.402        0.327       36.303       33.944        0.874      338.698       11.525      869.605
01/13/2021  03:36:00      -17.242      -22.282       -1.127       64.941       34.372       33.761     4217.353     1181.461     1139.798        0.367        0.327       28.174       21.342        0.574      338.675       11.487      869.623
01/13/2021  03:37:00       30.029       -2.125      -15.697       56.889       30.361       27.376     3236.412      921.800      749.428        0.303        0.245       30.104       35.605        1.399      338.741       11.597      869.550
01/13/2021  03:38:00       62.011      -20.626      -18.971       54.948       38.314       29.961     3019.282     1467.986      897.668        0.501        0.269       65.351       34.862        0.285      338.721       11.565      869.511
01/13/2021  03:39:00       14.757        5.718       -9.190       49.515       27.284       25.633     2451.739      744.414      657.034        0.209        0.193       15.826       34.143        4.654      338.730       11.580      869.578
01/13/2021  03:40:00       89.430      -14.697      -17.120       66.063       34.160       41.628     4364.307     1166.877     1732.855        0.788        0.363       90.629       36.118        0.159      339.071       12.152      869.611
01/13/2021  03:41:00       72.959       20.419      -26.352       61.089       38.704       33.148     3731.850     1497.976     1098.804        0.638        0.316       75.762       33.507        0.196      338.855       11.790      869.599
01/13/2021  03:42:00       75.910      -36.258      -34.716       54.657       74.289       33.329     2987.395     5518.817     1110.813        0.895        0.481       84.124       36.196        0.185      338.793       11.686      869.564
01/13/2021  03:43:00       24.486       14.229       -6.241       53.218       21.114       30.924     2832.107      445.809      956.290        0.254        0.212       28.320       37.875        1.789      338.589       11.342      869.599
01/13/2021  03:44:00       70.500       22.137      -14.623       56.574       35.033       28.655     3200.599     1227.339      821.132        0.546        0.262       73.894       34.581        0.219      338.576       11.320      869.620
01/13/2021  03:45:00       80.792       11.929      -19.186       62.203       30.406       31.266     3869.207      924.521      977.588        0.640        0.289       81.668       35.470        0.189      338.511       11.211      869.612
01/13/2021  03:46:00       59.420        5.857       -4.216       61.888       33.459       33.866     3830.156     1119.508     1146.891        0.484        0.305       59.708       36.286        0.369      338.470       11.142      869.585
01/13/2021  03:47:00        8.292       -4.050       -7.879       51.995       13.613       25.644     2703.488      185.321      657.596        0.185        0.177        9.228       34.675       14.119      338.424       11.066      869.586
01/13/2021  03:48:00       50.058       16.632      -13.069       59.009       15.274       28.297     3482.060      233.294      800.720        0.373        0.226       52.749       36.657        0.483      338.496       11.186      869.589
01/13/2021  03:49:00       83.531       50.648      -12.661       49.976       21.606       25.233     2497.581      466.833      636.718        0.665        0.180       97.686       32.594        0.111      338.678       11.492      869.574
01/13/2021  03:50:00      101.524       29.245      -19.486       50.790       24.888       26.903     2579.650      619.408      723.750        0.773        0.196      105.652       33.515        0.101      338.769       11.645      869.568
01/13/2021  03:51:00      176.349       43.421      -36.015       81.111       36.486       32.295     6578.973     1331.235     1042.973        2.162        0.448      181.616       41.684        0.053      338.816       11.722      869.557
01/13/2021  03:52:00      151.694       34.265      -27.254       76.692       48.427       36.023     5881.683     2345.221     1297.675        1.722        0.476      155.515       37.291        0.058      338.742       11.599      869.530
01/13/2021  03:53:00       77.778        0.004      -15.529       62.332       45.825       35.671     3885.291     2099.903     1272.448        0.677        0.363       77.778       31.548        0.165      338.622       11.398      869.521
01/13/2021  03:54:00       68.975      -25.583      -21.522       63.455       71.505       30.298     4026.484     5112.921      917.946        0.796        0.503       73.566       37.549        0.261      338.648       11.442      869.553
01/13/2021  03:55:00       46.301      -54.941      -20.384       58.329       36.579       27.568     3402.236     1338.005      759.980        0.554        0.275       71.849       33.876        0.222      338.673       11.484      869.563
01/13/2021  03:56:00       95.352       19.829      -19.306       74.349       41.885       33.468     5527.846     1754.377     1120.098        0.913        0.420       97.392       39.470        0.164      338.580       11.326      869.530
01/13/2021  03:57:00      138.909       35.882      -36.104       62.737       26.744       30.297     3935.917      715.242      917.913        1.373        0.278      143.469       38.155        0.071      338.567       11.305      869.531
01/13/2021  03:58:00      145.745       41.087      -23.615       55.252       34.431       32.016     3052.801     1185.488     1025.041        1.437        0.263      151.425       34.743        0.053      338.463       11.130      869.530
01/13/2021  03:59:00      166.797       32.359      -20.923       58.969       30.979       34.364     3477.344      959.718     1180.896        1.746        0.281      169.907       37.895        0.050      338.472       11.147      869.510
01/13/2021  04:00:00       82.400     -117.617      -26.579       68.088       51.083       33.243     4636.032     2609.422     1105.119        1.484        0.418      143.609       42.292        0.087      338.508       11.206      869.513
01/13/2021  04:01:00      108.117     -188.663      -42.468       59.236       27.851       30.713     3508.846      775.661      943.279        2.716        0.261      217.446       37.589        0.030      338.598       11.356      869.532
01/13/2021  04:02:00      126.150     -172.491      -38.961       58.412       28.469       30.001     3412.018      810.480      900.077        2.615        0.256      213.699       38.587        0.033      338.645       11.435      869.546
01/13/2021  04:03:00      106.408     -114.521      -35.751       60.575       33.172       28.126     3669.344     1100.376      791.099        1.564        0.278      156.325       38.079        0.059      338.649       11.444      869.527
01/13/2021  04:04:00       67.790      -89.566      -16.178       62.809       40.536       31.144     3944.915     1643.194      969.951        0.972        0.328      112.328       41.481        0.136      338.781       11.667      869.509
01/13/2021  04:05:00       34.723      -79.833      -36.429       65.521       24.777       38.292     4292.969      613.922     1466.259        0.764        0.319       87.057       39.819        0.209      338.647       11.441      869.523
01/13/2021  04:06:00      140.047     -114.801      -42.621       57.012       38.333       31.643     3250.317     1469.444     1001.301        2.016        0.286      181.086       33.235        0.034      338.636       11.423      869.481
01/13/2021  04:07:00      129.900      -62.807      -37.469       64.158       62.079       39.024     4116.190     3853.794     1522.904        1.586        0.475      144.287       43.726        0.092      338.501       11.194      869.389
01/13/2021  04:08:00      103.549      -80.792      -36.789       59.982       56.096       32.480     3597.794     3146.733     1054.920        1.320        0.390      131.339       38.620        0.086      338.520       11.225      869.347
01/13/2021  04:09:00       23.318      -43.562      -35.642       95.015       45.350       29.499     9027.836     2056.615      870.189        0.783        0.598       49.410       30.567        0.383      338.485       11.169      869.362
01/13/2021  04:10:00      -60.022       12.410      -29.994       53.989       36.521       22.185     2914.805     1333.811      492.164        0.470        0.237       61.291       28.732        0.220      338.346       10.933      869.385
01/13/2021  04:11:00     -141.563       37.675       -4.519       68.512       35.987       27.781     4693.919     1295.035      771.796        1.412        0.338      146.491       19.720        0.018      338.172       10.641      869.419
01/13/2021  04:12:00     -126.860       52.110       -4.486       58.132       47.183       33.056     3379.357     2226.244     1092.695        1.276        0.335      137.146        8.725        0.004      338.290       10.841      869.418
01/13/2021  04:13:00      -63.303       54.665      -13.185       58.470       28.322       26.554     3418.690      802.130      705.131        0.605        0.246       83.639       25.256        0.091      338.553       11.282      869.348
01/13/2021  04:14:00      -50.295       34.645      -14.597       62.742       33.831       28.141     3936.580     1144.568      791.907        0.491        0.294       61.073       27.666        0.205      338.317       10.886      869.307
01/13/2021  04:15:00     -172.146       49.134      -26.801       88.389       63.163       35.590     7812.685     3989.546     1266.631        2.292        0.653      179.021       29.110        0.026      338.049       10.435      869.320
01/13/2021  04:16:00     -191.850       -5.180      -35.331       88.809       68.861       48.552     7887.019     4741.906     2357.267        2.653        0.749      191.920       34.935        0.033      337.902       10.187      869.369
01/13/2021  04:17:00     -103.150       30.856       -6.855      132.439       42.966       38.609    17540.160     1846.079     1490.625        1.625        1.044      107.666       31.468        0.085      337.811       10.035      869.435
01/13/2021  04:18:00      -47.726      -11.243      -12.300       85.433       48.095       42.441     7298.818     2313.158     1801.224        0.698        0.571       49.032       27.041        0.304      337.853       10.107      869.459
01/13/2021  04:19:00     -115.249      -29.760      -12.427       78.538       52.988       42.833     6168.230     2807.701     1834.709        1.256        0.541      119.029       24.112        0.041      338.102       10.525      869.438
01/13/2021  04:20:00     -127.523      -29.028       -2.359       99.579       35.728       40.773     9916.040     1276.520     1662.448        1.498        0.643      130.785       27.187        0.043      338.255       10.781      869.407
01/13/2021  04:21:00     -146.611      -14.303       -2.852       59.742       33.407       30.964     3569.084     1115.998      958.770        1.367        0.282      147.307       23.574        0.026      338.213       10.711      869.374
01/13/2021  04:22:00     -113.367       12.063      -15.811       59.412       37.431       30.687     3529.757     1401.076      941.699        0.956        0.294      114.007       29.444        0.067      337.977       10.315      869.357
01/13/2021  04:23:00     -165.395       39.436       -1.886       74.984       43.352       38.366     5622.652     1879.359     1471.970        1.894        0.449      170.032       17.195        0.010      338.080       10.487      869.357
01/13/2021  04:24:00      -90.372        4.032       -3.815      120.452       49.989       45.193    14508.652     2498.880     2042.380        1.362        0.952       90.462       12.765        0.020      338.037       10.414      869.426
01/13/2021  04:25:00     -110.572      -14.567        0.788      109.574       54.564       38.434    12006.472     2977.217     1477.202        1.445        0.823      111.528       23.276        0.044      338.112       10.541      869.485
01/13/2021  04:26:00     -157.213       10.916       -6.986       67.143       38.542       35.837     4508.163     1485.503     1284.285        1.608        0.364      157.592       20.690        0.017      338.350       10.941      869.515
01/13/2021  04:27:00      -56.217       -4.831       -4.460       70.329       28.352       29.059     4946.133      803.826      844.413        0.490        0.330       56.424       28.197        0.250      338.575       11.319      869.495
01/13/2021  04:28:00       82.963       23.308      -33.499       60.161       23.736       29.964     3619.345      563.398      897.828        0.681        0.254       86.175       40.388        0.220      338.565       11.303      869.421
01/13/2021  04:29:00       78.827       21.380      -16.935       55.385       23.349       26.616     3067.540      545.199      708.413        0.564        0.216       81.675       37.187        0.207      338.334       10.914      869.339
01/13/2021  04:30:00       73.455       80.081      -26.059       57.485       20.412       27.659     3304.578      416.632      765.013        0.849        0.224      108.668       37.736        0.121      338.780       11.664      869.326
01/13/2021  04:31:00       33.444       82.412      -16.614       49.686       18.028       27.765     2468.727      325.016      770.874        0.587        0.178       88.940       30.829        0.120      339.241       12.439      869.362
01/13/2021  04:32:00        1.768       -1.164      -14.498       59.532       20.617       27.861     3544.103      425.042      776.215        0.248        0.237        2.117       24.984      139.330      339.013       12.056      869.376
01/13/2021  04:33:00      -45.650       11.677       -3.345       92.783       53.659       42.232     8608.747     2879.241     1783.513        0.775        0.664       47.120       23.211        0.243      337.843       10.091      869.392
01/13/2021  04:34:00     -104.696      -16.075      -12.119       85.566       54.309       36.757     7321.528     2949.472     1351.105        1.149        0.581      105.923       19.929        0.035      337.992       10.341      869.412
01/13/2021  04:35:00     -118.840      -54.958      -31.597       67.910       32.435       29.562     4611.760     1052.004      873.912        1.234        0.327      130.932       26.291        0.040      338.241       10.759      869.450
01/13/2021  04:36:00      -97.032      -60.992      -13.176       69.746       25.003       24.721     4864.456      625.154      611.146        0.970        0.305      114.609       26.929        0.055      338.719       11.561      869.486
01/13/2021  04:37:00      -31.852      -51.108      -12.386       70.308       42.923       27.198     4943.263     1842.416      739.728        0.565        0.376       60.221       36.244        0.362      338.739       11.595      869.505
01/13/2021  04:38:00      -40.506      -45.813      -16.618       60.334       29.023       29.724     3640.233      842.362      883.514        0.469        0.268       61.152       31.666        0.268      338.578       11.324      869.506
01/13/2021  04:39:00      -59.930      -51.569      -28.812       56.076       28.364       30.340     3144.510      804.540      920.536        0.597        0.243       79.063       29.814        0.142      338.481       11.161      869.484
01/13/2021  04:40:00      -71.309      -33.810      -14.480       61.618       38.002       31.526     3796.766     1444.121      993.861        0.633        0.312       78.918       30.616        0.151      338.427       11.071      869.454
01/13/2021  04:41:00      -47.978       14.082      -13.238       46.076       23.570       25.714     2122.975      555.545      661.200        0.301        0.167       50.002       25.881        0.268      338.246       10.766      869.405
01/13/2021  04:42:00      -38.333       -4.465      -20.058       51.024       15.823       25.454     2603.446      250.374      647.890        0.270        0.175       38.592       33.571        0.757      338.251       10.775      869.355
01/13/2021  04:43:00      -70.144      -23.312      -18.843       67.907       28.477       33.718     4611.427      810.943     1136.903        0.619        0.328       73.916       30.883        0.175      338.043       10.425      869.355
01/13/2021  04:44:00      -40.615      -14.543       -7.914       63.272       31.583       35.055     4003.388      997.513     1228.840        0.408        0.311       43.140       32.705        0.575      337.919       10.217      869.353
01/13/2021  04:45:00       37.161      -13.323      -19.669       69.332       28.235       31.552     4806.912      797.226      995.545        0.427        0.330       39.477       38.858        0.969      338.454       11.116      869.302
01/13/2021  04:46:00       44.278      -74.152      -41.861       70.926       43.660       38.671     5030.558     1906.207     1495.413        0.882        0.422       86.366       41.472        0.231      338.434       11.082      869.274
01/13/2021  04:47:00      -13.582      -29.737      -26.885       63.753       32.221       32.006     4064.432     1038.202     1024.388        0.396        0.306       32.692       32.474        0.987      338.201       10.691      869.253
01/13/2021  04:48:00       -7.194      -18.357      -13.375       64.214       33.970       34.055     4123.402     1153.985     1159.745        0.350        0.322       19.717       38.461        3.805      338.275       10.815      869.225
01/13/2021  04:49:00      102.001      -37.506      -28.716       83.510       49.861       37.528     6973.892     2486.116     1408.388        1.175        0.543      108.678       48.133        0.196      338.284       10.829      869.196
01/13/2021  04:50:00       86.774     -108.050      -28.997       81.068       42.353       33.120     6571.959     1793.786     1096.908        1.475        0.473      138.580       40.300        0.085      338.399       11.022      869.173
01/13/2021  04:51:00       15.644       -1.241      -22.113       70.853       23.414       39.993     5020.108      548.209     1599.435        0.395        0.358       15.693       33.629        4.592      337.908       10.200      869.184
01/13/2021  04:52:00      -52.144      -47.986      -10.663       70.492       40.714       29.639     4969.113     1657.638      878.488        0.632        0.375       70.864       27.851        0.154      338.103       10.527      869.184
01/13/2021  04:53:00       28.895      -81.724      -35.832       86.904       25.660       27.500     7552.252      658.430      756.243        0.888        0.448       86.682       35.800        0.171      338.575       11.319      869.100
01/13/2021  04:54:00       28.926      -24.076      -12.046       67.728       44.205       38.800     4587.028     1954.046     1505.472        0.480        0.402       37.635       37.287        0.982      338.269       10.806      869.065
01/13/2021  04:55:00       28.613        8.602      -18.811       59.655       28.075       35.693     3558.702      788.192     1273.970        0.343        0.281       29.878       33.608        1.265      338.168       10.634      869.046
01/13/2021  04:56:00        5.097       12.572      -12.885       56.079       15.316       27.882     3144.860      234.590      777.427        0.225        0.208       13.566       33.881        6.237      338.233       10.744      869.040
01/13/2021  04:57:00      -46.435      -12.343      -12.662       49.702       25.134       26.184     2470.290      631.713      685.599        0.313        0.189       48.048       32.121        0.447      338.276       10.817      869.093
01/13/2021  04:58:00        3.607       -5.115       -9.151       60.259       19.993       29.600     3631.190      399.738      876.139        0.251        0.245        6.259       34.552       30.476      338.013       10.377      869.123
01/13/2021  04:59:00      -30.419      -23.914       -5.349       70.277       22.834       30.359     4938.870      521.399      921.680        0.395        0.319       38.693       33.203        0.736      338.047       10.433      869.101
01/13/2021  05:00:00       -5.644      -56.020      -13.086       59.413       33.885       24.527     3529.943     1148.183      601.592        0.431        0.264       56.303       33.864        0.362      338.397       11.021      869.048
01/13/2021  05:01:00       54.826      -36.515      -29.275       61.602       20.716       28.124     3794.773      429.134      790.980        0.510        0.251       65.872       37.951        0.332      338.383       10.997      868.996
01/13/2021  05:02:00       11.739      -15.535      -21.538       70.284       20.981       28.241     4939.795      440.195      797.579        0.351        0.309       19.471       35.743        3.370      338.368       10.972      869.007
01/13/2021  05:03:00      -14.999       14.185       -9.411       55.908       29.479       26.564     3125.674      869.011      705.643        0.261        0.235       20.644       33.012        2.557      338.379       10.989      869.003
01/13/2021  05:04:00       19.692      -51.729      -19.178       62.145       36.850       33.391     3861.974     1357.952     1114.932        0.488        0.317       55.351       42.476        0.589      338.474       11.150      868.976
01/13/2021  05:05:00       15.292       -8.575      -11.655       51.251        8.771       24.628     2626.693       76.938      606.535        0.188        0.166       17.532       33.848        3.727      338.411       11.044      869.023
01/13/2021  05:06:00       11.580      -14.031      -22.262       52.823        7.959       26.262     2790.220       63.346      689.670        0.218        0.177       18.193       36.364        3.995      338.249       10.773      869.080
01/13/2021  05:07:00      -20.917        7.768      -23.568       60.198       14.704       29.879     3623.830      216.200      892.734        0.289        0.237       22.313       40.319        3.265      338.010       10.371      869.124
01/13/2021  05:08:00       28.322        4.254      -21.115       63.710       12.715       28.796     4059.002      161.670      829.205        0.316        0.252       28.639       39.876        1.939      338.374       10.982      869.118
01/13/2021  05:09:00       83.177       26.540      -21.574       62.997       24.921       29.481     3968.584      621.035      869.103        0.677        0.273       87.309       42.200        0.234      338.238       10.754      869.067
01/13/2021  05:10:00       64.618       23.603      -15.728       58.164       19.319       27.485     3383.083      373.209      755.413        0.474        0.226       68.794       38.808        0.318      338.156       10.615      869.060
01/13/2021  05:11:00       52.102        8.180      -24.113       58.097       15.580       27.697     3375.265      242.751      767.126        0.387        0.219       52.740       38.213        0.525      337.874       10.143      869.080
01/13/2021  05:12:00       45.743       82.642      -13.794       56.194       26.503       27.348     3157.818      702.433      747.920        0.686        0.230       94.457       37.155        0.155      338.078       10.484      869.063
01/13/2021  05:13:00       -3.814       58.604      -18.497       57.951       53.453       27.009     3358.262     2857.270      729.487        0.537        0.347       58.728       36.197        0.380      338.034       10.412      869.120
01/13/2021  05:14:00       52.087       20.608      -13.269       58.135       12.590       27.986     3379.721      158.496      783.212        0.382        0.216       56.015       38.192        0.465      338.170       10.638      869.149
01/13/2021  05:15:00       90.342       31.722      -19.672       64.761       17.305       32.299     4194.051      299.476     1043.243        0.754        0.277       95.750       44.489        0.216      338.097       10.514      869.153
01/13/2021  05:16:00      111.195       56.796      -24.408       68.374       16.961       33.449     4675.019      287.660     1118.817        1.113        0.304      124.861       45.660        0.134      338.208       10.702      869.125
01/13/2021  05:17:00       79.032       61.057      -20.383       71.841       19.472       30.884     5161.087      379.167      953.807        0.844        0.325       99.870       42.650        0.182      338.203       10.696      869.096
01/13/2021  05:18:00       23.213       51.121      -16.864       69.043       38.077       33.257     4766.870     1449.841     1106.009        0.538        0.366       56.145       42.855        0.583      338.121       10.556      869.140
01/13/2021  05:19:00      -11.686        2.805      -31.042       65.154       21.544       33.254     4245.083      464.126     1105.859        0.346        0.291       12.018       41.125       11.709      337.307        9.193      869.203
01/13/2021  05:20:00       40.228       27.549      -18.345       63.902       10.227       30.060     4083.494      104.584      903.611        0.390        0.255       48.757       41.258        0.716      338.177       10.651      869.196
01/13/2021  05:21:00      104.042       28.391      -25.184       61.401       27.307       29.407     3770.107      745.657      864.756        0.882        0.269      107.847       38.120        0.125      338.080       10.487      869.158
01/13/2021  05:22:00      164.285       89.538      -20.456       77.522       28.541       37.985     6009.631      814.564     1442.891        2.184        0.413      187.100       46.092        0.061      337.966       10.297      869.074
01/13/2021  05:23:00       15.814       69.636      -12.921       67.200       35.096       31.068     4515.832     1231.736      965.228        0.599        0.336       71.409       36.209        0.257      337.902       10.190      869.139
01/13/2021  05:24:00      -25.713        7.637      -18.172       56.376       19.058       27.307     3178.215      363.214      745.661        0.267        0.214       26.824       33.214        1.533      337.397        9.345      869.232
01/13/2021  05:25:00       61.703       12.060      -26.925       69.895       10.061       29.432     4885.358      101.225      866.227        0.526        0.293       62.870       41.921        0.445      338.008       10.368      869.205
01/13/2021  05:26:00      115.316       24.289      -21.160       61.499       18.258       31.017     3782.158      333.343      962.058        0.971        0.254      117.846       42.135        0.128      338.020       10.387      869.169
01/13/2021  05:27:00       61.497       33.736      -16.849       69.366       20.931       29.527     4811.603      438.101      871.815        0.566        0.306       70.142       42.494        0.367      338.115       10.545      869.181
01/13/2021  05:28:00      -18.439       29.800      -19.683       61.011       12.885       27.007     3722.308      166.034      729.353        0.312        0.231       35.043       36.574        1.089      337.991       10.339      869.220
01/13/2021  05:29:00        8.237       32.707      -18.623       67.275       10.805       29.672     4525.864      116.738      880.420        0.350        0.276       33.729       39.722        1.387      338.057       10.448      869.239
01/13/2021  05:30:00       33.833       -8.372      -31.076       63.103       13.371       29.030     3982.046      178.776      842.720        0.359        0.250       34.854       40.934        1.379      338.223       10.727      869.253
01/13/2021  05:31:00       46.522      -18.835      -26.442       58.127       15.160       27.653     3378.768      229.822      764.663        0.379        0.219       50.190       38.809        0.598      338.443       11.096      869.244
01/13/2021  05:32:00       84.816       31.069      -19.503       60.965       37.548       31.166     3716.773     1409.873      971.294        0.732        0.305       90.328       39.709        0.193      338.037       10.415      869.194
01/13/2021  05:33:00       93.714       49.461      -14.673       73.965       19.913       33.442     5470.806      396.516     1118.362        0.921        0.349      105.966       47.094        0.198      338.333       10.913      869.205
01/13/2021  05:34:00       23.363       79.954      -13.709       62.982       21.794       27.431     3966.702      474.971      752.440        0.616        0.260       83.297       38.215        0.210      338.368       10.971      869.306
01/13/2021  05:35:00      -23.087       45.032      -20.273       50.863       15.735       23.957     2587.038      247.599      573.916        0.319        0.170       50.606       32.863        0.422      337.767        9.963      869.425
01/13/2021  05:36:00       13.176       51.666      -22.778       51.555       16.267       25.644     2657.931      264.609      657.609        0.347        0.179       53.320       34.622        0.422      338.162       10.626      869.520
01/13/2021  05:37:00       33.415       66.148      -18.266       54.454       22.096       26.754     2965.274      488.226      715.774        0.500        0.208       74.109       34.610        0.218      338.561       11.296      869.656
01/13/2021  05:38:00       42.745      107.644      -16.593       50.030       32.367       27.640     2503.028     1047.655      763.981        0.900        0.216      115.821       34.185        0.087      338.634       11.420      869.768
01/13/2021  05:39:00      116.331       79.200      -25.330       68.856       31.069       33.836     4741.114      965.306     1144.893        1.365        0.343      140.732       43.145        0.094      338.613       11.381      869.815
01/13/2021  05:40:00       86.710       82.640      -18.595       70.085       28.928       35.052     4911.865      836.814     1228.651        1.083        0.349      119.783       44.423        0.138      338.669       11.478      869.806
01/13/2021  05:41:00       55.206       99.849      -12.799       72.340       36.800       38.759     5233.040     1354.207     1502.257        1.063        0.404      114.094       45.150        0.157      338.722       11.566      869.800
01/13/2021  05:42:00      -80.647       14.284      -32.924       70.499       40.128       35.247     4970.087     1610.249     1242.343        0.781        0.391       81.903       39.957        0.238      336.767        8.290      869.831
01/13/2021  05:43:00      -57.210       47.758      -27.835       68.487       23.483       27.367     4690.473      551.435      748.957        0.616        0.300       74.524       30.207        0.164      337.248        9.094      869.859
01/13/2021  05:44:00       -9.216      145.567      -22.684       48.159       22.098       24.825     2319.328      488.307      616.273        1.261        0.171      145.858       30.405        0.043      338.188       10.669      869.851
01/13/2021  05:45:00        2.334      187.355      -18.373       76.761       34.522       30.536     5892.313     1191.800      932.468        2.173        0.401      187.370       32.604        0.030      338.416       11.051      869.861
01/13/2021  05:46:00       88.873      131.857      -28.154       67.559       46.380       38.103     4564.194     2151.074     1451.802        1.712        0.408      159.011       43.408        0.075      338.963       11.970      869.876
01/13/2021  05:47:00      102.870      117.449      -22.977       86.839       35.516       37.434     7541.049     1261.364     1401.337        1.755        0.510      156.129       48.433        0.096      338.630       11.412      869.886
01/13/2021  05:48:00      173.560       97.128      -40.975       68.460       46.893       35.649     4686.768     2198.912     1270.860        2.469        0.408      198.889       40.975        0.042      338.452       11.113      869.893
01/13/2021  05:49:00      139.911      119.684      -20.057       72.337       46.324       41.539     5232.590     2145.949     1725.527        2.170        0.455      184.118       43.371        0.055      338.675       11.485      869.908
01/13/2021  05:50:00       36.257       66.357      -27.032      104.553       56.232       31.630    10931.416     3162.011     1000.426        1.077        0.755       75.616       41.939        0.308      338.358       10.955      869.916
01/13/2021  05:51:00      -84.836      -12.293      -27.071       87.233       31.908       37.914     7609.614     1018.147     1437.496        0.907        0.503       85.722       28.117        0.108      337.581        9.652      869.954
01/13/2021  05:52:00      -98.325       -3.147      -10.982      110.966       61.056       43.996    12313.448     3727.789     1935.621        1.388        0.899       98.375       31.129        0.100      337.763        9.955      869.987
01/13/2021  05:53:00     -117.936       32.432      -11.987       68.743       42.792       36.098     4725.606     1831.179     1303.052        1.148        0.393      122.314       22.513        0.034      337.910       10.203      870.015
01/13/2021  05:54:00       11.087      103.749      -16.507       81.759       41.313       27.640     6684.481     1706.777      763.957        1.016        0.458      104.340       27.062        0.067      338.583       11.332      869.995
01/13/2021  05:55:00      208.805       62.717      -35.325       85.539       66.479       37.792     7316.887     4419.501     1428.258        3.097        0.658      218.020       43.322        0.039      338.756       11.622      869.878
01/13/2021  05:56:00      175.226       18.911      -18.145      111.318       58.465       46.285    12391.730     3418.156     2142.290        2.467        0.898      176.243       37.415        0.045      338.799       11.696      869.828
01/13/2021  05:57:00       38.105      -15.837      -15.381       81.182       51.760       43.561     6590.521     2679.122     1897.562        0.655        0.558       41.265       44.819        1.180      338.720       11.563      869.897
01/13/2021  05:58:00      -49.105       -7.974       -4.138       81.946       52.118       40.708     6715.125     2716.270     1657.131        0.679        0.554       49.749       21.742        0.191      338.581       11.331      869.997
01/13/2021  05:59:00      -20.347      -41.366       -7.243       69.811       58.186       41.889     4873.522     3385.568     1754.725        0.609        0.501       46.100       34.496        0.560      338.420       11.058      869.992
01/13/2021  06:00:00      -16.391       -4.107      -13.999       64.851       30.603       34.618     4205.692      936.556     1198.379        0.341        0.317       16.897       38.049        5.070      338.345       10.934      869.959
01/13/2021  06:01:00       65.691      -21.403      -22.483       80.178       46.004       35.175     6428.528     2116.399     1237.284        0.753        0.489       69.090       44.522        0.415      338.430       11.076      869.966
01/13/2021  06:02:00       23.012       13.649       -4.811       54.652       23.079       27.969     2986.844      532.651      782.284        0.252        0.215       26.755       37.572        1.972      338.092       10.510      869.961
01/13/2021  06:03:00       61.015       36.778      -15.677       59.115       13.867       30.007     3494.602      192.283      900.442        0.495        0.229       71.242       40.626        0.325      338.282       10.828      869.916
01/13/2021  06:04:00      -12.710      -48.297      -20.734       69.799       30.619       32.041     4871.869      937.522     1026.597        0.488        0.342       49.942       31.857        0.407      338.394       11.015      869.937
01/13/2021  06:05:00     -135.195      -80.136      -26.002       74.489       64.423       41.079     5548.590     4150.265     1687.517        1.838        0.569      157.161       17.496        0.012      338.356       10.949      869.989
01/13/2021  06:06:00      -26.769      -71.044      -23.377       72.430       55.930       39.613     5246.045     3128.211     1569.159        0.812        0.497       75.920       42.824        0.318      338.656       11.456      869.949
01/13/2021  06:07:00       35.536      -14.216      -11.491       67.492       53.074       42.499     4555.213     2816.899     1806.196        0.539        0.459       38.274       46.442        1.472      338.469       11.142      869.897
01/13/2021  06:08:00        8.990      -20.417      -15.560       51.954       32.135       31.628     2699.239     1032.666     1000.359        0.274        0.237       22.309       32.167        2.079      338.480       11.158      869.925
01/13/2021  06:09:00       -1.672       25.110       -3.921       58.672       23.478       30.105     3442.448      551.206      906.329        0.277        0.245       25.165       26.395        1.100      338.654       11.453      869.950
01/13/2021  06:10:00       -6.555       57.839      -14.960       55.040       18.280       25.494     3029.437      334.146      649.962        0.381        0.201       58.209       35.566        0.373      338.676       11.490      869.993
01/13/2021  06:11:00       42.972       11.813      -16.745       56.563       47.951       32.648     3199.379     2299.275     1065.914        0.441        0.328       44.566       38.633        0.751      339.047       12.114      870.008
01/13/2021  06:12:00       79.493        1.111      -26.015       64.306       43.797       30.121     4135.308     1918.142      907.248        0.698        0.348       79.500       32.502        0.167      338.705       11.538      869.956
01/13/2021  06:13:00       87.478       16.722      -30.701       67.611       34.812       33.040     4571.273     1211.890     1091.635        0.787        0.344       89.062       44.793        0.253      338.722       11.567      869.925
01/13/2021  06:14:00       -1.979      -34.251      -16.941       60.143       22.156       31.990     3617.179      490.867     1023.330        0.330        0.257       34.309       40.242        1.376      338.752       11.617      869.954
01/13/2021  06:15:00      -29.086      -50.259      -25.129       71.795       37.796       28.591     5154.482     1428.570      817.452        0.570        0.370       58.069       40.244        0.480      338.716       11.557      869.977
01/13/2021  06:16:00      -87.110      -51.140      -14.113       59.200       52.476       32.753     3504.601     2753.685     1072.753        0.887        0.367      101.013       29.042        0.083      338.617       11.389      869.954
01/13/2021  06:17:00      -41.205      -21.463      -25.443       50.180       39.857       26.918     2517.984     1588.550      724.563        0.382        0.242       46.460       32.742        0.497      338.842       11.769      869.917
01/13/2021  06:18:00      -31.164        9.040      -14.473       61.107       31.835       29.775     3734.101     1013.445      886.532        0.345        0.282       32.449       36.581        1.271      338.572       11.314      869.933
01/13/2021  06:19:00      -65.948      -11.940      -12.283       60.182       23.421       27.003     3621.857      548.551      729.166        0.477        0.245       67.020       26.053        0.151      338.409       11.040      869.962
01/13/2021  06:20:00      -41.837      -12.556      -11.526       55.959       15.934       26.633     3131.364      253.883      709.323        0.307        0.205       43.681       33.789        0.598      338.430       11.077      869.943
01/13/2021  06:21:00      -23.455      -11.656      -12.282       54.774       11.235       25.862     3000.142      126.222      668.829        0.232        0.190       26.192       35.747        1.863      338.737       11.590      869.888
01/13/2021  06:22:00      -29.701       -5.230       -3.831       42.996        9.704       24.041     1848.693       94.169      577.954        0.172        0.126       30.158       28.061        0.866      339.112       12.223      869.817
01/13/2021  06:23:00      -30.512        6.296      -19.444       57.150       20.497       24.570     3266.086      420.141      603.708        0.282        0.214       31.155       22.338        0.514      339.387       12.686      869.794
01/13/2021  06:24:00      -17.268       -1.536      -23.218       52.061       19.200       26.516     2710.314      368.648      703.077        0.231        0.189       17.336       32.717        3.562      339.504       12.885      869.764
01/13/2021  06:25:00       26.200      -52.423      -19.196       52.183       14.986       25.938     2723.104      224.586      672.757        0.371        0.181       58.606       33.366        0.324      339.117       12.232      869.740
01/13/2021  06:26:00       -9.537      -75.723      -26.714       63.450       22.768       27.740     4025.880      518.396      769.524        0.593        0.266       76.321       37.093        0.236      338.836       11.759      869.753
01/13/2021  06:27:00      -26.511      -36.499      -22.537       67.275       27.887       28.657     4525.981      777.683      821.234        0.433        0.306       45.111       33.627        0.556      338.693       11.518      869.790
01/13/2021  06:28:00      -89.306      -42.817      -17.584       86.707       49.709       44.170     7518.048     2470.945     1950.947        1.103        0.597       99.040       25.273        0.065      338.460       11.127      869.841
01/13/2021  06:29:00      -27.489      -67.275      -17.976      126.877       60.064       34.199    16097.776     3607.690     1169.582        1.324        1.044       72.674       37.362        0.264      338.590       11.344      869.855
01/13/2021  06:30:00      181.878      -87.778      -36.816      102.164       79.440       68.141    10437.553     6310.645     4643.224        3.176        1.070      201.952       66.153        0.107      339.114       12.223      869.759
01/13/2021  06:31:00       53.376       19.032      -24.214       65.371       85.446       35.811     4273.390     7300.956     1282.450        0.832        0.643       56.667       29.681        0.274      339.685       13.187      869.820
01/13/2021  06:32:00     -152.546      -54.995      -14.070      152.439      134.579       73.379    23237.566    18111.574     5384.495        3.660        2.337      162.156       62.728        0.150      338.724       11.569      869.935
01/13/2021  06:33:00      -59.364       26.376      -18.766      121.132       82.534       45.980    14673.009     6811.849     2114.153        1.408        1.180       64.960       27.010        0.173      338.264       10.797      869.968
01/13/2021  06:34:00     -112.660      -28.385       -8.784      112.186       52.407       43.233    12585.612     2746.467     1869.120        1.538        0.860      116.180       28.341        0.060      338.500       11.193      869.958
01/13/2021  06:35:00      -10.765       -5.319      -11.025       54.356       25.291       34.650     2954.602      639.616     1200.645        0.253        0.240       12.007       26.699        4.945      338.821       11.734      869.968
01/13/2021  06:36:00      -44.641      -26.459       -9.607       56.068       30.273       29.819     3143.582      916.465      889.153        0.387        0.247       51.893       16.829        0.105      339.125       12.244      869.975
01/13/2021  06:37:00        8.635      -20.340       -4.557       53.294       30.158       26.058     2840.278      909.526      679.004        0.247        0.221       22.098       29.739        1.811      338.903       11.869      870.001
01/13/2021  06:38:00      -50.416       18.816       -4.545       72.529       38.100       31.055     5260.442     1451.645      964.439        0.529        0.384       53.812       25.860        0.231      338.722       11.568      870.019
01/13/2021  06:39:00       51.254      -11.507       -9.556       51.662       17.833       25.510     2668.987      318.023      650.759        0.324        0.182       52.530       32.372        0.380      338.792       11.684      869.985
01/13/2021  06:40:00       61.046       26.130      -13.699       39.924       15.838       18.959     1593.926      250.846      359.438        0.340        0.110       66.403       26.493        0.159      338.682       11.498      869.934
01/13/2021  06:41:00       28.041       33.463      -13.276       45.025       17.446       22.519     2027.283      304.370      507.122        0.246        0.142       43.658       28.702        0.432      338.854       11.789      869.890
01/13/2021  06:42:00       -1.033       16.847       -3.350       48.183       13.635       20.882     2321.611      185.914      436.069        0.162        0.147       16.878       26.694        2.501      338.909       11.881      869.887
01/13/2021  06:43:00       22.447        7.489       -9.821       65.819       24.906       33.502     4332.170      620.297     1122.386        0.336        0.304       23.663       19.501        0.679      338.517       11.223      869.914
01/13/2021  06:44:00      -61.977      -23.870       -9.402       85.664       28.270       33.232     7338.354      799.199     1104.340        0.687        0.462       66.414       15.061        0.051      338.492       11.180      869.917
01/13/2021  06:45:00      -84.414      -19.721       -7.274       68.036       33.671       32.266     4628.960     1133.725     1041.105        0.718        0.340       86.687       28.883        0.111      338.607       11.374      869.917
01/13/2021  06:46:00     -118.334       24.179      -20.840       72.619       53.153       29.751     5273.585     2825.251      885.127        1.200        0.449      120.779       23.914        0.039      338.234       10.747      869.942
01/13/2021  06:47:00     -115.243       38.645       -6.857       82.340       54.702       39.459     6779.816     2992.300     1557.014        1.307        0.566      121.550       27.506        0.051      338.199       10.687      869.939
01/13/2021  06:48:00     -117.237       50.131       -5.047       68.552       42.444       37.903     4699.316     1801.508     1436.602        1.211        0.397      127.506       19.740        0.024      338.068       10.468      869.899
01/13/2021  06:49:00     -109.259       -0.274      -14.676       87.918       38.849       35.387     7729.603     1509.224     1252.229        1.132        0.525      109.259       15.714        0.021      337.975       10.311      869.888
01/13/2021  06:50:00      -13.972       -1.832      -10.861       51.642       25.773       25.125     2666.899      664.252      631.259        0.214        0.198       14.092       29.888        4.499      338.041       10.424      869.866
01/13/2021  06:51:00       49.864      -34.064      -25.655       73.527       27.256       27.461     5406.236      742.900      754.093        0.560        0.345       60.389       37.270        0.381      338.417       11.054      869.827
01/13/2021  06:52:00      124.088      -36.821      -22.946       69.919       64.034       45.413     4888.717     4100.392     2062.375        1.416        0.553      129.436       42.695        0.109      338.517       11.221      869.791
01/13/2021  06:53:00       64.152        5.001      -12.956       65.866       59.103       40.066     4338.276     3493.144     1605.295        0.687        0.472       64.347       37.986        0.348      338.657       11.457      869.742
01/13/2021  06:54:00       23.012      -41.497      -10.759       64.921       71.812       38.754     4214.679     5156.982     1501.842        0.662        0.544       47.451       27.911        0.346      339.062       12.139      869.747
01/13/2021  06:55:00     -139.327       11.354      -14.247      119.842       67.783       40.695    14361.988     4594.581     1656.119        2.017        1.031      139.789       33.173        0.056      337.955       10.276      869.821
01/13/2021  06:56:00      -97.243        3.244       -2.022       80.891       51.508       37.210     6543.354     2653.049     1384.619        1.002        0.529       97.297       21.157        0.047      337.940       10.254      869.870
01/13/2021  06:57:00      -95.957        2.565      -10.044       89.588       58.381       45.554     8025.954     3408.372     2075.148        1.141        0.675       95.992       35.930        0.140      338.026       10.398      869.917
01/13/2021  06:58:00      -82.549       22.282      -14.292       56.773       33.415       29.270     3223.143     1116.539      856.761        0.635        0.260       85.504       27.403        0.103      338.120       10.554      869.956
01/13/2021  06:59:00     -101.060       30.946      -19.581       51.549       17.632       25.616     2657.337      310.883      656.204        0.759        0.181      105.692       30.134        0.081      338.181       10.657      870.010
01/13/2021  07:00:00      -55.309      -20.015      -18.305       62.476       39.299       30.260     3903.297     1544.446      915.654        0.508        0.318       58.819       37.162        0.399      338.155       10.615      870.089
01/13/2021  07:01:00       -6.598      -20.080      -22.362       59.500       38.883       28.714     3540.242     1511.850      824.484        0.341        0.294       21.136       33.381        2.494      338.001       10.357      870.109
01/13/2021  07:02:00      -15.858       -1.153       -9.772       66.672       20.536       33.661     4445.157      421.739     1133.071        0.317        0.300       15.900       21.506        1.829      337.676        9.811      870.079
01/13/2021  07:03:00     -105.202       -8.938       -8.689       54.675       23.243       25.463     2989.355      540.253      648.382        0.770        0.209      105.581       24.701        0.055      337.738        9.915      870.068
01/13/2021  07:04:00     -100.484      -66.301      -21.480       43.279       37.302       21.616     1873.038     1391.459      467.264        0.934        0.187      120.386       23.032        0.037      338.557       11.288      870.056
01/13/2021  07:05:00     -102.279      -30.622      -13.342       45.876       27.442       20.571     2104.618      753.042      423.157        0.743        0.164      106.764       22.655        0.045      338.152       10.610      870.028
01/13/2021  07:06:00     -122.299      -78.260      -21.765       66.500       67.998       37.824     4422.195     4623.665     1430.639        1.601        0.524      145.196       30.316        0.044      338.515       11.218      870.022
01/13/2021  07:07:00      -70.331      -63.117      -14.330       69.223       43.991       33.407     4791.874     1935.231     1116.057        0.849        0.392       94.499       28.123        0.089      338.762       11.632      870.049
01/13/2021  07:08:00      -49.221      -24.160      -11.996       63.004       32.538       28.586     3969.478     1058.738      817.133        0.450        0.292       54.831       31.656        0.333      338.436       11.085      870.067
01/13/2021  07:09:00       19.464      -19.206      -14.870       53.954       16.319       26.400     2911.069      266.322      696.980        0.242        0.194       27.345       34.661        1.607      338.497       11.188      870.031
01/13/2021  07:10:00      -21.149       16.684       -3.352       54.895       19.480       27.957     3013.487      379.490      781.575        0.245        0.209       26.938       33.648        1.560      338.357       10.954      869.986
01/13/2021  07:11:00      -10.849       30.850       -4.884       57.570       27.399       27.826     3314.308      750.697      774.268        0.297        0.242       32.702       28.379        0.753      338.246       10.767      869.976
01/13/2021  07:12:00      -32.286       -1.247      -16.379       63.827       23.675       29.794     4073.920      560.498      887.682        0.342        0.276       32.310       22.590        0.489      337.969       10.303      870.036
01/13/2021  07:13:00       -2.023      -12.888      -18.445       60.429       16.363       25.174     3651.718      267.740      633.719        0.253        0.228       13.046       30.220        5.366      337.648        9.762      870.071
01/13/2021  07:14:00        6.455       11.422      -12.222       53.378       20.156       25.665     2849.215      406.264      658.702        0.212        0.196       13.120       30.514        5.409      338.097       10.517      870.068
01/13/2021  07:15:00      -14.546       23.711      -24.541       54.723       20.167       25.438     2994.658      406.704      647.104        0.271        0.202       27.817       28.547        1.053      338.430       11.077      870.029
01/13/2021  07:16:00      -88.875      -19.578      -37.203       65.383       30.157       33.304     4274.988      909.456     1109.129        0.798        0.315       91.006       26.359        0.084      337.616        9.710      870.068
01/13/2021  07:17:00      -95.362        1.001      -14.373       71.262       44.507       30.559     5078.252     1980.846      933.830        0.865        0.400       95.367       31.654        0.110      337.371        9.300      870.083
01/13/2021  07:18:00      -82.475       30.410      -14.012       58.214       24.897       29.788     3388.866      619.854      887.312        0.641        0.245       87.903       23.805        0.073      337.623        9.723      870.086
01/13/2021  07:19:00      -57.170      -69.299      -12.913       81.281       85.084       35.013     6606.580     7239.203     1225.895        1.165        0.754       89.838       33.954        0.143      339.354       12.631      870.102
01/13/2021  07:20:00      -35.568      -18.685      -14.356       61.193       38.436       28.423     3744.554     1477.329      807.894        0.392        0.301       40.178       32.224        0.643      339.006       12.044      870.093
01/13/2021  07:21:00      -30.646      -46.637      -14.929       76.009       51.231       33.202     5777.385     2624.659     1102.347        0.642        0.475       55.805       31.954        0.328      338.769       11.646      870.122
01/13/2021  07:22:00     -100.996      -40.775      -13.745       61.052       58.665       39.652     3727.310     3441.566     1572.310        1.039        0.437      108.916       29.406        0.073      339.100       12.203      870.124
01/13/2021  07:23:00      -83.979      -21.777       -0.050       97.688       54.710       49.978     9542.868     2993.156     2497.786        1.128        0.752       86.757       34.323        0.157      338.506       11.203      870.107
01/13/2021  07:24:00     -129.962       18.379      -11.738       56.422       36.797       34.813     3183.462     1354.011     1211.920        1.156        0.287      131.255       25.318        0.037      338.221       10.726      870.142
01/13/2021  07:25:00      -77.747      -18.943       -0.675       76.377       38.190       34.822     5833.521     1458.510     1212.563        0.745        0.425       80.021       17.104        0.046      338.130       10.571      870.183
01/13/2021  07:26:00      -39.096       -7.849      -15.294       67.022       30.847       27.418     4491.979      951.558      751.731        0.401        0.310       39.876       32.637        0.670      338.426       11.068      870.194
01/13/2021  07:27:00       73.428      -75.019      -32.333       74.817       38.248       34.257     5597.567     1462.910     1173.522        1.015        0.412      104.974       42.787        0.166      339.232       12.424      870.156
01/13/2021  07:28:00       85.501      -65.154      -34.751       71.957       67.112       41.590     5177.810     4504.033     1729.726        1.208        0.571      107.497       43.363        0.163      338.863       11.803      870.097
01/13/2021  07:29:00       69.631      -45.120      -20.319       67.357       51.605       35.866     4537.029     2663.101     1286.352        0.789        0.424       82.972       38.481        0.215      338.747       11.608      870.032
01/13/2021  07:30:00      -55.260      -35.177      -31.641       73.608       57.202       37.103     5418.065     3272.060     1376.623        0.768        0.503       65.507       29.475        0.202      338.897       11.861      870.047
01/13/2021  07:31:00      -85.959       -0.623      -27.067       47.377       35.380       28.524     2244.556     1251.767      813.619        0.622        0.215       85.961       27.579        0.103      338.158       10.619      870.106
01/13/2021  07:32:00     -107.556      -30.003      -25.769       67.735       23.908       26.169     4588.010      571.594      684.831        0.949        0.292      111.662       22.697        0.041      338.418       11.056      870.090
01/13/2021  07:33:00      -75.455      -18.088        1.654       94.087       39.571       40.337     8852.343     1565.882     1627.066        0.903        0.602       77.592       17.978        0.054      338.729       11.579      870.090
01/13/2021  07:34:00     -188.320      -28.250       -9.481       74.230       39.066       36.561     5510.061     1526.157     1336.743        2.236        0.419      190.427        8.310        0.002      339.251       12.454      870.094
01/13/2021  07:35:00     -107.325       -3.448       -0.380       87.898       56.960       45.177     7725.982     3244.473     2041.005        1.227        0.651      107.380       26.435        0.061      339.107       12.213      870.096
01/13/2021  07:36:00      -94.657      -32.474       -9.014       76.347       65.029       34.404     5828.877     4228.765     1183.630        1.067        0.562      100.072       25.126        0.063      339.245       12.446      870.071
01/13/2021  07:37:00      123.799     -196.045      -46.859       72.732       51.992       37.296     5289.893     2703.203     1391.022        3.267        0.469      231.862       42.423        0.033      339.819       13.409      870.008
01/13/2021  07:38:00       35.693      -90.967      -32.583       65.806       74.381       34.066     4330.427     5532.475     1160.522        1.081        0.551       97.719       36.990        0.143      339.506       12.884      870.037
01/13/2021  07:39:00       30.618      -52.242      -22.006       59.451       40.574       31.735     3534.470     1646.276     1007.088        0.517        0.309       60.553       32.618        0.290      339.435       12.767      870.053
01/13/2021  07:40:00      -49.393      -11.114      -17.549       56.044       39.158       29.118     3140.909     1533.387      847.863        0.420        0.276       50.628       34.061        0.453      339.350       12.624      870.082
01/13/2021  07:41:00      -43.994      -15.654      -12.766       55.132       29.633       27.881     3039.574      878.117      777.356        0.352        0.235       46.697       28.522        0.373      339.563       12.982      870.130
01/13/2021  07:42:00       62.186      -21.056      -10.303       70.111       53.392       51.217     4915.563     2850.691     2623.131        0.740        0.519       65.654       48.159        0.538      339.455       12.799      870.127
01/13/2021  07:43:00       75.258      -73.259      -18.528       72.743       79.991       41.979     5291.473     6398.544     1762.205        1.241        0.673      105.027       39.405        0.141      339.527       12.920      870.138
01/13/2021  07:44:00       -3.121      -40.754      -24.527       66.389       63.089       33.597     4407.470     3980.190     1128.782        0.589        0.476       40.874       33.569        0.675      339.585       13.020      870.183
01/13/2021  07:45:00     -120.057       28.852       -8.613       80.305       47.726       37.438     6448.822     2277.818     1401.639        1.272        0.506      123.475       21.851        0.031      338.464       11.132      870.233
01/13/2021  07:46:00     -180.733       -2.827       -8.796       77.976       60.583       34.058     6080.233     3670.344     1159.981        2.183        0.546      180.755       22.326        0.015      339.080       12.167      870.251
01/13/2021  07:47:00      -54.918        2.552       -2.515       69.575       38.098       30.703     4840.698     1451.463      942.650        0.513        0.362       54.977       17.657        0.103      338.801       11.700      870.262
01/13/2021  07:48:00       45.170       20.814      -13.105       61.487       30.497       29.185     3780.601      930.049      851.745        0.410        0.278       49.735       37.173        0.559      338.760       11.630      870.261
01/13/2021  07:49:00       38.832       38.790      -11.808       45.777       28.622       21.450     2095.575      819.190      460.123        0.326        0.169       54.887       24.544        0.200      338.884       11.839      870.337
01/13/2021  07:50:00        4.803       17.941       -0.953       45.903       29.649       22.993     2107.071      879.055      528.658        0.193        0.176       18.573       26.077        1.971      339.008       12.048      870.379
01/13/2021  07:51:00       25.795        9.612       -6.160       51.637       28.746       27.073     2666.430      826.331      732.961        0.251        0.211       27.528       33.763        1.504      339.169       12.319      870.420
01/13/2021  07:52:00      -68.125       -7.042      -28.028       65.880       38.877       30.471     4340.169     1511.410      928.503        0.613        0.339       68.488       30.074        0.193      338.341       10.926      870.487
01/13/2021  07:53:00      -63.746      -24.043      -12.533       77.867       19.203       26.687     6063.317      368.745      712.206        0.597        0.357       68.129       17.434        0.065      339.028       12.082      870.535
01/13/2021  07:54:00      -35.534      -28.506      -10.422       70.690       48.250       28.682     4997.073     2328.069      822.682        0.516        0.407       45.555       21.219        0.217      339.068       12.149      870.569
01/13/2021  07:55:00       -4.146      -70.292      -10.624       78.348       65.623       33.724     6138.352     4306.323     1137.285        0.832        0.579       70.415       34.775        0.244      339.173       12.326      870.571
01/13/2021  07:56:00       -4.731     -108.978      -28.402       49.894       69.537       36.250     2489.447     4835.380     1314.081        1.067        0.432      109.081       40.841        0.140      339.602       13.047      870.530
01/13/2021  07:57:00       46.679      -65.820      -16.726       55.749       30.575       29.339     3107.994      934.857      860.774        0.585        0.245       80.692       33.439        0.172      339.455       12.799      870.513
01/13/2021  07:58:00       23.530      -46.162      -12.860       61.043       40.412       30.678     3726.273     1633.152      941.135        0.457        0.315       51.813       29.394        0.322      339.427       12.753      870.556
01/13/2021  07:59:00      -49.368       -8.949      -19.032       56.812       27.729       31.646     3227.583      768.884     1001.469        0.394        0.250       50.173       23.228        0.214      339.092       12.188      870.598
01/13/2021  08:00:00      -95.617      -79.986      -29.629       69.989       49.034       40.150     4898.468     2404.373     1612.003        1.266        0.446      124.661       18.043        0.021      339.502       12.881      870.637
01/13/2021  08:01:00      -77.283        4.016      -22.561       51.672       30.100       26.259     2670.018      906.021      689.541        0.538        0.213       77.387       26.968        0.121      339.148       12.283      870.661
01/13/2021  08:02:00      -45.431       94.581      -15.738       51.722       26.302       28.355     2675.184      691.816      804.019        0.771        0.209      104.926       27.840        0.070      339.412       12.728      870.650
01/13/2021  08:03:00      -87.343       58.951      -11.551       60.659       60.493       31.791     3679.482     3659.453     1010.652        0.979        0.417      105.376       24.529        0.054      338.818       11.729      870.663
01/13/2021  08:04:00     -140.274       55.814      -18.391       64.762       36.809       27.634     4194.142     1354.908      763.657        1.472        0.316      150.971       24.654        0.027      337.929       10.235      870.690
01/13/2021  08:05:00      -68.778       54.955       -6.179       57.014       43.661       28.365     3250.563     1906.319      804.550        0.687        0.298       88.036       17.701        0.040      339.170       12.321      870.675
01/13/2021  08:06:00      -39.996       -9.879      -13.710       70.030       36.847       33.481     4904.243     1357.732     1120.973        0.463        0.369       41.198       24.801        0.362      338.372       10.978      870.699
01/13/2021  08:07:00     -115.676       -0.115      -11.121       67.034       41.937       31.393     4493.550     1758.748      985.518        1.037        0.362      115.676       25.236        0.048      338.406       11.036      870.724
01/13/2021  08:08:00     -144.174      -91.488      -23.319       72.548       58.217       30.002     5263.258     3389.205      900.103        1.962        0.478      170.752       13.868        0.007      339.537       12.938      870.731
01/13/2021  08:09:00      -90.066      -80.752      -20.928       60.853       50.639       26.625     3703.090     2564.262      708.884        1.102        0.349      120.966       23.538        0.038      339.716       13.241      870.746
01/13/2021  08:10:00      -68.935        2.997       -1.908       70.144       73.458       37.436     4920.141     5396.101     1401.423        0.824        0.586       69.001       28.175        0.167      339.452       12.794      870.761
01/13/2021  08:11:00     -128.003      -56.709      -23.637       73.917       83.393       40.829     5463.712     6954.460     1667.031        1.712        0.704      140.002       25.893        0.034      339.349       12.621      870.795
01/13/2021  08:12:00     -114.857        8.236       -8.892       76.360       41.380       38.100     5830.825     1712.273     1451.642        1.116        0.450      115.152        7.716        0.004      338.537       11.256      870.853
01/13/2021  08:13:00      -91.607       55.763      -12.755       69.884       29.216       32.653     4883.773      853.572     1066.220        0.923        0.340      107.245       25.945        0.059      339.111       12.220      870.886
01/13/2021  08:14:00      -59.655       44.761      -15.511       48.825       32.364       22.575     2383.901     1047.404      509.626        0.487        0.197       74.581       26.403        0.125      339.353       12.629      870.910
01/13/2021  08:15:00      -35.747       23.528      -14.990       71.539       35.951       31.330     5117.863     1292.483      981.586        0.472        0.370       42.795       10.409        0.059      339.321       12.578      870.952
01/13/2021  08:16:00     -122.757       -0.512        0.979       49.709       28.862       30.236     2470.941      833.007      914.238        0.964        0.211      122.758       14.754        0.014      339.091       12.186      870.986
01/13/2021  08:17:00     -103.074       27.341      -10.573       44.462       23.482       24.339     1976.854      551.407      592.394        0.730        0.156      106.638       24.048        0.051      339.098       12.199      871.009
01/13/2021  08:18:00      -71.730       11.392        0.839       51.182       25.510       23.510     2619.560      650.740      552.720        0.455        0.191       72.629       18.993        0.068      338.975       11.993      871.028
01/13/2021  08:19:00      -81.272       38.183       -1.516       51.966       25.303       23.487     2700.517      640.219      551.623        0.598        0.195       89.795       13.079        0.021      338.952       11.952      871.061
01/13/2021  08:20:00      -54.889        4.855       -8.757       63.001       23.923       22.533     3969.114      572.321      507.753        0.408        0.252       55.104       10.034        0.033      338.766       11.640      871.095
01/13/2021  08:21:00      -64.827        7.441      -12.982       33.086        9.444       17.602     1094.688       89.184      309.838        0.296        0.075       65.253       20.732        0.101      339.272       12.493      871.095
01/13/2021  08:22:00      -89.412       33.274      -14.373       47.249       22.231       21.759     2232.513      494.226      473.455        0.625        0.160       95.403       16.977        0.032      339.361       12.641      871.097
01/13/2021  08:23:00      -82.817      -21.898      -23.443       72.533       29.949       37.924     5261.100      896.946     1438.208        0.774        0.380       85.663       15.246        0.032      339.389       12.690      871.107
01/13/2021  08:24:00      -17.471      -38.418      -15.971       36.796       32.150       24.020     1353.974     1033.627      576.940        0.250        0.148       42.204       12.750        0.091      339.554       12.967      871.112
01/13/2021  08:25:00      -16.363      -12.523       -7.049       61.882       32.233       28.273     3829.400     1038.958      799.382        0.307        0.283       20.605       17.895        0.754      339.226       12.413      871.128
01/13/2021  08:26:00      -33.235      -16.475       -3.874       40.958       24.557       25.181     1677.539      603.024      634.091        0.215        0.146       37.094       21.007        0.321      339.099       12.201      871.141
01/13/2021  08:27:00     -201.833       -2.451      -22.768       91.352       65.229       34.906     8345.122     4254.813     1218.418        2.754        0.691      201.848       18.655        0.009      339.473       12.828      871.139
01/13/2021  08:28:00     -134.756      -34.005      -11.298       78.630       44.313       34.801     6182.696     1963.657     1211.082        1.440        0.468      138.980       22.830        0.027      339.468       12.820      871.141
01/13/2021  08:29:00     -113.030        3.647      -17.191       47.920       23.791       21.850     2296.337      565.993      477.417        0.821        0.167      113.089       24.244        0.046      339.367       12.651      871.133
01/13/2021  08:30:00      -87.836       29.563      -13.519       50.275       27.384       27.690     2527.569      749.875      766.714        0.641        0.202       92.678       19.702        0.045      338.930       11.918      871.128
01/13/2021  08:31:00      -87.204       43.234      -12.251       56.240       24.122       24.924     3162.964      581.858      621.228        0.699        0.218       97.333       19.281        0.039      339.231       12.421      871.174
01/13/2021  08:32:00      -53.658      -19.613      -10.680       44.576       28.947       28.528     1987.063      837.910      813.837        0.351        0.182       57.130       12.361        0.047      338.780       11.665      871.226
01/13/2021  08:33:00       12.075       24.442       -2.148       45.754       41.920       22.069     2093.419     1757.327      487.044        0.254        0.217       27.262       21.827        0.641      339.196       12.363      871.226
01/13/2021  08:34:00      -43.031      -14.472       -2.761       30.644       31.367       21.123      939.034      983.873      446.164        0.222        0.118       45.400        9.488        0.044      339.241       12.440      871.244
01/13/2021  08:35:00      -16.852      -16.728      -16.519       38.067       20.326       19.177     1449.096      413.134      367.747        0.153        0.111       23.745       18.406        0.601      338.958       11.963      871.278
01/13/2021  08:36:00      -75.875        7.587      -13.048       34.861       26.927       17.688     1215.280      725.052      312.872        0.412        0.113       76.254       20.084        0.069      338.923       11.905      871.296
01/13/2021  08:37:00      -33.796       -7.403       -3.475       37.911       27.739       20.108     1437.234      769.472      404.320        0.191        0.131       34.597        8.197        0.056      338.904       11.872      871.300
01/13/2021  08:38:00       21.037      -18.424       -6.055       44.903       17.212       24.288     2016.266      296.256      589.887        0.186        0.145       27.964       21.027        0.565      339.183       12.342      871.290
01/13/2021  08:39:00      -27.307       11.587       -3.855       45.410       34.170       19.459     2062.023     1167.602      378.670        0.225        0.180       29.663       22.424        0.571      339.225       12.411      871.324
01/13/2021  08:40:00      -22.501       -4.476       -5.683       26.727       15.404       14.451      714.358      237.282      208.818        0.086        0.058       22.942       15.866        0.478      339.119       12.234      871.363
01/13/2021  08:41:00      -28.560       19.431       -6.055       33.725       19.264       16.923     1137.384      371.093      286.403        0.151        0.090       34.544       10.731        0.097      339.162       12.306      871.373
01/13/2021  08:42:00      -25.622       -1.462       -1.125       47.292       70.509       32.886     2236.562     4971.459     1081.461        0.447        0.414       25.664       19.566        0.581      339.256       12.468      871.360
01/13/2021  08:43:00     -121.108      -17.304      -25.823       49.384       48.815       24.470     2438.820     2382.897      598.770        1.053        0.271      122.338       16.550        0.018      339.195       12.363      871.379
01/13/2021  08:44:00      -76.804        3.248        2.831       51.996       28.529       27.389     2703.557      813.906      750.174        0.509        0.213       76.873       11.702        0.023      339.100       12.203      871.383
01/13/2021  08:45:00      -71.089      -64.167      -17.665       34.469       28.434       21.967     1188.107      808.471      482.535        0.598        0.124       95.766       10.866        0.013      339.206       12.381      871.390
01/13/2021  08:46:00      -84.717      -72.379      -11.367       42.282       37.199       27.442     1787.752     1383.730      753.062        0.823        0.196      111.426        8.404        0.006      339.297       12.533      871.405
01/13/2021  08:47:00     -112.137      -12.142      -14.393       49.992       36.806       26.121     2499.245     1354.658      682.330        0.873        0.227      112.792       17.721        0.025      339.212       12.391      871.397
01/13/2021  08:48:00      -69.426        6.699       -6.544       45.726       19.923       14.737     2090.871      396.914      217.190        0.381        0.135       69.748        7.370        0.011      339.205       12.378      871.406
01/13/2021  08:49:00       11.162       -0.068       -8.990       39.084       14.294       16.708     1527.588      204.309      279.147        0.111        0.101       11.162       23.710        4.512      339.200       12.369      871.360
01/13/2021  08:50:00       18.726       30.866       -8.690       36.371       16.684       16.127     1322.829      278.367      260.069        0.162        0.093       36.103       18.231        0.255      339.141       12.271      871.330
01/13/2021  08:51:00      -12.617      -10.260        2.317       24.787       15.793       13.297      614.414      249.413      176.815        0.066        0.052       16.262        9.177        0.318      339.215       12.399      871.358
01/13/2021  08:52:00        3.405       -8.885       -7.067       20.262       18.143       14.366      410.556      329.155      206.384        0.054        0.047        9.515       13.655        2.060      339.218       12.403      871.388
01/13/2021  08:53:00       22.133       13.778       -5.740       33.771       14.496       14.425     1140.508      210.138      208.076        0.114        0.078       26.071       15.177        0.339      339.145       12.278      871.397
01/13/2021  08:54:00      -26.078      -12.453       -9.474       40.018       19.524       16.118     1601.452      381.199      259.782        0.158        0.112       28.899       17.950        0.386      339.189       12.351      871.436
01/13/2021  08:55:00      -42.861      -54.057      -11.487       22.362       32.007       12.757      500.045     1024.447      162.733        0.329        0.084       68.987        8.063        0.014      339.202       12.375      871.476
01/13/2021  08:56:00      -32.984      -69.292        3.443       49.459       68.576       32.665     2446.173     4702.620     1067.023        0.706        0.411       76.742       30.501        0.158      339.295       12.530      871.476
01/13/2021  08:57:00      -35.018       -2.351       -7.771       54.575       41.156       23.507     2978.429     1693.851      552.591        0.326        0.261       35.097       19.091        0.296      339.303       12.545      871.460
01/13/2021  08:58:00       -7.846       -0.427        5.262       34.778       27.846       19.764     1209.490      775.376      390.635        0.123        0.119        7.858        4.663        0.352      339.323       12.576      871.452
01/13/2021  08:59:00      -33.880      -34.748        0.818       61.136       44.568       33.650     3737.640     1986.293     1132.296        0.460        0.343       48.531       22.707        0.219      339.305       12.547      871.447
01/13/2021  09:00:00      -39.403      -53.904      -14.389       35.345       41.745       17.590     1249.282     1742.664      309.406        0.398        0.165       66.770       14.299        0.046      339.303       12.543      871.445
01/13/2021  09:01:00       36.809      -65.697      -17.533       46.085       39.063       29.484     2123.784     1525.934      869.286        0.525        0.226       75.306       21.800        0.084      339.333       12.595      871.427
01/13/2021  09:02:00       54.342      -12.632      -11.473       56.935       48.177       36.392     3241.581     2321.007     1324.398        0.506        0.344       55.791       34.039        0.372      339.287       12.516      871.406
01/13/2021  09:03:00       -5.088      -24.539       -3.273       57.387       35.026       23.280     3293.318     1226.824      541.939        0.285        0.253       25.061       29.454        1.381      339.251       12.457      871.422
01/13/2021  09:04:00      -91.827      -18.549      -10.400       37.808       38.896       21.722     1429.447     1512.885      471.841        0.615        0.171       93.682       18.549        0.039      339.363       12.645      871.454
01/13/2021  09:05:00      -90.515      -17.927       -8.766       65.545       31.481       21.461     4296.141      991.028      460.557        0.717        0.287       92.273       16.997        0.034      339.389       12.689      871.494
01/13/2021  09:06:00     -116.140      -18.877      -11.963       47.651       29.815       24.730     2270.575      888.927      611.582        0.888        0.189      117.665       15.549        0.017      339.347       12.619      871.519
01/13/2021  09:07:00      -52.957        4.278        3.071       28.024       24.670       17.496      785.319      608.602      306.116        0.227        0.085       53.130       12.837        0.058      339.314       12.561      871.550
01/13/2021  09:08:00      -66.937      -22.643        3.274       47.996       29.848       22.384     2303.569      890.926      501.038        0.435        0.185       70.663       19.436        0.076      339.314       12.561      871.570
01/13/2021  09:09:00      -24.477       -5.550        8.524       31.972       25.377       15.986     1022.196      644.002      255.562        0.131        0.096       25.098       14.482        0.333      339.398       12.702      871.577
01/13/2021  09:10:00      -25.832        2.657       -0.384       26.404       22.418       13.543      697.150      502.561      183.421        0.103        0.069       25.969        6.454        0.062      339.327       12.583      871.569
01/13/2021  09:11:00        8.008       -5.102       -4.886       26.891       18.732       18.208      723.107      350.875      331.546        0.076        0.070        9.496        5.689        0.359      339.398       12.702      871.560
01/13/2021  09:12:00        6.579      -24.855        0.319       26.091       27.862       22.294      680.721      776.267      497.042        0.131        0.098       25.711       18.182        0.500      339.477       12.837      871.525
01/13/2021  09:13:00      -31.664        7.827        6.675       25.673       36.088       19.248      659.104     1302.327      370.503        0.172        0.117       32.618       14.101        0.187      339.480       12.843      871.485
01/13/2021  09:14:00      -47.694       35.361        3.015       33.479       35.297       19.666     1120.871     1245.870      386.753        0.314        0.138       59.373       15.734        0.070      339.585       13.019      871.465
01/13/2021  09:15:00       12.773      -39.417        2.725       58.554       51.623       34.786     3428.533     2664.941     1210.053        0.451        0.365       41.435       28.977        0.489      339.539       12.942      871.436
01/13/2021  09:16:00       77.727     -151.963      -24.137       55.212       75.797       32.893     3048.332     5745.207     1081.923        1.979        0.494      170.688       29.909        0.031      339.465       12.815      871.442
01/13/2021  09:17:00        2.695      -73.475       -0.345       59.081       60.963       39.597     3490.523     3716.517     1567.895        0.709        0.439       73.524       23.503        0.102      339.395       12.700      871.439
01/13/2021  09:18:00      -33.500      -27.611      -14.213       38.139       28.820       19.137     1454.578      830.619      366.236        0.237        0.133       43.412       15.477        0.127      339.247       12.451      871.445
01/13/2021  09:19:00      -28.084       -4.468      -16.639       25.881       22.170       12.820      669.852      491.496      164.361        0.121        0.066       28.437       10.258        0.130      339.360       12.641      871.472
01/13/2021  09:20:00        3.846      -24.919        0.384       41.615       42.710       28.742     1731.794     1824.117      826.104        0.251        0.219       25.214       19.834        0.619      339.434       12.765      871.470
01/13/2021  09:21:00       59.260      -14.107      -22.444       47.425       68.923       30.533     2249.157     4750.348      932.244        0.607        0.397       60.916       28.831        0.224      339.401       12.708      871.452
01/13/2021  09:22:00       33.880      -33.511      -11.333       40.593       40.041       27.026     1647.755     1603.302      730.384        0.319        0.199       47.654       19.989        0.176      339.404       12.714      871.455
01/13/2021  09:23:00        8.696      -13.071       -7.438       49.232       39.861       27.913     2423.777     1588.871      779.126        0.255        0.240       15.699       26.836        2.922      339.469       12.824      871.470
01/13/2021  09:24:00       28.487       17.927       -3.594       37.930       29.949       20.760     1438.680      896.914      430.970        0.196        0.138       33.658       13.607        0.163      339.423       12.747      871.480
01/13/2021  09:25:00       -5.159       -2.515      -14.952       66.801       46.763       23.614     4462.366     2186.758      557.624        0.373        0.360        5.739       15.897        7.672      339.392       12.694      871.464
01/13/2021  09:26:00      -40.611      -19.571       -3.152       46.112       34.702       26.575     2126.340     1204.209      706.243        0.304        0.202       45.081       16.219        0.129      339.376       12.668      871.472
01/13/2021  09:27:00      -23.977      -14.580       -5.287       26.486       20.147       15.585      701.532      405.894      242.896        0.108        0.068       28.061        8.981        0.102      339.383       12.680      871.492
01/13/2021  09:28:00        6.763      -32.949       -5.501       31.498       43.903       25.435      992.152     1927.440      646.922        0.236        0.178       33.636       22.604        0.452      339.397       12.703      871.499
01/13/2021  09:29:00      -28.378       -3.369       -2.618       20.829        9.963       15.001      433.832       99.268      225.018        0.079        0.038       28.578        9.144        0.102      339.244       12.445      871.525
01/13/2021  09:30:00      -46.328       -4.802       -4.625       39.902       13.310       11.655     1592.158      177.147      135.829        0.205        0.095       46.576       18.178        0.152      339.144       12.275      871.559
01/13/2021  09:31:00      -92.388       -2.892      -12.089       32.182       27.324       16.374     1035.680      746.615      268.095        0.537        0.103       92.434       11.032        0.014      339.117       12.232      871.570
01/13/2021  09:32:00      -47.711      -18.172       -7.886       51.582       29.847       23.521     2660.662      890.824      553.251        0.339        0.205       51.055       21.974        0.185      339.097       12.198      871.576
01/13/2021  09:33:00      -73.024        4.313        0.319       49.122       25.882       20.609     2412.980      669.858      424.748        0.443        0.175       73.151       22.812        0.097      339.266       12.481      871.585
01/13/2021  09:34:00     -127.593       14.456       -6.022       24.019       20.907       17.576      576.919      437.097      308.922        0.892        0.066      128.409       13.046        0.010      339.376       12.667      871.599
01/13/2021  09:35:00     -102.879        1.606       -4.712       36.409       19.530       16.095     1325.633      381.412      259.042        0.629        0.098      102.892        8.719        0.007      339.369       12.656      871.610
01/13/2021  09:36:00      -84.040        0.840       -4.771       43.027       25.298       19.221     1851.305      639.979      369.431        0.497        0.143       84.044       20.982        0.062      339.382       12.678      871.619
01/13/2021  09:37:00      -72.913        0.859       -7.559       28.595       19.616       15.849      817.681      384.768      251.178        0.341        0.073       72.918       14.181        0.038      339.387       12.685      871.632
01/13/2021  09:38:00      -28.586        7.496        0.670       29.453       11.438       11.534      867.471      130.834      133.023        0.100        0.057       29.552       10.189        0.119      339.420       12.743      871.649
01/13/2021  09:39:00      -10.516       43.614       -9.001       23.408       30.000       12.209      547.956      899.978      149.061        0.185        0.080       44.864        7.101        0.025      339.459       12.808      871.673
01/13/2021  09:40:00      -30.591       75.236       -1.292       27.688       20.045       15.586      766.619      401.787      242.922        0.400        0.071       81.217       10.144        0.016      339.636       13.105      871.696
01/13/2021  09:41:00      -72.638       41.127       -5.514       31.056       32.829       16.358      964.497     1077.773      267.590        0.465        0.115       83.473       17.239        0.043      339.625       13.085      871.717
01/13/2021  09:42:00     -123.842       -9.520       -8.704       63.095       47.435       34.741     3980.920     2250.057     1206.926        1.147        0.372      124.207       30.495        0.060      339.300       12.537      871.721
01/13/2021  09:43:00     -105.795       -0.838       -1.105       45.972       44.384       30.044     2113.442     1969.956      902.659        0.809        0.249      105.798       23.547        0.050      339.392       12.695      871.714
01/13/2021  09:44:00       26.222       61.261       -9.264       55.661       20.163       28.557     3098.136      406.532      815.485        0.442        0.216       66.637       22.719        0.116      339.400       12.708      871.698
01/13/2021  09:45:00       76.976       35.314      -18.609       25.217       25.219       19.995      635.900      635.978      399.788        0.459        0.084       84.690       15.379        0.033      339.397       12.702      871.671
01/13/2021  09:46:00       44.616       53.613       -1.825       35.197       26.523       18.509     1238.832      703.495      342.580        0.358        0.114       69.749       19.118        0.075      339.406       12.718      871.670
01/13/2021  09:47:00       44.631       49.677       -1.474       44.382       28.282       13.731     1969.765      799.891      188.536        0.371        0.148       66.781       14.534        0.047      339.416       12.738      871.645
01/13/2021  09:48:00       96.008       13.520        1.308       48.488       30.530       23.226     2351.046      932.085      539.446        0.661        0.191       96.956       21.848        0.051      339.468       12.821      871.626
01/13/2021  09:49:00       55.541      -62.497      -24.458       47.918       57.984       19.485     2296.159     3362.112      379.669        0.681        0.302       83.610       24.388        0.085      339.480       12.840      871.612
01/13/2021  09:50:00      108.189      -99.391      -33.516       38.494       64.613       21.743     1481.765     4174.840      472.769        1.442        0.306      146.913       16.627        0.013      339.571       12.994      871.626
01/13/2021  09:51:00       17.725       33.396      -19.128       24.382       19.652       22.736      594.487      386.205      516.926        0.165        0.075       37.808       10.760        0.081      339.643       13.118      871.638
01/13/2021  09:52:00      -13.048       29.867       -0.182       35.065       28.948       18.284     1229.541      837.962      334.322        0.173        0.120       32.593        4.797        0.022      339.526       12.920      871.650
01/13/2021  09:53:00      -74.351       34.585      -14.160       49.601       42.026       25.440     2460.231     1766.160      647.191        0.590        0.244       82.002       12.523        0.023      339.340       12.607      871.687
01/13/2021  09:54:00     -122.315       18.300      -14.138       52.325       44.078       25.462     2737.942     1942.861      648.333        1.041        0.266      123.676       10.979        0.008      339.390       12.691      871.689
01/13/2021  09:55:00     -143.929       21.578      -11.849       32.243       27.436       19.789     1039.614      752.722      391.599        1.175        0.109      145.537       13.385        0.008      339.466       12.817      871.673
01/13/2021  09:56:00      -77.849       11.891      -17.397       39.723       19.082       13.410     1577.937      364.129      179.839        0.431        0.106       78.752       13.316        0.029      339.581       13.012      871.663
01/13/2021  09:57:00      -41.578      -20.442       -6.569       23.769       25.458       18.719      564.978      648.117      350.409        0.188        0.078       46.332       11.125        0.058      339.638       13.110      871.651
01/13/2021  09:58:00      -46.189      -44.140       -5.734       30.644       25.969       21.653      939.085      674.368      468.843        0.310        0.104       63.888       15.720        0.061      339.749       13.297      871.639
01/13/2021  09:59:00        8.839      -57.187      -11.415       64.076       39.201       29.277     4105.723     1536.719      857.138        0.499        0.325       57.866       31.294        0.292      339.678       13.177      871.637
01/13/2021  10:00:00       80.965      -62.249      -43.380       59.322       97.411       47.170     3519.108     9488.881     2224.984        1.377        0.762      102.128       29.520        0.084      339.566       12.986      871.597
01/13/2021  10:01:00       80.577      -65.321      -49.727       80.450      104.587       44.240     6472.209    10938.336     1957.198        1.630        0.968      103.728       26.201        0.064      339.600       13.045      871.544
01/13/2021  10:02:00      124.300     -130.060      -47.712       73.661      104.440       33.499     5425.926    10907.783     1122.190        2.605        0.873      179.905       43.369        0.058      339.647       13.122      871.524
01/13/2021  10:03:00      126.970     -118.893      -40.505       29.386       57.016       21.500      863.554     3250.868      462.259        1.824        0.229      173.945       12.926        0.006      339.618       13.074      871.516
01/13/2021  10:04:00      103.646     -110.926      -21.501       69.089       69.043       38.830     4773.227     4766.983     1507.754        1.728        0.552      151.813       43.277        0.081      339.699       13.211      871.492
01/13/2021  10:05:00      125.073     -191.266      -33.235       83.535       68.660       42.833     6978.123     4714.152     1834.703        3.343        0.676      228.530       46.337        0.041      339.678       13.173      871.474
01/13/2021  10:06:00      116.943     -217.613      -41.290       42.538       47.305       27.353     1809.457     2237.768      748.210        3.376        0.240      247.045       22.483        0.008      339.669       13.155      871.472
01/13/2021  10:07:00      105.365     -221.121      -33.563       36.446       31.974       23.962     1328.279     1022.350      574.179        3.202        0.146      244.941       20.050        0.007      339.680       13.174      871.484
01/13/2021  10:08:00       59.529     -137.081      -30.752       81.851       70.356       47.412     6699.575     4950.024     2247.857        1.859        0.695      149.449       42.738        0.082      339.701       13.214      871.506
01/13/2021  10:09:00      -21.004      -46.750      -16.372       36.228       28.235       21.322     1312.488      797.227      454.621        0.273        0.128       51.251       20.408        0.159      339.790       13.365      871.538
01/13/2021  10:10:00      -45.814      -13.172       -7.547       33.792       27.728       18.618     1141.909      768.831      346.646        0.229        0.113       47.670       18.756        0.155      339.758       13.312      871.550
01/13/2021  10:11:00      -37.182      -10.174       -1.554       24.436       18.859       12.211      597.104      355.657      149.105        0.129        0.055       38.549       10.988        0.081      339.762       13.318      871.560
01/13/2021  10:12:00      -31.562        8.818        2.120       23.454       16.060       15.423      550.104      257.934      237.883        0.106        0.052       32.771        8.970        0.075      339.777       13.343      871.567
01/13/2021  10:13:00      -32.581       -7.272       -9.174       32.324       30.036       15.834     1044.860      902.132      250.710        0.170        0.110       33.383       12.334        0.137      339.713       13.236      871.570
01/13/2021  10:14:00      -75.351        3.082      -15.162       75.798       41.429       21.514     5745.321     1716.399      462.857        0.692        0.396       75.414       19.454        0.067      339.680       13.180      871.594
01/13/2021  10:15:00     -119.748       33.488       -8.974       38.482       36.419       19.127     1480.855     1326.369      365.831        0.936        0.159      124.342       12.289        0.010      339.627       13.091      871.610
01/13/2021  10:16:00      -94.730       22.580      -21.055       30.893       17.513       15.595      954.369      306.718      243.208        0.572        0.075       97.383       10.804        0.012      339.634       13.102      871.613
01/13/2021  10:17:00       18.492       75.923       -0.390       37.692       42.522       26.325     1420.715     1808.121      692.987        0.501        0.196       78.143       21.168        0.073      339.759       13.313      871.610
01/13/2021  10:18:00       30.924       -7.824       -6.539       29.088       29.930       18.854      846.133      895.824      355.470        0.158        0.105       31.898        6.995        0.048      339.764       13.321      871.615
01/13/2021  10:19:00       61.178       50.322      -11.334       41.649       46.016       25.770     1734.637     2117.509      664.118        0.546        0.226       79.215       20.543        0.067      339.724       13.254      871.604
01/13/2021  10:20:00       65.927       51.108      -22.742       37.935       33.239       20.096     1439.069     1104.810      403.854        0.521        0.147       83.417        7.024        0.007      339.765       13.325      871.581
01/13/2021  10:21:00       87.385       72.910       -5.704       40.954       25.336       20.713     1677.237      641.921      429.026        0.787        0.137      113.807       13.115        0.013      339.704       13.220      871.550
01/13/2021  10:22:00      112.784       95.859      -15.023       39.925       37.030       23.654     1593.983     1371.236      559.520        1.283        0.176      148.017       19.856        0.018      339.670       13.162      871.531
01/13/2021  10:23:00       47.167       53.291        2.088       35.352       22.138       16.357     1249.739      490.113      267.548        0.354        0.100       71.167        8.984        0.016      339.705       13.220      871.528
01/13/2021  10:24:00       -3.686       78.697       -3.003       21.147       19.976       12.901      447.182      399.021      166.439        0.361        0.051       78.783        7.205        0.008      339.723       13.253      871.543
01/13/2021  10:25:00      -21.935       82.631       -7.434       25.237       25.354       18.462      636.913      642.831      340.831        0.449        0.081       85.493       11.231        0.017      339.839       13.449      871.579
01/13/2021  10:26:00      -41.710       45.423       -5.659       26.629       27.859       15.303      709.128      776.103      234.175        0.278        0.086       61.668        4.747        0.006      339.963       13.657      871.612
01/13/2021  10:27:00      -73.766       16.271      -18.312       28.189       14.815       14.915      794.624      219.497      222.460        0.364        0.062       75.540        5.177        0.005      339.735       13.274      871.630
01/13/2021  10:28:00     -149.649       55.368      -13.792       55.847       49.826       27.861     3118.897     2482.642      776.248        1.601        0.319      159.563       13.988        0.008      339.876       13.510      871.652
01/13/2021  10:29:00     -129.148       30.689      -19.445       33.949       26.248       22.463     1152.563      688.946      504.604        1.017        0.117      132.744       13.930        0.011      339.744       13.288      871.673
01/13/2021  10:30:00      -56.264        6.675      -10.838       36.882       13.378       15.841     1360.311      178.965      250.930        0.256        0.090       56.658       10.983        0.038      339.718       13.245      871.686
01/13/2021  10:31:00       29.031       12.232       -2.886       34.606       14.989       13.932     1197.545      224.663      194.096        0.131        0.081       31.502        8.316        0.070      339.913       13.573      871.696
01/13/2021  10:32:00       71.346       40.576      -13.694       24.198       27.346       15.655      585.552      747.782      245.073        0.425        0.079       82.077       12.481        0.023      339.839       13.448      871.696
01/13/2021  10:33:00       -0.843       13.041       -1.629       29.596       30.789       20.139      875.918      947.945      405.598        0.120        0.111       13.068       14.587        1.246      339.911       13.568      871.699
01/13/2021  10:34:00       10.007      -29.152       -5.244       38.787       21.710       21.736     1504.397      471.321      472.451        0.171        0.122       30.822       22.931        0.554      339.836       13.443      871.705
01/13/2021  10:35:00      -46.001       -5.391       -7.599       35.361       34.816       16.657     1250.410     1212.176      277.455        0.247        0.137       46.316       16.493        0.127      339.935       13.608      871.720
01/13/2021  10:36:00      -56.828       22.089      -11.134       15.887        9.210       11.693      252.389       84.816      136.731        0.216        0.024       60.970        5.051        0.007      339.795       13.374      871.721
01/13/2021  10:37:00       -0.533       12.350       -8.860       17.118       10.451        9.219      293.030      109.228       84.992        0.036        0.024       12.361        4.729        0.146      339.906       13.561      871.724
01/13/2021  10:38:00      -12.585        8.998        2.213       17.077       18.633       14.999      291.622      347.193      224.968        0.055        0.043       15.470       10.326        0.445      340.072       13.840      871.730
01/13/2021  10:39:00      -79.331       13.712       -7.988       23.535       18.741       14.054      553.901      351.230      197.502        0.382        0.055       80.507       11.660        0.021      339.911       13.569      871.740
01/13/2021  10:40:00       30.987        8.394       -2.723       53.520       21.018       11.405     2864.424      441.771      130.081        0.224        0.172       32.103       15.200        0.224      339.941       13.619      871.744
01/13/2021  10:41:00      102.006       42.019       -9.784       19.528       33.373       15.084      381.335     1113.784      227.530        0.699        0.086      110.321       11.696        0.011      339.899       13.549      871.720
01/13/2021  10:42:00       35.429       33.237       -2.787       26.201       34.221       17.479      686.480     1171.087      305.511        0.226        0.108       48.579       12.613        0.067      339.976       13.678      871.729
01/13/2021  10:43:00       43.732       37.051       -7.726       18.302       16.295        8.645      334.951      265.533       74.738        0.201        0.034       57.317        5.468        0.009      339.942       13.618      871.744
01/13/2021  10:44:00       68.781       33.322      -15.870        9.695       17.359        7.885       93.996      301.334       62.180        0.328        0.023       76.427        2.627        0.001      339.922       13.587      871.742
01/13/2021  10:45:00       72.502       46.496       -8.449       23.005       20.582       16.270      529.214      423.639      264.713        0.435        0.061       86.130       11.771        0.019      340.004       13.723      871.736
01/13/2021  10:46:00       47.934       65.431       -2.094       39.013       24.320       13.109     1522.033      591.451      171.838        0.443        0.114       81.110       15.832        0.038      340.007       13.731      871.766
01/13/2021  10:47:00      102.985       82.017      -11.990       87.631       54.595       23.228     7679.270     2980.602      539.561        1.434        0.560      131.654       25.730        0.038      340.089       13.869      871.787
01/13/2021  10:48:00       55.709       11.879       -9.894      147.757       61.358       33.285    21832.178     3764.811     1107.914        1.502        1.335       56.961       26.667        0.219      340.110       13.903      871.785
01/13/2021  10:49:00      -73.450      -74.192       -4.207      114.152       60.490       48.717    13030.625     3659.073     2373.339        1.499        0.953      104.399       37.197        0.127      340.163       13.993      871.830
01/13/2021  10:50:00      -24.885       23.164      -13.513       79.559       64.425       31.793     6329.708     4150.608     1010.804        0.641        0.575       33.998       23.373        0.473      340.168       14.003      871.818
01/13/2021  10:51:00      -42.829      -35.792       -1.050       68.653       71.486       33.309     4713.289     5110.191     1109.459        0.702        0.547       55.815       24.269        0.189      340.194       14.045      871.839
01/13/2021  10:52:00     -157.103       85.691      -15.636       95.744       53.411       31.207     9166.850     2852.778      973.865        2.263        0.650      178.953       32.987        0.034      340.240       14.122      871.830
01/13/2021  10:53:00     -127.398        5.362        6.644      101.131       85.333       45.003    10227.483     7281.804     2025.252        1.791        0.977      127.511       46.645        0.134      340.412       14.413      871.834
01/13/2021  10:54:00     -186.165       15.453      -13.294       94.659       86.471       41.607     8960.320     7477.256     1731.117        2.662        0.908      186.805       30.130        0.026      340.315       14.247      871.836
01/13/2021  10:55:00     -320.165      164.479      -22.109      123.962      113.666       56.769    15366.511    12919.871     3222.713        8.077        1.575      359.943       48.514        0.018      340.310       14.240      871.823
01/13/2021  10:56:00     -212.226       21.852        9.013      132.637       89.619       61.954    17592.450     8031.539     3838.249        3.752        1.473      213.348       66.934        0.098      340.306       14.232      871.814
01/13/2021  10:57:00     -296.857       44.078        0.885      135.431       84.446       60.563    18341.617     7131.189     3667.911        5.960        1.457      300.111       59.194        0.039      340.249       14.136      871.813
01/13/2021  10:58:00     -152.539      -25.020       12.797      110.669       92.364       64.968    12247.633     8531.056     4220.853        2.452        1.250      154.577       61.145        0.156      340.270       14.173      871.835
01/13/2021  10:59:00     -315.749       -5.507       -0.902      153.256      107.136       65.901    23487.384    11478.159     4342.883        6.951        1.965      315.797       61.255        0.038      340.181       14.022      871.849
01/13/2021  11:00:00     -183.556      -45.636      -11.088      134.115       96.736       64.457    17986.941     9357.818     4154.715        3.369        1.575      189.144       55.838        0.087      340.223       14.092      871.844
01/13/2021  11:01:00     -173.832      -16.312      -12.537      146.492      108.022       52.067    21459.845    11668.720     2711.006        3.323        1.792      174.596       50.126        0.082      340.277       14.184      871.829
01/13/2021  11:02:00     -173.223      -21.866      -12.798      162.042      111.875       79.669    26257.516    12516.124     6347.108        3.787        2.256      174.598       76.862        0.194      340.330       14.273      871.826
01/13/2021  11:03:00     -151.185       40.664      -11.937      152.233       93.103       61.464    23174.898     8668.214     3777.843        3.013        1.781      156.558       63.743        0.166      340.350       14.308      871.836
01/13/2021  11:04:00     -211.082      -20.313        0.093      154.584      115.121       71.586    23896.251    13252.862     5124.621        4.361        2.114      212.057       71.196        0.113      340.359       14.322      871.826
01/13/2021  11:05:00     -235.239        5.189      -17.610      125.401      110.527       59.676    15725.386    12216.297     3561.185        4.358        1.575      235.296       60.487        0.066      340.330       14.272      871.790
01/13/2021  11:06:00     -144.310       38.094       11.237      108.780       75.967       47.980    11833.047     5771.042     2302.055        2.115        0.995      149.253       46.063        0.095      340.426       14.437      871.804
01/13/2021  11:07:00     -196.831       58.058       -5.388      112.519       67.707       43.901    12660.501     4584.206     1927.287        3.065        0.959      205.215       30.291        0.022      340.406       14.401      871.792
01/13/2021  11:08:00     -198.750       18.560       -4.308      112.449       88.534       51.466    12644.769     7838.328     2648.798        3.149        1.157      199.615       52.108        0.068      340.442       14.463      871.823
01/13/2021  11:09:00     -123.371       42.812        8.250       99.783       79.639       58.682     9956.655     6342.419     3443.625        1.843        0.987      130.588       45.528        0.122      340.410       14.410      871.860
01/13/2021  11:10:00     -292.387       59.849      -26.924      146.327       87.450       53.565    21411.734     7647.454     2869.221        6.086        1.596      298.449       33.691        0.013      340.299       14.219      871.840
01/13/2021  11:11:00     -102.513       52.991       11.328       86.201       97.162       43.809     7430.692     9440.409     1919.249        1.611        0.940      115.399       38.250        0.110      340.398       14.389      871.858
01/13/2021  11:12:00     -281.669       68.076      -12.831      134.371       60.167       41.682    18055.521     3620.021     1737.391        5.377        1.171      289.778       41.638        0.021      340.246       14.132      871.826
01/13/2021  11:13:00      -64.613       16.727       -3.010       97.501       73.131       37.080     9506.389     5348.115     1374.956        1.034        0.811       66.743       37.467        0.315      340.289       14.207      871.782
01/13/2021  11:14:00     -144.022       79.613      -30.392      113.942       73.953       49.630    12982.793     5469.094     2463.142        2.446        1.046      164.562       37.549        0.052      340.366       14.336      871.761
01/13/2021  11:15:00     -175.287       91.111      -31.556       53.224       86.371       46.992     2832.753     7459.888     2208.288        2.626        0.625      197.552       33.284        0.028      340.294       14.213      871.782
01/13/2021  11:16:00     -137.974      126.413       -8.172       59.484       70.689       36.537     3538.374     4996.896     1334.933        2.247        0.494      187.128       27.433        0.021      340.467       14.506      871.791
01/13/2021  11:17:00      -40.120       17.849       -8.264       56.413       67.672       29.516     3182.430     4579.512      871.180        0.531        0.432       43.912       19.639        0.200      340.486       14.540      871.806
01/13/2021  11:18:00      -45.662      -10.764      -15.900       68.882       43.414       30.281     4744.711     1884.796      916.942        0.500        0.377       46.913       16.863        0.129      340.453       14.484      871.797
01/13/2021  11:19:00     -124.035      -11.661       -8.220      103.024       68.950       47.305    10614.002     4754.043     2237.727        1.659        0.880      124.582       53.876        0.187      340.442       14.464      871.797
01/13/2021  11:20:00      -82.340      -41.727        3.787      171.022       71.636       64.027    29248.627     5131.773     4099.411        2.350        1.924       92.309       76.861        0.693      340.441       14.462      871.773
01/13/2021  11:21:00     -128.795       55.391      -12.802       78.511       77.556       43.156     6163.932     6014.939     1862.441        1.693        0.702      140.201       25.627        0.033      340.446       14.473      871.764
01/13/2021  11:22:00     -181.961        0.186       -6.471      162.371       57.269       41.027    26364.452     3279.718     1683.218        3.223        1.566      181.961       36.849        0.041      340.425       14.435      871.728
01/13/2021  11:23:00     -173.595        3.270      -16.475       71.008       43.346       34.303     5042.145     1878.915     1176.665        1.926        0.405      173.626       29.765        0.029      340.330       14.274      871.723
01/13/2021  11:24:00     -133.622        1.567       -4.492       75.739       44.563       39.722     5736.424     1985.826     1577.874        1.359        0.465      133.631       27.817        0.043      340.379       14.359      871.720
01/13/2021  11:25:00      -70.736      -13.370        4.132       58.003       33.702       26.432     3364.305     1135.848      698.673        0.520        0.260       71.988       25.037        0.121      340.390       14.378      871.702
01/13/2021  11:26:00     -229.129      -42.863      -16.987       97.143       65.935       50.673     9436.699     4347.451     2567.737        3.549        0.818      233.104       46.854        0.040      340.353       14.310      871.675
01/13/2021  11:27:00     -191.084      -60.531      -16.059      169.055       91.273       59.701    28579.474     8330.671     3564.260        4.045        2.024      200.442       73.070        0.133      340.384       14.365      871.669
01/13/2021  11:28:00     -231.146      -34.572       -0.036      106.570       91.868       61.393    11357.257     8439.703     3769.091        3.909        1.178      233.718       48.132        0.042      340.299       14.220      871.637
01/13/2021  11:29:00     -154.571        2.122       16.199      129.105       94.444       47.572    16668.112     8919.703     2263.058        2.600        1.393      154.585       49.115        0.101      340.383       14.364      871.587
01/13/2021  11:30:00     -212.790     -119.193      -19.105      119.540      100.553       57.979    14289.730    10110.882     3361.593        4.380        1.388      243.899       54.208        0.049      340.336       14.282      871.568
01/13/2021  11:31:00     -236.436      -88.653      -44.591      110.877      108.261       50.476    12293.768    11720.459     2547.862        4.615        1.328      252.510       57.920        0.053      340.349       14.306      871.530
01/13/2021  11:32:00     -226.972      -86.007      -18.758       79.674      112.578       50.952     6347.913    12673.743     2596.107        4.044        1.081      242.721       44.149        0.033      340.346       14.300      871.508
01/13/2021  11:33:00     -198.355      -22.986      -12.228      114.131       97.921       47.867    13025.931     9588.474     2291.252        3.246        1.245      199.682       42.171        0.045      340.360       14.323      871.500
01/13/2021  11:34:00     -419.071      -28.814      -21.485      108.360       75.827       61.759    11741.791     5749.669     3814.153        9.910        1.065      420.060       55.317        0.017      340.281       14.188      871.490
01/13/2021  11:35:00     -235.587      -25.578       -0.439      139.292      100.271       78.401    19402.296    10054.238     6146.751        4.587        1.780      236.971       77.584        0.107      340.372       14.343      871.518
01/13/2021  11:36:00     -275.825      -76.541      -17.321      136.504       88.742       60.903    18633.386     7875.092     3709.181        5.622        1.511      286.249       57.423        0.040      340.361       14.326      871.536
01/13/2021  11:37:00     -190.113      -46.334        8.580      152.117       71.993       65.111    23139.600     5182.936     4239.410        3.546        1.628      195.678       69.710        0.127      340.393       14.380      871.540
01/13/2021  11:38:00     -230.572      -54.398      -21.291      146.045       91.466       56.137    21329.283     8365.954     3151.318        4.470        1.642      236.902       58.794        0.062      340.382       14.363      871.546
01/13/2021  11:39:00     -315.684      -55.329      -20.347      137.354       98.601       69.255    18866.204     9722.212     4796.301        6.825        1.669      320.496       68.819        0.046      340.312       14.242      871.523
01/13/2021  11:40:00     -242.845      -79.228       -8.165      128.784      147.216       70.138    16585.261    21672.415     4919.315        5.424        2.159      255.442       68.443        0.072      340.418       14.421      871.498
01/13/2021  11:41:00     -153.576      -19.413      -15.878      177.032      146.865       76.280    31340.305    21569.271     5818.569        4.146        2.936      154.798       63.672        0.169      340.385       14.366      871.519
01/13/2021  11:42:00     -205.242      -22.573      -35.734      157.871       97.311       67.561    24923.159     9469.414     4564.442        4.143        1.948      206.479       65.389        0.100      340.287       14.200      871.506
01/13/2021  11:43:00     -136.451       -7.855      -16.160      170.375      109.695       59.514    29027.644    12032.949     3541.955        3.176        2.230      136.677       36.338        0.071      340.379       14.357      871.495
01/13/2021  11:44:00     -286.277       45.784        2.912      172.590       97.140       70.089    29787.404     9436.130     4912.480        6.409        2.207      289.915       78.025        0.072      340.430       14.443      871.510
01/13/2021  11:45:00     -181.546       17.109      -23.481      141.999       99.138       48.508    20163.576     9828.368     2353.070        3.307        1.617      182.350       46.151        0.064      340.406       14.402      871.517
01/13/2021  11:46:00     -183.411       86.498      -15.100       97.458       56.696       47.168     9498.134     3214.453     2224.831        2.814        0.747      202.785       50.652        0.062      340.528       14.607      871.545
01/13/2021  11:47:00     -173.934       56.520      -11.307      111.518       63.824       36.025    12436.175     4073.516     1297.798        2.569        0.890      182.886       38.294        0.044      340.600       14.729      871.537
01/13/2021  11:48:00     -183.559       28.033       -5.693      104.165       71.553       38.874    10850.378     5119.859     1511.178        2.599        0.874      185.687       40.443        0.047      340.517       14.591      871.537
01/13/2021  11:49:00     -166.665        5.301        0.593       97.615       57.755       45.370     9528.637     3335.682     2058.447        2.136        0.746      166.750       47.877        0.082      340.640       14.798      871.539
01/13/2021  11:50:00     -357.159       90.861      -13.261      131.125       85.233       63.036    17193.641     7264.693     3973.566        8.221        1.422      368.535       70.033        0.036      340.388       14.371      871.526
01/13/2021  11:51:00     -133.113       -8.461      -17.584      171.932       92.786       69.364    29560.664     8609.156     4811.417        3.053        2.149      133.382       73.112        0.300      340.410       14.409      871.514
01/13/2021  11:52:00     -231.901       44.137      -29.740      185.198      105.467       76.134    34298.231    11123.230     5796.335        5.390        2.561      236.063       85.106        0.130      340.367       14.337      871.503
01/13/2021  11:53:00     -216.120       18.390        2.678      179.837      114.224       74.024    32341.350    13047.100     5479.603        4.895        2.543      216.901       75.402        0.121      340.299       14.221      871.478
01/13/2021  11:54:00     -290.045       68.548        1.929      165.124       93.956       72.137    27265.987     8827.778     5203.733        6.505        2.065      298.035       76.623        0.066      340.336       14.283      871.477
01/13/2021  11:55:00     -133.238       82.179       12.854      196.273       95.035       67.770    38523.186     9031.733     4592.768        3.840        2.607      156.543       58.147        0.138      340.333       14.279      871.486
01/13/2021  11:56:00      -63.571       46.415       -9.330      111.097       70.084       41.320    12342.604     4911.812     1707.378        1.262        0.948       78.712       22.815        0.084      340.483       14.533      871.518
01/13/2021  11:57:00     -167.183       50.201       -4.405       92.101       83.924       47.204     8482.605     7043.281     2228.258        2.412        0.888      174.558       48.343        0.077      340.421       14.427      871.520
01/13/2021  11:58:00     -266.357       43.687       -3.052      104.238       99.663       55.790    10865.640     9932.774     3112.475        4.838        1.196      269.916       47.813        0.031      340.399       14.389      871.530
01/13/2021  11:59:00     -280.009       27.460       -8.160      127.726      104.999       63.853    16313.969    11024.758     4077.200        5.531        1.571      281.352       65.551        0.054      340.258       14.151      871.505
01/13/2021  12:00:00     -223.630       10.837       -6.510      115.835       98.169       59.648    13417.782     9637.206     3557.941        3.839        1.331      223.893       53.245        0.057      340.364       14.330      871.520
01/13/2021  12:01:00     -219.047       13.137      -11.123      110.543       62.158       50.404    12219.668     3863.649     2540.584        3.345        0.931      219.441       40.070        0.033      340.334       14.279      871.519
01/13/2021  12:02:00     -176.523       85.827       -9.895       84.414       81.773       45.052     7125.764     6686.877     2029.702        2.723        0.792      196.282       35.075        0.032      340.337       14.285      871.530
01/13/2021  12:03:00     -231.527       81.983       -3.621      107.269       88.752       49.187    11506.685     7876.844     2419.326        4.107        1.090      245.614       44.986        0.034      340.342       14.293      871.530
01/13/2021  12:04:00     -153.585      -12.052       -9.145      116.246       83.575       46.088    13513.033     6984.821     2124.095        2.321        1.131      154.057       48.440        0.099      340.383       14.363      871.534
01/13/2021  12:05:00        4.336       36.574       18.269       52.248       55.219       38.664     2729.884     3049.109     1494.942        0.448        0.364       36.830       10.136        0.076      340.459       14.494      871.547
01/13/2021  12:06:00      -66.137       23.866       -0.378       98.616       39.432       30.454     9725.083     1554.899      927.474        0.857        0.610       70.312       22.006        0.098      340.481       14.530      871.567
01/13/2021  12:07:00     -206.454       24.170      -10.332       66.462       49.450       37.206     4417.199     2445.332     1384.257        2.578        0.412      207.864       30.763        0.022      340.281       14.190      871.578
01/13/2021  12:08:00     -117.685        1.392        4.883       89.896       65.555       42.382     8081.377     4297.512     1796.199        1.402        0.709      117.693       43.829        0.139      340.410       14.410      871.583
01/13/2021  12:09:00      -39.052       37.276        5.015       53.293       39.062       25.462     2840.168     1525.837      648.307        0.398        0.251       53.987       26.040        0.233      340.533       14.619      871.599
01/13/2021  12:10:00     -123.482       -2.157       -9.076       68.740       67.219       32.144     4725.240     4518.368     1033.266        1.280        0.514      123.500       23.609        0.037      340.460       14.495      871.594
01/13/2021  12:11:00     -168.812       42.645       -7.037       70.556       74.386       40.683     4978.203     5533.277     1655.124        2.126        0.608      174.115       39.371        0.051      340.416       14.421      871.599
01/13/2021  12:12:00     -124.623       13.208       -4.372       48.895       62.953       30.639     2390.718     3963.136      938.738        1.151        0.365      125.321       18.745        0.022      340.536       14.625      871.595
01/13/2021  12:13:00     -176.451       21.959        0.293      105.218       65.622       43.805    11070.900     4306.221     1918.882        2.445        0.865      177.812       48.244        0.074      340.389       14.373      871.581
01/13/2021  12:14:00      -28.641       17.500        4.616       60.418       58.380       36.869     3650.285     3408.178     1359.336        0.478        0.421       33.564       31.859        0.901      340.490       14.547      871.580
01/13/2021  12:15:00     -152.020        9.040       -0.096       74.612       72.145       46.435     5567.004     5204.889     2156.190        1.806        0.646      152.288       38.576        0.064      340.420       14.428      871.579
01/13/2021  12:16:00     -227.036      -11.642        4.745      105.557       65.395       55.489    11142.316     4276.470     3079.003        3.510        0.925      227.334       47.464        0.044      340.450       14.475      871.590
01/13/2021  12:17:00     -305.961       70.801        1.105      118.258       90.482       49.041    13985.053     8186.960     2405.009        6.160        1.229      314.046       45.346        0.021      340.388       14.370      871.603
01/13/2021  12:18:00     -159.108       50.833        8.794      116.138       76.428       47.044    13488.039     5841.182     2213.139        2.475        1.077      167.031       47.666        0.081      340.544       14.635      871.589
01/13/2021  12:19:00     -194.365       33.003        4.695      118.116       77.534       48.265    13951.304     6011.563     2329.539        3.059        1.115      197.148       37.997        0.037      340.425       14.434      871.565
01/13/2021  12:20:00     -216.803       59.984       -3.778       87.265       82.731       50.241     7615.153     6844.347     2524.152        3.380        0.849      224.948       46.270        0.042      340.387       14.369      871.522
01/13/2021  12:21:00     -151.069       40.263        7.105      120.828       78.369       46.786    14599.405     6141.739     2188.963        2.371        1.147      156.343       44.330        0.080      340.474       14.517      871.489
01/13/2021  12:22:00     -255.544       93.277       24.542      180.397      108.984       69.109    32543.003    11877.504     4776.016        6.189        2.460      272.036       60.417        0.049      340.541       14.630      871.474
01/13/2021  12:23:00     -227.538       28.181       18.570      138.066       95.353       61.449    19062.349     9092.119     3775.949        4.241        1.597      229.276       75.346        0.108      340.450       14.476      871.471
01/13/2021  12:24:00     -264.356       49.218       -5.081      109.498       50.649       42.957    11989.859     2565.295     1845.284        4.436        0.820      268.899       45.671        0.029      340.297       14.216      871.483
01/13/2021  12:25:00     -198.634      -28.811       -1.416      152.863       96.258       70.412    23367.166     9265.517     4957.793        3.893        1.880      200.713       75.292        0.141      340.410       14.409      871.496
01/13/2021  12:26:00     -279.313      -19.046      -13.874      124.301      109.706       82.395    15450.773    12035.312     6788.986        5.642        1.714      279.961       80.179        0.082      340.349       14.305      871.492
01/13/2021  12:27:00     -222.976       22.999       -7.867       99.543       83.636       49.552     9908.783     6995.063     2455.384        3.483        0.968      224.159       40.972        0.033      340.434       14.449      871.523
01/13/2021  12:28:00     -202.709       62.123        3.784      105.969       90.163       41.476    11229.421     8129.290     1720.291        3.302        1.054      212.015       41.626        0.039      340.477       14.521      871.531
01/13/2021  12:29:00     -204.510       36.509       -3.879      134.410       72.498       50.414    18066.073     5256.018     2541.585        3.451        1.293      207.744       59.487        0.082      340.497       14.556      871.500
01/13/2021  12:30:00     -136.823       -2.644       -6.479      119.657       90.648       53.816    14317.910     8217.079     2896.155        2.209        1.272      136.849       54.140        0.157      340.528       14.609      871.477
01/13/2021  12:31:00     -283.792       40.276       -3.104      197.868       94.746       65.794    39151.612     8976.776     4328.823        6.730        2.623      286.636       73.864        0.066      340.416       14.418      871.428
01/13/2021  12:32:00     -131.295       54.503        3.766      139.837       85.830       53.773    19554.334     7366.818     2891.577        2.501        1.491      142.158       54.414        0.147      340.639       14.795      871.427
01/13/2021  12:33:00     -260.684      112.545      -12.570      135.323       93.256       54.637    18312.277     8696.654     2985.244        5.538        1.500      283.941       55.205        0.038      340.536       14.621      871.402
01/13/2021  12:34:00     -136.867       62.826       -3.144      112.675       78.308       52.184    12695.599     6132.201     2723.187        2.212        1.078      150.598       50.391        0.112      340.621       14.766      871.379
01/13/2021  12:35:00      -33.952       51.734       -3.202       42.732       49.930       29.249     1826.014     2493.028      855.528        0.451        0.259       61.880       12.495        0.041      340.697       14.897      871.350
01/13/2021  12:36:00      -33.902       21.808        3.681       60.575       47.077       30.989     3669.365     2216.256      960.289        0.424        0.342       40.310       34.381        0.727      340.733       14.957      871.342
01/13/2021  12:37:00     -120.751      -10.658        8.500      111.464       53.051       44.340    12424.178     2814.417     1966.001        1.598        0.860      121.221       39.298        0.105      340.594       14.722      871.314
01/13/2021  12:38:00      -47.922       12.178        4.233      103.832       95.622       54.946    10781.105     9143.559     3019.070        1.270        1.147       49.445       28.086        0.323      340.533       14.618      871.308
01/13/2021  12:39:00     -169.721       39.780       -6.135      169.650      103.835       60.197    28781.135    10781.805     3623.725        3.680        2.159      174.320       57.489        0.109      340.528       14.607      871.311
01/13/2021  12:40:00     -193.599       14.361      -12.697      159.481       95.040       55.906    25434.210     9032.575     3125.441        3.771        1.880      194.131       64.965        0.112      340.502       14.565      871.312
01/13/2021  12:41:00     -144.312      -16.391        3.581      133.116       54.729       51.592    17719.882     2995.259     2661.747        2.224        1.169      145.239       54.293        0.140      340.503       14.566      871.309
01/13/2021  12:42:00     -143.411       -8.903        5.330       77.925       64.463       46.642     6072.308     4155.510     2175.515        1.654        0.620      143.687       36.896        0.066      340.552       14.650      871.298
01/13/2021  12:43:00     -200.432       23.812      -16.182      100.317       73.228       42.222    10063.566     5362.347     1782.682        2.910        0.860      201.841       37.944        0.035      340.482       14.530      871.267
01/13/2021  12:44:00     -275.585       51.788      -22.843      115.436       68.573       47.580    13325.540     4702.198     2263.830        4.972        1.015      280.409       27.404        0.010      340.488       14.540      871.241
01/13/2021  12:45:00     -216.177       15.392      -20.556      146.519      112.239       61.161    21467.921    12597.650     3740.622        4.259        1.890      216.725       44.250        0.042      340.487       14.540      871.213
01/13/2021  12:46:00     -192.266        1.248        0.053      167.176      100.451       60.917    27947.725    10090.375     3710.822        3.935        2.087      192.270       66.099        0.118      340.565       14.670      871.197
01/13/2021  12:47:00     -169.259        2.540       -6.349      141.787       84.348       53.192    20103.512     7114.531     2829.379        2.937        1.502      169.278       59.189        0.122      340.558       14.659      871.186
01/13/2021  12:48:00     -247.006      101.598      -26.238      129.527      157.925       49.748    16777.293    24940.214     2474.870        5.810        2.210      267.085       59.027        0.049      340.598       14.726      871.179
01/13/2021  12:49:00     -216.526       25.505       10.199      126.164       66.334       50.212    15917.418     4400.174     2521.263        3.523        1.142      218.022       61.049        0.078      340.686       14.876      871.134
01/13/2021  12:50:00      -72.290      -12.075        7.803       98.113       62.973       59.650     9626.161     3965.584     3558.064        1.129        0.857       73.291       54.325        0.549      340.767       15.013      871.097
01/13/2021  12:51:00      -11.684       45.867       -0.529       89.279       63.511       54.503     7970.788     4033.588     2970.559        0.860        0.749       47.332       31.790        0.451      340.816       15.098      871.057
01/13/2021  12:52:00     -256.195       76.909      -13.067       83.448       71.213       38.272     6963.501     5071.337     1464.756        4.261        0.675      267.490       29.166        0.012      340.727       14.943      871.028
01/13/2021  12:53:00     -137.040       15.923      -12.264      127.099       75.392       44.137    16154.078     5683.910     1948.060        2.148        1.189      137.962       38.060        0.076      340.744       14.974      871.005
01/13/2021  12:54:00     -189.146      -15.372       -8.483      227.559       86.784       68.905    51783.284     7531.535     4747.943        5.006        3.203      189.770       79.784        0.177      340.780       15.035      870.972
01/13/2021  12:55:00     -287.832       28.837       -5.869      181.817       79.967       69.305    33057.306     6394.644     4803.234        6.397        2.213      289.273       78.193        0.073      340.621       14.766      870.946
01/13/2021  12:56:00     -354.415       23.588      -14.641      126.355       85.657       54.567    15965.705     7337.138     2977.605        7.633        1.314      355.200       52.195        0.022      340.549       14.643      870.933
01/13/2021  12:57:00     -239.147      -15.164       -3.775      139.566       61.340       66.392    19478.785     3762.602     4407.907        4.254        1.382      239.627       55.613        0.054      340.642       14.800      870.929
01/13/2021  12:58:00      -99.400       50.687        8.044      160.768      107.761       62.145    25846.392    11612.520     3862.057        2.691        2.066      111.577       49.827        0.199      340.760       14.999      870.934
01/13/2021  12:59:00     -193.356      -40.215       -6.393      159.825       97.151       64.867    25543.904     9438.410     4207.717        3.911        1.960      197.494       61.243        0.096      340.486       14.537      870.919
01/13/2021  13:00:00     -106.975       13.653       -5.795      139.872       83.733       63.726    19564.139     7011.236     4061.003        2.114        1.532      107.843       75.249        0.487      340.584       14.703      870.929
01/13/2021  13:01:00     -132.108       41.450        8.900      107.581       91.370       53.904    11573.673     8348.457     2905.617        2.103        1.141      138.458       47.313        0.117      340.730       14.951      870.940
01/13/2021  13:02:00     -173.100       -9.550      -17.141      115.435       69.317       50.741    13325.232     4804.797     2574.612        2.552        1.035      173.363       53.829        0.096      340.521       14.596      870.922
01/13/2021  13:03:00     -171.985        5.287        1.501       88.489       58.915       44.275     7830.265     3470.954     1960.241        2.143        0.663      172.067       44.808        0.068      340.615       14.755      870.895
01/13/2021  13:04:00     -110.919        8.891        0.193      100.705       62.758       31.041    10141.503     3938.608      963.523        1.371        0.752      111.274       32.996        0.088      340.646       14.809      870.891
01/13/2021  13:05:00      -44.341        4.412       -7.400       84.841       74.310       37.543     7198.007     5522.015     1409.498        0.808        0.706       44.560       33.570        0.568      340.675       14.860      870.848
01/13/2021  13:06:00     -139.534       12.936        6.947       73.756       45.985       42.491     5439.907     2114.580     1805.455        1.452        0.468      140.132       38.518        0.076      340.666       14.842      870.812
01/13/2021  13:07:00     -134.496      -25.917        8.209      133.361       65.499       54.061    17785.136     4290.087     2922.637        2.191        1.250      136.970       63.712        0.216      340.613       14.754      870.797
01/13/2021  13:08:00      -64.568       -2.649       -5.458      100.650       50.318       35.496    10130.438     2531.951     1259.960        0.906        0.696       64.623       27.026        0.175      340.891       15.224      870.799
01/13/2021  13:09:00       14.300       33.403        4.174       36.093       36.401       21.265     1302.737     1325.051      452.208        0.221        0.154       36.335        7.357        0.041      340.987       15.386      870.825
01/13/2021  13:10:00     -117.582       18.736      -11.383       51.335       69.115       32.137     2635.295     4776.935     1032.795        1.137        0.422      119.066       33.440        0.079      341.087       15.556      870.822
01/13/2021  13:11:00     -104.745       18.480       -3.472       87.339       53.532       42.930     7628.054     2865.650     1842.961        1.183        0.617      106.363       44.305        0.174      340.949       15.323      870.806
01/13/2021  13:12:00     -232.028       59.693      -19.723       88.249       47.740       39.313     7787.908     2279.073     1545.530        3.470        0.581      239.583       44.059        0.034      340.691       14.882      870.788
01/13/2021  13:13:00     -191.607       37.450      -20.516       64.135       46.307       37.145     4113.320     2144.350     1379.780        2.309        0.382      195.232       28.767        0.022      340.679       14.863      870.759
01/13/2021  13:14:00     -184.670       38.420      -20.330      125.913       46.169       43.105    15854.159     2131.562     1858.070        2.791        0.992      188.624       47.826        0.064      340.752       14.986      870.729
01/13/2021  13:15:00      -53.188      -38.736        8.420       85.744       78.914       44.461     7352.057     6227.409     1976.824        0.997        0.778       65.798       30.436        0.214      340.941       15.309      870.715
01/13/2021  13:16:00     -175.068      -27.601        2.965       84.578       69.319       49.406     7153.398     4805.068     2440.991        2.291        0.720      177.230       50.315        0.081      340.701       14.901      870.706
01/13/2021  13:17:00     -220.386      -52.534       -9.765       69.530       60.103       46.447     4834.430     3612.421     2157.324        3.101        0.530      226.561       45.371        0.040      340.622       14.765      870.690
01/13/2021  13:18:00     -135.583      -32.618      -10.170       87.444       64.976       40.693     7646.425     4221.899     1655.946        1.653        0.676      139.452       42.432        0.093      340.714       14.925      870.676
01/13/2021  13:19:00     -145.254      -30.579       -6.773       66.728       41.434       36.170     4452.629     1716.769     1308.235        1.478        0.374      148.438       33.503        0.051      340.738       14.965      870.658
01/13/2021  13:20:00     -136.537      -30.726       -8.708       72.078       43.728       32.442     5195.255     1912.143     1052.485        1.391        0.408      139.952       36.112        0.067      340.781       15.038      870.644
01/13/2021  13:21:00     -110.592      -12.122       -3.861       71.712       51.545       34.985     5142.621     2656.927     1223.956        1.071        0.451      111.254       30.334        0.074      340.886       15.218      870.648
01/13/2021  13:22:00     -113.849      -35.774        8.865      112.238       65.291       37.290    12597.422     4262.877     1390.553        1.628        0.913      119.337       38.506        0.104      340.957       15.335      870.662
01/13/2021  13:23:00     -205.249      -55.709      -11.004      114.968       97.381       53.780    13217.745     9483.024     2892.323        3.547        1.280      212.675       54.406        0.065      340.790       15.050      870.664
01/13/2021  13:24:00     -236.693       41.085      -12.244       75.461       75.750       43.027     5694.415     5738.033     1851.357        3.557        0.664      240.232       27.710        0.013      340.690       14.880      870.661
01/13/2021  13:25:00     -250.398       62.939        7.636      120.691      125.805       73.953    14566.239    15826.894     5469.050        5.128        1.793      258.187       65.655        0.065      340.890       15.220      870.669
01/13/2021  13:26:00     -151.703       30.855        7.939      113.856       87.470       48.940    12963.290     7651.010     2395.119        2.351        1.150      154.809       48.594        0.099      341.024       15.447      870.695
01/13/2021  13:27:00     -303.734      -33.659      -14.713      110.454       73.378       51.727    12200.131     5384.279     2675.670        5.693        1.013      305.593       49.028        0.026      340.679       14.862      870.695
01/13/2021  13:28:00     -240.467      -35.177      -17.789       92.354       79.069       47.207     8529.301     6251.867     2228.506        3.819        0.850      243.027       41.968        0.030      340.759       14.997      870.710
01/13/2021  13:29:00     -188.833        6.971      -18.791       87.726       69.441       45.948     7695.794     4822.109     2111.223        2.534        0.731      188.962       44.515        0.055      340.810       15.086      870.719
01/13/2021  13:30:00     -226.489       17.503      -10.559       82.128       57.056       42.139     6745.077     3255.419     1775.713        3.174        0.589      227.164       32.851        0.021      340.835       15.128      870.727
01/13/2021  13:31:00     -171.387        5.332       -4.898      101.839       83.896       56.264    10371.218     7038.602     3165.583        2.500        1.029      171.470       54.463        0.101      341.016       15.434      870.745
01/13/2021  13:32:00     -159.373      -16.895       -1.082      122.323       94.104       48.110    14962.877     8855.629     2314.608        2.590        1.307      160.266       53.055        0.110      340.802       15.072      870.735
01/13/2021  13:33:00     -189.746       49.769       -8.293      110.480       79.406       42.601    12205.807     6305.378     1814.833        2.943        1.016      196.164       46.129        0.055      340.947       15.318      870.741
01/13/2021  13:34:00      -43.851       22.056       -2.596       82.101       75.513       42.683     6740.548     5702.245     1821.855        0.834        0.713       49.086       37.647        0.588      341.006       15.418      870.724
01/13/2021  13:35:00      -74.134      -22.243       -0.097      111.926       75.159       47.245    12527.509     5648.807     2232.119        1.320        1.020       77.399       53.390        0.476      340.967       15.352      870.720
01/13/2021  13:36:00      -67.750       -6.126       -0.757      100.631       73.593       50.832    10126.526     5415.991     2583.843        1.137        0.906       68.026       49.628        0.532      341.046       15.485      870.698
01/13/2021  13:37:00      -98.658       14.926      -11.057      138.120       80.674       53.716    19077.090     6508.235     2885.369        1.927        1.424       99.780       53.300        0.285      340.961       15.342      870.676
01/13/2021  13:38:00     -114.853      -50.989       -9.024      114.367       98.590       62.018    13079.742     9719.960     3846.225        2.125        1.332      125.663       61.225        0.237      341.043       15.481      870.650
01/13/2021  13:39:00     -222.688       15.096      -14.684       95.984       89.467       54.957     9212.958     8004.393     3020.295        3.513        1.012      223.199       48.306        0.047      340.992       15.392      870.636
01/13/2021  13:40:00     -200.126       -6.133       -9.167      115.647       71.430       48.787    13374.303     5102.315     2380.215        3.051        1.043      200.220       57.406        0.082      340.999       15.406      870.614
01/13/2021  13:41:00     -217.037      -24.847      -24.302      117.138       59.741       39.589    13721.385     3569.028     1567.250        3.358        0.943      218.455       35.584        0.027      340.816       15.096      870.578
01/13/2021  13:42:00     -116.820        6.741       -1.922      119.791       61.119       51.082    14349.892     3735.521     2609.385        1.719        1.035      117.015       61.654        0.278      340.973       15.362      870.559
01/13/2021  13:43:00     -159.995      -51.729      -24.753       72.443       78.561       43.549     5248.055     6171.886     1896.485        2.110        0.666      168.150       39.957        0.056      340.949       15.321      870.549
01/13/2021  13:44:00     -136.541      -26.929        0.240       89.713       63.980       44.989     8048.333     4093.459     2024.031        1.676        0.708      139.171       52.888        0.144      341.156       15.671      870.538
01/13/2021  13:45:00     -179.901      -53.109       -9.787      102.147       90.886       48.105    10433.974     8260.190     2314.087        2.814        1.050      187.577       39.654        0.045      341.105       15.584      870.526
01/13/2021  13:46:00     -261.441      -33.541       -8.604      136.692       95.762       63.095    18684.691     9170.391     3981.000        5.069        1.592      263.583       66.566        0.064      340.998       15.403      870.514
01/13/2021  13:47:00     -243.383      -17.153       -2.213      114.677       62.403       52.765    13150.711     3894.099     2784.187        3.968        0.991      243.987       52.911        0.047      341.021       15.442      870.485
01/13/2021  13:48:00      -43.403        2.113       32.679      121.347       64.890       53.468    14725.019     4210.674     2858.785        1.237        1.090       43.455       65.237        2.254      341.301       15.917      870.457
01/13/2021  13:49:00      -76.434      -17.269      -11.192      124.695       69.246       40.621    15548.829     4794.995     1650.078        1.413        1.100       78.360       51.167        0.426      341.342       15.987      870.418
01/13/2021  13:50:00     -329.426      -40.863       -7.858      110.561       99.653       55.590    12223.783     9930.682     3090.238        6.774        1.262      331.951       35.166        0.011      340.990       15.388      870.368
01/13/2021  13:51:00     -258.204      -37.738       10.705      178.198      133.255      102.145    31754.688    17757.023    10433.635        6.406        2.997      260.948      104.733        0.161      340.977       15.367      870.342
01/13/2021  13:52:00     -283.758      -18.871      -11.365      126.888      128.855       52.689    16100.444    16603.678     2776.151        5.823        1.774      284.385       38.046        0.018      340.972       15.359      870.342
01/13/2021  13:53:00     -215.245       -9.907        6.761      148.511       80.243       58.425    22055.554     6438.988     3413.468        3.918        1.595      215.473       65.289        0.092      341.117       15.605      870.340
01/13/2021  13:54:00     -257.934      -57.529        4.225      121.917      100.510       60.295    14863.723    10102.225     3635.489        4.922        1.430      264.271       63.378        0.058      341.152       15.664      870.334
01/13/2021  13:55:00     -199.687     -115.459       -1.146       90.364      103.637       62.217     8165.620    10740.543     3870.991        3.799        1.139      230.663       50.532        0.048      341.035       15.466      870.324
01/13/2021  13:56:00     -227.738      -12.587      -26.777      111.259       73.766       48.504    12378.537     5441.475     2352.667        3.645        1.009      228.085       56.593        0.062      341.133       15.630      870.330
01/13/2021  13:57:00     -155.864       33.596        5.147      100.226       70.844       49.658    10045.303     5018.817     2465.868        2.149        0.876      159.444       41.082        0.066      341.226       15.790      870.330
01/13/2021  13:58:00     -219.586       11.423        5.528      101.252       76.591       42.449    10252.052     5866.229     1801.933        3.315        0.896      219.883       44.528        0.041      341.078       15.537      870.331
01/13/2021  13:59:00     -175.739       76.188        5.354       81.452       59.010       46.527     6634.382     3482.230     2164.721        2.450        0.614      191.543       40.669        0.045      341.143       15.649      870.337
01/13/2021  14:00:00     -161.406       41.429        8.796      117.493       70.357       56.097    13804.681     4950.083     3146.870        2.487        1.095      166.638       58.718        0.124      341.432       16.137      870.319
01/13/2021  14:01:00     -225.196       33.389        9.636      102.515       84.042       52.191    10509.303     7063.079     2723.861        3.610        1.015      227.657       51.359        0.051      341.254       15.836      870.282
01/13/2021  14:02:00     -185.040      -38.697      -13.361      117.939      110.919       40.492    13909.525    12303.070     1639.637        3.188        1.393      189.043       32.060        0.029      341.061       15.511      870.252
01/13/2021  14:03:00     -258.726      -10.327       -3.710      143.106       97.674       72.998    20479.431     9540.263     5328.777        5.120        1.767      258.932       72.830        0.079      341.062       15.510      870.222
01/13/2021  14:04:00     -205.867       13.799       -6.722       73.462       91.710       41.002     5396.635     8410.781     1681.125        2.905        0.774      206.329       30.985        0.023      341.068       15.520      870.212
01/13/2021  14:05:00     -112.662        8.353       -5.425       75.779       55.921       34.618     5742.508     3127.146     1198.386        1.143        0.503      112.971       21.308        0.036      341.214       15.771      870.208
01/13/2021  14:06:00     -128.049       55.429        1.533      110.569       75.769       52.613    12225.395     5740.914     2768.148        2.010        1.037      139.531       61.186        0.192      341.408       16.098      870.228
01/13/2021  14:07:00     -254.116      120.304       -1.219      117.518       89.868       62.646    13810.427     8076.280     3924.488        5.242        1.291      281.155       57.602        0.042      341.473       16.206      870.234
01/13/2021  14:08:00     -189.732       27.835       -5.560      157.230       79.924       53.199    24721.428     6387.793     2830.164        3.536        1.697      191.763       56.596        0.087      341.311       15.933      870.232
01/13/2021  14:09:00     -200.368       73.690        6.734       89.118       73.546       46.890     7941.929     5409.014     2198.687        3.058        0.777      213.489       45.016        0.044      341.237       15.808      870.255
01/13/2021  14:10:00     -142.679      -46.958       20.087      111.401      138.944       60.260    12410.230    19305.391     3631.276        2.915        1.767      150.207       62.295        0.172      341.392       16.068      870.250
01/13/2021  14:11:00     -235.285      -38.629      -13.911      158.750       95.362       50.256    25201.551     9093.977     2525.711        4.693        1.841      238.435       29.699        0.016      341.189       15.726      870.254
01/13/2021  14:12:00     -325.218      -23.736       13.597      154.318       96.081       61.081    23814.169     9231.498     3730.919        7.164        1.839      326.083       60.149        0.034      341.203       15.750      870.248
01/13/2021  14:13:00     -328.609      -57.153      -21.417      154.169      100.095       72.786    23768.042    10019.039     5297.834        7.539        1.954      333.543       79.554        0.057      341.173       15.698      870.242
01/13/2021  14:14:00     -191.378      -72.811      -17.887       96.216       63.348       46.955     9257.574     4013.031     2204.748        2.886        0.774      204.761       49.916        0.059      341.117       15.605      870.249
01/13/2021  14:15:00     -203.809      -38.695      -14.013      121.789       73.619       56.288    14832.641     5419.696     3168.309        3.332        1.171      207.449       65.488        0.100      341.217       15.774      870.246
01/13/2021  14:16:00     -163.390       40.848      -13.896       75.167       57.471       37.476     5650.116     3302.943     1404.440        1.946        0.518      168.419       25.419        0.023      341.183       15.718      870.231
01/13/2021  14:17:00     -149.346       -1.799       -9.696       61.609       47.651       33.875     3795.686     2270.579     1147.504        1.481        0.361      149.357       35.935        0.058      341.185       15.721      870.213
01/13/2021  14:18:00     -116.740       10.988        4.970       84.848       77.768       43.576     7199.107     6047.836     1898.836        1.446        0.757      117.256       32.854        0.079      341.567       16.369      870.208
01/13/2021  14:19:00     -281.706      -53.741        5.713      188.320       86.751       67.437    35464.377     7525.763     4547.764        6.490        2.377      286.786       73.278        0.065      341.429       16.132      870.194
01/13/2021  14:20:00     -252.505      -79.073       -4.821      140.597      116.799       76.859    19767.438    13642.039     5907.250        5.467        1.966      264.596       77.132        0.085      341.370       16.032      870.198
01/13/2021  14:21:00     -253.760      -46.587       -0.258      159.805      111.118       63.290    25537.713    12347.295     4005.591        5.422        2.095      258.001       57.927        0.050      341.255       15.839      870.183
01/13/2021  14:22:00     -167.786       16.616       -0.446      183.731      108.049       56.268    33757.230    11674.654     3166.097        3.850        2.430      168.606       50.764        0.091      341.391       16.069      870.183
01/13/2021  14:23:00     -254.536      -13.263       -8.359      177.534       80.026       57.468    31518.221     6404.177     3302.592        5.312        2.061      254.881       64.353        0.064      341.246       15.822      870.162
01/13/2021  14:24:00     -156.031        9.594       17.355      164.067       94.446       73.356    26917.870     8919.967     5381.136        3.297        2.061      156.326       70.691        0.204      341.506       16.263      870.168
01/13/2021  14:25:00     -309.261      -32.664      -11.752      128.753       95.891       65.023    16577.360     9195.083     4228.031        6.342        1.500      310.981       55.058        0.031      341.311       15.931      870.179
01/13/2021  14:26:00     -404.805      -64.981       -4.243      200.800      124.415       81.404    40320.539    15479.142     6626.567       11.525        3.121      409.987       75.374        0.034      341.194       15.735      870.166
01/13/2021  14:27:00     -320.814      -84.561      -30.263      119.833      133.172       60.357    14360.057    17734.694     3642.948        7.336        1.787      331.771       57.660        0.030      341.121       15.611      870.166
01/13/2021  14:28:00     -280.663      -13.325       13.523      205.060      108.655       70.264    42049.708    11805.939     4937.010        6.895        2.940      280.979       69.156        0.061      341.340       15.982      870.181
01/13/2021  14:29:00     -373.247      -75.182      -20.641      140.273      117.698       75.785    19676.545    13852.880     5743.431        9.232        1.964      380.743       75.770        0.040      341.236       15.806      870.174
01/13/2021  14:30:00     -273.579      -70.674      -25.188      147.459      119.502       70.222    21744.281    14280.644     4931.142        6.071        2.048      282.560       59.142        0.044      341.228       15.793      870.157
01/13/2021  14:31:00     -357.562      -44.596      -19.214      113.144      101.119       68.460    12801.563    10224.998     4686.757        7.895        1.386      360.332       56.700        0.025      341.246       15.822      870.145
01/13/2021  14:32:00     -243.853      -44.032        6.210      197.332       97.775       84.662    38939.952     9559.886     7167.688        5.854        2.783      247.797       97.747        0.156      341.328       15.962      870.135
01/13/2021  14:33:00     -291.347      -58.335       -1.132      172.567      100.374       73.888    29779.397    10074.846     5459.476        6.679        2.266      297.129       70.057        0.056      341.350       15.999      870.141
01/13/2021  14:34:00     -190.332      -28.492      -13.616      142.769       85.169       72.173    20382.894     7253.679     5208.870        3.503        1.642      192.453       63.375        0.108      341.532       16.309      870.147
01/13/2021  14:35:00     -125.847      -52.984       -2.714      181.031       97.863       74.903    32772.067     9577.194     5610.390        3.330        2.398      136.546       63.762        0.218      341.515       16.279      870.143
01/13/2021  14:36:00     -112.244        1.208      -10.403      155.774      107.695       72.009    24265.601    11598.313     5185.253        2.687        2.052      112.250       58.163        0.268      341.661       16.527      870.164
01/13/2021  14:37:00     -338.804       24.061       -4.685      130.518      123.988       69.379    17034.846    15373.001     4813.504        7.630        1.861      339.657       58.598        0.030      341.576       16.380      870.178
01/13/2021  14:38:00     -135.683       33.178        5.435       69.547       81.706       41.798     4836.784     6675.820     1747.040        1.640        0.663      139.680       32.222        0.053      341.726       16.637      870.187
01/13/2021  14:39:00     -102.825        7.681       -0.145       80.500       81.978       43.826     6480.241     6720.344     1920.680        1.287        0.756      103.111       34.472        0.112      341.765       16.704      870.176
01/13/2021  14:40:00     -102.794       22.465        3.363       99.382      110.798       54.910     9876.795    12276.257     3015.113        1.812        1.258      105.220       32.609        0.096      341.547       16.336      870.149
01/13/2021  14:41:00     -186.072        9.608       -2.318      122.384       86.341       45.131    14977.919     7454.848     2036.826        2.959        1.223      186.320       42.462        0.052      341.608       16.436      870.142
01/13/2021  14:42:00     -201.757       33.039        5.533      114.917       48.035       42.794    13205.974     2307.358     1831.313        2.958        0.867      204.444       44.508        0.047      341.509       16.269      870.141
01/13/2021  14:43:00     -104.872        4.946        5.030       93.713       68.290       38.906     8782.109     4663.510     1513.693        1.300        0.748      104.989       36.487        0.121      341.680       16.560      870.141
01/13/2021  14:44:00     -306.496       98.622       -7.245      191.014      128.586       79.289    36486.469    16534.363     6286.822        8.150        2.965      321.972       85.096        0.070      341.557       16.348      870.145
01/13/2021  14:45:00     -255.227       62.607       -4.601      139.140      133.342       64.032    19359.911    17780.121     4100.040        5.515        2.062      262.793       61.425        0.055      341.541       16.322      870.170
01/13/2021  14:46:00     -262.820       24.355        3.424      178.907      102.399       66.344    32007.695    10485.469     4401.484        5.828        2.345      263.946       66.962        0.064      341.599       16.420      870.190
01/13/2021  14:47:00     -289.773      -13.141      -16.703      253.417      140.268       80.561    64220.428    19674.995     6490.149        8.738        4.519      290.070       68.355        0.056      341.406       16.093      870.194
01/13/2021  14:48:00     -231.188       22.419       11.710      141.943      107.354       82.780    20147.807    11524.888     6852.487        4.630        1.926      232.273       77.647        0.112      341.440       16.151      870.220
01/13/2021  14:49:00     -140.417      -15.957       -8.734      144.573       83.362       62.158    20901.439     6949.281     3863.654        2.587        1.586      141.321       50.161        0.126      341.531       16.307      870.215
01/13/2021  14:50:00      -63.233      -19.613       -4.872      101.627       78.711       53.605    10328.141     6195.455     2873.499        1.190        0.970       66.205       55.768        0.710      341.604       16.432      870.240
01/13/2021  14:51:00      -97.186       20.864       11.234      101.471       75.440       45.893    10296.384     5691.130     2106.148        1.405        0.905       99.400       58.077        0.341      341.761       16.696      870.247
01/13/2021  14:52:00      -80.150       27.005       -6.698      110.839       92.898       47.533    12285.210     8630.040     2259.359        1.518        1.159       84.578       32.279        0.146      341.658       16.521      870.254
01/13/2021  14:53:00     -126.743      -38.895        3.408      135.115       84.015       53.780    18256.114     7058.502     2892.280        2.289        1.410      132.577       64.246        0.235      341.589       16.406      870.253
01/13/2021  14:54:00     -302.681      -20.160      -10.242      172.447       99.822       67.935    29737.934     9964.498     4615.113        6.821        2.216      303.352       71.441        0.055      341.364       16.022      870.229
01/13/2021  14:55:00     -318.591      -24.310       -6.369      134.105       87.248       67.329    17984.083     7612.144     4533.197        6.612        1.506      319.517       60.221        0.036      341.397       16.079      870.235
01/13/2021  14:56:00     -232.845      -38.819      -10.218      194.686      117.327       88.010    37902.689    13765.572     7745.721        5.761        2.971      236.059       81.815        0.120      341.501       16.255      870.232
01/13/2021  14:57:00     -337.684      -91.888       -3.952      190.278      119.824       92.880    36205.802    14357.787     8626.704        9.083        2.960      349.963       83.897        0.057      341.429       16.131      870.239
01/13/2021  14:58:00     -196.595       24.516        7.355      183.581      113.689       70.135    33702.101    12925.101     4918.954        4.541        2.577      198.118       73.998        0.140      341.575       16.379      870.282
01/13/2021  14:59:00     -213.718       73.179       -9.529      138.292       87.386       68.845    19124.753     7636.354     4739.615        4.130        1.575      225.899       66.253        0.086      341.524       16.294      870.286
01/13/2021  15:00:00     -354.493       41.100      -16.113      228.872      149.904       79.701    52382.391    22471.251     6352.324       10.439        4.060      356.868      103.729        0.084      341.450       16.168      870.275
01/13/2021  15:01:00     -246.212      120.654      -15.699      139.657      118.809       64.636    19504.065    14115.689     4177.869        5.660        1.890      274.185       71.606        0.068      341.586       16.398      870.267
01/13/2021  15:02:00     -234.394       54.567        2.783      171.702      121.739       71.329    29481.441    14820.275     5087.769        5.365        2.469      240.661       78.923        0.108      341.572       16.374      870.261
01/13/2021  15:03:00     -335.733      120.206      -22.315      139.191      131.546       66.721    19374.203    17304.385     4451.733        8.439        2.057      356.604       70.526        0.039      341.505       16.260      870.265
01/13/2021  15:04:00     -151.220       22.113        2.639      106.855       89.352       47.357    11417.966     7983.801     2242.711        2.250        1.082      152.829       28.704        0.035      341.660       16.524      870.293
01/13/2021  15:05:00     -159.727      -25.186       -5.488      127.727       74.551       48.352    16314.173     5557.908     2337.892        2.519        1.210      161.700       48.967        0.092      341.621       16.458      870.304
01/13/2021  15:06:00     -317.754      -56.331       -9.638      181.519      173.234       82.851    32949.253    30010.191     6864.348        8.701        3.491      322.709      104.965        0.106      341.442       16.154      870.300
01/13/2021  15:07:00     -258.917      -57.628       -7.651      191.413      148.488       92.619    36638.757    22048.727     8578.303        6.883        3.363      265.253       94.743        0.128      341.387       16.061      870.300
01/13/2021  15:08:00     -269.914      -40.736       -1.096      190.077      130.034       78.507    36129.407    16908.750     6163.276        6.685        2.960      272.971       87.223        0.102      341.417       16.111      870.293
01/13/2021  15:09:00     -241.298      -48.119      -16.133      206.182      116.685       80.514    42510.937    13615.433     6482.429        6.169        3.130      246.049       83.757        0.116      341.363       16.022      870.275
01/13/2021  15:10:00      -80.868       25.452      -12.986       96.473       89.784       53.837     9306.978     8061.087     2898.464        1.381        1.013       84.779       46.515        0.301      341.568       16.370      870.297
01/13/2021  15:11:00     -332.781      163.181       -0.468      152.955      124.666       78.275    23395.384    15541.569     6126.949        9.121        2.253      370.637       74.136        0.040      341.534       16.310      870.304
01/13/2021  15:12:00     -455.754       47.641       -3.529      216.379      114.358       84.790    46819.993    13077.761     7189.425       13.853        3.354      458.237       87.629        0.037      341.315       15.940      870.280
01/13/2021  15:13:00     -352.924       33.674       -1.873      182.495      169.582       86.170    33304.258    28757.899     7425.292        9.758        3.474      354.526       75.867        0.046      341.372       16.036      870.316
01/13/2021  15:14:00     -254.571      -18.215       -1.799      175.053      139.863       74.641    30643.629    19561.637     5571.344        6.045        2.789      255.222       83.628        0.107      341.338       15.980      870.320
01/13/2021  15:15:00     -225.339       25.029        1.257      154.790      107.540       54.529    23959.999    11564.946     2973.405        4.494        1.925      226.724       37.411        0.027      341.361       16.017      870.293
01/13/2021  15:16:00     -226.439        1.375      -12.050      164.002      112.613       63.416    26896.528    12681.598     4021.539        4.750        2.180      226.443       64.722        0.082      341.393       16.071      870.289
01/13/2021  15:17:00     -374.232       24.642      -21.970      166.979      104.313       64.767    27881.971    10881.100     4194.787        9.204        2.148      375.042       54.459        0.021      341.361       16.016      870.281
01/13/2021  15:18:00     -242.520       65.983        9.773      226.516      144.304       95.013    51309.652    20823.780     9027.412        7.220        4.058      251.336      101.244        0.162      341.386       16.061      870.255
01/13/2021  15:19:00     -279.908       84.394        6.560      249.799      149.080       82.548    62399.306    22224.814     6814.109        8.846        4.572      292.354      111.765        0.146      341.379       16.048      870.241
01/13/2021  15:20:00     -237.747       -9.995       -6.692      176.624      155.995       75.982    31195.994    24334.348     5773.192        5.897        3.065      237.957       67.809        0.081      341.307       15.926      870.217
01/13/2021  15:21:00     -178.848        1.471       12.021      158.180       89.111       55.763    25020.959     7940.838     3109.492        3.409        1.804      178.854       46.686        0.068      341.293       15.902      870.198
01/13/2021  15:22:00     -187.896       51.742       -9.828      135.756       99.175       64.592    18429.811     9835.744     4172.147        3.525        1.622      194.890       42.836        0.048      341.380       16.050      870.214
01/13/2021  15:23:00     -308.868       19.858       11.197      239.014      110.616       79.663    57127.561    12235.959     6346.264        8.580        3.785      309.506       87.289        0.080      341.329       15.964      870.214
01/13/2021  15:24:00     -291.425       14.862      -17.342      180.992      110.235       61.337    32758.033    12151.804     3762.173        6.705        2.434      291.803       80.167        0.075      341.259       15.845      870.224
01/13/2021  15:25:00     -233.306       63.762        0.964      137.758       98.397       67.652    18977.327     9682.026     4576.736        4.586        1.662      241.862       55.286        0.052      341.442       16.154      870.233
01/13/2021  15:26:00     -328.068       49.131        1.103      192.633      132.928       75.872    37107.634    17669.812     5756.564        8.528        3.027      331.726       86.908        0.069      341.314       15.938      870.205
01/13/2021  15:27:00     -374.491       17.905       -0.198      217.258      120.713       86.458    47200.955    14571.634     7474.918       10.489        3.462      374.919      104.361        0.077      341.220       15.779      870.167
01/13/2021  15:28:00     -277.525      -26.823        1.431      230.163      122.831       79.424    52975.142    15087.566     6308.132        7.604        3.719      278.819      105.597        0.143      341.225       15.787      870.170
01/13/2021  15:29:00     -408.430      -45.061       -1.906      185.792      112.398       84.616    34518.576    12633.305     7159.850       11.157        2.716      410.909       72.341        0.031      341.063       15.514      870.164
01/13/2021  15:30:00     -272.353      -88.160      -20.127      138.579       87.737       63.430    19204.254     7697.845     4023.307        5.663        1.546      286.266       72.961        0.065      341.159       15.675      870.159
01/13/2021  15:31:00     -167.146      -29.268       -4.090       92.923       64.504       55.918     8634.681     4160.771     3126.844        2.236        0.796      169.690       54.197        0.102      341.278       15.877      870.174
01/13/2021  15:32:00     -140.559       17.196       10.078      122.992       85.521       48.607    15127.050     7313.881     2362.636        2.247        1.240      141.607       50.411        0.127      341.313       15.938      870.173
01/13/2021  15:33:00     -281.214       35.562      -13.030      145.579       90.783       65.820    21193.169     8241.556     4332.223        5.713        1.688      283.454       72.916        0.066      341.253       15.834      870.185
01/13/2021  15:34:00     -295.197      -29.931       -7.003      145.263       89.447       62.820    21101.398     8000.787     3946.366        6.056        1.652      296.710       63.700        0.046      341.143       15.649      870.182
01/13/2021  15:35:00     -291.116      -32.605       -7.129      186.128      122.943       69.746    34643.582    15114.890     4864.462        7.023        2.731      292.936       63.813        0.047      341.142       15.647      870.199
01/13/2021  15:36:00     -294.139      -74.030       -2.352      143.812      103.926       76.965    20681.932    10800.579     5923.608        6.470        1.870      303.312       61.537        0.041      341.158       15.673      870.233
01/13/2021  15:37:00     -272.214      -36.362      -10.837      131.721       85.513       57.737    17350.360     7312.477     3333.577        5.176        1.400      274.632       57.314        0.044      341.177       15.705      870.239
01/13/2021  15:38:00     -342.924      -81.908      -16.048      165.898      113.829       74.529    27522.247    12957.079     5554.612        8.529        2.302      352.570       71.594        0.041      341.094       15.566      870.258
01/13/2021  15:39:00     -407.741      -57.547      -10.528      167.160      121.264       70.233    27942.348    14704.868     4932.690       10.862        2.379      411.782       67.135        0.027      341.044       15.480      870.290
01/13/2021  15:40:00     -275.666      -86.178       -9.252      146.898      100.140       70.998    21578.929    10027.988     5040.655        6.007        1.832      288.823       71.116        0.061      341.047       15.486      870.316
01/13/2021  15:41:00     -286.873      -40.208       -1.703      147.739       81.585       65.665    21826.722     6656.140     4311.957        5.835        1.640      289.677       68.225        0.055      341.079       15.541      870.335
01/13/2021  15:42:00     -202.712      -55.308       -4.360      196.277       99.949       69.210    38524.572     9989.887     4789.982        4.873        2.665      210.121       88.997        0.179      341.134       15.634      870.337
01/13/2021  15:43:00      -47.933      -14.279       18.477      138.286      108.790       62.789    19123.062    11835.294     3942.406        1.886        1.745       50.014       48.506        0.941      341.201       15.748      870.343
01/13/2021  15:44:00     -180.243      -44.479        2.792      148.980      103.405       77.687    22195.101    10692.592     6035.253        3.669        1.946      185.650       77.164        0.173      341.123       15.615      870.333
01/13/2021  15:45:00     -239.879      -55.977      -16.401      138.066       86.998       64.047    19062.174     7568.635     4101.999        4.583        1.537      246.323       62.469        0.064      341.104       15.582      870.319
01/13/2021  15:46:00     -284.728       18.168        1.884      176.423       77.524       60.445    31124.910     6010.014     3653.612        6.109        2.039      285.307       65.755        0.053      341.145       15.652      870.345
01/13/2021  15:47:00      -95.252       29.777       -0.012       93.852       57.951       44.345     8808.201     3358.372     1966.519        1.204        0.707       99.798       34.666        0.121      341.352       16.006      870.407
01/13/2021  15:48:00     -182.094      -46.218      -14.133      132.575       71.894       44.456    17576.103     5168.779     1976.326        3.010        1.236      187.868       52.943        0.079      341.191       15.729      870.395
01/13/2021  15:49:00     -123.033      -17.098      -11.304      124.596       71.397       50.069    15524.125     5097.519     2506.899        1.934        1.156      124.216       24.666        0.039      341.144       15.650      870.393
01/13/2021  15:50:00      -22.043       34.296       15.623       90.843       65.806       53.938     8252.530     4330.470     2909.312        0.870        0.775       40.769       47.401        1.352      341.182       15.718      870.382
01/13/2021  15:51:00     -135.988      -29.236      -15.313      188.175      103.731       78.176    35409.968    10760.060     6111.421        3.592        2.614      139.096       76.009        0.299      341.169       15.693      870.383
01/13/2021  15:52:00     -315.086       17.926        4.959      142.684      111.961       76.765    20358.852    12535.188     5892.921        6.920        1.939      315.596       70.025        0.049      341.082       15.544      870.379
01/13/2021  15:53:00     -303.686        8.212       -0.195      167.474       98.993       70.286    28047.688     9799.680     4940.110        6.753        2.139      303.797       80.871        0.071      341.070       15.526      870.387
01/13/2021  15:54:00     -204.360      -27.139      -18.648      135.641      107.211       51.026    18398.518    11494.172     2603.627        3.766        1.625      206.154       65.367        0.101      341.079       15.542      870.382
01/13/2021  15:55:00     -355.372       60.247      -20.877      185.964      116.595       73.223    34582.484    13594.338     5361.593        9.194        2.677      360.443       82.921        0.053      341.037       15.470      870.364
01/13/2021  15:56:00     -101.052        9.695      -12.224      146.874      125.350       61.325    21571.882    15712.621     3760.726        2.574        2.052      101.516       44.131        0.189      341.095       15.568      870.382
01/13/2021  15:57:00     -198.698      -22.965       -7.939      142.088       92.353       60.608    20189.079     8529.008     3673.356        3.622        1.620      200.020       67.860        0.115      341.096       15.570      870.415
01/13/2021  15:58:00     -198.213      -20.604       -6.909      171.466       75.077       56.131    29400.659     5636.570     3150.729        3.897        1.909      199.281       57.863        0.084      341.012       15.425      870.390
01/13/2021  15:59:00     -244.847       13.280        0.313      183.552      108.109       74.529    33691.350    11687.586     5554.615        5.552        2.547      245.207       78.661        0.103      340.997       15.402      870.365
01/13/2021  16:00:00      -81.036      -22.694       13.494      116.743       66.571       57.456    13628.910     4431.738     3301.238        1.431        1.068       84.154       50.317        0.357      341.053       15.499      870.370
01/13/2021  16:01:00     -120.150       36.289      -11.680      114.216      121.106       55.430    13045.209    14666.781     3072.505        2.333        1.539      125.511       39.430        0.099      341.180       15.713      870.380
01/13/2021  16:02:00     -121.976      -15.800      -11.213      126.960       72.749       37.523    16118.924     5292.478     1407.964        1.903        1.141      122.995       37.330        0.092      341.067       15.523      870.391
01/13/2021  16:03:00     -261.203      -23.134      -21.116      152.308       80.413       57.461    23197.772     6466.247     3301.816        5.108        1.648      262.225       63.659        0.059      341.012       15.427      870.382
01/13/2021  16:04:00     -121.428       -8.657      -14.125      114.852       80.998       49.320    13190.954     6560.640     2432.463        1.860        1.109      121.736       29.165        0.057      341.020       15.442      870.403
01/13/2021  16:05:00     -157.462       10.310       -3.214      126.063       81.479       53.430    15891.857     6638.841     2854.807        2.514        1.269      157.800       26.030        0.027      341.072       15.530      870.429
01/13/2021  16:06:00     -204.752        3.109      -19.394      159.653       76.100       54.704    25488.955     5791.203     2992.573        3.828        1.714      204.776       58.074        0.080      340.972       15.359      870.440
01/13/2021  16:07:00     -144.609       35.320       -5.991      125.789       61.758       39.050    15822.998     3814.058     1524.929        2.167        1.058      148.860       19.016        0.016      341.166       15.688      870.449
01/13/2021  16:08:00      -81.280       25.239      -13.876      166.954       95.286       47.159    27873.790     9079.351     2223.955        2.330        1.959       85.108       42.397        0.248      341.018       15.438      870.453
01/13/2021  16:09:00     -119.930       13.339       -1.124       81.149       57.046       46.029     6585.149     3254.228     2118.709        1.326        0.598      120.670       22.773        0.036      341.107       15.589      870.467
01/13/2021  16:10:00     -183.345       75.007        6.111       82.964       61.075       47.239     6882.982     3730.138     2231.523        2.606        0.642      198.094       45.844        0.054      341.149       15.658      870.501
01/13/2021  16:11:00     -165.295       49.453        7.301      133.683      109.519       58.246    17871.061    11994.429     3392.636        3.153        1.663      172.534       62.167        0.130      341.154       15.668      870.517
01/13/2021  16:12:00     -292.080       32.284       -3.197      139.155       97.045       56.179    19364.048     9417.735     3156.077        5.914        1.597      293.858       41.072        0.020      341.052       15.494      870.540
01/13/2021  16:13:00     -119.135      -13.839        1.279      145.239       86.885       64.195    21094.373     7549.034     4120.967        2.357        1.638      119.937       54.342        0.205      341.003       15.413      870.547
01/13/2021  16:14:00     -251.061       72.104       -4.988      129.625       81.828       51.604    16802.686     6695.800     2663.002        4.720        1.308      261.210       52.500        0.040      341.116       15.603      870.542
01/13/2021  16:15:00     -266.029       27.055        2.809      134.235       96.699       52.576    18019.082     9350.648     2764.204        5.082        1.507      267.401       38.138        0.020      341.007       15.419      870.521
01/13/2021  16:16:00     -240.025       30.184       14.674      223.666      112.324       75.178    50026.623    12616.785     5651.745        6.350        3.415      241.916       91.843        0.144      340.942       15.309      870.510
01/13/2021  16:17:00     -188.093        3.896       -9.297      127.103       86.728       55.474    16155.235     7521.793     3077.367        3.111        1.338      188.133       28.567        0.023      341.029       15.457      870.506
01/13/2021  16:18:00     -265.118       61.057      -11.317       95.863       88.275       54.123     9189.685     7792.505     2929.253        4.702        0.996      272.058       40.838        0.023      341.005       15.414      870.501
01/13/2021  16:19:00     -281.083       11.511      -13.825      171.408       88.666       61.729    29380.548     7861.696     3810.488        6.018        2.053      281.318       52.444        0.035      340.887       15.214      870.498
01/13/2021  16:20:00     -121.169       73.380        4.190      125.227       82.047       58.815    15681.834     6731.766     3459.167        2.297        1.294      141.656       37.746        0.071      341.066       15.519      870.518
01/13/2021  16:21:00     -385.129       39.458       -6.363      175.743       96.865       56.785    30885.753     9382.906     3224.525        9.670        2.175      387.145       48.202        0.016      340.931       15.289      870.506
01/13/2021  16:22:00     -383.097       55.506      -19.071      128.915      105.955       60.673    16619.166    11226.535     3681.168        9.086        1.576      387.098       58.539        0.023      340.875       15.195      870.519
01/13/2021  16:23:00     -283.020       43.060        0.851      129.605       93.964       56.444    16797.368     8829.186     3185.887        5.538        1.441      286.277       37.054        0.017      340.874       15.192      870.552
01/13/2021  16:24:00     -173.224       24.621       -1.627      109.285       60.700       42.508    11943.153     3684.474     1806.935        2.402        0.872      174.965       32.929        0.035      340.942       15.309      870.567
01/13/2021  16:25:00     -224.611       21.790      -14.729      135.093      105.694       52.708    18250.142    11171.299     2778.181        4.166        1.610      225.666       47.286        0.044      340.900       15.238      870.561
01/13/2021  16:26:00     -135.600       20.239       18.111      114.515      100.851       71.186    13113.639    10170.826     5067.446        2.373        1.418      137.102       64.432        0.221      340.939       15.304      870.581
01/13/2021  16:27:00     -249.042       -0.679      -17.414      126.280       67.687       50.006    15946.571     4581.559     2500.556        4.267        1.151      249.042       51.395        0.043      340.810       15.086      870.622
01/13/2021  16:28:00       -1.803       13.686       19.568      113.317       82.342       53.448    12840.681     6780.250     2856.664        1.152        1.124       13.805       25.332        3.367      340.901       15.241      870.683
01/13/2021  16:29:00     -152.613       50.889       -4.562      100.129       77.416       45.686    10025.750     5993.304     2087.201        2.200        0.905      160.874       44.859        0.078      340.829       15.117      870.727
01/13/2021  16:30:00     -219.389        1.637      -19.753       89.272       63.312       50.712     7969.494     4008.348     2571.723        3.153        0.727      219.395       52.074        0.056      340.809       15.082      870.777
01/13/2021  16:31:00     -158.477       39.403       -8.520      137.082       71.151       50.592    18791.604     5062.400     2559.573        2.657        1.321      163.302       52.242        0.102      340.797       15.063      870.807
01/13/2021  16:32:00     -207.687       90.283      -14.606       78.536       66.213       41.534     6167.883     4384.179     1725.038        3.188        0.614      226.461       36.683        0.026      340.735       14.958      870.819
01/13/2021  16:33:00     -154.563       -3.607      -24.837       70.802       44.395       36.818     5012.872     1970.882     1355.541        1.643        0.417      154.605       19.482        0.016      340.675       14.858      870.802
01/13/2021  16:34:00     -192.682       41.330      -16.181       77.821       79.778       39.485     6056.149     6364.606     1559.033        2.653        0.699      197.065       35.103        0.032      340.642       14.800      870.767
01/13/2021  16:35:00      -34.027       10.209      -14.077       90.346       50.937       33.832     8162.344     2594.589     1144.635        0.668        0.595       35.525       28.099        0.626      340.620       14.765      870.750
01/13/2021  16:36:00      -82.271        4.121       -9.413       88.755       73.068       38.503     7877.527     5338.928     1482.505        1.078        0.735       82.374       31.362        0.145      340.592       14.718      870.781
01/13/2021  16:37:00     -134.802       -7.422       -8.935       75.889       49.739       48.534     5759.115     2473.989     2355.566        1.445        0.529      135.006       42.920        0.101      340.602       14.736      870.838
01/13/2021  16:38:00      -77.649        0.873      -18.201       98.099       55.989       33.231     9623.357     3134.745     1104.323        1.011        0.693       77.654       20.335        0.069      340.627       14.777      870.901
01/13/2021  16:39:00     -135.931       22.233       -6.741       70.590       45.177       34.106     4982.879     2040.918     1163.252        1.360        0.409      137.738       23.229        0.028      340.517       14.592      870.945
01/13/2021  16:40:00      -72.142       12.733       -7.821       89.285       78.334       49.609     7971.898     6136.169     2461.014        1.099        0.828       73.257       38.881        0.282      340.510       14.578      870.973
01/13/2021  16:41:00      -78.404       68.705       -9.820       74.035       53.629       45.795     5481.167     2876.019     2097.173        1.071        0.523      104.248       31.102        0.089      340.549       14.646      871.008
01/13/2021  16:42:00       -0.538      -18.401       -9.820       68.363       71.588       45.830     4673.480     5124.825     2100.378        0.616        0.595       18.409       12.103        0.432      340.429       14.443      871.030
01/13/2021  16:43:00      -37.132       66.676       -3.923       66.571       43.144       43.091     4431.725     1861.370     1856.850        0.699        0.407       76.318       19.881        0.068      340.436       14.454      871.040
01/13/2021  16:44:00      -48.270       10.804       -2.047       62.068       46.345       36.038     3852.477     2147.852     1298.709        0.487        0.365       49.464       21.296        0.185      340.399       14.392      871.053
01/13/2021  16:45:00      -60.315      141.282       -4.339       72.720       67.135       34.199     5288.259     4507.172     1169.565        1.729        0.548      153.618       25.941        0.029      340.362       14.329      871.081
01/13/2021  16:46:00      -22.621      144.630      -10.314       46.275       51.021       32.353     2141.414     2603.184     1046.737        1.366        0.290      146.388       31.162        0.045      340.356       14.319      871.127
01/13/2021  16:47:00      -61.360      172.110      -12.330       66.823       69.115       37.092     4465.368     4776.879     1375.810        2.208        0.531      182.720       29.384        0.026      340.381       14.361      871.162
01/13/2021  16:48:00      -49.250      205.297      -12.964       49.551       52.484       33.205     2455.285     2754.560     1102.549        2.553        0.316      211.122       22.370        0.011      340.419       14.424      871.179
01/13/2021  16:49:00      -55.757       96.028       -3.424       83.368       62.369       36.560     6950.216     3889.923     1336.614        1.226        0.609      111.042       20.047        0.033      340.450       14.479      871.192
01/13/2021  16:50:00      -14.675      145.890       -9.118       47.287       38.027       27.532     2236.086     1446.074      757.990        1.301        0.222      146.626       16.961        0.013      340.405       14.403      871.206
01/13/2021  16:51:00      -52.006       99.796      -10.511       50.469       29.567       30.290     2547.135      874.231      917.460        0.856        0.217      112.534       22.236        0.039      340.501       14.566      871.227
01/13/2021  16:52:00       -3.470       24.239      -16.792       49.070       33.439       24.525     2407.845     1118.166      601.454        0.250        0.206       24.486       24.279        0.983      340.372       14.347      871.245
01/13/2021  16:53:00       -6.855       67.066      -16.344       49.194       53.697       44.711     2420.048     2883.339     1999.037        0.606        0.365       67.415       17.186        0.065      340.287       14.204      871.252
01/13/2021  16:54:00       15.870       88.339      -13.643       50.121       33.092       25.450     2512.121     1095.055      647.685        0.625        0.213       89.754       25.461        0.080      340.292       14.211      871.286
01/13/2021  16:55:00        3.375       75.519      -10.611       41.420       17.643       22.088     1715.645      311.289      487.871        0.417        0.126       75.595       24.418        0.104      340.322       14.263      871.336
01/13/2021  16:56:00        9.485       94.168       -9.972       48.650       24.336       24.225     2366.807      592.222      586.838        0.630        0.177       94.644       22.658        0.057      340.259       14.155      871.378
01/13/2021  16:57:00      -42.386       94.484      -11.039       40.555       36.725       23.252     1644.745     1348.736      540.660        0.719        0.177      103.556       17.699        0.029      340.288       14.206      871.393
01/13/2021  16:58:00      -26.338      115.221      -12.231       48.348       25.019       27.042     2337.496      625.962      731.265        0.891        0.185      118.193       23.847        0.041      340.256       14.150      871.393
01/13/2021  16:59:00      -46.573       70.598      -10.104       45.442       35.557       27.111     2065.003     1264.290      735.031        0.566        0.203       84.576       13.177        0.024      340.322       14.264      871.399
01/13/2021  17:00:00      -47.431       16.610      -14.833       62.462       35.187       25.449     3901.497     1238.144      647.675        0.427        0.289       50.255       19.316        0.148      340.147       13.967      871.414
01/13/2021  17:01:00      -19.057      132.716       -9.648       34.728       32.363       24.799     1206.009     1047.381      615.007        1.047        0.143      134.077       22.275        0.028      340.113       13.909      871.422
01/13/2021  17:02:00      -26.842       56.051       -9.513       42.978       44.873       23.608     1847.109     2013.564      557.358        0.418        0.221       62.147       26.023        0.175      340.302       14.228      871.421
01/13/2021  17:03:00      -55.911       40.629      -12.502       59.977       27.076       25.158     3597.215      733.112      632.901        0.495        0.248       69.115       20.471        0.088      340.138       13.951      871.437
01/13/2021  17:04:00      -48.982      110.553       -8.476       43.253       70.009       27.649     1870.813     4901.317      764.456        1.111        0.377      120.919       28.515        0.056      340.092       13.872      871.454
01/13/2021  17:05:00      -76.947       71.242      -17.297       54.210       45.447       34.205     2938.738     2065.430     1169.953        0.873        0.309      104.863       11.913        0.013      340.025       13.762      871.449
01/13/2021  17:06:00      -45.537       23.051       -0.627       54.654       62.468       30.064     2987.100     3902.271      903.839        0.520        0.390       51.039       23.226        0.207      339.968       13.665      871.452
01/13/2021  17:07:00      -37.912      114.531       -5.456       45.852       49.263       31.210     2102.365     2426.874      974.045        1.004        0.275      120.643       16.214        0.018      339.977       13.679      871.464
01/13/2021  17:08:00      -38.417       89.111      -14.969       57.839       40.277       29.576     3345.330     1622.268      874.751        0.774        0.292       97.039       15.051        0.024      339.918       13.580      871.485
01/13/2021  17:09:00      -52.266       32.743      -21.181       60.657       44.126       32.943     3679.251     1947.102     1085.234        0.548        0.336       61.675       26.130        0.179      339.964       13.659      871.502
01/13/2021  17:10:00      -38.298       76.552      -16.584       62.482       57.045       34.874     3904.036     3254.080     1216.197        0.799        0.419       85.598       30.045        0.123      339.850       13.467      871.506
01/13/2021  17:11:00       -5.628       77.064       -9.438       55.294       38.184       29.844     3057.474     1458.010      890.672        0.573        0.270       77.269       28.408        0.135      339.892       13.537      871.503
01/13/2021  17:12:00       -8.290       45.498        0.151       48.618       24.696       27.572     2363.740      609.888      760.196        0.294        0.187       46.247       26.766        0.335      339.784       13.355      871.495
01/13/2021  17:13:00     -149.599       64.195      -29.999       92.003       41.500       37.135     8464.570     1722.265     1378.984        1.948        0.578      162.791       20.811        0.016      339.799       13.379      871.490
01/13/2021  17:14:00     -139.249       66.785      -17.282       52.732       73.747       31.043     2780.705     5438.557      963.643        1.666        0.459      154.436       19.026        0.015      339.738       13.276      871.503
01/13/2021  17:15:00     -101.926       19.588      -10.311       71.312       45.092       39.137     5085.380     2033.317     1531.733        0.976        0.433      103.791       28.039        0.073      339.642       13.115      871.488
01/13/2021  17:16:00      -58.279       35.890      -24.451       74.490       50.385       36.156     5548.760     2538.623     1307.276        0.734        0.470       68.444       21.873        0.102      339.671       13.163      871.500
01/13/2021  17:17:00      -33.570       -5.857      -23.093       52.270       47.470       29.984     2732.109     2253.389      899.052        0.379        0.294       34.077       13.078        0.147      339.647       13.124      871.521
01/13/2021  17:18:00      -11.724       28.633      -17.935       57.834       58.768       33.012     3344.715     3453.643     1089.761        0.458        0.394       30.941       23.490        0.576      339.639       13.110      871.542
01/13/2021  17:19:00      -75.741       11.641      -12.541       93.014       36.358       31.014     8651.593     1321.924      961.880        0.848        0.547       76.631       21.537        0.079      339.537       12.937      871.566
01/13/2021  17:20:00      -49.356       30.268       -7.658       68.658       38.386       30.646     4713.976     1473.461      939.152        0.527        0.356       57.898       22.923        0.157      339.563       12.982      871.572
01/13/2021  17:21:00      -89.306       52.545      -10.865       61.980       51.298       31.271     3841.543     2631.459      977.852        0.915        0.373      103.617       18.856        0.033      339.466       12.817      871.578
01/13/2021  17:22:00      -44.873      119.648      -13.508       81.052       47.793       37.990     6569.353     2284.186     1443.217        1.340        0.515      127.786       27.858        0.048      339.612       13.064      871.593
01/13/2021  17:23:00      -50.144      132.344       -7.498       85.029       74.045       45.837     7229.909     5482.602     2101.008        1.745        0.741      141.525       31.213        0.049      339.561       12.977      871.621
01/13/2021  17:24:00        3.897      142.690      -23.544       85.012       52.177       33.319     7227.087     2722.450     1110.168        1.599        0.553      142.743       40.658        0.081      339.646       13.120      871.651
01/13/2021  17:25:00       25.687      253.008      -25.378       65.790       64.451       35.490     4328.361     4153.943     1259.515        3.753        0.487      254.309       28.860        0.013      339.598       13.037      871.654
01/13/2021  17:26:00       19.498      234.455      -17.446       71.063       73.403       36.667     5049.930     5388.067     1344.463        3.372        0.589      235.265       32.268        0.019      339.671       13.162      871.671
01/13/2021  17:27:00       66.060      149.015      -21.976       43.758       50.894       25.949     1914.806     2590.200      673.340        1.611        0.259      163.001       25.112        0.024      339.612       13.064      871.709
01/13/2021  17:28:00       64.612       72.734      -16.394       57.413       45.195       31.548     3296.256     2042.571      995.290        0.803        0.317       97.289       34.918        0.129      339.426       12.751      871.745
01/13/2021  17:29:00      108.848       75.031      -18.481       60.696       39.650       31.612     3684.031     1572.096      999.310        1.204        0.313      132.203       34.335        0.067      339.436       12.766      871.765
01/13/2021  17:30:00       76.688       56.810      -11.485       69.329       40.531       32.007     4806.531     1642.751     1024.454        0.836        0.374       95.438       42.867        0.202      339.288       12.518      871.761
01/13/2021  17:31:00       55.675      174.772      -24.461       55.554       54.685       31.579     3086.302     2990.429      997.264        2.066        0.354      183.425       29.358        0.026      339.358       12.635      871.759
01/13/2021  17:32:00       54.787      241.412      -35.786       76.763       72.695       35.497     5892.545     5284.586     1260.048        3.750        0.622      247.551       32.404        0.017      339.324       12.575      871.750
01/13/2021  17:33:00       15.725      264.093      -26.334       80.733       57.950       36.343     6517.888     3358.258     1320.807        4.094        0.560      264.561       28.824        0.012      339.357       12.629      871.750
01/13/2021  17:34:00      -39.682      194.759      -11.290       57.909       50.918       38.306     3353.417     2592.608     1467.316        2.352        0.371      198.761       26.314        0.018      339.371       12.655      871.744
01/13/2021  17:35:00      -27.100      170.727      -15.352       74.776       53.512       36.039     5591.508     2863.497     1298.823        1.993        0.488      172.864       23.818        0.019      339.345       12.613      871.743
01/13/2021  17:36:00      -53.990      149.872      -21.890       69.268       56.029       35.913     4798.110     3139.207     1289.720        1.754        0.461      159.300       23.489        0.022      339.376       12.665      871.749
01/13/2021  17:37:00      -31.797      126.249       -6.469       58.168       53.263       31.605     3383.499     2836.920      998.889        1.210        0.361      130.191       28.540        0.048      339.385       12.683      871.748
01/13/2021  17:38:00      -51.063       71.780      -10.409       71.026       69.421       35.833     5044.740     4819.267     1283.993        0.951        0.557       88.089       22.422        0.065      339.374       12.663      871.748
01/13/2021  17:39:00      -69.406      108.684      -11.634       67.423       97.949       39.333     4545.834     9594.050     1547.106        1.622        0.784      128.955       16.774        0.017      339.407       12.719      871.738
01/13/2021  17:40:00     -101.707      141.481      -22.272       60.440       65.483       34.201     3652.959     4288.017     1169.703        1.998        0.456      174.244       17.280        0.010      339.289       12.520      871.722
01/13/2021  17:41:00      -67.357       93.183      -13.440       66.793       55.992       30.806     4461.359     3135.115      949.022        1.097        0.427      114.979        9.177        0.006      339.299       12.537      871.694
01/13/2021  17:42:00      -97.955       34.853      -20.395       79.461       59.848       30.757     6313.996     3581.789      945.991        1.103        0.542      103.970       22.491        0.047      339.207       12.381      871.683
01/13/2021  17:43:00       14.574       10.872        4.951       67.302       46.248       45.411     4529.500     2138.859     2062.124        0.454        0.437       18.182       25.009        1.892      339.122       12.239      871.680
01/13/2021  17:44:00      -62.986       34.774      -21.701       84.681       65.555       43.686     7170.955     4297.446     1908.448        0.951        0.669       71.947       38.239        0.282      339.097       12.197      871.697
01/13/2021  17:45:00      -36.057       50.339      -22.907       80.550       58.976       37.064     6488.317     3478.168     1373.748        0.785        0.567       61.920       24.819        0.161      339.130       12.252      871.722
01/13/2021  17:46:00      -57.348       17.484      -21.663       77.383       37.784       32.324     5988.058     1427.625     1044.848        0.626        0.423       59.954       29.948        0.250      339.148       12.283      871.740
01/13/2021  17:47:00        5.889       22.428       -6.945       48.188       45.708       28.401     2322.065     2089.251      806.637        0.290        0.261       23.188       32.429        1.956      339.092       12.189      871.746
01/13/2021  17:48:00      -20.694       72.226      -12.027       53.799       43.840       26.631     2894.315     1921.911      709.194        0.566        0.276       75.132       16.492        0.048      339.108       12.217      871.750
01/13/2021  17:49:00      -31.846      131.520      -16.818       58.541       55.630       31.499     3427.014     3094.723      992.180        1.305        0.376      135.321       30.278        0.050      339.148       12.282      871.772
01/13/2021  17:50:00     -100.317       37.312      -26.393       72.630       53.801       30.034     5275.189     2894.525      902.029        1.061        0.454      107.031       14.873        0.019      339.073       12.158      871.794
01/13/2021  17:51:00      -27.212       23.181       -5.825      110.769       59.684       48.336    12269.761     3562.184     2336.405        0.974        0.908       35.747       39.208        1.203      338.989       12.015      871.799
01/13/2021  17:52:00     -130.904       70.903      -41.664       94.817       96.407       49.538     8990.279     9294.400     2454.037        2.231        1.037      148.873       22.718        0.023      339.035       12.092      871.814
01/13/2021  17:53:00     -152.841       33.744      -15.055      116.892       70.028       49.017    13663.831     4903.936     2402.671        2.284        1.049      156.521       30.891        0.039      338.976       11.991      871.839
01/13/2021  17:54:00      -90.281       10.649       11.089      108.615       61.754       45.411    11797.317     3813.550     2062.118        1.303        0.884       90.907       40.926        0.203      338.878       11.828      871.873
01/13/2021  17:55:00      -77.763       25.951      -12.856       90.037       54.435       42.292     8106.745     2963.172     1788.641        0.987        0.643       81.979       24.708        0.091      338.899       11.864      871.894
01/13/2021  17:56:00      -48.657       31.376      -27.506      109.026       57.046       55.800    11886.775     3254.236     3113.691        1.118        0.913       57.896       24.886        0.185      338.873       11.821      871.903
01/13/2021  17:57:00       23.934       13.966        3.802       72.242       63.495       47.292     5218.963     4031.651     2236.551        0.613        0.574       27.711       31.471        1.290      338.793       11.684      871.914
01/13/2021  17:58:00      -83.069        8.891      -13.783      129.021       67.877       52.598    16646.512     4607.339     2766.519        1.559        1.201       83.543       44.905        0.289      338.849       11.779      871.929
01/13/2021  17:59:00      -48.517      -12.808      -26.795       93.373       72.839       46.994     8718.577     5305.526     2208.469        0.973        0.812       50.179       23.542        0.220      338.868       11.810      871.948
01/13/2021  18:00:00       -1.046       65.823       -4.619       63.677       61.646       45.270     4054.760     3800.270     2049.374        0.713        0.495       65.831       27.860        0.179      338.870       11.816      871.961
01/13/2021  18:01:00       18.964       19.066       -0.301       67.640       53.783       43.405     4575.235     2892.654     1883.969        0.504        0.468       26.891       33.056        1.511      338.777       11.659      871.988
01/13/2021  18:02:00      -38.095       76.800      -28.834       74.623       68.545       53.238     5568.549     4698.385     2834.243        1.064        0.655       85.729       18.963        0.049      338.930       11.916      871.985
01/13/2021  18:03:00      -61.808      111.686      -19.901       80.361       69.939       55.762     6457.833     4891.484     3109.411        1.557        0.723      127.648       18.016        0.020      338.994       12.024      871.970
01/13/2021  18:04:00      -63.064       92.446      -17.327       83.323       85.444       50.952     6942.769     7300.750     2596.114        1.483        0.842      111.907       18.134        0.026      339.076       12.161      871.932
01/13/2021  18:05:00      -53.543       88.094      -28.777       76.251       65.430       46.289     5814.199     4281.148     2142.689        1.184        0.612      103.089       35.117        0.116      339.072       12.156      871.917
01/13/2021  18:06:00      -60.890      105.257      -27.936       78.161       60.993       45.292     6109.219     3720.194     2051.374        1.372        0.594      121.600       28.267        0.054      339.230       12.421      871.911
01/13/2021  18:07:00       -4.231        4.927      -21.608       89.918       64.657       48.060     8085.175     4180.499     2309.722        0.754        0.729        6.495       40.159       38.235      339.019       12.066      871.902
01/13/2021  18:08:00     -187.122       53.190      -12.827       92.364       53.655       41.229     8531.051     2878.817     1699.855        2.556        0.655      194.535       20.078        0.011      338.742       11.597      871.919
01/13/2021  18:09:00     -188.823       56.236       -0.590      102.237       80.815       46.535    10452.308     6531.109     2165.517        2.898        0.957      197.020       27.251        0.019      338.742       11.597      871.930
01/13/2021  18:10:00     -235.800       54.527       -2.395      146.688       81.847       56.132    21517.263     6698.949     3150.780        4.497        1.568      242.022       33.888        0.020      338.712       11.547      871.929
01/13/2021  18:11:00     -283.152       43.749      -25.300      115.704      119.097       64.293    13387.379    14184.198     4133.567        5.721        1.585      286.512       44.683        0.024      338.871       11.815      871.956
01/13/2021  18:12:00      -96.080       23.947       -3.751      141.571       92.553       72.508    20042.231     8565.988     5257.423        2.184        1.693       99.019       42.351        0.183      338.935       11.923      871.959
01/13/2021  18:13:00      -73.801       41.961       -5.179      136.926       76.488       57.871    18748.791     5850.452     3349.054        1.759        1.397       84.896       50.182        0.349      338.851       11.783      871.985
01/13/2021  18:14:00      -84.994      113.118      -36.782       84.253       69.537       42.341     7098.605     4835.388     1792.729        1.755        0.686      141.491       34.365        0.059      338.975       11.990      872.012
01/13/2021  18:15:00      -53.546       23.211      -21.837      114.387       86.352       61.725    13084.492     7456.598     3810.009        1.411        1.218       58.360       56.675        0.943      338.866       11.808      872.048
01/13/2021  18:16:00      -56.536       84.381      -28.043       88.988       72.076       43.717     7918.825     5194.987     1911.174        1.306        0.751      101.570       18.127        0.032      338.994       12.023      872.065
01/13/2021  18:17:00      -76.829       41.293      -12.493       96.836       56.296       52.452     9377.227     3169.206     2751.207        1.153        0.765       87.223       29.588        0.115      339.001       12.035      872.076
01/13/2021  18:18:00      -72.216       17.363      -33.587      111.801       83.940       47.539    12499.366     7045.901     2259.959        1.422        1.090       74.274       41.402        0.311      338.970       11.982      872.088
01/13/2021  18:19:00      -82.923       96.005      -22.217       77.490       69.550       48.546     6004.701     4837.249     2356.753        1.489        0.660      126.859       22.029        0.030      338.996       12.026      872.125
01/13/2021  18:20:00      -49.666      260.854      -26.251       73.796       80.650       39.939     5445.883     6504.368     1595.157        4.237        0.677      265.540       30.669        0.013      339.033       12.085      872.136
01/13/2021  18:21:00      -14.981      245.238      -19.051       75.144       85.829       36.142     5646.630     7366.686     1306.241        3.752        0.716      245.695       34.019        0.019      338.959       11.959      872.163
01/13/2021  18:22:00      -13.553      219.821      -17.156       72.126       80.866       30.023     5202.140     6539.235      901.401        3.072        0.632      220.238       29.337        0.018      338.887       11.840      872.176
01/13/2021  18:23:00       42.858      240.391      -18.840       75.055       66.629       39.220     5633.318     4439.452     1538.182        3.579        0.581      244.181       36.442        0.022      338.800       11.695      872.184
01/13/2021  18:24:00       71.589      232.467      -16.524       78.525       89.055       39.018     6166.217     7930.876     1522.373        3.753        0.781      243.240       40.511        0.028      338.719       11.558      872.200
01/13/2021  18:25:00       76.465      328.099      -21.756       73.680       81.666       43.532     5428.746     6669.397     1895.044        6.398        0.700      336.892       33.789        0.010      338.589       11.340      872.220
01/13/2021  18:26:00       63.433      282.694      -29.315       72.791       76.987       40.007     5298.590     5926.970     1600.543        4.881        0.641      289.723       32.257        0.012      338.539       11.255      872.238
01/13/2021  18:27:00        6.385      235.874      -28.954       75.914       46.571       35.482     5762.903     2168.850     1258.946        3.285        0.460      235.961       28.714        0.015      338.508       11.203      872.234
01/13/2021  18:28:00       -1.266      157.423      -21.111       61.756       43.401       29.633     3813.846     1883.625      878.097        1.590        0.329      157.428       28.522        0.033      338.463       11.130      872.244
01/13/2021  18:29:00       37.261      182.504      -20.830       71.000       53.512       27.158     5041.027     2863.565      737.558        2.188        0.432      186.269       38.521        0.043      338.457       11.121      872.268
01/13/2021  18:30:00      117.320      153.067      -26.978       57.179       68.648       33.806     3269.387     4712.583     1142.814        2.352        0.456      192.857       34.790        0.033      338.437       11.085      872.293
01/13/2021  18:31:00       54.012       50.089       -5.976       77.806       31.299       34.158     6053.726      979.620     1166.747        0.683        0.410       73.663       44.774        0.369      338.397       11.021      872.332
01/13/2021  18:32:00       98.427       71.860      -20.074       67.776       55.543       34.615     4593.561     3085.068     1198.211        1.206        0.444      121.868       42.130        0.120      338.387       11.003      872.382
01/13/2021  18:33:00      171.941      152.073      -34.264       86.150       52.655       45.169     7421.900     2772.583     2040.239        3.305        0.612      229.543       42.962        0.035      338.435       11.082      872.414
01/13/2021  18:34:00      109.174      133.163      -25.189       77.332       48.745       38.206     5980.269     2376.053     1459.689        2.005        0.491      172.196       41.254        0.057      338.555       11.284      872.446
01/13/2021  18:35:00      268.663      195.863      -42.935      125.853       75.181       54.811    15838.926     5652.188     3004.231        6.844        1.225      332.479       56.887        0.029      338.562       11.294      872.468
01/13/2021  18:36:00      205.436      139.839      -42.311       93.573       72.619       42.948     8755.998     5273.588     1844.552        3.971        0.794      248.513       45.473        0.033      338.552       11.278      872.496
01/13/2021  18:37:00      184.548      116.845      -36.506       93.549       48.397       41.659     8751.508     2342.306     1735.472        3.093        0.641      218.428       50.411        0.053      338.542       11.261      872.531
01/13/2021  18:38:00      175.596      140.662      -27.027       89.816       54.286       43.579     8066.975     2947.023     1899.094        3.213        0.646      224.988       45.738        0.041      338.668       11.472      872.575
01/13/2021  18:39:00      205.200      172.403      -35.408       91.230       62.893       48.445     8322.922     3955.536     2346.956        4.385        0.731      268.011       54.123        0.041      338.786       11.671      872.595
01/13/2021  18:40:00      139.083      140.114      -18.583       88.591       60.887       48.053     7848.386     3707.223     2309.122        2.659        0.693      197.423       52.562        0.071      338.933       11.919      872.613
01/13/2021  18:41:00      171.806      164.403      -32.140       71.698       68.205       38.520     5140.622     4651.903     1483.767        3.443        0.564      237.793       39.787        0.028      338.865       11.805      872.633
01/13/2021  18:42:00      217.335      159.263      -45.519      116.621       59.386       38.816    13600.410     3526.645     1506.665        4.665        0.932      269.442       43.146        0.026      338.826       11.738      872.643
01/13/2021  18:43:00      119.411      125.485      -21.174       70.996       67.047       35.155     5040.501     4495.267     1235.868        2.061        0.539      173.221       39.182        0.051      338.662       11.465      872.682
01/13/2021  18:44:00      156.023      131.273      -28.140       90.180       47.379       43.781     8132.415     2244.723     1916.754        2.733        0.615      203.902       39.394        0.037      338.729       11.576      872.706
01/13/2021  18:45:00      160.781      149.058      -20.558       89.215       58.143       51.694     7959.371     3380.620     2672.271        3.125        0.701      219.247       48.417        0.049      338.678       11.489      872.737
01/13/2021  18:46:00      101.269       94.767      -15.251       77.126       73.888       41.491     5948.422     5459.495     1721.470        1.630        0.656      138.695       45.473        0.107      338.636       11.420      872.746
01/13/2021  18:47:00      149.310      149.099      -18.687      131.086      107.067       55.694    17183.621    11463.249     3101.796        3.830        1.587      211.007       54.859        0.068      338.701       11.529      872.741
01/13/2021  18:48:00      152.749      132.012      -25.847       93.680       52.437       39.928     8775.893     2749.633     1594.266        2.727        0.656      201.890       40.019        0.039      338.662       11.464      872.753
01/13/2021  18:49:00      154.421      177.856      -28.679       89.697       73.694       45.134     8045.586     5430.800     2037.074        3.590        0.776      235.539       44.567        0.036      338.670       11.477      872.764
01/13/2021  18:50:00      150.954      154.891      -22.461       99.256       53.914       51.294     9851.746     2906.745     2631.044        3.133        0.769      216.283       47.893        0.049      338.707       11.540      872.786
01/13/2021  18:51:00      116.637      246.717      -37.366       86.598       67.309       41.662     7499.184     4530.499     1735.696        4.481        0.688      272.898       46.483        0.029      338.722       11.563      872.823
01/13/2021  18:52:00      110.081      294.800      -35.187       83.556       77.219       39.692     6981.554     5962.844     1575.490        5.739        0.726      314.682       44.932        0.020      338.731       11.577      872.862
01/13/2021  18:53:00       80.770      311.372      -31.282       56.936       70.209       38.548     3241.740     4929.350     1485.922        5.705        0.483      321.677       30.682        0.009      338.715       11.553      872.908
01/13/2021  18:54:00      130.646      264.524      -36.949       89.310       64.918       41.454     7976.303     4214.313     1718.410        5.115        0.695      295.028       43.110        0.021      338.688       11.506      872.937
01/13/2021  18:55:00      131.257      223.288      -25.860       85.879       70.890       49.731     7375.197     5025.456     2473.133        4.131        0.744      259.009       43.910        0.029      338.595       11.350      872.946
01/13/2021  18:56:00      110.612      279.894      -34.322       68.150       65.723       35.715     4644.426     4319.533     1275.572        5.099        0.512      300.958       34.420        0.013      338.621       11.394      872.961
01/13/2021  18:57:00       60.439      236.128      -27.821       70.850       71.082       41.192     5019.686     5052.614     1696.789        3.597        0.588      243.740       33.935        0.019      338.644       11.431      872.951
01/13/2021  18:58:00       43.948      218.725      -23.862       71.815       68.735       34.393     5157.388     4724.554     1182.909        3.070        0.553      223.096       30.832        0.019      338.675       11.487      872.939
01/13/2021  18:59:00        4.977      258.082      -19.530       71.675       66.599       39.692     5137.372     4435.467     1575.435        3.908        0.557      258.130       34.815        0.018      338.696       11.519      872.948
01/13/2021  19:00:00      -47.463      233.785      -13.883       72.379       54.173       38.235     5238.663     2934.744     1461.906        3.337        0.482      238.555       28.007        0.014      338.662       11.461      872.976
01/13/2021  19:01:00       14.860      229.787      -15.250       86.222       61.163       43.952     7434.183     3740.892     1931.760        3.318        0.655      230.267       41.473        0.032      338.592       11.344      873.001
01/13/2021  19:02:00       -6.071      257.397      -22.028       86.352       82.917       35.277     7456.737     6875.204     1244.455        4.117        0.779      257.469       27.857        0.012      338.510       11.208      872.999
01/13/2021  19:03:00       18.832      303.599      -23.824       80.439       70.072       48.209     6470.368     4910.033     2324.071        5.340        0.685      304.182       37.409        0.015      338.439       11.086      872.957
01/13/2021  19:04:00        0.135      246.505      -20.977       99.769       99.036       51.595     9953.844     9808.151     2662.091        4.181        1.121      246.505       40.978        0.028      338.456       11.116      872.923
01/13/2021  19:05:00       11.383      307.890      -17.341       76.028       85.672       45.023     5780.183     7339.769     2027.092        5.518        0.757      308.100       40.526        0.017      338.386       10.997      872.907
01/13/2021  19:06:00      -26.346      229.250      -17.986      112.781      102.684       45.112    12719.654    10544.016     2035.099        3.943        1.265      230.759       22.502        0.010      338.453       11.111      872.914
01/13/2021  19:07:00      -64.398      233.714      -15.243       85.244       80.409       47.713     7266.594     6465.639     2276.553        3.750        0.800      242.424       40.341        0.028      338.387       10.999      872.934
01/13/2021  19:08:00     -134.061      253.762      -14.899       75.848       86.643       50.233     5752.885     7507.061     2523.338        4.918        0.789      286.997       34.814        0.015      338.386       10.998      872.944
01/13/2021  19:09:00     -141.346      250.912      -26.308       84.781       75.598       40.111     7187.805     5715.094     1608.917        4.907        0.726      287.986       21.107        0.005      338.303       10.859      872.934
01/13/2021  19:10:00     -127.437      158.093      -28.242       78.810       73.560       49.570     6211.014     5411.002     2457.187        2.805        0.704      203.060       23.972        0.014      338.268       10.801      872.888
01/13/2021  19:11:00      -70.848       73.264      -28.134      103.595       99.351       52.620    10731.897     9870.568     2768.862        1.727        1.169      101.917       46.487        0.208      338.238       10.751      872.813
01/13/2021  19:12:00      -67.640       16.067       -5.835      123.729       84.018       61.105    15308.803     7058.998     3733.772        1.548        1.305       69.522       31.271        0.202      338.067       10.465      872.730
01/13/2021  19:13:00      -41.809       -1.084      -12.249      151.666       84.779       62.536    23002.714     7187.507     3910.795        1.799        1.705       41.823       53.557        1.640      338.066       10.464      872.674
01/13/2021  19:14:00      -93.645       24.982       -7.769      164.490       85.246       59.494    27056.914     7266.880     3539.576        2.365        1.893       96.920       37.807        0.152      338.012       10.372      872.636
01/13/2021  19:15:00     -278.491       65.828        1.464      144.524       83.638       61.955    20887.084     6995.242     3838.369        5.680        1.586      286.165       56.059        0.038      337.885       10.157      872.623
01/13/2021  19:16:00     -146.972       43.107        2.879      138.508       82.958       55.613    19184.400     6882.019     3092.771        2.631        1.458      153.163       29.334        0.037      337.869       10.131      872.640
01/13/2021  19:17:00     -177.304       59.674      -17.120      123.226       73.129       45.355    15184.657     5347.880     2057.031        2.894        1.129      187.077       38.896        0.043      337.836       10.077      872.697
01/13/2021  19:18:00     -137.823       19.887      -10.712      102.892       54.316       50.337    10586.851     2950.204     2533.781        1.778        0.804      139.250        6.383        0.002      337.779        9.981      872.767
01/13/2021  19:19:00       -4.633       89.174      -15.069       91.379      117.566       44.100     8350.191    13821.767     1944.805        1.615        1.206       89.294       48.563        0.296      337.912       10.205      872.844
01/13/2021  19:20:00      -28.176      141.863      -10.348       81.286       65.680       48.562     6607.474     4313.875     2358.289        1.715        0.664      144.634       35.585        0.061      337.987       10.331      872.906
01/13/2021  19:21:00      -24.039      185.334      -16.775       73.415       47.498       34.478     5389.759     2256.100     1188.701        2.202        0.442      186.886       27.458        0.022      337.986       10.329      872.968
01/13/2021  19:22:00      -44.107      242.355      -25.960       76.708       74.450       38.413     5884.152     5542.742     1475.531        3.713        0.645      246.336       30.822        0.016      337.958       10.281      873.002
01/13/2021  19:23:00        7.918      164.312      -26.574       77.491       61.068       32.921     6004.859     3729.307     1083.807        1.929        0.541      164.503       22.534        0.019      338.056       10.447      873.026
01/13/2021  19:24:00       79.798       42.430      -16.158       72.952       34.863       33.982     5322.063     1215.418     1154.785        0.806        0.385       90.377       44.212        0.239      337.979       10.317      873.051
01/13/2021  19:25:00       62.582        4.645      -30.266       72.384       50.237       38.002     5239.459     2523.753     1444.116        0.703        0.460       62.754       36.760        0.343      337.780        9.985      873.062
01/13/2021  19:26:00      200.478       61.897      -38.748       82.354       62.566       41.145     6782.207     3914.479     1692.872        2.895        0.619      209.816       47.313        0.051      337.791       10.001      873.076
01/13/2021  19:27:00      161.260       58.442      -33.279       80.214       41.134       37.149     6434.348     1692.007     1380.015        2.002        0.475      171.523       46.330        0.073      338.068       10.466      873.071
01/13/2021  19:28:00      164.678       68.437      -23.759       67.483       38.233       34.144     4553.931     1461.795     1165.834        1.977        0.359      178.333       40.365        0.051      338.153       10.610      873.085
01/13/2021  19:29:00       89.889       61.000      -14.305       61.421       32.958       29.806     3772.590     1086.250      888.424        0.888        0.287      108.633       39.630        0.133      338.079       10.486      873.107
01/13/2021  19:30:00       74.525       61.048      -12.288       64.815       18.919       31.776     4200.997      357.939     1009.710        0.750        0.278       96.337       39.416        0.167      338.132       10.576      873.128
01/13/2021  19:31:00      104.659       89.211      -23.320       75.045       39.736       38.812     5631.685     1578.956     1506.339        1.408        0.436      137.521       48.273        0.123      338.140       10.589      873.141
01/13/2021  19:32:00       96.476      125.068      -18.359       67.879       58.440       39.230     4607.514     3415.279     1538.960        1.742        0.478      157.954       41.402        0.069      338.257       10.784      873.132
01/13/2021  19:33:00      135.411       84.059      -27.882       87.556       64.374       46.156     7665.996     4144.072     2130.351        2.006        0.697      159.380       53.965        0.115      338.255       10.780      873.103
01/13/2021  19:34:00       93.130      116.099      -15.974       70.071       41.009       38.110     4909.964     1681.737     1452.382        1.522        0.402      148.836       40.973        0.076      338.140       10.589      873.092
01/13/2021  19:35:00        6.172      150.422      -16.191       74.709       37.383       30.199     5581.473     1397.459      911.968        1.541        0.395      150.549       32.043        0.045      338.210       10.707      873.059
01/13/2021  19:36:00      -62.084      163.548      -17.178       70.534       82.250       39.919     4975.007     6765.088     1593.547        2.211        0.667      174.935       34.904        0.040      338.419       11.054      873.014
01/13/2021  19:37:00      -98.558       80.184      -20.906       60.016       53.205       35.874     3601.881     2830.794     1286.949        1.215        0.386      127.056       19.963        0.025      338.448       11.106      872.993
01/13/2021  19:38:00      -86.285       45.955      -12.267       52.919       32.533       29.812     2800.383     1058.410      888.741        0.723        0.237       97.760       20.012        0.042      338.435       11.084      872.990
01/13/2021  19:39:00      -16.777       44.590       -6.165       60.016       30.627       26.939     3601.967      938.041      725.685        0.379        0.263       47.642       29.735        0.390      338.555       11.285      872.992
01/13/2021  19:40:00      -56.589       83.530       -9.356       51.151       49.333       28.299     2616.438     2433.702      800.837        0.806        0.293      100.894       22.094        0.048      338.573       11.316      873.005
01/13/2021  19:41:00      -34.714       99.265      -11.839       56.412       72.598       34.182     3182.272     5270.531     1168.442        1.041        0.481      105.159       33.701        0.103      338.666       11.472      873.010
01/13/2021  19:42:00      -16.744      141.285      -12.595       57.094       37.111       26.693     3259.746     1377.257      712.529        1.287        0.267      142.274       26.201        0.034      338.537       11.256      873.029
01/13/2021  19:43:00      -44.163      127.716      -11.734       56.197       32.947       30.618     3158.068     1085.483      937.479        1.179        0.259      135.136       27.240        0.041      338.548       11.274      873.035
01/13/2021  19:44:00      -35.811      134.407      -13.561       69.554       89.823       39.689     4837.705     8068.163     1575.249        1.700        0.724      139.096       21.523        0.024      338.406       11.034      873.037
01/13/2021  19:45:00     -176.781       -2.634      -24.481       80.075       55.077       45.616     6412.022     3033.485     2080.856        2.169        0.576      176.801       25.813        0.021      338.223       10.726      872.998
01/13/2021  19:46:00     -100.622       75.337      -39.186       71.326       64.740       38.382     5087.390     4191.274     1473.185        1.404        0.538      125.700       19.895        0.025      338.239       10.754      872.958
01/13/2021  19:47:00     -162.668       29.064      -26.919       84.439       59.978       37.655     7130.010     3597.331     1417.868        2.009        0.607      165.244       28.239        0.029      338.177       10.649      872.894
01/13/2021  19:48:00      -78.506       52.080      -17.091       99.902       44.887       40.835     9980.350     2014.864     1667.461        1.141        0.683       94.210       21.645        0.053      338.237       10.752      872.847
01/13/2021  19:49:00     -103.838       46.924      -20.369      122.880       64.954       42.572    15099.435     4219.062     1812.380        1.726        1.057      113.948       32.218        0.080      338.193       10.676      872.823
01/13/2021  19:50:00      -88.624       34.341      -14.601      110.147       83.048       51.651    12132.329     6896.958     2667.782        1.547        1.085       95.045       27.203        0.082      338.213       10.710      872.804
01/13/2021  19:51:00     -125.003       16.593      -12.361      109.359       64.088       41.923    11959.402     4107.253     1757.571        1.694        0.891      126.100       38.800        0.095      338.081       10.488      872.829
01/13/2021  19:52:00      -62.879       34.401        0.180       97.574       81.314       45.135     9520.610     6612.024     2037.180        1.165        0.908       71.674       40.395        0.318      338.166       10.633      872.849
01/13/2021  19:53:00     -116.013       12.019      -14.919       96.132       43.416       38.927     9241.358     1884.979     1515.320        1.323        0.632      116.634       19.089        0.027      338.136       10.582      872.894
01/13/2021  19:54:00      -87.244        1.034        0.550      117.285       64.436       51.225    13755.813     4151.954     2624.032        1.407        1.027       87.251       37.778        0.187      337.999       10.351      872.929
01/13/2021  19:55:00     -131.818        5.277       -7.063       85.571       60.230       45.173     7322.361     3627.710     2040.581        1.522        0.650      131.924       19.505        0.022      337.975       10.312      872.975
01/13/2021  19:56:00      -77.888       12.795       -6.931       73.342       50.442       37.586     5378.996     2544.418     1412.740        0.781        0.467       78.932       18.414        0.054      337.888       10.166      873.003
01/13/2021  19:57:00     -215.785        5.779      -23.991      106.424       76.146       53.057    11325.988     5798.220     2815.058        3.355        0.997      215.862       37.675        0.030      337.696        9.842      873.018
01/13/2021  19:58:00     -147.020        2.692       -7.309       71.169       40.565       38.592     5065.081     1645.490     1489.358        1.494        0.410      147.045        9.679        0.004      337.598        9.678      873.039
01/13/2021  19:59:00      -62.600       36.893       -9.742       83.744       51.068       34.226     7013.121     2607.953     1171.391        0.808        0.540       72.663       31.068        0.183      337.752        9.937      873.060
01/13/2021  20:00:00      -22.950        3.285       -8.261       80.088       58.992       44.862     6414.037     3480.014     2012.564        0.625        0.595       23.184       31.701        1.870      337.613        9.704      873.080
01/13/2021  20:01:00      -52.410      -17.533      -18.092       88.676       38.162       40.441     7863.439     1456.324     1635.486        0.717        0.548       55.265        9.693        0.031      337.594        9.673      873.107
01/13/2021  20:02:00      -73.049       21.192      -31.046       96.370       49.597       39.095     9287.216     2459.902     1528.396        1.001        0.664       76.061       19.750        0.067      337.529        9.565      873.141
01/13/2021  20:03:00      -52.443       14.133      -16.788       60.296       30.266       30.838     3635.552      916.041      951.007        0.437        0.275       54.314       22.868        0.177      337.494        9.506      873.171
01/13/2021  20:04:00      -63.014       22.715      -12.054       68.812       39.495       33.334     4735.052     1559.826     1111.149        0.602        0.370       66.983       26.391        0.155      337.541        9.585      873.177
01/13/2021  20:05:00     -128.565       22.926      -28.283       55.605       26.397       29.653     3091.906      696.792      879.296        1.126        0.233      130.593       15.748        0.015      337.623        9.722      873.183
01/13/2021  20:06:00     -111.129       34.653      -17.130       50.142       38.014       28.511     2514.246     1445.084      812.891        0.931        0.239      116.406       21.346        0.034      337.689        9.832      873.194
01/13/2021  20:07:00      -98.873       40.547      -10.180       62.061       24.946       31.526     3851.575      622.325      993.889        0.849        0.273      106.864       28.247        0.070      337.701        9.853      873.206
01/13/2021  20:08:00      -77.921       17.438       -5.594       61.630       27.144       34.977     3798.243      736.811     1223.361        0.608        0.288       79.848       32.406        0.165      337.669        9.800      873.219
01/13/2021  20:09:00      -36.376       53.398      -15.229       70.916       49.010       33.420     5029.031     2402.018     1116.906        0.648        0.427       64.611       32.474        0.253      337.862       10.123      873.225
01/13/2021  20:10:00      -42.058       50.972      -20.317       54.366       41.262       31.882     2955.672     1702.576     1016.476        0.523        0.284       66.084       33.003        0.249      338.053       10.444      873.233
01/13/2021  20:11:00      -50.029       12.329      -15.854       56.995       31.960       27.740     3248.478     1021.466      769.494        0.397        0.252       51.525       21.254        0.170      337.755        9.943      873.236
01/13/2021  20:12:00      -71.671       17.147       -5.009      121.691       57.696       40.503    14808.609     3328.864     1640.487        1.261        0.989       73.694       23.252        0.100      337.679        9.815      873.267
01/13/2021  20:13:00     -251.821       77.857       -5.806      124.892       99.574       55.072    15598.006     9914.949     3032.893        4.902        1.427      263.583       46.960        0.032      337.727        9.893      873.292
01/13/2021  20:14:00     -156.959       18.004       -2.437      124.150       82.133       49.701    15413.335     6745.805     2470.206        2.479        1.231      157.989       49.143        0.097      337.840       10.084      873.308
01/13/2021  20:15:00     -205.806       39.255       -1.658      166.113       86.695       54.674    27593.380     7516.109     2989.251        4.099        1.905      209.516       60.559        0.084      337.700        9.851      873.325
01/13/2021  20:16:00     -176.595        3.007       -4.975      113.354       76.539       48.678    12849.097     5858.178     2369.566        2.614        1.054      176.620       44.886        0.065      337.714        9.873      873.317
01/13/2021  20:17:00      -93.034        1.570        5.237      129.504       86.288       65.434    16771.181     7445.533     4281.550        1.859        1.425       93.047       49.038        0.278      337.718        9.880      873.314
01/13/2021  20:18:00     -179.076       20.756        4.529      144.300       79.300       52.696    20822.373     6288.413     2776.916        3.120        1.494      180.274       34.028        0.036      337.770        9.966      873.322
01/13/2021  20:19:00     -254.977       24.785       -5.023      115.597       84.374       52.022    13362.753     7119.046     2706.277        4.442        1.159      256.178       33.152        0.017      337.747        9.927      873.311
01/13/2021  20:20:00     -260.888       60.502       -0.677      130.107       87.398       57.802    16927.757     7638.334     3341.018        4.981        1.395      267.811       54.707        0.042      337.850       10.099      873.304
01/13/2021  20:21:00     -162.464       31.195        0.137      108.969       79.650       53.402    11874.278     6344.167     2851.813        2.421        1.054      165.432       38.350        0.054      337.833       10.073      873.310
01/13/2021  20:22:00      -94.910        4.278       -0.621      114.289       62.136       49.883    13061.872     3860.838     2488.363        1.421        0.971       95.007       44.887        0.223      337.886       10.161      873.317
01/13/2021  20:23:00     -135.828       54.306       -1.157       75.072       51.221       38.123     5635.833     2623.640     1453.392        1.555        0.486      146.282       10.974        0.006      337.886       10.163      873.344
01/13/2021  20:24:00     -154.984        4.308      -27.666       64.626       38.587       35.391     4176.518     1488.980     1252.556        1.586        0.346      155.044       26.367        0.029      337.960       10.286      873.340
01/13/2021  20:25:00      -37.984      -11.635      -22.158       63.289       23.218       28.955     4005.553      539.098      838.418        0.372        0.269       39.726       30.680        0.596      337.865       10.127      873.356
01/13/2021  20:26:00        7.688       36.509      -11.732       53.506       25.631       30.810     2862.887      656.942      949.241        0.300        0.223       37.309       33.533        0.808      337.800       10.020      873.369
01/13/2021  20:27:00       62.227      -37.521      -26.311       54.248       23.395       28.105     2942.799      547.320      789.880        0.513        0.214       72.664       36.814        0.257      337.854       10.109      873.359
01/13/2021  20:28:00       16.765       -7.391      -16.926       60.180       32.479       27.483     3621.632     1054.860      755.334        0.303        0.272       18.322       38.112        4.327      337.921       10.221      873.366
01/13/2021  20:29:00       20.844       37.029      -22.344       52.071       17.418       26.854     2711.411      303.394      721.162        0.302        0.187       42.493       34.178        0.647      337.991       10.338      873.396
01/13/2021  20:30:00       29.793        3.660      -24.765       56.244       14.980       28.512     3163.423      224.401      812.955        0.286        0.210       30.017       38.741        1.666      337.864       10.125      873.415
01/13/2021  20:31:00       48.096      -27.581      -26.364       63.600       23.506       33.154     4044.907      552.527     1099.159        0.473        0.285       55.443       44.147        0.634      337.847       10.099      873.444
01/13/2021  20:32:00       -3.548      -17.685      -18.031       66.919       30.669       30.014     4478.167      940.601      900.846        0.348        0.316       18.038       40.172        4.960      337.998       10.352      873.473
01/13/2021  20:33:00        6.148      -49.202      -24.792       60.218       26.716       30.284     3626.225      713.752      917.121        0.416        0.263       49.584       40.116        0.655      338.004       10.360      873.496
01/13/2021  20:34:00       34.716      -19.022      -27.176       68.617       24.408       24.166     4708.349      595.744      583.985        0.410        0.294       39.585       34.501        0.760      338.018       10.385      873.525
01/13/2021  20:35:00       93.274      -57.933      -31.282       69.116       26.675       30.721     4777.046      711.544      943.771        0.973        0.322      109.801       41.508        0.143      337.730        9.900      873.554
01/13/2021  20:36:00       70.857      -21.720      -21.903       60.311       34.474       33.511     3637.436     1188.434     1123.009        0.596        0.297       74.111       41.036        0.307      337.552        9.603      873.586
01/13/2021  20:37:00       45.538       25.486      -17.254       53.646       13.108       28.421     2877.932      171.810      807.752        0.344        0.193       52.184       37.004        0.503      337.472        9.470      873.598
01/13/2021  20:38:00       57.983       34.122      -18.059       60.865       20.884       34.585     3704.488      436.150     1196.145        0.509        0.267       67.278       42.439        0.398      337.459        9.446      873.603
01/13/2021  20:39:00       43.418        3.221      -16.129       62.193       25.464       30.766     3867.974      648.423      946.528        0.381        0.273       43.538       42.170        0.938      337.545        9.591      873.606
01/13/2021  20:40:00       75.293      -66.709      -27.332       73.886       24.082       35.011     5459.199      579.940     1225.750        0.906        0.363      100.594       48.949        0.237      337.874       10.142      873.595
01/13/2021  20:41:00       73.601      -71.537      -40.589       82.972       29.392       33.450     6884.348      863.899     1118.920        1.052        0.443      102.639       47.437        0.214      337.856       10.113      873.567
01/13/2021  20:42:00      105.455     -100.526      -29.045       82.921       61.196       40.261     6875.814     3744.905     1620.943        1.715        0.612      145.692       55.106        0.143      337.939       10.251      873.540
01/13/2021  20:43:00        1.762      -10.747      -29.737       80.635       51.205       39.569     6502.058     2621.950     1565.731        0.584        0.534       10.891       39.927       13.441      337.969       10.302      873.535
01/13/2021  20:44:00      -11.381       16.999      -18.006       59.090       38.615       27.621     3491.656     1491.085      762.913        0.324        0.287       20.457       27.511        1.809      337.700        9.852      873.532
01/13/2021  20:45:00      -89.032      -56.175      -17.681       84.270       49.928       24.923     7101.477     2492.809      621.145        1.080        0.511      105.273       21.579        0.042      337.634        9.741      873.492
01/13/2021  20:46:00     -139.503      -44.596      -26.911       68.863       54.825       38.146     4742.097     3005.730     1455.140        1.569        0.460      146.458       11.779        0.006      337.817       10.047      873.451
01/13/2021  20:47:00     -149.119      -58.549      -23.097       80.978       45.796       38.751     6557.401     2097.252     1501.622        1.817        0.508      160.201       26.058        0.026      337.741        9.917      873.423
01/13/2021  20:48:00     -216.652      -65.539       -7.839       76.410       66.037       44.986     5838.505     4360.903     2023.716        3.176        0.611      226.348       39.643        0.031      337.538        9.575      873.390
01/13/2021  20:49:00     -223.375      -30.160      -24.655       67.359       54.736       45.045     4537.228     2995.989     2029.014        3.049        0.478      225.402       28.654        0.016      337.502        9.515      873.346
01/13/2021  20:50:00      -97.910      -31.288       -1.174      120.348       54.700       50.259    14483.593     2992.120     2525.993        1.528        1.000      102.788       44.772        0.190      337.364        9.288      873.362
01/13/2021  20:51:00      -88.641      -27.919       -6.375      103.274       51.795       43.247    10665.514     2682.770     1870.338        1.194        0.761       92.934       29.433        0.100      337.523        9.555      873.347
01/13/2021  20:52:00      -61.487      -35.375       -2.959       95.954       62.990       49.345     9207.229     3967.765     2434.913        1.032        0.780       70.937       25.067        0.125      337.602        9.685      873.329
01/13/2021  20:53:00      -67.542        6.122      -18.677       72.186       43.986       39.971     5210.793     1934.735     1597.693        0.684        0.437       67.819       15.001        0.049      337.387        9.325      873.335
01/13/2021  20:54:00     -112.325       11.051      -20.271       97.193       44.662       34.893     9446.509     1994.677     1217.510        1.290        0.633      112.868       19.010        0.028      337.561        9.617      873.353
01/13/2021  20:55:00      -71.782       12.012      -10.786       77.902       47.134       37.567     6068.657     2221.580     1411.299        0.756        0.485       72.781       12.613        0.030      337.528        9.562      873.375
01/13/2021  20:56:00      -27.970      102.784      -19.586       89.665       55.677       40.291     8039.811     3099.972     1623.373        1.224        0.638      106.521       19.416        0.033      337.996       10.347      873.434
01/13/2021  20:57:00      -14.757       57.751       -1.164       87.783       41.062       33.599     7705.852     1686.076     1128.869        0.704        0.526       59.607       35.737        0.359      337.586        9.660      873.490
01/13/2021  20:58:00       47.429       25.891      -17.730       63.094       26.413       28.526     3980.817      697.667      813.742        0.436        0.275       54.036       39.866        0.544      337.670        9.799      873.529
01/13/2021  20:59:00       42.797        3.246      -31.638       63.573       51.709       33.198     4041.552     2673.796     1102.115        0.533        0.391       42.919       38.969        0.824      337.506        9.525      873.549
01/13/2021  21:00:00       31.550       -1.678      -21.369       67.701       44.902       41.142     4583.404     2016.224     1692.703        0.487        0.415       31.595       45.899        2.110      337.231        9.066      873.565
01/13/2021  21:01:00       78.921      -14.251      -33.714       67.783       55.473       38.356     4594.594     3077.287     1471.162        0.835        0.457       80.197       39.849        0.247      337.093        8.835      873.594
01/13/2021  21:02:00      169.064     -146.761      -55.682       81.336       53.276       42.579     6615.512     2838.375     1812.991        3.224        0.563      223.878       52.445        0.055      337.392        9.333      873.617
01/13/2021  21:03:00      166.019      -69.013      -43.905       64.556       40.011       38.032     4167.434     1600.879     1446.445        2.073        0.361      179.792       42.772        0.057      337.514        9.538      873.652
01/13/2021  21:04:00      130.211     -105.933      -54.815       84.914       92.386       47.263     7210.417     8535.235     2233.776        2.458        0.899      167.859       48.839        0.085      337.462        9.453      873.644
01/13/2021  21:05:00      119.540     -156.402      -33.652       85.760       46.520       51.538     7354.734     2164.123     2656.186        2.603        0.609      196.854       59.747        0.092      337.522        9.550      873.629
01/13/2021  21:06:00       90.205     -126.737      -27.384       83.136       57.193       42.840     6911.653     3271.013     1835.292        1.848        0.601      155.561       53.009        0.116      337.592        9.668      873.615
01/13/2021  21:07:00        3.912       -0.980      -18.612       62.903       43.806       33.224     3956.800     1919.005     1103.840        0.367        0.349        4.033       36.634       82.505      337.477        9.478      873.608
01/13/2021  21:08:00      -81.606      -21.302      -16.334       84.191       55.485       42.420     7088.141     3078.611     1799.435        0.967        0.598       84.340       17.916        0.045      337.470        9.466      873.582
01/13/2021  21:09:00     -101.926      -53.042      -16.769       92.631       33.598       33.667     8580.466     1128.836     1133.452        1.216        0.542      114.901       35.519        0.096      338.077       10.484      873.538
01/13/2021  21:10:00      -16.474      -13.242       -1.984       52.613       59.324       28.641     2768.085     3519.392      820.312        0.378        0.355       21.136       24.994        1.398      337.902       10.190      873.513
01/13/2021  21:11:00      -59.897       12.487       -8.759       86.671       48.210       45.597     7511.918     2324.168     2079.098        0.787        0.596       61.185       26.251        0.184      337.474        9.473      873.491
01/13/2021  21:12:00     -110.023       55.703       -8.820       69.000       43.342       35.574     4760.997     1878.514     1265.516        1.159        0.395      123.320       13.707        0.012      337.241        9.082      873.460
01/13/2021  21:13:00     -124.428       46.848      -14.396       57.802       32.446       34.702     3341.109     1052.742     1204.232        1.174        0.280      132.955       11.061        0.007      337.300        9.180      873.442
01/13/2021  21:14:00      -36.879      139.169      -13.509       79.519       64.668       38.347     6323.263     4181.951     1470.503        1.644        0.599      143.972       39.812        0.076      337.740        9.918      873.439
01/13/2021  21:15:00      -28.023      179.405      -13.595       58.753       38.306       28.469     3451.924     1467.339      810.489        1.944        0.286      181.580       26.603        0.021      337.766        9.961      873.476
01/13/2021  21:16:00      -70.953       65.119      -22.192       60.136       45.373       35.087     3616.361     2058.690     1231.109        0.834        0.345       96.306        9.803        0.010      337.796       10.012      873.525
01/13/2021  21:17:00       59.504       80.863      -16.535       67.278       37.611       32.437     4526.375     1414.622     1052.155        0.867        0.350      100.397       38.065        0.144      337.396        9.341      873.577
01/13/2021  21:18:00       60.047      135.684      -19.108       86.707       43.844       45.017     7518.110     1922.284     2026.556        1.692        0.573      148.377       44.052        0.088      337.501        9.515      873.628
01/13/2021  21:19:00      -78.152      137.322      -21.251       76.944       57.042       35.626     5920.332     3253.821     1269.224        1.793        0.522      158.003       17.177        0.012      337.960       10.285      873.634
01/13/2021  21:20:00      -59.235       55.905      -22.976       59.418       45.379       30.189     3530.543     2059.289      911.387        0.683        0.325       81.451       19.750        0.059      337.803       10.023      873.665
01/13/2021  21:21:00       17.728       28.769      -16.061       58.909       21.910       32.322     3470.227      480.066     1044.744        0.320        0.250       33.793       40.254        1.419      337.314        9.204      873.680
01/13/2021  21:22:00       60.692       32.327      -22.424       69.207       19.120       31.010     4789.568      365.588      961.636        0.567        0.306       68.765       45.090        0.430      337.185        8.988      873.684
01/13/2021  21:23:00       65.734       13.187      -24.524       70.699       11.962       33.018     4998.349      143.088     1090.207        0.566        0.312       67.044       47.148        0.495      337.153        8.935      873.688
01/13/2021  21:24:00       87.590        4.276      -21.050       66.577       11.231       33.879     4432.476      126.142     1147.767        0.692        0.285       87.694       46.450        0.281      337.193        9.002      873.683
01/13/2021  21:25:00       79.102      -20.850      -33.420       67.889       40.244       32.005     4608.890     1619.603     1024.313        0.753        0.363       81.804       40.880        0.250      337.036        8.738      873.677
01/13/2021  21:26:00      116.893      -47.353      -38.230       73.678       60.570       36.048     5428.457     3668.735     1299.484        1.388        0.520      126.120       42.826        0.115      337.304        9.188      873.678
01/13/2021  21:27:00      128.788      -83.078      -48.714       88.058       56.709       43.102     7754.271     3215.941     1857.788        1.934        0.641      153.259       56.954        0.138      337.278        9.144      873.682
01/13/2021  21:28:00      141.350     -112.937      -54.728       77.295       50.244       36.486     5974.499     2524.427     1331.243        2.278        0.492      180.927       47.111        0.068      337.255        9.103      873.705
01/13/2021  21:29:00       82.335      -46.311      -37.083       88.925       63.374       42.812     7907.656     4016.246     1832.853        1.202        0.688       94.466       55.665        0.347      337.088        8.825      873.758
01/13/2021  21:30:00       63.947      -17.893      -24.837       70.678       37.501       36.366     4995.360     1406.359     1322.481        0.637        0.386       66.403       42.622        0.412      337.002        8.682      873.806
01/13/2021  21:31:00       68.867      -21.153      -37.458       66.530       47.559       35.065     4426.294     2261.844     1229.551        0.725        0.396       72.042       43.298        0.361      336.979        8.642      873.844
01/13/2021  21:32:00      121.280      -20.349      -31.930       65.102       42.198       32.487     4238.285     1780.670     1055.422        1.161        0.354      122.976       42.677        0.120      336.933        8.567      873.867
01/13/2021  21:33:00       94.670        3.042      -23.900       68.026       31.660       33.000     4627.520     1002.387     1089.023        0.813        0.336       94.719       44.815        0.224      336.907        8.523      873.850
01/13/2021  21:34:00       56.916       30.556      -23.359       69.739       21.525       33.612     4863.575      463.309     1129.792        0.559        0.323       64.600       46.568        0.520      336.911        8.530      873.826
01/13/2021  21:35:00      -48.184       24.655      -11.947       68.129       21.508       28.740     4641.509      462.604      825.972        0.450        0.297       54.125       32.066        0.351      336.863        8.451      873.789
01/13/2021  21:36:00      -44.217        2.856      -15.542       70.259       27.838       28.865     4936.392      774.980      833.167        0.437        0.327       44.309       29.113        0.432      336.706        8.188      873.732
01/13/2021  21:37:00      -38.438      -10.363      -12.878       70.255       27.375       29.346     4935.830      749.387      861.158        0.415        0.327       39.811       29.154        0.536      336.661        8.113      873.659
01/13/2021  21:38:00      -60.173        1.576       -6.701       69.083       23.661       29.119     4772.495      559.829      847.911        0.492        0.309       60.194       31.621        0.276      336.756        8.271      873.594
01/13/2021  21:39:00      -69.505       -0.160        2.684       76.245       28.244       31.175     5813.275      797.699      971.884        0.621        0.379       69.505       24.892        0.128      336.833        8.401      873.575
01/13/2021  21:40:00      -34.969       11.851       -3.465      115.204       50.705       43.660    13271.981     2570.967     1906.210        0.956        0.887       36.922       25.218        0.466      336.893        8.499      873.583
01/13/2021  21:41:00      -77.401       25.875       -3.824       78.278       49.026       42.110     6127.500     2403.521     1773.256        0.849        0.515       81.611       28.452        0.122      336.759        8.278      873.660
01/13/2021  21:42:00      -12.257       21.228      -18.552       60.444       31.371       27.363     3653.499      984.160      748.737        0.316        0.269       24.512       34.593        1.992      336.807        8.358      873.762
01/13/2021  21:43:00       37.265      -20.207      -18.419       61.260       49.669       36.250     3752.802     2466.985     1314.075        0.483        0.377       42.391       39.040        0.848      336.843        8.418      873.833
01/13/2021  21:44:00      129.645     -145.061      -52.077      100.446       57.925       42.164    10089.488     3355.344     1777.813        2.789        0.761      194.552       53.303        0.075      336.700        8.174      873.876
01/13/2021  21:45:00      192.704     -192.262      -69.691       75.974       52.815       35.689     5772.106     2789.456     1273.681        4.439        0.492      272.212       48.210        0.031      336.522        7.876      873.926
01/13/2021  21:46:00      165.081     -158.157      -56.405       73.162       58.246       36.702     5352.746     3392.601     1347.019        3.277        0.505      228.616       48.767        0.046      336.479        7.806      873.960
01/13/2021  21:47:00      140.374     -111.133      -46.736       76.765       49.927       38.239     5892.876     2492.708     1462.192        2.204        0.492      179.040       48.757        0.074      336.420        7.708      873.972
01/13/2021  21:48:00      132.921     -156.652      -45.424       90.042       37.320       42.697     8107.564     1392.804     1823.064        2.780        0.566      205.446       58.344        0.081      336.456        7.766      873.954
01/13/2021  21:49:00       78.373      -88.154      -39.900       72.701       33.426       31.509     5285.463     1117.290      992.824        1.145        0.370      117.955       39.007        0.109      336.468        7.788      873.921
01/13/2021  21:50:00       13.682      -14.364      -18.038       63.982       34.349       33.588     4093.677     1179.866     1128.177        0.356        0.320       19.837       40.243        4.115      336.469        7.792      873.882
01/13/2021  21:51:00      -82.175      -20.480       -6.962       70.543       37.184       32.910     4976.359     1382.623     1083.090        0.733        0.372       84.688       13.675        0.026      336.284        7.483      873.847
01/13/2021  21:52:00      -35.601       -9.990       -1.539       59.936       37.782       29.885     3592.362     1427.474      893.105        0.364        0.296       36.976       24.698        0.446      336.247        7.420      873.811
01/13/2021  21:53:00      -31.699      -27.540       -6.303       65.843       32.005       33.707     4335.310     1024.322     1136.191        0.415        0.325       41.992       29.172        0.483      336.305        7.516      873.793
01/13/2021  21:54:00      -71.264       20.170      -12.914       61.451       35.616       31.605     3776.259     1268.520      998.848        0.585        0.302       74.063       32.201        0.189      336.321        7.544      873.801
01/13/2021  21:55:00      -61.078       15.350        2.532       47.775       22.141       24.642     2282.458      490.240      607.251        0.368        0.169       62.977       25.434        0.163      336.316        7.536      873.843
01/13/2021  21:56:00       -6.664       -2.903       -9.102       51.033       16.949       22.265     2604.364      287.253      495.715        0.176        0.169        7.269       28.355       15.217      336.419        7.708      873.893
01/13/2021  21:57:00       50.500       23.776      -14.982       57.746       26.448       26.515     3334.560      699.511      703.028        0.404        0.237       55.817       34.160        0.375      336.257        7.436      873.952
01/13/2021  21:58:00       36.439      -15.424       -3.632       59.098       25.672       31.816     3492.584      659.064     1012.261        0.337        0.258       39.568       39.221        0.983      336.105        7.183      873.978
01/13/2021  21:59:00       33.225        1.524      -12.594       56.260       31.348       26.419     3165.185      982.712      697.938        0.305        0.242       33.260       34.583        1.081      336.113        7.197      873.977
01/13/2021  22:00:00       29.250      -43.171      -25.839       60.289       28.608       29.386     3634.764      818.422      863.541        0.435        0.266       52.147       39.065        0.561      336.170        7.292      873.950
01/13/2021  22:01:00      -16.139      -16.321      -20.184       54.456       17.868       27.208     2965.486      319.256      740.255        0.248        0.201       22.953       30.954        1.819      336.167        7.286      873.909
01/13/2021  22:02:00      -29.026      -26.214      -12.028       62.160       42.893       43.999     3863.863     1839.852     1935.905        0.466        0.382       39.111       17.300        0.196      336.102        7.179      873.857
01/13/2021  22:03:00      -44.394      -19.759        5.227       84.605       43.827       40.832     7157.960     1920.793     1667.244        0.657        0.537       48.593       21.755        0.200      336.114        7.199      873.810
01/13/2021  22:04:00      -75.055      -19.512       -2.959       89.686       69.746       50.115     8043.587     4864.506     2511.527        1.072        0.771       77.549       49.557        0.408      336.070        7.126      873.749
01/13/2021  22:05:00     -143.320       24.973        0.811       82.799       55.031       34.989     6855.682     3028.446     1224.197        1.613        0.555      145.480       23.792        0.027      335.990        6.989      873.706
01/13/2021  22:06:00     -166.901       31.889        4.577       72.498       43.331       29.667     5255.952     1877.549      880.115        1.845        0.401      169.920       17.393        0.010      335.917        6.870      873.675
01/13/2021  22:07:00     -138.602       16.403       -1.689       67.272       49.053       30.096     4525.546     2406.220      905.752        1.366        0.392      139.569       14.955        0.011      335.912        6.860      873.673
01/13/2021  22:08:00      -81.734       42.865       -9.487       45.710       31.548       24.961     2089.418      995.306      623.067        0.616        0.185       92.292       11.319        0.015      335.905        6.851      873.700
01/13/2021  22:09:00      -75.679       70.034      -15.267       58.678       31.033       28.427     3443.135      963.061      808.104        0.804        0.261      103.112       15.496        0.023      335.847        6.754      873.742
01/13/2021  22:10:00      -57.472       35.214      -14.879       53.239       29.125       20.990     2834.374      848.239      440.576        0.444        0.206       67.402       16.922        0.063      335.886        6.820      873.793
01/13/2021  22:11:00      -97.934       16.288      -27.163       54.700       26.863       22.999     2992.042      721.605      528.969        0.742        0.212       99.279       10.492        0.011      335.915        6.866      873.832
01/13/2021  22:12:00     -132.805       46.316      -13.099       52.440       42.055       30.463     2749.956     1768.607      928.006        1.270        0.272      140.650       16.222        0.013      335.831        6.729      873.859
01/13/2021  22:13:00      -41.436      -17.642        2.977       68.828       42.383       38.296     4737.256     1796.348     1466.549        0.502        0.400       45.035       22.878        0.258      335.819        6.707      873.885
01/13/2021  22:14:00      -63.953        7.158       -7.649       96.158       45.506       38.892     9246.377     2070.822     1512.580        0.851        0.641       64.352       16.954        0.069      335.856        6.768      873.898
01/13/2021  22:15:00      -31.883       -5.596       -0.084       86.020       46.094       39.746     7399.391     2124.619     1579.720        0.607        0.555       32.370       16.102        0.247      335.770        6.625      873.897
01/13/2021  22:16:00     -109.298        5.721       -7.699      107.541       50.248       39.242    11564.981     2524.882     1539.897        1.383        0.781      109.448        8.823        0.006      335.677        6.470      873.877
01/13/2021  22:17:00     -183.933       24.910       -2.003       63.823       42.276       36.157     4073.396     1787.224     1307.315        2.081        0.358      185.612       24.144        0.017      335.590        6.323      873.864
01/13/2021  22:18:00     -171.956       62.929        6.451       85.510       49.022       37.180     7312.022     2403.136     1382.386        2.233        0.555      183.109       31.519        0.030      335.571        6.291      873.870
01/13/2021  22:19:00     -161.843       10.073      -19.382       84.803       59.530       38.535     7191.577     3543.838     1484.974        1.944        0.611      162.157       20.324        0.016      335.677        6.469      873.898
01/13/2021  22:20:00     -193.613       45.760      -10.831      108.260       59.906       40.489    11720.187     3588.690     1639.328        2.832        0.847      198.947       44.842        0.051      335.541        6.242      873.909
01/13/2021  22:21:00     -213.646       40.308        1.014      101.797       64.736       43.425    10362.723     4190.789     1885.722        3.185        0.822      217.415       40.893        0.035      335.507        6.185      873.904
01/13/2021  22:22:00     -280.163       61.925      -10.438       80.513       63.163       39.303     6482.329     3989.590     1544.694        4.722        0.601      286.925       26.267        0.008      335.442        6.074      873.894
01/13/2021  22:23:00     -152.513       24.629        8.655      149.825       73.030       52.900    22447.483     5333.314     2798.437        2.725        1.529      154.489       49.520        0.103      335.484        6.147      873.859
01/13/2021  22:24:00     -264.754       63.538      -27.426      109.485       63.736       50.636    11986.885     4062.338     2563.988        4.674        0.931      272.272       21.991        0.007      335.464        6.112      873.840
01/13/2021  22:25:00     -234.136       15.668      -14.944       96.079       74.795       40.543     9231.188     5594.257     1643.702        3.588        0.823      234.659       34.657        0.022      335.404        6.012      873.828
01/13/2021  22:26:00     -252.127       42.227      -17.935      109.075       70.100       47.014    11897.390     4913.979     2210.302        4.234        0.951      255.639       33.707        0.017      335.393        5.994      873.834
01/13/2021  22:27:00     -249.424       84.024       -2.903       94.488       60.127       46.827     8928.003     3615.249     2192.740        4.201        0.737      263.196       43.905        0.028      335.318        5.868      873.863
01/13/2021  22:28:00     -217.673       57.391      -12.873      119.618       73.525       40.590    14308.545     5405.893     1647.581        3.610        1.068      225.111       24.610        0.012      335.300        5.838      873.901
01/13/2021  22:29:00     -206.628       48.832       -8.952      107.518       67.079       49.133    11560.210     4499.606     2414.071        3.181        0.924      212.320       45.147        0.045      335.239        5.736      873.967
01/13/2021  22:30:00      -86.103       23.447      -33.335       82.197       57.503       37.133     6756.397     3306.543     1378.838        1.026        0.572       89.238       18.700        0.044      335.356        5.936      874.040
01/13/2021  22:31:00       -6.765       22.890      -12.146       62.046       39.362       39.003     3849.666     1549.399     1521.273        0.382        0.346       23.869       35.479        2.209      335.358        5.939      874.097
01/13/2021  22:32:00      -89.003       66.785      -22.421       56.712       24.445       26.482     3216.201      597.537      701.281        0.870        0.226      111.274       22.886        0.042      335.509        6.189      874.132
01/13/2021  22:33:00      -42.592       16.720      -15.206       43.639       25.836       24.221     1904.390      667.493      586.664        0.274        0.158       45.756       19.245        0.177      335.623        6.381      874.135
01/13/2021  22:34:00      -37.836       40.822      -11.661       54.067       55.214       28.851     2923.207     3048.619      832.383        0.502        0.340       55.659       21.870        0.154      335.984        6.982      874.124
01/13/2021  22:35:00      -49.171        5.022       -9.941       63.178       32.204       29.846     3991.431     1037.127      890.758        0.423        0.296       49.427        8.721        0.031      335.728        6.555      874.113
01/13/2021  22:36:00     -111.845       31.458      -33.680       45.551       36.367       27.676     2074.862     1322.529      765.985        0.940        0.208      116.185       20.090        0.030      335.745        6.584      874.114
01/13/2021  22:37:00     -149.550       35.300      -12.320       51.839       33.929       28.770     2687.302     1151.203      827.734        1.421        0.233      153.660       13.818        0.008      335.656        6.435      874.116
01/13/2021  22:38:00     -171.868       54.712       -4.131       52.809       34.098       32.655     2788.747     1162.689     1066.356        1.878        0.251      180.367       21.534        0.014      335.573        6.296      874.095
01/13/2021  22:39:00      -66.728        9.235      -11.766       91.396       42.283       29.189     8353.143     1787.811      851.999        0.783        0.550       67.364       28.848        0.183      335.582        6.312      874.053
01/13/2021  22:40:00      -89.974       -4.158       -5.031       83.331       50.293       35.941     6944.110     2529.367     1291.754        0.945        0.538       90.070       14.726        0.027      335.629        6.390      874.019
01/13/2021  22:41:00      -43.663       -3.351        0.407       69.226       39.030       35.830     4792.247     1523.357     1283.764        0.476        0.380       43.791       15.657        0.128      335.676        6.468      874.008
01/13/2021  22:42:00     -161.478       42.878      -13.944       54.914       49.512       31.113     3015.589     2451.465      968.013        1.727        0.322      167.074       23.407        0.020      335.641        6.409      874.016
01/13/2021  22:43:00     -193.365       57.053       -1.692       70.220       36.373       33.589     4930.909     1323.015     1128.253        2.401        0.369      201.606       28.838        0.020      335.526        6.215      874.044
01/13/2021  22:44:00     -205.658       33.555      -18.235       53.607       45.966       32.480     2873.762     2112.884     1054.933        2.490        0.302      208.377       16.465        0.006      335.523        6.212      874.062
01/13/2021  22:45:00     -120.233        1.844       -5.541       99.688       56.634       42.203     9937.786     3207.456     1781.079        1.470        0.746      120.247       30.485        0.064      335.561        6.275      874.082
01/13/2021  22:46:00     -155.911       25.433      -16.021       58.092       41.247       36.200     3374.716     1701.286     1310.438        1.580        0.319      157.972       23.013        0.021      335.540        6.240      874.101
01/13/2021  22:47:00     -104.799       15.159      -21.809       69.430       37.115       32.261     4820.585     1377.518     1040.794        0.946        0.362      105.889       15.720        0.022      335.569        6.291      874.142
01/13/2021  22:48:00      -75.432       18.190      -25.283       72.452       55.502       36.264     5249.265     3080.524     1315.052        0.815        0.482       77.594       14.313        0.034      335.786        6.652      874.179
01/13/2021  22:49:00     -103.388       38.310      -15.227       46.136       34.804       25.584     2128.571     1211.290      654.551        0.819        0.200      110.257       14.213        0.017      335.985        6.982      874.213
01/13/2021  22:50:00      -73.914       32.307      -13.801       46.945       42.506       24.540     2203.818     1806.721      602.219        0.565        0.231       80.666       19.320        0.057      336.150        7.259      874.239
01/13/2021  22:51:00       -7.247        0.755      -14.332       37.056       23.657       19.695     1373.141      559.649      387.884        0.129        0.116        7.286       16.249        4.973      336.147        7.253      874.250
01/13/2021  22:52:00       46.350       12.458      -11.674       46.388       32.813       29.550     2151.878     1076.718      873.215        0.327        0.205       47.995       31.350        0.427      336.074        7.132      874.261
01/13/2021  22:53:00       86.456      -31.011      -28.091       61.934       32.026       33.725     3835.801     1025.667     1137.409        0.761        0.300       91.849       42.899        0.218      335.577        6.301      874.275
01/13/2021  22:54:00      112.461      -84.697      -46.035       67.747       73.013       31.387     4589.606     5330.833      985.170        1.642        0.545      140.787       40.273        0.082      335.577        6.301      874.293
01/13/2021  22:55:00       39.606      -83.022      -31.118      100.104       48.755       38.299    10020.797     2377.083     1466.798        1.164        0.693       91.985       55.776        0.368      335.618        6.373      874.300
01/13/2021  22:56:00       13.492      -62.847      -31.250       60.024       25.344       27.790     3602.857      642.337      772.267        0.506        0.251       64.279       30.922        0.231      335.664        6.448      874.315
01/13/2021  22:57:00        9.578      -48.138      -24.763       56.727       34.008       26.052     3217.939     1156.548      678.712        0.404        0.253       49.081       30.866        0.395      335.575        6.300      874.329
01/13/2021  22:58:00      -57.566      -53.442      -21.239       60.500       40.671       28.766     3660.309     1654.108      827.498        0.638        0.307       78.549       24.976        0.101      335.649        6.423      874.347
01/13/2021  22:59:00      -46.756      -73.591      -16.855       58.998       42.602       34.260     3480.750     1814.899     1173.752        0.718        0.323       87.188       34.620        0.158      335.635        6.400      874.378
01/13/2021  23:00:00      -11.190        7.057       -6.863       51.940       34.102       26.294     2697.773     1162.922      691.382        0.239        0.228       13.229       24.266        3.364      335.590        6.325      874.423
01/13/2021  23:01:00       -2.802      -16.340      -17.994       55.660       24.607       27.899     3098.061      605.487      778.363        0.254        0.224       16.578       34.781        4.402      335.600        6.342      874.456
01/13/2021  23:02:00       -4.325      -52.303      -23.811       60.792       36.202       30.238     3695.636     1310.581      914.337        0.462        0.296       52.481       36.150        0.474      335.590        6.324      874.479
01/13/2021  23:03:00      -16.332      -29.756      -14.663       65.518       36.307       31.639     4292.593     1318.170     1001.004        0.399        0.331       33.943       27.970        0.679      335.493        6.163      874.473
01/13/2021  23:04:00      -44.592      -34.769       -9.675       68.771       42.218       35.260     4729.426     1782.353     1243.237        0.552        0.388       56.545       24.373        0.186      335.422        6.045      874.457
01/13/2021  23:05:00      -15.505       -8.205      -11.760       73.214       29.700       33.509     5360.326      882.097     1122.885        0.390        0.368       17.542       25.531        2.118      335.391        5.992      874.415
01/13/2021  23:06:00       16.624      -11.579      -22.585       48.733       28.648       26.822     2374.858      820.694      719.443        0.242        0.196       20.259       26.837        1.755      335.379        5.973      874.372
01/13/2021  23:07:00      -13.159       19.848      -14.381       55.631       20.309       26.595     3094.792      412.455      707.303        0.249        0.211       23.814       29.502        1.535      335.282        5.813      874.336
01/13/2021  23:08:00       -7.343       27.070      -13.758       66.643       42.129       29.102     4441.327     1774.878      846.914        0.402        0.353       28.048       29.408        1.099      335.267        5.787      874.315
01/13/2021  23:09:00     -132.744      -18.109      -17.125       54.476       38.032       31.259     2967.637     1446.408      977.100        1.182        0.270      133.973       21.414        0.026      335.234        5.731      874.304
01/13/2021  23:10:00     -104.796        1.623      -14.546       76.408       34.803       26.788     5838.246     1211.272      717.620        0.948        0.388      104.809       21.674        0.043      335.171        5.629      874.303
01/13/2021  23:11:00     -153.671       26.631       -6.823       58.405       38.511       31.734     3411.199     1483.125     1007.059        1.513        0.295      155.961       16.414        0.011      335.165        5.619      874.307
01/13/2021  23:12:00      -72.702       12.330       -6.447       58.488       30.854       28.504     3420.867      951.984      812.476        0.533        0.259       73.740       13.310        0.033      335.147        5.589      874.308
01/13/2021  23:13:00      -54.985       -0.299       -9.991       64.821       39.008       27.748     4201.778     1521.622      769.953        0.481        0.325       54.986       20.695        0.142      335.133        5.567      874.306
01/13/2021  23:14:00      -65.658        1.746        4.062       59.761       35.209       29.255     3571.415     1239.674      855.871        0.500        0.283       65.682       15.272        0.054      335.052        5.432      874.306
01/13/2021  23:15:00      -76.467       -3.570       -4.623       69.222       41.436       35.599     4791.743     1716.923     1267.262        0.683        0.389       76.551       25.733        0.113      335.041        5.411      874.319
01/13/2021  23:16:00     -102.054       14.624      -19.460       59.290       29.068       30.803     3515.304      844.967      948.813        0.816        0.265      103.097       26.732        0.067      334.956        5.271      874.323
01/13/2021  23:17:00      -89.572       13.023      -17.038       55.090       22.654       28.130     3034.866      513.190      791.269        0.641        0.217       90.513       22.302        0.061      334.943        5.250      874.319
01/13/2021  23:18:00      -33.360       -9.835      -13.012       72.707       27.315       31.573     5286.237      746.089      996.877        0.420        0.351       34.780       27.914        0.644      335.027        5.389      874.325
01/13/2021  23:19:00      -30.027       -4.279       -4.017       59.110       33.531       27.011     3494.021     1124.298      729.583        0.314        0.267       30.331       24.912        0.675      334.949        5.260      874.342
01/13/2021  23:20:00      -67.363        4.390        1.088       63.003       31.125       27.517     3969.407      968.784      757.174        0.513        0.285       67.506       16.058        0.057      334.875        5.137      874.363
01/13/2021  23:21:00      -71.220        3.492      -12.960       83.071       25.566       29.257     6900.752      653.610      855.981        0.683        0.421       71.306        8.509        0.014      334.868        5.125      874.382
01/13/2021  23:22:00      -30.559       -5.159       -7.281       72.094       42.311       27.363     5197.606     1790.211      748.715        0.437        0.387       30.992       15.776        0.259      334.880        5.146      874.384
01/13/2021  23:23:00      -17.714      -12.210      -13.803       56.453       32.447       31.847     3186.985     1052.806     1014.209        0.295        0.263       21.515       28.165        1.714      334.883        5.151      874.372
01/13/2021  23:24:00        7.470       -4.491       -5.627       61.188       39.305       33.296     3743.995     1544.861     1108.629        0.325        0.320        8.716       23.416        7.218      334.848        5.091      874.335
01/13/2021  23:25:00       -0.011       -2.705      -14.516       72.985       32.818       32.881     5326.762     1077.024     1081.158        0.385        0.374        2.705       22.384       68.457      334.830        5.061      874.307
01/13/2021  23:26:00      -79.525        9.550      -19.393       66.530       38.558       24.919     4426.277     1486.723      620.935        0.666        0.327       80.097       28.830        0.130      334.714        4.868      874.300
01/13/2021  23:27:00      -73.457        4.616      -14.728       64.632       24.057       28.876     4177.287      578.731      833.839        0.561        0.279       73.602       31.859        0.187      334.771        4.964      874.295
01/13/2021  23:28:00      -85.278       21.253       -1.762       50.474       27.051       26.286     2547.600      731.736      690.959        0.585        0.199       87.887       11.681        0.018      334.697        4.839      874.283
01/13/2021  23:29:00      -67.583      -11.414       -9.299       61.878       30.919       27.452     3828.924      955.957      753.629        0.516        0.277       68.540       14.244        0.043      334.707        4.857      874.260
01/13/2021  23:30:00      -81.359       13.513      -11.500       81.087       24.639       25.511     6575.150      607.074      650.811        0.738        0.392       82.473       17.321        0.044      334.664        4.785      874.246
01/13/2021  23:31:00      -66.264       35.194      -20.020       62.593       27.557       25.621     3917.925      759.377      656.435        0.568        0.267       75.030       24.664        0.108      334.622        4.715      874.228
01/13/2021  23:32:00     -144.613       43.423      -12.983       49.822       32.220       24.952     2482.185     1038.154      622.602        1.355        0.207      150.991       14.079        0.009      334.562        4.617      874.224
01/13/2021  23:33:00     -135.182       41.053      -14.899       56.514       29.623       30.131     3193.871      877.548      907.856        1.258        0.249      141.279       15.299        0.012      334.703        4.851      874.224
01/13/2021  23:34:00      -63.208       -3.233      -25.284       64.117       34.320       30.483     4110.939     1177.881      929.201        0.543        0.311       63.291       22.583        0.127      334.692        4.831      874.243
01/13/2021  23:35:00      -92.696        8.405      -16.858       62.359       29.563       24.822     3888.590      873.944      616.139        0.716        0.269       93.077       17.178        0.034      334.580        4.646      874.247
01/13/2021  23:36:00      -81.339        0.850      -12.868       91.280       26.001       41.100     8332.056      676.034     1689.215        0.874        0.535       81.343       41.752        0.263      334.581        4.648      874.236
01/13/2021  23:37:00      -84.493       15.521       -4.455       65.398       43.096       34.058     4276.938     1857.268     1159.948        0.735        0.365       85.906       22.930        0.071      334.515        4.539      874.223
01/13/2021  23:38:00      -83.183       19.502       -3.506       70.539       35.521       33.093     4975.766     1261.748     1095.151        0.732        0.367       85.439       16.172        0.036      334.506        4.524      874.224
01/13/2021  23:39:00     -111.328       20.984       -7.559       54.662       29.488       31.822     2987.905      869.551     1012.617        0.888        0.244      113.289       23.693        0.044      334.534        4.570      874.226
01/13/2021  23:40:00      -91.588        9.305       -9.319       51.426       20.034       25.628     2644.660      401.349      656.811        0.613        0.185       92.059       21.264        0.053      334.581        4.648      874.232
01/13/2021  23:41:00      -57.190       28.947      -10.744       55.577       32.392       27.186     3088.787     1049.249      739.091        0.455        0.244       64.098       27.686        0.187      334.592        4.667      874.241
01/13/2021  23:42:00      -60.145       25.797      -10.219       45.314       25.786       29.307     2053.371      664.912      858.895        0.398        0.179       65.444       19.583        0.090      334.528        4.560      874.238
01/13/2021  23:43:00      -27.346       13.907      -10.613       54.574       13.869       25.992     2978.320      192.342      675.599        0.245        0.192       30.680       33.524        1.194      334.550        4.596      874.219
01/13/2021  23:44:00      -14.792        0.312      -14.789       51.356        6.285       25.165     2637.480       39.505      633.273        0.187        0.166       14.796       34.327        5.383      334.758        4.942      874.181
01/13/2021  23:45:00      -17.543        8.036       -9.984       53.075        8.877       23.671     2816.908       78.801      560.339        0.196        0.173       19.296       32.573        2.849      334.920        5.211      874.161
01/13/2021  23:46:00      -17.026      -22.033      -14.423       52.424       29.474       24.324     2748.280      868.697      591.639        0.260        0.210       27.845       30.473        1.198      335.033        5.399      874.157
01/13/2021  23:47:00       -3.729      -39.445      -22.482       51.453       16.149       23.834     2647.420      260.780      568.053        0.278        0.174       39.620       31.471        0.631      334.930        5.228      874.175
01/13/2021  23:48:00        4.476      -42.860      -25.636       66.543       19.896       29.595     4427.933      395.865      875.841        0.411        0.285       43.093       39.791        0.853      334.940        5.245      874.201
01/13/2021  23:49:00        8.450       -0.911       -9.196       50.946       15.515       25.886     2595.448      240.707      670.107        0.183        0.175        8.499       32.967       15.047      334.744        4.917      874.238
01/13/2021  23:50:00       23.910      -23.316      -16.916       60.383       22.742       30.740     3646.050      517.181      944.970        0.325        0.255       33.396       33.552        1.009      334.799        5.012      874.270
01/13/2021  23:51:00        0.777      -20.970       -5.519       75.887       35.464       33.020     5758.886     1257.663     1090.297        0.429        0.405       20.984       33.119        2.491      334.807        5.024      874.286
01/13/2021  23:52:00      -22.998       -7.916       -7.833       86.111       27.767       34.214     7415.036      771.010     1170.603        0.500        0.468       24.322       35.104        2.083      334.786        4.990      874.286
01/13/2021  23:53:00      -83.938      -33.958       -3.518       70.609       30.568       29.506     4985.614      934.409      870.623        0.750        0.340       90.547        8.629        0.009      334.814        5.034      874.268
01/13/2021  23:54:00      -68.571      -20.188        0.789       73.774       47.901       31.879     5442.651     2294.494     1016.289        0.693        0.438       71.481       14.993        0.044      334.850        5.095      874.255
01/13/2021  23:55:00      -62.893       -8.475        2.627       66.220       43.416       28.139     4385.043     1884.970      791.786        0.555        0.353       63.462       11.789        0.035      334.801        5.015      874.244
01/13/2021  23:56:00      -52.738      -12.512        3.878       59.662       37.715       29.663     3559.603     1422.411      879.895        0.441        0.293       54.202       19.702        0.132      334.843        5.083      874.244
01/13/2021  23:57:00      -51.022        7.719        0.453       75.505       29.604       29.160     5701.009      876.426      850.295        0.504        0.371       51.603       18.506        0.129      334.743        4.917      874.248
01/13/2021  23:58:00      -75.063        5.706        0.611       54.452       27.734       25.217     2964.978      769.148      635.916        0.502        0.219       75.280        5.153        0.005      334.672        4.798      874.249
01/13/2021  23:59:00      -88.238        3.537       -8.038       61.203       29.394       24.677     3745.851      864.003      608.934        0.654        0.261       88.309       11.328        0.016      334.644        4.752      874.251
01/14/2021  00:00:00     -119.858        2.648       -1.198       55.114       26.056       27.266     3037.550      678.900      743.442        0.942        0.223      119.887       10.464        0.008      334.552        4.599      874.244
01/14/2021  00:01:00     -106.313       13.044       -2.157       53.957       35.557       27.870     2911.317     1264.271      776.752        0.821        0.248      107.111       14.294        0.018      334.566        4.621      874.217
01/14/2021  00:02:00      -75.787        2.270       -1.892       62.494       40.107       25.553     3905.449     1608.545      652.966        0.596        0.308       75.821       17.310        0.052      334.552        4.601      874.198
01/14/2021  00:03:00      -49.585        6.503       -5.701       51.164       28.913       24.609     2617.757      835.976      605.608        0.330        0.203       50.010       24.060        0.231      334.496        4.510      874.182
01/14/2021  00:04:00      -17.002        4.371       -6.430       48.644       25.730       25.130     2366.207      662.052      631.535        0.200        0.183       17.555       30.015        2.923      334.545        4.588      874.183
01/14/2021  00:05:00      -45.538       20.018      -11.394       47.348       15.329       20.886     2241.844      234.979      436.208        0.276        0.146       49.743       28.223        0.322      334.495        4.506      874.192
01/14/2021  00:06:00      -69.957       13.654       -2.512       40.894       20.843       23.988     1672.325      434.444      575.442        0.388        0.134       71.277       24.210        0.115      334.461        4.450      874.218
01/14/2021  00:07:00      -66.678       15.367       -6.978       47.083       19.119       24.587     2216.792      365.549      604.505        0.396        0.159       68.426       26.270        0.147      334.455        4.439      874.241
01/14/2021  00:08:00      -68.371       23.017      -11.390       36.823       25.104       19.576     1355.958      630.203      383.224        0.385        0.118       72.141       18.375        0.065      334.422        4.384      874.258
01/14/2021  00:09:00      -63.334       58.498      -16.126       43.869       15.506       20.837     1924.476      240.434      434.173        0.515        0.130       86.216       28.468        0.109      334.379        4.314      874.276
01/14/2021  00:10:00      -42.067       19.043      -19.634       47.832       17.184       24.034     2287.926      295.275      577.653        0.284        0.158       46.176       29.740        0.415      334.445        4.424      874.295
01/14/2021  00:11:00      -40.965       12.154      -24.243       54.302       24.450       27.752     2948.694      597.821      770.162        0.336        0.216       42.730       30.574        0.512      334.399        4.347      874.298
01/14/2021  00:12:00       10.413       -2.183      -13.339       56.936       16.729       24.119     3241.681      279.859      581.726        0.220        0.205       10.640       31.171        8.583      334.335        4.241      874.271
01/14/2021  00:13:00       -9.232        2.227       -9.907       61.989       20.129       29.783     3842.582      405.177      887.047        0.266        0.257        9.497       32.433       11.663      334.368        4.294      874.254
01/14/2021  00:14:00      -26.246        7.375      -15.687       62.489       26.410       28.831     3904.905      697.489      831.237        0.321        0.272       27.262       32.109        1.387      334.303        4.189      874.235
01/14/2021  00:15:00     -112.482       26.050      -12.987       46.381       24.073       24.545     2151.237      579.525      602.453        0.842        0.167      115.459       24.023        0.043      334.025        3.725      874.233
01/14/2021  00:16:00      -50.234        9.928       -9.435       69.314       28.465       34.005     4804.400      810.235     1156.342        0.474        0.339       51.206       20.108        0.154      334.098        3.847      874.239
01/14/2021  00:17:00      -94.112       12.334      -10.677       59.752       26.062       26.816     3570.335      679.245      719.107        0.704        0.248       94.917       23.851        0.063      334.061        3.785      874.232
01/14/2021  00:18:00     -108.824       35.814       -7.155       47.497       36.184       26.072     2255.920     1309.302      679.758        0.871        0.212      114.566       12.772        0.012      333.963        3.623      874.219
01/14/2021  00:19:00      -91.497       23.143       -6.177       59.271       28.930       32.647     3513.059      836.973     1065.821        0.718        0.271       94.378       25.558        0.073      333.975        3.644      874.201
01/14/2021  00:20:00      -81.304       -9.673       -7.567       80.553       36.705       36.770     6488.714     1347.274     1352.062        0.797        0.459       81.877       18.138        0.049      334.015        3.710      874.189
01/14/2021  00:21:00      -95.902       -3.699      -11.068       83.527       37.109       32.359     6976.688     1377.057     1047.078        0.937        0.470       95.973       15.265        0.025      333.927        3.563      874.178
01/14/2021  00:22:00     -120.485       39.945       -8.158       50.805       30.754       25.913     2581.196      945.806      671.484        1.019        0.210      126.934       13.397        0.011      333.904        3.524      874.160
01/14/2021  00:23:00      -82.552       29.318      -15.926       62.239       29.884       32.625     3873.754      893.067     1064.376        0.688        0.292       87.603       23.758        0.074      333.929        3.567      874.151
01/14/2021  00:24:00     -120.386       36.744        0.706       62.817       43.295       36.632     3945.928     1874.452     1341.926        1.150        0.358      125.869       15.593        0.015      333.842        3.422      874.133
01/14/2021  00:25:00     -149.122       44.332       -1.306       74.558       36.438       32.805     5558.833     1327.753     1076.147        1.608        0.398      155.572       17.517        0.013      333.789        3.333      874.123
01/14/2021  00:26:00     -111.319       33.663       -7.025       72.482       42.364       37.154     5253.627     1794.675     1380.412        1.100        0.421      116.297       13.670        0.014      333.841        3.420      874.115
01/14/2021  00:27:00      -86.927       -3.617       -2.933       62.145       40.897       29.776     3861.982     1672.572      886.619        0.700        0.321       87.002       22.245        0.065      333.906        3.527      874.117
01/14/2021  00:28:00     -110.550       12.318      -21.123       70.068       30.755       29.870     4909.484      945.865      892.198        0.978        0.337      111.234       25.979        0.055      333.865        3.459      874.140
01/14/2021  00:29:00      -81.151       15.919      -12.726       61.746       37.527       29.912     3812.592     1408.261      894.732        0.656        0.306       82.698       24.267        0.086      333.885        3.494      874.153
01/14/2021  00:30:00     -144.320       25.943       -3.918       48.194       25.627       23.979     2322.707      656.748      574.987        1.253        0.178      146.633       15.747        0.012      333.925        3.559      874.152
01/14/2021  00:31:00      -78.331       12.855        0.453       65.834       31.779       29.299     4334.134     1009.885      858.460        0.625        0.310       79.378       15.258        0.037      333.987        3.664      874.126
01/14/2021  00:32:00     -102.989        0.086       -4.115       63.580       38.010       29.923     4042.437     1444.759      895.412        0.850        0.319      102.989       20.246        0.039      334.102        3.853      874.105
01/14/2021  00:33:00      -55.048      -22.509       -4.166       80.713       35.327       35.774     6514.516     1247.977     1279.758        0.630        0.452       59.472       24.425        0.169      334.049        3.766      874.098
01/14/2021  00:34:00      -95.859       13.066       -3.968       82.359       43.878       34.582     6782.989     1925.318     1195.888        0.964        0.495       96.745       24.934        0.066      334.056        3.778      874.114
01/14/2021  00:35:00      -67.289       -7.256      -10.828       92.294       42.563       33.661     8518.096     1811.598     1133.072        0.808        0.573       67.679       25.049        0.137      334.049        3.764      874.136
01/14/2021  00:36:00     -107.813        1.474       -3.782       59.877       39.156       32.564     3585.290     1533.216     1060.386        0.891        0.309      107.823       17.624        0.027      333.980        3.651      874.162
01/14/2021  00:37:00      -50.641       -9.426       -1.373       77.489       33.983       27.280     6004.609     1154.830      744.173        0.528        0.395       51.511       22.160        0.185      333.968        3.629      874.181
01/14/2021  00:38:00      -89.288        6.945      -14.018       67.613       33.403       31.760     4571.499     1115.780     1008.675        0.746        0.335       89.558        6.724        0.006      333.981        3.653      874.190
01/14/2021  00:39:00     -100.923       10.756      -17.913       65.592       24.173       25.134     4302.275      584.339      631.729        0.807        0.276      101.495       19.248        0.036      334.037        3.745      874.190
01/14/2021  00:40:00     -144.258       24.621       -5.404       51.235       32.984       27.400     2625.028     1087.927      750.739        1.295        0.223      146.344       17.121        0.014      333.937        3.581      874.199
01/14/2021  00:41:00     -163.304       15.963       -6.756       72.834       30.133       27.323     5304.855      907.974      746.540        1.696        0.348      164.082        9.276        0.003      333.962        3.621      874.203
01/14/2021  00:42:00     -201.010       11.464       -7.370       53.786       40.441       35.074     2892.970     1635.495     1230.169        2.317        0.288      201.336       26.435        0.017      333.921        3.551      874.206
01/14/2021  00:43:00     -194.158       -1.656       -7.430       53.371       45.858       29.993     2848.511     2102.983      899.571        2.180        0.293      194.165       15.142        0.006      333.990        3.667      874.208
01/14/2021  00:44:00     -144.239       -7.215       -8.925       70.803       24.591       27.207     5013.074      604.735      740.213        1.365        0.318      144.419       29.577        0.042      334.029        3.732      874.199
01/14/2021  00:45:00     -111.268      -30.708       -7.662       77.484       39.638       35.240     6003.769     1571.147     1241.868        1.110        0.441      115.428       18.815        0.027      334.076        3.810      874.183
01/14/2021  00:46:00     -183.598      -19.178      -13.255       45.795       41.566       26.362     2097.196     1727.768      694.968        1.938        0.226      184.597       18.311        0.010      334.090        3.832      874.151
01/14/2021  00:47:00     -132.224      -15.734       -5.627       99.297       38.657       32.485     9859.819     1494.373     1055.275        1.508        0.620      133.156       31.946        0.058      334.037        3.745      874.123
01/14/2021  00:48:00     -116.972       16.687       -0.209       73.402       54.507       33.990     5387.802     2971.058     1155.329        1.174        0.476      118.156       18.847        0.025      333.990        3.667      874.108
01/14/2021  00:49:00      -74.672       17.672        8.389       76.825       40.587       37.577     5902.047     1647.318     1412.010        0.746        0.448       76.735       16.820        0.048      333.982        3.654      874.095
01/14/2021  00:50:00     -107.556        5.632        0.341       76.187       47.930       35.245     5804.501     2297.250     1242.210        1.047        0.467      107.703       12.989        0.015      333.964        3.624      874.084
01/14/2021  00:51:00     -130.787      -37.012      -16.318       66.511       41.816       38.507     4423.736     1748.597     1482.786        1.320        0.383      135.924       16.390        0.015      334.007        3.695      874.084
01/14/2021  00:52:00      -73.406        4.662       -3.155       58.899       52.852       31.155     3469.085     2793.368      970.654        0.633        0.362       73.554       11.545        0.025      333.945        3.593      874.078
01/14/2021  00:53:00      -96.703       -8.811      -18.322       71.988       32.108       35.780     5182.262     1030.952     1280.230        0.863        0.375       97.104       18.357        0.036      333.980        3.651      874.063
01/14/2021  00:54:00      -85.404       40.050      -10.151       55.851       57.492       33.348     3119.332     3305.323     1112.116        0.827        0.377       94.329        8.709        0.009      333.903        3.522      874.048
01/14/2021  00:55:00      -44.132        1.525       -9.165       59.406       25.651       30.186     3529.087      657.960      911.179        0.357        0.255       44.158       28.459        0.415      333.915        3.543      874.043
01/14/2021  00:56:00      -39.936       29.062        1.887       68.209       37.262       28.183     4652.485     1388.433      794.305        0.464        0.342       49.391       18.599        0.142      333.776        3.313      874.043
01/14/2021  00:57:00      -47.919      -45.315      -17.815       63.762       30.983       30.515     4065.627      959.949      931.170        0.531        0.298       65.952       32.474        0.242      334.022        3.723      874.034
01/14/2021  00:58:00      -14.003      -20.251       -7.976       60.329       36.513       32.379     3639.588     1333.232     1048.411        0.334        0.301       24.621       27.795        1.274      334.082        3.822      874.015
01/14/2021  00:59:00      -91.248      -76.600      -21.547       56.094       26.568       25.888     3146.530      705.859      670.168        0.959        0.226      119.138       22.507        0.036      334.197        4.009      873.989
01/14/2021  01:00:00     -110.867      -45.347      -17.800       48.126       39.298       25.458     2316.128     1544.327      648.097        0.959        0.225      119.782       21.789        0.033      334.167        3.959      873.965
01/14/2021  01:01:00     -108.638      -21.214      -10.215       59.934       30.744       26.945     3592.101      945.184      726.014        0.881        0.263      110.690       15.325        0.019      334.210        4.031      873.952
01/14/2021  01:02:00     -119.665      -40.385      -11.173       53.046       35.305       31.546     2813.929     1246.456      995.122        1.056        0.253      126.296       20.400        0.026      334.091        3.834      873.948
01/14/2021  01:03:00     -166.714      -53.380      -18.829       51.801       43.061       29.321     2683.354     1854.214      859.711        1.820        0.270      175.052       22.729        0.017      334.015        3.710      873.940
01/14/2021  01:04:00     -119.825      -30.875       -9.336       77.504       45.194       31.402     6006.910     2042.457      986.110        1.222        0.452      123.738       17.430        0.020      333.987        3.662      873.936
01/14/2021  01:05:00      -98.970      -43.068      -20.398       52.051       26.449       35.230     2709.347      699.576     1241.177        0.836        0.233      107.935       19.365        0.032      333.958        3.615      873.938
01/14/2021  01:06:00      -63.202      -36.053      -22.690       57.849       18.408       25.087     3346.515      338.845      629.367        0.506        0.216       72.762       23.164        0.101      333.959        3.616      873.952
01/14/2021  01:07:00      -24.060      -29.336      -15.451       53.208       31.774       26.160     2831.081     1009.612      684.345        0.310        0.226       37.940       31.658        0.696      334.017        3.712      873.980
01/14/2021  01:08:00      -54.243      -46.223      -21.157       62.368       25.479       28.141     3889.724      649.180      791.893        0.543        0.267       71.266       29.813        0.175      333.948        3.598      874.001
01/14/2021  01:09:00     -107.122      -58.706      -19.376       64.279       45.916       33.310     4131.827     2108.314     1109.544        1.132        0.367      122.153       21.775        0.032      333.855        3.443      874.021
01/14/2021  01:10:00     -116.110      -13.867      -14.765       74.980       41.407       32.475     5622.013     1714.556     1054.653        1.114        0.420      116.936       19.278        0.027      333.761        3.288      874.029
01/14/2021  01:11:00     -109.716        2.078       -5.336       69.212       33.667       30.947     4790.333     1133.493      957.737        0.947        0.344      109.735       21.907        0.040      333.755        3.278      874.031
01/14/2021  01:12:00      -70.027      -12.981       -8.863       73.590       27.410       28.723     5415.550      751.305      825.037        0.607        0.350       71.220       20.190        0.080      333.773        3.308      874.037
01/14/2021  01:13:00      -25.365       -0.878      -10.133       47.529       17.104       27.516     2259.034      292.547      757.154        0.203        0.165       25.380       32.394        1.629      333.770        3.303      874.037
01/14/2021  01:14:00       45.492       25.186      -16.954       53.942       13.108       26.842     2909.758      171.811      720.473        0.340        0.190       51.998       35.719        0.472      333.853        3.440      874.050
01/14/2021  01:15:00       22.370       21.261      -10.402       60.056       15.265       32.414     3606.777      233.034     1050.644        0.297        0.245       30.862       40.580        1.729      333.837        3.414      874.075
01/14/2021  01:16:00       20.355        2.864      -19.687       56.811       12.242       26.151     3227.469      149.865      683.877        0.243        0.203       20.555       34.410        2.802      333.862        3.455      874.092
01/14/2021  01:17:00       85.975       37.285      -14.754       52.257       20.272       27.817     2730.821      410.935      773.778        0.646        0.196       93.712       35.234        0.141      333.757        3.281      874.106
01/14/2021  01:18:00       75.606       31.106      -21.000       63.849       16.912       27.327     4076.686      286.004      746.786        0.612        0.255       81.755       39.411        0.232      333.621        3.056      874.137
01/14/2021  01:19:00       25.967       40.790       -5.568       42.686       18.193       23.023     1822.122      331.003      530.038        0.253        0.134       48.354       29.383        0.369      333.786        3.330      874.160
01/14/2021  01:20:00       23.840       45.622      -12.365       43.005       15.037       21.977     1849.431      226.110      482.981        0.268        0.128       51.475       29.356        0.325      333.895        3.510      874.183
01/14/2021  01:21:00       27.763        8.038       -7.860       52.888        9.492       25.342     2797.156       90.098      642.240        0.221        0.176       28.904       35.709        1.526      333.734        3.245      874.199
01/14/2021  01:22:00       37.512       24.496      -10.033       44.983        8.897       23.584     2023.437       79.150      556.225        0.238        0.133       44.802       30.798        0.473      333.600        3.021      874.212
01/14/2021  01:23:00       47.425       25.537       -7.207       45.676       12.588       21.747     2086.276      158.451      472.932        0.283        0.136       53.863       29.914        0.308      333.594        3.012      874.227
01/14/2021  01:24:00       51.057       21.257       -7.610       46.502       16.393       23.111     2162.468      268.724      534.098        0.304        0.148       55.306       30.689        0.308      333.499        2.855      874.250
01/14/2021  01:25:00       44.055       56.950       -4.963       58.106       29.492       32.895     3376.289      869.770     1082.061        0.527        0.266       72.001       40.483        0.316      333.640        3.087      874.271
01/14/2021  01:26:00       42.204       93.725      -12.124       57.010       25.177       28.520     3250.114      633.858      813.375        0.770        0.235      102.789       37.941        0.136      333.937        3.578      874.287
01/14/2021  01:27:00       30.838       75.824      -13.601       47.039       21.059       21.291     2212.624      443.466      453.297        0.500        0.155       81.855       29.464        0.130      333.931        3.570      874.309
01/14/2021  01:28:00       38.607       46.056      -14.007       54.453       21.944       25.544     2965.081      481.518      652.474        0.395        0.205       60.097       35.678        0.352      333.844        3.425      874.328
01/14/2021  01:29:00       33.511       14.074       -7.306       49.035       11.906       23.898     2404.383      141.762      571.101        0.225        0.156       36.346       31.610        0.756      333.801        3.356      874.344
01/14/2021  01:30:00       53.156       37.393      -10.800       54.807       21.619       28.993     3003.859      467.375      840.607        0.433        0.216       64.991       38.076        0.343      333.814        3.375      874.359
01/14/2021  01:31:00       63.580       34.897      -13.882       60.685       14.738       30.602     3682.689      217.212      936.505        0.514        0.242       72.528       38.129        0.276      333.764        3.293      874.366
01/14/2021  01:32:00      100.040       26.654      -25.009       62.836       16.167       28.422     3948.340      261.369      807.808        0.818        0.251      103.530       41.089        0.158      333.806        3.362      874.353
01/14/2021  01:33:00       63.773        8.947      -11.043       49.550        9.797       25.123     2455.210       95.973      631.170        0.373        0.159       64.398       34.618        0.289      333.745        3.262      874.329
01/14/2021  01:34:00       46.748        5.872      -13.163       47.993        9.448       22.882     2303.358       89.257      523.577        0.265        0.146       47.116       32.203        0.467      333.778        3.317      874.321
01/14/2021  01:35:00       29.197      -13.524       -6.677       48.876       14.198       24.257     2388.899      201.571      588.405        0.213        0.159       32.177       33.608        1.091      333.855        3.443      874.321
01/14/2021  01:36:00       63.699      -24.560       -6.884       31.038       13.607       17.742      963.340      185.149      314.774        0.309        0.073       68.270       20.091        0.087      333.847        3.430      874.332
01/14/2021  01:37:00       58.654      -23.000      -10.394       53.141       28.356       27.357     2823.992      804.055      748.396        0.423        0.219       63.002       34.287        0.296      333.873        3.475      874.352
01/14/2021  01:38:00       61.753       -9.426      -10.362       55.667       37.193       33.337     3098.839     1383.306     1111.374        0.480        0.280       62.468       36.772        0.347      333.949        3.600      874.365
01/14/2021  01:39:00      116.328      -61.782      -35.884       57.314       51.187       30.378     3284.941     2620.076      922.834        1.273        0.341      131.716       35.354        0.072      334.018        3.713      874.379
01/14/2021  01:40:00      124.060     -130.169      -38.394       66.473       52.604       35.436     4418.724     2767.172     1255.733        2.112        0.422      179.819       43.432        0.058      333.963        3.621      874.398
01/14/2021  01:41:00      100.686      -65.034      -16.279       74.887       45.487       39.474     5608.122     2069.059     1558.200        1.193        0.462      119.863       45.812        0.146      333.927        3.563      874.395
01/14/2021  01:42:00       74.947      -51.711      -27.811       59.081       32.416       33.145     3490.609     1050.805     1098.617        0.735        0.282       91.055       41.017        0.203      333.979        3.652      874.402
01/14/2021  01:43:00       66.019      -42.862      -26.126       54.512       27.962       28.045     2971.590      781.879      786.522        0.571        0.227       78.713       32.976        0.176      334.008        3.697      874.405
01/14/2021  01:44:00        1.744       -7.512      -29.656       47.822       23.860       22.514     2286.965      569.309      506.862        0.215        0.168        7.712       29.934       15.067      333.926        3.561      874.387
01/14/2021  01:45:00       -1.202        2.910       -9.254       42.982       17.557       23.242     1847.477      308.234      540.191        0.140        0.135        3.148       24.727       61.687      333.891        3.504      874.382
01/14/2021  01:46:00       11.214        8.384      -12.256       63.201        8.661       28.140     3994.394       75.016      791.869        0.260        0.243       14.002       36.880        6.938      333.859        3.449      874.385
01/14/2021  01:47:00      -24.184       13.255      -17.404       54.158       15.155       24.572     2933.082      229.677      603.794        0.241        0.188       27.578       32.919        1.425      333.797        3.348      874.395
01/14/2021  01:48:00       -8.771        2.527       -9.375       52.818       16.239       23.978     2789.755      263.698      574.966        0.190        0.181        9.127       32.342       12.556      333.737        3.251      874.398
01/14/2021  01:49:00      -13.246        5.228       -8.647       52.912       14.702       24.894     2799.694      216.150      619.713        0.196        0.182       14.241       28.573        4.026      333.793        3.342      874.402
01/14/2021  01:50:00       11.506       -2.938      -14.814       65.788       16.528       29.994     4328.009      273.172      899.628        0.293        0.275       11.875       37.100        9.761      333.857        3.445      874.395
01/14/2021  01:51:00       16.173       -8.272       -6.692       52.694       17.092       26.307     2776.628      292.148      692.059        0.207        0.188       18.165       34.620        3.632      333.884        3.491      874.383
01/14/2021  01:52:00       24.373       -6.334       -4.279       39.509       12.150       18.941     1560.931      147.617      358.760        0.136        0.103       25.182       25.519        1.027      333.835        3.411      874.359
01/14/2021  01:53:00       -6.600        1.157      -10.834       41.125       11.030       18.266     1691.261      121.661      333.638        0.115        0.107        6.701       23.564       12.367      333.671        3.138      874.340
01/14/2021  01:54:00       14.197      -23.771      -15.554       42.506       15.434       22.529     1806.720      238.195      507.562        0.178        0.128       27.687       27.771        1.006      333.815        3.377      874.317
01/14/2021  01:55:00       19.475      -47.036      -14.719       32.285       17.274       17.090     1042.340      298.406      292.075        0.222        0.082       50.908       19.030        0.140      333.830        3.404      874.291
01/14/2021  01:56:00       -1.732      -30.851      -27.484       52.777       21.455       26.357     2785.404      460.302      694.690        0.282        0.197       30.900       35.144        1.294      333.866        3.462      874.263
01/14/2021  01:57:00        9.302       -5.601      -19.974       46.965       13.150       23.867     2205.679      172.930      569.655        0.173        0.147       10.859       30.116        7.692      333.805        3.359      874.231
01/14/2021  01:58:00       10.803       -0.302      -12.069       51.667       11.298       26.181     2669.523      127.635      685.426        0.187        0.174       10.807       32.841        9.234      333.732        3.240      874.204
01/14/2021  01:59:00      -26.046        9.013      -18.447       50.798       15.904       26.308     2580.478      252.934      692.107        0.231        0.176       27.562       32.494        1.390      333.706        3.195      874.184
01/14/2021  02:00:00      -41.379       12.257      -12.959       51.032       12.085       25.328     2604.242      146.059      641.488        0.271        0.170       43.156       33.812        0.614      333.666        3.130      874.168
01/14/2021  02:01:00      -24.490        7.551      -15.354       53.111       11.005       27.467     2820.782      121.115      754.452        0.229        0.185       25.628       36.889        2.072      333.758        3.283      874.165
01/14/2021  02:02:00       14.592      -11.979      -16.080       58.159       12.288       27.256     3382.418      150.996      742.908        0.244        0.214       18.879       37.331        3.910      333.793        3.341      874.165
01/14/2021  02:03:00        5.178       -3.294      -10.792       47.125       14.129       24.770     2220.803      199.620      613.537        0.159        0.152        6.137       32.399       27.870      333.814        3.376      874.174
01/14/2021  02:04:00       -0.638        3.708       -9.643       55.792       11.744       27.699     3112.742      137.924      767.213        0.206        0.201        3.763       34.463       83.898      333.752        3.274      874.200
01/14/2021  02:05:00      -37.584       -1.128      -16.298       54.604       15.982       27.170     2981.642      255.419      738.205        0.283        0.199       37.601       35.437        0.888      333.765        3.294      874.227
01/14/2021  02:06:00      -30.995      -10.593       -9.924       60.480       20.309       24.438     3657.863      412.457      597.225        0.292        0.233       32.755       27.746        0.718      333.721        3.223      874.257
01/14/2021  02:07:00      -15.403       -2.150       -7.635       66.329       23.708       32.077     4399.508      562.090     1028.957        0.314        0.300       15.552       37.892        5.936      333.739        3.251      874.282
01/14/2021  02:08:00      -14.522       -8.478       -7.638       65.646       27.022       32.211     4309.461      730.196     1037.560        0.321        0.304       16.815       32.350        3.701      333.784        3.326      874.305
01/14/2021  02:09:00      -14.719        3.754       -4.545       60.228       22.722       28.253     3627.354      516.303      798.259        0.260        0.247       15.190       30.011        3.904      333.593        3.009      874.312
01/14/2021  02:10:00      -68.194        6.752       -3.919       59.771       24.559       26.204     3572.572      603.152      686.658        0.479        0.243       68.527       25.838        0.142      333.489        2.837      874.317
01/14/2021  02:11:00      -43.185        4.390       -3.745       62.764       23.150       29.744     3939.258      535.917      884.720        0.363        0.268       43.407       23.636        0.296      333.503        2.862      874.321
01/14/2021  02:12:00      -67.964       -0.676      -12.841       68.038       26.733       32.247     4629.166      714.676     1039.860        0.558        0.319       67.967       24.465        0.130      333.446        2.766      874.336
01/14/2021  02:13:00      -91.402       20.118      -12.757       53.094       22.790       28.589     2818.948      519.384      817.342        0.654        0.208       93.590       27.718        0.088      333.375        2.650      874.349
01/14/2021  02:14:00      -70.747       -9.128      -17.345       66.630       35.102       27.754     4439.539     1232.129      770.272        0.591        0.322       71.334       25.350        0.126      333.447        2.768      874.355
01/14/2021  02:15:00      -66.621       -5.143      -17.035       53.875       30.526       29.535     2902.465      931.840      872.309        0.473        0.235       66.819       25.938        0.151      333.385        2.666      874.349
01/14/2021  02:16:00      -30.761      -14.730      -13.146       56.963       31.938       29.770     3244.802     1020.062      886.237        0.324        0.258       34.106       32.350        0.900      333.427        2.735      874.350
01/14/2021  02:17:00      -44.745       -6.578      -11.195       62.289       26.530       31.913     3879.924      703.840     1018.444        0.389        0.280       45.226       34.263        0.574      333.434        2.747      874.359
01/14/2021  02:18:00      -20.664       12.739      -14.289       62.900       21.565       28.958     3956.432      465.068      838.545        0.303        0.263       24.275       31.511        1.685      333.373        2.645      874.372
01/14/2021  02:19:00      -27.931       -0.280      -15.510       61.786       25.626       28.679     3817.501      656.715      822.477        0.316        0.265       27.932       30.357        1.181      333.394        2.681      874.387
01/14/2021  02:20:00       -9.388       -8.831      -16.877       56.627       22.529       24.051     3206.646      507.534      578.430        0.237        0.215       12.889       28.347        4.837      333.373        2.646      874.389
01/14/2021  02:21:00      -15.201       -5.192       -6.338       53.550       17.234       27.453     2867.573      297.012      753.641        0.211        0.196       16.063       34.968        4.739      333.458        2.786      874.383
01/14/2021  02:22:00        0.238      -13.610      -11.964       45.813       19.980       24.145     2098.852      399.192      582.973        0.170        0.154       13.612       28.930        4.517      333.464        2.796      874.367
01/14/2021  02:23:00        5.839        5.354      -14.443       57.767       14.057       27.513     3337.067      197.609      756.964        0.228        0.215        7.922       36.501       21.231      333.510        2.873      874.344
01/14/2021  02:24:00      -17.388        9.406       -7.167       49.464       15.419       23.051     2446.716      237.753      531.363        0.183        0.161       19.769       29.026        2.156      333.439        2.755      874.333
01/14/2021  02:25:00      -17.675       20.718      -15.441       52.648       10.599       25.487     2771.835      112.349      649.568        0.226        0.177       27.234       34.966        1.648      333.469        2.804      874.328
01/14/2021  02:26:00       -0.673        8.249      -15.381       57.199       12.424       26.937     3271.683      154.358      725.590        0.223        0.208        8.276       37.979       21.057      333.614        3.043      874.331
01/14/2021  02:27:00       -7.329        2.951       -8.294       53.491       11.966       25.193     2861.274      143.182      634.681        0.188        0.182        7.901       30.977       15.371      333.551        2.939      874.339
01/14/2021  02:28:00      -44.569       12.694      -19.741       52.454       17.022       27.119     2751.440      289.752      735.439        0.316        0.189       46.341       35.541        0.588      333.458        2.786      874.346
01/14/2021  02:29:00      -71.038       20.021      -21.320       48.356        9.820       23.577     2338.286       96.442      555.865        0.445        0.150       73.806       30.842        0.175      333.377        2.652      874.347
01/14/2021  02:30:00      -69.561        8.582      -19.153       58.133       22.573       24.377     3379.412      509.530      594.233        0.488        0.224       70.088       33.296        0.226      333.374        2.646      874.342
01/14/2021  02:31:00      -32.114       -3.716      -22.566       62.579       29.524       29.726     3916.182      871.644      883.662        0.361        0.284       32.328       34.511        1.140      333.379        2.654      874.323
01/14/2021  02:32:00      -27.821       -8.794      -10.703       60.318       23.584       26.389     3638.261      556.207      696.383        0.293        0.245       29.178       23.565        0.652      333.233        2.414      874.311
01/14/2021  02:33:00      -76.430       21.002      -18.042       64.901       20.743       26.917     4212.127      430.254      724.519        0.599        0.268       79.263       29.734        0.141      333.204        2.364      874.312
01/14/2021  02:34:00      -71.509       15.811       -8.997       56.028       24.576       31.394     3139.140      603.986      985.608        0.509        0.236       73.236       26.562        0.132      333.143        2.266      874.329
01/14/2021  02:35:00      -44.822        9.619       -2.110       60.537       23.863       29.834     3664.741      569.456      890.067        0.361        0.256       45.843       24.131        0.277      333.171        2.311      874.342
01/14/2021  02:36:00      -56.759        4.228       -6.814       51.519       23.871       24.674     2654.258      569.839      608.824        0.356        0.192       56.916       28.296        0.247      333.134        2.250      874.358
01/14/2021  02:37:00       -9.656       -6.526       -7.529       52.126       20.332       23.977     2717.111      413.389      574.885        0.195        0.185       11.655       27.886        5.725      333.199        2.357      874.352
01/14/2021  02:38:00       -8.154       -6.977       -0.412       47.443       22.715       22.346     2250.835      515.983      499.355        0.169        0.163       10.731       16.548        2.378      333.379        2.656      874.347
01/14/2021  02:39:00      -21.223      -13.723       -8.547       64.243       36.569       29.624     4127.185     1337.265      877.563        0.353        0.317       25.273       23.328        0.852      333.350        2.608      874.342
01/14/2021  02:40:00      -31.594      -28.494       -2.423       66.110       25.687       30.061     4370.534      659.810      903.641        0.387        0.297       42.545       26.867        0.399      333.380        2.659      874.345
01/14/2021  02:41:00      -73.383      -21.493      -10.216       63.289       24.907       28.527     4005.529      620.379      813.801        0.569        0.272       76.466       24.319        0.101      333.321        2.560      874.346
01/14/2021  02:42:00      -40.632      -10.428       -8.812       62.046       33.860       31.425     3849.676     1146.504      987.555        0.391        0.299       41.949       26.521        0.400      333.345        2.598      874.335
01/14/2021  02:43:00      -17.830       -4.529       -8.096       69.299       28.549       33.028     4802.324      815.070     1090.823        0.355        0.335       18.396       34.962        3.612      333.221        2.394      874.327
01/14/2021  02:44:00      -19.251      -14.516       -9.676       74.318       37.271       35.498     5523.229     1389.101     1260.133        0.442        0.409       24.111       33.880        1.975      333.236        2.419      874.326
01/14/2021  02:45:00      -58.091      -23.012      -13.328       64.480       32.707       30.666     4157.696     1069.721      940.406        0.512        0.308       62.483       30.328        0.236      333.242        2.430      874.338
01/14/2021  02:46:00      -69.484       -0.689       -6.885       59.898       35.371       28.880     3587.810     1251.112      834.077        0.527        0.284       69.488       26.654        0.147      333.189        2.342      874.352
01/14/2021  02:47:00      -82.467      -20.995       -7.317       60.228       38.033       29.354     3627.361     1446.481      861.640        0.661        0.297       85.098       22.389        0.069      333.152        2.279      874.361
01/14/2021  02:48:00     -121.214       11.211       -2.960       64.001       30.264       28.181     4096.181      915.928      794.187        1.032        0.290      121.731       17.975        0.022      333.125        2.234      874.361
01/14/2021  02:49:00      -79.973       13.464       -9.836       70.726       37.169       34.388     5002.204     1381.559     1182.524        0.712        0.378       81.099       23.850        0.086      333.153        2.282      874.369
01/14/2021  02:50:00      -85.411      -14.725      -10.801       63.208       36.789       30.407     3995.294     1353.427      924.595        0.695        0.314       86.671       25.208        0.085      333.142        2.264      874.375
01/14/2021  02:51:00      -41.485      -13.159       -2.724       75.296       30.190       30.626     5669.504      911.425      937.940        0.471        0.376       43.522       26.311        0.365      333.180        2.327      874.375
01/14/2021  02:52:00      -42.071       -2.834       -9.619       65.412       29.212       30.384     4278.710      853.368      923.200        0.396        0.303       42.166       30.769        0.532      333.175        2.317      874.370
01/14/2021  02:53:00      -29.770       -6.163       -9.925       66.672       30.095       28.091     4445.098      905.735      789.104        0.358        0.307       30.401       29.454        0.939      333.238        2.422      874.360
01/14/2021  02:54:00      -46.946       -1.597      -11.011       66.478       28.446       31.911     4419.322      809.150     1018.333        0.429        0.312       46.973       33.344        0.504      333.261        2.461      874.360
01/14/2021  02:55:00      -26.309       -5.506       -7.385       65.898       33.838       32.579     4342.492     1144.988     1061.385        0.366        0.327       26.879       28.446        1.120      333.301        2.525      874.361
01/14/2021  02:56:00      -73.029        5.507        3.844       58.310       26.091       28.696     3400.090      680.733      823.432        0.514        0.245       73.237       16.990        0.054      333.155        2.284      874.368
01/14/2021  02:57:00      -64.053        8.229       -7.179       86.408       32.451       33.597     7466.404     1053.048     1128.729        0.693        0.482       64.580       32.267        0.250      333.089        2.178      874.377
01/14/2021  02:58:00      -94.525       -7.154      -13.528       72.184       41.750       37.340     5210.594     1743.072     1394.308        0.876        0.417       94.796       20.570        0.047      333.111        2.213      874.376
01/14/2021  02:59:00      -53.439       -9.735      -14.289       91.957       37.454       39.127     8456.046     1402.798     1530.961        0.727        0.569       54.318       18.709        0.119      333.033        2.082      874.373
01/14/2021  03:00:00     -101.689        0.470      -12.568       77.872       44.237       33.263     6063.978     1956.871     1106.396        0.981        0.456      101.690       16.537        0.026      333.019        2.061      874.361
01/14/2021  03:01:00      -97.545        9.645       -8.249       74.570       33.627       29.637     5560.669     1130.742      878.346        0.862        0.378       98.021       21.518        0.048      332.990        2.012      874.342
01/14/2021  03:02:00     -111.467       25.324      -16.820       56.404       35.438       29.289     3181.363     1255.820      857.829        0.932        0.265      114.308       27.014        0.056      332.870        1.815      874.329
01/14/2021  03:03:00      -86.376       16.040       -9.819       61.331       33.828       32.097     3761.455     1144.364     1030.187        0.687        0.297       87.852       32.779        0.139      332.905        1.873      874.319
01/14/2021  03:04:00      -68.196        8.599      -11.497       54.660       23.053       31.703     2987.750      531.431     1005.071        0.469        0.226       68.736       28.014        0.166      332.947        1.941      874.309
01/14/2021  03:05:00      -98.997       13.902      -17.322       49.016       24.058       27.139     2402.609      578.787      736.513        0.701        0.186       99.968       28.028        0.079      332.941        1.932      874.295
01/14/2021  03:06:00      -95.126       18.314      -18.952       57.255       23.709       30.029     3278.078      562.130      901.741        0.724        0.237       96.873       29.538        0.093      332.872        1.819      874.268
01/14/2021  03:07:00     -102.559       12.429       -9.890       54.872       32.585       28.090     3010.985     1061.767      789.030        0.782        0.243      103.309       15.489        0.022      332.885        1.839      874.242
01/14/2021  03:08:00     -101.943       14.243      -11.022       61.752       37.784       33.628     3813.287     1427.624     1130.870        0.854        0.319      102.933       15.267        0.022      332.826        1.741      874.220
01/14/2021  03:09:00      -72.848       15.821       -5.726       71.406       35.212       36.572     5098.873     1239.859     1337.530        0.663        0.384       74.546       22.045        0.087      332.793        1.686      874.190
01/14/2021  03:10:00      -98.830       48.112        5.296       55.460       33.880       32.644     3075.829     1147.838     1065.654        0.870        0.264      109.919       14.682        0.018      332.698        1.531      874.172
01/14/2021  03:11:00      -80.079       38.065        0.630       55.206       30.992       31.084     3047.728      960.475      966.222        0.642        0.249       88.666       11.538        0.017      332.679        1.498      874.149
01/14/2021  03:12:00      -53.379       12.236       -6.597       54.144       24.050       30.337     2931.576      578.382      920.335        0.374        0.222       54.763       31.354        0.328      332.719        1.565      874.138
01/14/2021  03:13:00      -79.556       28.630      -10.015       52.957       27.610       26.942     2804.451      762.303      725.868        0.577        0.215       84.551       28.327        0.112      332.707        1.545      874.119
01/14/2021  03:14:00      -80.490       24.970       -7.177       48.086       25.944       26.964     2312.248      673.080      727.079        0.543        0.186       84.274       24.228        0.083      332.744        1.606      874.114
01/14/2021  03:15:00      -63.157       31.594      -10.419       54.595       25.494       30.451     2980.621      649.961      927.271        0.483        0.228       70.619       30.083        0.181      332.727        1.578      874.124
01/14/2021  03:16:00      -68.199       27.607       -6.252       43.585       29.801       25.166     1899.695      888.115      633.325        0.444        0.171       73.575       15.296        0.043      332.721        1.568      874.138
01/14/2021  03:17:00      -73.260       26.026       -9.242       52.190       35.791       28.984     2723.786     1280.998      840.093        0.549        0.242       77.745       27.380        0.124      332.795        1.688      874.151
01/14/2021  03:18:00      -54.955       16.114      -14.981       63.031       26.413       30.021     3972.855      697.622      901.252        0.454        0.279       57.269       30.495        0.284      332.867        1.809      874.165
01/14/2021  03:19:00      -62.729       17.073      -13.944       62.688       26.533       30.899     3929.824      703.994      954.734        0.500        0.279       65.011       34.438        0.281      332.928        1.908      874.172
01/14/2021  03:20:00      -58.743        8.775        0.302       53.108       32.780       33.337     2820.501     1074.507     1111.368        0.427        0.250       59.395       24.169        0.166      333.003        2.034      874.182
01/14/2021  03:21:00      -71.624        4.302      -14.473       76.859       30.002       29.457     5907.359      900.108      867.689        0.651        0.384       71.753       25.507        0.126      333.080        2.160      874.194
01/14/2021  03:22:00     -124.864       10.808      -12.629       62.467       27.139       29.450     3902.145      736.513      867.296        1.069        0.275      125.331       29.888        0.057      333.045        2.103      874.207
01/14/2021  03:23:00      -90.594       17.664       -5.006       75.266       35.732       42.155     5664.992     1276.810     1777.061        0.863        0.436       92.300       15.605        0.029      332.997        2.023      874.210
01/14/2021  03:24:00      -73.208       37.942       -7.793       66.066       41.767       30.777     4364.659     1744.465      947.239        0.696        0.353       82.456       24.509        0.088      332.868        1.810      874.217
01/14/2021  03:25:00       -5.737       35.531       -7.437       84.613       45.006       42.792     7159.418     2025.577     1831.158        0.618        0.551       35.991       41.826        1.351      332.906        1.873      874.222
01/14/2021  03:26:00      -66.363       46.735       -2.665       65.824       41.433       33.333     4332.856     1716.669     1111.091        0.688        0.358       81.167       16.166        0.040      332.874        1.820      874.237
01/14/2021  03:27:00      -45.033       27.598      -13.415       66.439       30.146       33.278     4414.182      908.777     1107.405        0.470        0.322       52.817       31.141        0.348      332.839        1.762      874.254
01/14/2021  03:28:00      -56.520        6.991      -14.991       68.261       34.996       33.564     4659.564     1224.696     1126.559        0.524        0.351       56.951       25.458        0.200      333.001        2.031      874.267
01/14/2021  03:29:00      -69.087       26.798      -11.937       62.009       36.220       32.334     3845.105     1311.905     1045.500        0.592        0.310       74.102       32.442        0.192      332.947        1.941      874.276
01/14/2021  03:30:00      -30.209        6.661       -3.938       68.342       27.915       30.344     4670.592      779.263      920.750        0.367        0.319       30.935       35.369        1.307      332.888        1.844      874.266
01/14/2021  03:31:00      -17.248       -4.705       -0.228       58.963       33.381       33.345     3476.679     1114.320     1111.874        0.301        0.285       17.878       22.898        1.640      333.074        2.151      874.248
01/14/2021  03:32:00        3.300        1.359        4.170       43.545       26.553       26.169     1896.139      705.087      684.832        0.166        0.164        3.569       21.485       36.237      333.036        2.088      874.237
01/14/2021  03:33:00       -1.837      -18.515       -0.182       42.734       27.702       26.375     1826.153      767.397      695.624        0.182        0.164       18.606       21.995        1.398      333.167        2.304      874.233
01/14/2021  03:34:00      -28.928      -18.508       -4.150       43.468       28.888       23.398     1889.498      834.529      547.478        0.223        0.164       34.342       21.065        0.376      333.148        2.273      874.230
01/14/2021  03:35:00      -16.724       -4.878       -2.643       51.833       30.645       24.098     2686.671      939.101      580.729        0.226        0.210       17.421       20.672        1.408      333.112        2.214      874.218
01/14/2021  03:36:00      -34.903      -16.555       -8.359       64.117       24.816       30.996     4111.011      615.824      960.782        0.362        0.284       38.630       24.850        0.414      333.056        2.121      874.214
01/14/2021  03:37:00      -48.290      -29.647       -0.616       60.411       39.405       31.395     3649.523     1552.790      985.655        0.470        0.309       56.664       17.984        0.101      332.989        2.010      874.211
01/14/2021  03:38:00      -67.526      -26.405        2.781       77.448       34.033       35.091     5998.126     1158.233     1231.371        0.682        0.419       72.505        8.692        0.014      332.918        1.892      874.207
01/14/2021  03:39:00      -29.119      -10.025       -1.718       65.938       40.892       39.094     4347.762     1672.172     1528.358        0.425        0.377       30.796       16.459        0.286      332.916        1.892      874.207
01/14/2021  03:40:00      -58.204       10.730       -2.021       80.323       40.031       36.790     6451.756     1602.508     1353.523        0.646        0.470       59.185       34.196        0.334      332.941        1.933      874.209
01/14/2021  03:41:00      -30.027       14.228       -5.493       70.939       38.411       42.130     5032.275     1475.412     1774.975        0.471        0.414       33.228       31.801        0.916      333.006        2.039      874.213
01/14/2021  03:42:00      -27.871       -1.053      -15.996       58.062       39.835       31.986     3371.201     1586.798     1023.120        0.351        0.299       27.891       25.367        0.827      332.942        1.933      874.201
01/14/2021  03:43:00      -25.249       -7.085       -0.148       56.573       29.577       26.366     3200.525      874.815      695.147        0.273        0.239       26.224       22.379        0.728      332.941        1.932      874.187
01/14/2021  03:44:00       21.232       -9.241       -9.123       45.364       29.965       26.106     2057.896      897.890      681.534        0.213        0.182       23.156       23.259        1.009      332.975        1.988      874.175
01/14/2021  03:45:00      -37.205        2.977       -9.238       60.709       35.378       27.735     3685.544     1251.586      769.216        0.359        0.285       37.324       25.399        0.463      332.932        1.917      874.172
01/14/2021  03:46:00      -43.032       -9.513       -5.707       57.429       32.798       26.255     3298.065     1075.725      689.321        0.352        0.253       44.071       21.235        0.232      332.896        1.857      874.175
01/14/2021  03:47:00      -33.646       -6.236       -1.356       49.309       29.801       28.323     2431.330      888.085      802.212        0.265        0.206       34.219       21.708        0.402      332.907        1.877      874.182
01/14/2021  03:48:00      -71.723      -23.511      -12.036       57.755       26.984       30.572     3335.594      728.145      934.617        0.542        0.250       75.478       27.437        0.132      333.013        2.051      874.177
01/14/2021  03:49:00      -44.446       -7.076       -3.657       48.774       43.137       30.644     2378.884     1860.770      939.044        0.361        0.259       45.006       21.201        0.222      333.008        2.041      874.166
01/14/2021  03:50:00      -91.715      -14.005       -6.389       49.498       29.618       25.444     2450.051      877.209      647.404        0.631        0.199       92.778       11.468        0.015      332.943        1.934      874.155
01/14/2021  03:51:00      -43.588       -0.193       -7.517       74.355       27.721       32.950     5528.676      768.456     1085.683        0.467        0.369       43.588       33.132        0.578      333.007        2.040      874.140
01/14/2021  03:52:00      -42.504        1.606       -4.738       70.919       24.657       31.715     5029.499      607.978     1005.837        0.424        0.332       42.534       21.864        0.264      333.017        2.057      874.116
01/14/2021  03:53:00      -78.017        8.880       -7.279       63.482       30.151       32.601     4029.933      909.074     1062.822        0.611        0.300       78.520       29.797        0.144      332.996        2.022      874.104
01/14/2021  03:54:00      -93.798       13.978       -7.688       55.402       31.938       33.312     3069.350     1020.019     1109.674        0.712        0.260       94.834       29.422        0.096      333.019        2.059      874.098
01/14/2021  03:55:00       -5.214        2.794      -16.282       57.253       25.078       30.679     3277.879      628.891      941.207        0.257        0.242        5.915       27.955       22.334      333.001        2.031      874.108
01/14/2021  03:56:00      -37.515        0.086       -6.914       63.823       29.480       29.982     4073.408      869.050      898.918        0.365        0.292       37.515       28.450        0.575      332.986        2.005      874.115
01/14/2021  03:57:00        5.897       -7.789        1.882       48.640       34.145       32.978     2365.830     1165.855     1087.555        0.236        0.231        9.769       22.554        5.330      333.007        2.040      874.122
01/14/2021  03:58:00      -17.935        5.252        0.350       36.423       31.319       25.483     1326.617      980.892      649.359        0.165        0.148       18.688       20.138        1.161      332.993        2.017      874.131
01/14/2021  03:59:00        6.133       -8.869        1.121       39.818       25.490       23.729     1585.471      649.735      563.068        0.146        0.140       10.783       20.996        3.791      333.071        2.146      874.141
01/14/2021  04:00:00       -2.779       -4.749       -3.067       40.713       34.009       28.353     1657.548     1156.623      803.890        0.183        0.181        5.503       23.478       18.205      333.019        2.060      874.161
01/14/2021  04:01:00      -64.985      -39.951       -9.301       42.324       25.316       25.031     1791.347      640.925      626.559        0.448        0.153       76.284       22.767        0.089      332.994        2.018      874.165
01/14/2021  04:02:00      -75.123      -27.579      -15.178       49.361       30.717       27.863     2436.556      943.562      776.340        0.539        0.208       80.025       24.294        0.092      332.986        2.005      874.177
01/14/2021  04:03:00      -28.146        0.417        4.904       63.701       29.831       25.074     4057.842      889.883      628.692        0.320        0.279       28.149       14.854        0.278      332.908        1.877      874.181
01/14/2021  04:04:00      -28.213       -4.462       -5.202       64.231       31.041       30.473     4125.681      963.537      928.585        0.343        0.301       28.564       21.534        0.568      332.881        1.833      874.141
01/14/2021  04:05:00      -52.716       -8.357      -18.479       60.377       34.888       31.486     3645.324     1217.194      991.392        0.452        0.293       53.374       31.251        0.343      332.899        1.861      874.066
01/14/2021  04:06:00      -14.751       -1.377       -4.617       49.564       33.391       26.147     2456.626     1114.931      683.648        0.225        0.213       14.815       23.763        2.573      332.894        1.855      874.065
01/14/2021  04:07:00      -14.506       -0.089       -2.989       45.915       31.715       23.224     2108.191     1005.828      539.364        0.194        0.183       14.507       22.703        2.449      332.861        1.800      874.063
01/14/2021  04:08:00      -32.193      -10.482       -6.233       53.103       29.002       21.124     2819.922      841.123      446.222        0.265        0.205       33.857       19.166        0.320      332.841        1.767      874.065
01/14/2021  04:09:00      -44.246      -26.451       -2.689       43.269       37.689       27.853     1872.178     1420.466      775.784        0.337        0.203       51.550        8.150        0.025      332.808        1.712      874.054
01/14/2021  04:10:00      -75.902      -15.861      -11.192       59.617       35.959       30.961     3554.159     1293.037      958.580        0.597        0.290       77.542       20.042        0.067      332.773        1.654      874.038
01/14/2021  04:11:00      -14.051        1.605        0.033       52.702       39.638       35.775     2777.543     1571.180     1279.848        0.291        0.281       14.142       22.865        2.614      332.708        1.547      874.025
01/14/2021  04:12:00      -38.236       -5.088       -3.852       51.692       39.110       30.318     2672.026     1529.559      919.211        0.331        0.256       38.573       18.818        0.238      332.683        1.506      874.031
01/14/2021  04:13:00      -68.613       12.204        0.461       49.675       32.494       26.811     2467.622     1055.842      718.810        0.455        0.212       69.690       18.886        0.073      332.696        1.528      874.039
01/14/2021  04:14:00      -74.165       21.044       -5.624       64.673       39.031       33.073     4182.535     1523.409     1093.852        0.639        0.340       77.093       28.166        0.133      332.746        1.609      874.047
01/14/2021  04:15:00      -27.225      -13.456       -3.793       50.605       36.348       30.078     2560.845     1321.197      904.712        0.286        0.239       30.369       24.209        0.635      332.789        1.678      874.056
01/14/2021  04:16:00       -5.764       -6.176        0.696      169.850       33.410       81.242    28848.884     1116.256     6600.302        1.831        1.828        8.448      113.732      181.256      332.867        1.810      874.064
01/14/2021  04:17:00      -15.225      -18.211        0.209       40.566       28.749       25.063     1645.588      826.503      628.177        0.183        0.155       23.737       13.305        0.314      332.825        1.739      874.075
01/14/2021  04:18:00       -0.051        8.384        2.386       35.429       29.990       23.291     1255.249      899.417      542.475        0.139        0.135        8.385       20.484        5.969      332.840        1.765      874.079
01/14/2021  04:19:00      -15.690      -10.482        1.252       38.057       25.049       20.029     1448.370      627.465      401.142        0.142        0.124       18.869       16.757        0.789      332.865        1.807      874.077
01/14/2021  04:20:00       -7.564       -8.710        2.607       27.813       24.630       20.832      773.538      606.614      433.973        0.098        0.091       11.536       18.797        2.655      332.739        1.599      874.083
01/14/2021  04:21:00      -14.728        1.383        0.245       42.607       30.366       21.757     1815.324      922.091      473.367        0.171        0.161       14.793       19.886        1.807      332.782        1.669      874.100
01/14/2021  04:22:00      -14.412       -0.833        0.496       30.585       24.488       19.053      935.441      599.673      363.006        0.105        0.095       14.436       12.817        0.788      332.803        1.704      874.121
01/14/2021  04:23:00       -1.121       -0.505        3.790       18.113       27.702       15.495      328.072      767.423      240.087        0.068        0.067        1.229       20.083      267.042      332.753        1.621      874.142
01/14/2021  04:24:00      -21.919       -5.198        2.039       26.016       34.007       20.965      676.809     1156.485      439.551        0.139        0.114       22.526       25.578        1.289      332.802        1.701      874.158
01/14/2021  04:25:00       12.395        5.563       10.290       23.878       29.047       18.344      570.179      843.710      336.494        0.102        0.088       13.586       22.052        2.634      332.738        1.597      874.175
01/14/2021  04:26:00      -14.579        6.807        9.321       29.586       30.300       18.973      875.320      918.076      359.969        0.125        0.108       16.090       16.271        1.023      332.723        1.571      874.178
01/14/2021  04:27:00      -35.464       19.176        0.931       38.702       33.428       26.822     1497.832     1117.429      719.428        0.248        0.167       40.316       20.548        0.260      332.744        1.606      874.183
01/14/2021  04:28:00      -17.081       -0.239       -9.703       51.332       34.296       28.491     2634.974     1176.249      811.728        0.250        0.231       17.082       24.295        2.023      332.816        1.725      874.190
01/14/2021  04:29:00      -58.472       -0.792       -8.317       50.393       27.939       28.022     2539.481      780.611      785.209        0.380        0.205       58.478       11.509        0.039      332.814        1.722      874.185
01/14/2021  04:30:00      -25.471        2.526       -7.317       60.072       35.355       28.135     3608.671     1249.998      791.592        0.318        0.283       25.596       27.431        1.149      332.912        1.883      874.190
01/14/2021  04:31:00      -32.646        2.341       -3.142       46.099       32.698       24.380     2125.088     1069.174      594.403        0.243        0.189       32.730       20.630        0.397      332.866        1.807      874.194
01/14/2021  04:32:00        1.224       -6.399       -3.044       39.406       29.451       19.958     1552.825      867.333      398.341        0.143        0.141        6.515       19.793        9.230      332.843        1.771      874.188
01/14/2021  04:33:00      -15.723       20.927       -2.452      145.946       32.467       71.434    21300.097     1054.075     5102.807        1.407        1.373       26.176       98.760       14.235      332.903        1.869      874.182
01/14/2021  04:34:00      -21.660        5.467        1.427       31.336       27.506       19.123      981.953      756.566      365.686        0.130        0.105       22.339       17.099        0.586      332.857        1.793      874.179
01/14/2021  04:35:00      -13.403       -4.732       -4.406      145.609       24.132       71.030    21201.950      582.351     5045.312        1.352        1.341       14.214       98.163       47.693      332.816        1.726      874.171
01/14/2021  04:36:00      -27.172       -9.450       -6.962       47.885       30.526       22.734     2292.928      931.865      516.857        0.231        0.187       28.768       18.800        0.427      332.786        1.677      874.170
01/14/2021  04:37:00      -23.297       -2.387       -0.848       36.684       34.628       21.334     1345.730     1199.116      455.160        0.177        0.150       23.419       17.438        0.554      332.708        1.545      874.168
01/14/2021  04:38:00        9.511      -11.759       -1.420      158.728       29.193       74.428    25194.699      852.213     5539.588        1.590        1.579       15.124      106.347       49.444      332.710        1.550      874.180
01/14/2021  04:39:00       -5.469      -13.912        4.995       25.294       33.148       19.060      639.792     1098.782      363.299        0.117        0.105       14.949       23.252        2.419      332.676        1.494      874.210
01/14/2021  04:40:00        8.721       -2.790        4.550       21.699       36.471       22.424      470.826     1330.125      502.851        0.120        0.115        9.156       26.012        8.071      332.642        1.437      874.227
01/14/2021  04:41:00        1.590        3.029        2.017      150.984       30.419       73.929    22796.042      925.304     5465.438        1.460        1.459        3.422      102.734      901.506      332.705        1.542      874.236
01/14/2021  04:42:00        3.520       12.735       13.114       22.854       35.902       20.002      522.322     1288.932      400.068        0.128        0.111       13.212       27.406        4.302      332.600        1.369      874.252
01/14/2021  04:43:00      -12.318       33.537        0.032      154.164       39.169       77.108    23766.577     1534.231     5945.721        1.625        1.562       35.727      104.384        8.536      332.743        1.605      874.259
01/14/2021  04:44:00      -14.609        4.472       -3.966       32.792       35.227       22.727     1075.313     1240.972      516.539        0.154        0.142       15.278       22.539        2.176      332.638        1.431      874.260
01/14/2021  04:45:00      -10.546       -0.231        6.332       29.959       35.941       23.125      897.525     1291.789      534.753        0.144        0.136       10.549       24.869        5.558      332.633        1.423      874.261
01/14/2021  04:46:00        3.137       -1.553        2.570       25.600       39.000       22.032      655.353     1520.968      485.426        0.134        0.133        3.500       28.319       65.453      332.603        1.374      874.264
01/14/2021  04:47:00       -6.702        4.227        7.329      143.196       40.733       70.926    20505.133     1659.153     5030.555        1.365        1.360        7.924       93.855      140.298      332.694        1.527      874.271
01/14/2021  04:48:00        1.098        1.450        2.686      172.052       39.534       83.164    29601.865     1562.963     6916.221        1.904        1.904        1.819      116.233     4081.510      332.637        1.430      874.270
01/14/2021  04:49:00       19.235        5.500       -3.740      163.475       28.243       78.642    26724.098      797.671     6184.586        1.705        1.685       20.006      110.175       30.329      332.618        1.398      874.275
01/14/2021  04:50:00       30.006      -16.198        2.554      212.805       33.812      103.939    45286.011     1143.231    10803.410        2.919        2.862       34.098      145.898       18.308      332.687        1.514      874.271
01/14/2021  04:51:00      -10.011        7.772        3.171       37.058       38.446       21.580     1373.291     1478.061      465.698        0.174        0.166       12.674       27.207        4.608      332.598        1.364      874.269
01/14/2021  04:52:00        8.863      -28.538       -2.033       26.180       30.478       18.769      685.411      928.905      352.264        0.143        0.098       29.882       21.719        0.528      332.586        1.344      874.275
01/14/2021  04:53:00       28.151        5.943        6.397       27.215       34.115       20.302      740.661     1163.857      412.189        0.159        0.116       28.772       25.732        0.800      332.406        1.048      874.294
01/14/2021  04:54:00        5.350       23.482        5.355      146.622       38.703       72.794    21498.007     1497.900     5298.960        1.445        1.415       24.084       98.376       16.685      332.536        1.263      874.329
01/14/2021  04:55:00       13.092       28.424       15.439       23.675       34.518       21.288      560.517     1191.460      453.171        0.171        0.110       31.294       26.247        0.703      332.445        1.113      874.371
01/14/2021  04:56:00       -0.868        3.200       15.483       25.726       41.668       23.841      661.847     1736.251      568.373        0.161        0.148        3.315       30.781       86.210      332.521        1.238      874.402
01/14/2021  04:57:00       23.320       12.082        7.070      188.868       43.385       93.307    35671.139     1882.225     8706.131        2.349        2.313       26.264      127.957       23.735      332.488        1.184      874.414
01/14/2021  04:58:00        2.420       21.161        1.793      151.476       38.974       76.092    22944.851     1518.956     5789.954        1.535        1.513       21.299      102.960       23.367      332.461        1.139      874.404
01/14/2021  04:59:00       -3.194        8.229        2.350       25.485       38.860       22.519      649.483     1510.103      507.125        0.137        0.133        8.828       27.803        9.919      332.388        1.018      874.384
01/14/2021  05:00:00       20.240       14.607        3.561      260.242       42.448      126.714    67725.780     1801.842    16056.492        4.309        4.279       24.960      178.721       51.270      332.557        1.300      874.359
01/14/2021  05:01:00        7.028        3.407        9.312      223.854       44.603      108.809    50110.435     1989.395    11839.465        3.203        3.197        7.810      152.070      379.132      332.516        1.231      874.334
01/14/2021  05:02:00       20.132       -5.264      -19.069      375.143       38.108      177.499   140732.493     1452.215    31506.000        8.721        8.685       20.809      255.422      150.671      332.680        1.504      874.336
01/14/2021  05:03:00       -8.777        0.321        2.633       26.167       39.040       23.336      684.696     1524.154      544.549        0.142        0.138        8.782       29.767       11.488      332.502        1.206      874.342
01/14/2021  05:04:00       -8.205      -20.069       -3.329       25.874       36.934       19.911      669.479     1364.130      396.467        0.146        0.122       21.682       23.789        1.204      332.503        1.209      874.358
01/14/2021  05:05:00       43.296       12.895       -3.598      333.777       33.670      154.692   111407.302     1133.640    23929.691        6.923        6.824       45.176      225.572       24.932      332.592        1.358      874.379
01/14/2021  05:06:00       10.459       13.553        9.872       23.275       37.082       21.007      541.724     1375.095      441.297        0.137        0.118       17.120       28.208        2.715      332.413        1.060      874.388
01/14/2021  05:07:00        4.772      -17.721        4.325       25.500       33.004       22.176      650.248     1089.278      491.783        0.129        0.112       18.353       25.980        2.004      332.522        1.237      874.397
01/14/2021  05:08:00        5.787        3.224        4.602       32.622       42.661       24.837     1064.174     1820.001      616.879        0.178        0.175        6.624       30.523       21.232      332.564        1.307      874.404
01/14/2021  05:09:00        6.994       12.734        2.583      240.772       47.683      116.883    57970.924     2273.667    13661.543        3.705        3.695       14.528      162.366      124.903      332.583        1.342      874.406
01/14/2021  05:10:00       17.789       -5.923        5.892       38.804       51.115       28.363     1505.788     2612.754      804.480        0.265        0.246       18.749       36.409        3.771      332.501        1.204      874.411
01/14/2021  05:11:00       15.990       -0.274        8.647       31.213       38.272       21.594      974.253     1464.745      466.301        0.162        0.145       15.993       26.796        2.807      332.521        1.239      874.417
01/14/2021  05:12:00       17.100       16.677        7.328       31.346       46.105       27.332      982.592     2125.648      747.038        0.224        0.193       23.885       33.512        1.968      332.487        1.181      874.437
01/14/2021  05:13:00        6.540       -1.735       -8.468      167.799       40.745       75.915    28156.543     1660.172     5763.038        1.784        1.779        6.766      107.280      251.417      332.541        1.271      874.460
01/14/2021  05:14:00      -50.474       28.730        0.230       52.906       44.851       26.648     2799.029     2011.588      710.119        0.445        0.276       58.078       27.706        0.228      332.336        0.932      874.482
01/14/2021  05:15:00      -54.411       27.634       -3.511      189.292       49.369       92.614    35831.362     2437.271     8577.263        2.528        2.342       61.026      126.225        4.278      332.281        0.843      874.509
01/14/2021  05:16:00      -38.666       34.080      -12.483      286.968       45.376      135.864    82350.568     2058.976    18459.007        5.282        5.143       51.541      192.746       13.985      332.239        0.777      874.532
01/14/2021  05:17:00      -30.063       11.462       13.042       49.192       42.847       30.162     2419.842     1835.903      909.720        0.318        0.258       32.173       30.705        0.911      332.169        0.656      874.553
01/14/2021  05:18:00      -23.722       13.779      -14.028      217.112       45.767      109.243    47137.608     2094.608    11934.120        3.105        3.058       27.433      148.209       29.187      332.249        0.789      874.568
01/14/2021  05:19:00      -30.158        6.702       -1.393       36.560       48.241       28.585     1336.609     2327.231      817.076        0.272        0.224       30.893       31.559        1.044      332.195        0.700      874.568
01/14/2021  05:20:00       10.515        6.121       16.946       30.636       44.409       23.568      938.556     1972.164      555.437        0.195        0.173       12.166       29.125        5.731      332.155        0.634      874.574
01/14/2021  05:21:00      -20.655       22.383        3.782       45.488       46.387       25.494     2069.132     2151.752      649.926        0.291        0.244       30.457       34.334        1.271      332.112        0.564      874.578
01/14/2021  05:22:00      -39.723       25.316       -6.679      187.189       42.661       92.247    35039.622     1819.986     8509.489        2.381        2.268       47.105      126.418        7.203      331.982        0.351      874.580
01/14/2021  05:23:00      -20.284       20.039       -9.825      275.127       45.397      135.431    75695.059     2060.859    18341.542        4.848        4.805       28.514      189.036       43.952      332.107        0.556      874.579
01/14/2021  05:24:00      -13.715       12.578       -2.358      172.474       37.492       84.572    29747.125     1405.620     7152.450        1.932        1.915       18.609      113.896       37.460      332.038        0.442      874.584
01/14/2021  05:25:00       23.605       24.545       14.553       29.555       47.014       26.287      873.490     2210.291      691.006        0.257        0.189       34.054       37.169        1.191      331.969        0.328      874.598
01/14/2021  05:26:00        8.944       22.052       12.445       23.984       42.923       23.383      575.225     1842.399      546.751        0.184        0.148       23.796       32.445        1.859      331.974        0.336      874.633
01/14/2021  05:27:00       13.746       -9.742       -2.383      169.664       41.020       78.134    28785.814     1682.607     6104.997        1.842        1.829       16.848      109.290       42.079      332.030        0.428      874.669
01/14/2021  05:28:00       19.266       20.247        4.434       28.198       46.542       27.001      795.115     2166.174      729.077        0.224        0.185       27.948       37.553        1.805      332.250        0.790      874.697
01/14/2021  05:29:00       32.861       35.803        8.039      168.631       51.770       81.193    28436.540     2680.112     6592.273        2.006        1.885       48.598      107.960        4.935      332.439        1.104      874.704
01/14/2021  05:30:00       34.170       28.398        9.412      175.593       46.446       86.954    30832.972     2157.197     7561.066        2.130        2.028       44.430      117.592        7.005      332.383        1.010      874.709
01/14/2021  05:31:00       59.172       57.603       -5.589      267.871       46.915      131.263    71754.632     2200.986    17230.003        4.900        4.559       82.580      183.254        4.924      332.568        1.318      874.698
01/14/2021  05:32:00       26.047       37.554        5.910      197.458       40.516       89.163    38989.716     1641.558     7950.025        2.534        2.429       45.702      128.486        7.904      332.404        1.047      874.684
01/14/2021  05:33:00       35.512       24.117      -15.488      369.756       38.378      177.628   136719.757     1472.854    31551.672        8.588        8.487       42.927      253.920       34.989      332.404        1.049      874.670
01/14/2021  05:34:00      -10.844       23.658        5.763       29.012       39.891       22.478      841.693     1591.288      505.265        0.182        0.147       26.025       29.300        1.268      332.293        0.861      874.654
01/14/2021  05:35:00      -22.207       20.005        0.726       32.282       44.315       26.510     1042.099     1963.797      702.782        0.230        0.185       29.889       33.032        1.221      332.213        0.729      874.653
01/14/2021  05:36:00      -36.001        3.648        4.739       30.248       47.938       28.420      914.955     2298.020      807.689        0.268        0.201       36.186       36.886        1.039      332.104        0.550      874.640
01/14/2021  05:37:00      -33.259       11.865        1.370      162.444       39.321       82.028    26388.034     1546.119     6728.635        1.795        1.733       35.312      108.798        9.493      332.139        0.609      874.625
01/14/2021  05:38:00      -62.007       27.106        8.527       36.779       43.402       28.404     1352.666     1883.736      806.777        0.435        0.202       67.673       30.329        0.201      332.127        0.587      874.602
01/14/2021  05:39:00      -45.749       30.003        3.886       40.507       47.579       30.021     1640.808     2263.744      901.264        0.391        0.240       54.710       34.539        0.399      332.127        0.588      874.584
01/14/2021  05:40:00      -24.852       23.569        3.630      201.631       48.103       95.833    40655.117     2313.865     9183.944        2.666        2.608       34.251      132.821       15.038      332.215        0.734      874.575
01/14/2021  05:41:00       33.332       15.404      -11.464      341.304       39.356      163.748   116488.357     1548.913    26813.290        7.313        7.243       36.720      233.929       40.585      332.333        0.930      874.582
01/14/2021  05:42:00       -9.850       24.197        1.562      174.032       43.341       86.073    30286.975     1878.434     7408.591        2.012        1.979       26.125      117.223       20.134      332.355        0.966      874.597
01/14/2021  05:43:00      -13.316       37.883       10.317       33.569       49.176       27.772     1126.878     2418.287      771.268        0.302        0.216       40.155       36.938        0.846      332.346        0.949      874.615
01/14/2021  05:44:00       -3.946       23.143       -1.080      273.682       41.622      130.948    74902.001     1732.417    17147.334        4.715        4.689       23.477      185.891       62.694      332.398        1.037      874.631
01/14/2021  05:45:00       24.514       12.897      -12.597      314.073       42.017      154.909    98641.718     1765.413    23996.667        6.264        6.220       27.699      217.522       61.670      332.376        1.002      874.649
01/14/2021  05:46:00      -20.296       21.458       11.671       41.723       45.648       30.354     1740.768     2083.697      921.379        0.288        0.237       29.536       36.144        1.497      332.203        0.715      874.682
01/14/2021  05:47:00      -48.414       27.119        3.531      181.883       45.431       84.333    33081.360     2064.014     7112.077        2.267        2.113       55.492      116.142        4.380      332.160        0.643      874.718
01/14/2021  05:48:00       11.138       23.943        4.627      283.952       47.872      138.833    80629.016     2291.689    19274.487        5.144        5.110       26.407      194.023       53.984      332.250        0.794      874.732
01/14/2021  05:49:00      -10.579       22.174       -0.515      226.781       42.027      108.375    51429.789     1766.277    11745.178        3.276        3.247       24.568      150.933       37.741      332.259        0.806      874.733
01/14/2021  05:50:00      -20.389       12.539       -3.875      274.996       41.399      131.653    75622.862     1713.863    17332.386        4.761        4.733       23.936      187.123       61.113      332.275        0.833      874.720
01/14/2021  05:51:00      -37.027       26.334        0.672      148.095       45.007       72.489    21931.989     2025.592     5254.599        1.563        1.461       45.436       95.636        4.430      332.166        0.655      874.704
01/14/2021  05:52:00      -16.664       24.237      -12.378      336.906       42.357      159.934   113505.365     1794.134    25578.733        7.092        7.044       29.413      228.278       60.237      332.284        0.852      874.693
01/14/2021  05:53:00      -55.193       27.372       -1.142      226.165       50.221      111.314    51150.613     2522.177    12390.833        3.492        3.303       61.607      152.516        6.129      332.201        0.710      874.688
01/14/2021  05:54:00      -23.345       35.059      -29.130      434.943       49.743      214.387   189175.169     2474.407    45961.690       12.007       11.881       42.120      301.426       51.214      332.362        0.982      874.685
01/14/2021  05:55:00      -44.093       29.766      -17.838      350.424       41.480      164.590   122796.741     1720.564    27089.843        7.735        7.580       53.200      237.117       19.866      332.228        0.759      874.694
01/14/2021  05:56:00      -65.229       19.754        4.993       52.437       52.218       31.611     2749.690     2726.726      999.274        0.557        0.324       68.154       32.566        0.228      332.027        0.424      874.699
01/14/2021  05:57:00      -14.140       -2.197      -23.267      378.837       49.405      185.155   143517.718     2440.806    34282.551        9.046        9.012       14.310      261.275      333.368      332.114        0.570      874.701
01/14/2021  05:58:00      -36.507       28.570      -18.894      405.702       46.259      194.540   164594.223     2139.932    37845.986       10.350       10.229       46.357      277.745       35.897      332.150        0.631      874.708
01/14/2021  05:59:00      -50.602       47.284       -8.942      328.291       54.105      155.616   107774.934     2927.383    24216.342        6.987        6.746       69.256      221.306       10.211      332.099        0.545      874.719
01/14/2021  06:00:00       36.880       23.712      -18.619      388.356       45.425      191.311   150820.654     2063.455    36599.854        9.584        9.474       43.845      268.784       37.581      332.120        0.581      874.754
01/14/2021  06:01:00       50.699        9.654      -21.829      421.416       47.920      197.220   177591.312     2296.367    38895.924       11.092       10.939       51.610      283.594       30.195      332.220        0.746      874.798
01/14/2021  06:02:00      -54.866       21.202      -14.367      267.412       54.700      125.151    71508.963     2992.117    15662.728        4.690        4.508       58.820      178.146        9.173      332.149        0.627      874.811
01/14/2021  06:03:00       -1.113       14.878      -13.587      280.311       50.373      140.693    78574.329     2537.457    19794.459        5.064        5.045       14.920      192.792      166.969      332.221        0.746      874.819
01/14/2021  06:04:00       22.889       26.600       13.850       37.219       47.225       29.429     1385.272     2230.192      866.059        0.295        0.224       35.093       36.371        1.074      332.097        0.539      874.828
01/14/2021  06:05:00       12.721       26.341       -0.899      215.499       47.016      106.782    46439.978     2210.500    11402.294        3.044        3.003       29.252      146.235       24.991      332.089        0.529      874.830
01/14/2021  06:06:00      -14.933       10.862        0.714       29.148       51.245       24.364      849.613     2626.099      593.580        0.220        0.203       18.466       29.830        2.610      332.019        0.410      874.828
01/14/2021  06:07:00      -36.210       32.376        0.231       40.997       51.354       26.894     1680.738     2637.237      723.300        0.370        0.252       48.574       35.777        0.543      332.037        0.439      874.826
01/14/2021  06:08:00       16.795       23.254        5.877      161.421       50.155       79.204    26056.661     2515.509     6273.255        1.784        1.742       28.685      105.053       13.413      332.059        0.475      874.832
01/14/2021  06:09:00      -16.976        6.501        1.107      163.843       55.889       81.039    26844.405     3123.610     6567.350        1.843        1.827       18.178      107.451       34.940      332.033        0.433      874.832
01/14/2021  06:10:00      -22.362       -1.632        1.810       35.498       57.353       30.447     1260.119     3289.318      927.031        0.299        0.274       22.421       39.841        3.157      331.987        0.356      874.837
01/14/2021  06:11:00       28.426       31.181       -7.747      246.037       54.299      117.608    60534.410     2948.382    13831.569        3.956        3.866       42.193      164.234       15.151      332.018        0.411      874.831
01/14/2021  06:12:00       -3.206      -22.656       -3.899      191.916       53.551       97.345    36831.567     2867.759     9476.031        2.485        2.459       22.882      129.252       31.908      331.965        0.321      874.841
01/14/2021  06:13:00      -15.326       -3.676        1.892       33.889       49.609       31.794     1148.469     2461.055     1010.827        0.244        0.231       15.761       36.478        5.357      331.908        0.226      874.841
01/14/2021  06:14:00        1.427       13.348       11.236       37.908       49.918       27.854     1436.998     2491.806      775.831        0.250        0.235       13.424       36.651        7.454      331.933        0.267      874.838
01/14/2021  06:15:00        4.570       19.854        9.637      169.526       56.395       85.934    28739.115     3180.426     7384.729        1.990        1.965       20.374      111.419       29.908      331.946        0.289      874.835
01/14/2021  06:16:00       -0.443       14.644        8.188       36.007       55.633       32.825     1296.516     3095.081     1077.500        0.287        0.273       14.650       36.471        6.197      331.916        0.240      874.825
01/14/2021  06:17:00       -1.280       20.418        3.737      166.894       60.978       84.740    27853.676     3718.262     7180.905        1.958        1.938       20.458      108.235       27.991      332.026        0.423      874.819
01/14/2021  06:18:00      -13.720       -4.738       -5.755      252.686       53.440      116.736    63850.122     2855.820    13627.234        4.027        4.017       14.515      163.448      126.804      332.079        0.510      874.810
01/14/2021  06:19:00      -32.720        9.996       -7.669      337.117       57.412      149.789   113647.779     3296.100    22436.772        7.028        6.969       34.213      217.593       40.448      332.215        0.736      874.803
01/14/2021  06:20:00      -72.051       57.417        0.078      264.135       55.309      124.360    69767.216     3059.064    15465.315        4.837        4.415       92.131      174.516        3.588      332.138        0.608      874.799
01/14/2021  06:21:00      -65.257       32.938       -4.460      200.369       49.010       96.942    40147.931     2401.948     9397.790        2.865        2.597       73.099      132.588        3.290      332.142        0.614      874.807
01/14/2021  06:22:00      -51.252       41.374       -0.735      210.020       49.244      103.588    44108.459     2424.965    10730.468        3.079        2.863       65.868      141.656        4.625      332.196        0.701      874.827
01/14/2021  06:23:00       48.671       12.573      -37.185      535.857       48.229      255.551   287142.426     2326.009    65306.532       17.927       17.739       50.269      366.954       53.287      332.470        1.163      874.853
01/14/2021  06:24:00      -46.298       40.622      -12.084      307.233       46.985      140.689    94392.006     2207.614    19793.387        6.014        5.820       61.593      204.249       10.997      332.182        0.682      874.896
01/14/2021  06:25:00      -22.717       36.230        0.215      191.384       51.615       97.435    36627.673     2664.134     9493.555        2.530        2.439       42.763      129.291        9.141      332.177        0.672      874.926
01/14/2021  06:26:00      -41.096       40.275       -4.111      251.709       56.052      122.267    63357.226     3141.814    14949.112        4.237        4.072       57.541      169.285        8.655      332.133        0.598      874.943
01/14/2021  06:27:00      -62.930       55.101        6.388       36.240       45.961       30.818     1313.302     2112.372      949.733        0.571        0.219       83.643       35.652        0.182      332.053        0.466      874.944
01/14/2021  06:28:00      -65.139       34.299       -4.563      177.619       45.059       79.893    31548.602     2030.297     6382.860        2.269        1.998       73.617      113.948        2.396      332.146        0.620      874.951
01/14/2021  06:29:00       32.466       25.430      -36.102      489.227       46.437      235.320   239342.855     2156.409    55375.479       14.988       14.844       41.240      336.430       66.552      332.523        1.249      874.959
01/14/2021  06:30:00      -17.635       28.994      -13.152      325.714       38.777      154.284   106089.334     1503.634    23803.468        6.633        6.570       33.936      220.979       42.402      332.313        0.898      874.963
01/14/2021  06:31:00        2.060        5.837       -4.211      241.722       41.692      115.378    58429.666     1738.231    13312.083        3.675        3.674        6.190      162.336      687.805      332.286        0.851      874.959
01/14/2021  06:32:00       36.109       10.772      -14.336      358.580       43.534      167.957   128579.696     1895.189    28209.621        8.012        7.934       37.682      242.810       41.521      332.419        1.076      874.964
01/14/2021  06:33:00       26.485       13.624       -7.970      266.648       44.196      128.175    71101.238     1953.310    16428.808        4.520        4.474       29.783      179.919       36.493      332.377        1.002      874.963
01/14/2021  06:34:00       13.848       15.165        9.703      167.437       44.801       83.948    28035.038     2007.174     7047.266        1.880        1.854       20.536      111.580       29.521      332.245        0.784      874.954
01/14/2021  06:35:00       -8.815       13.803        1.364      180.755       42.301       89.813    32672.363     1789.339     8066.441        2.139        2.126       16.377      120.492       54.129      332.240        0.775      874.947
01/14/2021  06:36:00       20.440       21.690      -19.315      453.619       48.421      222.112   205770.350     2344.572    49333.749       12.930       12.872       29.803      313.856      110.902      332.488        1.189      874.933
01/14/2021  06:37:00      -39.995       17.306        2.070      165.321       50.939       84.924    27331.090     2594.731     7212.061        1.951        1.857       43.579      109.365        6.298      332.172        0.663      874.932
01/14/2021  06:38:00      -35.947       22.646       13.101      158.627       52.345       81.133    25162.438     2740.003     6582.642        1.822        1.724       42.486      100.553        5.601      332.040        0.445      874.935
01/14/2021  06:39:00        1.094       14.601      -16.341      422.210       49.082      204.772   178260.982     2409.066    41931.712       11.150       11.130       14.641      290.520      393.718      332.313        0.901      874.933
01/14/2021  06:40:00      -58.391       -4.692       15.919       52.930       50.332       32.300     2801.583     2533.351     1043.321        0.503        0.319       58.579       38.570        0.434      332.066        0.486      874.941
01/14/2021  06:41:00       40.544       15.399       -7.490      341.591       49.101      161.851   116684.540     2410.886    26195.751        7.358        7.265       43.369      230.491       28.245      332.252        0.797      874.943
01/14/2021  06:42:00      -42.287        3.744        7.291       50.802       45.636       26.128     2580.846     2082.610      682.669        0.360        0.267       42.452       28.152        0.440      332.144        0.616      874.950
01/14/2021  06:43:00      -65.438       15.617       13.577       44.512       42.892       25.556     1981.331     1839.758      653.125        0.459        0.224       67.276       28.817        0.183      332.100        0.544      874.954
01/14/2021  06:44:00      -60.102       29.591       -0.252      229.120       40.669      112.564    52496.183     1653.986    12670.727        3.564        3.341       66.991      155.633        5.397      332.192        0.696      874.956
01/14/2021  06:45:00      -54.384       26.026        9.442      183.014       49.573       92.187    33494.210     2457.460     8498.457        2.408        2.223       60.291      121.049        4.031      332.169        0.659      874.960
01/14/2021  06:46:00      -48.470       14.537       -4.825      181.344       46.101       86.644    32885.711     2125.347     7507.212        2.254        2.126       50.604      119.680        5.593      332.131        0.595      874.956
01/14/2021  06:47:00      -22.131        6.036       -3.504      278.788       46.995      135.555    77722.808     2208.492    18375.052        4.940        4.915       22.939      189.285       68.088      332.234        0.768      874.951
01/14/2021  06:48:00      -46.362       26.920        6.016      181.202       52.210       90.661    32834.320     2725.891     8219.348        2.334        2.189       53.611      119.326        4.954      332.174        0.666      874.948
01/14/2021  06:49:00      -34.890       12.592        2.746      178.434       42.335       84.220    31838.856     1792.221     7092.940        2.105        2.036       37.092      115.521        9.700      332.080        0.512      874.944
01/14/2021  06:50:00      -23.229       29.405       -0.141      335.011       60.665      159.953   112232.670     3680.273    25584.899        7.142        7.075       37.474      225.979       36.365      332.224        0.751      874.938
01/14/2021  06:51:00      -24.000       15.174       -0.617      231.536       47.577      110.894    53608.844     2263.573    12297.503        3.447        3.408       28.394      155.010       29.803      332.187        0.687      874.937
01/14/2021  06:52:00      -21.597        7.970       -7.472      294.206       43.396      144.151    86557.265     1883.225    20779.444        5.488        5.461       23.020      201.597       76.692      332.262        0.813      874.934
01/14/2021  06:53:00        9.478       18.984       -6.679      325.286       44.043      146.827   105810.804     1939.763    21558.089        6.488        6.465       21.219      214.112      101.820      332.333        0.931      874.922
01/14/2021  06:54:00       14.664       18.055       -0.813      338.254       52.485      162.605   114416.050     2754.627    26440.545        7.205        7.181       23.260      229.739       97.552      332.344        0.947      874.901
01/14/2021  06:55:00       -7.132       11.997       12.997      146.459       41.493       75.624    21450.202     1721.674     5718.964        1.462        1.445       13.957       95.933       47.246      332.217        0.737      874.881
01/14/2021  06:56:00       23.021       38.789       -3.674      358.746       58.422      172.641   128698.782     3413.149    29805.066        8.195        8.096       45.107      242.427       28.886      332.347        0.955      874.878
01/14/2021  06:57:00      -35.539       15.339        1.895      264.694       52.561      130.336    70062.723     2762.700    16987.360        4.564        4.491       38.708      180.905       21.842      332.339        0.941      874.887
01/14/2021  06:58:00      -52.926       31.730       11.079       44.854       48.632       30.206     2011.923     2365.052      912.427        0.461        0.264       61.708       36.243        0.345      332.209        0.724      874.890
01/14/2021  06:59:00       -8.935       16.033       -1.671      318.437       46.194      153.280   101402.416     2133.906    23494.614        6.366        6.352       18.355      217.323      140.188      332.351        0.961      874.884
01/14/2021  07:00:00      -14.989       16.729        0.759      268.280       47.530      128.696    71974.273     2259.064    16562.728        4.563        4.540       22.462      181.202       65.080      332.340        0.940      874.884
01/14/2021  07:01:00      -32.124       22.653        0.865      233.065       45.181      108.309    54319.237     2041.341    11730.939        3.480        3.405       39.307      150.750       14.708      332.359        0.973      874.904
01/14/2021  07:02:00      -17.036       13.231      -17.909      371.612       45.937      179.148   138095.258     2110.170    32093.949        8.651        8.615       21.571      254.826      139.557      332.382        1.012      874.920
01/14/2021  07:03:00       54.259       10.138      -34.108      500.387       43.681      243.434   250387.579     1908.035    59260.338       15.782       15.578       55.198      346.913       39.500      332.533        1.266      874.928
01/14/2021  07:04:00      -18.032       16.246       16.505       45.946       50.346       29.617     2111.016     2534.682      877.138        0.319        0.276       24.271       35.796        2.175      332.107        0.556      874.930
01/14/2021  07:05:00      -34.910       22.405        5.946      197.937       48.045       98.170    39178.934     2308.356     9637.432        2.643        2.556       41.481      131.917       10.114      332.133        0.598      874.932
01/14/2021  07:06:00      -66.594       27.041       10.411       44.024       47.902       24.435     1938.083     2294.620      597.073        0.505        0.241       71.875       28.203        0.154      331.999        0.377      874.932
01/14/2021  07:07:00      -39.379       17.772       -6.795      320.031       45.958      155.671   102420.085     2112.095    24233.541        6.531        6.438       43.204      218.505       25.578      332.162        0.649      874.947
01/14/2021  07:08:00      -38.255       38.380      -15.522      381.584       55.340      178.397   145606.154     3062.530    31825.391        9.180        9.025       54.189      255.900       22.301      332.252        0.799      874.951
01/14/2021  07:09:00      -64.261       36.429      -15.917      330.907       46.784      157.572   109499.288     2188.696    24828.949        7.109        6.826       73.868      224.770        9.259      332.177        0.674      874.953
01/14/2021  07:10:00      -72.894       33.958       -4.697      255.224       47.617      123.393    65139.383     2267.351    15225.913        4.454        4.132       80.416      171.711        4.559      332.093        0.534      874.951
01/14/2021  07:11:00       -9.501       21.678       -3.369      356.883       51.881      170.255   127365.197     2691.590    28986.899        7.977        7.952       23.669      241.864      104.420      332.170        0.662      874.943
01/14/2021  07:12:00      -36.514       13.058        2.842      141.421       49.414       70.641    19999.828     2441.787     4990.106        1.447        1.372       38.779       90.089        5.397      331.939        0.279      874.942
01/14/2021  07:13:00      -15.819       34.164       13.552       41.854       47.170       27.530     1751.782     2225.017      757.879        0.317        0.237       37.649       28.734        0.582      331.903        0.219      874.948
01/14/2021  07:14:00      -15.032       32.590       -9.428      263.653       44.253      127.870    69512.901     1958.296    16350.798        4.458        4.391       35.890      179.944       25.138      332.049        0.461      874.965
01/14/2021  07:15:00        4.900       27.569       -9.118      321.975       55.392      159.695   103667.857     3068.281    25502.508        6.653        6.612       28.001      221.989       62.851      332.164        0.653      874.991
01/14/2021  07:16:00      -34.416       34.533       15.947       49.187       60.023       35.832     2419.374     3602.719     1283.927        0.497        0.365       48.754       43.404        0.793      332.033        0.431      875.003
01/14/2021  07:17:00      -11.075       24.454        9.941      171.978       54.412       85.021    29576.469     2960.623     7228.603        2.028        1.988       26.845      106.433       15.719      332.021        0.414      874.999
01/14/2021  07:18:00      -16.747       41.911        5.334      224.355       48.045      111.442    50334.943     2308.296    12419.360        3.355        3.253       45.133      152.392       11.401      331.989        0.362      874.993
01/14/2021  07:19:00        0.701       29.668       13.685       30.957       47.463       27.281      958.366     2252.736      744.259        0.251        0.198       29.676       36.245        1.492      331.956        0.306      874.985
01/14/2021  07:20:00       12.548        7.654       10.054       31.500       49.281       27.803      992.264     2428.568      772.986        0.225        0.210       14.698       36.929        6.313      331.952        0.296      874.979
01/14/2021  07:21:00       29.395       16.611        9.952      188.726       48.763       93.176    35617.361     2377.790     8681.685        2.395        2.334       33.763      124.597       13.618      332.054        0.469      874.979
01/14/2021  07:22:00      -13.699        1.763        4.639       32.209       42.741       22.597     1037.442     1826.807      510.640        0.179        0.169       13.812       28.031        4.119      331.882        0.184      874.974
01/14/2021  07:23:00       -9.478       44.368        7.581      224.133       53.353      109.318    50235.492     2846.588    11950.351        3.356        3.252       45.369      147.511       10.571      331.988        0.360      874.958
01/14/2021  07:24:00      -69.468       31.587        6.255       43.116       48.215       29.631     1859.028     2324.677      878.021        0.546        0.253       76.312       35.032        0.211      331.989        0.361      874.947
01/14/2021  07:25:00      -18.570       22.146        5.651      179.715       50.079       89.517    32297.490     2507.915     8013.293        2.183        2.141       28.901      119.427       17.076      332.029        0.427      874.926
01/14/2021  07:26:00       49.514       12.596      -13.266      379.598       47.193      182.119   144094.883     2227.154    33167.179        9.110        8.974       51.091      259.669       25.831      332.194        0.703      874.911
01/14/2021  07:27:00       54.851        6.745       -2.885      353.956       48.746      173.809   125285.072     2376.209    30209.704        8.043        7.894       55.264      244.426       19.562      332.256        0.805      874.918
01/14/2021  07:28:00       19.398       20.768       10.111      187.154       56.479       90.045    35026.622     3189.844     8108.100        2.361        2.316       28.418      121.747       18.354      332.149        0.625      874.927
01/14/2021  07:29:00       20.147       27.663       13.501      143.366       44.035       71.585    20553.799     1939.077     5124.404        1.448        1.381       34.222       94.469        7.620      332.039        0.443      874.943
01/14/2021  07:30:00        3.518        2.084        0.955      175.502       35.354       85.141    30801.126     1249.876     7248.982        1.965        1.965        4.089      116.871      816.915      332.136        0.604      874.953
01/14/2021  07:31:00        8.905        2.147        8.488       24.323       27.619       19.934      591.630      762.822      397.365        0.095        0.088        9.160       19.119        4.356      332.150        0.626      874.955
01/14/2021  07:32:00       -3.039        0.759       -4.744       36.513       28.359       21.537     1333.220      804.247      463.828        0.132        0.130        3.132       19.741       39.727      332.227        0.752      874.943
01/14/2021  07:33:00       -3.403      -22.355      -13.656      159.939       37.951       77.155    25580.635     1440.283     5952.819        1.683        1.649       22.613      106.927       22.360      332.365        0.981      874.908
01/14/2021  07:34:00        1.136       -4.442       -7.552       44.236       33.518       26.300     1956.854     1123.443      691.707        0.192        0.189        4.585       25.730       31.490      332.314        0.897      874.874
01/14/2021  07:35:00       32.426       -7.623      -16.842      223.917       18.074      108.834    50138.984      326.684    11844.895        3.184        3.116       33.310      154.892       21.623      332.529        1.254      874.870
01/14/2021  07:36:00       61.134        6.229      -34.311      417.691       26.690      200.438   174465.704      712.346    40175.509       11.011       10.768       61.451      288.145       21.987      332.485        1.185      874.899
01/14/2021  07:37:00       58.501        7.445      -34.686      429.120       25.715      206.295   184143.804      661.285    42557.724       11.597       11.368       58.973      296.927       25.351      332.498        1.204      874.938
01/14/2021  07:38:00       63.787       -6.087      -31.095      408.893       25.893      194.414   167193.348      670.431    37796.653       10.532       10.283       64.077      281.303       19.273      332.524        1.247      874.971
01/14/2021  07:39:00       55.653       -8.284      -39.221      435.766       25.862      211.987   189892.395      668.861    44938.471       12.005       11.775       56.266      302.549       28.913      332.555        1.299      874.997
01/14/2021  07:40:00       -2.132       -0.301      -19.518      227.677       27.350      109.905    51836.888      748.048    12079.163        3.251        3.233        2.153      156.856     5307.805      332.353        0.960      875.016
01/14/2021  07:41:00       35.019       10.035      -16.705      290.644       14.081      138.673    84473.679      198.266    19230.276        5.273        5.195       36.429      200.243       30.216      332.349        0.956      875.025
01/14/2021  07:42:00       47.373        4.998      -34.526      387.846       15.908      184.564   150424.682      253.077    34063.865        9.406        9.237       47.636      267.020       31.421      332.396        1.037      875.049
01/14/2021  07:43:00        5.951       12.954      -27.616      282.157        7.469      135.494    79612.399       55.788    18358.728        4.948        4.901       14.255      195.245      187.585      332.303        0.881      875.095
01/14/2021  07:44:00       22.899       12.643      -40.016      389.831       14.579      188.268   151968.136      212.546    35444.776        9.492        9.381       26.157      270.234      106.735      332.406        1.054      875.140
01/14/2021  07:45:00      -35.086       24.354      -22.018      165.124       11.407       78.747    27266.038      130.128     6201.116        1.795        1.680       42.710      113.600        7.074      332.213        0.730      875.166
01/14/2021  07:46:00       -8.680        3.539      -17.337      199.934       10.729       95.226    39973.774      115.121     9067.963        2.476        2.458        9.374      136.025      210.585      332.295        0.867      875.187
01/14/2021  07:47:00      -19.871        5.592      -11.494       39.466       13.891       20.139     1557.594      192.972      405.587        0.136        0.108       20.643       25.690        1.549      332.223        0.746      875.216
01/14/2021  07:48:00      -25.268        4.718      -11.495       44.922       13.316       22.690     2018.002      177.317      514.854        0.175        0.136       25.704       30.305        1.390      332.206        0.719      875.251
01/14/2021  07:49:00       -8.664       10.520       -8.822       47.894       11.407       22.875     2293.809      130.114      523.267        0.160        0.147       13.628       31.759        5.430      332.197        0.706      875.273
01/14/2021  07:50:00        2.353       12.666      -14.159      170.689        7.972       81.227    29134.607       63.548     6597.787        1.807        1.790       12.883      117.171       82.720      332.280        0.841      875.293
01/14/2021  07:51:00       25.686        6.792      -13.428      206.912        5.630       98.549    42812.502       31.698     9711.888        2.671        2.628       26.569      142.683       28.840      332.319        0.905      875.306
01/14/2021  07:52:00       41.078       12.423       -4.073      134.987       12.352       65.212    18221.403      152.566     4252.599        1.224        1.131       42.915       92.791        4.675      332.413        1.059      875.313
01/14/2021  07:53:00       60.299       21.685      -22.891      235.062        9.721      112.066    55254.178       94.494    12558.891        3.626        3.395       64.080      161.997        6.391      332.417        1.067      875.303
01/14/2021  07:54:00       40.137       39.343      -11.641       33.412        6.403       16.500     1116.365       41.004      272.264        0.236        0.071       56.204       21.182        0.142      332.315        0.898      875.281
01/14/2021  07:55:00       41.575       36.954       -7.743      175.699        7.668       84.280    30870.072       58.800     7103.157        2.059        1.902       55.625      121.459        4.768      332.412        1.059      875.268
01/14/2021  07:56:00       -9.659       20.238       -6.051       38.046        8.560       16.924     1447.531       73.267      286.418        0.117        0.090       22.425       22.403        0.998      332.460        1.135      875.263
01/14/2021  07:57:00      -19.754       26.098      -11.936       38.116       16.732       18.844     1452.843      279.977      355.105        0.165        0.104       32.731       25.462        0.605      332.338        0.936      875.278
01/14/2021  07:58:00      -28.926       18.734      -13.891       33.546       12.647       16.493     1125.306      159.954      272.036        0.147        0.078       34.462       21.972        0.407      332.305        0.881      875.290
01/14/2021  07:59:00      -29.173        0.362       -2.697       36.462       14.750       18.243     1329.457      217.576      332.812        0.137        0.094       29.175       18.352        0.396      332.355        0.964      875.281
01/14/2021  08:00:00      -31.418       12.347       -9.174       45.424       16.386       21.253     2063.376      268.485      451.691        0.200        0.139       33.757       26.141        0.600      332.357        0.968      875.265
01/14/2021  08:01:00      -34.729       13.422       -8.562       45.897       19.448       19.099     2106.559      378.234      364.764        0.215        0.142       37.233       26.492        0.506      332.280        0.839      875.237
01/14/2021  08:02:00      -27.077        0.731       -6.396       33.989       19.660       16.357     1155.238      386.517      267.547        0.129        0.090       27.087       16.463        0.369      332.318        0.902      875.216
01/14/2021  08:03:00      -14.444        3.490       -5.108       48.871       11.290       25.198     2388.373      127.457      634.927        0.170        0.158       14.859       27.812        3.503      332.419        1.069      875.213
01/14/2021  08:04:00      -31.943        3.424       -5.313       35.241       11.282       18.086     1241.931      127.282      327.121        0.138        0.085       32.126       21.741        0.458      332.412        1.058      875.226
01/14/2021  08:05:00      -25.286       14.825        3.829       35.591       11.410       18.781     1266.748      130.185      352.735        0.131        0.087       29.312       20.803        0.504      332.417        1.065      875.247
01/14/2021  08:06:00       -6.853       10.224       -6.627       33.944        7.140       15.105     1152.212       50.986      228.153        0.081        0.072       12.308       20.595        2.800      332.487        1.181      875.253
01/14/2021  08:07:00      -14.126       21.271       -4.131       28.428        9.677       13.691      808.131       93.635      187.441        0.088        0.054       25.534       18.750        0.539      332.516        1.230      875.256
01/14/2021  08:08:00      -11.034       16.200       -6.020       33.250        4.481       15.616     1105.556       20.076      243.847        0.089        0.068       19.601       21.038        1.152      332.607        1.380      875.242
01/14/2021  08:09:00      -20.218       -1.407       -2.681       33.001       21.221       17.500     1089.083      450.350      306.266        0.113        0.092       20.267       22.020        1.180      332.624        1.407      875.221
01/14/2021  08:10:00      -16.497      -12.920       -6.536       29.821        6.661       14.145      889.271       44.373      200.073        0.081        0.057       20.954       18.147        0.750      332.595        1.360      875.205
01/14/2021  08:11:00        1.503        7.270       -4.566       33.380        9.272       17.179     1114.255       85.971      295.127        0.079        0.075        7.424       20.785        7.838      332.694        1.525      875.226
01/14/2021  08:12:00      -15.665       17.387       -5.415       25.690        9.733       12.741      659.989       94.733      162.327        0.075        0.046       23.403       16.509        0.498      332.640        1.435      875.241
01/14/2021  08:13:00      -20.779       14.830       -5.191       26.390        6.846       13.640      696.452       46.870      186.055        0.080        0.046       25.528       17.387        0.464      332.642        1.438      875.241
01/14/2021  08:14:00       -4.406       -1.156        1.312       16.726        7.679        9.387      279.775       58.961       88.119        0.022        0.021        4.555       11.179        6.023      332.879        1.830      875.241
01/14/2021  08:15:00      -16.545        3.620       -6.250       41.923        8.225       15.833     1757.557       67.651      250.674        0.120        0.104       16.936       20.473        1.461      332.734        1.591      875.268
01/14/2021  08:16:00      -28.455       14.147       -1.580       23.574       11.417       12.004      555.735      130.357      144.106        0.092        0.042       31.777       11.922        0.141      332.657        1.465      875.316
01/14/2021  08:17:00      -35.455       21.559        0.672       22.661        7.103        9.962      513.512       50.452       99.245        0.119        0.033       41.495        9.473        0.052      332.690        1.518      875.349
01/14/2021  08:18:00      -40.991       17.071       -5.702       21.225        6.020       11.292      450.515       36.242      127.500        0.131        0.031       44.404       12.693        0.082      332.720        1.564      875.348
01/14/2021  08:19:00      -48.147       17.462       -5.684        9.769        7.144        6.244       95.430       51.039       38.990        0.142        0.009       51.215        6.186        0.015      332.717        1.559      875.329
01/14/2021  08:20:00      -34.967       15.717       -3.912       22.412       10.911       11.746      502.278      119.055      137.980        0.112        0.038       38.337       12.852        0.112      332.765        1.641      875.323
01/14/2021  08:21:00      -15.720       22.275       -3.384       29.262       10.412       15.055      856.262      108.402      226.649        0.097        0.060       27.264       17.823        0.427      332.816        1.725      875.341
01/14/2021  08:22:00      -22.982       19.110       -0.235       20.605        7.336       11.174      424.564       53.821      124.862        0.075        0.030       29.889       12.123        0.165      332.806        1.710      875.375
01/14/2021  08:23:00      -21.598       13.451       -2.317       10.667        5.420        7.578      113.778       29.376       57.430        0.043        0.010       25.444        6.745        0.070      332.833        1.756      875.401
01/14/2021  08:24:00      -27.275        7.686       -0.989       11.979        7.108        7.792      143.508       50.518       60.721        0.053        0.013       28.337        3.583        0.016      332.918        1.894      875.411
01/14/2021  08:25:00       -1.910       -3.921        4.884       20.003       11.409       15.009      400.131      130.159      225.279        0.040        0.038        4.362       13.149        9.088      333.286        2.501      875.408
01/14/2021  08:26:00        0.262       -1.611        1.682       14.396       12.353       10.668      207.244      152.602      113.807        0.024        0.024        1.632       10.794       43.762      333.162        2.297      875.397
01/14/2021  08:27:00        1.230        5.822       -4.850       23.062        7.269       11.962      531.846       52.842      143.079        0.039        0.036        5.950       14.846        6.225      333.108        2.206      875.399
01/14/2021  08:28:00       -2.702       -9.737       -2.924       17.531       11.040        9.938      307.352      121.885       98.763        0.032        0.026       10.105        7.714        0.583      333.145        2.268      875.403
01/14/2021  08:29:00      -27.332       -7.839       -5.414       22.007       17.289       17.101      484.313      298.924      292.446        0.096        0.054       28.434        9.869        0.120      333.108        2.207      875.409
01/14/2021  08:30:00      -10.639       -5.008        4.478       14.577       15.701       13.510      212.475      246.535      182.515        0.040        0.032       11.759        4.385        0.139      333.293        2.514      875.421
01/14/2021  08:31:00      -19.598        7.119       -4.089       16.816       19.991       10.805      282.790      399.620      116.743        0.063        0.040       20.851        5.572        0.071      333.073        2.149      875.424
01/14/2021  08:32:00      -16.888       -7.161       -3.085       19.352       17.541       13.980      374.490      307.677      195.436        0.061        0.044       18.343        5.451        0.088      333.325        2.564      875.423
01/14/2021  08:33:00      -13.064       -2.243       -4.712       17.941       15.735       11.591      321.864      247.587      134.361        0.045        0.035       13.255        4.210        0.101      333.211        2.378      875.410
01/14/2021  08:34:00      -20.513      -10.243       -3.621       19.352       11.223       12.219      374.502      125.962      149.296        0.059        0.032       22.928        4.020        0.031      333.215        2.383      875.388
01/14/2021  08:35:00        0.841       -5.844       -5.993       19.980       11.393       12.855      399.200      129.793      165.244        0.038        0.035        5.904       11.346        3.693      333.338        2.588      875.380
01/14/2021  08:36:00       -8.778        7.683        5.756        9.775       12.225        8.638       95.548      149.447       74.615        0.024        0.016       11.665        6.823        0.342      333.264        2.466      875.390
01/14/2021  08:37:00       -9.541       19.095       -0.351       12.127        6.135        8.210      147.068       37.640       67.407        0.035        0.013       21.346        7.883        0.136      333.196        2.350      875.414
01/14/2021  08:38:00       -4.881       19.024        2.875       21.804       17.937        9.318      475.426      321.740       86.830        0.064        0.044       19.641       10.372        0.279      333.284        2.498      875.435
01/14/2021  08:39:00       13.516       37.105       -0.152       37.624       18.445       19.111     1415.542      340.231      365.219        0.184        0.106       39.490       22.306        0.319      333.406        2.700      875.458
01/14/2021  08:40:00       10.313       31.385       17.135       29.147       30.132       17.488      849.526      907.942      305.838        0.172        0.103       33.036       16.675        0.255      333.621        3.056      875.493
01/14/2021  08:41:00       30.898       21.397        6.595       39.494       43.320       27.425     1559.780     1876.628      752.142        0.282        0.209       37.583       19.506        0.269      333.697        3.181      875.522
01/14/2021  08:42:00       43.404       -5.090      -13.991       62.007       31.644       32.918     3844.884     1001.369     1083.584        0.402        0.296       43.701       35.795        0.671      333.622        3.057      875.539
01/14/2021  08:43:00       37.187       31.288       -7.627       36.055       50.185       27.316     1299.938     2518.500      746.149        0.349        0.228       48.598       24.592        0.256      333.711        3.206      875.559
01/14/2021  08:44:00       58.224       40.659       -9.433       50.265       36.405       31.396     2526.543     1325.340      985.727        0.498        0.242       71.016       30.030        0.179      333.647        3.099      875.565
01/14/2021  08:45:00       63.820        9.724      -27.774       61.704       53.056       31.780     3807.382     2814.903     1009.951        0.628        0.382       64.556       37.930        0.345      333.714        3.209      875.573
01/14/2021  08:46:00       76.068      -67.401      -28.443       58.643       36.679       29.272     3438.964     1345.334      856.877        0.839        0.282      101.633       34.879        0.118      333.655        3.112      875.583
01/14/2021  08:47:00      102.100      -46.652      -28.137       46.809       32.442       25.693     2191.122     1052.468      660.154        0.865        0.195      112.254       29.852        0.071      333.565        2.962      875.589
01/14/2021  08:48:00       44.089      -58.569      -22.946       62.823       24.846       22.696     3946.719      617.342      515.120        0.549        0.254       73.309       29.096        0.158      333.680        3.154      875.592
01/14/2021  08:49:00       22.548      -18.202       -0.019       55.362       30.864       31.327     3064.957      952.561      981.397        0.292        0.250       28.979       30.260        1.090      333.792        3.339      875.598
01/14/2021  08:50:00       84.360       -4.123      -25.896       64.949       44.603       35.237     4218.410     1989.390     1241.612        0.763        0.372       84.461       39.723        0.221      333.764        3.293      875.615
01/14/2021  08:51:00       73.511       18.477      -13.225       55.883       55.919       35.919     3122.882     3126.882     1290.140        0.673        0.377       75.797       38.898        0.263      333.514        2.878      875.642
01/14/2021  08:52:00       73.742       64.247      -17.263       56.806       34.739       31.587     3226.921     1206.786      997.744        0.765        0.272       97.804       31.663        0.105      333.627        3.066      875.667
01/14/2021  08:53:00      102.157       70.326      -18.634       57.986       32.525       28.446     3362.331     1057.895      809.202        1.048        0.261      124.024       34.880        0.079      333.575        2.980      875.694
01/14/2021  08:54:00       49.966       -9.278       -6.810       51.699       38.383       32.831     2672.781     1473.290     1077.845        0.393        0.261       50.820       30.239        0.354      333.736        3.245      875.707
01/14/2021  08:55:00       99.880      -10.668      -11.346       54.679       37.947       33.214     2989.796     1439.963     1103.142        0.787        0.277      100.448       35.176        0.123      333.667        3.131      875.728
01/14/2021  08:56:00       52.985        2.136      -21.438       64.301       49.473       35.263     4134.672     2447.620     1243.502        0.555        0.391       53.028       37.247        0.493      333.764        3.293      875.747
01/14/2021  08:57:00       35.562       -1.031       -5.415       61.606       45.116       38.630     3795.339     2035.438     1492.294        0.431        0.366       35.577       42.700        1.441      333.866        3.463      875.765
01/14/2021  08:58:00      110.634      -40.245      -52.812       68.437       51.005       39.669     4683.598     2601.554     1573.627        1.275        0.443      117.727       39.528        0.113      333.966        3.628      875.773
01/14/2021  08:59:00       77.158       -1.786      -18.419       66.377       38.244       41.713     4405.956     1462.595     1739.996        0.695        0.380       77.179       38.187        0.245      333.733        3.241      875.797
01/14/2021  09:00:00       69.290       -4.153      -11.638       50.756       43.602       38.858     2576.140     1901.153     1509.922        0.547        0.299       69.414       31.812        0.210      333.729        3.236      875.830
01/14/2021  09:01:00       78.658       18.758       -5.404       61.684       52.948       39.625     3804.929     2803.443     1570.145        0.737        0.409       80.864       37.963        0.220      333.871        3.469      875.860
01/14/2021  09:02:00       76.636      -25.263      -15.881       68.909       45.036       45.071     4748.506     2028.268     2031.386        0.778        0.440       80.692       46.891        0.338      333.949        3.601      875.889
01/14/2021  09:03:00      117.703      -34.238      -32.994       76.064       38.955       36.725     5785.688     1517.458     1348.700        1.238        0.433      122.582       45.557        0.138      333.648        3.100      875.898
01/14/2021  09:04:00      120.546      -54.350      -28.801       65.429       29.400       33.522     4280.989      864.334     1123.711        1.229        0.313      132.232       42.124        0.101      333.598        3.020      875.905
01/14/2021  09:05:00       66.684      -35.051      -26.468       83.818       56.313       35.985     7025.405     3171.182     1294.915        0.893        0.575       75.335       45.577        0.366      333.856        3.445      875.898
01/14/2021  09:06:00       91.986      -34.148      -43.192       59.785       42.294       35.167     3574.305     1788.759     1236.693        0.904        0.330       98.120       35.272        0.129      334.016        3.711      875.909
01/14/2021  09:07:00      103.409       -9.464      -28.723       62.011       35.800       36.176     3845.383     1281.634     1308.707        0.902        0.322      103.842       43.123        0.172      333.952        3.604      875.930
01/14/2021  09:08:00       99.600        7.560      -15.667       65.268       60.170       32.726     4259.934     3620.450     1070.958        0.959        0.448       99.887       34.319        0.118      333.822        3.389      875.945
01/14/2021  09:09:00       97.654       -7.934      -27.857       65.779       54.392       40.647     4326.842     2958.453     1652.177        0.965        0.447       97.976       43.522        0.197      334.019        3.716      875.972
01/14/2021  09:10:00      108.667      -12.151      -50.686       82.583       47.696       39.850     6819.875     2274.943     1587.993        1.260        0.534      109.344       37.727        0.119      334.058        3.781      875.997
01/14/2021  09:11:00       95.985      -12.083      -46.258       70.469       49.470       40.851     4965.905     2447.234     1668.793        1.029        0.454       96.742       43.064        0.198      334.055        3.775      876.009
01/14/2021  09:12:00      145.971      -58.268      -47.255       66.968       29.586       32.659     4484.722      875.328     1066.588        1.668        0.321      157.171       40.766        0.067      333.772        3.306      876.018
01/14/2021  09:13:00      106.830        2.923      -35.262       78.615       55.252       35.666     6180.306     3052.749     1272.045        1.158        0.525      106.870       39.473        0.136      333.985        3.658      876.016
01/14/2021  09:14:00       90.901       16.322      -17.505       65.289       59.407       33.085     4262.709     3529.208     1094.600        0.886        0.444       92.355       38.684        0.175      334.032        3.736      876.024
01/14/2021  09:15:00      160.161       94.163      -33.295       62.846       26.571       33.826     3949.670      706.020     1144.203        2.071        0.290      185.791       41.483        0.050      333.806        3.362      876.027
01/14/2021  09:16:00      167.957       75.619      -38.785       62.310       33.353       35.466     3882.575     1112.439     1257.837        2.084        0.313      184.195       38.344        0.043      333.974        3.639      876.041
01/14/2021  09:17:00       64.151        4.158      -21.198       62.842       48.084       30.204     3949.077     2312.108      912.297        0.588        0.359       64.286       38.132        0.352      334.126        3.892      876.045
01/14/2021  09:18:00       86.915       90.072       -6.859       66.552       35.292       39.731     4429.171     1245.551     1578.531        1.148        0.363      125.169       45.604        0.133      334.008        3.697      876.048
01/14/2021  09:19:00       78.590       44.077      -19.304       70.284       40.605       26.020     4939.860     1648.786      677.046        0.788        0.363       90.106       36.278        0.162      333.808        3.366      876.061
01/14/2021  09:20:00       66.727       21.472      -12.953       58.712       34.209       30.917     3447.096     1170.248      955.854        0.533        0.279       70.096       31.754        0.205      333.970        3.634      876.077
01/14/2021  09:21:00      119.550       12.874      -22.207       66.397       54.378       33.427     4408.540     2956.963     1117.349        1.172        0.424      120.241       40.567        0.114      333.944        3.590      876.099
01/14/2021  09:22:00      154.603       43.048      -37.830       62.922       28.385       33.870     3959.209      805.722     1147.185        1.655        0.296      160.484       41.726        0.068      333.973        3.638      876.138
01/14/2021  09:23:00       67.948       35.375      -22.088       65.020       50.751       33.674     4227.652     2575.643     1133.929        0.715        0.397       76.605       39.369        0.264      334.234        4.071      876.164
01/14/2021  09:24:00       56.376       53.363      -17.839       91.514       47.240       42.416     8374.889     2231.654     1799.097        0.937        0.620       77.627       58.284        0.564      334.226        4.059      876.173
01/14/2021  09:25:00      -28.587        1.050      -13.939       46.347       53.698       24.419     2148.000     2883.424      596.268        0.332        0.281       28.607       21.279        0.553      334.236        4.075      876.178
01/14/2021  09:26:00       52.101       35.228       -5.698       70.300       50.887       30.927     4942.132     2589.508      956.456        0.624        0.424       62.894       41.191        0.429      334.322        4.218      876.196
01/14/2021  09:27:00      144.821       74.927      -33.335       64.842       18.781       33.682     4204.445      352.736     1134.457        1.669        0.285      163.056       41.820        0.066      334.114        3.870      876.206
01/14/2021  09:28:00       25.988       23.358      -17.130       53.062       23.681       20.008     2815.534      560.800      400.324        0.264        0.189       34.943       30.082        0.741      334.214        4.039      876.213
01/14/2021  09:29:00        9.467        7.433      -22.135       60.168       34.672       32.138     3620.173     1202.146     1032.857        0.324        0.293       12.037       32.384        7.238      334.444        4.420      876.230
01/14/2021  09:30:00       52.519      -23.715      -18.321       73.338       48.423       37.064     5378.453     2344.789     1373.714        0.637        0.455       57.625       42.875        0.554      334.581        4.647      876.268
01/14/2021  09:31:00       49.011      -11.777      -14.411       62.831       57.836       40.476     3947.784     3344.960     1638.339        0.584        0.447       50.406       39.607        0.617      334.583        4.650      876.293
01/14/2021  09:32:00       14.916      -18.831       -5.689       45.575       42.653       30.596     2077.039     1819.256      936.110        0.272        0.242       24.023       21.213        0.780      334.503        4.519      876.316
01/14/2021  09:33:00       -8.154      -26.157      -17.040       63.278       54.243       34.855     4004.079     2942.352     1214.894        0.460        0.408       27.399       33.109        1.460      334.567        4.623      876.325
01/14/2021  09:34:00       26.314      -36.828      -30.218       55.320       65.054       27.302     3060.308     4232.081      745.385        0.550        0.402       45.263       24.819        0.301      334.565        4.620      876.340
01/14/2021  09:35:00       35.690      -21.264      -26.558       66.191       39.812       29.459     4381.235     1585.032      867.860        0.463        0.342       41.544       32.706        0.620      334.667        4.791      876.353
01/14/2021  09:36:00       13.027       11.807       -6.722       51.012       43.003       26.441     2602.252     1849.217      699.119        0.275        0.258       17.582       26.963        2.352      334.565        4.621      876.358
01/14/2021  09:37:00       64.705      -23.964      -21.486       71.626       56.811       41.421     5130.341     3227.541     1715.700        0.765        0.504       69.000       41.357        0.359      334.793        4.998      876.350
01/14/2021  09:38:00       67.309      -26.981      -35.193       66.376       65.131       39.372     4405.832     4242.088     1550.156        0.835        0.510       72.516       40.417        0.311      334.785        4.985      876.338
01/14/2021  09:39:00      122.215       32.729      -31.934       68.083       34.396       33.435     4635.333     1183.064     1117.917        1.198        0.347      126.521       40.376        0.102      334.466        4.456      876.339
01/14/2021  09:40:00       56.218      -31.187       -9.940       60.084       50.627       37.926     3610.041     2563.107     1438.350        0.592        0.381       64.290       29.203        0.206      334.828        5.058      876.338
01/14/2021  09:41:00      124.543      -65.158      -45.709       69.637       66.440       42.121     4849.328     4414.295     1774.203        1.644        0.552      140.558       40.138        0.082      334.664        4.784      876.333
01/14/2021  09:42:00       78.566       18.587      -23.523       58.705       57.682       35.065     3446.285     3327.240     1229.589        0.754        0.400       80.734       38.395        0.226      334.776        4.972      876.334
01/14/2021  09:43:00       82.817      -27.156      -20.945       58.946       52.647       31.593     3474.608     2771.661      998.098        0.764        0.362       87.155       31.753        0.133      334.821        5.048      876.336
01/14/2021  09:44:00      132.326      -85.095      -44.207       53.340       29.471       30.091     2845.193      868.539      905.481        1.566        0.231      157.326       35.170        0.050      334.427        4.392      876.343
01/14/2021  09:45:00      127.755      -55.842      -30.178       65.095       30.211       31.812     4237.390      912.675     1011.992        1.325        0.308      139.427       40.181        0.083      334.561        4.615      876.405
01/14/2021  09:46:00      135.713      -79.146      -49.214       67.726       59.239       33.502     4586.879     3509.265     1122.385        1.816        0.461      157.105       38.542        0.060      334.732        4.898      876.414
01/14/2021  09:47:00       97.388      -52.451      -23.299       57.802       30.245       35.487     3341.050      914.775     1259.336        0.915        0.276      110.614       29.796        0.073      334.864        5.119      876.416
01/14/2021  09:48:00      120.105      -52.367      -31.343       84.648       77.111       48.801     7165.320     5946.074     2381.528        1.682        0.775      131.024       57.328        0.191      334.925        5.219      876.426
01/14/2021  09:49:00      114.943      -56.593      -26.088       90.251       59.777       45.040     8145.175     3573.266     2028.563        1.542        0.687      128.120       45.462        0.126      334.850        5.094      876.451
01/14/2021  09:50:00       75.435       -7.911      -35.348       67.052       60.572       33.207     4496.022     3669.011     1102.688        0.813        0.463       75.849       31.677        0.174      334.893        5.166      876.496
01/14/2021  09:51:00        7.127      -17.611      -13.347       65.886       56.366       28.864     4341.004     3177.110      833.122        0.444        0.418       18.998       26.902        2.005      334.954        5.268      876.529
01/14/2021  09:52:00      104.045      -40.070      -27.704       84.528       44.585       37.730     7144.979     1987.789     1423.537        1.188        0.528      111.494       44.611        0.160      334.986        5.321      876.549
01/14/2021  09:53:00      115.671       34.840      -37.407       60.194       45.866       36.612     3623.280     2103.652     1340.428        1.153        0.353      120.804       39.724        0.108      334.723        4.884      876.584
01/14/2021  09:54:00       41.990      -39.109      -14.357       63.445       54.705       30.098     4025.267     2992.660      905.894        0.571        0.396       57.381       36.447        0.403      335.110        5.527      876.594
01/14/2021  09:55:00       71.309       31.677      -21.084       61.726       74.677       41.226     3810.060     5576.614     1699.595        0.881        0.554       78.028       30.735        0.155      335.371        5.961      876.597
01/14/2021  09:56:00       49.327      -19.030       -6.200       50.087       62.898       37.358     2508.718     3956.179     1395.634        0.535        0.393       52.870       32.357        0.375      335.278        5.805      876.582
01/14/2021  09:57:00      109.080      -92.019      -42.520       79.429       51.005       35.666     6308.973     2601.482     1272.078        1.618        0.509      142.709       43.619        0.093      334.972        5.297      876.566
01/14/2021  09:58:00      121.428       61.236      -25.052       79.781       56.164       37.727     6364.963     3154.403     1423.330        1.503        0.547      135.995       43.036        0.100      335.017        5.373      876.558
01/14/2021  09:59:00       71.163       19.672      -24.560       67.888       62.286       35.413     4608.831     3879.598     1254.068        0.790        0.487       73.832       35.474        0.231      335.392        5.995      876.554
01/14/2021  10:00:00       70.459      -29.629      -10.535       64.684       43.258       32.918     4183.963     1871.292     1083.574        0.654        0.357       76.435       28.501        0.139      335.314        5.865      876.564
01/14/2021  10:01:00       48.226      -17.886      -21.914       72.023       68.275       34.992     5187.283     4661.464     1224.412        0.710        0.554       51.436       38.842        0.570      335.256        5.769      876.596
01/14/2021  10:02:00       74.206      -11.516      -43.898       63.853       70.120       36.836     4077.148     4916.794     1356.917        0.896        0.518       75.094       37.087        0.244      335.480        6.143      876.620
01/14/2021  10:03:00      102.690       -6.325      -46.099       59.949       56.787       34.259     3593.831     3224.709     1173.659        1.035        0.400      102.884       37.216        0.131      335.377        5.970      876.643
01/14/2021  10:04:00       89.996      -33.062      -31.811       66.418       67.955       33.328     4411.342     4617.897     1110.730        1.017        0.507       95.876       34.970        0.133      335.372        5.963      876.659
01/14/2021  10:05:00       52.892      -45.202      -23.586       58.347       90.593       40.332     3404.327     8207.179     1626.673        0.931        0.662       69.575       41.659        0.359      335.284        5.816      876.670
01/14/2021  10:06:00       18.139      -64.831      -22.917       76.180       57.694       35.413     5803.391     3328.564     1254.096        0.772        0.519       67.321       40.138        0.355      335.456        6.101      876.675
01/14/2021  10:07:00      -62.300      -24.728       -8.222       28.198       34.385       20.848      795.146     1182.347      434.628        0.349        0.121       67.028       11.277        0.028      335.235        5.733      876.669
01/14/2021  10:08:00       -9.459      -40.200       -0.094       43.352       48.226       30.565     1879.364     2325.751      934.240        0.342        0.257       41.298       30.661        0.551      335.520        6.209      876.669
01/14/2021  10:09:00       20.613      -59.909      -18.087       52.629       46.638       26.169     2769.762     2175.065      684.792        0.498        0.281       63.357       23.738        0.140      335.567        6.287      876.671
01/14/2021  10:10:00        7.581      -27.835      -13.565       53.795       50.498       30.172     2893.906     2550.046      910.326        0.368        0.318       28.849       15.677        0.295      335.538        6.238      876.681
01/14/2021  10:11:00      113.560      -67.522      -40.756       74.358       87.465       38.594     5529.043     7650.065     1489.521        1.689        0.733      132.118       31.758        0.058      335.397        6.001      876.696
01/14/2021  10:12:00       92.233      -25.698      -10.105       88.296       88.153       60.654     7796.117     7771.003     3678.926        1.425        0.962       95.746       56.648        0.350      335.367        5.952      876.703
01/14/2021  10:13:00       96.146       31.856      -32.678       67.800       77.301       34.811     4596.857     5975.518     1211.796        1.155        0.589      101.286       33.687        0.111      335.275        5.801      876.718
01/14/2021  10:14:00       55.101       19.789      -27.870       60.835       75.281       31.747     3700.910     5667.247     1007.854        0.729        0.519       58.547       32.295        0.304      335.304        5.847      876.730
01/14/2021  10:15:00       20.605       16.601        1.896       44.615       50.780       24.792     1990.503     2578.639      614.656        0.294        0.259       26.461       17.216        0.423      335.572        6.296      876.734
01/14/2021  10:16:00       53.646     -112.502      -25.527       58.983       50.988       36.435     3478.959     2599.799     1327.502        1.179        0.370      124.638       35.391        0.081      335.524        6.215      876.739
01/14/2021  10:17:00      136.619     -121.051      -35.741       44.517       44.651       28.651     1981.737     1993.728      820.872        1.969        0.240      182.533       21.201        0.013      335.243        5.747      876.754
01/14/2021  10:18:00       88.387      -70.249      -23.112       68.082       49.286       38.044     4635.110     2429.096     1447.336        1.089        0.426      112.903       44.585        0.156      335.315        5.868      876.764
01/14/2021  10:19:00       71.207      -95.313      -17.093       45.055       61.660       30.269     2029.916     3801.958      916.242        1.060        0.337      118.975       28.776        0.058      335.520        6.209      876.782
01/14/2021  10:20:00      109.200     -121.500      -36.223       54.698       35.642       24.029     2991.903     1270.335      577.389        1.642        0.242      163.361       27.823        0.029      335.382        5.978      876.786
01/14/2021  10:21:00       84.158     -145.607      -23.365       56.122       51.010       34.590     3149.700     2601.997     1196.470        1.789        0.347      168.178       38.733        0.053      335.261        5.777      876.784
01/14/2021  10:22:00       61.095      -44.483      -21.935       61.642       45.544       34.693     3799.784     2074.233     1203.576        0.663        0.354       75.574       28.554        0.143      335.533        6.230      876.779
01/14/2021  10:23:00       -4.478      -60.204       -8.925       46.180       45.170       30.266     2132.584     2040.291      916.020        0.441        0.254       60.370       26.355        0.191      335.760        6.609      876.772
01/14/2021  10:24:00      -42.463      -26.716      -12.439       41.366       33.733       25.829     1711.146     1137.914      667.113        0.309        0.176       50.168       16.946        0.114      335.625        6.384      876.762
01/14/2021  10:25:00       30.143      -63.760      -20.979       58.475       51.908       36.900     3419.275     2694.478     1361.646        0.644        0.374       70.527       35.259        0.250      335.776        6.636      876.758
01/14/2021  10:26:00        5.786      -72.689       -7.486       55.843       45.722       32.023     3118.415     2090.491     1025.481        0.580        0.312       72.919       25.363        0.121      335.929        6.890      876.752
01/14/2021  10:27:00       23.962      -87.741      -12.563       56.936       57.758       33.103     3241.696     3336.030     1095.823        0.805        0.384       90.954       31.869        0.123      335.743        6.580      876.754
01/14/2021  10:28:00       44.315     -100.435       -7.252       44.345       48.565       31.825     1966.502     2358.569     1012.832        0.872        0.267      109.777       26.453        0.058      335.520        6.208      876.754
01/14/2021  10:29:00      104.592      -91.155      -40.788       72.662       92.235       33.458     5279.732     8507.240     1119.409        1.791        0.745      138.740       46.099        0.110      335.616        6.367      876.743
01/14/2021  10:30:00      120.958     -118.404      -29.940       57.149       37.842       33.468     3265.959     1431.983     1120.087        1.768        0.291      169.264       36.568        0.047      335.392        5.994      876.733
01/14/2021  10:31:00      103.192      -94.929      -28.277       53.975       54.488       29.108     2913.270     2968.888      847.298        1.359        0.336      140.214       27.862        0.039      335.577        6.303      876.710
01/14/2021  10:32:00      -18.374      -70.802      -18.727       53.221       56.003       29.048     2832.423     3136.349      843.772        0.626        0.341       73.147       16.678        0.052      335.876        6.801      876.692
01/14/2021  10:33:00       42.915      -65.921      -18.500       46.511       63.858       31.959     2163.258     4077.831     1021.364        0.689        0.363       78.659       30.773        0.153      336.019        7.041      876.689
01/14/2021  10:34:00       71.717     -138.580      -41.146       44.410       29.128       25.823     1972.237      848.415      666.830        1.476        0.174      156.037       27.272        0.031      335.366        5.950      876.685
01/14/2021  10:35:00       85.602      -71.610      -30.526       56.853       59.250       32.401     3232.282     3510.569     1049.808        1.059        0.390      111.606       33.889        0.092      335.851        6.761      876.686
01/14/2021  10:36:00       47.247      -41.705      -25.625       37.971       57.136       27.087     1441.828     3264.566      733.694        0.503        0.272       63.021       29.611        0.221      336.031        7.060      876.697
01/14/2021  10:37:00       29.004      -55.764      -19.367       40.846       55.661       25.433     1668.357     3098.138      646.848        0.487        0.271       62.856       20.358        0.105      336.135        7.235      876.693
01/14/2021  10:38:00       99.164      -94.724      -37.866       66.507       43.698       31.785     4423.235     1909.490     1010.278        1.379        0.367      137.136       32.031        0.055      335.952        6.929      876.695
01/14/2021  10:39:00       38.008      -85.119      -20.603       47.954       53.959       38.144     2299.601     2911.584     1454.973        0.789        0.333       93.219       33.217        0.127      335.894        6.831      876.687
01/14/2021  10:40:00       44.799      -55.814      -39.534       41.770       64.369       27.768     1744.762     4143.422      771.050        0.667        0.333       71.569       23.952        0.112      336.018        7.038      876.686
01/14/2021  10:41:00      -20.066      -43.918       -2.084       48.540       46.507       28.164     2356.175     2162.909      793.199        0.382        0.266       48.285       17.631        0.133      336.011        7.026      876.680
01/14/2021  10:42:00       72.483     -143.873      -37.204       48.083       22.410       28.672     2311.995      502.199      822.094        1.549        0.182      161.100       24.229        0.023      335.654        6.434      876.678
01/14/2021  10:43:00       45.590      -50.180      -21.401       49.255       55.333       32.563     2426.028     3061.689     1060.343        0.580        0.327       67.797       27.494        0.164      336.074        7.133      876.675
01/14/2021  10:44:00        3.258      -27.518      -12.998       60.356       58.474       29.947     3642.853     3419.156      896.839        0.445        0.398       27.710       21.234        0.587      336.029        7.056      876.670
01/14/2021  10:45:00       22.812        8.552       -1.838       38.914       50.122       27.319     1514.279     2512.170      746.332        0.268        0.239       24.362       17.098        0.493      336.047        7.086      876.675
01/14/2021  10:46:00        9.499      -65.404      -13.384       42.862       63.949       28.485     1837.144     4089.519      811.413        0.564        0.337       66.090       22.779        0.119      336.214        7.367      876.674
01/14/2021  10:47:00       15.254      -23.054      -27.144       79.066       35.749       30.267     6251.507     1277.967      916.110        0.497        0.422       27.643       26.115        0.892      336.231        7.394      876.653
01/14/2021  10:48:00       87.896     -109.461      -34.006       89.064       68.653       37.062     7932.398     4713.185     1373.565        1.744        0.701      140.383       49.368        0.124      335.884        6.812      876.660
01/14/2021  10:49:00      114.435     -144.718      -34.165       43.032       42.241       22.544     1851.786     1784.269      508.210        1.967        0.207      184.496       24.501        0.018      335.775        6.632      876.667
01/14/2021  10:50:00       89.009      -89.709      -39.154       50.871       38.485       20.766     2587.875     1481.090      431.230        1.100        0.225      126.374       19.902        0.025      335.795        6.665      876.673
01/14/2021  10:51:00       53.526      -39.015       -6.386       58.989       38.719       30.631     3479.756     1499.179      938.234        0.517        0.296       66.236       25.214        0.145      336.082        7.145      876.678
01/14/2021  10:52:00       43.045      -44.262       -5.604       35.854       60.512       24.338     1285.521     3661.712      592.324        0.469        0.277       61.741       23.831        0.149      336.251        7.428      876.674
01/14/2021  10:53:00       86.801      -73.855      -18.473       58.871       65.931       35.836     3465.808     4346.889     1284.247        1.121        0.455      113.969       31.802        0.078      336.092        7.162      876.668
01/14/2021  10:54:00       25.014      -22.483        0.563       71.303       77.383       38.865     5084.112     5988.105     1510.478        0.685        0.629       33.633       31.334        0.868      336.240        7.408      876.658
01/14/2021  10:55:00       26.481       24.526       -7.946       49.620       65.942       36.001     2462.098     4348.392     1296.107        0.473        0.405       36.094       27.730        0.590      336.307        7.521      876.646
01/14/2021  10:56:00      162.221       40.050      -28.521       74.999       41.846       33.199     5624.826     1751.062     1102.159        1.860        0.424      167.092       36.506        0.048      336.053        7.095      876.634
01/14/2021  10:57:00      103.692      -10.642      -26.843       87.713      130.555       34.343     7693.496    17044.690     1179.431        1.875        1.296      104.237       47.052        0.204      335.991        6.992      876.613
01/14/2021  10:58:00       81.654      -97.311      -35.957       48.241       49.955       29.371     2327.242     2495.483      862.681        1.156        0.284      127.031       29.310        0.053      335.863        6.779      876.597
01/14/2021  10:59:00       52.769       47.283       -5.622       41.148       56.887       19.892     1693.170     3236.155      395.675        0.519        0.266       70.854       16.627        0.055      336.100        7.176      876.585
01/14/2021  11:00:00       49.030      -42.105      -28.002       50.283       65.509       24.872     2528.425     4291.466      618.623        0.620        0.372       64.628       26.401        0.167      336.259        7.441      876.573
01/14/2021  11:01:00       75.624      -58.691      -17.012       62.510       80.025       42.353     3907.557     6403.962     1793.802        1.078        0.605       95.726       36.899        0.149      336.191        7.327      876.559
01/14/2021  11:02:00       99.520      -58.710      -39.501       69.981       98.189       35.990     4897.285     9641.170     1295.278        1.537        0.792      115.547       22.602        0.038      336.142        7.243      876.562
01/14/2021  11:03:00       93.751      -72.457      -35.024       63.881       73.547       46.067     4080.734     5409.180     2122.208        1.344        0.581      118.487       42.855        0.131      336.206        7.352      876.555
01/14/2021  11:04:00       96.092      -22.592       -5.641       66.155       73.698       48.812     4376.502     5431.338     2382.609        1.098        0.610       98.712       43.482        0.194      336.318        7.538      876.551
01/14/2021  11:05:00       85.373        1.091       -8.618       90.583       65.614       39.936     8205.298     4305.230     1594.869        1.073        0.705       85.380       46.435        0.296      336.305        7.517      876.524
01/14/2021  11:06:00       46.288       -7.792       -4.771       49.693       50.867       36.431     2469.392     2587.495     1327.246        0.430        0.319       46.939       31.612        0.454      336.443        7.749      876.504
01/14/2021  11:07:00       64.508       39.195      -10.898       61.657       56.751       28.076     3801.547     3220.706      788.254        0.681        0.391       75.482       14.188        0.035      336.336        7.571      876.497
01/14/2021  11:08:00       12.516      -15.593      -26.077       48.329       40.302       24.428     2335.684     1624.276      596.746        0.282        0.228       19.995       21.217        1.126      336.534        7.899      876.485
01/14/2021  11:09:00       61.795      -69.202      -26.899       41.807       54.664       26.195     1747.788     2988.179      686.181        0.738        0.271       92.777       20.043        0.047      336.185        7.317      876.460
01/14/2021  11:10:00       47.239       47.994       -2.997       43.294       37.360       25.109     1874.331     1395.800      630.485        0.422        0.195       67.342       19.508        0.084      336.503        7.848      876.440
01/14/2021  11:11:00       66.028       54.621       -8.882       45.298       22.378       25.467     2051.934      500.775      648.556        0.531        0.160       85.692       23.833        0.077      336.263        7.448      876.428
01/14/2021  11:12:00       66.810       38.841      -14.480       67.817       56.577       31.528     4599.087     3200.996      994.015        0.749        0.440       77.280       28.040        0.132      336.686        8.154      876.393
01/14/2021  11:13:00       89.610      -79.954      -22.122       82.312       82.463       45.642     6775.286     6800.191     2083.208        1.528        0.783      120.094       51.837        0.186      336.325        7.550      876.359
01/14/2021  11:14:00       88.229       29.940      -31.258       64.608       83.935       39.611     4174.180     7045.006     1569.063        1.122        0.639       93.171       26.836        0.083      336.227        7.387      876.331
01/14/2021  11:15:00       45.304       52.551       -3.868       53.650       36.516       33.014     2878.334     1333.447     1089.892        0.506        0.265       69.384       34.216        0.243      336.346        7.586      876.313
01/14/2021  11:16:00       24.052       14.595      -11.096       50.254       56.560       33.534     2525.449     3199.018     1124.522        0.388        0.342       28.134       32.467        1.332      336.485        7.818      876.293
01/14/2021  11:17:00       58.264       41.147      -13.664       70.980       59.127       29.728     5038.098     3496.032      883.736        0.734        0.471       71.329       34.243        0.230      336.388        7.654      876.286
01/14/2021  11:18:00      103.840     -125.588      -38.796       38.541       36.797       21.777     1485.397     1353.989      474.254        1.569        0.166      162.957       21.389        0.017      336.160        7.275      876.279
01/14/2021  11:19:00       83.996     -104.989      -26.782       38.849       46.816       28.443     1509.282     2191.712      808.998        1.165        0.225      134.455       28.874        0.046      336.289        7.491      876.264
01/14/2021  11:20:00       90.562      -76.309      -18.248       33.662       51.962       29.708     1133.137     2700.026      882.578        0.954        0.236      118.425       24.701        0.044      336.192        7.329      876.250
01/14/2021  11:21:00       65.519        7.260      -34.902       49.289       41.853       30.193     2429.367     1751.680      911.589        0.533        0.255       65.920       29.836        0.205      336.483        7.813      876.238
01/14/2021  11:22:00      -41.421      -17.781        6.699       26.893       27.766       17.993      723.215      770.948      323.764        0.195        0.091       45.076       11.716        0.068      336.751        8.263      876.208
01/14/2021  11:23:00       -1.010      -46.784        1.759       32.908       42.618       29.079     1082.921     1816.322      845.573        0.297        0.187       46.795       28.763        0.378      336.964        8.619      876.188
01/14/2021  11:24:00        3.990      -23.714      -13.044       28.345       28.412       18.789      803.428      807.255      353.036        0.136        0.098       24.047       14.489        0.363      336.911        8.530      876.180
01/14/2021  11:25:00       16.169       25.000       -6.368       40.030       33.399       19.294     1602.376     1115.516      372.250        0.201        0.155       29.773       16.524        0.308      336.860        8.446      876.158
01/14/2021  11:26:00        3.257        6.601        7.865       32.067       34.291       18.233     1028.292     1175.866      332.435        0.133        0.127        7.361       19.086        6.723      337.102        8.850      876.137
01/14/2021  11:27:00       42.421       69.363       -0.190       25.520       52.233       22.154      651.278     2728.247      490.814        0.524        0.194       81.306       17.266        0.045      336.747        8.258      876.118
01/14/2021  11:28:00      -22.090       30.067       -4.795       39.544       45.194       27.228     1563.737     2042.454      741.384        0.288        0.217       37.309       13.176        0.125      337.004        8.688      876.087
01/14/2021  11:29:00       37.193       17.147       -1.759       52.755       37.027       29.378     2783.106     1371.023      863.067        0.335        0.251       40.955       23.417        0.327      336.995        8.671      876.052
01/14/2021  11:30:00      124.099       54.664      -24.361       71.314       54.204       32.535     5085.758     2938.039     1058.515        1.403        0.454      135.605       31.763        0.055      336.701        8.179      876.028
01/14/2021  11:31:00       79.643       57.537       -9.457       60.840       53.773       29.922     3701.457     2891.539      895.325        0.861        0.374       98.252       22.497        0.052      337.009        8.694      876.006
01/14/2021  11:32:00       19.283       -0.202       -6.835       59.235       58.056       39.874     3508.816     3370.462     1589.905        0.444        0.423       19.284       31.290        2.633      337.196        9.007      875.978
01/14/2021  11:33:00      105.808     -109.331      -49.136       54.539       76.651       30.276     2974.535     5875.306      916.620        1.766        0.488      152.147       27.154        0.032      336.683        8.149      875.955
01/14/2021  11:34:00      104.813      -68.147      -32.733       57.355       77.142       46.945     3289.541     5950.860     2203.868        1.407        0.572      125.019       39.719        0.101      336.698        8.174      875.929
01/14/2021  11:35:00       82.007       49.419      -30.210       55.507       81.052       42.430     3081.041     6569.460     1800.284        1.076        0.573       95.747       35.333        0.136      336.655        8.103      875.913
01/14/2021  11:36:00        2.891      -25.232      -12.501       45.727       57.116       23.284     2090.960     3262.287      542.140        0.335        0.295       25.397       14.297        0.317      336.923        8.551      875.897
01/14/2021  11:37:00       78.933       83.485      -15.139       68.749       50.869       21.575     4726.462     2587.641      465.500        1.060        0.389      114.892       18.208        0.025      336.620        8.045      875.870
01/14/2021  11:38:00       74.513       96.902       -3.594       40.732       31.653       19.617     1659.099     1001.921      384.812        0.900        0.152      122.238       16.735        0.019      336.563        7.949      875.850
01/14/2021  11:39:00       43.173       73.647        0.348       33.200       32.960       24.537     1102.268     1086.357      602.053        0.504        0.140       85.368       22.191        0.068      336.836        8.405      875.827
01/14/2021  11:40:00       36.336      -25.723      -23.602       43.116       44.535       21.718     1858.987     1983.351      471.660        0.343        0.216       44.520       15.951        0.128      337.107        8.858      875.802
01/14/2021  11:41:00        8.021       37.736        4.600       28.582       42.007       27.056      816.913     1764.606      732.044        0.241        0.166       38.579       18.425        0.228      337.238        9.077      875.776
01/14/2021  11:42:00       -7.999      -15.176       -3.772       45.056       50.614       29.743     2029.999     2561.734      884.672        0.289        0.274       17.155       30.502        3.161      337.443        9.421      875.735
01/14/2021  11:43:00       31.708       -5.679      -15.192       35.940       41.296       29.741     1291.653     1705.335      884.513        0.257        0.194       32.212       24.870        0.596      337.194        9.003      875.685
01/14/2021  11:44:00       77.225      -76.788      -24.644       62.314       39.261       31.733     3883.053     1541.395     1006.988        0.945        0.322      108.904       39.821        0.134      336.947        8.593      875.659
01/14/2021  11:45:00       61.038      -61.005      -18.788       47.080       64.664       35.059     2216.547     4181.482     1229.145        0.771        0.381       86.297       30.036        0.121      337.009        8.695      875.646
01/14/2021  11:46:00      122.358       62.765      -24.069       63.480       47.867       33.339     4029.734     2291.270     1111.476        1.346        0.372      137.517       16.382        0.014      336.868        8.458      875.653
01/14/2021  11:47:00       31.056       19.654       -3.740       57.616       68.074       31.618     3319.619     4634.016      999.695        0.516        0.448       36.752       32.419        0.778      337.232        9.066      875.652
01/14/2021  11:48:00       86.496      -28.281      -48.225       55.494       70.136       36.084     3079.585     4919.096     1302.030        0.995        0.465       91.002       29.079        0.102      337.114        8.869      875.630
01/14/2021  11:49:00       82.165     -115.198      -32.916       55.887       32.759       31.514     3123.332     1073.169      993.119        1.315        0.259      141.498       26.783        0.036      336.658        8.108      875.600
01/14/2021  11:50:00       55.095      -99.337      -32.873       40.228       24.940       25.491     1618.316      622.017      649.772        0.844        0.145      113.593       23.560        0.043      336.691        8.162      875.561
01/14/2021  11:51:00       19.131      -82.288      -27.755       23.907       38.819       24.271      571.539     1506.923      589.064        0.529        0.133       84.482       16.962        0.040      336.745        8.254      875.544
01/14/2021  11:52:00       40.987       61.532       -1.420       33.950       35.315       19.871     1152.626     1247.153      394.854        0.413        0.140       73.933       19.139        0.067      336.980        8.647      875.531
01/14/2021  11:53:00       60.140       87.999        4.207       39.271       44.743       31.944     1542.199     2001.950     1020.406        0.797        0.228      106.587       22.858        0.046      337.150        8.930      875.520
01/14/2021  11:54:00      -31.583      -18.474        7.185       34.781       30.993       27.011     1209.699      960.578      729.606        0.214        0.145       36.589       10.407        0.081      337.276        9.141      875.515
01/14/2021  11:55:00       12.073      -34.089      -16.237       59.458       39.841       23.931     3535.202     1587.326      572.706        0.363        0.285       36.164       20.633        0.326      337.068        8.791      875.510
01/14/2021  11:56:00       58.764       16.590      -15.149       48.704       39.040       25.485     2372.088     1524.132      649.467        0.425        0.227       61.061       21.892        0.129      337.236        9.075      875.494
01/14/2021  11:57:00      168.333       57.565      -27.639       52.625       48.384       29.799     2769.349     2341.055      887.967        1.920        0.300      177.903       22.483        0.016      337.191        8.998      875.496
01/14/2021  11:58:00      127.301       80.666      -16.802       49.819       27.828       26.206     2481.932      774.394      686.768        1.347        0.197      150.707       27.394        0.033      337.034        8.738      875.500
01/14/2021  11:59:00       60.103       65.716      -15.649       47.081       26.370       22.398     2216.632      695.398      501.683        0.579        0.171       89.056       26.233        0.087      336.943        8.584      875.485
01/14/2021  12:00:00       77.136       77.543       -9.405       41.721       27.636       26.163     1740.637      763.766      684.514        0.762        0.159      109.375       22.179        0.041      336.946        8.589      875.470
01/14/2021  12:01:00       73.324       96.753      -13.207       48.917       41.347       26.347     2392.920     1709.552      694.189        0.985        0.240      121.398       28.934        0.057      336.986        8.656      875.448
01/14/2021  12:02:00       30.338      102.981       -3.130       33.064       42.559       25.096     1093.237     1811.302      629.807        0.753        0.177      107.356       25.372        0.056      337.127        8.892      875.422
01/14/2021  12:03:00       19.077       66.751       -6.548       38.022       44.397       22.004     1445.646     1971.057      484.164        0.438        0.195       69.424       17.188        0.061      337.337        9.242      875.391
01/14/2021  12:04:00       35.161      -39.240      -12.437       50.172       46.263       31.145     2517.240     2140.223      970.030        0.428        0.281       52.689       27.043        0.263      337.364        9.289      875.364
01/14/2021  12:05:00       71.133      -68.555      -21.745       53.045       49.176       27.493     2813.748     2418.309      755.882        0.811        0.299       98.791       30.578        0.096      337.282        9.151      875.338
01/14/2021  12:06:00       58.295      -55.615      -23.003       40.915       51.860       26.856     1674.044     2689.431      721.238        0.605        0.254       80.569       26.659        0.109      337.037        8.741      875.320
01/14/2021  12:07:00       95.582       56.339      -13.455       57.081       56.116       29.843     3258.268     3149.055      890.620        0.989        0.365      110.950       26.788        0.058      337.415        9.374      875.304
01/14/2021  12:08:00       45.159       68.916       -5.976       38.041       52.751       26.719     1447.139     2782.642      713.920        0.588        0.247       82.394       21.730        0.070      337.390        9.331      875.289
01/14/2021  12:09:00       18.615       69.748        8.363       30.655       36.495       22.703      939.725     1331.888      515.412        0.403        0.139       72.189       17.475        0.059      337.360        9.281      875.283
01/14/2021  12:10:00       68.166       90.983        6.703       42.104       33.232       25.534     1772.737     1104.382      651.988        0.825        0.176      113.686       17.633        0.024      337.598        9.680      875.279
01/14/2021  12:11:00       38.955       23.175       -3.995       44.478       26.834       25.141     1978.262      720.066      632.045        0.270        0.167       45.328       21.963        0.235      337.585        9.659      875.262
01/14/2021  12:12:00       80.255       51.717       -9.830       49.116       22.312       30.368     2412.429      497.821      922.222        0.652        0.192       95.475       34.317        0.129      337.395        9.340      875.259
01/14/2021  12:13:00       17.464       29.464       -4.321       21.405       31.803       16.378      458.175     1011.400      268.228        0.146        0.087       34.251       15.087        0.194      337.272        9.135      875.237
01/14/2021  12:14:00       41.182       42.450       -0.648       33.732       22.214       18.874     1137.863      493.462      356.221        0.274        0.099       59.144       17.187        0.084      337.305        9.190      875.225
01/14/2021  12:15:00       57.846       57.894        3.339       50.311       30.103       25.857     2531.230      906.205      668.596        0.541        0.205       81.840       29.440        0.129      337.395        9.340      875.204
01/14/2021  12:16:00        3.579        0.936      -15.831       54.409       54.648       35.800     2960.355     2986.363     1281.674        0.374        0.361        3.699       28.457       59.188      337.768        9.966      875.181
01/14/2021  12:17:00       20.135      -50.379       -9.916       48.856       62.504       26.402     2386.950     3906.694      697.066        0.501        0.350       54.253       15.328        0.080      337.535        9.575      875.165
01/14/2021  12:18:00       61.409      -95.456      -24.800       47.320       34.108       30.503     2239.153     1163.326      930.436        0.891        0.217      113.503       27.149        0.057      337.462        9.451      875.150
01/14/2021  12:19:00       28.366      -34.930      -19.513       46.447       47.023       20.809     2157.363     2211.179      432.999        0.360        0.240       44.997       23.693        0.277      337.595        9.675      875.136
01/14/2021  12:20:00       18.565       10.955       -6.869       25.874       30.749       20.578      669.456      945.507      423.436        0.127        0.102       21.556        9.142        0.180      337.669        9.798      875.135
01/14/2021  12:21:00       22.969       54.981       -0.960       26.166       20.980       18.947      684.658      440.169      358.994        0.252        0.074       59.586       17.277        0.084      337.828       10.066      875.133
01/14/2021  12:22:00      -13.399       -9.635        0.526       26.112       41.536       25.375      681.833     1725.207      643.867        0.166        0.153       16.504       23.075        1.955      338.024       10.394      875.132
01/14/2021  12:23:00       66.337       67.370       -0.250       74.318       40.608       32.541     5523.233     1648.993     1058.931        0.858        0.412       94.548       34.925        0.136      337.624        9.724      875.144
01/14/2021  12:24:00      134.854       74.910      -27.816       28.520       26.791       19.763      813.376      717.753      390.562        1.325        0.096      154.263       10.581        0.005      337.344        9.255      875.162
01/14/2021  12:25:00      105.400       73.241      -21.729       29.353       26.730       16.420      861.604      714.501      269.625        0.940        0.092      128.349       13.413        0.011      337.308        9.194      875.164
01/14/2021  12:26:00       30.208       34.698      -20.205       36.542       39.179       33.836     1335.318     1534.967     1144.903        0.327        0.201       46.005       22.507        0.239      337.610        9.702      875.157
01/14/2021  12:27:00       59.989       73.059       -4.265       32.055       20.607       20.428     1027.550      424.644      417.323        0.541        0.093       94.532       16.213        0.029      337.538        9.579      875.147
01/14/2021  12:28:00       26.272       40.802        6.487       25.903       32.029       23.994      670.955     1025.829      575.718        0.233        0.114       48.529       14.424        0.088      337.772        9.971      875.135
01/14/2021  12:29:00       22.382       24.417        2.170       42.262       24.359       21.571     1786.070      593.357      465.288        0.197        0.142       33.123       21.733        0.430      337.761        9.953      875.125
01/14/2021  12:30:00       40.723       45.391        1.778       52.250       42.091       23.681     2730.066     1771.662      560.797        0.439        0.253       60.981       23.488        0.148      337.781        9.987      875.122
01/14/2021  12:31:00       14.911       20.299       -8.512       58.410       72.019       33.297     3411.749     5186.781     1108.683        0.520        0.485       25.187       18.980        0.568      337.976       10.314      875.113
01/14/2021  12:32:00       71.928      -95.840      -25.498       48.541       58.260       32.935     2356.207     3394.261     1084.690        1.092        0.342      119.829       25.323        0.045      337.684        9.824      875.113
01/14/2021  12:33:00       60.637      -92.245      -20.152       30.474       36.660       33.716      928.677     1343.980     1136.782        0.800        0.170      110.390       21.157        0.037      337.598        9.680      875.103
01/14/2021  12:34:00       42.920      -78.828      -23.616       20.479        9.746        9.864      419.397       94.975       97.291        0.461        0.031       89.755        7.489        0.007      337.438        9.413      875.091
01/14/2021  12:35:00       32.390      -40.265       -6.239       29.528       19.560       18.553      871.917      382.610      344.216        0.215        0.080       51.675       16.613        0.103      337.652        9.769      875.080
01/14/2021  12:36:00       25.169      -35.115       -6.326       32.516       26.166       23.651     1057.307      684.639      559.376        0.210        0.115       43.204       20.240        0.219      337.907       10.197      875.066
01/14/2021  12:37:00       31.980      -58.041       -7.853       25.901       33.412       21.948      670.878     1116.341      481.700        0.336        0.113       66.268       15.658        0.056      337.924       10.228      875.053
01/14/2021  12:38:00       61.884       30.212      -22.425       58.022       63.090       36.574     3366.558     3980.359     1337.673        0.696        0.434       68.866       31.887        0.214      338.004       10.361      875.036
01/14/2021  12:39:00       78.393       22.153      -14.469       67.244       82.442       34.220     4521.762     6796.749     1170.987        0.966        0.624       81.463       22.869        0.079      337.851       10.104      875.023
01/14/2021  12:40:00      110.526       78.510      -15.620       54.962       33.130       28.716     3020.805     1097.594      824.637        1.178        0.247      135.572       27.798        0.042      337.756        9.944      875.009
01/14/2021  12:41:00      143.568       64.682      -29.679       47.722       38.210       22.097     2277.359     1460.037      488.290        1.495        0.211      157.466       18.303        0.014      337.702        9.854      874.985
01/14/2021  12:42:00       73.985       69.623      -10.170       46.704       47.973       28.640     2181.255     2301.434      820.224        0.786        0.265      101.593       27.789        0.075      337.958       10.283      874.958
01/14/2021  12:43:00       58.269       11.086       -0.390       58.139       68.038       27.445     3380.163     4629.158      753.217        0.614        0.438       59.314       21.596        0.133      338.169       10.639      874.926
01/14/2021  12:44:00       58.985       -2.403       -6.771       69.724       79.967       34.814     4861.465     6394.702     1212.027        0.800        0.623       59.034       17.321        0.086      338.054       10.445      874.916
01/14/2021  12:45:00       71.003      -60.181      -26.904       62.971       92.423       43.594     3965.303     8541.928     1900.448        1.189        0.720       93.076       31.310        0.113      337.806       10.029      874.929
01/14/2021  12:46:00       62.418      -51.975      -30.013       54.603       76.830       32.334     2981.535     5902.905     1045.514        0.871        0.496       81.224       26.195        0.104      337.890       10.170      874.895
01/14/2021  12:47:00       92.129     -114.193      -30.341       32.492       44.856       19.597     1055.725     2012.048      384.040        1.295        0.173      146.723       15.114        0.011      337.660        9.784      874.887
01/14/2021  12:48:00       79.168      -87.751      -28.339       38.026       29.889       30.728     1445.964      893.325      944.228        0.903        0.164      118.186       23.005        0.038      337.627        9.728      874.863
01/14/2021  12:49:00       43.700      -27.318      -22.027       23.862       54.802       16.722      569.407     3003.254      279.619        0.350        0.193       51.536        8.860        0.030      337.696        9.844      874.849
01/14/2021  12:50:00      -10.938        7.551       -5.411       13.208       30.537       17.139      174.451      932.504      293.742        0.080        0.070       13.291        8.747        0.433      338.195       10.681      874.833
01/14/2021  12:51:00      -19.375       -0.106       -2.675       26.725       18.358       16.846      714.241      337.032      283.779        0.086        0.067       19.376        9.747        0.253      338.452       11.113      874.813
01/14/2021  12:52:00       16.467        6.888        0.792       29.978       24.856       19.622      898.694      617.799      385.015        0.111        0.095       17.850       17.648        0.978      338.477       11.155      874.797
01/14/2021  12:53:00        0.167       10.589       -4.266       31.986       16.062       12.298     1023.077      257.975      151.236        0.078        0.072       10.590        7.451        0.495      338.264       10.797      874.769
01/14/2021  12:54:00        2.750      -27.427       -4.476       27.480       45.048       19.341      755.170     2029.309      374.084        0.197        0.158       27.565       10.708        0.151      338.305       10.867      874.754
01/14/2021  12:55:00       68.798       63.240        1.820       34.939       34.361       29.650     1220.736     1180.676      879.136        0.601        0.164       93.447       23.517        0.063      338.036       10.415      874.750
01/14/2021  12:56:00       99.517       80.622       -9.016       51.559       32.099       20.212     2658.298     1030.372      408.531        1.029        0.205      128.077       20.744        0.026      337.896       10.179      874.735
01/14/2021  12:57:00       40.140       46.877       -7.820       43.929       37.959       25.086     1929.721     1440.856      629.311        0.393        0.200       61.714       23.070        0.140      338.146       10.599      874.718
01/14/2021  12:58:00      105.036       60.453       -8.399       67.031       60.048       29.602     4493.196     3605.709      876.289        1.186        0.449      121.190       29.450        0.059      338.226       10.733      874.708
01/14/2021  12:59:00       78.804       45.517      -17.637       64.848       67.127       37.578     4205.322     4506.070     1412.140        0.936        0.506       91.005       29.980        0.109      338.287       10.836      874.703
01/14/2021  13:00:00       74.346      -72.705      -28.446       62.740       76.119       35.248     3936.366     5794.097     1242.395        1.130        0.549      103.988       39.313        0.143      338.137       10.583      874.698
01/14/2021  13:01:00       80.728      -83.793      -32.904       37.734       43.000       24.562     1423.843     1848.962      603.283        0.925        0.194      116.354       17.849        0.024      338.011       10.373      874.705
01/14/2021  13:02:00       35.714       18.385       -5.193       46.143       48.916       21.885     2129.207     2392.766      478.971        0.332        0.250       40.169       22.052        0.301      338.277       10.819      874.696
01/14/2021  13:03:00       62.795       37.888       -8.503       36.423       47.961       20.273     1326.609     2300.282      411.015        0.474        0.202       73.340       16.292        0.049      338.139       10.586      874.689
01/14/2021  13:04:00       69.801        1.221      -10.582       58.328       49.342       30.964     3402.133     2434.634      958.787        0.589        0.340       69.812       18.946        0.074      338.221       10.726      874.679
01/14/2021  13:05:00       59.336      -34.416      -11.357       66.109       69.025       46.337     4370.360     4764.444     2147.153        0.806        0.564       68.595       42.375        0.382      338.214       10.713      874.670
01/14/2021  13:06:00       46.906      -32.872       -8.590       57.509       77.736       39.899     3307.282     6042.834     1591.904        0.715        0.547       57.278       34.863        0.370      338.206       10.699      874.659
01/14/2021  13:07:00       78.622       40.916      -12.144       64.193       59.000       35.444     4120.689     3480.998     1256.263        0.843        0.443       88.632       25.321        0.082      338.327       10.901      874.653
01/14/2021  13:08:00      147.990       84.013      -12.301       62.198       49.599       27.896     3868.646     2460.080      778.206        1.811        0.355      170.175       30.480        0.032      338.090       10.502      874.650
01/14/2021  13:09:00      189.204       88.953      -20.473       42.153       40.418       23.314     1776.883     1633.634      543.542        2.404        0.198      209.072       19.249        0.008      338.044       10.426      874.657
01/14/2021  13:10:00       71.689       35.103       -8.343       60.121       43.388       27.001     3614.496     1882.529      729.073        0.633        0.311       79.822       23.256        0.085      338.258       10.786      874.656
01/14/2021  13:11:00       84.405       62.581      -10.492       57.286       50.134       31.747     3281.694     2513.393     1007.869        0.898        0.340      105.074       22.464        0.046      338.326       10.901      874.646
01/14/2021  13:12:00       91.818       37.529      -18.173       60.214       40.413       23.232     3625.693     1633.214      539.721        0.798        0.290       99.192       16.430        0.027      338.143       10.594      874.646
01/14/2021  13:13:00      117.670       62.231       -2.927       40.871       43.969       26.187     1670.414     1933.297      685.779        1.101        0.214      133.112       25.356        0.036      338.210       10.707      874.641
01/14/2021  13:14:00      117.781       56.281       -8.551       59.725       46.690       27.366     3567.126     2179.977      748.902        1.180        0.325      130.537       29.790        0.052      338.314       10.882      874.626
01/14/2021  13:15:00       81.839       67.570      -10.407       45.176       43.409       28.979     2040.881     1884.326      839.803        0.807        0.238      106.129       21.242        0.040      338.378       10.987      874.623
01/14/2021  13:16:00      118.502       78.509      -22.451       48.713       32.314       27.836     2372.942     1044.221      774.867        1.245        0.210      142.149       13.993        0.010      338.473       11.149      874.615
01/14/2021  13:17:00      125.709       61.817      -24.088       38.646       34.891       26.243     1493.548     1217.405      688.695        1.180        0.170      140.086       26.299        0.035      338.207       10.702      874.609
01/14/2021  13:18:00      105.143       56.043      -19.197       42.676       28.507       22.538     1821.225      812.623      507.957        0.885        0.157      119.146       21.593        0.033      338.158       10.617      874.597
01/14/2021  13:19:00       66.437       68.249       -8.315       45.965       17.707       26.248     2112.794      313.526      688.963        0.613        0.156       95.246       28.416        0.089      338.400       11.024      874.582
01/14/2021  13:20:00       96.637       48.848       -9.086       52.402       31.725       32.335     2745.965     1006.505     1045.530        0.830        0.240      108.281       32.909        0.092      338.666       11.473      874.562
01/14/2021  13:21:00       75.162       29.615      -13.181       55.257       28.031       32.647     3053.284      785.748     1065.799        0.580        0.245       80.786       25.577        0.100      338.418       11.056      874.542
01/14/2021  13:22:00      176.103       96.023       -9.388       94.659       59.139       37.551     8960.411     3497.472     1410.063        2.709        0.693      200.581       34.924        0.030      338.409       11.037      874.528
01/14/2021  13:23:00       72.419        5.416       -7.415       77.501       72.660       44.684     6006.357     5279.466     1996.675        0.930        0.664       72.621       37.010        0.260      338.674       11.485      874.513
01/14/2021  13:24:00       54.181      -18.177      -22.835       57.324       80.720       41.405     3286.008     6515.707     1714.382        0.765        0.576       57.149       32.085        0.315      338.529       11.243      874.498
01/14/2021  13:25:00      158.161       74.935      -17.960       67.558       38.463       25.867     4564.033     1479.394      669.098        1.883        0.336      175.015       27.672        0.025      338.295       10.847      874.487
01/14/2021  13:26:00      104.993       60.798      -17.911       64.262       31.166       30.812     4129.597      971.293      949.379        1.054        0.303      121.326       33.722        0.077      338.412       11.047      874.480
01/14/2021  13:27:00      156.115       85.662      -15.111       46.676       38.753       25.563     2178.603     1501.783      653.465        1.814        0.217      178.072       25.235        0.020      338.329       10.904      874.468
01/14/2021  13:28:00      188.578       65.251      -10.175       48.030       35.288       30.688     2306.866     1245.232      941.740        2.221        0.225      199.548       26.650        0.018      338.348       10.937      874.462
01/14/2021  13:29:00      145.605       55.154       -9.369       57.271       50.956       28.529     3279.938     2596.512      813.894        1.551        0.335      155.701       32.264        0.043      338.553       11.280      874.450
01/14/2021  13:30:00      139.919       84.628      -21.901       64.297       55.520       25.471     4134.132     3082.446      648.771        1.754        0.393      163.521       29.584        0.033      338.487       11.171      874.454
01/14/2021  13:31:00       65.252       60.209       -1.315       47.580       36.399       30.122     2263.860     1324.915      907.327        0.619        0.225       88.786       28.695        0.104      338.596       11.355      874.454
01/14/2021  13:32:00       77.012       77.743      -10.795       42.983       27.983       24.192     1847.501      783.076      585.273        0.765        0.161      109.430       15.867        0.021      338.463       11.131      874.446
01/14/2021  13:33:00       73.849       64.902      -15.662       42.805       28.880       23.871     1832.241      834.027      569.829        0.657        0.162       98.316       21.238        0.047      338.497       11.189      874.439
01/14/2021  13:34:00       30.436       35.754        1.166       66.988       43.717       26.676     4487.427     1911.179      711.583        0.466        0.356       46.954       29.329        0.390      338.781       11.666      874.435
01/14/2021  13:35:00       10.821      -57.655        7.365       43.057       47.173       28.560     1853.870     2225.254      815.685        0.419        0.245       58.661       22.076        0.142      339.048       12.114      874.438
01/14/2021  13:36:00       61.340      -69.506      -19.094       47.033       32.505       24.480     2212.070     1056.602      599.258        0.641        0.193       92.702       26.718        0.083      338.597       11.356      874.438
01/14/2021  13:37:00       65.786      -33.832      -14.203       64.205       54.931       41.219     4122.231     3017.406     1698.979        0.725        0.442       73.976       36.831        0.248      338.579       11.326      874.434
01/14/2021  13:38:00       75.135      -48.804      -26.800       56.549       68.741       32.804     3197.744     4725.358     1076.115        0.887        0.450       89.594       27.567        0.095      338.583       11.332      874.436
01/14/2021  13:39:00       44.604     -101.831      -27.761       32.994       22.125       21.426     1088.577      489.531      459.079        0.758        0.102      111.171       19.393        0.030      338.426       11.070      874.414
01/14/2021  13:40:00       28.709       -0.087      -14.446       50.999       56.733       17.718     2600.946     3218.608      313.916        0.358        0.307       28.709       15.710        0.299      338.723       11.568      874.400
01/14/2021  13:41:00       18.009        8.088        8.134       57.592       56.581       30.221     3316.865     3201.398      913.290        0.394        0.372       19.741       16.110        0.666      339.125       12.243      874.367
01/14/2021  13:42:00       89.012       22.247       -9.964       45.540       31.237       26.811     2073.905      975.759      718.824        0.614        0.188       91.750       23.044        0.063      338.760       11.632      874.355
01/14/2021  13:43:00       42.835       26.647      -12.189       42.020       40.001       21.656     1765.693     1600.079      468.976        0.326        0.192       50.447       18.949        0.141      338.901       11.866      874.338
01/14/2021  13:44:00       12.203       22.341       -3.017       28.811       37.657       18.137      830.050     1418.043      328.941        0.162        0.129       25.457       17.196        0.456      339.088       12.182      874.336
01/14/2021  13:45:00       23.786       -8.940       -1.620       32.680       51.225       19.372     1067.972     2623.977      375.273        0.236        0.203       25.411       16.980        0.447      339.086       12.179      874.334
01/14/2021  13:46:00       51.566      -37.894      -21.440       44.117       68.065       36.965     1946.346     4632.791     1366.405        0.625        0.397       63.993       40.638        0.403      338.995       12.025      874.328
01/14/2021  13:47:00       48.867       -0.901      -11.174       47.307       62.268       35.341     2237.967     3877.353     1248.952        0.494        0.368       48.876       29.788        0.371      338.977       11.995      874.321
01/14/2021  13:48:00       64.554       43.169      -18.755       39.397       56.658       22.722     1552.121     3210.168      516.272        0.583        0.264       77.659       18.445        0.056      338.711       11.547      874.320
01/14/2021  13:49:00       79.102       58.937      -14.197       42.258       47.937       25.780     1785.720     2297.946      664.613        0.734        0.237       98.644       21.051        0.046      338.653       11.449      874.306
01/14/2021  13:50:00      104.913       73.516      -13.889       30.565       23.617       20.682      934.204      557.740      427.763        0.926        0.096      128.107       14.458        0.013      338.714       11.553      874.285
01/14/2021  13:51:00       40.490       46.727       -9.673       22.566       19.806       15.548      509.235      392.297      241.747        0.253        0.057       61.830       13.438        0.047      338.701       11.530      874.271
01/14/2021  13:52:00       45.414      -29.339       -7.495       44.164       46.196       32.821     1950.479     2134.113     1077.211        0.407        0.258       54.066       24.948        0.213      339.016       12.061      874.247
01/14/2021  13:53:00       43.031      -24.184      -14.736       57.393       66.660       31.522     3293.955     4443.540      993.611        0.569        0.437       49.361       23.406        0.225      338.987       12.013      874.242
01/14/2021  13:54:00       39.365      -20.260       -9.207       51.253       61.923       36.704     2626.840     3834.449     1347.196        0.493        0.390       44.272       30.067        0.461      338.896       11.858      874.245
01/14/2021  13:55:00       35.848      -49.957      -20.161       24.285       33.891       17.933      589.780     1148.573      321.594        0.312        0.103       61.488       13.377        0.047      338.743       11.601      874.251
01/14/2021  13:56:00        2.614       13.754        4.442       20.352       22.942       18.780      414.202      526.321      352.691        0.075        0.065       14.000       11.481        0.672      339.139       12.269      874.258
01/14/2021  13:57:00       61.063       56.750      -12.002       18.299       13.939       10.930      334.851      194.293      119.465        0.387        0.032       83.362        9.653        0.013      338.733       11.585      874.257
01/14/2021  13:58:00       52.688      -51.800      -17.500       40.377       60.849       26.157     1630.269     3702.566      684.181        0.589        0.301       73.887       28.439        0.148      339.018       12.063      874.261
01/14/2021  13:59:00       71.389     -137.870      -31.738       24.799       26.114       16.826      615.007      681.957      283.131        1.335        0.079      155.256       13.344        0.007      338.702       11.531      874.252
01/14/2021  14:00:00      101.167     -181.910      -34.724       38.088       63.572       21.149     1450.673     4041.452      447.301        2.523        0.297      208.149       21.371        0.011      338.794       11.685      874.243
01/14/2021  14:01:00       92.989     -145.873      -34.769       30.341       51.517       15.563      920.578     2654.004      242.205        1.748        0.191      172.992       14.152        0.007      338.762       11.634      874.238
01/14/2021  14:02:00       78.220      -77.538      -17.293       44.022       55.361       31.605     1937.976     3064.803      998.885        0.921        0.300      110.139       25.186        0.052      339.019       12.067      874.238
01/14/2021  14:03:00       82.581     -101.949      -18.475       30.583       61.164       20.068      935.300     3741.024      402.726        1.132        0.254      131.199       17.711        0.018      338.945       11.942      874.224
01/14/2021  14:04:00       81.962     -165.711      -25.972       41.333       37.506       30.521     1708.436     1406.680      931.510        1.945        0.202      184.873       27.775        0.023      338.892       11.851      874.210
01/14/2021  14:05:00       19.120     -141.450      -22.355       45.359       43.696       30.651     2057.420     1909.304      939.489        1.289        0.245      142.736       22.312        0.024      339.085       12.176      874.190
01/14/2021  14:06:00       20.569      -48.010       -8.150       39.026       45.671       16.964     1523.008     2085.801      287.785        0.334        0.195       52.231       11.410        0.048      339.255       12.465      874.187
01/14/2021  14:07:00       73.773     -144.237      -29.435       50.712       48.307       34.525     2571.741     2333.572     1191.990        1.660        0.305      162.008       32.327        0.040      339.327       12.583      874.173
01/14/2021  14:08:00       85.070     -181.460      -33.958       51.356       38.740       25.353     2637.438     1500.779      642.752        2.305        0.239      200.411       21.343        0.011      339.114       12.223      874.161
01/14/2021  14:09:00      102.348     -102.243      -30.675       31.468       27.471       16.693      990.206      754.651      278.651        1.195        0.101      144.668       12.450        0.007      339.022       12.069      874.160
01/14/2021  14:10:00       63.305     -105.799      -21.168       45.538       45.145       31.680     2073.714     2038.085     1003.646        1.038        0.256      123.292       30.000        0.059      339.105       12.210      874.156
01/14/2021  14:11:00       71.730     -107.739      -24.189       26.562       51.268       17.166      705.534     2628.387      294.688        1.048        0.181      129.433       21.641        0.028      339.080       12.169      874.157
01/14/2021  14:12:00       61.704      -73.254      -20.812       35.777       49.124       21.972     1280.028     2413.173      482.770        0.689        0.209       95.779       17.227        0.032      339.359       12.638      874.151
01/14/2021  14:13:00       62.551     -121.849      -19.764       54.265       45.637       30.225     2944.667     2082.707      913.523        1.254        0.297      136.967       25.640        0.035      339.267       12.484      874.141
01/14/2021  14:14:00       42.896     -133.076      -28.604       54.103       43.467       34.432     2927.129     1889.343     1185.556        1.318        0.300      139.819       25.680        0.034      339.187       12.348      874.121
01/14/2021  14:15:00       65.651     -104.180      -37.263       61.259       41.919       30.903     3752.643     1757.217      954.994        1.151        0.323      123.140       33.324        0.073      339.371       12.658      874.107
01/14/2021  14:16:00       98.372     -102.089      -33.725       71.793       60.152       36.513     5154.247     3618.219     1333.222        1.567        0.505      141.772       40.113        0.080      339.406       12.717      874.122
01/14/2021  14:17:00       61.209     -156.250      -24.739       39.513       38.341       23.998     1561.283     1470.016      575.886        1.619        0.180      167.811       16.491        0.010      339.118       12.233      874.135
01/14/2021  14:18:00       67.499     -105.896      -16.197       48.586       44.275       26.838     2360.564     1960.248      720.262        1.054        0.252      125.579       23.846        0.036      339.208       12.384      874.150
01/14/2021  14:19:00       71.505       20.572       -6.436       63.632       82.148       26.914     4049.088     6748.301      724.380        0.855        0.576       74.406       26.990        0.132      339.360       12.641      874.167
01/14/2021  14:20:00      117.224       57.602      -10.725       65.679       31.912       26.563     4313.724     1018.381      705.594        1.160        0.302      130.611       30.014        0.053      339.161       12.304      874.198
01/14/2021  14:21:00       76.479       26.950       -1.231       52.693       34.617       23.133     2776.534     1198.333      535.154        0.554        0.226       81.088       25.117        0.096      339.141       12.271      874.228
01/14/2021  14:22:00       85.196       54.804      -13.520       38.620       46.620       23.191     1491.487     2173.396      537.816        0.732        0.210      101.300       13.639        0.018      339.209       12.383      874.238
01/14/2021  14:23:00       22.013       33.828        8.788       30.431       34.718       29.205      926.070     1205.370      852.944        0.234        0.149       40.360       16.009        0.157      339.440       12.775      874.251
01/14/2021  14:24:00      110.879       95.674       -9.379       44.520       43.810       24.081     1982.072     1919.301      579.907        1.301        0.224      146.450       18.053        0.015      339.103       12.209      874.261
01/14/2021  14:25:00      120.708       80.764      -14.620       43.435       46.677       28.818     1886.638     2178.721      830.504        1.310        0.245      145.235       21.442        0.022      339.044       12.107      874.267
01/14/2021  14:26:00      103.060       46.392       -8.676       32.621       28.838       20.401     1064.110      831.628      416.197        0.758        0.116      113.021       16.792        0.022      339.059       12.132      874.270
01/14/2021  14:27:00       97.166       54.519      -23.378       29.844       10.618       18.241      890.676      112.735      332.742        0.715        0.067      111.416       20.298        0.033      339.053       12.122      874.261
01/14/2021  14:28:00       89.771       50.440      -15.292       37.134       23.649       18.611     1378.938      559.254      346.359        0.656        0.114      102.970       16.009        0.024      339.142       12.273      874.253
01/14/2021  14:29:00       68.752       78.268      -13.025       40.184       24.780       20.577     1614.715      614.041      423.429        0.684        0.133      104.177       20.003        0.037      339.144       12.275      874.240
01/14/2021  14:30:00      124.475       78.223      -19.241       36.910       25.370       17.813     1362.311      643.652      317.287        1.215        0.116      147.013       16.470        0.013      339.076       12.162      874.226
01/14/2021  14:31:00       23.671       59.094       -6.966       44.839        9.998       19.313     2010.576       99.950      372.998        0.329        0.124       63.658       27.206        0.183      339.141       12.271      874.218
01/14/2021  14:32:00       27.080       40.265       -9.572       26.719       14.086       14.033      713.888      198.420      196.917        0.178        0.055       48.524       14.395        0.088      339.197       12.366      874.196
01/14/2021  14:33:00       40.025       42.765       -6.992       21.207       17.381       13.197      449.732      302.113      174.171        0.220        0.046       58.573       13.708        0.055      339.193       12.357      874.182
01/14/2021  14:34:00       42.235       53.053       -5.482       33.000       22.153       20.326     1089.031      490.749      413.142        0.331        0.100       67.812       21.977        0.105      339.277       12.501      874.174
01/14/2021  14:35:00       31.616       41.978       -2.978       34.167       13.355       20.054     1167.397      178.361      402.170        0.226        0.087       52.552       23.634        0.202      339.254       12.460      874.160
01/14/2021  14:36:00       40.323       43.369       -1.620       36.399       24.154       17.529     1324.912      583.411      307.283        0.286        0.111       59.218       16.280        0.076      339.368       12.653      874.155
01/14/2021  14:37:00       63.012       47.817      -15.464       67.826       49.319       33.129     4600.352     2432.354     1097.516        0.731        0.407       79.101       31.677        0.160      339.499       12.874      874.150
01/14/2021  14:38:00       97.789       48.487       -7.425       80.809       48.333       33.392     6530.076     2336.120     1115.007        1.097        0.499      109.150       46.724        0.183      339.428       12.754      874.154
01/14/2021  14:39:00      186.135       83.450      -21.764       45.228       37.229       26.789     2045.564     1386.024      717.653        2.312        0.207      203.985       27.666        0.018      339.298       12.534      874.154
01/14/2021  14:40:00       87.791       32.558      -16.531       50.516       50.307       30.521     2551.841     2530.803      931.504        0.753        0.301       93.634       11.193        0.014      339.566       12.988      874.153
01/14/2021  14:41:00       73.945       44.543      -15.446       36.177       43.008       22.230     1308.760     1849.726      494.155        0.567        0.183       86.324       18.679        0.047      339.353       12.629      874.157
01/14/2021  14:42:00       70.367       37.593        3.252       61.884       37.600       31.699     3829.624     1413.768     1004.840        0.631        0.312       79.780       35.766        0.201      339.466       12.819      874.165
01/14/2021  14:43:00      101.653        0.879      -25.965       66.152       65.268       25.622     4376.099     4259.953      656.487        1.015        0.465      101.657       20.726        0.042      339.333       12.594      874.167
01/14/2021  14:44:00       70.242        2.834      -30.226       44.756       46.229       20.807     2003.127     2137.075      432.945        0.521        0.229       70.299       14.902        0.045      339.440       12.774      874.172
01/14/2021  14:45:00       -5.677      -74.471      -14.634       57.095       33.551       25.849     3259.870     1125.703      668.182        0.542        0.253       74.687       16.822        0.051      339.701       13.214      874.167
01/14/2021  14:46:00       56.474        8.077      -26.434       42.306       77.623       33.068     1789.782     6025.257     1093.480        0.643        0.445       57.048       24.481        0.184      339.460       12.809      874.164
01/14/2021  14:47:00       75.205      -36.107      -20.776       82.352       86.618       49.512     6781.781     7502.733     2451.419        1.206        0.837       83.423       54.171        0.422      339.361       12.640      874.158
01/14/2021  14:48:00       62.653      -38.145      -18.057       58.671       63.383       36.161     3442.292     4017.416     1307.596        0.724        0.438       73.351       36.666        0.250      339.353       12.630      874.163
01/14/2021  14:49:00       85.510      -48.464      -19.133       67.608       65.784       48.401     4570.868     4327.569     2342.670        1.063        0.562       98.289       40.526        0.170      339.291       12.525      874.177
01/14/2021  14:50:00       76.234        1.848      -15.886       43.892       64.034       30.417     1926.531     4100.376      925.199        0.651        0.348       76.256       13.153        0.030      339.373       12.662      874.187
01/14/2021  14:51:00       67.250        3.703      -25.731       44.048       64.403       22.485     1940.195     4147.731      505.569        0.589        0.330       67.352       18.127        0.072      339.442       12.779      874.207
01/14/2021  14:52:00       28.721        3.128      -21.024       37.634       67.628       27.436     1416.283     4573.485      752.711        0.401        0.337       28.891       20.813        0.519      339.609       13.059      874.228
01/14/2021  14:53:00       36.611      -63.470      -12.668       38.548       49.808       27.659     1485.918     2480.837      765.020        0.513        0.237       73.272       30.415        0.172      339.640       13.112      874.246
01/14/2021  14:54:00       23.843       22.930      -12.502       27.496       31.069       19.572      756.040      965.267      383.064        0.168        0.105       33.080       21.014        0.404      339.519       12.907      874.277
01/14/2021  14:55:00        0.530       -7.594       -2.705       35.295       34.582       23.775     1245.762     1195.934      565.260        0.154        0.150        7.613       17.895        5.525      339.861       13.485      874.287
01/14/2021  14:56:00       25.119      -49.785      -26.954       16.409       16.017       14.523      269.260      256.535      210.915        0.229        0.037       55.763        4.960        0.008      339.450       12.791      874.297
01/14/2021  14:57:00       27.451       28.610       -4.657       28.989       38.744       14.568      840.339     1501.130      212.214        0.207        0.128       39.649       16.021        0.163      339.536       12.936      874.315
01/14/2021  14:58:00        6.841       42.084       -3.215       36.359       26.704       12.881     1321.954      713.097      165.926        0.201        0.110       42.636        9.159        0.046      339.532       12.929      874.324
01/14/2021  14:59:00       59.442       27.204       -3.126       34.208       31.828       19.184     1170.205     1013.037      368.028        0.342        0.128       65.371       15.150        0.054      339.671       13.162      874.328
01/14/2021  15:00:00      113.062       35.472       -4.573       40.154       47.512       26.882     1612.374     2257.390      722.635        0.933        0.230      118.496       20.147        0.029      339.617       13.073      874.326
01/14/2021  15:01:00      109.591       68.030      -14.085       30.972       33.068       19.256      959.248     1093.524      370.812        0.963        0.121      128.990        9.757        0.006      339.522       12.914      874.316
01/14/2021  15:02:00      100.442       51.912      -15.770       42.181       44.872       24.303     1779.224     2013.455      590.639        0.871        0.219      113.064       26.950        0.057      339.527       12.921      874.299
01/14/2021  15:03:00      106.269       59.251      -19.306       48.806       27.981       23.849     2382.013      782.948      568.767        0.945        0.187      121.670       26.890        0.049      339.493       12.864      874.285
01/14/2021  15:04:00       84.839       50.030       -8.451       38.119       28.608       13.988     1453.035      818.421      195.676        0.612        0.123       98.492       15.564        0.025      339.614       13.070      874.279
01/14/2021  15:05:00       54.063       55.488       -7.202       42.130       23.897       18.697     1774.917      571.067      349.593        0.437        0.135       77.471       17.034        0.048      339.433       12.764      874.272
01/14/2021  15:06:00       42.913       45.715       -1.573       38.239       31.021       14.232     1462.209      962.289      202.551        0.328        0.131       62.701       10.890        0.030      339.501       12.877      874.253
01/14/2021  15:07:00       54.140       43.270       -8.505       25.949       22.129       15.485      673.359      489.681      239.790        0.314        0.070       69.307       10.220        0.022      339.467       12.821      874.230
01/14/2021  15:08:00       21.345       58.574      -11.764       24.580       13.332       12.865      604.178      177.738      165.509        0.249        0.047       62.342       11.591        0.035      339.497       12.871      874.212
01/14/2021  15:09:00       62.296       55.567       -3.947       38.623       18.628       14.676     1491.756      347.003      215.384        0.452        0.103       83.478        8.172        0.010      339.568       12.990      874.189
01/14/2021  15:10:00       70.136       62.143       -2.768       34.527       34.944       18.832     1192.105     1221.067      354.634        0.578        0.138       93.706       16.526        0.031      339.646       13.123      874.176
01/14/2021  15:11:00        7.573        7.594       -8.446       25.719       31.173       23.081      661.489      971.756      532.753        0.118        0.108       10.725       15.863        2.188      339.807       13.392      874.151
01/14/2021  15:12:00       -2.160      -10.478        0.507       20.931       17.510       13.650      438.097      306.590      186.325        0.052        0.047       10.699       11.472        1.150      340.049       13.803      874.132
01/14/2021  15:13:00        5.400      -58.154      -10.296       32.758       41.658       19.372     1073.064     1735.373      375.259        0.335        0.159       58.404       14.591        0.062      339.796       13.372      874.121
01/14/2021  15:14:00        5.807       52.771        8.352       31.982       39.293       25.214     1022.856     1543.975      635.763        0.304        0.160       53.090       18.915        0.127      339.715       13.238      874.113
01/14/2021  15:15:00       56.899       22.136       -5.816       43.502       45.367       32.974     1892.438     2058.153     1087.286        0.440        0.252       61.053       23.421        0.147      339.796       13.375      874.099
01/14/2021  15:16:00       31.172       15.455      -20.224       33.159       50.102       24.291     1099.493     2510.255      590.051        0.291        0.210       34.793       18.628        0.287      339.738       13.277      874.094
01/14/2021  15:17:00       91.717      -35.387      -14.035       81.246       82.619       61.209     6600.892     6825.923     3746.591        1.351        0.859       98.307       47.741        0.236      339.556       12.970      874.081
01/14/2021  15:18:00       64.352      -12.605       -7.176       82.898       73.617       50.471     6872.011     5419.511     2547.326        0.959        0.742       65.575       48.250        0.541      339.607       13.056      874.071
01/14/2021  15:19:00      145.330      -97.105      -37.636       67.855       60.455       40.621     4604.347     3654.863     1650.100        2.094        0.495      174.787       40.179        0.053      339.604       13.050      874.062
01/14/2021  15:20:00      102.770      -19.139      -20.754       68.479       69.815       41.176     4689.368     4874.175     1695.431        1.131        0.563      104.537       32.640        0.097      339.524       12.915      874.050
01/14/2021  15:21:00       68.282      -34.273       -7.545       74.854       69.700       46.248     5603.157     4858.073     2138.882        0.924        0.630       76.401       45.264        0.351      339.572       12.998      874.041
01/14/2021  15:22:00       95.467        0.148      -23.606       59.236       70.195       32.411     3508.928     4927.309     1050.500        0.958        0.474       95.468       34.289        0.129      339.505       12.884      874.053
01/14/2021  15:23:00      104.476       75.613       -8.105       49.233       32.170       22.032     2423.884     1034.912      485.414        1.032        0.197      128.967       23.634        0.034      339.618       13.076      874.052
01/14/2021  15:24:00       68.545       40.403        7.196       57.129       31.467       21.053     3263.679      990.161      443.220        0.554        0.235       79.566       20.140        0.064      339.759       13.313      874.058
01/14/2021  15:25:00       85.943       22.315       -4.795       64.487       35.588       25.853     4158.590     1266.492      668.381        0.700        0.305       88.793       22.331        0.063      339.606       13.055      874.065
01/14/2021  15:26:00       52.504       24.240        0.341       46.924       56.056       23.091     2201.841     3142.261      533.190        0.461        0.294       57.830       23.655        0.167      339.683       13.185      874.073
01/14/2021  15:27:00       43.234       66.138       -1.506       35.457       18.512       19.931     1257.200      342.679      397.229        0.412        0.100       79.015       13.491        0.029      339.677       13.174      874.079
01/14/2021  15:28:00       29.063       44.802       -4.952       32.686       21.724       20.795     1068.363      471.952      432.427        0.242        0.099       53.403       18.732        0.123      339.696       13.205      874.087
01/14/2021  15:29:00       58.019       43.651       -7.253       40.859       27.615       21.596     1669.430      762.611      466.394        0.411        0.145       72.606       16.680        0.053      339.792       13.369      874.088
01/14/2021  15:30:00       41.945       45.507       -3.036       37.895       13.526       21.939     1436.050      182.950      481.306        0.297        0.105       61.889       25.173        0.165      339.813       13.404      874.096
01/14/2021  15:31:00       62.727       37.385      -10.584       38.740        9.491       20.435     1500.773       90.071      417.601        0.373        0.100       73.023       21.071        0.083      339.874       13.507      874.119
01/14/2021  15:32:00       32.735        8.283       -8.758       29.630       25.817       14.710      877.920      666.508      216.382        0.149        0.088       33.767       17.242        0.261      339.903       13.556      874.132
01/14/2021  15:33:00       13.596       -8.751      -12.097       28.135       13.766       17.142      791.556      189.495      293.860        0.084        0.064       16.169       17.670        1.194      340.062       13.824      874.141
01/14/2021  15:34:00       24.023      -18.993      -12.259       32.637       14.238       17.197     1065.171      202.726      295.721        0.133        0.078       30.625       20.831        0.463      340.124       13.928      874.150
01/14/2021  15:35:00        3.282      -20.771       -7.654       38.897       24.531       17.356     1513.014      601.758      301.234        0.146        0.121       21.029       22.589        1.154      340.046       13.797      874.165
01/14/2021  15:36:00        6.309      -14.822        1.778       17.668       23.975       19.110      312.160      574.809      365.180        0.076        0.063       16.109       10.743        0.445      340.256       14.152      874.178
01/14/2021  15:37:00       26.072      -33.772      -14.833       36.962       30.355       18.799     1366.169      921.419      353.412        0.234        0.132       42.665       20.594        0.233      339.820       13.416      874.201
01/14/2021  15:38:00       13.824      -46.105      -13.208       38.375       18.137       24.723     1472.651      328.950      611.242        0.245        0.121       48.133       27.166        0.319      339.860       13.482      874.211
01/14/2021  15:39:00       10.446      -40.348      -20.179       38.894       40.185       22.383     1512.720     1614.816      500.980        0.289        0.181       41.679       21.627        0.269      339.949       13.633      874.233
01/14/2021  15:40:00       30.929       12.473       -8.147       38.187       21.408       18.055     1458.276      458.317      325.968        0.171        0.112       33.349       22.021        0.436      339.950       13.636      874.242
01/14/2021  15:41:00       46.811       38.858       -3.905       20.156       13.105       12.675      406.256      171.747      160.655        0.223        0.037       60.837       10.982        0.033      339.797       13.376      874.239
01/14/2021  15:42:00       28.909       37.055       -8.123       24.160       15.201       15.061      583.703      231.058      226.838        0.166        0.052       46.998       13.866        0.087      339.821       13.417      874.235
01/14/2021  15:43:00        7.499       12.357       -0.181       25.894       13.146       16.237      670.502      172.810      263.627        0.066        0.055       14.454       16.339        1.278      340.028       13.767      874.228
01/14/2021  15:44:00       16.055       -5.872       -3.581       20.967       26.358       13.682      439.612      694.757      187.203        0.081        0.066       17.095        9.929        0.337      339.990       13.702      874.212
01/14/2021  15:45:00       22.455       13.661       -8.385       36.229       38.606       16.338     1312.525     1490.386      266.928        0.191        0.153       26.284       18.274        0.483      339.803       13.387      874.204
01/14/2021  15:46:00       36.416       32.920       -6.174       40.311       39.460       18.092     1624.985     1557.058      327.322        0.298        0.175       49.090       15.985        0.106      339.856       13.476      874.193
01/14/2021  15:47:00       66.269       29.696       -9.568       57.239       29.995       27.566     3276.284      899.709      759.863        0.515        0.247       72.618       32.146        0.196      339.968       13.665      874.186
01/14/2021  15:48:00       19.973        1.936        0.468       33.201       24.415       20.667     1102.338      596.081      427.105        0.126        0.106       20.067       16.110        0.644      339.943       13.622      874.175
01/14/2021  15:49:00       32.684       14.862      -10.036       31.109       54.458       23.241      967.795     2965.670      540.150        0.293        0.224       35.905       19.279        0.288      339.820       13.416      874.168
01/14/2021  15:50:00       13.569      -36.780      -12.042       46.147       36.221       22.907     2129.549     1311.945      524.729        0.282        0.198       39.203       21.882        0.312      339.876       13.509      874.177
01/14/2021  15:51:00       41.641      -72.928      -14.554       30.700       23.506       16.438      942.516      552.547      270.224        0.451        0.088       83.980       13.236        0.025      339.750       13.295      874.188
01/14/2021  15:52:00       47.704      -67.855      -10.785       43.620       25.738       24.435     1902.721      662.459      597.065        0.508        0.158       82.945       25.122        0.092      339.705       13.222      874.207
01/14/2021  15:53:00       14.683       24.283       -7.053       21.957       33.960       14.351      482.101     1153.309      205.960        0.135        0.092       28.377       18.137        0.408      339.782       13.352      874.229
01/14/2021  15:54:00       19.482       35.655       -1.083       23.642       12.123       13.794      558.929      146.979      190.271        0.127        0.045       40.630       13.784        0.115      339.827       13.429      874.253
01/14/2021  15:55:00       -1.454       41.232       -4.289       11.885        8.721        6.067      141.259       76.061       36.806        0.099        0.013       41.258        2.915        0.005      339.853       13.470      874.265
01/14/2021  15:56:00        3.803       28.767       -3.788       13.607        9.519        7.871      185.141       90.605       61.952        0.060        0.017       29.017        8.381        0.083      339.931       13.602      874.275
01/14/2021  15:57:00        5.557       -0.394       -9.034       17.642       13.564       14.054      311.255      183.988      197.504        0.040        0.035        5.571       13.129        5.553      339.964       13.657      874.285
01/14/2021  15:58:00       14.655       -5.495       -9.503       26.989       12.841       14.273      728.430      164.884      203.725        0.072        0.055       15.651       16.417        1.100      339.874       13.507      874.279
01/14/2021  15:59:00        6.108        4.159      -10.321       16.274       17.272       12.404      264.846      298.320      153.847        0.044        0.036        7.389        3.976        0.290      339.948       13.631      874.269
01/14/2021  16:00:00        3.135        0.609       -2.733       21.483       30.116       20.673      461.505      906.996      427.388        0.091        0.090        3.193        8.882        7.735      340.026       13.764      874.255
01/14/2021  16:01:00       10.835       -1.140       -6.677       25.672       25.472       19.986      659.052      648.806      399.431        0.093        0.085       10.895       14.938        1.880      340.026       13.761      874.242
01/14/2021  16:02:00       10.520       13.008      -11.318       24.957       33.199       13.608      622.831     1102.181      185.169        0.116        0.096       16.730       10.950        0.428      339.994       13.708      874.235
01/14/2021  16:03:00      -20.344      -32.776      -11.958       21.673       29.620       14.517      469.720      877.337      210.742        0.159        0.078       38.576       10.400        0.073      340.017       13.748      874.214
01/14/2021  16:04:00       -5.026      -22.470        1.051       11.642       31.236       11.476      135.540      975.696      131.696        0.089        0.062       23.025        6.879        0.089      340.199       14.055      874.202
01/14/2021  16:05:00        3.940       25.279        1.127       10.339       16.342       12.475      106.892      267.047      155.616        0.059        0.026       25.584        8.734        0.117      339.994       13.709      874.185
01/14/2021  16:06:00       -5.485      -10.931       -4.752       16.087       19.876       10.234      258.796      395.036      104.725        0.047        0.038       12.230        4.544        0.138      339.977       13.680      874.172
01/14/2021  16:07:00      -13.697      -28.139      -13.433       17.339       17.837       15.243      300.641      318.142      232.340        0.101        0.043       31.295        7.939        0.064      339.951       13.635      874.155
01/14/2021  16:08:00       -1.967      -15.916      -14.598       23.818       16.070       15.953      567.318      258.229      254.485        0.077        0.054       16.038       11.431        0.508      340.014       13.741      874.154
01/14/2021  16:09:00      -14.034       -1.662      -11.132       13.130       14.147        9.548      172.409      200.141       91.166        0.039        0.023       14.132        7.621        0.291      339.958       13.647      874.158
01/14/2021  16:10:00      -24.003        1.752       -4.872       14.631       16.230       11.580      214.067      263.404      134.103        0.061        0.031       24.067        8.297        0.119      339.909       13.565      874.171
01/14/2021  16:11:00      -23.783        6.327      -18.339       16.712       11.506        9.947      279.291      132.378       98.938        0.073        0.026       24.610        7.672        0.097      340.011       13.737      874.186
01/14/2021  16:12:00      -12.386       -2.048       -6.839       14.706        8.661       11.769      216.258       75.010      138.501        0.032        0.021       12.554        6.374        0.258      340.172       14.010      874.197
01/14/2021  16:13:00       13.603      -16.334        2.524       18.637       16.829       14.969      347.327      283.222      224.057        0.066        0.043       21.257       11.039        0.270      340.108       13.901      874.193
01/14/2021  16:14:00        9.045      -23.008       -2.419       13.694       10.918       12.275      187.533      119.203      150.675        0.054        0.023       24.723        8.640        0.122      340.106       13.897      874.183
01/14/2021  16:15:00       -9.183      -31.320        0.577       17.156        9.775       11.507      294.342       95.557      132.414        0.079        0.026       32.639        6.655        0.042      340.138       13.950      874.162
01/14/2021  16:16:00       18.317      -24.036        0.781       24.567       11.923       15.847      603.551      142.161      251.121        0.096        0.050       30.220       15.405        0.260      340.130       13.938      874.131
01/14/2021  16:17:00        6.421        1.687        2.630       17.747       20.746       14.521      314.970      430.392      210.866        0.050        0.048        6.639       13.104        3.896      339.953       13.639      874.088
01/14/2021  16:18:00       18.296       32.762        2.221       24.048       13.818       11.851      578.294      190.939      140.450        0.116        0.045       37.524       13.136        0.123      339.789       13.364      874.061
01/14/2021  16:19:00       43.851       36.545       -5.377       27.900       21.815       14.868      778.409      475.887      221.064        0.238        0.074       57.082       13.305        0.054      339.844       13.456      874.037
01/14/2021  16:20:00        6.856      -22.811      -12.728       21.708       27.190       16.028      471.240      739.287      256.886        0.110        0.073       23.819       16.599        0.486      339.982       13.688      874.015
01/14/2021  16:21:00       -5.055        3.665        4.715       18.985       16.162       17.352      360.446      261.216      301.086        0.049        0.046        6.243       14.029        5.049      340.089       13.868      873.999
01/14/2021  16:22:00        1.418      -11.093        3.745       13.843       12.077       14.762      191.635      145.852      217.911        0.035        0.028       11.184       12.614        1.272      340.032       13.771      873.981
01/14/2021  16:23:00       -6.229       -1.325       -6.246       12.648        9.193        9.313      159.964       84.514       86.733        0.021        0.017        6.369        3.865        0.368      340.033       13.775      873.965
01/14/2021  16:24:00       -2.797       15.165       -4.381       17.614       14.156       13.866      310.255      200.399      192.263        0.048        0.035       15.421       13.111        0.723      339.951       13.636      873.932
01/14/2021  16:25:00       21.498      -19.228       -0.094       30.750       24.597       15.658      945.541      605.015      245.164        0.131        0.090       28.842       18.100        0.394      340.095       13.880      873.916
01/14/2021  16:26:00       62.234      -45.761      -16.790       36.804       24.881       19.020     1354.508      619.074      361.750        0.429        0.117       77.247       20.540        0.071      340.019       13.752      873.896
01/14/2021  16:27:00       36.028      -54.372      -11.436       34.951       24.209       22.028     1221.571      586.082      485.241        0.334        0.115       65.225       23.278        0.127      340.122       13.924      873.884
01/14/2021  16:28:00        3.472      -34.304      -17.099       38.534       31.864       16.635     1484.857     1015.338      276.737        0.213        0.139       34.480       24.289        0.496      340.142       13.961      873.880
01/14/2021  16:29:00       -6.083        2.790        0.584       20.617       10.638       13.500      425.075      113.176      182.243        0.038        0.036        6.692        6.117        0.836      340.196       14.049      873.881
01/14/2021  16:30:00      -20.188        3.142       -5.083       30.972       14.537       13.586      959.264      211.321      184.590        0.090        0.068       20.431       14.860        0.529      339.980       13.684      873.888
01/14/2021  16:31:00       -1.860       11.611       -5.447       39.298       14.925       21.963     1544.353      222.765      482.374        0.121        0.112       11.759       25.316        4.635      339.976       13.677      873.900
01/14/2021  16:32:00      -14.530       12.159       -4.820       32.160       10.771       15.570     1034.243      116.021      242.423        0.089        0.070       18.946       20.125        1.128      339.965       13.660      873.904
01/14/2021  16:33:00       26.083      -20.491      -26.167       46.995       36.303       26.944     2208.493     1317.907      725.960        0.302        0.213       33.170       32.770        0.976      339.977       13.680      873.906
01/14/2021  16:34:00        6.002      -31.861       -3.788       46.287       32.903       27.900     2142.484     1082.621      778.430        0.253        0.200       32.422       26.631        0.675      340.010       13.738      873.894
01/14/2021  16:35:00        1.095       -9.025       -9.356       35.646       20.142       21.520     1270.630      405.698      463.097        0.115        0.107        9.091       16.283        3.208      339.995       13.711      873.885
01/14/2021  16:36:00      -16.181       21.378       -1.445       26.844        8.409       12.877      720.626       70.710      165.810        0.084        0.048       26.811       14.661        0.299      339.976       13.678      873.871
01/14/2021  16:37:00       -9.563      -12.416      -11.638       30.187       31.556       20.160      911.259      995.787      406.436        0.135        0.116       15.672       21.892        1.951      339.924       13.591      873.861
01/14/2021  16:38:00       -2.356      -51.744      -20.187       41.411       26.338       18.778     1714.856      693.687      352.616        0.293        0.138       51.798       22.220        0.184      339.920       13.584      873.854
01/14/2021  16:39:00        6.850      -22.402      -13.419       25.371       28.506       14.196      643.682      812.588      201.527        0.119        0.083       23.425       12.454        0.283      339.872       13.504      873.845
01/14/2021  16:40:00      -11.313       11.296      -17.581       39.108       14.402       18.993     1529.454      207.408      360.717        0.133        0.105       15.987       22.271        1.941      339.771       13.333      873.850
01/14/2021  16:41:00       -1.754       -0.568       -3.252       39.659        7.604       20.002     1572.816       57.816      400.081        0.102        0.102        1.844       24.254      173.090      339.827       13.428      873.850
01/14/2021  16:42:00      -28.328      -19.976        4.522       40.728       25.487       20.686     1658.740      649.601      427.908        0.198        0.137       34.663       14.208        0.168      339.873       13.505      873.841
01/14/2021  16:43:00      -49.361      -33.584       -6.641       41.942       26.570       25.973     1759.155      705.965      674.597        0.337        0.157       59.703       19.508        0.107      339.950       13.635      873.834
01/14/2021  16:44:00      -57.773      -34.120       -7.477       43.264       22.706       19.326     1871.775      515.562      373.489        0.366        0.138       67.096       15.520        0.054      339.965       13.660      873.826
01/14/2021  16:45:00      -44.159      -26.569        1.126       46.113       22.742       22.127     2126.365      517.201      489.619        0.289        0.157       51.536       12.922        0.063      339.902       13.554      873.816
01/14/2021  16:46:00      -33.497      -32.121       -6.800       36.290       22.844       20.674     1316.937      521.829      427.403        0.223        0.113       46.409       11.100        0.057      339.969       13.666      873.814
01/14/2021  16:47:00        8.462      -22.562       -3.838       38.521       19.087       24.498     1483.868      364.331      600.157        0.152        0.122       24.097       22.133        0.844      339.891       13.535      873.809
01/14/2021  16:48:00        4.762       -8.525       -1.920       41.825       10.669       21.990     1749.290      113.827      483.556        0.122        0.117        9.765       26.537        7.385      339.824       13.424      873.820
01/14/2021  16:49:00      -11.157        4.675      -11.251       40.284       16.760       23.163     1622.838      280.889      536.512        0.136        0.122       12.097       25.254        4.358      339.877       13.512      873.823
01/14/2021  16:50:00       21.157       -8.783      -10.680       48.138        8.629       24.961     2317.239       74.467      623.040        0.183        0.151       22.908       32.409        2.002      339.774       13.340      873.823
01/14/2021  16:51:00       22.752      -16.417       -6.125       39.280       11.146       18.598     1542.957      124.226      345.881        0.142        0.101       28.056       25.323        0.815      339.807       13.394      873.824
01/14/2021  16:52:00       -1.739      -11.820       -6.685       30.031       14.782       15.014      901.837      218.518      225.419        0.077        0.067       11.947       19.404        2.638      339.758       13.311      873.816
01/14/2021  16:53:00        3.093       -1.739      -19.984       37.112       12.389       18.893     1377.322      153.482      356.943        0.115        0.094        3.548       19.339       29.705      339.681       13.182      873.805
01/14/2021  16:54:00       -0.049      -13.676      -11.406       47.169       14.941       22.342     2224.870      223.219      499.159        0.163        0.147       13.676       30.297        4.908      339.749       13.297      873.801
01/14/2021  16:55:00       -2.156       -7.841       -6.210       44.527       18.740       22.321     1982.687      351.205      498.242        0.147        0.142        8.132       27.537       11.466      339.646       13.124      873.784
01/14/2021  16:56:00      -74.221      -30.097       -9.452       45.061       18.886       21.301     2030.532      356.674      453.727        0.467        0.142       80.091       20.924        0.068      339.755       13.306      873.772
01/14/2021  16:57:00      -74.142      -39.015      -19.244       55.054       22.424       26.436     3030.900      502.851      698.858        0.581        0.212       83.781       33.480        0.160      339.766       13.324      873.762
01/14/2021  16:58:00      -65.748      -18.604      -10.734       44.764       24.635       22.406     2003.853      606.899      502.030        0.395        0.156       68.329       24.584        0.129      339.802       13.384      873.754
01/14/2021  16:59:00      -55.037      -15.701      -11.425       46.019       26.169       23.716     2117.746      684.835      562.440        0.338        0.168       57.233       20.729        0.131      339.669       13.162      873.752
01/14/2021  17:00:00      -59.791      -16.346       -9.062       50.443       22.512       22.746     2544.512      506.779      517.364        0.375        0.178       61.985       27.292        0.194      339.682       13.182      873.759
01/14/2021  17:01:00      -33.558      -18.257       -6.184       49.985       15.289       26.743     2498.460      233.765      715.187        0.247        0.172       38.203       18.276        0.229      339.593       13.034      873.760
01/14/2021  17:02:00      -27.361        1.739       -5.608       57.118       24.010       28.383     3262.478      576.491      805.593        0.271        0.232       27.416       30.365        1.227      339.551       12.962      873.767
01/14/2021  17:03:00      -58.305       11.111      -16.871       53.381       22.924       30.638     2849.514      525.527      938.697        0.406        0.216       59.354       32.380        0.298      339.530       12.927      873.780
01/14/2021  17:04:00      -88.425       17.142      -10.523       45.778       26.303       22.974     2095.646      691.856      527.784        0.577        0.166       90.071       23.152        0.066      339.430       12.758      873.789
01/14/2021  17:05:00     -117.370       16.225       -8.476       50.174       21.750       23.479     2517.473      473.052      551.247        0.883        0.177      118.487       22.586        0.036      339.443       12.781      873.792
01/14/2021  17:06:00     -111.493       25.334       -2.149       41.270       37.119       28.197     1703.211     1377.846      795.079        0.848        0.194      114.335        8.904        0.006      339.220       12.403      873.793
01/14/2021  17:07:00     -107.348       39.061       -8.783       48.584       25.302       25.273     2360.366      640.201      638.700        0.838        0.182      114.234       26.491        0.054      339.057       12.131      873.788
01/14/2021  17:08:00      -84.017       11.493       -5.249       49.320       25.668       25.438     2432.470      658.868      647.114        0.548        0.187       84.800       19.999        0.056      339.073       12.157      873.776
01/14/2021  17:09:00      -41.610        4.949       -6.873       53.046       23.421       28.741     2813.847      548.544      826.040        0.299        0.209       41.904       25.378        0.367      338.985       12.008      873.758
01/14/2021  17:10:00      -23.709       -3.666       -7.807       64.412       30.990       26.618     4148.843      960.376      708.527        0.323        0.291       23.991       28.245        1.386      338.906       11.875      873.752
01/14/2021  17:11:00      -22.065       -4.997      -18.255       61.725       24.349       26.699     3810.012      592.877      712.854        0.298        0.256       22.624       30.164        1.778      338.766       11.640      873.752
01/14/2021  17:12:00      -50.800       14.570      -18.552       50.813       18.520       24.408     2582.005      342.992      595.749        0.333        0.176       52.848       27.728        0.275      338.759       11.630      873.754
01/14/2021  17:13:00      -62.254       20.766      -12.246       47.739       17.897       24.386     2279.003      320.295      594.681        0.382        0.160       65.626       25.380        0.150      338.658       11.460      873.762
01/14/2021  17:14:00      -47.430       14.908      -15.061       53.130       27.904       24.973     2822.812      778.656      623.673        0.346        0.211       49.718       31.875        0.411      338.591       11.344      873.764
01/14/2021  17:15:00        9.851        0.196      -18.513       54.586       18.510       27.087     2979.622      342.608      733.704        0.225        0.203        9.853       35.810       13.209      338.587       11.339      873.772
01/14/2021  17:16:00      -15.690       -1.130      -15.121       57.903       16.133       28.898     3352.709      260.275      835.072        0.246        0.222       15.731       33.000        4.401      338.583       11.332      873.778
01/14/2021  17:17:00       11.985       -5.063      -12.405       51.824       11.850       21.682     2685.739      140.429      470.089        0.181        0.165       13.010       27.554        4.485      338.495       11.185      873.784
01/14/2021  17:18:00        8.510      -10.404       -8.785       50.913       23.546       28.717     2592.150      554.426      824.666        0.211        0.199       13.441       34.185        6.469      338.413       11.048      873.787
01/14/2021  17:19:00       -4.466       -2.446      -12.209       47.971       21.869       24.708     2301.214      478.261      610.491        0.178        0.169        5.092       29.583       33.756      338.279       10.820      873.790
01/14/2021  17:20:00       16.105      -13.665      -14.427       52.457       18.966       25.486     2751.721      359.716      649.530        0.221        0.188       21.121       33.507        2.517      338.225       10.732      873.798
01/14/2021  17:21:00       -7.851      -22.733      -22.283       51.669       13.475       26.443     2669.715      181.565      699.219        0.231        0.178       24.050       33.624        1.955      338.054       10.445      873.808
01/14/2021  17:22:00        4.818      -27.913      -17.716       48.589       13.564       23.561     2360.872      183.982      555.132        0.211        0.155       28.326       30.195        1.136      337.984       10.326      873.813
01/14/2021  17:23:00        3.085      -13.882      -22.214       54.592       13.786       26.931     2980.243      190.047      725.294        0.229        0.195       14.221       34.759        5.975      337.985       10.329      873.821
01/14/2021  17:24:00       17.818      -30.031      -31.700       53.789       14.495       27.447     2893.294      210.110      753.352        0.304        0.193       34.919       35.821        1.052      338.020       10.390      873.825
01/14/2021  17:25:00        9.144      -23.244      -17.869       51.809       19.113       26.975     2684.176      365.300      727.662        0.236        0.189       24.978       30.820        1.522      338.064       10.462      873.832
01/14/2021  17:26:00       23.944       -6.119      -26.552       62.876       17.964       28.622     3953.329      322.699      819.201        0.320        0.255       24.714       39.635        2.572      338.057       10.449      873.835
01/14/2021  17:27:00       14.151       -0.047       -9.241       50.662       11.888       25.625     2566.658      141.317      656.652        0.182        0.168       14.151       34.628        5.988      338.107       10.534      873.850
01/14/2021  17:28:00       10.529       59.167       -7.632       46.409       18.147       27.045     2153.793      329.324      731.458        0.344        0.161       60.096       26.994        0.202      338.614       11.385      873.861
01/14/2021  17:29:00        3.106       41.862      -11.726       43.483       34.765       21.757     1890.814     1208.622      473.386        0.274        0.179       41.977       26.169        0.389      338.453       11.115      873.875
01/14/2021  17:30:00       14.146       24.106      -10.328       51.438       16.148       26.494     2645.825      260.769      701.950        0.225        0.180       27.951       30.365        1.180      338.305       10.865      873.888
01/14/2021  17:31:00        8.978        9.277      -10.945       48.169       11.867       24.301     2320.261      140.837      590.525        0.167        0.153       12.910       28.920        5.018      338.166       10.632      873.906
01/14/2021  17:32:00      -15.259        0.391      -12.768       48.412       15.889       22.918     2343.725      252.461      525.227        0.176        0.156       15.264       29.831        3.819      337.826       10.063      873.918
01/14/2021  17:33:00      -24.910        7.529      -19.742       54.817       20.408       29.057     3004.901      416.501      844.328        0.267        0.213       26.023       31.933        1.506      337.736        9.912      873.929
01/14/2021  17:34:00      -52.174       17.606      -23.199       47.453       19.782       24.595     2251.777      391.337      604.890        0.341        0.162       55.065       28.059        0.260      337.839       10.085      873.946
01/14/2021  17:35:00      -78.291       12.214      -28.259       44.481       21.806       24.683     1978.520      475.488      609.254        0.507        0.153       79.238       26.800        0.114      337.645        9.759      873.946
01/14/2021  17:36:00      -63.986       20.074      -18.295       49.969       13.736       26.052     2496.889      188.679      678.714        0.410        0.168       67.061       15.176        0.051      337.632        9.737      873.954
01/14/2021  17:37:00      -53.009       18.548      -30.813       52.220       25.684       24.829     2726.899      659.691      616.457        0.405        0.200       56.160       30.372        0.292      337.606        9.693      873.956
01/14/2021  17:38:00      -33.873       13.343      -29.422       56.045       22.359       24.206     3141.059      499.911      585.914        0.321        0.211       36.406       29.273        0.647      337.612        9.704      873.961
01/14/2021  17:39:00      -19.714        9.493      -21.401       45.975       22.264       25.149     2113.740      495.705      632.458        0.209        0.162       21.880       28.221        1.664      337.650        9.768      873.966
01/14/2021  17:40:00      -10.272       -2.365      -23.937       48.278       15.402       26.601     2330.718      237.226      707.639        0.198        0.164       10.541       31.895        9.156      337.559        9.613      873.968
01/14/2021  17:41:00      -37.746        2.690      -22.135       40.878       17.655       24.227     1671.047      311.716      586.946        0.225        0.128       37.841       22.991        0.369      337.657        9.778      873.975
01/14/2021  17:42:00      -31.018       12.987      -13.460       59.198       20.386       20.523     3504.357      415.575      421.185        0.283        0.217       33.627       17.195        0.261      337.369        9.296      873.983
01/14/2021  17:43:00      -14.435       -6.776      -21.556       52.849       30.529       24.137     2793.029      932.034      582.583        0.251        0.215       15.946       27.260        2.922      337.297        9.179      873.994
01/14/2021  17:44:00      -46.013       18.650      -28.091       48.062       17.910       27.137     2309.962      320.764      736.404        0.331        0.168       49.649       27.842        0.314      337.293        9.170      874.005
01/14/2021  17:45:00      -60.633       22.462      -27.268       44.263       12.498       23.985     1959.188      156.192      575.292        0.381        0.135       64.660       28.180        0.190      337.327        9.226      874.015
01/14/2021  17:46:00      -71.608       35.481      -23.343       37.992       13.404       19.807     1443.393      179.655      392.335        0.447        0.101       79.916       22.640        0.080      337.272        9.136      874.024
01/14/2021  17:47:00      -37.396       18.709      -20.900       49.322       20.883       25.256     2432.619      436.117      637.875        0.285        0.175       41.814       24.191        0.335      337.327        9.225      874.026
01/14/2021  17:48:00      -70.913        6.789      -23.458       49.067       18.755       22.309     2407.602      351.756      497.682        0.444        0.163       71.237       22.654        0.101      337.243        9.084      874.032
01/14/2021  17:49:00      -77.870       25.420      -30.048       40.284       10.925       20.353     1622.798      119.365      414.249        0.488        0.108       81.914       24.086        0.086      337.173        8.967      874.031
01/14/2021  17:50:00      -59.936        6.713      -24.962       41.962       18.102       22.014     1760.775      327.668      484.597        0.342        0.129       60.310       24.460        0.164      337.269        9.130      874.041
01/14/2021  17:51:00      -83.446       21.836      -21.164       35.174       12.442       17.423     1237.217      154.809      303.544        0.479        0.085       86.256       18.942        0.048      337.424        9.388      874.054
01/14/2021  17:52:00      -52.627       10.861      -17.976       34.180       20.714       20.212     1168.283      429.056      408.527        0.261        0.100       53.736       17.175        0.102      337.241        9.082      874.080
01/14/2021  17:53:00      -60.338       18.733      -22.872       38.822       11.771       22.560     1507.111      138.564      508.943        0.333        0.108       63.179       25.683        0.165      337.229        9.063      874.100
01/14/2021  17:54:00      -69.579       12.029      -20.105       33.418       24.441       17.615     1116.741      597.366      310.295        0.371        0.101       70.611       18.550        0.069      337.218        9.045      874.128
01/14/2021  17:55:00      -91.329       16.071      -19.760       45.915       17.645       19.407     2108.202      311.354      376.616        0.589        0.140       92.732       14.827        0.026      337.095        8.838      874.148
01/14/2021  17:56:00      -70.681        0.824      -21.924       43.106       22.338       18.570     1858.138      498.977      344.862        0.409        0.135       70.686       17.713        0.063      337.134        8.902      874.165
01/14/2021  17:57:00      -78.325       18.119      -21.851       37.309       19.388       20.555     1391.971      375.886      422.510        0.457        0.110       80.393       22.967        0.082      337.185        8.987      874.178
01/14/2021  17:58:00      -57.460       25.277      -22.646       39.235       13.039       17.405     1539.420      170.023      302.942        0.323        0.101       62.774       23.750        0.143      337.591        9.669      874.193
01/14/2021  17:59:00       -3.182        2.712      -10.995       42.269       11.953       21.332     1786.645      142.874      455.052        0.126        0.119        4.181       26.354       39.737      337.675        9.809      874.206
01/14/2021  18:00:00       18.417        7.676       -2.150       35.047       16.235       16.475     1228.260      263.572      271.428        0.108        0.088       19.952       23.153        1.347      338.212       10.710      874.211
01/14/2021  18:01:00       23.266       27.416       -1.132       28.752       14.238       14.596      826.670      202.726      213.052        0.127        0.062       35.957       17.410        0.234      338.369       10.975      874.211
01/14/2021  18:02:00       27.984       30.025        3.896       37.159       14.562       20.638     1380.825      212.048      425.944        0.186        0.101       41.044       24.379        0.353      338.174       10.647      874.212
01/14/2021  18:03:00       25.493       32.877       -1.616       38.659       16.204       18.329     1494.507      262.564      335.949        0.191        0.105       41.603       21.638        0.271      338.282       10.828      874.214
01/14/2021  18:04:00       33.051       39.571       -0.154       38.434       15.141       21.511     1477.148      229.248      462.728        0.241        0.108       51.558       22.756        0.195      338.284       10.830      874.213
01/14/2021  18:05:00       38.116       41.276        0.983       37.049       12.723       20.976     1372.643      161.878      440.004        0.257        0.099       56.183       21.377        0.145      338.280       10.824      874.220
01/14/2021  18:06:00      -31.398       17.567      -10.975       50.052       20.172       20.286     2505.153      406.894      411.509        0.237        0.166       35.978       19.277        0.287      337.280        9.147      874.214
01/14/2021  18:07:00      -34.996        7.546      -18.491       41.210       15.718       21.644     1698.252      247.047      468.478        0.202        0.121       35.800       21.222        0.351      336.949        8.593      874.219
01/14/2021  18:08:00      -45.879        5.167      -17.766       50.537       22.664       25.016     2553.998      513.662      625.807        0.307        0.185       46.169       20.114        0.190      336.922        8.549      874.225
01/14/2021  18:09:00      -67.430      -21.407      -22.229       40.647       33.020       26.303     1652.201     1090.300      691.854        0.447        0.172       70.746       16.983        0.058      336.814        8.369      874.234
01/14/2021  18:10:00      -96.230      -29.887      -21.024       31.998       22.548       19.518     1023.859      508.412      380.941        0.625        0.096      100.764       14.650        0.021      336.766        8.288      874.237
01/14/2021  18:11:00     -100.284        9.545      -21.641       31.720       12.686       17.195     1006.179      160.943      295.682        0.604        0.073      100.738       18.999        0.036      336.844        8.420      874.238
01/14/2021  18:12:00     -118.009       -1.063      -19.347       22.986       16.761       13.625      528.350      280.946      185.627        0.765        0.050      118.014        7.717        0.004      336.864        8.452      874.227
01/14/2021  18:13:00     -101.051        0.602      -18.638       24.419        9.740       13.299      596.281       94.862      176.874        0.571        0.043      101.053       14.310        0.020      336.963        8.615      874.214
01/14/2021  18:14:00      -87.452        2.272      -17.339       32.900       11.458       16.420     1082.389      131.283      269.610        0.472        0.074       87.481       14.738        0.028      337.126        8.889      874.194
01/14/2021  18:15:00      -88.368        6.980      -19.817       27.332       10.127       15.394      747.062      102.554      236.962        0.467        0.054       88.643       16.758        0.036      337.137        8.908      874.180
01/14/2021  18:16:00      -43.021        0.728      -15.090       45.615       15.246       19.762     2080.719      232.447      390.529        0.239        0.135       43.027       21.155        0.242      337.026        8.721      874.165
01/14/2021  18:17:00      -56.584       -4.011      -10.859       34.769       21.588       20.392     1208.866      466.058      415.834        0.271        0.105       56.726       16.380        0.083      337.013        8.699      874.163
01/14/2021  18:18:00      -80.906       -0.195       -7.145       40.577       19.519       17.039     1646.511      380.982      290.316        0.446        0.116       80.906        8.513        0.011      336.968        8.625      874.160
01/14/2021  18:19:00     -103.670       10.354      -10.051       29.939       24.223       16.452      896.345      586.742      270.656        0.635        0.088      104.186       11.999        0.013      337.002        8.681      874.154
01/14/2021  18:20:00      -99.759       36.169      -15.564       27.767       11.339       16.469      770.981      128.571      271.225        0.634        0.059      106.114       14.339        0.018      336.930        8.562      874.160
01/14/2021  18:21:00     -112.228       34.343      -12.133       32.308       16.814       20.524     1043.805      282.699      421.247        0.783        0.087      117.365       12.097        0.011      336.809        8.360      874.163
01/14/2021  18:22:00     -119.169       17.514      -12.633       22.236        9.752       12.326      494.418       95.108      151.925        0.770        0.037      120.449       10.208        0.007      336.834        8.402      874.167
01/14/2021  18:23:00     -109.794       11.618      -15.236       22.480       12.651       11.614      505.364      160.046      134.880        0.661        0.040      110.407        9.047        0.007      336.825        8.388      874.180
01/14/2021  18:24:00     -127.409       14.934       -4.376       28.827       15.755       14.208      830.974      248.232      201.870        0.888        0.064      128.281       10.421        0.007      336.777        8.307      874.187
01/14/2021  18:25:00      -97.280        4.701        1.049       38.640       18.375       21.300     1493.083      337.643      453.683        0.589        0.114       97.393       14.701        0.023      336.702        8.182      874.191
01/14/2021  18:26:00      -86.338       -2.021       -4.505       42.849       24.606       19.967     1836.017      605.443      398.685        0.516        0.142       86.362       10.354        0.014      336.780        8.311      874.185
01/14/2021  18:27:00      -72.590       -1.685       -4.554       38.277       20.862       17.509     1465.124      435.208      306.562        0.375        0.110       72.609       10.460        0.021      336.808        8.360      874.194
01/14/2021  18:28:00      -75.409       -1.299       -4.165       39.974       25.165       21.856     1597.935      633.253      477.689        0.421        0.135       75.420        6.786        0.008      336.808        8.359      874.201
01/14/2021  18:29:00      -71.929       -6.614       -7.124       27.512       19.757       16.806      756.898      390.321      282.443        0.335        0.071       72.232       13.878        0.037      336.831        8.398      874.207
01/14/2021  18:30:00      -82.597        1.482       -6.008       31.382       19.828       18.668      984.812      393.133      348.492        0.429        0.086       82.610        7.325        0.008      336.830        8.395      874.221
01/14/2021  18:31:00      -98.325       12.326      -11.450       34.814       31.993       21.287     1211.996     1023.555      453.115        0.632        0.134       99.095       16.484        0.028      336.740        8.245      874.231
01/14/2021  18:32:00     -129.276       19.942      -16.437       25.374       21.566       18.128      643.819      465.097      328.609        0.941        0.072      130.805        4.881        0.001      336.657        8.107      874.235
01/14/2021  18:33:00     -130.754       21.671      -13.211       37.199       24.312       21.747     1383.764      591.054      472.929        1.009        0.122      132.537       18.956        0.020      336.548        7.924      874.232
01/14/2021  18:34:00     -123.072       28.206      -14.531       27.544       17.839       19.879      758.649      318.239      395.165        0.881        0.074      126.263        7.754        0.004      336.455        7.766      874.241
01/14/2021  18:35:00      -81.260      -13.350       -8.281       38.497       34.692       21.080     1482.052     1203.539      444.373        0.499        0.156       82.349       17.829        0.047      336.410        7.693      874.258
01/14/2021  18:36:00     -132.164       17.992      -18.426       31.206       20.747       20.476      973.790      430.440      419.263        0.998        0.091      133.383        8.216        0.004      336.377        7.637      874.271
01/14/2021  18:37:00      -93.576       -6.101      -18.186       36.171       27.164       21.076     1308.364      737.865      444.197        0.581        0.125       93.775       14.193        0.023      336.381        7.644      874.285
01/14/2021  18:38:00      -52.422       -9.824       -7.527       52.121       25.809       25.519     2716.616      666.121      651.195        0.347        0.202       53.334       20.951        0.154      336.338        7.572      874.294
01/14/2021  18:39:00      -83.247       10.466      -18.820       37.039       30.948       17.345     1371.856      957.779      300.838        0.501        0.132       83.903       13.499        0.026      336.312        7.529      874.290
01/14/2021  18:40:00      -80.649       14.025      -19.290       41.690       25.757       20.076     1738.026      663.406      403.035        0.494        0.140       81.859       12.042        0.022      336.287        7.487      874.288
01/14/2021  18:41:00     -106.137       23.108      -21.734       30.727       23.629       18.081      944.159      558.349      326.934        0.705        0.091      108.623       16.264        0.022      336.259        7.440      874.288
01/14/2021  18:42:00     -104.870       21.519      -17.764       30.441       25.553       21.395      926.672      652.973      457.731        0.691        0.102      107.055        9.253        0.007      336.248        7.421      874.286
01/14/2021  18:43:00      -48.988       -1.146      -14.362       59.051       36.261       27.790     3486.979     1314.861      772.274        0.409        0.279       49.001       12.643        0.067      336.245        7.417      874.287
01/14/2021  18:44:00      -52.623        6.038       -8.889       46.970       32.229       24.483     2206.196     1038.732      599.401        0.336        0.192       52.968       11.538        0.047      336.241        7.410      874.282
01/14/2021  18:45:00      -75.018        4.186      -21.827       44.215       23.434       19.579     1954.925      549.168      383.347        0.450        0.144       75.135       13.567        0.033      336.271        7.460      874.281
01/14/2021  18:46:00      -35.877        2.125       -6.813       43.291       21.230       22.377     1874.132      450.717      500.749        0.208        0.141       35.939       11.659        0.105      336.226        7.384      874.275
01/14/2021  18:47:00      -87.791       19.564      -20.568       32.207       23.488       16.964     1037.288      551.677      287.761        0.519        0.094       89.945        9.330        0.011      336.270        7.459      874.274
01/14/2021  18:48:00      -76.822       29.808      -14.257       35.065       20.080       15.661     1229.568      403.216      245.269        0.444        0.094       82.402       12.131        0.022      336.218        7.372      874.268
01/14/2021  18:49:00      -48.617        4.591      -12.711       40.175       30.603       22.533     1614.004      936.568      507.728        0.280        0.153       48.833       17.476        0.128      336.256        7.435      874.277
01/14/2021  18:50:00      -81.626       22.756      -13.636       28.749       22.473       16.686      826.526      505.031      278.407        0.449        0.080       84.739        7.789        0.008      336.279        7.472      874.271
01/14/2021  18:51:00      -76.997       16.420      -18.902       32.949       21.602       15.875     1085.635      466.649      252.000        0.418        0.090       78.728       12.405        0.025      336.172        7.295      874.267
01/14/2021  18:52:00      -57.492        2.505      -14.724       30.674       20.488       19.378      940.887      419.775      375.495        0.263        0.087       57.547       11.999        0.043      336.196        7.333      874.261
01/14/2021  18:53:00      -40.220        6.074      -16.444       40.204       21.187       22.205     1616.367      448.892      493.071        0.224        0.128       40.676        9.603        0.056      336.143        7.247      874.252
01/14/2021  18:54:00      -33.154       -0.190      -14.724       31.418       18.323       18.697      987.114      335.717      349.562        0.149        0.084       33.154       16.561        0.250      336.094        7.165      874.250
01/14/2021  18:55:00      -44.014       27.571      -13.964       27.338       21.450       11.656      747.345      460.082      135.864        0.212        0.067       51.936        9.545        0.034      336.137        7.236      874.262
01/14/2021  18:56:00      -32.771       43.239       -5.372       27.211       27.997       19.438      740.457      783.834      377.850        0.244        0.095       54.254       14.257        0.069      336.414        7.699      874.268
01/14/2021  18:57:00        3.815       93.985        4.451       35.267       38.015       22.359     1243.764     1445.105      499.924        0.603        0.159       94.062       13.117        0.019      337.168        8.961      874.270
01/14/2021  18:58:00       53.274      108.405        3.383       41.170       33.201       24.023     1694.958     1102.283      577.127        0.899        0.169      120.788       19.265        0.025      337.391        9.334      874.284
01/14/2021  18:59:00        6.688       81.041        2.810       33.096       30.442       26.500     1095.325      926.727      702.228        0.467        0.136       81.317       18.611        0.052      337.303        9.187      874.299
01/14/2021  19:00:00      -39.794       21.413        1.458       28.520       17.686       14.189      813.363      312.806      201.330        0.169        0.066       45.189        4.963        0.012      336.394        7.665      874.323
01/14/2021  19:01:00       -5.257       42.017       -0.375       34.988       20.441       18.557     1224.187      417.825      344.357        0.189        0.099       42.345       12.499        0.087      336.880        8.479      874.348
01/14/2021  19:02:00      -62.121       39.574      -16.997       35.033       16.148       16.773     1227.286      260.742      281.348        0.374        0.088       73.655        7.786        0.011      336.293        7.497      874.366
01/14/2021  19:03:00      -63.822       30.334      -19.929       25.390       17.510       17.110      644.670      306.592      292.739        0.332        0.062       70.665       12.532        0.031      336.330        7.560      874.392
01/14/2021  19:04:00      -57.485       34.635      -14.308       30.020       13.680       16.643      901.224      187.133      276.999        0.304        0.068       67.113       16.818        0.063      336.119        7.207      874.411
01/14/2021  19:05:00      -82.452       43.737      -13.937       41.123       22.943       16.811     1691.067      526.391      282.601        0.570        0.125       93.334       10.762        0.013      336.228        7.389      874.448
01/14/2021  19:06:00     -100.294       29.485      -14.488       33.694       33.138       24.389     1135.296     1098.151      594.831        0.698        0.141      104.539       11.584        0.012      336.171        7.291      874.499
01/14/2021  19:07:00      -42.163       15.353      -11.242       31.787       23.768       23.885     1010.401      564.908      570.489        0.214        0.107       44.871        8.526        0.036      336.202        7.345      874.552
01/14/2021  19:08:00      -63.196       27.065       -6.819       45.633       34.196       29.622     2082.350     1169.358      877.472        0.445        0.206       68.748       26.252        0.146      336.110        7.193      874.601
01/14/2021  19:09:00      -48.857       29.011      -12.203       44.093       29.338       28.826     1944.161      860.705      830.917        0.351        0.182       56.821       17.422        0.094      336.375        7.635      874.624
01/14/2021  19:10:00      -10.241       41.693       -5.705       35.437       44.969       20.371     1255.801     2022.192      414.979        0.278        0.185       42.933       16.668        0.151      336.528        7.890      874.642
01/14/2021  19:11:00       -7.478       69.963       -2.859       37.104       48.113       25.439     1376.708     2314.858      647.152        0.465        0.217       70.362       21.149        0.090      336.941        8.579      874.642
01/14/2021  19:12:00        3.732       47.330       -0.514       31.849       29.696       23.439     1014.351      881.874      549.394        0.235        0.122       47.477       17.597        0.137      336.953        8.600      874.621
01/14/2021  19:13:00       24.710       84.770       -5.725       39.019       25.460       22.347     1522.463      648.212      499.370        0.525        0.134       88.298       16.009        0.033      336.917        8.541      874.610
01/14/2021  19:14:00       39.341       62.955       -1.098       30.928       25.768       22.517      956.543      664.007      507.037        0.382        0.106       74.236       14.147        0.036      337.055        8.772      874.584
01/14/2021  19:15:00       46.403       55.518       -0.171       36.247       23.433       18.347     1313.828      549.100      336.607        0.372        0.110       72.356        8.341        0.013      337.124        8.886      874.561
01/14/2021  19:16:00       18.293       99.691       -2.271       38.274       37.817       24.600     1464.927     1430.129      605.145        0.689        0.175      101.356       14.905        0.022      337.285        9.156      874.543
01/14/2021  19:17:00       11.279       97.173       -3.535       37.907       41.862       21.815     1436.935     1752.462      475.883        0.662        0.183       97.825        7.715        0.006      337.169        8.962      874.545
01/14/2021  19:18:00       24.953       82.685       -0.917       49.764       39.471       25.465     2476.492     1557.972      648.488        0.607        0.234       86.368       23.961        0.077      337.071        8.798      874.563
01/14/2021  19:19:00        1.907       78.875       -6.882       36.446       39.239       23.151     1328.288     1539.690      535.977        0.484        0.170       78.898       23.521        0.089      337.052        8.767      874.577
01/14/2021  19:20:00        3.942       72.493       -3.397       37.456       43.702       17.428     1402.967     1909.840      303.743        0.445        0.181       72.600       11.574        0.025      336.940        8.579      874.599
01/14/2021  19:21:00       -2.126       99.363        2.918       34.880       42.371       24.460     1216.606     1795.269      598.303        0.675        0.181       99.386       22.371        0.051      337.029        8.729      874.616
01/14/2021  19:22:00       54.231      124.269       -4.007       37.543       27.422       21.520     1409.480      751.951      463.129        1.051        0.131      135.586       16.788        0.015      337.279        9.146      874.638
01/14/2021  19:23:00       42.555      109.360       -4.987       18.838       31.303       18.883      354.889      979.882      356.558        0.774        0.085      117.348       11.447        0.010      337.357        9.276      874.639
01/14/2021  19:24:00       73.363      102.811       -3.171       32.180       31.580       19.923     1035.569      997.291      396.913        0.920        0.121      126.302       20.194        0.026      337.289        9.162      874.634
01/14/2021  19:25:00       55.423       71.828       -3.000       33.630       19.462       18.306     1130.949      378.753      335.110        0.504        0.092       90.724       12.405        0.019      337.213        9.036      874.630
01/14/2021  19:26:00       49.448       66.055       -2.340       35.695       24.154       20.999     1274.162      583.406      440.951        0.456        0.115       82.513       18.561        0.051      337.131        8.899      874.625
01/14/2021  19:27:00       41.486       52.845        5.095       32.100       22.311       23.004     1030.386      497.788      529.204        0.330        0.103       67.184       20.717        0.095      337.151        8.932      874.621
01/14/2021  19:28:00       50.524       76.458        7.965       45.788       34.452       28.453     2096.497     1186.920      809.578        0.628        0.205       91.643       26.282        0.082      337.205        9.021      874.616
01/14/2021  19:29:00       55.443       63.996        1.491       38.729       24.463       20.475     1499.918      598.432      419.234        0.484        0.126       84.672       13.429        0.025      337.303        9.187      874.619
01/14/2021  19:30:00       64.395       64.661        4.311       30.246       23.119       18.113      914.819      534.501      328.094        0.506        0.089       91.256       16.082        0.031      337.300        9.180      874.621
01/14/2021  19:31:00       46.170       55.094        0.953       36.479       14.913       15.086     1330.711      222.397      227.596        0.347        0.089       71.882       11.031        0.024      337.321        9.216      874.627
01/14/2021  19:32:00       57.584       47.047       -0.455       33.542       15.824       18.421     1125.063      250.387      339.347        0.362        0.086       74.359       19.979        0.072      337.338        9.244      874.649
01/14/2021  19:33:00       18.666       56.175        4.924       27.575       27.386       17.544      760.404      750.003      307.787        0.267        0.091       59.195       19.531        0.109      337.230        9.066      874.670
01/14/2021  19:34:00       22.906       33.800        1.043       37.545       18.200       18.232     1409.639      331.256      332.395        0.187        0.104       40.830       21.615        0.280      337.244        9.088      874.683
01/14/2021  19:35:00       17.447       47.038       -5.845       16.748       19.580       11.724      280.483      383.361      137.463        0.168        0.040       50.170       10.121        0.041      337.256        9.109      874.697
01/14/2021  19:36:00      -39.783        8.826      -13.327       17.173        9.964        9.665      294.900       99.290       93.413        0.116        0.024       40.751        4.757        0.014      336.421        7.711      874.700
01/14/2021  19:37:00      -35.398        3.396      -12.605       29.437       12.988       15.518      866.553      168.687      240.809        0.135        0.064       35.561        7.532        0.045      336.287        7.487      874.701
01/14/2021  19:38:00      -34.064       -4.239       -7.280       28.256       18.962       14.207      798.392      359.551      201.830        0.130        0.068       34.327        5.901        0.030      336.296        7.503      874.714
01/14/2021  19:39:00      -27.273       10.636       -8.817       33.114       16.295       17.040     1096.517      265.526      290.372        0.129        0.083       29.274       15.245        0.271      336.279        7.473      874.737
01/14/2021  19:40:00      -95.576        2.872       -7.623       40.063       25.975       17.015     1605.075      674.703      289.498        0.588        0.128       95.619        9.064        0.009      336.268        7.456      874.746
01/14/2021  19:41:00     -101.334       10.201       -1.103       30.446       22.200       16.489      926.986      492.843      271.889        0.603        0.085      101.846       13.163        0.017      336.235        7.400      874.751
01/14/2021  19:42:00      -80.373        1.677       -9.282       25.724       13.128       14.650      661.708      172.355      214.608        0.380        0.052       80.390        9.918        0.015      336.290        7.491      874.747
01/14/2021  19:43:00      -92.943        5.630      -15.273       21.009       10.815       12.035      441.381      116.971      144.845        0.480        0.035       93.113        7.449        0.006      336.293        7.497      874.726
01/14/2021  19:44:00      -27.603       -6.482       -3.680       26.494       15.871       13.892      701.952      251.890      192.991        0.098        0.057       28.353       13.074        0.213      336.214        7.365      874.693
01/14/2021  19:45:00      -21.420      -16.351       -1.267       22.166       12.989       10.646      491.352      168.716      113.338        0.075        0.039       26.947        5.170        0.037      336.201        7.343      874.650
01/14/2021  19:46:00      -23.507       -8.531       -5.615       27.548       12.132       14.061      758.878      147.196      197.715        0.088        0.055       25.007       13.347        0.285      336.184        7.313      874.608
01/14/2021  19:47:00      -27.450       -4.141      -11.290       29.093       19.240       11.365      846.382      370.161      129.167        0.112        0.067       27.761       12.791        0.212      336.288        7.488      874.578
01/14/2021  19:48:00      -31.432      -13.044       -6.580       27.943       18.707       15.598      780.824      349.945      243.287        0.129        0.069       34.031       13.873        0.166      336.315        7.535      874.557
01/14/2021  19:49:00      -14.730       -7.232        4.358       30.870       20.829       11.153      952.938      433.848      124.380        0.090        0.076       16.410       14.220        0.751      336.163        7.279      874.538
01/14/2021  19:50:00      -39.288       -6.778       -7.178       28.307       19.368       11.370      801.297      375.115      129.279        0.147        0.065       39.868       13.530        0.115      336.116        7.200      874.534
01/14/2021  19:51:00      -55.422        8.521       -3.256       22.692       16.419       13.790      514.923      269.571      190.160        0.206        0.049       56.073        5.314        0.009      336.103        7.181      874.532
01/14/2021  19:52:00      -56.277        7.525       -9.769       25.604       12.804       13.080      655.540      163.935      171.077        0.215        0.050       56.778        4.796        0.007      336.087        7.153      874.546
01/14/2021  19:53:00      -69.572        2.846       -9.587       31.620       19.176       14.001      999.850      367.721      196.015        0.325        0.078       69.630       10.487        0.023      335.940        6.908      874.581
01/14/2021  19:54:00      -82.547       -9.452       -2.769       34.832       22.807       17.265     1213.252      520.174      298.079        0.447        0.102       83.087       12.641        0.023      335.962        6.944      874.614
01/14/2021  19:55:00      -77.462        3.911       -9.374       42.422       26.665       20.477     1799.590      711.011      419.294        0.452        0.146       77.560       17.663        0.052      335.856        6.767      874.647
01/14/2021  19:56:00      -91.239       29.177      -11.102       26.301       20.065       15.627      691.719      402.587      244.204        0.532        0.067       95.791        8.545        0.008      335.707        6.520      874.675
01/14/2021  19:57:00     -115.769       23.681      -14.187       17.623       13.395       11.810      310.560      179.415      139.486        0.740        0.031      118.166        8.821        0.006      335.821        6.711      874.693
01/14/2021  19:58:00      -75.086       -5.161        2.356       39.111       26.853       19.381     1529.648      721.060      375.627        0.415        0.131       75.263       20.106        0.071      335.721        6.545      874.688
01/14/2021  19:59:00      -87.006       -7.420       -6.957       31.976       19.204       15.178     1022.473      368.804      230.364        0.465        0.081       87.321       11.747        0.018      335.764        6.616      874.676
01/14/2021  20:00:00      -73.997       -2.570       -6.157       26.770       13.060       15.096      716.644      170.558      227.890        0.332        0.056       74.041        7.493        0.010      335.742        6.579      874.661
01/14/2021  20:01:00      -63.679        3.542       -2.152       23.005       16.212       13.447      529.253      262.819      180.811        0.252        0.049       63.778        5.456        0.007      335.746        6.585      874.649
01/14/2021  20:02:00      -71.799        0.015       -2.880       26.873       18.417       16.220      722.152      339.190      263.089        0.324        0.066       71.799        6.688        0.009      335.836        6.735      874.647
01/14/2021  20:03:00      -68.068        5.734       -1.832       37.467       21.114       18.998     1403.756      445.788      360.915        0.344        0.111       68.309       11.548        0.029      335.770        6.624      874.643
01/14/2021  20:04:00      -44.089      -12.309        0.167       38.381       26.527       20.232     1473.104      703.658      409.348        0.234        0.129       45.775       16.503        0.130      335.659        6.438      874.651
01/14/2021  20:05:00     -106.805        1.601       -7.444       34.923       25.752       18.985     1219.617      663.191      360.421        0.685        0.112      106.817       13.647        0.016      335.651        6.426      874.668
01/14/2021  20:06:00      -37.418        0.469       -3.190       46.746       32.080       21.076     2185.169     1029.120      444.191        0.253        0.183       37.420       19.353        0.267      335.562        6.279      874.670
01/14/2021  20:07:00      -97.762        3.801       -1.698       39.998       29.366       21.958     1599.816      862.356      482.161        0.626        0.147       97.836       15.716        0.026      335.609        6.357      874.671
01/14/2021  20:08:00      -68.615        0.888        1.656       43.789       28.303       21.798     1917.448      801.049      475.150        0.395        0.160       68.620        8.335        0.015      335.643        6.414      874.664
01/14/2021  20:09:00      -48.717       -3.584        0.290       49.019       24.918       20.137     2402.837      620.890      405.492        0.291        0.171       48.848        6.610        0.018      335.592        6.327      874.662
01/14/2021  20:10:00      -67.466        4.280        1.903       51.804       20.525       17.794     2683.697      421.285      316.624        0.400        0.171       67.602        8.455        0.016      335.536        6.234      874.662
01/14/2021  20:11:00      -90.687        3.969        1.917       49.021       29.284       27.083     2403.029      857.560      733.490        0.612        0.200       90.774       24.967        0.076      335.465        6.116      874.658
01/14/2021  20:12:00      -82.622       -5.319        6.894       49.992       32.631       22.628     2499.165     1064.767      512.039        0.549        0.204       82.793       12.241        0.022      335.521        6.209      874.668
01/14/2021  20:13:00      -93.851        4.588        6.139       47.195       33.105       22.713     2227.329     1095.926      515.867        0.635        0.192       93.963       19.016        0.041      335.516        6.201      874.690
01/14/2021  20:14:00      -74.929        4.271        1.266       45.777       33.961       22.981     2095.515     1153.380      528.106        0.470        0.189       75.051       19.356        0.067      335.563        6.280      874.706
01/14/2021  20:15:00      -58.602       -3.927       12.309       53.193       35.725       24.145     2829.527     1276.283      582.993        0.414        0.234       58.734       16.989        0.084      335.538        6.238      874.724
01/14/2021  20:16:00      -56.944       -2.139        3.088       67.431       27.938       23.488     4546.883      780.513      551.667        0.457        0.294       56.984        8.965        0.025      335.483        6.146      874.740
01/14/2021  20:17:00     -107.848       -2.389       -3.166       43.688       27.630       24.193     1908.604      763.408      585.297        0.745        0.163      107.874       19.057        0.031      335.477        6.136      874.756
01/14/2021  20:18:00      -88.226       -6.552       -7.773       51.524       40.340       27.832     2654.692     1627.354      774.598        0.647        0.253       88.469       21.707        0.060      335.308        5.855      874.772
01/14/2021  20:19:00     -139.161       34.251      -11.226       66.922       48.360       23.525     4478.596     2338.708      553.446        1.402        0.369      143.314       18.403        0.016      335.218        5.703      874.798
01/14/2021  20:20:00     -135.303       51.161        3.485       87.428       55.536       36.056     7643.742     3084.212     1300.003        1.648        0.601      144.653       29.999        0.043      335.217        5.704      874.829
01/14/2021  20:21:00     -151.435       42.251       -0.931       60.535       38.979       28.510     3664.436     1519.379      812.799        1.536        0.300      157.219       28.140        0.032      335.146        5.587      874.846
01/14/2021  20:22:00     -125.009        1.690        3.119       65.921       45.929       29.158     4345.591     2109.443      850.204        1.147        0.365      125.020       30.386        0.059      335.165        5.618      874.851
01/14/2021  20:23:00     -164.173       17.236        5.660       63.987       37.844       29.624     4094.377     1432.188      877.593        1.684        0.320      165.076       20.755        0.016      335.165        5.616      874.842
01/14/2021  20:24:00     -151.636       12.698        3.581       66.666       36.861       28.560     4444.406     1358.711      815.657        1.489        0.331      152.167       30.613        0.040      335.122        5.546      874.828
01/14/2021  20:25:00     -133.908       35.907        1.581       72.159       29.324       26.060     5206.973      859.868      679.127        1.298        0.337      138.639       26.735        0.037      335.113        5.532      874.814
01/14/2021  20:26:00     -133.125       28.423       -4.689       53.414       34.475       21.560     2853.018     1188.506      464.823        1.153        0.225      136.126       19.709        0.021      335.176        5.636      874.791
01/14/2021  20:27:00      -95.322       11.340        7.084       59.659       31.076       24.009     3559.170      965.722      576.418        0.718        0.255       95.994       20.392        0.045      335.202        5.679      874.770
01/14/2021  20:28:00      -52.107       -1.386        0.379       38.139       27.521       20.411     1454.593      757.413      416.615        0.267        0.131       52.125        5.726        0.012      335.236        5.734      874.752
01/14/2021  20:29:00      -57.418       -6.721        3.146       38.830       29.495       17.524     1507.745      869.981      307.102        0.302        0.134       57.810        7.374        0.016      335.349        5.923      874.747
01/14/2021  20:30:00      -42.654       -4.974        1.872       45.504       32.241       22.978     2070.578     1039.456      527.998        0.274        0.182       42.943        8.435        0.039      335.337        5.902      874.757
01/14/2021  20:31:00      -53.058       -2.344        9.727       46.245       28.948       20.416     2138.587      837.997      416.811        0.315        0.170       53.110        8.931        0.028      335.304        5.848      874.775
01/14/2021  20:32:00     -101.406       -6.961        2.999       57.411       32.002       24.271     3295.988     1024.135      589.098        0.762        0.245      101.645       21.322        0.044      335.345        5.916      874.786
01/14/2021  20:33:00      -70.813      -16.606        8.597       52.482       37.185       23.963     2754.404     1382.741      574.202        0.504        0.236       72.734       16.843        0.054      335.357        5.936      874.814
01/14/2021  20:34:00     -115.707       10.863        1.495       69.363       38.849       26.908     4811.188     1509.209      724.063        1.027        0.352      116.216       28.864        0.062      335.223        5.713      874.844
01/14/2021  20:35:00     -119.228       17.094        7.154       53.712       34.120       32.992     2884.983     1164.153     1088.452        0.985        0.257      120.447       33.248        0.076      335.156        5.603      874.870
01/14/2021  20:36:00     -133.996       19.744        0.808       56.923       38.988       28.746     3240.272     1520.065      826.325        1.196        0.279      135.443       19.552        0.021      335.099        5.508      874.910
01/14/2021  20:37:00     -159.163       30.539        3.394       48.329       37.700       29.206     2335.662     1421.276      852.969        1.544        0.230      162.067       24.685        0.023      335.032        5.398      874.946
01/14/2021  20:38:00     -173.217       45.987        2.922       78.086       49.265       35.160     6097.422     2427.065     1236.254        2.094        0.488      179.217       35.249        0.039      334.945        5.251      874.964
01/14/2021  20:39:00     -156.973       26.582       -5.346       95.504       42.043       33.007     9120.937     1767.622     1089.437        1.867        0.599      159.208       38.430        0.058      334.919        5.208      874.978
01/14/2021  20:40:00     -202.155       28.453      -12.632       84.617       50.638       34.953     7160.004     2564.167     1221.725        2.639        0.547      204.147       42.216        0.043      334.925        5.217      875.000
01/14/2021  20:41:00     -155.176       22.336       -4.025       70.326       57.549       29.114     4945.706     3311.870      847.625        1.685        0.455      156.776       32.585        0.043      334.895        5.169      875.004
01/14/2021  20:42:00     -180.849       29.008       -7.578       44.693       45.354       32.567     1997.465     2056.969     1060.623        1.936        0.256      183.161       26.195        0.020      334.903        5.183      875.001
01/14/2021  20:43:00     -130.277       24.027       -2.770       41.421       34.756       25.355     1715.685     1207.964      642.859        1.056        0.178      132.474       18.355        0.019      334.836        5.072      874.996
01/14/2021  20:44:00     -136.984       32.364        1.128       61.257       30.283       26.384     3752.448      917.062      696.103        1.259        0.268      140.755       29.351        0.043      334.938        5.241      874.994
01/14/2021  20:45:00     -123.085       16.336       -1.457       51.183       31.863       23.240     2619.678     1015.239      540.075        0.980        0.209      124.164       23.817        0.037      334.916        5.205      875.000
01/14/2021  20:46:00     -134.276       22.290       -3.319       49.660       29.729       23.909     2466.106      883.826      571.640        1.123        0.196      136.113       19.803        0.021      334.973        5.301      875.010
01/14/2021  20:47:00      -92.194        9.933       -0.635       62.681       26.333       23.416     3928.916      693.437      548.323        0.688        0.259       92.728       16.637        0.032      335.017        5.373      875.022
01/14/2021  20:48:00      -97.346        6.435       -0.731       55.139       33.621       24.539     3040.294     1130.370      602.176        0.714        0.239       97.559       15.737        0.026      335.038        5.409      875.024
01/14/2021  20:49:00      -80.322       -0.671        3.455       58.341       26.848       21.299     3403.653      720.829      453.663        0.552        0.229       80.324       19.649        0.060      335.039        5.410      875.024
01/14/2021  20:50:00      -28.017      -11.364       -5.614       45.765       29.509       23.352     2094.390      870.806      545.312        0.223        0.176       30.234       19.900        0.433      335.125        5.552      875.021
01/14/2021  20:51:00      -99.565      -12.778       -8.390       54.152       26.278       21.596     2932.467      690.543      466.367        0.712        0.204      100.381       10.614        0.011      335.151        5.595      875.014
01/14/2021  20:52:00      -59.800       -3.748        3.322       51.680       25.096       22.841     2670.844      629.812      521.717        0.371        0.191       59.917       18.191        0.092      335.105        5.520      875.028
01/14/2021  20:53:00      -98.221        9.633       -5.194       40.883       25.040       21.448     1671.444      626.986      460.015        0.626        0.138       98.692       13.137        0.018      335.132        5.563      875.046
01/14/2021  20:54:00      -52.299        1.369        2.161       43.248       20.451       22.480     1870.389      418.250      505.350        0.277        0.140       52.317        8.763        0.028      335.077        5.473      875.072
01/14/2021  20:55:00      -32.298       -0.454       -2.454       44.194       26.139       20.598     1953.102      683.248      424.274        0.205        0.153       32.301        6.119        0.036      334.977        5.306      875.100
01/14/2021  20:56:00      -63.650       -4.951        2.423       47.909       31.326       24.901     2295.242      981.305      620.050        0.399        0.195       63.842       13.840        0.047      334.920        5.212      875.120
01/14/2021  20:57:00      -71.654       -4.342        2.139       55.875       30.465       19.330     3122.041      928.132      373.665        0.479        0.221       71.785       18.836        0.069      334.973        5.301      875.135
01/14/2021  20:58:00      -81.786      -17.093       -1.012       47.639       30.018       25.680     2269.448      901.071      659.456        0.541        0.191       83.553       18.395        0.048      334.891        5.163      875.142
01/14/2021  20:59:00      -49.126      -12.414        4.106       50.507       35.589       24.938     2550.933     1266.549      621.927        0.351        0.222       50.670       15.944        0.099      334.927        5.223      875.146
01/14/2021  21:00:00      -34.520      -20.852        9.175       52.411       33.894       26.438     2746.951     1148.820      698.970        0.315        0.230       40.329       11.877        0.087      334.901        5.179      875.146
01/14/2021  21:01:00      -70.705      -14.510       -0.453       36.761       32.436       22.499     1351.386     1052.107      506.208        0.406        0.145       72.179       14.414        0.040      334.880        5.145      875.144
01/14/2021  21:02:00      -52.617       -3.427       -2.007       44.527       31.289       25.994     1982.633      979.008      675.688        0.321        0.182       52.729       13.396        0.065      334.807        5.024      875.134
01/14/2021  21:03:00      -83.453      -20.901       -4.439       48.924       28.063       24.118     2393.528      787.542      581.677        0.559        0.188       86.031       11.687        0.018      334.799        5.011      875.119
01/14/2021  21:04:00      -85.429       -8.413       -4.833       54.691       33.897       27.173     2991.096     1148.974      738.357        0.613        0.244       85.842       25.096        0.085      334.777        4.974      875.103
01/14/2021  21:05:00     -135.304        1.740      -15.365       37.968       25.559       22.701     1441.565      653.242      515.319        1.058        0.131      135.315        8.867        0.004      334.703        4.851      875.092
01/14/2021  21:06:00     -120.545       12.720       -9.162       55.820       28.404       23.183     3115.849      806.762      537.448        0.962        0.223      121.215       22.186        0.034      334.702        4.849      875.073
01/14/2021  21:07:00     -138.777       24.610       -6.918       42.165       21.264       21.489     1777.917      452.149      461.791        1.130        0.135      140.942       16.152        0.013      334.636        4.740      875.069
01/14/2021  21:08:00     -134.971        2.200       -2.455       31.941       21.721       19.979     1020.205      471.818      399.152        1.006        0.095      134.989       13.952        0.011      334.657        4.774      875.068
01/14/2021  21:09:00     -118.712        3.615       -8.287       37.221       26.099       22.268     1385.382      681.149      495.846        0.837        0.128      118.767       11.962        0.010      334.626        4.723      875.077
01/14/2021  21:10:00      -52.348      -13.731        0.173       51.042       24.707       21.324     2605.237      610.420      454.724        0.330        0.184       54.119       12.299        0.052      334.598        4.676      875.080
01/14/2021  21:11:00      -53.944       -8.176       -9.789       52.473       31.743       30.946     2753.445     1007.621      957.631        0.389        0.236       54.560       25.472        0.218      334.557        4.607      875.095
01/14/2021  21:12:00      -82.371      -16.624      -10.882       43.344       34.927       24.714     1878.718     1219.865      610.781        0.544        0.185       84.032       19.175        0.052      334.502        4.516      875.108
01/14/2021  21:13:00     -106.259      -10.018      -20.072       38.430       36.508       21.138     1476.863     1332.826      446.801        0.752        0.163      106.730       15.794        0.022      334.462        4.452      875.119
01/14/2021  21:14:00      -90.749      -10.705       -7.252       43.858       34.183       30.581     1923.531     1168.469      935.221        0.621        0.201       91.378       28.996        0.101      334.436        4.406      875.112
01/14/2021  21:15:00     -101.165       -3.839      -20.133       53.913       34.994       23.834     2906.656     1224.606      568.060        0.768        0.235      101.238       11.899        0.014      334.453        4.436      875.106
01/14/2021  21:16:00     -101.882        3.820      -15.220       25.470       18.745       17.056      648.744      351.364      290.909        0.596        0.065      101.954        5.994        0.003      334.441        4.417      875.105
01/14/2021  21:17:00     -113.131      -11.771       -6.358       31.008       20.144       19.329      961.474      405.777      373.625        0.736        0.087      113.742       11.869        0.011      334.482        4.484      875.111
01/14/2021  21:18:00      -74.129        2.684       -4.240       54.211       25.642       20.108     2938.818      657.515      404.313        0.476        0.200       74.177       23.826        0.103      334.565        4.620      875.117
01/14/2021  21:19:00      -85.543       -1.517      -11.607       49.181       24.064       18.769     2418.736      579.057      352.271        0.540        0.168       85.556        9.440        0.012      334.520        4.546      875.111
01/14/2021  21:20:00      -64.992      -18.456       -6.079       53.020       30.072       23.627     2811.133      904.323      558.217        0.444        0.214       67.561       12.091        0.032      334.475        4.473      875.119
01/14/2021  21:21:00     -102.819       -7.976       -7.001       47.279       25.458       25.066     2235.286      648.132      628.324        0.710        0.176      103.128        9.692        0.009      334.472        4.468      875.120
01/14/2021  21:22:00     -101.048       -3.487       -3.863       39.396       22.034       19.686     1552.053      485.500      387.534        0.633        0.121      101.108       14.435        0.020      334.543        4.584      875.123
01/14/2021  21:23:00     -115.718        5.589       -2.107       36.596       26.154       16.777     1339.274      684.047      281.476        0.787        0.115      115.853       17.441        0.023      334.616        4.706      875.133
01/14/2021  21:24:00      -92.934      -12.972        0.735       36.567       28.491       18.741     1337.141      811.725      351.214        0.565        0.125       93.835       15.439        0.027      334.565        4.621      875.134
01/14/2021  21:25:00      -94.659       -7.514       -9.329       29.236       20.705       19.069      854.762      428.693      363.616        0.538        0.082       94.957       12.637        0.018      334.582        4.648      875.131
01/14/2021  21:26:00      -68.137       -4.701       -0.677       51.736       25.826       19.351     2676.660      667.003      374.464        0.419        0.186       68.299        8.938        0.017      334.497        4.509      875.112
01/14/2021  21:27:00      -46.962       -8.341       -6.855       47.988       27.847       22.472     2302.831      775.478      505.009        0.295        0.179       47.697        9.227        0.037      334.545        4.588      875.097
01/14/2021  21:28:00      -31.789      -15.230       -8.493      228.584       29.235      104.513    52250.782      854.691    10923.041        3.266        3.201       35.249      151.122       18.381      334.597        4.676      875.095
01/14/2021  21:29:00      -70.660       -9.185       -3.547       46.977       30.754       20.744     2206.858      945.824      430.328        0.434        0.179       71.255       14.606        0.042      334.502        4.517      875.088
01/14/2021  21:30:00      -77.579      -18.928       -4.990       43.170       20.224       24.235     1863.641      409.015      587.311        0.463        0.143       79.855       19.812        0.062      334.450        4.433      875.074
01/14/2021  21:31:00      -73.158       -4.279       -3.069       56.262       23.571       22.885     3165.371      555.585      523.733        0.481        0.212       73.283       14.090        0.037      334.402        4.353      875.064
01/14/2021  21:32:00      -91.061       -3.787       -5.206      142.908       28.762       67.403    20422.581      827.276     4543.229        1.706        1.290       91.139       91.803        1.015      334.481        4.482      875.070
01/14/2021  21:33:00     -130.747      -13.813       -5.227       43.781       25.325       23.025     1916.774      641.347      530.139        1.020        0.154      131.474       24.061        0.033      334.434        4.405      875.080
01/14/2021  21:34:00      -87.706      -10.106       -2.571       53.332       29.322       21.648     2844.284      859.809      468.629        0.599        0.209       88.286       21.595        0.060      334.454        4.438      875.096
01/14/2021  21:35:00      -83.732        0.165        6.600       45.302       29.639       22.448     2052.315      878.442      503.905        0.524        0.172       83.733       14.892        0.032      334.499        4.510      875.106
01/14/2021  21:36:00      -98.199        5.610        5.155       48.470       30.058       24.738     2349.309      903.484      611.970        0.678        0.193       98.359       20.306        0.043      334.474        4.470      875.127
01/14/2021  21:37:00     -101.033       -5.756        4.921       43.438       26.660       22.419     1886.871      710.733      502.611        0.668        0.155      101.197       21.819        0.046      334.498        4.509      875.148
01/14/2021  21:38:00     -101.141       -6.832       -4.175       48.440       29.235       19.368     2346.460      854.706      375.130        0.693        0.179      101.372       12.436        0.015      334.463        4.453      875.166
01/14/2021  21:39:00     -107.531      -11.074        3.011       37.573       30.441       20.339     1411.726      926.656      413.682        0.722        0.138      108.099       14.992        0.019      334.464        4.454      875.178
01/14/2021  21:40:00      -89.099        2.066       -1.289       57.194       29.663       22.089     3271.146      879.879      487.918        0.629        0.232       89.123       10.992        0.015      334.502        4.518      875.194
01/14/2021  21:41:00      -94.014      -18.734       -6.009       48.864       25.396       24.120     2387.652      644.969      581.762        0.642        0.181       95.862        7.431        0.006      334.475        4.472      875.205
01/14/2021  21:42:00     -143.162       19.146       -3.506       25.272       21.178       16.733      638.679      448.503      280.003        1.112        0.068      144.437       11.402        0.006      334.442        4.417      875.206
01/14/2021  21:43:00     -124.030       11.427       -2.683       28.199       25.067       20.880      795.211      628.340      435.971        0.869        0.093      124.555       15.601        0.016      334.421        4.383      875.208
01/14/2021  21:44:00     -111.505        3.074       -6.492       38.137       27.354       20.397     1454.459      748.241      416.020        0.755        0.131      111.547       15.818        0.020      334.482        4.484      875.218
01/14/2021  21:45:00      -74.020        8.670        0.833       41.327       23.853       18.295     1707.926      568.947      334.710        0.408        0.131       74.526       12.723        0.029      334.455        4.438      875.224
01/14/2021  21:46:00      -94.661       -9.505       -9.485       25.809       29.707       17.138      666.082      882.527      293.698        0.549        0.092       95.138       11.259        0.014      334.465        4.454      875.235
01/14/2021  21:47:00     -118.810       -2.270       -6.919       29.502       28.373       17.201      870.369      805.032      295.890        0.807        0.099      118.831       10.646        0.008      334.484        4.488      875.250
01/14/2021  21:48:00     -126.311        2.781       -4.079       30.710       23.792       15.520      943.077      566.068      240.877        0.886        0.088      126.342        9.990        0.006      334.405        4.357      875.263
01/14/2021  21:49:00      -86.483       -4.655      -12.712      196.519       24.051       92.071    38619.621      578.435     8477.154        2.766        2.384       86.608      131.096        2.291      334.382        4.321      875.290
01/14/2021  21:50:00      -78.214       -8.678      -12.593       37.483       26.174       19.439     1404.949      685.069      377.885        0.441        0.123       78.693       13.192        0.028      334.356        4.276      875.295
01/14/2021  21:51:00      -56.021        8.209       -6.315       32.150       23.459       17.808     1033.596      550.326      317.133        0.257        0.095       56.619       10.643        0.035      334.325        4.223      875.307
01/14/2021  21:52:00      -97.441       20.724      -20.217       25.453       18.490       15.819      647.880      341.871      250.250        0.579        0.062       99.620        8.441        0.007      334.207        4.027      875.313
01/14/2021  21:53:00     -103.540       13.538      -24.551       22.622       15.246       15.448      511.770      232.450      238.639        0.624        0.049      104.421       11.950        0.013      334.196        4.009      875.324
01/14/2021  21:54:00     -100.653       18.133      -21.129       27.810       19.218       18.146      773.371      369.318      329.278        0.619        0.074      102.273       13.820        0.018      334.214        4.038      875.325
01/14/2021  21:55:00      -72.754        4.224       -8.974       43.113       25.712       17.038     1858.705      661.113      290.307        0.410        0.141       72.877       12.598        0.030      334.205        4.024      875.324
01/14/2021  21:56:00      -13.599        2.652       -4.252       25.012       18.721       15.606      625.613      350.466      243.544        0.071        0.061       13.855       14.842        1.147      334.272        4.135      875.315
01/14/2021  21:57:00      -43.532      -15.940      -13.813       33.701       17.255       14.081     1135.737      297.728      198.284        0.199        0.082       46.359        9.276        0.040      334.236        4.077      875.319
01/14/2021  21:58:00      -38.208        3.668      -12.091      160.871       16.180       76.066    25879.534      261.796     5785.993        1.677        1.596       38.384      107.840        7.893      334.253        4.105      875.312
01/14/2021  21:59:00      -62.077       -0.816      -12.097       39.214       17.175       18.299     1537.763      294.979      334.837        0.308        0.108       62.082       10.031        0.026      334.172        3.968      875.316
01/14/2021  22:00:00      -99.362        6.907      -11.656       31.540       20.900       20.531      994.743      436.819      421.522        0.595        0.093       99.601        9.060        0.008      334.198        4.012      875.322
01/14/2021  22:01:00     -123.148       10.149       -9.372       21.488       20.931       14.162      461.733      438.104      200.553        0.823        0.055      123.565        9.698        0.006      334.145        3.924      875.325
01/14/2021  22:02:00     -122.918        8.011       -4.830       18.969       11.300       13.671      359.830      127.700      186.896        0.794        0.034      123.179        9.927        0.006      334.243        4.086      875.335
01/14/2021  22:03:00     -101.187        2.619      -12.256      134.305       16.039       64.857    18037.950      257.243     4206.454        1.644        1.125      101.221       91.006        0.808      334.281        4.153      875.351
01/14/2021  22:04:00     -104.619        7.628       -6.443       28.736       17.178       17.354      825.744      295.084      301.165        0.623        0.071      104.896       11.639        0.012      334.224        4.057      875.373
01/14/2021  22:05:00      -92.981        8.665      -19.395       16.946       12.672       10.769      287.171      160.573      115.963        0.483        0.028       93.384        8.961        0.009      334.183        3.988      875.386
01/14/2021  22:06:00      -91.513       15.449      -17.266       22.093       16.095       13.581      488.099      259.062      184.442        0.492        0.047       92.808        7.875        0.007      334.214        4.038      875.395
01/14/2021  22:07:00      -63.489       -5.755       -8.411       36.394       25.152       20.024     1324.555      632.622      400.969        0.325        0.118       63.750        6.585        0.011      334.168        3.962      875.402
01/14/2021  22:08:00      -76.393        5.073       -1.917       32.462       20.111       14.402     1053.780      404.442      207.416        0.377        0.083       76.561        4.572        0.004      334.190        3.998      875.405
01/14/2021  22:09:00      -32.452       -4.331       -4.234      185.933       20.688       88.289    34571.100      428.011     7794.870        2.193        2.140       32.740      123.153       14.150      334.230        4.064      875.400
01/14/2021  22:10:00      -28.667      -12.131       -4.819       36.404       16.036       16.697     1325.279      257.169      278.801        0.143        0.093       31.128       10.896        0.123      334.219        4.048      875.399
01/14/2021  22:11:00      -25.023        2.003       -1.164       35.043       22.690       20.761     1228.042      514.852      431.033        0.140        0.109       25.103       15.456        0.379      334.167        3.961      875.396
01/14/2021  22:12:00      -64.360      -16.066       -3.752       34.361       19.674       18.540     1180.676      387.077      343.734        0.316        0.096       66.335        5.983        0.008      334.182        3.984      875.397
01/14/2021  22:13:00      -45.779      -10.391        2.006       34.141       26.640       19.171     1165.588      709.686      367.514        0.222        0.112       46.943        5.883        0.016      334.177        3.978      875.400
01/14/2021  22:14:00      -32.413       -8.017       -3.510       37.560       23.636       20.086     1410.766      558.655      403.448        0.175        0.119       33.390       14.444        0.187      334.141        3.917      875.416
01/14/2021  22:15:00      -40.723       11.037        6.538       43.472       35.812       23.851     1889.803     1282.502      568.855        0.278        0.187       42.192       18.693        0.196      334.122        3.885      875.431
01/14/2021  22:16:00      -67.920        0.831       -5.660       46.376       25.429       19.284     2150.713      646.625      371.881        0.391        0.158       67.925       18.194        0.072      334.100        3.848      875.427
01/14/2021  22:17:00      -80.038      -13.617        3.392       47.627       25.396       20.196     2268.300      644.945      407.892        0.496        0.166       81.188       10.990        0.018      334.131        3.901      875.413
01/14/2021  22:18:00      -90.846      -15.211       -1.136       33.731       23.009       19.916     1137.801      529.429      396.653        0.527        0.103       92.111        8.077        0.008      334.136        3.910      875.390
01/14/2021  22:19:00      -80.321      -18.034       -4.124      118.011       25.112       58.112    13926.580      630.590     3376.985        1.236        0.897       82.321       77.986        0.897      334.201        4.018      875.364
01/14/2021  22:20:00      -40.400      -10.700        5.635       38.544       22.110       19.870     1485.607      488.841      394.833        0.207        0.118       41.792       16.143        0.149      334.179        3.979      875.358
01/14/2021  22:21:00      -19.695       -5.719       -1.843       34.668       30.652       18.103     1201.856      939.525      327.720        0.145        0.123       20.508       13.054        0.405      334.165        3.956      875.366
01/14/2021  22:22:00      -31.145       -4.281       -2.359       43.850       24.044       17.858     1922.862      578.093      318.907        0.191        0.141       31.438       18.251        0.337      334.150        3.931      875.374
01/14/2021  22:23:00      -40.602       -4.830       -0.202       29.560       19.135       17.594      873.802      366.133      309.558        0.161        0.077       40.888        9.129        0.050      334.069        3.799      875.387
01/14/2021  22:24:00      -60.926       -8.224       -9.064      158.371       21.115       73.856    25081.526      445.823     5454.694        1.742        1.549       61.478      105.370        2.938      334.033        3.740      875.399
01/14/2021  22:25:00      -59.488       -6.568       -0.764       35.771       25.386       17.388     1279.545      644.445      302.358        0.290        0.111       59.850       13.803        0.053      334.019        3.716      875.404
01/14/2021  22:26:00      -43.844        6.685       -9.284      180.704       15.304       85.889    32654.089      234.220     7376.932        2.115        2.013       44.350      122.109        7.581      334.042        3.755      875.407
01/14/2021  22:27:00      -95.080      -18.330      -12.674      141.006       18.705       67.952    19882.762      349.873     4617.438        1.719        1.243       96.831       93.923        0.941      334.086        3.827      875.411
01/14/2021  22:28:00      -47.900        3.109       -2.390      170.946       21.644       83.778    29222.664      468.467     7018.720        1.950        1.835       48.001      116.963        5.937      334.122        3.888      875.414
01/14/2021  22:29:00      -77.865      -12.604       -4.530       33.741       21.787       17.386     1138.466      474.655      302.288        0.408        0.096       78.879       10.882        0.019      334.083        3.823      875.416
01/14/2021  22:30:00      -90.533       -2.813       -6.880       34.335       19.377       16.427     1178.875      375.486      269.854        0.504        0.091       90.577       13.881        0.023      334.058        3.779      875.419
01/14/2021  22:31:00      -65.909      -14.729       -4.719       38.726       19.993       19.992     1499.741      399.727      399.684        0.344        0.115       67.535        8.956        0.018      333.985        3.660      875.425
01/14/2021  22:32:00      -59.402      -13.811        1.310       37.649       21.592       19.094     1417.464      466.224      364.599        0.298        0.112       60.986       13.741        0.051      334.000        3.685      875.430
01/14/2021  22:33:00      -69.545       -6.758       -3.197       40.756       20.728       19.670     1661.061      429.664      386.918        0.368        0.124       69.872       13.749        0.039      334.017        3.713      875.419
01/14/2021  22:34:00      -31.894      -15.426       -5.393      158.251       23.844       75.767    25043.398      568.515     5740.637        1.631        1.568       35.428      103.298        8.501      334.062        3.788      875.389
01/14/2021  22:35:00      -78.031      -21.102       -9.290      158.247       32.031       76.415    25042.075     1026.011     5839.269        1.926        1.595       80.833      103.331        1.634      334.039        3.751      875.363
01/14/2021  22:36:00      -73.833      -14.223       -3.366       44.456       33.250       24.901     1976.310     1105.561      620.048        0.468        0.185       75.191       15.888        0.045      333.986        3.662      875.347
01/14/2021  22:37:00      -23.652      -21.650        1.749       50.647       21.821       23.593     2565.164      476.154      556.648        0.231        0.180       32.064        4.652        0.021      333.983        3.657      875.327
01/14/2021  22:38:00        5.192      -17.664       -3.279      177.236       20.883       81.860    31412.555      436.118     6701.027        1.944        1.927       18.411      114.946       38.979      333.957        3.615      875.324
01/14/2021  22:39:00      -26.389      -16.780      -13.675      197.397       20.727       94.334    38965.603      429.619     8898.883        2.472        2.415       31.272      133.547       18.237      334.021        3.721      875.327
01/14/2021  22:40:00      -45.337       -6.161       -6.180       32.801       17.157       15.764     1075.913      294.352      248.496        0.187        0.081       45.754       12.461        0.074      333.939        3.585      875.326
01/14/2021  22:41:00       -1.591      -11.459       -3.115      115.338       19.336       58.158    13302.878      373.892     3382.302        0.860        0.853       11.569       77.888       45.324      333.989        3.666      875.316
01/14/2021  22:42:00      -49.068       -1.694       -5.283       32.916       18.206       15.298     1083.461      331.467      234.036        0.204        0.082       49.097       14.382        0.086      333.978        3.648      875.306
01/14/2021  22:43:00      -29.560       -8.150       -4.391      153.642       20.124       74.903    23605.817      404.965     5610.415        1.528        1.481       30.663      103.261       11.341      334.003        3.691      875.304
01/14/2021  22:44:00      -57.520        2.023       -5.352       33.192       23.967       19.239     1101.731      574.436      370.153        0.269        0.102       57.555       18.144        0.099      333.942        3.588      875.301
01/14/2021  22:45:00      -25.352       -9.082       -9.812      190.037       25.431       92.577    36114.124      646.712     8570.592        2.307        2.267       26.929      128.126       22.638      333.861        3.456      875.313
01/14/2021  22:46:00      -27.488       -6.288        2.174       60.039       29.217       23.262     3604.652      853.610      541.131        0.290        0.250       28.198       19.078        0.458      333.863        3.456      875.321
01/14/2021  22:47:00      -36.280       -8.078       -2.987      196.685       33.035       95.892    38684.850     1091.294     9195.287        2.517        2.449       37.168      134.204       13.037      333.910        3.536      875.338
01/14/2021  22:48:00      -57.777        7.198        6.353       55.441       27.572       23.375     3073.679      760.212      546.391        0.390        0.219       58.224       11.149        0.037      333.816        3.379      875.342
01/14/2021  22:49:00      -77.757      -13.962       -1.754       43.714       29.981       21.782     1910.937      898.874      474.458        0.476        0.164       79.001       13.728        0.030      333.722        3.222      875.333
01/14/2021  22:50:00      -94.846       -4.302       -6.093      206.669       24.709       97.483    42712.237      610.532     9502.975        3.093        2.641       94.943      139.215        2.150      333.794        3.344      875.327
01/14/2021  22:51:00      -57.226       -0.305       -3.686      195.751       27.982       94.924    38318.389      782.991     9010.490        2.569        2.406       57.227      133.251        5.422      333.753        3.275      875.328
01/14/2021  22:52:00     -116.605       10.207        4.263       31.926       23.695       20.830     1019.266      561.455      433.890        0.787        0.101      117.051       11.219        0.009      333.796        3.346      875.328
01/14/2021  22:53:00      -94.958       -1.454       -1.367       45.122       27.077       22.895     2035.977      733.165      524.168        0.616        0.165       94.969       11.986        0.016      333.856        3.445      875.324
01/14/2021  22:54:00      -87.476       -3.900       -1.739       42.739       27.101       22.893     1826.607      734.469      524.071        0.538        0.154       87.563       12.296        0.020      333.885        3.494      875.326
01/14/2021  22:55:00      -73.262       -5.512       -2.645       56.253       30.894       19.924     3164.405      954.445      396.963        0.496        0.226       73.469       20.913        0.081      333.860        3.452      875.319
01/14/2021  22:56:00      -74.965       -6.427       -5.038       48.115       27.580       22.350     2315.057      760.663      499.541        0.463        0.179       75.240        6.593        0.008      333.856        3.444      875.317
01/14/2021  22:57:00      -34.145       -4.205        0.593       45.687       24.652       19.415     2087.328      607.714      376.946        0.213        0.154       34.402       15.707        0.208      333.777        3.314      875.315
01/14/2021  22:58:00      -61.632        0.937       -4.186      170.769       23.420       83.287    29161.980      548.477     6936.753        2.022        1.832       61.639      115.050        3.484      333.791        3.338      875.314
01/14/2021  22:59:00      -80.620       -5.836       -5.901       45.770       17.315       18.087     2094.858      299.799      327.124        0.464        0.136       80.831        8.478        0.011      333.824        3.391      875.298
01/14/2021  23:00:00      -45.088       -1.173       -0.606       48.196       21.109       16.558     2322.842      445.599      274.156        0.254        0.152       45.103       10.964        0.059      333.803        3.358      875.287
01/14/2021  23:01:00      -75.960       -8.840       -0.412       42.400       24.526       19.287     1797.787      601.536      372.003        0.431        0.139       76.473        8.945        0.014      333.884        3.492      875.265
01/14/2021  23:02:00      -60.167      -10.832       -8.719       27.938       22.717       15.083      780.541      516.074      227.495        0.267        0.076       61.135        6.002        0.010      333.863        3.457      875.238
01/14/2021  23:03:00      -39.722      -10.260       -3.144       34.416       27.333       20.315     1184.475      747.088      412.701        0.202        0.117       41.026       14.362        0.123      333.898        3.516      875.213
01/14/2021  23:04:00      -31.692      -11.465       -1.249       44.707       22.507       17.320     1998.719      506.568      299.983        0.197        0.140       33.703       14.177        0.177      333.818        3.381      875.183
01/14/2021  23:05:00        8.579       -0.618        0.240       43.039       17.560       22.779     1852.389      308.365      518.876        0.138        0.134        8.601       18.521        4.637      333.682        3.158      875.162
01/14/2021  23:06:00      -42.492        8.031       -6.004      102.555       29.743       48.741    10517.427      884.638     2375.648        0.784        0.689       43.244       63.631        2.165      333.660        3.122      875.146
01/14/2021  23:07:00      -52.577      -27.937       -7.113       43.590       26.564       23.893     1900.047      705.626      570.858        0.339        0.159       59.539       11.534        0.038      333.660        3.121      875.148
01/14/2021  23:08:00       -6.034       -3.266       -7.580       54.442       21.831       23.271     2963.970      476.581      541.526        0.204        0.199        6.861       21.306        9.644      333.638        3.085      875.154
01/14/2021  23:09:00      -81.628       -3.864      -12.543       37.030       22.630       20.556     1371.253      512.135      422.569        0.457        0.115       81.720       14.418        0.031      333.691        3.171      875.147
01/14/2021  23:10:00      -73.514        7.178       -3.929       48.859       31.908       22.922     2387.178     1018.130      525.415        0.470        0.197       73.864        8.563        0.013      333.626        3.065      875.137
01/14/2021  23:11:00      -65.160       -4.459      -16.956       40.513       20.020       20.319     1641.325      400.791      412.844        0.350        0.123       65.313       14.547        0.050      333.569        2.970      875.130
01/14/2021  23:12:00      -77.728      -17.141      -19.548       33.019       26.662       17.261     1090.225      710.839      297.947        0.441        0.105       79.596       14.389        0.033      333.582        2.991      875.127
01/14/2021  23:13:00      -42.404       -4.601       -8.464      173.345       27.282       83.698    30048.557      744.287     7005.359        1.984        1.890       42.653      117.076        7.534      333.659        3.120      875.119
01/14/2021  23:14:00      -67.583        3.887      -10.803       45.831       23.103       20.177     2100.511      533.760      407.114        0.387        0.152       67.695       20.292        0.090      333.646        3.097      875.118
01/14/2021  23:15:00      -59.217       14.318      -24.788      211.335       29.580      102.940    44662.377      874.949    10596.709        3.022        2.807       60.923      144.926        5.659      333.589        3.004      875.113
01/14/2021  23:16:00      -54.429       -3.632      -11.712       51.161       24.182       20.153     2617.478      584.768      406.149        0.336        0.180       54.550        7.120        0.017      333.522        2.891      875.108
01/14/2021  23:17:00      -37.300      -10.300      -14.559      175.883       22.081       80.030    30934.709      487.589     6404.865        1.976        1.891       38.696      113.412        8.590      333.574        2.979      875.102
01/14/2021  23:18:00      -44.488        5.826      -18.866      123.028       29.458       60.027    15135.778      867.775     3603.290        1.098        0.980       44.868       81.495        3.299      333.504        2.862      875.108
01/14/2021  23:19:00        5.144      -18.819       -3.354      147.177       30.284       71.919    21661.208      917.126     5172.365        1.407        1.388       19.509       97.095       24.769      333.431        2.744      875.113
01/14/2021  23:20:00      -26.391       12.814      -24.441      272.378       31.809      128.955    74189.703     1011.837    16629.415        4.662        4.592       29.337      185.647       40.044      333.469        2.806      875.117
01/14/2021  23:21:00      -92.084       15.660      -15.200       28.379       20.467       17.300      805.340      418.890      299.300        0.524        0.076       93.406        7.307        0.006      333.377        2.652      875.130
01/14/2021  23:22:00      -69.891       19.960      -21.527       38.753       22.272       18.071     1501.805      496.063      326.572        0.404        0.116       72.685       16.073        0.049      333.408        2.704      875.128
01/14/2021  23:23:00        9.565       13.422      -14.487      236.405       22.853      112.613    55887.306      522.270    12681.721        3.477        3.455       16.482      161.184       95.640      333.516        2.883      875.131
01/14/2021  23:24:00      -32.767       10.638      -14.788       55.908       25.490       20.636     3125.656      649.721      425.832        0.280        0.210       34.451       15.986        0.215      333.410        2.706      875.133
01/14/2021  23:25:00        0.963       -7.908       -1.159       42.230       18.696       28.534     1783.388      349.556      814.201        0.151        0.147        7.966        8.246        1.071      333.336        2.583      875.130
01/14/2021  23:26:00       -7.550      -13.307       -9.249      257.629       24.062      121.305    66372.742      578.966    14714.828        4.098        4.083       15.300      172.300      126.818      333.375        2.652      875.123
01/14/2021  23:27:00      -50.344       -8.053        0.656       42.090       31.691       22.394     1771.544     1004.351      501.507        0.294        0.164       50.984       18.063        0.126      333.288        2.503      875.120
01/14/2021  23:28:00      -98.466       13.378       -7.588       28.426       15.449       16.228      808.051      238.657      263.359        0.562        0.066       99.370        5.719        0.003      333.363        2.629      875.104
01/14/2021  23:29:00      -49.099        7.930       -9.060       39.183       24.810       19.471     1535.284      615.523      379.119        0.254        0.126       49.735       15.841        0.101      333.480        2.823      875.081
01/14/2021  23:30:00      -69.665       -1.638       -7.550       36.912       16.625       18.759     1362.528      276.393      351.890        0.345        0.100       69.684        9.336        0.018      333.498        2.852      875.060
01/14/2021  23:31:00      -60.705       -0.681       -6.546       85.664       17.950       42.507     7338.255      322.193     1806.883        0.660        0.473       60.709       54.304        0.800      333.523        2.893      875.057
01/14/2021  23:32:00      -87.752       13.352       -6.588      154.679       16.704       75.418    23925.490      279.016     5687.931        1.890        1.495       88.762      105.474        1.412      333.504        2.862      875.058
01/14/2021  23:33:00      -75.857       14.804      -10.949      250.932       19.573      117.638    62967.057      383.111    13838.736        4.162        3.859       77.288      169.233        4.795      333.491        2.842      875.062
01/14/2021  23:34:00     -106.854       11.107       -4.712       22.997       17.945       15.363      528.885      322.034      236.036        0.632        0.054      107.430        4.786        0.002      333.353        2.612      875.061
01/14/2021  23:35:00      -91.259       14.464      -13.476      287.749       17.836      139.834    82799.297      318.125    19553.598        5.567        5.134       92.398      199.272        4.651      333.370        2.643      875.052
01/14/2021  23:36:00      -99.507        8.022       -5.215      122.201       18.351       60.734    14933.066      336.746     3688.565        1.447        0.948       99.830       79.671        0.637      333.245        2.435      875.041
01/14/2021  23:37:00     -104.654        8.256       -0.474       32.598       25.989       21.146     1062.598      675.446      447.149        0.660        0.109      104.979        8.338        0.006      333.254        2.448      875.017
01/14/2021  23:38:00      -41.246       -2.050      -19.787      314.240       28.669      143.712    98747.045      821.928    20653.066        6.113        6.011       41.297      209.460       25.725      333.451        2.776      875.002
01/14/2021  23:39:00      -66.738       -7.181      -16.321      286.127       29.030      141.090    81868.836      842.730    19906.338        5.367        5.131       67.124      196.655        8.583      333.530        2.906      874.982
01/14/2021  23:40:00      -90.806      -10.734      -23.183      310.398       27.537      146.685    96347.033      758.292    21516.573        6.374        5.931       91.438      211.798        5.365      333.494        2.850      874.984
01/14/2021  23:41:00      -82.504        8.152       -9.058      212.105       30.762      105.187    44988.350      946.280    11064.243        3.196        2.850       82.906      145.090        3.063      333.433        2.746      874.992
01/14/2021  23:42:00      -99.967        9.845        3.860       51.779       29.918       24.565     2681.041      895.099      603.458        0.714        0.209      100.451       22.362        0.050      333.224        2.398      874.990
01/14/2021  23:43:00      -89.233       -8.379        5.073       48.718       36.568       27.417     2373.461     1337.189      751.691        0.626        0.223       89.625       12.962        0.021      333.269        2.473      875.008
01/14/2021  23:44:00     -100.334      -10.848       -7.416      226.574       30.747      107.134    51335.860      945.379    11477.622        3.699        3.188      100.919      148.959        2.179      333.326        2.569      875.001
01/14/2021  23:45:00     -100.901      -17.551      -10.324      319.679       33.888      151.436   102194.840     1148.365    22932.861        6.841        6.314      102.417      215.117        4.412      333.346        2.603      874.997
01/14/2021  23:46:00     -133.872      -20.458      -10.137      265.381       40.385      128.415    70426.895     1630.963    16490.360        5.348        4.427      135.426      179.439        1.756      333.325        2.568      875.004
01/14/2021  23:47:00     -155.794       -1.774        6.477       49.425       38.253       25.067     2442.809     1463.306      628.358        1.442        0.227      155.804       23.217        0.022      333.257        2.452      875.006
01/14/2021  23:48:00      -98.408       -1.852       -8.789      218.522       35.350      102.748    47751.965     1249.592    10557.211        3.465        2.978       98.425      140.891        2.049      333.410        2.707      875.003
01/14/2021  23:49:00     -119.789      -15.367       -6.942      241.878       38.723      116.254    58504.798     1499.471    13514.914        4.406        3.676      120.771      161.380        1.786      333.407        2.702      875.003
01/14/2021  23:50:00      -58.090       -4.478      -20.862      315.260       36.718      150.274    99388.832     1348.230    22582.405        6.355        6.166       58.263      212.429       13.294      333.537        2.918      874.993
01/14/2021  23:51:00      -68.107       -8.123       -5.008      179.304       38.463       82.257    32150.020     1479.407     6766.185        2.255        2.020       68.590      113.809        2.753      333.355        2.616      874.973
01/14/2021  23:52:00     -115.015      -30.687       -4.581      213.641       33.241      103.427    45642.371     1104.972    10697.105        3.581        2.872      119.038      141.946        1.422      333.411        2.710      874.951
01/14/2021  23:53:00      -70.727      -10.942       -2.104      188.033       28.262       87.510    35356.372      798.763     7658.010        2.446        2.191       71.569      121.408        2.878      333.442        2.760      874.924
01/14/2021  23:54:00       -8.228       -9.394       -1.180      149.347       18.078       70.639    22304.664      326.830     4989.929        1.388        1.381       12.487      100.523       64.802      333.475        2.815      874.901
01/14/2021  23:55:00      -64.413      -12.779       -8.935       45.229       22.341       23.107     2045.643      499.114      533.930        0.373        0.154       65.669       14.614        0.050      333.403        2.695      874.882
01/14/2021  23:56:00      -64.395      -28.990       -6.104      148.481       26.780       68.150    22046.467      717.153     4644.412        1.621        1.370       70.620       96.980        1.886      333.430        2.740      874.863
01/14/2021  23:57:00      -55.200        1.271       10.064       62.975       28.918       22.931     3965.800      836.257      525.838        0.424        0.266       55.215       21.343        0.149      333.340        2.592      874.847
01/14/2021  23:58:00      -31.495      -32.750      -12.000      235.373       24.399      120.060    55400.372      595.292    14414.404        3.629        3.521       45.437      162.377       12.771      333.423        2.731      874.843
01/14/2021  23:59:00      -36.544      -12.566      -10.110       50.409       41.095       27.051     2541.040     1688.834      731.783        0.328        0.248       38.645       20.756        0.288      333.292        2.512      874.842
01/15/2021  00:00:00        8.342       -1.203       -6.997      217.144       20.247      103.731    47151.728      409.948    10760.223        2.921        2.916        8.428      146.462      302.012      333.323        2.563      874.855
01/15/2021  00:01:00      -47.075        3.342       -8.809      222.668       28.167      106.370    49581.064      793.382    11314.547        3.198        3.084       47.193      146.984        9.700      333.432        2.745      874.856
01/15/2021  00:02:00      -19.488       -5.639       -5.319      163.256       27.220       78.099    26652.403      740.929     6099.454        1.696        1.675       20.287      105.949       27.275      333.356        2.618      874.860
01/15/2021  00:03:00      -16.980       -3.706      -11.665      243.832       39.521      115.846    59453.850     1561.883    13420.380        3.742        3.722       17.380      162.440       87.356      333.349        2.607      874.858
01/15/2021  00:04:00       22.274       -6.859      -20.500      349.184       43.352      165.442   121929.155     1879.436    27370.894        7.604        7.559       23.307      236.322      102.813      333.512        2.880      874.855
01/15/2021  00:05:00       15.667       -8.985      -37.519      369.317       31.899      179.652   136395.070     1017.552    32274.846        8.567        8.484       18.061      254.540      198.625      333.530        2.909      874.848
01/15/2021  00:06:00      -27.071        0.877       -7.257      166.074       40.491       83.772    27580.587     1639.535     7017.811        1.850        1.812       27.086      108.250       15.973      333.333        2.580      874.843
01/15/2021  00:07:00      -88.043        8.583        5.131       73.205       36.090       26.105     5358.953     1302.498      681.459        0.760        0.367       88.460       22.081        0.062      333.281        2.493      874.833
01/15/2021  00:08:00      -53.104      -12.577       -0.461      173.140       37.753       84.013    29977.547     1425.326     7058.266        2.071        1.923       54.573      111.728        4.192      333.293        2.512      874.811
01/15/2021  00:09:00      -55.925       -6.530      -13.498      224.862       36.110      110.607    50562.815     1303.924    12233.959        3.371        3.205       56.304      151.750        7.264      333.321        2.561      874.782
01/15/2021  00:10:00       39.003      -19.407      -21.283      398.762       39.508      185.023   159011.291     1560.892    34233.535        9.854        9.740       43.565      266.628       37.458      333.413        2.716      874.759
01/15/2021  00:11:00       20.019       -6.074      -23.478      395.653       33.855      188.462   156541.479     1146.192    35517.962        9.706        9.660       20.920      269.641      166.125      333.329        2.579      874.745
01/15/2021  00:12:00       13.593        8.578      -21.474      347.163       37.453      166.132   120522.053     1402.739    27600.002        7.509        7.476       16.073      237.297      217.973      333.260        2.464      874.730
01/15/2021  00:13:00      -24.645       21.665       -5.693      168.971       24.107       81.427    28551.184      581.132     6630.389        1.843        1.788       32.814      115.075       12.298      333.001        2.030      874.729
01/15/2021  00:14:00       45.392       -0.127      -28.051      402.882       34.356      191.729   162313.898     1180.338    36760.164       10.151       10.013       45.393      277.027       37.246      333.185        2.340      874.733
01/15/2021  00:15:00        7.330       -6.710      -15.188      218.562       27.995      103.009    47769.381      783.702    10610.786        2.973        2.958        9.938      144.445      211.266      333.087        2.172      874.739
01/15/2021  00:16:00      -26.613        5.341      -11.021      157.475       40.526       75.892    24798.266     1642.327     5759.559        1.652        1.610       27.143      101.983       14.117      332.983        2.002      874.749
01/15/2021  00:17:00       49.927       10.958      -28.323      399.699       31.189      188.961   159759.347      972.746    35706.200        9.989        9.822       51.116      272.531       28.427      333.150        2.281      874.750
01/15/2021  00:18:00       12.779       -1.208      -17.785      266.468       30.008      128.839    71005.320      900.497    16599.377        4.447        4.425       12.836      181.422      199.759      333.003        2.036      874.758
01/15/2021  00:19:00       55.808      -17.662      -28.562      342.456       29.982      165.749   117275.910      898.943    27472.636        7.491        7.282       58.536      237.079       16.404      333.052        2.120      874.781
01/15/2021  00:20:00       22.272       14.786      -13.035      279.299       24.184      133.033    78008.004      584.869    17697.880        4.857        4.815       26.734      190.564       50.812      332.968        1.980      874.788
01/15/2021  00:21:00       16.194        7.328      -24.929      265.070       26.960      129.003    70262.059      726.818    16641.893        4.427        4.382       17.775      182.034      104.876      333.041        2.100      874.791
01/15/2021  00:22:00      -23.436       22.209      -10.583      154.194       19.343       73.985    23775.875      374.142     5473.812        1.538        1.481       32.287      105.460       10.669      332.897        1.860      874.809
01/15/2021  00:23:00       65.327      -15.592      -35.766      324.369       23.272      154.874   105215.094      541.598    23985.821        6.774        6.487       67.162      223.172       11.042      333.201        2.364      874.818
01/15/2021  00:24:00       98.369       16.863      -43.390      447.886       18.683      214.129   200601.428      349.063    45851.021       12.927       12.340       99.804      308.743        9.570      333.183        2.340      874.834
01/15/2021  00:25:00      114.213       -5.090      -74.119      561.207       27.114      268.574   314953.494      735.177    72132.199       20.311       19.391      114.327      387.439       11.485      333.358        2.632      874.856
01/15/2021  00:26:00       34.302        7.058      -17.966      312.012       25.844      152.250    97351.595      667.929    23180.198        6.135        6.060       35.021      216.363       38.169      332.911        1.885      874.876
01/15/2021  00:27:00       50.745        2.586      -10.638      220.582       17.114      106.339    48656.241      292.894    11308.018        3.146        3.013       50.811      151.751        8.920      332.870        1.817      874.895
01/15/2021  00:28:00       81.508       18.095      -41.316      411.404       31.115      194.031   169252.862      968.161    37648.095       10.823       10.393       83.492      281.041       11.331      333.093        2.187      874.901
01/15/2021  00:29:00       31.157       10.180       -9.240      260.965       35.458      121.795    68102.918     1257.235    14834.001        4.266        4.210       32.778      173.859       28.135      332.916        1.893      874.892
01/15/2021  00:30:00       16.681       12.435      -15.331      253.761       28.927      120.470    64394.562      836.773    14513.053        4.019        3.987       20.806      172.042       68.375      332.905        1.873      874.867
01/15/2021  00:31:00       24.378       12.130      -18.566      357.449       28.260      171.420   127769.681      798.654    29384.840        7.949        7.898       27.229      246.267       81.799      332.971        1.985      874.828
01/15/2021  00:32:00       68.798       -3.987      -41.226      389.962       23.994      187.812   152070.220      575.735    35273.480        9.714        9.396       68.914      269.861       15.335      333.063        2.137      874.798
01/15/2021  00:33:00       51.389      -16.356      -19.900      319.337       19.314      152.032   101976.296      373.020    23113.644        6.436        6.273       53.929      219.929       16.631      333.040        2.099      874.775
01/15/2021  00:34:00        1.791      -10.663       -7.463       40.076       20.438       25.644     1606.125      417.721      657.609        0.143        0.134       10.813       25.693        5.646      332.948        1.942      874.767
01/15/2021  00:35:00       29.143        5.796      -30.662      370.679       26.573      182.329   137402.640      706.108    33243.875        8.655        8.568       29.713      258.318       75.580      333.325        2.571      874.760
01/15/2021  00:36:00      -17.563        8.352      -21.489      260.146       13.513      124.611    67675.826      182.591    15527.863        4.210        4.169       19.448      179.178       84.883      333.227        2.406      874.747
01/15/2021  00:37:00       17.192        5.333      -40.648      434.975       20.811      208.382   189203.292      433.079    43423.095       11.747       11.653       18.001      300.316      278.342      333.361        2.632      874.750
01/15/2021  00:38:00        5.164        2.657      -22.127      310.357       22.708      145.670    96321.182      515.670    21219.846        5.927        5.903        5.807      211.532     1326.738      333.211        2.381      874.742
01/15/2021  00:39:00       23.408       13.986      -47.224      463.116       13.294      221.016   214476.141      176.734    48848.209       13.318       13.175       27.268      319.700      137.461      333.382        2.668      874.744
01/15/2021  00:40:00      -24.486       17.816      -37.815      374.991       20.578      179.438   140618.118      423.465    32198.002        8.776        8.662       30.282      258.287       72.753      333.308        2.541      874.755
01/15/2021  00:41:00      -26.093       13.189      -41.205      399.486       16.546      191.274   159589.140      273.758    36585.727        9.946        9.822       29.237      275.847       89.016      333.358        2.626      874.763
01/15/2021  00:42:00      -13.097        4.621      -38.276      424.576       17.558      201.426   180264.442      308.300    40572.404       11.135       11.057       13.889      291.726      441.202      333.305        2.539      874.776
01/15/2021  00:43:00       58.772        4.296      -47.745      506.898       16.775      241.167   256945.755      281.402    58161.413       16.050       15.769       58.928      348.769       35.029      333.453        2.786      874.779
01/15/2021  00:44:00      -25.893       -7.885      -14.382      247.790       23.030      118.936    61400.042      530.362    14145.808        3.849        3.804       27.067      170.384       39.626      333.351        2.611      874.776
01/15/2021  00:45:00       63.967      -12.731      -41.327      479.816       17.346      226.131   230223.066      300.898    51135.401       14.375       14.083       65.221      328.591       25.382      333.510        2.880      874.770
01/15/2021  00:46:00       32.651       -4.796      -39.166      413.564       21.157      195.647   171035.442      447.602    38277.900       10.615       10.488       33.001      283.577       73.839      333.451        2.781      874.761
01/15/2021  00:47:00       -0.111      -17.313      -29.424      357.419       15.731      167.240   127748.516      247.460    27969.380        7.853        7.798       17.313      242.558      196.283      333.350        2.611      874.766
01/15/2021  00:48:00       46.774      -20.869      -43.312      454.138       18.718      219.780   206241.427      350.350    48303.232       12.964       12.745       51.218      314.869       37.793      333.494        2.853      874.778
01/15/2021  00:49:00       15.590       -6.229      -37.566      491.173       29.229      225.815   241251.202      854.339    50992.240       14.733       14.655       16.789      330.645      387.877      333.370        2.649      874.791
01/15/2021  00:50:00      -49.894      -14.414      -15.181      327.336       34.149      154.006   107149.110     1166.157    23717.818        6.745        6.602       51.935      221.799       18.239      333.193        2.350      874.818
01/15/2021  00:51:00      -31.368       -6.214      -22.756      311.405       33.558      148.673    96973.315     1126.106    22103.768        6.085        6.010       31.978      212.865       44.311      333.254        2.451      874.850
01/15/2021  00:52:00      -34.532        7.833      -25.010      408.406       32.032      197.501   166795.498     1026.072    39006.514       10.431       10.341       35.409      280.821       62.897      333.291        2.516      874.877
01/15/2021  00:53:00      -27.678        9.673      -26.764      345.427       21.974      164.922   119320.124      482.867    27199.387        7.426        7.350       29.320      236.842       65.252      333.245        2.436      874.901
01/15/2021  00:54:00      -53.427       -8.633       -6.944      198.028       26.682       96.797    39215.119      711.927     9369.671        2.613        2.465       54.120      135.277        6.248      333.160        2.294      874.933
01/15/2021  00:55:00      -19.049      -10.448      -15.031      250.012       22.335      120.082    62505.973      498.868    14419.714        3.905        3.871       21.726      170.898       61.875      333.191        2.348      874.951
01/15/2021  00:56:00       -7.933       -1.691      -16.027      307.982       29.177      145.843    94852.992      851.324    21270.186        5.862        5.849        8.112      210.259      671.880      333.218        2.392      874.969
01/15/2021  00:57:00      -12.756       -0.222      -27.833      359.458       23.977      172.642   129210.101      574.884    29805.111        8.023        7.980       12.758      248.024      377.959      333.279        2.494      874.976
01/15/2021  00:58:00      -28.491       -1.087      -17.944      277.346       31.872      135.747    76920.665     1015.804    18427.332        4.873        4.818       28.512      192.484       45.575      333.265        2.469      874.983
01/15/2021  00:59:00       45.721      -12.193      -27.314      363.744       16.192      173.249   132309.758      262.167    30015.183        8.275        8.129       47.318      250.542       28.035      333.309        2.544      874.985
01/15/2021  01:00:00       61.370       -0.245      -27.693      394.922        9.043      188.989   155963.365       81.770    35717.021        9.811        9.588       61.370      272.976       19.785      333.352        2.616      874.986
01/15/2021  01:01:00       20.212        2.346      -13.072      207.070       22.988      101.835    42877.803      528.458    10370.445        2.717        2.689       20.348      143.288       49.589      333.441        2.759      874.986
01/15/2021  01:02:00      103.097       -0.082      -68.048      597.549       18.105      284.929   357064.617      327.809    81184.464       22.683       21.929      103.097      412.064       15.975      333.937        3.592      874.996
01/15/2021  01:03:00       33.299       -9.833      -24.350      356.587       23.405      169.756   127154.040      547.773    28817.082        7.913        7.826       34.721      245.238       49.888      333.571        2.978      874.998
01/15/2021  01:04:00       29.244       -8.526      -20.663      240.704       18.750      115.275    57938.555      351.571    13288.432        3.645        3.579       30.461      165.722       29.598      333.524        2.898      875.006
01/15/2021  01:05:00       38.655       14.159      -21.356      327.304       24.682      157.403   107128.078      609.207    24775.695        6.730        6.626       41.166      225.934       30.122      333.621        3.062      875.000
01/15/2021  01:06:00        9.662        6.164      -23.368      285.815       22.476      138.903    81690.308      505.183    19294.107        5.106        5.074       11.461      198.408      299.694      333.478        2.821      875.011
01/15/2021  01:07:00      -17.495        0.471      -17.474      259.553       16.160      125.329    67367.562      261.145    15707.470        4.196        4.167       17.501      179.660      105.380      333.367        2.637      874.995
01/15/2021  01:08:00       36.063        6.184      -54.142      475.372       23.067      227.892   225978.257      532.098    51934.988       14.130       13.922       36.589      328.476       80.594      333.635        3.086      875.007
01/15/2021  01:09:00      -22.230        4.742      -38.289      370.207       13.374      175.927   137053.096      178.875    30950.313        8.505        8.409       22.730      254.916      125.773      333.569        2.973      875.006
01/15/2021  01:10:00      -44.099        3.172      -17.818      284.199       10.058      136.214    80769.314      101.165    18554.283        5.083        4.971       44.213      196.506       19.754      333.458        2.789      875.010
01/15/2021  01:11:00       64.997       -7.680      -31.186      432.247       18.145      206.616   186837.247      329.247    42690.124       11.751       11.493       65.449      297.997       20.731      333.611        3.045      875.018
01/15/2021  01:12:00       37.605      -24.940      -17.316      274.084       14.025      130.149    75122.014      196.690    16938.653        4.728        4.613       45.124      188.401       17.433      333.675        3.148      875.015
01/15/2021  01:13:00      101.130      -24.904      -57.310      440.467       20.667      209.931   194010.979      427.146    44071.054       12.627       11.925      104.151      303.750        8.506      333.729        3.242      875.017
01/15/2021  01:14:00       32.794      -12.112      -22.953      271.706       18.445      129.985    73823.903      340.221    16896.166        4.639        4.553       34.959      187.611       28.800      333.650        3.108      875.013
01/15/2021  01:15:00       78.319       12.658      -40.302      417.207       18.933      199.392   174061.449      358.446    39756.989       11.100       10.709       79.335      287.927       13.171      333.592        3.013      875.014
01/15/2021  01:16:00       28.396       -3.303      -11.697      288.243       18.150      137.433    83083.998      329.429    18887.939        5.161        5.115       28.587      198.366       48.149      333.448        2.771      875.024
01/15/2021  01:17:00       94.317        3.448      -38.702      441.550       17.352      210.105   194966.818      301.095    44144.270       12.486       11.971       94.380      304.300       10.395      333.537        2.919      875.031
01/15/2021  01:18:00       45.567      -12.859      -21.707      337.959       16.760      159.777   114216.552      280.905    25528.689        7.134        7.001       47.347      231.711       23.951      333.331        2.581      875.033
01/15/2021  01:19:00        4.496       -3.659      -12.176      175.208       22.220       84.321    30697.912      493.747     7110.014        1.923        1.915        5.797      120.438      431.624      333.162        2.297      875.031
01/15/2021  01:20:00       50.662        2.129      -35.601      408.064       25.414      193.527   166516.175      645.862    37452.565       10.418       10.231       50.707      279.924       30.475      333.320        2.563      875.040
01/15/2021  01:21:00       39.443      -23.480      -29.041      374.262       19.744      178.257   140072.186      389.835    31775.580        8.756        8.612       45.903      257.858       31.556      333.366        2.638      875.041
01/15/2021  01:22:00       25.495      -25.030      -34.002      340.468       23.618      163.471   115918.200      557.808    26722.831        7.279        7.160       35.728      235.164       43.324      333.305        2.537      875.047
01/15/2021  01:23:00       28.512       -8.329      -24.723      322.772       18.079      154.784   104181.650      326.852    23958.176        6.495        6.423       29.704      222.373       56.046      333.367        2.638      875.053
01/15/2021  01:24:00       72.318      -16.747      -38.315      389.111       11.759      186.564   151407.528      138.284    34806.251        9.663        9.318       74.232      269.026       13.134      333.470        2.810      875.069
01/15/2021  01:25:00       69.408        1.641      -31.424      382.026       20.520      182.739   145943.982      421.054    33393.470        9.274        8.988       69.427      263.729       14.430      333.395        2.688      875.047
01/15/2021  01:26:00       -2.549      -24.919      -18.210      264.432       34.417      124.572    69924.078     1184.519    15518.158        4.377        4.331       25.049      179.699       51.464      333.296        2.520      875.008
01/15/2021  01:27:00       18.814      -17.674      -23.519      304.140       33.441      145.419    92500.931     1118.279    21146.691        5.797        5.738       25.814      208.283       65.104      333.309        2.542      875.030
01/15/2021  01:28:00       34.149       -9.036      -51.813      494.748       37.873      238.990   244775.284     1434.331    57116.330       15.357       15.166       35.324      341.682       93.564      333.474        2.821      875.059
01/15/2021  01:29:00       14.574      -24.315      -29.560      352.081       31.575      166.298   123961.055      996.957    27655.123        7.711        7.631       28.348      239.397       71.315      333.291        2.513      875.091
01/15/2021  01:30:00       43.378      -25.599      -42.698      462.243       36.001      224.181   213668.682     1296.076    50257.139       13.474       13.261       50.369      320.053       40.376      333.394        2.687      875.117
01/15/2021  01:31:00      -11.947      -12.252      -33.116      390.274       33.461      189.950   152314.019     1119.647    36081.118        9.541        9.476       17.113      270.430      249.736      333.355        2.621      875.131
01/15/2021  01:32:00      -45.977      -20.820      -28.678      314.791       32.760      146.461    99093.531     1073.214    21450.854        6.247        6.081       50.471      212.244       17.684      333.269        2.476      875.155
01/15/2021  01:33:00      -87.491      -14.897      -13.030      226.897       32.830      108.592    51482.311     1077.813    11792.162        3.619        3.218       88.750      151.487        2.913      333.186        2.338      875.175
01/15/2021  01:34:00      -11.639      -10.744      -18.486      389.858       37.319      190.309   151989.346     1392.695    36217.513        9.506        9.480       15.840      268.567      287.480      333.341        2.598      875.191
01/15/2021  01:35:00      -33.430      -15.463        1.738      211.703       29.318       99.373    44818.317      859.566     9875.006        2.844        2.778       36.833      140.345       14.518      333.181        2.331      875.201
01/15/2021  01:36:00       63.259        2.425      -42.689      453.402       27.333      214.250   205573.199      747.088    45903.166       12.897       12.611       63.305      310.985       24.132      333.397        2.692      875.203
01/15/2021  01:37:00      -26.768        4.216      -13.897      257.931       30.714      122.329    66528.227      943.377    14964.468        4.166        4.122       27.098      174.908       41.662      333.113        2.217      875.201
01/15/2021  01:38:00       13.335        1.720       -9.122      245.733       20.375      117.453    60384.570      415.122    13795.310        3.741        3.730       13.446      167.913      155.957      333.065        2.138      875.208
01/15/2021  01:39:00       -5.856       -8.047      -13.441      257.349       22.515      121.063    66228.628      506.944    14656.357        4.082        4.070        9.953      174.466      307.277      333.135        2.253      875.209
01/15/2021  01:40:00        9.708       -9.908      -18.921      359.575       25.347      172.794   129293.867      642.478    29857.732        8.014        7.990       13.871      247.816      319.164      333.251        2.449      875.210
01/15/2021  01:41:00       68.914       -4.717      -40.342      452.387       18.868      216.296   204654.222      356.013    46783.808       12.904       12.590       69.075      312.001       20.402      333.389        2.679      875.208
01/15/2021  01:42:00       86.666        3.887      -55.784      529.376       17.594      252.347   280239.100      309.566    63678.854       17.736       17.211       86.753      365.073       17.709      333.415        2.725      875.212
01/15/2021  01:43:00       59.803        1.056      -26.958      391.336       16.811      185.897   153143.784      282.593    34557.809        9.611        9.399       59.813      269.249       20.264      333.194        2.356      875.222
01/15/2021  01:44:00      104.413       -0.102      -65.434      588.494       27.874      271.282   346325.542      776.958    73594.140       21.785       21.035      104.413      398.925       14.597      333.489        2.849      875.231
01/15/2021  01:45:00       79.603        5.038      -53.101      506.201       27.780      244.003   256239.894      771.705    59537.471       16.280       15.827       79.762      350.639       19.325      333.302        2.537      875.234
01/15/2021  01:46:00        5.476        4.123       -7.872      214.453       20.899      104.091    45990.088      436.769    10834.985        2.867        2.863        6.855      147.238      461.365      333.001        2.033      875.245
01/15/2021  01:47:00      103.066       -0.749      -34.684      482.193       27.998      226.471   232510.287      783.882    51289.192       14.815       14.229      103.069      329.838       10.241      333.258        2.464      875.262
01/15/2021  01:48:00       20.375        6.924      -40.517      457.457       27.771      217.124   209267.114      771.206    47142.735       12.959       12.859       21.520      312.952      211.489      333.226        2.409      875.269
01/15/2021  01:49:00       36.464        2.428      -24.677      397.532       30.632      190.797   158031.499      938.313    36403.437        9.862        9.769       36.544      273.994       56.213      333.048        2.114      875.280
01/15/2021  01:50:00       57.684        7.358      -27.623      423.097       26.871      200.278   179010.930      722.065    40111.125       11.195       10.992       58.151      290.333       24.927      333.144        2.273      875.290
01/15/2021  01:51:00       47.237        4.683      -36.349      457.880       31.029      219.267   209654.158      962.769    48077.846       13.108       12.935       47.469      315.514       44.180      333.103        2.205      875.302
01/15/2021  01:52:00      -13.069        1.140      -14.669      278.322       30.955      136.743    77463.221      958.197    18698.629        4.873        4.856       13.118      192.703      215.781      332.902        1.869      875.311
01/15/2021  01:53:00      -14.421       -5.786       -5.026      180.303       26.309       84.352    32509.116      692.150     7115.310        2.028        2.016       15.539      116.838       56.537      332.835        1.758      875.327
01/15/2021  01:54:00       36.002        3.048      -54.094      520.680       28.770      244.929   271108.001      827.730    59990.104       16.801       16.596       36.131      355.077       96.582      333.140        2.269      875.337
01/15/2021  01:55:00       10.613        0.119      -31.918      441.318       33.166      210.622   194761.236     1099.951    44361.591       12.063       12.011       10.613      302.441      812.042      333.030        2.086      875.353
01/15/2021  01:56:00       61.075        0.091      -37.808      466.257       30.763      223.143   217395.179      946.347    49792.712       13.659       13.407       61.075      321.357       27.686      333.034        2.092      875.375
01/15/2021  01:57:00       -2.101       -3.716      -19.291      347.286       42.400      165.789   120607.570     1797.730    27486.075        7.511        7.495        4.269      236.129     3058.773      332.897        1.861      875.385
01/15/2021  01:58:00     -100.219        1.401        1.041      163.903       35.137       81.645    26864.058     1234.635     6665.834        2.240        1.738      100.229      107.182        1.144      332.726        1.578      875.392
01/15/2021  01:59:00      -44.312        2.784      -17.765      328.014       31.551      159.748   107593.029      995.472    25519.307        6.817        6.705       44.399      225.824       25.870      332.852        1.788      875.396
01/15/2021  02:00:00      -65.799       18.811      -18.381      324.779       28.773      154.835   105481.378      827.859    23973.956        6.762        6.514       68.435      221.374       10.464      332.843        1.773      875.398
01/15/2021  02:01:00      -41.458        4.047       -1.072      171.971       29.047       81.504    29573.858      843.708     6642.910        1.939        1.853       41.655      112.419        7.284      332.797        1.694      875.403
01/15/2021  02:02:00       62.073        7.828      -57.140      586.298       27.865      281.661   343745.621      776.459    79332.807       21.543       21.193       62.564      404.874       41.878      333.234        2.426      875.419
01/15/2021  02:03:00      -26.613       -3.091      -17.646      297.830       28.920      139.503    88702.834      836.383    19460.957        5.499        5.450       26.792      200.892       56.225      332.834        1.758      875.423
01/15/2021  02:04:00      127.955      -14.810      -76.447      647.414       28.213      308.814   419144.934      795.977    95366.217       26.877       25.765      128.809      445.307       11.952      333.306        2.548      875.429
01/15/2021  02:05:00       23.032        2.648      -33.780      464.254       28.359      218.221   215531.858      804.256    47620.576       13.276       13.198       23.183      316.295      186.137      333.013        2.056      875.444
01/15/2021  02:06:00       -9.635      -10.198      -18.374      311.576       27.975      151.078    97079.608      782.599    22824.452        6.059        6.034       14.030      214.773      234.351      332.815        1.726      875.452
01/15/2021  02:07:00       26.670       -0.184      -25.181      390.184       33.637      187.733   152243.898     1131.428    35243.857        9.494        9.431       26.670      268.011      100.982      332.957        1.964      875.461
01/15/2021  02:08:00      -17.110       -0.803      -12.946      271.726       28.206      129.478    73834.919      795.586    16764.532        4.591        4.570       17.129      185.319      117.052      332.870        1.816      875.455
01/15/2021  02:09:00      -79.268       13.672      -16.771      213.295       17.513      101.963    45494.781      306.722    10396.444        3.146        2.810       80.439      144.494        3.227      332.673        1.491      875.452
01/15/2021  02:10:00      -72.141       12.459       -5.289      180.123       28.752       88.361    32444.376      826.667     7807.709        2.322        2.054       73.209      121.289        2.745      332.715        1.560      875.439
01/15/2021  02:11:00       48.056        5.972      -46.495      511.852       32.382      243.146   261992.211     1048.576    59120.088       16.327       16.108       48.426      351.258       52.614      333.084        2.176      875.438
01/15/2021  02:12:00       29.625       12.950      -14.635      337.228       33.781      162.454   113722.523     1141.170    26391.189        7.123        7.063       32.332      231.533       51.283      332.877        1.830      875.439
01/15/2021  02:13:00       72.647        7.225      -54.628      551.962       29.312      265.017   304661.729      859.214    70234.095       19.196       18.788       73.006      381.565       27.316      333.025        2.081      875.438
01/15/2021  02:14:00      -16.894        6.766      -26.198      342.817       23.202      165.316   117523.596      538.331    27329.469        7.317        7.270       18.198      236.862      169.408      332.775        1.661      875.432
01/15/2021  02:15:00      -29.654       16.288      -27.738      311.184       19.697      148.893    96835.651      387.964    22169.150        6.063        5.970       33.833      214.501       40.196      332.682        1.507      875.420
01/15/2021  02:16:00       68.088        2.788      -50.605      464.572       24.365      222.782   215826.995      593.653    49631.625       13.657       13.303       68.145      320.409       22.107      332.921        1.905      875.413
01/15/2021  02:17:00       -8.581       34.109      -21.062      328.182       29.433      157.675   107703.576      866.311    24861.433        6.753        6.672       35.172      225.902       41.252      332.712        1.558      875.410
01/15/2021  02:18:00       80.838        2.460      -59.370      532.522       28.191      252.316   283580.000      794.758    63663.274       17.898       17.402       80.876      365.895       20.468      332.993        2.026      875.415
01/15/2021  02:19:00      142.599        8.316      -70.875      595.265       33.102      278.556   354340.760     1095.765    77593.245       22.914       21.651      142.841      406.186        8.086      333.371        2.654      875.425
01/15/2021  02:20:00      105.506       19.418      -57.322      525.204       32.330      250.863   275838.899     1045.211    62932.063       17.723       16.991      107.278      361.806       11.374      333.460        2.799      875.437
01/15/2021  02:21:00       20.985       16.935      -30.176      320.907       27.931      152.957   102981.073      780.134    23395.906        6.437        6.358       26.966      219.703       66.379      332.956        1.957      875.451
01/15/2021  02:22:00       42.096       11.640      -56.040      486.457       33.153      234.279   236640.865     1099.127    54886.602       14.878       14.631       43.675      336.093       59.216      332.869        1.820      875.472
01/15/2021  02:23:00      -16.219       28.109      -53.646      509.843       31.118      242.784   259940.374      968.356    58944.213       16.183       15.993       32.452      350.847      116.880      332.700        1.543      875.489
01/15/2021  02:24:00      -14.012       12.917      -28.765      377.340       27.066      180.365   142385.789      732.544    32531.398        8.838        8.782       19.057      259.582      185.532      332.610        1.389      875.497
01/15/2021  02:25:00       11.841       20.887      -37.756      396.728       23.953      188.665   157392.949      573.745    35594.327        9.774        9.678       24.011      272.622      128.919      332.621        1.409      875.498
01/15/2021  02:26:00       25.713       18.534      -41.291      379.952       23.851      180.945   144363.877      568.866    32741.023        9.016        8.884       31.697      261.180       67.898      332.793        1.690      875.487
01/15/2021  02:27:00       43.953       11.443      -36.986      375.396       26.995      180.262   140922.001      728.731    32494.220        8.875        8.707       45.418      259.026       32.526      333.102        2.203      875.476
01/15/2021  02:28:00       29.097       15.191      -41.104      393.428       29.246      186.483   154785.568      855.336    34775.926        9.655        9.521       32.824      269.584       67.454      332.931        1.920      875.485
01/15/2021  02:29:00       23.701       -2.868      -35.546      350.193       27.873      168.245   122634.973      776.884    28306.455        7.674        7.586       23.874      241.359      102.206      332.638        1.435      875.507
01/15/2021  02:30:00        6.396       11.851      -33.090      360.553       31.203      168.888   129998.682      973.641    28523.164        8.035        7.975       13.466      245.457      332.235      332.598        1.368      875.529
01/15/2021  02:31:00       25.498       14.411      -32.838      402.320       29.103      192.306   161861.602      846.971    36981.765       10.077        9.985       29.288      276.961       89.424      332.787        1.684      875.549
01/15/2021  02:32:00       88.132        4.762      -33.859      425.777       22.526      202.380   181285.850      507.404    40957.816       11.580       11.138       88.260      292.845       11.009      333.168        2.312      875.558
01/15/2021  02:33:00       49.940       12.887      -10.629      162.048       39.451       79.738    26259.606     1556.413     6358.158        1.847        1.709       51.576      110.314        4.575      333.030        2.079      875.554
01/15/2021  02:34:00       48.296       -4.879      -25.812      286.934       35.602      138.712    82331.197     1267.470    19241.132        5.291        5.142       48.542      197.192       16.502      333.124        2.235      875.547
01/15/2021  02:35:00      137.754      -13.039      -60.748      538.454       24.050      259.736   289933.139      578.411    67462.643       19.033       17.899      138.370      373.212        7.275      333.433        2.755      875.546
01/15/2021  02:36:00      113.378       -6.927      -52.592      500.639       23.328      240.372   250638.964      544.202    57778.782       16.225       15.448      113.589      345.981        9.277      333.223        2.406      875.567
01/15/2021  02:37:00       21.212       15.042      -17.257      272.209       27.262      132.095    74097.811      743.242    17449.067        4.661        4.615       26.004      188.138       52.344      332.621        1.404      875.599
01/15/2021  02:38:00        0.399       -0.599      -17.426      233.527       29.193      113.147    54534.671      852.259    12802.335        3.423        3.409        0.720      161.343    50272.973      332.516        1.232      875.620
01/15/2021  02:39:00       53.193        1.836      -37.775      421.181       28.271      201.475   177393.246      799.266    40592.237       11.148       10.939       53.224      290.310       29.751      332.723        1.578      875.638
01/15/2021  02:40:00       36.215       19.794      -34.788      408.126       36.828      189.446   166566.988     1356.275    35889.798       10.332       10.191       41.271      276.568       44.907      332.755        1.629      875.634
01/15/2021  02:41:00       40.448       18.088      -46.787      443.530       22.434      214.052   196718.664      503.279    45818.213       12.355       12.152       44.309      307.380       48.125      332.820        1.738      875.627
01/15/2021  02:42:00       -4.632       18.938      -16.303      291.899       33.004      136.142    85204.955     1089.238    18534.775        5.272        5.241       19.496      197.234      102.343      332.689        1.518      875.610
01/15/2021  02:43:00      130.371       13.429      -76.048      635.087       29.923      302.035   403335.462      895.361    91224.998       25.911       24.773      131.061      436.924       11.114      333.129        2.254      875.596
01/15/2021  02:44:00      170.346        7.408      -98.603      696.442       27.222      332.474   485031.505      741.053   110538.761       31.743       29.816      170.507      480.567        7.944      333.310        2.558      875.581
01/15/2021  02:45:00       48.840        5.743      -17.991      315.286       33.040      152.140    99405.406     1091.612    23146.459        6.317        6.182       49.177      217.094       19.488      332.692        1.522      875.578
01/15/2021  02:46:00       32.145       13.095      -31.336      399.668       31.558      193.591   159734.594      995.894    37477.509       10.016        9.910       34.710      276.157       63.300      332.692        1.524      875.578
01/15/2021  02:47:00       19.404       18.132      -38.952      396.981       32.599      186.938   157594.051     1062.686    34945.870        9.787        9.680       26.557      270.693      103.896      332.742        1.607      875.583
01/15/2021  02:48:00       28.469       32.093      -35.577      435.997       30.698      211.290   190093.783      942.372    44643.469       11.934       11.784       42.901      301.969       49.545      332.608        1.388      875.583
01/15/2021  02:49:00        8.138       26.339      -39.826      435.978       23.126      205.969   190077.113      534.806    42423.095       11.764       11.652       27.568      298.740      117.432      332.636        1.434      875.575
01/15/2021  02:50:00       26.895       17.243      -59.004      516.640       26.914      248.444   266917.208      724.373    61724.637       16.687       16.468       31.948      357.319      125.092      332.811        1.726      875.555
01/15/2021  02:51:00      -36.680       31.650      -28.117      345.435       31.102      165.494   119325.550      967.352    27388.350        7.538        7.384       48.447      237.323       23.996      332.512        1.227      875.538
01/15/2021  02:52:00       44.713       28.177      -55.691      552.720       33.261      268.056   305498.856     1106.285    71854.100       19.210       18.923       52.851      383.571       52.673      332.712        1.562      875.511
01/15/2021  02:53:00      -18.571       40.217      -27.264      388.634       33.248      186.251   151036.063     1105.461    34689.417        9.473        9.342       44.298      267.502       36.466      332.550        1.289      875.471
01/15/2021  02:54:00       24.022       18.773      -41.154      428.907       22.857      205.215   183961.570      522.428    42113.004       11.456       11.330       30.488      295.846       94.163      332.640        1.439      875.432
01/15/2021  02:55:00       60.400       27.088      -61.691      560.667       26.211      265.792   314346.951      687.035    70645.415       19.685       19.284       66.196      385.370       33.892      332.880        1.841      875.404
01/15/2021  02:56:00       65.674        8.512      -55.522      533.464       34.193      256.922   284583.977     1169.150    66008.958       17.954       17.588       66.223      369.151       31.073      332.907        1.883      875.377
01/15/2021  02:57:00      107.414       17.966      -69.335      600.128       26.197      283.382   360153.842      686.257    80305.533       22.882       22.057      108.906      411.812       14.299      332.923        1.912      875.369
01/15/2021  02:58:00       67.320       18.697      -52.453      497.911       32.140      238.450   247915.430     1032.960    56858.535       15.666       15.290       69.868      343.513       24.173      332.878        1.834      875.373
01/15/2021  02:59:00        9.420       21.299      -27.344      354.765       32.768      170.429   125858.063     1073.734    29045.948        7.860        7.799       23.290      244.426      110.147      332.681        1.506      875.382
01/15/2021  03:00:00       54.358       27.506      -52.040      496.368       36.696      234.365   246381.107     1346.575    54926.860       15.447       15.133       60.920      339.466       31.050      332.737        1.603      875.409
01/15/2021  03:01:00       -4.296       22.173      -30.135      330.730       37.010      160.732   109382.071     1369.775    25834.643        6.897        6.829       22.585      228.860      102.682      332.429        1.091      875.440
01/15/2021  03:02:00       20.730       21.080      -49.801      468.439       34.206      222.981   219435.397     1170.038    49720.653       13.678       13.516       29.565      321.872      118.527      332.625        1.417      875.459
01/15/2021  03:03:00       19.871       28.869      -58.472      555.222       33.255      265.934   308271.981     1105.879    70720.718       19.229       19.005       35.047      383.168      119.528      332.648        1.458      875.474
01/15/2021  03:04:00        7.859       10.083      -40.001      413.511       27.555      195.495   170991.455      759.289    38218.241       10.582       10.498       12.784      283.168      490.608      332.468        1.155      875.479
01/15/2021  03:05:00        2.712       22.346      -13.751      310.922       40.665      152.333    96672.322     1653.645    23205.376        6.109        6.077       22.510      214.869       91.117      332.432        1.094      875.471
01/15/2021  03:06:00       40.194       14.355      -32.467      403.048       29.946      193.739   162447.741      896.758    37534.735       10.184       10.044       42.680      278.365       42.538      332.603        1.377      875.480
01/15/2021  03:07:00       14.415       14.436      -10.034      176.329       39.597       79.311    31091.869     1567.885     6290.294        1.973        1.948       20.400      115.172       31.872      332.426        1.081      875.493
01/15/2021  03:08:00       45.914       12.169      -10.077      320.939       29.470      156.747   103001.812      868.483    24569.647        6.537        6.422       47.499      222.644       21.971      332.378        1.004      875.501
01/15/2021  03:09:00       24.449       27.225      -12.951      368.071       47.504      181.795   135476.492     2256.634    33049.468        8.611        8.539       36.592      255.371       48.706      332.369        0.991      875.507
01/15/2021  03:10:00       26.217       11.369      -43.646      405.288       32.680      194.971   164258.262     1067.996    38013.686       10.299       10.167       28.576      279.776       95.854      332.393        1.032      875.513
01/15/2021  03:11:00      -20.161        6.463      -19.089      300.416       32.654      146.089    90249.809     1066.288    21342.126        5.671        5.633       21.171      206.598       95.228      332.224        0.751      875.509
01/15/2021  03:12:00       24.751       17.812      -46.072      487.601       37.591      229.702   237754.367     1413.049    52762.900       14.743       14.597       30.494      333.206      119.402      332.392        1.032      875.497
01/15/2021  03:13:00       58.914       23.661      -69.822      607.357       36.845      283.858   368882.156     1357.578    80575.572       22.977       22.541       63.488      413.867       42.496      332.574        1.338      875.484
01/15/2021  03:14:00       28.039       18.544      -42.363      405.276       37.725      195.925   164248.588     1423.176    38386.787       10.345       10.203       33.617      279.355       69.056      332.381        1.011      875.476
01/15/2021  03:15:00      -40.755       28.187      -33.619      366.344       35.535      173.210   134207.972     1262.754    30001.620        8.449        8.274       49.553      249.593       25.370      332.316        0.903      875.478
01/15/2021  03:16:00        1.626       29.956      -64.861      521.621       38.048      245.380   272088.890     1447.636    60211.319       16.936       16.687       30.000      356.352      141.096      332.384        1.019      875.476
01/15/2021  03:17:00       26.066       20.824      -58.798      545.021       36.641      263.388   297047.936     1342.529    69373.317       18.609       18.388       33.363      377.010      127.697      332.440        1.114      875.467
01/15/2021  03:18:00        5.023       15.447      -33.859      392.933       30.073      186.094   154396.435      904.395    34630.958        9.563        9.497       16.243      268.280      272.792      332.252        0.799      875.450
01/15/2021  03:19:00      -18.580       22.713      -27.023      364.792       31.686      171.901   133073.568     1004.032    29549.931        8.258        8.181       29.344      248.824       71.902      332.298        0.874      875.433
01/15/2021  03:20:00      -17.331       25.820      -30.054      340.617       31.669      163.577   116019.736     1002.906    26757.522        7.280        7.189       31.097      234.016       56.630      332.489        1.188      875.414
01/15/2021  03:21:00      -26.592        9.823      -38.561      432.821       25.286      206.065   187334.131      639.400    42462.829       11.632       11.522       28.349      297.136      109.860      332.611        1.391      875.399
01/15/2021  03:22:00       -3.098       14.855      -42.757      473.376       31.208      223.857   224084.999      973.955    50111.891       13.856       13.759       15.175      323.760      455.214      332.680        1.508      875.405
01/15/2021  03:23:00       30.145       36.907      -61.425      547.095       47.780      263.156   299312.547     2282.890    69250.904       18.837       18.542       47.653      376.890       62.553      332.688        1.522      875.416
01/15/2021  03:24:00       13.890       21.206      -42.776      479.700       37.558      226.857   230111.680     1410.576    51464.147       14.267       14.149       25.351      327.769      167.171      332.469        1.158      875.424
01/15/2021  03:25:00       99.191       -1.287      -61.584      577.111       37.200      275.397   333057.611     1383.846    75843.684       21.187       20.514       99.200      396.744       15.996      332.664        1.483      875.428
01/15/2021  03:26:00       87.512        6.272      -54.955      531.247       42.379      247.757   282222.975     1795.970    61383.477       17.799       17.270       87.736      360.906       16.921      332.590        1.361      875.433
01/15/2021  03:27:00       58.503       19.254      -35.918      438.785       40.069      212.002   192532.226     1605.526    44944.798       12.203       11.954       61.590      303.020       24.206      332.465        1.151      875.429
01/15/2021  03:28:00       35.884       26.697      -36.416      432.457       36.218      209.347   187019.155     1311.761    43826.080       11.769       11.608       44.726      298.957       44.679      332.508        1.223      875.425
01/15/2021  03:29:00      -36.727       35.499      -26.648      308.692       43.700      151.085    95290.782     1909.659    22826.609        6.165        6.001       51.079      213.105       17.406      332.432        1.094      875.423
01/15/2021  03:30:00       12.509       26.109      -48.297      459.754       39.776      218.361   211374.115     1582.140    47681.387       13.185       13.032       28.951      315.023      118.403      332.561        1.310      875.414
01/15/2021  03:31:00      120.977       13.826      -76.314      649.817       42.498      307.388   422261.583     1806.104    94487.379       26.949       25.928      121.764      445.036       13.358      332.775        1.672      875.410
01/15/2021  03:32:00       43.710       17.501      -42.834      459.843       35.660      219.352   211455.188     1271.661    48115.195       13.239       13.042       47.084      315.845       44.999      332.506        1.220      875.394
01/15/2021  03:33:00       41.242       37.032      -50.103      528.246       47.470      252.506   279044.202     2253.390    63759.359       17.525       17.253       55.428      363.096       42.912      332.677        1.504      875.373
01/15/2021  03:34:00       48.909       32.838      -53.986      520.982       30.973      246.125   271422.353      959.334    60577.341       16.960       16.648       58.910      357.023       36.730      332.659        1.474      875.350
01/15/2021  03:35:00       50.540       34.227      -46.483      514.051       35.105      244.328   264248.889     1232.333    59696.031       16.546       16.259       61.039      353.045       33.454      332.599        1.376      875.347
01/15/2021  03:36:00        8.726       31.319      -36.337      438.547       35.329      209.650   192323.691     1248.154    43953.062       11.990       11.876       32.512      301.757       86.143      332.532        1.263      875.344
01/15/2021  03:37:00       32.755       15.409      -47.900      492.384       33.051      235.026   242441.524     1092.371    55237.366       15.113       14.939       36.198      338.793       87.598      332.636        1.436      875.356
01/15/2021  03:38:00       -3.208       30.371      -46.804      507.287       29.114      244.091   257340.199      847.602    59580.608       16.038       15.888       30.539      350.668      131.847      332.483        1.183      875.354
01/15/2021  03:39:00      131.336       22.636     -112.365      776.931       30.377      372.933   603621.618      922.781   139079.154       38.685       37.181      133.273      537.470       16.264      333.042        2.119      875.350
01/15/2021  03:40:00       32.539       15.497      -58.118      555.136       34.962      262.479   308176.454     1222.374    68895.394       19.141       18.915       36.040      380.519      111.474      332.685        1.518      875.350
01/15/2021  03:41:00      -25.604       24.293      -32.157      401.382       26.575      191.699   161107.114      706.205    36748.356       10.038        9.928       35.295      276.349       61.303      332.539        1.271      875.340
01/15/2021  03:42:00       31.259       13.427      -51.432      459.846       33.598      220.946   211458.061     1128.814    48817.171       13.255       13.070       34.021      317.276       86.972      332.722        1.575      875.330
01/15/2021  03:43:00       94.816       15.877      -71.184      621.525       31.917      294.610   386293.160     1018.714    86795.002       24.411       23.705       96.136      426.885       19.718      332.993        2.030      875.319
01/15/2021  03:44:00      -24.411       22.243      -26.854      375.187       36.677      179.449   140765.614     1345.200    32202.119        8.803        8.716       33.025      257.611       60.848      332.573        1.329      875.322
01/15/2021  03:45:00        3.667       28.216      -49.714      529.130       33.496      249.687   279978.626     1122.006    62343.486       17.329       17.172       28.454      361.799      161.680      332.654        1.466      875.338
01/15/2021  03:46:00      -94.989       30.118      -16.004      276.630       28.706      133.237    76524.116      824.019    17751.966        5.262        4.755       99.649      190.008        3.636      332.322        0.913      875.353
01/15/2021  03:47:00       82.464       11.885      -90.434      673.659       29.819      323.650   453815.954      889.161   104749.251       28.717       27.973       83.316      466.110       31.298      332.932        1.932      875.362
01/15/2021  03:48:00       -2.305       25.616      -44.291      479.557       36.481      231.991   229974.982     1330.892    53820.038       14.382       14.256       25.719      331.839      166.468      332.559        1.310      875.368
01/15/2021  03:49:00      -12.325       29.551      -31.030      432.833       31.671      208.869   187344.170     1003.035    43626.407       11.693       11.599       32.018      299.079       87.251      332.506        1.218      875.372
01/15/2021  03:50:00        7.131       25.500      -39.833      485.243       38.848      234.091   235460.762     1509.153    54798.465       14.697       14.588       26.478      335.029      160.096      332.604        1.385      875.371
01/15/2021  03:51:00       43.934       21.331      -47.375      569.038       37.684      270.315   323804.701     1420.066    73070.269       20.138       19.915       48.839      390.710       64.000      332.664        1.486      875.359
01/15/2021  03:52:00      101.856       20.463      -76.342      674.619       31.414      321.343   455110.371      986.817   103261.237       28.788       27.968      103.891      464.689       20.006      332.889        1.861      875.350
01/15/2021  03:53:00       53.640       23.299      -44.484      521.925       29.974      252.642   272405.279      898.452    63827.946       17.120       16.857       58.482      361.520       38.214      332.661        1.478      875.330
01/15/2021  03:54:00       -3.296        3.109      -24.229      344.632       35.388      162.722   118771.351     1252.320    26478.347        7.352        7.325        4.531      234.425     2676.246      332.520        1.242      875.321
01/15/2021  03:55:00      109.173       -5.076      -52.441      572.933       28.302      270.689   328252.471      801.024    73272.345       20.843       20.116      109.291      392.678       12.909      332.858        1.805      875.320
01/15/2021  03:56:00       72.672        2.207      -30.458      461.321       35.220      221.145   212817.003     1240.448    48905.315       13.453       13.148       72.705      317.381       19.056      332.682        1.510      875.314
01/15/2021  03:57:00       28.588        0.272      -19.886      310.513       32.182      150.201    96418.370     1035.681    22560.477        6.059        6.001       28.589      214.393       56.237      332.474        1.161      875.307
01/15/2021  03:58:00      102.018       10.662      -51.888      549.009       29.125      262.521   301411.210      848.279    68917.220       19.212       18.559      102.573      378.566       13.621      332.777        1.669      875.309
01/15/2021  03:59:00       12.669      -11.899      -18.698      387.221       30.210      184.075   149939.845      912.621    33883.584        9.266        9.237       17.381      264.564      231.702      332.526        1.249      875.305
01/15/2021  04:00:00      136.892        0.167      -80.947      677.945       34.961      319.854   459609.265     1222.264   102306.807       29.410       28.157      136.892      464.151       11.496      333.057        2.138      875.309
01/15/2021  04:01:00        6.972      -17.115      -36.057      405.240       39.489      196.103   164219.594     1559.398    38456.397       10.290       10.212       18.481      279.328      228.448      332.683        1.510      875.313
01/15/2021  04:02:00      125.590      -13.935      -67.307      655.495       37.899      309.824   429673.134     1436.307    95991.093       27.369       26.355      126.361      448.397       12.592      333.048        2.124      875.308
01/15/2021  04:03:00        2.699      -14.372      -33.041      431.435       33.126      203.078   186136.103     1097.299    41240.843       11.484       11.424       14.623      294.271      404.974      332.784        1.679      875.292
01/15/2021  04:04:00      -15.466      -18.402      -11.097      289.171       33.619      137.173    83620.040     1130.259    18816.555        5.211        5.178       24.038      196.892       67.091      332.787        1.679      875.260
01/15/2021  04:05:00      -12.713       -4.711      -20.144      320.022       34.626      156.904   102413.984     1198.961    24618.827        6.438        6.412       13.558      221.554      267.046      332.857        1.796      875.230
01/15/2021  04:06:00       40.947       -8.419      -32.492      413.198       34.238      197.254   170732.967     1172.217    38909.124       10.676       10.541       41.804      283.980       46.148      332.977        1.996      875.210
01/15/2021  04:07:00       29.945        5.589      -19.599      381.205       28.677      184.029   145317.437      822.364    33866.627        9.062        9.000       30.463      262.960       74.515      332.939        1.933      875.192
01/15/2021  04:08:00       -6.974       18.221      -11.731      331.573       28.966      159.987   109940.937      839.005    25595.781        6.842        6.819       19.510      228.816      137.546      332.844        1.774      875.196
01/15/2021  04:09:00       59.584        2.945      -44.950      495.817       37.598      237.240   245834.869     1413.573    56282.804       15.449       15.177       59.657      341.565       32.781      333.141        2.269      875.197
01/15/2021  04:10:00       13.133       14.946      -31.292      458.065       31.406      213.343   209823.472      986.335    45515.367       12.880       12.816       19.896      310.779      243.984      333.013        2.059      875.203
01/15/2021  04:11:00       80.000       -0.112      -50.753      523.305       27.409      252.179   273847.909      751.233    63594.228       17.351       16.910       80.000      362.207       20.499      333.147        2.279      875.197
01/15/2021  04:12:00      121.187        9.244      -51.940      570.382       27.072      270.734   325336.180      732.874    73297.028       20.833       19.968      121.539      392.299       10.418      333.142        2.273      875.182
01/15/2021  04:13:00       77.125       20.699      -47.555      518.567       29.111      246.150   268911.670      847.431    60589.766       16.942       16.517       79.855      355.965       19.871      333.084        2.176      875.155
01/15/2021  04:14:00       45.231        2.722      -57.895      551.964       21.895      264.803   304664.344      479.376    70120.468       19.026       18.763       45.313      381.534       70.897      333.087        2.185      875.142
01/15/2021  04:15:00       12.189       -3.776      -42.943      467.347       26.539      221.912   218412.763      704.312    49245.081       13.513       13.418       12.760      320.578      631.188      332.927        1.917      875.137
01/15/2021  04:16:00       56.330        9.666      -67.938      579.152       22.925      275.040   335417.455      525.553    75647.031       20.965       20.580       57.153      398.361       48.582      332.968        1.987      875.141
01/15/2021  04:17:00       16.050       13.248      -43.646      481.281       21.237      230.566   231631.658      451.006    53160.645       14.373       14.262       20.812      332.377      255.068      332.710        1.557      875.145
01/15/2021  04:18:00       38.815       29.487      -49.645      520.829       21.033      250.326   271263.012      442.395    62663.260       16.953       16.718       48.746      360.338       54.645      332.723        1.579      875.155
01/15/2021  04:19:00       -8.539       16.352      -31.190      415.181       23.383      193.943   172375.097      546.786    37613.893       10.588       10.527       18.447      282.355      234.270      332.707        1.550      875.166
01/15/2021  04:20:00       37.838        8.715      -58.683      561.051       23.141      266.833   314777.799      535.527    71199.809       19.565       19.326       38.828      385.673       98.659      332.938        1.938      875.163
01/15/2021  04:21:00       98.274      -16.502      -47.746      512.031       31.670      244.962   262175.673     1003.020    60006.537       16.763       16.159       99.650      352.890       12.541      332.998        2.034      875.146
01/15/2021  04:22:00      146.242      -20.123      -74.875      592.312       15.000      283.044   350833.343      224.996    80113.717       22.920       21.559      147.620      409.141        7.682      333.129        2.255      875.111
01/15/2021  04:23:00      106.957      -19.135      -51.836      481.514       20.359      230.900   231856.164      414.492    53314.694       14.998       14.279      108.655      332.858        9.385      333.033        2.090      875.088
01/15/2021  04:24:00      138.839        5.445      -64.678      545.846       26.656      260.925   297948.137      710.538    68081.732       19.504       18.337      138.945      376.907        7.358      333.224        2.408      875.071
01/15/2021  04:25:00       38.916       21.345      -37.976      405.148       17.771      193.581   164144.739      315.824    37473.432       10.263       10.097       44.385      279.588       39.679      332.827        1.747      875.056
01/15/2021  04:26:00       33.117        2.881      -22.553      313.351       19.795      150.655    98188.888      391.827    22696.990        6.142        6.064       33.242      216.303       42.340      332.740        1.602      875.040
01/15/2021  04:27:00      106.373       -1.246      -56.181      540.732       13.905      255.982   292390.883      193.360    65526.940       18.622       17.906      106.381      371.551       12.199      333.056        2.131      875.004
01/15/2021  04:28:00       85.263       -1.218      -40.454      442.590       21.441      212.372   195885.701      459.719    45101.672       12.513       12.072       85.272      305.767       12.858      333.032        2.089      874.983
01/15/2021  04:29:00       46.152       -1.000      -22.379      292.885       13.915      140.075    85781.427      193.630    19621.061        5.409        5.280       46.163      202.192       19.184      332.761        1.635      874.974
01/15/2021  04:30:00       55.897      -13.007      -32.829      385.936       18.470      185.096   148946.740      341.144    34260.399        9.392        9.177       57.390      266.747       21.603      332.863        1.807      874.964
01/15/2021  04:31:00       96.619      -27.083      -55.427      496.726       10.601      236.807   246736.296      112.387    56077.717       15.797       15.146      100.343      342.749       11.668      333.035        2.094      874.944
01/15/2021  04:32:00        8.467      -17.590       -2.982       40.635       16.119       23.032     1651.176      259.811      530.464        0.142        0.122       19.522       26.330        1.819      332.754        1.622      874.910
01/15/2021  04:33:00       45.570        0.236      -18.496      298.748       16.807      143.115    89250.506      282.475    20481.888        5.619        5.501       45.570      206.253       20.485      332.835        1.760      874.891
01/15/2021  04:34:00       31.885      -13.185      -13.597      159.525       13.252       76.368    25448.359      175.612     5832.021        1.641        1.573       34.504      109.843       10.135      332.789        1.680      874.865
01/15/2021  04:35:00       34.261      -23.074      -19.628      117.654       21.805       58.188    13842.393      475.443     3385.877        0.989        0.885       41.307       80.584        3.806      332.780        1.666      874.846
01/15/2021  04:36:00       66.314      -19.189      -39.010      376.607       20.335      179.280   141832.880      413.519    32141.429        9.030        8.719       69.035      259.498       14.130      332.892        1.856      874.841
01/15/2021  04:37:00       19.145      -19.881      -16.224      179.433       21.338       85.711    32196.200      455.307     7346.339        2.050        2.000       27.601      123.357       19.975      332.784        1.672      874.835
01/15/2021  04:38:00       48.355        4.755      -21.601      270.273       20.736      128.867    73047.453      429.978    16606.767        4.644        4.504       48.588      185.634       14.597      332.842        1.768      874.853
01/15/2021  04:39:00       40.496      -46.704      -26.947      330.718       38.297      157.525   109374.328     1466.688    24814.091        7.007        6.783       61.816      227.572       13.553      332.876        1.827      874.869
01/15/2021  04:40:00      100.871      -69.362      -54.040      464.339       30.420      223.444   215611.062      925.373    49927.270       14.213       13.323      122.417      321.404        6.893      332.967        1.982      874.892
01/15/2021  04:41:00       18.772       -4.848      -30.233      331.467       20.716      161.129   109870.455      429.159    25962.650        6.875        6.813       19.388      229.959      140.687      332.715        1.561      874.910
01/15/2021  04:42:00       56.534      -19.121      -34.513      409.444       21.392      194.457   167644.267      457.596    37813.356       10.529       10.296       59.680      281.650       22.272      332.742        1.609      874.913
01/15/2021  04:43:00        2.656      -26.754      -31.210      255.539       23.487      122.960    65300.328      551.630    15119.064        4.132        4.049       26.886      175.864       42.787      332.680        1.502      874.904
01/15/2021  04:44:00      127.384      -11.157      -71.499      580.538       26.615      277.928   337024.206      708.334    77244.086       21.813       20.749      127.872      400.878        9.828      333.121        2.241      874.896
01/15/2021  04:45:00      106.260      -30.858      -80.115      569.158       27.190      272.555   323940.779      739.303    74285.990       20.873       19.948      110.650      393.137       12.624      333.092        2.193      874.893
01/15/2021  04:46:00       25.958      -16.365      -29.243      336.858       20.012      158.649   113473.295      400.464    25169.443        7.039        6.952       30.686      230.447       56.397      332.804        1.708      874.898
01/15/2021  04:47:00       52.753       17.470      -32.566      377.217       40.040      179.700   142292.614     1603.223    32292.250        9.013        8.809       55.570      258.799       21.689      332.777        1.664      874.926
01/15/2021  04:48:00       85.481        3.382      -38.257      416.769       31.519      200.649   173696.790      993.462    40259.879       11.182       10.748       85.548      287.710       11.311      332.871        1.820      874.960
01/15/2021  04:49:00       16.052        2.166      -25.071      328.989       30.997      155.503   108233.609      960.797    24181.056        6.711        6.669       16.197      224.238      191.661      332.712        1.556      874.990
01/15/2021  04:50:00      -47.705        3.166        2.633      252.226       40.750      122.564    63618.102     1660.591    15021.995        4.128        4.015       47.810      171.263       12.832      332.515        1.229      874.999
01/15/2021  04:51:00       11.655       -2.221      -21.540      411.696       43.109      195.521   169493.815     1858.371    38228.495       10.505       10.479       11.864      280.253      557.958      332.706        1.549      874.985
01/15/2021  04:52:00       99.626       -3.991      -48.358      519.006       26.507      248.607   269367.526      702.601    61805.545       17.201       16.594       99.706      358.407       12.922      332.884        1.846      874.943
01/15/2021  04:53:00       39.782      -54.955      -53.192      476.944       36.159      226.847   227475.873     1307.454    51459.538       14.378       14.012       67.843      327.191       23.259      333.015        2.061      874.895
01/15/2021  04:54:00      149.481      -27.625      -67.419      562.289       27.890      267.294   316169.454      777.872    71446.170       20.794       19.420      152.012      386.846        6.476      333.102        2.207      874.875
01/15/2021  04:55:00       73.157      -21.802      -51.149      446.448       24.983      208.613   199315.959      624.137    43519.503       12.590       12.173       76.336      302.650       15.719      332.836        1.763      874.864
01/15/2021  04:56:00       11.184      -28.972      -22.304      236.073       28.905      114.216    55730.680      835.521    13045.388        3.552        3.481       31.056      161.136       26.922      332.653        1.457      874.870
01/15/2021  04:57:00      117.481       -7.729      -54.181      552.755       31.420      260.591   305537.862      987.205    67907.894       19.554       18.722      117.735      378.447       10.332      332.997        2.034      874.878
01/15/2021  04:58:00      -49.598      -31.040      -14.600      220.631       27.985      104.952    48678.058      783.146    11014.947        3.204        3.024       58.510      146.334        6.255      332.597        1.365      874.890
01/15/2021  04:59:00       45.524      -16.049      -57.062      548.019       36.671      265.962   300324.660     1344.750    70735.941       18.892       18.620       48.270      379.525       61.820      332.940        1.939      874.896
01/15/2021  05:00:00      -17.627       -7.948      -40.949      420.462       35.401      203.400   176788.455     1253.226    41371.464       11.069       10.971       19.336      288.125      222.044      332.838        1.765      874.893
01/15/2021  05:01:00       25.096        2.482      -44.869      488.481       32.882      227.954   238613.218     1081.246    51962.909       14.709       14.583       25.219      330.899      172.166      332.821        1.739      874.878
01/15/2021  05:02:00       45.718       -1.046      -40.602      507.212       39.086      241.598   257264.447     1527.723    58369.791       16.038       15.858       45.730      346.798       57.512      332.804        1.715      874.885
01/15/2021  05:03:00      -17.016       15.457      -17.448      416.535       36.580      199.005   173501.275     1338.128    39602.975       10.759       10.722       22.988      283.194      151.759      332.602        1.378      874.881
01/15/2021  05:04:00      -62.641       10.841      -30.281      415.694       34.337      197.659   172801.881     1179.021    39068.963       10.896       10.652       63.572      283.738       19.920      332.534        1.265      874.865
01/15/2021  05:05:00      -10.092        8.277      -28.772      458.058       38.770      216.120   209817.239     1503.112    46707.795       12.946       12.901       13.052      309.653      562.846      332.510        1.226      874.845
01/15/2021  05:06:00      -31.178        6.507      -28.369      433.611       43.561      203.438   188018.690     1897.518    41387.127       11.651       11.565       31.849      292.163       84.148      332.504        1.213      874.830
01/15/2021  05:07:00       30.472        5.636      -64.084      628.226       39.319      292.674   394667.716     1545.947    85657.921       24.337       24.094       30.989      425.848      188.845      332.776        1.671      874.818
01/15/2021  05:08:00      -35.833        0.646      -37.633      458.038       42.750      219.607   209798.804     1827.526    48227.243       13.122       12.993       35.839      313.910       76.719      332.498        1.206      874.804
01/15/2021  05:09:00       -8.618       11.941      -23.913      370.051       35.300      179.760   136937.763     1246.105    32313.538        8.561        8.525       14.726      253.333      295.939      332.429        1.090      874.799
01/15/2021  05:10:00       16.841       24.709      -31.960      490.140       39.753      229.800   240237.244     1580.288    52808.038       14.821       14.731       29.902      332.936      123.970      332.544        1.281      874.803
01/15/2021  05:11:00        9.430       18.338      -51.441      534.470       44.573      260.984   285658.175     1986.722    68112.841       17.934       17.788       20.620      371.039      323.776      332.648        1.456      874.811
01/15/2021  05:12:00       84.909        1.394      -84.652      666.248       48.321      318.382   443886.108     2334.910   101366.959       28.087       27.379       84.920      458.974       29.212      332.892        1.866      874.823
01/15/2021  05:13:00       31.949       22.690      -39.884      483.029       41.945      229.338   233317.045     1759.369    52596.032       14.534       14.384       39.187      330.167       70.989      332.528        1.257      874.838
01/15/2021  05:14:00      112.344       18.659      -77.828      729.985       35.281      347.939   532878.459     1244.728   121061.755       33.697       32.759      113.883      502.597       19.477      332.931        1.932      874.845
01/15/2021  05:15:00       36.855        9.913      -34.493      480.657       42.715      232.284   231030.734     1824.610    53955.839       14.467       14.341       38.165      331.922       75.637      332.653        1.464      874.840
01/15/2021  05:16:00      160.843        6.631     -107.243      783.805       38.770      377.397   614350.488     1503.140   142428.234       39.769       37.914      160.980      542.856       11.372      333.196        2.374      874.834
01/15/2021  05:17:00       50.340       21.622      -53.846      558.248       43.822      261.082   311640.771     1920.370    68163.692       19.373       19.086       54.787      379.331       47.938      332.726        1.588      874.825
01/15/2021  05:18:00      100.575       22.164      -72.106      651.660       37.915      310.856   424660.762     1437.523    96631.601       26.916       26.136      102.988      448.303       18.948      332.932        1.930      874.819
01/15/2021  05:19:00      153.686      -14.318      -96.230      684.135       38.962      323.597   468041.170     1518.000   104714.722       30.356       28.714      154.351      469.559        9.255      333.153        2.298      874.818
01/15/2021  05:20:00      111.853       16.849      -68.341      620.896       36.036      296.151   385512.413     1298.596    87705.615       24.589       23.726      113.115      427.696       14.296      332.977        2.003      874.824
01/15/2021  05:21:00      101.601        5.218      -50.991      554.876       38.068      264.904   307887.453     1449.197    70174.310       19.615       18.976      101.735      382.262       14.118      332.866        1.817      874.832
01/15/2021  05:22:00       38.251       19.239      -45.693      454.161       33.112      217.707   206261.789     1096.398    47396.540       12.929       12.738       42.816      312.700       53.338      332.603        1.380      874.833
01/15/2021  05:23:00       63.084       -9.677      -34.768      465.301       25.373      218.233   216505.475      643.805    47625.550       13.497       13.239       63.822      317.889       24.809      332.695        1.532      874.824
01/15/2021  05:24:00       59.916       -7.463      -40.669      440.884       35.003      210.451   194379.092     1225.233    44289.728       12.255       11.995       60.379      303.121       25.203      332.706        1.550      874.812
01/15/2021  05:25:00       98.171      -24.447      -55.934      528.377       42.135      258.330   279181.787     1775.395    66734.339       18.046       17.385      101.169      367.552       13.199      332.845        1.784      874.803
01/15/2021  05:26:00       50.983      -19.599      -57.981      497.153       31.623      239.328   247161.417      999.986    57278.128       15.583       15.272       54.621      343.998       39.664      332.661        1.477      874.798
01/15/2021  05:27:00       76.845       -7.723      -48.341      498.989       35.279      235.400   248990.486     1244.603    55413.309       15.691       15.282       77.232      341.130       19.509      332.620        1.410      874.803
01/15/2021  05:28:00       56.242      -10.119      -33.241      441.555       47.177      211.714   194970.460     2225.704    44822.791       12.314       12.101       57.145      302.677       28.054      332.747        1.617      874.810
01/15/2021  05:29:00       58.087      -19.145      -28.250      487.580       43.397      235.807   237734.092     1883.342    55604.787       14.982       14.761       61.161      336.709       30.309      332.805        1.716      874.803
01/15/2021  05:30:00       28.722      -64.353      -70.895      589.499       39.570      278.901   347509.382     1565.824    77785.890       21.834       21.343       70.472      403.144       32.726      332.999        2.039      874.798
01/15/2021  05:31:00      -48.753      -59.258      -30.236      345.000       42.598      165.638   119025.221     1814.624    27435.799        7.751        7.414       76.736      234.768        9.360      332.717        1.565      874.788
01/15/2021  05:32:00       14.649      -17.530      -31.330      413.237       39.303      202.797   170764.588     1544.704    41126.522       10.743       10.672       22.845      286.046      156.778      332.817        1.733      874.781
01/15/2021  05:33:00       72.692       -7.290      -43.287      483.700       47.191      232.622   233965.308     2227.002    54112.860       14.870       14.515       73.057      333.802       20.877      332.948        1.950      874.795
01/15/2021  05:34:00      127.411      -10.464      -72.027      658.044       43.303      313.111   433021.992     1875.118    98038.360       27.712       26.647      127.840      452.883       12.550      333.128        2.256      874.814
01/15/2021  05:35:00      138.922        0.524      -71.703      682.562       29.087      323.778   465890.969      846.027   104832.412       29.789       28.578      138.923      469.195       11.407      333.038        2.108      874.846
01/15/2021  05:36:00       93.230       -7.788      -70.442      576.075       37.899      276.506   331862.502     1436.367    76455.833       21.165       20.488       93.555      396.842       17.993      332.648        1.459      874.865
01/15/2021  05:37:00      -23.961        3.123      -30.676      384.721       39.553      184.916   148010.045     1564.402    34193.894        9.261        9.188       24.163      262.737      118.230      332.102        0.551      874.875
01/15/2021  05:38:00      -35.753       18.369       -0.142       54.447       42.754       29.286     2964.516     1827.942      857.694        0.363        0.283       40.196       26.685        0.441      331.872        0.168      874.885
01/15/2021  05:39:00       29.534        7.525      -12.905      289.098       39.110      137.648    83577.769     1529.564    18947.075        5.255        5.203       30.478      195.258       41.044      332.030        0.431      874.901
01/15/2021  05:40:00       66.315       -4.942      -27.358      461.950       45.979      222.373   213397.535     2114.113    49449.721       13.501       13.248       66.499      317.081       22.736      332.231        0.767      874.909
01/15/2021  05:41:00       30.158       14.821      -19.628      423.326       45.235      206.589   179205.103     2046.206    42679.070       11.268       11.197       33.603      292.505       75.774      332.115        0.575      874.907
01/15/2021  05:42:00       71.135       27.340      -57.661      618.583       36.513      290.126   382644.664     1333.198    84172.817       23.855       23.408       76.208      421.911       30.651      332.287        0.866      874.898
01/15/2021  05:43:00       57.100       11.691      -34.824      485.683       43.354      221.153   235888.319     1879.594    48908.449       14.558       14.334       58.285      325.675       31.222      332.241        0.785      874.874
01/15/2021  05:44:00        5.134        8.228       -0.857      185.897       35.010       89.408    34557.794     1225.701     7993.812        2.193        2.189        9.698      124.724      165.396      332.022        0.416      874.847
01/15/2021  05:45:00       13.019       12.812      -23.284      396.694       34.698      187.000   157366.176     1203.920    34969.123        9.717        9.677       18.266      270.969      220.068      332.125        0.589      874.823
01/15/2021  05:46:00       40.346       31.460      -23.817      412.107       42.911      199.470   169832.076     1841.345    39788.164       10.728       10.573       51.162      284.152       30.847      332.153        0.634      874.800
01/15/2021  05:47:00       -9.798       29.362       -9.804      259.727       42.606      127.524    67458.365     1815.262    16262.314        4.328        4.277       30.954      178.739       33.343      332.131        0.597      874.792
01/15/2021  05:48:00      -37.756       30.938      -16.056      257.599       38.258      125.712    66357.360     1463.646    15803.572        4.312        4.181       48.813      176.985       13.146      332.059        0.478      874.807
01/15/2021  05:49:00       15.761       41.994      -33.801      439.917       44.551      209.451   193526.532     1984.815    43869.891       12.122       11.969       44.854      300.946       45.017      332.237        0.775      874.828
01/15/2021  05:50:00        2.803       40.732      -33.349      448.979       50.167      215.241   201582.403     2516.707    46328.682       12.655       12.521       40.828      308.390       57.053      332.281        0.850      874.850
01/15/2021  05:51:00       57.340       31.899      -52.388      492.239       41.187      224.828   242298.865     1696.372    50547.789       15.074       14.727       65.616      330.795       25.416      332.377        1.007      874.851
01/15/2021  05:52:00      216.748       10.375      -90.794      707.731       43.520      334.041   500883.633     1894.016   111583.544       33.472       30.718      216.997      484.471        4.985      332.841        1.784      874.841
01/15/2021  05:53:00       97.643       12.379      -31.837      465.340       43.573      225.461   216541.398     1898.569    50832.464       13.993       13.464       98.424      321.669       10.681      332.374        1.004      874.822
01/15/2021  05:54:00       65.684       33.984      -12.592      317.650       45.360      153.294   100901.310     2057.558    23499.049        6.602        6.323       73.954      217.678        8.664      332.420        1.073      874.807
01/15/2021  05:55:00       67.618       31.547      -13.798      345.107       42.469      168.410   119098.701     1803.590    28362.013        7.748        7.463       74.615      238.383       10.207      332.387        1.021      874.776
01/15/2021  05:56:00       90.069        9.014      -31.590      442.059       38.485      213.643   195416.137     1481.095    45643.145       12.582       12.127       90.519      305.482       11.389      332.491        1.195      874.741
01/15/2021  05:57:00       65.193        4.833      -25.507      401.451       42.235      193.258   161163.295     1783.818    37348.524       10.257       10.015       65.372      276.222       17.854      332.366        0.988      874.699
01/15/2021  05:58:00      115.704       15.202      -42.793      520.719       39.341      244.087   271148.601     1547.676    59578.590       17.379       16.614      116.698      354.707        9.239      332.435        1.105      874.652
01/15/2021  05:59:00       84.080       18.965      -24.591      377.321       38.967      183.634   142371.254     1518.395    33721.512        9.279        8.881       86.192      261.094        9.176      332.313        0.900      874.612
01/15/2021  06:00:00       84.337      -24.599      -22.468      402.441       47.147      192.248   161958.647     2222.819    36959.334       10.464       10.057       87.851      276.080        9.876      332.404        1.050      874.613
01/15/2021  06:01:00       48.755       11.355      -27.525      353.500       35.352      168.742   124962.041     1249.761    28473.924        7.894        7.734       50.060      242.083       23.385      332.307        0.888      874.638
01/15/2021  06:02:00      110.891      -21.585      -61.481      551.230       36.044      266.836   303854.373     1299.160    71201.344       19.637       18.818      112.972      382.254       11.449      332.557        1.308      874.641
01/15/2021  06:03:00       54.065      -20.030      -42.391      396.195       41.960      190.435   156970.118     1760.676    36265.615       10.002        9.750       57.656      272.189       22.287      332.274        0.833      874.660
01/15/2021  06:04:00       10.970       -4.153       -7.522      175.124       33.168       86.292    30668.437     1100.101     7446.389        1.970        1.961       11.729      119.611      103.992      331.986        0.358      874.661
01/15/2021  06:05:00       89.469       10.688      -31.253      493.278       30.703      237.484   243323.094      942.648    56398.700       15.482       15.033       90.105      341.177       14.337      332.314        0.902      874.642
01/15/2021  06:06:00      133.048       -6.257      -46.427      543.153       34.672      258.216   295014.697     1202.156    66675.394       19.132       18.145      133.195      373.214        7.851      332.451        1.131      874.617
01/15/2021  06:07:00       92.249       16.425      -42.779      505.902       31.897      236.237   255937.249     1017.390    55807.879       16.162       15.638       93.699      344.612       13.527      332.391        1.032      874.593
01/15/2021  06:08:00      145.012       21.139      -79.453      654.606       33.684      313.430   428508.599     1134.625    98238.393       27.773       26.394      146.545      451.791        9.505      332.667        1.494      874.569
01/15/2021  06:09:00       55.891       16.385      -35.656      435.737       37.395      211.126   189866.313     1398.422    44574.216       12.020       11.792       58.243      301.612       26.817      332.400        1.044      874.554
01/15/2021  06:10:00       82.643       17.571      -64.430      590.079       34.849      282.896   348192.689     1214.478    80030.125       22.027       21.472       84.491      407.347       23.244      332.601        1.382      874.553
01/15/2021  06:11:00       77.864       18.919      -44.657      562.430       43.289      269.489   316327.074     1873.915    72624.457       19.954       19.541       80.129      387.287       23.361      332.472        1.167      874.558
01/15/2021  06:12:00      122.115        4.974      -52.064      552.350       42.083      266.254   305090.361     1770.954    70891.378       19.762       18.888      122.217      382.106        9.775      332.572        1.331      874.560
01/15/2021  06:13:00      117.219       30.778      -74.742      656.416       42.537      317.492   430882.460     1809.400   100801.417       27.677       26.675      121.192      454.986       14.094      332.620        1.416      874.546
01/15/2021  06:14:00       72.913       29.438      -55.703      554.111       39.510      262.211   307038.506     1561.058    68754.536       19.324       18.868       78.632      379.856       23.337      332.534        1.268      874.528
01/15/2021  06:15:00      129.995        6.874      -59.339      611.333       37.086      290.564   373728.015     1375.399    84427.501       23.990       22.977      130.177      420.206       10.420      332.592        1.370      874.517
01/15/2021  06:16:00      106.936      -15.323      -43.603      505.398       34.255      240.939   255426.761     1173.400    58051.427       16.405       15.733      108.029      347.908       10.372      332.534        1.267      874.501
01/15/2021  06:17:00      113.929       -0.588      -47.689      528.330       32.463      253.316   279133.091     1053.851    64168.959       17.974       17.218      113.930      364.791       10.252      332.609        1.392      874.496
01/15/2021  06:18:00      129.092       22.648      -60.879      587.534       34.317      281.523   345196.564     1177.672    79255.388       22.317       21.281      131.064      405.728        9.583      332.686        1.521      874.503
01/15/2021  06:19:00       63.476       18.346      -40.981      494.016       31.513      232.847   244051.959      993.095    54217.831       15.259       14.963       66.074      338.047       26.176      332.394        1.035      874.507
01/15/2021  06:20:00      237.299       22.177     -122.465      815.090       34.841      385.682   664372.309     1213.868   148750.628       44.290       40.717      238.333      559.717        5.515      332.982        2.023      874.506
01/15/2021  06:21:00       55.371       21.316      -31.402      426.381       31.074      203.455   181800.733      965.618    41393.931       11.429       11.208       59.332      293.360       24.447      332.302        0.883      874.501
01/15/2021  06:22:00       84.129       24.256      -46.348      513.561       37.900      235.120   263744.442     1436.418    55281.264       16.507       16.023       87.556      346.300       15.644      332.460        1.145      874.494
01/15/2021  06:23:00      156.074       15.157      -84.202      643.110       30.889      304.218   413590.469      954.116    92548.473       26.928       25.355      156.808      441.407        7.924      332.805        1.719      874.483
01/15/2021  06:24:00      204.601       28.685      -86.090      679.620       36.451      323.455   461883.735     1328.689   104622.992       30.885       28.392      206.602      467.696        5.125      332.876        1.837      874.463
01/15/2021  06:25:00      117.365       34.894      -34.753      491.247       38.013      237.160   241323.675     1444.952    56244.732       15.754       14.951      122.442      339.812        7.702      332.584        1.350      874.463
01/15/2021  06:26:00      114.302       30.581      -35.876      497.243       35.517      238.779   247250.534     1261.457    57015.261       16.035       15.276      118.322      343.268        8.417      332.517        1.239      874.478
01/15/2021  06:27:00       85.806       37.715      -43.465      490.803       32.848      235.926   240887.782     1079.017    55661.190       15.409       14.881       93.729      339.082       13.088      332.513        1.231      874.504
01/15/2021  06:28:00       67.633       38.950      -55.173      541.804       30.401      257.743   293551.997      924.222    66431.575       18.495       18.045       78.047      372.753       22.810      332.444        1.121      874.527
01/15/2021  06:29:00      135.108       12.694      -76.266      644.189       38.109      303.444   414979.841     1452.273    92078.470       26.627       25.426      135.703      440.930       10.557      332.554        1.305      874.539
01/15/2021  06:30:00       59.807        5.641      -23.888      420.522       32.682      202.858   176838.343     1068.137    41151.358       11.157       10.953       60.073      290.377       23.365      332.128        0.596      874.527
01/15/2021  06:31:00       -2.837        9.696      -21.152      286.282       35.795      137.234    81957.239     1281.272    18833.251        5.129        5.104       10.102      196.368      377.855      331.979        0.346      874.501
01/15/2021  06:32:00       49.828       11.438      -11.380      341.204       36.301      161.274   116420.304     1317.796    26009.248        7.322        7.187       51.124      232.962       20.764      332.105        0.555      874.457
01/15/2021  06:33:00       56.792        5.350      -15.094      395.516       32.617      190.240   156432.643     1063.866    36191.170        9.854        9.684       57.043      272.872       22.883      332.249        0.794      874.415
01/15/2021  06:34:00       15.553      -15.521       -6.528      164.412       28.710       80.273    27031.212      824.286     6443.829        1.741        1.715       21.973      112.043       26.002      332.170        0.659      874.368
01/15/2021  06:35:00       57.287       -0.131      -25.850      358.944       36.795      173.635   128841.088     1353.849    30149.278        8.211        8.017       57.287      247.314       18.637      332.339        0.941      874.328
01/15/2021  06:36:00       83.173        6.166      -32.137      436.880       33.128      210.914   190863.887     1097.470    44484.773       12.217       11.822       83.401      302.125       13.123      332.419        1.076      874.281
01/15/2021  06:37:00       88.689       -5.126      -44.020      459.885       30.992      220.992   211493.964      960.480    48837.383       13.551       13.065       88.837      317.709       12.790      332.474        1.167      874.245
01/15/2021  06:38:00       46.222       22.839      -27.971      423.585       37.210      200.605   179424.093     1384.582    40242.298       11.220       11.053       51.557      289.529       31.536      332.357        0.975      874.222
01/15/2021  06:39:00      106.037       21.573      -75.321      638.630       28.712      305.433   407848.908      824.362    93289.547       25.957       25.098      108.209      440.772       16.592      332.632        1.435      874.215
01/15/2021  06:40:00      -23.307       26.709      -20.730      352.045       41.488      169.841   123935.503     1721.281    28845.810        7.806        7.725       35.449      241.622       46.459      332.124        0.587      874.216
01/15/2021  06:41:00        1.647        9.877      -49.854      517.130       34.449      250.531   267423.248     1186.759    62765.766       16.691       16.569       10.014      358.294     1280.246      332.255        0.809      874.231
01/15/2021  06:42:00       34.246       13.866      -47.019      577.228       45.772      276.058   333191.760     2095.120    76207.977       20.745       20.575       36.947      396.610      115.234      332.356        0.977      874.251
01/15/2021  06:43:00       76.429       23.207      -79.677      677.773       42.844      325.644   459376.029     1835.598   106043.938       28.987       28.363       79.875      467.488       34.255      332.462        1.155      874.255
01/15/2021  06:44:00       86.170       49.976      -81.244      696.512       46.377      327.089   485129.367     2150.862   106987.028       30.527       29.713       99.614      475.380       22.774      332.532        1.270      874.252
01/15/2021  06:45:00       24.273       24.873      -37.237      500.518       39.824      238.693   250517.888     1585.963    56974.242       15.577       15.454       34.754      343.368       97.615      332.090        0.536      874.246
01/15/2021  06:46:00       72.875       22.482      -54.495      550.555       36.813      262.528   303110.707     1355.228    68921.039       19.101       18.669       76.264      378.777       24.668      332.231        0.769      874.228
01/15/2021  06:47:00       48.260       22.952      -27.721      446.978       41.327      215.711   199789.465     1707.902    46531.062       12.578       12.401       53.441      307.840       33.183      332.138        0.611      874.206
01/15/2021  06:48:00      -16.767       29.357      -17.110      327.685       31.303      159.700   107377.782      979.865    25504.028        6.762        6.693       33.808      226.722       44.973      331.935        0.275      874.171
01/15/2021  06:49:00      103.973       23.221      -76.142      648.372       41.316      306.769   420385.867     1707.026    94107.430       26.657       25.810      106.535      444.366       17.398      332.459        1.149      874.147
01/15/2021  06:50:00       60.187       22.869      -56.082      535.718       44.420      257.798   286993.977     1973.170    66459.640       18.129       17.771       64.385      369.694       32.970      332.388        1.027      874.117
01/15/2021  06:51:00       35.397       34.858      -55.573      532.160       33.262      255.598   283194.658     1106.364    65330.326       17.752       17.482       49.679      367.781       54.806      332.349        0.965      874.091
01/15/2021  06:52:00       61.694       18.171      -52.886      509.180       43.326      245.246   259264.206     1877.143    60145.447       16.404       16.064       64.314      350.094       29.632      332.348        0.962      874.080
01/15/2021  06:53:00       -1.953       29.209      -40.326      431.473       42.548      206.624   186169.298     1810.309    42693.419       11.653       11.534       29.274      296.176      102.363      332.184        0.687      874.069
01/15/2021  06:54:00       48.385       24.218      -61.067      551.437       39.942      261.804   304082.314     1595.367    68541.186       19.036       18.711       54.108      378.170       48.849      332.320        0.915      874.070
01/15/2021  06:55:00      105.929       14.562      -73.546      613.112       41.649      291.383   375905.864     1734.649    84903.796       23.960       23.127      106.925      420.440       15.461      332.426        1.091      874.062
01/15/2021  06:56:00       39.246       18.675      -22.044      359.019       38.771      176.925   128894.543     1503.208    31302.472        8.200        8.085       43.463      249.066       32.839      332.087        0.527      874.024
01/15/2021  06:57:00      142.489       34.437      -71.986      656.606       50.410      317.708   431131.106     2541.134   100938.302       28.053       26.731      146.591      454.673        9.620      332.553        1.305      873.980
01/15/2021  06:58:00       60.654       14.132      -46.819      450.763       39.131      215.191   203186.854     1531.222    46307.122       12.850       12.551       62.279      309.791       24.743      332.221        0.750      873.943
01/15/2021  06:59:00       68.659       11.207      -52.799      479.626       35.043      230.563   230040.744     1228.011    53159.188       14.597       14.221       69.567      330.604       22.584      332.233        0.769      873.917
01/15/2021  07:00:00       95.408      -11.794      -53.670      497.454       43.469      239.612   247460.975     1889.559    57413.860       15.938       15.338       96.134      342.949       12.726      332.276        0.842      873.923
01/15/2021  07:01:00       46.146        9.151      -15.357      313.443       44.903      152.793    98246.752     2016.321    23345.590        6.300        6.180       47.044      215.462       20.976      332.018        0.411      873.934
01/15/2021  07:02:00       98.520        4.224      -40.811      504.029       36.574      236.778   254045.393     1337.689    56063.805       16.136       15.572       98.610      343.809       12.156      332.286        0.858      873.949
01/15/2021  07:03:00       89.630        9.796      -45.144      524.764       42.049      251.082   275377.023     1768.135    63042.158       17.511       17.009       90.164      361.198       16.048      332.317        0.909      873.970
01/15/2021  07:04:00      126.481       20.443      -76.528      724.674       46.636      332.442   525151.907     2174.942   110517.549       32.993       31.892      128.122      488.894       14.561      332.583        1.359      873.969
01/15/2021  07:05:00      120.462       42.517      -75.407      693.765       45.408      335.067   481309.351     2061.892   112270.134       30.870       29.782      127.745      480.391       14.142      332.594        1.374      873.950
01/15/2021  07:06:00       19.852       40.963      -25.755      445.386       36.853      214.914   198368.459     1358.172    46187.962       12.427       12.296       45.520      307.674       45.685      332.173        0.672      873.923
01/15/2021  07:07:00       19.330       15.241      -37.655      471.188       40.671      219.402   222017.812     1654.155    48137.362       13.686       13.590       24.616      318.714      167.632      332.322        0.916      873.888
01/15/2021  07:08:00       40.526       10.014      -23.911      370.353       37.185      182.836   137161.354     1382.736    33429.125        8.711        8.599       41.745      256.697       37.812      332.210        0.731      873.862
01/15/2021  07:09:00      156.526        6.806      -80.597      713.446       45.847      344.160   509005.766     2101.990   118446.106       33.017       31.478      156.674      492.661        9.888      332.638        1.450      873.833
01/15/2021  07:10:00        8.671       30.831      -47.849      525.626       49.157      249.730   276283.083     2416.367    62365.123       17.212       17.053       32.027      359.440      125.956      332.215        0.743      873.811
01/15/2021  07:11:00       19.450       12.644      -43.402      459.751       41.393      216.534   211371.148     1713.368    46887.077       13.114       12.999       23.199      311.828      180.676      332.189        0.697      873.796
01/15/2021  07:12:00       65.512       28.079      -56.894      623.228       51.642      292.784   388412.698     2666.894    85722.180       24.246       23.840       71.276      425.003       35.555      332.361        0.987      873.796
01/15/2021  07:13:00       47.880       18.639      -57.589      589.677       36.631      284.526   347719.159     1341.866    80955.097       21.790       21.501       51.380      407.920       63.033      332.276        0.845      873.806
01/15/2021  07:14:00      -69.160       56.294      -23.395      390.058       46.651      186.968   152145.010     2176.362    34957.211        9.885        9.464       89.175      266.383        8.923      331.979        0.348      873.823
01/15/2021  07:15:00      -49.421       66.842      -20.161      376.879       47.427      176.587   142037.911     2249.289    31183.006        9.136        8.774       83.128      254.396        9.365      331.982        0.353      873.829
01/15/2021  07:16:00        0.371       40.980      -17.942      386.725       44.011      186.351   149556.505     1936.983    34726.872        9.407        9.311       40.982      265.183       41.871      332.047        0.462      873.805
01/15/2021  07:17:00       31.399       26.187      -24.130      434.246       42.492      207.878   188569.184     1805.603    43213.339       11.787       11.679       40.886      298.194       53.192      332.151        0.633      873.768
01/15/2021  07:18:00       99.512        4.200      -58.042      564.353       43.076      269.308   318493.968     1855.551    72526.704       20.300       19.644       99.600      388.214       15.192      332.548        1.294      873.749
01/15/2021  07:19:00      149.499        7.328      -57.457      588.711       40.711      284.153   346581.144     1657.391    80742.964       22.726       21.449      149.679      407.189        7.401      332.682        1.516      873.725
01/15/2021  07:20:00      121.849       32.745      -66.098      658.406       47.849      305.411   433498.058     2289.565    93276.025       27.456       26.453      126.172      446.321       12.513      332.661        1.483      873.724
01/15/2021  07:21:00       18.840       17.394      -33.686      426.777       43.931      205.665   182139.024     1929.971    42298.202       11.403       11.318       25.642      293.827      131.306      332.243        0.785      873.739
01/15/2021  07:22:00      129.905       20.404      -61.151      615.204       41.158      294.920   378475.457     1694.003    86977.770       24.399       23.357      131.498      424.230       10.408      332.539        1.281      873.750
01/15/2021  07:23:00      154.048       20.079      -82.175      669.403       39.078      316.963   448100.958     1527.095   100465.832       29.038       27.505      155.351      459.473        8.748      332.687        1.527      873.758
01/15/2021  07:24:00       61.303       49.814      -37.192      473.894       38.726      228.540   224575.082     1499.674    52230.632       14.291       13.915       78.991      326.744       17.110      332.279        0.846      873.741
01/15/2021  07:25:00      150.660       56.274      -69.497      655.080       45.183      314.556   429130.011     2041.515    98945.249       28.029       26.506      160.827      452.494        7.916      332.593        1.371      873.715
01/15/2021  07:26:00      191.428       26.579      -83.135      652.599       28.786      313.639   425885.234      828.632    98369.221       28.456       26.254      193.264      451.635        5.461      332.618        1.411      873.698
01/15/2021  07:27:00      192.266       39.398      -82.529      663.362       33.139      308.820   440049.311     1098.204    95369.718       29.081       26.826      196.261      451.758        5.298      332.707        1.558      873.687
01/15/2021  07:28:00      214.776       18.036      -92.929      683.514       31.630      322.812   467191.555     1000.438   104207.360       31.363       28.620      215.532      468.905        4.733      332.709        1.564      873.669
01/15/2021  07:29:00      202.621       30.100      -82.600      665.724       24.726      316.271   443189.006      611.359   100027.236       29.620       27.191      204.844      458.287        5.005      332.524        1.259      873.659
01/15/2021  07:30:00      110.608       36.411      -46.631      465.068       25.006      220.985   216288.511      625.280    48834.175       14.069       13.287      116.447      319.788        7.542      332.140        0.617      873.667
01/15/2021  07:31:00      138.783       35.696      -73.196      609.840       21.169      289.367   371904.321      448.117    83733.094       24.089       22.804      143.300      419.576        8.573      332.410        1.066      873.680
01/15/2021  07:32:00       95.854        6.933      -64.687      551.326       23.611      263.018   303960.047      557.489    69178.214       19.348       18.685       96.104      380.361       15.664      332.345        0.956      873.696
01/15/2021  07:33:00       43.005       -6.028      -28.672      355.454       25.943      171.665   126347.826      673.028    29469.004        7.957        7.824       43.425      245.691       32.011      332.136        0.605      873.708
01/15/2021  07:34:00      176.263       22.801      -99.003      706.349       13.569      338.387   498928.304      184.131   114505.699       32.738       30.681      177.731      488.605        7.558      332.667        1.494      873.711
01/15/2021  07:35:00       27.327       33.422      -28.779      358.586       29.273      172.830   128583.835      856.885    29870.211        8.097        7.966       43.171      247.640       32.904      332.220        0.746      873.699
01/15/2021  07:36:00      124.404       36.494      -72.412      600.717       31.760      288.051   360861.231     1008.694    82973.129       23.335       22.242      129.646      415.122       10.253      332.561        1.316      873.682
01/15/2021  07:37:00       44.766       20.116      -34.394      399.108       17.173      191.381   159287.415      294.899    36626.561        9.986        9.810       49.078      276.020       31.630      332.268        0.825      873.658
01/15/2021  07:38:00       61.757       16.898      -37.131      444.688       14.498      211.621   197747.759      210.206    44783.527       12.406       12.137       64.027      306.355       22.894      332.246        0.790      873.662
01/15/2021  07:39:00       40.812       14.521      -39.556      373.533       12.348      178.639   139526.644      152.477    31911.723        8.748        8.580       43.319      258.016       35.476      332.224        0.751      873.679
01/15/2021  07:40:00       90.633       20.020      -52.311      478.277       12.702      228.373   228748.609      161.332    52154.048       14.615       14.053       92.818      330.314       12.665      332.432        1.099      873.695
01/15/2021  07:41:00      116.700       18.064      -70.879      585.164        7.894      278.695   342417.057       62.310    77671.129       21.947       21.008      118.090      403.646       11.684      332.596        1.373      873.696
01/15/2021  07:42:00       71.858       12.679      -51.117      481.359       12.027      230.277   231706.545      144.659    53027.423       14.635       14.244       72.968      332.585       20.775      332.429        1.094      873.691
01/15/2021  07:43:00       32.959       15.689      -43.643      409.024       13.869      195.828   167300.763      192.359    38348.468       10.450       10.292       36.503      282.625       59.948      332.318        0.908      873.663
01/15/2021  07:44:00       -0.479       11.322      -29.001      354.690       11.629      170.011   125804.894      135.230    28903.715        7.787        7.742       11.332      245.166      468.034      332.228        0.758      873.616
01/15/2021  07:45:00      108.871       -2.697      -70.157      554.571       16.616      262.528   307548.866      276.108    68920.731       19.669       18.837      108.904      381.129       12.248      332.575        1.337      873.578
01/15/2021  07:46:00       32.605      -26.786      -23.896      280.989        9.406      134.222    78954.926       88.465    18015.625        4.969        4.853       42.197      193.776       21.088      332.328        0.920      873.552
01/15/2021  07:47:00       89.607      -20.218      -64.219      518.320       13.742      247.285   268655.506      188.844    61149.857       17.121       16.500       91.860      357.770       15.169      332.732        1.594      873.531
01/15/2021  07:48:00       38.521       -0.553      -17.695      321.851       10.658      153.199   103588.362      113.601    23469.923        6.446        6.359       38.525      221.688       33.113      332.481        1.174      873.488
01/15/2021  07:49:00       57.465      -13.340      -34.096      420.121        6.692      200.470   176501.859       44.779    40188.224       11.064       10.837       58.993      289.907       24.150      332.640        1.440      873.436
01/15/2021  07:50:00       72.324       -0.987      -36.714      450.570       11.091      214.510   203012.986      123.002    46014.517       12.781       12.458       72.331      310.689       18.450      332.686        1.516      873.376
01/15/2021  07:51:00       39.668       13.727      -21.759      265.482       12.087      126.716    70480.771      146.103    16056.957        4.444        4.334       41.976      183.081       19.023      332.551        1.289      873.320
01/15/2021  07:52:00      125.035       18.121      -58.093      498.079       22.628      237.607   248083.140      512.036    56456.881       16.213       15.253      126.342      343.655        7.399      332.834        1.763      873.282
01/15/2021  07:53:00       51.075       -3.716      -27.848      348.809       22.596      166.821   121667.433      510.562    27829.124        7.667        7.500       51.210      240.728       22.098      332.710        1.553      873.246
01/15/2021  07:54:00       56.917      -25.609      -40.352      335.125       24.307      158.849   112308.571      590.819    25233.015        7.180        6.907       62.413      230.154       13.599      332.750        1.618      873.217
01/15/2021  07:55:00       59.826        9.035      -31.699      358.581       18.370      170.442   128580.397      337.464    29050.401        8.128        7.898       60.504      246.480       16.595      332.690        1.521      873.211
01/15/2021  07:56:00       20.072       -3.803      -25.149      351.272       12.965      166.858   123391.810      168.091    27841.517        7.619        7.570       20.429      241.482      139.725      332.678        1.502      873.252
01/15/2021  07:57:00       68.796      -10.663      -55.446      479.031       20.525      228.874   229470.824      421.276    52383.376       14.504       14.114       69.617      330.606       22.552      332.752        1.627      873.318
01/15/2021  07:58:00       42.583      -11.578      -40.193      417.297       24.093      201.523   174137.121      580.451    40611.325       10.940       10.766       44.128      289.205       42.951      332.650        1.456      873.369
01/15/2021  07:59:00       32.834       24.432      -16.084      353.342       16.749      167.090   124850.656      280.541    27918.926        7.746        7.653       40.926      242.372       35.072      332.442        1.111      873.383
01/15/2021  08:00:00       53.132       24.566      -20.507      301.135       12.020      142.982    90682.149      144.484    20443.816        5.754        5.564       58.536      207.158       12.524      332.385        1.015      873.380
01/15/2021  08:01:00       77.179       27.247      -37.409      397.832        5.664      189.954   158270.219       32.083    36082.547       10.120        9.719       81.847      274.709       11.265      332.659        1.470      873.385
01/15/2021  08:02:00       99.275       18.751      -45.550      515.535        4.519      246.630   265776.077       20.425    60826.167       16.938       16.331      101.030      356.438       12.447      332.854        1.796      873.377
01/15/2021  08:03:00       69.685       25.683      -23.665      395.542       10.322      189.074   156453.692      106.541    35748.789        9.915        9.615       74.267      273.357       13.548      332.680        1.506      873.372
01/15/2021  08:04:00      137.018       34.699      -47.027      510.630       12.017      242.804   260742.939      144.403    58953.830       17.095       15.992      141.344      351.724        6.192      332.765        1.648      873.350
01/15/2021  08:05:00      109.195       33.646      -27.357      291.429       16.857      138.598    84930.646      284.155    19209.267        5.909        5.221      114.261      200.366        3.075      332.615        1.395      873.325
01/15/2021  08:06:00      165.995       31.999      -51.634      503.198       23.925      237.752   253208.213      572.404    56525.956       17.071       15.515      169.051      345.289        4.172      332.768        1.654      873.313
01/15/2021  08:07:00      125.108       42.949      -27.002      271.154       23.770      128.479    73524.414      565.031    16506.771        5.439        4.530      132.275      185.967        1.977      332.523        1.243      873.307
01/15/2021  08:08:00      120.486       33.359      -26.923      331.074       23.516      157.826   109610.219      552.994    24909.039        7.568        6.754      125.019      227.905        3.323      332.571        1.324      873.305
01/15/2021  08:09:00       92.064       10.633      -31.466      312.900       37.854      150.640    97906.248     1432.895    22692.529        6.578        6.102       92.676      216.305        5.448      332.587        1.349      873.289
01/15/2021  08:10:00      112.596      -20.209      -56.777      454.167       41.080      215.890   206267.803     1687.563    46608.605       13.538       12.728      114.395      312.404        7.458      332.859        1.803      873.247
01/15/2021  08:11:00       62.550      -25.113      -40.690      348.933       25.541      166.762   121754.122      652.356    27809.644        7.818        7.511       67.403      240.193       12.699      332.833        1.756      873.206
01/15/2021  08:12:00       66.666      -20.984      -49.164      408.255       26.890      192.749   166672.012      723.051    37152.135       10.588       10.227       69.891      279.940       16.043      332.847        1.781      873.186
01/15/2021  08:13:00        1.394      -20.180       -2.601      281.255       15.647      135.106    79104.449      244.844    18253.678        4.899        4.880       20.228      193.721       91.713      332.759        1.633      873.177
01/15/2021  08:14:00       19.490        4.685      -21.195      300.261       19.981      145.007    90156.642      399.221    21026.973        5.619        5.579       20.046      207.440      107.091      332.742        1.604      873.169
01/15/2021  08:15:00       23.035      -25.994      -26.280      332.693       24.820      157.141   110684.669      616.048    24693.261        6.892        6.800       34.732      227.921       43.064      332.768        1.649      873.161
01/15/2021  08:16:00       20.933       -8.610      -18.369      305.497       20.343      147.350    93328.225      413.823    21712.151        5.813        5.773       22.635      211.405       87.232      332.790        1.685      873.144
01/15/2021  08:17:00       95.133       -3.532      -34.941      448.553       34.028      214.799   201199.899     1157.885    46138.401       12.934       12.425       95.199      309.913       10.598      333.069        2.149      873.138
01/15/2021  08:18:00       59.009       20.598      -22.670      269.727       49.026      132.582    72752.560     2403.578    17578.101        4.856        4.637       62.501      186.661        8.919      332.717        1.562      873.139
01/15/2021  08:19:00       29.815      -44.683       -7.135      111.353       38.991       62.059    12399.421     1520.310     3851.337        1.035        0.889       53.717       76.321        2.019      332.823        1.737      873.152
01/15/2021  08:20:00      133.499        7.762      -46.846      429.275       47.996      204.393   184276.698     2303.637    41776.672       12.417       11.418      133.724      294.806        4.860      332.849        1.785      873.166
01/15/2021  08:21:00       48.434        7.762      -11.541      273.884       34.642      132.142    75012.514     1200.058    17461.395        4.809        4.684       49.052      188.121       14.709      332.609        1.385      873.175
01/15/2021  08:22:00      140.692       -3.013      -38.098      467.094       29.390      220.404   218176.927      863.770    48577.878       14.438       13.381      140.725      320.044        5.172      332.755        1.632      873.180
01/15/2021  08:23:00      127.371       -0.349      -24.879      367.812       26.955      175.531   135285.895      726.577    30811.276        9.180        8.341      127.372      252.952        3.944      332.637        1.433      873.191
01/15/2021  08:24:00      129.553       -7.250      -36.543      433.441       37.952      204.972   187871.446     1440.335    42013.365       12.470       11.566      129.756      296.653        5.227      332.724        1.580      873.215
01/15/2021  08:25:00      180.097       -6.245      -53.315      507.393       30.303      238.990   257447.486      918.293    57116.213       17.533       15.774      180.206      347.202        3.712      332.839        1.771      873.225
01/15/2021  08:26:00      184.178       16.743      -63.120      535.600       32.484      257.938   286867.046     1055.240    66532.134       19.625       17.723      184.938      371.264        4.030      332.864        1.813      873.212
01/15/2021  08:27:00      163.505       44.557      -47.004      498.666       42.927      237.467   248668.057     1842.747    56390.701       16.885       15.345      169.467      342.863        4.093      332.739        1.605      873.175
01/15/2021  08:28:00       93.841        1.679      -33.960      346.973       39.314      168.917   120390.223     1545.618    28533.106        8.018        7.523       93.856      239.967        6.537      332.675        1.496      873.143
01/15/2021  08:29:00      196.738      -10.963      -61.087      527.735       27.851      251.071   278503.845      775.679    63036.629       19.236       17.116      197.043      362.866        3.391      332.881        1.842      873.120
01/15/2021  08:30:00      255.026       -8.012      -74.233      625.995       30.181      299.611   391869.586      910.912    89767.042       27.648       24.127      255.152      432.243        2.870      332.984        2.015      873.105
01/15/2021  08:31:00      150.354       -6.620      -33.140      447.160       38.473      214.435   199952.387     1480.142    45982.159       13.553       12.371      150.499      307.825        4.184      332.742        1.609      873.115
01/15/2021  08:32:00      103.882       19.480      -21.608      325.643       34.490      156.814   106043.122     1189.582    24590.736        7.170        6.591      105.693      224.727        4.521      332.697        1.532      873.110
01/15/2021  08:33:00      144.408       40.229      -29.355      331.447       25.179      160.094   109856.897      633.978    25630.223        7.970        6.806      149.906      229.493        2.344      332.577        1.332      873.114
01/15/2021  08:34:00      287.769       33.660     -106.749      682.964       35.679      321.267   466440.408     1273.022   103212.509       33.302       28.546      289.731      467.748        2.606      333.259        2.473      873.128
01/15/2021  08:35:00      185.233       45.750      -57.794      522.026       35.108      247.949   272511.095     1232.592    61478.588       18.742       16.761      190.799      359.054        3.541      332.892        1.859      873.153
01/15/2021  08:36:00       93.781       49.135      -31.605      349.162       18.142      166.573   121914.187      329.118    27746.507        8.107        7.499      105.873      240.648        5.166      332.766        1.646      873.163
01/15/2021  08:37:00       82.917       56.454      -36.326      415.613       30.812      198.679   172733.840      949.377    39473.519       11.223       10.658      100.311      286.580        8.162      332.839        1.767      873.150
01/15/2021  08:38:00       94.218       38.989      -26.475      350.702       19.644      167.738   122992.157      385.898    28136.166        8.128        7.576      101.967      242.112        5.638      332.831        1.754      873.126
01/15/2021  08:39:00       79.168       38.788      -25.929      252.591       26.086      122.300    63802.446      680.495    14957.345        4.393        3.972       88.160      174.632        3.924      332.924        1.905      873.095
01/15/2021  08:40:00       69.109       46.990      -11.094       37.534       27.548       19.178     1408.796      758.903      367.806        0.482        0.127       83.571       22.005        0.069      332.729        1.581      873.093
01/15/2021  08:41:00       92.499       56.514      -17.733      272.760       25.334      128.332    74398.133      641.815    16469.230        5.177        4.575      108.397      186.168        2.950      332.795        1.693      873.104
01/15/2021  08:42:00      109.600       54.389      -22.874      189.935       19.490       91.338    36075.240      379.852     8342.652        3.014        2.240      122.353      130.581        1.139      332.664        1.475      873.119
01/15/2021  08:43:00      168.656       52.469      -46.630      418.050       22.341      195.993   174765.538      499.120    38413.395       12.348       10.684      176.629      285.487        2.612      332.958        1.964      873.116
01/15/2021  08:44:00      139.194       51.481      -42.424      307.890       26.572      147.872    94796.240      706.075    21866.211        7.057        5.868      148.409      211.754        2.036      332.900        1.867      873.091
01/15/2021  08:45:00      118.913       29.530      -26.322      252.539       49.195      123.758    63775.885     2420.187    15316.092        4.859        4.076      122.524      174.791        2.035      332.940        1.932      873.061
01/15/2021  08:46:00      111.777        1.069      -30.745      357.993       39.905      168.653   128159.168     1592.428    28443.878        8.579        7.910      111.782      244.409        4.781      333.063        2.136      873.042
01/15/2021  08:47:00      136.317       37.017      -12.372       44.442       24.216       23.228     1975.099      586.411      539.535        1.160        0.155      141.253       22.953        0.026      332.762        1.636      873.049
01/15/2021  08:48:00      149.821       42.528      -30.761      274.968       32.884      125.740    75607.396     1081.374    15810.472        5.883        4.625      155.740      184.431        1.402      332.952        1.954      873.062
01/15/2021  08:49:00      117.289       34.751      -24.684      156.608       25.519       73.814    24526.180      651.207     5448.480        2.309        1.531      122.329      104.799        0.734      332.954        1.954      873.080
01/15/2021  08:50:00      102.990       10.833      -31.185      234.819       52.810      109.949    55140.038     2788.855    12088.881        4.084        3.501      103.559      156.765        2.292      333.201        2.363      873.113
01/15/2021  08:51:00       87.433       14.379      -29.886      258.129       30.462      125.470    66630.408      927.907    15742.790        4.601        4.165       88.607      178.347        4.051      333.088        2.174      873.152
01/15/2021  08:52:00       73.035       29.084       -6.666       57.216       27.414       26.935     3273.705      751.550      725.487        0.549        0.238       78.613       34.741        0.195      332.979        1.993      873.184
01/15/2021  08:53:00       43.131       75.830      -14.823      173.292       43.543       83.356    30030.261     1895.989     6948.288        2.334        1.944       87.238      118.203        1.836      333.075        2.154      873.227
01/15/2021  08:54:00        6.977      110.590      -14.050       51.134       23.849       28.416     2614.715      568.773      807.445        0.823        0.200      110.810       32.350        0.085      333.050        2.112      873.271
01/15/2021  08:55:00       -7.868      117.941      -16.400       40.361       32.582       23.628     1629.009     1061.554      558.300        0.874        0.162      118.203       22.908        0.038      333.071        2.146      873.278
01/15/2021  08:56:00      -12.590      109.721      -14.332       50.437       41.613       25.254     2543.843     1731.618      637.764        0.866        0.246      110.441       22.789        0.043      333.199        2.358      873.249
01/15/2021  08:57:00       72.924       37.229       -8.504      189.990       37.724       88.581    36096.376     1423.070     7846.535        2.606        2.268       81.877      124.537        2.313      333.379        2.654      873.213
01/15/2021  08:58:00       29.620       36.569      -12.058       39.909       22.931       24.863     1592.709      525.816      618.170        0.255        0.137       47.060       27.438        0.340      333.431        2.741      873.214
01/15/2021  08:59:00        1.264       16.067       -6.889       33.670       20.561       20.656     1133.692      422.758      426.665        0.114        0.099       16.117       20.443        1.609      333.470        2.805      873.210
01/15/2021  09:00:00      -24.593       65.836       -3.190       33.892       18.774       16.892     1148.643      352.463      285.350        0.337        0.089       70.279       12.679        0.033      333.360        2.624      873.199
01/15/2021  09:01:00      -58.562       35.708      -14.672       43.477       24.758       21.905     1890.279      612.968      479.816        0.395        0.149       68.590       13.612        0.039      333.355        2.617      873.210
01/15/2021  09:02:00      -67.329       27.070      -16.097       50.525       43.864       22.466     2552.788     1924.077      504.718        0.525        0.249       72.567       17.081        0.055      333.354        2.615      873.238
01/15/2021  09:03:00       -7.178       20.942       -2.276       39.550       32.430       25.656     1564.214     1051.695      658.240        0.188        0.164       22.138       21.373        0.932      333.360        2.625      873.280
01/15/2021  09:04:00      -56.728       42.231       -8.354       38.351       27.690       24.033     1470.787      766.720      577.591        0.394        0.141       70.721       17.568        0.062      333.367        2.637      873.299
01/15/2021  09:05:00      -29.755       46.438       -7.145       23.750       16.946       16.796      564.086      287.176      282.104        0.211        0.057       55.153       11.757        0.045      333.374        2.648      873.291
01/15/2021  09:06:00      -49.505       19.507       -7.674       46.863       43.561       30.100     2196.171     1897.562      906.017        0.394        0.250       53.210       13.858        0.068      333.489        2.837      873.278
01/15/2021  09:07:00      -30.654       27.744        0.319       35.613       17.220       21.839     1268.294      296.519      476.956        0.188        0.102       41.345        9.429        0.052      333.600        3.021      873.278
01/15/2021  09:08:00       -1.811       30.237       -3.566       36.902       24.486       21.247     1361.771      599.549      451.426        0.167        0.121       30.291       20.595        0.462      333.763        3.292      873.271
01/15/2021  09:09:00      -10.578       83.510       -5.051       30.611       48.227       19.723      937.034     2325.850      389.004        0.538        0.183       84.178       24.897        0.087      333.842        3.422      873.238
01/15/2021  09:10:00       -1.446      136.752      -26.112      197.932       44.771       95.428    39177.049     2004.460     9106.512        3.483        2.514      136.759      135.754        0.985      334.015        3.712      873.214
01/15/2021  09:11:00       18.943       81.088      -10.721       51.382       37.386       19.768     2640.139     1397.683      390.789        0.574        0.221       83.272       23.370        0.079      334.023        3.723      873.202
01/15/2021  09:12:00       56.872       44.939      -15.593       42.661       19.991       24.770     1819.980      399.635      613.543        0.416        0.142       72.484       27.766        0.147      334.114        3.872      873.206
01/15/2021  09:13:00       66.610       58.698      -18.587       55.454       27.588       27.739     3075.109      761.114      769.444        0.642        0.230       88.783       31.531        0.126      334.175        3.974      873.184
01/15/2021  09:14:00       94.701       39.885      -21.850       43.767       30.595       27.121     1915.585      936.031      735.554        0.731        0.179      102.758       19.769        0.037      334.231        4.067      873.146
01/15/2021  09:15:00       29.957        6.597       -8.997       44.917       32.526       20.537     2017.493     1057.957      421.787        0.226        0.175       30.675       23.399        0.582      334.354        4.272      873.108
01/15/2021  09:16:00       15.332       20.776      -13.463       38.887       23.953       20.998     1512.237      573.725      440.935        0.169        0.126       25.821       23.713        0.843      334.471        4.464      873.085
01/15/2021  09:17:00       45.174       20.053       -4.998       50.098       41.296       22.308     2509.848     1705.386      497.637        0.359        0.236       49.425       22.627        0.210      334.472        4.467      873.058
01/15/2021  09:18:00       95.113       47.422      -21.973       47.525       29.115       21.994     2258.617      847.661      483.716        0.768        0.179      106.279       26.525        0.062      334.382        4.320      873.010
01/15/2021  09:19:00      129.711       63.544      -29.439       77.706       31.953       28.747     6038.249     1021.008      826.409        1.481        0.394      144.440       29.810        0.043      334.438        4.410      872.980
01/15/2021  09:20:00      108.662        4.104      -18.007       65.239       62.754       33.269     4256.113     3938.055     1106.835        1.072        0.465      108.740       30.236        0.077      334.465        4.455      872.975
01/15/2021  09:21:00       85.465       -4.691       -6.991       72.901       67.234       43.748     5314.525     4520.350     1913.889        0.956        0.587       85.594       40.124        0.220      334.560        4.612      872.985
01/15/2021  09:22:00      105.247       46.062      -14.758       50.802       46.883       27.528     2580.840     2198.001      757.774        0.948        0.277      114.886       27.169        0.056      334.519        4.545      873.021
01/15/2021  09:23:00       68.046       13.177        1.810       41.447       49.958       28.114     1717.846     2495.811      790.373        0.490        0.250       69.310       24.638        0.126      334.570        4.630      873.059
01/15/2021  09:24:00       55.712        6.300      -11.779       54.497       38.213       27.440     2969.913     1460.223      752.960        0.423        0.259       56.067       27.783        0.246      334.717        4.873      873.109
01/15/2021  09:25:00       83.075       32.424      -13.500       72.888       47.926       26.904     5312.628     2296.877      723.815        0.823        0.417       89.178       28.841        0.105      334.634        4.737      873.124
01/15/2021  09:26:00       54.730       41.747       -4.680       54.128       30.211       27.910     2929.812      912.710      778.964        0.469        0.231       68.834       27.806        0.163      334.744        4.919      873.099
01/15/2021  09:27:00       86.720       30.815      -11.768       47.427       42.555       23.690     2249.337     1810.927      561.220        0.661        0.231       92.032       21.901        0.057      334.828        5.058      873.100
01/15/2021  09:28:00       73.665       63.134       -9.503       60.928       30.604       30.525     3712.239      936.631      931.772        0.754        0.279       97.018       36.302        0.140      334.686        4.822      873.097
01/15/2021  09:29:00       -1.444        7.886       -5.673       51.737       47.159       24.062     2676.746     2223.952      578.984        0.279        0.274        8.017       27.138       11.458      334.833        5.067      873.071
01/15/2021  09:30:00       47.622      -54.081       -8.995       61.271       50.350       42.430     3754.178     2535.131     1800.271        0.668        0.404       72.060       41.447        0.331      335.083        5.481      873.075
01/15/2021  09:31:00       85.105      -54.752      -22.823       39.053       29.114       23.207     1525.123      847.653      538.585        0.684        0.146      101.196       22.951        0.051      335.024        5.383      873.096
01/15/2021  09:32:00       67.949       22.015       -6.993       45.664       53.049       26.478     2085.230     2814.154      701.080        0.537        0.280       71.426       21.275        0.089      335.054        5.433      873.100
01/15/2021  09:33:00       70.356       33.947      -13.092       39.672       39.065       21.950     1573.854     1526.067      481.815        0.493        0.179       78.118       24.463        0.098      335.073        5.466      873.092
01/15/2021  09:34:00       33.297       35.740       -6.698       35.045       25.843       21.429     1228.144      667.836      459.198        0.239        0.118       48.847       16.938        0.120      335.211        5.694      873.100
01/15/2021  09:35:00      -10.147       13.572        5.267       25.549       17.141       13.796      652.729      293.802      190.335        0.073        0.057       16.946       10.263        0.367      335.441        6.078      873.096
01/15/2021  09:36:00      -15.490       -2.762       -5.125       19.046       13.460       10.235      362.756      181.185      104.748        0.046        0.032       15.734        9.788        0.387      335.523        6.212      873.074
01/15/2021  09:37:00       36.944      -19.425       -5.067       35.034       19.271       23.351     1227.374      371.387      545.285        0.196        0.107       41.740       18.972        0.207      335.547        6.253      873.059
01/15/2021  09:38:00       42.498      -44.398      -12.046       46.756       33.151       24.336     2186.106     1098.979      592.218        0.390        0.194       61.459       25.457        0.172      335.723        6.548      873.038
01/15/2021  09:39:00      119.968      -27.333      -31.361       68.623       47.159       33.232     4709.095     2223.970     1104.349        1.208        0.402      123.043       38.884        0.100      335.557        6.269      873.020
01/15/2021  09:40:00       93.136      -47.489      -31.963       58.659       54.506       36.967     3440.899     2970.891     1366.591        0.986        0.389      104.545       37.067        0.126      335.647        6.419      873.040
01/15/2021  09:41:00       86.593      -73.994      -31.588       53.932       35.794       28.540     2908.704     1281.239      814.556        0.949        0.250      113.901       32.625        0.082      335.540        6.242      873.059
01/15/2021  09:42:00       89.699      -72.519      -29.686       49.278       38.765       28.021     2428.344     1502.764      785.168        0.945        0.236      115.346       30.684        0.071      335.644        6.415      873.062
01/15/2021  09:43:00       71.723      -82.541      -28.898       50.018       38.494       24.584     2501.772     1481.819      604.391        0.869        0.229      109.349       29.595        0.073      335.525        6.217      873.070
01/15/2021  09:44:00       47.566      -33.913      -22.960       49.520       44.554       20.491     2452.212     1985.045      419.888        0.440        0.243       58.417       21.705        0.138      335.540        6.240      873.071
01/15/2021  09:45:00      -18.416      -17.616      -18.097       38.186       36.810       19.837     1458.149     1354.961      393.497        0.209        0.160       25.485       17.135        0.452      335.607        6.352      873.051
01/15/2021  09:46:00       45.385        2.978      -24.084       46.300       69.383       33.573     2143.709     4814.031     1127.126        0.537        0.404       45.483       28.150        0.383      335.554        6.265      873.040
01/15/2021  09:47:00       45.426        0.598       -3.918       64.524       65.714       45.231     4163.389     4318.356     2045.843        0.630        0.526       45.429       37.012        0.664      335.486        6.151      873.101
01/15/2021  09:48:00      103.605      -12.586      -30.013       75.110       61.992       33.165     5641.543     3843.059     1099.922        1.119        0.529      104.366       39.657        0.144      335.422        6.045      873.151
01/15/2021  09:49:00       59.314       11.135      -24.758       54.638       59.350       36.304     2985.298     3522.482     1317.981        0.604        0.391       60.350       26.389        0.191      335.689        6.491      873.117
01/15/2021  09:50:00       90.792        8.631      -25.145       69.658       49.483       42.533     4852.286     2448.547     1809.026        0.903        0.455       91.201       43.067        0.223      335.666        6.451      873.048
01/15/2021  09:51:00      102.186      -11.093      -33.559       62.345       57.875       38.579     3886.941     3349.532     1488.331        1.021        0.436      102.787       34.012        0.109      335.697        6.504      873.023
01/15/2021  09:52:00      158.023      -55.135      -37.965       48.337       41.093       32.157     2336.417     1688.669     1034.066        1.725        0.253      167.366       26.181        0.024      335.261        5.777      873.029
01/15/2021  09:53:00      112.100      -13.441      -19.955       69.534       57.339       34.613     4835.025     3287.733     1198.062        1.123        0.466      112.903       33.693        0.089      335.478        6.137      873.008
01/15/2021  09:54:00       79.836       16.463        2.409       66.817       43.738       33.101     4464.508     1913.019     1095.683        0.706        0.374       81.516       32.342        0.157      335.565        6.284      872.986
01/15/2021  09:55:00       42.667       30.790        2.302       48.700       45.871       35.204     2371.723     2104.181     1239.298        0.424        0.286       52.617       31.224        0.352      335.846        6.752      873.000
01/15/2021  09:56:00       30.879       -0.031       -4.287       51.984       52.254       36.655     2702.387     2730.495     1343.553        0.387        0.339       30.879       18.276        0.350      335.774        6.631      873.015
01/15/2021  09:57:00       78.054       -9.011      -24.843       66.293       52.743       38.246     4394.759     2781.856     1462.734        0.771        0.432       78.572       20.905        0.071      335.603        6.347      872.998
01/15/2021  09:58:00       55.019      -67.247      -31.602       60.726       60.106       40.102     3687.704     3612.765     1608.196        0.873        0.445       86.886       24.594        0.080      335.698        6.506      872.992
01/15/2021  09:59:00       84.253      -32.685      -20.482       50.885       43.591       23.932     2589.242     1900.140      572.739        0.682        0.253       90.371       25.889        0.082      335.486        6.152      872.990
01/15/2021  10:00:00       89.428       -9.609       -9.624       68.887       42.031       36.285     4745.416     1766.568     1316.631        0.800        0.391       89.943       35.125        0.153      335.684        6.481      872.977
01/15/2021  10:01:00       69.041       28.956      -16.443       70.834       82.023       48.204     5017.501     6727.854     2323.643        0.997        0.703       74.867       38.845        0.269      335.729        6.556      872.962
01/15/2021  10:02:00      114.340      -29.074      -42.766       67.166       45.190       35.630     4511.259     2042.141     1269.531        1.178        0.391      117.978       27.090        0.053      335.671        6.459      872.954
01/15/2021  10:03:00       79.748      -17.043      -22.209       64.541       37.954       30.700     4165.521     1440.494      942.492        0.684        0.327       81.549       37.949        0.217      335.476        6.135      872.975
01/15/2021  10:04:00       56.258       -2.342       -6.075       53.376       41.301       25.372     2849.024     1705.790      643.741        0.420        0.260       56.306       21.044        0.140      335.794        6.666      872.970
01/15/2021  10:05:00      106.011       49.036      -25.510       77.811       69.709       34.259     6054.571     4859.295     1173.685        1.319        0.604      116.803       32.593        0.078      335.730        6.557      872.958
01/15/2021  10:06:00       34.032       13.337      -11.031       52.083       71.506       39.514     2712.616     5113.064     1561.330        0.542        0.469       36.552       29.447        0.649      335.996        7.003      872.940
01/15/2021  10:07:00       68.180      -26.522      -10.787       59.749       50.606       45.705     3569.974     2560.965     2088.950        0.684        0.411       73.157       42.275        0.334      335.920        6.876      872.946
01/15/2021  10:08:00      101.978      -19.330      -28.921       70.520       45.249       41.397     4973.132     2047.470     1713.731        1.017        0.437      103.794       42.240        0.166      335.746        6.585      872.945
01/15/2021  10:09:00       93.997        6.210      -21.280       63.949       52.699       37.627     4089.433     2777.143     1415.765        0.880        0.414       94.202       34.529        0.134      335.653        6.431      872.920
01/15/2021  10:10:00       63.013      -16.833      -11.132       42.799       38.170       29.110     1831.763     1456.931      847.418        0.426        0.207       65.223       26.483        0.165      335.691        6.494      872.890
01/15/2021  10:11:00       86.696      -23.169      -19.796       44.306       26.608       22.666     1963.064      707.994      513.746        0.581        0.159       89.739       20.573        0.053      335.513        6.196      872.867
01/15/2021  10:12:00       35.729      -50.394       -8.283       31.119       31.279       26.512      968.386      978.405      702.912        0.327        0.132       61.775       25.120        0.165      335.786        6.652      872.874
01/15/2021  10:13:00       -0.091        1.718      -15.468       36.925       25.200       21.683     1363.471      635.052      470.133        0.135        0.123        1.720       19.128      123.678      335.736        6.567      872.876
01/15/2021  10:14:00       61.086      -39.112      -24.829       43.039       59.565       28.121     1852.389     3547.988      790.807        0.603        0.310       72.535       15.777        0.047      335.988        6.989      872.871
01/15/2021  10:15:00       59.374       -3.723      -28.229       53.760       49.154       31.515     2890.122     2416.070      993.169        0.532        0.315       59.491       31.084        0.273      336.022        7.044      872.869
01/15/2021  10:16:00       84.022      -15.891      -33.579       51.199       49.360       28.197     2621.346     2436.365      795.062        0.714        0.293       85.511       25.122        0.086      335.870        6.792      872.875
01/15/2021  10:17:00      102.796      -46.066      -44.619       44.383       49.122       33.095     1969.877     2412.925     1095.267        1.008        0.274      112.646       29.659        0.069      335.909        6.857      872.854
01/15/2021  10:18:00       93.180      -49.011      -26.887       55.141       44.496       28.585     3040.529     1979.856      817.078        0.882        0.292      105.284       27.250        0.067      335.994        6.999      872.846
01/15/2021  10:19:00      101.166       15.678      -15.181       49.789       49.192       30.249     2478.975     2419.837      915.009        0.826        0.291      102.373       33.745        0.109      335.820        6.709      872.852
01/15/2021  10:20:00       42.604        7.943      -16.186       37.846       53.526       25.592     1432.293     2864.991      654.928        0.355        0.248       43.338       16.719        0.149      336.048        7.089      872.806
01/15/2021  10:21:00       82.265       -6.072      -12.696       40.067       54.492       24.764     1605.366     2969.424      613.265        0.608        0.259       82.489       24.087        0.085      336.070        7.125      872.743
01/15/2021  10:22:00       87.073      -33.828      -24.660       55.204       48.152       35.208     3047.429     2318.627     1239.617        0.797        0.330       93.413       25.808        0.076      336.100        7.176      872.719
01/15/2021  10:23:00       68.680      -14.471      -21.982       48.674       55.430       37.787     2369.205     3072.469     1427.844        0.614        0.343       70.188       30.771        0.192      336.349        7.590      872.704
01/15/2021  10:24:00       67.309      -40.634      -18.855       45.238       43.688       28.546     2046.518     1908.607      814.887        0.565        0.239       78.623       21.721        0.076      336.276        7.469      872.682
01/15/2021  10:25:00       73.422      -36.548      -18.741       53.711       56.161       31.724     2884.899     3154.035     1006.381        0.706        0.352       82.015       30.173        0.135      336.426        7.719      872.647
01/15/2021  10:26:00      148.383        5.182      -25.224       57.674       58.973       32.401     3326.271     3477.836     1049.812        1.527        0.393      148.474       26.057        0.031      336.044        7.081      872.596
01/15/2021  10:27:00       84.281       60.893      -13.967       53.562       34.980       22.014     2868.878     1223.605      484.610        0.779        0.229      103.977       19.506        0.035      335.966        6.952      872.576
01/15/2021  10:28:00       -8.065       28.592       10.653       33.769       21.063       20.382     1140.377      443.635      415.427        0.150        0.100       29.708       15.407        0.269      336.175        7.300      872.580
01/15/2021  10:29:00      -30.187        2.376      -16.762       14.893       15.771       15.261      221.791      248.725      232.885        0.095        0.035       30.280        6.318        0.044      336.177        7.304      872.576
01/15/2021  10:30:00        9.077      -39.057      -15.837       45.813       26.837       17.090     2098.874      720.217      292.064        0.248        0.156       40.098        9.242        0.053      336.323        7.547      872.553
01/15/2021  10:31:00      -14.934       -6.792       -9.959       28.701       31.650       21.297      823.745     1001.747      453.549        0.132        0.114       16.406       13.910        0.719      336.490        7.827      872.554
01/15/2021  10:32:00      -71.531      -19.667       -3.673       36.121       25.010       23.577     1304.712      625.497      555.868        0.400        0.124       74.185       19.716        0.071      336.176        7.301      872.562
01/15/2021  10:33:00      -37.939      -15.264       -6.439       35.024       20.392       13.943     1226.697      415.847      194.401        0.178        0.092       40.895        6.639        0.026      336.113        7.197      872.586
01/15/2021  10:34:00       53.671      -24.106      -20.557       45.610       41.068       23.422     2080.310     1686.574      548.604        0.410        0.216       58.836       21.321        0.131      336.561        7.945      872.599
01/15/2021  10:35:00       98.648      -15.510      -20.620       49.291       31.488       25.506     2429.557      991.492      650.568        0.723        0.204       99.860       25.707        0.066      336.243        7.415      872.597
01/15/2021  10:36:00      106.533       -9.608      -16.207       40.447       31.053       29.997     1635.996      964.268      899.844        0.760        0.175      106.966       21.418        0.040      336.144        7.249      872.586
01/15/2021  10:37:00       11.303       18.958      -12.195       38.132       32.846       19.647     1454.033     1078.885      386.008        0.178        0.146       22.072       18.319        0.689      336.556        7.939      872.539
01/15/2021  10:38:00       66.781       31.562      -23.925       37.577       40.868       21.405     1412.009     1670.201      458.156        0.478        0.177       73.864       16.098        0.047      336.528        7.891      872.507
01/15/2021  10:39:00      -19.277       36.090       -8.479       31.046       26.131       15.676      963.836      682.855      245.746        0.182        0.095       40.916       13.133        0.103      336.393        7.664      872.523
01/15/2021  10:40:00      -48.281      -20.254       -7.687       20.374       32.094       20.962      415.100     1030.009      439.404        0.234        0.094       52.357       13.458        0.066      336.575        7.969      872.545
01/15/2021  10:41:00        2.818      -54.415       -7.411       34.790       47.040       26.398     1210.321     2212.794      696.873        0.357        0.206       54.488       14.493        0.071      336.921        8.548      872.531
01/15/2021  10:42:00       77.495      -48.250      -22.605       39.352       44.936       22.420     1548.608     2019.277      502.671        0.646        0.204       91.289       22.029        0.058      336.362        7.613      872.501
01/15/2021  10:43:00       -6.186        8.274        3.092       19.956       34.873       18.297      398.260     1216.095      334.773        0.103        0.097       10.331       13.282        1.653      336.975        8.639      872.466
01/15/2021  10:44:00       16.817       22.985       -9.912       22.746       20.148       24.329      517.388      405.934      591.895        0.121        0.076       28.481       19.881        0.487      336.652        8.099      872.458
01/15/2021  10:45:00      -12.318       24.667       -0.437       19.620       21.620       14.945      384.959      467.422      223.364        0.092        0.054       27.571       10.376        0.142      336.418        7.707      872.461
01/15/2021  10:46:00       59.554      -51.560      -16.254       43.274       30.601       19.876     1872.681      936.391      395.067        0.484        0.160       78.772       24.606        0.098      336.616        8.038      872.446
01/15/2021  10:47:00       45.299      -80.262      -18.942       37.028       30.669       21.227     1371.036      940.588      450.594        0.581        0.138       92.163       20.889        0.051      336.490        7.826      872.440
01/15/2021  10:48:00       83.431      -64.704      -24.854       55.771       50.662       37.763     3110.388     2566.684     1426.024        0.943        0.355      105.581       30.759        0.085      336.989        8.660      872.412
01/15/2021  10:49:00       87.621      -44.237      -28.318       39.389       31.857       24.858     1551.513     1014.845      617.926        0.681        0.159       98.155       19.240        0.038      336.852        8.431      872.405
01/15/2021  10:50:00       22.257       23.923        1.061       34.445       37.122       19.467     1186.448     1378.061      378.980        0.201        0.147       32.675        6.126        0.035      336.942        8.581      872.407
01/15/2021  10:51:00       62.264        2.511      -18.794       34.491       36.600       19.991     1189.630     1339.572      399.659        0.358        0.146       62.314       17.631        0.080      336.937        8.574      872.385
01/15/2021  10:52:00       20.897      -44.054      -12.447       33.350       42.006       24.069     1112.236     1764.497      579.306        0.299        0.173       48.759       15.481        0.101      337.245        9.089      872.362
01/15/2021  10:53:00       16.510       -9.757       -0.404       38.194       35.040       22.286     1458.774     1227.822      496.647        0.177        0.159       19.178       13.705        0.511      337.233        9.069      872.355
01/15/2021  10:54:00       25.595       16.469       -3.991       32.043       45.245       18.237     1026.756     2047.113      332.589        0.217        0.170       30.436       13.590        0.199      337.318        9.212      872.353
01/15/2021  10:55:00       49.786      -27.357      -10.261       48.971       57.449       26.016     2398.154     3300.351      676.824        0.485        0.319       56.807       26.190        0.213      337.107        8.859      872.326
01/15/2021  10:56:00       65.248      -26.886      -15.380       54.534       48.045       33.061     2973.940     2308.333     1093.021        0.579        0.319       70.570       28.764        0.166      337.313        9.202      872.295
01/15/2021  10:57:00       70.771       30.648      -10.057       54.820       69.845       35.647     3005.238     4878.353     1270.713        0.760        0.458       77.122       29.724        0.149      337.222        9.050      872.277
01/15/2021  10:58:00       65.807      -27.673      -31.938       58.842       55.957       27.334     3462.324     3131.186      747.132        0.673        0.367       71.389       21.368        0.090      337.335        9.240      872.251
01/15/2021  10:59:00       87.808      -38.143      -23.422       56.473       60.693       32.143     3189.185     3683.662     1033.191        0.881        0.395       95.735       26.081        0.074      337.225        9.056      872.198
01/15/2021  11:00:00      114.587       45.588      -25.962       64.625       71.381       36.641     4176.330     5095.256     1342.560        1.325        0.531      123.322       31.657        0.066      337.074        8.803      872.139
01/15/2021  11:01:00       61.786       14.071       -3.806       85.009       48.443       30.849     7226.449     2346.678      951.689        0.728        0.526       63.368       35.434        0.313      337.217        9.042      872.083
01/15/2021  11:02:00       69.938      -33.290      -16.555       24.957       38.050       19.033      622.834     1447.790      362.247        0.435        0.122       77.456       17.053        0.048      337.056        8.772      872.055
01/15/2021  11:03:00       32.761        2.901        4.184       45.431       49.684       33.813     2063.978     2468.516     1143.338        0.339        0.284       32.890       24.044        0.534      337.509        9.531      872.043
01/15/2021  11:04:00      -57.872      -57.740      -20.488       61.941       47.243       30.026     3836.749     2231.937      901.533        0.704        0.349       81.750       25.238        0.095      337.349        9.262      872.049
01/15/2021  11:05:00      -84.706      -65.280       -1.373       37.786       46.644       27.979     1427.773     2175.668      782.850        0.791        0.219      106.942       21.186        0.039      337.045        8.752      872.015
01/15/2021  11:06:00       15.640      -70.101      -25.655       72.526       43.339       33.887     5260.008     1878.303     1148.320        0.705        0.414       71.824       30.166        0.176      337.468        9.464      871.964
01/15/2021  11:07:00      -12.263      -67.157      -28.673       39.885       47.741       24.071     1590.800     2279.167      579.409        0.497        0.222       68.268       26.772        0.154      337.358        9.276      871.938
01/15/2021  11:08:00       57.481      -95.491      -21.505       43.575       68.146       29.011     1898.802     4643.832      841.666        1.013        0.369      111.457       26.504        0.057      337.434        9.406      871.932
01/15/2021  11:09:00       58.341      -54.200       -7.845       29.182       37.602       21.517      851.570     1413.912      462.965        0.457        0.136       79.633       10.825        0.018      337.226        9.057      871.935
01/15/2021  11:10:00       43.683      -49.944      -12.417       41.866       35.858       24.740     1752.800     1285.814      612.053        0.410        0.183       66.352       16.071        0.059      337.316        9.208      871.921
01/15/2021  11:11:00      110.013     -131.326      -31.953       71.107       63.190       36.353     5056.275     3992.995     1321.563        2.037        0.519      171.317       34.379        0.040      337.149        8.926      871.865
01/15/2021  11:12:00      100.550     -135.003      -27.843       49.991       76.585       30.131     2499.119     5865.256      907.862        1.919        0.464      168.333       31.422        0.035      337.151        8.931      871.849
01/15/2021  11:13:00       39.904      -18.311       -7.941       42.610       29.000       28.565     1815.617      840.987      815.981        0.273        0.174       43.905       23.884        0.296      337.485        9.490      871.854
01/15/2021  11:14:00       25.556      -80.320      -12.416       61.922       75.914       25.985     3834.337     5762.966      675.243        0.876        0.514       84.288       35.281        0.175      337.455        9.441      871.815
01/15/2021  11:15:00      112.868     -130.317      -36.368       45.364       39.133       24.199     2057.882     1531.421      585.611        1.761        0.209      172.400       23.145        0.018      337.083        8.816      871.729
01/15/2021  11:16:00       12.118       12.634        7.152       41.021       55.503       33.855     1682.726     3080.587     1146.172        0.313        0.295       17.506       27.856        2.532      337.625        9.725      871.678
01/15/2021  11:17:00       -9.653       15.327        4.077       42.429       34.997       28.110     1800.260     1224.775      790.175        0.208        0.191       18.113       15.009        0.687      337.631        9.735      871.629
01/15/2021  11:18:00       74.682     -141.272      -28.890       82.278      111.398       36.004     6769.748    12409.461     1296.317        2.342        1.024      159.798       53.570        0.112      337.358        9.276      871.599
01/15/2021  11:19:00       70.618     -142.403      -38.002       54.544       67.802       26.966     2975.039     4597.131      727.138        1.750        0.415      158.951       11.146        0.005      337.292        9.165      871.576
01/15/2021  11:20:00       90.862     -186.591      -32.204       46.854       81.102       37.598     2195.289     6577.613     1413.596        2.715        0.509      207.538       35.213        0.029      337.233        9.065      871.513
01/15/2021  11:21:00       92.034     -134.718      -33.406       40.596       52.644       29.956     1648.068     2771.415      897.379        1.652        0.266      163.154       14.653        0.008      337.401        9.350      871.473
01/15/2021  11:22:00       80.313      -51.875      -30.114       60.007       49.705       27.418     3600.883     2470.613      751.774        0.843        0.341       95.610       15.457        0.026      337.687        9.829      871.455
01/15/2021  11:23:00       92.462      -81.224      -36.373       51.676       88.777       32.703     2670.404     7881.303     1069.492        1.404        0.581      123.072       33.405        0.074      337.722        9.888      871.415
01/15/2021  11:24:00      119.125      -99.228      -36.920       48.225       60.258       26.185     2325.691     3630.983      685.643        1.602        0.332      155.039       30.644        0.039      337.450        9.432      871.385
01/15/2021  11:25:00       87.916      -97.261      -24.724       48.085       44.279       24.742     2312.128     1960.656      612.177        1.134        0.244      131.107       27.231        0.043      337.452        9.436      871.403
01/15/2021  11:26:00      108.728     -109.530      -33.072       46.179       80.617       27.438     2132.477     6499.087      752.868        1.715        0.469      154.333       30.492        0.039      337.281        9.147      871.436
01/15/2021  11:27:00      102.535        8.320      -27.197       54.604       57.999       28.573     2981.630     3363.864      816.394        0.924        0.358      102.872       29.158        0.080      337.508        9.531      871.445
01/15/2021  11:28:00       15.568       14.454        0.420       40.725       31.979       24.547     1658.562     1022.657      602.566        0.187        0.164       21.243       22.839        1.156      337.520        9.548      871.417
01/15/2021  11:29:00       57.040       56.281      -12.462       48.322       66.098       30.312     2335.055     4368.903      918.831        0.710        0.381       80.132       22.122        0.076      337.631        9.735      871.383
01/15/2021  11:30:00       81.643       -6.316       -4.356       59.105       45.361       37.988     3493.372     2057.662     1443.064        0.686        0.350       81.887       36.362        0.197      337.656        9.777      871.338
01/15/2021  11:31:00       62.683      -67.562      -27.751       63.022       68.147       32.211     3971.834     4644.060     1037.564        0.946        0.483       92.162       35.757        0.151      337.814       10.042      871.313
01/15/2021  11:32:00       71.308       -6.470       -5.245       72.920       51.169       31.106     5317.312     2618.290      967.608        0.703        0.445       71.601       18.784        0.069      337.672        9.804      871.343
01/15/2021  11:33:00      176.212       63.878      -17.261       52.893       41.772       28.814     2797.624     1744.903      830.238        2.040        0.269      187.432       20.302        0.012      337.399        9.346      871.340
01/15/2021  11:34:00      137.823       31.670      -10.649       79.545       67.504       39.029     6327.415     4556.822     1523.241        1.626        0.620      141.415       32.464        0.053      337.479        9.479      871.287
01/15/2021  11:35:00       63.619       -4.315       -8.928       59.934       37.264       29.821     3592.077     1388.584      889.306        0.501        0.293       63.765       28.755        0.203      337.837       10.081      871.295
01/15/2021  11:36:00       60.434      -15.365      -10.911       64.828       50.610       42.308     4202.688     2561.333     1789.942        0.628        0.428       62.357       38.310        0.377      337.878       10.149      871.318
01/15/2021  11:37:00       93.932        0.445        1.122       44.073       50.770       29.344     1942.407     2577.584      861.072        0.710        0.269       93.933       27.898        0.088      337.743        9.923      871.341
01/15/2021  11:38:00       77.364       38.153      -11.685       42.701       47.928       23.740     1823.388     2297.125      563.567        0.613        0.234       86.261       20.291        0.055      337.694        9.842      871.373
01/15/2021  11:39:00       66.372        1.565      -10.797       74.941       76.367       46.134     5616.147     5831.909     2128.307        0.905        0.679       66.390       42.908        0.418      337.877       10.148      871.358
01/15/2021  11:40:00       73.897       35.346      -12.359       70.222       61.099       37.142     4931.128     3733.074     1379.503        0.845        0.502       81.915       35.176        0.184      337.765        9.961      871.345
01/15/2021  11:41:00       63.774       32.141      -13.040       48.715       35.918       25.396     2373.154     1290.124      644.979        0.479        0.215       71.415       21.630        0.092      337.491        9.501      871.352
01/15/2021  11:42:00      101.270       71.151      -19.742       58.267       34.218       26.090     3394.995     1170.887      680.704        1.048        0.262      123.766       24.726        0.040      337.464        9.456      871.326
01/15/2021  11:43:00       30.683       30.379       10.059       47.979       48.102       34.100     2301.978     2313.834     1162.829        0.387        0.289       43.178       26.604        0.380      337.772        9.971      871.288
01/15/2021  11:44:00       96.479       61.235      -16.767       34.001       34.944       19.111     1156.039     1221.089      365.232        0.804        0.137      114.271       15.572        0.019      337.398        9.344      871.293
01/15/2021  11:45:00       66.358        6.622        2.586       67.699       58.073       44.214     4583.138     3372.512     1954.868        0.718        0.496       66.688       45.138        0.458      337.668        9.796      871.240
01/15/2021  11:46:00       98.925      -13.262      -30.335       56.736       25.587       20.041     3218.996      654.702      401.630        0.758        0.214       99.810       26.967        0.073      337.348        9.261      871.202
01/15/2021  11:47:00       38.279      -37.862       -7.231       45.151       39.979       25.686     2038.574     1598.296      659.787        0.362        0.215       53.841       22.784        0.179      337.838       10.082      871.227
01/15/2021  11:48:00      133.504       -5.776      -23.435       63.123       53.238       39.067     3984.502     2834.337     1526.237        1.337        0.417      133.629       42.091        0.099      337.601        9.685      871.207
01/15/2021  11:49:00      113.860       42.918      -11.009       71.563       60.758       45.809     5121.232     3691.495     2098.497        1.292        0.546      121.680       42.786        0.124      337.669        9.800      871.147
01/15/2021  11:50:00       79.648      -30.509      -28.547       53.730       54.536       25.483     2886.881     2974.128      649.407        0.730        0.326       85.291       26.530        0.097      337.523        9.554      871.113
01/15/2021  11:51:00       74.520      -27.490      -16.403       50.058       44.024       27.524     2505.791     1938.098      757.549        0.589        0.260       79.429       23.090        0.085      337.559        9.615      871.138
01/15/2021  11:52:00      103.066      -28.193      -22.985       45.080       42.654       31.481     2032.224     1819.366      991.027        0.839        0.242      106.853       27.108        0.064      337.528        9.564      871.117
01/15/2021  11:53:00      102.381      -24.565      -14.709       80.936       41.073       41.000     6550.702     1687.016     1680.962        1.061        0.496      105.286       40.852        0.151      337.555        9.609      871.080
01/15/2021  11:54:00       86.473      -68.006      -26.272       62.458       48.199       33.652     3901.021     2323.130     1132.433        1.007        0.368      110.011       36.800        0.112      337.580        9.650      871.082
01/15/2021  11:55:00       81.342      -35.253      -29.589       55.310       59.871       31.245     3059.219     3584.591      976.272        0.818        0.381       88.652       27.369        0.095      337.755        9.944      871.061
01/15/2021  11:56:00       45.213       20.483      -17.577       70.743       64.886       30.623     5004.642     4210.135      937.764        0.646        0.508       49.636       27.176        0.300      337.930       10.236      871.024
01/15/2021  11:57:00       90.467       -6.059      -16.807       77.631       75.358       41.813     6026.515     5678.777     1748.347        1.098        0.673       90.670       39.918        0.194      337.853       10.108      870.979
01/15/2021  11:58:00      103.347      -81.858      -26.679       60.657       78.922       38.932     3679.238     6228.682     1515.730        1.476        0.571      131.838       38.907        0.087      337.782        9.988      870.954
01/15/2021  11:59:00       27.052      -48.382        0.764       55.441       91.347       51.311     3073.698     8344.277     2632.813        0.856        0.703       55.432       36.336        0.430      337.690        9.834      870.973
01/15/2021  12:00:00       40.758       -9.660       -2.119       71.391       69.213       48.388     5096.741     4790.441     2341.415        0.699        0.611       41.887       42.235        1.017      337.655        9.774      871.008
01/15/2021  12:01:00       47.708       -2.098       -8.666       54.324       46.838       32.706     2951.130     2193.811     1069.694        0.428        0.311       47.754       27.758        0.338      337.744        9.925      871.083
01/15/2021  12:02:00       83.059      -11.504      -14.215       69.971       42.974       30.681     4895.978     1846.794      941.302        0.746        0.384       83.851       34.530        0.170      337.721        9.888      871.104
01/15/2021  12:03:00      100.920       -1.915      -12.162       80.032       55.638       38.590     6405.162     3095.570     1489.210        1.066        0.549      100.938       38.139        0.143      337.626        9.727      871.063
01/15/2021  12:04:00       61.522      -76.045      -17.009       43.248       64.116       25.462     1870.429     4110.880      648.335        0.824        0.331       97.815       27.865        0.081      337.499        9.513      871.064
01/15/2021  12:05:00        9.992        3.536        9.507       30.087       60.722       29.710      905.224     3687.150      882.661        0.284        0.274       10.599       18.402        3.014      337.805       10.026      871.049
01/15/2021  12:06:00      115.531       -1.823      -17.269       66.322       50.135       36.744     4398.645     2513.481     1350.149        1.095        0.413      115.546       30.728        0.071      337.827       10.064      870.994
01/15/2021  12:07:00      102.173        1.939      -13.721       85.424       74.438       44.249     7297.243     5541.069     1957.990        1.271        0.740      102.191       37.768        0.137      337.808       10.032      870.947
01/15/2021  12:08:00       45.232      -49.230      -15.521       81.209       46.035       26.835     6594.934     2119.210      720.128        0.707        0.472       66.854       34.134        0.261      337.658        9.781      870.962
01/15/2021  12:09:00       18.904       16.524        3.518       37.848       22.353       19.750     1432.458      499.664      390.051        0.148        0.116       25.108       21.893        0.760      337.763        9.956      871.034
01/15/2021  12:10:00       28.967       15.153      -10.951       32.910       29.723       21.107     1083.060      883.444      445.500        0.180        0.121       32.692       22.345        0.467      337.833       10.073      871.093
01/15/2021  12:11:00       34.989       22.116       -4.020       32.605       30.769       21.567     1063.081      946.758      465.118        0.210        0.124       41.392       18.386        0.197      337.751        9.936      871.075
01/15/2021  12:12:00       78.806       63.106      -17.804       62.375       62.408       32.761     3890.683     3894.743     1073.282        0.968        0.443      100.960       32.991        0.107      337.742        9.922      871.007
01/15/2021  12:13:00       70.366        7.269      -17.185       67.018       63.778       37.203     4491.472     4067.614     1384.040        0.762        0.497       70.741       37.380        0.279      337.914       10.208      870.970
01/15/2021  12:14:00       69.668      -24.134       -7.095       51.873       62.490       50.147     2690.777     3905.047     2514.685        0.730        0.456       73.730       33.111        0.202      337.954       10.277      870.980
01/15/2021  12:15:00       61.311        0.599        5.616       50.827       39.299       35.184     2583.335     1544.403     1237.889        0.458        0.268       61.314       36.108        0.347      337.819       10.050      870.982
01/15/2021  12:16:00       99.437       -0.412      -12.876       59.147       42.601       42.536     3498.369     1814.816     1809.311        0.859        0.356       99.438       37.754        0.144      337.799       10.017      870.936
01/15/2021  12:17:00       75.247       24.130      -13.311       63.919       60.137       41.690     4085.696     3616.417     1738.045        0.793        0.472       79.022       34.664        0.192      337.907       10.198      870.860
01/15/2021  12:18:00      178.679       42.294      -28.134       59.654       58.011       32.861     3558.556     3365.275     1079.815        2.125        0.400      183.617       31.638        0.030      337.892       10.172      870.832
01/15/2021  12:19:00       67.766       42.112       -8.631       53.200       42.928       28.636     2830.255     1842.796      820.048        0.597        0.275       79.785       29.178        0.134      337.976       10.314      870.834
01/15/2021  12:20:00       50.815      -44.370      -11.660       41.670       57.156       28.951     1736.372     3266.778      838.164        0.526        0.292       67.461       20.842        0.095      338.016       10.381      870.830
01/15/2021  12:21:00       69.751       42.929       -8.462       73.008       48.116       27.963     5330.127     2315.162      781.927        0.760        0.421       81.903       35.764        0.191      338.115       10.547      870.813
01/15/2021  12:22:00      135.919       78.216      -13.977       53.408       28.516       27.420     2852.361      813.165      751.835        1.460        0.221      156.817       29.203        0.035      337.875       10.143      870.794
01/15/2021  12:23:00       38.570       -6.608       -7.213       90.424       58.294       36.516     8176.494     3398.249     1333.438        0.724        0.645       39.132       40.276        1.059      338.255       10.782      870.771
01/15/2021  12:24:00      125.529      -27.703      -30.328       90.929       67.499       47.300     8268.043     4556.058     2237.314        1.625        0.753      128.550       45.204        0.124      337.949       10.269      870.733
01/15/2021  12:25:00       91.174       -2.079       -5.913       87.322       66.444       50.680     7625.088     4414.830     2568.477        1.148        0.730       91.198       51.487        0.319      337.943       10.258      870.726
01/15/2021  12:26:00      116.519      -22.712      -16.369       65.866       55.586       35.415     4338.341     3089.819     1254.189        1.152        0.434      118.712       35.242        0.088      338.013       10.377      870.743
01/15/2021  12:27:00       78.793        3.339       -7.847       79.501       43.367       34.233     6320.401     1880.716     1171.881        0.782        0.469       78.863       42.901        0.296      338.136       10.584      870.764
01/15/2021  12:28:00      119.810       -9.299      -23.125       59.608       35.204       21.734     3553.137     1239.317      472.352        1.012        0.263      120.171       26.849        0.050      338.101       10.523      870.718
01/15/2021  12:29:00       91.482     -140.234      -31.286       43.554       69.015       29.224     1896.910     4763.052      854.061        1.826        0.376      167.435       29.155        0.030      338.185       10.665      870.674
01/15/2021  12:30:00       86.394      -74.396      -37.073       62.102       58.461       40.662     3856.668     3417.682     1653.438        1.165        0.446      114.012       33.792        0.088      338.336       10.917      870.634
01/15/2021  12:31:00       83.276      -41.420      -24.379       62.553       55.935       42.302     3912.875     3128.698     1789.460        0.904        0.442       93.008       30.005        0.104      338.376       10.985      870.610
01/15/2021  12:32:00       82.483      -59.685      -28.327       45.880       69.909       29.395     2104.965     4887.307      864.092        0.951        0.393      101.812       25.405        0.062      338.384       10.998      870.632
01/15/2021  12:33:00      147.711      -82.826      -27.344       73.975       72.585       45.815     5472.234     5268.523     2099.053        2.113        0.642      169.348       43.387        0.066      338.265       10.797      870.630
01/15/2021  12:34:00      168.546      -37.800      -25.611       86.803       73.141       50.462     7534.769     5349.671     2546.408        2.296        0.772      172.733       41.990        0.059      338.253       10.777      870.600
01/15/2021  12:35:00       92.373        5.173      -13.472       82.649       61.530       46.418     6830.808     3785.922     2154.611        1.075        0.639       92.518       44.515        0.232      338.346       10.935      870.582
01/15/2021  12:36:00      101.620       -7.381      -14.094       78.449       49.113       35.422     6154.317     2412.098     1254.725        1.020        0.491      101.888       39.531        0.151      338.277       10.818      870.583
01/15/2021  12:37:00       96.959     -179.676      -26.392       55.238       97.109       39.314     3051.243     9430.202     1545.610        2.820        0.701      204.167       41.510        0.041      338.381       10.989      870.560
01/15/2021  12:38:00      103.396     -120.346      -33.061       49.096       67.322       33.740     2410.396     4532.246     1138.362        1.717        0.404      158.663       29.964        0.036      338.469       11.142      870.552
01/15/2021  12:39:00      138.798      -69.561      -36.184       59.660      101.842       38.176     3559.342    10371.744     1457.375        2.040        0.769      155.253       43.424        0.078      338.500       11.191      870.516
01/15/2021  12:40:00      140.649      -14.786       -1.859      101.327       73.090       61.546    10267.179     5342.136     3787.858        1.970        0.970      141.424       53.577        0.144      338.454       11.115      870.459
01/15/2021  12:41:00      157.792      -32.771      -20.318      121.980       85.110       65.361    14879.182     7243.710     4272.110        2.638        1.320      161.159       70.183        0.190      338.425       11.066      870.439
01/15/2021  12:42:00      101.527      -15.081      -35.711       73.890       78.399       33.287     5459.741     6146.366     1108.025        1.226        0.636      102.641       32.990        0.103      338.553       11.283      870.462
01/15/2021  12:43:00      154.124     -118.225      -26.527      120.221       59.331       46.652    14453.088     3520.198     2176.369        2.929        1.007      194.245       49.705        0.065      338.540       11.257      870.514
01/15/2021  12:44:00      163.994      -22.143      -21.072       97.233       53.441       40.765     9454.264     2855.985     1661.792        2.090        0.699      165.482       51.045        0.095      338.626       11.404      870.523
01/15/2021  12:45:00      114.993      -85.187      -25.231       67.805       40.296       31.531     4597.545     1623.770      994.173        1.416        0.361      143.109       36.079        0.064      338.412       11.044      870.500
01/15/2021  12:46:00       76.603      -40.885      -11.033       59.596       29.819       27.143     3551.653      889.145      736.741        0.642        0.259       86.831       32.943        0.144      338.614       11.386      870.507
01/15/2021  12:47:00       76.102       -2.203       -5.994       85.098       81.139       49.231     7241.600     6583.556     2423.739        1.104        0.812       76.134       50.358        0.437      338.849       11.780      870.523
01/15/2021  12:48:00       98.053       -0.161      -14.682       96.750       64.851       53.047     9360.491     4205.604     2813.940        1.310        0.819       98.053       52.024        0.281      338.898       11.861      870.523
01/15/2021  12:49:00       65.531        2.069      -15.329       56.523       41.739       31.055     3194.898     1742.185      964.405        0.522        0.295       65.564       26.665        0.165      338.966       11.975      870.542
01/15/2021  12:50:00       70.363      -37.035      -18.831       58.418       55.984       32.866     3412.608     3134.176     1080.144        0.715        0.381       79.515       32.475        0.167      339.050       12.117      870.544
01/15/2021  12:51:00       42.313      -39.109      -14.283       36.880       28.114       22.035     1360.169      790.376      485.544        0.308        0.132       57.619       23.603        0.168      338.758       11.628      870.563
01/15/2021  12:52:00       13.914      -38.594       -9.949       32.339       23.550       25.757     1045.792      554.602      663.431        0.202        0.113       41.026       24.248        0.349      338.890       11.850      870.560
01/15/2021  12:53:00       87.419      -58.199      -10.669       67.980       54.008       37.359     4621.258     2916.892     1395.679        1.004        0.447      105.020       38.606        0.135      338.772       11.650      870.543
01/15/2021  12:54:00       77.077      -68.741      -21.828       40.218       33.239       26.264     1617.496     1104.850      689.791        0.728        0.171      103.277       24.917        0.058      338.537       11.254      870.566
01/15/2021  12:55:00       88.652     -109.024      -23.981       46.197       59.161       34.260     2134.151     3500.046     1173.759        1.356        0.340      140.518       35.846        0.065      338.712       11.549      870.548
01/15/2021  12:56:00       73.855     -158.126      -38.488       47.643       48.491       22.652     2269.847     2351.332      513.094        1.854        0.257      174.523       19.166        0.012      338.543       11.264      870.512
01/15/2021  12:57:00       81.790     -144.240      -26.180       69.199       53.470       34.511     4788.526     2859.041     1190.984        1.851        0.442      165.815       36.399        0.048      338.741       11.599      870.480
01/15/2021  12:58:00      -26.792      -97.540      -14.696       70.263       49.193       29.697     4936.834     2419.980      881.916        0.934        0.412      101.152       26.069        0.066      338.974       11.989      870.465
01/15/2021  12:59:00       66.704     -121.622      -29.700       95.836       86.933       41.994     9184.583     7557.270     1763.514        1.931        0.925      138.713       59.166        0.182      338.793       11.683      870.449
01/15/2021  13:00:00      111.225      -70.144      -24.558       57.308       52.859       32.520     3284.220     2794.107     1057.525        1.251        0.357      131.496       29.175        0.049      338.620       11.395      870.421
01/15/2021  13:01:00      107.948      -24.192      -11.522       49.056       51.915       27.291     2406.504     2695.146      744.791        0.911        0.292      110.625       27.042        0.060      338.622       11.398      870.385
01/15/2021  13:02:00      109.010       12.130      -18.358       42.533       60.044       27.141     1809.031     3605.269      736.655        0.926        0.308      109.683       24.403        0.049      338.741       11.599      870.387
01/15/2021  13:03:00       55.746      -30.638       -2.381       46.839       53.536       34.795     2193.925     2866.058     1210.688        0.516        0.314       63.610       29.035        0.208      339.061       12.137      870.427
01/15/2021  13:04:00       42.554      -39.253       -8.053       49.891       49.306       28.766     2489.142     2431.121      827.458        0.458        0.287       57.893       28.517        0.243      339.199       12.368      870.404
01/15/2021  13:05:00        9.663      -22.330       -1.229       55.437       33.164       25.100     3073.227     1099.853      630.030        0.270        0.240       24.331       24.923        1.049      339.320       12.572      870.380
01/15/2021  13:06:00      132.035     -148.435      -40.912       64.353       43.831       27.420     4141.345     1921.121      751.842        2.398        0.341      198.661       28.549        0.021      338.994       12.022      870.373
01/15/2021  13:07:00      109.556      -75.806      -16.851       68.415       74.649       42.898     4680.622     5572.524     1840.230        1.506        0.605      133.225       40.157        0.091      339.081       12.170      870.400
01/15/2021  13:08:00      111.670      -55.401      -23.024       69.202       86.477       31.096     4788.960     7478.216      966.964        1.465        0.662      124.658       38.346        0.095      338.990       12.017      870.455
01/15/2021  13:09:00      -54.314      -18.572       -1.549       52.359       33.436       26.735     2741.443     1117.953      714.757        0.393        0.229       57.402       16.854        0.086      339.347       12.618      870.475
01/15/2021  13:10:00      -22.188       -5.108      -10.403       47.315       43.010       25.750     2238.743     1849.828      663.052        0.269        0.238       22.768       13.205        0.336      339.592       13.033      870.468
01/15/2021  13:11:00       73.742      -19.154      -11.204       59.908       40.821       22.718     3588.909     1666.373      516.124        0.585        0.289       76.189       23.957        0.099      339.034       12.092      870.442
01/15/2021  13:12:00       62.499      -50.855       -8.624       48.700       35.628       28.866     2371.666     1269.329      833.232        0.552        0.224       80.575       23.175        0.083      339.165       12.313      870.435
01/15/2021  13:13:00       24.018      -79.715      -25.928       49.415       30.177       23.754     2441.846      910.627      564.248        0.576        0.196       83.255       19.220        0.053      339.360       12.640      870.406
01/15/2021  13:14:00       81.783     -118.678      -18.273       74.350       81.508       44.336     5527.995     6643.503     1965.649        1.762        0.707      144.128       43.111        0.089      339.326       12.583      870.396
01/15/2021  13:15:00      146.718     -160.582      -45.324       46.004       45.113       24.638     2116.365     2035.140      607.027        2.706        0.238      217.515       23.863        0.012      338.866       11.805      870.351
01/15/2021  13:16:00       85.231     -140.098      -24.588       67.749       65.269       36.458     4589.916     4259.985     1329.221        1.884        0.509      163.987       21.561        0.017      339.090       12.185      870.333
01/15/2021  13:17:00       51.711     -126.852      -14.321       46.515       47.226       30.073     2163.645     2230.266      904.379        1.213        0.265      136.987       28.046        0.042      339.374       12.665      870.336
01/15/2021  13:18:00       17.573     -109.879      -29.169       65.826       52.677       31.894     4333.113     2774.869     1017.230        1.068        0.406      111.276       26.962        0.059      339.467       12.820      870.337
01/15/2021  13:19:00        0.425      -46.478      -17.140       44.670       46.920       39.213     1995.379     2201.511     1537.688        0.409        0.287       46.480       20.116        0.187      339.683       13.185      870.346
01/15/2021  13:20:00      -61.938     -110.974      -21.073       86.083       61.175       32.100     7410.304     3742.419     1030.379        1.439        0.609      127.089       12.946        0.010      339.293       12.526      870.316
01/15/2021  13:21:00       79.211      -65.564      -32.990       63.512       87.206       41.456     4033.751     7604.958     1718.604        1.251        0.668      102.825       47.729        0.215      339.385       12.681      870.244
01/15/2021  13:22:00       59.445     -139.887      -36.712       68.107       53.413       27.406     4638.539     2852.933      751.088        1.634        0.412      151.993       18.078        0.014      339.172       12.322      870.213
01/15/2021  13:23:00        2.565      -36.700      -25.204       65.895       60.717       32.860     4342.086     3686.581     1079.776        0.555        0.455       36.789       38.507        1.096      339.286       12.517      870.250
01/15/2021  13:24:00      -10.902      -19.355      -28.282       48.782       43.660       27.280     2379.718     1906.220      744.185        0.316        0.252       22.214       23.345        1.104      339.644       13.119      870.248
01/15/2021  13:25:00      -34.235       17.188       -6.617       37.980       52.436       25.183     1442.454     2749.512      634.174        0.317        0.241       38.308       25.164        0.431      339.528       12.922      870.232
01/15/2021  13:26:00      -52.891      -13.901       -5.615       31.937       32.173       20.545     1019.965     1035.114      422.090        0.275        0.124       54.687       11.625        0.045      339.673       13.168      870.258
01/15/2021  13:27:00      -59.614      -41.231        3.931       46.583       36.542       27.480     2169.981     1335.309      755.142        0.476        0.213       72.483       20.531        0.080      339.618       13.073      870.281
01/15/2021  13:28:00     -106.101      -42.975       -0.663       70.458       59.723       32.670     4964.309     3566.874     1067.321        1.135        0.480      114.474       32.785        0.082      339.599       13.041      870.270
01/15/2021  13:29:00      -57.668      -57.707      -15.614       53.247       42.735       27.909     2835.254     1826.269      778.907        0.617        0.272       81.582       17.318        0.045      339.634       13.102      870.244
01/15/2021  13:30:00       -0.044      -73.480      -22.047       48.823       45.327       28.258     2383.731     2054.551      798.535        0.556        0.262       73.480       18.298        0.062      339.799       13.380      870.211
01/15/2021  13:31:00       25.617      -87.111       -5.832       62.684       78.592       43.276     3929.306     6176.735     1872.827        1.013        0.599       90.800       29.782        0.108      339.575       13.002      870.228
01/15/2021  13:32:00      -22.880      -41.769       -3.491       35.970       28.343       33.400     1293.834      803.302     1115.551        0.275        0.161       47.625       24.500        0.265      339.673       13.168      870.264
01/15/2021  13:33:00       19.618      -82.407       -0.667       74.186       69.456       37.929     5503.628     4824.180     1438.625        0.947        0.588       84.710       49.614        0.343      339.646       13.122      870.245
01/15/2021  13:34:00      -22.086      -78.523      -22.641       86.068       60.631       38.092     7407.744     3676.066     1450.978        0.985        0.627       81.570       25.778        0.100      339.554       12.967      870.194
01/15/2021  13:35:00      -92.239      -64.871      -10.376       50.993       52.290       32.812     2600.284     2734.266     1076.654        0.962        0.321      112.766       30.083        0.071      339.354       12.630      870.161
01/15/2021  13:36:00      -42.450      -13.262       -8.936       48.395       31.265       18.914     2342.058      977.493      357.749        0.287        0.184       44.474       15.986        0.129      339.554       12.968      870.136
01/15/2021  13:37:00      -16.206      -38.144       -8.710       25.222       23.242       21.775      636.162      540.175      474.130        0.172        0.083       41.444        6.640        0.026      339.634       13.102      870.120
01/15/2021  13:38:00       45.544     -111.052      -22.816       39.379       47.899       26.061     1550.683     2294.299      679.169        0.972        0.226      120.029       23.203        0.037      339.578       13.007      870.114
01/15/2021  13:39:00       -4.568      -63.928      -12.973       39.645       45.357       26.496     1571.713     2057.256      702.017        0.430        0.217       64.091       16.199        0.064      339.499       12.874      870.100
01/15/2021  13:40:00       12.901      -96.712      -22.310       54.040       52.762       27.261     2920.300     2783.836      743.161        0.823        0.322       97.569       15.128        0.024      339.702       13.219      870.106
01/15/2021  13:41:00      -53.000      -53.002      -14.729       54.525       31.843       26.357     2972.984     1013.991      694.708        0.526        0.234       74.955       23.983        0.102      339.713       13.236      870.129
01/15/2021  13:42:00      -83.523      -86.414      -19.053       54.748       53.781       28.078     2997.291     2892.433      788.373        1.074        0.334      120.181       13.976        0.014      339.641       13.112      870.153
01/15/2021  13:43:00       10.804      -63.507        5.137       73.446       50.987       33.631     5394.246     2599.638     1131.067        0.665        0.456       64.419       42.237        0.430      339.803       13.386      870.150
01/15/2021  13:44:00      120.102     -152.330      -48.301       44.732       56.600       30.315     2000.924     3203.571      918.985        2.304        0.306      193.982       26.360        0.018      339.362       12.641      870.108
01/15/2021  13:45:00       92.513     -102.456      -23.661       36.076       50.027       33.849     1301.494     2502.736     1145.757        1.228        0.247      138.043       33.496        0.059      339.414       12.732      870.100
01/15/2021  13:46:00       38.820        0.723       -9.629       52.879       60.671       19.825     2796.148     3680.936      393.013        0.423        0.344       38.826       22.335        0.331      339.516       12.903      870.079
01/15/2021  13:47:00      -19.685        7.350        1.430       30.919       27.543       17.945      956.003      758.598      322.039        0.124        0.102       21.013        6.924        0.109      340.227       14.102      870.056
01/15/2021  13:48:00       -0.907       -6.536       -3.615       25.648       27.763       20.139      657.827      770.805      405.576        0.095        0.092        6.598        7.528        1.302      340.290       14.208      870.045
01/15/2021  13:49:00      -87.197      -53.229       -8.974       92.453       62.870       40.400     8547.552     3952.638     1632.184        1.232        0.707      102.159       33.369        0.107      339.750       13.297      870.053
01/15/2021  13:50:00     -104.770      -19.005      -19.414       50.757       50.461       31.291     2576.282     2546.265      979.133        0.891        0.305      106.480       30.400        0.082      339.594       13.033      870.038
01/15/2021  13:51:00     -103.946      -38.948       -1.218       61.371       47.799       25.254     3766.341     2284.774      637.785        0.950        0.334      111.003       21.864        0.039      339.682       13.181      870.005
01/15/2021  13:52:00      -30.162       -5.160        5.463       36.609       30.630       21.281     1340.234      938.217      452.894        0.185        0.137       30.600       16.814        0.302      340.031       13.772      869.977
01/15/2021  13:53:00      -15.161        3.449        3.833       29.354       31.284       16.224      861.663      978.698      263.220        0.118        0.105       15.548        7.700        0.245      339.984       13.691      869.952
01/15/2021  13:54:00      -58.979      -22.637       -4.628       24.108       39.050       20.926      581.184     1524.877      437.909        0.328        0.127       63.174        9.907        0.025      339.733       13.270      869.944
01/15/2021  13:55:00      -61.928      -33.099      -11.752       30.926       31.771       24.704      956.393     1009.422      610.278        0.382        0.129       70.218       11.568        0.027      339.631       13.097      869.922
01/15/2021  13:56:00      -19.131      -13.730       -1.693       21.661       20.672       16.625      469.193      427.350      276.401        0.086        0.059       23.548        8.410        0.128      339.964       13.657      869.911
01/15/2021  13:57:00       26.810      -79.179      -22.796       47.207       41.928       24.966     2228.468     1757.993      623.277        0.606        0.230       83.595       17.389        0.043      339.774       13.339      869.926
01/15/2021  13:58:00       68.091      -40.442      -18.725       42.865       46.903       25.625     1837.370     2199.918      656.616        0.566        0.235       79.196       22.545        0.081      339.661       13.146      869.965
01/15/2021  13:59:00       64.630     -109.501      -19.263       40.227       33.359       27.824     1618.242     1112.797      774.151        1.002        0.175      127.152       20.344        0.026      339.815       13.407      870.005
01/15/2021  14:00:00      -12.640      -61.809       -9.641       45.537       47.268       33.616     2073.633     2234.305     1130.056        0.475        0.272       63.088       27.151        0.185      339.949       13.632      870.041
01/15/2021  14:01:00       37.453      -23.929        0.133       34.678       28.751       19.457     1202.594      826.638      378.569        0.219        0.120       44.445       18.406        0.172      339.913       13.571      870.057
01/15/2021  14:02:00       -0.348      -27.295       -6.574       18.046       19.320       15.358      325.648      373.271      235.864        0.086        0.047       27.297       10.074        0.136      340.187       14.035      870.083
01/15/2021  14:03:00       20.513      -71.927      -20.967       42.671       41.555       25.773     1820.821     1726.832      664.266        0.512        0.211       74.795       23.840        0.102      340.022       13.757      870.072
01/15/2021  14:04:00       12.390      -76.473      -14.045       64.550       44.166       28.835     4166.737     1950.654      831.452        0.657        0.347       77.470       28.607        0.136      340.153       13.976      870.036
01/15/2021  14:05:00       35.464      -88.316      -23.472       39.286       35.508       26.248     1543.374     1260.820      688.979        0.655        0.175       95.170       14.565        0.023      339.863       13.488      870.037
01/15/2021  14:06:00       33.897      -78.614      -22.301       41.603       32.864       21.670     1730.790     1080.021      469.568        0.555        0.164       85.611       18.625        0.047      339.991       13.703      870.040
01/15/2021  14:07:00       22.247      -50.575       -9.138       31.187       29.471       23.275      972.603      868.561      541.715        0.276        0.119       55.251       13.721        0.062      340.008       13.732      870.039
01/15/2021  14:08:00       16.937        9.888       -9.270       42.460       41.246       17.340     1802.868     1701.236      300.665        0.214        0.190       19.612       15.544        0.628      339.941       13.617      870.029
01/15/2021  14:09:00       44.735      -45.868      -17.633       36.081       45.993       26.820     1301.809     2115.385      719.339        0.428        0.207       64.071       21.133        0.109      339.859       13.480      869.988
01/15/2021  14:10:00       75.410      -98.159      -25.440       26.527       28.536       14.793      703.707      814.296      218.846        0.885        0.087      123.781       12.576        0.010      339.610       13.060      869.975
01/15/2021  14:11:00       53.191      -67.541      -10.650       24.792       26.139       18.633      614.622      683.266      347.180        0.457        0.082       85.971       16.611        0.037      339.866       13.494      869.997
01/15/2021  14:12:00       75.850      -96.466      -24.183       42.140       28.485       18.542     1775.768      811.367      343.799        0.929        0.147      122.715       19.793        0.026      339.879       13.514      870.000
01/15/2021  14:13:00      104.751      -79.304      -29.191       28.742       27.396       15.679      826.077      750.534      245.817        0.997        0.091      131.384       11.983        0.008      339.849       13.466      869.961
01/15/2021  14:14:00       64.278      -78.047      -18.763       42.885       37.396       20.228     1839.147     1398.446      409.182        0.711        0.182      101.109       22.926        0.051      339.867       13.495      869.957
01/15/2021  14:15:00        4.986       14.909       -2.812       17.430       23.595       13.154      303.794      556.705      173.031        0.064        0.052       15.720       11.132        0.501      340.134       13.946      869.988
01/15/2021  14:16:00       -5.092       13.329      -14.034       25.509       16.453       11.802      650.725      270.713      139.288        0.073        0.053       14.269        8.936        0.392      340.352       14.312      870.005
01/15/2021  14:17:00        4.355       -5.137       -6.614       29.699       24.531       12.976      882.056      601.757      168.367        0.087        0.083        6.734       14.987        4.953      340.399       14.393      870.004
01/15/2021  14:18:00       88.083      -58.595      -36.168       53.502       78.119       36.814     2862.480     6102.554     1355.241        1.141        0.516      105.792       29.744        0.079      339.967       13.661      869.972
01/15/2021  14:19:00      106.432     -146.336      -36.919       54.338       53.648       35.388     2952.590     2878.075     1252.318        2.059        0.354      180.948       31.068        0.029      340.041       13.788      869.949
01/15/2021  14:20:00       42.493     -151.460      -15.310       30.831       24.315       21.792      950.536      591.217      474.907        1.350        0.101      157.308       16.008        0.010      340.013       13.743      869.974
01/15/2021  14:21:00      -19.276     -116.676      -17.063       46.851       31.840       24.406     2195.028     1013.817      595.672        0.904        0.190      118.258       12.310        0.011      340.110       13.904      870.008
01/15/2021  14:22:00      -18.547      -35.191       -5.221       45.040       39.669       33.450     2028.611     1573.662     1118.879        0.316        0.236       39.779       15.601        0.154      340.144       13.962      870.043
01/15/2021  14:23:00      -39.810      -18.565       -0.070       29.415       36.928       20.554      865.264     1363.671      422.452        0.229        0.133       43.926       12.668        0.083      340.265       14.167      870.053
01/15/2021  14:24:00       95.599     -142.127      -28.185       47.753       60.254       23.070     2280.356     3630.585      532.243        1.829        0.322      171.287       28.050        0.027      339.978       13.683      870.021
01/15/2021  14:25:00       72.160      -27.245      -11.920       56.851       48.580       25.097     3232.050     2360.035      629.879        0.616        0.311       77.132       31.948        0.172      339.809       13.396      870.007
01/15/2021  14:26:00       -8.051       39.637        4.761       18.743       19.954       13.691      351.298      398.170      187.439        0.130        0.047       40.447       13.674        0.114      339.849       13.466      870.046
01/15/2021  14:27:00       24.545       30.327      -12.362       13.938       14.656       10.402      194.255      214.799      108.201        0.110        0.026       39.015        9.609        0.061      339.890       13.534      870.048
01/15/2021  14:28:00       49.292       44.976       -7.292       16.106       15.513       12.759      259.399      240.667      162.800        0.258        0.033       66.727       10.373        0.024      339.907       13.563      870.020
01/15/2021  14:29:00       58.320       47.232       -6.526       14.695       17.290        9.678      215.938      298.946       93.657        0.314        0.030       75.047        7.288        0.009      339.945       13.628      869.992
01/15/2021  14:30:00       74.521       38.170       -9.935       34.637       34.230       19.927     1199.722     1171.665      397.080        0.494        0.138       83.728        8.385        0.010      340.076       13.846      869.993
01/15/2021  14:31:00       34.042       34.363       -5.626       24.195       33.296       23.174      585.381     1108.656      537.040        0.230        0.112       48.371       19.787        0.167      340.153       13.977      870.026
01/15/2021  14:32:00      -23.908      -14.988       -3.302       47.196       26.616       17.520     2227.441      708.422      306.938        0.202        0.162       28.217       12.061        0.183      340.334       14.283      870.090
01/15/2021  14:33:00      -13.505      -15.829       -6.975       24.218       35.695       27.343      586.507     1274.109      747.647        0.154        0.130       20.807       25.582        1.512      340.251       14.144      870.139
01/15/2021  14:34:00       24.896        3.616        0.947       22.309       25.046       16.583      497.680      627.315      274.997        0.102        0.070       25.157       10.813        0.185      340.266       14.168      870.161
01/15/2021  14:35:00       40.118        6.054       -9.286       24.331       19.307       14.861      591.994      372.764      220.838        0.146        0.059       40.572       13.719        0.114      340.103       13.893      870.151
01/15/2021  14:36:00       31.857        6.948       -3.814       26.812       36.486       19.685      718.878     1331.230      387.492        0.176        0.122       32.606        8.364        0.066      340.071       13.838      870.144
01/15/2021  14:37:00      -25.510      -18.706        9.586       24.716       30.666       24.644      610.892      940.420      607.319        0.163        0.108       31.633       16.318        0.266      340.098       13.883      870.166
01/15/2021  14:38:00       10.898       33.040       -6.764       24.444       27.771       15.085      597.508      771.217      227.569        0.143        0.080       34.791       14.283        0.169      340.180       14.022      870.186
01/15/2021  14:39:00       96.566       26.198      -19.777       40.975       30.089       23.369     1678.926      905.347      546.100        0.677        0.157      100.057       21.928        0.048      340.201       14.057      870.181
01/15/2021  14:40:00       77.377        2.366      -28.275       48.378       53.621       29.307     2340.473     2875.183      858.925        0.643        0.304       77.413       24.360        0.099      340.211       14.074      870.162
01/15/2021  14:41:00       54.100       14.825      -10.409       39.675       43.128       27.517     1574.128     1859.997      757.173        0.372        0.210       56.095       23.127        0.170      340.281       14.192      870.142
01/15/2021  14:42:00       83.121       22.215       -6.649       33.633       32.220       23.103     1131.169     1038.154      533.745        0.507        0.135       86.038       17.267        0.040      340.190       14.040      870.152
01/15/2021  14:43:00       49.656      -10.597      -24.063       37.044       59.532       21.196     1372.279     3544.014      449.255        0.426        0.268       50.774       20.305        0.160      340.261       14.159      870.144
01/15/2021  14:44:00       61.394       21.236        0.772       55.432       30.062       21.684     3072.682      903.742      470.186        0.433        0.222       64.963       26.068        0.161      340.200       14.056      870.151
01/15/2021  14:45:00       87.123       59.950      -11.531       37.005       18.296       20.690     1369.336      334.749      428.059        0.672        0.107      105.756       21.560        0.042      340.182       14.026      870.165
01/15/2021  14:46:00       47.680       19.453       -6.892       54.073       44.688       31.113     2923.853     1997.026      967.989        0.429        0.294       51.496       28.067        0.297      340.362       14.330      870.186
01/15/2021  14:47:00       45.530      -23.937      -14.590       54.465       46.533       29.825     2966.388     2165.290      889.525        0.444        0.301       51.440       25.066        0.237      340.096       13.880      870.192
01/15/2021  14:48:00       36.627      -79.354      -10.603       32.201       32.845       23.233     1036.921     1078.808      539.772        0.520        0.133       87.399       21.334        0.060      340.353       14.315      870.192
01/15/2021  14:49:00       69.938      -58.766      -16.767       50.137       41.033       31.710     2513.707     1683.675     1005.512        0.691        0.260       91.350       36.798        0.162      340.411       14.412      870.172
01/15/2021  14:50:00       95.825      -77.370      -25.083       48.181       64.325       29.203     2321.380     4137.748      852.823        1.155        0.366      123.161       31.130        0.064      340.289       14.205      870.118
01/15/2021  14:51:00       55.742      -62.927       -7.787       45.485       59.987       32.436     2068.856     3598.383     1052.101        0.692        0.336       84.065       29.782        0.126      340.436       14.456      870.047
01/15/2021  14:52:00      100.411     -156.652      -31.888       49.920       51.630       25.950     2492.037     2665.629      673.385        2.073        0.292      186.070       30.490        0.027      340.246       14.134      870.021
01/15/2021  14:53:00       76.881      -62.188      -21.825       48.665       48.857       26.753     2368.325     2386.998      715.728        0.786        0.274       98.884       26.662        0.073      340.074       13.843      870.051
01/15/2021  14:54:00       79.213     -101.560      -20.562       45.349       42.006       24.839     2056.567     1764.495      616.978        1.072        0.222      128.799       25.226        0.038      340.155       13.981      870.026
01/15/2021  14:55:00       57.963      -59.535      -22.673       47.515       49.692       32.265     2257.687     2469.296     1041.034        0.659        0.288       83.091       24.661        0.088      340.213       14.078      869.996
01/15/2021  14:56:00       86.577     -114.687      -12.423       55.396       50.275       33.488     3068.742     2527.536     1121.443        1.376        0.336      143.697       32.604        0.051      340.333       14.282      869.947
01/15/2021  14:57:00      110.823     -111.886      -31.463       47.817       43.956       27.820     2286.452     1932.116      773.976        1.539        0.250      157.481       27.706        0.031      340.329       14.274      869.906
01/15/2021  14:58:00      124.399      -74.088      -21.905       59.067       38.576       32.117     3488.884     1488.139     1031.532        1.372        0.300      144.790       27.451        0.036      340.229       14.104      869.900
01/15/2021  14:59:00       87.607      -51.884      -21.796       52.007       48.201       36.984     2704.751     2323.291     1367.813        0.862        0.320      101.818       33.247        0.107      340.173       14.012      869.887
01/15/2021  15:00:00       72.188      -94.102      -15.945       42.640       39.328       23.870     1818.195     1546.719      569.767        0.913        0.197      118.601       27.877        0.055      340.420       14.427      869.852
01/15/2021  15:01:00       65.253      -68.974      -21.921       49.190       43.642       32.512     2419.618     1904.583     1057.055        0.744        0.269       94.949       34.540        0.132      340.439       14.461      869.813
01/15/2021  15:02:00       98.937     -128.222      -37.191       49.958       36.456       22.799     2495.850     1329.034      519.788        1.598        0.217      161.955       24.292        0.022      340.412       14.415      869.774
01/15/2021  15:03:00       82.435     -146.086      -25.516       49.739       38.676       33.147     2473.966     1495.846     1098.691        1.693        0.253      167.740       31.641        0.036      340.491       14.548      869.746
01/15/2021  15:04:00       82.160      -52.842      -25.467       46.803       74.897       34.217     2190.554     5609.541     1170.776        0.958        0.449       97.686       34.086        0.122      340.323       14.265      869.757
01/15/2021  15:05:00       87.886       22.127      -30.690       57.140       65.344       35.596     3264.974     4269.877     1267.091        0.898        0.440       90.629       24.566        0.073      340.196       14.048      869.783
01/15/2021  15:06:00       45.378      -32.163      -21.942       55.276       40.502       25.851     3055.393     1640.424      668.250        0.447        0.268       55.620       27.518        0.245      340.231       14.110      869.835
01/15/2021  15:07:00       -7.921      -18.862       -5.228       43.256       41.283       25.182     1871.062     1704.311      634.119        0.233        0.210       20.458       25.845        1.596      340.266       14.167      869.852
01/15/2021  15:08:00       12.196      -25.473      -10.062       44.943       45.126       27.546     2019.853     2036.325      758.809        0.286        0.241       28.242       33.562        1.412      340.353       14.316      869.861
01/15/2021  15:09:00       48.880      -11.509       -7.197       59.198       42.855       29.133     3504.395     1836.533      848.732        0.438        0.309       50.217       30.087        0.359      340.192       14.043      869.886
01/15/2021  15:10:00       29.156      -46.388      -11.727       61.492       53.064       30.785     3781.268     2815.763      947.692        0.534        0.377       54.789       43.195        0.622      340.265       14.167      869.891
01/15/2021  15:11:00       30.687      -81.669      -31.471       71.413       40.032       25.355     5099.785     1602.557      642.855        0.797        0.367       87.244       33.813        0.150      340.520       14.596      869.883
01/15/2021  15:12:00       18.486      -60.714      -14.976       67.922       34.925       23.207     4613.393     1219.790      538.567        0.531        0.319       63.466       28.509        0.202      340.505       14.570      869.858
01/15/2021  15:13:00       13.168      -34.421      -21.239       38.619       25.074       25.619     1491.457      628.688      656.321        0.229        0.139       36.854       25.806        0.490      340.538       14.626      869.857
01/15/2021  15:14:00       -4.322      -14.748      -13.836       47.610       19.207       20.689     2266.739      368.917      428.015        0.174        0.153       15.368       25.723        2.802      340.460       14.495      869.881
01/15/2021  15:15:00       -9.715      -26.308      -11.622       41.328       18.233       23.338     1708.017      332.454      544.662        0.175        0.129       28.045       14.936        0.284      340.535       14.623      869.910
01/15/2021  15:16:00       20.887      -24.390       -3.600       51.857       20.879       27.155     2689.182      435.918      737.389        0.245        0.193       32.111       32.368        1.016      340.668       14.849      869.933
01/15/2021  15:17:00       87.338      -27.048      -10.907       43.434       39.210       24.153     1886.502     1537.433      583.370        0.624        0.200       91.430       24.789        0.074      340.293       14.212      869.956
01/15/2021  15:18:00       65.060        9.809       -9.978       49.392       51.101       30.642     2439.551     2611.291      938.921        0.521        0.299       65.795       27.388        0.173      340.240       14.122      869.957
01/15/2021  15:19:00      168.763       63.717      -30.118       56.361       44.526       27.816     3176.547     1982.590      773.753        1.969        0.297      180.390       25.688        0.020      340.460       14.495      869.940
01/15/2021  15:20:00       90.499       43.740      -21.754       69.211       76.111       34.767     4790.178     5792.818     1208.777        1.118        0.590      100.515       26.103        0.067      340.596       14.725      869.929
01/15/2021  15:21:00      144.060       56.589      -18.853       60.580       62.453       31.865     3669.929     3900.428     1015.397        1.645        0.429      154.776       13.515        0.008      340.450       14.478      869.893
01/15/2021  15:22:00      136.096       21.815       -7.116       59.030       46.587       36.650     3484.594     2170.328     1343.205        1.302        0.350      137.834       31.076        0.051      340.462       14.498      869.869
01/15/2021  15:23:00       17.783      -20.897       -2.922       51.878       45.237       26.721     2691.306     2046.365      714.011        0.311        0.273       27.439       21.352        0.606      340.528       14.610      869.876
01/15/2021  15:24:00       29.609      -40.030      -10.098       40.864       42.335       25.746     1669.894     1792.281      662.863        0.335        0.206       49.790       27.962        0.315      340.541       14.633      869.924
01/15/2021  15:25:00       19.811      -10.461       -6.000       36.625       21.040       24.790     1341.391      442.663      614.539        0.147        0.120       22.404       13.946        0.388      340.602       14.736      870.010
01/15/2021  15:26:00      -60.965      -17.434       -7.081       76.755       37.918       35.117     5891.318     1437.782     1233.226        0.631        0.428       63.409       29.938        0.223      340.732       14.956      870.073
01/15/2021  15:27:00     -119.729      -42.087      -11.638       62.689       42.207       28.160     3929.849     1781.428      793.006        1.137        0.325      126.911       20.066        0.025      340.696       14.896      870.107
01/15/2021  15:28:00      -74.051      -60.407       -5.988       55.029       71.011       27.213     3028.214     5042.497      740.550        0.899        0.441       95.565       16.393        0.029      340.624       14.772      870.115
01/15/2021  15:29:00        4.092      -43.620      -26.136       51.248       37.274       25.966     2626.358     1389.360      674.239        0.365        0.234       43.811       23.148        0.279      340.790       15.054      870.091
01/15/2021  15:30:00       48.248      -23.339      -25.295       52.129       67.825       37.674     2717.469     4600.191     1419.322        0.612        0.437       53.596       35.087        0.429      340.614       14.755      870.066
01/15/2021  15:31:00       54.756      -28.654      -12.905       61.543       64.402       40.228     3787.561     4147.669     1618.279        0.677        0.478       61.800       34.947        0.320      340.430       14.445      870.021
01/15/2021  15:32:00       59.335      -21.192      -30.904       54.193       43.367       36.772     2936.836     1880.703     1352.185        0.555        0.308       63.006       32.013        0.258      340.401       14.397      869.975
01/15/2021  15:33:00      105.904       -5.689      -20.240       52.551       65.193       35.127     2761.645     4250.174     1233.926        0.995        0.412      106.057       26.704        0.063      340.436       14.455      869.978
01/15/2021  15:34:00      157.882       60.192      -11.629       50.167       51.122       31.319     2516.710     2613.438      980.870        1.740        0.306      168.967       25.783        0.023      340.466       14.505      870.026
01/15/2021  15:35:00      108.259       54.417       -4.403       51.219       32.432       27.407     2623.378     1051.829      751.151        0.956        0.221      121.167       28.354        0.055      340.481       14.530      870.015
01/15/2021  15:36:00       69.563       89.678      -14.756       42.622       36.320       28.650     1816.639     1319.137      820.830        0.853        0.198      113.495       23.951        0.045      340.489       14.543      869.998
01/15/2021  15:37:00       86.572       25.805      -17.341       65.469       69.478       21.445     4286.151     4827.251      459.889        0.902        0.479       90.336       25.527        0.080      340.488       14.542      869.967
01/15/2021  15:38:00       12.118      -41.842      -14.441       41.882       19.399       22.036     1754.115      376.325      485.588        0.236        0.131       43.561       26.479        0.369      340.425       14.438      869.926
01/15/2021  15:39:00       15.369      -24.132      -15.000       46.045       15.299       23.512     2120.105      234.066      552.834        0.197        0.145       28.611       29.444        1.059      340.358       14.323      869.927
01/15/2021  15:40:00        2.616      -25.458      -17.243       38.355       18.779       24.311     1471.105      352.668      591.020        0.168        0.121       25.592       26.238        1.051      340.448       14.476      869.933
01/15/2021  15:41:00      -29.651      -14.152       -8.218       35.403       16.623       21.846     1253.339      276.330      477.257        0.158        0.100       32.855       18.252        0.309      340.516       14.592      869.917
01/15/2021  15:42:00      -66.073      -33.978       -2.631       48.377       40.492       25.371     2340.291     1639.610      643.672        0.507        0.231       74.298       13.839        0.035      340.576       14.692      869.916
01/15/2021  15:43:00     -102.339      -27.420       -6.280       54.473       33.939       28.971     2967.274     1151.825      839.330        0.811        0.248      105.949       10.052        0.009      340.560       14.666      869.913
01/15/2021  15:44:00      -76.937      -29.358       -6.662       56.176       34.346       26.913     3155.726     1179.638      724.325        0.594        0.253       82.348       15.530        0.036      340.566       14.675      869.930
01/15/2021  15:45:00      -79.316       -7.121       -4.676       71.762       32.753       29.432     5149.829     1072.784      866.249        0.672        0.354       79.635       30.101        0.143      340.542       14.634      869.948
01/15/2021  15:46:00      -86.772       -9.392        0.505       47.453       25.743       25.132     2251.749      662.694      631.623        0.558        0.177       87.279       16.453        0.036      340.574       14.688      869.951
01/15/2021  15:47:00      -59.357      -63.045      -10.819       55.433       55.091       28.763     3072.766     3035.065      827.337        0.727        0.347       86.591       25.980        0.090      340.603       14.736      869.948
01/15/2021  15:48:00      -98.175      -84.924      -19.857       50.526       49.999       26.560     2552.846     2499.854      705.431        1.150        0.288      129.809       23.115        0.032      340.561       14.665      869.937
01/15/2021  15:49:00      -77.805      -17.261      -10.755       44.908       32.204       28.252     2016.708     1037.128      798.173        0.516        0.193       79.696       15.808        0.039      340.551       14.651      869.952
01/15/2021  15:50:00      -48.062      -20.550       -0.918       58.622       24.441       25.790     3436.489      597.343      665.103        0.372        0.235       52.271       22.887        0.192      340.635       14.792      869.973
01/15/2021  15:51:00       -2.060        6.839        0.135       44.881       25.765       21.930     2014.287      663.840      480.910        0.160        0.158        7.142       18.957        7.045      340.585       14.706      870.011
01/15/2021  15:52:00       18.828      -20.024      -12.778       36.661       21.077       24.617     1343.997      444.251      605.999        0.166        0.120       27.485       24.598        0.801      340.488       14.543      870.031
01/15/2021  15:53:00       89.905      -55.063      -29.866       46.396       53.023       31.147     2152.559     2811.410      970.105        0.897        0.297      105.427       28.942        0.075      340.544       14.638      870.025
01/15/2021  15:54:00       12.818        3.135      -17.415       50.850       43.310       28.610     2585.679     1875.784      818.560        0.288        0.264       13.196       30.829        5.458      340.485       14.538      870.038
01/15/2021  15:55:00       -9.689      -37.004       -2.306       43.036       28.757       26.181     1852.107      826.984      685.443        0.242        0.168       38.251       26.804        0.491      340.404       14.400      870.060
01/15/2021  15:56:00        7.785       -2.882       -8.366       52.376       36.956       27.106     2743.221     1365.771      734.757        0.249        0.242        8.301       14.971        3.253      340.378       14.356      870.083
01/15/2021  15:57:00      -69.939       -8.105        5.224      100.689       43.633       36.903    10138.323     1903.844     1361.847        0.919        0.670       70.407       30.348        0.186      340.462       14.499      870.116
01/15/2021  15:58:00      -82.741        2.981        4.388       87.492       50.389       35.574     7654.910     2539.082     1265.515        0.916        0.573       82.795       32.523        0.154      340.533       14.619      870.164
01/15/2021  15:59:00      -98.275       -3.013       -2.679       52.007       33.915       29.728     2704.744     1150.243      883.758        0.721        0.237       98.321       16.547        0.028      340.568       14.680      870.196
01/15/2021  16:00:00      -39.822       17.801      -13.810       53.431       18.802       22.490     2854.855      353.517      505.811        0.290        0.186       43.620       12.461        0.082      340.593       14.718      870.176
01/15/2021  16:01:00       76.151       33.996      -14.083       58.476       37.999       31.119     3419.395     1443.921      968.361        0.649        0.292       83.395       33.258        0.159      340.520       14.597      870.121
01/15/2021  16:02:00       62.634        3.630      -15.975       55.911       57.813       34.897     3126.052     3342.299     1217.790        0.594        0.384       62.739       28.796        0.211      340.555       14.656      870.036
01/15/2021  16:03:00       38.586      -31.912      -32.056       62.938       54.670       31.401     3961.243     2988.819      986.022        0.573        0.397       50.072       32.325        0.417      340.476       14.523      869.993
01/15/2021  16:04:00      -49.344       -4.792      -16.414       54.845       59.341       36.299     3008.019     3521.393     1317.622        0.529        0.392       49.577       18.633        0.141      340.496       14.558      870.029
01/15/2021  16:05:00     -116.850      -28.743        6.685      132.177       57.092       43.420    17470.890     3259.455     1885.260        1.857        1.131      120.334       49.276        0.168      340.551       14.648      870.050
01/15/2021  16:06:00     -165.257      -30.454      -17.906       91.217       56.557       32.672     8320.577     3198.664     1067.477        2.057        0.629      168.039       25.638        0.023      340.565       14.672      870.022
01/15/2021  16:07:00      -59.040      -16.009       -8.057       49.521       27.300       25.302     2452.342      745.274      640.201        0.382        0.192       61.172       24.090        0.155      340.599       14.731      869.959
01/15/2021  16:08:00       34.132      -34.406       -7.898       57.818       31.296       31.103     3342.869      979.462      967.392        0.385        0.264       48.464       36.287        0.561      340.604       14.739      869.864
01/15/2021  16:09:00       68.038        9.229      -34.295       45.983       61.798       28.749     2114.410     3819.003      826.514        0.632        0.338       68.661       21.780        0.101      340.423       14.434      869.775
01/15/2021  16:10:00       85.420       73.721      -10.684       43.522       26.668       26.616     1894.125      711.204      708.424        0.808        0.166      112.833       22.644        0.040      340.464       14.501      869.705
01/15/2021  16:11:00      -18.942      -13.075        5.397       42.249       37.686       25.571     1784.938     1420.204      653.893        0.221        0.193       23.016       24.324        1.117      340.522       14.601      869.650
01/15/2021  16:12:00       23.895      -34.438       -3.504       39.151       42.569       28.374     1532.767     1812.130      805.080        0.296        0.207       41.916       24.795        0.350      340.329       14.274      869.612
01/15/2021  16:13:00       16.822      -38.583       -3.060       41.193       31.003       20.867     1696.836      961.198      435.451        0.244        0.155       42.091       19.107        0.206      340.514       14.587      869.637
01/15/2021  16:14:00      -11.184        5.141       -2.971       28.025       16.364       17.925      785.385      267.782      321.316        0.077        0.069       12.309       18.048        2.150      340.559       14.665      869.687
01/15/2021  16:15:00      -12.967        7.889       -7.994       37.706       19.932       22.563     1421.773      397.278      509.090        0.131        0.116       15.178       18.032        1.411      340.495       14.555      869.741
01/15/2021  16:16:00      -46.648       -3.239        3.756       56.402       33.824       30.457     3181.149     1144.086      927.658        0.373        0.263       46.760       12.338        0.070      340.436       14.455      869.780
01/15/2021  16:17:00      -93.288      -20.440       -0.822       72.307       39.121       32.567     5228.345     1530.452     1060.597        0.847        0.391       95.501       23.818        0.062      340.599       14.732      869.813
01/15/2021  16:18:00      -34.274      -13.181       -4.688       55.317       32.412       23.255     3059.950     1050.516      540.811        0.301        0.233       36.721       19.202        0.273      340.715       14.927      869.836
01/15/2021  16:19:00      -25.184      -24.798       -4.435       55.103       30.040       29.172     3036.290      902.372      851.024        0.303        0.239       35.344       23.713        0.450      340.785       15.046      869.849
01/15/2021  16:20:00      -49.653      -17.099       -5.330       41.654       32.525       23.696     1735.042     1057.866      561.509        0.307        0.168       52.515       22.276        0.180      340.704       14.909      869.875
01/15/2021  16:21:00      -47.024      -21.994      -19.450       48.661       20.742       22.312     2367.872      430.235      497.809        0.318        0.165       51.913       24.518        0.223      340.741       14.972      869.892
01/15/2021  16:22:00        1.989      -10.624       -2.172       45.454       17.466       22.956     2066.092      305.046      526.984        0.151        0.145       10.809       28.401        6.904      340.792       15.059      869.910
01/15/2021  16:23:00      -18.720       -4.388        3.235       39.906       18.680       21.642     1592.472      348.948      468.390        0.139        0.120       19.227       20.101        1.093      340.732       14.956      869.904
01/15/2021  16:24:00       -7.548        4.545       -1.124       38.852       21.534       24.528     1509.516      463.720      601.647        0.133        0.129        8.811       19.264        4.781      340.681       14.869      869.873
01/15/2021  16:25:00      -65.167       19.296       -4.533       57.406       16.026       23.384     3295.497      256.823      546.834        0.437        0.205       67.964       26.887        0.157      340.597       14.727      869.871
01/15/2021  16:26:00      -77.997        3.079       -5.161       40.724       31.955       22.289     1658.457     1021.111      496.786        0.465        0.159       78.058       14.926        0.037      340.573       14.687      869.862
01/15/2021  16:27:00      -79.675      -18.048      -13.268       70.121       42.204       32.023     4917.013     1781.215     1025.449        0.729        0.386       81.694       15.414        0.036      340.525       14.606      869.859
01/15/2021  16:28:00     -126.019       17.268       -8.379       58.773       41.177       32.135     3454.260     1695.555     1032.685        1.121        0.309      127.196       13.519        0.011      340.570       14.682      869.841
01/15/2021  16:29:00     -118.928       -6.084       -4.357       51.602       32.438       26.027     2662.771     1052.194      677.428        0.930        0.220      119.084       14.575        0.015      340.547       14.643      869.833
01/15/2021  16:30:00      -99.192       -4.280       -2.327       54.194       43.062       28.539     2937.028     1854.301      814.459        0.773        0.280       99.284       14.902        0.023      340.524       14.603      869.824
01/15/2021  16:31:00      -87.757      -19.632       -7.287       52.305       32.459       23.387     2735.855     1053.586      546.964        0.624        0.217       89.927        7.080        0.006      340.554       14.653      869.845
01/15/2021  16:32:00      -78.325      -33.475       -7.448       42.181       40.043       31.018     1779.239     1603.472      962.105        0.583        0.217       85.179       18.494        0.047      340.522       14.599      869.881
01/15/2021  16:33:00      -90.889       -7.980       -7.013       78.285       42.823       35.009     6128.535     1833.796     1225.643        0.878        0.459       91.238       18.300        0.040      340.512       14.583      869.936
01/15/2021  16:34:00     -114.939        9.072       -2.558       52.559       43.834       28.629     2762.464     1921.460      819.647        0.940        0.275      115.297       16.583        0.021      340.458       14.491      869.967
01/15/2021  16:35:00      -62.433        8.164       -4.947       38.195       22.153       20.476     1458.829      490.754      419.263        0.318        0.118       62.965       20.766        0.109      340.475       14.523      869.977
01/15/2021  16:36:00       -9.561      -11.908      -12.454       46.263       17.153       17.725     2140.284      294.221      314.177        0.157        0.137       15.271       20.162        1.743      340.556       14.658      869.979
01/15/2021  16:37:00       42.084      -21.249      -17.289       45.022       41.370       22.875     2026.979     1711.506      523.274        0.339        0.213       47.144       25.022        0.282      340.039       13.784      869.978
01/15/2021  16:38:00       37.616       11.560      -20.506       46.864       22.212       25.107     2196.211      493.361      630.343        0.264        0.166       39.352       31.037        0.622      340.238       14.120      869.981
01/15/2021  16:39:00       27.027        6.375       -8.011       43.205       12.842       20.463     1866.668      164.912      418.744        0.164        0.123       27.768       28.733        1.071      340.267       14.170      869.986
01/15/2021  16:40:00       36.165       14.854       -6.641       44.789       11.732       20.501     2006.018      137.636      420.285        0.207        0.128       39.097       25.954        0.441      340.287       14.204      870.024
01/15/2021  16:41:00        4.639       16.040       -4.348       37.882       14.318       19.207     1435.016      205.007      368.902        0.115        0.100       16.698       23.941        2.056      340.289       14.207      870.056
01/15/2021  16:42:00      -16.568       -3.976       -8.787       52.975       15.342       23.121     2806.360      235.376      534.586        0.197        0.179       17.038       30.426        3.189      340.261       14.159      870.068
01/15/2021  16:43:00        3.040      -23.110       -0.289       41.421       10.534       20.744     1715.660      110.975      430.318        0.140        0.113       23.309       24.459        1.101      340.367       14.339      870.056
01/15/2021  16:44:00       63.827      -59.629      -31.424       46.890       32.816       22.661     2198.651     1076.900      513.535        0.620        0.189       87.347       25.898        0.088      340.107       13.898      870.026
01/15/2021  16:45:00       33.846       -1.962      -19.023       42.345       39.775       35.027     1793.064     1582.046     1226.861        0.306        0.230       33.903       28.667        0.715      340.149       13.969      870.006
01/15/2021  16:46:00       19.150       -1.022      -13.843       48.057       37.770       31.993     2309.437     1426.606     1023.521        0.266        0.238       19.177       28.787        2.253      340.082       13.858      870.003
01/15/2021  16:47:00       12.804       10.971       -7.366       43.392       29.037       28.414     1882.846      843.168      807.330        0.194        0.177       16.861       28.094        2.776      340.058       13.816      870.011
01/15/2021  16:48:00       38.440        3.200      -12.982       54.543       19.790       23.625     2974.970      391.636      558.142        0.279        0.196       38.573       28.115        0.531      340.067       13.832      870.022
01/15/2021  16:49:00       15.795      -27.371      -13.931       46.810       21.765       22.407     2191.146      473.700      502.056        0.218        0.158       31.601       27.585        0.762      340.018       13.749      870.038
01/15/2021  16:50:00       30.416      -43.412      -22.764       44.285       15.501       24.450     1961.147      240.285      597.818        0.306        0.140       53.007       30.281        0.326      340.035       13.777      870.048
01/15/2021  16:51:00       52.274      -48.206      -21.429       45.882       18.224       22.734     2105.147      332.112      516.855        0.423        0.148       71.108       27.677        0.151      340.118       13.919      870.058
01/15/2021  16:52:00       65.282      -33.686      -14.413       54.889       28.859       29.091     3012.846      832.828      846.295        0.515        0.235       73.461       33.045        0.202      340.514       14.587      870.056
01/15/2021  16:53:00       35.669      -34.495      -16.961       46.573       34.668       27.568     2169.073     1201.898      760.003        0.344        0.207       49.621       27.686        0.311      340.383       14.366      870.058
01/15/2021  16:54:00       62.114      -44.790      -18.383       47.869       29.896       24.227     2291.478      893.753      586.968        0.499        0.189       76.579       29.080        0.144      340.240       14.124      870.049
01/15/2021  16:55:00       37.708      -26.657       -9.552       46.678       28.678       22.881     2178.857      822.444      523.530        0.287        0.176       46.179       30.053        0.424      340.234       14.114      870.042
01/15/2021  16:56:00        6.074      -42.307      -11.058       41.482       16.673       19.381     1720.729      277.991      375.630        0.216        0.119       42.741       22.873        0.286      340.132       13.942      870.033
01/15/2021  16:57:00        0.940       -0.795      -10.814       42.549       10.092       20.419     1810.407      101.844      416.953        0.122        0.116        1.232       27.902      513.226      340.179       14.020      870.033
01/15/2021  16:58:00      -13.963       11.970      -15.911       44.668        9.146       22.380     1995.211       83.642      500.855        0.159        0.129       18.391       30.182        2.693      340.243       14.129      870.062
01/15/2021  16:59:00        1.406        6.469       -7.793       43.651        9.993       21.126     1905.450       99.864      446.311        0.128        0.123        6.620       28.455       18.478      340.410       14.411      870.082
01/15/2021  17:00:00       43.627      -52.984      -23.195       42.006       36.260       23.359     1764.472     1314.819      545.620        0.444        0.181       68.634       27.811        0.164      340.424       14.434      870.069
01/15/2021  17:01:00       96.505     -116.899      -36.775       54.234       61.745       34.157     2941.361     3812.420     1166.734        1.612        0.396      151.587       33.630        0.049      340.409       14.408      870.042
01/15/2021  17:02:00       71.143      -32.384      -28.988       57.874       66.238       37.402     3349.403     4387.436     1398.939        0.804        0.457       78.167       32.621        0.174      340.090       13.871      870.034
01/15/2021  17:03:00      145.896     -115.500      -41.373       47.606       33.368       24.880     2266.297     1113.426      619.021        2.017        0.200      186.080       28.675        0.024      340.525       14.605      870.029
01/15/2021  17:04:00       94.715      -79.067      -26.201       53.296       31.763       32.107     2840.430     1008.882     1030.842        1.039        0.244      123.380       33.829        0.075      340.555       14.658      870.041
01/15/2021  17:05:00       41.175      -31.869      -13.530       43.504       36.785       25.893     1892.627     1353.138      670.450        0.340        0.196       52.067       29.654        0.324      340.247       14.134      870.062
01/15/2021  17:06:00       91.531      -67.348      -29.629       59.939       48.014       31.510     3592.683     2305.326      992.891        1.034        0.345      113.638       40.002        0.124      340.179       14.022      870.067
01/15/2021  17:07:00      135.335     -126.085      -43.076       57.070       42.398       31.877     3256.978     1797.587     1016.135        2.107        0.304      184.967       32.833        0.032      340.256       14.151      870.074
01/15/2021  17:08:00       29.458      -40.343      -24.156       66.533       60.826       29.692     4426.653     3699.832      881.622        0.604        0.450       49.953       34.214        0.469      340.358       14.324      870.122
01/15/2021  17:09:00       28.528       87.635      -12.442       53.841       49.371       33.184     2898.811     2437.466     1101.184        0.754        0.322       92.161       29.903        0.105      340.257       14.152      870.221
01/15/2021  17:10:00       16.943       54.069        0.294       55.637       37.219       28.410     3095.436     1385.255      807.123        0.425        0.264       56.662       29.778        0.276      340.169       14.005      870.293
01/15/2021  17:11:00       31.759       -8.085       -4.589       51.872       48.979       20.385     2690.713     2398.915      415.558        0.330        0.275       32.772       25.721        0.616      340.190       14.037      870.321
01/15/2021  17:12:00       18.698      -32.822       -8.884       49.497       30.419       25.853     2449.973      925.288      668.381        0.277        0.202       37.774       33.041        0.765      340.073       13.842      870.334
01/15/2021  17:13:00      122.841      -70.557      -30.131       60.074       50.184       32.262     3608.909     2518.472     1040.812        1.407        0.358      141.663       31.540        0.050      339.736       13.273      870.339
01/15/2021  17:14:00       81.124      -76.179      -24.756       56.230       49.814       37.522     3161.768     2481.483     1407.886        1.002        0.353      111.285       37.141        0.111      339.789       13.362      870.320
01/15/2021  17:15:00       37.694      -94.582      -18.539       79.097       37.145       30.849     6256.278     1379.781      951.660        0.965        0.429      101.817       39.188        0.148      339.961       13.652      870.325
01/15/2021  17:16:00      114.610     -120.046      -49.000       78.521       69.925       37.381     6165.574     4889.535     1397.354        2.120        0.623      165.971       44.214        0.071      339.912       13.568      870.311
01/15/2021  17:17:00       44.025      -87.907      -15.333       65.853       49.182       33.483     4336.556     2418.836     1121.107        0.889        0.394       98.315       38.867        0.156      339.916       13.577      870.328
01/15/2021  17:18:00       83.326     -137.464      -32.279       54.725       29.845       31.598     2994.832      890.732      998.460        1.588        0.244      160.747       38.576        0.058      339.995       13.711      870.340
01/15/2021  17:19:00       74.904      -70.049      -24.425       53.058       37.960       26.833     2815.139     1440.934      720.033        0.804        0.249      102.555       30.151        0.086      339.950       13.633      870.366
01/15/2021  17:20:00      103.681      -81.995      -28.905       59.210       36.112       34.996     3505.807     1304.068     1224.750        1.217        0.302      132.185       38.336        0.084      339.975       13.674      870.348
01/15/2021  17:21:00       59.032      -29.924      -20.121       54.470       42.407       34.221     2966.973     1798.337     1171.089        0.536        0.297       66.183       30.899        0.218      339.893       13.538      870.286
01/15/2021  17:22:00      140.355     -121.409      -40.926       52.288       41.461       29.572     2734.073     1719.052      874.481        2.072        0.266      185.579       31.197        0.028      339.930       13.600      870.200
01/15/2021  17:23:00       54.202      -94.326      -23.986       64.613       54.526       35.617     4174.900     2973.065     1268.542        1.041        0.421      108.790       39.805        0.134      339.903       13.555      870.132
01/15/2021  17:24:00      -35.594      -17.176      -26.453       59.354       38.132       27.597     3522.935     1454.086      761.600        0.400        0.287       39.522       29.376        0.552      339.733       13.269      870.101
01/15/2021  17:25:00      -22.441       26.912       -6.093       42.662       13.643       22.238     1820.046      186.139      494.520        0.188        0.125       35.041       27.671        0.624      339.720       13.248      870.087
01/15/2021  17:26:00      -51.837      108.155      -10.921       47.302       34.168       24.094     2237.496     1167.480      580.502        0.924        0.199      119.936       24.815        0.043      339.912       13.571      870.099
01/15/2021  17:27:00      -68.837       77.995       -8.276       48.742       39.511       28.856     2375.782     1561.112      832.660        0.783        0.238      104.027       21.779        0.044      339.970       13.667      870.126
01/15/2021  17:28:00      -35.190       11.776      -11.544       49.409       41.182       24.503     2441.258     1695.918      600.380        0.312        0.237       37.108       25.370        0.467      339.638       13.108      870.164
01/15/2021  17:29:00      -36.010       -8.438       -8.724       42.631       18.924       24.902     1817.416      358.124      620.114        0.212        0.140       36.985       24.135        0.426      339.370       12.657      870.195
01/15/2021  17:30:00      -61.289        0.123      -16.939       37.129       13.527       19.581     1378.554      182.972      383.425        0.299        0.097       61.289       24.361        0.158      339.636       13.107      870.237
01/15/2021  17:31:00      -64.950      -34.425      -22.563       35.874       18.884       16.089     1286.972      356.597      258.850        0.391        0.095       73.510       21.867        0.088      339.797       13.378      870.240
01/15/2021  17:32:00      -76.348       -0.168      -11.945       52.638       22.081       25.289     2770.718      487.582      639.544        0.493        0.195       76.348       23.473        0.095      340.069       13.836      870.238
01/15/2021  17:33:00     -162.029       43.548      -19.798       64.282       44.086       27.785     4132.125     1943.547      771.980        1.769        0.342      167.779       21.308        0.016      339.769       13.329      870.252
01/15/2021  17:34:00      -78.774      -19.201       -9.727       75.855       28.358       29.119     5753.977      804.153      847.939        0.704        0.370       81.080       18.874        0.054      339.709       13.229      870.240
01/15/2021  17:35:00        7.017      -22.047      -11.607       48.364       39.770       28.248     2339.063     1581.653      797.948        0.269        0.236       23.137       30.676        1.758      340.093       13.876      870.245
01/15/2021  17:36:00      -72.240       23.897      -20.445       44.601       39.324       26.719     1989.227     1546.351      713.893        0.523        0.212       76.090       24.204        0.101      339.794       13.374      870.256
01/15/2021  17:37:00      -45.506      -42.705      -13.232       58.588       18.720       23.101     3432.607      350.421      533.654        0.419        0.216       62.406       25.717        0.170      339.947       13.628      870.232
01/15/2021  17:38:00       -5.802      -34.868      -12.399       53.720       11.713       22.810     2885.799      137.200      520.299        0.247        0.177       35.348       28.021        0.628      339.999       13.715      870.231
01/15/2021  17:39:00       -5.460       -5.671       -4.335       67.375       32.554       27.741     4539.438     1059.781      769.571        0.322        0.318        7.872       24.807        9.930      339.749       13.294      870.248
01/15/2021  17:40:00      -25.544      -46.189      -16.619       47.418       34.026       22.677     2248.466     1157.790      514.263        0.349        0.196       52.782       25.894        0.241      339.612       13.064      870.244
01/15/2021  17:41:00     -144.223      -31.000      -14.286       70.470       46.565       36.847     4966.076     2168.326     1357.697        1.523        0.425      147.517       18.094        0.015      339.840       13.448      870.262
01/15/2021  17:42:00      -65.599       -0.121       -2.876       97.205       54.878       51.288     9448.854     3011.612     2630.506        0.970        0.755       65.599       46.047        0.493      339.929       13.599      870.298
01/15/2021  17:43:00       18.122        1.537       -3.000       83.126       39.372       35.520     6909.850     1550.168     1261.653        0.503        0.486       18.187       19.471        1.146      339.955       13.644      870.304
01/15/2021  17:44:00      -18.430      -16.300      -13.817       70.574       45.833       39.127     4980.735     2100.657     1530.948        0.470        0.431       24.604       13.228        0.289      339.858       13.480      870.282
01/15/2021  17:45:00      -30.513      -17.238       -9.527       67.227       43.570       37.360     4519.526     1898.378     1395.791        0.456        0.391       35.046       27.059        0.596      339.941       13.618      870.258
01/15/2021  17:46:00      -97.443      -21.341       -6.136       70.567       55.927       34.909     4979.763     3127.871     1218.619        0.966        0.466       99.753       20.536        0.042      339.947       13.628      870.253
01/15/2021  17:47:00     -110.247      -28.925      -11.510       65.299       36.299       30.690     4263.900     1317.651      941.861        0.982        0.326      113.978       12.453        0.012      339.923       13.588      870.289
01/15/2021  17:48:00     -192.557      -47.574      -10.068       92.101       57.633       47.559     8482.654     3321.546     2261.834        2.675        0.703      198.346       33.673        0.029      339.942       13.618      870.312
01/15/2021  17:49:00     -134.866       -3.598        3.390       98.691       44.137       43.553     9739.879     1948.058     1896.861        1.590        0.679      134.914       42.722        0.100      339.971       13.669      870.326
01/15/2021  17:50:00     -143.146      -24.630       -9.193       62.476       39.512       34.956     3903.273     1561.223     1221.902        1.393        0.334      145.250       17.840        0.015      340.001       13.719      870.330
01/15/2021  17:51:00     -125.116      -56.772      -16.458       63.103       42.225       29.212     3981.981     1782.941      853.344        1.288        0.331      137.393       15.079        0.012      340.054       13.808      870.326
01/15/2021  17:52:00     -153.952     -102.402      -28.205       81.744       68.663       34.277     6682.071     4714.602     1174.925        2.377        0.629      184.898       29.309        0.025      340.091       13.869      870.314
01/15/2021  17:53:00     -174.618     -187.849      -27.804       70.398       92.320       38.393     4955.863     8523.072     1474.005        4.075        0.748      256.473       24.226        0.009      339.952       13.634      870.308
01/15/2021  17:54:00     -111.060     -165.058      -43.488       87.885       60.251       41.505     7723.824     3630.200     1722.702        2.727        0.654      198.943       15.292        0.006      339.884       13.521      870.287
01/15/2021  17:55:00      -50.784        2.205       -6.606       68.112       47.677       34.813     4639.298     2273.107     1211.938        0.537        0.406       50.832       12.582        0.061      339.779       13.348      870.310
01/15/2021  17:56:00      -44.333      -64.895      -10.986       60.459       98.814       33.190     3655.235     9764.174     1101.559        1.041        0.726       78.593       28.350        0.130      339.755       13.304      870.330
01/15/2021  17:57:00     -119.320      -85.110      -15.462       75.841       91.084       39.374     5751.921     8296.259     1550.322        1.866        0.780      146.564       28.247        0.037      339.665       13.152      870.357
01/15/2021  17:58:00     -114.376      -62.760       -9.780       82.142       87.768       41.679     6747.374     7703.247     1737.160        1.665        0.809      130.464       23.419        0.032      339.506       12.885      870.408
01/15/2021  17:59:00     -106.364     -119.489      -18.374       52.986       76.517       29.512     2807.520     5854.782      870.970        1.773        0.477      159.971       19.527        0.015      339.453       12.794      870.420
01/15/2021  18:00:00      -97.111     -118.446      -17.282       55.405       67.854       31.907     3069.681     4604.176     1018.044        1.622        0.435      153.167       26.943        0.031      339.400       12.705      870.420
01/15/2021  18:01:00      -18.411      -89.113      -28.710       79.483       32.982       30.760     6317.611     1087.808      946.204        0.873        0.418       90.995       33.679        0.137      339.438       12.774      870.426
01/15/2021  18:02:00      -11.879      -65.046      -27.221       83.027       40.845       36.652     6893.424     1668.342     1343.358        0.751        0.495       66.122       25.408        0.148      339.425       12.751      870.430
01/15/2021  18:03:00      -80.059     -179.005      -32.104      100.524       76.394       48.297    10105.174     5836.039     2332.559        2.887        0.914      196.092       37.905        0.037      339.524       12.914      870.417
01/15/2021  18:04:00     -114.973     -101.389      -21.031       69.722       62.101       37.509     4861.090     3856.561     1406.957        1.703        0.506      153.292       13.703        0.008      339.412       12.726      870.433
01/15/2021  18:05:00     -105.285     -164.859      -31.040       69.957       60.487       40.474     4894.022     3658.700     1638.148        2.471        0.510      195.611       31.031        0.025      339.489       12.855      870.435
01/15/2021  18:06:00      -70.672      -84.922      -18.846       72.336       48.457       33.668     5232.492     2348.128     1133.541        1.064        0.436      110.482       21.763        0.039      339.391       12.692      870.428
01/15/2021  18:07:00      -42.543      -72.163      -28.035       56.209       57.310       29.616     3159.426     3284.379      877.087        0.756        0.366       83.770       26.950        0.104      339.392       12.692      870.410
01/15/2021  18:08:00     -106.705      -59.194      -14.264       55.700       38.585       33.248     3102.475     1488.830     1105.420        1.039        0.285      122.024       26.265        0.046      339.368       12.654      870.388
01/15/2021  18:09:00      -67.261      -24.850      -10.297       66.296       40.963       29.410     4395.210     1677.954      864.953        0.609        0.347       71.704       21.661        0.091      339.272       12.491      870.398
01/15/2021  18:10:00      -89.816      -33.728      -13.243       84.698       51.791       41.929     7173.762     2682.355     1758.005        1.049        0.581       95.940       20.344        0.045      339.291       12.522      870.433
01/15/2021  18:11:00     -155.315      -28.448      -18.858       74.784       68.895       38.473     5592.681     4746.562     1480.161        1.855        0.591      157.899       28.648        0.033      339.222       12.406      870.450
01/15/2021  18:12:00      -96.406      -31.569       -8.514       57.147       45.877       30.565     3265.801     2104.725      934.247        0.833        0.315      101.443       14.498        0.020      339.210       12.388      870.459
01/15/2021  18:13:00     -122.510     -106.082      -13.588       78.484       70.915       36.285     6159.706     5028.944     1316.629        1.947        0.625      162.056       30.446        0.035      339.304       12.545      870.441
01/15/2021  18:14:00     -135.780      -99.828      -23.928       57.879       82.323       40.177     3349.957     6777.027     1614.210        2.036        0.587      168.529       16.783        0.010      339.296       12.529      870.412
01/15/2021  18:15:00     -113.327     -118.749      -22.792       59.814       64.800       34.625     3577.710     4199.057     1198.875        1.822        0.449      164.147       20.407        0.015      339.357       12.633      870.386
01/15/2021  18:16:00     -120.399      -87.104      -13.186       74.788       62.560       38.923     5593.233     3913.788     1514.967        1.664        0.551      148.603       29.509        0.039      339.322       12.575      870.359
01/15/2021  18:17:00     -132.562     -100.051      -20.763       52.622       75.158       37.234     2769.097     5648.653     1386.363        1.891        0.490      166.081       33.799        0.041      339.329       12.587      870.318
01/15/2021  18:18:00     -115.101      -59.936      -14.549       98.096       64.801       38.569     9622.838     4199.222     1487.557        1.618        0.765      129.771       22.980        0.031      339.317       12.567      870.295
01/15/2021  18:19:00     -106.140      -21.204      -12.224       74.128       41.126       38.304     5494.978     1691.316     1467.232        1.026        0.433      108.237       24.813        0.053      339.310       12.555      870.288
01/15/2021  18:20:00     -113.417      -40.382      -16.841       50.904       47.056       32.017     2591.192     2214.229     1025.076        1.030        0.292      120.392       20.059        0.028      339.298       12.536      870.316
01/15/2021  18:21:00      -92.065      -19.625       -8.666       49.836       36.363       29.154     2483.591     1322.234      849.974        0.679        0.233       94.133       15.966        0.029      339.284       12.512      870.355
01/15/2021  18:22:00      -53.654      -11.516       -7.660       60.561       26.209       29.183     3667.691      686.916      851.629        0.414        0.260       54.876        9.710        0.031      339.244       12.446      870.349
01/15/2021  18:23:00      -94.838      -28.995       -4.958       64.268       42.521       23.534     4130.412     1808.025      553.828        0.817        0.325       99.171        5.926        0.004      339.276       12.499      870.345
01/15/2021  18:24:00      -71.459      -25.337      -12.687       60.784       39.103       21.427     3694.685     1529.034      459.107        0.579        0.284       75.818       21.340        0.079      339.238       12.435      870.367
01/15/2021  18:25:00      -78.142      -27.343      -19.625       64.562       41.363       29.250     4168.281     1710.864      855.566        0.699        0.337       82.788       30.561        0.136      339.231       12.423      870.410
01/15/2021  18:26:00      -57.463      -12.574       -3.872       57.414       33.514       27.057     3296.395     1123.182      732.055        0.431        0.258       58.822       12.094        0.042      339.173       12.324      870.447
01/15/2021  18:27:00      -66.283      -29.551      -13.258       52.563       41.411       29.679     2762.855     1714.871      880.862        0.540        0.268       72.572       21.442        0.087      339.179       12.335      870.450
01/15/2021  18:28:00      -14.023      -17.145      -12.619       44.800       24.916       25.695     2007.053      620.808      660.215        0.197        0.164       22.149       25.247        1.299      339.200       12.369      870.454
01/15/2021  18:29:00      -46.043      -37.992       -9.764       54.116       37.378       26.273     2928.488     1397.101      690.256        0.434        0.251       59.694       26.590        0.198      339.205       12.379      870.464
01/15/2021  18:30:00        4.975      -27.502       -8.109       43.896       37.923       24.815     1926.864     1438.126      615.806        0.241        0.199       27.948       25.895        0.858      339.166       12.315      870.487
01/15/2021  18:31:00       28.015       14.155       -2.160       50.700       49.701       31.155     2570.539     2470.192      970.607        0.350        0.301       31.388       35.280        1.263      339.164       12.309      870.503
01/15/2021  18:32:00       12.718        5.594       -5.649       54.232       25.914       23.969     2941.071      671.529      574.516        0.221        0.209       13.894       29.481        4.502      339.081       12.169      870.532
01/15/2021  18:33:00      -39.011       -9.009      -12.615       72.779       26.198       31.587     5296.807      686.334      997.763        0.437        0.349       40.037       15.315        0.146      339.136       12.262      870.567
01/15/2021  18:34:00      -21.443      -30.783       -7.243       51.145       22.426       26.982     2615.838      502.944      728.032        0.265        0.192       37.516       27.928        0.554      339.148       12.282      870.581
01/15/2021  18:35:00        3.464       28.415       -6.673       44.862       13.585       21.978     2012.589      184.562      483.021        0.177        0.134       28.626       29.821        1.085      339.128       12.248      870.595
01/15/2021  18:36:00      -22.286        4.982       -9.053       52.872       17.379       23.096     2795.400      302.029      533.440        0.212        0.182       22.836       17.503        0.587      339.145       12.277      870.613
01/15/2021  18:37:00      -38.771       43.496       -6.654       47.434       29.947       26.582     2250.029      896.814      706.622        0.365        0.193       58.267       24.091        0.171      339.343       12.611      870.657
01/15/2021  18:38:00      -95.066       33.551      -16.368       43.820       27.701       27.201     1920.211      767.319      739.870        0.693        0.171      100.812       12.872        0.016      339.151       12.288      870.709
01/15/2021  18:39:00      -33.062        5.659       -5.721       61.922       26.971       27.190     3834.373      727.416      739.290        0.323        0.265       33.543       19.092        0.324      338.963       11.971      870.745
01/15/2021  18:40:00      -30.587       -1.812       -9.684       52.302       33.185       24.835     2735.482     1101.232      616.764        0.274        0.223       30.641       19.934        0.423      338.923       11.904      870.755
01/15/2021  18:41:00      -77.751       20.394      -10.940       37.253       16.745       22.935     1387.796      280.410      526.028        0.439        0.110       80.382       13.722        0.029      338.992       12.021      870.766
01/15/2021  18:42:00      -62.370        2.023      -10.260       68.822       37.999       25.736     4736.460     1443.948      662.354        0.542        0.342       62.403       20.761        0.111      338.919       11.898      870.794
01/15/2021  18:43:00     -120.748       31.118      -17.826       50.619       38.804       27.184     2562.285     1505.719      738.992        1.034        0.240      124.693       19.430        0.024      338.880       11.832      870.815
01/15/2021  18:44:00      -77.597       28.507       -9.547       65.388       26.267       31.446     4275.617      689.974      988.827        0.644        0.298       82.668       15.092        0.033      339.048       12.115      870.822
01/15/2021  18:45:00      -79.238       11.455       -7.003       66.432       27.227       24.683     4413.276      741.316      609.261        0.611        0.288       80.062       12.213        0.023      338.946       11.942      870.834
01/15/2021  18:46:00      -50.123       -7.579      -13.068       51.160       33.016       28.431     2617.310     1090.055      808.297        0.363        0.226       50.693       23.735        0.219      338.928       11.913      870.850
01/15/2021  18:47:00     -106.294        3.226        0.015       58.046       25.075       25.698     3369.365      628.733      660.375        0.798        0.233      106.343       18.517        0.030      338.974       11.990      870.873
01/15/2021  18:48:00     -109.752       18.967       -9.727       43.792       26.530       19.824     1917.707      703.862      393.006        0.776        0.151      111.378       15.819        0.020      338.923       11.903      870.884
01/15/2021  18:49:00      -92.792       37.211       -8.351       50.373       30.915       28.581     2537.390      955.723      816.876        0.719        0.215       99.975       13.426        0.018      339.029       12.083      870.892
01/15/2021  18:50:00      -97.749       57.300      -15.974       63.925       29.937       25.027     4086.425      896.230      626.347        0.935        0.280      113.306       18.979        0.028      339.032       12.087      870.895
01/15/2021  18:51:00      -89.681       35.091      -22.984       53.529       26.339       28.222     2865.354      693.719      796.466        0.708        0.218       96.302       27.219        0.080      339.004       12.041      870.894
01/15/2021  18:52:00     -120.592       -1.624      -13.129       87.276       36.594       31.494     7617.181     1339.098      991.871        1.233        0.497      120.603       14.569        0.015      338.855       11.790      870.901
01/15/2021  18:53:00     -124.017       26.126       -1.769       67.493       34.944       35.055     4555.371     1221.059     1228.845        1.153        0.350      126.739       30.096        0.056      338.861       11.800      870.897
01/15/2021  18:54:00     -114.501       38.819      -14.256       48.908       31.297       25.345     2392.019      979.496      642.373        0.942        0.201      120.902       23.064        0.036      338.921       11.903      870.877
01/15/2021  18:55:00      -28.551       -6.932       -7.329       55.482       28.133       26.614     3078.282      791.485      708.304        0.275        0.229       29.381       16.888        0.330      338.921       11.900      870.863
01/15/2021  18:56:00      -53.936       -2.689       -9.559       65.557       35.374       28.467     4297.682     1251.321      810.387        0.468        0.318       54.003       23.137        0.184      338.930       11.915      870.853
01/15/2021  18:57:00      -16.515      -10.763        1.682       55.936       26.438       28.183     3128.826      698.972      794.273        0.251        0.231       19.713       27.026        1.880      338.890       11.848      870.845
01/15/2021  18:58:00      -10.696        1.732       -5.199       43.006       14.668       20.760     1849.507      215.145      430.969        0.132        0.125       10.836       25.065        5.351      338.978       11.996      870.841
01/15/2021  18:59:00      -14.061       -1.148       -5.764       36.978       12.245       18.796     1367.349      149.952      353.293        0.105        0.094       14.108       20.577        2.127      339.041       12.104      870.849
01/15/2021  19:00:00       30.235        4.498       -5.386       48.787       11.538       24.440     2380.155      133.125      597.325        0.204        0.156       30.567       33.426        1.196      339.069       12.152      870.863
01/15/2021  19:01:00       40.903       -5.059      -12.941       53.394       13.835       27.018     2850.907      191.395      729.977        0.282        0.189       41.214       35.355        0.736      338.864       11.805      870.880
01/15/2021  19:02:00       55.825      -13.910      -18.115       52.546       17.380       26.876     2761.039      302.056      722.323        0.371        0.189       57.532       36.261        0.397      338.861       11.799      870.903
01/15/2021  19:03:00       67.949        6.959      -12.524       55.616       19.109       22.178     3093.107      365.148      491.883        0.439        0.198       68.304       29.650        0.188      338.840       11.763      870.924
01/15/2021  19:04:00      131.044       26.234      -13.602       53.509       17.018       29.554     2863.240      289.626      873.412        1.104        0.201      133.644       36.632        0.075      338.899       11.864      870.920
01/15/2021  19:05:00      159.531       18.129      -31.029       52.104       32.511       30.973     2714.815     1056.934      959.306        1.574        0.237      160.558       29.740        0.034      338.892       11.852      870.909
01/15/2021  19:06:00       56.005      -17.443      -24.653       62.762       41.277       33.745     3939.040     1703.803     1138.758        0.541        0.339       58.659       34.910        0.354      338.788       11.676      870.906
01/15/2021  19:07:00       89.024       28.994      -27.598       68.801       41.648       33.088     4733.520     1734.558     1094.846        0.854        0.378       93.627       36.129        0.149      338.853       11.786      870.922
01/15/2021  19:08:00       37.188       10.358      -10.140       58.966       34.850       29.833     3476.974     1214.519      890.004        0.359        0.279       38.604       34.578        0.802      338.882       11.835      870.938
01/15/2021  19:09:00       55.963      -41.466      -23.577       57.003       26.646       30.749     3249.288      710.033      945.480        0.515        0.245       69.651       36.830        0.280      338.884       11.837      870.956
01/15/2021  19:10:00       58.537       -1.543      -24.744       50.449       34.415       26.350     2545.095     1184.419      694.343        0.423        0.221       58.557       29.963        0.262      338.896       11.858      870.958
01/15/2021  19:11:00       49.611       18.019      -16.303       48.532       38.197       29.380     2355.313     1459.044      863.170        0.386        0.234       52.782       22.136        0.176      338.897       11.860      870.946
01/15/2021  19:12:00       56.861      -35.300      -17.216       59.576       43.997       30.708     3549.296     1935.738      942.968        0.560        0.321       66.927       37.939        0.321      338.861       11.799      870.925
01/15/2021  19:13:00       99.432      -42.362      -23.545       49.830       11.533       23.321     2483.043      133.014      543.871        0.770        0.158      108.080       31.007        0.082      339.006       12.042      870.908
01/15/2021  19:14:00       47.946      -46.101      -15.260       57.428       30.003       26.748     3298.022      900.202      715.455        0.478        0.246       66.514       36.378        0.299      339.141       12.272      870.877
01/15/2021  19:15:00       28.481      -69.285      -13.466       54.288       31.542       28.930     2947.142      994.881      836.961        0.528        0.239       74.911       33.676        0.202      339.233       12.426      870.853
01/15/2021  19:16:00       52.623     -116.631      -15.481       60.135       42.421       27.978     3616.271     1799.549      782.774        1.140        0.310      127.953       35.698        0.078      339.333       12.595      870.835
01/15/2021  19:17:00      105.621     -139.733      -25.732       66.585       41.838       31.792     4433.560     1750.425     1010.738        1.927        0.360      175.160       36.757        0.044      339.417       12.734      870.818
01/15/2021  19:18:00      104.263      -50.943      -24.707       53.789       51.553       31.404     2893.273     2657.737      986.200        1.031        0.327      116.043       34.479        0.088      339.365       12.648      870.797
01/15/2021  19:19:00       51.955      -22.699      -20.229       53.170       36.878       26.343     2826.998     1359.979      693.946        0.425        0.244       56.697       28.236        0.248      339.224       12.410      870.779
01/15/2021  19:20:00       72.626      -40.553      -15.753       57.438       30.091       27.901     3299.132      905.478      778.481        0.607        0.249       83.181       28.653        0.119      339.159       12.301      870.769
01/15/2021  19:21:00        4.510      -23.954      -21.318       51.433       25.633       25.567     2645.354      657.038      653.675        0.250        0.198       24.375       32.461        1.774      339.136       12.262      870.756
01/15/2021  19:22:00       32.753      -35.735       -5.428       53.463       31.594       27.020     2858.322      998.166      730.084        0.348        0.229       48.474       32.225        0.442      339.111       12.221      870.741
01/15/2021  19:23:00        9.106      -15.473       -5.625       56.498       28.614       27.842     3191.984      818.742      775.160        0.257        0.239       17.954       25.338        1.992      339.087       12.180      870.716
01/15/2021  19:24:00       88.567      -58.089      -33.048       57.390       49.284       34.907     3293.638     2428.914     1218.500        0.962        0.347      105.917       29.279        0.076      339.157       12.298      870.688
01/15/2021  19:25:00       77.164      -12.630      -27.016       75.196       57.030       48.799     5654.513     3252.426     2381.353        0.906        0.564       78.191       50.465        0.417      339.099       12.201      870.689
01/15/2021  19:26:00       74.399      -57.235      -31.847       59.239       44.142       28.729     3509.231     1948.527      825.375        0.805        0.314       93.867       31.943        0.116      339.106       12.213      870.729
01/15/2021  19:27:00       23.072      -38.838      -10.035       51.665       30.388       27.863     2669.252      923.435      776.338        0.325        0.218       45.174       33.358        0.545      339.091       12.186      870.776
01/15/2021  19:28:00        2.217       -3.475      -10.469       43.784       11.986       22.448     1917.015      143.673      503.909        0.135        0.128        4.122       29.727       52.017      339.027       12.080      870.826
01/15/2021  19:29:00       36.897       -3.206      -12.860       48.841       19.316       23.971     2385.459      373.102      574.617        0.243        0.167       37.036       30.759        0.690      339.004       12.041      870.870
01/15/2021  19:30:00      105.561      -42.766      -25.711       61.802       23.610       29.762     3819.461      557.452      885.798        0.945        0.263      113.895       40.223        0.125      339.018       12.064      870.860
01/15/2021  19:31:00       41.543      -11.219       -7.877       71.760       35.472       41.536     5149.512     1258.284     1725.217        0.502        0.407       43.031       45.585        1.122      338.976       11.992      870.825
01/15/2021  19:32:00       56.862       -1.555       -6.579       75.375       30.676       38.170     5681.414      941.015     1456.966        0.568        0.404       56.883       46.044        0.655      339.012       12.053      870.841
01/15/2021  19:33:00      127.633       43.831      -25.617       74.499       36.841       34.115     5550.049     1357.240     1163.829        1.347        0.404      134.949       43.554        0.104      338.916       11.894      870.840
01/15/2021  19:34:00      132.308       63.851      -21.029       56.031       36.856       30.408     3139.515     1358.333      924.617        1.372        0.271      146.909       32.877        0.050      338.807       11.709      870.837
01/15/2021  19:35:00      103.531       79.889       -9.431       67.357       33.653       31.310     4537.021     1132.546      980.300        1.192        0.332      130.770       34.487        0.070      338.641       11.431      870.844
01/15/2021  19:36:00       88.120       84.866       -3.242       69.389       42.069       38.608     4814.771     1769.813     1490.577        1.152        0.404      122.342       43.927        0.129      338.664       11.470      870.872
01/15/2021  19:37:00       72.775       66.939      -11.444       61.399       47.052       36.672     3769.832     2213.850     1344.848        0.862        0.366       98.879       36.190        0.134      338.698       11.524      870.920
01/15/2021  19:38:00       71.937      108.613      -13.075       57.048       41.695       34.283     3254.527     1738.447     1175.340        1.165        0.308      130.276       36.555        0.079      338.831       11.750      870.971
01/15/2021  19:39:00       50.742      142.675      -19.424       42.408       28.439       21.775     1798.398      808.760      474.149        1.319        0.154      151.429       24.035        0.025      338.851       11.783      871.022
01/15/2021  19:40:00        8.273      110.480      -17.708       48.699       49.722       29.048     2371.593     2472.268      843.778        0.914        0.284      110.790       26.048        0.055      338.938       11.930      871.068
01/15/2021  19:41:00       23.045       61.070      -12.790       52.066       29.133       26.721     2710.855      848.704      713.999        0.435        0.214       65.273       31.844        0.238      338.978       11.997      871.083
01/15/2021  19:42:00       52.357       35.644      -10.617       52.881       21.644       26.223     2796.379      468.458      687.645        0.404        0.198       63.338       33.397        0.278      338.978       11.995      871.013
01/15/2021  19:43:00       10.694      -33.208      -14.642       43.128       19.105       21.715     1860.031      365.006      471.540        0.206        0.135       34.888       26.742        0.588      338.928       11.912      870.932
01/15/2021  19:44:00       17.899      -25.540      -18.885       50.902       13.729       25.944     2591.001      188.479      673.114        0.239        0.173       31.187       33.612        1.162      338.940       11.933      870.849
01/15/2021  19:45:00       75.136      -62.874      -27.447       58.756       17.747       27.136     3452.310      314.953      736.350        0.743        0.225       97.972       38.769        0.157      338.995       12.024      870.730
01/15/2021  19:46:00       55.973      -69.151      -21.674       58.078       16.527       28.185     3373.025      273.126      794.373        0.641        0.222       88.965       38.069        0.183      339.032       12.088      870.648
01/15/2021  19:47:00       26.216      -20.318       -9.184       51.493       14.124       26.525     2651.533      199.488      703.587        0.237        0.178       33.168       35.273        1.131      338.999       12.033      870.596
01/15/2021  19:48:00       46.569      -53.042      -19.829       55.023       23.010       28.157     3027.550      529.460      792.804        0.486        0.217       70.584       34.977        0.246      339.120       12.234      870.568
01/15/2021  19:49:00       66.821       -8.595      -11.645       45.991       29.389       25.560     2115.144      863.715      653.314        0.415        0.182       67.371       30.381        0.203      339.160       12.302      870.584
01/15/2021  19:50:00       12.248       46.179      -16.033       47.559       13.930       21.090     2261.840      194.058      444.777        0.272        0.145       47.776       28.695        0.361      339.168       12.316      870.611
01/15/2021  19:51:00        7.721       47.457      -12.386       53.935       14.508       27.013     2908.995      210.491      729.700        0.316        0.192       48.081       28.863        0.360      339.143       12.275      870.646
01/15/2021  19:52:00       37.855      114.163      -13.408       41.511       43.980       22.718     1723.132     1934.273      516.093        0.941        0.209      120.276       25.835        0.046      339.038       12.097      870.685
01/15/2021  19:53:00       58.454      121.206      -19.220       38.949       53.312       22.301     1517.005     2842.196      497.355        1.167        0.243      134.565       25.014        0.035      339.012       12.054      870.684
01/15/2021  19:54:00      102.457       64.795      -16.006       55.838       25.753       30.530     3117.860      663.202      932.066        0.983        0.236      121.227       33.146        0.075      338.908       11.878      870.664
01/15/2021  19:55:00      121.853       80.089       -9.349       57.008       22.612       34.979     3249.918      511.315     1223.522        1.317        0.249      145.817       37.142        0.065      338.853       11.787      870.666
01/15/2021  19:56:00       94.986       66.390       -9.527       64.564       28.223       33.730     4168.537      796.521     1137.691        0.981        0.305      115.888       39.830        0.118      338.894       11.855      870.686
01/15/2021  19:57:00       68.081       64.284       -7.668       58.225       32.371       29.527     3390.182     1047.878      871.842        0.707        0.265       93.634       33.270        0.126      338.943       11.938      870.688
01/15/2021  19:58:00       57.133       45.494      -11.712       55.208       33.163       29.027     3047.897     1099.774      842.573        0.523        0.250       73.034       35.437        0.235      338.969       11.982      870.679
01/15/2021  19:59:00       42.576       37.994      -11.358       46.841       18.706       26.712     2194.082      349.905      713.538        0.332        0.163       57.064       30.424        0.284      338.940       11.933      870.652
01/15/2021  20:00:00       37.169       21.614      -17.053       44.248       18.364       22.265     1957.867      337.241      495.740        0.246        0.140       42.997       29.885        0.483      338.991       12.017      870.635
01/15/2021  20:01:00      -25.316        7.427      -15.953       54.314       10.562       22.554     2950.014      111.550      508.675        0.226        0.179       26.383       24.355        0.852      338.797       11.692      870.622
01/15/2021  20:02:00      -42.393       -4.501      -14.174       55.497       18.409       29.012     3079.889      338.905      841.719        0.314        0.213       42.631       24.438        0.329      338.732       11.584      870.631
01/15/2021  20:03:00      -65.544        3.779       -8.498       44.077       19.816       19.392     1942.778      392.687      376.067        0.355        0.136       65.653       18.340        0.078      338.806       11.706      870.666
01/15/2021  20:04:00      -65.553        8.952       -7.553       51.765       18.533       21.547     2679.655      343.486      464.277        0.396        0.174       66.162       20.129        0.093      338.771       11.648      870.706
01/15/2021  20:05:00      -51.963      -25.466       -5.462       65.059       30.063       34.692     4232.630      903.762     1203.559        0.486        0.317       57.868       19.360        0.112      338.821       11.734      870.738
01/15/2021  20:06:00        6.404       -4.390       -4.424       52.601       38.273       31.358     2766.906     1464.834      983.298        0.265        0.261        7.764       29.310       14.252      338.818       11.727      870.766
01/15/2021  20:07:00        0.487       -1.869       -7.940       39.534       21.885       22.711     1562.955      478.932      515.781        0.131        0.128        1.931       19.666      103.685      338.833       11.754      870.782
01/15/2021  20:08:00       24.884       32.305      -22.278       46.460       22.253       26.261     2158.536      495.186      689.652        0.275        0.167       40.778       27.709        0.462      338.909       11.880      870.780
01/15/2021  20:09:00       18.023       30.501      -11.921       46.405       14.223       22.562     2153.381      202.290      509.027        0.213        0.143       35.428       30.557        0.744      338.960       11.967      870.753
01/15/2021  20:10:00        9.608       66.617      -16.727       42.099       33.206       24.014     1772.354     1102.645      576.659        0.413        0.173       67.306       24.188        0.129      339.031       12.086      870.724
01/15/2021  20:11:00      -51.739       38.187      -31.783       58.373       37.315       24.449     3407.380     1392.424      597.769        0.527        0.270       64.305       31.522        0.240      339.099       12.201      870.715
01/15/2021  20:12:00      -63.516       88.879      -15.421       47.483       32.315       23.772     2254.671     1044.256      565.125        0.802        0.193      109.242       22.254        0.041      339.111       12.221      870.722
01/15/2021  20:13:00      -57.864       53.276      -12.027       58.396       40.186       25.378     3410.065     1614.922      644.025        0.600        0.283       78.655       18.746        0.057      338.969       11.982      870.725
01/15/2021  20:14:00      -56.863       46.691      -11.136       59.825       48.923       33.414     3579.061     2393.481     1116.504        0.631        0.354       73.576       16.472        0.050      339.073       12.157      870.716
01/15/2021  20:15:00      -46.976      125.395       -7.563       58.406       61.508       26.137     3411.317     3783.175      683.121        1.293        0.394      133.905       18.601        0.019      339.202       12.373      870.697
01/15/2021  20:16:00      -31.659       89.472       -4.015       45.348       36.175       30.874     2056.472     1308.648      953.181        0.667        0.216       94.908       19.031        0.040      339.270       12.488      870.682
01/15/2021  20:17:00      -27.830       91.452       -7.193       39.263       24.948       28.933     1541.598      622.395      837.122        0.609        0.150       95.593       19.995        0.044      339.203       12.375      870.689
01/15/2021  20:18:00      -46.615      125.552      -18.917       40.442       35.165       25.232     1635.589     1236.601      636.642        1.090        0.175      133.926       25.670        0.037      339.235       12.430      870.701
01/15/2021  20:19:00        6.729       65.923      -10.099       46.591       25.871       24.559     2170.702      669.293      603.128        0.397        0.172       66.266       26.760        0.163      339.151       12.286      870.707
01/15/2021  20:20:00       29.678       96.656      -11.351       48.449       32.874       30.786     2347.281     1080.706      947.793        0.736        0.219      101.109       27.106        0.072      339.140       12.270      870.705
01/15/2021  20:21:00       67.159      100.711      -23.033       69.293       48.313       32.645     4801.520     2334.104     1065.683        1.169        0.410      121.050       38.893        0.103      339.164       12.310      870.690
01/15/2021  20:22:00       77.695      178.702      -25.975       53.102       31.175       29.745     2819.770      971.885      884.757        2.166        0.234      194.861       33.801        0.030      339.262       12.474      870.676
01/15/2021  20:23:00       36.551       92.400      -16.077       52.241       37.889       25.790     2729.170     1435.540      665.142        0.748        0.241       99.367       31.540        0.101      339.287       12.517      870.664
01/15/2021  20:24:00       -1.750       29.728      -14.927       53.091       21.258       25.482     2818.618      451.884      649.317        0.251        0.196       29.780       23.462        0.621      339.146       12.279      870.655
01/15/2021  20:25:00       57.665       12.716      -21.730       45.041       41.088       25.158     2028.704     1688.262      632.945        0.415        0.217       59.050       30.249        0.262      339.099       12.201      870.651
01/15/2021  20:26:00        8.566      -45.387      -17.247       53.464       23.512       25.389     2858.429      552.810      644.614        0.324        0.203       46.188       27.931        0.366      339.083       12.174      870.630
01/15/2021  20:27:00       24.212      -44.356      -25.666       49.663       28.416       22.046     2466.415      807.489      486.017        0.349        0.188       50.534       28.143        0.310      339.075       12.159      870.611
01/15/2021  20:28:00      -11.359       -7.531      -10.970       46.469       23.673       24.952     2159.368      560.431      622.585        0.182        0.167       13.629       25.166        3.410      339.003       12.037      870.604
01/15/2021  20:29:00       18.207       13.829      -15.018       42.886       20.294       21.432     1839.194      411.863      459.326        0.173        0.136       22.863       26.815        1.376      338.927       11.911      870.618
01/15/2021  20:30:00       37.092      -33.770      -21.207       47.627       20.534       27.281     2268.358      421.656      744.279        0.320        0.172       50.162       31.946        0.406      338.914       11.889      870.633
01/15/2021  20:31:00       70.373      -76.344      -27.944       49.237       32.826       26.150     2424.237     1077.519      683.835        0.787        0.209      103.830       31.382        0.091      339.012       12.054      870.634
01/15/2021  20:32:00       77.333       -3.895      -17.925       55.977       50.696       29.656     3133.399     2570.081      879.488        0.645        0.329       77.431       37.607        0.236      338.979       11.997      870.666
01/15/2021  20:33:00       47.740      -33.776      -23.822       46.047       28.418       28.016     2120.350      807.609      784.884        0.385        0.186       58.480       30.424        0.271      338.927       11.912      870.694
01/15/2021  20:34:00       85.347      -51.703      -37.064       56.873       41.002       33.554     3234.580     1681.179     1125.895        0.869        0.302       99.786       37.478        0.141      338.959       11.964      870.712
01/15/2021  20:35:00       47.370      -21.763      -28.095       58.617       35.318       31.599     3436.009     1247.373      998.511        0.459        0.284       52.130       37.938        0.530      338.784       11.670      870.726
01/15/2021  20:36:00       58.996       15.585      -17.076       55.142       35.821       26.243     3040.602     1283.152      688.679        0.451        0.251       61.020       26.052        0.182      338.816       11.723      870.751
01/15/2021  20:37:00       93.093      -52.406      -21.319       70.704       54.144       32.642     4999.044     2931.566     1065.514        1.043        0.450      106.830       38.068        0.127      339.067       12.148      870.735
01/15/2021  20:38:00       60.284      -45.845      -16.355       66.768       62.664       36.713     4457.982     3926.819     1347.818        0.787        0.487       75.736       38.160        0.254      339.059       12.133      870.724
01/15/2021  20:39:00       53.972      -18.026      -10.256       60.597       40.953       33.888     3672.045     1677.178     1148.420        0.492        0.325       56.902       36.643        0.415      339.063       12.140      870.734
01/15/2021  20:40:00      -17.571       39.970       -6.287       47.621       24.531       25.745     2267.737      601.751      662.805        0.274        0.177       43.661       29.950        0.471      338.928       11.914      870.728
01/15/2021  20:41:00      -41.775       21.457      -12.917       45.562       11.238       23.728     2075.929      126.300      563.028        0.257        0.138       46.964       23.610        0.253      338.961       11.967      870.722
01/15/2021  20:42:00       76.510       29.526      -14.877       61.181       21.919       29.023     3743.159      480.460      842.320        0.601        0.253       82.010       38.963        0.226      338.888       11.845      870.736
01/15/2021  20:43:00       55.081       29.281      -23.596       56.445       21.703       27.055     3186.060      471.038      731.970        0.442        0.219       62.380       35.732        0.328      338.751       11.616      870.758
01/15/2021  20:44:00       70.975       49.434      -21.451       54.109       22.583       27.225     2927.766      510.001      741.210        0.606        0.209       86.494       35.794        0.171      338.613       11.383      870.793
01/15/2021  20:45:00       55.230       18.621      -10.497       46.565       16.600       23.208     2168.301      275.569      538.600        0.324        0.149       58.285       30.601        0.276      338.497       11.190      870.814
01/15/2021  20:46:00       89.005       22.302       -7.747       48.102       28.910       25.936     2313.768      835.761      672.674        0.615        0.191       91.757       30.531        0.111      338.321       10.892      870.818
01/15/2021  20:47:00      108.452       30.199       -7.578       53.188       19.465       26.520     2828.982      378.897      703.285        0.832        0.196      112.578       34.714        0.095      338.625       11.403      870.830
01/15/2021  20:48:00      110.169       61.253      -13.504       56.349       34.346       35.077     3175.187     1179.672     1230.384        1.083        0.279      126.053       40.425        0.103      338.650       11.444      870.845
01/15/2021  20:49:00      137.319       48.686      -23.821       58.405       17.972       28.986     3411.173      322.986      840.172        1.318        0.229      145.695       37.090        0.065      338.809       11.712      870.845
01/15/2021  20:50:00       55.271       19.503      -23.938       50.653       38.287       31.534     2565.716     1465.907      994.421        0.452        0.251       58.611       31.303        0.285      338.671       11.481      870.847
01/15/2021  20:51:00       43.344       19.728       -7.198       50.279       31.916       30.353     2527.961     1018.601      921.312        0.339        0.223       47.622       32.657        0.470      338.549       11.277      870.858
01/15/2021  20:52:00        9.164       -1.714       -0.478       45.378       28.401       29.498     2059.207      806.607      870.147        0.191        0.187        9.323       30.615       10.783      338.559       11.293      870.864
01/15/2021  20:53:00       61.355      -26.498       -8.713       53.616       14.582       25.100     2874.709      212.636      630.014        0.413        0.186       66.832       33.076        0.245      338.667       11.474      870.862
01/15/2021  20:54:00       51.295      -18.509      -14.558       71.506       36.391       34.790     5113.050     1324.321     1210.347        0.542        0.382       54.532       42.895        0.619      338.652       11.448      870.834
01/15/2021  20:55:00       47.144      -13.131       -7.342       53.194       29.093       28.882     2829.600      846.409      834.164        0.348        0.226       48.938       32.811        0.450      338.680       11.496      870.814
01/15/2021  20:56:00       60.761      -39.283      -14.650       60.998       39.401       28.581     3720.763     1552.406      816.862        0.577        0.305       72.354       36.697        0.257      338.864       11.805      870.807
01/15/2021  20:57:00       71.197      -33.923      -11.728       54.178       32.414       32.812     2935.276     1050.646     1076.619        0.571        0.253       78.866       37.581        0.227      338.898       11.862      870.809
01/15/2021  20:58:00       44.002      -27.145      -13.892       49.302       32.642       30.558     2430.730     1065.471      933.812        0.365        0.222       51.702       32.964        0.407      338.691       11.515      870.814
01/15/2021  20:59:00       35.406      -14.415      -12.720       48.971       29.096       28.784     2398.203      846.588      828.517        0.285        0.204       38.228       31.953        0.699      338.661       11.463      870.822
01/15/2021  21:00:00       40.555      -34.880      -14.597       55.267       19.697       26.832     3054.479      387.974      719.932        0.362        0.208       53.491       32.171        0.362      338.693       11.517      870.847
01/15/2021  21:01:00        2.102        5.186       -6.287       42.776       11.851       22.900     1829.782      140.456      524.422        0.128        0.125        5.596       27.758       24.608      338.707       11.541      870.869
01/15/2021  21:02:00       25.606        2.469      -10.904       56.933       24.692       24.191     3241.422      609.671      585.193        0.261        0.222       25.725       34.781        1.828      338.636       11.423      870.881
01/15/2021  21:03:00       79.012     -106.076      -21.020       74.038       53.530       40.145     5481.602     2865.473     1611.602        1.395        0.498      132.269       47.951        0.131      338.771       11.648      870.881
01/15/2021  21:04:00       99.273     -140.211      -35.270       65.971       30.115       31.405     4352.208      906.913      986.261        1.850        0.312      171.797       41.753        0.059      338.691       11.514      870.883
01/15/2021  21:05:00      116.067     -161.136      -34.222       59.369       25.594       30.255     3524.628      655.034      915.352        2.285        0.255      198.586       39.379        0.039      338.852       11.782      870.886
01/15/2021  21:06:00      103.005     -126.102      -33.299       54.760       28.817       27.180     2998.657      830.445      738.741        1.609        0.228      162.825       35.525        0.048      338.809       11.713      870.903
01/15/2021  21:07:00       72.134      -98.030      -25.551       72.727       36.918       31.609     5289.197     1362.924      999.157        1.156        0.383      121.709       37.385        0.094      338.855       11.789      870.929
01/15/2021  21:08:00       44.781      -71.321      -17.405       48.511       30.004       27.569     2353.319      900.262      760.046        0.570        0.201       84.214       32.027        0.145      338.879       11.831      870.947
01/15/2021  21:09:00       20.258       11.224      -15.423       43.713       25.803       24.870     1910.864      665.805      618.497        0.198        0.160       23.160       31.685        1.872      338.724       11.570      870.969
01/15/2021  21:10:00       43.518       20.643       -8.962       47.841       15.138       22.964     2288.785      229.146      527.355        0.272        0.152       48.166       29.825        0.383      338.779       11.661      870.974
01/15/2021  21:11:00       -1.242       10.574       -9.099       49.329       17.854       22.455     2433.307      318.755      504.227        0.173        0.163       10.647       24.332        5.223      338.806       11.707      870.965
01/15/2021  21:12:00      -60.142        2.866      -14.705       31.183        8.555       16.993      972.355       73.189      288.764        0.259        0.067       60.211       20.136        0.112      338.487       11.171      870.956
01/15/2021  21:13:00      -50.367        3.318      -12.045       41.926       10.762       20.709     1757.785      115.812      428.879        0.250        0.115       50.476       25.753        0.260      338.544       11.267      870.946
01/15/2021  21:14:00      -39.149       -9.120       -3.572       50.493       19.811       23.960     2549.592      392.480      574.072        0.257        0.176       40.197       18.470        0.211      338.371       10.978      870.949
01/15/2021  21:15:00      -29.029      -20.692       -1.263       60.543       22.607       25.455     3665.463      511.064      647.967        0.305        0.241       35.648       13.653        0.147      338.318       10.889      870.938
01/15/2021  21:16:00      -14.917       17.089       -3.354       33.764       18.846       23.163     1139.985      355.189      536.527        0.128        0.102       22.683       21.287        0.881      338.220       10.722      870.933
01/15/2021  21:17:00       16.106       11.521       -6.339       40.108       22.386       20.028     1608.618      501.121      401.139        0.147        0.126       19.803       26.152        1.744      338.392       11.013      870.931
01/15/2021  21:18:00       11.467       60.465      -13.486       45.550       16.462       22.625     2074.848      270.995      511.885        0.341        0.143       61.543       29.601        0.231      338.670       11.479      870.921
01/15/2021  21:19:00       31.589       23.442       -9.781       56.320       15.933       24.161     3171.976      253.849      583.772        0.283        0.200       39.337       30.507        0.601      338.736       11.589      870.904
01/15/2021  21:20:00       93.858        2.625      -13.725       48.761       15.834       25.920     2377.661      250.709      671.821        0.615        0.165       93.894       33.193        0.125      338.638       11.424      870.897
01/15/2021  21:21:00       45.879        0.294       -9.625       39.795       22.560       22.554     1583.681      508.952      508.685        0.240        0.130       45.880       25.811        0.316      338.060       10.453      870.900
01/15/2021  21:22:00       99.706       21.922      -12.942       59.763       35.579       32.238     3571.613     1265.890     1039.310        0.823        0.294      102.088       32.464        0.101      338.516       11.222      870.885
01/15/2021  21:23:00      148.432       42.759      -18.676       78.856       31.520       37.647     6218.262      993.505     1417.293        1.642        0.431      154.468       49.063        0.101      339.209       12.385      870.870
01/15/2021  21:24:00       87.007       38.932       -6.110       72.895       48.629       33.607     5313.702     2364.814     1129.456        0.896        0.440       95.320       43.592        0.209      338.808       11.711      870.876
01/15/2021  21:25:00       85.179       32.328      -15.577       80.681       52.528       34.434     6509.346     2759.153     1185.733        0.950        0.523       91.108       31.969        0.123      338.656       11.454      870.881
01/15/2021  21:26:00      152.681       63.004      -21.246       60.974       39.374       31.535     3717.804     1550.290      994.442        1.700        0.313      165.169       36.713        0.049      338.797       11.694      870.890
01/15/2021  21:27:00      165.272       87.730      -16.166       62.152       44.935       32.996     3862.890     2019.137     1088.710        2.112        0.349      187.114       33.212        0.032      338.768       11.642      870.898
01/15/2021  21:28:00      135.524       61.513      -22.123       68.894       37.582       32.091     4746.412     1412.417     1029.805        1.491        0.359      148.830       35.828        0.058      338.750       11.612      870.923
01/15/2021  21:29:00      -15.716       56.865      -18.743       62.678       52.869       28.792     3928.519     2795.163      828.965        0.569        0.378       58.997       17.688        0.090      338.482       11.162      870.945
01/15/2021  21:30:00      -25.404        4.791        0.816       42.372       17.474       18.138     1795.408      305.349      329.005        0.155        0.121       25.852       17.664        0.467      338.037       10.416      870.957
01/15/2021  21:31:00      -35.337       -0.290        0.159       46.376       14.902       18.294     2150.757      222.057      334.670        0.198        0.135       35.338       11.029        0.097      338.126       10.564      870.988
01/15/2021  21:32:00        7.802      -33.610      -17.651       43.538       23.750       24.998     1895.531      564.066      624.879        0.229        0.154       34.503       30.196        0.766      338.096       10.515      871.006
01/15/2021  21:33:00       -5.279      -10.452      -21.329       42.752       25.962       23.834     1827.718      674.038      568.083        0.183        0.153       11.709       28.346        5.860      338.108       10.536      871.021
01/15/2021  21:34:00      -11.994      -12.964      -18.423       41.298       19.083       20.671     1705.541      364.149      427.306        0.157        0.125       17.661       26.690        2.284      338.260       10.791      871.022
01/15/2021  21:35:00       11.705        5.403       -9.024       44.122       14.090       21.542     1946.730      198.519      464.050        0.143        0.130       12.892       24.283        3.548      338.176       10.648      871.027
01/15/2021  21:36:00       22.428       34.462       -6.174       39.525       20.625       19.473     1562.206      425.408      379.202        0.205        0.118       41.117       24.614        0.358      338.075       10.481      871.042
01/15/2021  21:37:00       26.510       51.225      -11.104       44.719       22.146       23.924     1999.755      490.427      572.358        0.326        0.153       57.678       26.498        0.211      337.950       10.269      871.044
01/15/2021  21:38:00       54.695       38.351       -7.474       35.133       16.473       19.617     1234.306      271.376      384.837        0.320        0.095       66.800       23.684        0.126      337.762        9.955      871.041
01/15/2021  21:39:00       33.621       13.032       -5.576       35.084       13.782       16.859     1230.889      189.955      284.227        0.152        0.085       36.059       22.057        0.374      337.835       10.079      871.044
01/15/2021  21:40:00       -2.951       28.164       -2.192       36.373       16.167       18.837     1322.976      261.380      354.823        0.137        0.097       28.318       17.316        0.374      337.964       10.294      871.046
01/15/2021  21:41:00       -3.973       76.014       -3.163       47.467       23.462       22.589     2253.151      550.464      510.272        0.456        0.166       76.118       28.951        0.145      338.038       10.418      871.040
01/15/2021  21:42:00       -1.028       91.400       -7.586       34.426       18.689       19.572     1185.129      349.296      383.059        0.516        0.096       91.406       19.455        0.045      337.991       10.339      871.046
01/15/2021  21:43:00       -5.639      101.381      -14.302       33.683       10.495       15.702     1134.566      110.147      246.567        0.600        0.075      101.538       20.712        0.042      338.131       10.573      871.053
01/15/2021  21:44:00      -32.584       96.666       -6.561       28.593       18.013       15.468      817.551      324.475      239.254        0.591        0.069      102.010       14.115        0.019      338.315       10.883      871.057
01/15/2021  21:45:00      -11.254       71.663       -9.311       30.797       26.571       17.693      948.440      706.029      313.048        0.366        0.098       72.541       17.874        0.061      338.356       10.951      871.046
01/15/2021  21:46:00      -12.365       28.250       -1.494       38.922       23.409       19.258     1514.940      547.978      370.868        0.169        0.122       30.838       19.874        0.415      338.040       10.421      871.043
01/15/2021  21:47:00       -1.262       57.911        1.078       35.120       46.638       21.282     1233.441     2175.062      452.931        0.361        0.193       57.925       24.266        0.175      338.222       10.727      871.029
01/15/2021  21:48:00       54.558       45.789      -13.350       43.122       18.815       22.592     1859.477      354.001      510.398        0.399        0.136       71.227       26.162        0.135      338.277       10.819      871.016
01/15/2021  21:49:00       54.330       29.901       -7.560       46.991       11.615       20.036     2208.164      134.915      401.449        0.332        0.137       62.015       23.639        0.145      338.134       10.579      871.008
01/15/2021  21:50:00       19.308       35.775       -7.219       36.449       19.067       19.682     1328.543      363.536      387.373        0.189        0.104       40.653       23.477        0.334      338.288       10.836      871.003
01/15/2021  21:51:00       28.442       25.460       -9.767       38.727       15.379       20.080     1499.811      236.524      403.212        0.185        0.107       38.173       26.261        0.473      338.215       10.714      870.999
01/15/2021  21:52:00       51.112       31.301       -4.235       39.230       11.684       18.562     1538.998      136.521      344.542        0.281        0.101       59.935       25.094        0.175      338.110       10.539      871.002
01/15/2021  21:53:00       37.282       49.147       -5.567       35.690       16.936       18.437     1273.792      286.840      339.922        0.287        0.095       61.687       21.036        0.116      338.020       10.389      871.003
01/15/2021  21:54:00       34.726       57.835       -9.498       45.167       24.244       23.119     2040.013      587.782      534.474        0.390        0.158       67.460       27.385        0.165      338.046       10.432      871.001
01/15/2021  21:55:00       -7.284       28.299       -4.213       39.764       42.538       25.260     1581.186     1809.455      638.081        0.245        0.201       29.222       23.260        0.634      337.975       10.312      870.992
01/15/2021  21:56:00      -49.225        4.048      -18.021       37.038       17.805       20.584     1371.815      317.033      423.720        0.244        0.106       49.391       17.069        0.119      337.695        9.842      870.984
01/15/2021  21:57:00      -64.726       15.664       -9.191       48.580       22.913       20.073     2359.986      525.014      402.942        0.390        0.164       66.594        8.809        0.017      337.836       10.079      870.989
01/15/2021  21:58:00      -10.781       12.513       -4.913       52.352       29.058       23.885     2740.699      844.349      570.488        0.223        0.208       16.517       27.086        2.689      338.028       10.401      870.996
01/15/2021  21:59:00       27.106       21.152      -12.599       46.505       19.375       23.580     2162.734      375.404      556.007        0.222        0.155       34.382       28.676        0.696      338.009       10.369      871.009
01/15/2021  22:00:00       11.803      -25.916       -7.402       39.442       21.445       18.868     1555.647      459.887      356.003        0.162        0.119       28.477       25.549        0.805      338.045       10.430      871.017
01/15/2021  22:01:00        5.333      -41.046      -20.110       41.194       13.620       19.697     1696.916      185.502      387.986        0.219        0.114       41.391       23.237        0.315      337.886       10.162      871.029
01/15/2021  22:02:00       14.306      -20.213       -5.130       45.050       14.356       23.661     2029.526      206.083      559.836        0.172        0.140       24.764       29.676        1.436      337.779        9.984      871.050
01/15/2021  22:03:00      -45.210      -31.075      -11.190       44.463       16.327       17.448     1976.982      266.571      304.416        0.284        0.127       54.860       18.648        0.116      337.876       10.147      871.059
01/15/2021  22:04:00       29.759      -50.541      -22.225       40.396       16.519       21.169     1631.815      272.888      448.131        0.314        0.118       58.651       25.996        0.196      337.639        9.749      871.058
01/15/2021  22:05:00       11.281      -26.279      -18.741       39.870       30.429       23.579     1589.654      925.914      555.988        0.212        0.154       28.598       29.274        1.048      337.733        9.906      871.045
01/15/2021  22:06:00      -31.354       -6.926      -11.797       33.828       22.746       18.381     1144.317      517.382      337.870        0.158        0.100       32.110       18.078        0.317      337.401        9.350      871.030
01/15/2021  22:07:00      -44.226      -15.744       -1.146       53.472       24.528       24.837     2859.249      601.641      616.882        0.314        0.204       46.945       21.524        0.210      337.300        9.181      871.022
01/15/2021  22:08:00     -120.977      -29.915       -7.573       42.575       28.484       24.145     1812.604      811.318      582.963        0.940        0.160      124.621       12.115        0.009      337.442        9.418      871.015
01/15/2021  22:09:00      -97.394      -12.938       -4.472       57.055       33.775       31.367     3255.290     1140.770      983.875        0.753        0.269       98.250       22.791        0.054      337.472        9.469      871.015
01/15/2021  22:10:00      -69.877      -10.672       -0.394       46.323       26.348       20.090     2145.813      694.243      403.595        0.412        0.162       70.687        9.311        0.017      337.437        9.409      871.029
01/15/2021  22:11:00      -68.585      -12.845       -8.587       41.400       32.375       19.918     1713.994     1048.146      396.730        0.405        0.158       69.778       17.101        0.060      337.530        9.565      871.049
01/15/2021  22:12:00      -56.566        1.722       -3.133       39.114       19.527       19.996     1529.908      381.294      399.831        0.276        0.116       56.593       11.879        0.044      337.466        9.457      871.063
01/15/2021  22:13:00      -73.016       10.463        0.091       34.008       22.614       19.944     1156.578      511.395      397.774        0.375        0.103       73.762        6.774        0.008      337.425        9.390      871.085
01/15/2021  22:14:00      -47.968       31.094        2.304       57.199       26.946       26.184     3271.740      726.107      685.598        0.398        0.234       57.164       14.254        0.062      337.342        9.252      871.120
01/15/2021  22:15:00      -63.388       31.402       -3.721       44.201       39.331       23.522     1953.702     1546.921      553.300        0.454        0.203       70.740       14.633        0.043      337.401        9.351      871.142
01/15/2021  22:16:00     -105.789       58.451      -10.065       50.151       35.659       27.251     2515.135     1271.582      742.644        0.962        0.226      120.863       12.303        0.010      337.458        9.447      871.144
01/15/2021  22:17:00     -103.285       54.264      -12.539       37.761       33.230       21.159     1425.916     1104.260      447.723        0.837        0.149      116.672        5.416        0.002      337.305        9.191      871.147
01/15/2021  22:18:00     -103.682       17.346      -15.215       43.504       37.058       30.630     1892.571     1373.283      938.208        0.774        0.210      105.123       17.373        0.027      337.142        8.916      871.134
01/15/2021  22:19:00      -88.546       -3.041      -17.189       61.738       39.242       31.184     3811.606     1539.943      972.454        0.723        0.316       88.598       26.071        0.087      337.053        8.767      871.127
01/15/2021  22:20:00      -78.717        9.042       -1.132       54.162       31.312       21.658     2933.473      980.411      469.055        0.533        0.219       79.234        6.263        0.006      337.046        8.754      871.136
01/15/2021  22:21:00      -30.982        7.634        2.884       52.762       34.143       24.216     2783.780     1165.755      586.396        0.278        0.227       31.908       16.879        0.280      336.958        8.609      871.143
01/15/2021  22:22:00     -116.857       11.132      -14.025       41.747       30.120       23.250     1742.851      907.204      540.546        0.858        0.160      117.386       12.365        0.011      336.999        8.676      871.158
01/15/2021  22:23:00      -33.493        6.786       -0.470       63.014       24.979       23.308     3970.770      623.937      543.247        0.315        0.257       34.174       13.240        0.150      336.854        8.437      871.163
01/15/2021  22:24:00        5.253      -32.415      -15.083       38.659       20.246       17.444     1494.516      409.906      304.304        0.176        0.110       32.837       16.361        0.248      336.926        8.556      871.168
01/15/2021  22:25:00       17.895      -19.229      -22.018       36.641       14.572       18.866     1342.558      212.345      355.927        0.154        0.096       26.267       25.012        0.907      336.940        8.578      871.167
01/15/2021  22:26:00      -30.478       20.262       -2.923       31.995       17.526       15.716     1023.673      307.153      246.986        0.146        0.079       36.598       15.584        0.181      336.879        8.478      871.188
01/15/2021  22:27:00      -29.878       26.448        5.218       42.522       25.427       21.842     1808.110      646.523      477.091        0.227        0.147       39.902       21.058        0.279      336.869        8.460      871.204
01/15/2021  22:28:00      -54.482       25.481       -4.628       43.850       17.528       17.938     1922.861      307.247      321.763        0.309        0.128       60.146       14.884        0.061      336.940        8.577      871.220
01/15/2021  22:29:00      -40.914        4.503       -4.796       36.385       27.094       13.636     1323.865      734.058      185.950        0.198        0.112       41.161        5.812        0.020      336.941        8.579      871.216
01/15/2021  22:30:00      -18.408        5.463       -3.455       35.457       14.343       19.670     1257.187      205.714      386.898        0.111        0.092       19.202       18.399        0.918      336.847        8.426      871.218
01/15/2021  22:31:00      -55.841        2.279       -9.993       33.235       19.549       16.264     1104.537      382.151      264.517        0.249        0.088       55.888       15.454        0.076      336.775        8.305      871.220
01/15/2021  22:32:00      -50.662       -6.474       -8.541       44.683       23.676       19.786     1996.563      560.566      391.475        0.281        0.147       51.074       10.711        0.044      336.599        8.009      871.208
01/15/2021  22:33:00      -62.994        7.306       -5.420       60.008       19.896       26.156     3600.964      395.835      684.120        0.436        0.234       63.416       28.385        0.200      336.521        7.879      871.189
01/15/2021  22:34:00      -91.434       36.513       -8.003       28.450       17.648       19.647      809.387      311.459      386.008        0.563        0.075       98.455       15.153        0.024      336.434        7.735      871.179
01/15/2021  22:35:00      -27.962       -0.122        0.932       38.929       19.247       21.411     1515.505      370.435      458.427        0.156        0.117       27.962        8.261        0.087      336.513        7.864      871.178
01/15/2021  22:36:00      -50.478       13.937       -7.027       21.155       11.128       14.480      447.527      123.841      209.676        0.179        0.039       52.367        9.844        0.035      336.650        8.095      871.169
01/15/2021  22:37:00      -52.845        6.695       -5.829       20.805       18.012       11.936      432.852      324.416      142.461        0.189        0.045       53.267        3.865        0.005      336.619        8.043      871.172
01/15/2021  22:38:00      -55.348       12.097       -8.848       26.515       10.188       14.016      703.041      103.788      196.437        0.215        0.050       56.655       15.627        0.076      336.701        8.179      871.160
01/15/2021  22:39:00      -67.662       10.998      -15.834       22.487       12.320       10.617      505.687      151.791      112.714        0.286        0.039       68.550       13.320        0.038      336.689        8.162      871.159
01/15/2021  22:40:00      -39.621       -8.621       -8.608       26.984       15.566       13.669      728.139      242.312      186.831        0.144        0.058       40.548       13.481        0.111      336.500        7.845      871.173
01/15/2021  22:41:00      -49.308       -9.098      -17.989       24.216       11.664       14.875      586.403      136.058      221.278        0.189        0.047       50.140       13.960        0.078      336.277        7.470      871.177
01/15/2021  22:42:00      -20.463       -9.243      -15.597       34.181        9.582       16.532     1168.313       91.809      273.307        0.114        0.077       22.454       17.348        0.597      336.217        7.371      871.175
01/15/2021  22:43:00       -6.199       -7.684       -9.071       31.889        6.076       14.822     1016.881       36.922      219.688        0.073        0.064        9.873       20.193        4.183      336.351        7.595      871.182
01/15/2021  22:44:00        5.608       14.930       -3.335       27.032       24.919       13.702      730.713      620.979      187.758        0.090        0.077       15.949       16.446        1.063      336.830        8.397      871.184
01/15/2021  22:45:00       13.756       66.359      -10.239       27.590       15.128       13.895      761.214      228.860      193.060        0.294        0.059       67.770       16.535        0.060      337.037        8.739      871.187
01/15/2021  22:46:00       -2.898       49.996      -11.323       31.830       34.876       16.972     1013.139     1216.343      288.060        0.258        0.126       50.080       13.525        0.073      336.930        8.562      871.210
01/15/2021  22:47:00       -9.735        7.271       -0.406       31.557       33.449       17.964      995.835     1118.835      322.715        0.129        0.122       12.151       17.156        1.994      336.558        7.940      871.218
01/15/2021  22:48:00       18.022       50.016       -7.284       28.800       25.048       14.582      829.442      627.414      212.649        0.227        0.083       53.164       10.396        0.038      337.094        8.837      871.225
01/15/2021  22:49:00       27.504       37.109       -4.812       33.053       16.998       17.815     1092.531      288.934      317.372        0.193        0.085       46.190       19.806        0.184      337.235        9.072      871.228
01/15/2021  22:50:00       20.621       16.858       -0.258       29.741       10.072       16.243      884.556      101.451      263.830        0.098        0.062       26.634       19.403        0.531      336.979        8.645      871.222
01/15/2021  22:51:00       20.806       53.759        0.770       28.736       19.636       16.128      825.769      385.577      260.117        0.240        0.074       57.645       11.204        0.038      336.863        8.450      871.204
01/15/2021  22:52:00       28.176       38.771       -0.962       34.794       19.022       18.849     1210.604      361.850      355.298        0.211        0.096       47.928       22.621        0.223      336.980        8.644      871.184
01/15/2021  22:53:00        4.840       10.772        6.441       36.513       17.984       15.563     1333.187      323.416      242.219        0.104        0.095       11.809       16.345        1.916      336.847        8.424      871.169
01/15/2021  22:54:00      -27.062       -9.209       -5.704       21.260        8.041       13.522      451.998       64.653      182.836        0.077        0.035       28.586        8.569        0.090      336.494        7.833      871.155
01/15/2021  22:55:00      -40.947       -2.222       -5.213       20.921       12.294       10.915      437.701      151.136      119.139        0.121        0.035       41.007       10.107        0.061      336.143        7.247      871.155
01/15/2021  22:56:00      -63.950       25.874      -11.230       26.062        6.846       13.519      679.207       46.875      182.771        0.290        0.045       68.986       16.070        0.054      336.312        7.528      871.163
01/15/2021  22:57:00      -90.608       22.031       -9.190       14.935        6.943        9.278      223.044       48.199       86.084        0.457        0.018       93.248        6.886        0.005      336.336        7.567      871.177
01/15/2021  22:58:00      -99.055       10.188       -6.477       25.551       10.342       16.181      652.831      106.964      261.821        0.549        0.051       99.578       13.624        0.019      336.288        7.488      871.183
01/15/2021  22:59:00      -43.082      -16.476       -3.608       34.876       26.455       18.070     1216.343      699.888      326.536        0.219        0.112       46.125       15.123        0.107      336.215        7.367      871.182
01/15/2021  23:00:00      -54.258      -25.292       -8.679       31.831       12.427       15.530     1013.185      154.428      241.185        0.253        0.070       59.863        8.385        0.020      336.283        7.479      871.177
01/15/2021  23:01:00      -56.476      -15.891       -2.656       26.544       14.543       15.085      704.572      211.507      227.570        0.230        0.057       58.669        9.993        0.029      336.392        7.662      871.170
01/15/2021  23:02:00      -37.996      -27.293       -6.321       28.396       30.305       16.384      806.331      918.386      268.450        0.211        0.100       46.783       14.818        0.100      336.605        8.021      871.168
01/15/2021  23:03:00      -51.442       16.994       -2.932       30.122       16.709       15.855      907.347      279.183      251.379        0.219        0.072       54.176       12.526        0.053      336.496        7.837      871.161
01/15/2021  23:04:00      -60.329        2.556       -4.351       32.646       18.083       12.607     1065.780      327.007      158.941        0.261        0.078       60.383        9.410        0.024      336.214        7.365      871.157
01/15/2021  23:05:00      -56.687      -12.881        0.963       35.012       20.753       17.700     1225.859      430.668      313.296        0.267        0.098       58.132       10.984        0.036      336.302        7.512      871.163
01/15/2021  23:06:00      -52.230      -18.880        2.537       84.961       35.750       42.404     7218.387     1278.057     1798.130        0.669        0.515       55.538       48.126        0.751      336.417        7.704      871.162
01/15/2021  23:07:00      -87.250      -52.447       -0.089       41.310       43.981       25.260     1706.513     1934.315      638.046        0.732        0.214      101.800       23.257        0.052      336.434        7.733      871.166
01/15/2021  23:08:00      -92.018      -48.284       -8.880       44.886       40.570       23.337     2014.784     1645.902      544.607        0.754        0.210      103.917       20.155        0.038      336.500        7.845      871.185
01/15/2021  23:09:00      -21.901      -26.833       -1.435       42.948       44.615       22.834     1844.523     1990.468      521.380        0.278        0.218       34.636       19.080        0.303      336.367        7.621      871.210
01/15/2021  23:10:00     -101.118      -44.620       -7.562       53.303       59.344       29.421     2841.241     3521.651      865.582        0.975        0.361      110.525       20.809        0.035      336.370        7.625      871.222
01/15/2021  23:11:00      -65.486      -22.511        7.589       60.880       36.784       27.043     3706.394     1353.086      731.304        0.532        0.290       69.247       29.782        0.185      336.205        7.349      871.216
01/15/2021  23:12:00      -78.156      -23.069       -2.657       67.070       32.514       24.587     4498.341     1057.167      604.500        0.640        0.308       81.490       22.948        0.079      336.092        7.160      871.197
01/15/2021  23:13:00      -91.564      -17.195        0.011       80.021       37.724       23.415     6403.403     1423.073      548.247        0.853        0.419       93.165       18.143        0.038      336.014        7.032      871.176
01/15/2021  23:14:00     -111.107      -56.361      -13.599       43.964       36.886       25.697     1932.875     1360.572      660.312        0.983        0.198      124.584       24.980        0.040      335.971        6.959      871.149
01/15/2021  23:15:00      -54.301       14.437       -2.249       57.023       26.306       24.043     3251.647      692.010      578.047        0.384        0.226       56.188       18.835        0.112      335.946        6.919      871.128
01/15/2021  23:16:00     -100.407      -34.207      -14.261       51.026       38.334       28.107     2603.696     1469.465      790.020        0.816        0.243      106.074       17.487        0.027      335.975        6.967      871.121
01/15/2021  23:17:00      -65.360       13.659        0.080       46.616       33.920       20.583     2173.058     1150.568      423.670        0.410        0.187       66.772        9.342        0.020      335.844        6.749      871.124
01/15/2021  23:18:00      -82.935        0.185       -7.884       45.615       33.932       23.096     2080.751     1151.384      533.443        0.535        0.188       82.935        6.798        0.007      335.800        6.676      871.116
01/15/2021  23:19:00      -86.096        9.505       -2.110       47.579       29.996       21.448     2263.783      899.771      460.023        0.556        0.181       86.619       19.337        0.050      335.749        6.591      871.112
01/15/2021  23:20:00      -94.301       -1.469        2.273       56.584       30.964       23.932     3201.727      958.758      572.721        0.682        0.237       94.313       24.956        0.070      335.904        6.849      871.101
01/15/2021  23:21:00     -135.391       17.154       -5.417       41.578       26.384       23.561     1728.752      696.120      555.106        1.082        0.149      136.473       21.596        0.025      335.770        6.625      871.092
01/15/2021  23:22:00     -119.610       15.022       -8.865       50.007       29.232       24.157     2500.688      854.498      583.554        0.927        0.197      120.550       19.303        0.026      335.651        6.426      871.076
01/15/2021  23:23:00      -65.457        1.575      -10.230       58.411       38.476       19.428     3411.831     1480.364      377.466        0.483        0.263       65.476       14.618        0.050      335.624        6.380      871.065
01/15/2021  23:24:00      -53.080       10.565        2.699       55.795       29.630       22.973     3113.048      877.955      527.759        0.373        0.226       54.121       12.094        0.050      335.623        6.380      871.063
01/15/2021  23:25:00      -45.485       13.491        1.656       60.073       33.032       24.462     3608.711     1091.102      598.398        0.377        0.265       47.443       25.242        0.283      335.595        6.334      871.047
01/15/2021  23:26:00      -68.244        5.720        5.667       67.100       34.109       24.783     4502.455     1163.453      614.204        0.550        0.314       68.484       22.813        0.111      335.517        6.204      871.042
01/15/2021  23:27:00      -44.673       -3.647       -8.047       52.876       31.080       23.508     2795.837      965.957      552.641        0.319        0.216       44.821       18.336        0.167      335.516        6.201      871.039
01/15/2021  23:28:00       -4.991       -7.206        0.526       43.704       32.475       26.167     1910.070     1054.626      684.734        0.186        0.182        8.766        8.031        0.839      335.509        6.190      871.045
01/15/2021  23:29:00      -11.922      -15.894       -8.345       33.566       40.624       19.752     1126.688     1650.343      390.154        0.182        0.158       19.868       14.788        0.554      335.536        6.234      871.047
01/15/2021  23:30:00      -12.175        4.148       -1.657       40.764       36.021       24.994     1661.691     1297.543      624.723        0.188        0.179       12.862       12.926        1.010      335.544        6.248      871.041
01/15/2021  23:31:00      -61.442       10.757      -17.344       55.010       30.202       20.224     3026.139      912.173      408.997        0.427        0.217       62.376       18.993        0.093      335.486        6.150      871.027
01/15/2021  23:32:00      -63.214       -3.803      -19.172       56.324       29.716       22.916     3172.411      883.056      525.152        0.448        0.229       63.328       25.610        0.164      335.457        6.104      871.002
01/15/2021  23:33:00      -83.485        5.974       -6.012       61.140       26.365       25.285     3738.127      695.116      639.311        0.606        0.254       83.699       28.712        0.118      335.504        6.180      870.986
01/15/2021  23:34:00      -78.104        1.388      -14.468       47.433       25.818       25.665     2249.860      666.565      658.706        0.494        0.179       78.116       29.340        0.141      335.393        5.997      870.970
01/15/2021  23:35:00      -50.004      -20.989       -8.136       45.458       30.602       26.082     2066.440      936.496      680.276        0.334        0.184       54.230        9.710        0.032      335.277        5.803      870.960
01/15/2021  23:36:00      -15.130       -3.129       -2.209       42.772       37.905       26.285     1829.428     1436.816      690.923        0.210        0.198       15.450       12.883        0.695      335.281        5.810      870.953
01/15/2021  23:37:00     -118.109       -6.465      -20.961       53.695       37.268       23.776     2883.111     1388.915      565.299        0.963        0.242      118.286       11.837        0.010      335.340        5.908      870.931
01/15/2021  23:38:00      -87.188       -1.716       -5.055       68.104       43.231       28.833     4638.168     1868.900      831.353        0.748        0.367       87.205       22.481        0.066      335.370        5.959      870.905
01/15/2021  23:39:00      -63.515        9.705       -4.381       79.575       34.487       35.901     6332.101     1189.369     1288.874        0.648        0.441       64.252       43.809        0.465      335.399        6.007      870.882
01/15/2021  23:40:00      -80.562        6.196       -0.318       99.634       40.940       31.374     9926.943     1676.086      984.330        0.956        0.629       80.800       37.290        0.213      335.320        5.875      870.869
01/15/2021  23:41:00     -127.741       18.451       -0.036       63.346       41.593       30.410     4012.667     1729.982      924.779        1.166        0.333      129.066       32.432        0.063      335.286        5.817      870.864
01/15/2021  23:42:00      -86.740       11.106        4.033       53.233       38.371       27.889     2833.736     1472.318      777.776        0.637        0.254       87.448       27.404        0.098      335.249        5.756      870.877
01/15/2021  23:43:00      -77.233       20.227        5.032       46.267       37.379       26.464     2140.630     1397.179      700.342        0.532        0.212       79.838       26.641        0.111      335.309        5.856      870.882
01/15/2021  23:44:00     -103.693       41.188       -4.849       50.785       33.698       21.892     2579.150     1135.574      479.276        0.833        0.210      111.574       20.137        0.033      335.367        5.951      870.884
01/15/2021  23:45:00     -112.245       71.149       -6.979       33.418       27.363       25.725     1116.795      748.724      661.764        1.012        0.126      132.895       22.005        0.027      335.338        5.904      870.874
01/15/2021  23:46:00     -110.927       47.715       -4.080       40.421       29.838       22.925     1633.828      890.308      525.577        0.882        0.152      120.754       19.815        0.027      335.430        6.058      870.860
01/15/2021  23:47:00     -102.659       30.484        3.190       41.253       32.434       23.190     1701.787     1051.942      537.775        0.738        0.165      107.090       15.943        0.022      335.307        5.854      870.842
01/15/2021  23:48:00     -104.350       29.629        1.663       37.848       32.678       23.499     1432.484     1067.858      552.180        0.741        0.153      108.475       21.266        0.038      335.201        5.679      870.827
01/15/2021  23:49:00     -109.290       16.313      -10.563       38.950       38.213       24.463     1517.141     1460.271      598.458        0.795        0.179      110.500       15.142        0.019      335.217        5.703      870.812
01/15/2021  23:50:00     -101.241       -2.403       -2.004       39.420       28.951       22.534     1553.934      838.173      507.790        0.658        0.145      101.270       10.519        0.011      335.294        5.831      870.802
01/15/2021  23:51:00      -50.089       -2.046       -3.678       40.697       39.970       26.773     1656.210     1597.571      716.813        0.325        0.199       50.130       23.591        0.221      335.220        5.708      870.779
01/15/2021  23:52:00      -41.687       -7.485        3.125       57.968       38.299       27.704     3360.340     1466.821      767.534        0.370        0.280       42.354       20.556        0.236      335.148        5.591      870.759
01/15/2021  23:53:00     -105.899      -20.313       -5.538       43.770       32.663       26.922     1915.770     1066.881      724.804        0.768        0.185      107.830       15.655        0.021      335.149        5.592      870.749
01/15/2021  23:54:00     -133.941       11.107       -2.240       45.719       26.650       23.764     2090.201      710.227      564.704        1.072        0.168      134.400       19.432        0.021      335.145        5.586      870.732
01/15/2021  23:55:00      -51.993      -16.732        3.008       56.191       28.679       22.935     3157.468      822.506      526.025        0.375        0.225       54.619       18.435        0.114      335.187        5.654      870.711
01/15/2021  23:56:00      -82.886       -9.770        1.373       52.532       39.121       26.800     2759.644     1530.487      718.258        0.599        0.250       83.460       25.888        0.096      335.194        5.666      870.681
01/15/2021  23:57:00      -71.877        3.459        5.746       44.883       31.860       22.249     2014.479     1015.049      495.030        0.437        0.176       71.960       14.506        0.041      335.244        5.749      870.656
01/15/2021  23:58:00     -105.569      -19.946        9.184       46.931       33.292       26.920     2202.537     1108.328      724.693        0.783        0.202      107.437       24.226        0.051      335.324        5.881      870.642
01/15/2021  23:59:00      -53.957       -1.147        7.474       48.344       31.840       20.242     2337.098     1013.769      409.725        0.336        0.188       53.969       15.925        0.087      335.251        5.761      870.635
01/16/2021  00:00:00     -104.781      -16.149        9.705       54.315       29.845       21.717     2950.142      890.750      471.625        0.782        0.216      106.018       21.882        0.043      335.290        5.824      870.626
01/16/2021  00:01:00      -62.915      -19.526        6.972       52.236       29.060       20.054     2728.627      844.482      402.168        0.418        0.199       65.875       14.588        0.049      335.260        5.775      870.617
01/16/2021  00:02:00      -99.081      -24.814       -0.539       46.724       36.050       25.632     2183.130     1299.609      657.015        0.729        0.207      102.141       22.113        0.047      335.396        6.002      870.605
01/16/2021  00:03:00      -74.630      -32.544        5.788       47.085       34.434       26.112     2216.993     1185.715      681.848        0.537        0.204       81.417       20.480        0.063      335.331        5.892      870.596
01/16/2021  00:04:00      -67.284      -17.915       -3.350       38.074       33.564       22.480     1449.625     1126.516      505.345        0.397        0.154       69.628       11.251        0.026      335.361        5.944      870.589
01/16/2021  00:05:00      -55.572      -15.463       -1.296       31.639       30.767       19.311     1001.027      946.588      372.897        0.282        0.116       57.683        9.099        0.025      335.337        5.902      870.568
01/16/2021  00:06:00      -58.691      -15.657        0.929       40.011       29.092       22.845     1600.859      846.355      521.890        0.333        0.148       60.743       21.312        0.123      335.301        5.843      870.549
01/16/2021  00:07:00      -80.932      -25.329        2.041       41.867       22.873       20.904     1752.847      523.182      436.964        0.495        0.136       84.802       20.577        0.059      335.387        5.987      870.527
01/16/2021  00:08:00      -38.666      -18.872       -1.508       40.945       25.718       18.188     1676.459      661.411      330.799        0.226        0.133       43.026        6.435        0.022      335.370        5.958      870.511
01/16/2021  00:09:00      -33.528      -15.227        3.264       34.224       20.560       17.993     1171.251      422.700      323.762        0.164        0.096       36.823       11.589        0.099      335.303        5.847      870.494
01/16/2021  00:10:00      -49.691        2.946        1.102       37.984       23.887       18.712     1442.767      570.606      350.133        0.242        0.118       49.778       16.859        0.115      335.250        5.759      870.477
01/16/2021  00:11:00      -94.102       10.514       -7.546       21.965       14.182       15.224      482.452      201.122      231.760        0.497        0.046       94.687        5.195        0.003      335.195        5.668      870.463
01/16/2021  00:12:00     -100.497        4.385       -6.027       27.560       17.584       16.563      759.546      309.187      274.336        0.575        0.067      100.593        9.978        0.010      335.254        5.765      870.461
01/16/2021  00:13:00      -95.271        8.873        3.373       38.980       24.180       19.862     1519.450      584.696      394.495        0.583        0.125       95.683       18.866        0.039      335.160        5.611      870.455
01/16/2021  00:14:00     -108.020       13.713        4.061       51.460       27.183       22.947     2648.143      738.910      526.565        0.789        0.196      108.887        5.503        0.003      335.061        5.445      870.448
01/16/2021  00:15:00     -103.753       -0.941       -2.017       37.965       30.377       19.326     1441.311      922.749      373.494        0.675        0.137      103.757       13.743        0.018      334.965        5.286      870.442
01/16/2021  00:16:00      -80.459       -2.762        3.454       44.892       30.786       23.350     2015.294      947.754      545.233        0.500        0.175       80.506       12.166        0.023      334.928        5.225      870.423
01/16/2021  00:17:00      -83.395       -0.581        7.628       56.308       31.309       22.946     3170.610      980.241      526.514        0.584        0.234       83.397       23.133        0.077      334.968        5.291      870.398
01/16/2021  00:18:00      -82.882       -0.211        2.937       43.157       43.242       27.356     1862.549     1869.892      748.331        0.568        0.224       82.882       24.346        0.086      335.006        5.355      870.375
01/16/2021  00:19:00      -90.708       -1.088        6.265       53.882       31.035       25.620     2903.238      963.181      656.364        0.639        0.226       90.715       17.550        0.037      334.976        5.304      870.359
01/16/2021  00:20:00      -77.861        2.302        8.763       42.927       32.434       22.166     1842.762     1051.993      491.325        0.476        0.169       77.895       19.296        0.061      334.990        5.329      870.349
01/16/2021  00:21:00     -115.773       15.200        5.708       45.038       28.999       25.232     2028.419      840.916      636.670        0.859        0.175      116.767       22.909        0.038      334.964        5.285      870.338
01/16/2021  00:22:00     -106.662       11.744        3.035       34.545       29.884       22.064     1193.366      893.027      486.823        0.705        0.129      107.307       20.904        0.038      334.811        5.032      870.338
01/16/2021  00:23:00     -115.236       -0.010       -0.212       28.124       25.211       18.498      790.940      635.610      342.167        0.752        0.088      115.236        8.645        0.006      334.877        5.141      870.327
01/16/2021  00:24:00     -123.080       11.033       -1.990       42.223       30.993       26.105     1782.762      960.596      681.483        0.935        0.171      123.573       23.648        0.037      334.988        5.324      870.320
01/16/2021  00:25:00     -143.751       18.234      -16.911       31.980       28.536       23.809     1022.720      814.285      566.878        1.184        0.120      144.903       18.101        0.016      335.020        5.378      870.316
01/16/2021  00:26:00     -132.213       13.144       -5.625       50.243       23.761       22.928     2524.347      564.575      525.698        1.065        0.181      132.865       20.871        0.025      335.029        5.392      870.316
01/16/2021  00:27:00     -116.760       -0.080       -7.251       51.225       28.967       25.773     2623.967      839.106      664.250        0.891        0.206      116.760       21.318        0.033      335.002        5.346      870.324
01/16/2021  00:28:00      -55.619      -10.010       -3.318       54.496       40.676       27.010     2969.831     1654.498      729.536        0.428        0.268       56.513       24.284        0.185      334.905        5.187      870.332
01/16/2021  00:29:00      -80.489       -3.813       -3.379       52.264       29.257       20.595     2731.557      855.950      424.138        0.526        0.201       80.579       19.140        0.056      334.824        5.051      870.332
01/16/2021  00:30:00      -98.497       30.277      -10.790       64.271       26.241       19.724     4130.748      688.598      389.028        0.797        0.260      103.045       16.947        0.027      334.805        5.021      870.326
01/16/2021  00:31:00     -118.117       13.424       -7.754       32.426       26.233       18.985     1051.477      688.168      360.434        0.815        0.105      118.877        7.594        0.004      334.770        4.960      870.317
01/16/2021  00:32:00     -126.449       18.387       -8.723       34.344       22.761       17.166     1179.513      518.061      294.677        0.920        0.100      127.779       16.282        0.016      334.779        4.976      870.315
01/16/2021  00:33:00     -110.581       17.043       -9.320       24.002       18.121       13.578      576.102      328.376      184.353        0.685        0.054      111.886       11.748        0.011      334.731        4.898      870.323
01/16/2021  00:34:00     -124.750       16.222       -3.231       22.403       17.643       12.390      501.878      311.261      153.520        0.840        0.048      125.800        8.283        0.004      334.763        4.951      870.334
01/16/2021  00:35:00     -131.807        5.488       -9.986       18.169       13.928       12.827      330.109      193.999      164.536        0.910        0.034      131.922        6.525        0.002      334.855        5.103      870.351
01/16/2021  00:36:00     -110.292       15.850       -1.670       26.246       17.744       16.164      688.876      314.853      261.268        0.684        0.063      111.425        8.226        0.005      334.771        4.963      870.361
01/16/2021  00:37:00      -89.859       25.140       -5.434       29.292       21.704       17.247      858.027      471.065      297.458        0.518        0.081       93.309       13.193        0.020      334.773        4.967      870.370
01/16/2021  00:38:00     -103.323       25.280       -1.988       27.890       16.907       14.644      777.838      285.841      214.459        0.630        0.064      106.371       11.550        0.012      334.765        4.954      870.359
01/16/2021  00:39:00     -122.313        7.568       -1.054       28.147       15.763       17.421      792.235      248.466      303.493        0.818        0.067      122.547       11.932        0.009      334.872        5.130      870.338
01/16/2021  00:40:00      -70.687       -1.052        7.158       43.088       25.190       20.683     1856.567      634.555      427.796        0.398        0.146       70.694       19.823        0.079      334.917        5.207      870.304
01/16/2021  00:41:00      -53.081       -5.490        4.957       37.021       24.567       17.067     1370.519      603.540      291.299        0.257        0.113       53.364        8.138        0.023      335.003        5.350      870.277
01/16/2021  00:42:00      -44.086        3.372        2.878       32.980       22.232       16.223     1087.660      494.249      263.192        0.190        0.092       44.215        8.936        0.041      335.023        5.383      870.269
01/16/2021  00:43:00      -35.419        2.096        1.503       33.617       25.912       17.967     1130.123      671.420      322.801        0.169        0.106       35.481        9.046        0.065      334.925        5.220      870.271
01/16/2021  00:44:00      -58.636      -14.541        0.512       33.973       21.179       16.802     1154.154      448.569      282.293        0.277        0.094       60.413       13.387        0.049      334.941        5.247      870.280
01/16/2021  00:45:00      -22.442       -6.223        3.763       27.842       20.053       15.939      775.201      402.122      254.059        0.099        0.072       23.289        9.401        0.163      334.840        5.079      870.275
01/16/2021  00:46:00      -21.945      -17.286        6.188       25.982       16.313       13.562      675.085      266.123      183.923        0.097        0.056       27.935        8.992        0.104      334.892        5.165      870.269
01/16/2021  00:47:00      -44.278      -16.323        1.406       34.434       22.994       19.718     1185.678      528.724      388.818        0.217        0.105       47.191       10.501        0.050      334.873        5.134      870.256
01/16/2021  00:48:00      -47.944      -17.708        2.277       33.068       24.256       17.829     1093.523      588.372      317.873        0.231        0.100       51.109        4.147        0.007      334.914        5.200      870.247
01/16/2021  00:49:00      -34.334       -5.146       -2.197       37.174       31.752       20.662     1381.892     1008.221      426.906        0.201        0.141       34.718        9.223        0.071      334.836        5.072      870.235
01/16/2021  00:50:00        9.310        4.933        5.222       27.662       17.312       18.552      765.187      299.699      344.195        0.077        0.070       10.536        8.989        0.728      334.818        5.040      870.238
01/16/2021  00:51:00      -65.120        0.698        2.924       43.445       26.590       22.127     1887.487      707.012      489.623        0.367        0.154       65.124        9.723        0.022      334.805        5.020      870.241
01/16/2021  00:52:00      -38.520       -1.790        5.153       39.176       23.888       16.054     1534.753      570.639      257.740        0.194        0.118       38.561       10.845        0.079      334.796        5.005      870.238
01/16/2021  00:53:00      -62.371        4.632        4.916       42.059       29.776       19.797     1768.986      886.592      391.917        0.349        0.152       62.543        9.484        0.023      334.757        4.942      870.226
01/16/2021  00:54:00      -82.366        5.898       -2.468       41.340       25.325       21.463     1709.033      641.365      460.671        0.482        0.141       82.577       16.928        0.042      334.768        4.959      870.212
01/16/2021  00:55:00      -35.028       -7.534        2.271       35.096       23.543       19.077     1231.697      554.292      363.947        0.172        0.107       35.829       16.574        0.214      334.835        5.070      870.211
01/16/2021  00:56:00      -24.022       -4.488        3.212       27.147       21.992       15.774      736.977      483.655      248.834        0.104        0.073       24.438       11.279        0.213      334.879        5.143      870.206
01/16/2021  00:57:00      -39.310       -8.941        0.308       27.540       19.103       15.077      758.428      364.911      227.320        0.149        0.068       40.314        7.274        0.033      334.917        5.206      870.204
01/16/2021  00:58:00      -43.744        5.269        3.417       27.709       17.294       14.511      767.790      299.067      210.563        0.161        0.064       44.060        2.943        0.004      334.772        4.965      870.199
01/16/2021  00:59:00      -43.492       -0.553       -1.281       25.785       18.866       13.948      664.854      355.909      194.549        0.155        0.061       43.496        9.581        0.049      334.762        4.949      870.191
01/16/2021  01:00:00      -45.394        5.855        3.520       42.253       14.933       14.535     1785.353      223.007      211.275        0.216        0.111       45.770       12.130        0.070      334.717        4.873      870.197
01/16/2021  01:01:00      -23.605       11.498        1.212       25.333       18.867       10.229      641.766      355.951      104.635        0.090        0.055       26.257        3.982        0.023      334.709        4.860      870.203
01/16/2021  01:02:00      -23.863        1.675        6.109       27.546       12.779       12.868      758.802      163.300      165.581        0.085        0.054       23.921        8.178        0.117      334.668        4.791      870.218
01/16/2021  01:03:00      -24.989       -1.708        6.529       25.035       17.480       13.976      626.746      305.558      195.319        0.090        0.056       25.047        7.170        0.082      334.675        4.803      870.227
01/16/2021  01:04:00      -24.827       -1.360        4.420       27.848       17.718       17.558      775.501      313.920      308.274        0.102        0.070       24.864        8.075        0.105      334.685        4.821      870.219
01/16/2021  01:05:00      -50.312       12.144       -2.692       23.719       19.731       15.030      562.584      389.321      225.898        0.193        0.059       51.757        7.388        0.020      334.609        4.694      870.206
01/16/2021  01:06:00      -69.617       17.129       -6.724       12.041       15.108       10.142      144.976      228.249      102.870        0.283        0.024       71.694        7.193        0.010      334.598        4.677      870.187
01/16/2021  01:07:00      -53.417       -2.802       -2.255       21.009       19.191       16.883      441.375      368.295      285.028        0.198        0.055       53.490        6.938        0.017      334.587        4.657      870.169
01/16/2021  01:08:00        7.530        1.029       -2.244       19.300       11.628        9.222      372.489      135.204       85.041        0.033        0.030        7.600        5.858        0.594      334.491        4.498      870.142
01/16/2021  01:09:00      -14.898       -3.406       -0.290       26.744       12.230       10.167      715.238      149.563      103.364        0.060        0.048       15.282        7.347        0.231      334.561        4.614      870.124
01/16/2021  01:10:00       -5.765        0.751       -5.303       36.223       15.431       12.889     1312.137      238.111      166.128        0.089        0.086        5.814       13.422        5.330      334.525        4.556      870.103
01/16/2021  01:11:00      -57.498        5.520       -4.621       24.738       15.735       12.772      611.963      247.591      163.127        0.219        0.051       57.762        6.851        0.014      334.485        4.490      870.084
01/16/2021  01:12:00      -49.560       -3.047       -3.531       25.055       17.705       12.919      627.730      313.470      166.894        0.179        0.055       49.653       13.017        0.069      334.544        4.587      870.060
01/16/2021  01:13:00      -67.179        1.956      -10.855       21.125        9.860       12.391      446.273       97.224      153.536        0.267        0.035       67.208        5.264        0.006      334.585        4.654      870.041
01/16/2021  01:14:00      -58.303        2.782       -1.947       17.301       13.657       10.376      299.319      186.503      107.657        0.200        0.030       58.369        6.660        0.013      334.553        4.602      870.004
01/16/2021  01:15:00      -61.971       11.178       -5.948       19.620       16.277        8.576      384.962      264.947       73.548        0.236        0.036       62.971        2.919        0.002      334.553        4.600      869.969
01/16/2021  01:16:00      -78.364       23.506       -3.428       15.172       15.810       11.261      230.193      249.951      126.806        0.366        0.030       81.813        7.591        0.009      334.452        4.434      869.955
01/16/2021  01:17:00      -72.913       22.646      -10.383       14.636        9.883       10.871      214.206       97.681      118.177        0.318        0.022       76.349        7.593        0.010      334.367        4.293      869.942
01/16/2021  01:18:00      -41.276        3.679       -6.339       17.429       14.461        8.908      303.785      209.109       79.345        0.117        0.030       41.440        8.395        0.041      334.335        4.242      869.937
01/16/2021  01:19:00      -11.643       -6.248        0.313       24.844       16.833       13.857      617.214      283.353      192.029        0.063        0.055       13.214        9.463        0.513      334.347        4.261      869.928
01/16/2021  01:20:00       -4.460       -3.525       -2.860       24.377       17.766       15.703      594.250      315.640      246.581        0.060        0.058        5.685       14.032        6.092      334.400        4.350      869.925
01/16/2021  01:21:00      -51.653       16.115       -6.944       39.103       14.362       11.112     1529.007      206.270      123.487        0.242        0.093       54.109        8.168        0.023      334.225        4.056      869.921
01/16/2021  01:22:00      -99.323       26.542       -7.165       11.685       15.748       11.514      136.530      247.985      132.569        0.557        0.026      102.808        8.447        0.007      334.120        3.884      869.937
01/16/2021  01:23:00      -99.594       46.179      -10.013       11.940        9.265       10.064      142.558       85.839      101.277        0.624        0.016      109.779        4.461        0.002      334.166        3.958      869.954
01/16/2021  01:24:00      -90.099       39.002       -6.061       15.795       12.046        8.563      249.488      145.097       73.316        0.507        0.023       98.179        3.846        0.002      334.167        3.961      869.979
01/16/2021  01:25:00      -93.449       27.384       -6.166       15.677       13.150       10.498      245.766      172.920      110.204        0.502        0.026       97.379        6.169        0.004      334.244        4.089      869.995
01/16/2021  01:26:00      -47.203       11.963       -9.755       14.808       12.307        9.408      219.286      151.473       88.513        0.146        0.023       48.695        7.486        0.024      334.413        4.368      869.981
01/16/2021  01:27:00      -13.973        9.002       -4.878       14.256        8.134       10.028      203.237       66.158      100.555        0.033        0.018       16.622        6.262        0.142      334.483        4.486      869.965
01/16/2021  01:28:00      -11.266       -5.139       -4.894       15.444        7.013       11.141      238.508       49.188      124.130        0.029        0.021       12.383        6.167        0.248      334.631        4.731      869.939
01/16/2021  01:29:00       -7.337       -8.900        1.348       20.895        9.931       12.144      436.589       98.635      147.489        0.041        0.034       11.535        9.149        0.629      334.498        4.510      869.925
01/16/2021  01:30:00       -9.878       -8.671       -3.523       21.084       13.589       13.254      444.527      184.648      175.676        0.049        0.040       13.144        6.474        0.243      334.380        4.314      869.913
01/16/2021  01:31:00      -26.924       -5.634       -2.733       17.440       14.227       12.299      304.140      202.411      151.259        0.071        0.033       27.507        7.055        0.066      334.296        4.176      869.914
01/16/2021  01:32:00      -38.645       -1.377       -4.473       24.075       20.573       13.984      579.630      423.229      195.565        0.136        0.060       38.669        3.543        0.008      334.223        4.052      869.913
01/16/2021  01:33:00      -69.857       15.758       -5.769       25.790       13.529        8.349      665.137      183.045       69.712        0.304        0.046       71.613        6.000        0.007      334.342        4.251      869.907
01/16/2021  01:34:00      -66.686       19.472       -7.630       32.005       11.234       17.565     1024.335      126.199      308.526        0.317        0.073       69.470       19.642        0.080      334.400        4.349      869.896
01/16/2021  01:35:00      -53.999       19.444       -7.119       13.465        9.608        8.538      181.316       92.320       72.892        0.185        0.017       57.393        5.741        0.010      334.445        4.423      869.891
01/16/2021  01:36:00      -39.628       24.705       -9.517      163.193       11.297       77.738    26632.071      127.613     6043.243        1.753        1.640       46.699      111.910        5.743      334.495        4.506      869.890
01/16/2021  01:37:00      -45.385       12.554       -7.959        9.679        8.206        5.963       93.690       67.331       35.556        0.124        0.010       47.089        5.170        0.012      334.427        4.394      869.903
01/16/2021  01:38:00      -22.696        3.558       -4.861       14.822        8.109        9.675      219.682       65.761       93.609        0.047        0.019       22.973        6.147        0.072      334.365        4.289      869.914
01/16/2021  01:39:00      -24.707      -21.814       -7.067       20.940       14.000       12.991      438.473      195.997      168.765        0.097        0.040       32.959       10.651        0.104      334.343        4.254      869.906
01/16/2021  01:40:00      -32.791      -10.444      -10.380       20.578       16.163       14.108      423.437      261.230      199.047        0.109        0.044       34.415        3.738        0.012      334.291        4.167      869.901
01/16/2021  01:41:00      -20.857      -10.503       -8.469      207.445       26.996       96.952    43033.258      728.782     9399.716        2.688        2.658       23.352      139.751       35.814      334.334        4.240      869.897
01/16/2021  01:42:00      -42.483      -10.460        0.102       26.532       18.321       14.361      703.929      335.663      206.234        0.158        0.062       43.752        7.546        0.030      334.281        4.150      869.905
01/16/2021  01:43:00      -18.349       -9.634        0.300       28.497       23.800       18.615      812.103      566.416      346.513        0.108        0.086       20.724       15.247        0.541      334.199        4.013      869.923
01/16/2021  01:44:00      -50.036      -27.889      -16.188      177.753       16.438       85.353    31596.220      270.223     7285.171        2.134        1.958       57.284      121.543        4.502      334.300        4.182      869.954
01/16/2021  01:45:00      -47.756      -20.166       -0.246       33.084       20.424       15.264     1094.566      417.149      232.975        0.222        0.087       51.839        6.405        0.015      334.322        4.220      869.962
01/16/2021  01:46:00      -74.029        7.346        0.255       27.194       17.785       12.449      739.492      316.293      154.973        0.337        0.061       74.393       11.652        0.025      334.212        4.035      869.968
01/16/2021  01:47:00      -92.621       -1.539       -0.532       23.734       20.773       13.951      563.301      431.523      194.641        0.489        0.059       92.634       10.385        0.013      334.224        4.055      869.973
01/16/2021  01:48:00      -67.381      -10.879        4.134       42.846       29.934       18.930     1835.790      896.039      358.329        0.388        0.155       68.253       20.204        0.088      334.251        4.101      869.970
01/16/2021  01:49:00      -27.142       -1.477        2.100       31.377       25.206       19.799      984.503      635.333      391.986        0.138        0.101       27.182       14.182        0.272      334.265        4.124      869.965
01/16/2021  01:50:00      -48.408        0.954       -0.348       31.429       22.043       18.176      987.805      485.913      330.356        0.207        0.090       48.417       17.099        0.125      334.275        4.140      869.963
01/16/2021  01:51:00      -67.736       -5.045       -0.889       34.121       25.832       14.755     1164.223      667.312      217.712        0.333        0.102       67.924        7.755        0.013      334.280        4.149      869.964
01/16/2021  01:52:00      -76.690        9.950       -0.796       37.935       24.581       18.603     1439.084      604.240      346.073        0.418        0.119       77.333       11.834        0.023      334.240        4.082      869.968
01/16/2021  01:53:00      -88.681       -2.446       -3.495       24.856       21.559       17.757      617.820      464.804      315.316        0.464        0.070       88.715        7.349        0.007      334.271        4.135      869.975
01/16/2021  01:54:00      -79.203        6.707        0.401       33.185       22.351       19.387     1101.271      499.561      375.857        0.415        0.099       79.486       11.957        0.023      334.275        4.140      869.984
01/16/2021  01:55:00      -79.049       10.371       -0.570       47.844       25.577       18.650     2289.043      654.180      347.821        0.482        0.165       79.726       21.162        0.070      334.211        4.035      869.987
01/16/2021  01:56:00      -54.270       16.431        8.892       29.359       23.832       17.722      861.966      567.950      314.079        0.252        0.087       56.703       15.347        0.073      334.114        3.871      869.989
01/16/2021  01:57:00      -64.379       20.629        3.434       34.091       26.611       17.763     1162.200      708.172      315.519        0.338        0.109       67.603       12.529        0.034      333.930        3.568      869.998
01/16/2021  01:58:00      -84.156       23.862       -0.712       30.208       20.362       16.730      912.543      414.623      279.900        0.463        0.080       87.474       15.058        0.030      334.010        3.700      870.013
01/16/2021  01:59:00      -93.685        9.108        1.278       26.003       19.977       17.448      676.133      399.076      304.445        0.512        0.069       94.127       15.630        0.028      334.135        3.908      870.029
01/16/2021  02:00:00      -87.990       17.457       -2.884       30.397       19.798       19.015      923.993      391.968      361.585        0.487        0.084       89.705       18.231        0.041      334.155        3.940      870.055
01/16/2021  02:01:00     -100.056       14.164       -0.806       26.297       18.991       14.691      691.536      360.664      215.821        0.574        0.063      101.054       14.480        0.021      334.127        3.896      870.083
01/16/2021  02:02:00     -114.549       25.036      -14.452       24.708       17.832       12.169      610.498      317.997      148.087        0.752        0.054      117.253       13.897        0.014      334.042        3.753      870.109
01/16/2021  02:03:00      -93.788       -3.137       -4.132       33.847       23.731       17.476     1145.595      563.157      305.403        0.542        0.101       93.840       16.193        0.030      333.992        3.672      870.120
01/16/2021  02:04:00     -102.083       11.184       -3.269       28.536       23.580       19.532      814.278      556.003      381.491        0.615        0.088      102.694       14.302        0.019      333.932        3.571      870.119
01/16/2021  02:05:00      -81.924        7.764       -6.581       35.881       19.363       15.498     1287.473      374.929      240.182        0.436        0.095       82.291       11.523        0.020      333.909        3.535      870.110
01/16/2021  02:06:00      -56.898       12.859       -5.727       26.481       15.198       11.813      701.232      230.982      139.556        0.225        0.054       58.333       11.629        0.040      333.890        3.503      870.101
01/16/2021  02:07:00      -60.316       13.564      -14.844      143.304        8.913       69.108    20536.102       79.433     4775.889        1.471        1.270       61.823       98.988        2.564      333.884        3.493      870.094
01/16/2021  02:08:00      -95.938       39.547      -10.847       27.165       20.868       12.137      737.927      435.487      147.303        0.610        0.066      103.769        8.497        0.007      333.882        3.489      870.088
01/16/2021  02:09:00     -116.380       39.062      -16.458       27.191       15.756       12.903      739.343      248.258      166.484        0.825        0.058      122.761        4.914        0.002      333.838        3.416      870.080
01/16/2021  02:10:00     -128.566       27.686      -18.181       19.333       22.122       12.581      373.747      489.380      158.286        0.932        0.051      131.513        5.044        0.001      333.797        3.348      870.078
01/16/2021  02:11:00     -107.185        1.638      -10.190       42.174       27.776       18.646     1778.667      771.488      347.661        0.725        0.145      107.197       18.293        0.029      333.794        3.341      870.081
01/16/2021  02:12:00      -45.224        2.383       -7.061      198.424       28.983       93.573    39372.270      840.041     8755.984        2.552        2.448       45.287      133.245        8.657      333.789        3.336      870.093
01/16/2021  02:13:00      -33.984       -5.216       -0.548       46.918       35.308       15.412     2201.305     1246.623      237.521        0.243        0.184       34.382       15.471        0.202      333.814        3.375      870.100
01/16/2021  02:14:00       20.415       -8.429       -1.480      135.810       17.351       65.613    18444.383      301.064     4305.125        1.177        1.153       22.086       92.672       17.606      333.859        3.452      870.121
01/16/2021  02:15:00        0.936      -32.089       -8.847       22.741       30.759       13.987      517.136      946.113      195.642        0.138        0.083       32.103        8.123        0.064      333.921        3.554      870.148
01/16/2021  02:16:00        4.883      -21.510      -12.765       24.803       35.717       14.392      615.201     1275.698      207.130        0.137        0.105       22.057       15.045        0.465      333.956        3.613      870.190
01/16/2021  02:17:00       17.166      -21.523      -25.191      222.310       21.538      106.059    49421.897      463.876    11248.570        3.125        3.057       27.530      152.937       30.861      334.042        3.755      870.220
01/16/2021  02:18:00      -29.058       14.312       -1.710       29.268       24.068       22.775      856.624      579.290      518.709        0.150        0.098       32.392       17.390        0.288      333.950        3.601      870.246
01/16/2021  02:19:00       -4.656       -4.327       -3.834       27.308       21.440       17.307      745.718      459.669      299.526        0.078        0.075        6.356        7.929        1.556      333.902        3.524      870.251
01/16/2021  02:20:00      -61.297        7.766      -23.984       32.568       29.610       25.398     1060.691      876.762      645.064        0.349        0.129       61.787       15.832        0.066      333.946        3.595      870.245
01/16/2021  02:21:00      -41.035      -11.928      -10.996       33.891       33.506       24.714     1148.578     1122.674      610.779        0.241        0.144       42.733       20.453        0.229      333.897        3.513      870.230
01/16/2021  02:22:00      -22.813       -6.082       -4.161      137.882       34.446       67.488    19011.402     1186.560     4554.628        1.266        1.238       23.610       93.839       15.797      333.879        3.484      870.215
01/16/2021  02:23:00      -46.964        9.772       -4.335       43.328       22.389       24.194     1877.357      501.257      585.357        0.264        0.148       47.970       22.161        0.213      333.849        3.434      870.208
01/16/2021  02:24:00      -50.493       -2.166       -7.192      218.830       17.838      104.066    47886.634      318.178    10829.711        3.081        2.952       50.540      147.774        8.549      333.939        3.585      870.202
01/16/2021  02:25:00      -60.200       -3.543       -6.158      133.603       26.189       62.476    17849.880      685.867     3903.262        1.305        1.122       60.304       88.300        2.144      334.063        3.791      870.198
01/16/2021  02:26:00      -11.965       18.438       -4.714      210.921       17.722      101.024    44487.655      314.069    10205.947        2.774        2.750       21.980      145.086       43.571      334.117        3.881      870.201
01/16/2021  02:27:00      -47.314        4.911       -7.092       20.557       13.827       12.731      422.592      191.182      162.080        0.154        0.039       47.569        9.825        0.043      334.123        3.887      870.223
01/16/2021  02:28:00      -52.913        2.638      -16.774      156.755       11.217       76.237    24572.089      125.813     5812.034        1.679        1.525       52.979      108.161        4.168      334.341        4.251      870.247
01/16/2021  02:29:00      -85.215        4.825      -19.224       10.488        6.966        7.575      110.004       48.532       57.384        0.394        0.011       85.352        3.487        0.002      334.371        4.301      870.273
01/16/2021  02:30:00      -93.380        5.613      -18.109       12.570       10.490        8.058      158.006      110.033       64.926        0.471        0.017       93.548        4.957        0.003      334.382        4.320      870.299
01/16/2021  02:31:00     -103.448        6.999      -10.476       17.294        7.975       10.251      299.095       63.596      105.080        0.566        0.023      103.684        8.932        0.007      334.390        4.331      870.329
01/16/2021  02:32:00      -80.466        6.628       -2.699       18.081       13.628        8.021      326.939      185.718       64.341        0.355        0.029       80.738        7.058        0.008      334.221        4.051      870.359
01/16/2021  02:33:00      -48.358       -3.365       -4.155       28.300       21.590       16.594      800.880      466.113      275.357        0.195        0.077       48.475        8.140        0.028      334.199        4.013      870.375
01/16/2021  02:34:00      -54.680        2.736       -0.636       22.689       17.990       12.794      514.778      323.636      163.685        0.200        0.050       54.748       11.812        0.047      334.245        4.091      870.386
01/16/2021  02:35:00      -46.347        2.874       -0.311      121.082       12.182       58.229    14660.811      148.400     3390.591        1.017        0.910       46.436       81.731        3.098      334.238        4.078      870.383
01/16/2021  02:36:00      -80.669        7.852       -6.335      164.544       16.799       78.057    27074.873      282.205     6092.894        2.002        1.672       81.050      112.277        1.919      334.320        4.216      870.383
01/16/2021  02:37:00      -74.894        5.486        0.434       30.753       18.096       13.669      945.761      327.474      186.829        0.355        0.073       75.095       12.877        0.029      334.221        4.052      870.379
01/16/2021  02:38:00      -76.561        1.154       -1.860       23.131       18.376       17.520      535.040      337.685      306.960        0.352        0.059       76.570       16.253        0.045      334.268        4.129      870.368
01/16/2021  02:39:00      -76.680        6.545       -1.981       22.495       16.374       15.058      506.020      268.121      226.732        0.346        0.050       76.958        7.601        0.010      334.228        4.062      870.361
01/16/2021  02:40:00      -18.728      -11.350        0.595       31.892       16.193       10.911     1017.131      262.207      119.061        0.094        0.070       21.899        4.311        0.039      334.222        4.052      870.354
01/16/2021  02:41:00      -12.283       -0.394        4.794       25.226       21.985       14.414      636.357      483.325      207.765        0.075        0.066       12.290       13.797        1.260      334.263        4.119      870.351
01/16/2021  02:42:00      -56.151      -26.370       -6.240       27.652       15.898       14.044      764.654      252.733      197.223        0.255        0.061       62.035        9.304        0.022      334.130        3.899      870.352
01/16/2021  02:43:00      -61.831      -17.972       -9.313      187.643       21.372       91.093    35209.806      456.750     8297.903        2.409        2.198       64.390      129.438        4.041      334.236        4.078      870.354
01/16/2021  02:44:00      -46.972       -9.304        0.945       27.173       23.853       19.772      738.346      568.987      390.941        0.200        0.085       47.885        9.108        0.036      334.092        3.837      870.346
01/16/2021  02:45:00      -19.072       -7.849        1.773      156.289       22.719       74.102    24426.162      516.173     5491.146        1.542        1.522       20.624      103.368       25.120      334.052        3.772      870.340
01/16/2021  02:46:00      -39.436      -16.377       -5.074      222.705       25.669      105.298    49597.636      658.912    11087.771        3.158        3.067       42.702      150.554       12.431      334.101        3.855      870.334
01/16/2021  02:47:00      -70.899        3.424       -1.354       51.691       25.136       18.178     2671.981      631.840      330.425        0.434        0.182       70.981       13.792        0.038      333.956        3.611      870.337
01/16/2021  02:48:00      -77.970       -6.357       -2.748      179.344       27.998       83.604    32164.361      783.872     6989.616        2.302        1.997       78.229      118.408        2.291      333.962        3.623      870.348
01/16/2021  02:49:00      -90.886      -15.508      -11.116      174.108       33.652       83.895    30313.682     1132.482     7038.314        2.355        1.924       92.200      118.449        1.650      334.044        3.758      870.373
01/16/2021  02:50:00      -67.845      -22.646       -2.974       35.457       32.211       20.699     1257.197     1037.548      428.434        0.392        0.136       71.525       17.206        0.058      334.042        3.753      870.396
01/16/2021  02:51:00      -62.474       -7.436        6.763       46.900       26.496       19.478     2199.654      702.024      379.376        0.364        0.164       62.915       14.424        0.053      334.022        3.721      870.407
01/16/2021  02:52:00      -90.991      -18.026        2.698       50.528       28.363       20.268     2553.115      804.453      410.779        0.619        0.188       92.759       15.314        0.027      334.021        3.720      870.408
01/16/2021  02:53:00      -92.738      -23.632        6.657       42.324       33.742       26.489     1791.336     1138.553      701.650        0.642        0.182       95.701       23.468        0.060      333.979        3.649      870.400
01/16/2021  02:54:00      -95.318        2.631       -7.986      167.325       40.705       80.617    27997.555     1656.862     6499.181        2.265        1.808       95.354      108.974        1.306      333.988        3.667      870.394
01/16/2021  02:55:00     -114.395        7.520       -3.413       39.190       26.262       19.479     1535.822      689.704      379.421        0.788        0.130      114.642       15.750        0.019      333.940        3.585      870.390
01/16/2021  02:56:00     -110.566      -10.162       -9.262      173.912       27.139       82.787    30245.505      736.508     6853.651        2.512        1.892      111.032      115.251        1.077      333.993        3.673      870.406
01/16/2021  02:57:00     -109.887        2.676        2.176       38.238       31.970       19.921     1462.121     1022.059      396.856        0.748        0.144      109.920       16.375        0.022      333.904        3.525      870.424
01/16/2021  02:58:00      -96.962       -9.187       -1.134       49.305       34.202       23.534     2430.973     1169.806      553.843        0.682        0.208       97.396       20.656        0.045      334.008        3.697      870.434
01/16/2021  02:59:00      -82.745       -8.497        0.308       48.341       29.637       18.926     2336.864      878.337      358.211        0.525        0.179       83.180       17.361        0.044      334.021        3.720      870.450
01/16/2021  03:00:00     -115.091        7.412        0.294       39.112       24.469       19.519     1529.779      598.741      380.982        0.790        0.125      115.329       18.471        0.026      333.998        3.682      870.464
01/16/2021  03:01:00      -55.646        8.418       -6.820      273.725       26.488      126.318    74925.592      701.599    15956.314        4.738        4.579       56.279      182.234       10.485      334.013        3.708      870.474
01/16/2021  03:02:00      -76.716        9.193        1.202      182.794       24.374       88.843    33413.795      594.097     7893.008        2.393        2.095       77.265      121.330        2.466      334.025        3.728      870.479
01/16/2021  03:03:00      -73.591       13.051       -3.322      185.534       29.424       85.843    34423.036      865.762     7368.950        2.412        2.133       74.739      122.115        2.670      333.956        3.614      870.474
01/16/2021  03:04:00      -79.204        8.610        0.891      145.444       26.595       69.326    21154.048      707.269     4806.144        1.650        1.333       79.670       93.924        1.390      333.937        3.580      870.466
01/16/2021  03:05:00     -108.841        9.444      -11.061      151.354       19.972       73.370    22907.965      398.870     5383.184        2.037        1.435      109.250      102.641        0.883      333.885        3.494      870.446
01/16/2021  03:06:00     -105.332       14.215       -2.829       32.933       17.846       19.260     1084.595      318.476      370.931        0.654        0.089      106.287       11.065        0.011      333.917        3.546      870.428
01/16/2021  03:07:00     -100.840       19.572      -12.928      153.664       21.643       74.701    23612.715      468.428     5580.305        2.018        1.483      102.722      103.181        1.009      333.888        3.499      870.434
01/16/2021  03:08:00      -70.378        3.462        2.592       36.324       28.485       24.312     1319.424      811.380      591.076        0.385        0.136       70.463       18.301        0.067      333.845        3.427      870.447
01/16/2021  03:09:00      -56.687       -3.348       -6.474       41.977       26.820       17.399     1762.104      719.339      302.739        0.302        0.139       56.786       14.427        0.065      333.782        3.323      870.460
01/16/2021  03:10:00      -87.767       -1.934      -13.110       30.146       18.273       13.738      908.804      333.911      188.723        0.465        0.072       87.789       12.236        0.019      333.649        3.103      870.477
01/16/2021  03:11:00     -109.660       26.726      -20.729       14.953       13.254       10.329      223.597      175.656      106.688        0.684        0.025      112.870        6.487        0.003      333.577        2.982      870.492
01/16/2021  03:12:00      -51.351        4.746      -12.895      183.451       20.305       88.854    33654.210      412.307     7894.972        2.238        2.098       51.570      122.831        5.673      333.602        3.026      870.491
01/16/2021  03:13:00      -84.507       19.244      -20.758      154.294       20.524       77.271    23806.708      421.238     5970.788        1.906        1.510       86.670      105.714        1.488      333.643        3.093      870.482
01/16/2021  03:14:00      -78.274       20.972      -26.526      148.962       16.496       72.736    22189.782      272.122     5290.534        1.751        1.388       81.035      101.754        1.577      333.621        3.055      870.475
01/16/2021  03:15:00      -88.821       19.756      -13.568       12.990       14.265       10.824      168.750      203.483      117.152        0.448        0.024       90.991        4.496        0.002      333.501        2.856      870.471
01/16/2021  03:16:00      -95.483       25.596      -14.993       21.951       11.802       13.260      481.859      139.276      175.841        0.540        0.040       98.854       11.126        0.013      333.518        2.884      870.480
01/16/2021  03:17:00      -64.256       18.393       -8.840       35.282       18.742       19.825     1244.790      351.249      393.036        0.327        0.099       66.836       12.815        0.037      333.491        2.841      870.492
01/16/2021  03:18:00      -96.284        8.005      -26.543       19.182       15.751       12.034      367.950      248.092      144.809        0.540        0.038       96.616        8.498        0.008      333.545        2.931      870.510
01/16/2021  03:19:00      -79.724       12.490      -14.675      143.356       20.406       70.481    20551.066      416.415     4967.542        1.633        1.297       80.696       97.274        1.453      333.510        2.873      870.529
01/16/2021  03:20:00      -63.336       -7.436       -6.956       39.425       20.828       18.539     1554.333      433.804      343.708        0.322        0.117       63.771       19.685        0.095      333.539        2.919      870.532
01/16/2021  03:21:00      -67.773      -15.327       -9.810       39.859       22.252       16.058     1588.740      495.162      257.864        0.363        0.117       69.484       17.620        0.064      333.468        2.802      870.532
01/16/2021  03:22:00        3.316       14.262       -2.454      204.628       26.656       95.371    41872.700      710.550     9095.592        2.594        2.584       14.642      137.094       87.668      333.567        2.968      870.530
01/16/2021  03:23:00      -67.351        9.886      -17.051      195.803       27.031       94.760    38338.830      730.681     8979.502        2.648        2.402       68.073      131.994        3.760      333.490        2.839      870.522
01/16/2021  03:24:00      -87.365       24.028      -23.096      262.405       22.943      122.288    68856.456      526.393    14954.435        4.652        4.217       90.609      178.018        3.860      333.507        2.868      870.513
01/16/2021  03:25:00      -62.520       19.483      -13.558      177.641       21.529       85.514    31556.313      463.500     7312.576        2.189        1.967       65.486      121.397        3.437      333.479        2.821      870.508
01/16/2021  03:26:00      -72.243       10.856      -17.433      171.335       26.105       80.482    29355.844      681.489     6477.375        2.107        1.826       73.054      114.442        2.454      333.434        2.747      870.504
01/16/2021  03:27:00      -80.679       11.555      -19.641      148.983       23.999       73.893    22195.900      575.968     5460.109        1.762        1.412       81.502      102.318        1.576      333.434        2.748      870.505
01/16/2021  03:28:00     -104.216       13.151      -17.755       28.364       22.131       14.504      804.520      489.794      210.375        0.643        0.075      105.043        9.443        0.008      333.397        2.686      870.516
01/16/2021  03:29:00     -100.728        8.720      -22.845      141.420       17.915       69.077    19999.757      320.957     4771.571        1.791        1.255      101.105       96.125        0.904      333.425        2.733      870.532
01/16/2021  03:30:00     -116.367       11.301      -14.524       20.552       21.995       15.376      422.384      483.797      236.422        0.751        0.057      116.915       10.789        0.009      333.415        2.716      870.532
01/16/2021  03:31:00      -72.064       -3.839      -25.515      239.514       32.626      110.544    57366.965     1064.450    12220.063        3.824        3.533       72.166      159.677        4.896      333.472        2.811      870.528
01/16/2021  03:32:00      -38.307       -6.730      -15.035      263.808       28.330      124.405    69594.757      802.614    15476.535        4.379        4.294       38.894      177.550       20.839      333.542        2.927      870.516
01/16/2021  03:33:00      -51.054      -14.227      -10.879      130.798       30.386       63.497    17108.167      923.337     4031.900        1.249        1.103       53.000       86.737        2.678      333.428        2.737      870.503
01/16/2021  03:34:00      -37.594        3.202      -21.015      249.966       22.888      120.492    62483.146      523.852    14518.418        3.968        3.876       37.731      169.891       20.275      333.544        2.929      870.505
01/16/2021  03:35:00      -85.470       12.856      -30.804      285.673       12.603      135.922    81609.180      158.827    18474.697        5.431        5.012       86.432      196.468        5.167      333.578        2.986      870.509
01/16/2021  03:36:00     -108.165        6.839      -20.305      185.025       15.703       88.839    34234.090      246.587     7892.356        2.726        2.119      108.381      127.010        1.373      333.519        2.888      870.505
01/16/2021  03:37:00      -95.038       -9.850      -22.489      204.276       20.042       96.616    41728.649      401.695     9334.735        3.054        2.573       95.548      138.364        2.097      333.471        2.808      870.510
01/16/2021  03:38:00      -31.150       -4.983      -10.747      251.781       25.960      121.081    63393.819      673.917    14660.519        3.990        3.936       31.546      170.895       29.347      333.493        2.847      870.505
01/16/2021  03:39:00      -56.147        4.756        0.873       43.979       20.817       17.778     1934.170      433.328      316.069        0.293        0.134       56.348       19.908        0.125      333.383        2.662      870.499
01/16/2021  03:40:00      -37.149      -18.492       -1.505       42.345       29.406       17.326     1793.086      864.693      300.201        0.234        0.148       41.497       15.358        0.137      333.389        2.672      870.491
01/16/2021  03:41:00      -17.068       -2.305       -3.400      127.035       24.338       64.425    16137.929      592.329     4150.639        1.059        1.044       17.223       86.893       25.455      333.405        2.699      870.494
01/16/2021  03:42:00      -81.407        3.324       -0.423       45.958       35.465       16.733     2112.165     1257.731      279.999        0.514        0.182       81.475       14.166        0.030      333.382        2.659      870.500
01/16/2021  03:43:00      -73.283       -2.993      -16.789      216.458       25.728      102.089    46854.129      661.932    10422.228        3.179        2.897       73.344      146.530        3.991      333.516        2.883      870.497
01/16/2021  03:44:00       20.454        0.380      -27.240      394.090       32.069      186.444   155307.148     1028.445    34761.432        9.609        9.555       20.457      270.225      174.488      333.640        3.094      870.494
01/16/2021  03:45:00      -32.527      -11.372      -21.498      263.015       20.544      125.411    69176.673      422.066    15727.869        4.347        4.266       34.457      179.716       27.203      333.523        2.897      870.478
01/16/2021  03:46:00      -84.758       -0.099       -9.653      177.792       18.338       79.939    31610.095      336.276     6390.308        2.280        1.917       84.758      114.890        1.837      333.547        2.934      870.466
01/16/2021  03:47:00      -64.109       -0.003      -27.843      299.657       15.912      144.559    89794.294      253.200    20897.354        5.789        5.547       64.109      207.222       10.448      333.602        3.026      870.452
01/16/2021  03:48:00      -57.198        2.168      -26.136      305.275       23.438      143.136    93192.970      549.344    20487.909        5.907        5.712       57.239      207.514       13.144      333.533        2.914      870.442
01/16/2021  03:49:00      -44.381      -19.468      -13.229      265.269       26.632      127.406    70367.792      709.283    16232.405        4.490        4.365       48.463      181.671       14.053      333.515        2.884      870.441
01/16/2021  03:50:00      -55.622      -13.462      -11.351      271.193       29.216      128.157    73545.687      853.589    16424.255        4.709        4.541       57.228      184.104       10.349      333.452        2.780      870.439
01/16/2021  03:51:00      -66.882      -19.064        3.880      193.012       28.755       88.642    37253.630      826.850     7857.404        2.538        2.297       69.546      125.120        3.237      333.376        2.651      870.434
01/16/2021  03:52:00      -23.628       -9.262      -17.670      339.662       22.785      161.945   115370.250      519.179    26226.102        7.151        7.106       25.378      230.403       82.425      333.540        2.927      870.428
01/16/2021  03:53:00        7.069       13.990      -15.520      307.355       20.155      149.127    94467.369      406.237    22238.941        5.877        5.856       15.675      212.136      183.164      333.461        2.794      870.425
01/16/2021  03:54:00       -9.844        1.578       -4.096      194.225       16.458       92.682    37723.540      270.851     8589.889        2.334        2.329        9.970      130.595      171.574      333.388        2.670      870.429
01/16/2021  03:55:00      -76.983       -3.935      -21.366      256.942       25.387      120.290    66019.265      644.508    14469.774        4.375        4.057       77.083      172.502        5.008      333.394        2.683      870.432
01/16/2021  03:56:00      -77.083        9.092      -11.092      202.368       31.365       96.759    40952.606      983.753     9362.257        2.871        2.565       77.618      136.050        3.072      333.275        2.485      870.436
01/16/2021  03:57:00      -96.688       24.011      -20.311      245.815       28.456      118.573    60425.131      809.738    14059.490        4.280        3.765       99.625      167.364        2.822      333.319        2.557      870.434
01/16/2021  03:58:00      -74.895       26.630      -12.146      251.235       27.687      119.290    63118.870      766.568    14230.083        4.227        3.906       79.489      170.147        4.582      333.402        2.695      870.425
01/16/2021  03:59:00      -94.827       16.305      -20.444      278.185       35.361      133.725    77386.624     1250.411    17882.429        5.308        4.826       96.218      189.321        3.872      333.489        2.840      870.407
01/16/2021  04:00:00       16.501        9.380      -11.364      299.079       26.274      138.863    89448.361      690.315    19283.053        5.493        5.471       18.981      201.594      112.803      333.455        2.785      870.394
01/16/2021  04:01:00      -33.410      -21.468       -5.393      180.105       33.600       85.226    32437.667     1128.976     7263.502        2.121        2.042       39.713      119.951        9.123      333.374        2.648      870.377
01/16/2021  04:02:00      -27.549       -0.605      -10.707      235.126       24.977      111.294    55284.025      623.843    12386.270        3.457        3.415       27.556      159.941       33.690      333.375        2.651      870.366
01/16/2021  04:03:00       -4.781        8.574       -6.345      271.315       17.402      131.040    73611.670      302.827    17171.372        4.559        4.554        9.817      187.063      363.093      333.385        2.668      870.355
01/16/2021  04:04:00      -52.920       14.437      -15.460      217.667       20.755      104.651    47379.064      430.766    10951.738        3.099        2.938       54.853      149.930        7.471      333.391        2.676      870.344
01/16/2021  04:05:00      -76.179       13.017      -10.958       14.624       13.694       11.369      213.864      187.531      129.246        0.331        0.027       77.284        8.318        0.012      333.385        2.665      870.338
01/16/2021  04:06:00      -59.408       13.396      -17.758      229.940       17.407      110.136    52872.211      303.021    12129.890        3.465        3.265       60.900      158.233        6.751      333.485        2.831      870.335
01/16/2021  04:07:00      -53.131       -3.345       -0.775       43.321       16.596       19.232     1876.722      275.412      369.869        0.268        0.126       53.236       19.635        0.136      333.466        2.801      870.336
01/16/2021  04:08:00      -49.566       -6.509      -11.816      181.843       17.300       87.021    33066.728      299.273     7572.672        2.178        2.047       49.991      123.385        6.092      333.571        2.974      870.331
01/16/2021  04:09:00      -44.703        6.630       -2.550      148.221       20.387       71.862    21969.533      415.650     5164.159        1.479        1.377       45.192      101.086        5.003      333.498        2.852      870.323
01/16/2021  04:10:00       28.923       -3.318       -5.676      241.743       18.342      115.310    58439.756      336.433    13296.440        3.646        3.604       29.112      165.872       32.463      333.634        3.080      870.312
01/16/2021  04:11:00       -4.404        0.642      -11.755      189.705       20.995       91.930    35987.854      440.770     8451.094        2.251        2.244        4.450      130.871      864.882      333.563        2.961      870.296
01/16/2021  04:12:00      -10.185        3.027      -18.928      316.825       16.189      150.370   100378.153      262.073    22611.105        6.184        6.163       10.625      217.340      418.444      333.590        3.007      870.282
01/16/2021  04:13:00      -14.343       -3.931      -16.394      241.615       17.011      116.286    58377.693      289.387    13522.388        3.632        3.609       14.872      167.016      126.114      333.544        2.931      870.272
01/16/2021  04:14:00      -20.442      -11.692      -16.716      269.312       16.941      124.940    72528.757      286.988    15610.048        4.461        4.421       23.550      181.897       59.660      333.491        2.844      870.270
01/16/2021  04:15:00      -79.235      -10.440       -5.230      176.152       21.469       83.572    31029.659      460.922     6984.307        2.244        1.924       79.920      118.577        2.201      333.403        2.696      870.253
01/16/2021  04:16:00      -46.056       -5.444       -4.912      126.054       27.948       62.652    15889.556      781.110     3925.233        1.138        1.030       46.377       84.176        3.294      333.366        2.634      870.238
01/16/2021  04:17:00      -38.668      -21.588       -7.048      257.121       30.063      124.003    66111.299      903.779    15376.700        4.218        4.120       44.286      175.394       15.686      333.482        2.827      870.230
01/16/2021  04:18:00      -63.892        3.441        1.789      189.994       35.018       95.163    36097.775     1226.242     9056.013        2.523        2.319       63.985      130.537        4.162      333.538        2.920      870.226
01/16/2021  04:19:00      -38.681        6.749       -9.687      255.088       30.390      124.287    65070.075      923.574    15447.201        4.152        4.072       39.265      175.542       19.987      333.617        3.051      870.220
01/16/2021  04:20:00      -94.046        9.599       -2.648      147.753       23.052       72.398    21831.007      531.414     5241.525        1.827        1.380       94.535      100.864        1.138      333.435        2.748      870.208
01/16/2021  04:21:00      -73.034       11.661        1.414      201.086       23.157       95.161    40435.627      536.232     9055.535        2.774        2.501       73.959      133.532        3.260      333.424        2.732      870.192
01/16/2021  04:22:00      -15.468       -5.427      -10.281      313.175       28.028      150.984    98078.753      785.577    22796.042        6.099        6.083       16.393      214.272      170.857      333.553        2.947      870.175
01/16/2021  04:23:00      -95.366       19.046       -4.694      209.275       32.433      103.337    43796.192     1051.871    10678.618        3.249        2.776       97.249      142.542        2.148      333.347        2.603      870.157
01/16/2021  04:24:00      -45.242        5.460       -9.352      329.493       27.458      156.650   108565.328      753.943    24539.155        6.798        6.693       45.570      223.830       24.125      333.379        2.659      870.137
01/16/2021  04:25:00       26.288       -3.877      -27.305      409.126       31.788      196.323   167383.691     1010.474    38542.660       10.415       10.347       26.572      281.422      112.168      333.469        2.809      870.131
01/16/2021  04:26:00      -44.970       12.309        2.429      152.786       25.595       71.531    23343.507      655.119     5116.623        1.564        1.456       46.624      100.710        4.666      333.230        2.409      870.120
01/16/2021  04:27:00      -28.208        0.057      -15.132      277.858       26.593      128.253    77205.176      707.210    16448.885        4.767        4.718       28.208      186.100       43.525      333.316        2.553      870.102
01/16/2021  04:28:00      -58.369        9.740      -19.360      282.376       26.691      134.274    79736.449      712.405    18029.568        5.116        4.924       59.176      193.588       10.702      333.283        2.499      870.086
01/16/2021  04:29:00      -78.207       10.779       -3.848       27.721       19.900       18.594      768.478      395.998      345.726        0.388        0.076       78.946       10.738        0.019      333.162        2.295      870.076
01/16/2021  04:30:00      -80.782       25.067      -17.223      256.191       21.004      122.889    65633.760      441.156    15101.789        4.430        4.059       84.582      175.963        4.328      333.202        2.365      870.060
01/16/2021  04:31:00     -105.262       24.662       -5.061       18.980       22.306       14.606      360.249      497.543      213.340        0.639        0.054      108.113       14.231        0.017      333.061        2.130      870.051
01/16/2021  04:32:00      -74.880        4.437       -8.719      164.319       21.547       79.845    27000.654      464.259     6375.221        1.976        1.692       75.012      111.711        2.218      333.106        2.204      870.043
01/16/2021  04:33:00      -41.019       11.572      -30.255      340.333       24.152      162.701   115826.500      583.308    26471.670        7.278        7.144       42.619      234.145       30.182      333.256        2.456      870.037
01/16/2021  04:34:00      -57.610        6.033      -12.930      240.875       21.634      115.475    58020.974      468.023    13334.393        3.766        3.591       57.925      164.398        8.055      333.178        2.326      870.029
01/16/2021  04:35:00      -28.583       -7.467      -17.949      317.546       26.438      148.684   100835.338      698.975    22106.930        6.239        6.182       29.543      214.866       52.897      333.237        2.424      870.017
01/16/2021  04:36:00      -38.136        6.812       -7.883      238.395       23.282      115.214    56832.081      542.054    13274.266        3.609        3.532       38.740      162.346       17.562      333.150        2.278      870.021
01/16/2021  04:37:00      -21.284       -1.119       -8.440      207.945       24.639       99.314    43241.155      607.062     9863.343        2.711        2.686       21.314      142.257       44.547      333.220        2.395      870.022
01/16/2021  04:38:00      -35.194        5.884       -4.183      216.348       21.380      105.147    46806.651      457.122    11055.807        2.979        2.916       35.683      148.796       17.388      333.185        2.336      870.030
01/16/2021  04:39:00      -34.891        7.605      -10.118      244.540       20.384      117.226    59799.768      415.512    13742.019        3.765        3.698       35.710      167.723       22.060      333.219        2.393      870.023
01/16/2021  04:40:00       34.914        1.762      -18.991      380.981       21.637      186.820   145146.547      468.166    34901.807        9.101        9.026       34.958      265.446       57.656      333.357        2.624      870.026
01/16/2021  04:41:00       71.098       -1.224      -36.072      468.158       28.186      221.274   219171.661      794.466    48962.164       13.759       13.446       71.108      321.069       20.387      333.569        2.975      870.029
01/16/2021  04:42:00        7.164       -2.468      -10.057      162.381       25.389       76.733    26367.510      644.576     5887.886        1.652        1.645        7.577      109.794      209.976      333.311        2.543      870.026
01/16/2021  04:43:00       21.170       12.111       -8.064      298.123       20.609      142.380    88877.071      424.719    20271.956        5.509        5.479       24.390      204.963       70.621      333.327        2.572      870.034
01/16/2021  04:44:00       -3.183       22.668      -16.961      295.229       23.927      141.984    87160.310      572.506    20159.594        5.433        5.395       22.891      203.570       79.087      333.348        2.605      870.043
01/16/2021  04:45:00       -3.912       11.119      -20.506      337.027       22.501      159.495   113586.879      506.293    25438.696        7.002        6.977       11.787      230.581      382.697      333.350        2.610      870.030
01/16/2021  04:46:00      -42.755        9.223      -15.759      207.135       19.242      100.404    42904.709      370.245    10080.971        2.775        2.668       43.739      141.907       10.526      333.219        2.391      870.031
01/16/2021  04:47:00      -45.782       13.871      -15.118      215.414       22.860      103.007    46403.299      522.597    10610.525        3.001        2.877       47.837      147.109        9.457      333.164        2.302      870.036
01/16/2021  04:48:00      -28.907       11.388      -23.309      328.158       26.038      157.556   107687.915      677.993    24823.835        6.732        6.659       31.069      224.968       52.429      333.194        2.354      870.025
01/16/2021  04:49:00      -24.371       22.486      -16.884      281.595       31.193      132.353    79295.931      973.012    17517.200        4.956        4.889       33.160      190.715       33.078      333.084        2.170      870.026
01/16/2021  04:50:00      -44.743       15.063      -16.336      204.435       24.066       96.822    41793.580      579.155     9374.571        2.711        2.587       47.211      137.570        8.491      332.986        2.006      870.027
01/16/2021  04:51:00       55.342       10.481      -32.595      380.959       26.247      181.392   145129.857      688.918    32903.081        9.144        8.936       56.325      262.060       21.647      333.112        2.220      870.034
01/16/2021  04:52:00       13.520       15.057      -17.550      153.394       24.622       73.541    23529.601      606.264     5408.351        1.512        1.477       20.236      104.698       26.768      332.921        1.899      870.046
01/16/2021  04:53:00       44.822       33.486      -17.710      237.338       27.567      114.093    56329.246      759.944    13017.262        3.676        3.505       55.949      162.471        8.433      333.210        2.378      870.060
01/16/2021  04:54:00       43.184       15.140       -7.237      246.118       18.501      114.391    60573.949      342.302    13085.392        3.806        3.700       45.761      166.873       13.298      333.307        2.537      870.066
01/16/2021  04:55:00       46.329       10.500      -17.301      330.744       28.822      161.055   109391.844      830.686    25938.600        6.933        6.808       47.504      229.057       23.251      333.066        2.142      870.061
01/16/2021  04:56:00       30.637       -0.630      -24.187      356.413       31.036      171.679   127030.028      963.245    29473.577        7.946        7.873       30.643      245.717       64.298      332.909        1.882      870.051
01/16/2021  04:57:00       43.007      -12.271      -36.778      407.617       25.040      192.291   166151.708      627.008    36975.656       10.351       10.188       44.724      279.072       38.936      332.961        1.969      870.032
01/16/2021  04:58:00       -9.880        9.832      -16.946      275.402       34.205      133.675    75846.191     1169.976    17868.986        4.766        4.744       13.938      189.066      184.001      332.774        1.659      870.029
01/16/2021  04:59:00      -46.744       26.182      -22.183      282.235       36.924      136.513    79656.430     1363.368    18635.831        5.149        4.983       53.577      193.303       13.017      332.753        1.625      870.025
01/16/2021  05:00:00      -55.302       26.639      -33.242      372.286       24.264      178.213   138596.645      588.732    31759.859        8.787        8.547       61.383      256.551       17.468      332.758        1.634      870.031
01/16/2021  05:01:00      -13.273        3.598      -33.603      349.444       29.721      167.089   122111.118      883.313    27918.605        7.608        7.546       13.752      239.691      303.807      332.789        1.684      870.043
01/16/2021  05:02:00      -53.813       12.887      -28.438      293.176       27.967      139.936    85952.098      782.134    19582.130        5.507        5.316       55.335      199.953       13.057      332.626        1.414      870.057
01/16/2021  05:03:00      -95.025       51.951      -31.590      364.773       31.881      177.489   133059.009     1016.383    31502.312        8.912        8.279      108.299      252.040        5.416      332.697        1.533      870.072
01/16/2021  05:04:00      -71.235       41.331      -25.954      355.126       36.687      169.737   126114.199     1345.957    28810.768        8.183        7.814       82.357      242.481        8.669      332.706        1.546      870.076
01/16/2021  05:05:00      -53.738       22.749      -25.291      377.471       34.830      180.498   142484.179     1213.123    32579.494        9.012        8.814       58.355      259.437       19.766      332.711        1.556      870.079
01/16/2021  05:06:00      -70.756       11.358      -11.585      264.372       37.887      125.447    69892.645     1435.430    15736.947        4.615        4.353       71.662      179.122        6.248      332.703        1.540      870.077
01/16/2021  05:07:00      -61.285       23.678      -22.653      382.104       34.242      181.129   146003.450     1172.505    32807.876        9.237        8.999       65.700      261.185       15.804      332.883        1.840      870.064
01/16/2021  05:08:00      -15.065       12.538      -24.463      387.503       41.120      181.454   150158.210     1690.876    32925.541        9.284        9.239       19.600      261.810      178.424      332.947        1.946      870.046
01/16/2021  05:09:00      -59.321        4.029       -8.345      250.336       32.546      122.763    62668.023     1059.216    15070.809        4.118        3.940       59.458      171.063        8.277      332.864        1.806      870.045
01/16/2021  05:10:00      -32.972       10.070      -14.844      318.820       39.672      150.334   101646.177     1573.874    22600.195        6.359        6.291       34.475      215.583       39.103      332.935        1.925      870.050
01/16/2021  05:11:00      -33.354        1.685      -14.747      335.420       34.055      161.782   112506.885     1159.762    26173.550        7.056        6.992       33.396      229.610       47.270      333.027        2.078      870.060
01/16/2021  05:12:00      -62.537        9.808      -21.374      356.293       29.863      169.945   126944.731      891.805    28881.138        8.056        7.836       63.301      244.263       14.890      333.015        2.057      870.088
01/16/2021  05:13:00      -54.360       14.588      -14.662      307.643       28.791      144.222    94644.442      828.920    20799.933        5.980        5.814       56.284      208.521       13.726      333.044        2.104      870.116
01/16/2021  05:14:00      -79.518        8.814      -16.532      290.314       24.152      135.248    84282.390      583.318    18292.002        5.489        5.158       80.005      196.284        6.019      333.046        2.108      870.130
01/16/2021  05:15:00      -77.601        8.962       -1.977      209.441       27.977      103.857    43865.485      782.722    10786.315        3.076        2.772       78.117      142.642        3.334      332.891        1.849      870.132
01/16/2021  05:16:00      -73.880        8.183       -1.255      243.364       33.576      118.321    59226.226     1127.363    13999.828        3.992        3.718       74.332      165.151        4.936      332.945        1.940      870.120
01/16/2021  05:17:00      -45.976       17.036      -10.858      299.760       39.578      135.076    89856.169     1566.410    18245.650        5.607        5.483       49.031      198.290       16.355      332.996        2.026      870.110
01/16/2021  05:18:00      -55.228       21.209      -18.588      380.291       47.687      176.858   144621.497     2274.014    31278.679        9.097        8.909       59.161      255.307       18.623      333.102        2.203      870.094
01/16/2021  05:19:00        2.303       -5.289      -20.665      380.136       31.212      180.564   144503.319      974.169    32603.247        8.923        8.904        5.769      259.680     2026.221      333.137        2.260      870.083
01/16/2021  05:20:00      -36.665        0.025      -19.153      322.078       36.085      151.862   103734.197     1302.129    23062.199        6.488        6.405       36.665      218.996       35.675      332.995        2.026      870.058
01/16/2021  05:21:00      -57.789        9.981      -12.810      261.045       38.910      122.527    68144.285     1514.017    15012.988        4.412        4.234       58.644      175.816        8.988      332.925        1.907      870.036
01/16/2021  05:22:00      -52.901       -5.430      -16.255      224.496       27.229      107.555    50398.397      741.437    11568.151        3.289        3.135       53.179      152.762        8.252      332.936        1.926      870.022
01/16/2021  05:23:00      -14.628       11.312      -21.815      376.364       34.471      177.943   141649.862     1188.246    31663.565        8.762        8.725       18.491      256.721      192.744      333.099        2.198      870.024
01/16/2021  05:24:00      -48.399       17.002      -15.618      352.520       34.955      170.171   124270.017     1221.877    28958.334        7.863        7.723       51.298      242.414       22.331      333.002        2.037      870.036
01/16/2021  05:25:00      -40.597       17.196      -27.127      421.307       35.052      203.653   177499.569     1228.631    41474.621       11.140       11.010       44.089      290.064       43.283      333.049        2.116      870.039
01/16/2021  05:26:00      -77.778       24.423      -18.190      238.545       40.464      116.959    56903.785     1637.343    13679.484        3.958        3.611       81.523      162.966        3.996      332.886        1.843      870.050
01/16/2021  05:27:00      -51.317       31.876      -32.556      386.848       29.281      184.612   149651.541      857.368    34081.510        9.461        9.230       60.411      265.782       19.356      333.083        2.172      870.049
01/16/2021  05:28:00      -45.552        3.631      -21.596      249.381       34.869      120.766    62190.928     1215.864    14584.314        4.026        3.900       45.697      171.187       14.034      332.984        2.005      870.040
01/16/2021  05:29:00      -39.497        5.577      -17.212      259.401       31.470      123.451    67288.959      990.380    15240.175        4.269        4.176       39.889      176.141       19.499      332.908        1.879      870.039
01/16/2021  05:30:00       26.259        7.730      -14.551      339.260       39.317      155.881   115097.316     1545.838    24298.879        7.092        7.047       27.373      226.019       68.176      332.927        1.913      870.045
01/16/2021  05:31:00       51.291       -0.654      -54.109      544.582       42.582      259.554   296569.664     1813.267    67368.275       18.558       18.288       51.296      373.649       53.060      333.146        2.280      870.053
01/16/2021  05:32:00       10.922       13.002      -19.504      328.288       43.699      160.581   107773.306     1909.615    25786.244        6.804        6.773       16.981      225.920      177.013      332.869        1.816      870.069
01/16/2021  05:33:00      -18.106        5.941      -29.665      288.471       51.023      142.638    83215.770     2603.304    20345.546        5.368        5.308       19.056      197.050      106.929      332.782        1.672      870.081
01/16/2021  05:34:00      -26.037       16.790      -19.142      274.688       57.423      131.269    75453.484     3297.428    17231.520        4.863        4.799       30.981      183.339       35.020      332.747        1.614      870.089
01/16/2021  05:35:00       33.725        5.000      -26.494      426.031       53.656      199.913   181502.157     2879.005    39965.365       11.306       11.217       34.093      287.206       70.966      332.799        1.701      870.094
01/16/2021  05:36:00       20.601      -16.246      -37.607      422.376       49.901      200.931   178401.342     2490.140    40373.455       11.164       11.063       26.236      288.711      121.097      332.812        1.724      870.105
01/16/2021  05:37:00       20.965       26.806      -35.117      473.705       58.727      219.541   224396.729     3448.823    48198.452       13.916       13.802       34.031      319.399       88.090      332.910        1.888      870.122
01/16/2021  05:38:00        4.247       12.295      -26.842      353.536       53.801      166.293   124987.782     2894.529    27653.301        7.818        7.777       13.008      237.691      333.899      332.740        1.604      870.134
01/16/2021  05:39:00       49.789       -3.481      -22.130      392.539       38.456      182.906   154086.574     1478.826    33454.723        9.596        9.451       49.910      266.226       28.453      332.808        1.716      870.143
01/16/2021  05:40:00      -34.005       -1.818      -29.139      305.633       33.048      144.094    93411.696     1092.170    20762.981        5.861        5.763       34.054      207.268       37.046      332.711        1.555      870.148
01/16/2021  05:41:00      -94.965       20.409       -8.266       39.965       40.648       24.156     1597.187     1652.224      583.534        0.667        0.192       97.133       26.006        0.072      332.600        1.368      870.159
01/16/2021  05:42:00      -58.421       46.130      -22.554      335.163       41.629      162.620   112334.200     1732.978    26445.301        7.325        7.026       74.438      231.073        9.636      332.783        1.675      870.168
01/16/2021  05:43:00      -47.866       38.986      -12.338      260.518       40.331      123.029    67869.590     1626.619    15136.194        4.428        4.232       61.734      176.100        8.137      332.725        1.577      870.174
01/16/2021  05:44:00       14.110       14.751      -27.998      383.148       43.303      182.358   146802.669     1875.188    33254.593        9.153        9.097       20.412      261.900      164.620      332.921        1.904      870.185
01/16/2021  05:45:00       18.493       10.931      -26.865      389.159       35.652      182.138   151444.964     1271.062    33174.398        9.350        9.295       21.482      264.701      151.831      332.977        1.994      870.192
01/16/2021  05:46:00       72.922       13.860      -36.020      464.227       37.786      221.276   215506.505     1427.809    48963.151       13.630       13.295       74.228      318.671       18.431      333.133        2.256      870.199
01/16/2021  05:47:00       21.950       21.490      -37.326      423.707       37.720      202.683   179527.793     1422.789    41080.222       11.214       11.102       30.719      291.368       89.967      332.989        2.017      870.207
01/16/2021  05:48:00       -2.577       21.308      -25.924      342.843       37.250      166.385   117541.235     1387.594    27683.964        7.384        7.331       21.464      236.916      121.838      332.896        1.862      870.220
01/16/2021  05:49:00      -20.620       15.408      -14.266      271.030       31.732      131.460    73457.337     1006.917    17281.830        4.629        4.587       25.741      186.680       52.594      332.854        1.790      870.246
01/16/2021  05:50:00      -20.880       26.394      -22.459      336.871       28.652      161.730   113482.175      820.947    26156.624        7.102        7.023       33.655      232.071       47.549      332.881        1.835      870.272
01/16/2021  05:51:00      -55.868       26.568      -13.360      195.552       30.448       94.661    38240.663      927.075     8960.740        2.606        2.406       61.863      133.479        4.655      332.720        1.568      870.295
01/16/2021  05:52:00       -9.180       39.902      -42.076      460.242       35.668      221.075   211823.036     1272.179    48874.209       13.265       13.098       40.945      317.533       60.143      332.991        2.021      870.284
01/16/2021  05:53:00      -45.244       22.647      -17.473      291.680       30.462      139.642    85077.385      927.958    19500.006        5.416        5.275       50.596      199.956       15.619      332.821        1.736      870.231
01/16/2021  05:54:00        9.360       19.978      -45.044      466.412       27.427      224.605   217539.851      752.223    50447.250       13.557       13.437       22.062      322.736      214.002      332.957        1.965      870.232
01/16/2021  05:55:00      -20.413       24.204      -29.176      387.343       30.020      187.477   150034.727      901.215    35147.670        9.393        9.304       31.663      268.105       71.700      332.789        1.686      870.228
01/16/2021  05:56:00        7.464       25.230      -29.329      406.386       35.632      195.055   165149.896     1269.623    38046.320       10.297       10.223       26.311      280.109      113.343      332.854        1.794      870.223
01/16/2021  05:57:00      -16.789       43.494      -29.431      351.704       33.806      168.199   123695.666     1142.824    28290.840        7.805        7.656       46.622      241.489       26.830      332.745        1.611      870.207
01/16/2021  05:58:00      -24.688       37.199      -35.054      414.945       34.423      199.174   172179.248     1184.914    39670.125       10.808       10.652       44.646      285.341       40.847      332.813        1.726      870.197
01/16/2021  05:59:00      -17.972       33.135      -30.664      413.889       36.156      198.539   171304.447     1307.276    39417.743       10.715       10.601       37.695      284.434       56.937      332.798        1.700      870.206
01/16/2021  06:00:00      -24.850       35.470      -21.143      355.898       35.495      171.710   126663.205     1259.913    29484.258        7.983        7.870       43.309      245.350       32.094      332.773        1.657      870.246
01/16/2021  06:01:00       28.069       20.392      -35.858      423.678       34.858      199.159   179503.289     1215.056    39664.276       11.139       11.019       34.694      288.736       69.260      332.832        1.757      870.287
01/16/2021  06:02:00       41.335       29.390      -21.580      390.524       36.550      188.636   152509.311     1335.871    35583.358        9.619        9.471       50.718      269.575       28.251      332.813        1.724      870.298
01/16/2021  06:03:00       34.891       32.210      -12.261      292.298       39.472      141.980    85438.204     1558.060    20158.326        5.476        5.358       47.485      201.108       17.937      332.734        1.592      870.304
01/16/2021  06:04:00       43.116       17.055      -29.908      363.269       40.814      171.971   131964.592     1665.760    29574.108        8.309        8.160       46.367      247.604       28.517      333.013        2.055      870.296
01/16/2021  06:05:00       82.340        9.718      -49.045      510.992       37.592      239.569   261112.770     1413.151    57393.345       16.453       15.996       82.911      348.552       17.673      333.021        2.073      870.291
01/16/2021  06:06:00       87.640       -1.222      -58.959      541.789       31.675      260.044   293535.516     1003.312    67622.726       18.658       18.108       87.648      374.198       18.227      332.929        1.921      870.283
01/16/2021  06:07:00       -3.899       43.432      -19.251      337.081       42.774      163.864   113623.772     1829.625    26851.412        7.226        7.115       43.606      232.269       28.371      332.791        1.687      870.284
01/16/2021  06:08:00      -20.479       40.467      -24.644      280.482       29.762      134.797    78670.361      885.792    18170.329        5.017        4.886       45.354      192.645       18.042      332.664        1.477      870.301
01/16/2021  06:09:00       -4.636       24.210      -30.473      353.158       32.083      165.599   124720.688     1029.290    27422.929        7.732        7.659       24.650      239.998       94.796      332.747        1.616      870.315
01/16/2021  06:10:00      -11.246       16.800      -31.413      343.677       32.131      165.525   118113.761     1032.390    27398.384        7.394        7.327       20.216      236.966      137.395      332.792        1.689      870.329
01/16/2021  06:11:00      -56.458       32.266      -13.676      188.704       40.056       94.270    35609.105     1604.485     8886.768        2.525        2.305       65.028      128.580        3.910      332.663        1.474      870.344
01/16/2021  06:12:00      -40.745       25.293      -10.868      277.681       39.400      135.211    77106.946     1552.351    18281.909        4.966        4.847       47.957      189.982       15.693      332.711        1.554      870.363
01/16/2021  06:13:00      -24.953       41.639      -32.039      402.434       35.469      188.562   161952.776     1258.070    35555.451       10.103        9.938       48.543      273.285       31.693      332.710        1.554      870.387
01/16/2021  06:14:00      -30.246       33.196      -26.191      333.105       42.582      159.589   110958.614     1813.215    25468.581        7.044        6.912       44.909      227.979       25.771      332.656        1.463      870.414
01/16/2021  06:15:00       30.168       24.655      -54.956      524.985       44.555      252.120   275609.580     1985.152    63564.524       17.278       17.058       38.961      361.435       86.059      332.897        1.867      870.432
01/16/2021  06:16:00      -32.667       18.985      -16.811      280.721       44.510      130.092    78804.543     1981.167    16923.955        4.969        4.885       37.783      186.055       24.249      332.597        1.367      870.438
01/16/2021  06:17:00      -88.511       30.087      -19.275      317.608       39.933      154.787   100874.843     1594.682    23958.920        6.774        6.321       93.485      218.822        5.479      332.584        1.346      870.432
01/16/2021  06:18:00      -41.945       31.454      -33.557      408.661       39.750      191.789   167004.202     1580.097    36782.870       10.458       10.268       52.429      277.445       28.004      332.694        1.529      870.425
01/16/2021  06:19:00      -68.948       19.254      -22.029      271.824       28.836      125.896    73888.517      831.523    15849.902        4.807        4.528       71.586      183.375        6.562      332.552        1.291      870.419
01/16/2021  06:20:00       23.914        3.362      -49.935      484.904       33.457      230.734   235131.421     1119.386    53238.022       14.622       14.474       24.150      332.354      189.400      332.832        1.760      870.431
01/16/2021  06:21:00      -35.737       15.506      -12.614      260.974       34.622      124.329    68107.588     1198.711    15457.646        4.320        4.238       38.956      175.994       20.410      332.617        1.399      870.447
01/16/2021  06:22:00      -15.943        0.210      -13.252      281.016       39.335      133.950    78969.998     1547.212    17942.546        4.942        4.923       15.944      190.907      143.358      332.610        1.388      870.469
01/16/2021  06:23:00      -37.788       48.060      -35.734      429.990       35.665      206.791   184891.636     1271.964    42762.620       11.692       11.446       61.136      296.456       23.514      332.838        1.768      870.487
01/16/2021  06:24:00       33.202       44.679      -65.834      617.928       31.123      292.644   381835.110      968.659    85640.503       23.784       23.422       55.665      424.096       58.045      333.140        2.273      870.514
01/16/2021  06:25:00        3.835       33.139      -36.275      471.927       39.848      224.914   222715.007     1587.902    50586.132       13.860       13.744       33.360      324.180       94.434      332.984        2.010      870.532
01/16/2021  06:26:00      -32.403       24.572      -23.146      332.924       38.121      158.968   110838.699     1453.211    25270.915        6.985        6.878       40.666      227.985       31.430      332.795        1.694      870.537
01/16/2021  06:27:00      -20.779        7.269      -38.987      400.345       29.540      192.775   160276.319      872.638    37162.313       10.012        9.916       22.014      276.577      157.842      332.892        1.857      870.540
01/16/2021  06:28:00      -37.369       14.474      -33.912      382.228       36.600      184.821   146097.875     1339.590    34158.863        9.214        9.080       40.074      264.002       43.400      333.090        2.182      870.539
01/16/2021  06:29:00      -12.409       12.455      -24.721      362.239       31.399      174.876   131217.216      985.925    30581.685        8.182        8.139       17.581      249.804      201.877      333.245        2.437      870.545
01/16/2021  06:30:00       51.829        6.743      -18.670      392.186       31.159      185.155   153810.181      970.899    34282.432        9.603        9.453       52.266      267.939       26.280      333.190        2.349      870.551
01/16/2021  06:31:00      -51.440       18.945       -6.822      185.380       32.724       88.035    34365.630     1070.865     7750.093        2.311        2.159       54.818      124.385        5.149      332.936        1.924      870.552
01/16/2021  06:32:00      -37.982       28.285      -25.147      393.626       31.940      185.799   154941.653     1020.155    34521.160        9.664        9.524       47.357      268.597       32.169      332.971        1.985      870.549
01/16/2021  06:33:00      -55.333       18.720      -14.271      283.686       37.268      133.884    80477.893     1388.892    17924.947        5.168        4.990       58.414      192.104       10.815      332.852        1.785      870.539
01/16/2021  06:34:00        2.526       35.402      -37.647      462.436       34.563      222.117   213847.043     1194.579    49335.901       13.347       13.219       35.492      318.750       80.656      332.938        1.934      870.536
01/16/2021  06:35:00      -28.959       35.615      -20.102      377.204       33.203      179.436   142282.613     1102.432    32197.335        8.901        8.779       45.903      258.192       31.638      332.809        1.717      870.530
01/16/2021  06:36:00      -54.125       18.799       -7.628      217.415       29.573      105.554    47269.088      874.562    11141.740        3.130        2.964       57.297      149.122        6.774      332.779        1.666      870.522
01/16/2021  06:37:00       35.913        9.338      -17.617      371.122       34.071      174.538   137731.592     1160.850    30463.570        8.549        8.468       37.107      252.936       46.463      332.969        1.982      870.519
01/16/2021  06:38:00      101.251        5.238      -36.665      497.669       29.033      234.498   247674.913      842.904    54989.486       15.750       15.175      101.386      340.460       11.277      333.118        2.233      870.515
01/16/2021  06:39:00       52.777       17.773      -42.020      482.924       31.896      230.260   233215.446     1017.364    53019.484       14.600       14.363       55.689      332.050       35.552      333.116        2.228      870.521
01/16/2021  06:40:00        4.369       21.523      -29.515      370.993       31.374      175.237   137636.021      984.328    30708.093        8.531        8.466       21.962      253.674      133.419      333.002        2.035      870.537
01/16/2021  06:41:00       -8.185       20.933      -21.302      376.913       36.491      177.465   142063.673     1331.616    31493.844        8.789        8.744       22.476      256.598      130.338      333.047        2.111      870.560
01/16/2021  06:42:00       -9.604       14.797      -23.630      384.145       37.697      181.527   147567.069     1421.072    32952.060        9.137        9.097       17.641      261.644      219.984      333.030        2.083      870.591
01/16/2021  06:43:00       -9.179       23.953      -31.098      441.796       28.365      214.191   195183.609      804.556    45877.889       12.169       12.093       25.651      306.071      142.372      332.957        1.965      870.617
01/16/2021  06:44:00      -31.175       23.772      -34.447      408.891       32.670      196.974   167191.460     1067.307    38798.761       10.485       10.353       39.204      281.748       51.649      332.853        1.791      870.633
01/16/2021  06:45:00      -69.932       31.913      -18.419      315.046       39.256      153.426    99253.737     1541.066    23539.457        6.526        6.217       76.870      216.957        7.966      332.735        1.595      870.637
01/16/2021  06:46:00      -36.531       41.116      -32.648      396.702       26.335      190.221   157372.278      693.548    36184.176        9.913        9.713       55.001      273.013       24.639      332.770        1.653      870.634
01/16/2021  06:47:00       75.243       40.282      -73.376      631.163       34.831      302.342   398366.250     1213.193    91410.504       25.173       24.549       85.348      435.477       26.034      333.079        2.172      870.635
01/16/2021  06:48:00      -23.406       29.114      -17.481      323.960       30.081      152.354   104950.184      904.872    23211.699        6.536        6.453       37.356      220.031       34.693      332.728        1.584      870.645
01/16/2021  06:49:00      -32.321       14.430      -24.068      320.658       32.854      154.092   102821.324     1079.359    23744.324        6.471        6.382       35.396      220.331       38.747      332.773        1.657      870.646
01/16/2021  06:50:00      -43.757       24.124      -31.099      416.227       29.359      197.239   173244.685      861.956    38903.221       10.819       10.650       49.966      285.183       32.576      332.834        1.761      870.650
01/16/2021  06:51:00      -69.499       16.447      -25.112      282.084       28.503      132.848    79571.520      812.401    17648.668        5.186        4.902       71.418      191.886        7.219      332.726        1.578      870.644
01/16/2021  06:52:00       64.032       15.067      -68.240      595.591       44.221      286.795   354728.685     1955.511    82251.445       22.387       21.947       65.781      411.191       39.074      333.190        2.355      870.636
01/16/2021  06:53:00       67.383       -0.326      -29.847      436.703       42.720      211.168   190709.718     1825.030    44591.905       12.123       11.856       67.383      300.976       19.951      332.880        1.837      870.625
01/16/2021  06:54:00       28.215       12.206      -28.421      402.169       34.151      199.481   161740.243     1166.300    39792.546       10.218       10.135       30.741      280.425       83.212      332.830        1.755      870.616
01/16/2021  06:55:00      -27.148       29.896      -36.127      433.276       37.139      202.682   187727.865     1379.302    41080.021       11.651       11.509       40.384      294.679       53.246      332.906        1.879      870.609
01/16/2021  06:56:00      -25.005       29.098      -20.919      340.350       28.473      163.722   115837.936      810.723    26804.747        7.265        7.173       38.366      234.365       37.316      332.733        1.593      870.600
01/16/2021  06:57:00      -16.589       27.248        1.999      239.685       39.185      117.481    57448.854     1535.446    13801.859        3.689        3.639       31.900      163.957       26.416      332.688        1.516      870.599
01/16/2021  06:58:00      -12.923       20.103      -13.131      279.013       44.996      134.406    77848.007     2024.666    18064.867        4.932        4.897       23.898      191.681       64.333      332.737        1.597      870.607
01/16/2021  06:59:00       53.085       -7.639      -17.192      278.431       38.229      131.912    77523.947     1461.471    17400.867        4.976        4.819       53.632      189.147       12.438      332.819        1.732      870.617
01/16/2021  07:00:00      151.611        5.288      -59.903      571.783       34.078      275.849   326935.749     1161.291    76092.566       21.531       20.209      151.703      395.906        6.811      333.239        2.436      870.632
01/16/2021  07:01:00       26.219       -8.298      -22.891      386.271       45.320      181.859   149205.366     2053.902    33072.528        9.277        9.217       27.501      261.900       90.696      332.926        1.912      870.645
01/16/2021  07:02:00       -8.169       -9.831      -22.745      266.581       34.504      127.863    71065.630     1190.498    16348.889        4.462        4.430       12.782      182.051      202.863      332.850        1.783      870.644
01/16/2021  07:03:00       71.665       10.693      -38.236      486.471       41.813      227.420   236654.296     1748.368    51720.008       14.836       14.506       72.459      330.362       20.787      333.082        2.174      870.637
01/16/2021  07:04:00      148.824       12.334      -52.647      563.937       41.037      266.901   318024.737     1684.005    71235.919       20.793       19.547      149.334      386.128        6.686      333.153        2.293      870.629
01/16/2021  07:05:00       41.528        5.650      -24.071      429.260       43.018      198.997   184264.405     1850.579    39599.830       11.398       11.286       41.911      289.530       47.724      332.922        1.907      870.615
01/16/2021  07:06:00      -29.776        7.649        6.595      237.102       45.556      118.175    56217.287     2075.350    13965.415        3.661        3.613       30.743      162.535       27.951      332.764        1.641      870.607
01/16/2021  07:07:00       17.355        4.094      -25.147      433.880       36.202      201.800   188252.178     1310.589    40723.058       11.557       11.514       17.831      293.611      271.134      332.925        1.911      870.610
01/16/2021  07:08:00       46.551        9.997      -20.955      452.209       42.455      216.729   204492.963     1802.453    46971.655       12.793       12.663       47.612      310.600       42.556      333.026        2.079      870.622
01/16/2021  07:09:00       22.740        8.041       -0.016      310.840       38.872      143.609    96621.251     1511.053    20623.610        5.964        5.938       24.120      207.199       73.794      332.839        1.767      870.652
01/16/2021  07:10:00       33.743       10.425      -18.185      371.712       42.278      178.491   138169.739     1787.395    31858.869        8.666        8.591       35.317      254.544       51.947      332.941        1.936      870.674
01/16/2021  07:11:00       38.568        3.237      -24.720      405.925       29.443      194.088   164774.921      866.897    37670.312       10.267       10.166       38.704      279.219       52.045      332.990        2.018      870.694
01/16/2021  07:12:00       50.865       -0.676      -32.596      457.294       32.671      219.866   209118.067     1067.386    48341.253       13.103       12.926       50.870      315.676       38.509      333.026        2.079      870.704
01/16/2021  07:13:00       14.431        0.195      -16.781      354.427       29.917      170.873   125618.487      895.014    29197.742        7.807        7.786       14.432      244.172      286.244      332.868        1.816      870.711
01/16/2021  07:14:00        5.424       12.073      -12.665      344.587       36.880      166.169   118739.869     1360.128    27612.177        7.399        7.386       13.235      236.863      320.289      332.853        1.791      870.716
01/16/2021  07:15:00       33.612       12.995      -17.764      398.689       42.451      191.873   158952.727     1802.082    36815.136        9.955        9.878       36.037      274.047       57.830      332.928        1.917      870.730
01/16/2021  07:16:00        6.370        2.053       -9.186      297.469       35.519      146.657    88487.960     1261.609    21508.153        5.567        5.563        6.693      205.287      940.751      332.821        1.736      870.736
01/16/2021  07:17:00       30.260       -5.219      -19.317      358.173       32.868      170.740   128288.232     1080.300    29152.150        7.988        7.926       30.706      244.247       63.271      332.911        1.887      870.740
01/16/2021  07:18:00      112.340        3.244      -46.251      566.694       38.786      271.158   321142.105     1504.319    73526.795       20.539       19.809      112.387      390.364       12.065      333.180        2.338      870.745
01/16/2021  07:19:00       92.883        8.478      -33.004      470.438       34.418      223.905   221311.598     1184.575    50133.554       14.115       13.631       93.269      322.652       11.967      332.997        2.030      870.746
01/16/2021  07:20:00       45.350        4.335      -21.351      380.619       34.828      184.865   144870.776     1212.988    34174.981        9.136        9.013       45.556      263.250       33.392      332.860        1.802      870.739
01/16/2021  07:21:00       51.530       16.494      -25.062      431.758       34.644      201.999   186415.152     1200.236    40803.673       11.594       11.421       54.106      293.359       29.398      332.882        1.840      870.745
01/16/2021  07:22:00      -20.475        9.385       -6.624      230.554       31.448      111.163    53154.922      988.982    12357.296        3.351        3.325       22.523      157.589       48.953      332.674        1.492      870.752
01/16/2021  07:23:00       44.743        4.184      -17.377      392.736       31.131      187.510   154241.545      969.145    35159.837        9.631        9.519       44.938      269.265       35.903      332.836        1.763      870.768
01/16/2021  07:24:00       20.083       19.358      -22.422      401.227       36.665      190.068   160983.267     1344.320    36125.745        9.983        9.923       27.894      273.759       96.321      332.805        1.711      870.771
01/16/2021  07:25:00       42.015       15.916      -45.484      516.411       27.758      243.423   266680.518      770.498    59254.999       16.533       16.335       44.929      353.723       61.984      332.853        1.795      870.783
01/16/2021  07:26:00       -4.199        1.613      -25.268      361.281       28.098      173.021   130524.120      789.475    29936.100        8.092        8.062        4.499      248.921     3061.618      332.793        1.691      870.795
01/16/2021  07:27:00       -2.608       11.471       -9.730      308.917       32.289      144.393    95429.945     1042.563    20849.482        5.875        5.866       11.764      209.211      316.284      332.700        1.533      870.790
01/16/2021  07:28:00       58.705        7.525      -32.193      405.990       27.644      194.141   164827.649      764.214    37690.778       10.387       10.164       59.186      279.238       22.260      332.847        1.781      870.797
01/16/2021  07:29:00        1.668       12.759      -15.668      306.378       30.301      147.817    93867.389      918.169    21849.842        5.850        5.832       12.867      211.518      270.223      332.705        1.545      870.793
01/16/2021  07:30:00       27.243       18.786      -34.220      418.390       26.216      201.066   175049.974      687.282    40427.512       10.917       10.808       33.092      288.826       76.179      332.767        1.649      870.796
01/16/2021  07:31:00       74.209        5.228      -46.422      522.274       24.315      244.388   272769.759      591.197    59725.723       17.032       16.654       74.393      356.182       22.924      332.845        1.782      870.809
01/16/2021  07:32:00       57.645       14.122      -47.751      486.208       16.783      232.482   236398.213      281.675    54047.707       14.820       14.536       59.349      335.905       32.033      332.796        1.698      870.818
01/16/2021  07:33:00       42.286       -9.605      -20.158      366.218       12.756      175.665   134115.559      162.712    30858.359        8.368        8.257       43.364      253.278       34.115      332.820        1.736      870.829
01/16/2021  07:34:00       31.915        5.036      -10.971      256.533       12.351      122.917    65809.284      152.537    15108.682        4.110        4.054       32.310      177.122       30.053      332.757        1.630      870.833
01/16/2021  07:35:00       58.522       12.715      -30.715      405.748        4.146      194.127   164631.357       17.186    37685.107       10.339       10.117       59.887      280.515       21.940      332.801        1.703      870.848
01/16/2021  07:36:00       22.589        7.635      -15.895      246.581        6.652      117.675    60802.036       44.245    13847.471        3.774        3.735       23.844      170.157       50.924      332.688        1.515      870.860
01/16/2021  07:37:00       74.976       17.362      -32.205      405.316       10.372      192.424   164281.450      107.586    37026.902       10.415       10.071       76.960      279.004       13.143      332.981        2.005      870.886
01/16/2021  07:38:00       49.620       22.693      -14.586      134.962       15.435       64.079    18214.649      238.244     4106.144        1.287        1.128       54.563       92.385        2.867      332.784        1.672      870.905
01/16/2021  07:39:00       38.525       -3.388       -5.981      228.335       17.315      109.172    52136.771      299.814    11918.451        3.293        3.218       38.673      157.368       16.558      332.820        1.734      870.909
01/16/2021  07:40:00       56.459       -7.816      -12.122      296.156       16.483      141.345    87708.549      271.694    19978.270        5.565        5.398       56.998      204.286       12.846      332.818        1.732      870.913
01/16/2021  07:41:00       51.519        0.392       -8.352      198.647       17.149       92.936    39460.738      294.097     8637.150        2.555        2.420       51.520      135.533        6.920      332.762        1.638      870.905
01/16/2021  07:42:00       89.316       54.137      -15.566      235.471       17.604      113.777    55446.742      309.911    12945.202        3.991        3.435      104.442      162.568        2.423      332.765        1.643      870.909
01/16/2021  07:43:00       77.446       14.516      -34.891      383.297       28.161      183.646   146916.932      793.052    33725.710        9.439        9.072       78.795      264.316       11.253      333.013        2.054      870.924
01/16/2021  07:44:00      108.647       13.444      -21.622      279.110       22.348      133.990    77902.138      499.422    17953.250        5.438        4.818      109.475      192.000        3.076      332.695        1.527      870.938
01/16/2021  07:45:00       42.207       -8.205      -10.048      204.987       22.132       98.000    42019.758      489.820     9603.945        2.702        2.606       42.997      141.069       10.764      332.733        1.589      870.945
01/16/2021  07:46:00       50.852       15.508        0.243      210.289       26.288      100.890    44221.344      691.082    10178.742        2.895        2.755       53.164      144.010        7.337      332.669        1.483      870.952
01/16/2021  07:47:00       71.428       -4.350      -17.244      313.489       26.295      147.470    98275.149      691.445    21747.257        6.304        6.036       71.560      214.336        8.971      332.721        1.571      870.961
01/16/2021  07:48:00       73.913        7.654      -17.446      329.752       26.740      157.072   108736.501      715.029    24671.518        6.995        6.706       74.308      227.131        9.343      332.735        1.596      870.972
01/16/2021  07:49:00       44.981        9.524       -7.808      174.498       22.279       83.312    30449.709      496.375     6940.952        2.002        1.894       45.979      119.872        6.797      332.676        1.493      870.980
01/16/2021  07:50:00       41.036       -9.988      -14.065      246.824       30.084      119.675    60922.098      905.073    14322.206        3.905        3.807       42.234      170.680       16.332      332.711        1.553      870.982
01/16/2021  07:51:00       34.353       27.305      -12.418      170.953       50.800       85.624    29225.077     2580.606     7331.451        2.060        1.957       43.883      117.108        7.122      332.650        1.451      870.985
01/16/2021  07:52:00       39.701      -27.539      -15.205      329.928       34.135      158.974   108852.702     1165.178    25272.856        6.890        6.765       48.317      227.711       22.211      332.830        1.751      870.987
01/16/2021  07:53:00       37.182       13.625       -7.288      204.628       15.611       95.764    41872.809      243.699     9170.789        2.644        2.564       39.600      139.036       12.327      332.773        1.655      870.982
01/16/2021  07:54:00       56.377       36.242       -7.813       24.512       10.336       13.896      600.850      106.826      193.096        0.273        0.045       67.021       16.057        0.057      332.602        1.373      870.992
01/16/2021  07:55:00       51.635       18.733      -10.798       26.021       13.811       13.220      677.116      190.752      174.770        0.209        0.052       54.929       16.205        0.087      332.678        1.498      871.015
01/16/2021  07:56:00       83.086       18.782      -24.056      302.110        8.368      143.810    91270.722       70.031    20681.435        5.990        5.601       85.182      208.290        5.979      332.818        1.731      871.044
01/16/2021  07:57:00       40.548       27.558       -7.308       18.674        5.679        9.580      348.728       32.249       91.785        0.146        0.024       49.026       11.555        0.056      332.748        1.613      871.064
01/16/2021  07:58:00       34.975       33.796       -7.362       23.521        7.021       11.309      553.245       49.291      127.902        0.157        0.037       48.636       15.142        0.097      332.777        1.661      871.080
01/16/2021  07:59:00       40.533       28.603       -7.704      148.703        8.563       70.535    22112.446       73.329     4975.128        1.483        1.358       49.610      101.984        4.226      332.853        1.788      871.099
01/16/2021  08:00:00       30.015       36.331       -1.445       20.351       10.062       11.183      414.183      101.236      125.053        0.143        0.032       47.126       10.101        0.046      332.828        1.746      871.114
01/16/2021  08:01:00        6.700       20.488       -2.632       32.217       10.895       16.704     1037.909      118.707      279.008        0.095        0.072       21.556       11.882        0.304      332.882        1.834      871.120
01/16/2021  08:02:00       -4.943       -8.029       -8.286       33.678       12.619       18.855     1134.184      159.249      355.528        0.090        0.082        9.428       22.254        5.571      332.979        1.994      871.128
01/16/2021  08:03:00      -17.367      -11.790       -6.050       35.648       10.305       16.953     1270.770      106.201      287.410        0.107        0.083       20.991       21.190        1.019      332.904        1.872      871.135
01/16/2021  08:04:00      -26.807      -14.611       -5.692       24.582        7.643       14.208      604.252       58.417      201.870        0.091        0.043       30.530       15.376        0.254      332.947        1.942      871.138
01/16/2021  08:05:00       -8.207       -0.225       -3.981       22.075       14.184       12.370      487.320      201.182      153.011        0.046        0.042        8.210       14.164        2.976      333.006        2.038      871.154
01/16/2021  08:06:00      -12.302        1.643       -3.074       22.792       11.897       13.084      519.495      141.534      171.199        0.050        0.042       12.411       13.829        1.241      332.839        1.763      871.163
01/16/2021  08:07:00      -19.899       10.249       -4.845       24.810        8.939       13.049      615.535       79.914      170.285        0.069        0.043       22.383       15.847        0.501      332.741        1.601      871.171
01/16/2021  08:08:00      -28.482        8.456       -2.079      188.043       22.281       90.833    35360.252      496.460     8250.710        2.249        2.205       29.711      129.348       18.953      332.807        1.710      871.175
01/16/2021  08:09:00      -22.386       -4.199        0.935       25.433       16.578       12.550      646.859      274.837      157.501        0.080        0.054       22.777        8.806        0.149      332.889        1.846      871.184
01/16/2021  08:10:00       -5.659      -13.557       -4.687       23.859       16.062       13.216      569.241      257.995      174.667        0.062        0.050       14.691       15.423        1.102      332.963        1.967      871.194
01/16/2021  08:11:00       -6.953       -1.852       -2.021       31.371       12.060       15.360      984.144      145.438      235.940        0.071        0.068        7.195       19.824        7.590      332.983        2.000      871.205
01/16/2021  08:12:00        6.189       -3.466        0.332       27.717        8.597       14.960      768.222       73.901      223.800        0.056        0.053        7.093       18.379        6.713      333.066        2.139      871.217
01/16/2021  08:13:00      -64.779      -12.274       -1.045       31.512       19.110       18.648      992.994      365.188      347.751        0.303        0.085       65.931       10.726        0.026      332.973        1.984      871.229
01/16/2021  08:14:00      -33.254       -1.282        5.370       35.067       21.111       16.413     1229.673      445.657      269.395        0.154        0.097       33.279        9.660        0.084      333.056        2.121      871.241
01/16/2021  08:15:00       -8.358       -0.386        1.689       33.037       19.836       18.155     1091.448      393.469      329.617        0.094        0.091        8.367       14.043        2.817      333.179        2.324      871.251
01/16/2021  08:16:00      -14.692        1.282        1.161       35.245       18.459       17.871     1242.191      340.722      319.375        0.106        0.095       14.748       13.364        0.821      333.126        2.237      871.257
01/16/2021  08:17:00      -59.092        0.426       -8.103       42.620       21.435       18.821     1816.429      459.469      354.212        0.309        0.132       59.093        9.522        0.026      333.078        2.157      871.263
01/16/2021  08:18:00      -40.434       -4.274       -7.582       34.814       20.403       18.131     1212.037      416.294      328.744        0.183        0.098       40.659       18.282        0.202      333.142        2.264      871.268
01/16/2021  08:19:00      -49.223        4.915      -11.365       41.253       17.483       20.460     1701.780      305.664      418.592        0.250        0.121       49.467       24.021        0.236      333.151        2.278      871.282
01/16/2021  08:20:00      -30.189        4.869        1.349       40.068       16.272       19.170     1605.475      264.768      367.471        0.159        0.112       30.579       15.202        0.247      333.256        2.452      871.287
01/16/2021  08:21:00      -13.936       -4.636       -0.181       41.009       20.453       21.125     1681.734      418.325      446.264        0.138        0.127       14.687       15.362        1.094      333.251        2.444      871.286
01/16/2021  08:22:00      -24.985        0.449       -3.337       43.404       18.078       22.223     1883.869      326.830      493.865        0.167        0.135       24.989       24.549        0.965      333.288        2.504      871.281
01/16/2021  08:23:00      -18.530        4.348       -3.263       43.411       30.649       23.722     1884.510      939.366      562.733        0.188        0.169       19.033       21.942        1.329      333.376        2.650      871.272
01/16/2021  08:24:00      -48.905       14.331       -4.395       48.148       25.585       21.134     2318.224      654.581      446.640        0.302        0.171       50.962       19.645        0.149      333.216        2.385      871.265
01/16/2021  08:25:00       -0.214        3.633       -7.485       44.989       11.469       20.764     2024.030      131.532      431.132        0.133        0.129        3.639       22.313       37.587      333.370        2.640      871.257
01/16/2021  08:26:00      -42.205       -6.519       -2.787       47.405       22.268       22.891     2247.231      495.853      524.012        0.255        0.163       42.705       17.868        0.175      333.354        2.612      871.241
01/16/2021  08:27:00      -60.467      -22.208       -1.504       55.213       32.038       23.169     3048.467     1026.449      536.788        0.438        0.231       64.416       11.325        0.031      333.391        2.674      871.236
01/16/2021  08:28:00      -47.275      -11.186       -2.575       49.725       37.608       29.367     2472.530     1414.391      862.418        0.356        0.237       48.580       14.553        0.090      333.343        2.596      871.248
01/16/2021  08:29:00      -58.891        5.719       -3.624       62.881       14.859       20.900     3953.966      220.787      436.807        0.406        0.231       59.168       16.593        0.079      333.344        2.597      871.262
01/16/2021  08:30:00      -68.477        3.845        2.235       34.147       21.394       19.873     1166.017      457.719      394.935        0.336        0.101       68.584        5.014        0.005      333.335        2.581      871.284
01/16/2021  08:31:00      -63.289       -2.034      -11.447       42.109       26.210       18.208     1773.150      686.938      331.516        0.347        0.140       63.321       10.333        0.027      333.461        2.792      871.299
01/16/2021  08:32:00      -52.586      -13.924       -3.743       53.136       18.654       24.075     2823.441      347.965      579.585        0.336        0.188       54.399       17.823        0.107      333.460        2.791      871.312
01/16/2021  08:33:00      -20.204        8.947        0.380       40.222       23.476       23.894     1617.807      551.112      570.936        0.161        0.137       22.096       15.236        0.475      333.544        2.929      871.314
01/16/2021  08:34:00      -27.544        4.094       -1.902       47.957       20.926       20.092     2299.858      437.892      403.702        0.196        0.157       27.846       10.670        0.147      333.573        2.978      871.313
01/16/2021  08:35:00      -15.762        5.415       -1.952       50.908       23.652       24.276     2591.581      559.414      589.340        0.201        0.187       16.666       28.143        2.851      333.569        2.971      871.319
01/16/2021  08:36:00      -49.387       -2.416       -5.498       37.354       18.076       18.704     1395.294      326.734      349.848        0.227        0.104       49.446       16.434        0.110      333.485        2.829      871.327
01/16/2021  08:37:00      -56.469       17.229       -9.711       33.333       13.912       18.640     1111.114      193.555      347.461        0.262        0.083       59.039       14.667        0.062      333.489        2.837      871.336
01/16/2021  08:38:00      -50.217       17.017       -3.859       32.719       17.063       18.924     1070.548      291.129      358.122        0.227        0.086       53.022       16.144        0.093      333.525        2.896      871.341
01/16/2021  08:39:00      -41.670       -8.686       -8.092       39.706       25.769       17.746     1576.568      664.036      314.933        0.222        0.128       42.565       17.536        0.170      333.610        3.039      871.353
01/16/2021  08:40:00       -6.730        7.099       -4.557       39.215       24.416       20.571     1537.823      596.162      423.161        0.134        0.128        9.782       20.466        4.377      333.762        3.289      871.368
01/16/2021  08:41:00      -18.843      -13.201       -7.108       41.217       14.758       19.042     1698.852      217.807      362.579        0.143        0.114       23.007        9.738        0.179      333.828        3.400      871.389
01/16/2021  08:42:00      -21.704        7.917        1.341       40.700       18.457       18.744     1656.508      340.674      351.355        0.144        0.117       23.103       16.971        0.540      333.831        3.403      871.407
01/16/2021  08:43:00      -47.697       15.985        4.532       27.195       16.105       16.873      739.586      259.386      284.686        0.192        0.064       50.304        8.447        0.028      333.652        3.108      871.426
01/16/2021  08:44:00      -30.653        5.135        5.181       32.896       15.164       14.114     1082.150      229.937      199.205        0.125        0.076       31.080        6.978        0.050      333.807        3.364      871.441
01/16/2021  08:45:00      -28.302       -4.888       -4.055       29.581       24.614       16.646      875.043      605.858      277.100        0.130        0.088       28.721       13.632        0.225      333.929        3.566      871.455
01/16/2021  08:46:00      -41.573       16.533       -0.647       30.394       14.200       14.335      923.825      201.646      205.480        0.167        0.067       44.740       14.028        0.098      333.850        3.436      871.454
01/16/2021  08:47:00      -21.250       -1.532        0.988       29.616       12.174       12.824      877.100      148.198      164.449        0.082        0.059       21.305       11.668        0.300      333.948        3.598      871.462
01/16/2021  08:48:00       -3.584       -0.319       -5.953       15.314       11.500       11.100      234.533      132.260      123.211        0.027        0.025        3.598       11.689       10.553      334.095        3.841      871.465
01/16/2021  08:49:00       -2.808        3.536       -7.292       22.808        6.017       12.586      520.186       36.209      158.405        0.039        0.036        4.515       14.263        9.980      334.200        4.015      871.470
01/16/2021  08:50:00       -8.216        3.824       -0.681       15.710        4.344        7.472      246.794       18.871       55.824        0.020        0.016        9.063        8.836        0.951      334.165        3.957      871.469
01/16/2021  08:51:00       -9.980        0.815        1.545       11.821       11.229        7.310      139.731      126.079       53.439        0.021        0.016       10.014        4.550        0.206      334.130        3.900      871.468
01/16/2021  08:52:00        9.658       -5.752       -9.063       22.941       12.205       14.819      526.278      148.961      219.604        0.055        0.045       11.241       16.589        2.178      334.338        4.245      871.468
01/16/2021  08:53:00        1.781      -13.218       -6.996       37.663       11.728       16.904     1418.485      137.555      285.730        0.103        0.092       13.338       21.092        2.501      334.246        4.092      871.465
01/16/2021  08:54:00      -19.165       -9.270        1.790       20.852       16.626       15.586      434.822      276.437      242.909        0.071        0.048       21.290       12.672        0.354      334.316        4.207      871.461
01/16/2021  08:55:00      -14.968       -6.474       -2.926       16.076        8.384       12.619      258.450       70.290      159.228        0.038        0.024       16.308        4.440        0.074      334.402        4.351      871.463
01/16/2021  08:56:00      -18.926        4.598       -0.874       17.067        7.263        8.964      291.290       52.747       80.361        0.040        0.021       19.477        8.461        0.189      334.295        4.173      871.482
01/16/2021  08:57:00      -25.154        8.137       -4.937       16.488       18.570        8.217      271.867      344.856       67.517        0.070        0.034       26.437        4.504        0.029      334.213        4.037      871.497
01/16/2021  08:58:00      -12.166       -8.626        9.384       23.434       14.053       13.953      549.141      197.479      194.695        0.063        0.047       14.914       11.588        0.604      334.593        4.668      871.527
01/16/2021  08:59:00      -19.558        7.795       -3.092       15.514       10.725       11.174      240.677      115.032      124.852        0.047        0.024       21.054        4.595        0.048      334.353        4.270      871.544
01/16/2021  09:00:00      -11.345       -8.109        5.899       14.101        9.093       10.317      198.829       82.689      106.431        0.031        0.019       13.945        4.097        0.086      334.668        4.793      871.549
01/16/2021  09:01:00      -10.379       -1.067        0.166        7.187        6.046        7.441       51.646       36.556       55.371        0.013        0.007       10.433        5.087        0.238      334.623        4.720      871.544
01/16/2021  09:02:00       -9.251        5.309        1.753       17.325       10.503       10.961      300.171      110.312      120.151        0.032        0.027       10.666        8.481        0.632      334.667        4.792      871.534
01/16/2021  09:03:00       -8.284        6.427        3.102       19.537        9.221        9.461      381.692       85.026       89.506        0.034        0.028       10.485        9.247        0.778      334.601        4.682      871.528
01/16/2021  09:04:00       -4.055        6.154        1.328       16.011       14.995       12.071      256.364      224.863      145.711        0.034        0.031        7.370        4.660        0.400      334.749        4.927      871.525
01/16/2021  09:05:00      -21.503      -14.578      -15.003       26.531       28.082       14.429      703.911      788.600      208.186        0.130        0.085       25.978       17.175        0.437      334.571        4.633      871.576
01/16/2021  09:06:00      -18.312       -7.260       -8.346       17.201       10.393        9.331      295.877      108.004       87.076        0.047        0.025       19.698        6.977        0.125      334.727        4.890      871.587
01/16/2021  09:07:00      -17.999      -24.781       -7.087       23.984       29.816       11.295      575.236      889.008      127.580        0.129        0.080       30.628        8.573        0.078      334.646        4.756      871.591
01/16/2021  09:08:00       50.826      -35.578      -16.599       60.106       27.318       26.202     3612.763      746.247      686.553        0.458        0.252       62.041       29.020        0.219      334.869        5.126      871.599
01/16/2021  09:09:00       86.936      -23.228      -22.614       54.922       44.590       31.398     3016.459     1988.231      985.823        0.730        0.300       89.986       35.522        0.156      334.937        5.239      871.599
01/16/2021  09:10:00      114.769      -57.901      -36.317       42.764       29.613       24.848     1828.755      876.922      617.442        1.058        0.166      128.547       23.991        0.035      334.758        4.943      871.591
01/16/2021  09:11:00       87.792      -35.095      -30.517       62.828       48.014       30.555     3947.301     2305.389      933.597        0.853        0.359       94.547       26.921        0.081      335.134        5.566      871.576
01/16/2021  09:12:00       49.502       24.967      -10.482       54.069       47.173       38.078     2923.456     2225.275     1449.942        0.489        0.330       55.442       35.803        0.417      334.990        5.328      871.556
01/16/2021  09:13:00       60.266      -32.929      -10.241       66.783       51.576       32.934     4460.014     2660.098     1084.637        0.651        0.410       68.675       35.905        0.273      334.908        5.192      871.533
01/16/2021  09:14:00       92.869      -17.204      -18.291       66.251       65.608       40.416     4389.231     4304.375     1633.435        0.979        0.516       94.449       42.220        0.200      335.029        5.391      871.532
01/16/2021  09:15:00       77.932       -3.194      -20.697       69.221       54.162       42.547     4791.612     2933.479     1810.206        0.802        0.477       77.997       44.962        0.332      334.923        5.217      871.538
01/16/2021  09:16:00      112.697        1.038      -23.646       55.357       61.583       34.012     3064.381     3792.476     1156.800        1.064        0.401      112.702       33.490        0.088      334.831        5.065      871.545
01/16/2021  09:17:00       98.358       24.426      -24.580       69.682       50.415       33.091     4855.533     2541.653     1095.047        0.968        0.425      101.346       35.262        0.121      334.996        5.338      871.555
01/16/2021  09:18:00      105.556       66.201      -24.382       48.401       30.259       24.198     2342.643      915.617      585.563        0.998        0.192      124.598       27.687        0.049      334.763        4.950      871.561
01/16/2021  09:19:00       87.569       44.387      -14.897       60.742       46.004       28.161     3689.576     2116.410      793.022        0.823        0.330       98.176       31.806        0.105      335.038        5.408      871.564
01/16/2021  09:20:00      110.383       57.194      -20.124       63.620       43.392       31.713     4047.480     1882.850     1005.729        1.140        0.347      124.320       38.688        0.097      334.919        5.210      871.568
01/16/2021  09:21:00      108.807        7.175      -34.283       64.243       72.400       29.499     4127.137     5241.750      870.192        1.165        0.512      109.043       37.362        0.117      334.931        5.229      871.572
01/16/2021  09:22:00       77.099      -71.565      -34.967       59.670       43.578       31.931     3560.553     1899.064     1019.596        0.938        0.324      105.194       36.214        0.119      335.190        5.659      871.579
01/16/2021  09:23:00       65.172      -67.655      -27.933       59.249       35.488       32.040     3510.411     1259.363     1026.534        0.770        0.290       93.940       38.115        0.165      335.125        5.553      871.596
01/16/2021  09:24:00       83.037      -62.709      -17.509       63.617       45.890       35.031     4047.155     2105.863     1227.177        0.926        0.369      104.056       39.387        0.143      334.943        5.248      871.613
01/16/2021  09:25:00       56.325      -38.913      -15.703       60.091       26.760       32.672     3610.941      716.118     1067.474        0.516        0.270       68.460       38.011        0.308      334.962        5.281      871.639
01/16/2021  09:26:00       72.429      -81.674      -25.667       55.148       20.606       27.337     3041.335      424.602      747.303        0.839        0.211      109.163       34.546        0.100      334.958        5.274      871.668
01/16/2021  09:27:00       66.860      -74.859      -28.497       43.831       30.977       25.188     1921.160      959.554      634.446        0.720        0.176      100.370       29.836        0.088      335.157        5.604      871.684
01/16/2021  09:28:00       67.214      -88.188      -25.853       55.438       27.676       26.895     3073.374      765.974      723.347        0.876        0.228      110.882       29.775        0.072      335.106        5.521      871.681
01/16/2021  09:29:00      102.632      -69.808      -30.083       56.306       47.168       33.707     3170.335     2224.812     1136.189        1.142        0.327      124.123       34.866        0.079      335.184        5.650      871.671
01/16/2021  09:30:00       73.520      -42.989      -25.652       55.815       41.001       28.694     3115.267     1681.078      823.351        0.676        0.281       85.166       31.818        0.140      335.363        5.947      871.666
01/16/2021  09:31:00       43.770      -50.810      -18.989       53.295       37.860       28.061     2840.315     1433.399      787.398        0.496        0.253       67.063       33.358        0.247      335.463        6.113      871.645
01/16/2021  09:32:00       50.890      -13.200      -28.494       59.659       59.433       35.896     3559.208     3532.258     1288.505        0.598        0.419       52.574       35.490        0.456      335.473        6.131      871.628
01/16/2021  09:33:00       78.147       41.735      -10.595       64.556       42.297       39.523     4167.485     1789.011     1562.041        0.774        0.376       88.594       45.523        0.264      335.313        5.864      871.626
01/16/2021  09:34:00       58.219       11.978      -19.776       63.329       57.504       34.280     4010.542     3306.719     1175.150        0.621        0.425       59.438       41.958        0.498      335.278        5.805      871.626
01/16/2021  09:35:00       74.845       67.720      -29.285       59.529       31.332       28.895     3543.653      981.674      834.949        0.820        0.268      100.934       33.809        0.112      335.110        5.527      871.639
01/16/2021  09:36:00       15.032       12.261       -7.204       33.631       35.356       20.992     1131.020     1250.032      440.670        0.162        0.141       19.398        6.352        0.107      335.457        6.103      871.644
01/16/2021  09:37:00       55.288       22.675       -7.736       63.574       54.048       31.364     4041.592     2921.143      983.670        0.579        0.397       59.757       35.295        0.349      335.380        5.974      871.651
01/16/2021  09:38:00      106.329       71.708      -17.692       56.125       29.855       26.513     3150.050      891.340      702.934        1.075        0.237      128.249       32.052        0.062      335.210        5.692      871.656
01/16/2021  09:39:00       11.528       22.697      -10.458       62.646       55.516       22.540     3924.512     3082.072      508.055        0.413        0.376       25.457       29.911        1.381      335.269        5.792      871.654
01/16/2021  09:40:00      -23.334      -10.373       -8.098       48.836       31.207       22.065     2384.916      973.879      486.875        0.228        0.192       25.536       18.908        0.548      335.367        5.954      871.646
01/16/2021  09:41:00       46.280       -0.621      -21.056       60.520       55.254       35.415     3662.614     3052.957     1254.225        0.528        0.398       46.284       37.055        0.641      335.797        6.670      871.644
01/16/2021  09:42:00       52.401        0.557      -20.664       51.514       51.826       32.013     2653.695     2685.975     1024.857        0.477        0.318       52.404       28.989        0.306      335.696        6.502      871.648
01/16/2021  09:43:00       51.910       22.478      -24.559       60.023       68.152       32.769     3602.730     4644.690     1073.837        0.656        0.466       56.568       30.640        0.293      335.505        6.184      871.656
01/16/2021  09:44:00      102.654     -101.856      -35.744       52.336       40.012       28.224     2739.102     1600.980      796.566        1.366        0.257      144.611       33.904        0.055      335.210        5.693      871.657
01/16/2021  09:45:00       64.887      -36.571      -28.703       51.996       44.705       25.882     2703.624     1998.503      669.869        0.587        0.269       74.484       25.664        0.119      335.542        6.246      871.664
01/16/2021  09:46:00       58.821      -29.737      -33.732       61.684       63.062       36.636     3804.928     3976.865     1342.218        0.730        0.456       65.911       36.607        0.308      335.560        6.275      871.655
01/16/2021  09:47:00       43.169      -34.821      -24.617       67.564       82.299       37.349     4564.845     6773.168     1394.920        0.820        0.637       55.463       37.322        0.453      335.662        6.445      871.646
01/16/2021  09:48:00      101.902        1.682      -26.466       58.170       81.334       42.468     3383.704     6615.273     1803.504        1.144        0.590      101.916       37.517        0.136      335.710        6.524      871.635
01/16/2021  09:49:00      120.983      -34.315      -40.435       72.096       65.307       41.286     5197.821     4265.018     1704.522        1.431        0.558      125.756       38.855        0.095      335.778        6.638      871.626
01/16/2021  09:50:00       95.302      -48.998      -31.093       71.225       48.787       38.379     5072.950     2380.219     1472.921        1.069        0.446      107.161       40.639        0.144      335.444        6.081      871.612
01/16/2021  09:51:00       81.172       11.438      -17.933       65.145       71.050       31.895     4243.853     5048.154     1017.304        0.867        0.515       81.974       36.156        0.195      335.487        6.155      871.605
01/16/2021  09:52:00       86.032      -32.630      -20.106       69.376       55.937       35.626     4813.051     3128.976     1269.215        0.904        0.461       92.012       38.250        0.173      335.714        6.531      871.597
01/16/2021  09:53:00       89.651      -79.969      -37.400       55.459       25.220       24.897     3075.711      636.059      619.872        1.008        0.217      120.135       32.208        0.072      335.390        5.992      871.601
01/16/2021  09:54:00       78.690      -30.463      -17.905       71.306       51.686       43.446     5084.563     2671.479     1887.550        0.854        0.482       84.381       46.089        0.298      335.735        6.567      871.617
01/16/2021  09:55:00       91.358      -30.653      -23.674       55.275       43.713       35.523     3055.337     1910.795     1261.861        0.804        0.311       96.363       32.133        0.111      335.654        6.431      871.635
01/16/2021  09:56:00       97.030      -68.855      -34.243       68.547       49.536       39.139     4698.717     2453.820     1531.881        1.200        0.434      118.978       43.898        0.136      335.591        6.326      871.654
01/16/2021  09:57:00       94.657      -61.405      -30.730       59.157       61.829       34.987     3499.532     3822.864     1224.100        1.111        0.427      112.829       36.345        0.104      335.722        6.543      871.675
01/16/2021  09:58:00       88.828      -62.708      -39.448       58.575       62.465       36.407     3431.021     3901.871     1325.476        1.102        0.433      108.732       28.060        0.067      335.679        6.474      871.680
01/16/2021  09:59:00       98.247      -78.127      -36.109       50.503       49.609       25.165     2550.531     2461.043      633.288        1.135        0.282      125.524       25.308        0.041      335.650        6.425      871.674
01/16/2021  10:00:00       84.256       59.456      -27.237       56.330       64.986       33.228     3173.090     4223.202     1104.112        0.994        0.425      103.122       32.220        0.098      335.727        6.553      871.664
01/16/2021  10:01:00      102.047       55.885      -21.668       62.414       56.591       33.696     3895.456     3202.531     1135.392        1.112        0.412      116.347       33.579        0.083      335.840        6.743      871.667
01/16/2021  10:02:00       20.618      -30.840      -10.842       51.982       43.664       27.288     2702.102     1906.516      744.645        0.342        0.268       37.098       22.697        0.374      335.793        6.664      871.664
01/16/2021  10:03:00       65.101      -26.832       -7.956       70.678       58.672       39.397     4995.313     3442.381     1552.146        0.750        0.499       70.414       32.865        0.218      335.887        6.822      871.652
01/16/2021  10:04:00       71.812       14.167       -9.954       48.617       45.052       34.263     2363.573     2029.696     1173.986        0.551        0.278       73.196       32.802        0.201      335.720        6.541      871.639
01/16/2021  10:05:00       61.542       31.887      -12.642       66.190       36.299       35.800     4381.098     1317.589     1281.611        0.597        0.349       69.313       43.501        0.394      336.090        7.158      871.621
01/16/2021  10:06:00       46.008       24.509       -4.632       46.943       59.242       31.463     2203.665     3509.648      989.919        0.472        0.335       52.129       25.370        0.237      336.092        7.162      871.600
01/16/2021  10:07:00       64.222      -62.527      -24.134       49.525       50.257       28.077     2452.759     2525.719      788.338        0.719        0.288       89.634       35.235        0.155      335.982        6.978      871.581
01/16/2021  10:08:00       48.843       48.798      -10.892       49.826       37.812       25.161     2482.637     1429.784      633.055        0.471        0.227       69.043       28.429        0.170      335.946        6.918      871.576
01/16/2021  10:09:00       20.227       21.659       -4.792       47.238       30.139       31.200     2231.385      908.385      973.420        0.251        0.206       29.635       31.201        1.108      336.199        7.339      871.575
01/16/2021  10:10:00      -37.018      -27.578      -13.248       38.318       28.563       19.100     1468.247      815.834      364.828        0.248        0.132       46.162       13.749        0.089      336.032        7.061      871.570
01/16/2021  10:11:00       70.630       53.745      -30.253       58.336       64.749       33.476     3403.092     4192.419     1120.614        0.875        0.436       88.753       30.668        0.119      336.044        7.082      871.574
01/16/2021  10:12:00       63.069      -17.018      -32.157       59.734       53.257       29.128     3568.143     2836.337      848.466        0.628        0.363       65.324       32.238        0.244      336.333        7.565      871.563
01/16/2021  10:13:00       71.278      -53.265      -35.621       49.765       43.936       29.927     2476.559     1930.366      895.612        0.724        0.265       88.982       30.420        0.117      336.155        7.266      871.549
01/16/2021  10:14:00       42.565      -26.664      -30.223       52.964       28.732       24.577     2805.202      825.505      604.005        0.383        0.212       50.227       25.842        0.265      336.110        7.191      871.531
01/16/2021  10:15:00      -43.663        1.402        2.283       24.456       16.581       22.159      598.109      274.944      491.013        0.164        0.068       43.685       16.682        0.146      335.969        6.956      871.502
01/16/2021  10:16:00       37.807        3.202      -16.271       40.233       43.040       19.999     1618.681     1852.468      399.959        0.279        0.194       37.942       16.664        0.193      336.169        7.290      871.484
01/16/2021  10:17:00       43.698       55.723      -18.391       36.938       29.945       33.380     1364.439      896.721     1114.204        0.436        0.169       70.814       25.322        0.128      335.925        6.882      871.468
01/16/2021  10:18:00       16.187       63.068      -16.393       27.332       23.043       20.945      747.065      530.976      438.694        0.311        0.086       65.112       18.688        0.082      335.898        6.840      871.453
01/16/2021  10:19:00      -21.264       31.403       -2.891       16.646       13.414       18.811      277.081      179.946      353.872        0.113        0.041       37.925       14.152        0.139      336.006        7.018      871.435
01/16/2021  10:20:00       12.254       -4.315       -1.693       54.044       38.763       23.722     2920.785     1502.595      562.745        0.258        0.249       12.991       22.545        3.012      336.327        7.555      871.427
01/16/2021  10:21:00      -22.143      -14.156      -15.990       35.319       36.025       20.290     1247.411     1297.769      411.680        0.195        0.148       26.281       18.869        0.516      336.488        7.823      871.432
01/16/2021  10:22:00       64.457       59.827      -12.510       43.114       38.373       29.348     1858.831     1472.522      861.295        0.604        0.210       87.943       23.597        0.072      336.266        7.452      871.440
01/16/2021  10:23:00       38.740       63.215       -2.092       47.190       33.984       24.477     2226.929     1154.879      599.129        0.474        0.199       74.141       27.197        0.135      336.333        7.564      871.442
01/16/2021  10:24:00       86.169       78.451      -18.248       37.673       29.709       22.419     1419.282      882.634      502.618        0.836        0.140      116.532       18.287        0.025      336.147        7.253      871.438
01/16/2021  10:25:00       42.365       44.707      -13.605       59.096       28.324       30.340     3492.314      802.222      920.539        0.460        0.261       61.592       35.978        0.341      336.483        7.815      871.431
01/16/2021  10:26:00       77.764       75.305      -15.046       42.553       25.644       22.183     1810.786      657.635      492.104        0.745        0.148      108.250       23.539        0.047      336.260        7.444      871.435
01/16/2021  10:27:00       30.134       47.203        0.774       25.321       20.787       21.071      641.167      432.108      444.007        0.233        0.076       56.002       13.618        0.059      336.529        7.894      871.433
01/16/2021  10:28:00       56.043       47.197      -13.044       23.399       12.965       16.803      547.517      168.102      282.352        0.327        0.050       73.269       11.499        0.025      336.211        7.360      871.431
01/16/2021  10:29:00      -11.155       23.611       -9.820       44.206       15.601       20.291     1954.146      243.380      411.711        0.169        0.130       26.114       23.433        0.805      336.238        7.405      871.425
01/16/2021  10:30:00      -18.148       21.960       -1.028       24.478       29.349       17.922      599.183      861.354      321.208        0.130        0.089       28.489       16.471        0.334      336.575        7.969      871.410
01/16/2021  10:31:00      -11.334       -4.993       -3.605       31.063       26.061       18.608      964.905      679.150      346.251        0.108        0.100       12.385       15.264        1.519      337.034        8.737      871.402
01/16/2021  10:32:00       34.309       62.853        2.596       34.256       33.807       25.041     1173.469     1142.927      627.051        0.404        0.147       71.607       23.101        0.104      336.624        8.051      871.383
01/16/2021  10:33:00       25.765       56.266       -1.045       27.442       39.217       26.656      753.044     1538.001      710.528        0.342        0.150       61.884       25.622        0.171      336.683        8.149      871.362
01/16/2021  10:34:00      -29.459       44.452      -12.227       19.355       21.967       16.363      374.626      482.551      267.733        0.206        0.056       53.327       12.986        0.059      336.319        7.541      871.331
01/16/2021  10:35:00       -7.479       17.544       -3.037       23.348       18.827       14.380      545.141      354.442      206.780        0.074        0.055       19.072        9.596        0.253      336.716        8.204      871.306
01/16/2021  10:36:00      -19.522       93.877      -11.040       31.467       20.752       23.452      990.194      430.652      550.016        0.564        0.099       95.885       15.747        0.027      336.474        7.798      871.295
01/16/2021  10:37:00      -25.942       58.975      -15.806       14.733       13.950       15.058      217.072      194.599      226.742        0.252        0.032       64.429        8.399        0.017      336.316        7.536      871.295
01/16/2021  10:38:00       -7.141       55.763       -4.741       18.903       20.252       21.935      357.326      410.145      481.123        0.222        0.062       56.218       10.147        0.033      336.554        7.933      871.303
01/16/2021  10:39:00      -26.132       40.159       -0.363       22.595       18.868       20.403      510.522      355.997      416.295        0.179        0.064       47.913       12.806        0.071      336.675        8.136      871.311
01/16/2021  10:40:00      -19.661       68.731        2.540       18.191       28.700       17.501      330.923      823.692      306.278        0.329        0.073       71.488        9.232        0.017      336.640        8.078      871.315
01/16/2021  10:41:00       -2.312       38.801       -7.316       18.895       22.785       18.637      357.036      519.152      347.324        0.139        0.061       38.869        7.994        0.042      336.512        7.864      871.318
01/16/2021  10:42:00       -8.075       -9.129      -13.638       23.964       32.623       17.012      574.270     1064.289      289.399        0.113        0.096       12.188       12.985        1.135      336.714        8.201      871.300
01/16/2021  10:43:00       26.447        4.923       -2.743       33.125       31.415       24.340     1097.244      986.921      592.438        0.170        0.134       26.901       27.292        1.029      337.067        8.793      871.302
01/16/2021  10:44:00       69.634       35.299      -18.993       33.749       26.168       21.290     1139.012      684.757      453.245        0.437        0.114       78.070       20.060        0.066      336.915        8.537      871.296
01/16/2021  10:45:00       43.199       86.820      -24.666       44.317       33.214       21.092     1964.041     1103.199      444.853        0.676        0.176       96.974       19.912        0.042      336.939        8.578      871.274
01/16/2021  10:46:00       13.822       13.099        2.800       32.242       33.037       29.546     1039.515     1091.468      872.968        0.169        0.150       19.043       20.735        1.186      337.381        9.316      871.243
01/16/2021  10:47:00        7.485        2.751      -13.006       45.392       41.120       27.054     2060.451     1690.880      731.921        0.236        0.224        7.975       18.988        5.669      337.120        8.879      871.207
01/16/2021  10:48:00       49.101       29.588      -12.671       59.432       55.645       32.442     3532.218     3096.359     1052.468        0.556        0.384       57.327       32.755        0.326      337.214        9.037      871.178
01/16/2021  10:49:00      122.732       95.337      -15.341       73.486       57.449       30.117     5400.179     3300.402      907.046        1.700        0.480      155.410       28.872        0.035      336.831        8.396      871.176
01/16/2021  10:50:00       58.193       92.991       -7.609       43.724       44.387       27.601     1911.777     1970.178      761.818        0.837        0.232      109.698       20.352        0.034      336.991        8.665      871.166
01/16/2021  10:51:00       -4.560       26.774       10.667       40.062       43.548       30.690     1604.994     1896.437      941.888        0.265        0.222       27.159       28.620        1.110      337.107        8.858      871.167
01/16/2021  10:52:00       15.322       93.671       10.745       29.116       38.400       20.670      847.754     1474.530      427.235        0.594        0.137       94.916       17.070        0.032      336.993        8.666      871.165
01/16/2021  10:53:00      -11.340       19.250       -5.780       35.058       53.906       30.206     1229.071     2905.864      912.408        0.279        0.252       22.342       24.619        1.214      337.167        8.957      871.162
01/16/2021  10:54:00       57.772       53.840      -12.853       38.316       50.059       23.978     1468.083     2505.949      574.949        0.547        0.227       78.971       23.760        0.091      337.015        8.706      871.153
01/16/2021  10:55:00       88.436       45.813      -12.871       66.516       50.705       31.424     4424.313     2570.999      987.442        0.903        0.399       99.598       26.107        0.069      337.225        9.054      871.149
01/16/2021  10:56:00      105.686       52.472      -20.162       54.144       42.684       25.104     2931.534     1821.884      630.213        0.986        0.269      117.995       20.781        0.031      337.075        8.804      871.153
01/16/2021  10:57:00       64.070       37.166      -12.018       43.981       69.517       31.388     1934.313     4832.682      985.189        0.669        0.388       74.069       23.650        0.102      337.342        9.251      871.127
01/16/2021  10:58:00       95.082        5.704      -15.997       61.478       67.669       34.531     3779.535     4579.156     1192.374        0.944        0.478       95.253       20.030        0.044      337.358        9.279      871.111
01/16/2021  10:59:00       90.189        9.961      -20.221       76.382       63.279       44.392     5834.143     4004.213     1970.682        1.022        0.590       90.738       25.460        0.079      337.454        9.437      871.094
01/16/2021  11:00:00       51.528       41.780       -3.547       72.440       50.656       28.835     5247.482     2566.050      831.482        0.653        0.432       66.338       27.257        0.169      337.366        9.291      871.081
01/16/2021  11:01:00      124.818       66.738      -28.982       43.671       36.572       25.505     1907.147     1337.506      650.483        1.238        0.195      141.539       19.782        0.020      337.030        8.730      871.058
01/16/2021  11:02:00      161.185       75.149      -33.658       88.771       67.365       37.884     7880.293     4538.065     1435.190        2.330        0.693      177.843       25.627        0.021      337.119        8.875      871.035
01/16/2021  11:03:00       73.894      -28.079      -29.502       60.589       99.590       43.248     3671.048     9918.237     1870.417        1.129        0.773       79.049       36.720        0.216      337.258        9.111      871.019
01/16/2021  11:04:00       81.458      -28.431      -28.382       58.071      103.585       34.096     3372.219    10729.816     1162.512        1.175        0.763       86.277       41.934        0.236      337.190        8.997      870.995
01/16/2021  11:05:00       80.883      -37.100      -42.366       64.578       69.248       42.342     4170.375     4795.327     1792.809        1.023        0.538       88.986       28.535        0.103      337.186        8.990      870.957
01/16/2021  11:06:00      129.352       45.012      -29.200       68.274       68.098       38.462     4661.300     4637.328     1479.337        1.519        0.539      136.960       35.425        0.067      337.078        8.808      870.939
01/16/2021  11:07:00      130.902       43.832      -17.759       71.785       64.350       36.231     5153.098     4140.979     1312.664        1.499        0.530      138.046       31.649        0.053      337.246        9.090      870.921
01/16/2021  11:08:00      173.492        9.310      -18.684      107.762       84.781       39.348    11612.672     7187.765     1548.256        2.544        1.017      173.741       25.097        0.021      337.373        9.302      870.908
01/16/2021  11:09:00      116.924      -37.137      -21.036      109.220       84.175       60.747    11929.059     7085.437     3690.219        1.909        1.135      122.680       60.540        0.244      337.260        9.113      870.900
01/16/2021  11:10:00      127.024     -112.194      -42.794       70.983       76.990       47.203     5038.516     5927.419     2228.137        2.187        0.660      169.478       44.218        0.068      337.065        8.784      870.901
01/16/2021  11:11:00       70.637      -11.154       -7.111       74.576       89.206       44.026     5561.599     7957.644     1938.269        1.031        0.773       71.512       45.798        0.410      337.229        9.062      870.904
01/16/2021  11:12:00       82.744       50.393      -25.415       52.992       66.223       29.650     2808.112     4385.436      879.103        0.905        0.404       96.882       29.681        0.094      337.152        8.931      870.895
01/16/2021  11:13:00       53.137       38.945      -20.264       94.778       52.607       35.580     8982.827     2767.495     1265.943        0.888        0.651       65.880       24.230        0.135      337.475        9.472      870.877
01/16/2021  11:14:00      144.539       41.503      -23.586       49.986       53.844       28.113     2498.633     2899.196      790.339        1.468        0.309      150.380       25.269        0.028      337.318        9.210      870.880
01/16/2021  11:15:00      147.088       85.564      -29.476       56.265       43.155       36.815     3165.720     1862.378     1355.325        1.810        0.319      170.165       31.057        0.033      337.353        9.270      870.876
01/16/2021  11:16:00      109.628      107.439       -9.083       60.811       38.780       36.290     3697.943     1503.893     1316.976        1.508        0.326      153.498       36.947        0.058      337.445        9.423      870.864
01/16/2021  11:17:00       60.396       20.103       -3.872       49.932       59.794       29.254     2493.223     3575.366      855.772        0.549        0.346       63.654       28.710        0.203      337.375        9.306      870.855
01/16/2021  11:18:00       93.941      -20.762      -21.164       59.631       66.239       32.834     3555.869     4387.586     1078.091        0.936        0.451       96.208       34.660        0.130      337.430        9.398      870.840
01/16/2021  11:19:00      172.436       90.552      -25.933       87.722       37.784       39.145     7695.148     1427.644     1532.367        2.463        0.533      194.766       40.605        0.043      337.309        9.193      870.820
01/16/2021  11:20:00      170.466       83.750      -27.471       81.600       43.602       30.740     6658.510     1901.157      944.939        2.316        0.475      189.928       38.939        0.042      337.175        8.970      870.808
01/16/2021  11:21:00      110.940       23.036      -13.265       64.398       57.343       29.864     4147.119     3288.205      891.861        1.067        0.416      113.307       34.792        0.094      337.383        9.320      870.792
01/16/2021  11:22:00       49.798       58.208        3.455       56.466       33.998       31.473     3188.383     1155.834      990.567        0.561        0.267       76.603       31.793        0.172      337.704        9.857      870.770
01/16/2021  11:23:00       44.322      -36.891      -15.285       54.276       78.014       36.844     2945.903     6086.258     1357.450        0.697        0.519       57.666       29.600        0.263      337.599        9.681      870.741
01/16/2021  11:24:00      131.078      -62.858      -54.236       78.611       92.142       39.495     6179.613     8490.157     1559.862        2.015        0.811      145.371       25.068        0.030      337.427        9.393      870.710
01/16/2021  11:25:00      135.905     -111.317      -51.315       53.186       74.761       29.129     2828.734     5589.275      848.476        2.138        0.463      175.674       30.330        0.030      337.298        9.176      870.699
01/16/2021  11:26:00      123.696     -111.961      -38.524       48.690       52.686       32.834     2370.725     2775.768     1078.079        1.777        0.311      166.841       30.580        0.034      337.353        9.270      870.690
01/16/2021  11:27:00       46.581       -5.920       -5.463       74.749       69.910       48.331     5587.470     4887.444     2335.907        0.752        0.641       46.956       45.335        0.932      337.627        9.729      870.677
01/16/2021  11:28:00       76.632       -4.221      -15.668       60.870       60.466       46.808     3705.133     3656.185     2191.026        0.784        0.478       76.748       38.273        0.249      337.791       10.003      870.677
01/16/2021  11:29:00       52.646        3.516       -6.076       60.920       53.442       46.330     3711.293     2856.032     2146.462        0.577        0.436       52.763       43.481        0.679      337.852       10.106      870.682
01/16/2021  11:30:00       75.801        5.871      -20.863       71.116       67.697       41.355     5057.509     4582.858     1710.271        0.878        0.568       76.028       43.019        0.320      337.675        9.808      870.675
01/16/2021  11:31:00       93.127      -82.791      -19.976       56.584       50.244       32.205     3201.799     2524.452     1037.152        1.134        0.338      124.608       31.758        0.065      337.607        9.695      870.667
01/16/2021  11:32:00       32.212     -110.165      -20.613       63.312       73.458       39.374     4008.409     5396.029     1550.316        1.227        0.548      114.778       30.371        0.070      337.739        9.918      870.649
01/16/2021  11:33:00       70.548       50.190       -8.263       75.185       98.059       45.509     5652.854     9615.631     2071.086        1.245        0.867       86.580       42.167        0.237      337.827       10.063      870.633
01/16/2021  11:34:00       80.623       33.539      -11.834       56.911       49.652       35.938     3238.857     2465.307     1291.525        0.738        0.350       87.321       32.313        0.137      337.960       10.288      870.622
01/16/2021  11:35:00       16.189        3.113        4.354       27.905       37.968       30.605      778.704     1441.593      936.677        0.172        0.158       16.485       22.048        1.789      338.228       10.736      870.610
01/16/2021  11:36:00       38.699      -17.951      -14.391       52.814       52.844       31.744     2789.286     2792.514     1007.672        0.431        0.329       42.660       22.611        0.281      337.829       10.066      870.586
01/16/2021  11:37:00       -2.515      -38.823      -10.741       39.556       55.919       24.030     1564.694     3126.882      577.446        0.345        0.263       38.905       21.049        0.293      338.080       10.489      870.559
01/16/2021  11:38:00       36.051      -94.521      -32.192       83.998       56.121       34.332     7055.652     3149.582     1178.699        1.132        0.569      101.163       37.489        0.137      337.890       10.170      870.540
01/16/2021  11:39:00       94.957      -99.733      -25.320       65.671       53.029       32.420     4312.624     2812.061     1051.067        1.389        0.409      137.708       26.456        0.037      337.865       10.127      870.512
01/16/2021  11:40:00       71.925      -83.602      -20.111       64.592       56.354       40.620     4172.081     3175.722     1649.994        1.078        0.450      110.284       38.313        0.121      338.056       10.449      870.489
01/16/2021  11:41:00       50.824      -43.537      -15.308       71.135       70.138       39.032     5060.199     4919.384     1523.468        0.811        0.575       66.922       36.719        0.301      338.131       10.574      870.462
01/16/2021  11:42:00       39.246      -53.703       -4.251       54.023       63.953       41.461     2918.520     4089.984     1719.019        0.658        0.436       66.515       28.894        0.189      337.915       10.213      870.453
01/16/2021  11:43:00       93.245        6.717      -17.035       92.052       68.778       35.930     8473.506     4730.353     1290.993        1.176        0.725       93.486       34.637        0.137      337.912       10.205      870.425
01/16/2021  11:44:00      119.574       20.651      -25.171       74.904       84.517       42.147     5610.600     7143.084     1776.375        1.494        0.727      121.344       36.267        0.089      337.957       10.281      870.400
01/16/2021  11:45:00       52.717       10.687       -6.751       56.269       83.238       30.138     3166.194     6928.621      908.329        0.697        0.550       53.789       27.695        0.265      337.959       10.284      870.381
01/16/2021  11:46:00       65.500      -29.834      -12.085       51.397       61.421       36.455     2641.660     3772.513     1328.986        0.653        0.387       71.975       33.094        0.211      338.121       10.559      870.371
01/16/2021  11:47:00       60.015      -54.961      -11.486       53.433       95.880       36.684     2855.044     9193.026     1345.733        1.007        0.670       81.379       39.045        0.230      337.987       10.332      870.353
01/16/2021  11:48:00      100.896      -29.077      -15.115       83.428       53.929       40.181     6960.262     2908.352     1614.482        1.137        0.574      105.002       34.756        0.110      337.976       10.314      870.357
01/16/2021  11:49:00       54.484      -45.342       -6.941       57.105       39.065       39.173     3260.928     1526.090     1534.542        0.570        0.316       70.883       35.932        0.257      338.171       10.642      870.374
01/16/2021  11:50:00       16.042        0.401       -9.071       52.442       49.273       24.518     2750.128     2427.868      601.156        0.306        0.289       16.047       29.011        3.268      338.339       10.922      870.381
01/16/2021  11:51:00       13.831        5.095       -3.328       45.181       48.248       28.422     2041.317     2327.916      807.792        0.270        0.259       14.739       28.127        3.642      338.327       10.903      870.388
01/16/2021  11:52:00       -4.054        4.851        0.482       28.461       27.444       15.480      810.003      753.193      239.619        0.092        0.090        6.322       12.185        3.715      338.534       11.250      870.375
01/16/2021  11:53:00      122.853       82.677      -28.901       58.258       45.944       22.300     3393.999     2110.881      497.269        1.438        0.300      148.083       26.344        0.032      337.860       10.120      870.362
01/16/2021  11:54:00       61.770       53.912      -18.689       45.512       26.410       25.958     2071.329      697.494      673.810        0.526        0.172       81.988       25.482        0.097      338.057       10.449      870.330
01/16/2021  11:55:00       11.155      -27.179      -17.769       42.992       53.617       24.377     1848.290     2874.779      594.241        0.325        0.266       29.380       20.030        0.465      338.572       11.315      870.297
01/16/2021  11:56:00       29.076      -68.102      -28.740       62.236       52.584       33.087     3873.280     2765.051     1094.752        0.702        0.387       74.050       30.839        0.173      338.422       11.063      870.264
01/16/2021  11:57:00       42.327      -67.051      -19.611       47.275       46.320       33.589     2234.967     2145.512     1128.190        0.609        0.275       79.293       22.347        0.079      338.231       10.741      870.239
01/16/2021  11:58:00       76.932       11.380      -10.275       53.690       78.390       32.008     2882.649     6144.917     1024.509        0.810        0.503       77.769       32.192        0.171      338.160       10.621      870.204
01/16/2021  11:59:00       44.050       47.368       -0.351       48.281       48.542       29.975     2331.024     2356.329      898.512        0.488        0.279       64.685       28.842        0.199      338.603       11.367      870.177
01/16/2021  12:00:00       35.236      -39.234       -4.451       51.360       68.643       41.288     2637.824     4711.794     1704.715        0.593        0.453       52.734       38.223        0.525      338.498       11.191      870.149
01/16/2021  12:01:00       27.435       22.229       -4.277       68.466       65.755       26.570     4687.532     4323.775      705.982        0.549        0.486       35.310       16.029        0.206      338.501       11.196      870.135
01/16/2021  12:02:00       90.690       36.383      -25.549       79.418       68.997       36.479     6307.279     4760.560     1330.696        1.130        0.620       97.716       33.954        0.121      338.275       10.816      870.132
01/16/2021  12:03:00       62.747      -54.345      -26.302       42.276       69.761       38.077     1787.277     4866.656     1449.866        0.784        0.405       83.010       28.765        0.120      338.270       10.807      870.136
01/16/2021  12:04:00       26.801       -1.008       -6.743       48.256       71.963       48.207     2328.659     5178.675     2323.904        0.530        0.492       26.820       30.805        1.319      338.400       11.025      870.114
01/16/2021  12:05:00      103.290      -35.282      -10.847       87.375       77.542       53.381     7634.369     6012.821     2849.573        1.426        0.825      109.149       51.746        0.225      338.271       10.808      870.085
01/16/2021  12:06:00      115.744      -55.185      -32.061       85.151      101.792       37.030     7250.650    10361.627     1371.224        1.822        0.949      128.227       36.773        0.082      338.236       10.749      870.073
01/16/2021  12:07:00       79.078      -57.530      -22.546       65.187       71.096       49.071     4249.371     5054.581     2407.933        1.089        0.586       97.791       42.167        0.186      338.118       10.551      870.062
01/16/2021  12:08:00       77.406      -73.651      -30.138       64.099       69.490       27.619     4108.718     4828.844      762.811        1.101        0.485      106.846       30.694        0.083      338.290       10.839      870.061
01/16/2021  12:09:00       13.378      -29.152       -8.954       63.421       52.959       35.998     4022.242     2804.693     1295.842        0.461        0.406       32.076       19.551        0.372      338.601       11.363      870.064
01/16/2021  12:10:00       81.353       -8.353       -5.057       68.848       72.404       49.279     4740.108     5242.290     2428.396        0.956        0.621       81.780       38.790        0.225      338.319       10.889      870.068
01/16/2021  12:11:00      127.331      -33.159      -15.455       70.946       63.082       45.058     5033.305     3979.375     2030.219        1.429        0.552      131.578       44.282        0.113      338.347       10.935      870.057
01/16/2021  12:12:00       99.378       30.971      -23.385       55.585       85.627       39.755     3089.651     7331.996     1580.425        1.169        0.600      104.092       24.732        0.056      338.541       11.263      870.047
01/16/2021  12:13:00       70.988      -68.408      -27.771       51.460       65.320       34.090     2648.134     4266.655     1162.149        0.928        0.404       98.585       20.990        0.045      338.440       11.092      870.026
01/16/2021  12:14:00       61.646     -146.006      -29.203       43.272       42.879       32.970     1872.482     1838.579     1087.011        1.538        0.240      158.486       24.590        0.024      338.430       11.075      869.992
01/16/2021  12:15:00       63.148      -65.594      -22.549       58.267       53.527       32.770     3395.031     2865.164     1073.878        0.806        0.367       91.051       34.406        0.143      338.617       11.389      869.967
01/16/2021  12:16:00       86.675       -6.948       -1.007       81.098       63.848       52.624     6576.935     4076.542     2769.279        1.049        0.671       86.953       51.888        0.356      338.615       11.387      869.934
01/16/2021  12:17:00       52.423       18.715       -7.670       71.576       83.701       27.411     5123.141     7005.890      751.370        0.802        0.644       55.664       30.049        0.291      338.714       11.553      869.914
01/16/2021  12:18:00       39.994       17.221       -4.668       48.282       60.401       29.944     2331.128     3648.287      896.672        0.440        0.344       43.544       32.368        0.553      338.944       11.941      869.894
01/16/2021  12:19:00       78.121       46.709      -14.158       50.926       48.559       27.322     2593.474     2358.018      746.506        0.709        0.285       91.020       26.242        0.083      338.939       11.930      869.873
01/16/2021  12:20:00      181.328      115.495      -24.188       65.340       42.599       29.420     4269.376     1814.651      865.525        2.688        0.347      214.986       29.898        0.019      338.525       11.233      869.854
01/16/2021  12:21:00      128.887       85.737      -13.595       57.213       65.345       35.982     3273.332     4269.975     1294.712        1.649        0.442      154.799       29.142        0.035      338.623       11.400      869.834
01/16/2021  12:22:00       59.836       89.207       -0.767       38.358       37.881       23.198     1471.303     1434.939      538.132        0.749        0.172      107.416       19.902        0.034      338.624       11.402      869.811
01/16/2021  12:23:00       44.422       52.228       -6.802       36.760       29.505       20.370     1351.310      870.533      414.950        0.369        0.132       68.565       15.430        0.051      338.744       11.602      869.784
01/16/2021  12:24:00       38.539       49.982        6.089       51.218       33.704       28.441     2623.296     1135.948      808.877        0.429        0.228       63.115       30.296        0.230      339.155       12.295      869.753
01/16/2021  12:25:00       19.520        9.266      -12.910       46.529       61.252       20.454     2164.993     3751.765      418.373        0.348        0.317       21.608       16.971        0.617      338.822       11.734      869.721
01/16/2021  12:26:00       60.969        5.117      -21.706       63.594       80.810       26.261     4044.205     6530.328      689.616        0.774        0.563       61.183       20.811        0.116      338.832       11.752      869.694
01/16/2021  12:27:00       46.201      -61.252      -14.000       33.383       46.191       25.133     1114.396     2133.576      631.683        0.498        0.194       76.723       22.353        0.085      338.827       11.742      869.672
01/16/2021  12:28:00       67.135      -46.870      -19.074       80.118       68.287       51.232     6418.832     4663.047     2624.764        1.038        0.685       81.878       46.743        0.326      338.797       11.692      869.650
01/16/2021  12:29:00       77.365      -23.696       -7.217       78.751       66.490       53.740     6201.676     4420.917     2888.004        1.005        0.676       80.913       36.391        0.202      338.757       11.625      869.637
01/16/2021  12:30:00       80.432      -43.171        2.294       70.069       59.846       44.426     4909.662     3581.559     1973.642        0.940        0.523       91.285       42.088        0.213      338.757       11.623      869.628
01/16/2021  12:31:00       26.238      -87.732      -19.192       47.952       35.072       22.939     2299.420     1230.031      526.186        0.640        0.203       91.572       16.730        0.033      338.929       11.913      869.614
01/16/2021  12:32:00       45.108     -109.558      -17.308       33.316       40.139       30.026     1109.937     1611.179      901.585        0.898        0.181      118.481       28.808        0.059      338.789       11.678      869.595
01/16/2021  12:33:00       57.217      -99.324      -18.965       30.773       39.459       25.009      946.994     1557.032      625.448        0.831        0.156      114.625       19.416        0.029      338.901       11.867      869.573
01/16/2021  12:34:00       47.417      -60.090      -13.901       42.685       46.876       25.786     1821.974     2197.371      664.938        0.537        0.234       76.546       23.989        0.098      338.878       11.830      869.547
01/16/2021  12:35:00       29.353      -64.270      -11.564       61.850       56.447       28.131     3825.382     3186.277      791.333        0.646        0.390       70.656       21.705        0.094      339.170       12.319      869.520
01/16/2021  12:36:00        1.762      -18.149        1.511       51.404       77.722       32.410     2642.338     6040.694     1050.412        0.503        0.487       18.234       18.374        1.015      339.282       12.509      869.512
01/16/2021  12:37:00       53.536       -9.375      -15.401       83.706       82.447       42.654     7006.733     6797.505     1819.341        0.940        0.781       54.351       33.147        0.372      339.027       12.079      869.504
01/16/2021  12:38:00       84.542      -46.391       -5.173       73.204       77.836       50.112     5358.856     6058.442     2511.261        1.162        0.696       96.434       47.469        0.242      339.086       12.178      869.500
01/16/2021  12:39:00       66.161      -12.836      -21.519       45.817       76.421       31.387     2099.192     5840.180      985.149        0.696        0.446       67.395       29.385        0.190      338.795       11.690      869.501
01/16/2021  12:40:00       12.775      -33.061      -14.002       62.631       42.015       21.806     3922.668     1765.254      475.505        0.381        0.308       35.444       18.616        0.276      338.796       11.691      869.485
01/16/2021  12:41:00      129.928       54.596       -4.935       49.724       46.033       34.680     2472.443     2119.013     1202.736        1.284        0.290      140.932       25.912        0.034      338.945       11.941      869.464
01/16/2021  12:42:00      136.318      157.838      -12.669       65.906       56.230       36.302     4343.611     3161.824     1317.834        2.624        0.441      208.555       23.214        0.012      338.783       11.665      869.443
01/16/2021  12:43:00       14.139      131.710      -13.564       38.152       33.846       23.207     1455.560     1145.577      538.555        1.043        0.157      132.466       17.767        0.018      338.800       11.698      869.425
01/16/2021  12:44:00       38.734      -45.109      -11.424       49.250       63.797       33.460     2425.604     4070.009     1119.594        0.564        0.381       59.457       30.764        0.268      339.313       12.561      869.407
01/16/2021  12:45:00      110.294      -88.784      -34.219       80.069       63.545       40.539     6411.042     4037.980     1643.445        1.665        0.605      141.588       48.539        0.118      338.868       11.811      869.390
01/16/2021  12:46:00       71.206      -98.228      -12.190       67.886       47.563       44.371     4608.503     2262.209     1968.808        1.185        0.442      121.322       46.803        0.149      338.934       11.923      869.375
01/16/2021  12:47:00      -14.874      -50.353       -7.321       63.671       43.663       28.126     4053.991     1906.421      791.047        0.478        0.338       52.504       23.466        0.200      339.342       12.611      869.357
01/16/2021  12:48:00       36.089        8.175      -10.351       42.010       72.504       32.982     1764.811     5256.765     1087.845        0.479        0.405       37.004       23.920        0.418      339.286       12.515      869.338
01/16/2021  12:49:00      -18.860       -5.396       -2.782       32.455       34.430       22.652     1053.298     1185.438      513.129        0.157        0.138       19.617       19.936        1.033      339.208       12.384      869.313
01/16/2021  12:50:00       -7.077      -20.329       -8.412       37.213       22.380       18.735     1384.815      500.859      351.004        0.138        0.112       21.525        9.833        0.209      339.369       12.656      869.285
01/16/2021  12:51:00        9.693       40.201       -6.694       34.736       48.947       22.266     1206.609     2395.828      495.761        0.293        0.205       41.352       16.087        0.151      339.102       12.204      869.281
01/16/2021  12:52:00      -26.291      -13.968       12.110       41.528       56.150       22.608     1724.549     3152.849      511.103        0.321        0.269       29.771       21.769        0.535      339.226       12.416      869.245
01/16/2021  12:53:00       50.195       32.458       -3.131       49.918       32.133       20.129     2491.832     1032.557      405.158        0.376        0.196       59.776       22.189        0.138      339.296       12.533      869.227
01/16/2021  12:54:00       66.650       56.819      -13.748       24.875       18.350       13.642      618.779      336.719      186.094        0.450        0.057       87.582       10.882        0.015      338.860       11.799      869.217
01/16/2021  12:55:00       -1.107       24.248      -11.096       19.277       36.562       17.399      371.619     1336.794      302.715        0.136        0.101       24.273       15.720        0.419      339.168       12.316      869.209
01/16/2021  12:56:00       13.199       -2.676      -11.736       21.102       35.036       21.364      445.282     1227.499      456.438        0.122        0.106       13.467       13.789        1.048      339.489       12.856      869.193
01/16/2021  12:57:00       14.873      -92.413      -17.679       48.828       44.207       32.388     2384.221     1954.278     1048.959        0.723        0.269       93.602       19.948        0.045      339.531       12.929      869.176
01/16/2021  12:58:00       97.346     -120.416      -20.694       34.495       41.955       24.328     1189.936     1760.225      591.842        1.397        0.177      154.843       22.718        0.022      338.879       11.832      869.162
01/16/2021  12:59:00       53.598     -127.327      -12.127       74.344       84.709       41.926     5527.080     7175.629     1757.819        1.684        0.723      138.149       48.331        0.122      339.195       12.361      869.137
01/16/2021  13:00:00      143.199     -121.478      -32.512       77.791       70.064       31.326     6051.380     4909.032      981.345        2.413        0.597      187.784       40.159        0.046      339.228       12.416      869.134
01/16/2021  13:01:00       62.967      -18.134      -25.026       60.460       86.911       33.674     3655.387     7553.603     1133.945        0.863        0.617       65.526       24.536        0.140      339.409       12.723      869.132
01/16/2021  13:02:00       63.652       35.169      -12.490       86.711       62.248       29.380     7518.752     3874.780      863.200        0.885        0.613       72.722       19.742        0.074      339.338       12.602      869.132
01/16/2021  13:03:00       99.777       67.928       -8.497       44.882       38.521       22.104     2014.436     1483.835      488.581        0.931        0.199      120.705       21.620        0.032      339.042       12.103      869.137
01/16/2021  13:04:00       62.018       37.553        0.851       56.652       33.257       25.657     3209.443     1106.026      658.292        0.511        0.249       72.501       25.125        0.120      339.381       12.673      869.130
01/16/2021  13:05:00       -5.763       27.106       20.110       50.854       37.740       25.987     2586.179     1424.299      675.328        0.293        0.234       27.712       16.749        0.365      339.759       13.313      869.120
01/16/2021  13:06:00       59.456       47.361        4.320       54.503       39.852       35.649     2970.535     1588.150     1270.832        0.581        0.291       76.014       24.047        0.100      339.481       12.846      869.117
01/16/2021  13:07:00       -3.967      -17.117      -11.800       29.158       47.878       22.388      850.171     2292.257      501.238        0.205        0.182       17.570       19.317        1.209      339.140       12.270      869.096
01/16/2021  13:08:00       31.903       68.405      -11.706       30.096       26.143       20.297      905.763      683.479      411.972        0.392        0.100       75.479       12.646        0.028      339.256       12.465      869.091
01/16/2021  13:09:00       63.690       79.973      -10.942       46.831       34.685       26.074     2193.168     1203.057      679.845        0.732        0.204      102.236       21.819        0.046      339.270       12.486      869.088
01/16/2021  13:10:00      105.529       60.198       -7.411       60.391       39.234       27.681     3647.090     1539.269      766.251        1.038        0.298      121.491       28.884        0.057      339.226       12.414      869.090
01/16/2021  13:11:00       90.460       59.785      -11.685       52.742       24.322       19.730     2781.700      591.549      389.267        0.783        0.188      108.431       18.398        0.029      339.117       12.231      869.099
01/16/2021  13:12:00        4.665      -10.287       -5.691       38.291       66.296       20.121     1466.225     4395.205      404.847        0.321        0.313       11.295       10.487        0.862      339.348       12.620      869.091
01/16/2021  13:13:00       65.102     -142.041      -15.177       49.556       48.383       36.409     2455.768     2340.909     1325.649        1.538        0.306      156.250       29.667        0.036      339.332       12.591      869.062
01/16/2021  13:14:00       38.459      -38.046      -21.504       55.409       42.804       22.426     3070.187     1832.162      502.936        0.440        0.270       54.098       17.596        0.106      339.463       12.815      869.043
01/16/2021  13:15:00       11.524      -65.861      -18.851       41.748       45.391       20.201     1742.886     2060.344      408.071        0.452        0.211       66.862       20.731        0.096      339.723       13.251      869.027
01/16/2021  13:16:00       75.200      -53.079      -28.528       59.167       69.150       32.264     3500.732     4781.765     1040.957        0.930        0.466       92.045       27.468        0.089      339.758       13.311      868.998
01/16/2021  13:17:00       23.558       19.308      -15.652       47.436       48.624       34.641     2250.178     2364.280     1200.018        0.349        0.291       30.460       27.043        0.788      339.929       13.599      868.968
01/16/2021  13:18:00       50.675       19.227      -18.093       55.249       52.526       39.239     3052.420     2758.982     1539.681        0.531        0.368       54.200       25.185        0.216      339.675       13.171      868.947
01/16/2021  13:19:00       60.417      -73.930      -20.510       55.168       75.174       40.218     3043.492     5651.128     1617.473        0.992        0.516       95.477       39.386        0.170      339.639       13.110      868.915
01/16/2021  13:20:00      137.014     -101.746      -23.542       73.179       67.592       41.659     5355.189     4568.639     1735.468        2.067        0.583      170.661       49.434        0.084      339.401       12.709      868.881
01/16/2021  13:21:00       42.063     -157.795      -21.424       54.468       63.849       34.741     2966.772     4076.635     1206.909        1.769        0.413      163.305       28.989        0.032      339.639       13.110      868.863
01/16/2021  13:22:00       78.802      -77.663      -21.951       52.495       74.948       32.803     2755.719     5617.156     1076.049        1.108        0.472      110.640       33.262        0.090      339.868       13.496      868.863
01/16/2021  13:23:00       61.752       -2.178      -21.134       70.340       60.611       27.719     4947.694     3673.725      768.348        0.683        0.469       61.790       19.053        0.095      339.608       13.058      868.859
01/16/2021  13:24:00      140.727     -115.069      -36.601       66.700       76.390       43.238     4448.837     5835.458     1869.532        2.327        0.608      181.783       43.364        0.057      339.483       12.843      868.851
01/16/2021  13:25:00       70.307      -56.142      -22.466       43.946       60.724       34.552     1931.288     3687.361     1193.841        0.770        0.341       89.972       24.210        0.072      339.491       12.862      868.848
01/16/2021  13:26:00       18.198      -96.337      -21.286       34.134       30.424       23.616     1165.127      925.638      557.695        0.636        0.132       98.041       21.112        0.046      339.649       13.127      868.840
01/16/2021  13:27:00       83.518      -13.527      -14.847       54.590      107.667       37.674     2980.100    11592.282     1419.303        1.168        0.800       84.606       38.287        0.205      339.665       13.155      868.825
01/16/2021  13:28:00       80.480       40.572      -20.500       34.623       25.672       16.243     1198.780      659.050      263.840        0.533        0.106       90.129       14.326        0.025      339.300       12.538      868.813
01/16/2021  13:29:00      -44.432       27.443      -13.584       32.586       28.786       26.643     1061.857      828.638      709.832        0.276        0.130       52.224       21.428        0.168      339.426       12.752      868.807
01/16/2021  13:30:00      -46.487       -6.809       13.229       60.151       44.375       29.111     3618.117     1969.152      847.422        0.441        0.322       46.983       29.525        0.395      339.756       13.307      868.766
01/16/2021  13:31:00       74.932       57.782       -7.816       40.059       39.413       21.726     1604.738     1553.368      472.001        0.632        0.182       94.623       11.998        0.016      339.530       12.927      868.760
01/16/2021  13:32:00       29.275       65.853       -1.359       53.167       43.016       32.555     2826.753     1850.415     1059.831        0.546        0.287       72.066       30.039        0.174      339.874       13.507      868.746
01/16/2021  13:33:00       75.704       75.074       -7.628       33.927       24.173       19.466     1151.053      584.350      378.908        0.677        0.106      106.618       11.949        0.013      339.561       12.980      868.731
01/16/2021  13:34:00       60.847       31.569       -6.285       65.807       73.171       34.971     4330.501     5353.925     1222.981        0.782        0.545       68.549       24.538        0.128      339.928       13.597      868.705
01/16/2021  13:35:00       24.992      -37.687      -23.686       52.232       65.614       29.563     2728.192     4305.251      873.946        0.525        0.395       45.221       17.032        0.142      339.968       13.665      868.690
01/16/2021  13:36:00       78.767      -88.263      -16.486       33.389       63.684       23.356     1114.810     4055.610      545.498        0.999        0.286      118.298       23.423        0.039      339.680       13.179      868.682
01/16/2021  13:37:00       22.107      -31.344       -8.034       34.815       66.281       24.861     1212.102     4393.223      618.052        0.388        0.311       38.356       25.681        0.448      339.787       13.360      868.691
01/16/2021  13:38:00       49.542      -23.460       -4.376       58.278       61.507       39.657     3396.285     3783.169     1572.714        0.589        0.438       54.816       35.118        0.410      339.901       13.554      868.695
01/16/2021  13:39:00       34.099        2.517       -3.772       32.139       58.449       20.666     1032.923     3416.322      427.067        0.303        0.244       34.192       16.911        0.245      339.989       13.702      868.711
01/16/2021  13:40:00      109.152        1.247       -9.183       77.702       66.849       33.221     6037.555     4468.768     1103.657        1.180        0.580      109.159       28.720        0.069      339.753       13.301      868.703
01/16/2021  13:41:00      108.195       60.379      -10.268       67.681       46.628       27.495     4580.655     2174.164      755.997        1.148        0.376      123.902       25.847        0.044      339.577       13.005      868.714
01/16/2021  13:42:00       70.770      111.828       -3.179       65.539       55.525       33.781     4295.412     3083.001     1141.178        1.302        0.426      132.341       31.920        0.058      339.546       12.953      868.714
01/16/2021  13:43:00       71.668      117.022      -15.423       40.301       51.834       19.592     1624.190     2686.720      383.856        1.188        0.235      137.225       13.415        0.010      339.512       12.896      868.699
01/16/2021  13:44:00       38.499       -2.875      -19.578       45.103       57.241       33.011     2034.319     3276.508     1089.740        0.414        0.320       38.606       25.837        0.448      339.831       13.433      868.677
01/16/2021  13:45:00      119.765     -107.410      -30.831       73.878       87.721       55.426     5457.996     7694.905     3072.087        2.152        0.811      160.874       45.000        0.078      339.667       13.156      868.653
01/16/2021  13:46:00       67.974       32.396      -29.423       54.791       69.325       28.962     3002.090     4805.925      838.792        0.759        0.432       75.299       15.770        0.044      339.743       13.285      868.667
01/16/2021  13:47:00       86.831       23.473      -19.139       78.365       59.359       33.662     6141.030     3523.546     1133.110        0.962        0.540       89.948       19.395        0.046      339.631       13.096      868.669
01/16/2021  13:48:00       56.453       -3.723       -8.437       57.766       57.728       30.227     3336.951     3332.523      913.674        0.543        0.379       56.576       21.338        0.142      339.725       13.256      868.673
01/16/2021  13:49:00       94.151       88.506       -0.682       54.165       42.531       30.886     2933.857     1808.863      953.965        1.120        0.285      129.219       27.528        0.045      339.722       13.249      868.701
01/16/2021  13:50:00       37.862       21.764       -5.614       65.242       66.361       29.918     4256.491     4403.726      895.069        0.574        0.478       43.672       18.655        0.182      339.798       13.377      868.704
01/16/2021  13:51:00      107.406      -97.445      -31.499       57.764       65.514       42.931     3336.685     4292.070     1843.080        1.575        0.474      145.022       42.321        0.085      339.561       12.977      868.690
01/16/2021  13:52:00       71.260      -51.242      -25.822       67.929       79.311       37.487     4614.293     6290.199     1405.288        1.034        0.615       87.771       48.106        0.300      339.796       13.374      868.693
01/16/2021  13:53:00       63.997       58.546      -16.063       52.871       52.657       25.835     2795.367     2772.765      667.445        0.701        0.312       86.737       13.959        0.026      339.820       13.416      868.692
01/16/2021  13:54:00       23.109       85.068       -8.741       29.611       24.197       13.319      876.820      585.478      177.385        0.474        0.082       88.151       14.945        0.029      339.592       13.032      868.702
01/16/2021  13:55:00       80.331       50.026       -0.261       60.344       35.934       21.415     3641.369     1291.226      458.592        0.717        0.270       94.635       26.415        0.078      339.840       13.449      868.701
01/16/2021  13:56:00       88.292       29.890      -10.412       46.314       57.656       26.338     2145.024     3324.201      693.708        0.748        0.308       93.214       16.212        0.030      339.808       13.396      868.684
01/16/2021  13:57:00      141.013       29.390      -11.670       49.682       61.317       34.125     2468.269     3759.789     1164.520        1.414        0.370      144.043       13.689        0.009      339.771       13.332      868.667
01/16/2021  13:58:00      101.852       26.150       -5.375       77.795       53.767       31.672     6051.993     2890.886     1003.100        1.051        0.497      105.155       35.388        0.113      339.923       13.588      868.648
01/16/2021  13:59:00       41.187       -0.794        0.604       70.322       69.536       28.829     4945.140     4835.303      831.116        0.615        0.531       41.195       23.542        0.327      340.039       13.785      868.618
01/16/2021  14:00:00       85.465       53.027       -5.010       66.585       48.732       36.713     4433.545     2374.807     1347.811        0.915        0.408      100.579       34.166        0.115      339.843       13.454      868.600
01/16/2021  14:01:00      157.840       77.080      -16.602       55.506       33.303       23.901     3080.883     1109.089      571.252        1.794        0.238      175.655       20.347        0.013      339.639       13.108      868.584
01/16/2021  14:02:00       70.110       77.955       -5.555       41.662       31.766       24.589     1735.698     1009.092      604.620        0.719        0.167      104.845       16.534        0.025      339.742       13.284      868.567
01/16/2021  14:03:00      125.670      117.978      -10.723       62.655       38.518       32.411     3925.694     1483.645     1050.495        1.814        0.323      172.371       17.885        0.011      339.674       13.168      868.541
01/16/2021  14:04:00      115.850       63.090      -16.174       68.398       82.769       23.174     4678.293     6850.726      537.057        1.486        0.603      131.915       19.855        0.023      339.861       13.483      868.522
01/16/2021  14:05:00       68.333      -86.955      -18.056       72.592       87.753       33.280     5269.572     7700.548     1107.556        1.331        0.704      110.592       37.491        0.115      340.083       13.858      868.501
01/16/2021  14:06:00       88.203     -109.958      -16.975       58.611       80.708       47.236     3435.248     6513.785     2231.272        1.617        0.609      140.963       41.488        0.087      340.048       13.799      868.487
01/16/2021  14:07:00       62.472      -17.389       -9.539       82.744       56.294       36.443     6846.555     3169.007     1328.074        0.782        0.567       64.847       16.336        0.063      340.027       13.763      868.472
01/16/2021  14:08:00      153.609      -79.010      -28.690       96.737       94.379       50.471     9358.036     8907.364     2547.281        2.573        1.041      172.738       58.082        0.113      339.867       13.493      868.468
01/16/2021  14:09:00       48.025      -27.302      -11.598       73.402       76.335       49.497     5387.878     5827.015     2449.959        0.842        0.683       55.243       36.207        0.430      340.128       13.934      868.474
01/16/2021  14:10:00       57.453      -64.190      -20.721       42.915       60.669       29.881     1841.667     3680.698      892.899        0.713        0.321       86.147       29.033        0.114      339.638       13.108      868.504
01/16/2021  14:11:00       42.176       63.070       -4.443       34.766       26.437       17.134     1208.666      698.934      293.565        0.399        0.110       75.873       13.066        0.030      339.672       13.167      868.504
01/16/2021  14:12:00       19.311       86.074        1.748       27.192       22.424       16.829      739.398      502.857      283.229        0.465        0.076       88.213       12.706        0.021      339.737       13.275      868.506
01/16/2021  14:13:00       10.488       60.179       -6.923       39.063       18.074       16.404     1525.890      326.660      269.080        0.295        0.106       61.086        8.836        0.021      339.744       13.288      868.496
01/16/2021  14:14:00        3.128      -26.414      -15.312       36.161       27.262       17.809     1307.642      743.204      317.173        0.165        0.118       26.599        3.165        0.014      340.024       13.759      868.491
01/16/2021  14:15:00       39.585      -47.056       -8.556       23.683       54.289       19.762      560.882     2947.247      390.524        0.388        0.195       61.492       24.372        0.157      339.996       13.713      868.496
01/16/2021  14:16:00       42.619      -27.450       -1.588       76.876       57.209       42.549     5909.988     3272.813     1810.457        0.678        0.550       50.694       43.998        0.753      340.014       13.742      868.479
01/16/2021  14:17:00       79.492       28.049      -10.664       55.800       67.798       33.945     3113.684     4596.599     1152.240        0.804        0.443       84.296       31.393        0.139      339.802       13.385      868.479
01/16/2021  14:18:00       56.341      -41.455      -16.489       49.457       73.777       34.890     2445.953     5443.103     1217.313        0.713        0.455       69.949       31.370        0.201      339.913       13.572      868.462
01/16/2021  14:19:00       56.746      -61.971      -17.116       40.269       46.312       27.508     1621.608     2144.823      756.691        0.594        0.226       84.027       24.715        0.087      339.835       13.441      868.437
01/16/2021  14:20:00       45.899      -50.778      -19.038       14.170       18.621       11.107      200.777      346.752      123.367        0.286        0.034       68.448        6.835        0.010      339.730       13.264      868.415
01/16/2021  14:21:00       18.650       28.222      -11.555       10.745       26.371        9.917      115.465      695.446       98.340        0.109        0.045       33.828        5.871        0.030      339.734       13.271      868.397
01/16/2021  14:22:00       15.683       44.791       -7.143       20.103       10.096       11.112      404.140      101.938      123.485        0.147        0.031       47.457       11.238        0.056      339.752       13.301      868.375
01/16/2021  14:23:00        9.325       43.678       -0.116       22.174       28.703       14.670      491.704      823.862      215.217        0.176        0.077       44.662       13.227        0.088      339.977       13.679      868.347
01/16/2021  14:24:00       21.055       -7.570       -1.462       20.734       22.596       13.494      429.895      510.597      182.092        0.081        0.056       22.374        7.483        0.112      340.071       13.839      868.329
01/16/2021  14:25:00       -5.317      -46.264      -16.144       44.174       27.272       18.059     1951.370      743.762      326.119        0.272        0.151       46.569       17.529        0.142      340.095       13.880      868.312
01/16/2021  14:26:00       11.523      -56.891       -5.430       58.741       43.659       31.229     3450.485     1906.104      975.220        0.486        0.317       58.046       27.278        0.221      340.185       14.030      868.295
01/16/2021  14:27:00       76.042      -81.031      -37.955       47.805       56.518       31.896     2285.277     3194.271     1017.335        1.014        0.325      111.124       34.700        0.098      340.081       13.855      868.283
01/16/2021  14:28:00       67.812      -69.321      -27.098       36.208       25.602       23.836     1310.996      655.444      568.154        0.634        0.127       96.973       20.143        0.043      340.207       14.068      868.285
01/16/2021  14:29:00       68.113     -106.211      -26.021       45.169       58.494       32.176     2040.241     3421.514     1035.266        1.155        0.325      126.175       23.036        0.033      340.031       13.770      868.287
01/16/2021  14:30:00       52.789      -46.174       -6.494       56.365       70.703       47.811     3176.990     4998.845     2285.893        0.771        0.523       70.134       43.407        0.383      340.142       13.958      868.287
01/16/2021  14:31:00       28.359       44.545       -8.942       61.562       56.284       34.296     3789.913     3167.853     1176.227        0.550        0.407       52.806       17.580        0.111      340.159       13.986      868.295
01/16/2021  14:32:00      136.764       24.182       -4.322       57.385       49.708       29.483     3293.072     2470.909      869.252        1.297        0.332      138.885       27.291        0.039      340.094       13.878      868.271
01/16/2021  14:33:00       75.572       21.524       -9.505       62.421       51.949       31.738     3896.377     2698.730     1007.280        0.693        0.380       78.578       20.235        0.066      340.163       13.996      868.261
01/16/2021  14:34:00       52.625      -84.096      -12.983       44.772       32.037       28.337     2004.555     1026.360      802.994        0.692        0.192       99.204       28.553        0.083      340.206       14.068      868.235
01/16/2021  14:35:00       57.164      -74.636      -24.915       45.953       41.207       26.869     2111.649     1697.978      721.920        0.699        0.227       94.012       26.514        0.080      339.998       13.717      868.204
01/16/2021  14:36:00      100.546     -124.990      -32.376       48.410       31.735       22.981     2343.533     1007.133      528.108        1.533        0.194      160.412       25.545        0.025      340.059       13.818      868.201
01/16/2021  14:37:00       82.432     -158.359      -31.594       43.730       69.559       29.472     1912.334     4838.436      868.597        2.024        0.381      178.529       24.471        0.019      340.151       13.972      868.179
01/16/2021  14:38:00       66.746      -93.670       -9.334       63.083       58.719       34.913     3979.430     3447.978     1218.929        1.098        0.432      115.018       38.071        0.110      340.377       14.353      868.167
01/16/2021  14:39:00      120.805     -119.473      -26.956      101.006       76.875       53.270    10202.119     5909.766     2837.729        2.427        0.947      169.905       51.909        0.093      340.234       14.112      868.160
01/16/2021  14:40:00      139.146     -211.092      -36.215       58.303       56.658       37.017     3399.183     3210.176     1370.233        3.660        0.399      252.827       32.066        0.016      340.050       13.798      868.150
01/16/2021  14:41:00      163.185      -41.098      -26.187       62.314      116.859       44.368     3883.051    13656.069     1968.535        2.425        0.975      168.281       17.078        0.010      340.051       13.804      868.159
01/16/2021  14:42:00      115.127       79.403      -12.037       33.108       30.315       21.267     1096.131      919.009      452.265        1.109        0.123      139.854       19.159        0.019      339.995       13.710      868.180
01/16/2021  14:43:00       43.702       32.845      -19.928       41.899       35.266       22.986     1755.515     1243.665      528.378        0.346        0.176       54.669       21.337        0.152      340.128       13.934      868.171
01/16/2021  14:44:00       90.597      -34.224      -26.842       64.080       77.336       35.327     4106.193     5980.829     1248.024        1.071        0.567       96.846       35.708        0.136      340.162       13.992      868.171
01/16/2021  14:45:00      111.443      -59.677      -18.586       79.413       78.716       41.922     6306.420     6196.255     1757.469        1.529        0.713      126.416       40.894        0.105      340.235       14.115      868.167
01/16/2021  14:46:00       35.506      -28.852       -3.382       62.625       58.858       39.742     3921.901     3464.280     1579.421        0.553        0.448       45.751       36.055        0.621      340.249       14.140      868.145
01/16/2021  14:47:00       53.842      -33.005      -23.096       42.044       53.822       24.449     1767.721     2896.771      597.742        0.489        0.263       63.153       24.820        0.154      340.264       14.165      868.135
01/16/2021  14:48:00        3.514      -17.948      -15.128       44.777       38.594       24.963     2005.016     1489.489      623.147        0.234        0.206       18.289       23.520        1.654      340.437       14.457      868.125
01/16/2021  14:49:00       21.619       23.475        0.526       36.731       23.803       18.297     1349.144      566.568      334.787        0.163        0.113       31.913       22.914        0.516      340.539       14.630      868.119
01/16/2021  14:50:00       33.385       33.446        9.137       46.888       36.869       21.687     2198.473     1359.342      470.342        0.317        0.201       47.257       22.554        0.228      340.376       14.353      868.114
01/16/2021  14:51:00       58.980       58.813       -7.582       44.038       26.994       19.951     1939.336      728.697      398.036        0.503        0.153       83.292       18.970        0.052      340.251       14.143      868.127
01/16/2021  14:52:00       41.528       29.477       -0.935       35.471       24.105       16.782     1258.190      581.064      281.628        0.236        0.106       50.926       21.429        0.177      340.344       14.299      868.124
01/16/2021  14:53:00       88.418       89.164      -13.339       49.965       51.697       30.572     2496.499     2672.574      934.660        1.102        0.305      125.571       27.848        0.049      340.164       13.995      868.139
01/16/2021  14:54:00       66.511       83.196        2.194       75.279       61.034       40.948     5666.915     3725.147     1676.733        1.121        0.553      106.514       31.391        0.087      340.371       14.345      868.124
01/16/2021  14:55:00      115.729       86.948      -15.583       68.784       46.822       30.444     4731.278     2192.325      926.824        1.452        0.393      144.752       25.314        0.031      340.282       14.194      868.120
01/16/2021  14:56:00       87.887       38.201       -2.406       50.646       38.829       28.429     2565.065     1507.710      808.229        0.703        0.244       95.831       24.332        0.064      340.379       14.360      868.108
01/16/2021  14:57:00      129.549     -100.898      -36.230       76.613       76.702       38.263     5869.574     5883.213     1464.024        2.074        0.661      164.205       31.841        0.038      340.286       14.200      868.080
01/16/2021  14:58:00      143.777      -43.979       -7.367      109.835       91.442       63.237    12063.777     8361.565     3998.895        2.354        1.221      150.353       65.345        0.189      340.194       14.043      868.055
01/16/2021  14:59:00      129.051      -46.755      -19.186       94.652       70.570       43.704     8959.061     4980.155     1910.048        1.753        0.792      137.260       45.153        0.108      340.240       14.122      868.057
01/16/2021  15:00:00      128.683     -167.082      -38.278       75.169       85.177       41.440     5650.351     7255.181     1717.233        3.028        0.731      210.892       37.825        0.032      340.298       14.219      868.060
01/16/2021  15:01:00      107.770     -212.277      -36.258       46.948       48.757       28.240     2204.073     2377.223      797.489        3.168        0.269      238.067       29.132        0.015      340.070       13.834      868.055
01/16/2021  15:02:00       66.974      -89.862      -24.853       30.083       37.468       15.899      904.990     1403.816      252.769        0.787        0.128      112.075       15.988        0.020      340.098       13.884      868.063
01/16/2021  15:03:00       34.042      -65.994      -13.060       43.447       35.336       24.880     1887.678     1248.640      619.022        0.472        0.188       74.257       25.802        0.121      340.363       14.331      868.076
01/16/2021  15:04:00       10.397      -39.796       -8.646       34.177       25.409       20.486     1168.080      645.595      419.659        0.200        0.112       41.132       18.428        0.201      340.506       14.573      868.084
01/16/2021  15:05:00       77.867        3.520      -16.678       47.217       73.717       28.413     2229.477     5434.214      807.317        0.741        0.424       77.947       27.746        0.127      340.289       14.208      868.087
01/16/2021  15:06:00       82.724       54.122       -8.561       58.807       38.793       24.877     3458.288     1504.903      618.864        0.771        0.279       98.856       25.368        0.066      340.274       14.182      868.080
01/16/2021  15:07:00       94.580        8.137      -13.604       67.450       55.421       29.135     4549.499     3071.440      848.823        0.883        0.423       94.930       24.428        0.066      340.400       14.392      868.071
01/16/2021  15:08:00      138.299       40.141        0.736       55.570       56.258       30.133     3087.980     3164.994      908.006        1.395        0.358      144.006       21.276        0.022      340.292       14.213      868.064
01/16/2021  15:09:00      111.203       41.707       -8.796       54.444       40.513       28.867     2964.203     1641.313      833.309        0.981        0.272      118.767       23.668        0.040      340.282       14.194      868.056
01/16/2021  15:10:00       99.072       50.773      -18.859       60.551       89.026       33.116     3666.420     7925.601     1096.685        1.272        0.634      111.324       19.507        0.031      340.356       14.319      868.044
01/16/2021  15:11:00       60.363       78.697       -5.899       55.696       46.428       36.339     3102.005     2155.542     1320.505        0.822        0.329       99.181       31.221        0.099      340.324       14.267      868.064
01/16/2021  15:12:00      102.885       84.180      -11.649       47.123       27.167       23.647     2220.586      738.061      559.166        1.066        0.176      132.935       27.409        0.043      340.188       14.037      868.072
01/16/2021  15:13:00       64.449       64.581       -1.858       47.539       31.532       25.800     2259.951      994.255      665.627        0.612        0.196       91.238       26.342        0.083      340.371       14.346      868.073
01/16/2021  15:14:00      168.687       17.211      -10.788       97.965       53.472       39.276     9597.226     2859.284     1542.569        2.143        0.700      169.563       48.080        0.080      340.354       14.314      868.078
01/16/2021  15:15:00      134.668       19.619      -14.283      100.046       85.212       33.707    10009.140     7261.070     1136.138        1.856        0.920      136.089       14.396        0.011      340.359       14.323      868.083
01/16/2021  15:16:00       81.997      -26.034      -25.734       61.794       95.198       32.520     3818.540     9062.670     1057.524        1.100        0.697       86.031       24.827        0.083      340.431       14.446      868.098
01/16/2021  15:17:00       79.434      -41.111      -26.507       48.066       58.407       31.664     2310.372     3411.348     1002.605        0.771        0.336       89.442       26.811        0.090      340.296       14.219      868.108
01/16/2021  15:18:00      217.545       46.889      -16.765      102.222       67.770       46.428    10449.348     4592.805     2155.542        3.350        0.860      222.540       32.899        0.022      340.337       14.287      868.108
01/16/2021  15:19:00      246.708       93.542      -38.932       55.040       63.808       26.593     3029.347     4071.458      707.184        3.947        0.390      263.846       13.145        0.002      340.377       14.351      868.130
01/16/2021  15:20:00      133.614       72.050      -20.873       61.653       39.915       32.824     3801.080     1593.174     1077.422        1.497        0.324      151.802       28.784        0.036      340.445       14.471      868.172
01/16/2021  15:21:00      193.598       77.929      -16.161       95.670       63.273       33.823     9152.754     4003.421     1143.977        2.905        0.715      208.694       34.030        0.027      340.419       14.423      868.178
01/16/2021  15:22:00      153.011       63.190      -12.068       98.131       75.209       39.688     9629.609     5656.451     1575.165        2.220        0.843      165.546       36.235        0.048      340.458       14.490      868.190
01/16/2021  15:23:00       78.542       42.015        1.520       85.613       56.376       43.265     7329.520     3178.243     1871.826        1.016        0.619       89.074       42.443        0.227      340.580       14.697      868.186
01/16/2021  15:24:00      161.596       62.797      -12.216       87.320       62.550       33.019     7624.764     3912.526     1090.266        2.141        0.631      173.369       21.243        0.015      340.530       14.612      868.187
01/16/2021  15:25:00      278.037       26.678      -27.321      107.931       79.570       41.758    11649.083     6331.425     1743.753        4.924        0.986      279.314       35.674        0.016      340.311       14.241      868.174
01/16/2021  15:26:00      205.820       89.438      -26.136       87.955       89.198       45.277     7736.009     7956.273     2049.976        3.439        0.887      224.413       43.689        0.038      340.316       14.250      868.186
01/16/2021  15:27:00      205.631      101.005      -27.723       81.532       76.961       41.156     6647.536     5922.937     1693.787        3.376        0.713      229.098       41.629        0.033      340.345       14.298      868.203
01/16/2021  15:28:00      157.589       59.199      -18.967       63.860       46.513       32.275     4078.102     2163.493     1041.696        1.799        0.364      168.341       24.768        0.022      340.374       14.349      868.200
01/16/2021  15:29:00      131.504       89.084      -13.365       61.940       56.453       39.041     3836.587     3186.965     1524.172        1.698        0.427      158.837       28.015        0.031      340.451       14.480      868.198
01/16/2021  15:30:00      257.081       65.897      -12.474      104.115       83.215       44.562    10839.933     6924.713     1985.778        4.517        0.988      265.393       42.022        0.025      340.352       14.311      868.197
01/16/2021  15:31:00      285.847      113.344      -16.777       96.848       63.648       41.819     9379.537     4051.108     1748.794        5.500        0.759      307.499       34.587        0.013      340.175       14.011      868.207
01/16/2021  15:32:00      275.444       96.231      -20.253      107.136       94.275       42.546    11478.130     8887.858     1810.181        5.385        1.109      291.770       41.716        0.020      340.195       14.045      868.216
01/16/2021  15:33:00      146.959      101.198       -6.221       95.073       63.792       41.224     9038.790     4069.393     1699.409        2.334        0.740      178.432       40.422        0.051      340.241       14.123      868.241
01/16/2021  15:34:00      110.708      -16.808      -24.485       76.524       99.654       41.909     5855.855     9930.969     1756.405        1.534        0.877      111.977       32.019        0.082      340.270       14.173      868.252
01/16/2021  15:35:00      110.591       69.711       -7.653       88.102       52.136       35.388     7761.950     2718.163     1252.278        1.444        0.587      130.729       41.443        0.100      340.308       14.239      868.277
01/16/2021  15:36:00      245.250      151.198      -25.037       89.732       71.478       43.568     8051.873     5109.154     1898.151        4.934        0.753      288.112       26.765        0.009      340.209       14.068      868.287
01/16/2021  15:37:00      288.696      146.880      -29.411       77.774       79.014       48.257     6048.792     6243.269     2328.782        6.020        0.731      323.912       44.645        0.019      340.173       14.007      868.299
01/16/2021  15:38:00      201.474       49.308       -8.990      117.570       69.718       46.079    13822.720     4860.616     2123.280        3.195        1.040      207.420       49.200        0.056      340.232       14.108      868.308
01/16/2021  15:39:00      208.832       92.112      -30.573      103.415       94.168       42.568    10694.616     8867.533     1812.037        3.720        1.069      228.244       40.310        0.031      340.265       14.163      868.306
01/16/2021  15:40:00      183.715       96.313      -14.142       81.102       72.349       38.756     6577.615     5234.383     1502.034        2.827        0.666      207.431       30.964        0.022      340.182       14.022      868.318
01/16/2021  15:41:00      281.529      144.837      -23.571       89.961       80.854       44.440     8093.013     6537.368     1974.948        5.870        0.830      316.601       41.619        0.017      340.165       13.995      868.310
01/16/2021  15:42:00      206.318       80.296      -26.261       84.107       56.717       35.185     7073.946     3216.806     1237.983        3.061        0.576      221.392       26.070        0.014      340.155       13.978      868.323
01/16/2021  15:43:00      182.684       19.669      -21.700       99.698       71.739       43.766     9939.681     5146.508     1915.436        2.561        0.850      183.740       29.511        0.026      340.202       14.056      868.328
01/16/2021  15:44:00      238.030      125.925      -24.400       84.506       58.847       37.439     7141.223     3462.917     1401.681        4.256        0.600      269.287       41.957        0.024      340.207       14.063      868.364
01/16/2021  15:45:00      234.356      121.609      -17.570       84.875       68.106       42.399     7203.735     4638.385     1797.663        4.183        0.682      264.029       31.857        0.015      340.181       14.020      868.390
01/16/2021  15:46:00      230.837       92.929      -25.323       72.973       61.956       37.982     5325.008     3838.594     1442.657        3.658        0.530      248.840       38.104        0.023      340.139       13.950      868.406
01/16/2021  15:47:00      163.415       82.623      -23.766       54.431       61.468       33.652     2962.763     3778.358     1132.469        2.098        0.394      183.115       27.429        0.022      340.206       14.065      868.424
01/16/2021  15:48:00      233.050       98.370      -33.268       84.817       48.100       38.927     7193.843     2313.611     1515.307        3.806        0.551      252.960       42.344        0.028      340.173       14.009      868.428
01/16/2021  15:49:00      168.694       87.003      -24.752       92.717       52.763       27.130     8596.351     2783.973      736.025        2.438        0.606      189.808       26.406        0.019      340.211       14.073      868.453
01/16/2021  15:50:00      215.375       91.985      -22.254       82.467       80.665       39.164     6800.809     6506.895     1533.784        3.509        0.742      234.196       23.381        0.010      340.174       14.010      868.458
01/16/2021  15:51:00      236.059      131.356      -25.029       63.160       82.914       39.202     3989.208     6874.671     1536.824        4.300        0.620      270.144       30.644        0.013      340.143       13.955      868.455
01/16/2021  15:52:00      158.939       34.143      -24.795       51.370       53.075       33.479     2638.895     2816.947     1120.813        1.681        0.329      162.564       26.645        0.027      340.179       14.020      868.449
01/16/2021  15:53:00      134.595       60.069      -17.716       63.826       65.405       33.910     4073.714     4277.793     1149.854        1.577        0.475      147.391       28.332        0.037      340.215       14.080      868.458
01/16/2021  15:54:00      215.711       63.551      -28.485      103.893       99.769       46.929    10793.659     9953.950     2202.332        3.716        1.147      224.877       39.964        0.032      340.145       13.962      868.464
01/16/2021  15:55:00      234.407       67.163      -23.890      135.051       84.131       50.496    18238.695     7078.058     2549.880        4.394        1.393      243.839       56.069        0.053      340.103       13.889      868.482
01/16/2021  15:56:00      226.838       83.602      -16.280      124.940       83.515       53.181    15609.989     6974.697     2828.241        4.206        1.271      241.754       47.842        0.039      340.156       13.980      868.490
01/16/2021  15:57:00      159.574       21.783      -21.931       84.167       92.844       52.483     7084.001     8619.923     2754.424        2.243        0.923      161.054       33.506        0.043      340.047       13.797      868.493
01/16/2021  15:58:00      244.352       65.974      -27.605       76.136       63.221       39.066     5796.725     3996.903     1526.148        3.807        0.566      253.102       31.719        0.016      340.058       13.812      868.495
01/16/2021  15:59:00      160.293      -52.260      -11.791       96.934       85.401       60.735     9396.159     7293.326     3688.739        2.447        1.019      168.597       57.087        0.115      340.056       13.811      868.487
01/16/2021  16:00:00      151.723        8.282      -14.714      105.086       83.582       54.929    11043.080     6985.999     3017.178        2.217        1.052      151.949       51.474        0.115      339.996       13.709      868.485
01/16/2021  16:01:00      269.690       40.043      -17.607      114.750       86.522       58.091    13167.617     7486.092     3374.559        4.933        1.201      272.647       51.088        0.035      339.961       13.651      868.489
01/16/2021  16:02:00      189.227       35.989      -24.975      100.275       84.946       44.540    10055.119     7215.841     1983.811        2.849        0.963      192.619       44.073        0.052      339.970       13.666      868.520
01/16/2021  16:03:00      191.932       42.974      -18.869       74.597       68.085       35.709     5564.702     4635.614     1275.155        2.526        0.574      196.684       27.313        0.019      339.999       13.715      868.547
01/16/2021  16:04:00      138.646       56.416      -10.307      105.033       73.177       44.540    11031.975     5354.866     1983.818        2.044        0.919      149.684       57.255        0.146      340.041       13.785      868.558
01/16/2021  16:05:00       55.793        2.979       -7.755       61.441       67.029       41.421     3775.016     4492.909     1715.709        0.658        0.499       55.873       33.428        0.358      340.044       13.793      868.586
01/16/2021  16:06:00      128.822       35.547      -28.693       71.665       84.742       37.592     5135.941     7181.285     1413.179        1.620        0.687      133.636       29.123        0.047      340.061       13.821      868.608
01/16/2021  16:07:00      238.258       69.886      -23.878       79.552       84.375       41.026     6328.500     7119.119     1683.133        3.867        0.757      248.296       40.964        0.027      340.047       13.795      868.627
01/16/2021  16:08:00      207.000       81.580      -14.991       80.094       79.386       43.084     6415.091     6302.075     1856.238        3.215        0.729      222.495       39.696        0.032      340.062       13.820      868.642
01/16/2021  16:09:00      201.302       62.946      -16.740       89.926       79.382       43.026     8086.613     6301.550     1851.235        3.050        0.812      210.914       46.286        0.048      340.068       13.830      868.659
01/16/2021  16:10:00      120.062       10.387      -13.904       93.257       76.451       43.197     8696.903     5844.711     1866.001        1.556        0.820      120.511       43.845        0.132      340.040       13.785      868.654
01/16/2021  16:11:00      136.906       32.951      -24.335       85.171       82.036       43.628     7254.015     6729.901     1903.370        1.815        0.794      140.816       33.294        0.056      340.016       13.744      868.652
01/16/2021  16:12:00      165.761       42.699      -32.504      135.503      102.623       29.917    18361.056    10531.474      895.035        3.007        1.489      171.172       25.778        0.023      339.988       13.697      868.654
01/16/2021  16:13:00      263.982       38.745      -11.800      108.083      117.231       50.732    11681.856    13743.009     2573.735        4.966        1.400      266.810       33.211        0.015      339.971       13.667      868.640
01/16/2021  16:14:00      155.777        9.805      -33.631      108.953      105.144       43.381    11870.714    11055.223     1881.941        2.515        1.240      156.085       22.813        0.021      339.993       13.705      868.653
01/16/2021  16:15:00      194.194       45.869      -25.997      105.453       87.914       42.937    11120.332     7728.878     1843.548        3.059        1.035      199.538       23.040        0.013      339.943       13.620      868.655
01/16/2021  16:16:00      165.604       35.640      -29.395      108.469       81.077       36.759    11765.504     6573.558     1351.237        2.462        0.985      169.395       38.223        0.051      339.961       13.650      868.666
01/16/2021  16:17:00      149.376       43.286      -14.003      101.667       65.940       46.348    10336.142     4348.072     2148.141        2.060        0.842      155.522       50.252        0.104      339.963       13.655      868.670
01/16/2021  16:18:00      157.472       10.883        0.155       87.461       56.834       53.480     7649.395     3230.125     2860.130        1.932        0.687      157.847       53.803        0.116      339.911       13.567      868.674
01/16/2021  16:19:00      237.341       57.070      -19.220       78.294       71.546       46.550     6129.973     5118.829     2166.876        3.668        0.671      244.106       42.795        0.031      339.906       13.554      868.687
01/16/2021  16:20:00      246.186       99.210      -26.063       71.199       80.825       38.908     5069.271     6532.643     1513.827        4.212        0.656      265.424       30.548        0.013      339.900       13.544      868.697
01/16/2021  16:21:00      235.581       56.926      -32.790       97.717       98.732       45.406     9548.650     9748.073     2061.707        4.058        1.068      242.361       29.501        0.015      339.901       13.547      868.701
01/16/2021  16:22:00      271.250       82.043      -29.386       67.118       56.724       38.813     4504.805     3217.626     1506.478        4.520        0.461      283.386       34.698        0.015      339.893       13.532      868.706
01/16/2021  16:23:00      189.287       21.489      -17.270       94.072       82.389       40.888     8849.504     6787.995     1671.868        2.695        0.865      190.503       37.805        0.039      339.878       13.511      868.697
01/16/2021  16:24:00      139.235       57.295      -23.059       94.401       95.444       45.949     8911.610     9109.529     2111.332        2.166        1.007      150.562       37.508        0.062      339.856       13.474      868.696
01/16/2021  16:25:00      102.555        9.772      -16.514       77.007       66.280       46.466     5930.041     4393.031     2159.061        1.168        0.624      103.019       42.302        0.169      339.786       13.359      868.697
01/16/2021  16:26:00      140.921       39.611      -15.512       95.465       55.974       39.196     9113.557     3133.073     1536.296        1.772        0.689      146.382       26.827        0.034      339.804       13.387      868.702
01/16/2021  16:27:00      113.042       14.737      -20.459       88.156       53.559       39.055     7771.394     2868.563     1525.312        1.279        0.608      113.998       35.314        0.096      339.753       13.303      868.710
01/16/2021  16:28:00      206.962       23.791      -16.090       86.164       72.699       44.195     7424.280     5285.092     1953.157        2.916        0.733      208.325       36.672        0.031      339.776       13.339      868.708
01/16/2021  16:29:00      171.159       46.688      -16.267       92.387       67.664       40.354     8535.371     4578.360     1628.425        2.324        0.737      177.412       38.975        0.048      339.785       13.353      868.724
01/16/2021  16:30:00      275.712       78.671      -24.739       83.347       73.775       47.938     6946.729     5442.749     2298.033        4.875        0.734      286.717       42.427        0.022      339.825       13.421      868.728
01/16/2021  16:31:00      127.019       17.379      -15.629       78.374       94.915       42.333     6142.521     9008.817     1792.049        1.681        0.847      128.202       49.499        0.149      339.763       13.319      868.739
01/16/2021  16:32:00      186.679       89.878      -17.750       93.678       58.667       39.032     8775.587     3441.857     1523.515        2.849        0.687      207.189       42.235        0.042      339.793       13.368      868.772
01/16/2021  16:33:00      184.748      117.579      -19.272       85.819       51.113       36.894     7364.883     2612.505     1361.174        2.983        0.567      218.990       27.364        0.016      339.710       13.227      868.788
01/16/2021  16:34:00      188.549       80.412      -19.184       96.758       79.350       41.902     9362.199     6296.425     1755.741        2.990        0.871      204.980       44.052        0.046      339.648       13.123      868.804
01/16/2021  16:35:00      184.105       83.409      -20.148       67.483       72.052       35.570     4553.905     5191.523     1265.237        2.613        0.551      202.118       22.958        0.013      339.652       13.129      868.808
01/16/2021  16:36:00      194.742      126.304      -23.041       72.070       44.042       41.416     5194.112     1939.672     1715.254        3.163        0.442      232.114       38.889        0.028      339.661       13.143      868.819
01/16/2021  16:37:00      201.830      154.160      -28.595      103.077       60.647       42.005    10624.959     3677.998     1764.404        4.069        0.803      253.970       41.308        0.026      339.659       13.142      868.819
01/16/2021  16:38:00      122.500      223.788      -22.626      128.295       78.351       44.277    16459.661     6138.802     1960.471        4.507        1.228      255.122       44.213        0.030      339.678       13.173      868.828
01/16/2021  16:39:00      118.839      114.894      -18.179       77.076       60.524       39.237     5940.688     3663.129     1539.529        1.940        0.557      165.298       34.200        0.043      339.577       13.003      868.853
01/16/2021  16:40:00      204.157      138.312      -27.175       76.735       61.720       41.693     5888.308     3809.409     1738.292        3.649        0.572      246.597       43.765        0.031      339.558       12.969      868.864
01/16/2021  16:41:00      157.338      115.125      -23.582       83.268       62.990       38.855     6933.487     3967.702     1509.692        2.549        0.621      194.959       32.782        0.028      339.524       12.914      868.885
01/16/2021  16:42:00      136.143      149.694      -26.516       81.686       62.535       44.231     6672.542     3910.683     1956.422        2.709        0.627      202.344       41.437        0.042      339.512       12.892      868.899
01/16/2021  16:43:00      129.442      142.348      -14.743       89.136       63.992       51.544     7945.148     4095.006     2656.779        2.596        0.735      192.401       45.085        0.055      339.455       12.797      868.896
01/16/2021  16:44:00      128.610      150.534      -25.615       61.618       65.340       43.171     3796.806     4269.373     1863.765        2.489        0.496      197.993       33.471        0.029      339.427       12.751      868.898
01/16/2021  16:45:00      110.517      104.284      -19.190       64.799       46.839       31.465     4198.892     2193.860      990.070        1.542        0.369      151.951       32.070        0.045      339.414       12.731      868.890
01/16/2021  16:46:00      127.660       86.701      -20.871       81.072       31.035       39.635     6572.601      963.140     1570.944        1.668        0.455      154.319       46.764        0.092      339.411       12.725      868.894
01/16/2021  16:47:00      125.149       84.931      -18.696       62.889       34.717       31.038     3955.067     1205.284      963.386        1.467        0.306      151.247       32.864        0.047      339.412       12.725      868.890
01/16/2021  16:48:00      129.003       87.764      -18.788       55.631       36.661       30.983     3094.816     1343.999      959.968        1.505        0.270      156.027       33.640        0.046      339.405       12.716      868.886
01/16/2021  16:49:00       99.873       52.370      -14.470       71.455       36.663       32.199     5105.761     1344.157     1036.804        1.021        0.374      112.771       39.573        0.123      339.384       12.680      868.884
01/16/2021  16:50:00      134.665      105.208      -17.951       69.041       50.634       40.013     4766.683     2563.837     1601.005        1.923        0.447      170.890       40.839        0.057      339.310       12.554      868.880
01/16/2021  16:51:00      130.090       95.589      -25.296       56.433       36.526       34.922     3184.645     1334.167     1219.543        1.622        0.287      161.434       32.224        0.040      339.282       12.508      868.880
01/16/2021  16:52:00      131.373       88.226      -21.510       63.301       27.917       28.461     4007.025      779.357      810.041        1.555        0.280      158.249       28.139        0.032      339.256       12.464      868.866
01/16/2021  16:53:00      119.903      117.497      -17.251       75.470       40.433       35.773     5695.751     1634.852     1279.726        1.854        0.431      167.876       41.179        0.060      339.263       12.474      868.848
01/16/2021  16:54:00      117.255      103.941      -20.421       70.774       42.196       39.324     5008.967     1780.522     1546.378        1.665        0.417      156.692       34.724        0.049      339.265       12.479      868.830
01/16/2021  16:55:00       90.109       90.419      -15.981       63.805       39.164       35.196     4071.035     1533.782     1238.774        1.170        0.342      127.653       36.875        0.083      339.225       12.411      868.823
01/16/2021  16:56:00      112.629       94.199      -11.178       66.947       46.637       36.028     4481.844     2175.038     1298.041        1.482        0.398      146.829       35.597        0.059      339.220       12.403      868.833
01/16/2021  16:57:00      109.990      131.954      -22.618       60.948       45.120       35.555     3714.615     2035.785     1264.182        1.852        0.351      171.783       36.783        0.046      339.187       12.346      868.845
01/16/2021  16:58:00       87.484      129.307      -11.365       73.119       43.363       35.603     5346.346     1880.387     1267.566        1.650        0.425      156.121       37.043        0.056      339.179       12.333      868.861
01/16/2021  16:59:00      106.160       99.091      -19.169       66.184       33.988       33.132     4380.352     1155.160     1097.723        1.404        0.332      145.220       38.060        0.069      339.147       12.281      868.883
01/16/2021  17:00:00      114.629      130.474      -23.825       67.758       42.717       31.582     4591.131     1824.706      997.396        1.907        0.371      173.676       34.355        0.039      339.180       12.336      868.896
01/16/2021  17:01:00       77.700       93.210      -18.003       58.144       33.816       28.975     3380.768     1143.529      839.534        1.021        0.268      121.348       32.447        0.071      339.127       12.247      868.898
01/16/2021  17:02:00       71.320      164.506      -27.810       59.998       48.179       32.405     3599.782     2321.183     1050.112        1.995        0.349      179.301       36.212        0.041      339.249       12.453      868.897
01/16/2021  17:03:00       93.832      135.212      -20.973       66.972       50.145       36.487     4485.188     2514.488     1331.269        1.793        0.417      164.580       40.468        0.060      339.194       12.359      868.891
01/16/2021  17:04:00       54.905      147.750      -26.960       41.411       42.475       26.201     1714.871     1804.151      686.467        1.489        0.210      157.622       25.615        0.026      339.143       12.274      868.904
01/16/2021  17:05:00       65.067       98.136      -11.558       51.410       35.188       32.923     2643.028     1238.205     1083.952        0.948        0.248      117.748       32.882        0.078      339.116       12.228      868.911
01/16/2021  17:06:00       69.079      130.634      -12.744       55.687       38.184       34.177     3101.066     1457.999     1168.051        1.386        0.286      147.774       33.670        0.052      339.133       12.258      868.928
01/16/2021  17:07:00       70.516      121.400      -10.269       48.769       40.495       33.358     2378.375     1639.846     1112.749        1.247        0.257      140.394       29.742        0.045      339.083       12.174      868.935
01/16/2021  17:08:00       84.142      166.407      -29.373       58.632       55.452       28.457     3437.759     3074.970      809.794        2.148        0.366      186.470       26.873        0.021      339.046       12.110      868.946
01/16/2021  17:09:00       82.506      103.412      -14.085       56.822       39.244       34.082     3228.770     1540.083     1161.599        1.181        0.297      132.292       35.151        0.071      339.054       12.124      868.960
01/16/2021  17:10:00      108.100       89.580      -18.598       64.471       30.871       31.818     4156.474      953.020     1012.386        1.309        0.306      140.393       35.250        0.063      338.951       11.951      868.975
01/16/2021  17:11:00      109.905      110.725      -16.732       55.212       41.609       37.717     3048.386     1731.313     1422.586        1.541        0.310      156.010       31.095        0.040      338.950       11.950      868.992
01/16/2021  17:12:00       64.685       65.574       -3.726       56.185       40.875       28.422     3156.756     1670.763      807.793        0.707        0.282       92.109       29.948        0.106      338.912       11.885      868.998
01/16/2021  17:13:00       98.126      150.405      -21.327       71.480       46.945       32.919     5109.393     2203.833     1083.661        2.055        0.420      179.584       40.763        0.052      338.969       11.982      868.993
01/16/2021  17:14:00       89.633      140.956      -15.969       74.894       53.505       40.767     5609.115     2862.742     1661.972        1.914        0.507      167.041       40.125        0.058      338.957       11.960      868.980
01/16/2021  17:15:00       78.160      164.005      -25.708       70.170       48.641       37.023     4923.822     2365.928     1370.695        2.116        0.433      181.677       35.256        0.038      338.946       11.941      868.971
01/16/2021  17:16:00       86.328      181.494      -23.997       49.148       56.682       33.426     2415.522     3212.856     1117.307        2.386        0.337      200.979       34.881        0.030      338.955       11.956      868.969
01/16/2021  17:17:00       66.006      145.215      -19.276       52.276       45.285       29.560     2732.801     2050.768      873.799        1.574        0.283      159.512       28.310        0.031      338.939       11.929      868.978
01/16/2021  17:18:00        3.965      134.957       -9.911       49.929       35.717       29.962     2492.861     1275.733      897.735        1.150        0.233      135.015       26.860        0.040      338.854       11.788      868.989
01/16/2021  17:19:00       -3.465      160.668      -10.625       58.417       56.578       32.320     3412.562     3201.051     1044.571        1.680        0.383      160.705       27.725        0.030      338.740       11.595      869.003
01/16/2021  17:20:00       26.103      160.836      -20.071       65.602       49.068       30.266     4303.664     2407.647      916.051        1.729        0.381      162.940       30.047        0.034      338.658       11.458      869.019
01/16/2021  17:21:00       30.393      169.458      -18.673       52.569       44.271       30.235     2763.466     1959.918      914.152        1.781        0.282      172.162       27.746        0.026      338.604       11.367      869.020
01/16/2021  17:22:00       56.876      203.501      -19.553       56.063       49.775       31.165     3143.061     2477.580      971.280        2.581        0.330      211.299       32.501        0.024      338.572       11.311      869.036
01/16/2021  17:23:00       63.836      189.684      -25.394       53.246       60.283       25.657     2835.091     3634.033      658.296        2.391        0.356      200.137       29.037        0.021      338.525       11.232      869.032
01/16/2021  17:24:00       12.937      182.072      -12.494       48.334       40.667       28.536     2336.200     1653.838      814.317        1.914        0.240      182.531       26.160        0.021      338.527       11.239      869.033
01/16/2021  17:25:00       53.562      200.854      -24.352       49.128       43.877       23.825     2413.567     1925.157      567.630        2.435        0.245      207.873       20.288        0.010      338.525       11.234      869.031
01/16/2021  17:26:00       33.115      196.497      -16.185       51.649       44.526       26.707     2667.598     1982.526      713.257        2.267        0.268      199.268       22.394        0.013      338.496       11.186      869.040
01/16/2021  17:27:00       43.210      236.296      -17.487       48.821       47.173       24.276     2383.493     2225.336      589.329        3.160        0.260      240.214       17.988        0.006      338.489       11.171      869.045
01/16/2021  17:28:00       -8.454      166.284      -14.302       47.020       29.875       26.078     2210.904      892.532      680.086        1.585        0.189      166.498       24.418        0.022      338.433       11.081      869.053
01/16/2021  17:29:00      -15.962      145.043      -19.099       49.438       29.746       24.167     2444.082      884.801      584.055        1.278        0.196      145.919       20.579        0.020      338.488       11.174      869.067
01/16/2021  17:30:00      -34.903       94.007       -4.233       65.811       46.602       37.346     4331.035     2171.749     1394.741        0.898        0.395      100.277       22.024        0.048      338.628       11.408      869.092
01/16/2021  17:31:00       -5.533      134.977      -11.208       46.989       36.065       29.429     2207.920     1300.719      866.065        1.137        0.219      135.090       19.785        0.021      338.474       11.150      869.113
01/16/2021  17:32:00      -13.136       94.949       -5.661       56.951       52.397       26.405     3243.396     2745.457      697.202        0.795        0.334       95.853       15.849        0.027      338.578       11.324      869.146
01/16/2021  17:33:00      -11.245      159.156      -12.991       59.460       57.239       29.459     3535.437     3276.281      867.851        1.665        0.384      159.553       20.909        0.017      338.453       11.112      869.182
01/16/2021  17:34:00       34.811      200.776      -18.659       65.286       42.654       32.314     4262.276     1819.334     1044.187        2.450        0.356      203.771       20.525        0.010      338.430       11.073      869.218
01/16/2021  17:35:00       41.400      174.012      -17.957       51.843       53.799       35.634     2687.726     2894.382     1269.794        1.958        0.343      178.869       29.662        0.028      338.393       11.012      869.243
01/16/2021  17:36:00       22.948      161.181      -14.064       51.502       41.622       31.878     2652.433     1732.359     1016.206        1.605        0.270      162.807       28.432        0.030      338.372       10.978      869.257
01/16/2021  17:37:00      -38.159      194.345      -19.829       55.585       45.779       24.685     3089.733     2095.763      609.365        2.271        0.290      198.056       10.337        0.003      338.414       11.046      869.255
01/16/2021  17:38:00      -19.875      186.948      -12.900       46.934       57.613       26.828     2202.834     3319.264      719.763        2.088        0.312      188.001       23.155        0.015      338.386       11.001      869.264
01/16/2021  17:39:00       -2.666      149.510      -12.778       56.608       34.200       26.346     3204.469     1169.627      694.120        1.379        0.253      149.533       23.160        0.024      338.350       10.942      869.282
01/16/2021  17:40:00      -17.092      163.017      -15.587       55.480       45.799       28.858     3078.021     2097.534      832.782        1.656        0.300      163.910       18.953        0.013      338.376       10.984      869.289
01/16/2021  17:41:00      -19.822      143.459       -8.552       48.368       45.923       31.253     2339.491     2108.909      976.775        1.323        0.271      144.822       24.163        0.028      338.387       11.004      869.305
01/16/2021  17:42:00      -46.750      161.802      -16.086       55.456       36.842       29.762     3075.366     1357.340      885.769        1.697        0.266      168.420       17.666        0.011      338.410       11.042      869.322
01/16/2021  17:43:00       -4.729      151.456      -15.006       55.588       48.017       39.965     3090.014     2305.652     1597.224        1.509        0.350      151.530       35.014        0.053      338.360       10.959      869.342
01/16/2021  17:44:00      -14.754      113.792       -9.737       39.577       33.733       27.254     1566.336     1137.897      742.763        0.835        0.172      114.744       18.038        0.025      338.415       11.050      869.352
01/16/2021  17:45:00      -13.411       95.415       -2.162       52.620       34.333       29.971     2768.849     1178.785      898.264        0.707        0.242       96.353       25.374        0.069      338.424       11.067      869.367
01/16/2021  17:46:00      -11.536       94.677       -7.640       41.352       40.882       25.260     1709.964     1671.298      638.085        0.659        0.201       95.377       20.679        0.047      338.366       10.970      869.376
01/16/2021  17:47:00      -42.131      135.128      -15.795       49.398       53.497       27.267     2440.120     2861.924      743.499        1.316        0.302      141.544       12.293        0.008      338.370       10.975      869.374
01/16/2021  17:48:00      -19.219      141.494      -13.528       36.204       38.978       20.148     1310.749     1519.321      405.957        1.190        0.162      142.793       15.450        0.012      338.243       10.762      869.383
01/16/2021  17:49:00      -25.659      146.374      -10.056       36.575       45.787       27.531     1337.700     2096.456      757.964        1.319        0.210      148.606       22.264        0.022      338.190       10.674      869.382
01/16/2021  17:50:00      -23.025      105.015      -14.866       26.170       36.500       22.596      684.867     1332.255      510.564        0.715        0.126      107.509       13.130        0.015      338.250       10.774      869.393
01/16/2021  17:51:00      -25.166      110.753      -15.335       33.863       20.302       16.488     1146.691      412.168      271.858        0.748        0.092      113.576       12.303        0.012      338.148       10.603      869.403
01/16/2021  17:52:00      -14.633      141.710      -19.176       35.099       27.736       22.733     1231.945      769.269      516.800        1.159        0.126      142.464       23.075        0.026      338.133       10.576      869.420
01/16/2021  17:53:00      -22.771       89.046       -8.445       44.781       30.887       23.494     2005.359      954.031      551.981        0.601        0.176       91.911       21.079        0.053      338.147       10.600      869.434
01/16/2021  17:54:00      -10.860       78.057       -4.785       35.521       35.678       23.951     1261.762     1272.930      573.628        0.467        0.155       78.809       15.880        0.041      338.130       10.571      869.444
01/16/2021  17:55:00       -5.987       99.319      -16.160       37.312       51.257       24.924     1392.207     2627.300      621.225        0.740        0.232       99.500       20.214        0.041      338.090       10.505      869.461
01/16/2021  17:56:00      -40.846       80.785       -8.575       60.494       41.209       26.895     3659.508     1698.195      723.353        0.717        0.304       90.525       13.381        0.022      338.194       10.680      869.469
01/16/2021  17:57:00      -29.460       94.852       -5.537       47.209       54.735       30.209     2228.679     2995.913      912.608        0.802        0.307       99.322       21.035        0.045      338.141       10.591      869.486
01/16/2021  17:58:00      -36.424       86.668       -7.814       52.857       49.413       31.309     2793.906     2441.661      980.282        0.756        0.311       94.011       22.060        0.055      338.091       10.507      869.500
01/16/2021  17:59:00      -21.818      127.391      -16.943       48.068       41.834       27.945     2310.532     1750.101      780.919        1.092        0.242      129.246       15.250        0.014      338.136       10.583      869.518
01/16/2021  18:00:00      -49.349      108.122      -12.660       39.983       34.909       26.459     1598.678     1218.641      700.082        0.890        0.176      118.851        9.116        0.006      338.152       10.609      869.533
01/16/2021  18:01:00      -53.872      109.244       -8.213       48.880       39.751       24.552     2389.226     1580.113      602.784        0.974        0.229      121.805       12.089        0.010      338.130       10.571      869.558
01/16/2021  18:02:00      -29.441      142.861      -14.412       46.955       37.160       25.262     2204.746     1380.897      638.187        1.285        0.211      145.863       18.623        0.016      338.018       10.385      869.576
01/16/2021  18:03:00      -54.895      105.676       -7.726       44.646       45.212       31.195     1993.289     2044.155      973.133        0.962        0.251      119.083       14.135        0.014      338.122       10.559      869.578
01/16/2021  18:04:00      -24.410      167.035      -12.355       45.610       45.887       24.869     2080.248     2105.604      618.475        1.673        0.240      168.809       17.991        0.011      337.965       10.294      869.574
01/16/2021  18:05:00      -33.524      109.884       -4.269       48.680       35.716       23.919     2369.781     1275.618      572.102        0.872        0.211      114.884       14.063        0.015      338.013       10.376      869.571
01/16/2021  18:06:00      -30.522       98.604      -11.110       76.652       48.807       30.942     5875.460     2382.154      957.380        0.999        0.461      103.220       15.259        0.022      338.103       10.527      869.568
01/16/2021  18:07:00      -58.317      139.535      -17.123       75.857       63.138       32.849     5754.213     3986.411     1079.033        1.699        0.541      151.231       15.270        0.010      338.103       10.525      869.570
01/16/2021  18:08:00      -52.402      138.144       -2.976       46.495       71.484       29.903     2161.756     5109.934      894.218        1.500        0.408      147.749       25.406        0.030      338.092       10.506      869.574
01/16/2021  18:09:00      -16.329      233.760      -19.135       58.691       53.687       40.930     3444.641     2882.272     1675.276        3.164        0.400      234.330       34.050        0.021      338.016       10.376      869.591
01/16/2021  18:10:00      -42.111      177.646       -9.797       45.525       61.649       31.602     2072.561     3800.541      998.715        2.015        0.344      182.569       32.118        0.031      338.020       10.386      869.607
01/16/2021  18:11:00       -8.222      160.760      -20.090       59.869       39.912       28.775     3584.309     1593.005      828.029        1.616        0.300      160.970       21.631        0.018      338.001       10.356      869.619
01/16/2021  18:12:00      -40.780      189.548       -7.111       68.046       53.294       38.166     4630.280     2840.288     1456.663        2.328        0.446      193.885       30.005        0.024      338.045       10.428      869.614
01/16/2021  18:13:00      -30.902      152.247      -15.171       37.752       48.822       28.048     1425.221     2383.599      786.710        1.448        0.230      155.352       26.556        0.029      338.015       10.380      869.609
01/16/2021  18:14:00        0.211      102.558      -11.727       37.391       34.894       20.379     1398.076     1217.606      415.320        0.684        0.152      102.559       17.039        0.028      338.032       10.408      869.602
01/16/2021  18:15:00       39.569       84.304        1.786       43.193       48.691       26.594     1865.668     2370.803      707.233        0.681        0.247       93.128       30.475        0.107      337.957       10.283      869.605
01/16/2021  18:16:00      -25.571      116.024       -5.757       56.962       45.041       24.898     3244.695     2028.709      619.893        1.002        0.295      118.808       20.242        0.029      338.027       10.399      869.611
01/16/2021  18:17:00      -39.627       97.730      -13.412       57.159       61.329       21.976     3267.198     3761.222      482.952        0.940        0.376      105.458       26.754        0.064      338.141       10.592      869.617
01/16/2021  18:18:00      -77.691       46.328       -5.168       55.338       34.366       32.531     3062.246     1181.002     1058.273        0.675        0.265       90.456       29.258        0.105      338.132       10.576      869.613
01/16/2021  18:19:00      -47.136      160.185      -11.284       56.498       44.729       29.162     3192.080     2000.657      850.428        1.702        0.302      166.976       15.339        0.008      338.041       10.422      869.626
01/16/2021  18:20:00      -38.768      134.793      -10.208       41.069       54.493       24.849     1686.675     2969.463      617.459        1.252        0.264      140.258       17.980        0.016      337.913       10.208      869.627
01/16/2021  18:21:00      -37.764       88.039      -15.287       45.975       59.879       27.202     2113.689     3585.551      739.955        0.792        0.322       95.797       20.364        0.045      338.026       10.397      869.629
01/16/2021  18:22:00       -3.950      118.839       -0.627       49.765       43.059       28.021     2476.583     1854.050      785.182        0.963        0.256      118.905       27.349        0.053      337.908       10.199      869.627
01/16/2021  18:23:00      -47.234      126.664      -10.189       41.882       45.040       22.147     1754.120     2028.607      490.479        1.132        0.214      135.184       19.097        0.020      338.033       10.410      869.623
01/16/2021  18:24:00      -37.332      107.123      -10.089       37.951       34.949       23.115     1440.289     1221.403      534.291        0.808        0.160      113.442       16.356        0.021      337.965       10.295      869.617
01/16/2021  18:25:00      -26.623      141.631      -11.518       32.916       38.712       19.308     1083.485     1498.634      372.789        1.193        0.148      144.111       14.818        0.011      337.875       10.145      869.607
01/16/2021  18:26:00      -24.736       88.651       -5.525       40.332       38.934       24.888     1626.706     1515.893      619.429        0.613        0.188       92.038       18.760        0.042      337.966       10.297      869.606
01/16/2021  18:27:00      -54.535      123.280       -8.271       52.015       65.385       27.570     2705.601     4275.219      760.112        1.299        0.387      134.804       20.885        0.024      337.973       10.307      869.594
01/16/2021  18:28:00      -23.503      163.650       -8.681       47.327       53.763       31.188     2239.803     2890.445      972.679        1.675        0.305      165.329       22.771        0.019      337.954       10.275      869.595
01/16/2021  18:29:00      -41.609       99.149       -5.198       47.017       49.351       27.289     2210.576     2435.512      744.683        0.849        0.270      107.526       18.235        0.029      338.048       10.434      869.592
01/16/2021  18:30:00      -63.667      136.432      -11.670       53.436       41.096       27.268     2855.434     1688.907      743.536        1.404        0.264      150.556       14.428        0.009      338.092       10.506      869.584
01/16/2021  18:31:00      -52.137      121.879      -10.580       41.123       49.892       28.537     1691.072     2489.256      814.357        1.134        0.250      132.562        9.888        0.006      338.004       10.360      869.585
01/16/2021  18:32:00      -16.271      140.268      -11.169       47.415       33.266       25.342     2248.135     1106.624      642.196        1.203        0.200      141.208       17.259        0.015      337.894       10.176      869.588
01/16/2021  18:33:00      -34.762      119.639      -10.253       33.741       51.956       23.560     1138.482     2699.470      555.072        1.001        0.220      124.587       18.477        0.022      337.951       10.272      869.582
01/16/2021  18:34:00      -30.338      132.093      -13.554       39.647       38.088       23.190     1571.914     1450.664      537.786        1.106        0.178      135.533       18.385        0.018      337.895       10.178      869.583
01/16/2021  18:35:00      -43.251      123.301       -7.756       45.147       48.483       26.583     2038.254     2350.565      706.672        1.111        0.255      130.667       21.359        0.027      337.981       10.323      869.583
01/16/2021  18:36:00      -29.075       79.046       -4.731       41.206       32.933       24.198     1697.947     1084.593      585.537        0.524        0.168       84.224       19.757        0.055      338.029       10.401      869.567
01/16/2021  18:37:00       -6.518      120.698       -9.694       48.153       33.725       22.082     2318.709     1137.386      487.624        0.932        0.197      120.874       20.556        0.029      337.856       10.115      869.563
01/16/2021  18:38:00       46.504      148.404      -15.418       37.016       38.187       22.302     1370.186     1458.277      497.399        1.387        0.166      155.520       17.835        0.013      337.923       10.226      869.565
01/16/2021  18:39:00       -0.125      139.084       -7.963       56.992       44.165       28.118     3248.108     1950.512      790.617        1.270        0.299      139.084       23.018        0.027      338.094       10.512      869.565
01/16/2021  18:40:00      -10.888      130.833       -9.376       47.279       41.482       24.286     2235.314     1720.787      589.796        1.093        0.227      131.285       20.189        0.024      337.974       10.310      869.569
01/16/2021  18:41:00      -13.538      104.023       -4.129       32.263       38.783       25.359     1040.905     1504.154      643.055        0.710        0.159      104.900       19.754        0.035      337.916       10.213      869.566
01/16/2021  18:42:00      -20.859       73.504        3.664       35.841       29.564       23.722     1284.563      874.023      562.738        0.429        0.136       76.406       10.674        0.020      337.937       10.247      869.579
01/16/2021  18:43:00       -7.257       59.707       -3.037       36.296       32.553       19.300     1317.386     1059.711      372.502        0.319        0.137       60.147        8.297        0.019      337.848       10.099      869.574
01/16/2021  18:44:00      -32.568       52.029       -9.571       40.509       50.892       22.122     1640.949     2589.975      489.361        0.429        0.236       61.381       19.219        0.098      337.813       10.042      869.578
01/16/2021  18:45:00      -13.437       47.025       -3.739       37.275       29.438       20.778     1389.455      866.590      431.724        0.255        0.134       48.907       10.540        0.046      337.961       10.288      869.588
01/16/2021  18:46:00      -23.231       36.424       -2.690       30.020       36.673       16.926      901.209     1344.914      286.479        0.220        0.127       43.202       14.064        0.106      337.836       10.079      869.593
01/16/2021  18:47:00      -24.819       64.205      -11.365       32.757       29.399       16.466     1073.026      864.313      271.139        0.354        0.110       68.835       13.145        0.036      337.814       10.042      869.594
01/16/2021  18:48:00      -67.156       15.052       -1.583       40.183       26.833       22.830     1614.713      719.988      521.219        0.380        0.143       68.823       14.470        0.044      337.668        9.796      869.588
01/16/2021  18:49:00      -44.901       63.131      -12.012       36.613       46.115       27.639     1340.489     2126.615      763.926        0.519        0.212       77.471       11.073        0.020      337.787        9.997      869.573
01/16/2021  18:50:00      -21.449      137.738      -15.538       31.839       39.848       19.583     1013.750     1587.838      383.508        1.133        0.149      139.398       16.042        0.013      337.766        9.961      869.581
01/16/2021  18:51:00      -46.559      134.588      -11.385       49.244       42.742       24.047     2424.975     1826.875      578.277        1.262        0.242      142.413       13.464        0.009      338.002       10.358      869.592
01/16/2021  18:52:00      -70.925       57.012      -12.519       39.000       45.121       26.661     1520.983     2035.940      710.785        0.635        0.213       90.999       21.832        0.058      337.847       10.096      869.596
01/16/2021  18:53:00      -26.297       66.131       -1.425       32.424       51.551       20.262     1051.301     2657.518      410.553        0.459        0.206       71.168       20.846        0.086      337.770        9.968      869.607
01/16/2021  18:54:00      -19.077       50.162       -5.293       42.394       31.089       25.062     1797.243      966.522      628.114        0.315        0.170       53.667       15.400        0.082      337.761        9.954      869.617
01/16/2021  18:55:00      -50.193       89.740       -3.216       37.192       34.437       20.209     1383.272     1185.885      408.391        0.678        0.149      102.823       15.979        0.024      337.868       10.132      869.624
01/16/2021  18:56:00      -66.821      130.236      -13.673       45.993       38.452       23.960     2115.391     1478.572      574.073        1.289        0.208      146.378       14.993        0.010      337.927       10.232      869.625
01/16/2021  18:57:00      -54.699       70.122       -5.210       43.169       39.900       25.367     1863.593     1591.998      643.492        0.602        0.205       88.933        4.031        0.002      337.903       10.190      869.638
01/16/2021  18:58:00      -73.690       59.484       -9.103       42.730       26.472       26.598     1825.886      700.755      707.473        0.614        0.162       94.702       21.906        0.054      337.854       10.110      869.651
01/16/2021  18:59:00      -48.241       79.958       -1.571       60.239       41.711       29.107     3628.780     1739.818      847.242        0.747        0.311       93.383       24.038        0.066      337.798       10.015      869.655
01/16/2021  19:00:00      -43.452       91.823       -3.891       49.137       50.799       29.450     2414.447     2580.499      867.296        0.810        0.293      101.585       23.684        0.054      337.787        9.996      869.661
01/16/2021  19:01:00      -46.147       95.288       -3.224       44.760       39.812       28.175     2003.432     1585.002      793.849        0.780        0.219      105.874       13.060        0.015      337.840       10.086      869.664
01/16/2021  19:02:00      -50.971       91.345       -7.499       51.775       48.234       26.072     2680.640     2326.505      679.752        0.834        0.284      104.604       15.315        0.021      337.830       10.069      869.671
01/16/2021  19:03:00      -20.103       80.664       -1.750       35.612       42.735       23.373     1268.234     1826.295      546.301        0.528        0.182       83.131       16.382        0.039      337.680        9.819      869.674
01/16/2021  19:04:00      -44.053       92.783      -12.484       39.116       60.151       25.035     1530.037     3618.094      626.751        0.824        0.289      102.710       15.786        0.024      337.858       10.115      869.681
01/16/2021  19:05:00      -46.639       98.089       -9.495       43.771       46.375       21.889     1915.919     2150.653      479.129        0.822        0.227      108.613       14.093        0.017      337.860       10.120      869.686
01/16/2021  19:06:00      -44.013      106.964       -5.407       32.989       51.034       23.333     1088.245     2604.425      544.447        0.882        0.212      115.666       13.872        0.014      337.761        9.953      869.695
01/16/2021  19:07:00      -65.007       40.540       -7.109       39.976       27.248       21.166     1598.096      742.450      447.988        0.435        0.139       76.612       12.255        0.026      337.702        9.855      869.708
01/16/2021  19:08:00      -41.390       41.791        1.134       39.728       29.599       19.892     1578.340      876.096      395.679        0.315        0.143       58.819        9.960        0.029      337.799       10.016      869.708
01/16/2021  19:09:00      -59.246       60.364       -5.572       38.998       43.025       27.572     1520.839     1851.180      760.205        0.566        0.207       84.581       19.616        0.054      337.723        9.889      869.712
01/16/2021  19:10:00      -41.535       56.125       -8.206       40.399       28.906       20.701     1632.065      835.576      428.526        0.392        0.145       69.822       18.650        0.071      337.638        9.747      869.708
01/16/2021  19:11:00      -24.539       84.868       -6.151       45.216       42.233       26.050     2044.463     1783.634      678.616        0.617        0.225       88.344       20.975        0.056      337.722        9.888      869.703
01/16/2021  19:12:00      -38.567      114.975      -10.946       37.949       41.664       27.362     1440.161     1735.915      748.655        0.937        0.196      121.271       22.844        0.035      337.706        9.860      869.704
01/16/2021  19:13:00      -38.200       75.533       -9.775       45.001       41.264       21.098     2025.056     1702.741      445.129        0.572        0.209       84.643       15.221        0.032      337.694        9.840      869.703
01/16/2021  19:14:00      -26.683       71.378      -11.441       38.446       29.132       17.684     1478.089      848.666      312.712        0.429        0.132       76.203       14.733        0.037      337.667        9.796      869.701
01/16/2021  19:15:00      -32.587       48.045       -2.795       35.620       22.520       20.876     1268.815      507.169      435.816        0.279        0.111       58.053       15.368        0.070      337.642        9.754      869.698
01/16/2021  19:16:00      -31.876       74.896      -13.029       33.486       38.771       20.456     1121.342     1503.205      418.458        0.492        0.152       81.397       15.115        0.034      337.637        9.745      869.694
01/16/2021  19:17:00      -29.554       56.302       -8.492       27.361       49.141       16.910      748.622     2414.813      285.951        0.378        0.172       63.587       12.186        0.037      337.675        9.809      869.691
01/16/2021  19:18:00      -51.109       39.622       -4.319       35.975       23.642       21.054     1294.198      558.962      443.276        0.325        0.115       64.669       13.173        0.041      337.703        9.857      869.691
01/16/2021  19:19:00      -48.822       88.909       -5.737       36.004       28.135       22.869     1296.307      791.556      522.994        0.647        0.131      101.431       14.227        0.020      337.692        9.837      869.692
01/16/2021  19:20:00      -30.777       50.932      -12.051       30.052       34.182       20.810      903.096     1168.431      433.065        0.310        0.125       59.509       10.715        0.032      337.649        9.765      869.700
01/16/2021  19:21:00      -33.958       81.715       -6.690       34.892       40.978       20.554     1217.446     1679.176      422.462        0.560        0.166       88.490       15.364        0.030      337.669        9.800      869.708
01/16/2021  19:22:00      -41.110       48.516        3.597       42.426       42.673       23.819     1799.991     1820.954      567.368        0.412        0.209       63.591       13.231        0.043      337.788        9.998      869.713
01/16/2021  19:23:00      -33.026       46.805      -18.937       50.092       42.604       18.769     2509.192     1815.139      352.283        0.416        0.234       57.284       19.885        0.121      337.574        9.640      869.712
01/16/2021  19:24:00      -20.024       63.135       -8.533       40.262       29.518       19.552     1621.053      871.326      382.298        0.367        0.144       66.234       16.341        0.061      337.548        9.597      869.716
01/16/2021  19:25:00      -35.826       33.150       -6.268       34.413       27.621       21.667     1184.282      762.930      469.447        0.242        0.121       48.810       15.249        0.098      337.543        9.588      869.712
01/16/2021  19:26:00      -26.544       38.742       -9.803       36.055       34.073       25.676     1299.974     1160.956      659.263        0.271        0.156       46.963       19.972        0.181      337.562        9.619      869.700
01/16/2021  19:27:00      -44.125       36.850      -15.011       48.705       26.278       19.488     2372.207      690.507      379.781        0.349        0.172       57.489       16.294        0.080      337.372        9.301      869.696
01/16/2021  19:28:00      -47.386        8.277      -11.004       44.231       23.794       23.130     1956.399      566.178      535.008        0.275        0.153       48.103       10.017        0.043      337.276        9.140      869.696
01/16/2021  19:29:00      -31.971       99.463      -18.341       44.538       52.482       24.766     1983.637     2754.315      613.349        0.830        0.268      104.475       22.957        0.048      337.536        9.575      869.711
01/16/2021  19:30:00      -50.650       39.259       -7.948       49.736       24.385       21.979     2473.685      594.626      483.070        0.386        0.178       64.083       14.910        0.054      337.543        9.588      869.718
01/16/2021  19:31:00      -45.009       31.350       -7.762       31.978       26.297       24.273     1022.572      691.535      589.187        0.269        0.115       54.851        8.591        0.025      337.504        9.523      869.735
01/16/2021  19:32:00      -51.238       49.645      -12.542       38.287       38.160       27.742     1465.859     1456.194      769.636        0.447        0.185       71.344       12.481        0.031      337.444        9.422      869.747
01/16/2021  19:33:00      -50.666       33.927       -9.659       38.265       34.141       25.612     1464.173     1165.601      655.987        0.355        0.164       60.976       18.676        0.094      337.463        9.453      869.745
01/16/2021  19:34:00      -74.359       74.023       -9.138       39.651       29.433       27.014     1572.180      866.294      729.748        0.713        0.158      104.922       19.069        0.033      337.648        9.764      869.749
01/16/2021  19:35:00      -58.794       16.040       -6.109       55.337       36.591       23.056     3062.206     1338.901      531.590        0.434        0.247       60.943       17.137        0.079      337.264        9.120      869.748
01/16/2021  19:36:00      -67.286       41.411       -8.890       36.003       23.247       21.769     1296.221      540.441      473.868        0.432        0.116       79.008       12.128        0.024      337.449        9.430      869.755
01/16/2021  19:37:00      -55.001       47.078       -9.980       37.846       35.671       20.796     1432.308     1272.440      432.483        0.424        0.157       72.398       10.922        0.023      337.526        9.558      869.758
01/16/2021  19:38:00      -70.692       41.576      -13.282       47.977       29.458       21.936     2301.761      867.745      481.204        0.528        0.183       82.012       12.331        0.023      337.422        9.386      869.770
01/16/2021  19:39:00      -24.774       37.173      -16.378       45.839       30.443       18.791     2101.182      926.783      353.102        0.282        0.169       44.672        7.178        0.026      337.253        9.103      869.774
01/16/2021  19:40:00      -30.710       41.423       -2.995       30.749       26.808       16.881      945.474      718.670      284.978        0.231        0.097       51.565       10.390        0.041      337.408        9.361      869.775
01/16/2021  19:41:00      -20.758       41.754        0.520       24.569       29.522       20.269      603.628      871.554      410.845        0.203        0.094       46.630       10.202        0.048      337.450        9.434      869.765
01/16/2021  19:42:00      -28.618       35.648      -13.811       30.850       19.290       18.914      951.715      372.101      357.753        0.198        0.084       45.714       11.942        0.068      337.341        9.250      869.762
01/16/2021  19:43:00      -17.948       54.282       -0.485       30.401       21.934       23.708      924.196      481.109      562.083        0.262        0.098       57.172       14.477        0.064      337.311        9.199      869.757
01/16/2021  19:44:00      -15.609       14.676        0.846       24.748       28.936       20.961      612.442      837.270      439.364        0.117        0.094       21.425        5.641        0.069      337.345        9.258      869.754
01/16/2021  19:45:00       -1.929       42.317       -7.144       19.447       37.661       15.456      378.190     1418.357      238.900        0.194        0.102       42.361       20.673        0.238      337.146        8.922      869.752
01/16/2021  19:46:00       -0.196       45.108       -6.994       29.239       38.118       16.990      854.890     1453.001      288.669        0.234        0.130       45.109       12.812        0.081      337.200        9.013      869.747
01/16/2021  19:47:00       -8.882      -13.343       -3.686       14.416       17.983       12.016      207.809      323.384      144.394        0.047        0.034       16.029       10.988        0.470      337.065        8.786      869.760
01/16/2021  19:48:00        8.554       25.594       -1.670       29.997       27.779       15.980      899.827      771.671      255.374        0.133        0.096       26.985       16.458        0.372      337.091        8.831      869.772
01/16/2021  19:49:00       37.291       47.234       -2.322       40.210       22.060       19.249     1616.873      486.644      370.519        0.305        0.124       60.180       19.929        0.110      337.240        9.081      869.781
01/16/2021  19:50:00       11.433       64.137       -7.358       33.031       24.688       19.662     1091.032      609.480      386.603        0.319        0.104       65.148       10.991        0.028      337.299        9.180      869.773
01/16/2021  19:51:00       -9.625       33.998       -6.162       28.792       27.492       20.971      828.954      755.789      439.782        0.166        0.101       35.334       15.954        0.204      337.187        8.993      869.767
01/16/2021  19:52:00       13.135       35.340       -4.837       31.612       25.875       15.760      999.331      669.505      248.374        0.168        0.096       37.702       18.060        0.229      337.169        8.961      869.774
01/16/2021  19:53:00       15.120       82.493       -8.703       27.067       29.892       16.206      732.649      893.554      262.645        0.450        0.094       83.867       14.867        0.031      337.292        9.167      869.784
01/16/2021  19:54:00       35.292      116.721      -14.485       38.495       42.078       24.651     1481.886     1770.587      607.680        0.947        0.193      121.939       14.395        0.014      337.395        9.340      869.791
01/16/2021  19:55:00        4.774       73.622       -6.346       29.117       31.651       20.309      847.786     1001.782      412.441        0.387        0.113       73.777       19.555        0.070      337.298        9.178      869.803
01/16/2021  19:56:00       32.968      108.129      -10.886       38.848       35.846       27.464     1509.180     1284.956      754.288        0.822        0.177      113.043        7.069        0.004      337.361        9.283      869.820
01/16/2021  19:57:00       39.699       97.154      -10.912       44.374       34.078       21.139     1969.012     1161.330      446.870        0.735        0.179      104.952       11.003        0.011      337.342        9.252      869.842
01/16/2021  19:58:00       24.467      111.264       -8.976       29.783       30.031       21.921      887.056      901.865      480.548        0.766        0.113      113.922       16.375        0.021      337.318        9.212      869.863
01/16/2021  19:59:00       26.054      111.088      -12.935       30.949       25.097       20.931      957.816      629.845      438.090        0.761        0.101      114.103       14.923        0.017      337.371        9.299      869.888
01/16/2021  20:00:00        6.167       90.102      -12.477       35.708       29.321       21.531     1275.051      859.699      463.570        0.545        0.130       90.312       19.829        0.048      337.285        9.157      869.906
01/16/2021  20:01:00       15.894       97.051       -5.174       28.609       29.124       19.595      818.449      848.203      383.960        0.587        0.103       98.344       16.483        0.028      337.290        9.166      869.919
01/16/2021  20:02:00       34.499       97.751       -2.708       43.924       29.915       21.760     1929.324      894.879      473.480        0.702        0.165      103.660       17.944        0.030      337.254        9.104      869.933
01/16/2021  20:03:00       32.553      119.374      -10.613       36.535       26.782       21.327     1334.829      717.271      454.827        0.896        0.125      123.733       15.188        0.015      337.252        9.102      869.952
01/16/2021  20:04:00       52.315      121.495      -13.705       46.247       32.874       24.200     2138.774     1080.667      585.643        1.074        0.190      132.280       22.622        0.029      337.256        9.107      869.965
01/16/2021  20:05:00       56.878       92.186       -3.821       36.209       34.033       25.941     1311.101     1158.246      672.931        0.744        0.157      108.321       18.104        0.028      337.145        8.921      869.969
01/16/2021  20:06:00       26.569       92.137       -1.895       29.486       29.630       16.094      869.414      877.935      259.031        0.560        0.100       95.892       12.802        0.018      337.142        8.917      869.963
01/16/2021  20:07:00       52.946      100.952       -6.949       36.813       36.502       26.054     1355.198     1332.408      678.824        0.820        0.168      113.994       21.720        0.036      337.152        8.933      869.966
01/16/2021  20:08:00       39.438       95.079       -0.948       41.924       33.111       23.260     1757.583     1096.342      541.039        0.699        0.170      102.933       17.429        0.029      337.118        8.876      869.969
01/16/2021  20:09:00       49.792       90.588       -9.832       41.369       28.986       20.114     1711.368      840.206      404.582        0.687        0.148      103.370       20.107        0.038      337.134        8.903      869.984
01/16/2021  20:10:00       28.981       84.304        0.444       29.186       38.278       20.593      851.849     1465.205      424.053        0.534        0.137       89.147       21.618        0.059      337.111        8.864      869.996
01/16/2021  20:11:00       45.966       98.233       -9.534       42.138       37.527       23.277     1775.642     1408.279      541.812        0.779        0.186      108.456       19.339        0.032      337.105        8.854      870.002
01/16/2021  20:12:00       30.221      147.467      -18.268       29.444       34.467       22.885      866.950     1188.003      523.732        1.279        0.129      150.532       12.647        0.007      337.202        9.018      870.014
01/16/2021  20:13:00       35.599      141.905      -14.589       31.211       37.075       20.210      974.111     1374.579      408.435        1.219        0.138      146.302        9.281        0.004      337.229        9.063      870.023
01/16/2021  20:14:00       55.386      127.661       -9.146       33.013       37.163       23.601     1089.862     1381.110      557.019        1.124        0.151      139.158       18.675        0.018      337.121        8.881      870.031
01/16/2021  20:15:00       41.684      119.742       -6.810       36.083       41.036       22.846     1301.956     1683.977      521.925        0.981        0.175      126.790       14.957        0.014      337.107        8.858      870.045
01/16/2021  20:16:00       79.667      110.838       -8.480       42.252       37.010       25.421     1785.219     1369.711      646.241        1.125        0.190      136.498       26.641        0.038      337.121        8.880      870.063
01/16/2021  20:17:00       55.634      103.523       -5.348       44.381       40.819       27.829     1969.681     1666.220      774.469        0.912        0.221      117.525       22.836        0.038      337.061        8.781      870.079
01/16/2021  20:18:00       71.569      120.248      -11.759       43.316       35.786       27.036     1876.236     1280.623      730.930        1.180        0.194      139.935       22.074        0.025      337.139        8.912      870.090
01/16/2021  20:19:00       42.084      114.808       -3.071       28.510       37.006       20.472      812.801     1369.430      419.117        0.878        0.130      122.279       19.415        0.025      337.108        8.859      870.109
01/16/2021  20:20:00       41.040       99.365       -9.024       33.944       23.205       18.339     1152.187      538.451      336.336        0.683        0.101      107.506       12.768        0.014      337.087        8.824      870.112
01/16/2021  20:21:00       33.790      102.359       -2.121       39.780       45.630       26.920     1582.479     2082.108      724.687        0.801        0.219      107.792       27.492        0.065      337.096        8.840      870.121
01/16/2021  20:22:00       54.665      157.065      -13.022       33.831       39.372       27.795     1144.534     1550.126      772.536        1.565        0.173      166.306       21.061        0.016      337.222        9.049      870.118
01/16/2021  20:23:00       13.728      130.283       -3.328       42.453       32.474       25.947     1802.230     1054.590      673.241        1.035        0.177      131.004       22.992        0.031      337.066        8.790      870.111
01/16/2021  20:24:00       10.203      119.538       -1.817       31.591       30.520       22.816      998.016      931.474      520.556        0.842        0.123      119.972       19.072        0.025      337.048        8.758      870.104
01/16/2021  20:25:00       -0.531      111.527       -1.343       31.553       29.748       16.764      995.619      884.949      281.023        0.730        0.108      111.529       13.476        0.015      337.047        8.757      870.104
01/16/2021  20:26:00       -0.282      112.281       -9.208       38.822       30.885       22.131     1507.123      953.903      489.774        0.782        0.148      112.282       18.214        0.026      337.089        8.826      870.102
01/16/2021  20:27:00        5.562      102.001       -3.901       23.099       28.721       20.596      533.570      824.896      424.215        0.612        0.089      102.152        9.595        0.009      337.043        8.750      870.111
01/16/2021  20:28:00        9.268       81.735       -2.439       23.829       22.540       17.647      567.808      508.064      311.407        0.408        0.069       82.259       13.176        0.026      337.022        8.713      870.114
01/16/2021  20:29:00        3.120      101.412       -9.417       33.410       24.146       17.254     1116.209      583.021      297.685        0.619        0.100      101.460       12.246        0.015      337.016        8.706      870.115
01/16/2021  20:30:00       35.154       92.905       -2.167       29.172       40.691       28.393      850.994     1655.793      806.167        0.659        0.166       99.333       27.130        0.075      337.036        8.739      870.122
01/16/2021  20:31:00       25.616       69.153      -11.409       32.755       27.071       18.583     1072.870      732.818      345.320        0.386        0.108       73.745       14.254        0.037      337.079        8.812      870.127
01/16/2021  20:32:00       -0.190       57.576       -9.657       44.552       35.640       22.819     1984.887     1270.230      520.705        0.359        0.189       57.576        9.901        0.030      337.030        8.728      870.135
01/16/2021  20:33:00       44.429       59.586      -10.321       38.518       29.541       20.660     1483.652      872.675      426.856        0.421        0.139       74.326       17.769        0.057      337.026        8.722      870.149
01/16/2021  20:34:00       26.510       31.998        1.375       21.435       28.628       16.872      459.439      819.576      284.660        0.165        0.078       41.553        8.152        0.038      336.930        8.560      870.163
01/16/2021  20:35:00       30.382       89.689       -2.739       27.736       25.748       23.698      769.292      662.959      561.575        0.548        0.100       94.695       15.377        0.026      337.041        8.747      870.167
01/16/2021  20:36:00        0.149       71.445       -3.760       29.774       31.085       20.483      886.491      966.253      419.536        0.369        0.114       71.445       13.832        0.037      336.993        8.666      870.170
01/16/2021  20:37:00       30.439       71.395       -8.364       33.004       24.309       20.442     1089.276      590.948      417.863        0.410        0.105       77.613        5.824        0.006      336.973        8.632      870.184
01/16/2021  20:38:00       13.337       90.652      -13.769       36.642       44.187       19.544     1342.670     1952.481      381.975        0.613        0.184       91.628       13.216        0.021      336.912        8.532      870.194
01/16/2021  20:39:00       22.481       87.809       -7.005       34.059       20.861       21.753     1160.026      435.191      473.190        0.517        0.103       90.642       19.687        0.047      336.938        8.573      870.193
01/16/2021  20:40:00       28.135       72.614       -4.453       26.226       25.120       21.058      687.797      631.005      443.444        0.392        0.088       77.874       13.269        0.029      336.920        8.545      870.200
01/16/2021  20:41:00       15.064       82.760      -10.295       19.290       29.191       16.951      372.119      852.098      287.350        0.435        0.076       84.119       15.048        0.032      336.956        8.604      870.203
01/16/2021  20:42:00       37.872       51.934       -3.957       25.839       22.996       15.923      667.677      528.799      253.533        0.280        0.073       64.276       11.034        0.029      336.835        8.404      870.218
01/16/2021  20:43:00       46.844       61.031       -3.792       31.810       23.025       18.224     1011.845      530.163      332.102        0.390        0.094       76.936       16.816        0.048      336.775        8.305      870.232
01/16/2021  20:44:00       33.899       67.437       -2.540       35.954       20.457       13.460     1292.656      418.483      181.159        0.380        0.095       75.478       10.433        0.019      336.833        8.401      870.248
01/16/2021  20:45:00       32.200      101.223       -5.798       35.269       36.324       19.438     1243.934     1319.458      377.822        0.713        0.147      106.222       14.204        0.018      336.862        8.449      870.264
01/16/2021  20:46:00       58.320      110.135      -10.898       35.708       31.673       24.602     1275.093     1003.157      605.257        0.927        0.144      124.623       20.153        0.026      336.931        8.562      870.285
01/16/2021  20:47:00       -1.901      101.154      -10.579       38.563       36.396       19.081     1487.116     1324.638      364.087        0.676        0.159      101.172       17.605        0.030      336.957        8.607      870.306
01/16/2021  20:48:00        9.027       87.847       -7.245       22.476       24.068       18.050      505.154      579.291      325.818        0.463        0.071       88.309        7.183        0.007      336.899        8.510      870.324
01/16/2021  20:49:00        1.454       81.921      -19.397       36.015       30.155       16.315     1297.092      909.315      266.168        0.478        0.124       81.934       16.750        0.042      336.859        8.445      870.332
01/16/2021  20:50:00       -3.228       80.467      -15.527       38.626       51.723       16.346     1491.941     2675.273      267.186        0.558        0.222       80.532       13.478        0.028      336.828        8.392      870.342
01/16/2021  20:51:00      -41.512        8.751       -6.692       43.388       26.238       19.655     1882.510      688.459      386.302        0.240        0.148       42.425       13.638        0.103      336.423        7.714      870.344
01/16/2021  20:52:00     -107.950       18.658      -25.864       28.024       29.886       18.084      785.349      893.189      327.016        0.734        0.100      109.551        8.538        0.006      336.406        7.683      870.344
01/16/2021  20:53:00      -59.010       12.279       -6.845       62.446       28.577       23.715     3899.551      816.637      562.400        0.448        0.264       60.274       29.684        0.243      336.367        7.621      870.346
01/16/2021  20:54:00     -112.768       31.872       -7.070       31.083       29.427       20.123      966.140      865.971      404.915        0.801        0.112      117.185        9.226        0.006      336.421        7.711      870.353
01/16/2021  20:55:00      -81.908       33.452       -9.248       56.112       43.277       25.863     3148.558     1872.911      668.909        0.680        0.285       88.476       22.461        0.064      336.446        7.753      870.376
01/16/2021  20:56:00      -84.400       43.558        0.532       56.882       40.948       28.769     3235.515     1676.766      827.659        0.738        0.287       94.977       31.772        0.112      336.592        7.998      870.405
01/16/2021  20:57:00      -76.667       58.376       -7.648       62.504       46.243       33.130     3906.775     2138.439     1097.599        0.824        0.357       96.362       20.452        0.045      336.622        8.047      870.423
01/16/2021  20:58:00      -95.081       83.409      -13.963       58.852       42.239       27.290     3463.537     1784.120      744.718        1.109        0.300      126.481       25.517        0.041      336.541        7.913      870.433
01/16/2021  20:59:00      -78.552       85.236      -23.364       44.376       39.965       24.340     1969.222     1597.212      592.445        0.907        0.208      115.912       12.900        0.012      336.565        7.953      870.442
01/16/2021  21:00:00     -112.769       77.670      -15.528       66.418       44.611       29.160     4411.355     1990.152      850.317        1.312        0.363      136.929       19.500        0.020      336.542        7.914      870.446
01/16/2021  21:01:00      -98.213      122.771       -8.673       58.892       48.943       28.766     3468.325     2395.375      827.505        1.574        0.335      157.222       22.158        0.020      336.682        8.146      870.463
01/16/2021  21:02:00      -81.501      101.409      -17.485       91.001       42.520       32.080     8281.249     1807.970     1029.097        1.417        0.556      130.100       27.788        0.046      336.559        7.940      870.481
01/16/2021  21:03:00      -49.827      120.901       -8.187       54.915       54.217       27.601     3015.678     2939.517      761.810        1.194        0.336      130.766       14.868        0.013      336.637        8.073      870.489
01/16/2021  21:04:00      -44.813      148.867      -18.485       55.442       63.591       28.492     3073.841     4043.796      811.790        1.622        0.396      155.466       22.504        0.021      336.664        8.117      870.491
01/16/2021  21:05:00      -46.311       86.463       -4.086       49.018       31.870       25.854     2402.785     1015.699      668.415        0.686        0.204       98.084       15.474        0.025      336.656        8.105      870.494
01/16/2021  21:06:00      -55.252      113.791      -11.941       57.022       50.741       32.659     3251.524     2574.633     1066.580        1.152        0.345      126.496       28.483        0.051      336.673        8.134      870.486
01/16/2021  21:07:00      -43.070      136.302       -4.006       44.198       50.857       28.884     1953.445     2586.485      834.302        1.291        0.269      142.945       12.581        0.008      336.717        8.206      870.488
01/16/2021  21:08:00      -41.947       79.983       -0.553       57.659       46.943       26.653     3324.587     2203.685      710.364        0.720        0.312       90.316       22.849        0.064      336.719        8.209      870.486
01/16/2021  21:09:00      -56.952      111.856       -0.796       50.314       62.308       31.840     2531.549     3882.319     1013.813        1.159        0.371      125.520       29.912        0.057      336.797        8.339      870.482
01/16/2021  21:10:00      -57.961       77.061      -17.385       45.190       59.060       25.919     2042.103     3488.075      671.810        0.790        0.310       96.425       20.907        0.047      336.594        8.002      870.490
01/16/2021  21:11:00      -54.345       65.896       -5.498       48.049       39.367       23.731     2308.741     1549.746      563.144        0.587        0.221       85.414       11.161        0.017      336.649        8.094      870.497
01/16/2021  21:12:00      -62.891       73.439      -11.191       47.511       41.885       27.366     2257.298     1754.312      748.906        0.712        0.238       96.688       25.307        0.069      336.609        8.026      870.505
01/16/2021  21:13:00      -65.343       29.496        0.087       41.373       32.694       27.971     1711.753     1068.904      782.387        0.435        0.178       71.692       17.186        0.057      336.549        7.926      870.521
01/16/2021  21:14:00      -34.900       45.170       -2.000       44.837       38.240       25.978     2010.363     1462.300      674.831        0.370        0.207       57.082       14.995        0.069      336.517        7.871      870.526
01/16/2021  21:15:00      -26.039      162.284       -7.454       39.499       53.282       25.990     1560.162     2839.009      675.490        1.607        0.254      164.359       21.401        0.017      336.577        7.973      870.535
01/16/2021  21:16:00      -39.792      146.905      -11.704       34.075       34.554       25.369     1161.109     1193.981      643.577        1.315        0.150      152.199       13.876        0.008      336.486        7.820      870.539
01/16/2021  21:17:00      -81.810       55.252       -9.187       39.200       33.432       21.246     1536.659     1117.684      451.412        0.647        0.155       98.720       11.064        0.013      336.535        7.902      870.546
01/16/2021  21:18:00      -19.867       97.491      -11.594       34.322       36.920       23.507     1178.003     1363.087      552.595        0.656        0.155       99.495       11.392        0.013      336.464        7.784      870.562
01/16/2021  21:19:00      -43.217       96.116      -11.557       34.853       40.878       19.559     1214.741     1670.994      382.569        0.725        0.163      105.385        7.999        0.006      336.643        8.083      870.562
01/16/2021  21:20:00      -64.511       50.693       -0.894       49.890       37.586       29.046     2489.032     1412.711      843.687        0.574        0.237       82.045       21.064        0.066      336.637        8.074      870.554
01/16/2021  21:21:00      -72.232       84.622       -5.089       40.318       31.050       23.102     1625.517      964.119      533.714        0.776        0.156      111.258       11.543        0.011      336.594        8.002      870.552
01/16/2021  21:22:00      -22.747       55.761       -0.032       43.118       32.789       22.388     1859.190     1075.103      501.243        0.353        0.172       60.222        6.605        0.012      336.612        8.030      870.540
01/16/2021  21:23:00       -2.590       49.985        3.233       40.819       33.823       20.777     1666.207     1144.028      431.682        0.288        0.162       50.052       13.539        0.073      336.442        7.745      870.538
01/16/2021  21:24:00       11.648       69.058       -3.638       21.341       23.496       16.154      455.439      552.055      260.950        0.309        0.063       70.033        7.509        0.011      336.449        7.757      870.531
01/16/2021  21:25:00       10.540       55.512       -1.436       22.352       22.565       16.017      499.634      509.185      256.542        0.223        0.063       56.503       10.779        0.036      336.385        7.653      870.535
01/16/2021  21:26:00       22.795       64.353       -8.457       32.917       33.931       22.083     1083.534     1151.289      487.642        0.373        0.136       68.271       17.347        0.065      336.478        7.806      870.547
01/16/2021  21:27:00      -13.457       82.914      -19.671       29.342       35.086       23.412      860.976     1231.061      548.099        0.504        0.132       83.999       19.358        0.053      336.555        7.936      870.562
01/16/2021  21:28:00       41.487       74.191       -4.791       35.843       30.397       23.156     1284.741      923.994      536.206        0.500        0.137       85.003       18.812        0.049      336.480        7.810      870.581
01/16/2021  21:29:00      -25.210       46.087       -4.432       33.923       29.784       17.560     1150.795      887.081      308.350        0.256        0.117       52.532       12.516        0.057      336.396        7.669      870.587
01/16/2021  21:30:00      -29.607      -12.821       -4.124       26.984       18.260       15.348      728.163      333.427      235.556        0.118        0.065       32.264       10.828        0.113      336.385        7.651      870.584
01/16/2021  21:31:00       -0.931       20.786       -0.048       20.634       18.228       12.800      425.755      332.259      163.847        0.068        0.046       20.807       10.752        0.267      336.315        7.533      870.584
01/16/2021  21:32:00       -0.560       -1.227        1.798       18.597       22.124       10.902      345.841      489.476      118.858        0.048        0.048        1.349       12.638       87.731      336.405        7.683      870.584
01/16/2021  21:33:00       14.178       39.719        5.467       25.842       17.320       13.589      667.825      299.968      184.660        0.148        0.058       42.174       13.642        0.105      336.430        7.727      870.588
01/16/2021  21:34:00       -5.319        8.687        2.237       20.717       11.780        9.723      429.202      138.768       94.528        0.039        0.033       10.186       10.257        1.014      336.426        7.721      870.591
01/16/2021  21:35:00       21.183       49.423      -10.621       17.044       13.526       10.295      290.504      182.951      105.983        0.179        0.029       53.771        8.783        0.027      336.476        7.802      870.583
01/16/2021  21:36:00        1.704       27.514      -13.384       20.445       14.434       12.547      418.005      208.348      157.433        0.086        0.039       27.566        9.066        0.108      336.411        7.696      870.578
01/16/2021  21:37:00      -14.696       -1.401       -5.484       30.320       17.710       14.979      919.289      313.635      224.370        0.085        0.073       14.763       10.792        0.534      336.268        7.457      870.573
01/16/2021  21:38:00       -3.247      -24.431       -2.607       19.141       15.735       14.352      366.380      247.591      205.968        0.072        0.041       24.645        5.343        0.047      336.088        7.152      870.579
01/16/2021  21:39:00        7.371       16.360       -4.038       17.889       31.816       10.575      320.005     1012.226      111.828        0.089        0.072       17.944       10.799        0.362      336.181        7.310      870.585
01/16/2021  21:40:00       20.281       22.706       -5.972       19.931       14.878       10.901      397.228      221.356      118.822        0.085        0.037       30.445       12.348        0.165      336.299        7.509      870.599
01/16/2021  21:41:00       33.715       43.890       -5.468       24.595       25.438       24.102      604.918      647.101      580.899        0.246        0.092       55.345       14.611        0.070      336.400        7.675      870.608
01/16/2021  21:42:00       43.755       49.027       -2.935       42.682       33.587       19.300     1821.743     1128.110      372.480        0.382        0.166       65.712        9.350        0.020      336.419        7.707      870.610
01/16/2021  21:43:00       -8.529       31.477       -3.682       27.346       22.072        9.207      747.799      487.151       84.760        0.120        0.066       32.612        5.732        0.031      336.092        7.162      870.614
01/16/2021  21:44:00      -27.404       11.936       -6.015       17.257       13.151        7.653      297.818      172.956       58.572        0.073        0.026       29.891        4.608        0.024      336.127        7.221      870.617
01/16/2021  21:45:00       -1.024       29.348        0.663       24.635       30.939       10.881      606.865      957.245      118.401        0.127        0.084       29.366        6.765        0.053      336.313        7.530      870.621
01/16/2021  21:46:00        5.551       19.502        8.170       40.865       21.412       19.472     1669.957      458.473      379.146        0.149        0.125       20.277       15.534        0.587      336.254        7.432      870.621
01/16/2021  21:47:00        8.262       34.384        0.392       29.296       17.367       18.579      858.250      301.597      345.184        0.138        0.075       35.362       19.874        0.316      336.282        7.478      870.628
01/16/2021  21:48:00       -6.692       -6.388        7.179       25.639       14.275       13.479      657.337      203.762      181.695        0.059        0.052        9.251       14.713        2.529      336.217        7.370      870.621
01/16/2021  21:49:00       18.095        9.492        1.303       30.190       36.063       13.903      911.427     1300.508      193.302        0.141        0.120       20.434        9.515        0.217      336.187        7.320      870.616
01/16/2021  21:50:00        8.463        2.606        4.248       22.730       32.932       10.425      516.641     1084.538      108.670        0.090        0.085        8.855        7.553        0.728      336.111        7.193      870.615
01/16/2021  21:51:00        0.744       -1.738       -3.348       27.093        5.836       12.861      734.033       34.061      165.410        0.047        0.047        1.890       16.561       76.744      336.009        7.023      870.623
01/16/2021  21:52:00      -16.887        4.900       -0.352       20.570       10.200       13.216      423.134      104.039      174.668        0.051        0.035       17.583       11.443        0.423      335.903        6.847      870.632
01/16/2021  21:53:00      -39.336       -3.624       -8.771       25.145       11.058       12.233      632.247      122.284      149.636        0.127        0.045       39.502       12.610        0.102      335.704        6.517      870.642
01/16/2021  21:54:00      -49.895       -7.760       -4.811       39.893       20.504       21.044     1591.440      420.430      442.865        0.251        0.123       50.494        9.027        0.032      335.777        6.636      870.636
01/16/2021  21:55:00      -80.515      -27.279      -13.785       38.257       29.412       23.104     1463.577      865.094      533.778        0.514        0.143       85.011       18.508        0.047      335.589        6.323      870.623
01/16/2021  21:56:00      -57.312       -2.785        3.548       36.152       28.852       21.861     1306.983      832.433      477.916        0.296        0.131       57.379       12.620        0.048      335.447        6.087      870.606
01/16/2021  21:57:00      -22.282      -13.114       10.391       56.387       27.452       22.480     3179.461      753.608      505.328        0.261        0.222       25.854       14.981        0.336      335.563        6.279      870.594
01/16/2021  21:58:00      -30.903       -4.935        3.967       51.620       24.883       28.740     2664.662      619.175      825.998        0.255        0.205       31.294       15.887        0.258      335.470        6.127      870.576
01/16/2021  21:59:00      -89.359      -29.253        2.519       45.989       32.415       26.213     2114.957     1050.747      687.139        0.635        0.193       94.025       17.470        0.035      335.528        6.221      870.558
01/16/2021  22:00:00      -52.797      -14.286       -1.401       57.084       31.565       23.023     3258.529      996.380      530.045        0.389        0.239       54.696       14.948        0.075      335.463        6.112      870.540
01/16/2021  22:01:00      -33.132      -17.149        2.227       46.669       34.630       28.682     2177.969     1199.254      822.647        0.280        0.210       37.307       24.556        0.433      335.544        6.248      870.532
01/16/2021  22:02:00      -48.422        3.523        4.419       39.019       27.975       25.909     1522.500      782.611      671.268        0.268        0.149       48.550       19.988        0.169      335.434        6.065      870.544
01/16/2021  22:03:00      -87.062       -6.819      -11.371       41.429       30.201       23.897     1716.332      912.124      571.045        0.548        0.160       87.329       12.921        0.022      335.498        6.170      870.552
01/16/2021  22:04:00      -81.310       -5.450       -1.515       58.809       31.266       23.284     3458.541      977.575      542.138        0.581        0.249       81.493       21.978        0.073      335.565        6.283      870.559
01/16/2021  22:05:00      -84.690       -8.315       -2.217       46.760       29.522       23.213     2186.501      871.525      538.850        0.542        0.180       85.098        8.892        0.011      335.498        6.173      870.564
01/16/2021  22:06:00      -58.159        1.287       -6.773       39.380       23.357       19.157     1550.812      545.548      366.995        0.295        0.123       58.173       16.019        0.076      335.438        6.069      870.566
01/16/2021  22:07:00      -89.191       12.113       -2.624       50.199       23.365       22.102     2519.934      545.911      488.516        0.583        0.178       90.010       26.249        0.085      335.374        5.966      870.576
01/16/2021  22:08:00      -99.620       15.731       -0.584       37.272       20.348       22.116     1389.172      414.055      489.135        0.623        0.115      100.855       16.582        0.027      335.377        5.970      870.582
01/16/2021  22:09:00      -10.303      -13.281        9.896       38.058       28.524       22.176     1448.386      813.606      491.782        0.157        0.138       16.809       17.310        1.060      335.258        5.771      870.599
01/16/2021  22:10:00      -61.674        4.022       -5.076       38.130       25.503       21.068     1453.922      650.414      443.881        0.320        0.127       61.805       18.558        0.090      335.309        5.857      870.620
01/16/2021  22:11:00      -84.131        7.509       -7.792       47.312       25.253       22.874     2238.416      637.716      523.226        0.530        0.170       84.466       16.691        0.039      335.397        6.002      870.642
01/16/2021  22:12:00     -105.447       32.876       -7.890       37.048       33.406       21.119     1372.563     1115.969      446.023        0.760        0.147      110.453       16.183        0.021      335.329        5.889      870.667
01/16/2021  22:13:00      -96.317       26.885        4.326       44.850       26.241       21.950     2011.494      688.598      481.823        0.660        0.159       99.999       16.721        0.028      335.249        5.756      870.695
01/16/2021  22:14:00      -88.500       33.589        0.067       44.561       31.611       22.968     1985.642      999.271      527.544        0.624        0.176       94.660       19.634        0.043      335.246        5.750      870.714
01/16/2021  22:15:00     -109.603       18.888       -5.906       40.756       34.506       23.820     1661.091     1190.653      567.405        0.791        0.171      111.218       22.391        0.041      335.318        5.871      870.724
01/16/2021  22:16:00      -82.387        1.529       -3.210       31.111       22.557       23.013      967.922      508.806      529.618        0.440        0.100       82.401       16.227        0.039      335.361        5.943      870.734
01/16/2021  22:17:00      -47.877       14.207       -6.092       59.748       29.806       20.852     3569.804      888.421      434.788        0.371        0.245       49.940       23.852        0.228      335.337        5.902      870.729
01/16/2021  22:18:00      -73.508       18.813       -9.066       32.088       21.625       15.852     1029.612      467.660      251.274        0.379        0.087       75.877        7.613        0.010      335.279        5.808      870.743
01/16/2021  22:19:00      -53.900       23.706       -6.563       32.838       16.055       20.020     1078.314      257.758      400.804        0.262        0.087       58.883       10.578        0.032      335.443        6.081      870.753
01/16/2021  22:20:00      -53.389       14.553      -12.710       34.643       26.139       16.384     1200.146      683.273      268.443        0.269        0.108       55.337       11.094        0.040      335.335        5.900      870.773
01/16/2021  22:21:00      -33.439        7.902       -0.912       30.999       17.220       20.084      960.915      296.534      403.354        0.142        0.083       34.360       12.209        0.126      335.253        5.764      870.776
01/16/2021  22:22:00      -43.724      -14.300       -0.070       31.543       19.662       18.917      994.968      386.607      357.867        0.193        0.087       46.003       11.627        0.064      335.287        5.820      870.777
01/16/2021  22:23:00      -53.983       17.115       -5.362       41.999       17.284       14.399     1763.928      298.731      207.331        0.275        0.113       56.631        9.715        0.029      335.258        5.772      870.782
01/16/2021  22:24:00      -67.702        0.884        1.274       34.081       19.543       15.934     1161.516      381.948      253.906        0.319        0.090       67.708       14.971        0.049      335.324        5.881      870.789
01/16/2021  22:25:00      -66.809      -21.358       -1.696       37.734       20.747       19.495     1423.869      430.442      380.037        0.358        0.112       70.139        8.854        0.016      335.386        5.987      870.790
01/16/2021  22:26:00      -64.968       -4.878       -1.584       36.098       26.816       16.878     1303.054      719.121      284.870        0.328        0.115       65.151        8.072        0.015      335.359        5.940      870.789
01/16/2021  22:27:00      -80.388      -26.547       -0.499       36.961       21.581       19.556     1366.102      465.742      382.436        0.469        0.111       84.658        6.904        0.007      335.427        6.054      870.795
01/16/2021  22:28:00      -71.742      -18.980       -7.530       33.319       25.889       21.585     1110.167      670.240      465.914        0.390        0.112       74.210        5.779        0.006      335.503        6.180      870.802
01/16/2021  22:29:00      -86.499      -19.847        2.421       52.193       35.288       22.918     2724.079     1245.248      525.225        0.619        0.225       88.746       14.021        0.025      335.371        5.959      870.815
01/16/2021  22:30:00     -107.475      -30.800       -5.748       53.993       42.047       31.220     2915.265     1767.977      974.678        0.909        0.283      111.802       24.583        0.048      335.257        5.771      870.835
01/16/2021  22:31:00      -71.473      -21.272        1.208       91.149       38.610       30.371     8308.107     1490.765      922.396        0.814        0.536       74.572       30.904        0.172      335.171        5.626      870.846
01/16/2021  22:32:00     -115.332      -24.325       -4.163       50.751       44.370       31.523     2575.673     1968.689      993.728        0.972        0.277      117.869       25.344        0.046      335.259        5.774      870.848
01/16/2021  22:33:00     -162.153       -0.472        2.301       41.021       36.798       25.222     1682.712     1354.108      636.131        1.499        0.184      162.154       19.780        0.015      335.346        5.919      870.841
01/16/2021  22:34:00     -122.447       14.031        6.091       48.709       33.444       28.039     2372.524     1118.480      786.207        0.975        0.214      123.248       21.818        0.031      335.385        5.983      870.824
01/16/2021  22:35:00     -150.043       -3.739       -0.307       41.196       29.347       17.873     1697.081      861.228      319.461        1.270        0.144      150.090       12.016        0.006      335.464        6.116      870.825
01/16/2021  22:36:00      -61.576       -6.558        6.768       59.134       28.944       24.302     3496.876      837.766      590.580        0.440        0.246       61.924       12.075        0.038      335.405        6.016      870.814
01/16/2021  22:37:00      -81.630      -11.067        4.402       47.024       29.347       24.953     2211.298      861.254      622.648        0.525        0.185       82.376       19.883        0.058      335.510        6.192      870.815
01/16/2021  22:38:00      -98.089       -3.887       -4.229       41.919       26.181       22.470     1757.166      685.423      504.911        0.630        0.147       98.166       17.565        0.032      335.566        6.285      870.810
01/16/2021  22:39:00      -58.073        4.697        8.595       44.680       26.799       18.566     1996.332      718.198      344.692        0.326        0.153       58.262       17.595        0.091      335.565        6.283      870.803
01/16/2021  22:40:00      -55.308        0.485        5.352       45.408       26.733       18.642     2061.903      714.630      347.540        0.311        0.156       55.310       16.929        0.094      335.462        6.111      870.808
01/16/2021  22:41:00      -93.726        0.184        6.182       38.930       23.642       19.659     1515.536      558.926      386.458        0.564        0.123       93.726       19.293        0.042      335.349        5.923      870.822
01/16/2021  22:42:00      -68.083        7.052        3.361       48.316       24.533       21.474     2334.406      601.851      461.126        0.405        0.170       68.447       16.587        0.059      335.455        6.099      870.839
01/16/2021  22:43:00      -31.981        1.926       -0.944       34.798       21.114       15.898     1210.897      445.787      252.731        0.147        0.095       32.039        9.078        0.080      335.358        5.937      870.869
01/16/2021  22:44:00      -14.991      -16.863       -1.636       26.987       12.911       12.480      728.289      166.695      155.757        0.078        0.053       22.563        7.676        0.116      335.488        6.154      870.899
01/16/2021  22:45:00       -4.001       -8.392       -1.031       25.374       11.781       13.404      643.829      138.784      179.664        0.052        0.048        9.297       12.216        1.727      335.438        6.070      870.937
01/16/2021  22:46:00      -18.409        3.800       -0.999       22.045       11.283       12.788      485.999      127.314      163.530        0.057        0.039       18.797       13.632        0.526      335.297        5.838      870.968
01/16/2021  22:47:00      -22.840        9.243        2.094       19.471        8.779       12.005      379.136       77.063      144.126        0.061        0.030       24.640        8.910        0.131      335.176        5.636      870.977
01/16/2021  22:48:00       -2.080       -7.614        1.469       27.473       22.967       14.703      754.753      527.494      216.172        0.078        0.075        7.893       16.816        4.539      335.148        5.588      870.966
01/16/2021  22:49:00       14.903      -36.607       -4.470       31.529       13.114       22.168      994.105      171.986      491.434        0.162        0.083       39.525       21.278        0.290      334.977        5.306      870.950
01/16/2021  22:50:00       19.787      -51.935      -12.688       33.595       11.181       17.036     1128.625      125.009      290.242        0.240        0.077       55.577       21.085        0.144      334.866        5.122      870.931
01/16/2021  22:51:00        1.753      -32.197      -10.212       25.557       10.995       15.647      653.146      120.881      244.823        0.108        0.051       32.244       16.954        0.276      334.945        5.254      870.920
01/16/2021  22:52:00      -14.935        0.728       -3.409       21.722       14.143       13.399      471.853      200.020      179.542        0.054        0.043       14.953        9.243        0.382      334.965        5.288      870.913
01/16/2021  22:53:00      -40.816       -9.094      -10.907       31.301       24.312       20.951      979.782      591.074      438.944        0.194        0.100       41.817       11.740        0.079      334.856        5.104      870.915
01/16/2021  22:54:00       -6.680       -0.117       -7.788       26.812       19.624       15.254      718.905      385.100      232.677        0.072        0.067        6.681       11.976        3.213      334.785        4.986      870.917
01/16/2021  22:55:00        4.042       10.042        6.492       35.582       20.323       21.240     1266.059      413.011      451.152        0.114        0.107       10.825       10.389        0.921      334.742        4.916      870.916
01/16/2021  22:56:00      -28.649        4.500       -0.894       49.118       19.368       21.692     2412.606      375.121      470.540        0.205        0.163       29.001       11.956        0.170      334.826        5.055      870.917
01/16/2021  22:57:00      -44.691       -2.575       -3.682       37.394       17.665       19.038     1398.309      312.044      362.443        0.204        0.104       44.765       12.680        0.080      334.816        5.039      870.918
01/16/2021  22:58:00      -71.821       19.367       -1.240       21.028       14.544       12.637      442.156      211.542      159.695        0.317        0.041       74.387        6.780        0.008      334.779        4.977      870.919
01/16/2021  22:59:00      -56.545        6.654       -4.120       32.915       17.970       17.261     1083.410      322.929      297.935        0.248        0.085       56.935        6.076        0.011      334.872        5.133      870.932
01/16/2021  23:00:00       -7.303      -26.650       -6.264       36.582       21.459       17.527     1338.207      460.494      307.202        0.145        0.105       27.632        9.115        0.109      334.902        5.182      870.943
01/16/2021  23:01:00      -20.279       -2.749       -4.401       31.487       16.461       16.648      991.414      270.948      277.160        0.099        0.077       20.465        9.079        0.197      334.907        5.190      870.944
01/16/2021  23:02:00        3.162      -14.953       -0.408       25.981       13.157       12.936      674.999      173.099      167.334        0.062        0.051       15.284       11.788        0.595      334.945        5.252      870.949
01/16/2021  23:03:00       -4.044       11.421       -9.533       26.079       10.788       12.923      680.101      116.390      166.998        0.060        0.048       12.115       10.871        0.805      334.844        5.086      870.949
01/16/2021  23:04:00       23.088       15.106        1.240       28.720       14.469       15.746      824.817      209.341      247.933        0.102        0.064       27.591       18.011        0.426      334.913        5.201      870.940
01/16/2021  23:05:00       22.709       13.558       -2.991       23.151        8.188       10.290      535.990       67.051      105.885        0.071        0.035       26.449       13.134        0.247      334.804        5.019      870.931
01/16/2021  23:06:00       35.315        6.946      -11.817       34.091       12.032       17.914     1162.173      144.778      320.902        0.153        0.081       35.992       22.899        0.405      334.855        5.104      870.919
01/16/2021  23:07:00       30.083       -0.632       -4.008       39.513       15.893       17.209     1561.249      252.583      296.142        0.152        0.105       30.090       24.999        0.690      334.999        5.344      870.914
01/16/2021  23:08:00       45.169        0.261      -11.104       32.245       23.075       18.955     1039.723      532.439      359.280        0.205        0.097       45.170       21.443        0.225      334.960        5.279      870.907
01/16/2021  23:09:00       24.009      -28.637       -9.589       30.803       15.243       15.809      948.800      232.360      249.915        0.146        0.072       37.369       19.503        0.272      334.863        5.118      870.895
01/16/2021  23:10:00       29.007      -13.434      -16.924       35.725       27.481       17.731     1276.290      755.189      314.385        0.183        0.117       31.967       23.431        0.537      334.797        5.007      870.886
01/16/2021  23:11:00        5.588        4.510       -0.945       20.969       18.316       12.782      439.690      335.469      163.372        0.050        0.047        7.181       10.365        2.083      334.706        4.857      870.879
01/16/2021  23:12:00       10.770        1.713       -0.382       32.293       27.402       15.827     1042.840      750.851      250.484        0.108        0.102       10.906       18.779        2.965      334.938        5.240      870.862
01/16/2021  23:13:00       -5.834       15.521       -1.021       22.536       15.139       13.859      507.887      229.190      192.076        0.060        0.046       16.581        9.311        0.315      334.945        5.253      870.860
01/16/2021  23:14:00       -3.502        4.429       -3.365       24.139       11.162       11.474      582.676      124.591      131.662        0.044        0.042        5.647       15.471        7.506      334.782        4.983      870.873
01/16/2021  23:15:00      -17.900        5.945       -4.625       20.322        5.941       10.446      412.972       35.290      109.118        0.047        0.028       18.862       10.855        0.331      334.766        4.954      870.890
01/16/2021  23:16:00      -18.965       -0.412       -5.771       20.729        7.148       12.948      429.685       51.093      167.645        0.052        0.032       18.969       11.191        0.348      334.834        5.070      870.899
01/16/2021  23:17:00      -31.119        2.677       -6.755       31.254        7.236       12.588      976.808       52.353      158.450        0.110        0.059       31.234        9.483        0.092      334.901        5.180      870.910
01/16/2021  23:18:00      -53.291      -30.354      -11.861       19.251       14.911       13.642      370.583      222.350      186.107        0.234        0.039       61.329        8.593        0.020      334.732        4.899      870.911
01/16/2021  23:19:00      -24.158      -12.720       -5.086       34.137       21.591       19.546     1165.336      466.180      382.061        0.139        0.101       27.302       13.450        0.243      334.728        4.893      870.915
01/16/2021  23:20:00      -44.527      -34.805        8.451       46.756       30.854       25.987     2186.127      951.985      675.334        0.354        0.191       56.515       14.132        0.063      334.844        5.086      870.921
01/16/2021  23:21:00      -75.573      -51.259      -12.050       66.176       44.335       29.994     4379.302     1965.554      899.612        0.786        0.362       91.317       19.833        0.047      334.573        4.635      870.938
01/16/2021  23:22:00      -64.995      -44.214      -21.594       51.659       66.117       34.128     2668.688     4371.417     1164.721        0.742        0.410       78.608       23.972        0.093      334.444        4.420      870.948
01/16/2021  23:23:00      -77.845      -20.513       -4.223       63.034       30.159       33.050     3973.294      909.573     1092.303        0.624        0.299       80.502       32.804        0.166      334.468        4.461      870.959
01/16/2021  23:24:00      -83.377      -21.726       -8.524       36.522       28.221       20.582     1333.863      796.421      423.609        0.502        0.128       86.161       12.396        0.021      334.464        4.455      870.965
01/16/2021  23:25:00      -77.352      -21.093       -1.480       58.778       36.463       22.599     3454.824     1329.525      510.708        0.586        0.265       80.176       24.647        0.095      334.420        4.383      870.949
01/16/2021  23:26:00      -81.098       -7.335        2.775       51.499       35.037       26.695     2652.132     1227.591      712.607        0.561        0.230       81.429       26.264        0.104      334.385        4.324      870.925
01/16/2021  23:27:00      -63.554      -16.354        5.419       34.549       30.557       25.281     1193.656      933.742      639.137        0.355        0.138       65.624       16.535        0.063      334.341        4.251      870.899
01/16/2021  23:28:00      -56.461      -37.082       -6.232       41.715       18.405       19.615     1740.107      338.761      384.734        0.353        0.123       67.550       12.885        0.036      334.351        4.266      870.865
01/16/2021  23:29:00      -28.854      -14.226        0.652       27.795       14.938       17.188      772.539      223.132      295.413        0.116        0.065       32.171       12.197        0.144      334.437        4.411      870.842
01/16/2021  23:30:00      -24.065       -5.563       -0.279       23.886       20.596       15.210      570.530      424.191      231.333        0.092        0.061       24.700       10.660        0.186      334.490        4.498      870.831
01/16/2021  23:31:00      -21.964        6.870        2.569       37.471       18.518       17.458     1404.092      342.924      304.767        0.129        0.103       23.013       13.958        0.368      334.310        4.199      870.833
01/16/2021  23:32:00      -30.685       -9.788       -6.236       38.811       29.035       22.193     1506.299      843.044      492.537        0.196        0.142       32.208       14.237        0.195      334.284        4.155      870.826
01/16/2021  23:33:00      -11.186        2.377       -3.539       25.381       19.442       17.008      644.220      378.011      289.278        0.073        0.066       11.436       14.100        1.520      334.243        4.087      870.837
01/16/2021  23:34:00      -13.997        5.851       -0.297       32.511       12.025       17.629     1056.957      144.594      310.773        0.087        0.076       15.171       19.693        1.685      334.275        4.141      870.852
01/16/2021  23:35:00       -3.128        0.346      -12.558       36.022        8.754       18.877     1297.616       76.627      356.330        0.095        0.087        3.147       21.683       47.466      334.289        4.164      870.865
01/16/2021  23:36:00      -22.358        9.341       -1.323       12.502        8.881       11.308      156.306       78.864      127.860        0.048        0.018       24.230        4.285        0.031      334.353        4.271      870.868
01/16/2021  23:37:00        7.628       17.939       -1.062       27.919       14.023       12.544      779.489      196.638      157.355        0.076        0.057       19.494       15.424        0.626      334.329        4.232      870.862
01/16/2021  23:38:00       15.574       28.055       -0.140       30.218       15.592       16.973      913.148      243.125      288.086        0.124        0.072       32.088       19.378        0.365      334.185        3.991      870.855
01/16/2021  23:39:00       29.636       23.779       -2.255       33.215        9.770       15.235     1103.247       95.446      232.113        0.144        0.072       37.996       20.885        0.302      334.111        3.868      870.852
01/16/2021  23:40:00        4.220        5.253       -3.410       23.045        4.547       11.204      531.095       20.675      125.521        0.037        0.034        6.738       15.769        5.478      334.218        4.048      870.860
01/16/2021  23:41:00      -39.546       22.983       -6.328       28.535       11.891       11.164      814.221      141.386      124.635        0.161        0.054       45.740       10.185        0.050      334.275        4.140      870.871
01/16/2021  23:42:00      -83.015       31.222      -17.775       19.348       12.121       10.659      374.340      146.912      113.616        0.441        0.032       88.693        9.539        0.012      334.260        4.114      870.885
01/16/2021  23:43:00      -58.827        6.884       -6.758       45.891       21.088       14.984     2105.944      444.702      224.507        0.316        0.139       59.228       12.719        0.046      334.161        3.950      870.917
01/16/2021  23:44:00      -71.746       -2.256      -11.802       34.486       21.240       19.402     1189.287      451.134      376.424        0.365        0.101       71.781       12.142        0.029      334.112        3.870      870.936
01/16/2021  23:45:00      -79.665       16.762      -10.532       20.178       13.419       12.219      407.147      180.082      149.306        0.374        0.037       81.409        6.316        0.006      334.207        4.026      870.936
01/16/2021  23:46:00      -96.835       24.261      -11.490       14.922       11.333        8.090      222.673      128.443       65.452        0.526        0.021       99.828        7.959        0.006      334.202        4.019      870.939
01/16/2021  23:47:00       -5.268        3.444        0.410       37.834       21.370       20.754     1431.441      456.694      430.745        0.118        0.116        6.293       11.376        3.267      334.084        3.824      870.948
01/16/2021  23:48:00       -4.791       -4.707       -4.354       38.929       19.802       18.318     1515.493      392.119      335.564        0.115        0.112        6.716       21.797       10.534      334.048        3.764      870.949
01/16/2021  23:49:00      -21.008        8.158      -10.291       25.102       10.600       15.450      630.095      112.352      238.708        0.080        0.049       22.536       11.422        0.257      334.245        4.091      870.953
01/16/2021  23:50:00      -56.002       13.314      -16.634       22.976        9.281       11.231      527.886       86.136      126.125        0.216        0.037       57.562        9.887        0.029      334.246        4.091      870.955
01/16/2021  23:51:00      -56.317       15.958      -17.528       20.424        9.086       13.080      417.132       82.564      171.097        0.220        0.034       58.534       11.597        0.039      334.150        3.933      870.957
01/16/2021  23:52:00      -40.402        6.048      -15.904       35.338       15.979       15.248     1248.803      255.334      232.500        0.183        0.087       40.852       11.709        0.082      334.129        3.897      870.953
01/16/2021  23:53:00      -69.109       12.326      -20.073       23.060       12.120       14.619      531.761      146.906      213.703        0.311        0.045       70.200       13.400        0.036      334.132        3.902      870.949
01/16/2021  23:54:00      -60.816        9.652      -14.422       20.960       16.303       13.043      439.306      265.776      170.115        0.244        0.044       61.577        9.700        0.025      334.082        3.821      870.939
01/16/2021  23:55:00      -31.495        8.311       -6.577       37.005       19.986       18.542     1369.400      399.439      343.820        0.161        0.106       32.573        7.605        0.055      334.102        3.854      870.932
01/16/2021  23:56:00      -78.853       15.189      -15.994       13.551        7.903        8.007      183.627       62.462       64.114        0.351        0.016       80.302        7.050        0.008      334.135        3.910      870.919
01/16/2021  23:57:00     -101.083       16.090      -12.642       17.130       12.432       12.081      293.424      154.564      145.943        0.562        0.030      102.356        3.739        0.001      334.050        3.766      870.904
01/16/2021  23:58:00      -77.245       15.179      -11.686       23.709       17.493       12.384      562.118      305.995      153.361        0.368        0.051       78.723        7.020        0.008      334.118        3.878      870.899
01/16/2021  23:59:00      -96.946        6.217      -13.125       31.169       15.692       18.224      971.495      246.224      332.125        0.558        0.077       97.145       14.823        0.023      334.091        3.835      870.909
01/17/2021  00:00:00      -90.346       -2.198      -10.073       21.981       15.948       12.880      483.162      254.348      165.903        0.459        0.045       90.372        9.964        0.012      334.131        3.901      870.918
01/17/2021  00:01:00      -91.815        0.329       -3.242       26.048       13.557       13.482      678.509      183.783      181.766        0.474        0.052       91.816        7.116        0.006      334.249        4.095      870.921
01/17/2021  00:02:00      -98.946        3.714      -11.076       23.301       13.952       11.673      542.952      194.652      136.270        0.540        0.044       99.015        8.979        0.008      334.201        4.019      870.920
01/17/2021  00:03:00      -90.790        9.459      -10.786       21.096       12.098       15.415      445.032      146.351      237.626        0.464        0.041       91.282        3.756        0.002      334.217        4.044      870.911
01/17/2021  00:04:00      -54.395        3.934       -5.365       29.857       15.938       13.540      891.456      254.010      183.335        0.217        0.066       54.537       10.577        0.038      334.258        4.113      870.892
01/17/2021  00:05:00      -69.768       21.591       -5.798       15.017       13.333       10.423      225.502      177.765      108.649        0.294        0.026       73.032        6.439        0.008      334.155        3.939      870.871
01/17/2021  00:06:00      -11.881        0.732       -2.107       30.656       13.375       12.689      939.765      178.886      161.004        0.071        0.064       11.904        6.967        0.343      334.239        4.081      870.850
01/17/2021  00:07:00       -7.031       -2.405       -3.726       16.322       10.254       10.766      266.394      105.135      115.915        0.028        0.024        7.430       10.228        1.895      334.264        4.122      870.834
01/17/2021  00:08:00        2.324       -6.076       -3.126       26.808       11.013       13.755      718.662      121.286      189.207        0.054        0.051        6.506       18.528        8.112      334.403        4.351      870.824
01/17/2021  00:09:00        0.842       -0.319      -12.310      196.146       16.072       94.339    38473.227      258.302     8899.821        2.388        2.382        0.900      135.373    22616.417      334.374        4.307      870.827
01/17/2021  00:10:00      -20.964        1.426       -2.573       21.904       17.127       13.776      479.794      293.334      189.791        0.071        0.048       21.012        8.895        0.179      334.108        3.863      870.840
01/17/2021  00:11:00      -60.175      -21.271      -13.491       26.131       24.049       19.597      682.804      578.376      384.046        0.295        0.082       63.824       11.919        0.035      333.977        3.647      870.864
01/17/2021  00:12:00     -124.249        8.571       -8.090       23.202       19.250       14.305      538.348      370.570      204.624        0.834        0.056      124.544        6.168        0.002      334.002        3.687      870.897
01/17/2021  00:13:00      -51.442       -3.939        5.830       36.540       26.790       19.736     1335.154      717.680      389.524        0.257        0.122       51.592       18.311        0.126      333.984        3.658      870.932
01/17/2021  00:14:00      -53.082       -4.058       -4.222      112.106       30.950       56.550    12567.749      957.898     3197.939        0.978        0.836       53.237       73.563        1.909      333.966        3.626      870.967
01/17/2021  00:15:00      -67.498       -8.857       -4.030      204.837       33.461       95.526    41958.228     1119.609     9125.135        2.842        2.610       68.077      134.897        3.926      333.975        3.643      870.986
01/17/2021  00:16:00     -135.102      -19.628        5.062       41.891       33.446       26.026     1754.831     1118.636      677.341        1.111        0.178      136.520       19.925        0.021      333.874        3.475      870.999
01/17/2021  00:17:00     -113.874       -0.650       -6.325       46.414       28.383       22.245     2154.231      805.613      494.830        0.823        0.173      113.876       21.605        0.036      333.868        3.464      871.012
01/17/2021  00:18:00      -71.409        0.046        4.758       49.870       29.492       20.286     2487.032      869.771      411.539        0.444        0.188       71.409       13.835        0.038      333.872        3.472      871.021
01/17/2021  00:19:00      -60.301       -4.270        7.088       57.566       32.650       23.851     3313.819     1066.054      568.863        0.433        0.247       60.452       22.780        0.142      333.946        3.594      871.022
01/17/2021  00:20:00      -29.265       -8.583        2.849       56.504       29.485       21.032     3192.735      869.394      442.329        0.272        0.225       30.498       14.360        0.222      333.991        3.669      871.020
01/17/2021  00:21:00      -68.995      -21.280       -2.223       37.706       35.549       21.754     1421.728     1263.726      473.232        0.419        0.158       72.202       16.126        0.050      334.004        3.691      871.005
01/17/2021  00:22:00      -48.069      -18.258      -13.556      142.634       25.544       70.620    20344.592      652.480     4987.150        1.440        1.299       51.420       97.587        3.602      333.994        3.676      870.989
01/17/2021  00:23:00      -19.578      -12.994       -4.807      164.640       16.161       80.308    27106.302      261.194     6449.309        1.719        1.691       23.498      113.446       23.309      334.029        3.734      870.973
01/17/2021  00:24:00      -19.997      -12.159       -9.082      124.894       27.357       61.620    15598.565      748.407     3796.985        1.038        1.007       23.404       85.532       13.356      333.944        3.593      870.950
01/17/2021  00:25:00      -26.732      -17.708       -4.426       28.830       23.489       15.349      831.177      551.724      235.578        0.133        0.081       32.065       10.299        0.103      333.953        3.607      870.942
01/17/2021  00:26:00      -38.904      -27.273      -20.934      222.476       16.797      106.325    49495.715      282.133    11305.009        3.188        3.054       47.511      152.746       10.336      333.981        3.652      870.929
01/17/2021  00:27:00      -14.099        1.901        2.452       20.606       17.466       12.982      424.626      305.052      168.527        0.055        0.045       14.226       11.782        0.686      333.893        3.507      870.918
01/17/2021  00:28:00        7.033       -5.246      -11.094      241.415       13.784      115.995    58281.215      190.005    13454.836        3.605        3.596        8.774      166.715      361.005      334.106        3.863      870.903
01/17/2021  00:29:00      -17.171       -1.921       -4.542      173.838       11.370       84.232    30219.487      129.275     7095.111        1.887        1.872       17.278      120.189       48.388      334.099        3.850      870.887
01/17/2021  00:30:00       15.557      -13.292       -7.937      247.580        9.210      117.121    61296.035       84.820    13717.301        3.777        3.755       20.462      169.832       68.890      334.154        3.942      870.870
01/17/2021  00:31:00       -2.805      -12.814       -2.419       29.218       13.144       15.835      853.692      172.767      250.760        0.073        0.064       13.117       19.438        2.196      334.156        3.943      870.865
01/17/2021  00:32:00      -14.251      -19.468      -12.593      166.171        9.647       79.194    27612.921       93.058     6271.673        1.735        1.699       24.127      114.316       22.451      334.071        3.805      870.871
01/17/2021  00:33:00      -21.636       -6.943        0.667       28.369       17.698       16.807      804.805      313.234      282.465        0.096        0.070       22.723       13.617        0.359      334.034        3.740      870.883
01/17/2021  00:34:00        2.115       -6.076       -5.402      198.931       22.058       97.253    39573.568      486.547     9458.179        2.478        2.476        6.434      136.799      452.055      333.948        3.600      870.905
01/17/2021  00:35:00      -18.912        4.130       -1.617       36.032       24.986       22.832     1298.339      624.294      521.278        0.141        0.122       19.357       13.476        0.485      333.913        3.539      870.928
01/17/2021  00:36:00       -3.933       -8.776       -3.041      196.355       23.158       91.963    38555.247      536.313     8457.209        2.382        2.377        9.617      131.751      187.691      333.887        3.498      870.949
01/17/2021  00:37:00      -33.358      -13.407       -3.471       56.121       24.111       21.124     3149.562      581.317      446.213        0.274        0.209       35.951       14.514        0.163      333.842        3.422      870.966
01/17/2021  00:38:00      -75.006       12.758        1.869       47.272       26.910       19.646     2234.595      724.139      385.958        0.457        0.167       76.084       10.843        0.020      333.761        3.289      870.974
01/17/2021  00:39:00      -75.608        3.920       -8.184      154.150       27.032       72.373    23762.193      730.754     5237.901        1.776        1.487       75.709      100.811        1.773      333.826        3.395      870.981
01/17/2021  00:40:00      -68.744       -9.377       -7.073      188.623       37.302       85.342    35578.586     1391.471     7283.261        2.455        2.213       69.380      120.888        3.036      333.992        3.672      870.993
01/17/2021  00:41:00       -3.044       -3.074        0.390       47.149       22.490       22.745     2222.996      505.801      517.354        0.163        0.162        4.326        6.677        2.382      333.879        3.484      870.988
01/17/2021  00:42:00      -29.573       -7.206      -14.496      199.699       25.325       93.434    39879.815      641.364     8729.991        2.518        2.463       30.438      132.868       19.055      333.780        3.322      870.980
01/17/2021  00:43:00      -11.212       -0.866       -7.768       34.324       18.909       25.554     1178.166      357.547      653.004        0.119        0.109       11.246       13.602        1.463      333.639        3.086      870.967
01/17/2021  00:44:00       30.816       -1.529       -6.079      184.415       23.211       90.479    34008.813      538.762     8186.440        2.185        2.137       30.854      127.885       17.180      333.718        3.220      870.954
01/17/2021  00:45:00        6.666        0.294       -5.299       36.998       32.412       25.816     1368.881     1050.517      666.482        0.158        0.154        6.672       13.764        4.256      333.665        3.129      870.936
01/17/2021  00:46:00      -18.718        5.426       -2.022       55.904       33.489       25.661     3125.227     1121.516      658.480        0.264        0.245       19.489        6.433        0.109      333.600        3.021      870.925
01/17/2021  00:47:00      -55.741       24.410       -7.366       40.274       34.391       24.629     1622.026     1182.719      606.582        0.358        0.171       60.852       13.346        0.048      333.563        2.959      870.914
01/17/2021  00:48:00        7.309       -7.387      -19.155      236.126       27.690      107.679    55755.531      766.728    11594.803        3.428        3.406       10.392      154.245      220.304      333.554        2.946      870.896
01/17/2021  00:49:00       25.275       11.176       -5.776      175.038       19.699       84.234    30638.360      388.053     7095.334        1.945        1.906       27.636      119.631       18.739      333.500        2.856      870.881
01/17/2021  00:50:00      -16.451      -12.773      -15.506      179.769       19.816       85.507    32316.770      392.693     7311.400        2.034        2.001       20.827      121.377       33.963      333.531        2.908      870.856
01/17/2021  00:51:00        7.215       12.848       -7.854      187.693       14.197       88.012    35228.833      201.555     7746.075        2.172        2.159       14.735      125.129       72.114      333.620        3.056      870.825
01/17/2021  00:52:00      -11.133        9.613       -7.825       31.149       13.126       20.341      970.286      172.303      413.756        0.092        0.078       14.709       20.908        2.020      333.929        3.568      870.803
01/17/2021  00:53:00        9.421       12.980      -13.533      239.342       11.593      114.002    57284.503      134.407    12996.430        3.541        3.521       16.038      164.816      105.606      333.949        3.601      870.790
01/17/2021  00:54:00        4.512       11.043       -8.051      127.029       11.879       60.347    16136.275      141.106     3641.706        1.006        0.996       11.929       86.481       52.554      333.953        3.606      870.778
01/17/2021  00:55:00        8.287        3.310       -2.392       34.573        8.130       19.435     1195.302       66.094      377.711        0.086        0.082        8.924       18.207        4.163      333.914        3.541      870.776
01/17/2021  00:56:00       23.681        2.845      -19.822      288.494       11.247      135.820    83228.771      126.491    18446.937        5.136        5.090       23.851      197.520       68.581      333.887        3.499      870.775
01/17/2021  00:57:00       -7.550       -3.829       -2.952       30.262       15.662       16.668      915.817      245.284      277.828        0.076        0.072        8.466       17.628        4.336      333.680        3.152      870.769
01/17/2021  00:58:00       -5.217       -9.599       -7.022       22.862       13.219       12.771      522.682      174.744      163.104        0.051        0.043       10.925       15.210        1.938      333.485        2.832      870.770
01/17/2021  00:59:00      -14.071       14.648      -19.105      208.739       15.242       99.479    43571.882      232.311     9896.166        2.723        2.685       20.312      143.073       49.616      333.613        3.044      870.769
01/17/2021  01:00:00        0.643        4.794      -23.111      267.444       15.026      128.366    71526.455      225.793    16477.724        4.438        4.411        4.837      184.648     1457.520      333.599        3.020      870.762
01/17/2021  01:01:00      -31.357       -8.192      -12.334       31.444       12.356       18.909      988.700      152.671      357.559        0.135        0.075       32.409       17.910        0.305      333.507        2.865      870.758
01/17/2021  01:02:00      -13.549      -12.363      -13.631      165.818       18.220       77.636    27495.728      331.981     6027.345        1.718        1.693       18.342      111.480       36.940      333.458        2.785      870.752
01/17/2021  01:03:00      -56.955      -31.823      -17.351       34.204       12.537       20.571     1169.930      157.174      423.183        0.315        0.088       65.242       21.089        0.104      333.468        2.803      870.754
01/17/2021  01:04:00      -30.702      -14.151      -20.350      160.428       22.764       77.119    25737.027      518.211     5947.301        1.687        1.610       33.807      107.987       10.203      333.488        2.837      870.760
01/17/2021  01:05:00      -50.022        0.676       -9.300      162.184       18.470       78.910    26303.592      341.143     6226.733        1.772        1.644       50.027      108.966        4.744      333.451        2.774      870.774
01/17/2021  01:06:00      -80.567        0.297       -7.925       37.081       23.254       19.078     1374.972      540.764      363.962        0.442        0.114       80.568        8.309        0.011      333.517        2.884      870.787
01/17/2021  01:07:00      -72.222      -12.623       -3.031       34.488       28.864       19.629     1189.390      833.135      385.310        0.390        0.120       73.317        6.480        0.008      333.670        3.137      870.807
01/17/2021  01:08:00      -63.638      -11.442       -8.137      148.039       24.288       67.376    21915.493      589.919     4539.583        1.564        1.352       64.659       95.774        2.194      333.674        3.145      870.815
01/17/2021  01:09:00      -42.946        1.704        0.235      160.230       22.571       76.573    25673.794      509.470     5863.374        1.694        1.602       42.980      106.391        6.128      333.630        3.071      870.826
01/17/2021  01:10:00      -66.026        1.625       -4.846      208.489       24.111      101.220    43467.668      581.352    10245.461        2.933        2.715       66.046      141.541        4.593      333.565        2.964      870.827
01/17/2021  01:11:00      -90.953       -3.034      -12.732      175.491       28.929       86.915    30797.102      836.899     7554.257        2.381        1.959       91.004      120.357        1.749      333.569        2.970      870.829
01/17/2021  01:12:00      -60.255        2.413       -3.321       39.306       19.029       19.702     1544.978      362.090      388.152        0.297        0.115       60.304       13.156        0.048      333.443        2.762      870.825
01/17/2021  01:13:00      -83.023       17.485       -0.990       28.969       20.391       16.663      839.206      415.773      277.649        0.437        0.077       84.844       15.967        0.035      333.404        2.697      870.822
01/17/2021  01:14:00      -64.612        7.038      -13.507      192.856       19.314       92.187    37193.528      373.024     8498.433        2.523        2.303       64.994      131.468        4.092      333.507        2.868      870.824
01/17/2021  01:15:00      -53.963        1.322      -13.626      167.513       11.331       81.571    28060.631      128.386     6653.876        1.896        1.742       53.979      113.925        4.454      333.498        2.853      870.820
01/17/2021  01:16:00      -20.847      -12.803      -10.942      186.516       26.295       91.127    34788.141      691.444     8304.155        2.224        2.189       24.465      128.980       27.795      333.610        3.041      870.801
01/17/2021  01:17:00       -9.775      -15.370      -15.058      261.329       22.463      128.993    68292.997      504.568    16639.276        4.298        4.272       18.215      179.919       97.563      333.679        3.154      870.782
01/17/2021  01:18:00      -61.427       -6.915       -5.223      161.863       23.737       77.250    26199.757      563.440     5967.579        1.828        1.637       61.815      106.566        2.972      333.620        3.055      870.771
01/17/2021  01:19:00      -11.868      -17.636      -22.638      303.460       20.925      142.895    92087.700      437.871    20418.847        5.693        5.647       21.257      206.013       93.923      333.745        3.263      870.775
01/17/2021  01:20:00       21.367      -19.111      -18.294      292.249       28.127      138.082    85409.478      791.112    19066.636        5.319        5.263       28.666      199.010       48.195      333.639        3.088      870.783
01/17/2021  01:21:00      -43.757       -7.588        1.040      134.520       27.145       66.297    18095.579      736.849     4395.357        1.260        1.161       44.411       84.102        3.586      333.498        2.853      870.792
01/17/2021  01:22:00      -71.107      -24.613       -8.485       44.360       30.018       26.207     1967.811      901.086      686.787        0.464        0.178       75.247       17.318        0.053      333.485        2.830      870.793
01/17/2021  01:23:00      -76.137       -3.585       -9.488      143.707       30.231       66.763    20651.681      913.885     4457.292        1.596        1.301       76.221       94.195        1.527      333.520        2.888      870.799
01/17/2021  01:24:00      -33.807       -8.963      -13.797      229.648       41.907      112.665    52738.411     1756.192    12693.306        3.429        3.359       34.975      156.742       20.084      333.504        2.865      870.800
01/17/2021  01:25:00      -29.324        6.237        1.668       42.152       23.688       20.821     1776.801      561.136      433.515        0.184        0.139       29.980       10.111        0.114      333.397        2.685      870.805
01/17/2021  01:26:00      -20.918       -7.849      -10.840      212.906       26.224      100.918    45328.930      687.699    10184.446        2.840        2.810       22.342      144.252       41.686      333.572        2.976      870.817
01/17/2021  01:27:00      -52.501        6.689       -5.042      163.383       23.786       74.171    26694.083      565.756     5501.264        1.779        1.638       52.926      105.563        3.978      333.535        2.913      870.821
01/17/2021  01:28:00      -32.211       -3.735       -2.322      150.615       20.706       69.994    22684.906      428.752     4899.100        1.453        1.401       32.427       99.664        9.446      333.556        2.949      870.826
01/17/2021  01:29:00      -34.729       -0.178        1.898      152.546       21.022       70.289    23270.259      441.921     4940.605        1.493        1.433       34.729       99.470        8.203      333.595        3.014      870.823
01/17/2021  01:30:00      -14.073       -0.677       -6.859      243.571       27.184      113.214    59326.753      738.957    12817.459        3.655        3.644       14.089      162.694      133.350      333.688        3.170      870.833
01/17/2021  01:31:00      -32.368        9.132      -16.052      247.166       16.911      117.823    61090.869      285.978    13882.206        3.831        3.763       33.631      169.953       25.537      333.707        3.200      870.842
01/17/2021  01:32:00      -44.737        2.393        0.683       24.235       18.746       14.474      587.350      351.399      209.496        0.158        0.057       44.801       10.719        0.057      333.639        3.085      870.839
01/17/2021  01:33:00       10.754       -9.898      -38.141      423.384       19.888      201.917   179253.696      395.536    40770.385       11.100       11.021       14.616      291.874      398.780      333.963        3.628      870.843
01/17/2021  01:34:00       21.504       -3.711      -24.554      352.248       18.518      166.843   124078.941      342.902    27836.657        7.664        7.613       21.822      241.733      122.712      333.908        3.536      870.846
01/17/2021  01:35:00      -28.067        2.443       -9.833      158.695       21.830       77.244    25184.187      476.556     5966.713        1.625        1.581       28.174      108.560       14.848      333.757        3.283      870.857
01/17/2021  01:36:00      -29.483       21.434      -26.423      302.622       17.593      144.614    91579.911      309.524    20913.195        5.739        5.640       36.451      208.751       32.797      333.687        3.167      870.874
01/17/2021  01:37:00      -63.488       20.025       -7.816      172.290       23.636       80.083    29683.782      558.671     6413.351        2.057        1.833       66.572      115.475        3.009      333.489        2.838      870.886
01/17/2021  01:38:00      -78.305       17.288      -20.812      260.368       13.199      123.038    67791.524      174.220    15138.287        4.497        4.155       80.191      178.494        4.954      333.459        2.789      870.895
01/17/2021  01:39:00      -69.332       -1.137      -18.145      129.402       23.512       62.815    16744.933      552.828     3945.780        1.319        1.062       69.342       87.992        1.610      333.405        2.698      870.901
01/17/2021  01:40:00      -16.866       -6.597       -9.969      243.014       38.345      118.270    59055.596     1470.329    13987.745        3.745        3.726       18.111      166.240       84.258      333.377        2.654      870.907
01/17/2021  01:41:00       -9.473      -15.008      -26.298      312.586       25.407      150.334    97710.097      645.496    22600.309        6.096        6.048       17.747      213.999      145.401      333.312        2.549      870.913
01/17/2021  01:42:00      -10.015        7.387       -8.310      170.987       33.314       82.753    29236.678     1109.829     6848.003        1.870        1.860       12.444      114.159       84.154      333.275        2.482      870.921
01/17/2021  01:43:00       38.823        7.793      -27.964      334.514       21.316      156.158   111899.659      454.382    24385.368        6.952        6.837       39.597      227.573       33.030      333.365        2.634      870.925
01/17/2021  01:44:00      -10.113        3.241       -9.944      159.108       29.531       78.489    25315.228      872.087     6160.561        1.627        1.617       10.619      108.200      103.820      333.268        2.473      870.933
01/17/2021  01:45:00      -18.234       12.560      -21.580      301.799       21.035      138.604    91082.531      442.466    19211.086        5.582        5.537       22.141      203.506       84.484      333.369        2.640      870.946
01/17/2021  01:46:00      -47.435       24.834      -12.845      175.962       24.643       84.520    30962.488      607.287     7143.552        2.086        1.936       53.543      119.539        4.984      333.197        2.355      870.961
01/17/2021  01:47:00      -49.860       20.136      -20.417      224.366       20.000      108.442    50339.934      399.990    11759.655        3.289        3.125       53.773      155.017        8.311      333.285        2.500      870.973
01/17/2021  01:48:00      -41.278       24.803      -22.586      281.301       18.841      134.627    79130.043      354.979    18124.467        5.020        4.880       48.157      193.541       16.152      333.311        2.544      870.972
01/17/2021  01:49:00      -12.758       28.427      -29.216      352.425       26.070      168.811   124203.290      679.628    28497.285        7.757        7.669       31.159      242.929       60.785      333.365        2.635      870.966
01/17/2021  01:50:00       23.549       23.234      -34.081      400.878       21.749      188.941   160702.950      473.012    35698.793        9.952        9.844       33.081      274.495       68.850      333.479        2.826      870.948
01/17/2021  01:51:00        7.267        9.951      -12.926      247.486       15.136      116.871    61249.212      229.089    13658.923        3.771        3.757       12.322      169.130      188.385      333.530        2.909      870.931
01/17/2021  01:52:00       82.394       30.543      -20.774      358.077       26.992      172.273   128219.495      728.547    29677.869        8.336        7.931       87.873      247.338        7.923      333.759        3.290      870.923
01/17/2021  01:53:00       56.974       15.318      -15.493      289.371       18.358      137.827    83735.586      337.024    18996.194        5.337        5.153       58.997      199.054       11.384      333.753        3.279      870.921
01/17/2021  01:54:00       32.971       -0.298      -11.903      289.108       19.848      138.553    83583.403      393.962    19197.031        5.218        5.159       32.972      199.359       36.558      333.672        3.145      870.917
01/17/2021  01:55:00        7.763        9.874       -6.603      134.977       23.251       62.912    18218.664      540.598     3957.910        1.145        1.136       12.561       90.125       51.484      333.448        2.771      870.918
01/17/2021  01:56:00       37.521       -5.786      -16.039      270.285       19.406      129.544    73054.203      376.580    16781.668        4.594        4.511       37.964      186.428       24.114      333.550        2.942      870.909
01/17/2021  01:57:00       37.409        5.859      -19.593      288.400       21.472      137.920    83174.474      461.061    19021.854        5.222        5.133       37.865      198.378       27.448      333.491        2.844      870.904
01/17/2021  01:58:00      -19.539       10.481       -4.802       34.262       29.276       20.266     1173.910      857.108      410.694        0.148        0.122       22.173       20.336        0.841      333.379        2.656      870.903
01/17/2021  01:59:00      -19.462        6.974      -12.642      269.878       27.269      128.805    72834.037      743.580    16590.796        4.536        4.508       20.674      185.380       80.404      333.348        2.605      870.914
01/17/2021  02:00:00       16.533       21.792      -33.740      408.726       22.418      190.608   167056.922      502.556    36331.581       10.285       10.195       27.354      278.393      103.581      333.484        2.834      870.939
01/17/2021  02:01:00      -23.373       33.211      -22.092      306.815       24.601      145.278    94135.656      605.203    21105.816        5.897        5.792       40.611      210.001       26.740      333.357        2.621      870.978
01/17/2021  02:02:00      -47.973       26.670      -28.267      272.032       23.117      129.693    74001.613      534.386    16820.227        4.756        4.568       54.888      186.892       11.594      333.299        2.526      871.012
01/17/2021  02:03:00      -22.248       16.054      -20.514      269.326       25.564      132.867    72536.676      653.539    17653.695        4.599        4.542       27.435      187.673       46.793      333.305        2.535      871.030
01/17/2021  02:04:00       90.866        2.345      -51.682      559.723       26.493      262.138   313289.629      701.860    68716.372       19.674       19.135       90.897      382.036       17.665      333.509        2.880      871.037
01/17/2021  02:05:00       11.632       23.645      -26.934      365.531       27.747      176.458   133613.153      769.884    31137.354        8.344        8.276       26.351      252.085       91.516      333.248        2.443      871.024
01/17/2021  02:06:00       46.132        1.791      -51.897      435.684       23.172      208.135   189820.925      536.939    43320.026       11.920       11.684       46.167      300.403       42.339      333.384        2.671      871.017
01/17/2021  02:07:00       21.587        6.484      -20.313      232.999       25.089      111.020    54288.590      629.448    12325.464        3.407        3.362       22.540      158.771       49.619      333.411        2.710      871.016
01/17/2021  02:08:00       61.392       23.585      -45.515      434.197       32.178      208.469   188527.154     1035.455    43459.188       11.966       11.651       65.766      299.670       20.762      333.730        3.243      871.019
01/17/2021  02:09:00      -36.105       14.303      -19.163      231.644       24.325      110.829    53658.928      591.716    12283.097        3.419        3.327       38.835      158.466       16.650      333.397        2.689      871.026
01/17/2021  02:10:00      -26.856       23.569      -28.580      310.850       25.397      149.550    96627.889      644.986    22365.324        6.084        5.982       35.732      214.494       36.035      333.213        2.383      871.037
01/17/2021  02:11:00      -26.460        6.570      -41.586      374.359       25.812      178.409   140144.990      666.255    31829.733        8.752        8.632       27.263      257.616       89.288      333.226        2.407      871.052
01/17/2021  02:12:00      -31.378       -6.292      -15.650      253.592       32.835      119.714    64309.136     1078.117    14331.378        4.048        3.986       32.003      170.845       28.499      333.131        2.248      871.054
01/17/2021  02:13:00      -24.970       -4.442      -12.921      314.372       27.076      152.061    98829.531      733.106    23122.525        6.172        6.134       25.362      216.723       73.021      333.253        2.450      871.057
01/17/2021  02:14:00      -33.418       -6.126      -10.022      250.278       26.641      122.609    62638.843      709.747    15032.895        3.980        3.919       33.975      171.886       25.595      333.321        2.561      871.052
01/17/2021  02:15:00       -3.931       -2.634       -8.652      371.346       34.163      174.240   137897.804     1167.127    30359.607        8.472        8.471        4.731      250.987     2813.882      333.525        2.901      871.047
01/17/2021  02:16:00       -8.178        4.050        2.409      133.843       36.063       67.053    17913.864     1300.555     4496.048        1.189        1.186        9.126       89.239       95.622      333.505        2.865      871.056
01/17/2021  02:17:00       22.046        7.966      -19.153      369.519       33.421      177.279   136544.352     1116.942    31427.999        8.497        8.454       23.441      253.928      117.350      333.596        3.020      871.064
01/17/2021  02:18:00        0.021        9.647      -17.465      331.783       35.262      159.879   110079.645     1243.386    25561.377        6.861        6.844        9.647      227.385      555.544      333.474        2.815      871.067
01/17/2021  02:19:00      -50.908       -8.054       -6.801      212.010       36.019       97.819    44948.183     1297.360     9568.554        2.925        2.791       51.541      139.174        7.291      333.332        2.578      871.069
01/17/2021  02:20:00      -74.498      -19.969       -8.949      176.068       37.979       79.142    30999.938     1442.422     6263.428        2.236        1.935       77.128      111.868        2.104      333.266        2.468      871.066
01/17/2021  02:21:00      -79.986       -8.378      -14.216      234.714       27.706      112.564    55090.599      767.633    12670.695        3.758        3.426       80.424      158.806        3.899      333.316        2.552      871.068
01/17/2021  02:22:00      -13.216        1.436       -4.058      235.818       34.103      113.161    55610.322     1163.045    12805.520        3.487        3.479       13.294      159.424      143.807      333.316        2.553      871.081
01/17/2021  02:23:00      -23.085       -8.036      -11.225      314.544       19.314      150.460    98937.964      373.013    22638.291        6.131        6.097       24.444      216.389       78.366      333.350        2.610      871.095
01/17/2021  02:24:00       -1.812       -6.630       -4.853      225.845       31.644      111.477    51005.855     1001.364    12427.057        3.224        3.222        6.874      153.718      500.134      333.273        2.482      871.108
01/17/2021  02:25:00      -16.752        1.575       -9.262      269.428       33.968      127.744    72591.185     1153.851    16318.454        4.520        4.503       16.826      181.880      116.841      333.337        2.589      871.120
01/17/2021  02:26:00       34.464        5.422      -33.885      417.176       36.626      197.335   174036.058     1341.475    38941.048       10.830       10.716       34.887      284.960       66.716      333.493        2.849      871.134
01/17/2021  02:27:00      -26.819       15.634      -12.254      227.558       35.072      104.103    51782.693     1230.072    10837.410        3.247        3.193       31.043      146.985       22.419      333.254        2.449      871.153
01/17/2021  02:28:00      -82.871        5.177       -5.141      175.901       31.158       87.157    30941.067      970.847     7596.306        2.321        1.975       83.033      119.308        2.065      333.159        2.292      871.156
01/17/2021  02:29:00      -90.420       14.682      -11.471      197.588       46.541       92.129    39041.178     2166.024     8487.748        2.910        2.485       91.605      126.870        1.918      333.039        2.095      871.154
01/17/2021  02:30:00       19.758        0.561      -35.537      414.981       37.582      192.275   172209.076     1412.440    36969.634       10.608       10.530       19.766      279.502      199.958      333.223        2.402      871.134
01/17/2021  02:31:00      -86.070       41.686       -4.190      179.738       47.186       83.979    32305.598     2226.496     7052.496        2.537        2.079       95.633      113.568        1.410      332.969        1.979      871.104
01/17/2021  02:32:00      -53.532       24.466        5.734       51.956       37.964       26.437     2699.377     1441.285      698.931        0.417        0.242       58.858       16.288        0.077      332.999        2.028      871.024
01/17/2021  02:33:00       18.130       -2.415      -39.624      344.825       45.253      161.264   118904.309     2047.861    26005.963        7.440        7.348       18.290      234.053      163.756      333.188        2.344      870.927
01/17/2021  02:34:00       66.163       -8.097      -36.272      384.046       22.368      185.737   147491.332      500.316    34498.059        9.409        9.124       66.656      266.361       15.968      333.289        2.513      870.905
01/17/2021  02:35:00       17.917        4.474      -13.593      197.492       27.330       93.076    39002.979      746.929     8663.195        2.446        2.421       18.467      132.455       51.445      333.100        2.195      870.884
01/17/2021  02:36:00       64.219        6.247      -26.442      384.107       32.808      188.402   147538.107     1076.355    35495.336        9.445        9.205       64.522      267.052       17.131      333.170        2.315      870.881
01/17/2021  02:37:00       15.569        2.830      -30.057      363.764       37.734      174.133   132324.404     1423.824    30322.449        8.258        8.204       15.824      248.919      247.443      333.173        2.319      870.882
01/17/2021  02:38:00      -52.054       -1.502       -5.976      145.006       36.814       70.917    21026.636     1355.283     5029.249        1.507        1.371       52.075       93.756        3.241      333.105        2.202      870.887
01/17/2021  02:39:00      -85.963      -24.238        4.583       50.681       40.021       28.166     2568.598     1601.652      793.304        0.648        0.248       89.314       21.859        0.060      333.142        2.265      870.899
01/17/2021  02:40:00       -4.899      -14.364      -27.449      438.427       36.429      211.880   192218.378     1327.067    44893.128       11.966       11.922       15.176      302.278      396.716      333.510        2.879      870.916
01/17/2021  02:41:00       25.070        4.083      -18.984      381.096       40.226      185.332   145234.522     1618.169    34347.896        9.107        9.060       25.400      263.019      107.224      333.501        2.861      870.930
01/17/2021  02:42:00      -16.533        3.129       -6.836      215.226       52.058      102.513    46322.335     2710.026    10508.856        2.992        2.977       16.826      144.396       73.646      333.392        2.678      870.929
01/17/2021  02:43:00     -123.411      -40.391      -20.188      159.332       34.752       74.866    25386.748     1207.685     5604.910        2.473        1.610      129.853      102.088        0.618      333.252        2.446      870.921
01/17/2021  02:44:00      -92.833      -37.258      -17.769      242.225       57.029      123.980    58672.813     3252.261    15371.114        4.379        3.865      100.031      165.995        2.754      333.325        2.568      870.900
01/17/2021  02:45:00     -105.093      -18.899      -26.719      292.491       46.489      143.357    85550.915     2161.232    20551.175        6.017        5.413      106.779      196.451        3.385      333.268        2.473      870.865
01/17/2021  02:46:00      -59.003      -10.631      -14.033      333.442       43.925      158.192   111183.622     1929.363    25024.691        7.094        6.907       59.953      224.953       14.079      333.197        2.357      870.834
01/17/2021  02:47:00      -76.048       -6.608      -27.152      300.433       45.558      145.804    90259.930     2075.549    21258.929        6.006        5.680       76.334      202.528        7.039      333.146        2.273      870.812
01/17/2021  02:48:00     -154.800      -22.871      -21.033      230.647       48.611      114.019    53197.988     2362.992    13000.241        4.673        3.428      156.480      155.366        0.986      332.972        1.985      870.799
01/17/2021  02:49:00     -140.749       -3.741      -28.139      258.679       41.861      124.981    66915.029     1752.325    15620.249        5.243        4.214      140.798      174.614        1.538      332.967        1.977      870.796
01/17/2021  02:50:00      -79.468       -7.928      -20.834      341.742       40.611      161.156   116787.297     1649.277    25971.200        7.558        7.220       79.863      230.029        8.296      333.062        2.135      870.800
01/17/2021  02:51:00      -34.120       -5.286      -22.042      405.583       53.793      196.172   164497.555     2893.734    38483.618       10.373       10.294       34.527      277.279       64.495      333.168        2.312      870.811
01/17/2021  02:52:00      -11.704      -16.680      -15.134      315.674       47.669      152.890    99650.163     2272.312    23375.301        6.294        6.265       20.377      213.227      109.501      333.109        2.212      870.819
01/17/2021  02:53:00       10.731       -4.256       -3.761      249.332       40.521      124.028    62166.455     1641.924    15383.000        3.965        3.960       11.544      167.130      209.584      332.990        2.015      870.815
01/17/2021  02:54:00       42.863       -3.913      -29.114      422.850       43.348      201.087   178802.502     1879.014    40435.889       11.186       11.056       43.041      287.538       44.629      333.241        2.432      870.812
01/17/2021  02:55:00      -22.528       -0.421        4.505      152.685       43.596       73.763    23312.817     1900.638     5441.018        1.558        1.533       22.532       98.848       19.246      332.949        1.945      870.798
01/17/2021  02:56:00       43.702       14.550      -31.727      412.642       33.432      193.906   170273.798     1117.683    37599.594       10.602       10.450       46.060      281.055       37.234      333.146        2.275      870.774
01/17/2021  02:57:00      -30.505       13.266       -2.402      149.807       39.685       74.994    22442.227     1574.873     5624.094        1.537        1.482       33.265      100.886        9.198      332.899        1.862      870.751
01/17/2021  02:58:00       -9.744       40.812      -19.491      344.024       32.457      165.400   118352.569     1053.433    27357.115        7.442        7.338       41.959      236.450       31.756      332.998        2.029      870.714
01/17/2021  02:59:00      -12.156       29.284      -24.336      347.817       32.656      162.100   120976.374     1066.419    26276.555        7.493        7.416       31.707      235.061       54.962      332.980        1.999      870.691
01/17/2021  03:00:00      -10.642       27.555      -23.837      353.515       34.479      170.723   124972.768     1188.789    29146.206        7.834        7.765       29.539      244.032       68.251      332.964        1.974      870.671
01/17/2021  03:01:00       23.645        5.433      -16.350      309.233       38.337      149.563    95624.866     1469.700    22369.166        6.014        5.973       24.261      211.318       75.865      333.057        2.127      870.664
01/17/2021  03:02:00      -10.730       23.884      -22.457      404.706       39.930      193.676   163787.124     1594.389    37510.567       10.200       10.145       26.183      277.300      112.165      333.055        2.125      870.658
01/17/2021  03:03:00      -36.698       13.913       -6.420      189.988       39.369       93.048    36095.595     1549.934     8657.969        2.393        2.315       39.246      128.705       10.754      332.895        1.856      870.653
01/17/2021  03:04:00       55.803        0.765      -20.700      308.095       33.718      143.618    94922.745     1136.886    20626.066        6.009        5.834       55.808      208.276       13.928      333.074        2.156      870.665
01/17/2021  03:05:00       41.684       14.643      -15.635      276.105       28.429      132.282    76233.935      808.204    17498.462        4.835        4.727       44.181      189.432       18.384      332.985        2.006      870.687
01/17/2021  03:06:00       13.088        7.853      -25.437      300.654       39.595      144.707    90392.651     1567.762    20939.995        5.687        5.645       15.263      205.420      181.130      332.939        1.932      870.715
01/17/2021  03:07:00       11.623        3.528       -2.067      188.514       35.333       92.697    35537.499     1248.407     8592.716        2.276        2.269       12.147      128.823      112.475      332.810        1.716      870.746
01/17/2021  03:08:00       10.806       10.085       -7.951      263.248       41.664      129.032    69299.430     1735.910    16649.348        4.397        4.384       14.781      179.725      147.846      332.854        1.789      870.776
01/17/2021  03:09:00        5.078       34.805       14.071       50.981       44.881       30.610     2599.102     2014.279      936.979        0.349        0.278       35.173       26.654        0.574      332.742        1.602      870.790
01/17/2021  03:10:00       -0.456       11.760       -7.044      228.965       40.336      109.185    52425.156     1627.006    11921.430        3.307        3.299       11.769      152.491      167.896      332.883        1.837      870.797
01/17/2021  03:11:00        9.277       18.485        2.775      151.717       50.696       77.471    23017.948     2570.111     6001.832        1.601        1.579       20.682      101.472       24.072      332.852        1.783      870.801
01/17/2021  03:12:00       21.075       10.903      -30.136      449.106       36.558      213.926   201695.959     1336.517    45764.527       12.508       12.440       23.729      308.073      168.563      333.034        2.093      870.799
01/17/2021  03:13:00      -25.771       16.658      -15.943      248.067       35.075      120.980    61537.467     1230.222    14636.097        3.928        3.870       30.686      170.375       30.827      332.864        1.806      870.791
01/17/2021  03:14:00       52.965        6.053      -32.019      388.995       32.415      189.503   151316.865     1050.749    35911.255        9.603        9.414       53.310      269.695       25.593      333.083        2.171      870.788
01/17/2021  03:15:00        3.579        7.702        3.753       45.404       41.981       27.673     2061.480     1762.366      765.769        0.234        0.229        8.493       29.773       12.289      332.968        1.976      870.781
01/17/2021  03:16:00       12.522       -7.775       -0.169      192.271       35.434       88.802    36968.269     1255.578     7885.786        2.315        2.305       14.739      126.137       73.237      333.085        2.172      870.775
01/17/2021  03:17:00      109.635       -1.530      -44.735      497.643       43.866      236.151   247648.706     1924.199    55767.252       15.962       15.267      109.646      340.750        9.658      333.464        2.805      870.763
01/17/2021  03:18:00        8.081      -24.510      -15.430      289.723       38.839      140.465    83939.654     1508.472    19730.314        5.302        5.259       25.808      198.870       59.378      333.193        2.349      870.768
01/17/2021  03:19:00       91.948      -44.789      -44.042      407.568       40.194      194.299   166111.901     1615.551    37752.202       10.890       10.274      102.276      279.586        7.473      333.284        2.503      870.764
01/17/2021  03:20:00       31.793       12.990      -16.424      317.115       35.959      153.883   100562.105     1293.051    23680.020        6.347        6.277       34.344      218.968       40.650      333.119        2.229      870.761
01/17/2021  03:21:00       11.535        6.478       -8.918      199.152       35.248       98.016    39661.573     1242.456     9607.163        2.537        2.526       13.230      136.310      106.155      333.043        2.102      870.749
01/17/2021  03:22:00       34.819        9.410      -10.762      293.729       36.881      142.172    86276.910     1360.198    20212.850        5.461        5.392       36.068      202.191       31.425      332.997        2.026      870.743
01/17/2021  03:23:00       19.749       23.900       -9.164      277.222       42.876      133.290    76851.949     1838.389    17766.245        4.873        4.823       31.003      189.373       37.310      333.073        2.151      870.748
01/17/2021  03:24:00        5.567        4.399       -8.691      161.698       36.794       80.191    26146.283     1353.790     6430.533        1.702        1.697        7.095      110.745      243.644      332.991        2.016      870.746
01/17/2021  03:25:00       66.694       11.208      -28.667      423.086       40.761      206.338   179001.937     1661.494    42575.372       11.427       11.162       67.629      293.707       18.861      333.279        2.497      870.747
01/17/2021  03:26:00       23.758        4.596       -2.204      203.458       41.164       99.467    41395.336     1694.460     9893.720        2.678        2.649       24.199      138.141       32.589      333.119        2.224      870.746
01/17/2021  03:27:00       13.120        1.902       -1.498      169.127       35.262       76.688    28604.093     1243.386     5881.041        1.795        1.786       13.257      108.915       67.495      333.121        2.230      870.740
01/17/2021  03:28:00       44.049      -19.147      -21.454      304.365       55.753      146.920    92638.298     3108.423    21585.415        6.003        5.867       48.030      207.545       18.672      333.133        2.252      870.735
01/17/2021  03:29:00       49.135      -36.982      -37.482      334.403       42.071      158.679   111825.179     1769.985    25178.880        7.195        6.939       61.497      227.804       13.722      333.163        2.303      870.739
01/17/2021  03:30:00      114.852      -26.691      -69.205      569.331       38.520      269.210   324137.513     1483.794    72474.107       20.831       19.905      117.913      390.012       10.940      333.494        2.858      870.751
01/17/2021  03:31:00       28.803      -15.871      -28.643      311.074       41.391      151.479    96766.882     1713.235    22946.023        6.164        6.071       32.886      214.089       42.381      333.158        2.292      870.757
01/17/2021  03:32:00       -9.235      -23.274      -24.667      270.050       45.854      129.330    72926.881     2102.606    16726.163        4.648        4.588       25.040      183.246       53.557      333.107        2.207      870.764
01/17/2021  03:33:00      -11.129      -32.040      -13.250      238.441       44.448      120.068    56854.226     1975.644    14416.337        3.727        3.662       33.918      162.353       22.912      333.108        2.208      870.761
01/17/2021  03:34:00        8.763       -0.637       -2.856      310.392       45.004      152.884    96343.087     2025.369    23373.481        6.089        6.087        8.786      212.675      585.894      333.086        2.174      870.761
01/17/2021  03:35:00       11.769      -13.610      -17.620      250.716       49.812      124.198    62858.440     2481.281    15425.215        4.068        4.038       17.993      170.979       90.301      333.007        2.043      870.769
01/17/2021  03:36:00       10.460      -15.805       -8.955      175.294       40.446       81.980    30727.997     1635.883     6720.696        1.975        1.954       18.953      115.497       37.137      332.968        1.978      870.770
01/17/2021  03:37:00       31.685      -13.644      -29.629      348.928       32.698      164.864   121750.921     1069.188    27180.256        7.600        7.500       34.498      237.686       47.471      333.131        2.251      870.778
01/17/2021  03:38:00      109.798        0.355      -45.881      506.897       41.846      243.044   256944.581     1751.116    59070.216       16.590       15.888      109.798      349.152       10.112      333.372        2.652      870.776
01/17/2021  03:39:00       10.793        7.142       -5.767       44.716       36.804       28.677     1999.487     1354.564      822.391        0.219        0.209       12.942       28.031        4.691      332.941        1.932      870.779
01/17/2021  03:40:00       90.834       -3.208      -30.753      482.143       36.811      225.116   232461.552     1355.033    50677.170       14.679       14.225       90.891      327.509       12.984      333.304        2.538      870.786
01/17/2021  03:41:00       39.215       -2.501       -0.709      215.224       37.328      104.707    46321.547     1393.401    10963.584        3.010        2.934       39.295      146.741       13.945      333.021        2.066      870.787
01/17/2021  03:42:00       64.888       21.390      -20.693      396.607       47.873      183.829   157297.393     2291.829    33793.257        9.920        9.669       68.323      266.540       15.219      333.216        2.391      870.792
01/17/2021  03:43:00       67.874       14.638        1.025      305.875       43.987      147.758    93559.732     1934.836    21832.326        6.105        5.866       69.435      208.686        9.033      333.134        2.254      870.788
01/17/2021  03:44:00       38.618       -3.626      -21.399      309.995       35.770      148.302    96097.071     1279.463    21993.415        6.064        5.968       38.787      211.851       29.832      333.113        2.219      870.781
01/17/2021  03:45:00       47.447       25.451       -0.337      283.888       41.170      139.384    80592.438     1694.993    19427.924        5.229        5.086       53.842      195.280       13.154      333.001        2.033      870.771
01/17/2021  03:46:00       -1.479       44.956       -5.719      233.035       48.508      115.017    54305.482     2353.061    13229.006        3.596        3.494       44.980      160.077       12.665      332.850        1.784      870.770
01/17/2021  03:47:00       41.178       57.658      -31.062      424.952       37.497      202.216   180583.803     1406.043    40891.272       11.439       11.144       70.852      291.212       16.893      332.891        1.855      870.775
01/17/2021  03:48:00       -3.776       45.174      -17.783      304.348       42.366      147.639    92627.736     1794.915    21797.144        5.927        5.811       45.331      209.656       21.390      332.693        1.524      870.782
01/17/2021  03:49:00      -22.214       14.194       -9.702      188.360       35.679       93.428    35479.563     1273.017     8728.741        2.313        2.274       26.362      126.846       23.153      332.578        1.333      870.783
01/17/2021  03:50:00      -15.910       20.527      -12.651      163.185       37.305       78.045    26629.226     1391.628     6091.024        1.747        1.706       25.971      104.715       16.257      332.550        1.285      870.781
01/17/2021  03:51:00       64.853       15.052      -26.871      413.797       39.628      198.266   171227.695     1570.371    39309.460       10.859       10.605       66.577      281.137       17.832      332.737        1.600      870.779
01/17/2021  03:52:00      -38.313        3.605       -3.833      159.742       40.044       73.894    25517.581     1603.554     5460.383        1.703        1.629       38.483       96.917        6.343      332.425        1.079      870.773
01/17/2021  03:53:00        0.844        8.089       -6.797      235.172       41.320      112.784    55306.077     1707.360    12720.191        3.491        3.487        8.133      155.510      365.652      332.412        1.060      870.780
01/17/2021  03:54:00       -4.595       13.080       -3.436      231.033       46.199      114.002    53376.421     2134.390    12996.523        3.434        3.425       13.863      150.743      118.234      332.423        1.078      870.800
01/17/2021  03:55:00      -70.237       42.979       -2.760       49.489       42.165       31.340     2449.162     1777.904      982.170        0.600        0.260       82.343       23.906        0.084      332.370        0.986      870.814
01/17/2021  03:56:00      -37.940       40.433      -33.261      296.625       36.757      143.957    87986.545     1351.054    20723.492        5.710        5.503       55.446      203.660       13.492      332.490        1.191      870.826
01/17/2021  03:57:00       22.240       31.873      -42.955      461.282       46.601      221.896   212781.466     2171.621    49237.677       13.372       13.210       38.865      315.592       65.937      332.638        1.438      870.844
01/17/2021  03:58:00      -21.154       30.302      -16.266      356.666       45.841      167.758   127210.858     2101.436    28142.809        7.951        7.873       36.955      240.722       42.431      332.472        1.162      870.858
01/17/2021  03:59:00      -53.086       50.354      -22.123      270.560       43.777      129.320    73202.626     1916.436    16723.734        4.882        4.592       73.169      182.440        6.217      332.401        1.041      870.886
01/17/2021  04:00:00      -34.644       42.052      -13.717      256.790       47.684      126.701    65941.132     2273.777    16053.126        4.370        4.213       54.485      175.345       10.357      332.581        1.339      870.906
01/17/2021  04:01:00      -35.048       27.446      -21.695      341.183       40.710      167.158   116405.649     1657.299    27941.814        7.420        7.300       44.516      235.650       28.023      332.563        1.311      870.928
01/17/2021  04:02:00      -21.010       27.504      -12.425      259.594       40.823      128.610    67388.882     1666.546    16540.635        4.346        4.280       34.611      177.772       26.382      332.518        1.235      870.944
01/17/2021  04:03:00        9.315       45.546      -20.641      399.727       51.555      194.433   159781.804     2657.877    37804.368       10.137       10.012       46.489      275.685       35.167      332.741        1.607      870.950
01/17/2021  04:04:00       68.661       39.031      -34.611      475.100       48.282      224.492   225719.729     2331.152    50396.445       14.288       13.922       78.980      324.390       16.870      332.943        1.942      870.954
01/17/2021  04:05:00       82.248       39.674      -48.789      485.263       46.203      232.612   235480.648     2134.712    54108.215       15.116       14.586       91.317      333.674       13.352      332.995        2.028      870.973
01/17/2021  04:06:00       46.440       40.704      -32.574      373.545       45.433      179.011   139536.230     2064.115    32044.959        8.922        8.682       61.754      255.979       17.182      332.788        1.684      870.997
01/17/2021  04:07:00       63.969       53.620      -25.238      410.836       46.416      191.522   168785.979     2154.462    36680.619       10.757       10.381       83.469      278.335       11.119      332.937        1.932      871.028
01/17/2021  04:08:00       94.421       88.066      -38.387      480.452       42.225      228.375   230834.466     1782.925    52155.003       15.140       14.239      129.116      329.230        6.502      333.378        2.662      871.064
01/17/2021  04:09:00       87.882       69.069      -27.822      450.953       46.403      216.291   203358.429     2153.199    46781.996       13.273       12.615      111.776      310.229        7.703      333.283        2.506      871.094
01/17/2021  04:10:00       95.928       91.861      -41.877      507.280       45.421      244.133   257333.015     2063.052    59600.743       16.913       15.950      132.818      349.873        6.939      333.421        2.731      871.114
01/17/2021  04:11:00       88.114       87.709      -43.565      495.714       42.118      236.053   245732.377     1773.921    55721.249       16.023       15.161      124.326      340.202        7.488      333.402        2.702      871.137
01/17/2021  04:12:00       37.511      112.447      -26.096      360.347       49.272      172.914   129850.104     2427.699    29899.269        8.842        8.109      118.539      246.088        4.310      333.337        2.590      871.163
01/17/2021  04:13:00       63.889      114.311      -26.437      384.122       46.761      185.261   147549.704     2186.545    34321.571       10.091        9.203      130.954      263.816        4.059      333.428        2.740      871.178
01/17/2021  04:14:00       94.804      140.455      -32.841      464.742       46.868      217.791   215985.458     2196.616    47432.834       14.765       13.281      169.456      316.486        3.488      333.718        3.224      871.187
01/17/2021  04:15:00       -2.508      104.141       -0.690       36.439       46.190       28.200     1327.802     2133.476      795.212        0.755        0.213      104.171       21.319        0.042      333.324        2.564      871.181
01/17/2021  04:16:00       86.197       59.758      -18.556      342.194       45.964      161.225   117096.847     2112.729    25993.342        7.824        7.260      104.885      232.499        4.914      333.599        3.023      871.162
01/17/2021  04:17:00       69.235       67.411      -11.287      300.138       50.445      145.037    90082.791     2544.686    21035.763        6.154        5.683       96.632      205.676        4.530      333.612        3.044      871.135
01/17/2021  04:18:00       98.282       76.582      -16.626      361.998       63.325      177.052   131042.325     4010.014    31347.335        9.107        8.320      124.596      250.090        4.029      333.680        3.156      871.109
01/17/2021  04:19:00      119.367       72.778      -27.363      388.240       42.581      184.288   150730.141     1813.157    33962.249       10.336        9.325      139.804      265.008        3.593      333.770        3.306      871.083
01/17/2021  04:20:00      185.571       50.395      -57.350      519.753       42.986      246.438   270143.434     1847.760    60731.739       18.642       16.636      192.293      356.551        3.438      333.970        3.642      871.056
01/17/2021  04:21:00       69.682       40.156      -11.477      245.767       50.374      119.905    60401.395     2537.543    14377.245        4.194        3.866       80.424      168.324        4.380      333.581        2.992      871.018
01/17/2021  04:22:00       49.067       -0.213      -14.153      244.225       43.538      120.273    59646.069     1895.577    14465.553        3.929        3.800       49.067      168.501       11.793      333.446        2.768      870.971
01/17/2021  04:23:00       71.393      -21.893      -25.304      282.548       47.890      132.426    79833.249     2293.415    17536.577        5.292        4.983       74.675      191.096        6.549      333.416        2.719      870.932
01/17/2021  04:24:00       98.466      -56.148      -34.783      393.915       33.499      186.028   155169.358     1122.198    34606.353       10.244        9.545      113.350      269.295        5.644      333.738        3.255      870.893
01/17/2021  04:25:00       42.279      -42.973      -10.986      139.084       35.496       69.432    19344.335     1259.962     4820.763        1.458        1.271       60.285       92.689        2.364      333.615        3.048      870.862
01/17/2021  04:26:00       85.245      -34.110      -34.913      357.550       40.061      172.037   127842.212     1604.892    29596.813        8.431        7.952       91.816      245.886        7.172      333.726        3.234      870.854
01/17/2021  04:27:00       87.241       13.494      -34.674      389.442       35.179      185.984   151665.037     1237.542    34590.219        9.821        9.375       88.278      267.974        9.215      333.558        2.956      870.871
01/17/2021  04:28:00       48.072       13.560       -9.254      258.470       38.972      119.207    66806.493     1518.852    14210.269        4.254        4.127       49.948      172.373       11.910      333.421        2.726      870.901
01/17/2021  04:29:00       14.774       32.024       -9.541      274.273       41.024      134.871    75225.655     1682.997    18190.292        4.820        4.755       35.267      189.205       28.782      333.271        2.480      870.925
01/17/2021  04:30:00       12.753       27.297      -21.869      355.702       39.979      161.561   126523.958     1598.337    26101.796        7.777        7.711       30.129      237.184       61.972      333.256        2.456      870.930
01/17/2021  04:31:00       20.161       -6.242      -13.396      285.572       36.816      140.151    81551.267     1355.431    19642.396        5.157        5.127       21.105      197.441       87.516      333.245        2.436      870.928
01/17/2021  04:32:00      103.173       -6.333      -55.983      549.832       32.224      261.921   302315.404     1038.371    68602.405       19.281       18.598      103.367      378.051       13.376      333.578        2.994      870.920
01/17/2021  04:33:00       -5.496        1.603        1.329      152.675       41.818       75.074    23309.689     1748.745     5636.118        1.536        1.535        5.725      101.361      313.480      333.143        2.267      870.917
01/17/2021  04:34:00      -42.261      -18.006        4.457       39.424       34.083       22.733     1554.239     1161.676      516.798        0.268        0.162       45.937       21.316        0.215      333.280        2.491      870.921
01/17/2021  04:35:00      -16.761      -26.908      -25.581      339.751       37.541      163.466   115430.833     1409.340    26721.231        7.258        7.178       31.701      232.921       53.984      333.449        2.775      870.933
01/17/2021  04:36:00      -46.111      -45.955      -12.718      276.832       46.507      132.602    76635.940     2162.859    17583.306        5.037        4.819       65.100      185.972        8.161      333.344        2.599      870.949
01/17/2021  04:37:00      -28.433      -54.911       -7.620      290.049       60.717      138.640    84128.321     3686.522    19221.035        5.544        5.352       61.836      193.781        9.821      333.133        2.250      870.972
01/17/2021  04:38:00      -94.576      -29.430      -13.986      315.938       54.966      150.213    99816.903     3021.254    22563.948        6.768        6.270       99.049      208.798        4.444      333.039        2.096      870.993
01/17/2021  04:39:00     -129.764      -22.226       -3.934      259.353       57.180      130.586    67263.774     3269.606    17052.650        5.245        4.379      131.654      177.894        1.826      332.921        1.901      871.007
01/17/2021  04:40:00      -98.192        2.033        0.813      140.670       47.745       74.409    19788.061     2279.554     5536.693        1.862        1.380       98.213       85.802        0.763      332.719        1.566      871.011
01/17/2021  04:41:00     -142.055       -7.151      -14.765      291.052       40.606      139.674    84710.992     1648.861    19508.854        6.314        5.293      142.235      197.634        1.931      332.741        1.602      871.004
01/17/2021  04:42:00      -56.919        8.214      -30.062      377.187       37.174      180.893   142270.234     1381.911    32722.401        9.026        8.819       57.509      259.198       20.314      332.854        1.793      870.999
01/17/2021  04:43:00       -4.771       14.405      -44.582      506.013       43.409      230.962   256049.198     1884.300    53343.496       15.668       15.564       15.174      339.746      501.305      333.033        2.090      871.008
01/17/2021  04:44:00      -63.594       -1.870       -1.120      192.233       41.083       86.833    36953.635     1687.786     7540.050        2.511        2.309       63.622      122.204        3.689      332.735        1.591      871.029
01/17/2021  04:45:00       13.899       -3.259      -18.409      368.471       42.599      174.542   135771.012     1814.640    30464.981        8.426        8.403       14.276      249.388      305.149      332.875        1.828      871.046
01/17/2021  04:46:00      -29.615      -11.748      -24.175      424.761       44.076      196.648   180422.140     1942.661    38670.525       11.127       11.052       31.860      284.041       79.482      332.861        1.803      871.070
01/17/2021  04:47:00      -28.592      -22.302      -21.081      412.616       51.326      201.713   170252.261     2634.368    40688.127       10.762       10.679       36.261      282.106       60.525      332.862        1.806      871.082
01/17/2021  04:48:00      -77.570      -32.245       -1.341      195.190       42.037       95.715    38099.260     1767.147     9161.355        2.803        2.451       84.005      127.021        2.286      332.703        1.541      871.092
01/17/2021  04:49:00      -58.833       -4.878      -26.897      302.972       30.434      144.097    91791.740      926.198    20763.819        5.882        5.674       59.035      205.497       12.117      332.825        1.741      871.098
01/17/2021  04:50:00       16.742        5.043      -39.724      436.179       37.128      208.782   190252.344     1378.516    43590.120       11.850       11.761       17.485      299.754      293.909      333.074        2.157      871.102
01/17/2021  04:51:00       32.946       -7.900      -29.129      369.592       38.131      174.321   136598.570     1453.980    30387.670        8.518        8.422       33.880      252.289       55.450      333.033        2.087      871.113
01/17/2021  04:52:00       52.312       23.319      -16.384      326.216       34.878      158.515   106416.756     1216.441    25126.978        6.813        6.638       57.274      225.151       15.454      333.060        2.132      871.115
01/17/2021  04:53:00       45.039      -16.625      -26.225      325.175       35.527      157.221   105738.813     1262.149    24718.437        6.733        6.586       48.010      223.876       21.745      333.075        2.157      871.130
01/17/2021  04:54:00       30.046       30.613        1.429      229.007       42.082      108.099    52444.077     1770.889    11685.386        3.386        3.295       42.894      153.435       12.795      333.012        2.049      871.147
01/17/2021  04:55:00       92.709       32.947      -33.103      430.427       33.583      207.444   185267.773     1127.833    43032.996       12.005       11.471       98.389      297.494        9.142      333.158        2.296      871.167
01/17/2021  04:56:00       72.719       45.715      -14.794      269.898       40.984      132.330    72844.662     1679.682    17511.164        4.980        4.602       85.894      185.790        4.679      332.852        1.786      871.195
01/17/2021  04:57:00      126.858       76.680      -39.111      431.240       44.646      205.668   185968.288     1993.285    42299.378       12.683       11.513      148.232      295.651        3.978      332.878        1.833      871.223
01/17/2021  04:58:00      113.804       63.924      -32.728      402.555       40.135      191.045   162050.771     1610.788    36498.159       10.909       10.008      130.528      275.102        4.442      332.723        1.577      871.264
01/17/2021  04:59:00      104.742       51.914      -21.311      344.525       41.685      166.327   118697.229     1737.607    27664.585        8.108        7.405      116.902      236.900        4.107      332.696        1.530      871.298
01/17/2021  05:00:00       55.983       50.386       -5.227      158.199       48.631       81.847    25026.924     2365.019     6698.935        1.989        1.705       75.318      107.077        2.021      332.674        1.490      871.323
01/17/2021  05:01:00       71.580       40.190      -19.189      349.854       33.597      165.289   122398.100     1128.763    27320.348        7.895        7.542       82.091      238.852        8.466      332.887        1.846      871.325
01/17/2021  05:02:00       75.987       48.670      -13.096      303.860       43.104      144.138    92330.882     1857.939    20775.718        6.162        5.748       90.237      206.048        5.214      332.969        1.980      871.345
01/17/2021  05:03:00      105.193       41.218      -23.834      376.499       42.957      178.156   141751.189     1845.343    31739.401        9.430        8.767      112.980      256.672        5.161      333.005        2.043      871.366
01/17/2021  05:04:00       81.333       38.212      -11.020      256.371       38.065      124.797    65726.279     1448.966    15574.193        4.546        4.137       89.862      175.896        3.831      332.886        1.843      871.369
01/17/2021  05:05:00       67.761       29.702      -15.273      302.113       36.028      142.351    91272.095     1298.050    20263.780        5.925        5.642       73.985      204.975        7.676      332.864        1.807      871.374
01/17/2021  05:06:00      140.380       11.501      -53.235      553.186       45.408      266.426   306014.263     2061.880    70982.632       20.079       18.953      140.851      382.401        7.371      333.245        2.443      871.367
01/17/2021  05:07:00       93.567      -10.236      -42.362      470.636       39.244      227.559   221498.076     1540.109    51782.912       14.268       13.741       94.125      325.562       11.963      333.283        2.504      871.355
01/17/2021  05:08:00       16.961       18.473       -3.899      180.987       58.094       91.920    32756.354     3374.933     8449.276        2.260        2.229       25.079      120.366       23.036      332.873        1.819      871.357
01/17/2021  05:09:00      125.549       46.089      -34.976      504.419       42.254      236.241   254438.095     1785.441    55810.019       16.551       15.602      133.741      343.432        6.594      333.187        2.345      871.367
01/17/2021  05:10:00       80.269       31.969      -11.929      315.735       39.975      153.544    99688.477     1597.990    23575.625        6.621        6.243       86.401      217.631        6.345      333.108        2.212      871.367
01/17/2021  05:11:00      127.417       17.612      -46.891      513.302       42.909      247.107   263479.217     1841.213    61062.073       17.250       16.319      128.629      354.175        7.582      333.296        2.529      871.364
01/17/2021  05:12:00       33.638        1.029      -20.604      328.003       55.493      159.888   107585.692     3079.467    25564.295        6.887        6.811       33.654      225.445       44.876      332.812        1.722      871.364
01/17/2021  05:13:00      -19.333       60.322      -24.177      368.653       50.386      177.162   135904.757     2538.747    31386.288        8.718        8.491       63.345      252.273       15.861      332.765        1.644      871.384
01/17/2021  05:14:00       -3.396       -1.698       -9.254      219.777       63.309      104.288    48302.049     4007.976    10875.971        3.163        3.159        3.797      147.923     1517.720      332.869        1.815      871.383
01/17/2021  05:15:00       40.681      -37.254      -35.630      381.306       41.054      175.006   145394.410     1685.433    30626.963        9.097        8.885       55.161      255.809       21.506      333.319        2.562      871.368
01/17/2021  05:16:00       36.551       25.481       -5.697      319.843       50.716      153.790   102299.612     2572.138    23651.281        6.524        6.426       44.556      218.248       23.993      333.034        2.089      871.375
01/17/2021  05:17:00        1.567       -0.971      -12.872      258.287       40.181      126.359    66712.224     1614.488    15966.616        4.221        4.215        1.843      177.358     9256.321      332.841        1.767      871.389
01/17/2021  05:18:00       26.675       -3.703      -35.507      492.167       39.425      235.547   242228.490     1554.359    55482.474       15.056       14.963       26.931      338.734      158.204      333.083        2.174      871.411
01/17/2021  05:19:00       90.071      -10.294      -35.829      450.544       44.111      218.255   202990.073     1945.807    47635.132       13.098       12.629       90.657      310.648       11.742      333.295        2.523      871.441
01/17/2021  05:20:00       29.805      -44.023      -27.511      162.770       46.984       83.238    26494.193     2207.488     6928.556        1.960        1.782       53.164      109.006        4.204      333.009        2.043      871.472
01/17/2021  05:21:00       46.058      -16.586      -48.210      472.039       38.919      229.176   222820.566     1514.700    52521.646       14.073       13.843       48.953      327.090       44.645      333.258        2.462      871.492
01/17/2021  05:22:00       -1.478      -37.683      -28.863      266.857       36.464      127.596    71212.548     1329.624    16280.856        4.552        4.441       37.712      182.275       23.361      333.022        2.068      871.506
01/17/2021  05:23:00       12.359      -22.775      -20.657      261.416       44.279      124.646    68338.108     1960.616    15536.729        4.345        4.292       25.912      177.205       46.766      333.012        2.050      871.509
01/17/2021  05:24:00       35.191      -29.947      -44.164      367.088       50.075      178.827   134753.543     2507.544    31979.125        8.663        8.462       46.208      252.945       29.965      333.124        2.238      871.504
01/17/2021  05:25:00       -1.193      -59.397      -46.018      303.472       40.939      148.168    92095.096     1675.975    21953.685        6.066        5.786       59.409      209.136       12.392      333.033        2.087      871.495
01/17/2021  05:26:00       48.911      -25.400      -58.228      493.880       49.086      226.605   243917.586     2409.427    51349.873       15.199       14.884       55.113      331.729       36.229      333.229        2.415      871.477
01/17/2021  05:27:00      117.093       -7.846      -49.111      536.040       49.648      259.746   287338.514     2464.888    67467.824       18.665       17.864      117.356      370.754        9.981      333.284        2.508      871.462
01/17/2021  05:28:00       63.603      -35.296      -44.292      426.703       52.602      206.186   182075.275     2766.984    42512.817       11.726       11.368       72.740      293.874       16.322      333.122        2.237      871.451
01/17/2021  05:29:00      -27.185      -43.171      -22.490      248.899       62.185      122.251    61950.627     3867.034    14945.252        4.192        4.038       51.018      164.170       10.355      332.656        1.462      871.455
01/17/2021  05:30:00      -21.149       -1.109      -12.628      286.889       62.029      128.400    82305.275     3847.598    16486.455        5.160        5.132       21.178      182.498       74.261      332.636        1.431      871.466
01/17/2021  05:31:00       -0.890       -8.678      -29.191      335.538       72.901      159.434   112585.996     5314.616    25419.167        7.209        7.166        8.723      225.936      670.820      332.735        1.595      871.480
01/17/2021  05:32:00       36.694       -7.336      -21.239      471.709       60.604      224.053   222509.261     3672.888    50199.531       13.906       13.819       37.420      320.680       73.441      332.888        1.851      871.495
01/17/2021  05:33:00       29.269        6.983      -17.336      422.993       50.890      197.550   178923.348     2589.826    39026.141       11.083       11.027       30.091      285.239       89.856      332.821        1.738      871.522
01/17/2021  05:34:00      -14.795      -14.104       -0.882       41.617       44.041       28.977     1731.988     1939.574      839.646        0.246        0.226       20.441       22.933        1.259      332.597        1.363      871.548
01/17/2021  05:35:00       84.001      -28.355      -60.913      608.663       65.596      284.374   370471.108     4302.791    80868.706       23.351       22.782       88.658      412.330       21.630      333.108        2.217      871.567
01/17/2021  05:36:00      -11.964      -53.384      -26.563      367.940       53.906      177.520   135379.742     2905.907    31513.355        8.671        8.490       54.709      251.045       21.057      332.790        1.686      871.583
01/17/2021  05:37:00       17.525      -12.869      -34.280      403.298       58.989      192.136   162649.594     3479.701    36916.265       10.231       10.152       21.743      272.916      157.554      332.753        1.626      871.595
01/17/2021  05:38:00     -105.506      -20.693      -34.414      411.849       62.847      199.057   169619.776     3949.784    39623.563       11.292       10.660      107.516      279.708        6.768      332.603        1.376      871.608
01/17/2021  05:39:00      -58.279       -3.489      -35.078      450.663       60.979      205.444   203097.499     3718.443    42207.385       12.678       12.451       58.384      295.525       25.621      332.666        1.482      871.625
01/17/2021  05:40:00      -72.714       17.177      -19.906      349.867       60.997      169.608   122406.901     3720.582    28766.729        8.040        7.745       74.715      238.156       10.160      332.502        1.210      871.639
01/17/2021  05:41:00       16.118       -5.499      -32.846      421.944       42.015      203.501   178037.126     1765.225    41412.525       11.125       11.061       17.031      289.871      289.700      332.627        1.417      871.645
01/17/2021  05:42:00        1.823       35.218      -16.326      389.594       80.374      192.732   151783.292     6459.981    37145.719        9.841        9.769       35.265      269.162       58.257      332.380        1.011      871.649
01/17/2021  05:43:00      -13.574       23.024       -7.908      294.739       49.957      141.264    86870.947     2495.688    19955.550        5.503        5.466       26.727      197.728       54.731      332.226        0.753      871.652
01/17/2021  05:44:00       22.217        2.449      -13.674      376.592       58.929      181.684   141821.843     3472.677    33009.234        8.946        8.915       22.352      257.632      132.852      332.360        0.976      871.659
01/17/2021  05:45:00       60.060       15.317       -7.188      368.769       53.527      180.726   135990.894     2865.102    32662.013        8.767        8.576       61.982      254.313       16.835      332.446        1.119      871.679
01/17/2021  05:46:00      -34.469       28.063       -4.468      294.800       56.715      140.233    86907.048     3216.571    19665.341        5.587        5.489       44.448      196.365       19.518      332.292        0.862      871.701
01/17/2021  05:47:00        6.312       20.579        2.042      212.331       51.198      106.562    45084.364     2621.247    11355.388        2.975        2.953       21.526      144.426       45.017      332.340        0.941      871.702
01/17/2021  05:48:00      -34.436       16.909        8.626       50.689       51.032       34.839     2569.330     2604.232     1213.734        0.397        0.319       38.364       38.613        1.013      332.220        0.742      871.686
01/17/2021  05:49:00       -4.372       21.124       -4.146      301.065       49.996      142.048    90639.848     2499.601    20177.683        5.688        5.666       21.572      200.923       86.752      332.406        1.052      871.657
01/17/2021  05:50:00      -11.693       28.225      -12.958      366.168       54.109      179.207   134078.746     2927.757    32115.314        8.508        8.456       30.552      252.642       68.382      332.383        1.016      871.633
01/17/2021  05:51:00        8.207       46.340      -22.991      382.667       45.558      183.413   146433.886     2075.532    33640.462        9.241        9.107       47.061      262.115       31.021      332.416        1.071      871.618
01/17/2021  05:52:00      -19.978       48.752      -17.335      324.242       51.500      155.575   105132.638     2652.254    24203.605        6.751        6.599       52.686      220.470       17.511      332.360        0.974      871.609
01/17/2021  05:53:00       -1.810       38.044      -16.952      314.042       51.690      153.907    98622.617     2671.849    23687.494        6.333        6.249       38.087      215.415       31.988      332.405        1.048      871.591
01/17/2021  05:54:00       47.906       10.811       -1.899      282.659       46.455      135.306    79896.073     2158.044    18307.637        5.137        5.018       49.111      191.705       15.238      332.396        1.033      871.568
01/17/2021  05:55:00       55.738       31.297        1.515      306.110       48.053      148.434    93703.448     2309.086    22032.670        6.104        5.902       63.923      209.084       10.699      332.385        1.015      871.542
01/17/2021  05:56:00        6.062       32.281        9.053       34.338       52.340       28.749     1179.129     2739.454      826.520        0.295        0.237       32.845       38.434        1.369      332.273        0.829      871.531
01/17/2021  05:57:00       79.132       42.983      -13.801      396.701       46.412      185.365   157371.450     2154.033    34360.159       10.105        9.694       90.053      267.942        8.853      332.446        1.119      871.534
01/17/2021  05:58:00       32.337       29.612       -4.906      256.423       48.525      126.702    65752.939     2354.724    16053.514        4.304        4.208       43.847      175.390       16.000      332.495        1.197      871.530
01/17/2021  05:59:00       34.276       40.280        3.774      239.311       52.040      114.786    57269.713     2708.154    13175.862        3.797        3.658       52.889      160.118        9.165      332.658        1.465      871.526
01/17/2021  06:00:00        9.248       19.387       10.049       38.429       53.744       33.619     1476.782     2888.465     1130.209        0.303        0.275       21.480       41.717        3.772      332.460        1.136      871.538
01/17/2021  06:01:00       44.491       28.278        7.701      253.382       48.358      125.032    64202.238     2338.493    15633.073        4.249        4.109       52.717      173.275       10.803      332.493        1.192      871.555
01/17/2021  06:02:00       39.865       29.680      -15.141      379.710       55.542      176.296   144179.609     3084.898    31080.244        9.049        8.917       49.700      254.358       26.192      332.496        1.202      871.557
01/17/2021  06:03:00       28.734       31.915       -0.822      311.164       49.486      154.292    96822.927     2448.848    23805.914        6.244        6.154       42.944      213.290       24.668      332.365        0.982      871.547
01/17/2021  06:04:00       14.722       12.476       -4.583      274.803       50.360      135.948    75516.617     2536.108    18481.780        4.844        4.827       19.297      184.989       91.896      332.355        0.965      871.536
01/17/2021  06:05:00      -71.006       37.468       -5.248      229.699       53.562      111.556    52761.461     2868.930    12444.849        3.726        3.404       80.285      153.296        3.646      332.341        0.943      871.523
01/17/2021  06:06:00      -10.712       29.963      -19.540      444.147       52.489      214.614   197266.116     2755.058    46059.297       12.369       12.304       31.820      304.593       91.632      332.558        1.306      871.513
01/17/2021  06:07:00      -59.342       32.055        0.106      251.828       47.733      125.368    63417.295     2278.412    15717.108        4.296        4.071       67.446      170.558        6.395      332.316        0.900      871.508
01/17/2021  06:08:00       67.678        0.387      -53.971      550.265       46.093      257.167   302791.558     2124.565    66135.002       18.919       18.553       67.679      373.549       30.464      332.668        1.490      871.501
01/17/2021  06:09:00       25.292       24.281       -7.908      332.963       63.075      162.474   110864.518     3978.425    26397.712        7.124        7.062       35.060      227.127       41.967      332.518        1.237      871.521
01/17/2021  06:10:00      -58.419       21.117       -0.702      275.756       49.013      128.941    76041.529     2402.321    16625.778        4.945        4.753       62.118      181.367        8.525      332.298        0.871      871.553
01/17/2021  06:11:00      -82.576       35.908       -1.692      160.150       49.869       81.499    25647.947     2486.902     6642.131        2.144        1.739       90.046      104.579        1.349      332.281        0.843      871.584
01/17/2021  06:12:00      -25.906       23.602       14.311       56.798       65.122       37.114     3226.065     4240.874     1377.421        0.514        0.442       35.045       44.176        1.589      332.268        0.820      871.601
01/17/2021  06:13:00       16.850       11.924      -12.035      382.122       57.148      195.027   146017.329     3265.937    38035.405        9.391        9.366       20.642      266.989      167.301      332.497        1.204      871.606
01/17/2021  06:14:00       30.105       21.005      -29.502      482.070       54.590      232.281   232391.608     2980.038    53954.564       14.571       14.466       36.709      330.953       81.281      332.696        1.536      871.603
01/17/2021  06:15:00        0.071       41.913      -25.541      489.572       56.708      229.634   239680.751     3215.810    52731.840       14.896       14.781       41.913      331.227       62.452      332.744        1.613      871.604
01/17/2021  06:16:00       -5.726       25.493       -8.748      329.673       57.735      160.816   108684.069     3333.329    25861.638        6.929        6.894       26.129      225.665       74.592      332.470        1.158      871.602
01/17/2021  06:17:00      -24.714       36.426        0.715      220.381       46.711      107.802    48567.776     2181.940    11621.188        3.214        3.119       44.018      148.624       11.400      332.399        1.038      871.615
01/17/2021  06:18:00       56.188       21.861      -17.723      390.393       51.235      189.628   152406.592     2624.987    35958.908        9.743        9.550       60.291      268.841       19.883      332.708        1.553      871.637
01/17/2021  06:19:00       39.441       38.813        1.601      276.625       58.194      134.408    76521.397     3386.542    18065.635        5.050        4.899       55.336      187.038       11.425      332.576        1.332      871.658
01/17/2021  06:20:00       -5.310       -6.685       -7.575      152.687       38.559       74.667    23313.373     1486.769     5575.090        1.525        1.519        8.537      101.244      140.634      332.544        1.276      871.671
01/17/2021  06:21:00       76.662        8.372      -38.022      493.207       59.719      234.454   243253.334     3566.384    54968.560       15.453       15.089       77.117      336.095       18.994      332.833        1.759      871.680
01/17/2021  06:22:00       70.960        2.200      -41.941      484.807       43.489      229.938   235037.566     1891.283    52871.276       14.824       14.490       70.995      331.811       21.844      332.733        1.595      871.679
01/17/2021  06:23:00       90.702       31.473      -26.078      452.632       48.411      218.142   204875.286     2343.611    47586.024       13.230       12.740       96.007      311.675       10.539      332.609        1.390      871.669
01/17/2021  06:24:00       69.580       19.065      -15.260      392.734       50.635      187.177   154240.040     2563.951    35035.271        9.860        9.592       72.145      267.923       13.791      332.592        1.360      871.669
01/17/2021  06:25:00       52.712        6.556      -29.160      494.870       44.854      237.133   244896.768     2011.844    56231.841       15.335       15.157       53.118      339.796       40.922      332.646        1.454      871.660
01/17/2021  06:26:00       46.150       22.520        6.067      263.830       55.479      125.252    69606.011     3077.953    15688.000        4.550        4.419       51.352      175.321       11.656      332.510        1.224      871.651
01/17/2021  06:27:00       61.141       33.772       -6.953      343.787       51.117      166.912   118189.323     2612.906    27859.489        7.676        7.433       69.849      235.194       11.338      332.646        1.449      871.647
01/17/2021  06:28:00       -0.067       19.727       11.382      167.715       55.617       84.118    28128.209     3093.235     7075.853        1.940        1.915       19.727      108.891       30.469      332.559        1.302      871.650
01/17/2021  06:29:00       99.184        7.461      -37.788      527.405       47.644      248.306   278155.893     2269.955    61656.002       17.663       17.104       99.464      359.348       13.053      332.875        1.832      871.653
01/17/2021  06:30:00       54.257       18.557      -10.778      325.361       58.135      159.265   105859.516     3379.639    25365.459        6.898        6.730       57.343      221.549       14.927      332.755        1.627      871.654
01/17/2021  06:31:00       33.181       21.112       -1.553      258.590       53.545      116.921    66868.871     2867.041    13670.520        4.246        4.170       39.328      168.116       18.273      332.609        1.384      871.647
01/17/2021  06:32:00       19.701        6.099       -1.471      204.240       50.588       93.419    41713.812     2559.117     8727.129        2.670        2.650       20.623      129.934       39.694      332.533        1.258      871.651
01/17/2021  06:33:00        0.736       11.108        9.257      176.496       48.459       89.174    31150.758     2348.228     7952.063        2.082        2.073       11.132      119.446      115.127      332.483        1.176      871.644
01/17/2021  06:34:00       12.769      -11.759      -28.137      391.651       43.180      187.349   153390.125     1864.494    35099.651        9.568        9.518       17.358      267.884      238.162      332.670        1.488      871.641
01/17/2021  06:35:00       49.711        2.238      -42.135      515.455       52.184      246.261   265693.930     2723.212    60644.683       16.659       16.453       49.761      353.467       50.456      332.850        1.791      871.656
01/17/2021  06:36:00       54.560        9.539       -9.981      383.515       50.107      187.058   147083.738     2510.757    34990.574        9.384        9.229       55.388      263.555       22.642      332.668        1.486      871.664
01/17/2021  06:37:00        8.713        2.099      -15.434      357.487       55.923      171.541   127797.262     3127.423    29426.160        8.030        8.018        8.962      243.100      735.743      332.666        1.481      871.674
01/17/2021  06:38:00       -3.705       -8.209      -16.390      364.349       62.257      170.069   132749.877     3875.933    28923.517        8.292        8.277        9.006      244.715      738.270      332.736        1.598      871.689
01/17/2021  06:39:00       34.766      -20.335      -42.310      463.463       54.722      218.724   214797.490     2994.521    47840.177       13.447       13.282       40.276      313.718       60.671      332.776        1.665      871.695
01/17/2021  06:40:00      129.338        1.799      -80.810      702.196       52.708      336.567   493078.746     2778.121   113277.327       31.607       30.457      129.350      483.077       13.948      333.093        2.199      871.695
01/17/2021  06:41:00       19.067       -5.033      -37.705      467.567       55.383      227.530   218618.635     3067.318    51769.813       13.758       13.673       19.720      321.700      266.121      332.760        1.638      871.690
01/17/2021  06:42:00        7.331        8.481       -6.811      318.643       58.782      148.634   101533.354     3455.279    22092.206        6.360        6.354       11.210      211.192      354.920      332.612        1.391      871.693
01/17/2021  06:43:00      -61.364       -7.772      -14.101      310.108       49.450      145.620    96166.914     2445.332    21205.232        6.190        5.991       61.855      204.575       10.939      332.470        1.157      871.683
01/17/2021  06:44:00      132.227      -13.935      -90.206      663.362       48.263      318.647   440049.612     2329.340   101535.927       28.475       27.196      132.959      458.183       11.875      333.085        2.184      871.679
01/17/2021  06:45:00      -39.589        7.021       -2.784      189.743       50.059       86.727    36002.371     2505.895     7521.585        2.382        2.301       40.207      120.228        8.941      332.439        1.104      871.689
01/17/2021  06:46:00       -1.041        3.177       -7.831      295.368       45.984      136.106    87242.141     2114.497    18524.922        5.395        5.394        3.343      194.672     3390.940      332.419        1.073      871.704
01/17/2021  06:47:00       54.215      -40.251      -33.392      508.634       72.153      244.835   258709.044     5206.007    59944.097       16.470       16.193       67.523      349.647       26.813      332.724        1.581      871.724
01/17/2021  06:48:00      -37.877      -36.498       -7.066      190.357       67.290       95.432    36235.612     4527.881     9107.362        2.633        2.494       52.600      123.907        5.549      332.362        0.977      871.741
01/17/2021  06:49:00      -44.134      -47.164      -14.998      269.444       63.390      127.579    72600.316     4018.259    16276.375        4.863        4.645       64.593      179.909        7.758      332.413        1.061      871.752
01/17/2021  06:50:00     -163.665      -30.589        0.188       93.694       63.854       44.796     8778.637     4077.279     2006.640        2.129        0.743      166.499       31.225        0.035      332.290        0.855      871.760
01/17/2021  06:51:00       -8.417       10.246      -23.446      404.925       83.306      195.120   163964.241     6939.879    38071.955       10.481       10.449       13.260      273.988      426.969      332.548        1.286      871.758
01/17/2021  06:52:00       66.700       -7.462      -68.412      582.705       68.805      285.951   339545.665     4734.191    81767.956       21.753       21.302       67.117      404.140       36.258      332.786        1.686      871.744
01/17/2021  06:53:00      -96.376      -28.822      -44.249      493.813       52.469      235.643   243851.645     2752.973    55527.647       15.704       15.107      100.594      334.809       11.078      332.492        1.197      871.728
01/17/2021  06:54:00      -39.590      -11.451      -35.701      522.935       59.284      252.814   273461.277     3514.608    63915.058       17.186       17.045       41.212      358.950       75.860      332.539        1.277      871.713
01/17/2021  06:55:00      -18.419      -28.202      -66.534      623.835       67.527      298.647   389169.939     4559.925    89190.027       24.414       24.146       33.684      427.177      160.832      332.713        1.568      871.701
01/17/2021  06:56:00      -49.895       13.145      -19.668      418.679       53.402      203.522   175291.780     2851.796    41421.354       11.126       10.978       51.598      286.965       30.931      332.381        1.012      871.695
01/17/2021  06:57:00      -36.610      -18.225      -43.763      521.897       52.538      246.296   272376.476     2760.291    60661.579       16.962       16.790       40.896      353.833       74.859      332.556        1.303      871.689
01/17/2021  06:58:00       31.092       16.072      -28.268      514.003       56.531      248.763   264198.704     3195.720    61883.259       16.558       16.464       35.000      350.654      100.373      332.530        1.262      871.679
01/17/2021  06:59:00     -101.985       -8.283      -12.106      268.556       79.347      130.923    72122.417     6295.881    17140.953        5.307        4.778      102.321      174.054        2.894      332.267        0.818      871.677
01/17/2021  07:00:00      -72.176       15.516      -10.458      365.693       74.140      178.740   133731.147     5496.698    31948.091        8.833        8.559       73.825      244.967       11.011      332.299        0.875      871.682
01/17/2021  07:01:00      -46.697      -13.423      -11.963      354.614       56.027      164.892   125750.885     3139.069    27189.513        7.926        7.804       48.588      234.237       23.241      332.278        0.842      871.695
01/17/2021  07:02:00      -38.093       -8.812       -7.233      281.124       65.239      128.100    79030.862     4256.157    16409.706        5.062        4.985       39.099      185.152       22.424      332.278        0.840      871.705
01/17/2021  07:03:00      -54.952        3.100       -6.820      290.262       53.504      135.523    84251.896     2862.649    18366.411        5.426        5.274       55.039      193.030       12.300      332.297        0.870      871.706
01/17/2021  07:04:00      -48.387       24.834      -20.148      343.614       52.958      164.515   118070.778     2804.511    27065.232        7.562        7.397       54.388      232.283       18.240      332.260        0.811      871.704
01/17/2021  07:05:00       -3.096       36.220      -26.955      427.352       50.830      201.634   182629.962     2583.739    40656.289       11.391       11.293       36.352      288.989       63.197      332.312        0.897      871.690
01/17/2021  07:06:00       41.147       29.922      -60.123      625.959       51.568      302.347   391825.132     2659.220    91413.876       24.595       24.295       50.876      431.860       72.054      332.547        1.294      871.678
01/17/2021  07:07:00       15.975       37.500       -6.264      410.127       54.891      198.123   168203.856     3013.042    39252.794       10.604       10.523       40.760      280.748       47.441      332.291        0.864      871.663
01/17/2021  07:08:00        8.105       11.262      -20.570      401.260       49.685      190.937   161009.306     2468.551    36456.748       10.023        9.997       13.875      271.130      381.858      332.295        0.869      871.654
01/17/2021  07:09:00       76.985        0.449      -44.007      568.169       58.179      274.274   322815.948     3384.740    75226.302       20.456       20.071       76.987      390.401       25.715      332.487        1.193      871.647
01/17/2021  07:10:00       -5.886        7.663      -16.281      405.768       70.022      191.754   164647.297     4903.120    36769.536       10.330       10.316        9.663      273.796      802.903      332.268        0.825      871.637
01/17/2021  07:11:00       28.461       26.156      -30.177      481.892       56.817      219.314   232219.511     3228.125    48098.682       14.292       14.177       38.655      320.810       68.880      332.437        1.107      871.611
01/17/2021  07:12:00        3.121       20.054       -6.671      379.782       55.184      187.077   144234.183     3045.262    34997.759        9.133        9.114       20.295      261.941      166.581      332.380        1.010      871.582
01/17/2021  07:13:00       63.285       -6.580      -58.067      569.741       58.995      273.642   324604.873     3480.435    74880.106       20.511       20.148       63.626      392.190       37.994      332.630        1.427      871.555
01/17/2021  07:14:00       86.549      -20.801      -77.346      613.800       55.868      297.896   376750.713     3121.180    88742.077       24.116       23.431       89.013      425.497       22.850      332.670        1.496      871.520
01/17/2021  07:15:00      -22.710      -27.375      -17.997      341.035       69.074      169.373   116305.149     4771.260    28687.075        7.565        7.488       35.569      232.588       42.760      332.316        0.903      871.496
01/17/2021  07:16:00      -95.213      -29.847      -15.310      276.474       62.403      132.750    76437.624     3894.163    17622.690        5.405        4.898       99.782      184.764        3.429      332.210        0.726      871.493
01/17/2021  07:17:00      140.900       18.951      -96.874      792.792       61.380      387.943   628518.772     3767.474   150500.060       40.603       39.139      142.169      551.048       15.023      332.957        1.979      871.496
01/17/2021  07:18:00       18.568        1.510      -40.752      526.719       55.053      251.114   277433.051     3030.797    63058.215       17.269       17.176       18.629      359.266      371.920      332.474        1.171      871.517
01/17/2021  07:19:00       61.050        4.880      -54.881      592.135       56.185      270.861   350624.098     3156.737    73365.547       21.687       21.357       61.245      396.001       41.808      332.537        1.274      871.543
01/17/2021  07:20:00      -60.515       26.436        5.390      257.214       61.913      125.692    66158.816     3833.183    15798.507        4.507        4.290       66.038      169.496        6.588      332.107        0.558      871.561
01/17/2021  07:21:00        7.796       19.308       -7.508      311.943       55.343      151.971    97308.323     3062.863    23095.122        6.195        6.173       20.822      207.832       99.623      332.215        0.736      871.570
01/17/2021  07:22:00      -83.108       11.380        7.475      243.736       50.684      115.500    59407.364     2568.900    13340.342        4.119        3.766       83.883      156.615        3.486      332.073        0.500      871.572
01/17/2021  07:23:00       51.067       32.168      -45.320      593.995       53.833      277.185   352830.647     2897.992    76831.376       21.904       21.628       60.354      401.360       44.223      332.264        0.826      871.574
01/17/2021  07:24:00       -9.933       29.968      -17.145      410.532       60.121      196.241   168536.704     3614.505    38510.653       10.593       10.533       31.571      279.108       78.157      331.903        0.223      871.575
01/17/2021  07:25:00       21.038       57.611      -33.011      441.942       58.916      219.334   195312.912     3471.144    48107.461       12.582       12.345       61.332      307.647       25.161      332.108        0.564      871.577
01/17/2021  07:26:00       19.707       59.767      -31.188      447.160       57.822      213.957   199952.226     3343.395    45777.684       12.695       12.454       62.932      305.699       23.596      332.080        0.518      871.587
01/17/2021  07:27:00       75.804       50.200      -29.704      460.850       58.698      223.145   212382.405     3445.477    49793.870       13.733       13.281       90.919      316.740       12.137      332.240        0.782      871.586
01/17/2021  07:28:00       47.183       22.511      -28.893      464.883       48.384      221.988   216116.126     2341.058    49278.886       13.560       13.387       52.278      318.566       37.133      332.158        0.647      871.559
01/17/2021  07:29:00       75.969       38.719      -52.145      572.283       58.233      279.241   327508.041     3391.048    77975.522       20.935       20.444       85.267      397.341       21.715      332.313        0.905      871.530
01/17/2021  07:30:00       79.184       -0.833      -33.054      476.646       50.947      230.487   227191.248     2595.584    53124.167       14.508       14.146       79.189      328.094       17.166      332.371        0.996      871.495
01/17/2021  07:31:00      127.531       12.438      -68.210      607.280       41.524      293.356   368788.853     1724.203    86057.816       23.873       22.829      128.136      420.178       10.753      332.476        1.175      871.485
01/17/2021  07:32:00       26.639       15.053      -31.858      415.698       41.835      198.798   172804.645     1750.170    39520.545       10.797       10.704       30.598      284.516       86.463      332.141        0.616      871.498
01/17/2021  07:33:00       38.431       24.987      -36.053      453.829       41.947      221.038   205960.896     1759.512    48857.640       12.994       12.829       45.840      314.105       46.952      332.280        0.846      871.533
01/17/2021  07:34:00      -12.393       23.784      -18.986      322.041       37.811      149.871   103710.164     1429.649    22461.306        6.431        6.380       26.819      216.956       65.443      332.069        0.496      871.567
01/17/2021  07:35:00       62.685       10.171      -33.895      451.541       38.852      218.348   203889.527     1509.475    47675.824       12.908       12.654       63.504      311.803       24.107      332.369        0.993      871.584
01/17/2021  07:36:00      146.422       -3.251      -62.092      622.131       30.146      297.025   387047.148      908.757    88224.094       25.064       23.809      146.458      429.151        8.586      332.617        1.410      871.589
01/17/2021  07:37:00      108.040       -4.323      -49.590      535.969       23.425      257.848   287263.065      548.720    66485.369       18.415       17.715      108.126      371.184       11.785      332.457        1.143      871.594
01/17/2021  07:38:00       88.725       12.318      -50.188      534.747       19.767      254.538   285954.243      390.743    64789.753       18.077       17.557       89.576      367.816       16.861      332.372        1.002      871.585
01/17/2021  07:39:00       46.749        8.940      -45.277      429.199       13.757      205.155   184211.515      189.241    42088.603       11.535       11.324       47.596      296.366       38.771      332.267        0.824      871.585
01/17/2021  07:40:00       30.911       22.166      -35.626      417.597       15.494      200.624   174386.919      240.076    40249.981       10.875       10.744       38.037      288.974       57.716      332.289        0.860      871.570
01/17/2021  07:41:00      141.176       -0.840      -93.026      718.621       14.702      342.897   516415.948      216.157   117578.266       33.127       31.711      141.179      495.984       12.342      332.764        1.656      871.555
01/17/2021  07:42:00      123.964       -6.097      -55.341      537.841       10.925      257.774   289273.020      119.356    66447.502       18.708       17.792      124.114      372.139        8.990      332.779        1.673      871.533
01/17/2021  07:43:00       10.384        9.856      -25.584      331.731        7.286      158.441   110045.513       53.080    25103.578        6.800        6.760       14.317      228.938      255.689      332.256        0.804      871.518
01/17/2021  07:44:00       82.202       15.185      -58.293      500.676        6.688      239.195   250676.667       44.725    57214.094       15.910       15.397       83.592      345.872       17.120      332.546        1.285      871.514
01/17/2021  07:45:00       90.813        8.078      -58.995      514.729        7.130      245.788   264946.365       50.840    60411.923       16.853       16.270       91.172      355.504       15.204      332.588        1.355      871.530
01/17/2021  07:46:00       36.307       -0.310      -24.752      288.605       16.998      138.148    83292.873      288.935    19084.901        5.228        5.133       36.308      199.238       30.112      332.413        1.062      871.553
01/17/2021  07:47:00       93.658       23.061      -37.988      419.078        6.721      200.025   175626.539       45.170    40009.988       11.317       10.784       96.455      289.308        8.996      332.510        1.224      871.573
01/17/2021  07:48:00       72.427        9.357      -38.241      426.312       18.029      204.421   181741.510      325.061    41788.020       11.528       11.193       73.029      294.927       16.310      332.497        1.205      871.589
01/17/2021  07:49:00       52.030       -0.653      -24.472      323.648       10.248      153.659   104747.821      105.013    23611.169        6.586        6.423       52.034      222.544       18.292      332.339        0.941      871.594
01/17/2021  07:50:00      -19.282        7.755      -28.032      275.154       15.132      132.893    75709.873      228.966    17660.516        4.739        4.680       20.783      190.271       83.818      332.136        0.605      871.603
01/17/2021  07:51:00      -17.893       28.709      -27.252      341.508       14.714      163.957   116628.039      216.510    26881.832        7.278        7.186       33.828      236.043       48.688      332.106        0.557      871.606
01/17/2021  07:52:00      -29.194       23.623      -25.389      291.231       17.927      141.308    84815.435      321.375    19968.039        5.356        5.255       37.554      202.250       29.004      332.067        0.492      871.617
01/17/2021  07:53:00        5.159        8.212      -33.983      359.490       19.043      172.671   129233.029      362.643    29815.200        8.030        7.971        9.698      248.405      656.092      332.163        0.652      871.609
01/17/2021  07:54:00       45.629        1.001      -56.625      568.212       23.584      270.001   322864.502      556.215    72900.761       20.072       19.816       45.640      390.879       73.348      332.373        1.004      871.589
01/17/2021  07:55:00       50.732       -9.531      -31.922      400.400       22.474      191.195   160320.168      505.077    36555.516       10.049        9.869       51.620      275.566       28.499      332.419        1.076      871.565
01/17/2021  07:56:00       10.821        7.940      -15.174      272.735       19.036      127.204    74384.382      362.369    16180.734        4.565        4.546       13.422      185.017      190.016      332.231        0.762      871.547
01/17/2021  07:57:00      -62.233       12.606       -2.307       31.160       16.416       16.456      970.965      269.474      270.790        0.277        0.076       63.497       15.420        0.059      332.108        0.556      871.536
01/17/2021  07:58:00       22.382       10.047      -46.160      450.253       16.180      211.614   202728.043      261.796    44780.574       12.520       12.389       24.534      308.303      157.916      332.405        1.053      871.531
01/17/2021  07:59:00       45.211       -3.672      -33.686      368.184       17.387      177.149   135559.243      302.303    31381.814        8.518        8.362       45.360      254.715       31.533      332.454        1.132      871.525
01/17/2021  08:00:00       67.265       -0.544      -40.565      429.703       16.654      204.437   184644.404      277.346    41794.652       11.640       11.336       67.267      295.724       19.327      332.612        1.396      871.521
01/17/2021  08:01:00      100.958      -24.094      -47.113      453.669       12.786      216.477   205815.286      163.480    46862.224       13.286       12.642      103.794      312.995        9.094      332.587        1.353      871.523
01/17/2021  08:02:00       27.025      -10.518      -35.840      285.573       13.871      136.801    81552.139      192.414    18714.385        5.127        5.023       28.999      196.930       46.115      332.524        1.246      871.527
01/17/2021  08:03:00      123.336        2.398      -54.840      550.091       17.658      262.225   302600.298      311.797    68761.849       19.487       18.584      123.359      379.619        9.470      333.015        2.062      871.528
01/17/2021  08:04:00       17.953       19.484      -27.056      257.756        8.063      123.592    66438.340       65.015    15274.878        4.159        4.089       26.494      178.195       45.237      332.495        1.196      871.529
01/17/2021  08:05:00      -24.329        7.530       -6.758       33.235       12.209       16.386     1104.543      149.050      268.492        0.111        0.076       25.468       19.445        0.583      332.426        1.080      871.514
01/17/2021  08:06:00        8.030        0.667       -0.259      138.320       10.497       66.625    19132.406      110.194     4438.919        1.187        1.184        8.057       95.647      140.919      332.736        1.593      871.498
01/17/2021  08:07:00      -15.047      -15.241      -11.388       37.934       14.130       19.597     1438.968      199.656      384.039        0.131        0.101       21.417       24.702        1.330      332.563        1.307      871.478
01/17/2021  08:08:00       46.731        1.636      -15.093      337.596       16.552      161.460   113971.284      273.978    26069.220        7.134        7.016       46.760      233.216       24.875      332.841        1.771      871.462
01/17/2021  08:09:00       37.248       -0.492      -29.516      337.409       12.162      160.290   113844.885      147.905    25692.767        7.094        6.984       37.252      232.041       38.800      332.756        1.629      871.452
01/17/2021  08:10:00       -9.933        3.660       -3.581       33.161        7.792       16.766     1099.666       60.718      281.115        0.078        0.072       10.586       19.915        3.539      332.536        1.261      871.448
01/17/2021  08:11:00        2.632       -3.816       -7.823       37.343       10.923       18.379     1394.480      119.305      337.786        0.097        0.093        4.636       23.645       26.019      332.559        1.299      871.452
01/17/2021  08:12:00       45.572       -5.527      -15.145      292.944       16.173      137.821    85816.198      261.552    18994.506        5.368        5.254       45.906      200.036       18.988      332.840        1.770      871.463
01/17/2021  08:13:00      -19.358       -8.420      -11.678      246.260       19.944      116.650    60643.996      397.755    13607.192        3.760        3.732       21.110      167.339       62.837      332.709        1.551      871.479
01/17/2021  08:14:00      -86.013      -20.973      -12.528       39.193       23.263       21.870     1536.052      541.186      478.293        0.527        0.128       88.533       14.325        0.026      332.561        1.302      871.495
01/17/2021  08:15:00      -77.824      -30.271      -27.034      202.995       15.977       97.032    41206.770      255.280     9415.292        2.928        2.544       83.503      139.122        2.776      332.568        1.317      871.518
01/17/2021  08:16:00      -41.424       -6.335       -5.239       38.603       22.956       19.415     1490.229      526.957      376.956        0.209        0.120       41.906        4.711        0.013      332.637        1.428      871.547
01/17/2021  08:17:00      -34.129      -27.951       -7.176       30.041       18.897       15.976      902.483      357.107      255.225        0.176        0.076       44.114       14.321        0.105      332.631        1.420      871.562
01/17/2021  08:18:00      -32.248      -19.106       -8.270       36.841       17.878       17.316     1357.269      319.632      299.849        0.172        0.099       37.483       16.596        0.196      332.733        1.588      871.568
01/17/2021  08:19:00       -9.342       -2.546       -1.552       37.781       18.627       17.558     1427.432      346.978      308.296        0.109        0.104        9.683       16.654        2.958      332.856        1.792      871.548
01/17/2021  08:20:00      -10.057       -2.177       -1.120       28.691       19.670       15.657      823.163      386.923      245.134        0.078        0.073       10.290       17.938        3.039      332.801        1.700      871.523
01/17/2021  08:21:00      -43.599        2.996       -4.335       44.505       16.746       20.738     1980.715      280.418      430.061        0.231        0.135       43.702       13.562        0.096      332.664        1.474      871.491
01/17/2021  08:22:00      -42.380        2.406       -4.496       36.147       13.335       21.214     1306.611      177.819      450.026        0.188        0.097       42.448       19.850        0.219      332.603        1.373      871.468
01/17/2021  08:23:00      -27.397        2.553       -2.340       32.529       12.969       14.980     1058.104      168.194      224.389        0.111        0.073       27.515       16.756        0.371      332.743        1.605      871.448
01/17/2021  08:24:00       -1.209       18.160       -5.064       37.637       13.386       17.830     1416.580      179.192      317.907        0.113        0.096       18.201       23.673        1.692      332.717        1.561      871.441
01/17/2021  08:25:00       -7.097       35.054       -1.417       26.817        9.485       14.242      719.142       89.964      202.824        0.115        0.051       35.765       17.472        0.239      332.706        1.542      871.443
01/17/2021  08:26:00      -11.908       23.221       -3.313       21.568       18.642       12.324      465.174      347.512      151.876        0.083        0.048       26.097       14.076        0.291      332.817        1.727      871.455
01/17/2021  08:27:00      -13.375        7.860       -2.926       24.022        8.489       13.275      577.061       72.068      176.222        0.054        0.041       15.513       13.709        0.781      332.987        2.009      871.463
01/17/2021  08:28:00       12.601       11.126       -3.388       47.914        9.543       27.574     2295.766       91.061      760.349        0.172        0.157       16.810       34.361        4.178      333.156        2.287      871.471
01/17/2021  08:29:00       -8.956        3.534       -1.099       22.110        7.727       11.488      488.850       59.706      131.977        0.039        0.034        9.628       13.872        2.076      333.038        2.092      871.470
01/17/2021  08:30:00      -19.072       14.834       -3.116       21.323       12.407       11.570      454.675      153.930      133.862        0.067        0.037       24.162       11.187        0.214      333.098        2.190      871.472
01/17/2021  08:31:00       -1.357       24.498       -0.678       29.519       14.228       14.152      871.397      202.445      200.277        0.094        0.064       24.536       16.985        0.479      333.175        2.319      871.472
01/17/2021  08:32:00       -2.453       24.209        3.407       29.546       14.712       17.012      872.942      216.448      289.403        0.099        0.069       24.333       18.290        0.565      333.307        2.536      871.475
01/17/2021  08:33:00       -2.914       23.549        0.631       25.298        9.694       15.130      640.012       93.976      228.918        0.076        0.048       23.729       12.661        0.285      333.392        2.676      871.480
01/17/2021  08:34:00       26.259       31.701       -1.656       37.868       21.530       15.819     1433.993      463.520      250.238        0.192        0.107       41.165       14.928        0.132      333.358        2.620      871.489
01/17/2021  08:35:00       22.798       50.944       -7.892       44.421       24.014       24.847     1973.187      576.695      617.362        0.317        0.158       55.813       25.885        0.215      333.491        2.841      871.492
01/17/2021  08:36:00       -3.057       63.345        3.965       35.357       29.642       18.622     1250.106      878.628      346.765        0.326        0.124       63.418       20.040        0.100      333.458        2.784      871.490
01/17/2021  08:37:00       -7.860       81.570       -5.188       37.082       28.063       22.655     1375.097      787.545      513.253        0.471        0.134       81.947       19.941        0.059      333.327        2.568      871.499
01/17/2021  08:38:00      -26.429       50.072       -4.405       34.425       29.614       21.557     1185.110      876.985      464.718        0.288        0.126       56.619       21.008        0.138      333.286        2.503      871.504
01/17/2021  08:39:00      -36.754       29.876      -10.957       28.299       15.895       14.081      800.828      252.637      198.263        0.181        0.063       47.365        6.277        0.018      333.218        2.388      871.506
01/17/2021  08:40:00      -29.249       40.982      -13.305       26.143       17.561       20.799      683.481      308.402      432.608        0.207        0.071       50.349        9.045        0.032      333.351        2.608      871.502
01/17/2021  08:41:00       12.484       24.304       -1.795       30.978       18.722       19.599      959.661      350.523      384.131        0.122        0.085       27.323       15.892        0.338      333.570        2.972      871.497
01/17/2021  08:42:00       32.303       37.173       -1.282       44.794       26.336       21.653     2006.497      693.609      468.871        0.280        0.158       49.248       19.440        0.156      333.672        3.142      871.491
01/17/2021  08:43:00       11.098       61.647       -1.841       42.769       32.930       26.399     1829.156     1084.380      696.920        0.377        0.181       62.638       27.995        0.200      333.796        3.347      871.489
01/17/2021  08:44:00        7.019       55.517       -3.636       37.434       30.151       23.859     1401.328      909.085      569.266        0.301        0.144       55.959       23.508        0.176      333.759        3.285      871.488
01/17/2021  08:45:00        1.807       30.506        3.403       30.540       19.390       14.996      932.674      375.964      224.885        0.124        0.077       30.560        7.940        0.068      333.796        3.346      871.498
01/17/2021  08:46:00        9.779       24.112       16.509       32.251       25.202       23.361     1040.101      635.117      545.736        0.158        0.111       26.020       21.801        0.702      334.029        3.733      871.515
01/17/2021  08:47:00       36.673       52.893       -3.701       56.065       33.263       26.021     3143.296     1106.444      677.085        0.454        0.246       64.363       28.588        0.197      333.906        3.531      871.522
01/17/2021  08:48:00       75.954       52.255      -15.309       28.842       30.752       22.133      831.886      945.716      489.869        0.550        0.113       92.193       15.825        0.029      333.946        3.596      871.524
01/17/2021  08:49:00       95.364       46.691       -9.582       23.870       27.076       18.112      569.783      733.118      328.042        0.650        0.082      106.181       11.052        0.011      333.700        3.187      871.525
01/17/2021  08:50:00       78.098       22.406       -8.625       35.713       21.584       18.489     1275.384      465.852      341.859        0.438        0.104       81.249       20.971        0.067      333.820        3.386      871.520
01/17/2021  08:51:00       47.035       21.986       -3.137       35.885       36.942       28.852     1287.756     1364.728      832.432        0.309        0.174       51.920       24.425        0.221      334.149        3.932      871.507
01/17/2021  08:52:00       56.094       27.566       -7.436       53.619       43.686       29.831     2875.024     1908.432      889.880        0.482        0.284       62.501       26.854        0.185      334.192        4.002      871.495
01/17/2021  08:53:00      104.310       60.388      -17.622       42.340       32.085       25.484     1792.666     1029.440      649.410        0.915        0.174      120.530       24.347        0.041      334.009        3.697      871.478
01/17/2021  08:54:00       55.550       17.212      -13.541       51.063       54.000       29.514     2607.441     2916.043      871.074        0.498        0.320       58.156       20.290        0.122      334.232        4.068      871.467
01/17/2021  08:55:00      105.626       14.977      -18.198       61.484       49.311       29.760     3780.239     2431.529      885.658        0.940        0.355      106.683       35.230        0.109      334.186        3.992      871.469
01/17/2021  08:56:00       58.879        1.965      -17.693       43.096       58.861       30.467     1857.269     3464.611      928.242        0.502        0.313       58.912       27.856        0.224      334.242        4.084      871.475
01/17/2021  08:57:00      140.737      -18.069       -9.090       57.033       23.315       33.264     3252.749      543.584     1106.516        1.256        0.245      141.892       36.495        0.066      334.005        3.691      871.470
01/17/2021  08:58:00       99.034       -4.336      -16.474       54.590       56.828       27.870     2980.047     3229.419      776.709        0.854        0.349       99.129       28.145        0.081      334.185        3.991      871.480
01/17/2021  08:59:00      104.710       61.181      -23.298       43.091       22.781       19.658     1856.825      518.976      386.439        0.901        0.138      121.273       16.670        0.019      333.868        3.463      871.505
01/17/2021  09:00:00      119.427       65.650      -16.949       48.263       37.670       22.654     2329.352     1419.062      513.221        1.156        0.213      136.281       18.707        0.019      334.040        3.750      871.537
01/17/2021  09:01:00       96.299       31.029       -9.074       48.014       51.034       23.576     2305.349     2604.478      555.826        0.789        0.273      101.175       19.655        0.038      334.203        4.020      871.563
01/17/2021  09:02:00       85.872       64.936       -8.745       43.028       38.955       36.669     1851.436     1517.466     1344.630        0.819        0.236      107.661       27.029        0.063      334.499        4.512      871.586
01/17/2021  09:03:00       69.007       54.876      -22.654       46.309       35.935       26.469     2144.527     1291.350      700.604        0.621        0.207       88.167       26.977        0.094      334.283        4.154      871.597
01/17/2021  09:04:00       43.603        9.322      -11.058       51.404       60.100       27.072     2642.338     3611.993      732.901        0.455        0.349       44.589       24.866        0.311      334.507        4.525      871.600
01/17/2021  09:05:00       38.327       26.149       -8.974       47.133       45.024       27.003     2221.553     2027.198      729.163        0.360        0.249       46.397       26.829        0.334      334.607        4.690      871.601
01/17/2021  09:06:00       33.308       43.936       -4.510       56.139       35.867       36.759     3151.623     1286.466     1351.226        0.442        0.289       55.134       33.946        0.379      334.413        4.370      871.607
01/17/2021  09:07:00       82.884       12.641      -13.335       49.751       40.358       26.106     2475.177     1628.807      681.534        0.600        0.239       83.843       27.616        0.108      334.434        4.404      871.614
01/17/2021  09:08:00       45.137      -55.162      -27.462       33.708       38.308       19.534     1136.218     1467.478      381.577        0.441        0.149       71.275       14.844        0.043      334.629        4.729      871.632
01/17/2021  09:09:00       64.006      -25.143      -16.510       38.078       44.624       31.507     1449.956     1991.317      992.711        0.472        0.222       68.767       23.232        0.114      334.747        4.924      871.648
01/17/2021  09:10:00       58.246       -4.157      -10.498       47.606       44.208       33.331     2266.332     1954.384     1110.970        0.442        0.267       58.394       25.043        0.184      334.643        4.751      871.659
01/17/2021  09:11:00       66.444        2.354        1.124       76.882       37.328       42.536     5910.905     1393.352     1809.293        0.677        0.456       66.486       48.423        0.530      334.711        4.863      871.672
01/17/2021  09:12:00       36.777       17.025        2.341       36.054       52.904       29.261     1299.918     2798.854      856.185        0.330        0.248       40.526       18.594        0.211      334.743        4.918      871.680
01/17/2021  09:13:00       70.187      -15.368      -27.826       49.145       56.927       33.317     2415.224     3240.686     1110.026        0.635        0.338       71.850       29.328        0.167      334.602        4.683      871.680
01/17/2021  09:14:00       79.666       -8.826      -14.675       46.510       40.435       26.192     2163.161     1635.023      686.044        0.556        0.224       80.154       27.668        0.119      334.560        4.612      871.680
01/17/2021  09:15:00       63.010      -38.638      -18.486       44.051       48.554       29.917     1940.466     2357.467      895.034        0.550        0.260       73.913       32.395        0.192      334.694        4.836      871.671
01/17/2021  09:16:00       32.733      -19.667      -18.602       38.968       55.222       31.086     1518.517     3049.434      966.339        0.367        0.277       38.187       25.624        0.450      334.911        5.196      871.665
01/17/2021  09:17:00       69.983      -48.218      -24.428       47.545       41.490       33.430     2260.516     1721.436     1117.549        0.646        0.255       84.986       30.616        0.130      334.584        4.654      871.657
01/17/2021  09:18:00       82.095      -36.241      -16.869       50.117       34.943       30.538     2511.728     1221.016      932.587        0.650        0.233       89.739       25.859        0.083      334.510        4.531      871.711
01/17/2021  09:19:00       64.736      -56.110      -15.691       63.047       40.596       32.209     3974.973     1648.010     1037.448        0.712        0.333       85.668       42.396        0.245      334.797        5.007      871.732
01/17/2021  09:20:00      -20.899       -4.884       -8.950       31.961       16.114       20.209     1021.487      259.677      408.409        0.111        0.084       21.462       18.241        0.722      334.891        5.162      871.741
01/17/2021  09:21:00        0.749      -35.315       -2.225       32.441       41.162       22.440     1052.424     1694.338      503.538        0.225        0.163       35.323       19.738        0.312      334.982        5.315      871.750
01/17/2021  09:22:00       47.299      -18.704      -12.293       49.011       36.609       26.665     2402.113     1340.219      711.049        0.359        0.223       50.863       27.538        0.293      335.022        5.381      871.759
01/17/2021  09:23:00       81.051      -52.681      -31.323       61.058       31.874       26.532     3728.140     1015.937      703.931        0.789        0.272       96.667       30.546        0.100      334.832        5.064      871.768
01/17/2021  09:24:00       87.735       32.125      -19.803       42.614       60.157       21.826     1815.986     3618.818      476.373        0.752        0.296       93.431       23.236        0.062      334.670        4.796      871.773
01/17/2021  09:25:00       49.175       15.256      -14.576       53.833       53.665       27.572     2897.974     2879.964      760.220        0.470        0.327       51.487       27.209        0.279      334.691        4.831      871.782
01/17/2021  09:26:00       87.505      -50.579      -17.810       39.377       23.002       25.959     1550.532      529.113      673.870        0.664        0.138      101.071       26.435        0.068      334.570        4.630      871.777
01/17/2021  09:27:00       53.735      -23.177      -14.470       50.936       30.985       29.241     2594.430      960.078      855.020        0.402        0.220       58.520       25.685        0.193      335.041        5.411      871.774
01/17/2021  09:28:00       61.142        1.169      -16.530       47.274       45.085       35.970     2234.820     2032.692     1293.830        0.479        0.278       61.153       29.938        0.240      334.931        5.230      871.781
01/17/2021  09:29:00       74.847      -22.157      -27.889       48.798       51.212       32.372     2381.262     2622.671     1047.942        0.646        0.303       78.058       26.261        0.113      335.039        5.409      871.780
01/17/2021  09:30:00      106.714      -18.941      -26.556       59.067       42.530       36.195     3488.932     1808.785     1310.087        0.953        0.330      108.382       37.171        0.118      334.990        5.328      871.779
01/17/2021  09:31:00      104.211        7.298      -11.091       47.595       54.185       33.470     2265.259     2935.963     1120.260        0.868        0.316      104.466       30.233        0.084      334.831        5.062      871.780
01/17/2021  09:32:00       74.146      -13.548      -11.124       46.119       47.604       29.930     2127.005     2266.111      895.829        0.555        0.264       75.374       28.344        0.141      334.998        5.340      871.777
01/17/2021  09:33:00       94.763        1.210      -24.834       56.236       66.289       33.748     3162.432     4394.287     1138.909        0.915        0.435       94.771       35.398        0.140      334.912        5.197      871.769
01/17/2021  09:34:00       84.735      -70.480      -37.652       56.699       76.807       30.206     3214.782     5899.372      912.397        1.179        0.501      110.215       28.887        0.069      334.933        5.232      871.763
01/17/2021  09:35:00       95.273     -164.820      -33.485       43.465       33.036       25.882     1889.233     1091.378      669.878        2.051        0.183      190.375       24.692        0.017      334.777        4.973      871.750
01/17/2021  09:36:00      113.260     -111.309      -42.358       60.830       37.242       27.513     3700.245     1386.980      756.945        1.643        0.292      158.800       35.150        0.049      335.066        5.454      871.740
01/17/2021  09:37:00       82.602     -105.624      -31.047       50.639       50.890       24.675     2564.328     2589.764      608.844        1.235        0.288      134.088       27.269        0.041      334.954        5.267      871.728
01/17/2021  09:38:00       79.147     -130.997      -35.330       61.194       52.785       29.969     3744.764     2786.209      898.125        1.605        0.371      153.051       34.602        0.051      334.943        5.246      871.717
01/17/2021  09:39:00      123.645     -104.762      -44.048       44.723       31.300       22.852     2000.140      979.719      522.226        1.585        0.175      162.060       25.105        0.024      334.790        4.995      871.716
01/17/2021  09:40:00      103.344      -95.208      -37.841       35.113       31.185       19.089     1232.907      972.534      364.375        1.187        0.128      140.515       21.086        0.023      334.745        4.920      871.721
01/17/2021  09:41:00       92.227      -71.437      -30.492       41.050       34.129       23.007     1685.122     1164.794      529.302        0.896        0.169      116.658       23.762        0.041      334.838        5.077      871.724
01/17/2021  09:42:00       75.632      -25.763      -29.032       35.008       43.759       21.199     1225.562     1914.833      449.400        0.541        0.179       79.900       18.279        0.052      335.132        5.563      871.724
01/17/2021  09:43:00       54.555      -16.144      -30.357       52.993       52.898       28.099     2808.275     2798.160      789.578        0.528        0.320       56.894       31.503        0.307      335.337        5.904      871.728
01/17/2021  09:44:00       89.039      -90.013      -29.233       43.054       34.693       22.025     1853.679     1203.630      485.095        1.021        0.177      126.610       26.480        0.044      335.127        5.555      871.727
01/17/2021  09:45:00       57.516      -41.421      -23.166       54.720       48.450       31.969     2994.306     2347.383     1021.992        0.596        0.318       70.879       25.059        0.125      335.328        5.889      871.731
01/17/2021  09:46:00       61.171      -30.686      -35.251       47.620       49.830       22.449     2267.646     2483.076      503.944        0.559        0.263       68.436       24.114        0.124      335.199        5.676      871.729
01/17/2021  09:47:00       33.774      -75.544      -18.342       67.505       42.232       31.055     4556.986     1783.575      964.422        0.724        0.365       82.750       33.013        0.159      335.345        5.920      871.726
01/17/2021  09:48:00       28.630      -45.708       -9.806       51.573       49.331       26.658     2659.750     2433.572      710.643        0.440        0.290       53.935       29.244        0.294      335.460        6.108      871.711
01/17/2021  09:49:00        6.592      -59.626       -0.455       51.072       36.596       30.695     2608.353     1339.245      942.200        0.424        0.244       59.989       24.616        0.168      335.399        6.006      871.703
01/17/2021  09:50:00       90.111      -62.511      -24.803       56.231       29.596       29.320     3161.896      875.946      859.646        0.877        0.245      109.670       33.028        0.091      335.250        5.759      871.704
01/17/2021  09:51:00       77.099      -18.724      -21.587       55.267       38.591       30.633     3054.390     1489.276      938.380        0.612        0.274       79.341       35.682        0.202      335.479        6.140      871.717
01/17/2021  09:52:00       93.356      -56.044      -35.339       63.319       50.025       34.280     4009.271     2502.507     1175.099        1.039        0.384      108.887       37.563        0.119      335.325        5.885      871.717
01/17/2021  09:53:00       68.629     -108.460      -30.370       69.390       41.928       42.663     4814.993     1757.978     1820.155        1.289        0.420      128.349       46.736        0.133      335.358        5.939      871.701
01/17/2021  09:54:00        9.344      -13.320       -7.647       54.352       45.896       28.416     2954.158     2106.467      807.443        0.309        0.293       16.271       33.204        4.165      335.316        5.868      871.706
01/17/2021  09:55:00        6.376      -21.293       -7.363       30.949       22.192       20.141      957.846      492.492      405.663        0.120        0.093       22.227       19.566        0.775      335.537        6.237      871.695
01/17/2021  09:56:00      -38.956       -8.441       -3.986       17.723       14.622       16.952      314.115      213.801      287.377        0.121        0.041       39.860       11.851        0.088      335.343        5.914      871.696
01/17/2021  09:57:00        7.991      -27.481       -4.150       46.711       27.943       33.804     2181.878      780.787     1142.719        0.247        0.205       28.620       14.189        0.246      335.635        6.401      871.701
01/17/2021  09:58:00       48.712      -14.729      -10.379       38.377       34.540       20.096     1472.765     1192.981      403.834        0.288        0.153       50.890       20.644        0.165      335.724        6.550      871.701
01/17/2021  09:59:00        6.954      -23.484      -18.867       42.916       40.069       21.396     1841.776     1605.508      457.782        0.243        0.195       24.492       23.719        0.938      335.543        6.246      871.699
01/17/2021  10:00:00       -3.173      -67.693      -29.254       49.639       38.741       29.206     2464.017     1500.836      852.963        0.513        0.241       67.768       21.698        0.103      335.563        6.280      871.707
01/17/2021  10:01:00      -44.161      -19.092      -18.607       45.917       28.317       23.665     2108.335      801.866      560.015        0.306        0.174       48.111       26.137        0.295      335.458        6.104      871.717
01/17/2021  10:02:00      -23.308      -28.844       -8.105       22.745       32.509       19.254      517.347     1056.867      370.720        0.169        0.097       37.084       13.713        0.137      335.709        6.523      871.713
01/17/2021  10:03:00       14.030       -0.418      -15.228       27.933       34.316       20.685      780.232     1177.565      427.874        0.141        0.119       14.036       21.196        2.280      335.588        6.321      871.710
01/17/2021  10:04:00       -9.774      -33.737       -6.095       42.779       46.857       19.914     1830.074     2195.603      396.585        0.285        0.221       35.124       21.049        0.359      335.551        6.260      871.700
01/17/2021  10:05:00       88.598      -47.709      -29.230       44.742       48.311       35.047     2001.834     2333.956     1228.292        0.827        0.278      100.627       32.376        0.104      335.680        6.476      871.692
01/17/2021  10:06:00       56.358      -77.265      -20.857       85.257       50.181       33.089     7268.822     2518.145     1094.911        1.023        0.544       95.635       43.604        0.208      335.709        6.523      871.677
01/17/2021  10:07:00       11.160      -39.267      -15.594       40.349       50.418       27.885     1628.021     2542.010      777.547        0.343        0.247       40.822       27.445        0.452      335.776        6.635      871.665
01/17/2021  10:08:00        1.621        9.773       -9.694       42.203       39.067       23.523     1781.116     1526.219      553.308        0.203        0.193        9.907       16.036        2.620      335.851        6.759      871.639
01/17/2021  10:09:00      -29.949       -1.585       -7.657       23.033       13.248       19.163      530.510      175.504      367.218        0.102        0.054       29.991       11.445        0.146      335.662        6.445      871.618
01/17/2021  10:10:00        1.343       55.576       11.751       23.082       17.225       18.146      532.777      296.708      329.276        0.219        0.058       55.592       15.037        0.073      335.702        6.512      871.595
01/17/2021  10:11:00        7.326        7.197       -1.332       34.728       31.968       21.527     1206.066     1021.958      463.398        0.140        0.135       10.270       14.861        2.094      335.851        6.760      871.569
01/17/2021  10:12:00      -29.049        3.129      -14.095       25.987       20.655       13.387      675.316      426.647      179.219        0.117        0.064       29.217       14.657        0.252      335.693        6.496      871.554
01/17/2021  10:13:00      -35.605       -5.764       -1.935       22.053       19.106       15.145      486.350      365.028      229.380        0.119        0.054       36.068        9.177        0.065      335.786        6.652      871.539
01/17/2021  10:14:00       -9.793      -21.586       -9.273       27.481       44.848       23.629      755.190     2011.310      558.321        0.199        0.166       23.704        9.089        0.147      336.049        7.089      871.533
01/17/2021  10:15:00       53.431       49.178      -11.238       87.859       54.322       29.454     7719.172     2950.902      867.510        0.847        0.577       72.618       20.919        0.083      335.730        6.558      871.513
01/17/2021  10:16:00       76.180        8.216      -14.367       58.775       68.167       38.566     3454.477     4646.772     1487.309        0.783        0.479       76.622       34.479        0.202      335.879        6.806      871.508
01/17/2021  10:17:00       93.604      -29.330       -9.513       60.109       36.168       31.216     3613.052     1308.102      974.448        0.780        0.295       98.092       37.040        0.143      335.582        6.312      871.500
01/17/2021  10:18:00       50.872      -28.941      -25.184       55.146       44.351       23.655     3041.066     1967.019      559.547        0.481        0.278       58.528       28.238        0.233      335.694        6.498      871.494
01/17/2021  10:19:00      122.850      109.881      -23.851       51.730       48.978       28.315     2675.942     2398.835      801.712        1.680        0.294      164.821       30.596        0.034      335.505        6.183      871.486
01/17/2021  10:20:00      117.134       60.277      -16.492       52.437       46.549       24.484     2749.659     2166.789      599.472        1.157        0.276      131.733       21.496        0.027      335.626        6.384      871.471
01/17/2021  10:21:00       69.323       42.336      -14.935       53.338       63.786       24.821     2844.991     4068.617      616.084        0.717        0.376       81.229       21.876        0.073      335.679        6.474      871.448
01/17/2021  10:22:00       84.615      -15.260      -18.717       53.095       56.148       43.409     2819.080     3152.608     1884.364        0.780        0.393       85.980       30.544        0.126      336.215        7.366      871.419
01/17/2021  10:23:00       60.118       16.804      -14.373       78.559       68.992       35.392     6171.592     4759.923     1252.560        0.814        0.609       62.422       25.711        0.170      336.200        7.342      871.403
01/17/2021  10:24:00       30.859       14.076       -8.844       39.442       57.715       31.602     1555.667     3331.066      998.695        0.356        0.294       33.918       22.459        0.438      336.239        7.407      871.382
01/17/2021  10:25:00       78.729      -56.616      -22.322       63.045       45.111       39.285     3974.727     2035.006     1543.340        0.873        0.378       96.972       31.883        0.108      336.085        7.150      871.360
01/17/2021  10:26:00       93.942      -21.164      -22.197       51.911       56.153       35.194     2694.716     3153.215     1238.633        0.842        0.354       96.296       29.691        0.095      336.067        7.119      871.346
01/17/2021  10:27:00       92.861       -6.893      -21.196       44.756       41.079       30.436     2003.068     1687.500      926.371        0.687        0.231       93.117       28.292        0.092      335.904        6.848      871.337
01/17/2021  10:28:00       83.261        0.445       -8.609       69.224       57.022       38.568     4792.024     3251.556     1487.520        0.827        0.477       83.262       37.414        0.202      335.960        6.941      871.323
01/17/2021  10:29:00       80.583      -30.666      -29.945       45.705       42.769       25.802     2088.957     1829.170      665.725        0.646        0.229       86.221       25.456        0.087      335.981        6.977      871.311
01/17/2021  10:30:00       11.383      -33.888      -13.066       40.033       41.052       28.842     1602.670     1685.256      831.870        0.278        0.206       35.749       19.088        0.285      336.275        7.468      871.299
01/17/2021  10:31:00       54.915      -17.655      -19.132       48.398       58.557       24.625     2342.398     3428.865      606.409        0.503        0.319       57.683       23.421        0.165      335.993        6.998      871.290
01/17/2021  10:32:00       34.678       33.940       -9.730       42.117       58.125       28.846     1773.878     3378.538      832.086        0.422        0.299       48.523       20.812        0.184      336.499        7.842      871.273
01/17/2021  10:33:00       66.445       18.725      -20.406       56.101       69.127       32.140     3147.301     4778.532     1032.998        0.707        0.448       69.033       25.275        0.134      336.355        7.601      871.264
01/17/2021  10:34:00      159.088       73.657      -33.735       62.069       34.836       29.849     3852.576     1213.515      890.959        1.891        0.298      175.312       29.615        0.029      336.082        7.145      871.259
01/17/2021  10:35:00       37.499       28.189       -0.746       58.830       48.214       33.574     3460.966     2324.628     1127.233        0.456        0.346       46.912       32.697        0.486      336.628        8.058      871.256
01/17/2021  10:36:00       95.526       59.637      -16.153       39.931       39.744       29.721     1594.507     1579.616      883.312        0.850        0.203      112.614       20.386        0.033      336.139        7.242      871.258
01/17/2021  10:37:00       34.731       33.485      -16.355       55.176       32.242       30.399     3044.408     1039.563      924.113        0.380        0.250       48.244       34.069        0.499      336.056        7.103      871.254
01/17/2021  10:38:00       56.240       13.578      -10.224       51.972       52.835       23.654     2701.074     2791.503      559.523        0.475        0.303       57.856       25.581        0.195      336.490        7.826      871.237
01/17/2021  10:39:00       48.691       46.214        4.489       49.789       61.208       34.821     2478.972     3746.401     1212.481        0.598        0.372       67.131       27.376        0.166      336.734        8.234      871.231
01/17/2021  10:40:00       74.772      100.919       -2.453       52.871       46.649       37.071     2795.324     2176.167     1374.250        1.106        0.317      125.600       27.523        0.048      336.537        7.905      871.224
01/17/2021  10:41:00       56.841      -14.759      -12.637       43.414       47.023       35.445     1884.748     2211.185     1256.378        0.448        0.268       58.726       28.566        0.237      336.569        7.959      871.208
01/17/2021  10:42:00      100.321      -56.282      -33.544       73.203       72.227       48.004     5358.686     5216.743     2304.421        1.362        0.644      115.031       41.365        0.129      336.324        7.549      871.174
01/17/2021  10:43:00      103.960      -45.223      -23.975       66.117       57.585       45.567     4371.508     3315.988     2076.337        1.159        0.488      113.370       45.042        0.158      336.094        7.165      871.134
01/17/2021  10:44:00       63.622     -138.387      -25.966       48.692       51.367       24.473     2370.877     2638.587      598.943        1.474        0.280      152.311       22.904        0.023      336.272        7.461      871.117
01/17/2021  10:45:00       76.793      -69.214      -29.404       51.666       66.908       23.294     2669.336     4476.739      542.606        0.962        0.384      103.382       24.927        0.058      336.443        7.749      871.090
01/17/2021  10:46:00       20.551      -24.608       -1.847       40.644       48.644       24.701     1651.934     2366.220      610.124        0.283        0.231       32.060       21.218        0.438      336.766        8.287      871.070
01/17/2021  10:47:00       66.263      -37.808      -16.856       63.473       46.117       29.565     4028.860     2126.767      874.112        0.657        0.351       76.290       30.267        0.157      336.643        8.079      871.060
01/17/2021  10:48:00       82.369      -11.285      -20.088       62.001       64.935       32.013     3844.075     4216.531     1024.827        0.820        0.454       83.138       29.933        0.130      336.595        8.003      871.032
01/17/2021  10:49:00       63.713      -75.089      -21.722       56.389       49.794       31.991     3179.682     2479.456     1023.445        0.842        0.334       98.477       32.255        0.107      336.522        7.880      871.013
01/17/2021  10:50:00       72.730      -74.649      -29.114       47.451       85.515       39.890     2251.639     7312.882     1591.239        1.143        0.558      104.222       31.819        0.093      336.745        8.253      870.992
01/17/2021  10:51:00       80.428      -57.554      -19.339       46.067       38.286       23.522     2122.163     1465.832      553.267        0.715        0.207       98.899       24.431        0.061      336.663        8.116      870.976
01/17/2021  10:52:00       55.567        8.823      -12.523       57.145       79.885       28.925     3265.501     6381.683      836.684        0.690        0.524       56.264       25.090        0.199      336.872        8.465      870.963
01/17/2021  10:53:00      120.416       32.064      -27.445       74.559       83.052       33.452     5559.007     6897.552     1119.025        1.493        0.679      124.612       36.040        0.084      336.406        7.686      870.957
01/17/2021  10:54:00       89.705      -33.796      -26.589       53.524       57.024       26.689     2864.825     3251.749      712.304        0.836        0.341       95.860       22.642        0.056      336.570        7.960      870.932
01/17/2021  10:55:00       82.826      -41.991      -24.422       63.633       50.513       34.976     4049.171     2551.588     1223.287        0.852        0.391       92.862       33.261        0.128      336.882        8.481      870.910
01/17/2021  10:56:00       78.236      -71.075      -15.915       45.711       39.518       26.404     2089.538     1561.691      697.179        0.789        0.217      105.700       24.730        0.055      336.645        8.085      870.895
01/17/2021  10:57:00       60.937      -10.373      -11.976       50.662       52.572       34.822     2566.613     2763.822     1212.576        0.525        0.327       61.813       25.468        0.170      337.057        8.774      870.879
01/17/2021  10:58:00      122.098       73.090      -14.756       73.085       48.804       29.774     5341.369     2381.843      886.492        1.454        0.430      142.303       36.767        0.067      336.622        8.046      870.867
01/17/2021  10:59:00       86.991      -24.705      -11.040       68.817       49.405       33.582     4735.801     2440.828     1127.770        0.830        0.415       90.431       35.806        0.157      336.987        8.657      870.839
01/17/2021  11:00:00       56.045       -8.227      -11.780       47.897       54.306       30.665     2294.080     2949.094      940.340        0.476        0.309       56.645       29.848        0.278      336.832        8.398      870.824
01/17/2021  11:01:00      110.561      -41.895      -16.717       62.988       49.648       31.804     3967.531     2464.972     1011.496        1.085        0.372      118.232       28.238        0.057      336.702        8.181      870.796
01/17/2021  11:02:00       63.033       67.762       -2.743       90.799       42.983       31.712     8244.508     1847.572     1005.674        0.983        0.555       92.547       34.089        0.136      336.879        8.477      870.780
01/17/2021  11:03:00      108.263       73.819      -22.662       52.973       34.176       26.528     2806.092     1167.980      703.729        1.118        0.234      131.034       21.094        0.026      336.791        8.330      870.764
01/17/2021  11:04:00       55.503      -12.424       -2.470       62.675       66.679       34.893     3928.191     4446.127     1217.531        0.641        0.480       56.877       31.418        0.305      337.023        8.719      870.746
01/17/2021  11:05:00       74.690      -39.372      -14.280       72.317       78.506       44.833     5229.704     6163.264     2009.968        1.036        0.670       84.432       50.233        0.354      336.751        8.262      870.718
01/17/2021  11:06:00      111.884       -8.568      -14.598       69.536       46.727       42.211     4835.316     2183.368     1781.805        1.080        0.440      112.212       45.908        0.167      336.771        8.297      870.713
01/17/2021  11:07:00      112.863      -35.900      -47.108       60.529       68.272       40.744     3663.815     4661.046     1660.089        1.311        0.499      118.435       37.182        0.099      336.980        8.646      870.692
01/17/2021  11:08:00       95.870      -15.320      -37.000       64.828       66.223       37.362     4202.653     4385.424     1395.926        1.039        0.499       97.087       31.900        0.108      336.969        8.625      870.687
01/17/2021  11:09:00      106.715      -30.885      -22.652       67.197       43.224       36.117     4515.436     1868.343     1304.463        1.027        0.384      111.094       40.172        0.131      336.693        8.166      870.680
01/17/2021  11:10:00      115.308      -41.792      -23.038       60.884       42.050       29.448     3706.837     1768.211      867.210        1.096        0.317      122.648       34.447        0.079      336.549        7.925      870.688
01/17/2021  11:11:00       60.259      -48.759      -15.560       58.032       91.686       32.935     3367.708     8406.359     1084.684        0.955        0.643       77.515       34.458        0.198      336.799        8.342      870.692
01/17/2021  11:12:00       69.082     -114.584      -33.341       44.550       29.369       25.161     1984.733      862.518      633.085        1.125        0.174      133.798       23.557        0.031      336.686        8.152      870.706
01/17/2021  11:13:00       94.941      -66.643      -27.056       37.646       42.141       21.947     1417.200     1775.879      481.690        0.893        0.184      115.996       20.028        0.030      336.760        8.279      870.712
01/17/2021  11:14:00       95.910       40.015      -18.587       60.387       50.132       31.125     3646.614     2513.199      968.771        0.914        0.356      103.923       33.448        0.104      336.942        8.583      870.726
01/17/2021  11:15:00      123.600       22.743       -9.146       69.006       62.133       40.975     4761.799     3860.568     1678.953        1.309        0.515      125.675       28.261        0.051      337.112        8.866      870.725
01/17/2021  11:16:00       42.209      -55.170      -17.574       42.201       75.512       36.383     1780.950     5702.026     1323.697        0.697        0.440       69.465       26.590        0.147      337.386        9.325      870.713
01/17/2021  11:17:00       75.950      -94.515      -38.229       42.995       52.974       24.011     1848.560     2806.249      576.531        1.070        0.262      121.249       23.383        0.037      336.943        8.584      870.690
01/17/2021  11:18:00      117.297      -39.720      -30.439       41.500       34.735       26.252     1722.260     1206.489      689.143        0.994        0.181      123.840       20.347        0.027      336.827        8.391      870.664
01/17/2021  11:19:00       76.950      -26.023      -15.351       72.104       58.710       41.164     5199.041     3446.909     1694.514        0.859        0.517       81.231       40.898        0.253      336.926        8.556      870.621
01/17/2021  11:20:00       83.083      -35.770      -21.485       48.520       40.040       23.703     2354.201     1603.176      561.838        0.658        0.226       90.456       24.116        0.071      336.826        8.388      870.606
01/17/2021  11:21:00      112.983      -50.230      -24.655       61.705       39.986       29.916     3807.453     1598.911      894.993        1.110        0.315      123.646       15.691        0.016      336.927        8.558      870.565
01/17/2021  11:22:00       92.068      -39.131      -26.652       61.554       46.465       34.715     3788.886     2158.980     1205.144        0.893        0.358      100.038       37.686        0.142      336.926        8.557      870.531
01/17/2021  11:23:00       50.328      -67.609      -16.218       55.323       33.360       25.959     3060.637     1112.907      673.859        0.611        0.242       84.285       24.608        0.085      336.878        8.476      870.493
01/17/2021  11:24:00      -26.919      -15.465       -4.482       38.427       35.807       18.645     1476.657     1282.147      347.638        0.204        0.155       31.045       10.571        0.116      337.062        8.783      870.453
01/17/2021  11:25:00      -15.399      -44.114       -9.937       45.982       30.639       20.158     2114.367      938.756      406.356        0.287        0.173       46.725       13.710        0.086      337.247        9.094      870.424
01/17/2021  11:26:00       69.538      -90.834      -24.894       65.463       62.834       29.131     4285.437     3948.103      848.619        1.139        0.454      114.396       32.452        0.080      337.257        9.109      870.405
01/17/2021  11:27:00       -3.212      -25.054       -4.109       41.231       47.588       31.100     1699.957     2264.602      967.189        0.279        0.247       25.259       21.999        0.759      337.694        9.841      870.395
01/17/2021  11:28:00       21.819      -53.229      -12.748       58.454       32.545       30.768     3416.823     1059.208      946.676        0.445        0.271       57.527       19.998        0.121      337.541        9.584      870.402
01/17/2021  11:29:00       89.323        2.662      -14.923       57.683       65.966       28.452     3327.290     4351.494      809.525        0.835        0.424       89.363       29.330        0.108      337.224        9.054      870.410
01/17/2021  11:30:00       57.353       58.946       -5.914       43.562       23.693       21.124     1897.651      561.379      446.216        0.485        0.145       82.243       24.167        0.086      337.041        8.748      870.425
01/17/2021  11:31:00       40.029       23.880        0.199       33.533       35.635       21.369     1124.493     1269.851      456.621        0.251        0.143       46.611       19.358        0.172      337.474        9.472      870.428
01/17/2021  11:32:00       47.813      -23.767       -2.176       47.663       48.751       28.701     2271.788     2376.615      823.739        0.416        0.274       53.394       26.472        0.246      337.357        9.275      870.412
01/17/2021  11:33:00      114.112       43.340      -19.168       72.039       41.746       32.940     5189.682     1742.747     1085.036        1.164        0.401      122.065       38.766        0.101      337.568        9.630      870.398
01/17/2021  11:34:00      137.712       75.125      -32.026       68.315       50.215       32.680     4666.959     2521.550     1068.001        1.694        0.413      156.871       26.483        0.029      337.397        9.344      870.377
01/17/2021  11:35:00       66.152      -60.236      -22.859       38.513       39.497       27.187     1483.287     1560.033      739.155        0.615        0.189       89.468       23.413        0.068      337.550        9.599      870.346
01/17/2021  11:36:00       29.038       40.361        2.975       35.726       31.606       26.273     1276.332      998.956      690.279        0.272        0.148       49.721       17.517        0.124      337.803       10.024      870.330
01/17/2021  11:37:00       25.601       10.692        0.590       41.565       57.496       28.209     1727.676     3305.765      795.760        0.330        0.291       27.744       27.708        0.997      337.812       10.039      870.295
01/17/2021  11:38:00      -12.836       -3.947        6.460       36.691       28.209       23.299     1346.250      795.741      542.838        0.145        0.134       13.429       12.983        0.935      337.935       10.245      870.274
01/17/2021  11:39:00        6.241       -3.999        3.914       48.986       48.648       31.132     2399.600     2366.599      969.210        0.290        0.287        7.412       18.991        6.565      337.811       10.037      870.264
01/17/2021  11:40:00      106.006      -28.339      -33.196       48.465       36.562       30.398     2348.859     1336.777      924.048        0.888        0.230      109.729       24.954        0.052      337.455        9.440      870.261
01/17/2021  11:41:00      109.053      -58.558      -23.826       81.092       73.218       45.136     6575.960     5360.920     2037.224        1.493        0.699      123.781       49.025        0.157      337.683        9.822      870.239
01/17/2021  11:42:00      112.341        6.577      -27.484       54.630       52.608       36.933     2984.454     2767.603     1364.031        1.027        0.356      112.533       28.200        0.063      337.510        9.534      870.230
01/17/2021  11:43:00       76.766      -20.052        2.750      100.166       59.977       55.849    10033.191     3597.219     3119.117        1.152        0.837       79.342       54.757        0.476      337.689        9.832      870.201
01/17/2021  11:44:00      108.830       -5.860      -24.078       83.864       65.365       39.670     7033.120     4272.632     1573.699        1.267        0.644      108.988       45.166        0.172      337.793       10.007      870.184
01/17/2021  11:45:00       77.270      -16.238      -32.851       75.834       77.637       29.391     5750.785     6027.482      863.860        0.998        0.632       78.958       30.423        0.148      337.907       10.197      870.161
01/17/2021  11:46:00      130.302      -36.835      -21.727       54.837       42.198       32.695     3007.051     1780.675     1068.981        1.233        0.293      135.408       29.611        0.048      337.591        9.669      870.138
01/17/2021  11:47:00      126.407      -62.417      -19.089       80.099       65.288       41.744     6415.827     4262.479     1742.527        1.633        0.621      140.977       41.437        0.086      337.603        9.689      870.113
01/17/2021  11:48:00       88.950      -98.505      -19.828       53.652       60.736       36.599     2878.532     3688.822     1339.519        1.296        0.395      132.723       32.755        0.061      337.543        9.586      870.104
01/17/2021  11:49:00       96.862      -46.265        3.905       81.289       54.464       41.004     6607.865     2966.375     1681.365        1.139        0.563      107.344       48.033        0.200      337.828       10.066      870.086
01/17/2021  11:50:00       93.446     -105.502      -27.538       44.030       42.525       23.180     1938.602     1808.383      537.301        1.245        0.214      140.936       20.970        0.022      337.749        9.935      870.067
01/17/2021  11:51:00       76.356       -3.965      -19.273       62.106       42.014       33.830     3857.097     1765.164     1144.483        0.649        0.338       76.459       29.653        0.150      338.108       10.535      870.047
01/17/2021  11:52:00       51.476      -42.423      -17.682       64.490       74.450       46.575     4158.996     5542.862     2169.256        0.831        0.594       66.704       27.209        0.166      338.145       10.597      870.008
01/17/2021  11:53:00       84.608      -25.369      -26.502       53.589       47.215       25.082     2871.811     2229.279      629.125        0.712        0.287       88.330       26.859        0.092      338.048       10.435      869.994
01/17/2021  11:54:00      -15.844       11.056      -11.475       31.186       34.829       17.856      972.565     1213.072      318.834        0.150        0.125       19.320       14.903        0.595      338.139       10.588      869.982
01/17/2021  11:55:00       62.060      -34.787       -6.884       49.422       65.427       35.003     2442.575     4280.685     1225.222        0.653        0.397       71.145       17.673        0.062      338.223       10.729      869.961
01/17/2021  11:56:00       46.760      -36.784      -10.350       61.876       57.864       39.563     3828.619     3348.299     1565.239        0.619        0.437       59.494       18.191        0.093      338.063       10.461      869.941
01/17/2021  11:57:00       62.004     -109.266      -25.679       64.239       95.666       37.268     4126.681     9151.995     1388.935        1.555        0.733      125.632       46.882        0.139      337.924       10.226      869.927
01/17/2021  11:58:00      108.189     -156.885      -40.301       57.659       58.648       27.840     3324.553     3439.623      775.079        2.274        0.377      190.573       33.523        0.031      337.607        9.693      869.903
01/17/2021  11:59:00       70.002        7.103      -15.650       45.396       65.212       27.464     2060.811     4252.598      754.255        0.613        0.353       70.362       28.077        0.159      337.796       10.011      869.883
01/17/2021  12:00:00       -3.584      -45.879      -20.912       53.087       37.203       26.212     2818.280     1384.087      687.093        0.372        0.244       46.019       20.604        0.200      338.293       10.846      869.844
01/17/2021  12:01:00       23.790      -90.918       -9.318       54.961       60.619       30.789     3020.755     3674.622      947.965        0.828        0.382       93.979       30.533        0.106      338.270       10.807      869.804
01/17/2021  12:02:00       32.724     -130.150      -22.789       52.387       83.438       25.626     2744.414     6961.969      656.676        1.444        0.518      134.201       32.496        0.059      338.089       10.502      869.768
01/17/2021  12:03:00      108.498      -70.694      -25.387       53.880       56.828       33.503     2903.074     3229.388     1122.422        1.233        0.363      129.497       33.272        0.066      337.788        9.998      869.731
01/17/2021  12:04:00       73.052      -83.799      -23.471       67.481       74.818       36.273     4553.671     5597.731     1315.712        1.219        0.573      111.170       34.504        0.096      337.930       10.237      869.684
01/17/2021  12:05:00      100.100     -151.441      -38.877       45.164       62.259       30.592     2039.786     3876.232      935.852        2.066        0.343      181.533       28.044        0.024      337.855       10.111      869.637
01/17/2021  12:06:00      129.685     -188.729      -54.222       80.302       54.679       30.941     6448.380     2989.783      957.346        3.288        0.520      228.991       32.936        0.021      337.945       10.260      869.603
01/17/2021  12:07:00       94.991     -177.036      -40.329       64.292       66.631       39.388     4133.425     4439.665     1551.431        2.606        0.506      200.911       40.837        0.041      337.917       10.214      869.575
01/17/2021  12:08:00       90.972     -147.862      -47.372       61.958       73.012       36.287     3838.769     5330.688     1316.741        2.143        0.524      173.606       34.171        0.039      338.097       10.515      869.550
01/17/2021  12:09:00       46.763     -104.357      -27.689       64.407       47.741       35.748     4148.199     2279.229     1277.919        1.077        0.385      114.356       21.276        0.035      338.200       10.690      869.529
01/17/2021  12:10:00       69.417      -74.358      -26.243       83.085       89.326       31.009     6903.124     7979.081      961.587        1.344        0.792      101.725       35.790        0.124      338.191       10.673      869.506
01/17/2021  12:11:00        4.160      -88.906      -16.174       72.153       56.906       36.494     5206.063     3238.272     1331.812        0.898        0.489       89.003       34.478        0.150      338.356       10.953      869.487
01/17/2021  12:12:00       56.407      -91.509      -10.819       82.438       74.755       37.097     6795.980     5588.292     1376.162        1.271        0.688      107.497       46.143        0.184      338.186       10.666      869.469
01/17/2021  12:13:00       53.864      -98.414      -14.799       59.484       70.365       39.128     3538.303     4951.261     1530.986        1.141        0.501      112.191       43.346        0.149      338.123       10.559      869.440
01/17/2021  12:14:00       95.747      -63.479      -30.235       51.969      114.044       33.895     2700.780    13005.946     1148.845        1.548        0.843      114.878       41.882        0.133      337.924       10.224      869.413
01/17/2021  12:15:00       36.011      -23.753      -18.695       46.133       49.240       35.949     2128.232     2424.623     1292.335        0.403        0.292       43.139       29.688        0.474      338.377       10.987      869.393
01/17/2021  12:16:00       18.163      -15.187       -8.792       51.887       62.056       32.661     2692.225     3850.925     1066.717        0.412        0.380       23.676       33.126        1.958      338.576       11.320      869.368
01/17/2021  12:17:00       60.110       51.926      -12.405       78.610       38.504       34.794     6179.532     1482.524     1210.648        0.767        0.444       79.433       38.235        0.232      338.255       10.782      869.361
01/17/2021  12:18:00       12.508      -75.436      -13.075       62.866       50.059       32.426     3952.175     2505.891     1051.475        0.676        0.375       76.466       26.156        0.117      338.519       11.225      869.337
01/17/2021  12:19:00       96.839     -153.850      -34.882       59.303       51.288       34.968     3516.811     2630.470     1222.742        2.082        0.369      181.790       27.678        0.023      338.040       10.419      869.316
01/17/2021  12:20:00       35.701      -72.277      -14.528       55.875       60.583       41.980     3122.033     3670.261     1762.356        0.763        0.428       80.614       36.458        0.205      338.312       10.878      869.301
01/17/2021  12:21:00       14.597      -91.142      -48.944       78.902       63.940       30.489     6225.562     4088.267      929.564        1.108        0.562       92.304       35.849        0.151      338.202       10.692      869.295
01/17/2021  12:22:00      -34.916      -23.348      -10.615       43.092       28.514       19.788     1856.925      813.064      391.555        0.247        0.153       42.003       19.531        0.216      338.469       11.141      869.293
01/17/2021  12:23:00       50.431     -127.315      -23.064       55.070       61.101       33.093     3032.663     3733.349     1095.157        1.357        0.393      136.940       38.304        0.078      338.393       11.012      869.281
01/17/2021  12:24:00       35.195     -107.134      -27.470       98.158       50.846       34.800     9634.940     2585.290     1211.051        1.345        0.672      112.767       28.105        0.062      338.129       10.571      869.268
01/17/2021  12:25:00      -33.958        5.662        9.024       44.734       63.981       36.596     2001.149     4093.545     1339.234        0.435        0.372       34.427       35.859        1.085      338.465       11.136      869.250
01/17/2021  12:26:00       12.090       -3.030       -4.097       24.031       30.562       21.908      577.481      934.032      479.951        0.108        0.100       12.464       15.223        1.492      338.620       11.395      869.224
01/17/2021  12:27:00       41.401       17.540      -10.080       62.630       39.874       25.508     3922.575     1589.941      650.680        0.414        0.308       44.963       29.583        0.433      338.624       11.401      869.209
01/17/2021  12:28:00      -38.203      -28.167      -18.134       46.721       46.770       23.648     2182.824     2187.406      559.218        0.375        0.246       47.464       11.312        0.057      338.803       11.703      869.176
01/17/2021  12:29:00       73.228        2.149      -15.749       69.711       69.842       37.647     4859.662     4877.910     1417.291        0.838        0.558       73.259       34.145        0.217      338.449       11.106      869.154
01/17/2021  12:30:00      105.203      -54.969      -21.270       72.478       62.041       37.953     5253.090     3849.075     1440.454        1.254        0.527      118.698       36.068        0.092      338.243       10.762      869.123
01/17/2021  12:31:00       69.766      -13.935      -10.915       69.119       47.944       39.830     4777.478     2298.666     1586.397        0.692        0.433       71.144       37.932        0.284      338.356       10.952      869.092
01/17/2021  12:32:00       97.476        8.869      -15.018       56.215       55.124       32.492     3160.123     3038.602     1055.757        0.853        0.363       97.879       25.085        0.066      338.327       10.902      869.080
01/17/2021  12:33:00       76.470       55.772      -16.031       46.471       48.724       27.244     2159.561     2374.046      742.233        0.724        0.264       94.647       17.317        0.033      338.136       10.581      869.066
01/17/2021  12:34:00       35.753       31.099       -6.444       35.433       47.218       24.390     1255.471     2229.583      594.865        0.318        0.204       47.386       23.296        0.242      338.376       10.986      869.055
01/17/2021  12:35:00       75.736       31.796       -7.149       64.238       42.101       29.306     4126.475     1772.479      858.869        0.678        0.338       82.140       32.569        0.157      338.458       11.123      869.037
01/17/2021  12:36:00      112.727        8.475      -10.912       65.059       57.239       31.139     4232.623     3276.294      969.653        1.069        0.424      113.045       31.431        0.077      338.421       11.060      869.024
01/17/2021  12:37:00       63.887       44.941      -18.793       58.149       85.396       45.734     3381.319     7292.473     2091.619        0.961        0.638       78.111       29.552        0.143      338.710       11.545      869.006
01/17/2021  12:38:00       79.253      -49.519      -26.475       34.875       56.319       24.914     1216.250     3171.827      620.708        0.722        0.250       93.452       25.335        0.073      338.480       11.160      868.995
01/17/2021  12:39:00       82.697        0.610      -14.128       32.719       25.188       27.527     1070.536      634.455      757.732        0.475        0.123       82.700       17.362        0.044      338.275       10.815      868.980
01/17/2021  12:40:00       33.772      -25.156       -5.742       63.935       48.830       37.863     4087.688     2384.382     1433.612        0.485        0.395       42.111       34.438        0.669      338.469       11.140      868.956
01/17/2021  12:41:00       93.352      -12.705      -30.621       56.117       51.566       31.701     3149.092     2659.052     1004.927        0.831        0.341       94.212       23.510        0.062      338.495       11.186      868.941
01/17/2021  12:42:00       73.326        4.188      -31.772       47.622       55.156       35.680     2267.850     3042.203     1273.052        0.649        0.329       73.446       28.219        0.148      338.532       11.248      868.930
01/17/2021  12:43:00       59.922      -13.457      -23.581       51.826       54.696       27.965     2685.925     2991.633      782.060        0.539        0.323       61.415       20.870        0.115      338.602       11.365      868.929
01/17/2021  12:44:00       34.675      -55.777      -13.786       43.665       36.002       23.174     1906.661     1296.121      537.047        0.412        0.187       65.677       21.857        0.111      338.574       11.317      868.933
01/17/2021  12:45:00       18.776      -67.680       -5.427       32.861       32.080       22.431     1079.837     1029.121      503.137        0.379        0.131       70.236       21.210        0.091      338.506       11.205      868.927
01/17/2021  12:46:00        1.415      -18.167        1.293       33.962       44.083       22.403     1153.436     1943.328      501.886        0.197        0.180       18.222       10.795        0.351      338.834       11.755      868.933
01/17/2021  12:47:00      138.815       70.335      -17.552       70.042       36.789       35.323     4905.932     1353.406     1247.712        1.601        0.375      155.617       27.473        0.031      338.517       11.223      868.924
01/17/2021  12:48:00      138.519       53.568       -9.056       32.415       25.089       21.275     1050.712      629.448      452.617        1.214        0.107      148.516        5.727        0.001      338.268       10.803      868.917
01/17/2021  12:49:00       51.710       27.145      -22.764       60.392       55.859       23.241     3647.182     3120.219      540.153        0.562        0.365       58.402       18.070        0.096      338.737       11.592      868.899
01/17/2021  12:50:00       43.658       -8.896        5.637       39.867       32.288       21.492     1589.356     1042.539      461.919        0.255        0.155       44.555       12.450        0.078      338.654       11.454      868.881
01/17/2021  12:51:00       25.681       54.048       -9.563       21.396       19.843       14.871      457.796      393.732      221.143        0.237        0.054       59.839       10.838        0.033      338.416       11.052      868.860
01/17/2021  12:52:00       49.127       25.861       -5.371       45.127       68.265       31.120     2036.440     4660.139      968.464        0.539        0.383       55.518       29.895        0.290      338.652       11.449      868.834
01/17/2021  12:53:00      103.858      -55.318      -29.032       49.923       39.080       22.537     2492.268     1527.233      507.913        0.961        0.226      117.671       24.285        0.043      338.449       11.107      868.816
01/17/2021  12:54:00      107.837      -39.851      -23.142       33.569       34.367       15.626     1126.896     1181.096      244.161        0.815        0.128      114.965       11.620        0.010      338.343       10.929      868.796
01/17/2021  12:55:00       55.653       -1.593      -22.217       60.766       45.113       36.854     3692.530     2035.163     1358.194        0.534        0.354       55.676       31.794        0.326      338.871       11.818      868.772
01/17/2021  12:56:00       62.032      -39.410      -33.565       46.436       41.139       22.831     2156.284     1692.433      521.267        0.545        0.218       73.492       22.972        0.098      338.601       11.363      868.743
01/17/2021  12:57:00       15.346      -85.075      -18.093       33.047       16.402       19.223     1092.085      269.013      369.539        0.477        0.087       86.448       16.923        0.038      338.462       11.129      868.706
01/17/2021  12:58:00        2.667      -50.541       -5.148       36.810       67.676       29.869     1354.960     4580.061      892.173        0.471        0.341       50.611        8.002        0.025      338.975       11.991      868.669
01/17/2021  12:59:00       62.340      -36.639      -26.454       35.134       30.709       21.280     1234.427      943.060      452.833        0.428        0.132       72.310       17.048        0.056      338.801       11.699      868.657
01/17/2021  13:00:00       27.452        2.941      -14.279       40.827       42.362       19.310     1666.821     1794.498      372.883        0.240        0.192       27.609       17.266        0.391      339.041       12.103      868.643
01/17/2021  13:01:00       62.436       23.538       -5.724       57.400       70.739       32.218     3294.779     5003.953     1038.015        0.691        0.467       66.725       26.180        0.154      338.931       11.918      868.630
01/17/2021  13:02:00       61.365      -13.770       -3.040       70.695       60.428       44.059     4997.770     3651.492     1941.153        0.728        0.530       62.891       39.308        0.391      338.862       11.801      868.610
01/17/2021  13:03:00      115.394      -24.030      -36.542       54.685       57.451       30.628     2990.463     3300.562      938.072        1.123        0.361      117.869       30.462        0.067      338.705       11.537      868.600
01/17/2021  13:04:00       75.938      -29.315      -15.916       53.152       52.455       34.197     2825.112     2751.570     1169.401        0.681        0.337       81.400       29.970        0.136      338.857       11.795      868.604
01/17/2021  13:05:00       37.351      -70.488      -27.379       54.996       39.802       25.156     3024.599     1584.212      632.807        0.618        0.262       79.773       21.931        0.076      338.719       11.561      868.602
01/17/2021  13:06:00        8.142      -38.578       -6.737       31.408       35.463       19.654      986.442     1257.616      386.278        0.211        0.132       39.428        8.437        0.046      338.729       11.578      868.575
01/17/2021  13:07:00       66.591      -24.866      -13.546       50.608       35.800       29.228     2561.182     1281.636      854.282        0.497        0.235       71.082       14.444        0.041      338.877       11.828      868.558
01/17/2021  13:08:00       48.153       -4.932      -20.965       42.149       57.991       25.371     1776.562     3363.006      643.696        0.428        0.289       48.405       15.766        0.106      339.010       12.051      868.546
01/17/2021  13:09:00       16.941      -47.912       -9.352       39.926       25.521       25.872     1594.072      651.341      669.341        0.279        0.146       50.819       22.257        0.192      338.862       11.802      868.533
01/17/2021  13:10:00       33.260      -70.997      -16.170       56.065       30.124       20.871     3143.311      907.447      435.612        0.545        0.224       78.402       12.555        0.026      338.730       11.579      868.509
01/17/2021  13:11:00       60.234       11.116       -6.711       62.997       48.766       27.342     3968.667     2378.161      747.610        0.544        0.355       61.251       27.516        0.202      339.189       12.354      868.483
01/17/2021  13:12:00      122.799       68.334      -31.466       39.241       19.891       16.983     1539.817      395.650      288.432        1.148        0.111      140.531       12.528        0.008      338.586       11.339      868.473
01/17/2021  13:13:00       35.566       17.768      -15.221       40.456       18.890       18.448     1636.663      356.820      340.327        0.207        0.117       39.757       20.785        0.273      338.719       11.561      868.454
01/17/2021  13:14:00      -42.088       -8.652       18.483       34.085       45.535       29.726     1161.758     2073.452      883.615        0.315        0.206       42.968       18.894        0.193      339.284       12.511      868.421
01/17/2021  13:15:00       58.177      -15.562      -14.527       35.637       57.144       37.660     1269.968     3265.425     1418.276        0.489        0.298       60.222       26.724        0.197      339.045       12.108      868.394
01/17/2021  13:16:00       17.408      -19.213      -10.008       40.732       47.233       20.486     1659.066     2230.991      419.687        0.254        0.215       25.927        9.934        0.147      338.934       11.924      868.378
01/17/2021  13:17:00       19.051       21.929        3.762       42.969       24.537       14.788     1846.330      602.083      218.686        0.176        0.133       29.048        5.220        0.032      339.023       12.072      868.361
01/17/2021  13:18:00       -0.642      -32.077       -6.843       35.140       19.799       19.109     1234.846      392.016      365.145        0.153        0.100       32.084        9.543        0.088      339.408       12.721      868.338
01/17/2021  13:19:00       -5.551      -93.063       -8.545       26.616       38.029       21.046      708.430     1446.230      442.944        0.568        0.130       93.229        8.892        0.009      339.016       12.060      868.307
01/17/2021  13:20:00      -23.557      -32.565       -6.761       25.743       31.017       15.884      662.699      962.039      252.300        0.177        0.094       40.192       10.124        0.063      338.965       11.977      868.285
01/17/2021  13:21:00       19.644      -66.151       -8.409       59.536       41.695       27.837     3544.511     1738.485      774.904        0.544        0.303       69.006       30.762        0.199      339.107       12.213      868.252
01/17/2021  13:22:00       40.253        3.320       -6.662       49.449       56.220       36.026     2445.172     3160.710     1297.901        0.429        0.345       40.389       34.382        0.725      339.259       12.469      868.214
01/17/2021  13:23:00       63.829      -31.535      -15.938       71.136       54.900       36.450     5060.351     3013.990     1328.603        0.736        0.470       71.194       34.824        0.239      339.144       12.276      868.178
01/17/2021  13:24:00       41.340      -17.581      -23.581       79.845       64.027       39.551     6375.177     4099.512     1564.282        0.730        0.602       44.923       38.611        0.739      339.218       12.400      868.146
01/17/2021  13:25:00       78.774      -27.621      -19.297       48.882       52.805       32.648     2389.490     2788.335     1065.891        0.679        0.312       83.476       22.541        0.073      338.976       11.994      868.121
01/17/2021  13:26:00      101.528       47.181      -19.788       48.969       60.399       21.571     2398.007     3648.038      465.301        0.972        0.326      111.956       14.393        0.017      338.917       11.895      868.093
01/17/2021  13:27:00      101.465       65.445       -2.740       45.766       36.927       36.379     2094.544     1363.590     1323.441        0.968        0.239      120.740       27.304        0.051      339.077       12.163      868.068
01/17/2021  13:28:00       99.473       92.815      -13.466       24.780       21.590       12.778      614.045      466.119      163.287        0.997        0.062      136.049        7.942        0.003      338.853       11.787      868.040
01/17/2021  13:29:00       47.795       70.011       -3.909       46.948       24.718       23.826     2204.099      611.002      567.694        0.529        0.169       84.770       27.617        0.106      339.018       12.064      868.012
01/17/2021  13:30:00       55.821       40.969       -2.692       38.099       46.076       25.161     1451.503     2123.016      633.085        0.450        0.210       69.242       12.625        0.033      339.072       12.155      867.986
01/17/2021  13:31:00      -18.267       33.821       -3.717       27.533       24.495       17.216      758.070      600.017      296.397        0.157        0.083       38.439       14.823        0.149      339.101       12.203      867.974
01/17/2021  13:32:00       23.318       24.601      -14.689       40.483       23.136       13.920     1638.860      535.279      193.758        0.187        0.118       33.896       13.542        0.160      339.386       12.683      867.950
01/17/2021  13:33:00       76.811      -74.020      -13.121       47.816       53.523       33.071     2286.378     2864.764     1093.694        0.890        0.312      106.672       29.019        0.074      339.261       12.473      867.924
01/17/2021  13:34:00       58.570     -130.579      -21.409       35.240       44.030       20.093     1241.827     1938.659      403.737        1.226        0.179      143.113       18.948        0.018      339.069       12.150      867.873
01/17/2021  13:35:00       52.699      -59.435      -22.630       39.268       54.872       23.873     1541.948     3010.923      569.937        0.597        0.256       79.434       18.018        0.051      339.320       12.573      867.851
01/17/2021  13:36:00      108.776       49.209      -28.912       57.327       49.953       23.963     3286.362     2495.290      574.245        1.072        0.318      119.389       21.779        0.033      339.159       12.301      867.835
01/17/2021  13:37:00       84.041       73.151       -7.210       55.238       28.378       25.629     3051.275      805.328      656.852        0.849        0.226      111.417       29.992        0.072      339.178       12.334      867.830
01/17/2021  13:38:00       86.890       71.570      -14.448       44.230       39.864       19.572     1956.265     1589.154      383.066        0.840        0.196      112.571       10.691        0.009      339.244       12.445      867.829
01/17/2021  13:39:00       89.381      -87.094      -31.725       50.858       89.634       34.933     2586.531     8034.297     1220.297        1.421        0.592      124.797       28.555        0.052      339.427       12.752      867.819
01/17/2021  13:40:00      127.627       17.626      -34.882       48.281      103.475       27.167     2331.030    10707.057      738.052        1.579        0.689      128.838       18.876        0.021      339.072       12.154      867.800
01/17/2021  13:41:00       72.380      -41.695      -25.913       43.894       70.598       26.294     1926.716     4984.027      691.393        0.762        0.380       83.531       32.200        0.149      339.235       12.431      867.810
01/17/2021  13:42:00       76.601      -89.140      -21.348       29.649       49.250       21.685      879.091     2425.583      470.227        0.902        0.189      117.532       24.333        0.043      339.077       12.163      867.801
01/17/2021  13:43:00       10.973        2.090       -7.907       37.352       48.991       32.072     1395.198     2400.097     1028.609        0.250        0.241       11.170       25.173        5.079      339.502       12.881      867.797
01/17/2021  13:44:00       42.352      -57.167       -6.832       66.022       96.837       38.829     4358.915     9377.440     1507.711        1.017        0.762       71.145       36.971        0.270      339.293       12.528      867.786
01/17/2021  13:45:00       45.553      -34.860      -18.622       52.278       73.963       41.026     2732.938     5470.460     1683.120        0.676        0.494       57.361       34.005        0.351      339.198       12.367      867.778
01/17/2021  13:46:00       59.315       31.268      -14.643       26.989       66.960       19.240      728.401     4483.680      370.164        0.515        0.279       67.051       10.423        0.024      339.103       12.207      867.777
01/17/2021  13:47:00       33.693       23.736       -8.219       31.410       23.967       22.573      986.586      574.433      509.547        0.192        0.104       41.215       20.746        0.253      339.391       12.692      867.765
01/17/2021  13:48:00      -12.511       42.224        3.390       24.369       16.142       14.197      593.850      260.568      201.558        0.150        0.053       44.039       10.012        0.052      339.276       12.501      867.742
01/17/2021  13:49:00       20.630       20.118       -6.046       13.877       19.073       12.671      192.584      363.788      160.547        0.079        0.036       28.815        8.624        0.090      339.317       12.567      867.710
01/17/2021  13:50:00       47.491      -23.408      -12.734       57.052       65.263       30.592     3254.914     4259.321      935.879        0.571        0.423       52.947       30.362        0.329      339.455       12.802      867.670
01/17/2021  13:51:00       51.568      -59.296      -13.103       41.679       66.068       34.395     1737.153     4365.003     1183.036        0.681        0.364       78.583       41.855        0.284      339.395       12.700      867.629
01/17/2021  13:52:00       69.423       29.774      -20.840       26.896       50.413       24.836      723.393     2541.470      616.817        0.501        0.194       75.539       10.141        0.018      339.278       12.502      867.599
01/17/2021  13:53:00       47.337       51.375       -8.846       28.351       24.406       23.153      803.800      595.632      536.045        0.345        0.097       69.859        9.502        0.019      339.313       12.560      867.565
01/17/2021  13:54:00        2.697        0.060       -9.645       31.056       36.838       17.036      964.492     1357.046      290.209        0.136        0.131        2.698       17.674       42.919      339.669       13.161      867.542
01/17/2021  13:55:00       18.045       -6.256        2.426       38.459       52.395       34.150     1479.072     2745.279     1166.247        0.288        0.270       19.099       22.089        1.338      339.597       13.038      867.525
01/17/2021  13:56:00       76.947       31.030       -0.606       62.934       59.628       26.289     3960.711     3555.502      691.108        0.754        0.410       82.968       23.271        0.079      339.387       12.685      867.515
01/17/2021  13:57:00       43.847       29.508       -9.463       35.243       55.809       22.001     1242.061     3114.662      484.061        0.386        0.242       52.852       18.318        0.120      339.631       13.097      867.511
01/17/2021  13:58:00       53.828       18.915      -13.269       69.378       64.106       28.283     4813.258     4109.622      799.908        0.657        0.486       57.054       30.441        0.285      339.820       13.414      867.499
01/17/2021  13:59:00       80.115       37.619      -10.132       52.572       55.883       27.058     2763.839     3122.964      732.114        0.728        0.331       88.507       22.284        0.063      339.676       13.172      867.486
01/17/2021  14:00:00       35.267       -2.394       -2.814       45.258       45.783       35.159     2048.270     2096.078     1236.184        0.332        0.269       35.348       18.194        0.265      339.815       13.408      867.481
01/17/2021  14:01:00       77.130       26.879      -12.150       43.159       32.175       19.080     1862.718     1035.208      364.041        0.504        0.163       81.679       17.497        0.046      339.565       12.986      867.479
01/17/2021  14:02:00       -1.995       27.212       -5.378       28.698       25.235       16.574      823.599      636.811      274.702        0.125        0.087       27.285       14.312        0.275      339.517       12.904      867.469
01/17/2021  14:03:00        4.927       47.702       12.521       26.328       25.454       18.259      693.138      647.911      333.375        0.207        0.084       47.956       15.304        0.102      339.824       13.422      867.448
01/17/2021  14:04:00       91.257       67.440      -14.189       40.448       21.147       21.084     1636.003      447.180      444.527        0.780        0.126      113.473       10.607        0.009      339.391       12.693      867.430
01/17/2021  14:05:00       48.408       43.810       -9.046       44.186       35.104       15.272     1952.402     1232.294      233.242        0.388        0.171       65.289       10.239        0.025      339.431       12.759      867.410
01/17/2021  14:06:00       -2.354       -9.509       -3.813       32.406       33.135       22.581     1050.140     1097.957      509.915        0.138        0.133        9.796       17.483        3.185      339.741       13.282      867.395
01/17/2021  14:07:00        3.260      -65.241      -11.840       55.175       53.884       40.104     3044.306     2903.513     1608.366        0.598        0.378       65.322       16.527        0.064      339.685       13.189      867.386
01/17/2021  14:08:00        4.262       10.987       -3.728       48.807       39.548       23.686     2382.143     1564.059      561.047        0.233        0.225       11.785       10.262        0.758      339.813       13.403      867.391
01/17/2021  14:09:00        1.198      -17.162        4.402       32.743       25.476       21.499     1072.126      649.004      462.200        0.125        0.109       17.204       16.326        0.901      339.888       13.531      867.395
01/17/2021  14:10:00      -10.020        3.130       -0.888       14.742       14.850       19.601      217.331      220.520      384.206        0.047        0.041       10.497        4.216        0.161      340.114       13.912      867.395
01/17/2021  14:11:00        0.197       23.882        3.847       20.816       16.130       12.811      433.289      260.169      164.132        0.072        0.043       23.883        5.353        0.050      339.971       13.669      867.386
01/17/2021  14:12:00        6.047      -26.034       -6.207       18.132       35.035       13.890      328.778     1227.428      192.934        0.125        0.087       26.727        9.612        0.129      340.080       13.855      867.380
01/17/2021  14:13:00       21.263      -42.777      -11.227       29.568       48.619       17.293      874.277     2363.840      299.045        0.297        0.177       47.770       14.757        0.095      339.967       13.665      867.371
01/17/2021  14:14:00       -8.502        2.117       -9.132       31.275       20.637       18.740      978.100      425.903      351.185        0.096        0.088        8.762       14.938        2.907      340.233       14.112      867.356
01/17/2021  14:15:00       20.401      -21.360      -18.788       59.564       53.187       26.840     3547.881     2828.869      720.397        0.416        0.355       29.538       19.030        0.415      339.900       13.550      867.344
01/17/2021  14:16:00       35.792      -19.645      -12.419       48.035       57.348       37.005     2307.364     3288.847     1369.355        0.439        0.348       40.828       26.833        0.432      339.921       13.585      867.342
01/17/2021  14:17:00      -10.701      -13.820      -11.044       34.038       41.057       20.954     1158.611     1685.706      439.069        0.185        0.164       17.479       19.820        1.286      340.133       13.943      867.329
01/17/2021  14:18:00       13.607       -4.904      -10.235       33.087       27.709       19.323     1094.744      767.779      373.392        0.127        0.112       14.464       14.684        1.031      340.292       14.211      867.314
01/17/2021  14:19:00       53.129        8.850      -16.527       57.470       52.272       26.265     3302.854     2732.336      689.836        0.495        0.336       53.861       17.433        0.105      339.942       13.621      867.300
01/17/2021  14:20:00       58.587       39.696      -21.427       30.311       44.719       24.126      918.758     1999.782      582.076        0.448        0.175       70.769       15.447        0.048      339.727       13.258      867.292
01/17/2021  14:21:00       53.124       26.150      -17.057       32.517       56.106       19.855     1057.330     3147.865      394.204        0.420        0.230       59.211       26.147        0.195      339.695       13.204      867.277
01/17/2021  14:22:00       -2.396       14.465        2.341       25.716       27.384        9.193      661.302      749.886       84.513        0.086        0.075       14.662        8.220        0.314      339.698       13.210      867.270
01/17/2021  14:23:00        4.928        4.792       -0.996       17.456       17.318       17.295      304.698      299.910      299.123        0.048        0.045        6.874       11.703        2.898      339.911       13.569      867.261
01/17/2021  14:24:00       -0.042       35.434       -2.279       15.054       11.486       14.855      226.629      131.930      220.670        0.092        0.029       35.434        9.112        0.066      339.870       13.500      867.253
01/17/2021  14:25:00      -13.431        2.365       -8.260       24.179       18.797       12.800      584.619      353.337      163.834        0.068        0.055       13.638       10.986        0.649      339.961       13.654      867.244
01/17/2021  14:26:00      -16.797      -30.527      -14.373       34.469       16.742       15.969     1188.110      280.308      254.999        0.157        0.086       34.843       12.439        0.127      340.056       13.812      867.230
01/17/2021  14:27:00       15.590      -62.467      -18.354       37.163       44.159       20.934     1381.059     1950.049      438.247        0.412        0.188       64.382       13.816        0.046      340.176       14.015      867.205
01/17/2021  14:28:00       62.505      -81.617      -17.046       41.056       48.818       26.757     1685.604     2383.190      715.929        0.782        0.239      102.802       24.546        0.057      339.938       13.614      867.193
01/17/2021  14:29:00       10.248      -24.843      -12.455       42.275       29.480       17.426     1787.195      869.048      303.674        0.192        0.148       26.874       18.135        0.455      340.075       13.845      867.188
01/17/2021  14:30:00       29.206      -43.551       -7.302       83.114       44.332       33.652     6907.960     1965.290     1132.430        0.640        0.500       52.438       30.788        0.345      340.076       13.848      867.171
01/17/2021  14:31:00      110.959     -119.284      -30.798       50.025       43.564       27.639     2502.540     1897.832      763.917        1.633        0.258      162.913       21.435        0.017      339.869       13.499      867.156
01/17/2021  14:32:00       48.545      -42.299        2.455       57.196       45.283       38.358     3271.424     2050.511     1471.326        0.547        0.340       64.388       35.622        0.306      339.977       13.681      867.153
01/17/2021  14:33:00      107.460      -72.644      -31.074       38.400       33.061       23.722     1474.567     1093.058      562.744        1.046        0.157      129.710       22.147        0.029      339.692       13.200      867.134
01/17/2021  14:34:00       67.490     -106.799      -14.552       37.624       32.825       21.532     1415.581     1077.504      463.621        0.956        0.148      126.337       14.643        0.013      339.674       13.169      867.125
01/17/2021  14:35:00       27.452      -61.081      -27.329       39.037       26.552       28.208     1523.901      704.998      795.672        0.413        0.151       66.966       11.664        0.030      339.786       13.357      867.107
01/17/2021  14:36:00       -1.736        5.600       11.120       32.069       23.691       24.593     1028.409      561.276      604.836        0.118        0.110        5.863       23.677       16.309      340.043       13.792      867.104
01/17/2021  14:37:00       21.064       10.714       -4.598       13.474       19.745        9.714      181.536      389.849       94.359        0.062        0.033       23.633        6.252        0.070      339.862       13.486      867.086
01/17/2021  14:38:00      -12.446       28.741       -8.338       22.929       17.402       10.993      525.746      302.839      120.835        0.100        0.047       31.320        4.747        0.023      339.961       13.652      867.077
01/17/2021  14:39:00      -15.188      -32.051       -6.920       22.306       23.266       13.965      497.565      541.286      195.017        0.127        0.062       35.468       11.987        0.114      340.492       14.550      867.057
01/17/2021  14:40:00      -20.511      -30.280      -14.860       20.598       24.789       15.121      424.262      614.494      228.651        0.141        0.063       36.573       12.152        0.110      340.497       14.559      867.036
01/17/2021  14:41:00       10.300      -38.019       -3.049       18.651       42.413       16.381      347.869     1798.862      268.344        0.199        0.121       39.390       20.544        0.272      340.114       13.911      867.025
01/17/2021  14:42:00       49.641      -93.100      -21.440       26.992       54.635       27.943      728.552     2984.962      780.829        0.804        0.225      105.507       25.183        0.057      339.940       13.618      867.017
01/17/2021  14:43:00       36.849       31.799      -10.702       42.305       32.638       21.136     1789.748     1065.245      446.726        0.289        0.165       48.672       12.434        0.065      340.120       13.921      867.010
01/17/2021  14:44:00      118.570       54.559      -19.218       33.001       25.500       18.148     1089.098      650.272      329.368        0.974        0.103      130.520       16.341        0.016      339.884       13.524      867.004
01/17/2021  14:45:00       77.728       61.357      -10.694       32.224       38.281       18.645     1038.382     1465.415      347.643        0.639        0.143       99.027        4.739        0.002      339.985       13.692      866.994
01/17/2021  14:46:00       52.062      -15.476      -20.064       76.263       83.481       30.740     5816.053     6969.098      944.937        0.854        0.687       54.314       39.409        0.526      339.946       13.627      866.990
01/17/2021  14:47:00       63.878      -12.523      -13.431       75.348       76.381       50.375     5677.364     5834.007     2537.671        0.923        0.702       65.094       44.042        0.458      339.850       13.466      866.987
01/17/2021  14:48:00       90.387      -26.921      -16.179       58.597       82.804       37.551     3433.639     6856.488     1410.097        1.043        0.585       94.311       34.672        0.135      339.882       13.519      866.990
01/17/2021  14:49:00       88.025       52.348      -10.813       55.942       49.513       31.268     3129.542     2451.523      977.663        0.858        0.328      102.414       33.024        0.104      339.998       13.716      866.996
01/17/2021  14:50:00      107.103       74.030      -15.692       43.585       22.487       18.320     1899.646      505.681      335.640        0.997        0.137      130.198        9.606        0.005      339.950       13.634      867.005
01/17/2021  14:51:00       22.316       39.860       -6.870       29.134       24.918       13.272      848.787      620.908      176.151        0.189        0.082       45.682        6.209        0.018      339.971       13.669      867.004
01/17/2021  14:52:00       26.724       77.678       -9.898       23.361       20.063       14.750      545.738      402.540      217.548        0.401        0.058       82.146        9.657        0.014      339.974       13.675      866.999
01/17/2021  14:53:00        9.801       70.173      -10.289       16.968       17.133       12.668      287.913      293.532      160.483        0.293        0.037       70.854        7.829        0.012      340.145       13.962      867.004
01/17/2021  14:54:00       25.173       -7.205      -11.859       21.987       25.512       11.255      483.426      650.861      126.675        0.104        0.063       26.184        8.600        0.108      340.172       14.009      866.989
01/17/2021  14:55:00       21.020      -10.022       -2.362       16.448       11.058        9.480      270.543      122.283       89.879        0.052        0.024       23.287        6.518        0.078      340.072       13.841      866.970
01/17/2021  14:56:00        7.602        1.224       -2.522       22.911       10.167       10.293      524.893      103.371      105.938        0.040        0.037        7.700        9.233        1.438      340.066       13.831      866.961
01/17/2021  14:57:00       10.008      -15.935       -3.334       19.834       12.884        9.868      393.388      165.990       97.381        0.051        0.033       18.817        9.208        0.239      340.215       14.081      866.939
01/17/2021  14:58:00       43.378       47.800       -3.963       30.026       22.772       17.817      901.534      518.569      317.430        0.296        0.087       64.548       13.607        0.044      340.103       13.893      866.922
01/17/2021  14:59:00       13.673       44.180       -4.460       14.743       16.412        9.993      217.348      269.343       99.852        0.137        0.029       46.248        5.448        0.014      340.104       13.895      866.910
01/17/2021  15:00:00       19.330        1.923       -3.105       23.574       31.419       13.690      555.749      987.137      187.417        0.106        0.087       19.426       10.233        0.277      340.105       13.896      866.890
01/17/2021  15:01:00       23.117      -34.565       -9.556       37.691       47.685       34.753     1420.595     2273.859     1207.792        0.336        0.245       41.583       26.397        0.403      340.227       14.102      866.878
01/17/2021  15:02:00       56.554        4.056      -14.178       54.378       59.831       29.126     2957.006     3579.790      848.327        0.540        0.369       56.699        8.765        0.024      340.200       14.057      866.855
01/17/2021  15:03:00       44.307       57.253      -14.408       28.654       34.272       20.143      821.036     1174.558      405.744        0.392        0.120       72.395       10.786        0.022      340.103       13.892      866.870
01/17/2021  15:04:00       39.938       31.527       -3.832       18.198       15.293       10.463      331.172      233.865      109.467        0.164        0.034       50.882        8.936        0.031      340.043       13.791      866.865
01/17/2021  15:05:00       18.765       -8.509        0.036       35.961       35.515       24.550     1293.189     1261.311      602.699        0.179        0.158       20.604       21.859        1.126      340.168       14.003      866.856
01/17/2021  15:06:00       25.388       -0.923       -4.359       37.346       33.866       19.122     1394.733     1146.916      365.663        0.179        0.145       25.405       13.647        0.289      340.089       13.872      866.838
01/17/2021  15:07:00        8.491       19.389        1.198       31.628       18.665       14.466     1000.312      348.387      209.252        0.100        0.078       21.167        7.993        0.143      340.272       14.178      866.830
01/17/2021  15:08:00        7.474      -10.786       -0.052       18.291       24.619       15.578      334.545      606.074      242.684        0.068        0.059       13.123       12.497        0.907      340.406       14.404      866.824
01/17/2021  15:09:00       -2.879        4.913       -4.660       27.472       32.725       23.522      754.684     1070.914      553.292        0.122        0.119        5.694       16.874        8.782      340.201       14.059      866.801
01/17/2021  15:10:00        4.987       24.054      -21.862       45.649       42.722       25.768     2083.870     1825.141      663.977        0.283        0.229       24.565       19.712        0.644      340.113       13.912      866.776
01/17/2021  15:11:00       88.149       32.428      -23.063       47.122       64.328       35.594     2220.503     4138.048     1266.897        0.849        0.381       93.925       26.433        0.079      340.151       13.973      866.774
01/17/2021  15:12:00       82.613       52.093      -24.839       36.391       37.030       22.255     1324.307     1371.210      495.302        0.667        0.160       97.666        8.837        0.008      340.051       13.804      866.764
01/17/2021  15:13:00       86.735       38.231       -2.036       29.564       36.000       20.284      874.013     1295.967      411.447        0.578        0.129       94.787       17.170        0.033      340.183       14.028      866.754
01/17/2021  15:14:00       56.008       46.454       -3.655       34.998       26.253       18.106     1224.849      689.237      327.814        0.377        0.112       72.766       15.894        0.048      340.139       13.954      866.751
01/17/2021  15:15:00       44.661       47.755       -4.506       51.143       43.573       23.992     2615.575     1898.569      575.633        0.469        0.254       65.384       14.405        0.049      340.193       14.045      866.734
01/17/2021  15:16:00      152.599       44.592      -15.106       60.001       49.835       31.149     3600.159     2483.528      970.276        1.628        0.353      158.981       26.140        0.027      340.149       13.970      866.715
01/17/2021  15:17:00      134.366       49.395      -20.999       41.407       31.250       25.327     1714.580      976.563      641.462        1.213        0.167      143.158       11.575        0.007      340.079       13.852      866.707
01/17/2021  15:18:00       74.841       47.948      -12.401       28.899       20.905       12.705      835.132      437.001      161.425        0.474        0.072       88.883        7.990        0.008      340.207       14.067      866.701
01/17/2021  15:19:00        6.223      -15.437        4.982       29.083       47.224       30.917      845.841     2230.129      955.836        0.217        0.202       16.645       22.878        1.889      340.419       14.427      866.689
01/17/2021  15:20:00       98.887      -72.244      -25.776       64.626       70.878       48.449     4176.487     5023.635     2347.259        1.360        0.577      122.466       47.453        0.150      340.084       13.859      866.670
01/17/2021  15:21:00       86.266      -70.134      -25.664       43.825       64.925       30.076     1920.662     4215.311      904.565        1.003        0.352      111.178       30.649        0.076      339.927       13.596      866.664
01/17/2021  15:22:00       67.859       44.370       -5.323       47.140       56.680       27.233     2222.168     3212.649      741.610        0.639        0.309       81.077       16.277        0.040      340.110       13.905      866.661
01/17/2021  15:23:00       18.716       33.565       14.141       39.829       44.464       28.363     1586.318     1977.037      804.453        0.302        0.218       38.430       24.004        0.390      340.326       14.269      866.663
01/17/2021  15:24:00       17.395       -4.014       -2.025       27.184       32.189       19.885      738.944     1036.150      395.412        0.125        0.109       17.852       17.264        0.935      340.169       14.003      866.641
01/17/2021  15:25:00       56.406      -18.471       -1.248       64.352       63.131       41.394     4141.210     3985.481     1713.456        0.668        0.492       59.354       32.303        0.296      340.139       13.954      866.606
01/17/2021  15:26:00       49.483      -29.956        0.834       56.447       41.075       43.721     3186.320     1687.141     1911.487        0.506        0.339       57.844       39.709        0.471      340.051       13.804      866.593
01/17/2021  15:27:00       90.190      -27.866      -16.893       56.949       48.973       29.730     3243.161     2398.325      883.869        0.786        0.326       94.396       30.313        0.103      340.029       13.767      866.583
01/17/2021  15:28:00       18.155       -1.930       -3.839       42.394       42.739       27.127     1797.285     1826.650      735.892        0.235        0.218       18.257        9.676        0.281      340.320       14.258      866.570
01/17/2021  15:29:00       32.539      -23.736      -11.172       47.133       53.198       28.710     2221.513     2830.060      824.280        0.381        0.294       40.276       27.280        0.459      340.366       14.338      866.574
01/17/2021  15:30:00       45.443      -43.859      -13.725       33.036       45.394       26.120     1091.357     2060.640      682.271        0.400        0.192       63.157       24.934        0.156      340.314       14.250      866.569
01/17/2021  15:31:00       37.700       17.522       -9.745       36.427       35.910       19.076     1326.917     1289.528      363.885        0.240        0.149       41.573       19.304        0.216      340.178       14.019      866.561
01/17/2021  15:32:00       24.667       16.240       -9.260       26.465       20.211       20.184      700.396      408.471      407.390        0.124        0.076       29.533       14.898        0.254      340.257       14.153      866.555
01/17/2021  15:33:00       46.347      -20.442      -11.149       45.981       50.042       26.471     2114.216     2504.233      700.713        0.400        0.266       50.655       24.340        0.231      340.350       14.310      866.547
01/17/2021  15:34:00       14.966      -25.797      -22.445       57.143       48.821       28.892     3265.305     2383.525      834.741        0.394        0.324       29.823       30.975        1.079      340.427       14.440      866.542
01/17/2021  15:35:00       33.932      -24.429      -16.057       33.417       39.617       26.452     1116.680     1569.510      699.702        0.270        0.169       41.811       14.583        0.122      340.279       14.191      866.547
01/17/2021  15:36:00       42.921        8.405       -4.935       59.425       30.081       21.254     3531.304      904.871      451.726        0.341        0.244       43.736       28.463        0.424      340.441       14.464      866.564
01/17/2021  15:37:00       54.244       47.470      -10.409       48.091       23.861       23.066     2312.725      569.360      532.030        0.436        0.171       72.082       26.251        0.133      340.365       14.335      866.582
01/17/2021  15:38:00       58.510       39.724       -7.099       45.396       35.721       25.898     2060.775     1275.991      670.696        0.453        0.200       70.721       24.266        0.118      340.342       14.295      866.588
01/17/2021  15:39:00       26.694       -9.684      -16.455       42.134       62.804       36.915     1775.284     3944.362     1362.744        0.408        0.354       28.396       29.240        1.060      340.238       14.120      866.587
01/17/2021  15:40:00       94.181      -52.925      -35.619       58.326       76.790       36.730     3401.971     5896.704     1349.069        1.179        0.532      108.033       33.412        0.096      340.080       13.853      866.589
01/17/2021  15:41:00      100.523      -93.273      -30.578       53.377       51.698       30.043     2849.134     2672.722      902.587        1.308        0.321      137.130       26.953        0.039      339.968       13.663      866.578
01/17/2021  15:42:00       56.651      -71.245      -24.571       44.496       39.914       24.618     1979.900     1593.118      606.066        0.653        0.209       91.023       27.104        0.089      340.093       13.875      866.577
01/17/2021  15:43:00       53.566       -9.654       -2.433       45.688       53.999       23.105     2087.389     2915.932      533.854        0.425        0.277       54.429       27.492        0.255      340.272       14.177      866.564
01/17/2021  15:44:00       30.196       30.042       -3.667       33.328       15.834       15.864     1110.762      250.709      251.663        0.172        0.081       42.595       19.353        0.206      340.406       14.404      866.552
01/17/2021  15:45:00       20.570       23.860       -7.162       31.033       17.330       17.696      963.026      300.314      313.157        0.131        0.079       31.502       14.920        0.224      340.337       14.289      866.537
01/17/2021  15:46:00       -0.692       -0.215        3.571       48.462       32.317       33.097     2348.520     1044.398     1095.413        0.225        0.224        0.725       26.805     1366.455      340.369       14.341      866.525
01/17/2021  15:47:00       27.941       32.258       -2.805       42.180       23.698       22.856     1779.181      561.582      522.382        0.235        0.143       42.676       17.234        0.163      340.307       14.237      866.518
01/17/2021  15:48:00       14.134      -15.162      -11.776       54.467       45.821       32.522     2966.636     2099.532     1057.701        0.334        0.306       20.728       32.256        2.422      340.284       14.197      866.509
01/17/2021  15:49:00       39.969      -26.334      -16.900       50.933       46.417       35.320     2594.139     2154.494     1247.522        0.429        0.300       47.865       28.538        0.355      340.123       13.926      866.504
01/17/2021  15:50:00       77.731      -90.714      -14.198       56.363       57.150       27.402     3176.821     3266.133      750.884        1.083        0.360      119.462       32.913        0.076      340.493       14.552      866.492
01/17/2021  15:51:00       71.599     -103.748      -17.813       52.529       43.003       32.059     2759.249     1849.235     1027.776        1.092        0.282      126.056       34.232        0.074      340.559       14.663      866.484
01/17/2021  15:52:00       36.350       24.469      -22.013       50.559       43.833       29.787     2556.216     1921.364      887.284        0.388        0.268       43.818       27.788        0.402      340.508       14.578      866.483
01/17/2021  15:53:00       75.123       18.155       -5.575       72.937       33.281       32.572     5319.782     1107.603     1060.918        0.674        0.374       77.286       36.208        0.219      340.405       14.404      866.481
01/17/2021  15:54:00       81.539       50.097       -8.925       53.052       37.951       27.871     2814.498     1440.305      776.817        0.713        0.252       95.699       30.539        0.102      340.384       14.367      866.485
01/17/2021  15:55:00       97.263       69.271      -19.847       38.263       23.136       20.007     1464.042      535.281      400.264        0.853        0.120      119.409       21.397        0.032      340.382       14.366      866.475
01/17/2021  15:56:00       49.352       65.222       -7.887       33.499       23.447       20.956     1122.214      549.771      439.135        0.443        0.106       81.790       18.574        0.052      340.424       14.435      866.457
01/17/2021  15:57:00       22.126       26.263       -6.861       43.155       22.157       23.022     1862.393      490.952      530.018        0.205        0.144       34.341       23.331        0.462      340.463       14.501      866.440
01/17/2021  15:58:00       48.402       75.830      -12.605       37.353       25.711       19.398     1395.228      661.064      376.275        0.534        0.122       89.961       20.922        0.054      340.476       14.524      866.424
01/17/2021  15:59:00       41.884       58.343      -11.320       32.228       26.902       19.511     1038.674      723.707      380.692        0.371        0.107       71.821       19.938        0.077      340.459       14.494      866.412
01/17/2021  16:00:00       45.580       89.914      -11.225       35.356       35.324       20.769     1250.060     1247.778      431.360        0.661        0.146      100.807       19.479        0.037      340.486       14.540      866.410
01/17/2021  16:01:00       25.183       92.866       -6.294       32.604       25.783       18.824     1063.050      664.753      354.353        0.569        0.104       96.220       18.200        0.036      340.564       14.672      866.406
01/17/2021  16:02:00        7.930       64.092      -19.482       35.817       26.556       15.673     1282.873      705.211      245.642        0.339        0.112       64.580       19.787        0.094      340.583       14.704      866.404
01/17/2021  16:03:00      -15.003       57.893       -5.569       35.335       17.038       20.048     1248.576      290.310      401.934        0.277        0.097       59.806       21.385        0.128      340.910       15.258      866.402
01/17/2021  16:04:00       21.457       74.317       -7.494       31.947       25.588       18.751     1020.586      654.757      351.603        0.403        0.101       77.353       21.060        0.074      340.624       14.772      866.403
01/17/2021  16:05:00       20.164       50.393      -10.847       37.464       14.765       16.325     1403.577      218.018      266.508        0.248        0.094       54.277       19.035        0.123      340.551       14.649      866.397
01/17/2021  16:06:00       41.060       35.592       -6.663       35.801       10.831       15.227     1281.693      117.300      231.859        0.231        0.082       54.339       17.072        0.099      340.459       14.496      866.390
01/17/2021  16:07:00       41.034       37.924       -4.846       38.229       16.541       19.428     1461.486      273.609      377.435        0.263        0.106       55.876       23.711        0.180      340.482       14.534      866.377
01/17/2021  16:08:00       55.708       25.024       -0.392       29.173       16.798       17.177      851.065      282.171      295.041        0.258        0.071       61.070       15.143        0.061      340.417       14.425      866.358
01/17/2021  16:09:00       83.393       47.315       -2.666       25.533       18.210       17.513      651.928      331.610      306.695        0.524        0.065       95.881       13.951        0.021      340.406       14.402      866.335
01/17/2021  16:10:00       55.131        4.256      -14.422       30.757       34.883       20.104      945.965     1216.824      404.155        0.292        0.128       55.295       20.822        0.142      340.400       14.396      866.325
01/17/2021  16:11:00       60.225       25.362       -8.625       37.965       28.177       19.594     1441.361      793.934      383.912        0.348        0.131       65.347       22.043        0.114      340.467       14.509      866.307
01/17/2021  16:12:00       89.464       49.470       -8.703       37.071       35.803       23.530     1374.242     1281.826      553.667        0.687        0.160      102.230       19.875        0.038      340.536       14.624      866.300
01/17/2021  16:13:00      131.538       49.905      -18.667       29.281       17.895       17.285      857.364      320.213      298.760        1.081        0.074      140.687       19.497        0.019      340.459       14.495      866.310
01/17/2021  16:14:00      103.159       47.564      -17.562       29.226       10.633       14.038      854.141      113.063      197.076        0.719        0.058      113.596       12.761        0.013      340.451       14.481      866.307
01/17/2021  16:15:00       42.420       51.741       -4.343       31.025       22.148       17.205      962.566      490.533      296.007        0.312        0.087       66.907       17.385        0.068      340.385       14.369      866.307
01/17/2021  16:16:00       24.671       31.735       -8.765       23.982       12.675       14.603      575.114      160.644      213.248        0.132        0.047       40.196       15.430        0.147      340.494       14.552      866.298
01/17/2021  16:17:00       29.944       -4.550       -8.202       25.691       25.863       15.711      660.049      668.904      246.847        0.128        0.079       30.288       17.409        0.330      340.265       14.167      866.297
01/17/2021  16:18:00       28.364        1.499       -1.286       27.469       15.696       17.837      754.528      246.371      318.170        0.106        0.066       28.404       18.383        0.419      340.208       14.069      866.291
01/17/2021  16:19:00       22.685       13.096        0.099       30.018       14.732       14.544      901.066      217.017      211.536        0.101        0.066       26.194       18.688        0.509      340.421       14.431      866.286
01/17/2021  16:20:00       30.335       37.181        2.331       26.756       20.642       16.373      715.879      426.095      268.065        0.186        0.071       47.986       13.554        0.080      340.439       14.461      866.275
01/17/2021  16:21:00       26.540       64.025        0.377       32.495       28.192       20.206     1055.895      794.787      408.271        0.353        0.113       69.308       18.584        0.072      340.485       14.538      866.260
01/17/2021  16:22:00       65.119       40.552       -6.179       33.503       15.889       16.237     1122.484      252.461      263.633        0.378        0.082       76.714       19.778        0.066      340.369       14.342      866.248
01/17/2021  16:23:00       90.951       27.579       -4.113       31.329       16.665       20.507      981.526      277.733      420.527        0.536        0.084       95.040       21.822        0.053      340.373       14.349      866.240
01/17/2021  16:24:00       73.911       30.804       -1.319       33.310       22.223       17.717     1109.583      493.875      313.901        0.416        0.096       80.073       17.618        0.048      340.309       14.239      866.245
01/17/2021  16:25:00       56.134       39.592       -2.704       33.509       13.854       18.241     1122.861      191.924      332.722        0.319        0.082       68.692       19.570        0.081      340.331       14.278      866.246
01/17/2021  16:26:00       59.799       44.565       -5.649       41.682       13.825       18.727     1737.373      191.130      350.706        0.394        0.114       74.578       23.610        0.100      340.372       14.346      866.251
01/17/2021  16:27:00       46.894       37.524       -4.850       37.535       13.630       19.578     1408.879      185.784      383.292        0.280        0.099       60.060       22.602        0.142      340.307       14.238      866.260
01/17/2021  16:28:00       52.514       54.320       -8.607       40.624       22.794       21.495     1650.339      519.581      462.029        0.421        0.132       75.554       21.182        0.079      340.343       14.297      866.253
01/17/2021  16:29:00       67.877       48.777       -6.468       43.442       22.885       22.429     1887.240      523.735      503.048        0.497        0.146       83.585       26.314        0.099      340.320       14.260      866.251
01/17/2021  16:30:00       77.031       52.487       -7.101       38.173       12.827       19.781     1457.179      164.526      391.297        0.538        0.101       93.213       24.690        0.070      340.251       14.142      866.259
01/17/2021  16:31:00      109.069       54.531       -8.603       38.622       19.530       18.688     1491.634      381.425      349.251        0.858        0.111      121.942       21.156        0.030      340.253       14.145      866.251
01/17/2021  16:32:00      143.702       75.986      -14.819       67.142       30.353       26.706     4508.114      921.334      713.185        1.639        0.307      162.555       35.472        0.048      340.275       14.183      866.247
01/17/2021  16:33:00      136.714       59.140      -17.612       40.839       30.382       22.823     1667.827      923.056      520.885        1.280        0.156      148.957       22.630        0.023      340.189       14.038      866.246
01/17/2021  16:34:00      142.144       56.744      -15.720       36.820       35.102       26.065     1355.693     1232.124      679.379        1.347        0.163      153.052       20.707        0.018      340.164       13.996      866.253
01/17/2021  16:35:00      155.299       69.460      -13.722       42.371       19.945       23.584     1795.261      397.794      556.213        1.594        0.137      170.124       27.661        0.026      340.267       14.168      866.268
01/17/2021  16:36:00      148.841       73.451      -15.636       40.252       22.859       23.248     1620.205      522.516      540.449        1.524        0.134      165.978       26.778        0.026      340.255       14.149      866.278
01/17/2021  16:37:00      159.567       64.742      -17.003       39.270       24.797       23.820     1542.107      614.908      567.393        1.633        0.136      172.200       26.363        0.023      340.278       14.187      866.287
01/17/2021  16:38:00      118.252       59.727       -9.387       35.932       28.929       19.330     1291.126      836.879      373.666        1.007        0.125      132.480       22.353        0.028      340.215       14.081      866.302
01/17/2021  16:39:00      128.826       67.377      -16.408       39.355       31.233       20.042     1548.814      975.482      401.700        1.216        0.146      145.381       22.412        0.024      340.257       14.151      866.307
01/17/2021  16:40:00      117.421       58.165      -16.476       47.809       16.657       20.508     2285.734      277.471      420.570        1.021        0.149      131.038       27.096        0.043      340.240       14.125      866.317
01/17/2021  16:41:00       94.581       58.991       -6.094       36.171       17.264       18.967     1308.328      298.044      359.732        0.721        0.098      111.469       21.429        0.037      340.152       13.975      866.322
01/17/2021  16:42:00      122.198       57.885      -10.206       54.640       28.172       26.643     2985.546      793.641      709.831        1.144        0.224      135.214       32.438        0.058      340.167       14.001      866.322
01/17/2021  16:43:00      112.162       54.885       -3.758       54.847       29.321       29.786     3008.180      859.703      887.201        1.018        0.238      124.871       32.725        0.069      340.126       13.930      866.318
01/17/2021  16:44:00      130.186       62.326      -13.793       45.834       23.446       23.976     2100.742      549.720      574.831        1.212        0.161      144.336       31.441        0.047      340.206       14.067      866.317
01/17/2021  16:45:00      106.723       49.792      -14.111       52.089       20.699       26.808     2713.252      428.465      718.670        0.896        0.193      117.767       33.617        0.081      340.136       13.948      866.307
01/17/2021  16:46:00      117.869       63.134      -13.163       32.179       13.929       18.119     1035.516      194.013      328.299        0.980        0.078      133.712       19.328        0.021      340.208       14.069      866.302
01/17/2021  16:47:00      136.867       74.552      -13.278       43.793       14.887       23.961     1917.810      221.622      574.153        1.359        0.136      155.854       30.660        0.039      340.218       14.085      866.294
01/17/2021  16:48:00      105.493       61.743      -14.428       37.500       20.637       21.496     1406.286      425.902      462.084        0.872        0.115      122.234       23.348        0.036      340.108       13.901      866.289
01/17/2021  16:49:00      120.021       51.886      -18.894       36.674       17.888       19.094     1345.015      319.966      364.587        0.974        0.101      130.756       18.570        0.020      340.125       13.929      866.285
01/17/2021  16:50:00      121.893       50.847      -14.463       43.340       25.637       22.671     1878.375      657.264      513.974        1.035        0.152      132.074       24.271        0.034      339.999       13.718      866.281
01/17/2021  16:51:00      154.615       65.694      -28.369       47.396       21.886       25.052     2246.394      479.015      627.617        1.619        0.168      167.993       28.641        0.029      339.998       13.715      866.284
01/17/2021  16:52:00      106.264       52.296       -8.779       47.440       20.548       20.251     2250.523      422.224      410.111        0.859        0.154      118.435       26.285        0.049      340.055       13.810      866.291
01/17/2021  16:53:00      132.008       56.105      -13.526       48.627       32.659       27.320     2364.593     1066.604      746.371        1.247        0.209      143.436       31.872        0.049      340.055       13.811      866.296
01/17/2021  16:54:00      142.027       63.659      -15.642       48.368       21.061       26.516     2339.509      443.565      703.094        1.398        0.174      155.642       33.422        0.046      340.075       13.846      866.297
01/17/2021  16:55:00      122.650       70.337      -15.623       38.934       15.230       21.913     1515.861      231.961      480.183        1.123        0.111      141.387       26.935        0.036      340.080       13.854      866.295
01/17/2021  16:56:00      109.667       58.622       -9.123       42.699       17.164       22.431     1823.238      294.600      503.141        0.908        0.131      124.352       25.758        0.043      339.991       13.703      866.296
01/17/2021  16:57:00       72.599       59.784       -5.619       41.854       16.874       23.887     1751.747      284.741      570.601        0.574        0.130       94.047       25.704        0.075      339.916       13.577      866.293
01/17/2021  16:58:00       47.057       44.915       -2.040       49.363       21.415       26.673     2436.699      458.594      711.467        0.392        0.180       65.052       28.501        0.192      339.941       13.619      866.282
01/17/2021  16:59:00       58.072       45.946       -8.530       42.528       21.080       23.592     1808.630      444.367      556.560        0.418        0.140       74.050       27.714        0.140      339.927       13.596      866.271
01/17/2021  17:00:00       55.226       50.567       -5.784       47.157       25.927       25.053     2223.766      672.229      627.639        0.458        0.176       74.879       31.011        0.172      339.979       13.682      866.255
01/17/2021  17:01:00       45.901       53.902       -5.277       34.397       25.917       18.481     1183.179      671.683      341.554        0.362        0.110       70.798       21.267        0.090      340.005       13.727      866.234
01/17/2021  17:02:00       40.374       58.482       -3.152       31.692       21.432       22.772     1004.395      459.342      518.581        0.352        0.099       71.065       20.648        0.084      339.958       13.647      866.211
01/17/2021  17:03:00       42.315       41.247       -1.720       42.274       20.748       21.673     1787.080      430.461      469.704        0.309        0.134       59.093       26.314        0.198      339.939       13.616      866.190
01/17/2021  17:04:00       55.108       44.162        1.207       37.799       16.697       23.135     1428.729      278.778      535.211        0.362        0.112       70.620       22.430        0.101      339.918       13.581      866.176
01/17/2021  17:05:00       64.250       51.597       -8.084       32.734       13.278       16.635     1071.489      176.294      276.734        0.419        0.076       82.403       20.485        0.062      339.891       13.535      866.160
01/17/2021  17:06:00       69.297       49.598       -9.205       45.628       13.682       21.760     2081.906      187.190      473.505        0.504        0.137       85.218       28.529        0.112      339.892       13.537      866.148
01/17/2021  17:07:00       47.725       40.945       -1.071       34.380       16.425       19.495     1182.004      269.786      380.048        0.289        0.092       62.882       21.952        0.122      339.820       13.416      866.144
01/17/2021  17:08:00       48.768       40.606       -3.797       40.759       13.992       21.241     1661.258      195.778      451.183        0.317        0.115       63.460       26.699        0.177      339.831       13.434      866.139
01/17/2021  17:09:00       33.937       41.115       -8.018       26.414       19.230       16.365      697.698      369.776      267.807        0.212        0.067       53.312       15.699        0.087      339.810       13.399      866.137
01/17/2021  17:10:00       38.935       62.542      -13.256       44.318       14.712       20.373     1964.057      216.442      415.068        0.410        0.130       73.671       27.202        0.136      339.889       13.533      866.124
01/17/2021  17:11:00      -12.464       14.486       -0.836       36.887       16.194       19.786     1360.687      262.253      391.468        0.119        0.101       19.109       15.232        0.635      339.534       12.934      866.124
01/17/2021  17:12:00      -84.663       40.318      -13.166       29.709       28.168       19.954      882.636      793.430      398.171        0.552        0.104       93.773       11.308        0.015      338.848       11.779      866.123
01/17/2021  17:13:00     -131.574       34.154      -15.725       42.237       43.201       25.987     1784.002     1866.328      675.336        1.152        0.216      135.935       13.967        0.011      338.720       11.563      866.122
01/17/2021  17:14:00     -129.348       40.248      -10.517       62.933       35.041       25.884     3960.612     1227.893      670.001        1.216        0.293      135.466       19.461        0.021      338.798       11.694      866.132
01/17/2021  17:15:00     -122.908       17.559       -0.657       61.972       36.293       28.467     3840.546     1317.168      810.396        1.069        0.298      124.156       22.557        0.033      338.610       11.379      866.140
01/17/2021  17:16:00     -131.401       41.084       -7.553       61.308       44.833       31.846     3758.705     2009.965     1014.162        1.290        0.339      137.675       33.282        0.058      338.544       11.269      866.147
01/17/2021  17:17:00      -85.460       10.194       -5.723       70.105       39.323       28.524     4914.747     1546.311      813.626        0.736        0.364       86.066       29.305        0.116      338.495       11.185      866.162
01/17/2021  17:18:00      -61.786        8.699       -9.720       60.620       39.564       29.769     3674.748     1565.289      886.170        0.506        0.306       62.395       20.013        0.103      338.442       11.095      866.177
01/17/2021  17:19:00        1.121        1.733       -8.934       64.096       31.863       30.119     4108.236     1015.282      907.125        0.306        0.302        2.063       29.474      204.034      338.393       11.014      866.193
01/17/2021  17:20:00       -1.879        3.798      -12.564       54.100       33.884       24.176     2926.803     1148.098      584.459        0.242        0.233        4.237       18.796       19.676      338.348       10.939      866.204
01/17/2021  17:21:00      -54.990       12.583       -9.865       53.460       40.843       29.424     2858.017     1668.155      865.762        0.433        0.270       56.411       24.713        0.192      338.374       10.981      866.220
01/17/2021  17:22:00      -83.180       -2.634       -7.596       61.181       42.455       31.371     3743.135     1802.437      984.154        0.676        0.326       83.222       23.866        0.082      338.367       10.970      866.231
01/17/2021  17:23:00      -30.566       10.480        1.868       63.428       31.839       26.162     4023.145     1013.700      684.460        0.338        0.286       32.312       13.026        0.163      338.228       10.737      866.231
01/17/2021  17:24:00     -108.590       29.283      -21.763       49.177       27.533       24.304     2418.341      758.060      590.681        0.844        0.188      112.469       15.306        0.019      338.221       10.724      866.232
01/17/2021  17:25:00      -50.253      -12.394      -13.541       53.059       33.077       18.966     2815.256     1094.109      359.696        0.356        0.213       51.759       18.666        0.130      338.126       10.565      866.226
01/17/2021  17:26:00      -57.536       18.623      -12.873       47.971       26.145       21.557     2301.211      683.567      464.703        0.364        0.172       60.475       17.615        0.085      338.166       10.631      866.214
01/17/2021  17:27:00      -74.583       18.122       -8.364       34.533       28.121       19.893     1192.550      790.764      395.713        0.417        0.119       76.753       10.989        0.020      338.075       10.480      866.216
01/17/2021  17:28:00      -55.247        1.874      -10.341       33.612       27.765       20.437     1129.769      770.882      417.654        0.274        0.116       55.279       11.698        0.045      338.129       10.569      866.212
01/17/2021  17:29:00      -43.296        6.327       -9.249       42.889       21.327       17.237     1839.427      454.854      297.121        0.230        0.130       43.756        3.188        0.005      338.182       10.660      866.221
01/17/2021  17:30:00       -8.520       -2.315       -8.857       20.223       20.574       11.760      408.971      423.306      138.308        0.056        0.049        8.829       12.453        1.989      338.191       10.676      866.230
01/17/2021  17:31:00      -23.669        1.357      -14.841       26.530       12.363       17.141      703.841      152.853      293.813        0.097        0.058       23.707        9.988        0.177      338.194       10.679      866.242
01/17/2021  17:32:00      -29.447        4.069      -10.929       31.057       19.262       18.019      964.525      371.027      324.691        0.133        0.083       29.727       13.202        0.197      338.273       10.812      866.252
01/17/2021  17:33:00      -44.497       -3.166      -13.982       23.215       14.260       12.943      538.920      203.359      167.521        0.155        0.045       44.609        8.269        0.034      337.981       10.321      866.266
01/17/2021  17:34:00      -44.887        0.759       -7.112       23.233       13.715       14.287      539.778      188.113      204.105        0.150        0.047       44.893        9.002        0.040      337.984       10.327      866.281
01/17/2021  17:35:00      -42.353       -9.314      -14.371       21.052       25.068       16.189      443.193      628.408      262.080        0.171        0.067       43.365       18.190        0.176      337.779        9.983      866.301
01/17/2021  17:36:00      -20.719        4.905      -11.972       31.850       16.220       19.299     1014.400      263.104      372.454        0.112        0.082       21.292       13.688        0.413      337.847       10.096      866.309
01/17/2021  17:37:00       22.812       24.227        0.108       31.309       26.035       18.919      980.259      677.846      357.914        0.156        0.101       33.276       10.109        0.092      338.359       10.956      866.320
01/17/2021  17:38:00       24.265       51.856       -7.268       22.254       38.547       15.986      495.219     1485.876      255.552        0.278        0.112       57.253       11.946        0.044      338.644       11.435      866.338
01/17/2021  17:39:00       32.540      130.290       -8.373       33.939       44.207       25.210     1151.887     1954.292      635.534        1.092        0.187      134.292       23.990        0.032      338.844       11.771      866.354
01/17/2021  17:40:00       24.825      120.789      -11.082       42.843       26.343       21.747     1835.563      693.928      472.938        0.917        0.150      123.314       21.083        0.029      338.993       12.022      866.377
01/17/2021  17:41:00       25.092      111.788      -12.954       28.739       22.706       19.891      825.937      515.540      395.671        0.752        0.087      114.570       11.024        0.009      339.002       12.037      866.399
01/17/2021  17:42:00       -7.369      116.116      -11.379       34.456       23.916       19.806     1187.243      571.975      392.285        0.791        0.108      116.350       15.512        0.018      338.918       11.895      866.414
01/17/2021  17:43:00      -27.677       46.739       -1.919       29.486       31.021       22.072      869.430      962.312      487.189        0.264        0.116       54.319       16.105        0.088      338.719       11.562      866.429
01/17/2021  17:44:00      -49.523      133.679       -6.055       37.803       73.901       21.365     1429.056     5461.344      456.448        1.385        0.367      142.557       17.623        0.015      338.542       11.264      866.451
01/17/2021  17:45:00      -52.563      184.764      -15.878       50.529       65.483       28.295     2553.179     4288.046      800.586        2.240        0.382      192.095       15.643        0.007      338.811       11.715      866.474
01/17/2021  17:46:00       12.030      142.357       -5.503       60.028       47.208       26.588     3603.370     2228.555      706.915        1.349        0.327      142.864       20.425        0.020      338.872       11.819      866.505
01/17/2021  17:47:00        0.071       70.414       -7.740       56.042       47.132       21.230     3140.732     2221.393      450.711        0.541        0.291       70.414       13.178        0.035      338.773       11.653      866.533
01/17/2021  17:48:00       31.772      111.216       -5.304       71.123       76.962       29.977     5058.456     5923.152      898.599        1.264        0.594      115.666       34.396        0.088      338.556       11.287      866.555
01/17/2021  17:49:00       85.712      185.980      -22.089       49.452       56.460       34.421     2445.514     3187.720     1184.812        2.462        0.341      204.781       30.257        0.022      338.396       11.017      866.576
01/17/2021  17:50:00       72.232      226.170      -20.461       36.725       72.295       27.216     1348.717     5226.567      740.725        3.205        0.366      237.425       31.175        0.017      338.334       10.914      866.574
01/17/2021  17:51:00        9.886      168.748       -9.266       50.759       56.093       30.013     2576.499     3146.445      900.769        1.764        0.331      169.038       24.686        0.021      338.270       10.806      866.567
01/17/2021  17:52:00      -58.374      171.144       -4.273       55.911       69.143       31.543     3126.027     4780.735      994.977        2.081        0.445      180.825       23.895        0.017      338.227       10.731      866.550
01/17/2021  17:53:00       -0.637      216.255      -13.888       57.405       52.380       29.833     3295.372     2743.634      889.994        2.694        0.346      216.256       27.730        0.016      338.106       10.529      866.542
01/17/2021  17:54:00      -23.508      182.721       -6.798       35.828       42.364       23.825     1283.658     1794.713      567.626        1.882        0.182      184.227       22.340        0.015      338.041       10.422      866.532
01/17/2021  17:55:00      -56.192      112.769       -8.978       60.978       42.519       32.272     3718.290     1807.840     1041.491        1.126        0.328      125.994       10.271        0.007      338.156       10.616      866.527
01/17/2021  17:56:00       10.898      181.867       -9.684       58.882       53.318       25.941     3467.079     2842.836      672.948        2.013        0.349      182.193       14.565        0.006      338.050       10.438      866.527
01/17/2021  17:57:00      -38.539       64.148       -3.666       49.777       55.098       30.585     2477.758     3035.819      935.416        0.603        0.322       74.834       14.024        0.035      338.113       10.543      866.519
01/17/2021  17:58:00      -98.280       84.333      -18.520       49.576       60.319       33.414     2457.740     3638.364     1116.476        1.216        0.361      129.503       19.258        0.022      338.136       10.581      866.510
01/17/2021  17:59:00      -40.668      124.729      -10.893       32.320       38.015       27.209     1044.597     1445.149      740.325        1.028        0.162      131.191        6.109        0.002      338.140       10.589      866.507
01/17/2021  18:00:00       -8.926      162.613      -17.195       47.900       52.491       34.681     2294.455     2755.320     1202.755        1.653        0.313      162.858       29.054        0.032      338.025       10.395      866.510
01/17/2021  18:01:00       -9.826       82.378       -3.462       44.992       31.331       25.479     2024.249      981.651      649.154        0.527        0.183       82.961        9.199        0.012      338.045       10.431      866.506
01/17/2021  18:02:00      -38.028       90.680       -7.361       38.834       29.601       22.749     1508.107      876.203      517.509        0.631        0.145       98.331       14.658        0.022      338.080       10.488      866.495
01/17/2021  18:03:00      -33.963       73.982       -3.788       24.543       30.081       20.016      602.383      904.889      400.639        0.427        0.095       81.405        7.845        0.009      338.172       10.643      866.485
01/17/2021  18:04:00      -46.308      109.379       -0.795       27.381       44.396       21.775      749.728     1970.996      474.152        0.865        0.160      118.778       19.095        0.026      338.140       10.589      866.478
01/17/2021  18:05:00      -24.165       85.877      -12.147       47.658       56.712       22.752     2271.277     3216.201      517.649        0.705        0.300       89.212       20.094        0.051      338.055       10.447      866.480
01/17/2021  18:06:00      -56.968       60.569        1.835       46.135       51.116       19.635     2128.444     2612.815      385.514        0.602        0.256       83.150       12.779        0.024      338.112       10.541      866.479
01/17/2021  18:07:00      -97.975      105.599       -6.255       75.603       47.646       31.306     5715.867     2270.123      980.094        1.488        0.448      144.050       33.444        0.054      338.177       10.649      866.471
01/17/2021  18:08:00      -51.479      120.891      -12.672       51.878       48.722       23.397     2691.294     2373.853      547.440        1.152        0.281      131.395       13.629        0.011      338.070       10.472      866.470
01/17/2021  18:09:00      -63.767       92.471       -2.855       79.468       67.639       35.405     6315.203     4575.055     1253.525        1.238        0.607      112.326       39.762        0.125      338.126       10.565      866.464
01/17/2021  18:10:00      -35.018      103.125       -0.258       59.701       46.490       35.334     3564.195     2161.346     1248.473        0.942        0.349      108.909       27.531        0.064      338.102       10.525      866.467
01/17/2021  18:11:00      -66.248      174.515      -11.926       46.176       52.568       28.234     2132.229     2763.376      797.139        2.034        0.285      186.666       15.014        0.006      338.057       10.449      866.458
01/17/2021  18:12:00      -76.690      102.275       -9.681       46.745       41.337       28.028     2185.123     1708.782      785.582        1.056        0.234      127.834       18.169        0.020      338.277       10.818      866.444
01/17/2021  18:13:00      -67.178       55.717      -18.526       52.627       72.153       36.538     2769.621     5206.061     1335.011        0.863        0.466       87.277       24.460        0.079      338.161       10.625      866.433
01/17/2021  18:14:00      -64.299       70.508        2.799       43.630       71.320       25.998     1903.610     5086.554      675.874        0.839        0.383       95.424       22.858        0.057      338.038       10.419      866.421
01/17/2021  18:15:00     -135.029       92.937      -14.657       70.766       80.361       45.845     5007.889     6457.847     2101.772        2.032        0.678      163.921       32.677        0.040      338.156       10.613      866.408
01/17/2021  18:16:00      -92.758       68.448       -5.961       58.361       48.589       36.361     3406.014     2360.932     1322.111        1.021        0.354      115.279       19.786        0.029      338.032       10.407      866.411
01/17/2021  18:17:00      -68.608       38.424       -9.776       66.525       48.571       26.817     4425.542     2359.139      719.126        0.689        0.375       78.635       17.824        0.051      338.021       10.389      866.414
01/17/2021  18:18:00      -58.278       71.715       -8.195       36.830       41.897       24.925     1356.437     1755.334      621.254        0.617        0.187       92.409       18.419        0.040      338.022       10.390      866.433
01/17/2021  18:19:00      -92.900       64.025      -19.184       42.436       48.003       35.610     1800.816     2304.243     1268.051        0.923        0.269      112.826       21.491        0.036      338.014       10.377      866.444
01/17/2021  18:20:00      -50.006       27.711       -9.504       58.379       59.885       35.718     3408.088     3586.232     1275.804        0.581        0.414       57.171       30.193        0.279      337.895       10.178      866.463
01/17/2021  18:21:00      -18.152        6.572        2.327       64.442       39.730       35.145     4152.790     1578.474     1235.162        0.367        0.348       19.305       36.909        3.655      337.814       10.042      866.490
01/17/2021  18:22:00      -30.529       38.712       -1.702       47.681       32.749       23.064     2273.517     1072.511      531.956        0.315        0.194       49.301       18.034        0.134      337.837       10.080      866.534
01/17/2021  18:23:00      -35.205       34.445       -0.584       58.223       56.841       30.283     3389.917     3230.850      917.031        0.498        0.377       49.253       25.840        0.275      337.853       10.108      866.556
01/17/2021  18:24:00      -33.197       21.629       -9.405       60.088       35.718       22.644     3610.587     1275.806      512.752        0.353        0.270       39.621       17.738        0.200      337.875       10.144      866.574
01/17/2021  18:25:00      -67.345       37.916      -15.742       47.365       51.013       25.389     2243.478     2602.293      644.610        0.585        0.275       77.285       20.337        0.069      337.833       10.074      866.595
01/17/2021  18:26:00      -53.707       32.296       -7.975       44.579       31.080       22.135     1987.314      965.956      489.950        0.372        0.172       62.669       23.940        0.146      337.897       10.182      866.588
01/17/2021  18:27:00     -164.353       49.445      -20.177       69.040       39.255       30.401     4766.469     1540.918      924.229        1.855        0.362      171.630       18.600        0.012      337.759        9.949      866.588
01/17/2021  18:28:00      -90.009       43.810       -6.593       81.198       63.264       33.548     6593.080     4002.368     1125.495        1.089        0.586      100.104       35.152        0.123      337.833       10.075      866.593
01/17/2021  18:29:00      -49.940        7.893        3.627       66.773       33.778       30.106     4458.622     1140.965      906.392        0.454        0.325       50.560       18.402        0.132      337.720        9.884      866.591
01/17/2021  18:30:00      -23.965       32.885        2.348       38.782       32.120       27.867     1504.011     1031.686      776.574        0.249        0.166       40.691        5.015        0.015      337.758        9.949      866.594
01/17/2021  18:31:00      -33.008       20.182       -2.871       34.470       41.235       24.000     1188.164     1700.363      575.988        0.248        0.173       38.689       17.761        0.211      337.725        9.892      866.588
01/17/2021  18:32:00      -37.100       86.768        0.747       37.790       43.195       16.927     1428.050     1865.772      286.520        0.624        0.179       94.366        8.179        0.008      337.852       10.106      866.597
01/17/2021  18:33:00      -80.723      116.274       -9.801       62.577       59.039       28.855     3915.868     3485.655      832.583        1.418        0.412      141.548       22.480        0.025      337.811       10.036      866.590
01/17/2021  18:34:00      -12.999       75.418       -2.051       32.305       29.468       14.613     1043.602      868.367      213.536        0.399        0.106       76.530       12.843        0.028      337.705        9.859      866.598
01/17/2021  18:35:00        2.404      116.153        0.826       41.854       61.850       25.199     1751.724     3825.372      635.009        0.985        0.311      116.177       17.622        0.023      337.670        9.800      866.595
01/17/2021  18:36:00      -13.949      114.628       -3.699       43.492       48.205       31.525     1891.556     2323.679      993.818        0.928        0.260      115.473       26.157        0.051      337.725        9.894      866.586
01/17/2021  18:37:00      -29.867      105.303       -5.334       61.382       68.342       40.809     3767.754     4670.618     1665.341        1.105        0.505      109.457       29.029        0.070      337.701        9.853      866.577
01/17/2021  18:38:00      -82.082      193.886      -21.779       49.332       59.819       32.895     2433.598     3578.296     1082.112        2.595        0.355      210.545       20.168        0.009      337.788        9.995      866.561
01/17/2021  18:39:00      -75.947      145.800      -10.622       48.874       82.296       28.612     2388.626     6772.685      818.635        1.856        0.499      164.395       28.709        0.030      337.753        9.938      866.566
01/17/2021  18:40:00      -58.898      168.732      -14.707       51.760       62.029       29.493     2679.100     3847.583      869.819        1.977        0.370      178.716       16.473        0.008      337.731        9.902      866.576
01/17/2021  18:41:00      -80.433       87.681       -0.593       49.592       57.088       32.123     2459.359     3258.989     1031.907        1.045        0.338      118.985       18.857        0.025      337.933       10.242      866.568
01/17/2021  18:42:00      -83.505      163.003       -8.965       60.575      109.536       35.228     3669.339    11998.239     1241.039        2.526        0.845      183.147       37.795        0.043      337.775        9.975      866.560
01/17/2021  18:43:00      -94.214       83.431      -23.151      102.904       67.209       40.917    10589.314     4517.042     1674.170        1.657        0.839      125.846       30.574        0.059      337.672        9.805      866.562
01/17/2021  18:44:00      -26.725      136.158        0.663       62.789       79.360       38.324     3942.448     6298.053     1468.693        1.548        0.585      138.756       35.779        0.066      337.706        9.860      866.580
01/17/2021  18:45:00      -57.328      194.957       -6.271       62.949       76.545       30.627     3962.616     5859.169      938.004        2.604        0.538      203.211       28.713        0.020      337.718        9.878      866.587
01/17/2021  18:46:00      -18.779      127.373        3.422       55.884       57.264       28.973     3122.993     3279.213      839.416        1.191        0.362      128.750       18.451        0.021      337.677        9.812      866.589
01/17/2021  18:47:00      -41.286      116.206       -7.641       44.243       63.208       34.719     1957.419     3995.207     1205.425        1.121        0.358      123.322       19.277        0.024      337.734        9.910      866.596
01/17/2021  18:48:00       33.619      176.270       -7.320       63.203      100.637       30.048     3994.604    10127.845      902.856        2.364        0.751      179.448       32.590        0.033      337.694        9.841      866.600
01/17/2021  18:49:00      -33.188      160.948       -8.963       69.724       65.515       38.826     4861.432     4292.219     1507.472        1.887        0.533      164.334       32.547        0.039      337.763        9.956      866.600
01/17/2021  18:50:00      -11.832      221.212      -15.458       77.044       65.672       40.906     5935.721     4312.853     1673.299        3.062        0.596      221.529       34.964        0.025      337.738        9.913      866.602
01/17/2021  18:51:00       -3.424      256.548      -25.145       91.194       78.877       45.078     8316.411     6221.537     2032.023        4.151        0.828      256.571       40.019        0.024      337.728        9.895      866.619
01/17/2021  18:52:00      -58.759      265.324      -18.958       76.632       70.444       45.308     5872.507     4962.296     2052.845        4.355        0.644      271.753       31.674        0.014      337.731        9.898      866.633
01/17/2021  18:53:00      -11.696      223.017       -6.588       97.900       84.764       50.484     9584.369     7184.952     2548.593        3.461        0.966      223.323       41.160        0.034      337.749        9.931      866.638
01/17/2021  18:54:00       22.256      208.820      -14.187       63.940       84.336       37.421     4088.263     7112.567     1400.363        2.845        0.630      210.003       43.134        0.042      337.746        9.927      866.647
01/17/2021  18:55:00       32.727      295.241      -22.141       69.202      106.751       53.490     4788.931    11395.826     2861.160        5.388        0.952      297.049       51.632        0.030      337.738        9.911      866.660
01/17/2021  18:56:00      -29.879      282.806       -7.628      108.719      107.520       53.013    11819.879    11560.621     2810.409        5.355        1.310      284.380       50.763        0.032      337.768        9.960      866.669
01/17/2021  18:57:00       18.724      299.300      -23.982       91.717      131.611       61.235     8412.087    17321.390     3749.778        5.999        1.474      299.885       62.970        0.044      337.767        9.960      866.676
01/17/2021  18:58:00      -43.775      270.158      -22.024       99.308      105.294       41.788     9861.997    11086.844     1746.223        4.904        1.135      273.682       45.598        0.028      337.788        9.995      866.684
01/17/2021  18:59:00       18.573      332.199      -25.934      109.382       90.953       52.827    11964.394     8272.486     2790.706        6.720        1.151      332.718       41.333        0.015      337.719        9.879      866.680
01/17/2021  19:00:00      -25.137      271.786      -15.432       75.553       88.438       51.118     5708.218     7821.277     2613.014        4.544        0.807      272.946       48.953        0.032      337.711        9.868      866.680
01/17/2021  19:01:00      -55.034      338.658      -22.576      110.863      117.512       69.349    12290.617    13809.067     4809.273        7.456        1.545      343.100       65.793        0.037      337.734        9.905      866.665
01/17/2021  19:02:00       -6.330      236.823      -12.363       59.883       79.065       42.912     3586.011     6251.239     1841.445        3.398        0.584      236.908       34.220        0.021      337.694        9.838      866.653
01/17/2021  19:03:00      -57.668      214.084      -19.788       78.550       65.746       47.189     6170.156     4322.525     2226.848        3.113        0.636      221.715       33.994        0.024      337.720        9.882      866.635
01/17/2021  19:04:00      -12.596      249.198      -19.558       72.850       73.452       42.281     5307.164     5395.181     1787.658        3.756        0.625      249.516       41.581        0.028      337.647        9.760      866.636
01/17/2021  19:05:00      -54.877      145.666       -5.535       64.868       92.160       35.971     4207.867     8493.397     1293.894        1.912        0.700      155.660       19.950        0.016      337.690        9.833      866.639
01/17/2021  19:06:00      -25.988      268.725      -12.046       97.888      106.539       44.220     9582.145    11350.504     1955.433        4.796        1.144      269.978       42.639        0.025      337.626        9.724      866.655
01/17/2021  19:07:00      -81.727      249.977      -27.259       73.281      103.658       46.925     5370.049    10745.022     2201.990        4.411        0.916      262.998       48.245        0.034      337.628        9.727      866.673
01/17/2021  19:08:00      -43.264      239.140      -20.627       89.349      144.732       50.924     7983.156    20947.396     2593.258        4.550        1.576      243.023       41.368        0.029      337.625        9.722      866.697
01/17/2021  19:09:00      -62.129      328.775      -18.274      120.796      133.157       52.666    14591.753    17730.855     2773.673        7.368        1.755      334.594       30.511        0.008      337.646        9.757      866.701
01/17/2021  19:10:00      -40.637      347.107      -16.800       84.119      124.463       53.433     7075.932    15491.040     2855.130        7.391        1.271      349.478       51.286        0.022      337.630        9.730      866.695
01/17/2021  19:11:00      -67.557      261.472       -2.150       98.261       98.772       57.390     9655.236     9755.902     3293.622        4.782        1.135      270.058       42.014        0.024      337.624        9.721      866.684
01/17/2021  19:12:00      -27.616      297.015      -19.299       97.026      105.414       49.974     9414.138    11112.173     2497.399        5.618        1.151      298.297       39.793        0.018      337.602        9.683      866.676
01/17/2021  19:13:00      -37.909      274.364      -22.532       62.991       88.213       36.850     3967.862     7781.513     1357.938        4.516        0.655      276.970       24.507        0.008      337.587        9.657      866.656
01/17/2021  19:14:00      -37.017      249.543      -17.022       75.120      101.522       45.569     5642.972    10306.715     2076.567        4.098        0.901      252.274       41.306        0.027      337.590        9.663      866.663
01/17/2021  19:15:00      -56.808      218.847      -17.426       82.754       96.714       44.966     6848.232     9353.647     2021.896        3.482        0.911      226.100       36.535        0.026      337.571        9.633      866.666
01/17/2021  19:16:00      -71.701      257.785      -17.836       68.511       72.954       44.775     4693.710     5322.241     2004.776        4.196        0.601      267.570       37.098        0.019      337.648        9.760      866.665
01/17/2021  19:17:00      -30.506      306.747      -21.676       82.645       76.123       51.953     6830.247     5794.657     2699.127        5.541        0.766      308.260       45.197        0.021      337.566        9.623      866.674
01/17/2021  19:18:00      -45.477      175.468      -33.317      110.320       87.026       38.654    12170.462     7573.507     1494.099        2.760        1.062      181.266       24.905        0.019      337.650        9.764      866.687
01/17/2021  19:19:00      -11.737      232.288       -2.189       77.663       68.681       39.674     6031.486     4717.126     1574.043        3.321        0.616      232.584       36.891        0.025      337.581        9.648      866.704
01/17/2021  19:20:00      -27.414      109.783       -3.798       55.859       97.938       42.614     3120.251     9591.923     1815.984        1.367        0.726      113.154       41.715        0.136      337.575        9.641      866.712
01/17/2021  19:21:00       -0.913      130.650      -19.020       65.330       47.252       37.660     4267.993     2232.763     1418.238        1.267        0.396      130.653       12.437        0.009      337.491        9.498      866.712
01/17/2021  19:22:00       -9.285      141.377      -23.797       84.508       70.293       43.090     7141.539     4941.060     1856.705        1.729        0.697      141.681       27.598        0.038      337.563        9.619      866.695
01/17/2021  19:23:00      -44.503      186.721       -5.221       80.217       76.424       45.529     6434.814     5840.563     2072.847        2.561        0.717      191.951       42.734        0.050      337.574        9.636      866.693
01/17/2021  19:24:00      -49.967      227.206      -22.156       76.353       79.078       47.235     5829.816     6253.300     2231.128        3.446        0.716      232.635       19.284        0.007      337.610        9.698      866.674
01/17/2021  19:25:00      -71.269      223.299      -20.502       70.915      102.128       42.850     5028.900    10430.211     1836.129        3.633        0.865      234.397       35.797        0.023      337.610        9.697      866.665
01/17/2021  19:26:00      -65.090      201.357       -8.023       84.330       85.971       41.866     7111.613     7390.988     1752.750        3.055        0.813      211.616       22.696        0.012      337.625        9.723      866.666
01/17/2021  19:27:00      -79.038      159.821       -9.021       65.988       65.777       36.047     4354.429     4326.615     1299.394        2.092        0.499      178.297       30.281        0.029      337.586        9.657      866.672
01/17/2021  19:28:00      -71.679      174.707       -6.484       67.414       70.164       36.267     4544.624     4923.032     1315.291        2.324        0.539      188.839       30.432        0.026      337.564        9.621      866.689
01/17/2021  19:29:00     -101.606      222.431      -14.941       66.636       75.149       43.170     4440.391     5647.364     1863.618        3.598        0.598      244.539       31.588        0.017      337.616        9.709      866.703
01/17/2021  19:30:00      -94.236      210.472      -19.667       70.413       79.947       36.502     4957.997     6391.511     1332.373        3.312        0.634      230.606       18.078        0.006      337.552        9.600      866.726
01/17/2021  19:31:00      -85.101      230.980      -17.835       78.934       82.445       40.599     6230.631     6797.235     1648.292        3.779        0.734      246.159       35.183        0.020      337.536        9.573      866.755
01/17/2021  19:32:00      -64.658      197.310       -8.576       92.409       60.748       46.509     8539.478     3690.265     2163.119        2.879        0.720      207.634       16.616        0.006      337.578        9.643      866.774
01/17/2021  19:33:00      -33.680      251.657      -21.011       60.164       72.003       43.626     3619.744     5184.386     1903.216        3.780        0.535      253.900       34.505        0.018      337.515        9.536      866.798
01/17/2021  19:34:00      -77.097      169.410       -8.826       51.884       73.565       37.290     2691.921     5411.752     1390.569        2.211        0.475      186.128       28.516        0.023      337.549        9.597      866.805
01/17/2021  19:35:00      -76.782      196.230      -18.376       71.341       87.688       45.673     5089.519     7689.179     2086.006        2.980        0.743      210.717       40.455        0.037      337.544        9.587      866.814
01/17/2021  19:36:00      -61.316      162.469       -0.591       59.706      102.559       39.150     3564.859    10518.348     1532.728        2.288        0.781      173.654       39.079        0.051      337.512        9.534      866.829
01/17/2021  19:37:00      -99.253      223.841      -13.136       79.270       88.022       47.111     6283.778     7747.884     2219.412        3.819        0.813      244.859       25.733        0.011      337.599        9.678      866.843
01/17/2021  19:38:00      -85.370      147.210       -4.622       55.279       82.268       42.263     3055.726     6768.094     1786.159        2.029        0.580      170.173       38.567        0.051      337.596        9.675      866.858
01/17/2021  19:39:00      -97.382      169.219      -13.665       90.219       79.498       36.853     8139.509     6319.923     1358.156        2.706        0.791      195.239       31.966        0.027      337.563        9.620      866.871
01/17/2021  19:40:00     -112.167      140.369      -11.084       72.805       67.955       38.491     5300.628     4617.935     1481.520        2.190        0.570      179.680       23.091        0.017      337.557        9.609      866.883
01/17/2021  19:41:00      -75.962      106.519       -4.560       54.213       55.121       33.198     2939.046     3038.356     1102.090        1.211        0.354      130.831       12.304        0.009      337.623        9.722      866.894
01/17/2021  19:42:00      -78.191      143.681      -14.786       67.645       69.318       35.656     4575.830     4804.980     1271.339        1.881        0.533      163.579       20.180        0.015      337.567        9.627      866.908
01/17/2021  19:43:00      -81.788      177.374      -10.451       68.110       72.093       32.467     4639.019     5197.447     1054.074        2.457        0.545      195.322       27.848        0.020      337.593        9.669      866.926
01/17/2021  19:44:00      -53.006      102.695      -19.920       53.823       56.640       25.808     2896.961     3208.129      666.037        1.026        0.339      115.568       23.117        0.040      337.523        9.554      866.947
01/17/2021  19:45:00      -41.820      119.533        0.392       48.989       56.660       30.749     2399.941     3210.339      945.502        1.130        0.328      126.638       28.150        0.049      337.591        9.668      866.967
01/17/2021  19:46:00      -71.023      216.642      -16.284       58.067       79.149       33.224     3371.825     6264.575     1103.855        3.149        0.537      227.987       26.012        0.013      337.491        9.498      866.987
01/17/2021  19:47:00      -46.237      159.824      -12.445       45.073       54.603       32.197     2031.608     2981.484     1036.655        1.694        0.302      166.378       22.021        0.018      337.492        9.502      867.000
01/17/2021  19:48:00      -62.679      143.580       -3.706       58.683       58.619       33.908     3443.677     3436.174     1149.753        1.629        0.401      156.665       11.603        0.005      337.493        9.503      867.028
01/17/2021  19:49:00      -49.813      179.235       -6.070       53.711       78.989       33.289     2884.881     6239.300     1108.151        2.244        0.512      186.028       33.471        0.032      337.511        9.534      867.035
01/17/2021  19:50:00      -55.402      167.765      -19.584       54.893       38.724       31.864     3013.277     1499.568     1015.316        1.856        0.276      176.676       21.259        0.014      337.533        9.571      867.041
01/17/2021  19:51:00     -102.627      230.848      -12.564       75.379       74.798       39.276     5681.931     5594.765     1542.609        3.840        0.641      252.632       37.651        0.022      337.551        9.596      867.040
01/17/2021  19:52:00      -82.194      187.954      -14.546       78.436       77.709       42.451     6152.264     6038.702     1802.056        2.814        0.700      205.141       32.996        0.026      337.575        9.638      867.042
01/17/2021  19:53:00      -65.914      197.337       -2.798       66.591       82.164       38.796     4434.299     6750.953     1505.149        2.799        0.635      208.054       31.638        0.023      337.640        9.748      867.033
01/17/2021  19:54:00      -69.559      122.170      -20.624       71.892       70.994       33.417     5168.426     5040.176     1116.663        1.575        0.566      140.584       31.154        0.049      337.662        9.787      867.034
01/17/2021  19:55:00      -99.329      156.979      -13.749       51.419       92.532       35.175     2643.954     8562.166     1237.287        2.357        0.622      185.765       24.370        0.017      337.730        9.900      867.050
01/17/2021  19:56:00      -98.438      212.420      -11.935       56.672       95.082       37.958     3211.745     9040.622     1440.790        3.432        0.685      234.120       44.586        0.036      337.732        9.903      867.078
01/17/2021  19:57:00      -52.228      185.046       -7.770       57.458       68.573       33.371     3301.417     4702.219     1113.600        2.307        0.456      192.275       30.466        0.025      337.710        9.866      867.109
01/17/2021  19:58:00      -99.520      175.743      -18.679       50.048       93.819       38.897     2504.804     8801.956     1512.986        2.698        0.641      201.965       37.964        0.035      337.713        9.869      867.137
01/17/2021  19:59:00      -67.963      153.550      -15.624       79.527       61.581       38.412     6324.522     3792.205     1475.513        2.001        0.580      167.918       26.554        0.025      337.636        9.744      867.162
01/17/2021  20:00:00      -86.424       98.868       -7.396       61.795       47.460       35.987     3818.633     2252.472     1295.057        1.233        0.368      131.316       26.593        0.041      337.623        9.723      867.168
01/17/2021  20:01:00      -80.571      126.919      -14.884       44.115       49.483       27.513     1946.112     2448.600      756.958        1.399        0.258      150.334       15.939        0.011      337.648        9.764      867.175
01/17/2021  20:02:00      -86.677      158.958      -19.210       48.468       99.297       34.425     2349.188     9859.857     1185.060        2.327        0.670      181.054       35.280        0.038      337.619        9.713      867.176
01/17/2021  20:03:00      -97.545      200.204      -12.323       58.240       70.326       31.234     3391.847     4945.812      975.562        2.953        0.466      222.703       23.141        0.011      337.629        9.729      867.166
01/17/2021  20:04:00      -78.696      176.733      -10.932       59.495       63.659       29.644     3539.658     4052.463      878.740        2.301        0.424      193.462       30.531        0.025      337.691        9.833      867.154
01/17/2021  20:05:00      -40.264      130.575        0.339       52.594       58.654       30.642     2766.100     3440.259      938.931        1.291        0.357      136.642       33.619        0.061      337.641        9.751      867.130
01/17/2021  20:06:00      -33.040      177.000      -19.653       41.471       46.249       38.035     1719.803     2138.977     1446.691        1.905        0.265      180.057       24.224        0.018      337.524        9.556      867.112
01/17/2021  20:07:00      -76.643      151.952       -4.691       41.048       53.014       32.685     1684.924     2810.473     1068.303        1.727        0.278      170.187       20.636        0.015      337.689        9.831      867.089
01/17/2021  20:08:00      -76.434      125.821      -16.284       53.448       58.755       27.176     2856.682     3452.168      738.547        1.449        0.352      147.217       10.408        0.005      337.639        9.748      867.072
01/17/2021  20:09:00     -113.435      134.033       -8.119       55.372       49.142       29.636     3066.075     2414.932      878.303        1.863        0.318      175.592       17.809        0.010      337.710        9.866      867.064
01/17/2021  20:10:00      -54.861      135.603       -8.008       39.709       46.758       28.049     1576.793     2186.357      786.741        1.300        0.227      146.280       19.794        0.018      337.732        9.904      867.053
01/17/2021  20:11:00      -61.702       64.335       -4.827       50.250       36.493       24.025     2525.106     1331.703      577.198        0.620        0.222       89.141       15.692        0.031      337.699        9.848      867.053
01/17/2021  20:12:00      -42.562       90.753       -3.968       40.928       59.190       29.866     1675.131     3503.465      891.954        0.807        0.304      100.238       19.353        0.037      337.578        9.647      867.054
01/17/2021  20:13:00      -71.783       88.642       -6.737       43.582       52.986       31.352     1899.399     2807.560      982.954        0.937        0.284      114.062       26.411        0.054      337.731        9.904      867.059
01/17/2021  20:14:00      -40.878       87.721       -8.521       43.913       30.833       25.380     1928.321      950.690      644.130        0.648        0.176       96.778       18.959        0.038      337.600        9.684      867.058
01/17/2021  20:15:00      -73.188       87.578       -4.562       63.427       62.357       25.599     4022.970     3888.348      655.306        1.081        0.428      114.133       16.054        0.020      337.540        9.582      867.066
01/17/2021  20:16:00      -49.651       93.339       -6.541       46.934       50.662       26.305     2202.778     2566.653      691.935        0.834        0.273      105.724       16.782        0.025      337.570        9.632      867.068
01/17/2021  20:17:00      -60.177      118.625      -11.073       33.635       39.910       27.593     1131.284     1592.843      761.361        1.065        0.174      133.016       14.981        0.013      337.573        9.637      867.065
01/17/2021  20:18:00      -63.121       93.883       -5.067       36.510       34.760       23.183     1333.001     1208.248      537.430        0.795        0.154      113.130       14.948        0.017      337.594        9.675      867.064
01/17/2021  20:19:00      -77.012       35.695       -1.784       44.520       39.825       23.673     1981.995     1586.064      560.389        0.567        0.206       84.883       21.584        0.065      337.412        9.368      867.063
01/17/2021  20:20:00      -29.176       39.725        4.613       43.513       39.683       24.253     1893.375     1574.762      588.197        0.325        0.203       49.288       19.655        0.159      337.408        9.361      867.064
01/17/2021  20:21:00      -30.951       14.199       -3.634       34.876       35.491       22.672     1216.351     1259.644      514.003        0.208        0.149       34.052       19.775        0.337      337.288        9.161      867.063
01/17/2021  20:22:00      -30.003       27.251      -11.824       34.478       27.170       16.194     1188.710      738.185      262.246        0.199        0.109       40.532       12.304        0.092      337.185        8.988      867.072
01/17/2021  20:23:00      -50.860       33.199      -14.483       28.963       32.478       16.168      838.858     1054.842      261.413        0.303        0.108       60.737       10.026        0.027      337.381        9.316      867.067
01/17/2021  20:24:00      -81.793       16.331       -4.202       49.022       42.482       26.057     2403.110     1804.733      678.945        0.593        0.244       83.408       27.892        0.112      337.333        9.237      867.071
01/17/2021  20:25:00      -66.894       52.114      -10.980       61.246       70.572       30.749     3751.127     4980.391      945.491        0.849        0.484       84.797       17.387        0.042      337.360        9.280      867.081
01/17/2021  20:26:00      -57.264       65.030       -8.722       42.607       44.718       21.200     1815.325     1999.739      449.440        0.592        0.213       86.650       13.321        0.024      337.430        9.399      867.099
01/17/2021  20:27:00      -80.035       40.691      -12.144       36.685       48.495       26.046     1345.763     2351.778      678.370        0.629        0.219       89.785       18.316        0.042      337.419        9.380      867.104
01/17/2021  20:28:00      -69.439       27.768       -8.377       32.100       32.915       23.801     1030.433     1083.422      566.496        0.417        0.134       74.785       16.979        0.052      337.292        9.168      867.116
01/17/2021  20:29:00      -60.161       77.910        2.423       49.729       44.661       26.153     2472.992     1994.575      683.997        0.742        0.258       98.434       16.418        0.028      337.556        9.609      867.131
01/17/2021  20:30:00      -49.498       81.090       -5.752       44.963       41.975       27.715     2021.649     1761.864      768.121        0.680        0.228       95.003       21.187        0.050      337.514        9.536      867.148
01/17/2021  20:31:00      -48.264      125.723       -5.147       47.736       56.538       24.237     2278.716     3196.525      587.429        1.211        0.303      134.669       23.608        0.031      337.464        9.454      867.168
01/17/2021  20:32:00      -69.213      147.897       -9.243       37.054       65.531       25.420     1372.968     4294.368      646.155        1.653        0.316      163.291       18.269        0.013      337.460        9.447      867.190
01/17/2021  20:33:00      -60.049       58.542      -16.771       48.057       46.129       30.509     2309.515     2127.875      930.794        0.634        0.268       83.864       19.694        0.055      337.403        9.354      867.217
01/17/2021  20:34:00      -29.175       87.470       -6.020       48.703       40.906       27.879     2372.016     1673.267      777.224        0.668        0.241       92.208       15.755        0.029      337.359        9.280      867.267
01/17/2021  20:35:00      -24.032       45.437        7.447       32.502       32.749       15.225     1056.349     1072.528      231.805        0.253        0.118       51.401       11.658        0.051      337.244        9.088      867.303
01/17/2021  20:36:00       -4.366       45.982       -5.180       22.324       25.965       15.394      498.379      674.160      236.987        0.178        0.070       46.189        9.638        0.044      337.238        9.078      867.341
01/17/2021  20:37:00       15.476       20.113        8.378       29.348       37.744       21.420      861.322     1424.588      458.818        0.173        0.137       25.378       16.861        0.441      337.137        8.907      867.379
01/17/2021  20:38:00       11.953       27.940       -8.433       25.794       21.890       22.544      665.311      479.174      508.233        0.132        0.083       30.389        7.586        0.062      337.144        8.920      867.415
01/17/2021  20:39:00      -12.422       27.902        1.860       19.165       30.379       14.896      367.309      922.897      221.903        0.122        0.076       30.542       10.836        0.126      337.031        8.732      867.436
01/17/2021  20:40:00      -28.766      -29.583       -2.445       17.393       21.154       12.860      302.522      447.489      165.387        0.131        0.046       41.263       10.971        0.071      336.977        8.641      867.460
01/17/2021  20:41:00      -30.077      -35.842       -4.970       20.713       15.643       15.280      429.012      244.703      233.465        0.156        0.045       46.789        8.314        0.032      336.995        8.670      867.470
01/17/2021  20:42:00      -52.037      -32.764       -6.358       34.486       19.686       15.429     1189.252      387.552      238.039        0.282        0.091       61.493       12.654        0.042      336.924        8.552      867.480
01/17/2021  20:43:00      -33.170       -9.513      -10.904       38.025       25.378       13.300     1445.898      644.046      176.903        0.179        0.113       34.507       16.972        0.242      336.930        8.562      867.491
01/17/2021  20:44:00      -41.676       18.124       -6.061       29.637       24.394       16.356      878.367      595.088      267.532        0.192        0.087       45.447        5.615        0.015      337.060        8.777      867.492
01/17/2021  20:45:00       -2.790       -7.385       -2.931       13.183       14.101       11.007      173.779      198.840      121.146        0.028        0.025        7.894       10.118        1.643      336.926        8.555      867.495
01/17/2021  20:46:00        1.279      -33.294       -5.165       14.823       11.064       10.482      219.719      122.416      109.881        0.079        0.023       33.318        7.602        0.052      336.843        8.417      867.495
01/17/2021  20:47:00       21.435        0.239      -14.013       30.524       29.011       15.195      931.690      841.618      230.881        0.133        0.100       21.436       17.220        0.645      336.712        8.200      867.510
01/17/2021  20:48:00       55.485      -47.051      -20.850       25.610       29.926       16.855      655.877      895.584      284.075        0.378        0.092       72.749       16.595        0.052      336.718        8.209      867.525
01/17/2021  20:49:00       -7.901      -33.202      -16.095       37.142       35.633       14.248     1379.542     1269.742      203.017        0.214        0.143       34.129       11.308        0.110      336.767        8.290      867.555
01/17/2021  20:50:00      -22.087        3.150       -1.066       23.036       14.080       10.182      530.636      198.257      103.669        0.067        0.042       22.311        7.787        0.122      336.894        8.501      867.569
01/17/2021  20:51:00       -1.203       -2.213       -3.998       19.973       22.878       11.128      398.929      523.413      123.838        0.053        0.052        2.518       11.587       21.167      336.860        8.447      867.571
01/17/2021  20:52:00      -21.594       -8.566       -5.986       22.600       19.344       17.328      510.771      374.197      300.247        0.088        0.059       23.231       16.050        0.477      336.876        8.471      867.579
01/17/2021  20:53:00       25.219      -19.248      -11.239       20.358       30.892       15.895      414.444      954.335      252.662        0.138        0.081       31.725       15.651        0.243      336.744        8.252      867.589
01/17/2021  20:54:00       13.618        6.139       -8.260       26.874       32.857       15.274      722.211     1079.602      233.290        0.116        0.102       14.937       12.530        0.704      336.552        7.930      867.593
01/17/2021  20:55:00       -8.487       71.101       -7.625       61.437       35.554       20.338     3774.488     1264.095      413.633        0.532        0.273       71.606       10.652        0.022      336.856        8.438      867.605
01/17/2021  20:56:00      -47.345       11.652       -5.116       42.235       34.135       20.831     1783.817     1165.183      433.932        0.289        0.169       48.758       21.265        0.190      336.877        8.473      867.616
01/17/2021  20:57:00      -10.276       29.709       -4.481       54.364       38.305       22.033     2955.469     1467.297      485.452        0.296        0.245       31.436       15.170        0.233      336.866        8.454      867.623
01/17/2021  20:58:00      -13.684      119.627      -11.567       37.797       66.744       27.931     1428.595     4454.777      780.143        1.065        0.333      120.407       21.922        0.033      336.931        8.564      867.620
01/17/2021  20:59:00      -26.332       58.865      -17.216       22.587       45.116       21.541      510.180     2035.445      464.024        0.373        0.150       64.486       12.792        0.039      336.932        8.566      867.624
01/17/2021  21:00:00        1.108       80.772       -5.693       45.454       76.338       27.958     2066.060     5827.480      781.643        0.761        0.434       80.779       27.898        0.119      336.917        8.540      867.641
01/17/2021  21:01:00       13.712      156.631      -17.995       56.133       47.912       30.793     3150.861     2295.513      948.211        1.572        0.320      157.230       31.225        0.039      336.956        8.605      867.655
01/17/2021  21:02:00       32.742      112.789       -0.470       55.252       57.093       30.853     3052.729     3259.554      951.898        1.053        0.363      117.445       29.479        0.063      336.903        8.514      867.669
01/17/2021  21:03:00       23.915       89.781       -7.604       75.858       41.102       31.822     5754.420     1689.407     1012.629        0.857        0.423       92.912       25.189        0.073      336.774        8.303      867.685
01/17/2021  21:04:00       53.839       88.227      -12.522       63.324       81.382       25.734     4009.895     6623.027      662.250        1.106        0.565      103.357       20.030        0.038      336.907        8.523      867.695
01/17/2021  21:05:00       -7.374      140.205       -7.315       73.309       63.713       33.528     5374.262     4059.304     1124.119        1.516        0.528      140.398       25.210        0.032      337.023        8.716      867.692
01/17/2021  21:06:00       10.258      155.674      -10.099       46.046       41.026       29.930     2120.226     1683.099      895.780        1.457        0.235      156.012       21.404        0.019      337.055        8.769      867.689
01/17/2021  21:07:00       -0.544       97.914      -14.231       61.127       67.364       30.091     3736.557     4537.866      905.470        0.948        0.459       97.915       24.723        0.064      336.991        8.663      867.689
01/17/2021  21:08:00       27.913      139.805       -7.516       49.564       69.092       30.992     2456.623     4773.764      960.476        1.428        0.410      142.564       13.380        0.009      337.051        8.762      867.686
01/17/2021  21:09:00       29.004      107.078       -7.517       55.888       68.453       27.539     3123.446     4685.788      758.404        1.046        0.428      110.937       25.645        0.053      337.069        8.793      867.671
01/17/2021  21:10:00      -37.720       23.152       -4.728       47.369       28.551       15.939     2243.838      815.178      254.065        0.265        0.166       44.259       20.065        0.206      337.016        8.706      867.666
01/17/2021  21:11:00      -21.741       92.494       -1.043       56.348       91.766       36.632     3175.139     8420.993     1341.909        1.098        0.647       95.015       34.627        0.133      337.097        8.840      867.671
01/17/2021  21:12:00       -4.052       95.892        1.992       25.682       43.838       22.753      659.541     1921.749      517.689        0.616        0.155       95.977       18.410        0.037      337.055        8.770      867.667
01/17/2021  21:13:00       35.731      150.109      -13.999       57.035       63.946       26.268     3252.976     4089.059      689.999        1.602        0.402      154.303       22.307        0.021      337.072        8.797      867.676
01/17/2021  21:14:00       -1.975      146.119      -15.693       45.019       54.942       38.970     2026.740     3018.598     1518.689        1.408        0.328      146.132       26.760        0.034      337.066        8.787      867.689
01/17/2021  21:15:00       56.450      151.548      -20.610       60.660       64.425       28.868     3679.597     4150.640      833.336        1.762        0.433      161.721       22.063        0.019      337.027        8.723      867.704
01/17/2021  21:16:00        3.533      137.659      -11.311       41.884       40.157       25.260     1754.261     1612.609      638.076        1.155        0.200      137.705       16.164        0.014      336.973        8.634      867.722
01/17/2021  21:17:00       14.411      116.471       -4.328       45.590       44.381       22.340     2078.452     1969.686      499.070        0.917        0.227      117.359       19.067        0.026      336.937        8.573      867.727
01/17/2021  21:18:00      -45.327       90.911       -7.848       72.859       70.238       32.943     5308.457     4933.440     1085.238        1.085        0.566      101.584       12.865        0.016      337.025        8.720      867.746
01/17/2021  21:19:00      -75.318      127.923      -13.995       62.438       76.921       35.988     3898.552     5916.871     1295.108        1.667        0.556      148.449       25.421        0.029      337.070        8.796      867.750
01/17/2021  21:20:00      -73.261      212.118      -14.850       61.396       41.303       37.868     3769.455     1705.972     1433.978        2.874        0.345      224.414       26.355        0.014      336.982        8.643      867.765
01/17/2021  21:21:00      -50.629      164.397       -8.854       74.230       80.866       40.610     5510.068     6539.327     1649.176        2.168        0.685      172.017       29.017        0.028      336.955        8.601      867.779
01/17/2021  21:22:00      -47.871      226.140       -8.394       55.887       71.038       37.642     3123.375     5046.443     1416.899        3.154        0.479      231.151       20.053        0.008      336.864        8.448      867.793
01/17/2021  21:23:00      -66.843      257.686      -12.485       59.265      104.932       48.125     3512.316    11010.820     2315.973        4.393        0.842      266.214       38.410        0.021      336.883        8.480      867.819
01/17/2021  21:24:00      -63.588      240.694      -10.543       86.413      111.993       45.260     7467.182    12542.516     2048.496        4.207        1.103      248.952       42.803        0.030      336.920        8.542      867.849
01/17/2021  21:25:00      -67.024      187.640       -1.881       68.270       81.641       45.466     4660.822     6665.257     2067.131        2.655        0.670      199.251       26.162        0.017      336.950        8.592      867.874
01/17/2021  21:26:00      -92.138      220.001      -15.209       68.956       91.405       38.010     4754.976     8354.901     1444.793        3.583        0.728      238.516       28.312        0.014      336.929        8.556      867.896
01/17/2021  21:27:00     -106.888      213.361      -23.738       77.529       88.038       40.117     6010.766     7750.689     1609.387        3.644        0.769      238.638       22.603        0.009      336.870        8.460      867.918
01/17/2021  21:28:00     -108.445      175.444      -12.827       46.348       82.294       38.479     2148.148     6772.224     1480.636        2.655        0.520      206.255       28.795        0.019      336.981        8.644      867.931
01/17/2021  21:29:00     -126.551      208.918      -21.362       75.991      102.523       41.116     5774.670    10510.954     1690.489        3.904        0.899      244.258       28.778        0.014      336.879        8.474      867.937
01/17/2021  21:30:00     -125.080      204.704      -12.291       78.638      111.979       43.013     6183.887    12539.373     1850.101        3.913        1.029      239.894       39.105        0.027      336.911        8.527      867.945
01/17/2021  21:31:00      -83.072      173.762      -13.890       48.084       60.733       35.121     2312.027     3688.461     1233.490        2.226        0.362      192.599       20.730        0.012      336.953        8.598      867.955
01/17/2021  21:32:00      -44.602      183.615      -15.342       61.410      124.446       42.196     3771.196    15486.833     1780.463        2.848        1.052      188.954       37.831        0.040      336.865        8.450      867.970
01/17/2021  21:33:00      -81.668      193.838       -4.864       55.742       79.965       42.268     3107.122     6394.385     1786.612        2.777        0.564      210.340       24.321        0.013      336.967        8.623      867.976
01/17/2021  21:34:00      -79.130      215.800      -12.967       63.947       87.291       38.853     4089.196     7619.705     1509.534        3.311        0.661      229.851       35.268        0.024      336.883        8.481      867.977
01/17/2021  21:35:00      -91.807      213.321      -14.352       77.216       83.730       48.214     5962.280     7010.777     2324.636        3.472        0.765      232.237       41.638        0.032      336.862        8.445      867.986
01/17/2021  21:36:00     -124.167      218.752      -17.086       76.517       71.006       42.973     5854.807     5041.823     1846.713        3.815        0.637      251.535       30.028        0.014      336.893        8.497      867.987
01/17/2021  21:37:00      -85.103      188.193      -25.033       77.976       72.989       41.330     6080.267     5327.402     1708.173        2.820        0.656      206.541       34.106        0.027      336.823        8.380      867.988
01/17/2021  21:38:00      -99.369      198.031       -7.710       74.590      104.706       39.484     5563.614    10963.447     1559.013        3.361        0.904      221.564       31.147        0.020      336.863        8.448      867.986
01/17/2021  21:39:00     -101.566      195.229      -13.128       69.611       72.002       39.660     4845.734     5184.335     1572.918        3.010        0.580      220.068       35.342        0.026      336.791        8.328      867.984
01/17/2021  21:40:00      -79.841      173.313       -8.862       67.637       80.315       41.884     4574.752     6450.525     1754.288        2.463        0.639      190.819       30.519        0.026      336.863        8.448      867.980
01/17/2021  21:41:00      -80.158      170.633      -10.594       88.199       78.673       45.862     7778.978     6189.376     2103.330        2.586        0.804      188.523       36.004        0.036      336.759        8.274      867.983
01/17/2021  21:42:00      -58.918      155.696        5.492       51.375       62.484       43.282     2639.434     3904.296     1873.327        1.808        0.421      166.471       37.691        0.051      336.845        8.418      867.979
01/17/2021  21:43:00      -90.614      180.368       -9.172       76.697       96.838       36.925     5882.361     9377.626     1363.490        2.872        0.831      201.851       28.886        0.020      336.854        8.433      867.970
01/17/2021  21:44:00      -47.619      239.266      -16.309       69.631       56.440       38.538     4848.485     3185.493     1485.158        3.465        0.476      243.958       28.148        0.013      336.795        8.332      867.968
01/17/2021  21:45:00      -98.932      187.906      -10.525       72.820       72.192       41.593     5302.732     5211.679     1729.978        2.872        0.612      212.359       29.977        0.020      336.865        8.451      867.967
01/17/2021  21:46:00      -61.239      180.556       -9.049       62.220       56.901       29.957     3871.276     3237.678      897.395        2.222        0.400      190.659       15.147        0.006      336.896        8.503      867.959
01/17/2021  21:47:00      -64.524      213.668       -6.350       65.545       73.427       44.145     4296.160     5391.551     1948.801        3.074        0.582      223.198       36.569        0.027      336.798        8.338      867.968
01/17/2021  21:48:00      -54.339      225.444      -11.819       75.944       79.754       40.996     5767.451     6360.634     1680.672        3.386        0.690      231.900       33.536        0.021      336.846        8.419      867.965
01/17/2021  21:49:00      -98.212      279.366      -22.035       85.283       80.581       49.945     7273.252     6493.318     2494.480        5.222        0.813      296.126       37.137        0.016      336.799        8.339      867.970
01/17/2021  21:50:00      -74.616      187.126      -17.300       73.068       79.623       42.245     5338.981     6339.859     1784.648        2.717        0.673      201.454       26.263        0.017      336.803        8.347      867.972
01/17/2021  21:51:00      -28.164      245.923      -10.967       72.180       63.758       37.085     5209.984     4065.114     1375.327        3.602        0.533      247.531       33.804        0.019      336.768        8.289      867.997
01/17/2021  21:52:00      -34.506      231.973      -17.534       51.029       81.639       41.117     2603.922     6664.942     1690.600        3.313        0.548      234.526       33.927        0.021      336.757        8.270      868.007
01/17/2021  21:53:00      -10.755      266.303      -10.490       58.903       73.569       40.123     3469.582     5412.364     1609.815        4.082        0.525      266.520       32.310        0.015      336.736        8.235      868.016
01/17/2021  21:54:00      -31.636      191.687      -11.486       75.571       93.024       46.782     5710.950     8653.476     2188.579        2.721        0.828      194.280       45.783        0.056      336.772        8.296      868.023
01/17/2021  21:55:00      -48.749      252.387      -16.456       67.193       95.005       44.066     4514.893     9025.912     1941.799        4.091        0.774      257.052       39.535        0.024      336.791        8.328      868.031
01/17/2021  21:56:00      -46.134      270.846      -13.049       92.761       67.908       46.859     8604.617     4611.445     2195.799        4.553        0.771      274.747       30.732        0.013      336.787        8.319      868.041
01/17/2021  21:57:00      -58.438      208.838       -9.254       59.940       74.124       38.388     3592.822     5494.376     1473.605        2.884        0.528      216.860       29.499        0.019      336.784        8.315      868.043
01/17/2021  21:58:00      -50.216      257.737      -21.329       68.172       93.828       38.774     4647.483     8803.732     1503.455        4.218        0.748      262.584       45.115        0.030      336.786        8.318      868.048
01/17/2021  21:59:00      -49.657      194.111       -7.229       83.927       85.208       43.178     7043.798     7260.339     1864.375        2.818        0.808      200.362       32.129        0.026      336.779        8.307      868.054
01/17/2021  22:00:00        9.965      225.802      -21.813       78.167       52.605       38.339     6110.087     2767.301     1469.915        3.095        0.517      226.022       34.461        0.023      336.717        8.203      868.066
01/17/2021  22:01:00       30.930      221.907      -17.794       59.100       50.268       31.587     3492.785     2526.874      997.730        2.877        0.351      224.052       26.616        0.014      336.706        8.184      868.079
01/17/2021  22:02:00       44.761      252.267      -28.625       66.946       60.042       44.909     4481.769     3605.088     2016.787        3.828        0.505      256.208       26.861        0.011      336.688        8.154      868.089
01/17/2021  22:03:00        3.232      218.507      -15.293       73.885       86.749       39.787     5459.017     7525.338     1583.005        3.128        0.728      218.531       38.293        0.031      336.690        8.160      868.086
01/17/2021  22:04:00        7.775      312.852      -24.471       72.684       90.705       48.223     5282.918     8227.351     2325.435        5.718        0.792      312.948       43.814        0.020      336.704        8.182      868.083
01/17/2021  22:05:00       28.427      285.474      -25.376      105.600       94.886       38.707    11151.336     9003.395     1498.239        5.230        1.083      286.886       35.688        0.015      336.690        8.159      868.074
01/17/2021  22:06:00      -34.744      145.551      -12.763       73.895       73.379       37.836     5460.401     5384.428     1431.536        1.741        0.614      149.640       16.684        0.012      336.736        8.238      868.061
01/17/2021  22:07:00       -8.162      215.721       -7.961       94.554       96.287       48.640     8940.526     9271.167     2365.818        3.362        1.029      215.875       45.227        0.044      336.710        8.193      868.053
01/17/2021  22:08:00       -8.124      219.136      -14.262       83.222       92.355       39.607     6925.974     8529.538     1568.683        3.265        0.851      219.286       37.792        0.030      336.713        8.197      868.045
01/17/2021  22:09:00        1.721      145.721       -1.452       52.912       55.439       34.360     2799.731     3073.526     1180.634        1.415        0.353      145.731       24.709        0.029      336.735        8.238      868.051
01/17/2021  22:10:00       80.743      226.151      -19.445       53.759       75.443       36.997     2890.026     5691.650     1368.782        3.399        0.498      240.132       29.868        0.015      336.688        8.155      868.054
01/17/2021  22:11:00       61.224      233.125      -22.703       49.605       81.117       32.934     2460.681     6580.006     1084.676        3.437        0.506      241.030       29.053        0.015      336.698        8.174      868.055
01/17/2021  22:12:00      -60.290      176.054      -18.608      100.396      104.887       41.793    10079.311    11001.267     1746.619        2.890        1.141      186.091       38.932        0.044      336.763        8.283      868.047
01/17/2021  22:13:00        7.232      233.430       -9.921       97.414      111.387       45.357     9489.401    12407.114     2057.258        3.929        1.198      233.542       45.656        0.038      336.699        8.174      868.048
01/17/2021  22:14:00        1.325      203.997      -14.990       71.059      108.251       37.192     5049.311    11718.273     1383.278        2.999        0.908      204.002       42.127        0.043      336.759        8.275      868.048
01/17/2021  22:15:00      -15.131      307.383      -25.358       61.172      117.930       40.536     3742.039    13907.459     1643.133        5.732        0.965      307.755       43.087        0.020      336.706        8.186      868.035
01/17/2021  22:16:00      -44.069      245.587      -20.821      110.530       97.574       35.214    12216.871     9520.733     1240.001        4.283        1.149      249.510       12.368        0.002      336.770        8.292      868.025
01/17/2021  22:17:00      -32.756      229.495      -13.644       72.785       77.279       42.429     5297.656     5972.013     1800.252        3.350        0.653      231.821       35.768        0.024      336.793        8.330      868.036
01/17/2021  22:18:00       28.931      215.165      -15.574       59.772       50.290       34.858     3572.681     2529.053     1215.082        2.734        0.366      217.101       25.806        0.014      336.787        8.319      868.041
01/17/2021  22:19:00       50.788      234.231      -22.638       76.830       83.232       40.101     5902.791     6927.626     1608.119        3.619        0.722      239.674       47.436        0.039      336.779        8.306      868.052
01/17/2021  22:20:00       61.728      214.084      -17.486       92.935       96.434       43.170     8636.929     9299.456     1863.614        3.487        0.990      222.806       47.556        0.046      336.756        8.268      868.064
01/17/2021  22:21:00        4.541      266.050      -14.781       84.724       63.479       39.191     7178.140     4029.631     1535.941        4.188        0.637      266.088       31.433        0.014      336.808        8.355      868.061
01/17/2021  22:22:00       -8.788      267.021      -11.633      103.378       97.947       49.185    10686.984     9593.571     2419.196        4.710        1.135      267.166       54.643        0.042      336.822        8.379      868.063
01/17/2021  22:23:00      -21.747      205.646       -2.550       62.198       90.192       41.368     3868.538     8134.533     1711.343        2.824        0.686      206.793       42.839        0.043      336.832        8.398      868.063
01/17/2021  22:24:00       -7.865      107.386       -1.585       48.954       73.272       34.929     2396.505     5368.787     1220.003        1.029        0.449      107.674       28.008        0.068      336.822        8.383      868.058
01/17/2021  22:25:00       28.574      156.342      -12.869       65.857       52.210       32.312     4337.170     2725.862     1044.068        1.676        0.405      158.932        9.643        0.004      336.803        8.351      868.065
01/17/2021  22:26:00      -17.390      198.288       -5.170       80.742       84.424       43.054     6519.268     7127.394     1853.614        2.757        0.775      199.049       42.133        0.045      336.847        8.421      868.067
01/17/2021  22:27:00       10.758      214.458      -11.148       55.326       54.670       35.806     3060.963     2988.822     1282.102        2.678        0.367      214.728       24.634        0.013      336.867        8.454      868.071
01/17/2021  22:28:00      -15.500      254.801      -16.799       68.350       89.832       42.790     4671.702     8069.768     1831.019        4.001        0.729      255.272       44.813        0.031      336.861        8.443      868.070
01/17/2021  22:29:00       32.690      263.188      -15.768       76.596       81.151       38.613     5866.901     6585.505     1490.971        4.226        0.697      265.210       38.429        0.021      336.849        8.422      868.068
01/17/2021  22:30:00       22.015      245.598      -15.371       95.892      105.303       43.835     9195.362    11088.739     1921.527        4.162        1.110      246.583       38.279        0.024      336.885        8.483      868.059
01/17/2021  22:31:00        0.116      264.193      -20.114       90.739       94.310       47.941     8233.513     8894.375     2298.295        4.481        0.971      264.193       23.579        0.008      336.913        8.530      868.042
01/17/2021  22:32:00       -1.659      208.718      -12.449       59.051       53.618       44.817     3487.031     2874.868     2008.597        2.604        0.419      208.724       37.916        0.033      336.922        8.545      868.026
01/17/2021  22:33:00       57.632      242.154      -20.237       52.195       60.839       38.231     2724.366     3701.444     1461.644        3.513        0.394      248.918       22.526        0.008      336.894        8.498      868.009
01/17/2021  22:34:00        8.823      296.144      -34.407       65.546       82.466       43.122     4296.319     6800.645     1859.511        5.096        0.648      296.276       29.952        0.010      336.894        8.497      867.981
01/17/2021  22:35:00       11.382      206.046       -9.576       66.198       61.292       34.714     4382.152     3756.692     1205.032        2.601        0.467      206.360       21.441        0.011      336.914        8.532      867.963
01/17/2021  22:36:00       11.571      247.425      -22.475       81.584       58.618       38.549     6655.870     3436.127     1486.016        3.672        0.579      247.695       23.474        0.009      336.943        8.578      867.943
01/17/2021  22:37:00       51.350      209.417      -19.680       85.841      110.313       42.021     7368.596    12168.870     1765.732        3.409        1.065      215.620       43.892        0.041      336.937        8.572      867.937
01/17/2021  22:38:00       35.281      244.234      -12.579       82.023       86.133       44.977     6727.834     7418.961     2022.945        3.861        0.808      246.769       47.178        0.037      336.949        8.589      867.924
01/17/2021  22:39:00       80.202      249.641      -25.930       63.936       72.220       40.678     4087.765     5215.685     1654.690        4.019        0.548      262.208       37.849        0.021      336.934        8.565      867.920
01/17/2021  22:40:00       -1.290      190.160      -13.159       63.127       50.933       38.334     3984.979     2594.135     1469.501        2.219        0.402      190.165       30.217        0.025      336.929        8.558      867.915
01/17/2021  22:41:00        3.092      214.314       -8.288       59.625       77.015       36.901     3555.172     5931.347     1361.648        2.843        0.542      214.337       39.613        0.034      336.932        8.562      867.910
01/17/2021  22:42:00       13.252      178.068      -15.540       56.428       51.725       26.923     3184.138     2675.480      724.851        1.935        0.329      178.561       16.562        0.009      336.925        8.553      867.905
01/17/2021  22:43:00        3.666      175.547      -14.302       56.665       41.724       33.231     3210.924     1740.908     1104.269        1.854        0.303      175.585       25.102        0.020      336.884        8.485      867.898
01/17/2021  22:44:00       62.987      246.615      -27.551       65.367       67.348       38.972     4272.845     4535.800     1518.826        3.793        0.516      254.532       27.686        0.012      336.905        8.517      867.902
01/17/2021  22:45:00      -13.668      229.918       -1.504       91.753       79.187       51.123     8418.522     6270.515     2613.558        3.517        0.865      230.324       48.958        0.045      336.858        8.440      867.902
01/17/2021  22:46:00      -52.014      194.888       -2.310       68.859       82.767       48.301     4741.528     6850.412     2333.021        2.731        0.696      201.710       43.619        0.047      336.866        8.453      867.905
01/17/2021  22:47:00      -22.400      188.395      -16.897       66.214       82.822       41.881     4384.234     6859.402     1753.999        2.464        0.650      189.722       25.071        0.017      336.893        8.498      867.903
01/17/2021  22:48:00      -15.824      206.389        1.076       60.814      103.214       42.929     3698.342    10653.054     1842.878        2.952        0.810      206.995       50.053        0.058      336.878        8.474      867.901
01/17/2021  22:49:00       28.013      303.833      -30.309       93.105       94.016       46.841     8668.558     8838.951     2194.075        5.686        0.985      305.122       37.531        0.015      336.825        8.383      867.882
01/17/2021  22:50:00       23.124      197.222       -6.791       45.878       83.108       37.208     2104.809     6906.946     1384.438        2.493        0.520      198.573       39.764        0.040      336.806        8.354      867.873
01/17/2021  22:51:00       30.450      236.670      -15.023       72.839       81.068       39.018     5305.482     6572.007     1522.420        3.528        0.670      238.621       32.942        0.019      336.792        8.329      867.872
01/17/2021  22:52:00      -23.700      197.122      -12.192       50.177       57.621       39.733     2517.726     3320.148     1578.674        2.349        0.371      198.541       34.443        0.030      336.786        8.320      867.873
01/17/2021  22:53:00      -20.497      231.367      -25.024       43.418       73.737       34.333     1885.099     5437.135     1178.743        3.154        0.425      232.274       34.418        0.022      336.785        8.319      867.873
01/17/2021  22:54:00       -3.520      179.342      -13.046       80.767       74.946       45.102     6523.254     5616.869     2034.216        2.326        0.709      179.377       39.974        0.050      336.830        8.393      867.879
01/17/2021  22:55:00      -15.423      179.961      -15.392       70.306       56.975       33.192     4942.922     3246.130     1101.708        2.107        0.465      180.620       19.193        0.011      336.832        8.397      867.873
01/17/2021  22:56:00      -73.403      225.757      -17.798       89.846       63.506       40.713     8072.360     4033.033     1657.552        3.521        0.688      237.391       30.613        0.017      336.843        8.414      867.873
01/17/2021  22:57:00      -34.922      148.586       -0.501       65.035       61.937       42.033     4229.532     3836.233     1766.814        1.656        0.492      152.635       13.977        0.008      336.832        8.398      867.882
01/17/2021  22:58:00      -21.185      267.695      -15.688       58.909       86.792       39.156     3470.322     7532.804     1533.156        4.244        0.627      268.532       32.924        0.015      336.759        8.273      867.881
01/17/2021  22:59:00      -39.989      240.669      -13.950       67.229       93.819       40.346     4519.675     8801.943     1627.779        3.733        0.747      243.968       42.145        0.030      336.771        8.293      867.880
01/17/2021  23:00:00      -35.533      212.248      -15.575       60.546       73.338       38.278     3665.779     5378.407     1465.168        2.853        0.525      215.201       33.086        0.024      336.822        8.378      867.888
01/17/2021  23:01:00       29.614      213.509      -11.163       68.350       83.074       40.558     4671.776     6901.215     1644.987        2.990        0.661      215.553       36.377        0.028      336.770        8.293      867.888
01/17/2021  23:02:00        0.224      232.152       -8.314       76.778       65.836       45.581     5894.901     4334.414     2077.595        3.313        0.615      232.152       36.781        0.025      336.782        8.312      867.883
01/17/2021  23:03:00      -41.601      246.615      -25.175       87.637      111.433       52.080     7680.171    12417.203     2712.302        4.299        1.140      250.099       43.115        0.030      336.747        8.255      867.871
01/17/2021  23:04:00       -2.651      111.766       -1.665       64.548       64.929       33.774     4166.480     4215.717     1140.663        1.101        0.476      111.798       22.222        0.040      336.772        8.298      867.853
01/17/2021  23:05:00       33.367      240.597      -16.014       74.557       74.679       43.215     5558.686     5577.013     1867.575        3.613        0.650      242.900       41.106        0.029      336.723        8.211      867.825
01/17/2021  23:06:00      -15.864      176.157       -5.034       77.211       76.235       38.162     5961.603     5811.812     1456.330        2.227        0.661      176.870       29.326        0.027      336.732        8.231      867.809
01/17/2021  23:07:00       23.134      181.864       -7.068       58.134       61.884       39.740     3379.595     3829.617     1579.230        2.122        0.439      183.329       30.297        0.027      336.654        8.099      867.803
01/17/2021  23:08:00       -8.836      210.523       -8.565       81.210       71.806       43.000     6595.078     5156.144     1849.026        2.903        0.680      210.708       43.248        0.042      336.661        8.111      867.805
01/17/2021  23:09:00       50.882      151.982      -12.660       65.460       61.420       31.528     4284.981     3772.375      994.001        1.745        0.453      160.273       30.030        0.035      336.602        8.014      867.810
01/17/2021  23:10:00       84.919      104.680      -13.811       52.060       40.261       31.805     2710.214     1620.925     1011.553        1.185        0.267      134.793       25.769        0.037      336.536        7.905      867.809
01/17/2021  23:11:00       41.846       90.852      -19.097       47.330       58.967       25.097     2240.154     3477.123      629.876        0.836        0.317      100.026       17.394        0.030      336.541        7.911      867.819
01/17/2021  23:12:00       74.033       66.678      -17.100       32.465       37.384       19.780     1053.980     1397.531      391.232        0.653        0.142       99.634        9.937        0.010      336.488        7.823      867.808
01/17/2021  23:13:00       66.114        1.557      -12.630       35.771       44.586       21.408     1279.587     1987.893      458.300        0.413        0.186       66.133       18.242        0.076      336.430        7.724      867.794
01/17/2021  23:14:00       50.065        3.256       -8.500       33.667       41.555       26.663     1133.433     1726.856      710.898        0.308        0.179       50.170       21.806        0.189      336.360        7.610      867.784
01/17/2021  23:15:00      120.933       48.283       -8.338       64.032       47.241       30.287     4100.115     2231.668      917.307        1.214        0.362      130.215       21.458        0.027      336.306        7.518      867.777
01/17/2021  23:16:00       43.745        2.863       -9.693       50.633       55.368       35.266     2563.688     3065.642     1243.657        0.444        0.344       43.839       28.530        0.424      336.327        7.555      867.775
01/17/2021  23:17:00       90.558      -33.127      -10.817       62.283       45.087       31.743     3879.112     2032.820     1007.650        0.817        0.346       96.427       35.549        0.136      336.384        7.649      867.773
01/17/2021  23:18:00      112.486      -14.447      -15.836       70.446       46.523       34.896     4962.656     2164.369     1217.754        1.073        0.417      113.410       34.955        0.095      336.347        7.585      867.768
01/17/2021  23:19:00       48.012      -44.210      -17.856       45.559       72.415       32.557     2075.582     5243.971     1059.938        0.648        0.419       65.266       26.215        0.161      336.423        7.715      867.768
01/17/2021  23:20:00       25.381      -50.354       -7.753       34.041       45.434       33.000     1158.775     2064.250     1089.013        0.378        0.216       56.389       23.408        0.172      336.410        7.693      867.769
01/17/2021  23:21:00       27.659      -52.623        6.151       46.757       51.503       29.905     2186.235     2652.591      894.292        0.465        0.287       59.450       26.085        0.193      336.427        7.721      867.774
01/17/2021  23:22:00       57.639      -97.820      -18.491       45.924       51.266       30.356     2109.022     2628.214      921.458        0.944        0.283      113.539       19.734        0.030      336.401        7.678      867.777
01/17/2021  23:23:00       57.849      -33.393      -16.524       41.353       42.692       24.678     1710.104     1822.638      609.013        0.444        0.207       66.795       24.602        0.136      336.301        7.508      867.787
01/17/2021  23:24:00       24.401      -22.908        1.114       54.932       53.020       27.188     3017.508     2811.136      739.192        0.384        0.328       33.469       30.562        0.834      336.297        7.503      867.783
01/17/2021  23:25:00       98.007       25.752      -17.737       87.900       71.903       46.833     7726.454     5170.006     2193.353        1.283        0.754      101.334       42.691        0.177      336.370        7.624      867.779
01/17/2021  23:26:00       50.251      -19.789      -12.453       71.998       58.192       21.205     5183.729     3386.288      449.633        0.604        0.451       54.007       10.854        0.040      336.485        7.818      867.811
01/17/2021  23:27:00      -34.528       17.051       -2.634       48.233       54.475       20.850     2326.466     2967.512      434.733        0.361        0.286       38.509       17.057        0.196      336.472        7.798      867.812
01/17/2021  23:28:00       46.570       72.268       -5.020       35.362       20.842       20.634     1250.446      434.400      425.774        0.476        0.106       85.973       15.152        0.031      336.351        7.593      867.830
01/17/2021  23:29:00       78.543       49.726      -10.871       40.959       45.679       20.712     1677.652     2086.528      428.994        0.648        0.210       92.960       17.974        0.037      336.149        7.256      867.852
01/17/2021  23:30:00       76.139       -9.154       -0.537       53.443       33.507       30.742     2856.203     1122.704      945.040        0.540        0.246       76.688       31.106        0.165      336.196        7.335      867.843
01/17/2021  23:31:00       70.287        4.694      -11.158       51.376       32.824       24.369     2639.501     1077.404      593.831        0.470        0.216       70.444        6.739        0.009      336.111        7.193      867.858
01/17/2021  23:32:00       79.496       10.023       -2.405       41.522       37.334       27.092     1724.090     1393.843      733.963        0.514        0.193       80.125       23.293        0.085      336.075        7.133      867.864
01/17/2021  23:33:00       25.202        4.238        5.572       40.951       27.411       24.221     1676.994      751.344      586.654        0.185        0.151       25.556       15.579        0.372      336.040        7.075      867.844
01/17/2021  23:34:00       75.933       -5.239      -15.293       41.297       46.642       22.861     1705.437     2175.483      522.612        0.521        0.220       76.114       10.095        0.018      336.121        7.210      867.823
01/17/2021  23:35:00       37.577        4.486       -6.528       39.581       41.851       19.841     1566.650     1751.539      393.684        0.259        0.186       37.844       17.988        0.226      336.152        7.262      867.810
01/17/2021  23:36:00       82.291       44.264      -11.646       36.176       28.905       22.218     1308.719      835.503      493.633        0.575        0.132       93.440        7.009        0.006      336.143        7.249      867.804
01/17/2021  23:37:00       73.968       50.591      -16.639       21.458       18.158       13.837      460.437      329.720      191.461        0.464        0.049       89.614       12.640        0.020      336.197        7.338      867.798
01/17/2021  23:38:00      102.873       39.698       -8.208       29.680       28.289       15.816      880.886      800.292      250.133        0.708        0.097      110.267        7.418        0.005      336.294        7.499      867.795
01/17/2021  23:39:00       41.574       13.809       -7.662       26.585       32.062       15.259      706.741     1027.969      232.838        0.197        0.098       43.807       11.911        0.074      336.177        7.303      867.793
01/17/2021  23:40:00       64.863        8.989      -10.318       37.462       28.387       15.739     1403.433      805.844      247.703        0.343        0.123       65.483       11.766        0.032      336.070        7.123      867.800
01/17/2021  23:41:00       65.291       35.222       -4.074       28.044       22.494       14.038      786.445      505.995      197.077        0.350        0.074       74.186       10.269        0.019      335.981        6.976      867.804
01/17/2021  23:42:00       75.465       51.157        1.061       29.877       18.057       18.601      892.613      326.064      345.989        0.494        0.078       91.170       16.903        0.034      335.893        6.830      867.805
01/17/2021  23:43:00       70.969       23.462       -1.226       24.460       19.046       12.571      598.295      362.768      158.037        0.335        0.056       74.746        9.600        0.016      335.850        6.759      867.802
01/17/2021  23:44:00       68.379       16.431       -1.103       29.487       24.621       17.066      869.492      606.196      291.258        0.336        0.088       70.325       16.775        0.057      335.870        6.793      867.790
01/17/2021  23:45:00       36.857       26.178        2.803       53.234       39.885       22.174     2833.906     1590.802      491.706        0.348        0.246       45.208       23.370        0.267      335.988        6.989      867.780
01/17/2021  23:46:00       25.104       29.208       -1.885       40.592       35.909       21.003     1647.691     1289.428      441.109        0.243        0.169       38.514       18.108        0.221      335.939        6.906      867.770
01/17/2021  23:47:00       62.213       14.554       -8.987       29.153       23.502        9.457      849.912      552.366       89.435        0.283        0.075       63.893        5.011        0.006      335.946        6.918      867.749
01/17/2021  23:48:00       52.600       20.540       -1.387       24.800       12.323       12.327      615.020      151.850      151.949        0.205        0.046       56.468       13.467        0.057      335.967        6.952      867.729
01/17/2021  23:49:00       30.574       12.173       -3.584       32.404       19.248       13.965     1050.033      370.505      195.013        0.136        0.081       32.909       15.385        0.219      335.904        6.849      867.722
01/17/2021  23:50:00       74.345       33.573       -5.422       21.843       21.500       10.786      477.136      462.261      116.333        0.387        0.053       81.574       10.457        0.016      335.912        6.863      867.702
01/17/2021  23:51:00       50.449       34.394       -2.075       22.036       19.419       16.066      485.596      377.086      258.117        0.243        0.056       61.058        8.603        0.020      335.898        6.838      867.688
01/17/2021  23:52:00       78.640       44.732       -7.232       29.252       16.480       18.345      855.700      271.604      336.528        0.485        0.073       90.472       16.973        0.035      335.975        6.966      867.666
01/17/2021  23:53:00       51.995       48.363       -3.959       28.553       27.451       15.187      815.252      753.572      230.644        0.343        0.090       71.010       13.366        0.035      335.938        6.904      867.643
01/17/2021  23:54:00       76.751       52.173      -15.812       20.727       15.127       12.684      429.606      228.811      160.882        0.484        0.041       92.805       10.800        0.014      335.958        6.938      867.621
01/17/2021  23:55:00       84.908       54.114      -17.072       19.759       15.394       14.119      390.423      236.961      199.333        0.563        0.041      100.686       11.246        0.012      335.993        6.996      867.594
01/17/2021  23:56:00       64.982       15.435       -4.619       34.258       24.465       15.211     1173.616      598.557      231.362        0.324        0.100       66.790       15.400        0.053      335.930        6.891      867.571
01/17/2021  23:57:00       49.713        2.229        1.918       37.270       22.959       16.673     1389.066      527.103      277.988        0.234        0.110       49.763       15.363        0.095      335.887        6.821      867.545
01/17/2021  23:58:00       54.434       13.471       -0.248       27.471       24.806       13.884      754.633      615.349      192.776        0.235        0.078       56.077       10.595        0.036      335.882        6.812      867.524
01/17/2021  23:59:00       27.638       -7.089        2.859       30.136       20.455       14.637      908.158      418.411      214.254        0.118        0.077       28.533       14.118        0.245      335.956        6.936      867.498
01/18/2021  00:00:00       45.561      -12.989       -3.876       15.705       10.875        9.806      246.647      118.269       96.154        0.136        0.023       47.376        9.657        0.042      335.978        6.970      867.476
01/18/2021  00:01:00       55.448      -25.801       -5.703       51.515       12.653       23.296     2653.814      160.105      542.695        0.356        0.168       61.157       33.123        0.293      336.059        7.106      867.454
01/18/2021  00:02:00       28.381      -11.417       -1.476       25.877       32.791       17.649      669.596     1075.251      311.480        0.150        0.103       30.591       17.906        0.343      336.040        7.074      867.452
01/18/2021  00:03:00       42.074       -6.738      -12.568       30.983       41.690       26.193      959.948     1738.043      686.085        0.268        0.169       42.610       16.645        0.153      336.134        7.231      867.482
01/18/2021  00:04:00       36.834        2.704      -15.132       36.248       43.937       21.330     1313.908     1930.448      454.971        0.265        0.185       36.933       15.426        0.174      336.175        7.301      867.516
01/18/2021  00:05:00       56.845      -22.475       -3.429       38.228       24.031       16.785     1461.402      577.499      281.749        0.303        0.116       61.127       17.808        0.085      336.037        7.069      867.562
01/18/2021  00:06:00       50.371       -1.142       -7.117       39.134       35.201       25.601     1531.455     1239.134      655.426        0.301        0.171       50.384       23.520        0.218      335.955        6.933      867.591
01/18/2021  00:07:00       51.976       -1.680       -4.667       37.353       32.411       25.620     1395.218     1050.456      656.398        0.291        0.155       52.003       20.281        0.152      335.916        6.870      867.610
01/18/2021  00:08:00       47.782      -11.622       -4.662       54.887       37.345       32.017     3012.618     1394.684     1025.059        0.393        0.272       49.175       31.052        0.399      335.889        6.823      867.613
01/18/2021  00:09:00       45.905      -15.701       -6.289       56.947       49.720       26.558     3242.997     2472.050      705.302        0.441        0.321       48.516       28.465        0.344      335.863        6.780      867.614
01/18/2021  00:10:00       53.775      -35.082      -12.791       53.587       45.074       30.573     2871.573     2031.659      934.690        0.506        0.292       64.206       26.906        0.176      335.915        6.866      867.595
01/18/2021  00:11:00       87.447      -57.613      -17.266       41.131       44.429       26.772     1691.778     1973.975      716.717        0.782        0.219      104.720       25.459        0.059      335.894        6.832      867.583
01/18/2021  00:12:00       60.834      -59.444       -8.129       41.359       42.145       38.323     1710.544     1776.196     1468.617        0.613        0.248       85.055       32.912        0.150      335.951        6.928      867.572
01/18/2021  00:13:00       64.683      -13.920      -27.003       50.291       38.702       24.160     2529.151     1497.844      583.728        0.486        0.231       66.164       22.351        0.114      335.916        6.869      867.544
01/18/2021  00:14:00      102.887      -53.121      -14.233       51.604       34.761       25.666     2663.008     1208.356      658.762        0.907        0.227      115.791       27.883        0.058      335.838        6.738      867.529
01/18/2021  00:15:00       32.526      -23.822       -3.571       45.391       46.064       33.339     2060.380     2121.921     1111.462        0.346        0.265       40.316       31.875        0.625      335.821        6.710      867.525
01/18/2021  00:16:00       83.327      -35.507      -19.334       38.948       29.656       19.625     1516.975      879.478      385.153        0.568        0.139       90.576       13.061        0.021      335.897        6.837      867.545
01/18/2021  00:17:00       43.023       15.581       -3.331       30.796       40.195       16.462      948.378     1615.603      271.011        0.247        0.142       45.757       18.257        0.159      335.796        6.669      867.564
01/18/2021  00:18:00       65.787       42.084       -2.519       26.024       16.501       15.126      677.260      272.289      228.786        0.364        0.059       78.096       10.264        0.017      335.555        6.266      867.576
01/18/2021  00:19:00      113.929       46.394      -10.425       40.307       25.001       21.137     1624.680      625.060      446.791        0.897        0.135      123.013       20.270        0.027      335.543        6.247      867.582
01/18/2021  00:20:00      107.927       60.029      -12.391       25.324       33.655       17.229      641.296     1132.640      296.826        0.874        0.104      123.498       11.942        0.009      335.505        6.184      867.584
01/18/2021  00:21:00       80.528       50.864       -3.195       32.412       35.254       27.927     1050.544     1242.842      779.918        0.608        0.154       95.246       20.003        0.044      335.509        6.189      867.576
01/18/2021  00:22:00       98.487       21.704      -11.931       33.774       27.850       16.432     1140.711      775.617      270.008        0.625        0.109      100.850       12.752        0.016      335.423        6.047      867.568
01/18/2021  00:23:00       71.166       15.509      -11.004       52.343       31.765       21.185     2739.748     1009.037      448.809        0.481        0.210       72.836       24.290        0.111      335.399        6.005      867.571
01/18/2021  00:24:00       32.522       22.322       -9.257       30.487       31.143       13.898      929.470      969.874      193.152        0.187        0.105       39.445        7.393        0.035      335.319        5.874      867.574
01/18/2021  00:25:00       63.949       29.695      -12.464       20.833       16.182       13.452      434.003      261.845      180.956        0.300        0.044       70.507       11.923        0.029      335.237        5.736      867.567
01/18/2021  00:26:00       68.060       14.938      -15.020       22.387       23.129       12.362      501.186      534.952      152.808        0.313        0.059       69.680       12.129        0.030      335.250        5.759      867.556
01/18/2021  00:27:00       37.286       -1.497       -7.520       28.936       26.907       14.972      837.288      724.004      224.150        0.162        0.089       37.317       15.423        0.171      335.265        5.783      867.558
01/18/2021  00:28:00       30.712        9.667        2.215       28.827       28.468       18.920      830.994      810.432      357.952        0.152        0.100       32.197       10.226        0.101      335.188        5.657      867.565
01/18/2021  00:29:00       60.934       16.271      -12.724       39.045       49.006       21.912     1524.500     2401.632      480.137        0.427        0.220       63.069       20.869        0.109      335.211        5.694      867.577
01/18/2021  00:30:00       40.221       26.941       -6.970       31.075       34.116       18.439      965.634     1163.872      340.009        0.243        0.123       48.410       16.996        0.123      335.090        5.492      867.590
01/18/2021  00:31:00       57.954       16.329      -11.802       28.733       19.337       14.555      825.574      373.909      211.849        0.259        0.071       60.210       16.381        0.074      335.006        5.355      867.607
01/18/2021  00:32:00       56.584       18.376       -3.759       19.353       17.873       13.064      374.533      319.445      170.663        0.221        0.043       59.493       11.577        0.038      335.019        5.376      867.610
01/18/2021  00:33:00       99.924       27.247       -9.822       27.909       11.904       13.181      778.923      141.713      173.729        0.596        0.055      103.572       11.248        0.012      334.945        5.253      867.612
01/18/2021  00:34:00       92.788       39.730       -7.624       21.861       14.247       12.524      477.903      202.969      156.852        0.554        0.042      100.936       11.213        0.012      334.987        5.322      867.614
01/18/2021  00:35:00       45.287        7.546       -8.509       38.643       34.150       24.946     1493.303     1166.242      622.292        0.273        0.164       45.912       22.841        0.247      335.134        5.567      867.608
01/18/2021  00:36:00       28.002       -4.839        0.049       38.588       29.131       26.081     1489.066      848.644      680.197        0.191        0.151       28.417       23.177        0.665      335.008        5.360      867.608
01/18/2021  00:37:00       45.832       -1.552      -10.529       46.947       36.240       27.213     2204.026     1313.325      740.544        0.323        0.213       45.858       19.841        0.187      335.154        5.600      867.609
01/18/2021  00:38:00       44.280      -22.119       -9.115       24.189       27.915       21.195      585.116      779.272      449.216        0.217        0.091       49.497       11.630        0.055      335.180        5.643      867.612
01/18/2021  00:39:00       46.596      -12.945      -13.130       27.675       37.883       20.218      765.887     1435.123      408.766        0.256        0.130       48.361       17.070        0.125      335.082        5.481      867.619
01/18/2021  00:40:00       66.618       -0.055       -1.190       37.553       29.519       24.850     1410.204      871.387      617.529        0.367        0.145       66.618       19.473        0.085      335.037        5.408      867.629
01/18/2021  00:41:00       27.601        8.622       -2.026       31.583       25.196       14.603      997.476      634.839      213.245        0.134        0.092       28.916       12.791        0.196      335.054        5.434      867.639
01/18/2021  00:42:00       69.436       13.339       -8.331       18.013       16.683       11.337      324.462      278.324      128.526        0.290        0.037       70.706       10.021        0.020      334.995        5.335      867.655
01/18/2021  00:43:00       62.043       10.990       -8.361       20.890       14.060       12.024      436.374      197.687      144.570        0.241        0.039       63.009       10.682        0.029      335.002        5.348      867.670
01/18/2021  00:44:00       68.598       12.644      -10.296       23.440       15.413       12.297      549.444      237.571      151.222        0.295        0.047       69.754       14.494        0.043      335.069        5.461      867.672
01/18/2021  00:45:00       61.507       18.152       -3.115       30.270       16.404       15.429      916.281      269.102      238.049        0.277        0.071       64.130       10.505        0.027      335.096        5.505      867.679
01/18/2021  00:46:00       64.439       42.278        3.285       38.831       35.032       26.519     1507.879     1227.214      703.260        0.469        0.172       77.070       17.427        0.051      335.184        5.649      867.676
01/18/2021  00:47:00       42.899       42.143        4.605       23.383       13.355       13.172      546.779      178.346      173.509        0.227        0.045       60.136       14.861        0.061      335.027        5.390      867.667
01/18/2021  00:48:00       39.039       22.813       -2.460       22.907        9.001        9.344      524.723       81.022       87.310        0.137        0.035       45.216       12.106        0.072      335.057        5.441      867.666
01/18/2021  00:49:00       50.516       25.562       -5.732       17.421        6.380       11.064      303.499       40.710      122.409        0.185        0.023       56.615       11.451        0.041      335.104        5.517      867.667
01/18/2021  00:50:00       55.346       31.310       -2.243       13.190        7.374        6.608      173.985       54.382       43.664        0.216        0.014       63.589        7.816        0.015      335.132        5.563      867.678
01/18/2021  00:51:00       46.586        4.535       -0.752       22.895       21.013        9.783      524.203      441.563       95.717        0.163        0.053       46.806       11.187        0.057      335.220        5.707      867.691
01/18/2021  00:52:00       57.664        8.075       -1.774       26.076       12.288       12.113      679.937      150.985      146.729        0.219        0.049       58.227       12.794        0.048      335.287        5.819      867.693
01/18/2021  00:53:00       47.671       15.055        2.627       20.188       16.689       13.134      407.549      278.530      172.510        0.168        0.043       49.992       12.569        0.063      335.269        5.790      867.693
01/18/2021  00:54:00       61.683       39.299       -1.837       20.415       10.808       10.477      416.754      116.814      109.777        0.300        0.032       73.138       10.040        0.019      335.276        5.801      867.678
01/18/2021  00:55:00       81.190       45.985       -8.093       16.515       13.032       11.576      272.745      169.821      133.993        0.467        0.029       93.309        8.997        0.009      335.258        5.771      867.652
01/18/2021  00:56:00       93.863       27.512      -11.565       21.022       19.096       13.781      441.905      364.657      189.925        0.535        0.050       97.812       11.726        0.014      335.455        6.099      867.627
01/18/2021  00:57:00       63.360       24.622        0.711       27.466       21.169       14.368      754.358      448.111      206.452        0.301        0.070       67.976       13.625        0.040      335.559        6.273      867.609
01/18/2021  00:58:00       27.112       31.583        4.453       22.398       19.477       15.698      501.676      379.365      246.439        0.144        0.056       41.624       14.916        0.128      335.213        5.699      867.606
01/18/2021  00:59:00       53.432       35.861       -3.827       18.404       17.175       12.960      338.700      294.965      167.954        0.248        0.040       64.351       11.691        0.033      335.262        5.779      867.587
01/18/2021  01:00:00       54.907       16.139       -1.186        8.739       14.451        4.539       76.362      208.818       20.602        0.179        0.015       57.230        4.004        0.005      335.393        5.997      867.570
01/18/2021  01:01:00       43.355       19.386       -2.528       20.076        8.851        8.443      403.043       78.346       71.291        0.141        0.028       47.492       10.291        0.047      335.371        5.959      867.576
01/18/2021  01:02:00       34.115       22.857       -1.684       19.663       10.577        7.062      386.629      111.880       49.871        0.112        0.027       41.065        6.705        0.027      335.516        6.201      867.585
01/18/2021  01:03:00       27.295       18.585        0.840       20.907       11.996       10.872      437.095      143.912      118.190        0.090        0.035       33.022        9.901        0.090      335.505        6.183      867.606
01/18/2021  01:04:00       35.657       38.647       -2.602       18.693       14.969       12.506      349.419      224.067      156.407        0.175        0.036       52.583        9.959        0.036      335.489        6.156      867.622
01/18/2021  01:05:00       50.050       61.331       -1.503       23.067       23.646       12.736      532.087      559.156      162.217        0.376        0.063       79.161        8.773        0.012      335.628        6.388      867.632
01/18/2021  01:06:00       47.863       89.950       -1.026       27.993       32.220       22.239      783.626     1038.136      494.582        0.635        0.116      101.892       18.766        0.034      335.673        6.463      867.642
01/18/2021  01:07:00       54.377       79.655       -1.853       28.924       33.121       22.616      836.593     1096.982      511.496        0.587        0.122       96.445       21.237        0.048      335.765        6.617      867.657
01/18/2021  01:08:00       52.581       68.483       -4.751       33.540       26.122       23.636     1124.920      682.384      558.663        0.492        0.118       86.340       21.077        0.060      335.591        6.326      867.669
01/18/2021  01:09:00       68.143       63.847      -13.137      168.451       24.456       81.157    28375.834      598.078     6586.485        2.222        1.778       93.380      115.246        1.523      335.572        6.297      867.679
01/18/2021  01:10:00       74.148       78.099       -6.924       31.089       29.621       21.192      966.549      877.424      449.121        0.697        0.115      107.691       18.148        0.028      335.603        6.347      867.679
01/18/2021  01:11:00       68.679       63.920        1.302       37.276       21.927       19.944     1389.522      480.783      397.765        0.554        0.113       93.822       13.123        0.020      335.604        6.349      867.684
01/18/2021  01:12:00       48.865       46.666       -1.387       27.939       18.989       19.067      780.565      360.580      363.553        0.304        0.075       67.569        8.637        0.016      335.422        6.045      867.686
01/18/2021  01:13:00       50.412       87.913       -5.471       28.334       36.398       20.190      802.802     1324.799      407.631        0.642        0.127      101.341       11.482        0.013      335.599        6.341      867.682
01/18/2021  01:14:00       66.524       92.203       -3.053       30.276       27.292       19.480      916.618      744.869      379.455        0.749        0.102      113.696       14.204        0.016      335.747        6.587      867.673
01/18/2021  01:15:00       57.419       69.629        0.901       31.609       26.975       19.160      999.103      727.661      367.090        0.512        0.105       90.251       10.006        0.012      335.573        6.295      867.680
01/18/2021  01:16:00       70.935       50.230       -5.143       33.953       22.377       18.716     1152.775      500.712      350.293        0.479        0.100       86.919       12.038        0.019      335.283        5.813      867.695
01/18/2021  01:17:00       74.415       68.193       -9.566       36.947       26.234       18.461     1365.059      688.221      340.792        0.634        0.120      100.935       14.316        0.020      335.406        6.018      867.693
01/18/2021  01:18:00      100.582       86.214       -6.451       41.894       33.780       25.191     1755.115     1141.069      634.587        1.056        0.177      132.475       20.516        0.024      335.665        6.451      867.683
01/18/2021  01:19:00      118.076       70.917       -0.974       40.954       33.279       27.617     1677.258     1107.482      762.722        1.126        0.177      137.736       20.917        0.023      335.707        6.519      867.661
01/18/2021  01:20:00       67.699       37.155        4.404       28.725       23.258       19.745      825.142      540.950      389.862        0.387        0.088       77.225       16.055        0.043      335.527        6.219      867.638
01/18/2021  01:21:00       95.746       65.809       -3.868       26.457       19.180       12.362      699.970      367.854      152.812        0.737        0.061      116.182       10.860        0.009      335.733        6.564      867.616
01/18/2021  01:22:00       75.498       66.646       -1.758       38.535       26.779       20.117     1484.985      717.128      404.683        0.638        0.130      100.706       20.195        0.040      335.758        6.605      867.616
01/18/2021  01:23:00       41.403       74.116        0.528       30.011       35.220       22.100      900.683     1240.422      488.411        0.492        0.131       84.896       20.506        0.058      335.703        6.515      867.617
01/18/2021  01:24:00       62.101      107.208       -7.936       34.115       32.755       23.747     1163.820     1072.889      563.928        0.911        0.140      123.896       22.194        0.032      335.672        6.461      867.623
01/18/2021  01:25:00       44.063      127.642        0.416       34.322       42.932       27.851     1178.003     1843.130      775.683        1.101        0.190      135.034       21.806        0.026      335.865        6.783      867.638
01/18/2021  01:26:00       16.451      164.238       -0.980       33.614       33.253       24.018     1129.906     1105.789      576.850        1.503        0.141      165.059       16.922        0.011      335.952        6.928      867.663
01/18/2021  01:27:00       29.479      174.444       -7.283       36.122       43.746       31.075     1304.807     1913.673      965.655        1.777        0.209      176.918       23.188        0.017      336.041        7.075      867.699
01/18/2021  01:28:00       55.492      116.119       -6.411       37.035       39.519       28.718     1371.604     1561.787      824.717        1.018        0.188      128.698       27.978        0.047      335.958        6.939      867.731
01/18/2021  01:29:00       49.321       93.499       -5.838       33.783       32.652       24.681     1141.293     1066.172      609.152        0.701        0.141      105.711       19.058        0.033      336.027        7.053      867.754
01/18/2021  01:30:00       22.670       43.239       -4.851       20.113       22.638       14.299      404.539      512.498      204.475        0.176        0.056       48.822       11.054        0.051      336.005        7.016      867.750
01/18/2021  01:31:00        6.096       -0.066       -2.598       20.292       16.303        9.718      411.752      265.800       94.441        0.041        0.039        6.097        9.634        2.497      336.009        7.024      867.742
01/18/2021  01:32:00       21.582       23.756        0.728       11.598       12.593       13.395      134.507      158.595      179.424        0.075        0.024       32.096       12.121        0.143      335.935        6.900      867.725
01/18/2021  01:33:00       -6.199      -31.485       -7.909       14.019       29.522       12.735      196.522      871.560      162.180        0.116        0.062       32.089       10.866        0.115      335.951        6.927      867.717
01/18/2021  01:34:00       32.921       18.272       -6.145       23.176       21.959       15.236      537.117      482.197      232.146        0.135        0.063       37.652       12.539        0.111      335.907        6.856      867.722
01/18/2021  01:35:00       76.262       46.314       -4.901       34.583       18.586       12.777     1195.962      345.438      163.259        0.484        0.085       89.224       18.016        0.041      335.812        6.695      867.743
01/18/2021  01:36:00       68.620       17.450       -0.966       35.265       17.998       14.739     1243.629      323.943      217.238        0.340        0.089       70.804       17.346        0.060      335.699        6.507      867.765
01/18/2021  01:37:00       33.037       15.242       -2.477       19.111       18.564       15.136      365.220      344.633      229.093        0.113        0.047       36.384        7.089        0.038      335.609        6.357      867.769
01/18/2021  01:38:00      -36.673       31.383       -6.727       25.514       23.841       15.237      650.975      568.377      232.169        0.191        0.073       48.268       10.954        0.052      335.749        6.591      867.750
01/18/2021  01:39:00      -46.807       89.464      -12.489       49.243       48.902       22.811     2424.864     2391.452      520.347        0.784        0.267      100.969       19.138        0.036      335.969        6.958      867.727
01/18/2021  01:40:00       -9.571       61.155      -13.294       39.045       44.239       21.162     1524.515     1957.081      447.826        0.397        0.196       61.900       11.393        0.034      336.035        7.068      867.718
01/18/2021  01:41:00        1.723       70.980       -0.658       32.925       31.293       22.909     1084.029      979.269      524.816        0.381        0.129       71.001       18.316        0.067      336.053        7.097      867.728
01/18/2021  01:42:00      -20.848       37.521      -13.081       31.927       33.294       18.783     1019.347     1108.520      352.787        0.225        0.124       42.924        6.214        0.021      336.002        7.011      867.726
01/18/2021  01:43:00       24.483       34.193       -3.943       33.837       14.785       12.572     1144.916      218.603      158.044        0.165        0.076       42.055       10.496        0.062      335.921        6.875      867.718
01/18/2021  01:44:00        9.228       71.401       -4.885       35.531       40.575       19.149     1262.487     1646.358      366.699        0.424        0.164       71.995       19.405        0.073      335.909        6.857      867.712
01/18/2021  01:45:00       59.157      136.491      -10.769       43.371       51.205       32.795     1881.039     2621.917     1075.508        1.391        0.279      148.759       29.743        0.040      335.934        6.898      867.704
01/18/2021  01:46:00       28.270      213.591      -21.929       55.383       59.229       32.741     3067.263     3508.020     1072.004        2.727        0.382      215.454       30.651        0.020      335.950        6.922      867.711
01/18/2021  01:47:00      -28.615      171.546       -7.124       56.576       46.162       31.420     3200.831     2130.967      987.203        1.831        0.316      173.916       23.402        0.018      336.002        7.010      867.720
01/18/2021  01:48:00      -36.812      149.390       -9.857       57.267       53.447       31.736     3279.508     2856.628     1007.179        1.545        0.357      153.859       17.388        0.013      335.979        6.972      867.737
01/18/2021  01:49:00       22.720      155.853      -17.435       65.594       80.216       32.504     4302.568     6434.562     1056.529        1.845        0.590      157.500       28.773        0.033      335.950        6.923      867.763
01/18/2021  01:50:00       19.280      164.249      -15.942       51.697       57.941       29.545     2672.599     3357.171      872.914        1.725        0.345      165.377       26.528        0.026      335.873        6.795      867.794
01/18/2021  01:51:00       12.024      124.794       -8.362       39.790       36.844       21.163     1583.280     1357.490      447.890        0.959        0.169      125.372       10.976        0.008      335.927        6.885      867.816
01/18/2021  01:52:00       -8.068       76.344      -20.653       52.136       58.400       21.009     2718.111     3410.574      441.394        0.644        0.329       76.769       16.356        0.045      335.970        6.958      867.827
01/18/2021  01:53:00       33.477      104.468       -6.104       43.603       36.986       25.304     1901.214     1367.994      640.272        0.799        0.195      109.701       20.287        0.034      335.927        6.885      867.857
01/18/2021  01:54:00        8.247       82.844       -5.855       31.230       34.102       24.769      975.333     1162.917      613.490        0.486        0.138       83.253       17.275        0.043      335.917        6.870      867.880
01/18/2021  01:55:00      -62.546       45.750      -14.904       41.114       29.424       19.255     1690.375      865.748      370.761        0.458        0.146       77.493       14.008        0.033      335.942        6.912      867.887
01/18/2021  01:56:00       -9.455       33.895        1.409       26.716       33.027       16.961      713.737     1090.815      287.684        0.167        0.105       35.189        6.833        0.038      335.930        6.891      867.906
01/18/2021  01:57:00       -5.589       62.095       -2.508       46.541       31.523       17.568     2166.057      993.704      308.626        0.368        0.173       62.346        9.000        0.021      335.905        6.850      867.920
01/18/2021  01:58:00       -2.884      107.569       -6.600       50.361       61.633       27.547     2536.195     3798.590      758.825        0.936        0.355      107.608       26.108        0.059      335.962        6.944      867.924
01/18/2021  01:59:00       41.234      167.947       -8.842       67.947       69.805       39.446     4616.754     4872.793     1555.976        2.051        0.552      172.935       37.609        0.047      335.931        6.892      867.909
01/18/2021  02:00:00      -50.724      141.137       -3.488       56.301       52.526       29.646     3169.839     2758.933      878.889        1.465        0.340      149.975       17.868        0.014      335.988        6.986      867.888
01/18/2021  02:01:00       32.780      146.873      -18.273       74.297       76.080       30.223     5520.093     5788.127      913.432        1.760        0.611      150.487       23.548        0.024      335.918        6.870      867.872
01/18/2021  02:02:00       49.154       13.374      -13.687       34.638       53.737       16.908     1199.782     2887.687      285.878        0.358        0.219       50.941       13.493        0.070      335.753        6.597      867.855
01/18/2021  02:03:00       66.127       38.076       -3.393       33.664       36.106       24.524     1133.282     1303.616      601.421        0.444        0.152       76.306       17.115        0.050      335.710        6.525      867.840
01/18/2021  02:04:00       82.366       58.896       -2.981       33.804       28.194       20.689     1142.692      794.877      428.049        0.631        0.118      101.256       16.502        0.027      335.707        6.520      867.837
01/18/2021  02:05:00       38.397       65.516        0.325       47.970       44.776       23.786     2301.134     2004.884      565.795        0.532        0.244       75.939       18.085        0.057      335.746        6.585      867.837
01/18/2021  02:06:00       49.351      100.160       -1.511       42.738       36.179       29.072     1826.565     1308.941      845.194        0.822        0.199      111.658       22.617        0.041      335.824        6.715      867.848
01/18/2021  02:07:00       20.426      109.692       -4.982       32.355       40.741       22.112     1046.838     1659.826      488.925        0.783        0.160      111.577       22.388        0.040      335.812        6.696      867.864
01/18/2021  02:08:00       33.076      100.953       -7.163       28.273       35.324       25.204      799.356     1247.796      635.266        0.701        0.134      106.233       16.978        0.026      335.844        6.748      867.899
01/18/2021  02:09:00       30.394      146.865      -12.663       27.219       45.406       21.770      740.898     2061.696      473.926        1.296        0.164      149.977       19.230        0.016      335.835        6.733      867.937
01/18/2021  02:10:00       42.280      115.945      -15.840       41.136       49.748       26.092     1692.155     2474.896      680.782        1.016        0.242      123.413       23.569        0.036      335.771        6.628      867.949
01/18/2021  02:11:00       23.590      124.991       -7.200       27.693       25.767       18.876      766.924      663.940      356.320        0.901        0.089      127.197       13.630        0.011      335.837        6.736      867.932
01/18/2021  02:12:00      -15.849       97.483       -1.664       29.515       40.189       25.610      871.121     1615.125      655.857        0.645        0.157       98.763       22.397        0.051      335.895        6.833      867.923
01/18/2021  02:13:00      -45.902       13.948       -1.475       23.111       26.545       14.939      534.102      704.616      223.174        0.188        0.073       47.974       11.957        0.062      335.891        6.827      867.898
01/18/2021  02:14:00      -45.826       17.653       -6.803       28.906       16.159       15.824      835.566      261.115      250.403        0.190        0.067       49.109        8.440        0.030      335.783        6.645      867.882
01/18/2021  02:15:00      -15.600       23.015        2.608       22.931       19.677       12.478      525.843      387.166      155.690        0.092        0.053       27.804        6.199        0.050      335.768        6.623      867.892
01/18/2021  02:16:00        1.794       40.594       -2.942       26.432       30.766       21.223      698.672      946.545      450.424        0.188        0.105       40.634       15.195        0.140      335.789        6.657      867.912
01/18/2021  02:17:00        2.263      120.435      -11.369       40.124       37.321       22.220     1609.950     1392.881      493.707        0.907        0.175      120.456       20.784        0.030      335.818        6.705      867.921
01/18/2021  02:18:00      -14.455       99.991        2.064       49.073       58.488       31.455     2408.146     3420.885      989.401        0.851        0.341      101.030       27.799        0.076      335.775        6.634      867.925
01/18/2021  02:19:00       32.771       92.500      -14.354       50.025       46.151       23.885     2502.502     2129.897      570.483        0.752        0.260       98.134       26.316        0.072      335.698        6.506      867.950
01/18/2021  02:20:00       39.666       24.549       -0.898       20.909       22.642       13.150      437.168      512.649      172.919        0.165        0.056       46.648       12.067        0.067      335.584        6.315      867.962
01/18/2021  02:21:00       27.790       59.831       -5.704       34.348       57.924       22.986     1179.778     3355.138      528.361        0.472        0.253       65.970       25.380        0.148      335.647        6.420      867.972
01/18/2021  02:22:00       29.937       85.969       -4.835       37.047       42.591       19.961     1372.513     1813.967      398.424        0.595        0.179       91.033       14.800        0.026      335.694        6.499      867.992
01/18/2021  02:23:00       21.342      138.086       -8.550       52.986       50.734       31.756     2807.475     2573.981     1008.432        1.299        0.319      139.726       31.518        0.051      335.815        6.700      868.015
01/18/2021  02:24:00       28.254      158.977       -7.178       80.147       70.536       37.437     6423.584     4975.394     1401.545        1.946        0.640      161.468       31.556        0.038      335.781        6.642      868.042
01/18/2021  02:25:00       22.778      189.697      -10.322       64.710       71.456       34.291     4187.353     5105.891     1175.856        2.354        0.523      191.060       29.548        0.024      335.765        6.615      868.065
01/18/2021  02:26:00       32.201      155.018       -8.240       67.604       59.950       34.451     4570.261     3594.059     1186.856        1.724        0.468      158.327       28.194        0.032      335.786        6.651      868.088
01/18/2021  02:27:00       27.693      219.671      -14.207       68.417       58.943       31.340     4680.843     3474.284      982.170        2.918        0.457      221.410       20.892        0.009      335.851        6.757      868.106
01/18/2021  02:28:00       23.668      172.551      -20.652       48.201       60.495       25.937     2323.305     3659.621      672.725        1.871        0.333      174.167       24.155        0.019      335.883        6.814      868.115
01/18/2021  02:29:00       30.582      200.046      -17.369       64.821       54.684       27.170     4201.751     2990.317      738.207        2.459        0.397      202.370       22.833        0.013      335.923        6.878      868.112
01/18/2021  02:30:00      -30.558      152.453       -4.396       69.792       67.616       30.640     4870.964     4571.923      938.806        1.729        0.519      155.486       13.661        0.008      335.959        6.939      868.103
01/18/2021  02:31:00      -38.370      163.305      -15.268       53.516       76.160       34.143     2863.955     5800.304     1165.713        1.910        0.491      167.752       25.318        0.023      335.908        6.855      868.104
01/18/2021  02:32:00       -7.259       83.262        3.004       60.104       51.443       29.864     3612.516     2646.423      891.851        0.707        0.358       83.578       30.159        0.130      335.865        6.783      868.114
01/18/2021  02:33:00       61.402       89.373      -12.101       34.683       44.025       25.678     1202.909     1938.182      659.372        0.785        0.190      108.433       17.589        0.026      335.782        6.646      868.130
01/18/2021  02:34:00       13.399       57.774        2.251       68.264       41.944       37.798     4659.925     1759.267     1428.697        0.568        0.392       59.307       20.589        0.121      335.805        6.684      868.137
01/18/2021  02:35:00       11.145        3.170       -8.099       18.152       18.419       11.777      329.494      339.257      138.698        0.050        0.040       11.587        8.584        0.549      335.805        6.684      868.141
01/18/2021  02:36:00        8.669       14.232        4.939       19.905       20.136       11.433      396.196      405.470      130.723        0.062        0.047       16.665       10.299        0.382      335.666        6.453      868.148
01/18/2021  02:37:00      -53.277       12.287       -5.671       31.891       26.589       16.095     1017.016      706.950      259.041        0.250        0.099       54.676       10.244        0.035      335.752        6.596      868.147
01/18/2021  02:38:00       13.442      -13.411       -0.490       24.199       18.641       13.413      585.609      347.500      179.907        0.074        0.056       18.987       10.482        0.305      335.732        6.561      868.137
01/18/2021  02:39:00        7.590      -25.699      -10.498       26.343       21.103       12.404      693.931      445.325      153.849        0.106        0.065       26.796       11.302        0.178      335.747        6.588      868.123
01/18/2021  02:40:00       39.614      -25.839       -7.831       20.836       18.415       14.115      434.145      339.111      199.220        0.164        0.049       47.296       12.078        0.065      335.638        6.405      868.113
01/18/2021  02:41:00       41.787      -54.926      -14.700       21.399       35.032       11.289      457.906     1227.218      127.446        0.340        0.091       69.015        3.096        0.002      335.644        6.415      868.100
01/18/2021  02:42:00       -2.328      -51.141      -11.256       14.269       11.422        8.229      203.597      130.461       67.720        0.157        0.020       51.194        8.097        0.025      335.773        6.631      868.088
01/18/2021  02:43:00      -16.140      -18.690       -4.452       19.950       19.984       16.444      398.009      399.362      270.414        0.085        0.053       24.694       12.332        0.249      335.943        6.914      868.078
01/18/2021  02:44:00       17.209      -46.423       -3.881       29.362       22.164       15.884      862.139      491.265      252.300        0.204        0.080       49.510       16.118        0.106      335.805        6.684      868.080
01/18/2021  02:45:00       -3.495       -7.817       -8.325       17.832       11.294        7.132      317.986      127.561       50.870        0.032        0.025        8.563        5.134        0.359      335.627        6.387      868.105
01/18/2021  02:46:00       -5.907        9.952       -2.962       11.113        7.292        6.647      123.490       53.173       44.182        0.018        0.011       11.573        7.482        0.418      335.626        6.387      868.125
01/18/2021  02:47:00       -7.512        3.544        3.078       10.801        6.741        7.383      116.661       45.438       54.511        0.015        0.011        8.306        5.372        0.418      335.589        6.324      868.136
01/18/2021  02:48:00      -15.261        3.807        1.646       12.607       11.382        8.246      158.924      129.553       67.999        0.030        0.018       15.729        5.785        0.135      335.681        6.476      868.151
01/18/2021  02:49:00      -28.727       -8.682       -7.343       17.876       11.751       12.809      319.534      138.080      164.064        0.079        0.031       30.010        7.561        0.063      335.667        6.453      868.174
01/18/2021  02:50:00      -21.965      -12.629       10.795       20.534       20.211       15.701      421.653      408.498      246.518        0.092        0.054       25.337        5.968        0.055      335.676        6.469      868.179
01/18/2021  02:51:00       35.680      -19.519      -17.353       26.499       33.728       19.961      702.213     1137.570      398.457        0.210        0.112       40.670       12.450        0.094      335.598        6.339      868.177
01/18/2021  02:52:00       47.279      -44.076       -7.398       29.648       26.833       16.450      878.995      719.984      270.604        0.305        0.093       64.638       15.801        0.060      335.627        6.386      868.154
01/18/2021  02:53:00       27.710      -14.937       -4.913       19.622       29.790       13.331      385.019      887.474      177.714        0.123        0.073       31.480       12.370        0.154      335.627        6.386      868.139
01/18/2021  02:54:00       46.876       -0.046       -3.204       24.624       21.894       12.221      606.319      479.357      149.356        0.172        0.062       46.876        8.762        0.035      335.665        6.451      868.136
01/18/2021  02:55:00        1.316       11.353        2.157       15.450       10.012       13.697      238.691      100.241      187.599        0.033        0.026       11.429       11.503        1.013      335.707        6.520      868.148
01/18/2021  02:56:00       -8.987       15.481       -4.785       14.754       10.381        9.195      217.688      107.758       84.545        0.038        0.020       17.900        7.367        0.169      335.671        6.460      868.150
01/18/2021  02:57:00       19.040       37.366       -0.725       24.202       20.856       11.450      585.733      434.955      131.110        0.146        0.058       41.937        8.924        0.045      335.696        6.502      868.150
01/18/2021  02:58:00      -22.699       34.277       -4.947       31.268       16.296       15.177      977.712      265.575      230.347        0.159        0.074       41.112        8.884        0.047      335.688        6.489      868.151
01/18/2021  02:59:00      -32.019       25.413       -2.412       29.028       25.348       14.863      842.622      642.529      220.913        0.169        0.085       40.879       16.507        0.163      335.807        6.687      868.150
01/18/2021  03:00:00       -1.566       49.048       -3.965       12.522       43.096       14.501      156.791     1857.263      210.291        0.232        0.111       49.073       20.501        0.175      335.772        6.629      868.168
01/18/2021  03:01:00       16.408       51.959       -2.100       29.784       27.552       19.795      887.096      759.094      391.842        0.251        0.102       54.488       20.367        0.140      335.690        6.492      868.197
01/18/2021  03:02:00       29.788       29.391       -1.265       25.770       16.525       14.242      664.113      273.062      202.843        0.145        0.057       41.847       14.966        0.128      335.563        6.279      868.226
01/18/2021  03:03:00       20.933       10.304       -0.404       21.401       11.998       14.886      458.014      143.959      221.601        0.068        0.041       23.331       16.018        0.471      335.443        6.080      868.251
01/18/2021  03:04:00       25.788        1.967       -8.082       16.532       20.888        8.043      273.301      436.320       64.690        0.075        0.039       25.863        8.101        0.098      335.348        5.921      868.259
01/18/2021  03:05:00      -11.522       -5.876       10.896       19.337       10.931        9.269      373.938      119.488       85.913        0.043        0.029       12.933        8.625        0.445      335.446        6.082      868.252
01/18/2021  03:06:00       22.648       12.343       -2.511       19.099       15.822        8.719      364.785      250.349       76.020        0.068        0.035       25.793        9.890        0.147      335.416        6.033      868.240
01/18/2021  03:07:00        7.316       22.455       -0.663       17.460       16.637        8.229      304.866      276.802       67.720        0.060        0.032       23.617        9.649        0.167      335.440        6.074      868.223
01/18/2021  03:08:00        9.786      -16.405       -0.684       22.082       30.152       16.837      487.602      909.115      283.470        0.102        0.084       19.102       16.702        0.765      335.485        6.149      868.195
01/18/2021  03:09:00       32.864        3.309       -6.068       32.673       17.675       15.299     1067.508      312.396      234.050        0.137        0.081       33.031       19.413        0.345      335.646        6.417      868.176
01/18/2021  03:10:00        8.081        0.393       -4.521       17.160       14.891       12.988      294.479      221.728      168.684        0.039        0.034        8.091       10.040        1.540      335.653        6.430      868.165
01/18/2021  03:11:00       34.190      -41.437      -13.089       24.487       22.950       12.749      599.618      526.713      162.541        0.217        0.064       53.721       13.923        0.067      335.435        6.068      868.165
01/18/2021  03:12:00      -12.378      -29.992       -0.593       22.134       14.679       13.416      489.926      215.486      179.977        0.097        0.044       32.446       11.833        0.133      335.540        6.242      868.171
01/18/2021  03:13:00        2.964      -31.708       -6.237       22.093        9.830       11.565      488.091       96.636      133.745        0.089        0.036       31.847       14.308        0.202      335.664        6.450      868.183
01/18/2021  03:14:00       -2.809      -10.006        2.847       10.873       16.914        7.870      118.220      286.072       61.938        0.029        0.023       10.393        6.079        0.342      335.629        6.391      868.190
01/18/2021  03:15:00      -25.929        8.011       -3.804       14.901        8.771        7.412      222.041       76.931       54.938        0.055        0.018       27.138        7.612        0.079      335.488        6.156      868.211
01/18/2021  03:16:00      -21.054      -27.038       -4.035       15.699       11.623       10.809      246.465      135.100      116.830        0.084        0.025       34.268        7.370        0.046      335.559        6.273      868.222
01/18/2021  03:17:00      -13.053      -40.958      -12.298       17.316        9.880       10.075      299.855       97.608      101.502        0.125        0.025       42.987        8.415        0.038      335.551        6.259      868.225
01/18/2021  03:18:00      -17.147      -28.829      -13.337       22.244       12.688       17.856      494.794      160.979      318.848        0.114        0.049       33.543       14.582        0.189      335.536        6.234      868.225
01/18/2021  03:19:00      -31.498      -23.016      -14.301       16.004       15.137        9.236      256.131      229.127       85.302        0.115        0.029       39.011        6.111        0.025      335.566        6.283      868.220
01/18/2021  03:20:00      -30.146      -31.798      -10.994       16.091       15.028       10.956      258.919      225.848      120.029        0.132        0.030       43.817        7.840        0.032      335.716        6.536      868.202
01/18/2021  03:21:00      -17.083       -9.555       -0.015       17.212       11.268       11.626      296.244      126.978      135.164        0.047        0.028       19.573        6.413        0.107      335.813        6.698      868.187
01/18/2021  03:22:00      -14.496        1.136       -2.625       20.108        9.520       10.753      404.351       90.632      115.619        0.041        0.031       14.540        6.614        0.207      335.607        6.352      868.163
01/18/2021  03:23:00      -17.105        1.462        0.018       16.955       11.431       10.275      287.460      130.658      105.570        0.041        0.026       17.167        9.460        0.304      335.550        6.256      868.129
01/18/2021  03:24:00      -49.263        6.536       -2.732       10.260       11.070        8.708      105.273      122.537       75.825        0.139        0.015       49.695        2.373        0.002      335.474        6.131      868.124
01/18/2021  03:25:00      -61.209       -2.738       -3.594       21.919       15.173       14.706      480.433      230.225      216.255        0.235        0.046       61.271       10.584        0.030      335.452        6.094      868.124
01/18/2021  03:26:00      -84.576       19.495       -7.335       27.566       19.482       10.754      759.891      379.545      115.641        0.442        0.063       86.794        5.010        0.003      335.444        6.081      868.126
01/18/2021  03:27:00      -56.599        8.739        1.592       30.137       22.129       16.549      908.257      489.681      273.878        0.248        0.084       57.270       12.623        0.049      335.362        5.946      868.132
01/18/2021  03:28:00      -56.954       28.412       -4.688       30.092       31.663       13.857      905.553     1002.564      192.016        0.309        0.105       63.647        9.933        0.024      335.425        6.048      868.161
01/18/2021  03:29:00     -101.978       70.080      -14.020       31.030       16.284       19.452      962.875      265.157      378.363        0.856        0.080      123.737       11.736        0.009      335.533        6.230      868.172
01/18/2021  03:30:00      -55.397       13.759       -5.412       40.988       32.439       20.994     1680.033     1052.262      440.739        0.323        0.159       57.081       23.333        0.167      335.458        6.105      868.165
01/18/2021  03:31:00      -51.095        9.181       -9.198       26.516       16.946       11.973      703.124      287.152      143.362        0.196        0.057       51.913        6.305        0.015      335.450        6.092      868.144
01/18/2021  03:32:00      -42.280        4.380       -5.138       27.619       21.573       15.812      762.789      465.412      250.019        0.166        0.074       42.506       12.304        0.084      335.479        6.141      868.116
01/18/2021  03:33:00      -26.217       -6.619        0.082       14.555       19.894       12.441      211.852      395.769      154.777        0.075        0.038       27.040        9.102        0.113      335.666        6.452      868.098
01/18/2021  03:34:00        4.705       20.152        4.579       25.677       14.337       10.857      659.296      205.539      117.881        0.072        0.049       20.694       12.360        0.357      335.675        6.467      868.085
01/18/2021  03:35:00       47.627       45.623       -4.651       24.661       10.699       13.593      608.165      114.461      184.760        0.264        0.045       65.953       15.468        0.055      335.849        6.758      868.093
01/18/2021  03:36:00       22.501       44.689        6.905       28.718       26.104       13.955      824.733      681.429      194.754        0.213        0.085       50.034       12.633        0.064      335.792        6.662      868.112
01/18/2021  03:37:00       35.351       35.404       -2.160       20.908       14.795       10.557      437.162      218.886      111.457        0.164        0.038       50.031        9.189        0.034      335.798        6.672      868.137
01/18/2021  03:38:00       25.935       23.966        3.390       21.663       10.880       11.846      469.275      118.380      140.322        0.099        0.036       35.313       14.223        0.162      335.697        6.503      868.171
01/18/2021  03:39:00       54.355       28.638       -3.260       16.719        8.088        9.377      279.523       65.420       87.919        0.211        0.022       61.438        9.462        0.024      335.504        6.181      868.179
01/18/2021  03:40:00       68.632       57.996       -6.892       22.884       20.623       18.750      523.663      425.302      351.545        0.471        0.065       89.855       16.929        0.035      335.575        6.300      868.169
01/18/2021  03:41:00       23.536       58.538       -0.377       29.031       30.832       17.860      842.781      950.641      318.994        0.305        0.106       63.092       15.547        0.061      335.660        6.442      868.129
01/18/2021  03:42:00       -3.054       71.770        0.193       18.476       29.410       12.052      341.350      864.931      145.249        0.326        0.068       71.834        5.805        0.007      335.733        6.564      868.106
01/18/2021  03:43:00       10.880       81.263       -6.605       30.774       22.761       18.578      947.047      518.041      345.158        0.429        0.091       81.988       11.650        0.020      335.643        6.412      868.115
01/18/2021  03:44:00       23.634       85.221       -3.990       29.410       28.974       16.310      864.949      839.500      266.002        0.490        0.099       88.437       12.112        0.019      335.633        6.398      868.129
01/18/2021  03:45:00       54.604       66.539       -2.418       31.807       26.043       21.338     1011.698      678.216      455.325        0.478        0.107       86.076       14.844        0.030      335.512        6.195      868.142
01/18/2021  03:46:00       49.725       23.496       -0.271       30.260       21.395       11.838      915.659      457.767      140.142        0.227        0.076       54.997       13.161        0.057      335.353        5.929      868.151
01/18/2021  03:47:00       26.414        4.423       -4.639       20.965       14.970       13.930      439.526      224.112      194.038        0.080        0.043       26.782       13.043        0.237      335.182        5.646      868.161
01/18/2021  03:48:00       23.320       38.273       -1.620       25.016       19.861       17.700      625.820      394.456      313.293        0.167        0.067       44.818       17.768        0.157      335.244        5.748      868.178
01/18/2021  03:49:00       11.994      111.945       -3.189       21.182       23.776       17.003      448.698      565.287      289.086        0.699        0.065      112.585        7.425        0.004      335.628        6.389      868.206
01/18/2021  03:50:00       22.438      121.895      -18.201       27.711       22.279       18.617      767.878      496.367      346.609        0.865        0.081      123.943       16.966        0.019      335.655        6.434      868.228
01/18/2021  03:51:00        7.077      103.476       -9.058       26.289       31.486       16.341      691.106      991.383      267.037        0.639        0.097      103.718        8.615        0.007      335.596        6.336      868.235
01/18/2021  03:52:00        1.007       72.204       -6.026       15.997       27.892       13.777      255.916      777.970      189.805        0.324        0.061       72.211       14.628        0.041      335.541        6.243      868.259
01/18/2021  03:53:00        5.751       86.395       -4.942       28.444       32.832       18.640      809.040     1077.950      347.461        0.488        0.112       86.586       16.530        0.036      335.614        6.365      868.283
01/18/2021  03:54:00      -31.005       59.888       -8.725       30.286       47.800       17.082      917.215     2284.804      291.798        0.406        0.175       67.437       13.977        0.043      335.449        6.090      868.305
01/18/2021  03:55:00      -16.550       84.273       -7.303       28.439       38.739       19.813      808.801     1500.735      392.542        0.507        0.135       85.883        7.617        0.008      335.485        6.149      868.337
01/18/2021  03:56:00      -12.914       27.866       -5.407       21.141       15.133       11.494      446.940      229.012      132.110        0.089        0.040       30.713        8.445        0.076      335.491        6.160      868.356
01/18/2021  03:57:00       -1.189       79.530       -8.056       33.412       26.952       18.924     1116.354      726.414      358.118        0.430        0.110       79.539       10.693        0.018      335.494        6.164      868.358
01/18/2021  03:58:00       14.629       82.912       -2.806       35.509       28.983       19.468     1260.874      840.027      378.990        0.479        0.124       84.192       10.227        0.015      335.463        6.112      868.357
01/18/2021  03:59:00       18.162       20.906        1.514       24.183       18.245       15.147      584.826      332.871      229.438        0.096        0.057       27.694       15.585        0.317      335.311        5.859      868.347
01/18/2021  04:00:00       26.429        8.113       -6.452       27.155       19.611       13.682      737.416      384.604      187.206        0.106        0.065       27.646       11.063        0.160      335.253        5.762      868.344
01/18/2021  04:01:00       83.923       48.357      -23.605       28.696       24.612       15.210      823.456      605.747      231.338        0.580        0.083       96.858       10.952        0.013      335.271        5.794      868.358
01/18/2021  04:02:00       58.815       47.345       -5.721       34.200       23.621       21.131     1169.666      557.961      446.515        0.395        0.109       75.503       22.596        0.090      335.287        5.820      868.393
01/18/2021  04:03:00       61.249       39.348       -5.178       23.504       13.435       11.572      552.419      180.500      133.912        0.310        0.043       72.799        7.279        0.010      335.261        5.776      868.418
01/18/2021  04:04:00       47.653       34.716       -3.694       30.790       18.280       14.281      948.047      334.167      203.958        0.249        0.074       58.958       12.339        0.044      335.286        5.818      868.429
01/18/2021  04:05:00       49.599       38.362        4.179       30.487       18.527       16.547      929.462      343.257      273.794        0.275        0.077       62.703       15.436        0.061      335.288        5.823      868.442
01/18/2021  04:06:00       57.452       55.490       -7.284       25.516       18.988       15.397      651.090      360.532      237.071        0.384        0.062       79.874       14.285        0.032      335.373        5.964      868.453
01/18/2021  04:07:00       40.803       52.833        1.339       31.643       36.423       20.260     1001.262     1326.604      410.449        0.360        0.137       66.755       15.093        0.051      335.317        5.870      868.456
01/18/2021  04:08:00       47.127       39.149        1.735       31.800       20.344       16.607     1011.231      413.888      275.807        0.273        0.085       61.266       17.667        0.083      335.366        5.953      868.448
01/18/2021  04:09:00       13.966       78.568       -6.727       33.356       25.361       21.996     1112.608      643.155      483.843        0.433        0.112       79.800       17.505        0.048      335.331        5.893      868.445
01/18/2021  04:10:00       27.141      114.516      -13.994       27.814       31.323       17.649      773.621      981.140      311.479        0.806        0.103      117.688       14.371        0.015      335.419        6.039      868.431
01/18/2021  04:11:00       13.586       75.773       -7.868       34.826       28.085       15.991     1212.881      788.765      255.723        0.412        0.113       76.981        7.608        0.010      335.450        6.092      868.424
01/18/2021  04:12:00      -24.548       73.958      -12.721       30.194       38.792       18.067      911.655     1504.806      326.408        0.449        0.137       77.926       20.531        0.069      335.434        6.064      868.425
01/18/2021  04:13:00      -51.490       35.366      -11.394       27.832       27.248       14.257      774.632      742.464      203.265        0.288        0.086       62.466        8.292        0.018      335.368        5.955      868.442
01/18/2021  04:14:00      -43.268       90.300       -4.665       37.319       34.972       26.223     1392.719     1223.051      687.639        0.668        0.165      100.131       17.827        0.032      335.597        6.337      868.464
01/18/2021  04:15:00       32.447      129.106      -13.784       34.691       43.902       23.590     1203.448     1927.427      556.470        1.080        0.184      133.121       25.387        0.036      335.530        6.223      868.490
01/18/2021  04:16:00      -13.535       91.664      -12.632       34.865       22.969       14.042     1215.594      527.567      197.171        0.534        0.097       92.658        8.661        0.009      335.464        6.114      868.508
01/18/2021  04:17:00      -23.278       95.681      -15.336       36.534       26.436       15.721     1334.756      698.877      247.150        0.611        0.114       98.472       12.258        0.015      335.492        6.161      868.532
01/18/2021  04:18:00       22.721       84.489       -4.792       24.831       39.597       19.793      616.563     1567.947      391.769        0.513        0.129       87.491       18.505        0.045      335.416        6.034      868.556
01/18/2021  04:19:00       23.549       43.139        6.590       23.257       31.405       13.761      540.893      986.279      189.367        0.209        0.086       49.148       13.208        0.072      335.308        5.857      868.578
01/18/2021  04:20:00       -1.595      137.320       -9.073       45.863       51.270       22.953     2103.372     2628.592      526.821        1.210        0.263      137.330       22.017        0.026      335.326        5.884      868.587
01/18/2021  04:21:00       -3.389      164.154      -13.570       52.522       34.898       20.923     2758.528     1217.861      437.769        1.578        0.221      164.189       17.154        0.011      335.379        5.971      868.585
01/18/2021  04:22:00      -56.243       37.920       -9.364       44.311       49.643       19.152     1963.476     2464.425      366.794        0.474        0.240       67.832       16.301        0.058      335.252        5.762      868.591
01/18/2021  04:23:00      -71.097       39.036       -4.128       34.031       29.954       19.807     1158.124      897.245      392.314        0.452        0.122       81.109       14.612        0.032      335.222        5.712      868.594
01/18/2021  04:24:00      -70.722       39.989       -4.806       48.469       37.499       26.341     2349.220     1406.188      693.833        0.554        0.222       81.245       17.507        0.046      335.261        5.777      868.600
01/18/2021  04:25:00      -78.846       29.943      -20.823       34.297       35.507       20.688     1176.273     1260.729      428.002        0.521        0.143       84.340       18.207        0.047      335.324        5.880      868.587
01/18/2021  04:26:00      -18.544       58.351       -1.748       32.103       34.790       22.871     1030.586     1210.373      523.083        0.326        0.138       61.227       23.412        0.146      335.381        5.976      868.570
01/18/2021  04:27:00      -15.643       34.245      -12.772       28.063       36.482       12.500      787.507     1330.926      156.238        0.193        0.114       37.649       12.926        0.118      335.328        5.889      868.555
01/18/2021  04:28:00        5.721      -14.432       -8.147       26.033       19.741       12.638      677.696      389.711      159.726        0.077        0.061       15.524       10.962        0.499      335.337        5.902      868.540
01/18/2021  04:29:00       34.798       15.700       -7.039       28.174       21.443       12.511      793.774      459.794      156.514        0.146        0.071       38.176       15.059        0.156      335.272        5.794      868.545
01/18/2021  04:30:00       51.193       18.873      -14.851       25.744       16.380       14.349      662.747      268.311      205.900        0.217        0.057       54.561       16.226        0.088      335.298        5.837      868.563
01/18/2021  04:31:00       67.192       12.845       -9.785       26.229       16.926       10.325      687.954      286.500      106.605        0.293        0.054       68.409        9.869        0.021      335.239        5.737      868.575
01/18/2021  04:32:00       59.194       15.579       -7.332       13.239        9.842        7.799      175.281       96.865       60.828        0.207        0.017       61.210        6.768        0.012      335.209        5.690      868.567
01/18/2021  04:33:00       40.251       -6.449      -14.923       20.089       19.780       11.311      403.570      391.258      127.936        0.140        0.046       40.764        6.470        0.025      335.259        5.773      868.550
01/18/2021  04:34:00       28.986       -0.993       -6.959       24.437       22.155       18.561      597.155      490.843      344.509        0.116        0.072       29.003       15.130        0.272      335.225        5.718      868.531
01/18/2021  04:35:00       31.859      -32.522      -23.946       39.398       38.085       19.606     1552.226     1450.485      384.403        0.302        0.169       45.527       11.133        0.060      335.298        5.839      868.521
01/18/2021  04:36:00       39.942       -9.658      -12.831       29.715       37.931       21.393      883.002     1438.741      457.652        0.232        0.139       41.093       15.020        0.134      335.349        5.923      868.525
01/18/2021  04:37:00       26.667      -23.519       -9.067       30.912       16.520       13.990      955.581      272.899      195.731        0.139        0.071       35.557       18.037        0.257      335.301        5.844      868.521
01/18/2021  04:38:00      -33.795       -9.198       -9.821       17.889       11.475       16.915      320.031      131.687      286.127        0.103        0.037       35.025        8.554        0.060      335.294        5.833      868.507
01/18/2021  04:39:00      -33.980        7.653      -12.082       30.366       21.347       11.936      922.096      455.684      142.472        0.144        0.076       34.831        7.545        0.047      335.283        5.814      868.505
01/18/2021  04:40:00      -55.268        1.715       -1.262       31.000       23.840       17.043      960.979      568.354      290.460        0.244        0.091       55.295        7.907        0.020      335.275        5.799      868.506
01/18/2021  04:41:00      -43.775      -15.048       -2.443       34.962       29.692       17.936     1222.347      881.595      321.687        0.229        0.121       46.289       11.313        0.060      335.305        5.850      868.524
01/18/2021  04:42:00      -86.325        6.441        0.374       25.644       28.852       18.232      657.634      832.412      332.408        0.466        0.091       86.565       13.878        0.026      335.236        5.736      868.536
01/18/2021  04:43:00      -54.761       -7.214       -2.732       48.290       21.829       17.694     2331.933      476.491      313.068        0.309        0.156       55.235        5.807        0.011      335.180        5.643      868.535
01/18/2021  04:44:00      -20.292        7.094        1.416       22.425       20.548       17.881      502.878      422.207      319.739        0.085        0.062       21.496       15.226        0.502      335.171        5.628      868.516
01/18/2021  04:45:00        3.673      -11.872       -3.758       23.159       17.881       16.628      536.340      319.741      276.475        0.065        0.057       12.427        9.447        0.578      335.280        5.807      868.493
01/18/2021  04:46:00      -14.268       -7.990        8.900       33.965       16.120       15.595     1153.653      259.839      243.210        0.100        0.083       16.353       10.604        0.420      335.326        5.885      868.471
01/18/2021  04:47:00      -51.612       -3.949       -4.990       25.810       18.889       13.602      666.136      356.794      185.014        0.196        0.060       51.763        7.236        0.020      335.361        5.943      868.457
01/18/2021  04:48:00      -46.754        3.488       -3.115       23.083       13.513       16.784      532.846      182.590      281.713        0.160        0.050       46.884       16.893        0.130      335.270        5.791      868.442
01/18/2021  04:49:00       -1.985      -10.103      -10.077       18.130       23.592       15.888      328.706      556.570      252.436        0.067        0.057       10.296       14.863        2.084      335.301        5.844      868.436
01/18/2021  04:50:00      -13.852      -21.794      -16.046       23.700       12.257        9.253      561.712      150.231       85.611        0.086        0.040       25.824        8.032        0.097      335.340        5.907      868.425
01/18/2021  04:51:00       -4.876       -3.106       -1.612       16.815       14.869       12.464      282.759      221.095      155.358        0.035        0.033        5.781        6.419        1.233      335.318        5.873      868.437
01/18/2021  04:52:00        5.210       -1.432       -3.168       15.682       25.790       13.878      245.912      665.113      192.601        0.057        0.055        5.403       12.845        5.652      335.143        5.581      868.452
01/18/2021  04:53:00        3.150       20.634       -2.233       10.588       12.916       10.358      112.103      166.830      107.280        0.041        0.019       20.873        7.851        0.141      334.939        5.244      868.475
01/18/2021  04:54:00        4.398       19.744       -4.493       14.194       16.381        9.926      201.479      268.335       98.532        0.050        0.028       20.228        9.624        0.226      334.926        5.223      868.501
01/18/2021  04:55:00       13.992       30.175       -2.387       26.633       12.984       12.123      709.295      168.588      146.968        0.107        0.051       33.262       14.933        0.202      334.955        5.270      868.533
01/18/2021  04:56:00       26.256       24.365        1.485       14.216       11.127        9.865      202.090      123.817       97.314        0.085        0.021       35.820        5.348        0.022      334.911        5.198      868.548
01/18/2021  04:57:00       -2.149      -10.339       -4.362       23.087       16.977       13.940      533.006      288.225      194.332        0.057        0.051       10.561       14.027        1.764      334.910        5.196      868.528
01/18/2021  04:58:00      -30.345      -35.214      -13.602       16.686       11.619        9.127      278.430      135.006       83.296        0.142        0.025       46.485        3.476        0.006      334.875        5.136      868.502
01/18/2021  04:59:00      -28.258      -44.614       -8.808       20.801       11.174       13.135      432.689      124.868      172.526        0.180        0.037       52.810        6.072        0.013      334.863        5.117      868.486
01/18/2021  05:00:00      -26.040      -28.543       -1.373       23.316       16.100       12.510      543.613      259.219      156.496        0.123        0.048       38.636       12.931        0.112      334.950        5.261      868.479
01/18/2021  05:01:00      -33.038      -11.744       -4.715       21.656       28.816       16.213      468.962      830.373      262.854        0.141        0.078       35.063       13.433        0.147      334.973        5.300      868.474
01/18/2021  05:02:00       -1.554       26.464        1.863       21.438       16.459       13.159      459.599      270.896      173.160        0.080        0.045       26.509        3.105        0.014      334.840        5.078      868.515
01/18/2021  05:03:00        7.155       63.426       -0.603       18.642       20.937       14.850      347.527      438.354      220.531        0.254        0.050       63.828       12.130        0.036      334.715        4.872      868.578
01/18/2021  05:04:00      -21.603       39.129        4.970       25.185       18.741       17.359      634.265      351.230      301.324        0.165        0.064       44.697        3.778        0.007      334.697        4.841      868.629
01/18/2021  05:05:00       11.941       26.370        2.620       27.650       20.799       15.536      764.529      432.578      241.369        0.114        0.072       28.947       16.033        0.307      334.713        4.867      868.671
01/18/2021  05:06:00       14.447       24.736       -2.096       29.071       18.020       12.381      845.109      324.725      153.282        0.107        0.066       28.646        9.108        0.101      334.732        4.900      868.699
01/18/2021  05:07:00       14.245       38.096       -4.163       28.078       19.883       16.756      788.379      395.341      280.761        0.157        0.073       40.672       18.395        0.205      334.645        4.754      868.700
01/18/2021  05:08:00        3.898       20.940       -6.081       15.494       11.347       12.073      240.071      128.748      145.748        0.050        0.026       21.299       11.157        0.274      334.614        4.703      868.687
01/18/2021  05:09:00       11.311        4.443       -5.506       20.828        6.529        7.760      433.794       42.628       60.225        0.036        0.027       12.152        7.953        0.428      334.615        4.705      868.672
01/18/2021  05:10:00       -4.474       11.652        1.510       20.596        9.076       11.651      424.208       82.372      135.737        0.040        0.032       12.481       10.808        0.750      334.644        4.754      868.661
01/18/2021  05:11:00      -10.601        8.831       -3.371       12.635       13.410        6.653      159.635      179.818       44.256        0.029        0.019       13.797        5.104        0.137      334.689        4.827      868.654
01/18/2021  05:12:00       -9.232      -20.443       -7.544       21.124        9.913       11.004      446.231       98.276      121.085        0.061        0.033       22.431       11.704        0.272      334.757        4.941      868.617
01/18/2021  05:13:00      -25.837      -11.980       -1.993       20.122       15.740       13.098      404.897      247.753      171.561        0.082        0.041       28.480       12.852        0.204      334.768        4.960      868.566
01/18/2021  05:14:00       -1.026       -7.091        4.889       13.757       10.546        8.807      189.263      111.217       77.567        0.023        0.019        7.165        9.853        1.891      334.848        5.093      868.502
01/18/2021  05:15:00        5.947      -11.379        0.505       26.213       10.581       12.703      687.137      111.951      161.359        0.056        0.048       12.839       16.821        1.716      334.833        5.066      868.435
01/18/2021  05:16:00       18.591      -11.553       -6.546       32.084       10.861       15.663     1029.370      117.965      245.326        0.096        0.070       21.889       21.339        0.950      334.816        5.038      868.381
01/18/2021  05:17:00       15.694        0.074       -2.236       25.180       16.273       13.154      634.044      264.806      173.018        0.066        0.054       15.694       17.316        1.217      334.822        5.050      868.336
01/18/2021  05:18:00      -26.151       32.349       -3.863       21.269       13.308       16.787      452.382      177.106      281.792        0.133        0.046       41.598       10.441        0.063      334.802        5.015      868.315
01/18/2021  05:19:00        0.284       22.373        1.400       13.675        8.892       14.148      187.014       79.075      200.175        0.048        0.023       22.375        8.939        0.160      334.820        5.045      868.306
01/18/2021  05:20:00       -0.790       26.812        1.168       20.685        7.928       12.508      427.884       62.853      156.448        0.068        0.032       26.824       12.827        0.229      334.791        4.995      868.305
01/18/2021  05:21:00        2.276        9.679       -6.631       15.952        7.352        8.981      254.481       54.055       80.651        0.027        0.019        9.943       10.067        1.025      334.715        4.871      868.314
01/18/2021  05:22:00      -10.763       12.263       -4.445       15.786       13.802        7.921      249.201      190.495       62.737        0.039        0.025       16.317        7.600        0.217      334.719        4.877      868.312
01/18/2021  05:23:00      -28.481       10.767       -2.426       15.570        9.728       11.063      242.417       94.627      122.389        0.070        0.023       30.449        2.828        0.009      334.723        4.885      868.291
01/18/2021  05:24:00       -8.553       11.449       -2.939       21.618        6.718       10.105      467.332       45.138      102.116        0.041        0.031       14.291       13.101        0.840      334.758        4.942      868.270
01/18/2021  05:25:00      -13.841        8.483       -5.691       23.830        5.377       12.904      567.864       28.917      166.525        0.053        0.038       16.234       15.471        0.908      334.815        5.036      868.229
01/18/2021  05:26:00      -20.271       18.704       -5.039       14.739        6.307        7.051      217.228       39.780       49.722        0.055        0.015       27.582        8.954        0.105      334.864        5.120      868.192
01/18/2021  05:27:00      -19.782       18.160       -5.391       14.879       12.346        8.716      221.394      152.414       75.962        0.060        0.022       26.854        7.159        0.071      334.888        5.157      868.187
01/18/2021  05:28:00      -27.834       31.060       -4.055       13.783        9.944        8.590      189.977       98.873       73.784        0.106        0.018       41.707        6.252        0.022      334.870        5.127      868.224
01/18/2021  05:29:00      -59.038       50.922       -4.858       20.193       18.611        9.138      407.742      346.362       83.496        0.347        0.042       77.965        6.728        0.007      334.809        5.027      868.264
01/18/2021  05:30:00      -75.661       65.814       -6.685       17.559       18.334        9.453      308.312      336.151       89.359        0.542        0.037      100.280        8.267        0.007      334.770        4.962      868.312
01/18/2021  05:31:00      -76.365       36.937      -11.650       23.092       23.770       13.270      533.227      565.014      176.080        0.430        0.064       84.829        9.927        0.014      334.742        4.915      868.359
01/18/2021  05:32:00      -58.253       15.829      -10.718       40.580       26.361       19.803     1646.746      694.902      392.162        0.325        0.137       60.365       14.085        0.054      334.599        4.678      868.363
01/18/2021  05:33:00      -20.391      -10.850      -12.674       48.386       22.792       19.248     2341.204      519.487      370.486        0.196        0.162       23.098        4.073        0.031      334.660        4.780      868.341
01/18/2021  05:34:00      -37.473      -21.282       -8.838       35.763       39.339       16.520     1279.012     1547.573      272.912        0.252        0.155       43.095       15.647        0.132      334.711        4.865      868.310
01/18/2021  05:35:00       -5.469      -39.003      -11.410       24.174       18.810       13.999      584.395      353.822      195.979        0.141        0.057       39.385        4.201        0.011      334.729        4.894      868.288
01/18/2021  05:36:00       11.473      -49.502      -24.412       36.371       15.994       17.303     1322.817      255.809      299.382        0.253        0.094       50.814       22.057        0.188      334.722        4.882      868.283
01/18/2021  05:37:00        2.508      -30.720      -13.103       22.003       13.542       14.755      484.140      183.394      217.706        0.100        0.044       30.822       14.506        0.222      334.672        4.801      868.303
01/18/2021  05:38:00      -10.484      -11.491       -3.934       21.936       11.265       14.309      481.170      126.890      204.748        0.053        0.041       15.555       13.973        0.807      334.777        4.975      868.308
01/18/2021  05:39:00      -22.011      -13.447       -2.547       19.941       19.295       11.538      397.636      372.314      133.132        0.079        0.045       25.793       11.307        0.192      334.756        4.940      868.311
01/18/2021  05:40:00      -50.484        5.405       -1.154       18.418       10.474       14.353      339.207      109.708      206.006        0.162        0.033       50.772        2.838        0.003      334.759        4.943      868.304
01/18/2021  05:41:00      -36.082        4.430       -1.643       23.689       13.373       13.525      561.150      178.845      182.924        0.112        0.046       36.353        2.963        0.007      334.756        4.937      868.290
01/18/2021  05:42:00      -17.984        5.851       -1.262       25.316       11.257       10.723      640.900      126.725      114.988        0.062        0.044       18.912        6.750        0.127      334.691        4.830      868.296
01/18/2021  05:43:00      -23.378       -0.425        4.277       23.625        8.694       13.194      558.132       75.587      174.073        0.069        0.040       23.381        5.571        0.057      334.657        4.774      868.312
01/18/2021  05:44:00      -35.728        8.482      -12.141      161.419        9.364       76.615    26056.017       87.680     5869.891        1.675        1.601       36.721      110.644        9.079      334.719        4.878      868.334
01/18/2021  05:45:00      -46.071        6.273       -3.890       13.653        9.034        8.949      186.417       81.620       80.088        0.126        0.017       46.496        3.587        0.006      334.587        4.657      868.367
01/18/2021  05:46:00      -54.325        8.249       -2.530       16.398       11.345        8.329      268.893      128.701       69.373        0.175        0.023       54.948        3.320        0.004      334.563        4.617      868.401
01/18/2021  05:47:00      -72.580       18.836       -6.249       25.891       11.633       14.896      670.322      135.324      221.883        0.334        0.051       74.985       14.189        0.036      334.535        4.571      868.422
01/18/2021  05:48:00      -85.807        6.634      -10.065       17.328       15.703       13.216      300.271      246.582      174.674        0.411        0.036       86.063        8.453        0.010      334.511        4.531      868.428
01/18/2021  05:49:00      -52.156      -10.224       -1.914       43.681       21.634       17.757     1908.014      468.036      315.306        0.276        0.135       53.148       20.514        0.149      334.403        4.353      868.424
01/18/2021  05:50:00       -8.172        3.278        1.654       34.220       18.389       21.739     1170.986      338.168      472.591        0.103        0.099        8.805       14.577        2.741      334.199        4.014      868.416
01/18/2021  05:51:00      -31.072       12.619       -4.443       36.166       15.693       19.027     1307.963      246.268      362.010        0.153        0.096       33.537       13.519        0.162      334.115        3.872      868.403
01/18/2021  05:52:00      -26.545        6.206       -3.776       27.505       22.827       20.446      756.500      521.094      418.040        0.123        0.085       27.261       11.376        0.174      334.073        3.805      868.387
01/18/2021  05:53:00      -44.773       13.236       -9.750       45.947       18.882       23.609     2111.088      356.526      557.366        0.265        0.151       46.688       18.671        0.160      334.000        3.684      868.374
01/18/2021  05:54:00      -52.687        4.168      -17.010       33.192       28.073       19.351     1101.712      788.099      374.479        0.267        0.113       52.852       10.229        0.037      333.970        3.635      868.362
01/18/2021  05:55:00      -40.014        1.780      -16.174      218.431       21.137      103.772    47712.254      446.786    10768.642        3.038        2.946       40.054      147.363       13.536      334.032        3.739      868.340
01/18/2021  05:56:00      -47.174        4.017      -10.643       26.184       13.071       14.992      685.620      170.852      224.765        0.172        0.054       47.344        5.900        0.016      333.970        3.636      868.322
01/18/2021  05:57:00      -34.841        0.752       -9.669       29.615       19.012       14.509      877.028      361.455      210.517        0.138        0.072       34.849       14.708        0.178      333.905        3.528      868.308
01/18/2021  05:58:00       16.329       -1.180      -13.272      284.910       19.406      135.627    81173.727      376.595    18394.765        5.017        4.997       16.372      194.852      141.647      333.975        3.645      868.280
01/18/2021  05:59:00      -42.793      -29.857      -26.280      208.584       21.945       98.246    43507.448      481.599     9652.324        2.852        2.682       52.180      140.880        7.289      333.847        3.431      868.246
01/18/2021  06:00:00      -33.836       -5.297       -2.859       37.997       26.938       23.549     1443.744      725.630      554.576        0.195        0.136       34.248       21.035        0.377      333.814        3.375      868.208
01/18/2021  06:01:00      -63.791        6.818       -1.069       27.894       15.261       11.693      778.097      232.899      136.731        0.263        0.057       64.155       10.022        0.024      333.887        3.497      868.184
01/18/2021  06:02:00       -1.824        3.437      -28.012      315.928        6.665      150.760    99810.776       44.426    22728.603        6.167        6.129        3.891      217.949     3137.300      334.287        4.165      868.167
01/18/2021  06:03:00        3.966       -5.603       -8.905      176.418       10.222       84.550    31123.237      104.496     7148.731        1.924        1.919        6.865      121.691      314.260      334.172        3.972      868.163
01/18/2021  06:04:00      -15.998       -9.527       -6.612       19.613       15.822       12.362      384.653      250.323      152.830        0.059        0.039       18.620       12.679        0.464      334.242        4.086      868.148
01/18/2021  06:05:00      -22.325        5.221      -10.391      164.982        5.715       79.400    27219.049       32.656     6304.323        1.709        1.678       22.927      114.076       24.756      334.323        4.220      868.128
01/18/2021  06:06:00      -33.261       14.306      -13.295      214.086        8.390      102.411    45832.753       70.395    10488.001        2.893        2.820       36.207      147.846       16.673      334.164        3.955      868.105
01/18/2021  06:07:00      -38.447       11.820      -11.023      159.973        7.405       75.364    25591.250       54.828     5679.720        1.653        1.566       40.223      109.571        7.421      334.143        3.921      868.088
01/18/2021  06:08:00      -46.026       21.430      -11.724      143.957        8.637       69.276    20723.737       74.599     4799.166        1.415        1.280       50.771       99.530        3.843      334.057        3.781      868.082
01/18/2021  06:09:00      -20.328       18.537      -25.816      321.900       14.110      153.723   103619.767      199.094    23630.728        6.441        6.372       27.511      222.055       65.149      334.287        4.163      868.111
01/18/2021  06:10:00      -33.843       34.159       -9.498      243.248       15.326      116.298    59169.675      234.891    13525.166        3.765        3.646       48.086      167.089       12.074      334.114        3.877      868.157
01/18/2021  06:11:00      -53.480       22.497       -9.059       24.309       16.271       15.341      590.927      264.758      235.338        0.227        0.055       58.019        5.918        0.010      334.045        3.760      868.211
01/18/2021  06:12:00      -38.518       17.265       -6.036       18.166       13.998       12.423      329.996      195.933      154.334        0.125        0.034       42.210        4.153        0.010      333.925        3.562      868.272
01/18/2021  06:13:00      -34.270        9.331      -23.337      225.345       12.674      108.148    50780.223      160.621    11696.020        3.221        3.132       35.518      155.370       19.135      333.875        3.479      868.315
01/18/2021  06:14:00      -48.119       13.781      -28.330      287.007       18.659      135.784    82373.222      348.147    18437.200        5.221        5.058       50.054      196.102       15.349      333.646        3.100      868.347
01/18/2021  06:15:00      -12.416        4.053      -25.629      323.130       25.554      153.620   104412.716      652.988    23598.983        6.472        6.433       13.061      220.949      286.181      333.538        2.922      868.357
01/18/2021  06:16:00      -47.201       15.122      -42.400      386.613       33.362      185.145   149469.567     1113.056    34278.652        9.452        9.243       49.564      266.217       28.849      333.588        3.006      868.362
01/18/2021  06:17:00     -114.142       50.295      -13.461      163.515       34.177       80.339    26737.107     1168.058     6454.379        2.504        1.718      124.732      108.227        0.753      333.511        2.873      868.345
01/18/2021  06:18:00      -93.866       63.457      -13.131      163.511       27.527       79.437    26735.904      757.710     6310.309        2.340        1.690      113.303      110.692        0.954      333.548        2.935      868.323
01/18/2021  06:19:00      -79.497       45.766       -6.811       30.201       35.874       20.645      912.128     1286.966      426.236        0.554        0.131       91.729        9.768        0.011      333.647        3.100      868.288
01/18/2021  06:20:00      -45.853       39.826       -6.184      163.743       21.901       78.737    26811.769      479.634     6199.568        1.860        1.675       60.734      111.113        3.347      333.596        3.015      868.253
01/18/2021  06:21:00      -36.464       20.728      -20.558      249.751       21.874      119.106    62375.478      478.466    14186.212        3.959        3.852       41.944      170.436       16.512      333.491        2.843      868.222
01/18/2021  06:22:00      -71.236        2.356      -19.442      133.978       19.150       65.343    17950.078      366.721     4269.655        1.402        1.129       71.275       90.386        1.608      333.312        2.544      868.196
01/18/2021  06:23:00      -39.044      -18.232      -19.728      227.704       27.664      111.205    51849.231      765.298    12366.451        3.360        3.249       43.091      156.978       13.271      333.204        2.369      868.172
01/18/2021  06:24:00      -61.437       -1.783      -12.308      136.597       27.832       66.173    18658.876      774.626     4378.804        1.387        1.191       61.462       89.529        2.122      333.173        2.314      868.159
01/18/2021  06:25:00      -32.572       -4.288      -21.237      190.242       35.698       90.089    36191.899     1274.361     8115.945        2.355        2.279       32.853      126.259       14.770      333.219        2.391      868.156
01/18/2021  06:26:00       -5.412        2.405      -27.460      315.010       32.802      152.318    99231.557     1075.986    23200.882        6.212        6.175        5.922      217.077     1343.650      333.232        2.416      868.150
01/18/2021  06:27:00       18.663      -14.419      -35.070      405.499       46.355      192.637   164429.357     2148.770    37108.880       10.269       10.184       23.584      275.128      136.091      333.308        2.543      868.134
01/18/2021  06:28:00      -47.601       -7.288       -5.963       46.456       57.137       29.308     2158.153     3264.613      858.934        0.432        0.314       48.156       23.772        0.244      333.056        2.121      868.123
01/18/2021  06:29:00      -70.968        7.970      -12.643      167.346       41.423       81.464    28004.664     1715.876     6636.348        2.080        1.818       71.415      102.750        2.070      333.078        2.158      868.113
01/18/2021  06:30:00     -102.120       25.653      -16.688      292.712       44.066      129.298    85680.188     1941.846    16717.892        5.783        5.217      105.292      190.622        3.278      333.181        2.329      868.091
01/18/2021  06:31:00     -123.521       36.802       -7.988      226.203       38.062      101.768    51167.635     1448.735    10356.644        3.981        3.149      128.887      145.292        1.271      333.201        2.363      868.062
01/18/2021  06:32:00     -135.830       35.962       -7.762      161.988       29.071       76.184    26240.101      845.120     5803.979        2.634        1.644      140.510      105.359        0.562      333.154        2.284      868.022
01/18/2021  06:33:00     -104.031       15.142       -7.048      199.179       42.296       99.552    39672.221     1788.927     9910.594        3.123        2.569      105.127      130.817        1.548      333.230        2.410      867.968
01/18/2021  06:34:00      -84.785       25.233      -15.610      301.647       34.053      140.306    90991.132     1159.621    19685.746        5.993        5.592       88.460      201.071        5.167      333.314        2.550      867.927
01/18/2021  06:35:00      -99.965       43.159      -12.672      214.176       38.717      104.747    45871.545     1498.996    10971.836        3.517        2.917      108.883      145.531        1.786      333.113        2.216      867.897
01/18/2021  06:36:00      -69.457       29.997      -12.798      276.138       37.733      134.247    76252.154     1423.795    18022.252        5.077        4.785       75.658      187.789        6.161      333.082        2.166      867.882
01/18/2021  06:37:00      -39.909       11.018       -9.524      281.922       30.919      133.999    79479.799      955.990    17955.610        5.008        4.920       41.402      190.523       21.177      333.294        2.518      867.866
01/18/2021  06:38:00       -8.326        0.713      -30.633      415.445       30.972      194.911   172594.808      959.244    37990.195       10.623       10.577        8.357      282.943     1146.374      333.486        2.839      867.837
01/18/2021  06:39:00       36.822        2.550      -29.013      437.149       27.491      208.381   191098.845      755.756    43422.586       11.869       11.764       36.910      300.776       66.405      333.427        2.742      867.807
01/18/2021  06:40:00      -26.468        4.358       -0.218      196.793       28.982       98.296    38727.489      839.965     9662.042        2.496        2.461       26.824      135.749       25.611      333.239        2.423      867.787
01/18/2021  06:41:00       15.868       -4.152       -6.170      273.666       36.855      135.559    74893.052     1358.284    18376.279        4.745        4.731       16.403      189.217      133.076      333.365        2.633      867.774
01/18/2021  06:42:00        8.508       13.405      -10.338      304.160       32.318      146.420    92513.054     1044.426    21438.692        5.765        5.750       15.877      208.940      173.183      333.461        2.794      867.784
01/18/2021  06:43:00        0.796       25.133      -29.141      430.966       31.826      204.889   185731.463     1012.910    41979.693       11.505       11.436       25.145      295.676      138.269      333.528        2.908      867.792
01/18/2021  06:44:00        3.261       22.054      -23.107      362.515       30.339      172.154   131416.833      920.426    29637.146        8.147        8.099       22.294      248.442      124.185      333.446        2.769      867.800
01/18/2021  06:45:00      -64.429       22.762       -3.073       21.760       29.585       19.443      473.481      875.274      378.043        0.320        0.086       68.331       23.822        0.122      333.232        2.412      867.777
01/18/2021  06:46:00      -19.869       44.976      -14.690      315.238       32.444      150.928    99374.835     1052.585    22779.357        6.289        6.160       49.170      216.198       19.333      333.359        2.624      867.742
01/18/2021  06:47:00        9.630       36.146      -27.098      363.869       24.619      174.785   132400.541      606.072    30549.646        8.281        8.178       37.407      251.227       45.105      333.530        2.910      867.701
01/18/2021  06:48:00      -13.881       26.000      -23.841      337.881       36.576      164.857   114163.331     1337.836    27177.742        7.203        7.134       29.474      234.055       63.062      333.493        2.848      867.669
01/18/2021  06:49:00        1.162        7.354      -16.215      276.964       27.247      128.918    76709.045      742.412    16619.740        4.718        4.704        7.445      185.861      623.188      333.440        2.760      867.652
01/18/2021  06:50:00       35.255      -15.721       -4.536      280.207       35.135      134.227    78515.910     1234.494    18017.010        4.962        4.888       38.602      191.262       24.550      333.457        2.787      867.647
01/18/2021  06:51:00       59.215        8.838      -10.920      273.518       37.385      130.749    74812.107     1397.627    17095.224        4.848        4.665       59.871      186.385        9.691      333.212        2.381      867.641
01/18/2021  06:52:00       87.182       55.568       -4.760      199.677       53.523       96.468    39871.029     2864.711     9306.004        3.137        2.602      103.385      131.124        1.609      333.085        2.169      867.627
01/18/2021  06:53:00       89.839       36.307      -10.888      261.105       37.148      125.183    68175.584     1379.968    15670.879        4.735        4.261       96.898      177.890        3.370      333.220        2.394      867.593
01/18/2021  06:54:00       85.571       32.079      -14.580      295.353       44.005      143.011    87233.614     1936.432    20452.263        5.907        5.481       91.387      202.623        4.916      333.284        2.501      867.563
01/18/2021  06:55:00      129.821       41.325      -45.504      510.113       34.960      245.336   260215.556     1222.214    60189.784       17.106       16.081      136.240      352.380        6.690      333.343        2.604      867.531
01/18/2021  06:56:00       71.644       48.547      -10.556      325.916       31.389      157.259   106221.340      985.250    24730.378        6.974        6.597       86.543      224.794        6.747      333.291        2.512      867.509
01/18/2021  06:57:00       93.956       43.166       -9.667      301.980       36.214      143.045    91191.962     1311.432    20461.766        6.185        5.648      103.397      205.463        3.949      333.351        2.611      867.502
01/18/2021  06:58:00       53.291       45.646        7.103      177.637       42.364       87.999    31554.846     1794.737     7743.844        2.303        2.055       70.168      119.665        2.908      333.168        2.308      867.518
01/18/2021  06:59:00      115.906       66.762      -31.840      474.339       48.981      226.599   224997.804     2399.117    51347.024       14.877       13.937      133.759      325.712        5.930      333.469        2.810      867.541
01/18/2021  07:00:00      101.957       74.820      -21.131      407.641       37.841      197.403   166171.235     1431.929    38968.137       11.146       10.329      126.465      281.718        4.962      333.555        2.953      867.566
01/18/2021  07:01:00       83.091       82.523      -17.882      318.990       34.173      153.941   101754.675     1167.793    23697.917        7.030        6.331      117.107      220.023        3.530      333.398        2.690      867.587
01/18/2021  07:02:00       78.203       73.132      -11.620      315.480       35.643      147.386    99527.525     1270.423    21722.778        6.703        6.126      107.070      213.683        3.983      333.322        2.565      867.590
01/18/2021  07:03:00      116.694       62.666      -28.054      422.162       39.846      203.349   178220.536     1587.728    41350.694       11.970       11.058      132.455      291.228        4.834      333.377        2.658      867.583
01/18/2021  07:04:00       84.252       98.956      -13.473      307.204       40.422      146.968    94374.194     1633.955    21599.670        6.732        5.880      129.964      210.041        2.612      333.287        2.504      867.546
01/18/2021  07:05:00      146.669       73.382      -42.932      546.914       44.511      259.750   299115.179     1981.202    67470.275       19.858       18.428      164.002      375.595        5.245      333.637        3.092      867.510
01/18/2021  07:06:00       83.268      111.046       -8.670      295.135       39.461      144.092    87104.622     1557.196    20762.414        6.436        5.471      138.798      204.117        2.163      333.402        2.697      867.476
01/18/2021  07:07:00       95.018      135.408      -19.132      368.168       39.963      170.490   135547.939     1597.025    29066.770        9.694        8.311      165.420      248.632        2.259      333.625        3.068      867.451
01/18/2021  07:08:00       58.369      157.392      -12.106      287.230       30.162      135.586    82501.077      909.722    18383.580        6.504        5.090      167.867      195.440        1.355      333.700        3.189      867.440
01/18/2021  07:09:00       29.142      134.164        1.869       21.816       41.419       22.288      475.953     1715.533      496.754        1.077        0.134      137.293       10.128        0.005      333.520        2.891      867.435
01/18/2021  07:10:00      140.521       69.499      -38.794      460.578       43.013      221.859   212132.374     1850.116    49221.362       14.459       13.160      156.768      318.306        4.123      333.556        2.955      867.446
01/18/2021  07:11:00       58.764       19.129       -5.686      277.283       40.770      133.586    76885.713     1662.156    17845.173        5.010        4.820       61.799      189.526        9.405      333.216        2.388      867.463
01/18/2021  07:12:00       78.549      -11.901      -26.547      384.132       46.818      182.410   147557.549     2191.911    33273.542        9.498        9.151       79.446      262.726       10.936      333.165        2.307      867.483
01/18/2021  07:13:00       70.646      -18.664       -7.354      382.430       41.884      187.773   146252.725     1754.259    35258.565        9.429        9.163       73.070      265.392       13.192      333.432        2.746      867.458
01/18/2021  07:14:00       61.601      -30.097      -36.581      472.864       37.912      225.092   223600.518     1437.295    50666.272       14.081       13.785       68.560      324.522       22.405      333.563        2.967      867.473
01/18/2021  07:15:00      107.902        1.666      -60.548      552.614       41.165      261.996   305382.730     1694.579    68642.024       19.544       18.786      107.915      378.717       12.316      333.673        3.151      867.493
01/18/2021  07:16:00      115.176        4.142      -52.002      519.088       36.136      249.959   269452.379     1305.817    62479.628       17.454       16.662      115.250      358.852        9.695      333.710        3.212      867.496
01/18/2021  07:17:00      206.197       16.842      -71.913      623.002       46.977      292.492   388131.616     2206.870    85551.572       26.183       23.795      206.884      425.074        4.222      333.871        3.483      867.503
01/18/2021  07:18:00      156.822        9.743      -29.655      403.391       36.545      190.859   162723.904     1335.553    36427.239       11.299       10.024      157.124      275.623        3.077      333.476        2.820      867.513
01/18/2021  07:19:00      123.969       25.963      -27.182      402.221       37.291      193.352   161782.001     1390.602    37385.131       10.863       10.028      126.658      277.076        4.786      333.470        2.809      867.519
01/18/2021  07:20:00      134.943       67.919      -17.674      367.877       47.448      178.341   135333.687     2251.307    31805.374        9.623        8.470      151.072      252.811        2.800      333.606        3.035      867.502
01/18/2021  07:21:00      114.742       74.633      -10.808      297.977       44.749      145.704    88790.200     2002.463    21229.752        6.541        5.601      136.879      204.205        2.226      333.599        3.021      867.497
01/18/2021  07:22:00      160.659       77.742      -39.849      495.742       46.418      234.636   245760.549     2154.670    55054.283       16.814       15.148      178.481      338.706        3.601      333.805        3.369      867.491
01/18/2021  07:23:00      122.077       40.266      -20.669      375.390       37.591      179.378   140917.596     1413.102    32176.433        9.569        8.725      128.546      257.269        4.006      333.599        3.025      867.464
01/18/2021  07:24:00       84.916       13.071      -12.563      312.845       37.569      151.215    97872.015     1411.461    22866.011        6.482        6.107       85.916      215.359        6.283      333.558        2.953      867.429
01/18/2021  07:25:00       53.782        8.290      -11.943      272.747       37.671      131.284    74391.004     1419.113    17235.585        4.806        4.652       54.417      186.441       11.738      333.403        2.699      867.394
01/18/2021  07:26:00      119.890       -4.794      -21.477      408.835       40.466      194.901   167145.758     1637.519    37986.448       11.077       10.338      119.986      280.229        5.455      333.628        3.072      867.334
01/18/2021  07:27:00       78.775       -1.648       -8.549      253.724       40.793      120.864    64376.098     1664.109    14607.993        4.345        4.032       78.792      171.106        4.716      333.634        3.079      867.260
01/18/2021  07:28:00       74.533       -0.659      -15.286      309.637       35.850      148.787    95874.864     1285.234    22137.508        6.252        5.965       74.536      212.662        8.141      333.712        3.210      867.205
01/18/2021  07:29:00       51.916      -18.111      -10.057      290.972       47.319      136.508    84664.774     2239.092    18634.517        5.431        5.277       54.985      195.470       12.638      333.604        3.031      867.181
01/18/2021  07:30:00       40.923       12.685       -8.854      366.627       42.854      168.560   134415.718     1836.471    28412.459        8.325        8.233       42.844      245.842       32.925      333.452        2.779      867.181
01/18/2021  07:31:00        5.646       38.478       -2.752      294.372       40.827      141.149    86654.974     1666.814    19922.921        5.486        5.412       38.890      201.073       26.732      333.325        2.568      867.206
01/18/2021  07:32:00       30.949       33.680      -11.262      367.373       32.625      176.905   134963.028     1064.361    31295.364        8.474        8.366       45.740      253.327       30.674      333.365        2.638      867.257
01/18/2021  07:33:00       21.378       18.692      -11.843      330.343       24.683      158.801   109126.404      609.247    25217.760        6.792        6.748       28.397      228.147       64.546      333.447        2.774      867.308
01/18/2021  07:34:00       41.749       41.727       -9.416      311.100       22.814      148.630    96783.301      520.465    22090.737        6.146        5.970       59.026      214.446       13.199      333.590        3.009      867.354
01/18/2021  07:35:00       26.059       70.113       -1.388      179.165       23.187       84.751    32100.160      537.619     7182.699        2.270        1.991       74.799      122.040        2.662      333.519        2.887      867.407
01/18/2021  07:36:00       45.381      112.370      -12.027      271.684       33.933      129.984    73812.385     1151.457    16895.745        5.333        4.593      121.188      186.708        2.374      333.710        3.206      867.450
01/18/2021  07:37:00       48.656      150.141      -23.498      216.550       34.125      104.615    46893.958     1164.512    10944.263        4.222        2.950      157.828      149.330        0.895      333.661        3.124      867.474
01/18/2021  07:38:00       32.657       86.305      -23.519      348.186       38.912      166.784   121233.455     1514.143    27817.004        7.978        7.528       92.277      239.689        6.747      333.418        2.724      867.483
01/18/2021  07:39:00       16.871       17.494       -6.211      176.659       21.029       84.271    31208.254      442.239     7101.651        1.968        1.938       24.304      120.330       24.512      333.162        2.297      867.471
01/18/2021  07:40:00       12.752       -9.328      -19.311      308.466       21.481      150.188    95151.332      461.438    22556.499        5.937        5.908       15.800      212.788      181.383      333.078        2.161      867.444
01/18/2021  07:41:00      -37.682      -10.328       -6.736       18.596       19.782       17.773      345.794      391.314      315.863        0.131        0.053       39.072        5.536        0.020      332.793        1.686      867.399
01/18/2021  07:42:00       23.926        0.921      -24.880      421.378       25.780      202.819   177559.502      664.600    41135.360       11.023       10.968       23.944      290.594      147.292      332.816        1.730      867.340
01/18/2021  07:43:00      -66.851       19.722      -15.787      220.111       17.519      102.293    48448.637      306.911    10463.835        3.215        2.961       69.700      148.129        4.517      332.612        1.389      867.275
01/18/2021  07:44:00      -30.125       20.957      -40.414      366.272       25.194      176.174   134155.109      634.748    31037.241        8.437        8.291       36.698      253.158       47.588      332.788        1.683      867.220
01/18/2021  07:45:00      -54.478       25.702      -12.072      156.673       20.814       73.829    24546.358      433.212     5450.737        1.710        1.522       60.237      106.330        3.116      332.634        1.426      867.197
01/18/2021  07:46:00      -39.597       20.145      -12.334      196.051       15.835       94.757    38436.067      250.759     8978.807        2.489        2.383       44.427      135.059        9.242      332.741        1.603      867.183
01/18/2021  07:47:00        4.232      -24.497      -19.460      246.641       17.478      117.793    60831.875      305.478    13875.240        3.799        3.751       24.860      170.048       46.790      333.004        2.039      867.177
01/18/2021  07:48:00       13.125        7.114      -19.929      313.080       22.142      150.130    98018.955      490.287    22538.928        6.081        6.052       14.929      216.144      209.610      333.077        2.160      867.160
01/18/2021  07:49:00        2.558       30.830      -22.363      318.264       13.706      151.222   101291.992      187.859    22868.192        6.288        6.217       30.936      219.104       50.162      333.253        2.450      867.155
01/18/2021  07:50:00      -28.797       29.620      -14.904      169.005       13.076       80.868    28562.646      170.991     6539.578        1.859        1.764       41.311      116.203        7.912      332.900        1.865      867.174
01/18/2021  07:51:00       42.218       49.609      -19.221      373.422       23.484      179.306   139443.914      551.490    32150.472        8.834        8.607       65.142      257.979       15.684      333.421        2.729      867.209
01/18/2021  07:52:00        7.996      106.710       -6.999       27.318       34.895       15.521      746.281     1217.661      240.891        0.685        0.110      107.009       13.407        0.016      333.468        2.803      867.248
01/18/2021  07:53:00       26.216      127.855       -2.590      173.746       26.774       84.480    30187.689      716.844     7136.885        2.753        1.902      130.516      119.198        0.834      333.617        3.051      867.281
01/18/2021  07:54:00       44.239      132.769      -22.066      363.056       30.196      175.110   131809.599      911.823    30663.526        9.169        8.169      139.945      250.663        3.208      333.725        3.232      867.305
01/18/2021  07:55:00       24.160      143.685      -12.562      171.337       22.585       82.437    29356.527      510.097     6795.885        2.902        1.833      145.702      116.938        0.644      333.630        3.072      867.322
01/18/2021  07:56:00       42.208      158.919      -10.879      187.896       30.260       90.473    35304.953      915.697     8185.412        3.577        2.220      164.429      128.639        0.612      333.693        3.176      867.327
01/18/2021  07:57:00       62.074      156.546      -22.542      255.727       33.512      122.663    65396.043     1123.063    15046.189        5.520        4.078      168.403      175.432        1.085      333.786        3.331      867.319
01/18/2021  07:58:00        3.576      129.340      -13.756      163.255       23.399       79.417    26652.036      547.531     6307.041        2.521        1.675      129.389      111.141        0.738      333.740        3.254      867.322
01/18/2021  07:59:00        4.195      123.839      -12.647      191.595       29.497       90.805    36708.807      870.080     8245.579        3.066        2.291      123.910      128.509        1.076      333.720        3.221      867.348
01/18/2021  08:00:00       17.851      109.364       -5.086      169.326       30.060       80.265    28671.348      903.602     6442.471        2.415        1.801      110.812      113.221        1.044      333.828        3.400      867.385
01/18/2021  08:01:00       62.599      155.755      -18.184      165.544       42.319       80.127    27404.778     1790.878     6420.287        3.205        1.781      167.864      112.046        0.446      334.080        3.817      867.415
01/18/2021  08:02:00        1.344       89.425        2.971       41.130       50.732       22.309     1691.686     2573.723      497.673        0.638        0.238       89.435       22.237        0.062      333.678        3.151      867.431
01/18/2021  08:03:00       18.301      120.043      -11.880      181.638       37.306       86.747    32992.245     1391.757     7524.967        2.839        2.095      121.430      121.747        1.005      333.961        3.620      867.451
01/18/2021  08:04:00      -24.177       85.588       -0.085       36.090       38.299       28.353     1302.497     1466.801      803.866        0.574        0.179       88.937       18.949        0.045      333.743        3.259      867.474
01/18/2021  08:05:00      -13.919       67.807       -9.186      170.135       36.641       83.735    28945.810     1342.543     7011.543        2.108        1.865       69.220      117.993        2.906      333.720        3.222      867.495
01/18/2021  08:06:00      -36.652       28.014      -15.925       36.331       24.605       15.095     1319.941      605.396      227.854        0.227        0.108       46.132        9.135        0.039      333.074        2.150      867.506
01/18/2021  08:07:00      -57.355       28.259      -12.473       32.930       35.231       26.336     1084.408     1241.250      693.562        0.363        0.151       63.939       13.436        0.044      333.022        2.065      867.502
01/18/2021  08:08:00      -43.762       29.476      -11.151       43.323       25.962       23.691     1876.903      674.030      561.254        0.301        0.156       52.763        6.764        0.016      333.197        2.356      867.506
01/18/2021  08:09:00      -82.787       23.177      -15.984       54.523       33.915       23.813     2972.745     1150.200      567.047        0.617        0.234       85.970       15.847        0.034      333.317        2.553      867.523
01/18/2021  08:10:00      -78.250       20.678      -13.605       36.643       38.130       21.098     1342.730     1453.884      445.131        0.499        0.162       80.937       17.288        0.046      333.413        2.712      867.566
01/18/2021  08:11:00       -5.920       30.064       -5.941       33.361       32.231       27.550     1112.931     1038.841      758.997        0.194        0.146       30.642       12.390        0.164      333.556        2.948      867.631
01/18/2021  08:12:00      -48.038       69.571       -4.653       41.368       52.162       25.732     1711.293     2720.875      662.139        0.613        0.255       84.544       14.530        0.030      333.946        3.594      867.696
01/18/2021  08:13:00      -22.312       28.970      -14.100      189.827       26.400       89.802    36034.325      696.986     8064.482        2.316        2.240       36.566      128.601       12.369      334.021        3.719      867.753
01/18/2021  08:14:00      -18.141       51.130      -11.006       35.636       35.108       16.626     1269.952     1232.593      276.433        0.292        0.139       54.253       12.003        0.049      333.858        3.448      867.800
01/18/2021  08:15:00      -16.732       44.404       -1.603       42.057       33.002       21.591     1768.752     1089.164      466.167        0.279        0.166       47.452       15.902        0.112      334.125        3.890      867.821
01/18/2021  08:16:00      -31.536       52.792        0.565       44.289       28.838       25.767     1961.481      831.647      663.923        0.362        0.173       61.494       22.874        0.138      334.103        3.855      867.824
01/18/2021  08:17:00      -53.231      135.722      -11.260       39.921       37.836       19.835     1593.712     1431.584      393.443        1.240        0.171      145.788       16.097        0.012      334.328        4.228      867.820
01/18/2021  08:18:00      -36.521       84.923       -9.453       37.620       40.522       23.168     1415.245     1642.006      536.772        0.611        0.180       92.443       11.944        0.017      334.232        4.069      867.801
01/18/2021  08:19:00      -21.070       60.225      -12.286       34.144       50.555       24.762     1165.806     2555.842      613.173        0.428        0.217       63.804       14.683        0.053      334.378        4.311      867.804
01/18/2021  08:20:00      -11.749       22.382       -3.860       31.764       22.592       19.988     1008.923      510.380      399.536        0.129        0.096       25.278       16.990        0.452      334.402        4.351      867.824
01/18/2021  08:21:00       -8.522       43.478      -18.624       41.849       51.623       24.695     1751.354     2664.937      609.845        0.367        0.251       44.305       21.576        0.237      334.417        4.376      867.861
01/18/2021  08:22:00       -3.050       40.201      -11.619       39.894       20.256       23.783     1591.533      410.321      565.611        0.216        0.128       40.316       27.430        0.463      334.290        4.165      867.899
01/18/2021  08:23:00       -5.860       10.539       -4.894       36.707       18.915       20.238     1347.432      357.788      409.566        0.114        0.106       12.059       15.510        1.654      334.378        4.311      867.939
01/18/2021  08:24:00        3.637       28.477       -0.803       26.811       26.630       16.809      718.812      709.134      282.530        0.127        0.086       28.709       16.612        0.335      334.391        4.333      868.028
01/18/2021  08:25:00      -24.812       47.401       -1.998       31.783       26.645       18.761     1010.172      709.943      351.992        0.247        0.104       53.502       15.204        0.081      334.535        4.572      868.120
01/18/2021  08:26:00      -17.437       27.224       -4.467       34.877       29.886       16.751     1216.434      893.155      280.612        0.173        0.120       32.330       17.723        0.301      334.578        4.642      868.161
01/18/2021  08:27:00       13.966        4.823      -13.513       37.395       20.939       25.473     1398.369      438.434      648.861        0.144        0.124       14.775       21.764        2.170      334.658        4.776      868.180
01/18/2021  08:28:00        5.341      -12.651        6.761       45.630       17.548       21.742     2082.106      307.925      472.726        0.155        0.143       13.732       21.564        2.466      334.860        5.110      868.177
01/18/2021  08:29:00      -17.257       37.765        1.457       51.048       48.612       27.418     2605.918     2363.118      751.747        0.372        0.286       41.522       24.690        0.354      334.767        4.957      868.161
01/18/2021  08:30:00       36.311       41.909       -2.874       33.863       32.954       20.718     1146.723     1085.952      429.244        0.287        0.133       55.451       16.314        0.087      334.847        5.091      868.140
01/18/2021  08:31:00       40.547       58.562       -5.815       37.804       29.511       24.222     1429.161      870.909      586.690        0.400        0.144       71.229       23.649        0.110      334.844        5.086      868.113
01/18/2021  08:32:00       48.292       51.233      -15.783       30.126       16.922       17.759      907.551      286.356      315.395        0.336        0.075       70.406        9.701        0.019      334.867        5.124      868.083
01/18/2021  08:33:00       39.700       -8.178       -4.184       38.016       26.141       22.249     1445.230      683.357      495.010        0.214        0.131       40.533       21.332        0.277      334.952        5.265      868.070
01/18/2021  08:34:00       45.122       79.055       -8.152       48.343       47.989       30.502     2337.004     2302.927      930.379        0.696        0.279       91.026       17.991        0.039      334.911        5.195      868.101
01/18/2021  08:35:00       78.034       66.055      -11.368       32.249       36.371       20.216     1040.012     1322.831      408.705        0.668        0.139      102.238       18.360        0.032      334.871        5.129      868.140
01/18/2021  08:36:00       52.199       37.563       -9.448       29.503       17.485       13.769      870.404      305.723      189.581        0.280        0.068       64.309       10.373        0.026      334.923        5.217      868.159
01/18/2021  08:37:00       39.696       41.612       -4.717       25.866       17.239       15.961      669.054      297.168      254.740        0.228        0.061       57.509       14.358        0.062      335.035        5.403      868.155
01/18/2021  08:38:00       24.781       -6.818       -0.426       32.758       14.212       18.421     1073.077      201.973      339.321        0.114        0.081       25.701       21.159        0.678      335.225        5.717      868.154
01/18/2021  08:39:00        1.985       -2.586        1.329       36.908       17.934       24.575     1362.193      321.615      603.913        0.115        0.114        3.261       24.633       57.075      335.274        5.800      868.145
01/18/2021  08:40:00       62.551       45.959      -12.685       42.292       22.986       19.727     1788.587      528.346      389.137        0.445        0.135       77.620       21.601        0.077      335.082        5.479      868.130
01/18/2021  08:41:00       58.702       50.552      -16.891       33.606       26.916       18.750     1129.351      724.479      351.574        0.425        0.110       77.469       16.250        0.044      335.081        5.478      868.121
01/18/2021  08:42:00       38.808       36.867        0.865       42.524       20.642       21.801     1808.285      426.106      475.275        0.279        0.135       53.528       24.626        0.212      335.039        5.409      868.147
01/18/2021  08:43:00       71.875       39.158      -13.883       24.658       17.234       19.813      608.041      296.995      392.556        0.409        0.065       81.849       14.596        0.032      334.886        5.154      868.207
01/18/2021  08:44:00       69.828       18.681      -11.444       36.091       31.553       15.929     1302.594      995.564      253.733        0.395        0.128       72.283       12.273        0.029      335.005        5.354      868.260
01/18/2021  08:45:00       22.457        4.502      -16.515       39.065       48.807       23.839     1526.042     2382.105      568.300        0.264        0.224       22.903       22.644        0.978      335.341        5.910      868.293
01/18/2021  08:46:00       85.124       34.363      -14.512       67.855       31.211       19.032     4604.298      974.096      362.214        0.729        0.297       91.799       21.319        0.054      335.080        5.476      868.310
01/18/2021  08:47:00      122.182       26.643      -22.072       24.945       19.837       16.302      622.235      393.488      265.752        0.870        0.064      125.053       11.658        0.009      334.997        5.338      868.308
01/18/2021  08:48:00       52.245       30.084        2.010       49.583       29.001       21.237     2458.495      841.066      450.995        0.369        0.188       60.288       24.796        0.169      335.241        5.745      868.302
01/18/2021  08:49:00       11.301       24.348        0.375       33.560       19.229       18.102     1126.282      369.764      327.665        0.127        0.091       26.843       18.210        0.460      335.308        5.856      868.303
01/18/2021  08:50:00       71.509       45.213      -15.059       40.769       27.631       25.100     1662.091      763.479      630.020        0.522        0.153       84.603       27.237        0.104      335.194        5.666      868.306
01/18/2021  08:51:00       64.100       31.556      -25.153       38.921       20.841       25.145     1514.814      434.364      632.276        0.416        0.129       71.446       25.030        0.123      335.205        5.684      868.318
01/18/2021  08:52:00       42.741       66.480      -14.571       55.760       35.249       25.390     3109.149     1242.487      644.652        0.573        0.250       79.034       31.952        0.163      335.341        5.909      868.336
01/18/2021  08:53:00       97.108       50.624      -20.507       39.727       36.557       25.281     1578.215     1336.428      639.113        0.798        0.178      109.511       26.203        0.057      335.336        5.902      868.356
01/18/2021  08:54:00       63.697       36.277      -21.262       55.778       45.181       29.790     3111.140     2041.325      887.442        0.593        0.302       73.303       32.616        0.198      335.509        6.190      868.379
01/18/2021  08:55:00       77.255       61.743      -17.977       49.169       51.497       26.885     2417.596     2651.965      722.814        0.795        0.290       98.896       17.547        0.031      335.533        6.231      868.403
01/18/2021  08:56:00       75.670       39.230      -14.702       50.275       39.327       30.412     2527.603     1546.602      924.898        0.624        0.250       85.235       29.466        0.120      335.711        6.528      868.425
01/18/2021  08:57:00      115.762       63.545      -17.188       43.542       38.638       28.302     1895.931     1492.925      801.021        1.096        0.209      132.057       18.081        0.019      335.467        6.120      868.443
01/18/2021  08:58:00      136.392       81.935      -31.050       42.511       25.358       23.350     1807.225      643.050      545.233        1.464        0.150      159.110       23.172        0.021      335.395        6.000      868.463
01/18/2021  08:59:00       98.836       36.903      -20.195       57.715       56.768       31.880     3331.051     3222.626     1016.331        0.955        0.379      105.500       27.688        0.069      335.708        6.522      868.476
01/18/2021  09:00:00       80.596       66.162      -16.157       47.166       57.214       33.135     2224.647     3273.398     1097.930        0.886        0.330      104.274       28.338        0.074      335.549        6.256      868.487
01/18/2021  09:01:00       56.692      135.609      -14.985       67.124       71.157       34.787     4505.584     5063.313     1210.127        1.630        0.539      146.983       33.871        0.053      335.542        6.243      868.495
01/18/2021  09:02:00        5.003      145.193      -14.535       74.492       55.486       39.281     5548.985     3078.730     1543.016        1.574        0.509      145.279       35.568        0.060      335.410        6.025      868.502
01/18/2021  09:03:00        7.420      162.621      -11.646       61.117       34.733       33.554     3735.242     1206.387     1125.860        1.635        0.303      162.790       27.680        0.029      335.357        5.935      868.539
01/18/2021  09:04:00       29.373      121.734      -16.031       50.798       35.732       28.683     2580.391     1276.753      822.701        1.031        0.234      125.228       26.211        0.044      335.513        6.196      868.577
01/18/2021  09:05:00       10.946      118.947       -3.966       54.621       47.064       32.553     2983.453     2215.020     1059.679        1.027        0.313      119.449       33.464        0.078      335.475        6.133      868.583
01/18/2021  09:06:00       61.468      107.433       -7.173       53.076       53.839       36.724     2817.031     2898.635     1348.688        1.122        0.353      123.774       29.618        0.057      335.613        6.362      868.557
01/18/2021  09:07:00       57.734      108.283      -12.993       81.852       53.962       33.824     6699.773     2911.934     1144.040        1.299        0.538      122.713       33.104        0.073      335.616        6.369      868.545
01/18/2021  09:08:00       79.082      113.239      -12.311       68.107       60.082       41.476     4638.545     3609.795     1720.294        1.460        0.498      138.120       35.839        0.067      335.582        6.310      868.539
01/18/2021  09:09:00       57.687      141.617      -27.285       38.422       67.412       26.272     1476.271     4544.424      690.240        1.542        0.336      152.916       26.478        0.030      335.444        6.080      868.545
01/18/2021  09:10:00      100.743       71.017      -13.990       67.770       39.103       32.136     4592.793     1529.053     1032.740        1.127        0.358      123.258       34.034        0.076      335.656        6.434      868.567
01/18/2021  09:11:00      153.336      103.624      -15.096       70.870       37.275       31.436     5022.487     1389.455      988.235        2.094        0.370      185.067       25.234        0.019      335.548        6.251      868.594
01/18/2021  09:12:00       64.253       39.489       -6.999       65.383       56.867       39.023     4274.894     3233.870     1522.805        0.738        0.452       75.418       38.202        0.257      335.836        6.735      868.617
01/18/2021  09:13:00      108.104       47.371      -20.959       73.589       43.708       36.121     5415.278     1910.421     1304.727        1.150        0.432      118.027       43.775        0.138      335.752        6.593      868.636
01/18/2021  09:14:00       66.790       65.853       -9.367       64.993       38.053       37.903     4224.036     1447.998     1436.638        0.800        0.355       93.795       42.368        0.204      335.745        6.583      868.657
01/18/2021  09:15:00       98.143      144.291      -24.589       74.095       58.907       38.411     5490.030     3470.071     1475.375        2.074        0.522      174.505       37.492        0.046      335.749        6.588      868.679
01/18/2021  09:16:00       35.672      182.447      -20.229       76.931       54.130       41.190     5918.317     2930.111     1696.621        2.275        0.527      185.902       41.302        0.049      335.549        6.255      868.691
01/18/2021  09:17:00       48.482      153.014      -17.481       60.060       72.517       36.338     3607.212     5258.723     1320.467        1.813        0.509      160.511       37.304        0.054      335.665        6.448      868.686
01/18/2021  09:18:00       50.041       74.638       -7.567       67.112       46.546       32.530     4504.062     2166.527     1058.213        0.793        0.386       89.860       36.846        0.168      335.802        6.677      868.699
01/18/2021  09:19:00       49.116      139.743      -14.516       58.743       44.031       37.095     3450.707     1938.772     1376.074        1.446        0.338      148.123       38.929        0.069      335.663        6.447      868.713
01/18/2021  09:20:00      -14.051       67.211       -0.492       37.249       39.992       31.055     1387.483     1599.335      964.409        0.433        0.198       68.664       22.800        0.110      335.663        6.446      868.741
01/18/2021  09:21:00       66.939       76.597       -8.110       64.113       40.843       34.272     4110.489     1668.116     1174.594        0.868        0.348      101.725       39.619        0.152      335.999        7.007      868.754
01/18/2021  09:22:00       62.984       16.320       -1.723       67.016       68.408       42.138     4491.130     4679.666     1775.586        0.759        0.547       65.064       42.457        0.426      336.134        7.232      868.774
01/18/2021  09:23:00       49.928       47.997       -6.744       60.987       35.452       37.740     3719.427     1256.830     1424.276        0.562        0.320       69.257       36.068        0.271      336.076        7.136      868.787
01/18/2021  09:24:00       43.624       99.741      -11.264       63.383       26.899       32.890     4017.401      723.581     1081.743        0.890        0.291      108.864       40.188        0.136      335.834        6.730      868.789
01/18/2021  09:25:00        5.008       79.106       -8.531       48.982       27.970       27.044     2399.257      782.329      731.375        0.513        0.196       79.264       28.683        0.131      335.832        6.728      868.766
01/18/2021  09:26:00       19.313       63.602       -0.109       52.795       29.740       30.379     2787.334      884.463      922.898        0.451        0.230       66.470       33.918        0.260      335.885        6.818      868.746
01/18/2021  09:27:00       -4.189       72.107       -2.870       39.824       28.833       26.715     1585.981      831.320      713.683        0.418        0.157       72.228       22.536        0.097      335.866        6.785      868.736
01/18/2021  09:28:00       -2.678       56.050       -8.502       35.513       21.092       25.411     1261.144      444.869      645.706        0.279        0.118       56.114       19.342        0.119      335.847        6.754      868.748
01/18/2021  09:29:00       75.197       78.538      -14.881       60.650       26.641       30.109     3678.440      709.749      906.534        0.867        0.265      108.732       37.972        0.122      335.935        6.901      868.779
01/18/2021  09:30:00      111.593      134.946      -21.418       57.325       70.877       35.530     3286.126     5023.547     1262.372        2.035        0.479      175.110       37.018        0.045      335.761        6.608      868.795
01/18/2021  09:31:00      101.667       71.904      -20.030       59.618       26.504       28.424     3554.363      702.437      807.943        1.049        0.253      124.524       32.739        0.069      335.804        6.682      868.809
01/18/2021  09:32:00       50.354      121.976       -8.204       55.260       71.983       35.275     3053.648     5181.579     1244.327        1.348        0.474      131.961       36.136        0.075      335.880        6.809      868.814
01/18/2021  09:33:00       54.604      187.806      -15.205       50.457       62.933       28.236     2545.921     3960.616      797.295        2.289        0.365      195.583       31.888        0.027      335.758        6.601      868.810
01/18/2021  09:34:00       86.301      208.965      -31.227       50.618       54.780       31.417     2562.215     3000.900      987.047        2.932        0.328      226.084       34.305        0.023      335.787        6.652      868.801
01/18/2021  09:35:00      101.633      144.693      -26.340       67.866       70.490       36.045     4605.844     4968.787     1299.261        2.141        0.544      176.820       34.953        0.039      335.892        6.826      868.800
01/18/2021  09:36:00      105.500      186.119      -36.337       56.457       59.122       34.075     3187.346     3495.387     1161.093        2.747        0.392      213.940       32.656        0.023      335.946        6.915      868.789
01/18/2021  09:37:00       17.875      191.528      -27.012       49.333       39.430       27.614     2433.725     1554.721      762.518        2.124        0.238      192.360       26.676        0.019      335.750        6.590      868.784
01/18/2021  09:38:00        0.223       82.718      -20.114       76.169       51.124       31.080     5801.672     2613.634      965.988        0.831        0.469       82.718       26.812        0.105      335.889        6.824      868.786
01/18/2021  09:39:00       72.525      105.236      -16.891       57.545       78.130       38.229     3311.484     6104.369     1461.489        1.375        0.544      127.807       47.288        0.137      336.144        7.248      868.783
01/18/2021  09:40:00       88.491      129.799      -20.019       68.560       45.231       37.924     4700.519     2045.856     1438.263        1.663        0.409      157.094       41.390        0.069      335.915        6.866      868.769
01/18/2021  09:41:00      116.816       66.570      -27.173       68.927       42.954       32.731     4750.999     1845.045     1071.331        1.324        0.383      134.453       35.533        0.070      336.082        7.146      868.742
01/18/2021  09:42:00      118.429       92.796      -32.391       79.096       51.137       43.001     6256.230     2615.000     1849.058        1.720        0.536      150.454       47.783        0.101      336.252        7.428      868.712
01/18/2021  09:43:00       37.288       88.942      -11.599       60.726       57.024       31.464     3687.659     3251.757      990.000        0.868        0.396       96.442       35.531        0.136      336.030        7.058      868.710
01/18/2021  09:44:00      -22.078      114.070       -9.970       48.312       54.212       30.800     2334.015     2938.989      948.635        0.991        0.311      116.187       29.115        0.063      335.918        6.873      868.716
01/18/2021  09:45:00       18.219      143.117      -16.713       71.842       52.274       32.290     5161.262     2732.564     1042.636        1.501        0.447      144.272       31.490        0.048      335.935        6.900      868.744
01/18/2021  09:46:00       71.793        5.954      -15.859       77.032       46.751       40.131     5933.997     2185.694     1610.527        0.758        0.487       72.040       47.301        0.431      336.303        7.513      868.769
01/18/2021  09:47:00       81.179       23.114      -18.751       69.538       50.179       38.172     4835.602     2517.899     1457.083        0.814        0.441       84.406       40.885        0.235      336.248        7.421      868.791
01/18/2021  09:48:00       93.194       69.066      -18.191       68.195       53.751       32.673     4650.623     2889.179     1067.524        1.119        0.430      115.997       32.809        0.080      336.367        7.620      868.801
01/18/2021  09:49:00      179.793       66.946      -15.867       69.844       35.439       34.489     4878.179     1255.912     1189.517        2.219        0.366      191.852       27.980        0.021      336.077        7.136      868.794
01/18/2021  09:50:00       53.536        2.357      -14.295       85.564       66.102       40.438     7321.221     4369.414     1635.267        0.820        0.666       53.588       44.136        0.678      336.404        7.682      868.805
01/18/2021  09:51:00       45.694       61.573       -4.173       68.471       43.364       33.424     4688.276     1880.469     1117.166        0.679        0.384       76.676       32.897        0.184      336.302        7.512      868.827
01/18/2021  09:52:00      147.253      103.818      -26.831       62.458       43.312       38.660     3901.027     1875.962     1494.604        2.023        0.364      180.171       38.029        0.045      336.038        7.071      868.836
01/18/2021  09:53:00      150.808       81.197      -20.544       58.459       38.318       35.917     3417.466     1468.268     1290.047        1.797        0.309      171.278       37.257        0.047      335.984        6.981      868.824
01/18/2021  09:54:00      150.831       90.625      -18.097       85.488       41.555       35.491     7308.204     1726.799     1259.586        2.079        0.515      175.963       40.202        0.052      335.962        6.943      868.814
01/18/2021  09:55:00       45.764       16.113      -10.043       64.810       48.721       27.784     4200.368     2373.762      771.935        0.490        0.367       48.518       34.047        0.492      336.144        7.248      868.803
01/18/2021  09:56:00       -7.084        9.444        4.898       25.132       31.487       19.069      631.614      991.445      363.611        0.107        0.099       11.806       11.659        0.975      336.268        7.454      868.779
01/18/2021  09:57:00       25.646       74.332      -11.015       68.174       35.154       29.293     4647.635     1235.798      858.052        0.652        0.337       78.632       31.304        0.158      336.246        7.420      868.773
01/18/2021  09:58:00       64.353       95.103       -9.700       55.787       41.837       33.812     3112.135     1750.293     1143.271        0.964        0.300      114.829       33.143        0.083      336.424        7.715      868.788
01/18/2021  09:59:00       54.230      160.839      -14.775       48.607       44.924       34.363     2362.653     2018.172     1180.790        1.729        0.278      169.736       32.770        0.037      336.052        7.094      868.811
01/18/2021  10:00:00       48.557       50.764      -25.900       42.349       63.135       24.245     1793.396     3985.978      587.836        0.599        0.318       70.248       24.213        0.119      336.041        7.078      868.823
01/18/2021  10:01:00      -14.674       24.796      -16.888       32.562       18.036       17.881     1060.258      325.291      319.735        0.141        0.085       28.813       11.692        0.165      335.965        6.951      868.804
01/18/2021  10:02:00       -6.025       29.117       -1.932       17.507       11.776       13.343      306.511      138.677      178.033        0.076        0.031       29.733        7.353        0.061      336.085        7.150      868.771
01/18/2021  10:03:00       41.265       88.699       -5.628       45.684       48.392       25.672     2087.052     2341.804      659.033        0.734        0.254       97.828       24.945        0.065      336.229        7.391      868.754
01/18/2021  10:04:00       40.177       85.933       -6.568       45.384       36.634       29.593     2059.672     1342.018      875.750        0.666        0.214       94.861       27.792        0.086      336.452        7.762      868.723
01/18/2021  10:05:00       89.050       48.846      -28.932       81.291       73.939       31.722     6608.281     5466.988     1006.256        1.211        0.654      101.567       22.075        0.047      336.558        7.940      868.695
01/18/2021  10:06:00        5.895       42.464        9.746       43.538       30.435       27.086     1895.541      926.287      733.675        0.274        0.178       42.871       21.201        0.245      336.681        8.147      868.704
01/18/2021  10:07:00      131.390       77.801      -20.645       65.949       38.150       33.396     4349.254     1455.394     1115.326        1.533        0.346      152.697       33.078        0.047      336.549        7.925      868.714
01/18/2021  10:08:00       73.526       73.138       -4.779       52.916       35.740       29.574     2800.096     1277.377      874.638        0.786        0.248      103.708       26.597        0.066      336.537        7.905      868.714
01/18/2021  10:09:00      106.125      -13.463      -26.925       80.546       76.338       42.091     6487.628     5827.422     1771.665        1.312        0.704      106.975       40.978        0.147      336.471        7.795      868.704
01/18/2021  10:10:00      168.098       -5.276      -12.840       89.927       50.515       47.624     8086.818     2551.795     2267.998        2.068        0.645      168.180       45.188        0.072      336.213        7.363      868.679
01/18/2021  10:11:00       56.857       -9.499      -16.036       71.946       43.467       27.857     5176.165     1889.392      776.037        0.571        0.392       57.645       28.119        0.238      336.378        7.639      868.673
01/18/2021  10:12:00       48.552        9.665      -11.021       78.823       60.891       40.273     6213.130     3707.739     1621.908        0.705        0.577       49.504       36.979        0.558      336.523        7.881      868.644
01/18/2021  10:13:00      208.647       27.166      -18.867      105.001       68.981       49.816    11025.261     4758.332     2481.588        3.144        0.913      210.408       47.272        0.050      336.315        7.532      868.624
01/18/2021  10:14:00       96.382       25.488       -9.504      115.496       58.241       41.477    13339.227     3392.007     1720.346        1.424        0.923       99.695       42.941        0.186      336.399        7.673      868.625
01/18/2021  10:15:00      170.499      -36.036      -19.368      102.064       71.612       45.613    10417.147     5128.228     2080.545        2.418        0.881      174.265       48.397        0.077      336.372        7.628      868.613
01/18/2021  10:16:00       91.001      -53.380      -23.958       75.217       68.879       43.906     5657.576     4744.272     1927.768        1.201        0.616      105.501       46.969        0.198      336.532        7.896      868.631
01/18/2021  10:17:00       -5.473      -19.772      -12.088       61.960       50.243       27.546     3839.031     2524.333      758.761        0.384        0.356       20.516       37.458        3.334      336.573        7.966      868.639
01/18/2021  10:18:00      106.165      -47.889      -33.814       84.773       87.143       47.454     7186.544     7593.967     2251.859        1.587        0.852      116.466       42.285        0.132      336.559        7.942      868.630
01/18/2021  10:19:00      125.129      -84.355      -46.423       72.015      101.468       39.659     5186.228    10295.720     1572.840        2.099        0.853      150.907       49.384        0.107      336.294        7.498      868.628
01/18/2021  10:20:00       60.828      -33.095       -9.232       78.843       52.773       43.127     6216.154     2784.972     1859.948        0.787        0.543       69.248       45.094        0.424      336.525        7.885      868.612
01/18/2021  10:21:00      129.417      -48.366      -20.706       80.294       63.307       47.576     6447.102     4007.839     2263.510        1.611        0.636      138.159       45.185        0.107      336.411        7.694      868.603
01/18/2021  10:22:00      124.549      -87.157      -35.950       72.964       92.641       42.436     5323.784     8582.433     1800.825        2.005        0.785      152.015       45.934        0.091      336.379        7.639      868.598
01/18/2021  10:23:00      133.544      -47.609      -28.142       87.197       62.080       43.427     7603.367     3853.987     1885.875        1.711        0.667      141.776       38.641        0.074      336.574        7.967      868.598
01/18/2021  10:24:00       81.785      -68.750      -15.956       90.240      102.693       57.710     8143.343    10545.814     3330.417        1.684        1.101      106.843       59.577        0.311      336.650        8.092      868.599
01/18/2021  10:25:00      150.053      -57.914      -34.256       86.851       81.475       45.659     7543.060     6638.129     2084.755        2.165        0.813      160.842       42.398        0.069      336.490        7.824      868.595
01/18/2021  10:26:00      133.189       -4.553      -18.078       92.445       69.570       50.451     8546.013     4839.931     2545.292        1.701        0.797      133.266       45.496        0.117      336.542        7.913      868.613
01/18/2021  10:27:00      113.595       -8.048      -26.383       98.057      103.599       41.842     9615.192    10732.810     1750.741        1.788        1.105      113.880       28.517        0.063      336.615        8.034      868.621
01/18/2021  10:28:00       97.381      -49.298      -35.928       88.788       56.188       43.681     7883.277     3157.114     1908.048        1.307        0.647      109.148       49.318        0.204      336.603        8.016      868.615
01/18/2021  10:29:00       25.973      -33.922      -33.909       69.880       49.742       27.340     4883.184     2474.270      747.498        0.554        0.405       42.724       26.854        0.395      336.580        7.977      868.606
01/18/2021  10:30:00       89.020     -136.389      -34.866       62.372       44.910       27.715     3890.236     2016.894      768.120        1.721        0.334      162.870       30.962        0.036      336.552        7.930      868.580
01/18/2021  10:31:00      147.206     -167.242      -49.811       62.524       66.418       38.133     3909.309     4411.347     1454.109        3.095        0.489      222.799       32.030        0.021      336.413        7.694      868.574
01/18/2021  10:32:00      124.886      -32.254      -33.440       92.137      119.860       39.762     8489.248    14366.343     1581.023        2.109        1.222      128.984       58.739        0.207      336.502        7.844      868.586
01/18/2021  10:33:00       82.757      -22.044      -17.962       67.185       84.257       46.548     4513.805     7099.188     2166.735        1.072        0.689       85.643       34.705        0.164      336.484        7.815      868.569
01/18/2021  10:34:00      132.372     -129.804      -36.070       62.318       57.504       32.375     3883.544     3306.767     1048.171        2.195        0.412      185.395       30.168        0.026      336.298        7.505      868.547
01/18/2021  10:35:00      145.383     -225.177      -55.342       62.829       70.865       32.160     3947.441     5021.858     1034.236        4.245        0.500      268.032       29.238        0.012      336.285        7.480      868.543
01/18/2021  10:36:00      162.931     -169.789      -57.874       55.573       47.097       29.293     3088.399     2218.168      858.085        3.244        0.308      235.318       32.936        0.020      336.387        7.650      868.536
01/18/2021  10:37:00       60.647        1.905      -16.835       84.517       63.642       45.301     7143.164     4050.248     2052.202        0.860        0.662       60.677       43.765        0.520      336.844        8.417      868.546
01/18/2021  10:38:00       84.480      -77.215      -26.620       80.782       77.422       37.830     6525.738     5994.225     1431.129        1.388        0.698      114.451       39.131        0.117      336.524        7.882      868.555
01/18/2021  10:39:00      105.771      -60.851      -35.291       98.100      113.077       56.472     9623.675    12786.306     3189.115        2.086        1.280      122.026       56.610        0.215      336.584        7.982      868.568
01/18/2021  10:40:00      136.907      -67.618      -23.149       96.861       69.445       47.908     9382.118     4822.604     2295.189        2.017        0.825      152.695       57.339        0.141      336.521        7.877      868.581
01/18/2021  10:41:00       81.669      -62.542      -29.033       60.894       75.203       42.306     3708.109     5655.488     1789.761        1.129        0.558      102.865       32.410        0.099      336.848        8.425      868.569
01/18/2021  10:42:00       58.750      -39.278      -10.350       81.422       66.862       43.167     6629.468     4470.494     1863.382        0.903        0.648       70.671       48.338        0.468      337.004        8.685      868.530
01/18/2021  10:43:00      121.494     -150.582      -38.215       50.223       56.295       26.576     2522.394     3169.097      706.274        2.265        0.320      193.483       29.751        0.024      336.218        7.371      868.495
01/18/2021  10:44:00      116.825     -106.138      -35.028       62.578       77.129       34.222     3915.965     5948.908     1171.142        1.859        0.552      157.839       32.056        0.041      336.458        7.772      868.459
01/18/2021  10:45:00       20.497      -75.820      -16.660       72.236       47.010       38.089     5218.054     2209.905     1450.751        0.766        0.444       78.542       42.692        0.295      336.672        8.130      868.426
01/18/2021  10:46:00       78.621      -92.848      -22.504       76.055       89.832       47.805     5784.414     8069.771     2285.351        1.572        0.807      121.663       48.938        0.162      336.873        8.464      868.398
01/18/2021  10:47:00       93.658      -56.426      -24.671       88.824       91.003       55.057     7889.641     8281.600     3031.253        1.588        0.960      109.342       50.012        0.209      336.830        8.394      868.394
01/18/2021  10:48:00       51.036      -12.718      -18.440       82.155       97.028       70.627     6749.393     9414.466     4988.216        1.212        1.058       52.597       57.062        1.177      336.804        8.350      868.381
01/18/2021  10:49:00      104.921      -70.435      -40.400       68.837       99.707       43.866     4738.481     9941.444     1924.247        1.710        0.830      126.370       44.014        0.121      336.809        8.359      868.372
01/18/2021  10:50:00      125.851      -30.004      -27.891       85.495       92.901       44.785     7309.434     8630.670     2005.690        1.773        0.897      129.378       46.472        0.129      336.656        8.103      868.342
01/18/2021  10:51:00      117.248      -67.125      -31.616       75.176       98.311       54.371     5651.369     9665.034     2956.245        1.876        0.914      135.103       38.832        0.083      336.779        8.307      868.312
01/18/2021  10:52:00      134.571      -75.952      -40.649       87.322       62.455       38.881     7625.099     3900.593     1511.737        1.928        0.652      154.525       39.396        0.065      336.598        8.005      868.306
01/18/2021  10:53:00       91.910        0.080      -23.827       54.394       78.639       28.194     2958.706     6184.122      794.883        0.947        0.497       91.910       31.916        0.121      336.493        7.833      868.296
01/18/2021  10:54:00      137.760       24.279      -18.472       70.513       53.916       37.117     4972.045     2906.971     1377.641        1.458        0.463      139.883       33.672        0.058      336.619        8.043      868.283
01/18/2021  10:55:00      107.651       87.343      -17.802       57.747       45.764       24.534     3334.763     2094.324      601.935        1.278        0.302      138.627       26.658        0.037      336.322        7.546      868.249
01/18/2021  10:56:00       25.054       -0.978       -0.680       48.224       52.429       33.430     2325.551     2748.823     1117.582        0.341        0.310       25.073       24.823        0.980      336.804        8.351      868.204
01/18/2021  10:57:00      102.040      -33.058      -21.113       62.548       92.014       42.983     3912.309     8466.625     1847.529        1.309        0.711      107.261       43.285        0.163      336.677        8.140      868.174
01/18/2021  10:58:00      134.186       45.557      -27.429       77.395       78.879       39.481     5990.033     6221.885     1558.787        1.730        0.689      141.709       34.348        0.059      336.924        8.551      868.180
01/18/2021  10:59:00      206.209       75.351      -26.385       93.809       71.898       39.592     8800.079     5169.350     1567.507        3.221        0.777      219.545       27.767        0.016      336.627        8.053      868.201
01/18/2021  11:00:00      210.545       49.695      -27.394       86.150       59.047       38.609     7421.737     3486.597     1490.666        2.997        0.620      216.331       20.695        0.009      336.524        7.881      868.230
01/18/2021  11:01:00       89.500       60.192      -25.766       86.746       45.606       34.174     7524.813     2079.891     1167.854        1.153        0.539      107.858       31.185        0.084      336.243        7.412      868.274
01/18/2021  11:02:00       88.073      -96.139      -10.958       80.597       98.700       45.989     6495.918     9741.748     2114.957        1.773        0.918      130.382       66.799        0.262      336.518        7.872      868.251
01/18/2021  11:03:00       60.205     -103.042      -28.346       53.219       44.679       27.507     2832.246     1996.180      756.630        1.031        0.279      119.341       32.991        0.076      336.538        7.905      868.237
01/18/2021  11:04:00      110.705      -45.144      -27.528       62.436       83.335       30.394     3898.203     6944.795      923.769        1.341        0.588      119.556       38.377        0.103      336.420        7.709      868.223
01/18/2021  11:05:00       54.387        5.709      -16.170       63.513       66.953       34.509     4033.943     4482.754     1190.886        0.648        0.485       54.686       26.266        0.231      336.743        8.250      868.217
01/18/2021  11:06:00       87.514       39.430      -13.232       88.254       76.244       35.689     7788.779     5813.145     1273.713        1.213        0.744       95.987       43.200        0.203      336.688        8.157      868.208
01/18/2021  11:07:00       89.235       26.884      -23.071       66.376       73.514       27.467     4405.794     5404.334      754.432        0.989        0.528       93.197       26.271        0.079      336.837        8.406      868.169
01/18/2021  11:08:00       58.957      -55.214      -26.005       48.837       59.709       37.424     2385.023     3565.125     1400.582        0.727        0.368       80.774       35.460        0.193      337.106        8.856      868.149
01/18/2021  11:09:00      103.495      -36.239      -20.420      103.147       83.133       47.176    10639.359     6911.075     2225.616        1.610        0.989      109.656       58.701        0.287      336.858        8.442      868.129
01/18/2021  11:10:00      118.524      -18.327      -27.119       83.920       90.732       53.656     7042.525     8232.225     2878.966        1.663        0.908      119.933       45.912        0.147      336.807        8.355      868.117
01/18/2021  11:11:00      136.246      -56.803      -38.120       64.292       89.155       34.674     4133.418     7948.644     1202.269        1.826        0.664      147.613       28.563        0.037      336.758        8.275      868.099
01/18/2021  11:12:00       94.078      -24.076      -31.855       60.977       77.492       39.615     3718.228     6005.021     1569.311        1.087        0.565       97.110       36.699        0.143      336.747        8.255      868.104
01/18/2021  11:13:00      118.878      -13.640      -23.155       86.799       85.707       57.673     7534.029     7345.613     3326.158        1.653        0.910      119.658       47.387        0.157      336.635        8.067      868.103
01/18/2021  11:14:00       50.986      -14.940        4.850       57.754       57.395       40.197     3335.476     3294.215     1615.768        0.554        0.412       53.130       40.824        0.590      336.782        8.315      868.106
01/18/2021  11:15:00       89.512       -7.969      -13.125       96.598       95.699       68.513     9331.265     9158.231     4694.040        1.571        1.159       89.866       59.311        0.436      336.718        8.208      868.080
01/18/2021  11:16:00      133.549      -33.797      -23.354       87.708       65.631       43.847     7692.734     4307.422     1922.599        1.672        0.696      137.759       41.168        0.089      336.568        7.955      868.089
01/18/2021  11:17:00      102.365     -170.178      -42.967       55.782      100.721       36.715     3111.634    10144.725     1347.957        2.794        0.730      198.593       33.330        0.028      336.389        7.656      868.062
01/18/2021  11:18:00       11.992     -108.211      -32.313       63.939       57.448       37.400     4088.193     3300.289     1398.772        1.084        0.439      108.873       27.634        0.064      336.926        8.555      868.013
01/18/2021  11:19:00      -25.211      -21.571      -11.923       69.188       36.436       31.534     4786.979     1327.583      994.401        0.417        0.355       33.180       18.640        0.316      337.053        8.767      868.008
01/18/2021  11:20:00       -6.846       16.150        4.936       25.904       32.860       19.474      670.995     1079.768      379.230        0.123        0.106       17.541        6.628        0.143      337.346        9.257      868.019
01/18/2021  11:21:00       34.546        0.148      -10.316       50.953       56.598       36.824     2596.218     3203.340     1355.975        0.423        0.358       34.546       32.958        0.910      337.354        9.270      868.019
01/18/2021  11:22:00       93.236      -67.561      -27.625       56.114       79.020       36.553     3148.779     6244.148     1336.088        1.237        0.536      115.141       39.439        0.117      336.964        8.618      867.999
01/18/2021  11:23:00       75.077     -109.333      -29.128       39.478       41.901       27.415     1558.509     1755.717      751.563        1.125        0.203      132.628       26.841        0.041      336.466        7.787      867.948
01/18/2021  11:24:00      104.161       36.072      -12.674       80.069       61.644       28.750     6411.005     3800.033      826.538        1.167        0.552      110.230       35.551        0.104      336.869        8.461      867.919
01/18/2021  11:25:00      182.403      139.494      -23.037       39.462       36.048       24.303     1557.262     1299.491      590.640        2.835        0.172      229.629       19.087        0.007      336.424        7.711      867.935
01/18/2021  11:26:00      109.149       68.871      -18.354       42.732       32.262       24.884     1825.995     1040.822      619.197        1.024        0.174      129.061       24.290        0.035      336.506        7.853      867.942
01/18/2021  11:27:00      151.998       65.881      -12.546       42.871       47.625       30.130     1837.942     2268.132      907.837        1.631        0.251      165.661       22.973        0.019      336.741        8.246      867.935
01/18/2021  11:28:00       23.731       32.441        7.463       47.170       46.495       31.764     2225.011     2161.821     1008.945        0.353        0.270       40.194       21.067        0.275      337.106        8.856      867.911
01/18/2021  11:29:00       35.711      -13.612      -17.181       58.450       73.565       35.699     3416.454     5411.880     1274.383        0.593        0.505       38.217       34.871        0.833      337.198        9.010      867.867
01/18/2021  11:30:00        0.772      -11.565       -4.799       63.251       59.355       28.554     4000.723     3522.983      815.357        0.425        0.417       11.590       22.354        3.720      337.215        9.038      867.832
01/18/2021  11:31:00       -3.450      -10.962        6.047       56.156       59.494       39.912     3153.501     3539.540     1593.005        0.423        0.414       11.492       17.313        2.270      337.260        9.115      867.789
01/18/2021  11:32:00       79.466      -66.690      -12.524       77.834       46.388       38.638     6058.128     2151.845     1492.889        1.031        0.485      103.742       41.895        0.163      337.173        8.969      867.763
01/18/2021  11:33:00      132.444     -172.220      -29.681       56.086       61.428       33.194     3145.609     3773.353     1101.844        2.805        0.401      217.258       32.925        0.023      336.717        8.204      867.739
01/18/2021  11:34:00       72.968      -66.549      -13.171       81.887       72.400       33.510     6705.446     5241.739     1122.926        1.150        0.654       98.758       37.501        0.144      337.193        9.001      867.724
01/18/2021  11:35:00       10.562      -30.278       -0.928       55.394       34.220       32.223     3068.484     1170.980     1038.351        0.315        0.264       32.068       23.596        0.541      337.168        8.961      867.686
01/18/2021  11:36:00       70.767      -33.000       -5.918       66.161       54.705       44.163     4377.332     2992.679     1950.365        0.772        0.466       78.083       41.199        0.278      336.992        8.665      867.623
01/18/2021  11:37:00       79.372      -40.031       -7.330       66.698       72.193       39.235     4448.584     5211.765     1539.396        0.958        0.560       88.895       36.809        0.171      337.034        8.737      867.553
01/18/2021  11:38:00      -13.635      -41.237        0.844       65.858       64.331       45.836     4337.228     4138.481     2100.902        0.623        0.529       43.433       26.468        0.371      337.192        9.000      867.501
01/18/2021  11:39:00      130.348     -118.949      -39.200       89.062       98.751       47.640     7932.128     9751.673     2269.603        2.631        0.998      176.464       47.597        0.073      337.091        8.828      867.472
01/18/2021  11:40:00       36.725      -67.432       -5.321      114.425      113.630       56.449    13093.159    12911.804     3186.504        1.755        1.460       76.784       72.479        0.891      337.169        8.960      867.464
01/18/2021  11:41:00       43.646     -109.486      -28.286       64.551       75.099       33.879     4166.768     5639.824     1147.792        1.282        0.548      117.865       38.455        0.106      337.170        8.965      867.455
01/18/2021  11:42:00       27.739      -33.150      -13.698       54.914       72.283       33.519     3015.578     5224.868     1123.549        0.571        0.468       43.224       29.530        0.467      337.312        9.200      867.442
01/18/2021  11:43:00       17.733      -11.463       -4.914       55.939       55.451       31.704     3129.192     3074.765     1005.114        0.384        0.360       21.115       28.460        1.817      337.347        9.259      867.412
01/18/2021  11:44:00      136.284     -110.640      -39.574       51.247       55.269       29.877     2626.250     3054.680      892.656        1.948        0.329      175.541       30.358        0.030      336.722        8.215      867.404
01/18/2021  11:45:00       49.513      -34.770      -19.813       68.436       58.164       30.406     4683.428     3383.098      924.508        0.652        0.450       60.501       30.426        0.253      336.973        8.634      867.389
01/18/2021  11:46:00       11.679      -66.587      -18.374       73.112       91.550       31.445     5345.336     8381.419      988.817        0.981        0.736       67.603       36.025        0.284      337.258        9.111      867.357
01/18/2021  11:47:00       54.033     -100.452      -32.759       90.588       94.245       40.621     8206.170     8882.197     1650.058        1.641        0.937      114.062       43.138        0.143      337.266        9.123      867.321
01/18/2021  11:48:00       73.236      -54.812       -8.912       84.595       96.687       55.045     7156.233     9348.421     3029.993        1.399        0.977       91.476       47.250        0.267      337.317        9.209      867.293
01/18/2021  11:49:00       98.494     -110.535      -22.426       64.353      107.239       46.899     4141.328    11500.216     2199.488        2.013        0.892      148.051       41.210        0.077      337.205        9.022      867.269
01/18/2021  11:50:00      124.994     -112.745      -28.630       69.772       76.789       42.300     4868.185     5896.490     1789.278        2.085        0.628      168.330       36.156        0.046      337.217        9.041      867.234
01/18/2021  11:51:00      216.781     -157.490      -50.146       54.049       64.058       39.952     2921.280     4103.434     1596.193        4.146        0.431      267.949       37.215        0.019      336.763        8.278      867.215
01/18/2021  11:52:00      102.497     -100.500      -23.623       72.158       81.724       46.106     5206.789     6678.828     2125.760        1.758        0.701      143.548       46.901        0.107      337.167        8.958      867.242
01/18/2021  11:53:00       82.317       39.314      -31.269       78.116       74.118       27.933     6102.061     5493.438      780.270        1.083        0.619       91.223       35.487        0.151      336.986        8.655      867.275
01/18/2021  11:54:00       17.087      -45.223      -14.169       54.904       41.741       26.432     3014.463     1742.312      698.650        0.400        0.273       48.344       30.661        0.402      337.196        9.008      867.256
01/18/2021  11:55:00       96.285       74.177       -7.469       91.631       57.365       46.834     8396.307     3290.794     2193.431        1.435        0.694      121.544       49.668        0.167      337.050        8.761      867.214
01/18/2021  11:56:00       93.490       69.348      -18.573       61.006       45.969       21.838     3721.715     2113.131      476.916        1.010        0.316      116.402       27.411        0.055      336.792        8.331      867.186
01/18/2021  11:57:00      131.972      113.934      -26.437       52.422       30.421       28.928     2748.024      925.423      836.824        1.780        0.226      174.349       24.130        0.019      336.785        8.320      867.175
01/18/2021  11:58:00      -33.457      108.866      -20.879       79.619       39.144       30.407     6339.227     1532.226      924.590        1.110        0.440      113.891       22.739        0.040      336.785        8.322      867.166
01/18/2021  11:59:00      -21.318       72.570      -18.605       63.525       47.256       26.161     4035.429     2233.111      684.413        0.651        0.348       75.636       23.644        0.098      337.198        9.011      867.140
01/18/2021  12:00:00       39.904       -2.045       -4.752       69.943       55.958       39.725     4891.987     3131.279     1578.042        0.561        0.480       39.956        7.774        0.038      337.247        9.092      867.141
01/18/2021  12:01:00       71.294        3.658        5.724      105.918       84.878       65.944    11218.579     7204.223     4348.585        1.395        1.139       71.387       59.325        0.691      337.238        9.075      867.134
01/18/2021  12:02:00       99.381      -81.165      -34.949       60.478       62.615       41.577     3657.542     3920.670     1728.609        1.349        0.465      128.314       36.814        0.082      336.830        8.395      867.170
01/18/2021  12:03:00       95.227      -75.177      -20.557       79.297       68.965       35.197     6287.987     4756.198     1238.847        1.371        0.614      121.325       40.480        0.111      337.119        8.878      867.130
01/18/2021  12:04:00       57.337     -121.946      -33.226       86.419       62.579       42.805     7468.200     3916.091     1832.300        1.624        0.661      134.753       44.067        0.107      337.433        9.404      867.072
01/18/2021  12:05:00       32.112      -84.128      -24.062       74.998       60.697       29.247     5624.728     3684.166      855.406        0.942        0.508       90.048       28.634        0.101      337.304        9.187      867.044
01/18/2021  12:06:00       55.609      -23.150      -13.578      104.019       72.912       41.890    10819.941     5316.089     1754.765        1.085        0.895       60.235       30.608        0.258      337.300        9.181      867.025
01/18/2021  12:07:00       92.662      -97.932      -25.530       64.552       88.809       48.771     4166.972     7887.031     2378.590        1.663        0.722      134.822       45.583        0.114      337.441        9.417      867.016
01/18/2021  12:08:00       38.257      -98.618      -44.183       83.658       50.789       33.580     6998.700     2579.551     1127.619        1.192        0.535      105.779       26.298        0.062      337.269        9.128      867.012
01/18/2021  12:09:00      134.939     -199.389      -44.308       58.145       81.480       38.401     3380.854     6639.015     1474.608        3.571        0.575      240.758       31.393        0.017      337.102        8.847      867.004
01/18/2021  12:10:00      114.663     -200.863      -45.418       60.637       52.062       30.589     3676.798     2710.461      935.667        3.144        0.366      231.287       26.313        0.013      337.004        8.684      867.006
01/18/2021  12:11:00      105.441     -173.114      -46.086       47.040       68.750       34.743     2212.742     4726.504     1207.104        2.568        0.407      202.697       25.058        0.015      337.173        8.966      866.994
01/18/2021  12:12:00       68.560      -35.491      -12.900       94.299       83.350       57.142     8892.277     6947.275     3265.248        1.261        0.955       77.202       58.448        0.573      337.578        9.646      866.967
01/18/2021  12:13:00       54.592       -7.469       12.616      113.156       90.774       86.259    12804.393     8239.966     7440.602        1.583        1.424       55.101       73.431        1.776      337.219        9.045      866.924
01/18/2021  12:14:00      119.230     -133.201      -38.095       63.879      128.607       39.620     4080.508    16539.806     1569.720        2.780        1.110      178.769       33.526        0.035      337.264        9.120      866.915
01/18/2021  12:15:00      180.546     -128.299      -37.032       83.544       79.505       44.248     6979.644     6321.102     1957.891        3.284        0.763      221.490       46.206        0.044      337.146        8.921      866.877
01/18/2021  12:16:00       60.780      -56.415      -22.918       69.269      119.276       37.191     4798.216    14226.653     1383.156        1.390        1.020       82.927       37.204        0.201      337.370        9.298      866.842
01/18/2021  12:17:00      122.931      -87.867      -22.631       84.199       61.661       42.125     7089.392     3802.101     1774.526        1.800        0.633      151.105       44.342        0.086      337.293        9.167      866.785
01/18/2021  12:18:00       82.507     -217.308      -36.968       51.752       53.200       36.004     2678.305     2830.199     1296.315        3.110        0.340      232.444       30.140        0.017      337.273        9.133      866.739
01/18/2021  12:19:00       83.893     -158.958      -36.786       71.945       52.464       38.408     5176.112     2752.497     1475.143        2.153        0.470      179.738       25.952        0.021      337.319        9.212      866.712
01/18/2021  12:20:00       87.666     -147.791      -29.187       46.322       55.333       30.619     2145.763     3061.753      937.551        1.826        0.307      171.836       26.426        0.024      337.121        8.880      866.690
01/18/2021  12:21:00       99.574      -62.701      -31.687       61.298       58.495       29.127     3757.447     3421.696      848.408        1.144        0.401      117.670       32.228        0.075      337.438        9.413      866.667
01/18/2021  12:22:00      -30.016      -18.187      -21.877       43.743       37.519       20.279     1913.446     1407.704      411.254        0.272        0.187       35.096       22.634        0.416      337.740        9.918      866.644
01/18/2021  12:23:00      -34.499      -35.666        0.038       52.667       53.347       31.338     2773.849     2845.869      982.043        0.453        0.330       49.621       31.373        0.400      337.661        9.786      866.587
01/18/2021  12:24:00      -27.372      -41.601      -16.756       58.565       45.087       30.638     3429.801     2032.801      938.683        0.458        0.320       49.799       31.787        0.407      337.753        9.939      866.540
01/18/2021  12:25:00      109.260      -95.919      -36.790       74.304       69.551       38.824     5521.096     4837.300     1507.314        1.718        0.593      145.390       48.463        0.111      337.340        9.246      866.505
01/18/2021  12:26:00       94.361     -136.279      -35.654       41.813       65.541       32.674     1748.312     4295.594     1067.575        1.793        0.356      165.759       24.674        0.022      337.167        8.956      866.504
01/18/2021  12:27:00       33.584      -23.916      -21.542       70.614       69.235       27.897     4986.379     4793.428      778.268        0.636        0.528       41.229       23.812        0.334      337.251        9.100      866.516
01/18/2021  12:28:00       66.583      -40.229      -13.297       57.216       65.889       32.029     3273.641     4341.411     1025.889        0.743        0.432       77.793       36.211        0.217      337.575        9.640      866.532
01/18/2021  12:29:00       21.594       -1.875        2.593       58.148       50.442       38.670     3381.227     2544.402     1495.382        0.395        0.371       21.676       30.877        2.029      337.861       10.120      866.539
01/18/2021  12:30:00       71.285       25.705      -21.997       55.982       66.142       30.591     3133.985     4374.738      935.824        0.733        0.422       75.778       24.237        0.102      337.755        9.943      866.532
01/18/2021  12:31:00       64.199      -58.335        1.520       98.717       81.681       59.592     9745.073     6671.846     3551.151        1.374        0.998       86.744       54.663        0.397      337.551        9.600      866.503
01/18/2021  12:32:00       88.362      -16.370        1.278      117.306       91.041       67.632    13760.798     8288.461     4574.140        1.734        1.331       89.865       65.581        0.533      337.510        9.532      866.455
01/18/2021  12:33:00       89.197      -48.978      -14.044       93.446       83.688       58.291     8732.227     7003.700     3397.791        1.484        0.957      101.759       60.029        0.348      337.382        9.318      866.400
01/18/2021  12:34:00      226.710       21.083      -28.391      144.606      103.210       57.100    20911.027    10652.348     3260.461        4.373        1.741      227.689       61.068        0.072      337.198        9.009      866.355
01/18/2021  12:35:00       98.373       24.094       -9.097       71.517       67.099       42.599     5114.740     4502.278     1814.689        1.088        0.572      101.280       35.184        0.121      337.377        9.309      866.359
01/18/2021  12:36:00       89.771      -26.381      -27.631       67.910       90.969       43.500     4611.709     8275.403     1892.258        1.215        0.739       93.568       38.261        0.167      337.368        9.296      866.366
01/18/2021  12:37:00      159.426       48.172      -18.831       55.526       44.665       26.810     3083.104     1994.921      718.749        1.694        0.290      166.544       22.078        0.018      337.162        8.949      866.399
01/18/2021  12:38:00      121.667       51.463      -12.346       56.985       35.070       25.844     3247.306     1229.936      667.935        1.137        0.257      132.104       23.913        0.033      337.209        9.028      866.429
01/18/2021  12:39:00       69.848       77.680       -3.722       65.327       39.324       28.507     4267.604     1546.410      812.636        0.878        0.331      104.465       19.226        0.034      337.312        9.201      866.432
01/18/2021  12:40:00       18.332        8.064       -8.514       38.734       56.517       21.224     1500.326     3194.136      450.461        0.281        0.257       20.027       21.318        1.133      337.717        9.880      866.402
01/18/2021  12:41:00       23.188      -10.624        3.874       41.225       32.513       28.968     1699.525     1057.097      839.144        0.213        0.180       25.506       19.425        0.580      337.746        9.927      866.364
01/18/2021  12:42:00      -13.576      -14.039      -13.672       50.410       70.873       31.809     2541.215     5022.986     1011.806        0.457        0.429       19.530       31.100        2.536      338.038       10.419      866.333
01/18/2021  12:43:00       45.413      -33.113      -10.890       52.989       74.145       36.936     2807.826     5497.419     1364.255        0.647        0.483       56.203       27.654        0.242      337.802       10.021      866.327
01/18/2021  12:44:00       71.050      -30.000      -22.153       80.549       84.124       56.045     6488.137     7076.848     3140.991        1.157        0.835       77.124       33.739        0.191      337.611        9.702      866.309
01/18/2021  12:45:00      118.426        8.023      -28.210       80.984       84.333       49.633     6558.421     7112.132     2463.400        1.551        0.807      118.697       41.750        0.124      337.636        9.743      866.291
01/18/2021  12:46:00      127.098       90.670      -17.313       70.957       60.584       37.179     5034.874     3670.458     1382.264        1.738        0.504      156.125       32.237        0.043      337.315        9.204      866.289
01/18/2021  12:47:00       92.950        5.359      -26.084       84.904       77.299       37.786     7208.683     5975.109     1427.754        1.198        0.731       93.105       21.564        0.054      337.612        9.705      866.275
01/18/2021  12:48:00      132.422       32.852      -23.076       74.200       68.684       37.617     5505.677     4717.485     1415.007        1.539        0.582      136.436       28.475        0.044      337.337        9.242      866.290
01/18/2021  12:49:00       37.589      -21.702      -11.029       57.895       65.777       27.644     3351.878     4326.590      764.217        0.522        0.422       43.404       23.154        0.285      337.569        9.631      866.279
01/18/2021  12:50:00        4.450       20.212        0.148       40.781       43.213       22.830     1663.101     1867.321      521.201        0.224        0.203       20.696       19.924        0.927      337.470        9.465      866.232
01/18/2021  12:51:00       20.906       46.818      -13.845       34.897       25.665       18.175     1217.805      658.695      330.332        0.251        0.110       51.274       15.137        0.087      337.571        9.634      866.174
01/18/2021  12:52:00       -5.274       18.132      -11.271       35.373       31.508       20.095     1251.219      992.745      403.825        0.157        0.132       18.883       23.608        1.563      337.543        9.588      866.126
01/18/2021  12:53:00      -24.472       34.170      -11.261       38.983       27.456       21.221     1519.637      753.838      450.347        0.231        0.136       42.029       17.783        0.179      337.740        9.918      866.099
01/18/2021  12:54:00       11.604       44.256       -5.070       38.454       28.070       26.174     1478.691      787.937      685.063        0.253        0.148       45.752       21.835        0.228      337.830       10.068      866.098
01/18/2021  12:55:00       11.537       23.659      -14.920       42.425       45.682       26.239     1799.921     2086.870      688.510        0.274        0.229       26.322       20.315        0.596      337.874       10.144      866.094
01/18/2021  12:56:00       36.329      -74.228      -22.207       73.603       60.940       36.753     5417.400     3713.717     1350.803        0.890        0.524       82.642       34.909        0.178      337.892       10.172      866.070
01/18/2021  12:57:00      133.974     -143.417      -54.734       91.446       59.592       23.938     8362.432     3551.209      573.043        2.700        0.624      196.258       29.933        0.023      337.422        9.382      866.026
01/18/2021  12:58:00      110.865      -79.128      -31.168       52.903       67.901       29.868     2798.726     4610.602      892.111        1.391        0.415      136.207       31.987        0.055      337.402        9.352      865.987
01/18/2021  12:59:00       29.459      -52.286      -10.941       36.535       26.704       28.211     1334.840      713.114      795.845        0.328        0.142       60.014       25.404        0.179      337.352        9.268      865.952
01/18/2021  13:00:00        7.765      -25.066       -4.501       46.996       73.876       29.555     2208.579     5457.703      873.511        0.462        0.427       26.241       30.535        1.354      337.685        9.827      865.904
01/18/2021  13:01:00      117.504      -38.400      -22.912       82.705       81.239       45.236     6840.106     6599.844     2046.306        1.564        0.774      123.619       38.413        0.097      337.511        9.534      865.856
01/18/2021  13:02:00       98.103      -26.445      -21.838       79.553       86.123       46.573     6328.702     7417.238     2169.053        1.335        0.796      101.605       38.555        0.144      337.663        9.790      865.839
01/18/2021  13:03:00      133.374       19.261      -17.321       64.235       70.857       39.119     4126.088     5020.681     1530.267        1.457        0.534      134.757       33.461        0.062      337.585        9.657      865.837
01/18/2021  13:04:00      262.627       89.991      -19.399       98.237       72.662       39.881     9650.510     5279.791     1590.533        4.698        0.826      277.617       30.198        0.012      337.386        9.322      865.851
01/18/2021  13:05:00      207.708      105.798      -22.490      104.328       74.488       39.607    10884.325     5548.514     1568.698        3.642        0.900      233.100       36.667        0.025      337.492        9.500      865.875
01/18/2021  13:06:00      158.067      123.314      -20.039       65.375       44.060       37.898     4273.835     1941.321     1436.265        2.412        0.383      200.478       35.253        0.031      337.447        9.424      865.889
01/18/2021  13:07:00      179.838      127.789      -26.133       57.407       50.057       32.897     3295.538     2505.713     1082.244        2.812        0.344      220.617       28.379        0.017      337.548        9.593      865.858
01/18/2021  13:08:00      136.340      149.239      -23.500       47.266       54.841       37.923     2234.065     3007.581     1438.186        2.405        0.334      202.141       32.470        0.026      337.274        9.135      865.831
01/18/2021  13:09:00      119.539      104.744      -15.414       69.458       54.399       30.896     4824.386     2959.273      954.570        1.712        0.437      158.936       27.977        0.031      337.472        9.467      865.816
01/18/2021  13:10:00       49.600       43.145      -13.091       40.328       49.483       28.882     1626.333     2448.614      834.145        0.470        0.245       65.740       19.790        0.091      337.669        9.800      865.790
01/18/2021  13:11:00       11.591      -61.437      -29.013       46.216       44.635       23.067     2135.945     1992.319      532.100        0.470        0.233       62.521       19.430        0.097      338.046       10.431      865.739
01/18/2021  13:12:00       20.898       -8.433      -12.875       36.390       60.434       24.515     1324.262     3652.305      600.973        0.312        0.279       22.536       17.207        0.583      337.835       10.079      865.708
01/18/2021  13:13:00       58.457        7.976      -19.133       45.497       51.351       33.003     2070.000     2636.874     1089.231        0.482        0.290       58.999       27.568        0.218      337.900       10.187      865.704
01/18/2021  13:14:00       75.114      -27.618      -17.555       55.349       93.777       29.207     3063.528     8794.054      853.044        0.971        0.636       80.031       26.203        0.107      337.726        9.895      865.690
01/18/2021  13:15:00       23.038       44.650        1.099       51.317       41.170       23.775     2633.471     1694.934      565.248        0.371        0.245       50.243       18.422        0.134      338.025       10.397      865.674
01/18/2021  13:16:00      117.062       45.131       -0.393       83.721       79.731       36.821     7009.284     6357.081     1355.768        1.523        0.736      125.460       40.414        0.104      337.805       10.027      865.655
01/18/2021  13:17:00      102.110       52.856      -14.952       55.108       72.594       34.236     3036.843     5269.820     1172.092        1.146        0.474      114.979       27.833        0.059      337.737        9.913      865.633
01/18/2021  13:18:00      127.058       69.575      -23.262       52.573       64.056       30.131     2763.953     4103.197      907.861        1.465        0.389      144.859       26.824        0.034      337.512        9.536      865.607
01/18/2021  13:19:00       62.559       69.896      -11.758       37.458       29.483       26.668     1403.136      869.238      711.164        0.596        0.149       93.804       25.273        0.073      337.408        9.361      865.587
01/18/2021  13:20:00      135.862       76.888      -15.520       64.812       44.975       32.597     4200.590     2022.709     1062.581        1.595        0.364      156.110       25.881        0.027      337.571        9.634      865.554
01/18/2021  13:21:00       46.759       78.318       -1.904       44.311       45.694       28.788     1963.494     2087.983      828.777        0.660        0.244       91.215       18.348        0.040      337.866       10.130      865.537
01/18/2021  13:22:00      237.147      128.387      -19.621      101.677       56.093       36.568    10338.165     3146.405     1337.242        4.396        0.741      269.670       30.504        0.013      337.471        9.464      865.526
01/18/2021  13:23:00       92.392      -25.017      -32.568       65.020       88.422       34.449     4227.645     7818.390     1186.739        1.172        0.662       95.719       39.745        0.172      337.671        9.804      865.527
01/18/2021  13:24:00      113.740      -63.081      -44.863       81.467       94.338       52.761     6636.838     8899.646     2783.687        1.862        0.916      130.062       42.645        0.108      337.575        9.638      865.517
01/18/2021  13:25:00       12.003      -44.451       -4.759       43.948       66.825       31.117     1931.417     4465.625      968.279        0.475        0.368       46.043       25.067        0.296      337.779        9.984      865.507
01/18/2021  13:26:00      100.156      -10.092      -24.891       49.156       91.067       32.360     2416.276     8293.237     1047.181        1.125        0.588      100.663       23.064        0.052      337.466        9.461      865.474
01/18/2021  13:27:00      195.903       64.801      -27.486       52.195       57.218       29.031     2724.368     3273.876      842.775        2.509        0.342      206.343       27.893        0.018      337.413        9.367      865.478
01/18/2021  13:28:00      107.439       59.905      -23.425       51.286       38.458       14.426     2630.203     1479.006      208.104        1.000        0.216      123.011       14.581        0.014      337.249        9.095      865.490
01/18/2021  13:29:00       64.468      -36.844      -18.166       86.888       86.112       68.711     7549.582     7415.316     4721.210        1.276        0.984       74.254       55.412        0.557      337.563        9.622      865.459
01/18/2021  13:30:00      187.816      103.331      -19.218      113.513       90.059       43.850    12885.284     8110.545     1922.836        3.461        1.146      214.364       32.780        0.023      337.570        9.631      865.470
01/18/2021  13:31:00      168.337      187.785      -30.697       66.069       43.796       33.743     4365.054     1918.053     1138.567        3.598        0.371      252.192       24.419        0.009      337.332        9.230      865.458
01/18/2021  13:32:00      139.684       39.496      -19.917       97.885      111.110       41.841     9581.538    12345.408     1750.706        2.257        1.184      145.161       36.030        0.062      337.733        9.905      865.390
01/18/2021  13:33:00      119.492      -27.839      -15.028      127.583       90.328       68.569    16277.298     8159.059     4701.641        2.220        1.457      122.692       58.146        0.225      337.598        9.679      865.327
01/18/2021  13:34:00      207.473       60.602      -19.667      137.429       93.977       54.502    18886.859     8831.729     2970.445        3.889        1.534      216.142       42.493        0.039      337.597        9.676      865.361
01/18/2021  13:35:00      297.471      137.375      -26.897       77.916       79.880       41.631     6070.978     6380.821     1733.145        6.113        0.709      327.660       26.860        0.007      337.516        9.538      865.403
01/18/2021  13:36:00      125.249       79.522      -10.727       71.285       91.298       42.599     5081.552     8335.299     1814.667        1.868        0.762      148.361       22.485        0.023      337.714        9.873      865.392
01/18/2021  13:37:00       89.694      -15.083      -13.186       90.138      114.434       63.000     8124.781    13095.154     3969.001        1.681        1.259       90.953       52.227        0.330      337.809       10.034      865.357
01/18/2021  13:38:00       94.745      -61.950      -11.554       87.866      125.297       63.876     7720.512    15699.231     4080.158        2.022        1.375      113.201       61.617        0.296      337.689        9.830      865.335
01/18/2021  13:39:00      151.582      -26.218      -17.504      114.968       71.061       47.155    13217.625     5049.621     2223.560        2.223        1.025      153.832       42.111        0.075      337.493        9.502      865.324
01/18/2021  13:40:00       85.583       16.161      -20.801       93.636      104.083       45.101     8767.659    10833.336     2034.131        1.482        1.082       87.095       36.443        0.175      337.676        9.809      865.280
01/18/2021  13:41:00      200.965       70.722      -24.448       64.969       71.568       39.969     4220.953     5121.908     1597.522        2.846        0.547      213.046       28.082        0.017      337.390        9.329      865.237
01/18/2021  13:42:00      189.601       62.744      -17.784       87.166       62.120       36.809     7597.996     3858.879     1354.912        2.650        0.641      199.713       37.470        0.035      337.415        9.372      865.214
01/18/2021  13:43:00      186.089       25.558      -11.351       80.277       84.211       41.477     6444.419     7091.544     1720.312        2.533        0.763      187.836       38.442        0.042      337.542        9.584      865.228
01/18/2021  13:44:00      175.280       25.324      -30.363       88.283      102.893       43.427     7793.953    10586.990     1885.930        2.627        1.013      177.100       25.937        0.021      337.558        9.610      865.239
01/18/2021  13:45:00      170.364       40.195      -16.608       90.508       69.229       53.400     8191.748     4792.646     2851.602        2.337        0.792      175.042       52.784        0.091      337.629        9.731      865.245
01/18/2021  13:46:00      174.699       92.681      -22.946       47.975       44.203       26.622     2301.623     1953.925      708.707        2.230        0.248      197.761       17.476        0.008      337.330        9.230      865.240
01/18/2021  13:47:00       73.576       12.779      -16.845       51.463       47.239       21.608     2648.417     2231.527      466.900        0.560        0.267       74.677       22.894        0.094      337.353        9.270      865.222
01/18/2021  13:48:00       25.038        2.349       -0.363       43.722       66.148       27.501     1911.571     4375.551      756.287        0.384        0.352       25.148       19.766        0.618      337.524        9.556      865.208
01/18/2021  13:49:00      161.439      -72.952      -22.550       70.743       76.737       50.984     5004.538     5888.521     2599.350        2.269        0.675      177.156       51.209        0.084      337.355        9.269      865.180
01/18/2021  13:50:00       86.608      -82.825      -17.866       59.187       87.860       42.045     3503.050     7719.300     1767.807        1.383        0.650      119.837       38.454        0.103      337.579        9.648      865.156
01/18/2021  13:51:00      137.070     -129.741      -40.198       80.159       87.197       34.212     6425.445     7603.371     1170.489        2.621        0.760      188.735       54.086        0.082      337.429        9.395      865.120
01/18/2021  13:52:00       50.352      -24.255       -6.339       85.727       64.816       40.937     7349.037     4201.126     1675.851        0.819        0.661       55.889       36.271        0.421      337.583        9.655      865.087
01/18/2021  13:53:00      134.782      -20.574      -16.910       89.199       90.687       57.398     7956.438     8224.053     3294.497        1.917        0.974      136.343       48.653        0.127      337.570        9.632      865.046
01/18/2021  13:54:00      123.937      -36.854       -3.562      124.179       78.993       68.191    15420.456     6239.912     4649.972        2.152        1.316      129.300       63.834        0.244      337.593        9.671      865.014
01/18/2021  13:55:00      170.423       83.512      -18.836       87.472       99.921       48.894     7651.406     9984.107     2390.645        2.820        1.001      189.784       37.539        0.039      337.561        9.616      865.020
01/18/2021  13:56:00      161.425       32.431      -15.667       64.074       54.362       39.990     4105.519     2955.186     1599.177        1.801        0.433      164.651       32.055        0.038      337.714        9.875      865.021
01/18/2021  13:57:00       86.794       53.533      -10.319       75.242       67.220       38.203     5661.404     4518.573     1459.457        1.107        0.582      101.975       32.230        0.100      337.851       10.105      865.022
01/18/2021  13:58:00       17.552        2.782        1.715       58.786       77.545       42.927     3455.789     6013.161     1842.686        0.581        0.566       17.771       28.940        2.652      337.858       10.115      865.011
01/18/2021  13:59:00       72.911      -45.229      -10.318       99.338       97.294       55.692     9868.044     9466.213     3101.610        1.495        1.122       85.800       58.466        0.464      337.686        9.827      864.960
01/18/2021  14:00:00      178.329       56.770      -28.093       50.726       41.108       20.984     2573.149     1689.829      440.318        2.026        0.235      187.147       21.478        0.013      337.286        9.156      864.981
01/18/2021  14:01:00       83.317      -11.100       -9.788       67.669      112.093       36.031     4579.103    12564.814     1298.261        1.280        0.922       84.053       41.685        0.246      337.703        9.856      864.968
01/18/2021  14:02:00       97.708      -25.798      -18.569      101.231       71.166       36.986    10247.731     5064.544     1367.971        1.362        0.834      101.056       29.383        0.085      337.670        9.799      864.958
01/18/2021  14:03:00      119.253       10.135      -20.048       81.796       78.459       44.504     6690.631     6155.829     1980.624        1.477        0.741      119.683       37.988        0.101      337.655        9.775      864.956
01/18/2021  14:04:00       98.230      -54.813      -13.142       94.154       77.163       52.531     8864.899     5954.057     2759.557        1.520        0.879      112.488       42.692        0.144      337.588        9.662      864.937
01/18/2021  14:05:00      105.883       30.290      -26.249       60.633       95.728       40.455     3676.395     9163.829     1636.624        1.364        0.724      110.131       29.068        0.070      337.685        9.824      864.952
01/18/2021  14:06:00      153.149        8.639      -19.216      131.858      102.013       47.138    17386.623    10406.656     2222.015        2.695        1.501      153.393       36.782        0.057      337.723        9.889      864.941
01/18/2021  14:07:00      296.600       82.363      -26.013       97.814       69.029       46.535     9567.649     4764.983     2165.524        5.596        0.825      307.823       33.380        0.012      337.510        9.528      864.944
01/18/2021  14:08:00      204.369       52.912      -13.718       53.153       42.224       28.451     2825.245     1782.908      809.471        2.508        0.271      211.107       16.291        0.006      337.352        9.266      864.948
01/18/2021  14:09:00      101.320       11.306      -20.585       67.638       82.419       38.407     4574.891     6792.928     1475.101        1.183        0.642      101.949       21.123        0.043      337.700        9.850      864.930
01/18/2021  14:10:00       96.445       -3.105      -29.334       65.317       88.726       43.392     4266.279     7872.348     1882.832        1.209        0.701       96.495       28.048        0.084      337.641        9.752      864.918
01/18/2021  14:11:00      135.898       20.010      -14.933       93.699       73.523       40.434     8779.558     5405.642     1634.931        1.745        0.791      137.364       34.917        0.065      337.723        9.888      864.922
01/18/2021  14:12:00      147.205       19.620      -17.306       87.724       71.046       45.005     7695.473     5047.604     2025.414        1.856        0.738      148.507       22.402        0.023      337.749        9.931      864.912
01/18/2021  14:13:00      112.165       -3.538      -41.591       81.628      102.965       52.641     6663.147    10601.862     2771.096        1.718        1.002      112.221       34.697        0.096      337.719        9.883      864.917
01/18/2021  14:14:00      115.918       39.787      -27.098       58.101       99.420       32.133     3375.729     9884.287     1032.523        1.502        0.715      122.556       31.103        0.064      337.579        9.648      864.915
01/18/2021  14:15:00       57.519       36.537      -11.583       46.224       79.619       36.625     2136.623     6339.159     1341.397        0.730        0.491       68.142       33.333        0.239      337.534        9.574      864.924
01/18/2021  14:16:00       62.850      -87.365      -32.030       53.199       35.722       28.763     2830.136     1276.072      827.303        0.877        0.247      107.623       21.262        0.039      337.373        9.303      864.916
01/18/2021  14:17:00       48.909      -27.539      -17.660       71.438       77.766       43.435     5103.400     6047.499     1886.577        0.825        0.652       56.129       43.577        0.603      337.698        9.848      864.911
01/18/2021  14:18:00       30.248      -38.862       -8.670       41.996       43.919       24.278     1763.639     1928.908      589.409        0.339        0.214       49.246       19.378        0.155      337.672        9.804      864.893
01/18/2021  14:19:00       48.436       10.117      -14.185       58.819       71.798       23.224     3459.730     5154.968      539.368        0.590        0.458       49.482       17.660        0.127      337.800       10.019      864.874
01/18/2021  14:20:00      125.584       41.156      -14.310       96.473       71.672       26.320     9306.968     5136.938      692.745        1.640        0.757      132.156       34.349        0.068      337.699        9.848      864.836
01/18/2021  14:21:00       36.003       -2.226      -17.343       48.616       65.345       32.882     2363.517     4270.012     1081.243        0.466        0.386       36.072       27.883        0.598      337.917       10.214      864.819
01/18/2021  14:22:00      166.347      -30.904      -20.140      118.451       94.839       61.531    14030.536     8994.474     3786.109        2.792        1.341      169.193       56.428        0.111      337.804       10.022      864.794
01/18/2021  14:23:00      151.324       -2.258      -10.267      129.669      102.140       81.290    16814.051    10432.587     6608.140        2.842        1.693      151.341       70.972        0.220      337.768        9.963      864.775
01/18/2021  14:24:00      127.299       -2.784      -14.743      110.989       92.490       61.587    12318.480     8554.424     3792.962        2.054        1.233      127.330       44.674        0.123      337.714        9.873      864.775
01/18/2021  14:25:00      119.483       13.580      -26.057      104.761       86.423       53.553    10974.905     7468.922     2867.908        1.822        1.066      120.252       40.608        0.114      337.717        9.878      864.758
01/18/2021  14:26:00      216.925       30.353       -1.666      106.404       80.865       56.170    11321.855     6539.103     3155.031        3.449        1.051      219.039       53.416        0.059      337.513        9.533      864.724
01/18/2021  14:27:00      105.703       -5.702      -14.371      123.112      117.684       65.063    15156.609    13849.416     4233.132        2.232        1.662      105.856       62.061        0.344      337.586        9.659      864.686
01/18/2021  14:28:00      207.138       82.434      -21.491       59.735       58.121       39.522     3568.321     3378.004     1561.993        2.933        0.425      222.938       31.872        0.020      337.488        9.493      864.692
01/18/2021  14:29:00      157.317       32.878      -19.287       77.015       55.288       36.249     5931.253     3056.809     1313.975        1.825        0.515      160.715       28.527        0.032      337.423        9.386      864.672
01/18/2021  14:30:00      237.885       72.670      -29.053       94.624       88.146       44.114     8953.780     7769.742     1946.046        4.069        0.933      248.737       18.396        0.005      337.542        9.584      864.649
01/18/2021  14:31:00      136.590      -57.846      -21.270       68.228       83.504       39.132     4655.072     6972.868     1531.306        1.780        0.658      148.334       26.562        0.032      337.557        9.611      864.620
01/18/2021  14:32:00       96.052      -18.581      -12.581       76.681       67.234       42.451     5879.907     4520.410     1802.056        1.096        0.610       97.833       38.238        0.153      337.635        9.741      864.589
01/18/2021  14:33:00      136.475     -110.041      -25.653       88.069       90.116       53.914     7756.140     8120.902     2906.689        2.508        0.939      175.313       56.101        0.102      337.695        9.842      864.567
01/18/2021  14:34:00       77.802      -34.520      -22.299       82.043       89.347       57.252     6731.061     7982.899     3277.811        1.286        0.900       85.117       43.777        0.265      337.732        9.904      864.562
01/18/2021  14:35:00       31.360      -40.799      -40.106       63.989       91.405       37.943     4094.628     8354.797     1439.690        0.907        0.694       51.459       26.475        0.265      337.807       10.031      864.537
01/18/2021  14:36:00       18.457       33.079       -3.201       62.054       60.785       34.896     3850.741     3694.830     1217.709        0.510        0.438       37.880       21.738        0.329      338.047       10.432      864.548
01/18/2021  14:37:00      186.383       89.065      -22.669       94.846       84.632       43.217     8995.777     7162.623     1867.748        3.060        0.901      206.570       38.680        0.035      337.886       10.161      864.542
01/18/2021  14:38:00      170.782       86.606      -12.154       85.459       96.557       46.196     7303.238     9323.166     2134.048        2.778        0.938      191.487       38.655        0.041      337.889       10.165      864.515
01/18/2021  14:39:00      173.601      117.931      -10.375       94.888       68.007       38.436     9003.800     4624.971     1477.298        2.963        0.755      209.869       36.721        0.031      337.791       10.001      864.520
01/18/2021  14:40:00       96.257       47.303      -19.284       85.393       72.351       39.181     7291.940     5234.613     1535.167        1.297        0.703      107.252       32.895        0.094      337.859       10.117      864.495
01/18/2021  14:41:00      114.865       26.843      -25.733      103.753       91.102       40.140    10764.697     8299.617     1611.247        1.762        1.034      117.960       21.428        0.033      337.631        9.733      864.472
01/18/2021  14:42:00       77.723      -52.869      -20.811       56.506       69.200       44.043     3192.959     4788.686     1939.789        0.959        0.496       94.000       30.909        0.108      337.553        9.604      864.471
01/18/2021  14:43:00      104.255      -64.422      -24.154       66.935       59.083       39.195     4480.316     3490.810     1536.232        1.255        0.475      122.553       40.752        0.111      337.555        9.607      864.463
01/18/2021  14:44:00      -14.705       24.630      -12.601       42.101       39.681       29.929     1772.489     1574.559      895.732        0.261        0.212       28.686       24.030        0.702      337.840       10.086      864.451
01/18/2021  14:45:00        2.922      -24.323      -12.900       32.873       48.759       22.424     1080.651     2377.424      502.846        0.236        0.198       24.498       14.645        0.357      337.957       10.282      864.427
01/18/2021  14:46:00      179.501       80.371      -22.249       82.201       51.617       33.918     6756.951     2664.343     1150.432        2.487        0.529      196.672       28.671        0.021      337.745        9.923      864.395
01/18/2021  14:47:00      132.806       58.723       -4.308      100.972       91.388       53.226    10195.296     8351.764     2833.031        2.124        1.069      145.210       42.413        0.085      337.726        9.893      864.363
01/18/2021  14:48:00      210.772      117.057      -22.826       77.177       61.361       41.103     5956.297     3765.137     1689.488        3.503        0.571      241.096       39.510        0.027      337.656        9.774      864.351
01/18/2021  14:49:00      129.388      223.918      -21.950      114.501      108.728       53.030    13110.395    11821.804     2812.157        4.755        1.387      258.613       54.139        0.044      337.822       10.053      864.339
01/18/2021  14:50:00      158.988      158.949      -10.156       85.691       54.562       44.814     7342.991     2976.971     2008.329        3.148        0.616      224.815       35.139        0.024      337.678        9.810      864.336
01/18/2021  14:51:00      136.926      181.596      -24.195       67.964       64.882       30.139     4619.165     4209.698      908.333        3.102        0.487      227.433       35.022        0.024      337.650        9.763      864.325
01/18/2021  14:52:00      129.640       75.450      -14.588       57.679       42.805       24.564     3326.901     1832.240      603.381        1.424        0.288      149.997       10.506        0.005      337.706        9.860      864.290
01/18/2021  14:53:00       80.799       70.744      -15.700       48.812       35.211       25.810     2382.598     1239.821      666.157        0.803        0.214      107.392       18.709        0.030      337.786        9.995      864.268
01/18/2021  14:54:00       27.884       71.909       -4.133       30.109       31.328       23.633      906.522      981.416      558.542        0.421        0.122       77.126       18.265        0.056      337.888       10.166      864.251
01/18/2021  14:55:00      105.711      168.894      -12.924       81.329       73.206       43.497     6614.413     5359.116     1891.998        2.686        0.693      199.249       35.454        0.032      337.797       10.011      864.261
01/18/2021  14:56:00      157.096      201.967      -17.758       99.905       86.865       50.033     9980.972     7545.461     2503.331        4.290        1.001      255.870       39.194        0.023      337.640        9.747      864.264
01/18/2021  14:57:00      155.570      257.328      -28.144       75.997      127.367       50.756     5775.532    16222.374     2576.204        5.789        1.229      300.699       55.258        0.034      337.641        9.749      864.268
01/18/2021  14:58:00      189.345      217.441      -23.250       94.312       82.486       51.329     8894.659     6803.906     2634.642        5.100        0.917      288.326       46.045        0.026      337.631        9.732      864.280
01/18/2021  14:59:00      126.129      241.805      -16.775       99.308       81.834       43.983     9862.161     6696.776     1934.508        4.657        0.925      272.724       28.823        0.011      337.622        9.717      864.271
01/18/2021  15:00:00      260.562      100.338      -17.979      105.093       72.990       45.597    11044.439     5327.487     2079.056        4.836        0.923      279.214       41.600        0.022      337.546        9.590      864.241
01/18/2021  15:01:00      251.492       47.670      -27.126      115.391       84.041       48.165    13315.087     7062.822     2319.900        4.447        1.135      255.970       35.835        0.020      337.606        9.691      864.201
01/18/2021  15:02:00      168.042       61.096      -18.950       77.805       82.321       33.897     6053.612     6776.695     1149.007        2.315        0.699      178.804       21.909        0.015      337.680        9.816      864.189
01/18/2021  15:03:00      198.070      108.506      -18.839       87.088       82.743       42.726     7584.363     6846.417     1825.493        3.380        0.813      225.844       37.745        0.028      337.699        9.846      864.188
01/18/2021  15:04:00      190.385      154.829      -21.526       83.188       70.498       39.298     6920.161     4969.980     1544.322        3.706        0.672      245.395       38.861        0.025      337.581        9.649      864.193
01/18/2021  15:05:00      148.013      157.262      -19.244      102.273       94.686       38.862    10459.726     8965.365     1510.245        3.397        1.047      215.961       43.145        0.040      337.742        9.920      864.188
01/18/2021  15:06:00      192.914      151.539      -22.222       77.294       56.021       37.095     5974.388     3138.317     1376.030        3.558        0.524      245.316       36.806        0.023      337.523        9.550      864.211
01/18/2021  15:07:00      132.521       72.813      -16.011       38.620       50.527       25.686     1491.541     2552.987      659.786        1.391        0.235      151.207       17.101        0.013      337.483        9.487      864.186
01/18/2021  15:08:00      116.163       43.200       -9.253       40.375       46.359       27.564     1630.142     2149.169      759.763        0.999        0.227      123.936       18.567        0.022      337.508        9.528      864.171
01/18/2021  15:09:00      140.590       91.026      -18.805       59.463       32.151       23.295     3535.865     1033.713      542.677        1.676        0.256      167.485       14.555        0.008      337.577        9.644      864.160
01/18/2021  15:10:00      131.996       79.405      -22.354       41.511       33.281       23.432     1723.183     1107.627      549.072        1.380        0.169      154.039       15.541        0.010      337.719        9.883      864.159
01/18/2021  15:11:00      233.901       76.525      -22.022      105.884       90.365       48.172    11211.461     8165.860     2320.495        4.137        1.085      246.101       48.715        0.039      337.846       10.093      864.162
01/18/2021  15:12:00      120.832       30.071      -14.816       97.729       87.224       46.106     9550.910     7608.039     2125.719        1.750        0.964      124.518       40.378        0.105      337.753        9.938      864.173
01/18/2021  15:13:00      260.704       33.541        3.105      123.985       77.150       51.896    15372.381     5952.098     2693.238        4.655        1.201      262.853       53.840        0.042      337.745        9.922      864.181
01/18/2021  15:14:00      261.875      103.761      -33.875       64.923       85.846       40.454     4214.969     7369.519     1636.490        4.685        0.661      281.682       28.718        0.010      337.718        9.877      864.184
01/18/2021  15:15:00      280.346      102.375      -21.766      101.520       81.360       52.332    10306.238     6619.415     2738.663        5.460        0.983      298.453       40.226        0.018      337.677        9.810      864.182
01/18/2021  15:16:00      329.064      131.120      -22.836      105.524      112.373       51.173    11135.345    12627.707     2618.645        7.618        1.319      354.225       44.657        0.016      337.561        9.615      864.172
01/18/2021  15:17:00      211.542      118.912      -37.789      105.356       97.159       47.426    11099.869     9439.864     2249.205        4.155        1.139      242.672       31.123        0.016      337.689        9.831      864.171
01/18/2021  15:18:00      133.092       32.536       -7.868       84.164       98.928       50.991     7083.539     9786.778     2600.098        1.915        0.974      137.011       32.347        0.056      337.758        9.949      864.174
01/18/2021  15:19:00      281.474       84.806       -7.826      134.712      117.868       63.393    18147.224    13892.923     4018.713        6.126        1.803      293.973       63.162        0.046      337.778        9.978      864.185
01/18/2021  15:20:00      388.613      158.313      -34.791      106.003       69.383       49.586    11236.726     4813.974     2458.791        9.790        0.925      419.622       31.473        0.006      337.614        9.704      864.204
01/18/2021  15:21:00      274.218      189.580      -24.921      135.701       95.191       62.889    18414.650     9061.311     3955.035        7.159        1.572      333.371       54.287        0.027      337.605        9.688      864.208
01/18/2021  15:22:00      262.776      135.443      -26.434       84.616       83.306       40.413     7159.947     6939.886     1633.224        5.191        0.787      295.628       28.302        0.009      337.579        9.643      864.181
01/18/2021  15:23:00      255.392       49.510      -12.635      148.037       87.918       54.865    21914.915     7729.564     3010.206        5.024        1.633      260.147       46.580        0.032      337.722        9.886      864.164
01/18/2021  15:24:00      283.283       93.077      -38.402      142.464      120.355       58.338    20296.029    14485.326     3403.342        6.428        1.909      298.182       51.282        0.030      337.713        9.871      864.121
01/18/2021  15:25:00      321.230       95.342      -24.282      145.434       87.089       54.617    21151.108     7584.435     2983.031        7.229        1.586      335.080       59.327        0.031      337.771        9.967      864.122
01/18/2021  15:26:00      119.352      170.123      -14.209       78.252       91.768       45.552     6123.333     8421.441     2074.995        3.000        0.831      207.815       44.084        0.045      337.867       10.130      864.166
01/18/2021  15:27:00       48.268      283.037      -11.638       88.384      104.887       43.907     7811.670    11001.202     1927.790        5.165        1.037      287.124       44.339        0.024      337.880       10.150      864.171
01/18/2021  15:28:00      144.102      208.553      -24.186       94.108       82.565       33.950     8856.347     6817.019     1152.599        4.083        0.841      253.495       28.681        0.013      337.816       10.042      864.182
01/18/2021  15:29:00      254.465      246.716      -38.067      135.424       97.671       67.619    18339.754     9539.625     4572.362        7.975        1.623      354.431       59.022        0.028      337.631        9.731      864.192
01/18/2021  15:30:00      201.106      242.662      -27.474       81.863      102.693       47.806     6701.516    10545.780     2285.378        5.980        0.977      315.164       45.251        0.021      337.638        9.744      864.172
01/18/2021  15:31:00      189.309       64.041       -9.035       98.295       88.329       49.116     9661.858     7801.985     2412.398        2.994        0.994      199.848       33.238        0.028      337.669        9.797      864.166
01/18/2021  15:32:00      186.413      116.382      -35.626       97.589      110.132       46.444     9523.648    12129.015     2157.051        3.668        1.190      219.760       43.756        0.040      337.722        9.886      864.169
01/18/2021  15:33:00      387.359      184.391      -34.136      148.747      121.525       61.165    22125.615    14768.299     3741.170       11.291        2.032      429.007       59.307        0.019      337.523        9.550      864.174
01/18/2021  15:34:00      268.889      189.918      -33.507      113.684       86.708       50.151    12924.001     7518.216     2515.085        6.622        1.148      329.197       45.340        0.019      337.494        9.502      864.189
01/18/2021  15:35:00      146.342       61.358       -1.097       88.918       92.461       43.363     7906.479     8549.090     1880.350        2.176        0.917      158.685       38.143        0.058      337.609        9.697      864.190
01/18/2021  15:36:00      121.696       34.253       -1.933      105.992       89.575       40.529    11234.375     8023.709     1642.562        1.844        1.045      126.425       26.940        0.045      337.624        9.721      864.196
01/18/2021  15:37:00      200.398       98.856      -21.774      130.821       89.867       57.126    17114.165     8076.116     3263.351        3.942        1.423      223.455       43.121        0.037      337.530        9.563      864.190
01/18/2021  15:38:00      182.943      110.702      -22.416       98.773       84.947       47.432     9756.080     7216.001     2249.821        3.272        0.961      213.830       45.365        0.045      337.628        9.727      864.213
01/18/2021  15:39:00      117.392      142.817       -7.356       89.388       55.230       44.536     7990.234     3050.401     1983.434        2.363        0.651      184.872       41.763        0.051      337.631        9.736      864.230
01/18/2021  15:40:00       49.455      131.934       -2.918       90.789       63.856       38.546     8242.631     4077.574     1485.809        1.683        0.690      140.898       35.265        0.063      337.660        9.782      864.223
01/18/2021  15:41:00      106.920      155.278      -19.932      107.182       67.451       34.729    11487.920     4549.665     1206.071        2.659        0.862      188.529       28.505        0.023      337.653        9.770      864.223
01/18/2021  15:42:00       49.481       49.888        1.142       73.760       50.961       35.754     5440.592     2597.007     1278.364        0.713        0.466       70.265       12.958        0.034      337.689        9.832      864.222
01/18/2021  15:43:00       66.538      121.072       -9.488       65.008       63.212       35.414     4225.998     3995.786     1254.163        1.432        0.474      138.151       31.500        0.052      337.672        9.804      864.243
01/18/2021  15:44:00      117.663      262.882      -25.092       83.300      101.525       53.920     6938.926    10307.226     2907.360        5.186        1.008      288.013       46.873        0.026      337.564        9.619      864.265
01/18/2021  15:45:00      115.726      192.864      -14.278       73.305       87.100       41.072     5373.618     7586.432     1686.913        3.272        0.732      224.920       48.660        0.047      337.432        9.398      864.262
01/18/2021  15:46:00      151.219      194.711      -22.447       95.314       67.242       34.882     9084.798     4521.464     1216.723        3.805        0.741      246.535       32.402        0.017      337.488        9.492      864.231
01/18/2021  15:47:00       78.208      290.554      -29.262       83.262       81.202       46.261     6932.597     6593.725     2140.098        5.353        0.783      300.896       35.735        0.014      337.473        9.467      864.234
01/18/2021  15:48:00       17.158      241.214      -17.270      119.191      113.734       49.598    14206.512    12935.413     2459.981        4.418        1.480      241.824       59.264        0.060      337.639        9.746      864.220
01/18/2021  15:49:00       64.371      313.908      -26.338       77.884       77.453       35.601     6065.935     5999.014     1267.422        5.835        0.667      320.440       36.525        0.013      337.464        9.453      864.203
01/18/2021  15:50:00      118.072      384.342      -35.786       59.192       65.424       29.616     3503.665     4280.314      877.130        8.580        0.433      402.069       27.001        0.005      337.443        9.418      864.185
01/18/2021  15:51:00      127.044      246.884      -23.677       66.287      106.184       40.904     4394.008    11274.991     1673.130        4.749        0.867      277.655       30.206        0.012      337.445        9.419      864.176
01/18/2021  15:52:00       68.806      269.494      -37.904       94.479       87.279       44.499     8926.258     7617.655     1980.118        4.866        0.926      278.139       49.365        0.031      337.473        9.467      864.175
01/18/2021  15:53:00      132.280      144.000       -9.644       64.362       87.573       44.949     4142.450     7669.107     2020.388        2.608        0.692      195.535       35.565        0.033      337.464        9.454      864.170
01/18/2021  15:54:00       66.911      263.927      -24.099       62.685       85.276       29.504     3929.454     7272.061      870.474        4.339        0.604      272.277       31.250        0.013      337.582        9.650      864.176
01/18/2021  15:55:00       81.574      151.066      -11.578       67.467       67.127       33.882     4551.770     4506.019     1147.993        1.991        0.510      171.684       26.787        0.024      337.595        9.674      864.192
01/18/2021  15:56:00      104.654      316.709      -34.485       77.152       90.474       47.158     5952.469     8185.579     2223.891        6.440        0.818      333.552       47.233        0.020      337.445        9.421      864.197
01/18/2021  15:57:00      107.042      222.273      -26.163       64.335      100.858       43.469     4138.950    10172.321     1889.596        3.887        0.810      246.705       44.324        0.032      337.450        9.429      864.209
01/18/2021  15:58:00       58.324      270.819      -29.050      100.377       92.008       53.582    10075.528     8465.412     2871.001        4.950        1.071      277.028       56.438        0.042      337.574        9.637      864.213
01/18/2021  15:59:00       82.428      184.509      -21.558       91.917       71.582       37.343     8448.816     5123.928     1394.527        2.813        0.748      202.084       40.485        0.040      337.502        9.516      864.197
01/18/2021  16:00:00      106.144      192.279      -18.613       80.374       79.853       46.955     6459.934     6376.447     2204.754        3.181        0.752      219.632       45.751        0.043      337.462        9.450      864.186
01/18/2021  16:01:00      100.579      219.876      -21.793       57.446      122.689       44.576     3300.034    15052.537     1987.011        3.963        1.017      241.788       47.912        0.039      337.477        9.475      864.173
01/18/2021  16:02:00      142.807      234.431      -31.062       94.481       93.905       45.477     8926.633     8818.063     2068.160        4.806        0.991      274.503       45.542        0.028      337.384        9.318      864.185
01/18/2021  16:03:00      170.017      222.190      -30.109      185.128       95.934       63.710    34272.395     9203.362     4058.942        6.335        2.377      279.775       77.163        0.076      337.416        9.374      864.186
01/18/2021  16:04:00       57.015      240.325      -17.599       76.841       87.399       38.515     5904.481     7638.542     1483.384        3.817        0.751      246.995       41.777        0.029      337.363        9.283      864.193
01/18/2021  16:05:00      133.921      365.390      -28.166       85.685       86.600       49.477     7341.977     7499.561     2447.978        8.476        0.864      389.159       50.199        0.017      337.297        9.173      864.213
01/18/2021  16:06:00      141.403      205.665      -20.520       82.948       80.866       44.141     6880.413     6539.347     1948.439        3.904        0.768      249.586       41.016        0.027      337.341        9.246      864.227
01/18/2021  16:07:00      132.610      135.210      -16.860       89.794       73.125       44.159     8062.938     5347.336     1950.035        2.575        0.768      189.386       30.050        0.025      337.304        9.185      864.228
01/18/2021  16:08:00      153.829      243.064      -24.121       64.647      133.392       41.514     4179.271    17793.370     1723.431        5.351        1.185      287.652       40.757        0.020      337.260        9.112      864.227
01/18/2021  16:09:00      193.335      168.051      -27.927       86.521      106.627       41.827     7485.899    11369.214     1749.538        4.350        1.030      256.164       28.857        0.013      337.237        9.073      864.232
01/18/2021  16:10:00      251.357      234.343      -36.443      109.822       91.977       58.835    12060.821     8459.823     3461.593        7.170        1.199      343.653       45.046        0.017      337.220        9.044      864.241
01/18/2021  16:11:00      284.854      168.566      -38.966      116.922       92.165       47.925    13670.674     8494.318     2296.774        6.776        1.223      330.993       38.708        0.014      337.218        9.041      864.233
01/18/2021  16:12:00      156.217      129.576      -10.850      137.292       71.462       42.787    18849.018     5106.777     1830.720        3.354        1.289      202.962       40.938        0.041      337.284        9.152      864.229
01/18/2021  16:13:00      122.869      149.009      -18.626       76.171      140.567       40.868     5802.096    19759.004     1670.221        3.243        1.362      193.133       49.356        0.065      337.282        9.150      864.216
01/18/2021  16:14:00      181.803      264.846      -26.779      137.973      113.007       56.281    19036.521    12770.510     3167.573        6.944        1.749      321.241       60.736        0.036      337.208        9.025      864.189
01/18/2021  16:15:00      159.170      158.713      -15.444       85.849       73.834       53.376     7370.034     5451.497     2849.029        3.321        0.784      224.777       46.728        0.043      337.227        9.056      864.186
01/18/2021  16:16:00       88.826      176.594      -18.427       73.321      110.880       43.415     5375.941    12294.368     1884.843        2.948        0.978      197.675       50.238        0.065      337.214        9.036      864.177
01/18/2021  16:17:00      129.830      237.398      -26.917       96.808      100.745       40.759     9371.741    10149.621     1661.285        4.756        1.059      270.580       46.317        0.029      337.169        8.959      864.166
01/18/2021  16:18:00      166.334      262.288      -30.753       82.767       79.742       47.300     6850.434     6358.848     2237.302        5.642        0.772      310.584       36.646        0.014      337.118        8.870      864.152
01/18/2021  16:19:00      201.953      272.189      -37.493      128.274      111.906       59.306    16454.168    12523.015     3517.244        7.438        1.625      338.927       53.477        0.025      337.054        8.765      864.141
01/18/2021  16:20:00      176.132      221.144      -29.656      124.183       96.393       72.635    15421.396     9291.524     5275.915        5.539        1.499      282.714       68.764        0.059      337.004        8.683      864.134
01/18/2021  16:21:00      119.965      218.634      -27.961       83.296      122.722       43.973     6938.247    15060.573     1933.624        4.345        1.197      249.384       42.282        0.029      337.022        8.711      864.145
01/18/2021  16:22:00      174.811      197.322      -24.992      109.542       76.649       56.490    11999.413     5875.115     3191.120        4.559        1.053      263.618       55.120        0.044      337.002        8.678      864.163
01/18/2021  16:23:00      188.531      214.520      -36.088       96.559      105.622       46.706     9323.654    11156.090     2181.404        5.276        1.133      285.592       45.951        0.026      336.992        8.660      864.169
01/18/2021  16:24:00      157.374      254.914      -17.018      111.661      119.909       54.487    12468.254    14378.112     2968.834        5.992        1.491      299.579       48.424        0.026      336.953        8.597      864.175
01/18/2021  16:25:00       65.192      177.935      -23.409       61.125       94.052       49.281     3736.225     8845.730     2428.660        2.573        0.751      189.502       42.415        0.050      336.989        8.658      864.178
01/18/2021  16:26:00      183.191      338.150      -39.556       97.691      144.038       64.828     9543.625    20746.846     4202.702        9.197        1.725      384.584       56.199        0.021      336.915        8.534      864.183
01/18/2021  16:27:00      135.165      191.708       -2.575      140.571      103.811       66.185    19760.270    10776.823     4380.438        4.497        1.746      234.566       43.578        0.035      336.886        8.485      864.196
01/18/2021  16:28:00      198.553      257.957      -34.421      122.810      117.647       63.933    15082.345    13840.726     4087.472        7.007        1.651      325.522       57.748        0.031      336.837        8.404      864.199
01/18/2021  16:29:00      227.399      253.751      -45.117      120.038      100.977       61.127    14409.235    10196.343     3736.462        7.323        1.417      340.734       61.109        0.032      336.808        8.355      864.193
01/18/2021  16:30:00      226.149      282.164      -44.309      132.138      105.681       68.580    17460.391    11168.475     4703.240        8.302        1.667      361.607       52.204        0.021      336.773        8.296      864.197
01/18/2021  16:31:00      251.024      240.102      -34.107      140.908      102.540       66.684    19854.991    10514.547     4446.806        7.831        1.741      347.364       64.317        0.034      336.731        8.228      864.180
01/18/2021  16:32:00      196.369      192.128      -21.653       85.491       96.672       56.245     7308.664     9345.472     3163.472        4.788        0.991      274.726       46.842        0.029      336.711        8.195      864.178
01/18/2021  16:33:00      103.661      208.603      -17.119       80.807       88.796       52.149     6529.766     7884.706     2719.516        3.584        0.857      232.939       50.384        0.047      336.747        8.255      864.171
01/18/2021  16:34:00      169.549      196.829      -33.175       93.450       82.881       50.919     8732.939     6869.275     2592.792        4.339        0.910      259.785       39.584        0.023      336.712        8.196      864.158
01/18/2021  16:35:00      147.091      158.789       -9.265      122.350      102.411       61.240    14969.590    10487.975     3750.336        3.807        1.460      216.448       66.662        0.095      336.694        8.164      864.167
01/18/2021  16:36:00      165.541      224.772      -14.975      104.134      159.038       53.920    10843.846    25292.934     2907.359        5.859        1.952      279.153       62.883        0.051      336.676        8.136      864.175
01/18/2021  16:37:00      166.976      305.746      -22.672      115.616      119.081       71.452    13366.982    14180.252     5105.326        7.726        1.633      348.370       69.996        0.040      336.663        8.114      864.182
01/18/2021  16:38:00      133.872      280.163      -31.183       71.642      112.524       47.056     5132.613    12661.549     2214.293        5.869        1.000      310.505       47.106        0.023      336.666        8.119      864.180
01/18/2021  16:39:00      218.445      406.402      -59.389      103.709      113.845       64.786    10755.596    12960.668     4197.266       12.215        1.396      461.390       59.736        0.017      336.645        8.084      864.185
01/18/2021  16:40:00      181.346      286.305      -33.443       91.283      120.836       57.441     8332.617    14601.292     3299.507        7.110        1.312      338.906       51.897        0.023      336.620        8.042      864.190
01/18/2021  16:41:00      129.123      274.261      -19.132      101.062      123.447       54.335    10213.577    15239.059     2952.285        6.033        1.420      303.136       64.570        0.045      336.592        7.995      864.196
01/18/2021  16:42:00       88.585      295.187      -24.421       75.207      117.071       44.354     5656.142    13705.648     1967.314        5.845        1.066      308.193       42.934        0.019      336.559        7.941      864.211
01/18/2021  16:43:00      144.686      443.596      -35.042      122.162      151.836       67.151    14923.599    23054.092     4509.197       13.070        2.124      466.596       75.143        0.026      336.527        7.886      864.209
01/18/2021  16:44:00      154.938      283.737      -35.589      105.869      101.483       51.972    11208.213    10298.874     2701.061        6.499        1.210      323.284       49.870        0.024      336.508        7.853      864.205
01/18/2021  16:45:00       96.870      223.132       -0.779      105.562      116.070       63.960    11143.405    13472.203     4090.874        4.393        1.435      243.252       52.894        0.047      336.441        7.740      864.196
01/18/2021  16:46:00      186.697      299.640      -24.950      110.461      146.995       73.734    12201.669    21607.504     5436.756        8.225        1.962      353.044       64.112        0.033      336.441        7.740      864.213
01/18/2021  16:47:00      140.498      290.059      -30.572      102.738      112.514       59.250    10555.166    12659.456     3510.554        6.576        1.336      322.295       68.019        0.045      336.429        7.719      864.242
01/18/2021  16:48:00      114.178      213.312      -24.572       99.078       83.342       49.630     9816.517     6945.925     2463.174        3.918        0.961      241.947       45.621        0.036      336.412        7.691      864.268
01/18/2021  16:49:00      199.598      275.807      -22.340      136.510      130.390       74.389    18634.963    17001.516     5533.662        7.878        2.059      340.454       68.192        0.040      336.344        7.579      864.290
01/18/2021  16:50:00      102.374      213.268      -22.555       98.644      101.092       47.322     9730.626    10219.679     2239.388        3.933        1.109      236.566       35.086        0.022      336.364        7.613      864.312
01/18/2021  16:51:00      138.609      304.706      -31.249       89.989      116.264       58.694     8097.985    13517.362     3444.966        6.904        1.253      334.751       61.946        0.034      336.365        7.613      864.326
01/18/2021  16:52:00       71.201      314.849      -20.811      123.293      101.402       63.495    15201.196    10282.312     4031.642        6.707        1.476      322.799       47.241        0.021      336.365        7.613      864.352
01/18/2021  16:53:00      157.719      402.672      -39.183      140.566      132.655       66.043    19758.869    17597.250     4361.707       11.513        2.086      432.458       60.483        0.020      336.308        7.517      864.361
01/18/2021  16:54:00      159.335      266.225      -32.422       93.890      133.083       63.020     8815.263    17711.020     3971.549        6.390        1.525      310.263       65.450        0.045      336.287        7.483      864.359
01/18/2021  16:55:00      151.836      239.673      -22.485      143.789      142.616       78.571    20675.403    20339.409     6173.464        6.409        2.359      283.720       87.988        0.096      336.247        7.416      864.370
01/18/2021  16:56:00      203.909      277.208      -29.739      133.527      121.584       70.794    17829.396    14782.587     5011.826        7.846        1.881      344.126       66.537        0.037      336.223        7.376      864.380
01/18/2021  16:57:00      210.499      232.440      -14.086      141.684      105.332       79.329    20074.329    11094.734     6293.049        6.799        1.873      313.590       63.527        0.041      336.206        7.349      864.381
01/18/2021  16:58:00      239.888      314.549      -27.208      154.464      138.435       72.378    23859.192    19164.140     5238.581       10.273        2.413      395.585       66.937        0.029      336.186        7.316      864.385
01/18/2021  16:59:00      136.221      257.328      -15.983      112.496      114.305       72.333    12655.408    13065.530     5232.083        5.798        1.548      291.159       58.078        0.040      336.183        7.310      864.397
01/18/2021  17:00:00      156.167      340.337      -37.701       82.398      148.427       50.044     6789.506    22030.721     2504.435        8.647        1.566      374.456       34.056        0.008      336.159        7.270      864.410
01/18/2021  17:01:00      195.060      239.452      -21.016      154.892       99.050       73.850    23991.657     9810.829     5453.794        6.753        1.963      308.846       71.363        0.053      336.145        7.248      864.421
01/18/2021  17:02:00      129.933      316.736      -20.970      110.040      172.550       79.781    12108.882    29773.637     6365.078        8.294        2.412      342.351       79.084        0.053      336.144        7.245      864.431
01/18/2021  17:03:00      175.364      374.787      -32.702      140.326      145.514       80.986    19691.368    21174.251     6558.680       10.985        2.371      413.785       70.470        0.029      336.131        7.224      864.450
01/18/2021  17:04:00      220.670      358.499      -34.128      158.642      147.495       68.323    25167.149    21754.705     4668.082       11.497        2.579      420.971       79.827        0.036      336.135        7.230      864.477
01/18/2021  17:05:00      158.510      309.478      -16.773      145.406      172.918       76.618    21142.794    29900.518     5870.322        8.904        2.846      347.710       92.199        0.070      336.120        7.205      864.475
01/18/2021  17:06:00      264.414      330.536      -37.961      158.765      129.996       91.279    25206.410    16899.057     8331.903       11.551        2.522      423.284       89.512        0.045      336.127        7.215      864.472
01/18/2021  17:07:00      189.990      429.720      -31.979      124.884      196.819       86.262    15596.120    38737.661     7441.203       14.176        3.089      469.846       86.386        0.034      336.112        7.191      864.467
01/18/2021  17:08:00      110.750      261.580      -11.030      103.137      165.704       70.573    10637.224    27457.961     4980.587        6.193        2.154      284.059       73.771        0.067      336.088        7.153      864.483
01/18/2021  17:09:00      209.343      240.052      -25.767      159.564      100.674       66.527    25460.760    10135.159     4425.797        7.106        2.001      318.511       69.095        0.047      336.072        7.126      864.474
01/18/2021  17:10:00      211.386      235.174      -27.384      123.268      108.780       79.160    15194.992    11833.061     6266.262        6.701        1.665      316.214       70.912        0.050      336.048        7.085      864.460
01/18/2021  17:11:00      212.718      244.927      -26.886      102.671      103.599       61.984    10541.248    10732.682     3841.977        6.553        1.256      324.404       58.453        0.032      336.027        7.050      864.462
01/18/2021  17:12:00      239.962      227.182      -34.885      129.908      109.086       59.183    16876.132    11899.683     3502.645        7.134        1.614      330.445       65.140        0.039      336.028        7.051      864.436
01/18/2021  17:13:00      195.426      264.435      -19.216      131.988      103.374       74.423    17420.892    10686.172     5538.810        7.106        1.682      328.812       60.300        0.034      336.033        7.060      864.411
01/18/2021  17:14:00      224.227      235.684      -19.502      119.440       83.268       65.854    14265.862     6933.547     4336.778        6.587        1.277      325.307       54.307        0.028      336.036        7.064      864.372
01/18/2021  17:15:00      210.944      211.686      -25.756       96.629       79.705       56.335     9337.125     6352.940     3173.632        5.441        0.943      298.845       44.318        0.022      336.017        7.033      864.333
01/18/2021  17:16:00      150.924      198.771      -19.346      110.258       87.520       53.769    12156.810     7659.769     2891.060        4.268        1.135      249.575       55.541        0.050      335.979        6.970      864.325
01/18/2021  17:17:00      217.729      229.631      -24.863      133.720      102.024       63.830    17881.092    10408.972     4074.297        6.655        1.618      316.444       62.517        0.039      335.976        6.965      864.327
01/18/2021  17:18:00      186.649      269.867      -17.395      128.475      126.869       69.211    16505.894    16095.627     4790.104        7.267        1.870      328.125       58.965        0.032      336.012        7.025      864.345
01/18/2021  17:19:00      217.688      266.719      -33.888      124.529      155.328       63.753    15507.510    24126.798     4064.441        8.168        2.185      344.277       73.435        0.045      336.023        7.043      864.340
01/18/2021  17:20:00      179.219      188.186      -12.707      115.931       90.627       61.479    13439.976     8213.198     3779.709        4.656        1.272      259.872       55.878        0.046      335.997        6.999      864.322
01/18/2021  17:21:00      206.297      189.284      -24.241      132.091       80.000       60.958    17448.161     6399.987     3715.894        5.326        1.378      279.976       57.701        0.042      335.980        6.972      864.294
01/18/2021  17:22:00      267.443      161.164      -32.186       91.909       94.282       49.995     8447.223     8889.069     2499.456        5.918        0.992      312.249       44.542        0.020      335.936        6.899      864.259
01/18/2021  17:23:00      196.548      211.419      -22.466       87.397       80.245       48.047     7638.205     6439.250     2308.501        5.011        0.819      288.668       41.701        0.021      335.962        6.939      864.227
01/18/2021  17:24:00      172.015      170.593      -21.343       80.076       66.345       48.832     6412.120     4401.692     2384.605        3.617        0.660      242.262       35.728        0.022      335.907        6.850      864.199
01/18/2021  17:25:00      164.113      156.056      -16.326       82.464       65.416       37.310     6800.281     4279.202     1392.014        3.201        0.624      226.465       33.822        0.022      335.895        6.830      864.194
01/18/2021  17:26:00      154.390       99.343       -6.098       63.344       49.435       38.234     4012.525     2443.824     1461.814        2.083        0.396      183.590       19.857        0.012      335.835        6.731      864.174
01/18/2021  17:27:00      132.894      137.811       -8.694       78.872       54.608       50.905     6220.813     2982.034     2591.336        2.426        0.590      191.449       40.067        0.044      335.838        6.736      864.169
01/18/2021  17:28:00      138.289       93.198      -13.691       68.091       52.686       26.599     4636.406     2775.837      707.488        1.806        0.406      166.763       24.846        0.022      335.814        6.699      864.173
01/18/2021  17:29:00      140.036      130.911      -13.801       60.296       85.948       36.737     3635.656     7387.066     1349.590        2.465        0.619      191.697       31.242        0.027      335.759        6.604      864.188
01/18/2021  17:30:00      137.633      129.659      -10.714       96.336       75.809       35.783     9280.599     5747.034     1280.410        2.609        0.815      189.088       36.626        0.038      335.759        6.605      864.181
01/18/2021  17:31:00      140.854       79.826        0.059       99.512       68.448       41.824     9902.681     4685.194     1749.281        2.127        0.817      161.901       38.195        0.056      335.687        6.486      864.165
01/18/2021  17:32:00      222.978      162.283      -19.444      142.220       98.836       50.367    20226.482     9768.566     2536.859        5.448        1.627      275.781       63.846        0.054      335.754        6.596      864.159
01/18/2021  17:33:00      177.250      181.239      -20.093       91.421       64.316       51.712     8357.739     4136.609     2674.182        3.992        0.758      253.506       41.430        0.027      335.794        6.661      864.142
01/18/2021  17:34:00      188.757      138.240      -22.129       86.535       55.377       42.544     7488.286     3066.658     1809.983        3.379        0.618      233.965       30.571        0.017      335.723        6.543      864.144
01/18/2021  17:35:00      151.431      154.485      -19.209       75.983       70.818       54.795     5773.402     5015.123     3002.545        3.048        0.690      216.326       37.744        0.030      335.720        6.539      864.140
01/18/2021  17:36:00      163.066      173.567      -26.349       87.664       74.352       46.756     7684.920     5528.215     2186.133        3.640        0.770      238.151       46.332        0.038      335.745        6.580      864.126
01/18/2021  17:37:00      202.622      145.576      -23.465       97.116       87.518       54.215     9431.531     7659.476     2939.227        4.141        1.002      249.496       55.360        0.049      335.738        6.568      864.109
01/18/2021  17:38:00      161.111      110.087      -18.393       79.238       73.037       39.493     6278.627     5334.354     1559.695        2.579        0.659      195.130       32.210        0.027      335.702        6.508      864.098
01/18/2021  17:39:00       99.837      109.216      -10.528       63.853       62.318       29.771     4077.185     3883.514      886.332        1.542        0.442      147.971       23.270        0.025      335.675        6.467      864.083
01/18/2021  17:40:00      201.256      171.604      -26.383       99.456       82.677       46.660     9891.422     6835.471     2177.114        4.477        0.945      264.484       39.833        0.023      335.705        6.515      864.076
01/18/2021  17:41:00      157.160      121.723      -11.605       79.964       81.497       47.173     6394.252     6641.837     2225.246        2.745        0.763      198.786       30.848        0.024      335.687        6.483      864.067
01/18/2021  17:42:00      219.716      149.905      -21.368      107.324       76.878       49.169    11518.356     5910.226     2417.620        4.552        0.992      265.982       41.031        0.024      335.698        6.502      864.032
01/18/2021  17:43:00      139.400       91.025      -14.037       91.936       65.494       40.749     8452.231     4289.435     1660.452        2.116        0.720      166.487       29.641        0.032      335.650        6.423      864.021
01/18/2021  17:44:00      173.640      113.156      -11.999      100.244       78.568       45.221    10048.801     6172.954     2044.948        3.068        0.913      207.256       33.297        0.026      335.655        6.432      864.037
01/18/2021  17:45:00      204.105      151.918      -18.508      134.717       77.869       50.407    18148.802     6063.538     2540.831        4.591        1.338      254.436       48.195        0.036      335.691        6.491      864.052
01/18/2021  17:46:00      156.661      169.168      -27.072       86.176       72.027       41.358     7426.248     5187.910     1710.509        3.411        0.716      230.566       35.832        0.024      335.644        6.411      864.069
01/18/2021  17:47:00      105.118      120.234      -10.212       93.119       71.114       46.855     8671.191     5057.271     2195.428        2.076        0.796      159.706       31.364        0.039      335.595        6.332      864.090
01/18/2021  17:48:00      243.741      167.652      -19.694      103.833       69.032       49.020    10781.363     4765.394     2403.003        5.292        0.897      295.833       35.114        0.014      335.623        6.378      864.104
01/18/2021  17:49:00      184.516      157.175      -18.907       80.608       84.509       45.327     6497.688     7141.718     2054.573        3.740        0.785      242.385       25.893        0.011      335.616        6.365      864.091
01/18/2021  17:50:00      267.312      289.906      -36.453      165.106      134.564       75.084    27259.915    18107.410     5637.545       10.391        2.550      394.336       78.106        0.039      335.683        6.477      864.078
01/18/2021  17:51:00      196.858      258.701      -34.027      134.076      140.332       74.682    17976.300    19693.021     5577.340        7.503        2.162      325.083       66.377        0.042      335.663        6.444      864.085
01/18/2021  17:52:00      266.943      244.543      -35.425      138.614       92.202       71.627    19213.924     8501.183     5130.372        8.257        1.642      362.022       46.303        0.016      335.668        6.451      864.086
01/18/2021  17:53:00      217.613      202.382      -32.284      113.500       86.708       54.700    12882.180     7518.286     2992.138        5.637        1.170      297.177       29.432        0.010      335.639        6.403      864.080
01/18/2021  17:54:00      255.112      341.638      -34.011      126.727      140.100       75.205    16059.683    19628.134     5655.858       11.214        2.067      426.378       72.602        0.029      335.643        6.410      864.082
01/18/2021  17:55:00      203.230      251.414      -13.994      159.824      157.677       67.540    25543.800    24861.978     4561.620        7.983        2.748      323.282       80.107        0.061      335.625        6.380      864.097
01/18/2021  17:56:00      272.893      307.378      -42.848      157.604      110.851       72.076    24839.047    12287.872     5194.940       10.655        2.116      411.037       61.772        0.023      335.640        6.405      864.126
01/18/2021  17:57:00      211.104      262.841      -31.063      119.324      148.783       61.419    14238.277    22136.353     3772.267        7.737        2.007      337.121       74.459        0.049      335.602        6.344      864.151
01/18/2021  17:58:00      193.338      200.740      -31.046      107.825       93.464       57.356    11626.186     8735.434     3289.719        5.114        1.183      278.704       55.356        0.039      335.561        6.272      864.157
01/18/2021  17:59:00      175.243      218.944      -26.647       91.921       80.933       50.736     8449.474     6550.193     2574.175        4.846        0.879      280.440       46.693        0.028      335.545        6.246      864.169
01/18/2021  18:00:00      136.349      199.299      -10.426      113.762      105.534       62.678    12941.803    11137.521     3928.518        4.321        1.400      241.477       47.640        0.039      335.537        6.233      864.169
01/18/2021  18:01:00      177.281      274.609      -18.646      122.028      133.870       67.799    14890.788    17921.094     4596.650        7.229        1.870      326.862       77.897        0.057      335.582        6.308      864.185
01/18/2021  18:02:00      162.507      211.842       -3.769      134.074      102.658       63.781    17975.801    10538.676     4068.063        5.193        1.629      266.993       63.251        0.056      335.534        6.229      864.174
01/18/2021  18:03:00      123.965      179.345       -6.459       84.876      104.199       57.854     7204.015    10857.495     3347.057        3.449        1.070      218.018       52.643        0.058      335.489        6.154      864.166
01/18/2021  18:04:00      222.367      250.185      -31.715      127.116      122.257       74.817    16158.523    14946.661     5597.574        7.487        1.835      334.723       69.192        0.043      335.520        6.205      864.172
01/18/2021  18:05:00      268.787      233.941      -31.264      140.311       87.172       71.506    19687.106     7599.032     5113.108        8.017        1.620      356.335       58.294        0.027      335.476        6.131      864.165
01/18/2021  18:06:00      224.519      243.169      -32.772      120.839       90.303       67.080    14602.138     8154.657     4499.735        6.893        1.363      330.969       54.239        0.027      335.446        6.082      864.131
01/18/2021  18:07:00      292.159      298.147      -46.500      135.581      131.653       66.514    18382.261    17332.528     4424.151       10.827        2.007      417.431       69.775        0.028      335.453        6.093      864.094
01/18/2021  18:08:00      217.295      240.449      -38.463      117.687      108.517       59.474    13850.126    11775.922     3537.147        6.783        1.458      324.088       56.086        0.030      335.421        6.041      864.060
01/18/2021  18:09:00      193.391      173.063      -28.095      145.129      117.707       68.758    21062.316    13854.969     4727.622        5.388        1.982      259.520       77.403        0.089      335.404        6.012      864.024
01/18/2021  18:10:00      136.606      204.247       -6.742      101.398       75.398       54.200    10281.492     5684.807     2937.626        3.966        0.945      245.720       44.821        0.033      335.375        5.962      864.021
01/18/2021  18:11:00      123.331      245.661      -27.630       95.288      103.937       58.473     9079.716    10802.871     3419.108        4.981        1.165      274.881       59.026        0.046      335.391        5.990      864.058
01/18/2021  18:12:00      143.550      241.272      -11.626      110.839      130.666       63.190    12285.252    17073.606     3993.020        5.615        1.668      280.747       57.602        0.042      335.329        5.886      864.108
01/18/2021  18:13:00      151.667      242.917      -23.793       77.417      105.466       57.295     5993.339    11123.085     3282.764        5.148        1.020      286.376       57.907        0.041      335.292        5.824      864.154
01/18/2021  18:14:00      172.788      176.603      -31.784      121.868       82.573       57.704    14851.782     6818.365     3329.750        4.352        1.250      247.072       54.346        0.048      335.253        5.761      864.189
01/18/2021  18:15:00      140.705      170.279        0.806      107.598       90.780       56.521    11577.247     8241.098     3194.621        3.590        1.151      220.891       37.186        0.028      335.220        5.706      864.210
01/18/2021  18:16:00      197.503      239.861      -37.974       94.101       97.580       55.204     8854.948     9521.931     3047.458        5.970        1.071      310.711       50.625        0.027      335.205        5.680      864.178
01/18/2021  18:17:00      235.631      270.969      -32.744      136.356       99.656       70.238    18592.869     9931.292     4933.396        8.173        1.673      359.091       53.719        0.022      335.205        5.680      864.112
01/18/2021  18:18:00      248.782      226.601      -23.751      155.899       84.686       62.546    24304.370     7171.714     3912.011        7.459        1.769      336.513       50.868        0.023      335.165        5.616      864.016
01/18/2021  18:19:00      223.649      204.142      -25.525      103.041       81.723       65.074    10617.414     6678.701     4234.620        5.693        1.077      302.809       48.371        0.026      335.131        5.560      863.928
01/18/2021  18:20:00      165.092      223.187      -17.448      115.166      109.870       69.973    13263.253    12071.527     4896.175        5.380        1.512      277.611       63.768        0.053      335.138        5.570      863.886
01/18/2021  18:21:00      247.717      251.828      -33.136      147.539       92.945       61.493    21767.850     8638.812     3781.404        8.003        1.709      353.244       55.684        0.025      335.140        5.573      863.896
01/18/2021  18:22:00      213.358      198.157      -23.413      122.976       87.028       58.350    15123.048     7573.823     3404.735        5.571        1.305      291.184       48.212        0.027      335.104        5.514      863.929
01/18/2021  18:23:00      246.783      255.153      -27.477      140.991       87.812       78.793    19878.585     7710.993     6208.293        8.027        1.690      354.972       62.080        0.031      335.138        5.570      863.962
01/18/2021  18:24:00      176.083      213.428      -19.337      128.346       80.978       65.109    16472.824     6557.375     4239.242        5.209        1.363      276.688       51.852        0.035      335.126        5.551      863.991
01/18/2021  18:25:00      225.621      223.755      -28.281      108.697      109.497       61.752    11814.998    11989.493     3813.331        6.469        1.381      317.760       64.844        0.042      335.113        5.529      863.990
01/18/2021  18:26:00      175.869      226.900      -40.196       93.047      115.946       54.161     8657.812    13443.384     2933.409        5.453        1.252      287.077       56.311        0.038      335.094        5.497      863.975
01/18/2021  18:27:00      240.554      278.882      -42.393      146.304      108.752       67.064    21404.857    11827.078     4497.603        8.758        1.886      368.295       63.156        0.029      335.106        5.518      863.930
01/18/2021  18:28:00      222.960      232.462      -17.946      129.558      106.015       71.744    16785.405    11239.155     5147.229        6.861        1.659      322.102       53.868        0.028      335.099        5.506      863.903
01/18/2021  18:29:00      150.005      199.296       -8.990      122.843      108.301       65.697    15090.355    11729.201     4316.108        4.671        1.557      249.440       59.214        0.056      335.116        5.536      863.921
01/18/2021  18:30:00      177.131      186.653       -5.577      109.731       84.312       58.803    12040.888     7108.497     3457.849        4.442        1.130      257.322       51.510        0.040      335.066        5.452      863.975
01/18/2021  18:31:00      169.073      279.178      -23.208       99.449      138.924       58.568     9890.067    19299.995     3430.259        6.984        1.631      326.383       59.513        0.033      335.120        5.542      864.046
01/18/2021  18:32:00      124.690      269.329      -17.328       89.198      123.940       54.144     7956.206    15361.074     2931.521        5.731        1.312      296.793       63.242        0.045      335.132        5.562      864.054
01/18/2021  18:33:00      113.711      259.188      -28.591      103.612       86.183       58.923    10735.458     7427.547     3471.901        5.128        1.082      283.035       55.622        0.039      335.186        5.649      864.043
01/18/2021  18:34:00       90.821      192.624      -17.617      102.956       92.092       48.690    10599.853     8480.966     2370.763        3.355        1.073      212.961       43.694        0.042      335.111        5.527      864.070
01/18/2021  18:35:00      119.519      247.534      -18.394      109.821      133.796       61.897    12060.590    17901.339     3831.196        5.484        1.690      274.878       75.000        0.074      335.113        5.532      864.098
01/18/2021  18:36:00      130.530      282.154      -28.406      109.736       93.434       54.056    12042.074     8729.947     2922.026        6.057        1.185      310.884       45.041        0.021      335.115        5.532      864.141
01/18/2021  18:37:00      121.148      274.709      -18.674      141.812      105.973       63.367    20110.663    11230.315     4015.335        6.292        1.768      300.236       51.936        0.030      335.103        5.513      864.182
01/18/2021  18:38:00      131.941      232.784      -25.920       87.549      105.941       55.289     7664.809    11223.559     3056.860        4.710        1.097      267.576       46.319        0.030      335.074        5.464      864.223
01/18/2021  18:39:00      165.636      260.718      -30.938      101.694      104.082       63.949    10341.767    10833.025     4089.527        6.081        1.263      308.884       42.980        0.019      335.092        5.493      864.238
01/18/2021  18:40:00      158.305      346.429      -43.444      117.080       98.030       53.965    13707.807     9609.910     2912.226        8.659        1.311      380.885       42.596        0.013      335.095        5.499      864.247
01/18/2021  18:41:00      172.925      186.878      -18.308      122.875      109.301       59.877    15098.225    11946.668     3585.295        4.789        1.532      254.610       64.136        0.063      335.033        5.396      864.227
01/18/2021  18:42:00      198.469      314.337      -24.489      144.222      109.909       67.209    20799.934    12079.898     4517.057        8.809        1.870      371.749       52.738        0.020      335.036        5.402      864.195
01/18/2021  18:43:00      186.867      188.806      -19.079      123.273       91.515       54.261    15196.337     8374.911     2944.262        4.872        1.326      265.645       47.132        0.031      335.015        5.366      864.215
01/18/2021  18:44:00      182.153      261.020      -20.391      114.708      132.490       64.794    13157.931    17553.601     4198.280        6.831        1.745      318.295       61.159        0.037      334.969        5.289      864.223
01/18/2021  18:45:00      248.450      268.561      -37.031      123.070      124.864       75.208    15146.162    15591.009     5656.293        8.580        1.820      365.858       70.472        0.037      334.973        5.296      864.202
01/18/2021  18:46:00      222.198      164.610      -20.337      119.496       83.460       56.643    14279.220     6965.490     3208.386        5.066        1.223      276.529       41.867        0.023      334.919        5.208      864.185
01/18/2021  18:47:00      129.768      149.992      -14.402       90.002       70.246       51.222     8100.344     4934.440     2623.670        2.760        0.783      198.336       31.061        0.025      334.903        5.181      864.207
01/18/2021  18:48:00      185.209      197.942      -25.565       94.132       82.119       54.953     8860.801     6743.553     3019.815        4.638        0.931      271.078       48.537        0.032      334.898        5.171      864.220
01/18/2021  18:49:00      165.681      158.680      -21.483      106.284       72.385       43.904    11296.340     5239.611     1927.567        3.577        0.923      229.411       31.966        0.019      334.847        5.086      864.240
01/18/2021  18:50:00      193.489      158.836       -9.787      133.219       81.057       61.573    17747.172     6570.250     3791.198        4.543        1.405      250.333       56.878        0.052      334.846        5.087      864.263
01/18/2021  18:51:00      282.198      216.065      -29.029      139.115      101.592       70.889    19353.081    10320.943     5025.260        8.092        1.735      355.415       52.067        0.021      334.920        5.209      864.271
01/18/2021  18:52:00      211.300      142.067       -7.166      196.927       93.413       71.913    38780.404     8726.072     5171.483        5.877        2.634      254.619       68.397        0.072      334.906        5.186      864.253
01/18/2021  18:53:00      256.333      264.147      -34.681      109.942       87.304       62.074    12087.278     7621.942     3853.235        8.012        1.178      368.077       44.706        0.015      334.909        5.190      864.235
01/18/2021  18:54:00      173.899      215.569      -20.237      112.513      133.717       57.126    12659.268    17880.120     3263.368        5.545        1.690      276.967       59.879        0.047      334.896        5.167      864.274
01/18/2021  18:55:00      139.191      111.578      -17.397      102.184       90.726       46.610    10441.547     8231.124     2172.455        2.648        1.042      178.392       31.854        0.032      334.830        5.059      864.332
01/18/2021  18:56:00      158.450      179.499      -20.576      189.062       85.306       89.891    35744.370     7277.123     8080.319        5.441        2.555      239.429      117.914        0.243      334.881        5.145      864.345
01/18/2021  18:57:00      197.539      134.444      -25.785       81.336       62.622       42.068     6615.586     3921.463     1769.732        3.503        0.615      238.949       34.463        0.021      334.766        4.952      864.334
01/18/2021  18:58:00      173.332       91.857      -10.440       89.021       69.843       42.302     7924.723     4877.997     1789.456        2.659        0.730      196.168       33.904        0.030      334.754        4.932      864.327
01/18/2021  18:59:00      141.987       90.287      -10.333      102.708       79.514       39.727    10548.863     6322.509     1578.242        2.343        0.922      168.262       18.924        0.013      334.751        4.927      864.333
01/18/2021  19:00:00      171.117      167.580      -26.924       98.378       84.822       53.379     9678.158     7194.810     2849.273        3.890        0.986      239.508       53.471        0.050      334.715        4.869      864.368
01/18/2021  19:01:00      185.242      170.992      -15.809       91.623       58.026       48.989     8394.746     3367.059     2399.931        3.898        0.708      252.097       38.339        0.023      334.713        4.864      864.375
01/18/2021  19:02:00      187.983      142.068      -29.039       81.435       64.808       41.045     6631.636     4200.041     1684.706        3.444        0.626      235.629       36.740        0.024      334.710        4.860      864.329
01/18/2021  19:03:00      158.541       95.480      -13.274       59.904       56.271       37.262     3588.515     3166.408     1388.455        2.128        0.407      185.072       33.754        0.033      334.647        4.755      864.305
01/18/2021  19:04:00      119.400      163.000       -9.635       91.119       90.220       44.818     8302.657     8139.655     2008.681        2.968        0.923      202.052       47.164        0.054      334.716        4.870      864.306
01/18/2021  19:05:00      221.401      208.939      -34.801      102.626       73.363       48.335    10532.043     5382.114     2336.238        5.606        0.913      304.424       43.683        0.021      334.795        4.999      864.317
01/18/2021  19:06:00      179.260      130.573       -8.599       97.533       65.032       46.559     9512.654     4229.198     2167.695        3.258        0.795      221.773       41.566        0.035      334.726        4.886      864.308
01/18/2021  19:07:00      141.709      149.099      -26.193       59.416       85.846       40.215     3530.237     7369.576     1617.209        2.775        0.626      205.699       32.709        0.025      334.739        4.908      864.301
01/18/2021  19:08:00      142.127      113.268       -2.709       94.002       61.937       50.110     8836.300     3836.213     2511.048        2.411        0.759      181.741       47.956        0.070      334.693        4.832      864.314
01/18/2021  19:09:00      174.489      210.437      -30.842      112.927       83.820       50.351    12752.525     7025.759     2535.232        4.899        1.116      273.368       53.138        0.038      334.764        4.947      864.313
01/18/2021  19:10:00      207.543      104.959      -22.124       84.997       60.761       42.428     7224.563     3691.911     1800.173        3.365        0.636      232.574       21.431        0.008      334.702        4.846      864.293
01/18/2021  19:11:00      126.991      111.747      -12.319       79.658       65.988       43.405     6345.341     4354.464     1883.973        2.067        0.629      169.157       25.614        0.023      334.637        4.739      864.286
01/18/2021  19:12:00      184.643      157.582      -19.019      112.212       67.220       45.722    12591.558     4518.493     2090.533        3.924        0.960      242.745       14.620        0.004      334.627        4.721      864.278
01/18/2021  19:13:00      197.383      180.426      -31.954       89.151       78.668       49.888     7947.832     6188.732     2488.856        4.458        0.831      267.420       45.301        0.029      334.662        4.777      864.293
01/18/2021  19:14:00      136.106      160.109      -18.476       85.771       75.005       49.494     7356.607     5625.751     2449.684        2.996        0.772      210.142       44.644        0.045      334.656        4.769      864.311
01/18/2021  19:15:00      225.345      173.783      -25.597       69.680       62.525       43.565     4855.233     3909.398     1897.928        4.615        0.533      284.571       31.424        0.012      334.637        4.734      864.307
01/18/2021  19:16:00      126.803      174.912      -23.887       77.298       58.799       44.276     5974.935     3457.287     1960.382        2.932        0.570      216.039       43.208        0.040      334.662        4.779      864.291
01/18/2021  19:17:00       93.992      137.236      -12.551       81.151       71.786       42.640     6585.438     5153.159     1818.197        2.069        0.678      166.338       39.514        0.056      334.659        4.776      864.276
01/18/2021  19:18:00      195.070      166.853      -19.938       87.847       62.776       40.811     7717.077     3940.877     1665.578        3.980        0.666      256.694       34.621        0.018      334.622        4.712      864.286
01/18/2021  19:19:00      140.588      179.843      -18.318       93.945       81.383       53.042     8825.609     6623.114     2813.487        3.535        0.913      228.273       52.673        0.053      334.647        4.753      864.294
01/18/2021  19:20:00      187.187      174.228      -31.209       96.682       79.180       53.681     9347.361     6269.399     2881.599        4.243        0.925      255.723       43.459        0.029      334.721        4.877      864.275
01/18/2021  19:21:00      101.709      117.108      -10.100       50.016       45.836       30.717     2501.598     2100.947      943.539        1.485        0.277      155.109       24.873        0.026      334.604        4.686      864.287
01/18/2021  19:22:00       87.961      181.007      -10.899       52.626       83.575       34.052     2769.478     6984.719     1159.508        2.576        0.546      201.248       35.735        0.032      334.680        4.810      864.272
01/18/2021  19:23:00       66.599      121.216        1.151       73.968       79.362       40.314     5471.316     6298.346     1625.240        1.626        0.670      138.307       39.623        0.082      334.580        4.646      864.249
01/18/2021  19:24:00       60.519      165.625      -10.662       44.019       72.822       31.257     1937.711     5303.018      976.973        1.971        0.411      176.335       36.518        0.043      334.705        4.852      864.235
01/18/2021  19:25:00       55.724      161.434      -11.222       38.401       44.519       21.442     1474.634     1981.938      459.767        1.660        0.196      170.781       11.467        0.005      334.739        4.911      864.216
01/18/2021  19:26:00       -3.694      105.386       -6.803       50.649       47.397       26.730     2565.302     2246.510      714.493        0.835        0.276      105.451       22.935        0.047      334.712        4.866      864.189
01/18/2021  19:27:00       86.619      236.289      -19.625       52.807       73.131       34.717     2788.613     5348.155     1205.285        3.653        0.467      251.665       29.865        0.014      334.751        4.927      864.203
01/18/2021  19:28:00       59.818      191.263      -18.211       71.792       84.571       37.838     5154.037     7152.269     1431.693        2.711        0.687      200.399       42.757        0.046      334.753        4.930      864.196
01/18/2021  19:29:00       54.126      304.405      -21.383       50.763       62.516       29.195     2576.919     3908.273      852.347        5.169        0.367      309.179       20.560        0.004      334.766        4.949      864.178
01/18/2021  19:30:00       94.696      172.327      -10.965       56.811       91.696       38.323     3227.546     8408.182     1468.678        2.594        0.655      196.631       40.126        0.042      334.648        4.757      864.171
01/18/2021  19:31:00      165.378       98.749      -22.116       58.606       60.734       41.264     3434.691     3688.608     1702.677        2.321        0.441      192.616       17.571        0.008      334.549        4.591      864.151
01/18/2021  19:32:00       63.853      106.357       -4.315       53.410       56.658       34.815     2852.594     3210.132     1212.090        1.134        0.364      124.052       27.988        0.051      334.559        4.611      864.157
01/18/2021  19:33:00      178.525      104.158      -14.275      123.120       73.690       46.333    15158.634     5430.276     2146.721        3.282        1.137      206.689       43.924        0.045      334.566        4.621      864.178
01/18/2021  19:34:00      105.634       74.559       -9.994      196.197       64.557       85.612    38493.423     4167.575     7329.380        3.339        2.500      129.296      117.820        0.830      334.641        4.746      864.169
01/18/2021  19:35:00      101.722       96.020      -13.684       54.804       53.935       28.547     3003.429     2908.960      814.940        1.324        0.336      139.883       23.914        0.029      334.543        4.584      864.154
01/18/2021  19:36:00       90.599      149.211      -16.186       67.119       84.874       40.358     4504.937     7203.673     1628.787        2.203        0.667      174.562       39.097        0.050      334.624        4.715      864.134
01/18/2021  19:37:00      150.640      154.657      -25.107       87.279       86.073       50.574     7617.675     7408.613     2557.768        3.241        0.879      215.896       51.294        0.056      334.592        4.664      864.125
01/18/2021  19:38:00      169.458      123.615      -21.143       77.665       59.842       38.763     6031.785     3581.028     1502.536        2.778        0.556      209.754       30.943        0.022      334.505        4.519      864.169
01/18/2021  19:39:00      234.880      199.377      -33.740       78.382       70.409       47.539     6143.810     4957.443     2259.918        5.471        0.668      308.091       41.024        0.018      334.527        4.554      864.206
01/18/2021  19:40:00      190.148      129.949      -13.867      111.293       69.799       38.659    12386.157     4871.855     1494.541        3.599        0.938      230.311       44.110        0.037      334.490        4.494      864.222
01/18/2021  19:41:00      167.335       97.359       -8.951       83.879       52.756       37.425     7035.676     2783.148     1400.644        2.439        0.561      193.597       19.056        0.010      334.456        4.439      864.214
01/18/2021  19:42:00      155.353      115.732      -25.074       90.160       70.378       43.596     8128.786     4952.996     1900.646        2.657        0.749      193.723       28.805        0.022      334.420        4.380      864.199
01/18/2021  19:43:00      176.733       87.247      -26.515      104.537       93.274       48.817    10927.929     8700.131     2383.096        3.078        1.101      197.095       43.851        0.050      334.381        4.314      864.172
01/18/2021  19:44:00      281.266      135.986      -27.284      140.639       96.115       53.237    19779.239     9238.013     2834.219        6.509        1.593      312.414       40.624        0.017      334.427        4.390      864.159
01/18/2021  19:45:00      257.207      188.783      -25.863      148.639      113.780       62.906    22093.456    12945.924     3957.173        7.072        1.950      319.052       71.663        0.050      334.431        4.397      864.134
01/18/2021  19:46:00      205.195      152.930      -15.027      109.472       79.956       56.385    11984.151     6392.891     3179.228        4.363        1.078      255.915       47.852        0.035      334.371        4.296      864.110
01/18/2021  19:47:00      250.864      234.168      -40.177      176.276      105.822       65.351    31073.171    11198.285     4270.809        8.295        2.327      343.172       73.746        0.046      334.408        4.359      864.116
01/18/2021  19:48:00      173.520      203.807      -11.660       94.325      102.713       65.278     8897.176    10549.895     4261.197        4.774        1.185      267.669       59.157        0.049      334.382        4.316      864.116
01/18/2021  19:49:00      274.552      235.880      -27.449      169.258      122.968       72.406    28648.107    15121.024     5242.591        9.038        2.451      361.964       63.254        0.031      334.378        4.308      864.094
01/18/2021  19:50:00      312.206      260.529      -47.464      127.030      122.130       65.107    16136.583    14915.668     4238.874       10.144        1.765      406.631       53.952        0.018      334.426        4.388      864.091
01/18/2021  19:51:00      231.325      176.955      -22.207      182.316      125.861       61.908    33239.073    15841.059     3832.560        6.910        2.646      291.246       58.381        0.040      334.402        4.349      864.073
01/18/2021  19:52:00      294.810      210.757      -32.249      171.191      152.505       74.258    29306.459    23257.673     5514.219        9.521        2.904      362.397       75.414        0.043      334.414        4.369      864.023
01/18/2021  19:53:00      371.225      222.609      -33.599      200.219      103.190       80.700    40087.517    10648.100     6512.452       12.286        2.862      432.854       83.530        0.037      334.432        4.400      863.975
01/18/2021  19:54:00      272.485      254.291      -35.899      195.838      154.036       73.885    38352.633    23726.979     5458.959       10.386        3.377      372.709       81.282        0.048      334.407        4.356      863.960
01/18/2021  19:55:00      295.209      259.576      -24.834      209.992      196.064      100.054    44096.507    38441.200    10010.727       12.383        4.627      393.100      106.117        0.073      334.403        4.351      863.963
01/18/2021  19:56:00      311.769      307.833      -48.567      203.564      149.648       93.710    41438.126    22394.566     8781.541       13.345        3.631      438.134       85.401        0.038      334.436        4.403      863.947
01/18/2021  19:57:00      327.368      303.676      -39.448      219.661      136.972       93.871    48251.060    18761.382     8811.800       13.837        3.791      446.529       98.264        0.048      334.423        4.383      863.935
01/18/2021  19:58:00      282.185      314.319      -35.562      159.671      147.824       84.076    25494.797    21851.882     7068.739       11.704        2.721      422.404       71.293        0.028      334.421        4.380      863.936
01/18/2021  19:59:00      332.459      336.431      -52.648      164.062      118.265       87.131    26916.326    13986.670     7591.740       13.748        2.425      472.985       70.241        0.022      334.411        4.363      863.940
01/18/2021  20:00:00      277.575      409.167      -58.857      155.199      188.887       95.933    24086.686    35678.175     9203.171       15.843        3.448      494.435       99.415        0.040      334.460        4.443      863.961
01/18/2021  20:01:00      232.610      341.530      -35.144      121.406      148.646       76.777    14739.342    22095.681     5894.704       10.735        2.136      413.219       66.473        0.026      334.449        4.426      863.985
01/18/2021  20:02:00      310.461      235.097      -43.574      177.368      152.110       76.553    31459.574    23137.579     5860.374       10.699        3.023      389.431       50.047        0.017      334.398        4.342      864.014
01/18/2021  20:03:00      349.483      407.104      -60.330      175.525      154.036       90.203    30809.083    23727.030     8136.568       17.708        3.134      536.537       75.636        0.020      334.423        4.381      864.053
01/18/2021  20:04:00      258.491      308.684      -27.278      208.320      155.949       91.057    43397.117    24319.949     8291.309       11.941        3.800      402.621       83.654        0.043      334.474        4.467      864.098
01/18/2021  20:05:00      333.353      379.651      -51.689      257.586      174.344       97.402    66350.711    30395.824     9487.124       18.206        5.312      505.231      112.605        0.050      334.522        4.547      864.168
01/18/2021  20:06:00      226.364      303.143      -30.270      136.698      159.402       77.879    18686.295    25409.023     6065.148        9.710        2.508      378.334       65.565        0.030      334.503        4.514      864.214
01/18/2021  20:07:00      213.486      479.458      -61.202      256.400      198.367      108.819    65740.926    39349.577    11841.581       19.804        5.847      524.839      119.916        0.052      334.560        4.610      864.236
01/18/2021  20:08:00      196.165      440.575      -43.192      215.901      133.691      114.879    46613.187    17873.320    13197.199       15.605        3.884      482.273      130.603        0.073      334.581        4.646      864.244
01/18/2021  20:09:00      244.533      462.769      -60.155      180.312      190.394      100.283    32512.376    36249.769    10056.649       17.818        3.941      523.403       96.141        0.034      334.498        4.506      864.273
01/18/2021  20:10:00      272.001      379.130      -37.368      156.424      145.332       93.787    24468.452    21121.272     8795.964       13.674        2.719      466.609       84.863        0.033      334.504        4.515      864.290
01/18/2021  20:11:00      191.317      279.340      -30.675      153.774      116.381       72.399    23646.351    13544.434     5241.577        7.899        2.122      338.574       70.868        0.044      334.471        4.462      864.302
01/18/2021  20:12:00      265.323      234.205      -36.845      119.338       92.842       61.725    14241.559     8619.663     3809.952        7.663        1.334      353.905       54.132        0.023      334.431        4.394      864.316
01/18/2021  20:13:00      219.842      206.684      -25.290      151.343      120.770       61.194    22904.794    14585.466     3744.760        6.645        2.062      301.743       63.858        0.045      334.446        4.421      864.316
01/18/2021  20:14:00      205.974      307.867      -44.498      154.804      137.671       77.225    23964.198    18953.431     5963.682        9.402        2.444      370.415       79.779        0.046      334.441        4.413      864.311
01/18/2021  20:15:00      280.945      240.309      -55.158      227.747      110.864      115.691    51868.623    12290.776    13384.365       10.862        3.877      369.701      125.033        0.114      334.448        4.424      864.268
01/18/2021  20:16:00      170.754      252.657      -17.151      119.728      169.159       72.574    14334.899    28614.772     5267.028        7.074        2.411      304.946       74.355        0.059      334.372        4.298      864.271
01/18/2021  20:17:00      184.238      162.396       -4.618      131.203       95.147       64.133    17214.206     9052.969     4113.082        4.535        1.519      245.594       66.102        0.072      334.329        4.228      864.303
01/18/2021  20:18:00      140.080      126.785      -18.965       94.700       99.273       52.597     8968.109     9855.050     2766.432        2.882        1.079      188.936       50.802        0.072      334.289        4.159      864.314
01/18/2021  20:19:00      216.702      249.304      -26.198      115.579       95.502       61.581    13358.443     9120.607     3792.159        6.803        1.314      330.321       52.816        0.026      334.315        4.202      864.312
01/18/2021  20:20:00      175.218      148.432      -14.336      101.097       87.173       57.347    10220.604     7599.046     3288.682        3.702        1.055      229.637       43.505        0.036      334.300        4.179      864.297
01/18/2021  20:21:00      119.214      267.368      -18.153      105.266      112.682       57.504    11080.914    12697.292     3306.662        5.655        1.354      292.742       58.672        0.040      334.299        4.175      864.285
01/18/2021  20:22:00       70.188      242.767      -19.997      240.991      109.133      124.901    58076.820    11909.974    15600.223        7.491        4.279      252.709      156.737        0.385      334.365        4.288      864.278
01/18/2021  20:23:00      263.080      246.207      -39.866      161.856      118.158       56.907    26197.458    13961.239     3238.439        8.740        2.170      360.317       70.841        0.039      334.341        4.248      864.242
01/18/2021  20:24:00      205.989      294.083      -39.703      118.627      144.040       69.201    14072.275    20747.418     4788.731        8.504        1.980      359.049       74.056        0.043      334.339        4.243      864.231
01/18/2021  20:25:00      104.364      302.299      -26.508      106.686      111.952       55.251    11381.984    12533.154     3052.656        6.497        1.348      319.807       51.283        0.026      334.350        4.262      864.224
01/18/2021  20:26:00      103.464       98.120      -11.813       59.855       57.593       37.860     3582.664     3316.965     1433.414        1.440        0.417      142.591       27.106        0.036      334.253        4.102      864.240
01/18/2021  20:27:00      208.691      199.386      -31.506      132.272       92.063       56.799    17495.895     8475.612     3226.141        5.674        1.460      288.629       67.324        0.054      334.270        4.128      864.282
01/18/2021  20:28:00      225.209      142.691      -31.354      132.242       68.390       67.539    17487.984     4677.241     4561.481        4.939        1.336      266.607       79.529        0.089      334.257        4.107      864.329
01/18/2021  20:29:00       74.649       23.672       -8.656      119.590       85.654       48.783    14301.683     7336.573     2379.793        1.511        1.201       78.313       28.633        0.134      334.199        4.013      864.335
01/18/2021  20:30:00      134.494       34.728        6.311      135.382       77.401       37.900    18328.200     5990.843     1436.404        2.254        1.288      138.905       41.221        0.088      334.174        3.972      864.353
01/18/2021  20:31:00      188.543       74.586       -9.616      128.318       77.242       52.260    16465.573     5966.251     2731.065        3.318        1.258      202.760       45.446        0.050      334.205        4.022      864.324
01/18/2021  20:32:00      132.798      167.741      -26.034      173.698       93.776       81.374    30170.895     8794.009     6621.710        4.601        2.279      213.945      110.486        0.267      334.272        4.133      864.285
01/18/2021  20:33:00      172.889       93.310      -19.322      112.881       88.042       45.062    12742.141     7751.479     2030.568        3.074        1.126      196.462       41.346        0.044      334.252        4.099      864.242
01/18/2021  20:34:00      179.849      158.543      -25.316      164.357       69.397       78.632    27013.093     4815.975     6182.958        4.806        1.901      239.753      100.955        0.177      334.233        4.067      864.210
01/18/2021  20:35:00      384.514      249.902      -56.489      190.505      117.637       99.212    36291.981    13838.549     9843.116       13.672        2.999      458.587      109.818        0.057      334.280        4.146      864.171
01/18/2021  20:36:00      177.111      124.877      -19.751      129.216      104.355       50.511    16696.675    10889.892     2551.377        3.874        1.507      216.709       55.897        0.067      334.186        3.989      864.171
01/18/2021  20:37:00      263.435      104.536      -15.366      211.938      124.275       91.790    44917.660    15444.367     8425.484        7.466        3.439      283.418      101.959        0.129      334.235        4.071      864.148
01/18/2021  20:38:00      225.943      127.914      -33.755      173.791      102.536       83.084    30203.438    10513.664     6902.936        5.808        2.381      259.639      105.554        0.165      334.197        4.007      864.198
01/18/2021  20:39:00      260.366      208.715      -47.345      122.121      135.690       61.000    14913.622    18411.747     3721.034        7.531        1.852      333.695       42.558        0.016      334.250        4.095      864.221
01/18/2021  20:40:00      306.169      285.127      -50.787      149.709      140.937       82.462    22412.834    19863.228     6799.916       11.334        2.454      418.374       70.802        0.029      334.335        4.235      864.261
01/18/2021  20:41:00      420.963      257.232      -48.576      349.832      129.028      149.454   122382.339    16648.223    22336.571       20.352        8.068      493.333      196.101        0.158      334.441        4.415      864.266
01/18/2021  20:42:00      311.117      176.804      -32.177      123.208      112.051       56.279    15180.319    12555.338     3167.292        7.999        1.545      357.846       45.019        0.016      334.262        4.114      864.279
01/18/2021  20:43:00      291.164      164.977      -18.497      153.631      103.655       57.596    23602.439    10744.266     3317.265        7.499        1.883      334.655       53.658        0.026      334.238        4.076      864.297
01/18/2021  20:44:00      279.864      126.303      -32.342      246.340      129.059      114.057    60683.388    16656.142    13008.929        9.282        4.517      307.045      136.001        0.196      334.239        4.079      864.310
01/18/2021  20:45:00      226.516      102.073      -18.532      219.024      129.798       86.302    47971.474    16847.434     7448.045        6.715        3.613      248.452      109.125        0.193      334.216        4.039      864.308
01/18/2021  20:46:00      256.992       74.300      -22.478      250.323      145.932      113.508    62661.444    21296.086    12884.151        8.444        4.842      267.517      135.013        0.255      334.216        4.041      864.358
01/18/2021  20:47:00      395.784      243.687      -42.937      205.509      127.185       72.564    42233.793    16176.060     5265.589       14.076        3.184      464.788       64.660        0.019      334.156        3.938      864.418
01/18/2021  20:48:00      401.784       90.701      -23.656      268.478      110.851      119.102    72080.646    12288.003    14185.218       13.436        4.928      411.894      156.566        0.144      334.201        4.015      864.449
01/18/2021  20:49:00      213.640      115.744      -14.412      123.959      111.093       48.833    15365.957    12341.622     2384.634        4.466        1.505      242.978       51.462        0.045      334.087        3.825      864.489
01/18/2021  20:50:00       50.661       15.151        2.258       47.741       58.286       31.415     2279.199     3397.313      986.912        0.473        0.333       52.878       32.004        0.366      334.023        3.722      864.488
01/18/2021  20:51:00      239.327      149.892      -17.088      146.929      122.567       65.627    21588.222    15022.697     4306.860        6.047        2.046      282.392       45.632        0.026      334.016        3.708      864.514
01/18/2021  20:52:00      360.297      118.458      -25.425      215.388      154.395       66.854    46391.993    23837.675     4469.415       10.958        3.735      379.270       60.173        0.025      334.024        3.720      864.472
01/18/2021  20:53:00      383.299      171.315      -28.981      248.912      110.175      110.082    61957.187    12138.566    12118.115       13.164        4.311      419.842      132.844        0.100      334.064        3.788      864.477
01/18/2021  20:54:00      207.542      160.537      -18.348       79.004       82.671       46.980     6241.624     6834.484     2207.093        4.223        0.764      262.385       31.719        0.015      333.974        3.637      864.507
01/18/2021  20:55:00      321.420      123.246      -31.278      205.511      101.266       98.026    42234.696    10254.823     9609.071        9.078        3.105      344.239      121.663        0.125      334.050        3.765      864.537
01/18/2021  20:56:00      329.758      140.321      -35.668      281.973      144.239      135.432    79508.525    20804.745    18341.749       12.415        5.933      358.371      176.535        0.243      334.092        3.836      864.591
01/18/2021  20:57:00      335.541      153.889      -39.674      343.291      135.760      157.965   117848.369    18430.796    24952.918       14.950        8.062      369.147      213.454        0.334      334.139        3.914      864.625
01/18/2021  20:58:00      319.033       31.178      -39.633      202.827      120.719       57.326    41138.954    14573.058     3286.270        8.165        2.950      320.553       62.016        0.037      333.939        3.581      864.655
01/18/2021  20:59:00      231.837       69.027      -36.692      269.860      119.981      118.564    72824.230    14395.373    14057.477        8.055        5.064      241.895      160.104        0.438      334.001        3.686      864.690
01/18/2021  21:00:00      364.477      138.677      -29.373      265.240      170.388      130.457    70352.079    29032.116    17018.967       13.465        5.820      389.967      170.634        0.191      333.867        3.460      864.669
01/18/2021  21:01:00      454.771      181.705      -35.020      296.252      114.043      133.179    87765.007    13005.802    17736.567       17.976        5.925      489.728      179.211        0.134      333.913        3.538      864.653
01/18/2021  21:02:00      417.302      133.511      -28.711      259.026      149.000      103.367    67094.466    22200.899    10684.742       14.636        4.999      438.139      131.928        0.091      333.821        3.383      864.685
01/18/2021  21:03:00      319.404       93.854      -31.978      269.321       89.428      123.217    72533.547     7997.285    15182.488       10.376        4.786      332.907      163.380        0.241      333.871        3.468      864.727
01/18/2021  21:04:00      247.202      138.459      -16.003      181.322      139.082       78.338    32877.532    19343.750     6136.811        6.943        2.918      283.336       80.802        0.081      333.756        3.276      864.768
01/18/2021  21:05:00      376.423      151.115      -34.147      214.545      115.876       88.260    46029.737    13427.351     7789.855       11.646        3.362      405.623      106.560        0.069      333.733        3.238      864.755
01/18/2021  21:06:00      361.211      140.401      -33.901      296.190      124.944      132.635    87728.768    15611.044    17592.017       13.611        6.047      387.539      184.830        0.227      333.739        3.251      864.744
01/18/2021  21:07:00      226.693      140.853      -36.313      250.137       82.521      115.455    62568.709     6809.757    13329.913        7.761        4.135      266.888      157.576        0.349      333.698        3.182      864.761
01/18/2021  21:08:00      212.268       97.695      -38.618      297.026       98.192      139.381    88224.335     9641.741    19426.967        8.667        5.865      233.670      190.920        0.668      333.706        3.197      864.782
01/18/2021  21:09:00      311.681      225.145      -42.882      282.485      104.536      135.203    79797.664    10927.850    18279.902       12.932        5.450      384.493      172.579        0.201      333.648        3.100      864.791
01/18/2021  21:10:00      297.922      130.546      -24.777      225.390      152.536       95.162    50800.687    23267.290     9055.821        9.475        4.156      325.269      117.537        0.131      333.588        2.999      864.808
01/18/2021  21:11:00      305.309      169.330      -31.932      187.201      125.058       92.883    35044.185    15639.565     8627.278        9.110        2.966      349.122      112.006        0.103      333.531        2.903      864.822
01/18/2021  21:12:00      204.238      120.690      -21.005      203.640      131.127       90.266    41469.276    17194.231     8147.923        6.175        3.341      237.232      109.263        0.212      333.564        2.960      864.840
01/18/2021  21:13:00      237.085       79.860      -15.773      263.508      140.831      121.047    69436.330    19833.304    14652.458        8.336        5.196      250.173      148.737        0.353      333.550        2.937      864.851
01/18/2021  21:14:00      430.302      201.068      -33.223      208.939       86.895       89.023    43655.321     7550.753     7925.010       14.290        2.957      474.961      109.028        0.053      333.498        2.850      864.850
01/18/2021  21:15:00      285.234       99.926      -34.146      203.420      106.354       83.304    41379.847    11311.171     6939.580        7.606        2.982      302.231      108.021        0.128      333.497        2.848      864.854
01/18/2021  21:16:00      228.647      116.480      -25.331      237.003      112.732      105.407    56170.608    12708.582    11110.631        7.322        3.999      256.607      145.431        0.321      333.462        2.789      864.823
01/18/2021  21:17:00      419.432      212.123      -45.355      235.515      177.551      121.508    55467.162    31524.451    14764.106       16.234        5.088      470.020      153.575        0.107      333.454        2.779      864.780
01/18/2021  21:18:00      382.131      202.497      -30.137      174.889       77.475       82.697    30586.308     6002.326     6838.799       11.567        2.171      432.469      102.172        0.056      333.391        2.672      864.765
01/18/2021  21:19:00      348.562      152.861      -36.307      323.552      119.900      157.284   104686.174    14375.890    24738.279       14.496        7.190      380.608      207.970        0.299      333.492        2.843      864.736
01/18/2021  21:20:00      484.065      181.758      -50.409      328.565      147.587      156.290   107955.168    21781.844    24426.521       21.200        7.708      517.064      199.216        0.148      333.460        2.789      864.735
01/18/2021  21:21:00      337.030      200.318      -28.773      302.142      147.078      143.842    91289.741    21632.065    20690.463       14.405        6.681      392.067      187.137        0.228      333.438        2.751      864.743
01/18/2021  21:22:00      373.419      165.241      -41.246      341.081      187.661      159.624   116336.197    35216.838    25479.949       17.270        8.852      408.346      211.821        0.269      333.483        2.827      864.730
01/18/2021  21:23:00      485.892      246.047      -57.658      370.578      113.602      177.471   137327.817    12905.452    31496.071       24.080        9.086      544.638      239.706        0.194      333.473        2.811      864.719
01/18/2021  21:24:00      417.579      174.152      -26.678      210.563      112.018       97.401    44336.610    12547.995     9486.943       13.588        3.319      452.439      123.913        0.075      333.319        2.553      864.699
01/18/2021  21:25:00      252.630       60.405      -30.489      400.893      123.025      193.672   160715.555    15135.173    37508.990       14.083       10.668      259.751      269.937        1.080      333.448        2.772      864.722
01/18/2021  21:26:00      239.407      109.763      -24.866      278.741      155.904      115.468    77696.582    24306.155    13332.815        9.263        5.767      263.370      156.522        0.353      333.341        2.592      864.755
01/18/2021  21:27:00      397.988      141.215      -52.221      300.396      115.197      148.754    90237.630    13270.290    22127.764       15.332        6.282      422.299      197.024        0.218      333.406        2.700      864.725
01/18/2021  21:28:00      324.812       81.232      -40.701      263.211      125.244      127.571    69280.103    15686.137    16274.389       10.748        5.062      334.815      155.566        0.216      333.385        2.664      864.709
01/18/2021  21:29:00      322.011      236.714      -33.890      276.454      102.585      120.816    76426.750    10523.658    14596.485       13.119        5.077      399.655      165.755        0.172      333.369        2.637      864.725
01/18/2021  21:30:00      423.384      170.611      -48.225      327.920      155.882      143.571   107531.259    24299.293    20612.534       18.153        7.622      456.467      191.137        0.175      333.448        2.769      864.750
01/18/2021  21:31:00      495.774      244.412      -46.974      325.730      202.581      148.450   106099.998    41039.206    22037.525       23.842        8.459      552.747      184.074        0.111      333.403        2.695      864.778
01/18/2021  21:32:00      533.177      203.835      -51.715      350.814      195.568      164.616   123070.665    38246.724    27098.428       25.842        9.421      570.812      210.072        0.135      333.432        2.742      864.798
01/18/2021  21:33:00      400.294      105.895      -19.805      359.941      125.404      156.777   129557.307    15726.221    24578.983       17.082        8.493      414.064      214.118        0.267      333.356        2.616      864.828
01/18/2021  21:34:00      543.920      251.938      -37.566      357.351      147.566      150.983   127699.611    21775.815    22795.986       26.647        8.614      599.434      206.835        0.119      333.321        2.559      864.815
01/18/2021  21:35:00      580.822      237.048      -32.048      241.170      153.786      101.516    58162.747    23650.033    10305.510       24.333        4.606      627.333      121.473        0.037      333.225        2.398      864.800
01/18/2021  21:36:00      442.468      156.667      -32.306      353.354      150.802      169.337   124859.050    22741.247    28675.025       19.878        8.814      469.386      213.395        0.207      333.315        2.548      864.796
01/18/2021  21:37:00      462.124      188.118      -31.915      215.283      164.472      112.323    46346.681    27051.099    12616.522       16.797        4.301      498.946      132.177        0.070      333.203        2.361      864.781
01/18/2021  21:38:00      468.262      156.442      -19.065      321.823      190.319      134.745   103569.837    36221.290    18156.350       20.099        7.897      493.704      180.217        0.133      333.203        2.362      864.736
01/18/2021  21:39:00      510.133      190.950      -21.625      394.763      179.119      179.241   155838.104    32083.536    32127.253       25.856       11.002      544.699      236.687        0.189      333.350        2.609      864.753
01/18/2021  21:40:00      418.846      158.189      -44.588      400.393      139.191      189.296   160314.209    19374.130    35833.104       20.894       10.776      447.723      256.985        0.329      333.371        2.644      864.817
01/18/2021  21:41:00      354.088      102.117      -40.688      391.061      143.340      174.873   152928.814    20546.395    30580.698       17.071       10.203      368.519      244.942        0.442      333.272        2.480      864.880
01/18/2021  21:42:00      360.871       79.425      -17.159      208.491      145.236       94.799    43468.470    21093.505     8986.852       10.517        3.677      369.509      103.867        0.079      333.095        2.183      864.926
01/18/2021  21:43:00      519.548       92.991      -49.909      377.059      185.111      168.748   142173.531    34266.230    28475.897       24.295       10.246      527.804      228.754        0.188      333.193        2.349      864.910
01/18/2021  21:44:00      502.188       17.265      -83.078      542.907      150.107      251.280   294747.894    22532.216    63141.736       31.983       19.021      502.484      347.757        0.479      333.427        2.740      864.858
01/18/2021  21:45:00      476.987       21.360      -26.409      319.146      187.243      148.368   101854.285    35059.819    22013.099       19.376        7.946      477.465      172.044        0.130      333.181        2.326      864.842
01/18/2021  21:46:00      565.231      142.969      -44.129      343.093      236.142      116.137   117712.952    55762.961    13487.910       26.438        9.348      583.032      117.907        0.041      333.213        2.378      864.853
01/18/2021  21:47:00      494.572      144.171      -32.758      356.047      182.734      167.342   126769.792    33391.894    28003.281       22.727        9.408      515.157      217.174        0.178      333.337        2.586      864.914
01/18/2021  21:48:00      542.544      139.736      -49.175      410.837      198.897      152.058   168787.032    39560.006    23121.544       27.383       11.573      560.250      212.549        0.144      333.332        2.577      864.926
01/18/2021  21:49:00      413.605       17.446      -55.862      571.069      167.950      265.357   326120.221    28207.253    70414.411       29.953       21.237      413.972      370.418        0.801      333.620        3.061      864.926
01/18/2021  21:50:00      407.727        3.273      -33.150      365.416      184.230      160.671   133529.026    33940.832    25815.328       18.028        9.664      407.740      209.853        0.265      333.317        2.553      864.932
01/18/2021  21:51:00      461.328       59.520      -47.462      358.112      178.118      149.747   128244.012    31726.025    22424.118       20.047        9.120      465.152      189.849        0.167      333.230        2.408      864.920
01/18/2021  21:52:00      403.149      105.781      -34.427      296.173      220.139      140.590    87718.553    48461.010    19765.625       16.539        7.797      416.796      162.304        0.152      333.139        2.257      864.927
01/18/2021  21:53:00      529.761      -57.691      -60.256      466.564      193.486      206.430   217682.034    37436.650    42613.530       29.261       14.887      532.893      266.160        0.249      333.286        2.504      864.909
01/18/2021  21:54:00      413.121      -80.988      -50.580      439.310      193.731      197.050   192993.226    37531.714    38828.898       22.451       13.468      420.985      250.338        0.354      333.252        2.446      864.862
01/18/2021  21:55:00      322.026      -58.982      -43.722      411.303      166.534      208.076   169170.139    27733.435    43295.707       17.459       12.010      327.383      262.944        0.645      333.232        2.415      864.891
01/18/2021  21:56:00      445.072      -39.910      -45.854      517.477      213.331      247.842   267782.264    45510.307    61425.745       28.817       18.736      446.858      327.525        0.537      333.346        2.604      864.874
01/18/2021  21:57:00      227.934       21.416      -27.848      282.494      177.262      136.529    79802.592    31421.859    18640.173        9.150        6.493      228.938      157.915        0.476      333.109        2.207      864.955
01/18/2021  21:58:00      455.150       18.296      -54.513      345.143      231.486      155.539   119123.812    53585.807    24192.276       20.364        9.845      455.517      176.004        0.149      333.089        2.175      864.916
01/18/2021  21:59:00      541.459       15.468      -59.941      441.892      168.727      188.629   195268.546    28468.903    35581.048       27.811       12.966      541.680      248.340        0.210      333.184        2.334      864.914
01/18/2021  22:00:00      328.964      -10.784      -18.539      315.704      172.715      137.622    99668.863    29830.363    18939.735       12.853        7.422      329.141      162.248        0.243      333.046        2.102      864.917
01/18/2021  22:01:00      475.798      -39.659      -32.450      372.698      191.241      185.580   138903.461    36573.051    34439.854       21.942       10.496      477.447      222.297        0.217      333.098        2.190      864.974
01/18/2021  22:02:00      373.807       46.829      -83.892      479.556      220.719      234.250   229974.116    48716.774    54872.895       24.119       16.678      376.728      306.532        0.662      333.272        2.481      865.067
01/18/2021  22:03:00      316.841        0.398      -47.346      492.275      183.031      225.921   242335.155    33500.339    51040.108       21.468       16.344      316.841      315.850        0.994      333.281        2.498      865.080
01/18/2021  22:04:00      484.599       78.054      -59.585      420.212      183.109      194.883   176577.907    33528.849    37979.313       24.623       12.404      490.845      248.596        0.257      333.194        2.350      865.101
01/18/2021  22:05:00      462.022      104.591      -39.295      331.759      174.054      145.561   110064.257    30294.901    21188.038       19.371        8.077      473.712      184.492        0.152      333.150        2.275      865.096
01/18/2021  22:06:00      633.767      102.302      -26.514      230.792      183.225      126.980    53264.792    33571.363    16123.996       25.787        5.148      641.971      129.213        0.041      333.095        2.183      865.143
01/18/2021  22:07:00      512.969      101.094      -31.100      283.598      156.399      142.668    80427.697    24460.790    20354.159       19.976        6.262      522.836      172.473        0.109      333.134        2.248      865.183
01/18/2021  22:08:00      274.407       13.539      -47.674      384.332      117.257      173.721   147711.403    13749.104    30179.150       13.466        9.582      274.740      242.858        0.781      333.198        2.358      865.189
01/18/2021  22:09:00      356.921       37.278      -27.538      351.784      160.959      167.632   123751.674    25907.870    28100.650       15.361        8.888      358.863      219.922        0.376      333.175        2.318      865.172
01/18/2021  22:10:00      356.851       34.590      -33.396      352.128      155.372      156.872   123994.290    24140.304    24608.892       15.116        8.637      358.524      210.032        0.343      333.114        2.217      865.202
01/18/2021  22:11:00      448.606      170.803      -41.291      225.347      161.834      111.211    50781.404    26190.379    12367.868       16.071        4.467      480.021      127.169        0.070      333.037        2.088      865.234
01/18/2021  22:12:00      416.860       44.119      -36.591      293.884      182.096      123.179    86367.820    33158.958    15173.175       15.585        6.735      419.188      135.878        0.105      333.096        2.185      865.200
01/18/2021  22:13:00      457.704       -4.182      -32.308      196.844      160.863       91.147    38747.645    25877.036     8307.822       14.173        3.647      457.723       69.968        0.023      333.082        2.161      865.202
01/18/2021  22:14:00      469.089      103.175      -44.474      365.707      148.283      181.904   133741.496    21987.925    33088.935       21.070        9.441      480.302      242.675        0.255      333.219        2.392      865.226
01/18/2021  22:15:00      432.561      135.439      -34.391      198.196      142.953       71.356    39281.823    20435.542     5091.738       13.571        3.240      453.269       51.922        0.013      333.049        2.107      865.221
01/18/2021  22:16:00      503.181      168.231      -70.178      413.582      197.514      191.208   171050.405    39011.822    36560.667       26.647       12.331      530.559      261.117        0.242      333.200        2.361      865.200
01/18/2021  22:17:00      356.108      125.998      -16.249      302.160      153.901      136.853    91300.800    23685.370    18728.694       13.830        6.686      377.741      179.408        0.226      333.064        2.134      865.158
01/18/2021  22:18:00      269.072       57.731      -15.878      311.960      138.345      142.897    97319.087    19139.433    20419.481       10.640        6.844      275.195      197.864        0.517      333.046        2.106      865.181
01/18/2021  22:19:00      483.691      160.968      -64.496      426.381      125.412      199.691   181800.410    15728.077    39876.540       25.067       11.870      509.772      273.003        0.287      333.205        2.370      865.206
01/18/2021  22:20:00      545.455      168.122      -61.560      473.579      145.326      206.273   224276.716    21119.505    42548.466       30.870       14.397      570.777      288.982        0.256      333.232        2.415      865.229
01/18/2021  22:21:00      460.118      191.541      -53.673      301.590      183.252      136.369    90956.528    33581.460    18596.407       19.717        7.157      498.395      176.032        0.125      333.059        2.125      865.247
01/18/2021  22:22:00      454.788      127.979      -40.588      261.409      225.959      117.170    68334.915    51057.353    13728.734       17.896        6.656      472.452      142.018        0.090      332.992        2.013      865.284
01/18/2021  22:23:00      338.128      107.544      -47.689      288.783      147.687      136.984    83395.563    21811.498    18764.519       12.604        6.199      354.819      179.625        0.256      333.066        2.136      865.344
01/18/2021  22:24:00      434.531      150.889      -31.547      333.697      140.628      152.685   111353.774    19776.145    23312.574       18.348        7.722      459.984      209.330        0.207      333.112        2.214      865.388
01/18/2021  22:25:00      400.300      113.364      -38.835      445.032      102.901      210.248   198053.207    10588.638    44204.358       21.367       12.642      416.043      295.323        0.504      333.216        2.388      865.413
01/18/2021  22:26:00      349.021      152.123      -24.926      303.089      131.257      143.668    91862.902    17228.368    20640.391       13.763        6.487      380.733      191.419        0.253      333.055        2.119      865.436
01/18/2021  22:27:00      290.394      140.053      -17.803      275.733      109.855      134.361    76028.937    12068.038    18052.865       10.518        5.307      322.403      175.620        0.297      332.983        2.000      865.451
01/18/2021  22:28:00      359.926      162.937      -34.535      324.630      112.550      154.764   105384.335    12667.526    23951.952       14.962        7.100      395.089      214.020        0.293      333.038        2.091      865.429
01/18/2021  22:29:00      485.266      116.005      -65.342      424.991      119.901      206.627   180617.741    14376.315    42694.627       24.540       11.884      498.939      285.906        0.328      333.154        2.287      865.440
01/18/2021  22:30:00      374.336      127.124      -46.388      388.551      110.146      177.091   150971.558    12132.160    31361.163       17.641        9.723      395.333      249.673        0.399      333.098        2.192      865.457
01/18/2021  22:31:00      367.323      152.840      -36.495      389.347      154.235      179.379   151591.317    23788.449    32176.871       18.354       10.378      397.852      251.493        0.400      333.055        2.121      865.456
01/18/2021  22:32:00      523.156      178.276      -58.517      448.996      119.592      202.586   201597.709    14302.300    41041.158       28.286       12.847      552.697      287.762        0.271      333.170        2.312      865.444
01/18/2021  22:33:00      427.979      190.949      -46.409      342.040      120.590      168.564   116991.403    14541.849    28413.731       19.083        7.997      468.644      222.002        0.224      333.048        2.108      865.449
01/18/2021  22:34:00      528.102      134.948      -57.085      473.959      107.091      229.766   224637.152    11468.544    52792.214       29.457       14.445      545.071      321.361        0.348      333.155        2.290      865.495
01/18/2021  22:35:00      454.000      173.727      -32.344      330.816      104.831      148.729   109439.197    10989.561    22120.350       18.992        7.127      486.104      209.977        0.187      332.955        1.955      865.548
01/18/2021  22:36:00      416.385      205.156      -41.299      293.712      159.359      132.638    86266.584    25395.186    17592.713       17.319        6.463      464.183      174.961        0.142      332.935        1.921      865.587
01/18/2021  22:37:00      353.994      160.602      -40.496      298.904      103.527      146.965    89343.551    10717.893    21598.822       13.718        6.083      388.722      191.419        0.242      332.936        1.924      865.606
01/18/2021  22:38:00      352.392      158.986      -28.494      295.778      115.020      137.918    87484.846    13229.670    19021.422       13.498        5.987      386.597      190.570        0.243      332.887        1.842      865.567
01/18/2021  22:39:00      238.286      163.606      -21.170      286.364       92.232      138.436    82004.477     8506.689    19164.575        9.681        5.484      289.045      179.749        0.387      332.847        1.774      865.553
01/18/2021  22:40:00      282.025      164.018      -45.617      385.292      102.430      188.809   148449.806    10491.889    35648.997       15.152        9.730      326.252      262.469        0.647      332.936        1.927      865.590
01/18/2021  22:41:00      324.833      208.147      -66.161      500.413       74.343      236.232   250413.227     5526.869    55805.572       23.242       15.587      385.800      332.397        0.742      333.045        2.109      865.632
01/18/2021  22:42:00      263.115      197.911      -65.213      445.177      102.080      222.080   198182.925    10420.420    49319.685       18.523       12.896      329.239      306.057        0.864      332.988        2.012      865.614
01/18/2021  22:43:00      311.108      248.112      -48.569      361.520      104.286      167.855   130697.014    10875.668    28175.332       16.519        8.487      397.929      229.260        0.332      332.878        1.828      865.550
01/18/2021  22:44:00      337.823      211.022      -48.260      474.924       85.386      220.900   225553.258     7290.831    48796.695       22.125       14.082      398.315      313.917        0.621      332.992        2.020      865.563
01/18/2021  22:45:00      251.837      158.938      -39.285      320.174       82.107      155.120   102511.557     6741.559    24062.158       11.174        6.666      297.798      212.935        0.511      332.775        1.658      865.587
01/18/2021  22:46:00      294.775      249.293      -33.227      283.747       93.200      136.130    80512.198     8686.210    18531.388       12.891        5.386      386.056      176.145        0.208      332.796        1.691      865.600
01/18/2021  22:47:00      224.106      207.527      -34.766      237.112       83.919      119.110    56221.880     7042.377    14187.305        8.596        3.873      305.435      147.362        0.233      332.758        1.628      865.585
01/18/2021  22:48:00      245.331      199.663      -41.644      324.853       88.024      158.646   105529.444     7748.243    25168.556       12.009        6.922      316.311      216.065        0.467      332.794        1.688      865.594
01/18/2021  22:49:00      296.952      223.664      -74.248      500.521       85.395      236.996   250520.889     7292.354    56167.112       22.878       15.699      371.761      334.314        0.809      333.057        2.128      865.628
01/18/2021  22:50:00      305.699      166.341      -47.245      400.854       85.567      180.122   160684.180     7321.793    32443.805       16.186       10.022      348.025      259.103        0.554      332.963        1.968      865.663
01/18/2021  22:51:00      225.075      181.995      -31.144      256.341       70.130      120.820    65710.778     4918.201    14597.381        8.497        4.261      289.449      160.176        0.306      332.757        1.626      865.663
01/18/2021  22:52:00      208.736      191.209      -19.823      307.800      106.015      144.864    94740.579    11239.188    20985.461       10.372        6.348      283.075      200.156        0.500      332.813        1.720      865.631
01/18/2021  22:53:00      236.515      145.217      -29.396      352.141       86.983      162.032   124003.360     7566.081    26254.436       11.782        7.891      277.538      231.095        0.693      332.829        1.747      865.616
01/18/2021  22:54:00      232.376      273.529      -54.126      344.966      116.609      176.365   119001.341    13597.651    31104.534       14.769        8.185      358.910      238.552        0.442      332.883        1.836      865.644
01/18/2021  22:55:00      190.434      248.937      -26.002      125.863      100.388       77.687    15841.385    10077.713     6035.218        6.543        1.598      313.424       62.354        0.040      332.719        1.560      865.670
01/18/2021  22:56:00      268.904      235.239      -64.846      442.321      105.735      203.000   195648.187    11179.797    41209.064       18.989       12.402      357.277      291.291        0.665      332.961        1.968      865.633
01/18/2021  22:57:00      211.175      208.880      -35.324      242.142       82.468      115.622    58632.736     6800.937    13368.352        8.412        3.940      297.028      151.391        0.260      332.785        1.671      865.583
01/18/2021  22:58:00      310.919      227.762      -66.325      431.920      120.329      206.167   186554.733    14479.010    42504.844       19.819       12.177      385.417      285.688        0.549      332.944        1.939      865.577
01/18/2021  22:59:00      274.655      177.637      -59.409      492.591       76.472      234.728   242645.759     5848.025    55097.007       20.699       15.180      327.094      334.410        1.045      333.087        2.180      865.596
01/18/2021  23:00:00      203.811      206.576      -50.807      419.883      109.870      195.808   176301.676    12071.388    38340.785       15.671       11.336      290.194      279.619        0.928      332.969        1.979      865.639
01/18/2021  23:01:00      261.491      115.610      -35.079      420.744       77.225      193.414   177025.571     5963.741    37409.159       15.164       11.020      285.908      275.731        0.930      332.942        1.935      865.642
01/18/2021  23:02:00      376.124      222.709      -84.831      512.493      106.475      241.535   262648.744    11336.879    58339.363       26.523       16.616      437.114      343.365        0.617      333.105        2.209      865.638
01/18/2021  23:03:00      244.843      218.997      -55.889      377.619      106.654      186.059   142596.269    11374.984    34618.040       14.977        9.429      328.493      258.542        0.619      332.984        2.003      865.636
01/18/2021  23:04:00      273.615      156.550      -61.879      456.895       98.058      218.969   208753.067     9615.297    47947.327       18.470       13.316      315.235      311.495        0.976      333.040        2.098      865.623
01/18/2021  23:05:00      331.977      278.009      -72.707      435.072      118.729      206.826   189287.681    14096.567    42776.867       21.942       12.308      433.010      287.137        0.440      333.020        2.065      865.562
01/18/2021  23:06:00      232.884      235.660      -55.010      414.720      130.567      198.057   171992.663    17047.727    39226.492       17.048       11.413      331.316      275.337        0.691      333.023        2.069      865.532
01/18/2021  23:07:00      188.163      156.078      -25.373      379.143      116.602      175.401   143749.439    13595.920    30765.633       12.422        9.406      244.471      248.373        1.032      332.982        2.001      865.543
01/18/2021  23:08:00      303.964      185.502      -72.003      451.914       73.797      208.382   204226.394     5445.952    43422.983       19.249       12.655      356.097      299.006        0.705      333.005        2.041      865.595
01/18/2021  23:09:00      282.471      185.909      -57.376      432.070       73.642      203.574   186684.338     5423.176    41442.289       17.555       11.677      338.160      286.706        0.719      332.997        2.028      865.593
01/18/2021  23:10:00      180.878      156.860      -37.272      375.938       73.229      181.066   141329.344     5362.419    32784.727       11.906        8.974      239.420      254.178        1.127      332.967        1.976      865.584
01/18/2021  23:11:00      228.477      204.499      -47.882      404.458       89.941      192.407   163586.266     8089.428    37020.546       15.246       10.435      306.629      273.736        0.797      332.971        1.983      865.550
01/18/2021  23:12:00      257.002      169.744      -50.500      460.746       72.711      223.385   212287.193     5286.918    49900.685       18.239       13.374      307.999      314.459        1.042      332.950        1.951      865.524
01/18/2021  23:13:00      219.224      182.195      -34.706      360.658       81.707      170.364   130074.471     6676.110    29023.781       12.408        8.289      285.051      236.389        0.688      332.876        1.825      865.527
01/18/2021  23:14:00      232.871      142.827      -52.957      430.734       90.627      205.285   185531.895     8213.223    42142.002       15.661       11.794      273.182      289.960        1.127      332.976        1.992      865.534
01/18/2021  23:15:00      220.826       97.297      -48.859      446.539       59.136      203.821   199396.816     3497.031    41543.193       15.248       12.222      241.311      298.904        1.534      332.927        1.913      865.515
01/18/2021  23:16:00      149.026      119.520      -31.693      365.293       66.379      168.830   133438.704     4406.203    28503.669       10.189        8.317      191.034      243.888        1.630      332.839        1.767      865.490
01/18/2021  23:17:00      124.003      149.846      -24.968      332.499       73.726      161.273   110555.499     5435.587    26009.050        9.020        7.100      194.501      226.138        1.352      332.797        1.695      865.486
01/18/2021  23:18:00      172.006      161.321      -53.725      418.262       80.883      197.076   174942.783     6542.093    38839.076       13.936       11.016      235.819      282.760        1.438      332.924        1.907      865.483
01/18/2021  23:19:00      162.834      165.850      -48.284      491.425       82.253      232.381   241498.144     6765.536    54000.791       17.925       15.113      232.425      334.580        2.072      333.052        2.121      865.490
01/18/2021  23:20:00      103.598      128.016      -15.441      261.463       87.136      122.480    68363.027     7592.661    15001.353        5.914        4.548      164.684      167.976        1.040      332.735        1.591      865.483
01/18/2021  23:21:00      203.976      150.430      -45.995      363.347       74.965      172.700   132021.232     5619.710    29825.288       11.687        8.373      253.447      243.252        0.921      332.859        1.796      865.446
01/18/2021  23:22:00      147.902      143.370      -27.618      342.510       76.905      164.985   117313.280     5914.439    27219.952        9.679        7.522      205.985      228.275        1.228      332.835        1.758      865.437
01/18/2021  23:23:00      121.271      108.425      -22.549      272.558       90.543      131.136    74288.068     8198.073    17196.628        6.331        4.984      162.674      184.127        1.281      332.827        1.744      865.428
01/18/2021  23:24:00      209.381      151.634      -46.403      435.338       88.011      205.906   189519.235     7745.958    42397.345       15.427       11.983      258.522      293.709        1.291      332.937        1.928      865.415
01/18/2021  23:25:00      206.715      182.282      -26.595      278.414      108.978      134.414    77514.266    11876.177    18067.021        9.204        5.373      275.605      179.027        0.422      332.760        1.632      865.409
01/18/2021  23:26:00      289.279      242.929      -56.265      465.288      101.734      223.888   216493.205    10349.796    50125.753       21.136       13.848      377.753      313.127        0.687      333.010        2.050      865.397
01/18/2021  23:27:00      127.492      249.525      -41.172      392.425       83.407      185.902   153997.490     6956.718    34559.633       13.782        9.776      280.208      261.827        0.873      332.957        1.959      865.418
01/18/2021  23:28:00       47.443      267.155      -31.860      307.357       93.883      147.589    94468.208     8814.006    21782.430        9.982        6.253      271.335      202.447        0.557      332.873        1.819      865.449
01/18/2021  23:29:00      105.375      285.338      -35.068      282.661      144.168      139.467    79897.224    20784.358    19450.983       10.692        6.007      304.174      177.719        0.341      332.880        1.829      865.461
01/18/2021  23:30:00      168.996      257.595      -36.154      281.491       95.648      141.450    79237.311     9148.576    20007.982       10.228        5.420      308.083      186.310        0.366      332.876        1.824      865.456
01/18/2021  23:31:00      213.091      239.960      -32.810      240.403      114.272      108.419    57793.478    13058.026    11754.593        9.332        4.130      320.918      137.399        0.183      332.776        1.657      865.445
01/18/2021  23:32:00      252.450      239.942      -36.918      344.157      113.582      155.787   118444.176    12900.914    24269.602       13.911        7.781      348.286      215.691        0.384      332.884        1.837      865.379
01/18/2021  23:33:00      130.330      201.275      -26.508      346.254       98.710      169.336   119892.020     9743.662    28674.512       10.822        7.916      239.787      235.191        0.962      332.906        1.875      865.384
01/18/2021  23:34:00      123.260      227.272      -46.747      407.198       96.522      193.700   165810.148     9316.504    37519.761       14.079       10.632      258.545      275.721        1.137      333.041        2.099      865.416
01/18/2021  23:35:00      284.547      250.910      -71.258      399.130      101.218      189.834   159304.815    10245.043    36037.130       17.725       10.279      379.372      262.249        0.478      332.931        1.917      865.445
01/18/2021  23:36:00      233.173      156.461      -26.324      311.169       78.049      141.295    96825.987     6091.701    19964.351       10.119        6.144      280.801      198.617        0.500      332.821        1.733      865.456
01/18/2021  23:37:00      174.810      281.511      -35.499      266.847      138.565      128.316    71207.492    19200.268    16465.107       10.895        5.344      331.371      176.969        0.285      332.811        1.717      865.526
01/18/2021  23:38:00      296.746      300.455      -51.164      381.419      129.678      171.042   145480.202    16816.509    29255.459       18.621        9.578      422.293      235.181        0.310      332.863        1.804      865.547
01/18/2021  23:39:00      264.112      246.601      -41.300      269.890      121.576      137.691    72840.756    14780.644    18958.785       11.940        5.329      361.341      171.114        0.224      332.755        1.624      865.517
01/18/2021  23:40:00      246.471      201.139      -32.305      262.165       91.145      115.421    68730.260     8307.413    13321.919        9.629        4.518      318.127      148.779        0.219      332.714        1.555      865.486
01/18/2021  23:41:00      183.517      154.008      -25.539      291.179       56.042      142.773    84785.183     3140.732    20384.066        8.316        5.415      239.577      195.802        0.668      332.801        1.700      865.504
01/18/2021  23:42:00      192.308      277.318      -48.445      388.712      108.811      190.089   151096.835    11839.744    36133.717       15.761        9.954      337.472      263.617        0.610      332.893        1.854      865.505
01/18/2021  23:43:00      193.983      239.777      -40.918      230.297      124.341      114.025    53036.901    15460.762    13001.748        8.913        4.075      308.419      142.707        0.214      332.714        1.555      865.513
01/18/2021  23:44:00      182.579      267.341      -60.690      436.354      122.617      207.010   190404.535    15035.046    42853.215       17.834       12.415      323.738      290.843        0.807      332.930        1.916      865.495
01/18/2021  23:45:00      122.002      185.037      -23.926      208.909      100.413      105.311    43642.764    10082.866    11090.491        5.724        3.241      221.638      132.251        0.356      332.679        1.496      865.479
01/18/2021  23:46:00      118.523      252.145      -35.150      405.681      118.365      194.056   164576.777    14010.211    37657.770       14.751       10.812      278.613      273.073        0.961      332.865        1.807      865.454
01/18/2021  23:47:00      207.627      268.739      -33.847      149.045      135.630       64.109    22214.312    18395.528     4110.007        8.059        2.236      339.602       68.829        0.041      332.641        1.433      865.435
01/18/2021  23:48:00      262.980      414.250      -54.784      320.707      138.984      157.298   102853.231    19316.605    24742.646       19.531        7.346      490.675      211.268        0.185      332.760        1.633      865.424
01/18/2021  23:49:00      230.789      300.605      -47.951      318.584      141.286      154.210   101495.452    19961.749    23780.720       14.555        7.262      378.981      206.139        0.296      332.732        1.587      865.435
01/18/2021  23:50:00      123.062      266.725      -32.431      419.799      124.719      199.001   176231.284    15554.877    39601.512       15.931       11.569      293.746      274.484        0.873      332.852        1.786      865.435
01/18/2021  23:51:00      195.312      234.327      -53.650      518.663      112.322      245.274   269010.910    12616.322    60159.194       21.879       17.089      305.051      350.767        1.322      332.973        1.990      865.414
01/18/2021  23:52:00      259.341      278.422      -67.645      528.833      131.979      250.009   279664.207    17418.476    62504.444       25.439       17.979      380.495      347.070        0.832      332.952        1.954      865.415
01/18/2021  23:53:00      210.051      243.079      -35.624      308.189      101.301      156.239    94980.317    10261.877    24410.714       11.704        6.483      321.261      205.800        0.410      332.709        1.549      865.432
01/18/2021  23:54:00      158.773      185.865      -22.296      330.773      131.877      162.571   109410.584    17391.548    26429.312       10.671        7.662      244.447      222.591        0.829      332.790        1.682      865.423
01/18/2021  23:55:00      291.844      206.964      -70.474      582.285       82.234      280.830   339055.771     6762.393    78865.489       27.874       21.234      357.780      396.336        1.227      333.005        2.045      865.380
01/18/2021  23:56:00      171.778      200.010      -50.003      505.890       96.985      233.169   255924.384     9406.117    54367.774       19.579       15.985      263.651      332.244        1.588      332.923        1.906      865.342
01/18/2021  23:57:00      235.646      282.553      -54.828      420.164      129.701      200.190   176538.064    16822.304    40076.197       18.585       11.672      367.921      279.947        0.579      332.785        1.675      865.288
01/18/2021  23:58:00      238.158      270.524      -48.947      395.489      112.310      179.016   156411.893    12613.543    32046.710       16.664       10.054      360.420      252.831        0.492      332.695        1.527      865.282
01/18/2021  23:59:00      152.404      291.013      -34.946      383.133      181.469      176.998   146790.986    32930.867    31328.352       16.005       10.553      328.505      253.725        0.597      332.720        1.568      865.337
01/19/2021  00:00:00      185.300      338.419      -52.332      395.883      140.281      183.833   156723.519    19678.873    33794.726       18.085       10.510      385.828      260.961        0.457      332.758        1.631      865.347
01/19/2021  00:01:00      276.343      233.459      -51.535      472.538      107.587      223.282   223292.099    11575.049    49855.070       20.906       14.236      361.758      315.049        0.758      332.790        1.686      865.346
01/19/2021  00:02:00      191.452      178.425      -21.642      291.239       97.008      139.350    84819.930     9410.490    19418.379        9.128        5.682      261.705      186.882        0.510      332.630        1.419      865.335
01/19/2021  00:03:00      215.902      147.619      -53.196      435.438       94.181      210.642   189605.964     8869.999    44370.004       15.699       12.142      261.544      295.360        1.275      332.818        1.733      865.350
01/19/2021  00:04:00      295.671      229.161      -51.829      423.461      110.025      202.313   179319.382    12105.468    40930.390       18.744       11.618      374.081      280.090        0.561      332.730        1.587      865.320
01/19/2021  00:05:00      125.727      203.396      -19.192      175.421       94.305       90.196    30772.679     8893.440     8135.405        5.266        2.390      239.117      115.631        0.234      332.577        1.329      865.302
01/19/2021  00:06:00      110.907      259.403      -41.893      344.552      110.023      164.528   118716.327    12105.046    27069.363       11.958        7.895      282.117      227.855        0.652      332.722        1.571      865.255
01/19/2021  00:07:00      123.021      315.182      -37.376      322.066      145.920      153.900   103726.626    21292.689    23685.171       13.226        7.435      338.340      217.056        0.412      332.676        1.493      865.213
01/19/2021  00:08:00      144.068      144.979      -43.623      417.925       64.863      195.518   174661.577     4207.247    38227.282       13.034       10.855      204.388      281.529        1.897      332.730        1.587      865.181
01/19/2021  00:09:00      102.704      363.480      -36.962      310.502      126.086      151.295    96411.573    15897.686    22890.252       13.959        6.760      377.711      209.963        0.309      332.645        1.441      865.167
01/19/2021  00:10:00      147.736      388.595      -64.629      483.745      152.583      236.958   234009.201    23281.667    56149.198       24.516       15.672      415.730      329.237        0.627      332.805        1.711      865.166
01/19/2021  00:11:00      208.112      359.766      -43.333      283.071      158.565      141.989    80129.379    25142.966    20160.762       15.000        6.272      415.623      189.356        0.208      332.589        1.351      865.141
01/19/2021  00:12:00      160.390      348.634      -53.164      366.287      121.442      180.408   134166.045    14748.052    32546.893       16.574        9.073      383.758      247.594        0.416      332.699        1.531      865.138
01/19/2021  00:13:00      139.661      320.291      -65.650      478.603      120.964      230.535   229060.974    14632.245    53146.475       21.156       14.842      349.416      325.294        0.867      332.812        1.723      865.138
01/19/2021  00:14:00       73.630      329.744      -24.921      334.203      179.774      157.508   111691.618    32318.616    24808.692       14.176        8.441      337.865      214.532        0.403      332.621        1.403      865.105
01/19/2021  00:15:00      119.899      241.069      -39.803      329.405       91.149      161.941   108507.665     8308.053    26225.034       10.853        7.152      269.240      222.340        0.682      332.708        1.548      865.026
01/19/2021  00:16:00       44.009      289.712      -37.302      351.244      105.784      167.033   123372.482    11190.215    27899.952       12.483        8.123      293.036      231.030        0.622      332.685        1.510      865.015
01/19/2021  00:17:00      154.488      230.885      -40.765      362.130       97.931      177.701   131138.042     9590.489    31577.763       12.554        8.615      277.803      246.181        0.785      332.696        1.528      865.024
01/19/2021  00:18:00       77.601      185.975      -26.962      378.107       82.575      181.978   142965.169     6818.698    33115.848       11.208        9.145      201.516      257.441        1.632      332.781        1.669      865.033
01/19/2021  00:19:00      145.000      190.415      -30.689      332.798      117.465      154.036   110754.452    13797.961    23727.136       10.322        7.414      239.338      218.500        0.833      332.633        1.424      865.088
01/19/2021  00:20:00      129.790      217.771      -23.345      322.603       99.105      153.597   104072.476     9821.806    23592.175       10.112        6.874      253.514      213.183        0.707      332.654        1.457      865.094
01/19/2021  00:21:00      149.367      110.018      -26.512      368.681       76.129      177.365   135925.900     5795.643    31458.460       10.411        8.659      185.512      250.346        1.821      332.667        1.481      865.076
01/19/2021  00:22:00      136.694      159.453      -48.965      479.148       91.905      229.513   229582.911     8446.503    52676.332       16.855       14.535      210.025      326.702        2.420      332.848        1.785      865.156
01/19/2021  00:23:00      140.097      237.882      -31.813      299.297      130.532      142.206    89578.552    17038.638    20222.421       10.201        6.342      276.071      200.931        0.530      332.620        1.401      865.222
01/19/2021  00:24:00      186.901      249.391      -49.405      472.164       98.185      224.507   222938.996     9640.288    50403.602       19.122       14.149      311.653      317.574        1.038      332.743        1.609      865.197
01/19/2021  00:25:00      151.260      382.141      -46.478      367.477      125.948      171.082   135039.533    15862.990    29268.896       17.558        9.009      410.988      240.061        0.341      332.611        1.388      865.117
01/19/2021  00:26:00      110.644      231.560      -37.001      322.091      113.041      156.388   103742.632    12778.248    24457.222       10.407        7.049      256.636      218.897        0.728      332.565        1.312      864.981
01/19/2021  00:27:00      180.308      254.899      -38.961      418.022      125.144      198.545   174742.485    15661.018    39420.295       16.436       11.491      312.225      282.653        0.820      332.665        1.478      864.906
01/19/2021  00:28:00      216.543      258.877      -65.569      557.429      141.781      263.279   310727.202    20101.923    69315.783       25.909       20.007      337.503      377.753        1.253      332.823        1.745      864.923
01/19/2021  00:29:00      187.982      219.938      -51.329      430.452      120.828      208.698   185289.029    14599.299    43554.812       16.484       12.172      289.327      291.759        1.017      332.624        1.411      864.903
01/19/2021  00:30:00      173.916      190.422      -41.477      323.545      104.418      157.120   104681.467    10903.124    24686.625       10.422        7.014      257.890      214.520        0.692      332.544        1.275      864.924
01/19/2021  00:31:00       62.223      102.846      -24.028      391.935       57.907      186.336   153612.670     3353.261    34721.281       10.332        9.584      120.204      267.262        4.943      332.651        1.457      864.936
01/19/2021  00:32:00       32.061      139.262       -7.373      152.850       66.551       69.859    23363.026     4429.040     4880.276        2.657        1.634      142.905       91.576        0.411      332.475        1.161      864.889
01/19/2021  00:33:00      157.169      171.015      -54.992      567.601       98.987      272.449   322170.411     9798.439    74228.464       23.150       20.310      232.268      389.577        2.813      332.839        1.771      864.857
01/19/2021  00:34:00      125.081      375.308      -65.561      489.026      137.519      240.247   239146.098    18911.492    57718.548       23.822       15.789      395.603      328.395        0.689      332.636        1.430      864.857
01/19/2021  00:35:00       93.540      301.761      -34.374      424.857      132.482      204.401   180503.091    17551.403    41779.961       17.036       11.992      315.926      288.156        0.832      332.561        1.308      864.875
01/19/2021  00:36:00      231.427      255.296      -68.418      548.199      111.042      265.132   300521.929    12330.340    70294.892       25.320       19.157      344.579      373.488        1.175      332.718        1.572      864.838
01/19/2021  00:37:00      163.420      393.221      -55.409      323.419      117.289      151.013   104599.953    13756.645    22804.965       16.275        7.058      425.828      211.104        0.246      332.394        1.028      864.839
01/19/2021  00:38:00      131.830      372.127      -38.676      285.899       99.037      140.703    81738.088     9808.319    19797.245       13.433        5.567      394.789      182.816        0.214      332.411        1.055      864.855
01/19/2021  00:39:00      177.246      280.185      -74.328      567.905       98.474      271.182   322515.869     9697.188    73539.408       26.051       20.288      331.541      385.530        1.352      332.719        1.572      864.794
01/19/2021  00:40:00      234.908      155.980      -34.548      381.241       86.198      180.339   145344.742     7430.106    32522.265       13.296        9.265      281.978      248.320        0.776      332.383        1.010      864.850
01/19/2021  00:41:00      169.154      268.331      -25.935      223.450       90.797       94.636    49930.086     8244.172     8955.921        8.419        3.357      317.198      107.044        0.114      332.270        0.819      864.890
01/19/2021  00:42:00      184.920      331.216      -54.067      403.557      161.118      188.773   162858.459    25958.874    35635.203       18.559       11.223      379.341      262.778        0.480      332.417        1.068      864.803
01/19/2021  00:43:00      209.981      182.223      -16.848      341.920      146.270      169.461   116909.137    21394.809    28716.934       12.227        8.351      278.024      226.824        0.666      332.311        0.893      864.731
01/19/2021  00:44:00      154.585      269.478      -36.137      400.862      129.248      186.429   160690.037    16705.098    34755.950       15.494       10.608      310.668      265.507        0.730      332.445        1.116      864.733
01/19/2021  00:45:00      178.732      156.044      -51.729      439.836       69.486      205.103   193455.855     4828.328    42067.429       14.961       12.018      237.266      296.217        1.559      332.436        1.102      864.747
01/19/2021  00:46:00      158.615      178.896      -32.737      435.738       93.460      207.020   189868.034     8734.857    42857.206       14.980       12.073      239.087      292.702        1.499      332.380        1.009      864.822
01/19/2021  00:47:00      107.077       86.537      -11.771      284.815       67.828      141.993    81119.759     4600.687    20161.938        6.247        5.294      137.674      194.635        1.999      332.286        0.851      864.847
01/19/2021  00:48:00      199.642      229.063      -40.637      420.228      153.497      200.363   176591.298    23561.394    40145.430       16.709       12.015      303.853      284.143        0.874      332.414        1.063      864.806
01/19/2021  00:49:00      170.635      175.508      -45.346      425.127       87.338      204.396   180732.541     7627.892    41777.920       14.601       11.507      244.784      289.952        1.403      332.398        1.040      864.830
01/19/2021  00:50:00      202.977      150.332      -50.227      463.094      106.415      225.178   214455.590    11324.242    50705.011       17.135       13.824      252.586      318.513        1.590      332.451        1.128      864.917
01/19/2021  00:51:00      161.844      121.609      -28.405      309.476      106.960      149.333    95775.147    11440.354    22300.477        8.562        6.476      202.441      205.053        1.026      332.239        0.773      864.978
01/19/2021  00:52:00      218.359       83.707      -29.613      321.604      132.207      158.734   103429.245    17478.717    25196.519       10.080        7.305      233.854      215.391        0.848      332.245        0.783      864.985
01/19/2021  00:53:00      151.383       66.650      -17.324      338.172       61.874      159.188   114360.283     3828.434    25340.852        8.556        7.176      165.406      227.289        1.888      332.191        0.696      865.072
01/19/2021  00:54:00      261.680       60.865      -27.037      361.726       62.096      175.893   130845.399     3855.953    30938.390       11.924        8.282      268.665      247.351        0.848      332.224        0.749      865.072
01/19/2021  00:55:00      230.700      100.966      -43.358      441.173       74.023      201.906   194633.883     5479.390    40765.964       15.304       12.044      251.827      291.846        1.343      332.281        0.846      865.072
01/19/2021  00:56:00      230.105       46.296      -29.630      408.604       70.662      199.049   166957.448     4993.185    39620.584       13.373       10.579      234.716      280.120        1.424      332.193        0.700      865.106
01/19/2021  00:57:00      150.147       96.637      -24.678      275.911      168.083      148.851    76126.655    28251.883    22156.649        7.949        6.327      178.558      162.494        0.828      332.162        0.646      864.998
01/19/2021  00:58:00       95.142       66.384       -3.119      347.015       55.603      163.971   120419.289     3091.679    26886.567        8.190        7.520      116.012      233.609        4.055      332.195        0.704      864.898
01/19/2021  00:59:00       69.564       34.161       -9.321      247.796       63.062      121.731    61402.688     3976.809    14818.315        4.313        4.010       77.499      168.769        4.742      332.166        0.653      864.945
01/19/2021  01:00:00      128.362       56.597      -31.520      498.790       54.342      241.338   248791.418     2953.022    58243.945       16.527       15.499      140.285      344.486        6.030      332.349        0.962      865.012
01/19/2021  01:01:00      120.000       84.662      -28.358      434.209       63.982      207.977   188537.621     4093.689    43254.603       12.908       11.794      146.860      296.966        4.089      332.293        0.868      865.012
01/19/2021  01:02:00      116.507       49.880      -18.777      431.989       54.965      208.586   186614.567     3021.158    43508.264       12.473       11.657      126.735      296.737        5.482      332.349        0.960      865.026
01/19/2021  01:03:00       44.429       77.919       -3.955      342.973       54.274      162.996   117630.783     2945.680    26567.751        7.757        7.357       89.696      232.265        6.705      332.274        0.834      865.012
01/19/2021  01:04:00      115.585       44.764      -55.290      554.075       43.906      269.731   306998.749     1927.754    72754.921       19.997       19.084      123.950      384.562        9.626      332.611        1.397      864.927
01/19/2021  01:05:00       79.206       78.440      -43.320      560.261       55.876      270.955   313891.949     3122.133    73416.879       20.228       19.522      111.474      386.636       12.030      332.477        1.177      864.939
01/19/2021  01:06:00       86.841       68.908      -27.775      466.077       62.446      223.361   217227.728     3899.468    49890.242       14.198       13.551      110.859      316.893        8.171      332.504        1.217      864.921
01/19/2021  01:07:00       73.913      132.826       -7.339      322.050      101.748      159.915   103716.104    10352.740    25572.725        8.137        6.982      152.006      219.613        2.087      332.197        0.707      864.864
01/19/2021  01:08:00      145.975      134.049      -35.650      423.558       68.707      199.366   179401.543     4720.621    39746.810       13.216       11.193      198.186      286.963        2.097      332.294        0.869      864.850
01/19/2021  01:09:00      129.288       49.935      -22.709      413.948       55.598      202.889   171353.173     3091.124    41164.147       11.762       10.780      138.597      286.080        4.261      332.239        0.777      864.848
01/19/2021  01:10:00      104.820       32.823      -18.426      384.781       53.030      181.601   148056.102     2812.139    32979.071        9.809        9.192      109.839      261.518        5.669      332.177        0.675      864.843
01/19/2021  01:11:00      175.257       74.442       -8.177      278.474       60.572      133.656    77547.643     3669.027    17864.011        6.768        4.954      190.412      185.005        0.944      332.148        0.622      864.880
01/19/2021  01:12:00      144.214       32.213      -32.867      361.992       68.400      178.778   131038.536     4678.553    31961.693        9.526        8.384      147.768      250.361        2.871      332.290        0.861      864.913
01/19/2021  01:13:00      128.169       51.849      -15.859      318.202       58.931      154.338   101252.417     3472.818    23820.350        7.393        6.427      138.259      214.995        2.418      332.197        0.705      864.984
01/19/2021  01:14:00      195.796      101.383       -3.841      221.877       75.601      105.357    49229.232     5715.538    11100.110        5.732        3.302      220.487      140.371        0.405      332.063        0.481      865.018
01/19/2021  01:15:00      181.956       17.915      -34.636      445.595       89.077      207.586   198554.525     7934.640    43092.016       14.205       12.479      182.836      299.434        2.682      332.438        1.105      865.050
01/19/2021  01:16:00      189.176      118.685      -29.694      399.260      102.608      192.187   159408.864    10528.449    36935.974       12.877       10.344      223.324      270.465        1.467      332.310        0.894      865.063
01/19/2021  01:17:00      208.568      173.064      -24.810      264.918      100.110      128.235    70181.645    10022.024    16444.340        8.534        4.832      271.020      170.770        0.397      332.205        0.714      864.998
01/19/2021  01:18:00      192.601       68.038      -26.933      459.680       87.866      225.199   211305.252     7720.516    50714.692       15.604       13.487      204.266      317.805        2.421      332.381        1.014      864.991
01/19/2021  01:19:00      228.495      112.084      -31.024      331.104       86.231      156.148   109630.116     7435.755    24382.107       10.356        7.072      254.505      216.713        0.725      332.200        0.709      865.008
01/19/2021  01:20:00      210.049       57.060      -28.452      405.704       70.150      190.350   164595.372     4920.974    36233.306       12.692       10.287      217.661      271.124        1.552      332.297        0.870      864.987
01/19/2021  01:21:00      207.850      124.200      -39.647      428.533       73.784      194.433   183640.127     5444.066    37804.249       14.350       11.344      242.131      280.523        1.342      332.318        0.905      864.972
01/19/2021  01:22:00      213.054      102.360      -23.096      396.579       66.092      181.444   157275.016     4368.172    32921.953       12.544        9.728      236.368      262.834        1.236      332.261        0.812      864.958
01/19/2021  01:23:00      205.022       64.131      -10.902      381.180       70.602      176.450   145298.377     4984.628    31134.511       11.380        9.071      214.818      252.008        1.376      332.254        0.800      864.879
01/19/2021  01:24:00      231.353       66.123      -31.483      350.610       73.259      170.283   122927.307     5366.852    28996.458       10.806        7.865      240.617      239.519        0.991      332.259        0.807      864.858
01/19/2021  01:25:00      275.490      107.409      -53.372      526.918       59.094      244.933   277642.762     3492.063    59992.371       21.563       17.056      295.688      354.990        1.441      332.442        1.113      864.974
01/19/2021  01:26:00      241.724      147.627      -32.481      377.684       77.735      165.741   142644.962     6042.747    27470.099       12.868        8.808      283.239      239.315        0.714      332.211        0.727      865.045
01/19/2021  01:27:00      143.009      111.825      -27.973      422.816       62.469      202.151   178773.735     3902.332    40864.928       12.859       11.177      181.539      289.937        2.551      332.245        0.787      865.037
01/19/2021  01:28:00      184.080       70.041      -39.997      521.728       73.177      254.736   272200.192     5354.805    64890.586       19.135       17.122      196.955      361.597        3.371      332.419        1.077      865.027
01/19/2021  01:29:00      271.046      136.284      -10.186      185.069      100.488       93.656    34250.565    10097.757     8771.385        7.262        2.656      303.380      111.730        0.136      332.045        0.450      865.015
01/19/2021  01:30:00      250.207      105.531       -6.657      209.912      112.084       94.215    44063.118    12562.856     8876.540        6.963        3.275      271.552      114.779        0.179      332.078        0.506      864.995
01/19/2021  01:31:00      230.118      130.475      -33.387      376.284      105.923      173.657   141589.642    11219.595    30156.857       12.699        9.148      264.534      247.839        0.878      332.207        0.721      865.039
01/19/2021  01:32:00      201.231      101.555      -13.034      333.439       99.505      156.717   111181.520     9901.306    24560.062        9.828        7.282      225.405      218.101        0.936      332.140        0.611      865.104
01/19/2021  01:33:00      270.545      106.430      -29.200      272.930      134.957      131.370    74490.919    18213.281    17258.195        9.765        5.498      290.727      175.158        0.363      332.157        0.636      865.126
01/19/2021  01:34:00      278.068      181.536      -40.351      381.320       93.677      171.113   145405.320     8775.358    29279.538       14.764        9.173      332.080      244.351        0.541      332.206        0.719      865.075
01/19/2021  01:35:00      278.161      145.792      -47.140      494.404       84.309      238.845   244435.089     7107.929    57046.800       20.465       15.429      314.052      336.134        1.146      332.339        0.942      865.031
01/19/2021  01:36:00      270.037       95.246      -37.136      403.976       90.462      186.961   163196.638     8183.459    34954.557       14.481       10.317      286.342      264.488        0.853      332.226        0.754      865.021
01/19/2021  01:37:00      240.327      108.973      -31.962      499.520       97.928      233.441   249520.190     9589.950    54494.553       19.206       15.680      263.879      334.859        1.610      332.322        0.915      864.982
01/19/2021  01:38:00      190.270      133.024      -13.626      205.570      102.967       95.175    42259.053    10602.105     9058.196        5.799        3.096      232.159      123.165        0.281      332.049        0.457      864.925
01/19/2021  01:39:00      246.331      130.616      -17.844      347.406       89.229      162.454   120690.669     7961.757    26391.443       11.652        7.752      278.818      224.667        0.649      332.126        0.587      864.896
01/19/2021  01:40:00      295.410      168.655      -45.498      491.756       91.188      235.978   241823.795     8315.230    55685.400       21.174       15.291      340.165      330.287        0.943      332.267        0.823      864.873
01/19/2021  01:41:00      407.722      302.292      -61.828      461.323      112.501      205.963   212819.104    12656.373    42420.559       26.461       13.395      507.560      287.563        0.321      332.230        0.761      864.876
01/19/2021  01:42:00      309.328      122.357      -64.091      525.173      115.707      261.925   275806.428    13388.086    68604.874       23.621       17.890      332.649      361.442        1.181      332.369        0.993      864.897
01/19/2021  01:43:00      387.551      245.693      -33.898      279.253      155.396      114.137    77982.017    24147.892    13027.294       16.341        5.758      458.869      144.028        0.099      332.037        0.437      864.923
01/19/2021  01:44:00      458.291      190.305      -59.594      494.307      125.132      226.476   244339.403    15658.047    51291.227       28.048       15.564      496.233      322.529        0.422      332.301        0.880      864.882
01/19/2021  01:45:00      364.954      156.561      -46.870      446.084      111.167      211.971   198991.176    12358.114    44931.501       20.804       12.814      397.118      297.862        0.563      332.237        0.773      864.865
01/19/2021  01:46:00      346.818      132.275      -38.275      451.100      132.658      208.764   203491.137    17598.066    43582.292       20.190       13.234      371.187      295.691        0.635      332.200        0.711      864.864
01/19/2021  01:47:00      322.456      183.569      -55.094      410.717      131.585      187.441   168688.324    17314.585    35133.961       18.088       11.057      371.046      265.211        0.511      332.169        0.660      864.819
01/19/2021  01:48:00      407.845      158.393      -33.637      368.929      121.559      169.408   136108.502    14776.553    28698.955       18.603        8.979      437.522      229.521        0.275      332.045        0.453      864.737
01/19/2021  01:49:00      490.543      173.651      -51.847      507.305      126.200      233.724   257358.506    15926.390    54626.797       30.063       16.396      520.372      330.118        0.402      332.233        0.765      864.698
01/19/2021  01:50:00      382.664      207.278      -58.640      460.843      108.421      216.391   212376.252    11755.079    46825.182       23.184       13.548      435.196      301.068        0.479      332.218        0.742      864.726
01/19/2021  01:51:00      447.567      187.547      -44.380      385.674      144.057      187.329   148744.786    20752.320    35092.333       22.098       10.229      485.273      250.441        0.266      332.153        0.631      864.744
01/19/2021  01:52:00      446.010      183.129      -25.582      310.707      130.944      134.790    96538.955    17146.332    18168.351       18.246        6.593      482.142      172.910        0.129      332.052        0.463      864.736
01/19/2021  01:53:00      333.035      218.900      -35.300      303.373      125.373      137.549    92035.296    15718.397    18919.657       14.335        6.334      398.534      180.451        0.205      332.056        0.469      864.698
01/19/2021  01:54:00      414.904      245.159      -34.255      230.911       98.763      110.774    53319.866     9754.180    12270.913       15.437        3.767      481.921      136.167        0.080      331.998        0.373      864.685
01/19/2021  01:55:00      308.992      191.549      -40.674      384.497      111.272      184.500   147837.973    12381.453    34040.404       16.400        9.713      363.547      253.486        0.486      332.093        0.533      864.735
01/19/2021  01:56:00      455.300      171.360      -45.243      368.310      163.049      152.950   135652.365    26584.921    23393.839       21.213        9.282      486.480      218.048        0.201      332.103        0.546      864.780
01/19/2021  01:57:00      397.995      162.412      -63.677      513.042      125.400      245.615   263211.735    15725.048    60326.560       26.398       16.963      429.858      343.319        0.638      332.312        0.899      864.808
01/19/2021  01:58:00      312.974       92.229      -15.158      314.658      124.230      158.771    99009.667    15433.177    25208.366       12.314        6.983      326.281      203.841        0.390      332.047        0.454      864.801
01/19/2021  01:59:00      451.303      232.835      -41.543      224.053      129.458      103.774    50199.756    16759.299    10769.012       16.865        3.886      507.825      121.023        0.057      332.006        0.386      864.771
01/19/2021  02:00:00      395.345      192.907      -45.266      425.063      120.360      190.043   180678.795    14486.575    36116.179       21.337       11.564      439.898      267.175        0.369      332.173        0.666      864.736
01/19/2021  02:01:00      412.230      253.335      -47.813      378.822      101.953      172.709   143506.117    10394.315    29828.360       21.003        9.186      483.852      236.967        0.240      332.113        0.564      864.727
01/19/2021  02:02:00      372.687      202.648      -33.555      335.083      100.447      154.826   112280.550    10089.574    23971.121       16.368        7.317      424.219      212.859        0.252      332.037        0.439      864.709
01/19/2021  02:03:00      277.916      183.489      -30.444      332.091       84.212      160.314   110284.736     7091.610    25700.624       12.742        7.154      333.025      217.641        0.427      332.028        0.423      864.681
01/19/2021  02:04:00      377.647      248.544      -75.892      490.055      118.216      244.298   240153.477    13975.077    59681.689       26.192       15.691      452.097      336.991        0.556      332.214        0.736      864.704
01/19/2021  02:05:00      235.159      116.538      -15.848      368.041      113.662      179.423   135453.899    12919.083    32192.668       12.481        9.028      262.452      244.800        0.870      332.071        0.496      864.744
01/19/2021  02:06:00      338.053      247.822      -55.187      424.009      142.258      191.019   179783.680    20237.334    36488.292       20.758       11.825      419.161      273.013        0.424      332.104        0.551      864.783
01/19/2021  02:07:00      234.790      238.586      -39.852      361.586      120.238      173.874   130744.117    14457.148    30232.021       14.450        8.772      334.739      238.321        0.507      332.050        0.460      864.804
01/19/2021  02:08:00      369.860      279.316      -57.903      356.277      103.613      172.495   126933.609    10735.598    29754.557       19.276        8.371      463.480      231.981        0.251      332.066        0.487      864.852
01/19/2021  02:09:00      468.003      265.282      -36.694      334.861      159.122      146.219   112131.641    25319.655    21379.972       22.476        7.942      537.960      199.273        0.137      331.960        0.314      864.878
01/19/2021  02:10:00      278.157      179.881      -45.664      417.845      112.382      197.579   174594.045    12629.639    39037.328       16.899       11.313      331.253      274.935        0.689      332.091        0.531      864.911
01/19/2021  02:11:00      347.439      186.430      -34.685      340.988       95.537      157.159   116273.040     9127.275    24698.882       15.335        7.505      394.297      212.230        0.290      332.002        0.381      864.933
01/19/2021  02:12:00      355.685      138.874      -34.264      405.920      132.972      196.594   164770.795    17681.604    38649.276       18.399       11.055      381.835      266.390        0.487      332.027        0.425      864.949
01/19/2021  02:13:00      288.627      236.026      -47.711      367.966      125.984      175.149   135398.886    15871.856    30677.332       16.158        9.097      372.845      232.428        0.389      332.011        0.397      864.942
01/19/2021  02:14:00      275.329      224.757      -33.884      345.067      140.867      160.753   119070.951    19843.578    25841.615       14.608        8.238      355.418      220.672        0.385      331.974        0.336      864.910
01/19/2021  02:15:00      386.738      250.446      -41.364      401.139      124.325      189.691   160912.673    15456.606    35982.663       21.313       10.618      460.749      261.206        0.321      332.045        0.455      864.902
01/19/2021  02:16:00      305.174      189.944      -65.096      531.946       86.323      249.072   282966.334     7451.615    62036.805       24.288       17.623      359.457      354.376        0.972      332.169        0.663      864.930
01/19/2021  02:17:00      248.238      197.840      -35.668      347.433       86.607      175.172   120709.992     7500.784    30685.128       13.043        7.945      317.431      232.709        0.537      331.941        0.283      864.947
01/19/2021  02:18:00      362.615      189.085      -38.077      374.155      119.859      176.235   139991.795    14366.141    31058.908       17.702        9.271      408.953      239.244        0.342      331.938        0.277      864.917
01/19/2021  02:19:00      300.505      138.480      -26.442      419.597      115.570      194.358   176061.896    13356.501    37775.018       16.864       11.360      330.877      275.885        0.695      331.983        0.353      864.948
01/19/2021  02:20:00      355.071      234.535      -56.452      415.312      108.274      191.365   172484.038    11723.308    36620.477       20.250       11.041      425.538      264.983        0.388      331.981        0.349      864.960
01/19/2021  02:21:00      323.145      187.936      -53.887      418.456       95.549      207.525   175105.762     9129.534    43066.569       18.493       11.365      373.822      286.456        0.587      332.040        0.448      864.923
01/19/2021  02:22:00      327.705      181.480      -30.744      293.168      113.954      145.161    85947.623    12985.477    21071.760       13.061        6.000      374.601      191.301        0.261      331.849        0.130      864.855
01/19/2021  02:23:00      255.418      166.018      -35.172      372.360       95.853      174.222   138651.957     9187.814    30353.360       13.608        8.910      304.631      245.765        0.651      331.871        0.167      864.818
01/19/2021  02:24:00      322.011      238.845      -48.752      423.277       83.188      202.758   179163.691     6920.269    41110.898       19.511       11.360      400.922      278.151        0.481      331.902        0.219      864.832
01/19/2021  02:25:00      305.858      239.884      -47.903      365.063      120.727      173.215   133270.647    14574.940    30003.546       16.558        8.892      388.707      237.288        0.373      331.855        0.140      864.844
01/19/2021  02:26:00      278.841      204.014      -24.088      292.948      101.064      130.116    85818.584    10213.840    16930.052       11.643        5.648      345.505      176.939        0.262      331.797        0.044      864.872
01/19/2021  02:27:00      297.124      223.245      -38.731      406.881       87.348      183.933   165552.386     7629.611    33831.392       17.327       10.351      371.646      259.600        0.488      331.836        0.109      864.904
01/19/2021  02:28:00      348.430      182.410      -52.338      456.380      125.317      214.451   208282.749    15704.463    45989.092       21.364       13.499      393.290      300.693        0.585      331.966        0.328      864.930
01/19/2021  02:29:00      304.743      208.218      -50.962      472.008      119.949      217.992   222791.399    14387.775    47520.673       21.170       14.235      369.084      311.807        0.714      331.929        0.265      864.983
01/19/2021  02:30:00      275.017      183.132      -30.598      458.331       83.130      210.164   210067.422     6910.564    44168.925       18.557       13.057      330.411      297.629        0.811      331.904        0.224      865.024
01/19/2021  02:31:00      348.720      231.384      -69.823      495.351      100.278      229.914   245373.074    10055.669    52860.606       24.409       15.414      418.502      326.975        0.610      331.966        0.327      865.030
01/19/2021  02:32:00      243.010      158.363      -42.335      454.909       90.288      214.002   206941.856     8151.926    45797.033       17.335       13.045      290.056      305.039        1.106      331.819        0.085      865.002
01/19/2021  02:33:00      287.560      183.419      -58.028      542.985       79.383      262.790   294832.965     6301.730    69058.640       24.487       18.510      341.077      370.926        1.183      331.922        0.257      864.963
01/19/2021  02:34:00      237.032      197.347      -34.615      306.319      103.108      138.494    93831.120    10631.226    19180.613       10.996        6.182      308.431      190.899        0.383      331.620       -0.248      864.869
01/19/2021  02:35:00      297.619      217.866      -53.569      472.002       82.205      228.930   222786.351     6757.639    52408.896       21.037       14.098      368.840      317.264        0.740      331.797        0.048      864.820
01/19/2021  02:36:00      343.313      259.465      -77.260      531.647      156.495      249.887   282648.651    24490.570    62443.695       28.029       18.479      430.333      337.073        0.614      331.950        0.301      864.815
01/19/2021  02:37:00      294.213      208.748      -50.866      541.429       91.894      247.704   293144.897     8444.554    61357.496       24.776       18.147      360.744      358.590        0.988      331.917        0.247      864.819
01/19/2021  02:38:00      288.319      237.331      -76.758      525.610       93.728      254.856   276265.973     8784.970    64951.757       24.760       17.500      373.435      359.067        0.925      331.936        0.279      864.804
01/19/2021  02:39:00      223.013      232.163      -33.376      371.296       91.257      179.775   137860.968     8327.833    32319.126       14.159        8.925      321.923      247.283        0.590      331.712       -0.096      864.804
01/19/2021  02:40:00      309.640      210.939      -50.817      508.290       97.831      230.233   258358.315     9570.914    53007.283       23.188       16.047      374.663      331.068        0.781      331.846        0.130      864.813
01/19/2021  02:41:00      309.611      210.875      -46.716      422.040      101.857      190.943   178118.123    10374.859    36459.343       18.368       11.248      374.603      272.012        0.527      331.738       -0.052      864.824
01/19/2021  02:42:00      274.195      196.088      -44.210      340.227      197.240      179.675   115754.074    38903.704    32283.002       15.122        9.347      337.095      198.591        0.347      331.693       -0.125      864.842
01/19/2021  02:43:00      339.106      269.602      -76.935      483.417       99.011      234.077   233691.661     9803.262    54792.008       24.588       14.914      433.219      327.214        0.570      331.860        0.152      864.863
01/19/2021  02:44:00      315.216      228.604      -54.714      467.930      111.531      230.533   218958.747    12439.192    53145.636       21.952       14.227      389.385      314.033        0.650      331.812        0.071      864.885
01/19/2021  02:45:00      306.311      240.114      -45.516      376.303       95.483      183.552   141604.201     9117.070    33691.455       16.894        9.221      389.205      248.122        0.406      331.713       -0.092      864.895
01/19/2021  02:46:00      235.287      220.504      -26.380      237.067       96.831      119.966    56200.847     9376.336    14391.861        9.231        3.998      322.463      149.955        0.216      331.575       -0.324      864.895
01/19/2021  02:47:00      292.339      288.133      -47.842      373.555       97.902      175.539   139543.512     9584.844    30814.040       17.532        8.997      410.467      241.310        0.346      331.705       -0.108      864.869
01/19/2021  02:48:00      238.990      238.947      -44.090      299.416      113.741      153.833    89649.892    12937.079    23664.668       12.118        6.313      337.953      200.311        0.351      331.602       -0.277      864.879
01/19/2021  02:49:00      309.330      231.609      -55.028      409.697       90.368      198.179   167851.977     8166.285    39274.971       18.378       10.765      386.430      272.926        0.499      331.737       -0.052      864.855
01/19/2021  02:50:00      267.411      178.033      -49.361      437.015       76.226      211.704   190981.813     5810.396    44818.736       17.357       12.081      321.255      294.544        0.841      331.718       -0.082      864.846
01/19/2021  02:51:00      260.101      173.968      -31.801      328.849       87.191      155.394   108141.799     7602.198    24147.316       11.938        6.995      312.917      210.570        0.453      331.623       -0.243      864.872
01/19/2021  02:52:00      307.431      246.987      -40.866      268.105       86.905      130.171    71880.158     7552.562    16944.383       12.676        4.819      394.356      165.800        0.177      331.584       -0.307      864.900
01/19/2021  02:53:00      275.433      255.020      -43.898      330.997      102.737      159.852   109558.962    10554.836    25552.747       14.422        7.283      375.365      212.240        0.320      331.624       -0.241      864.937
01/19/2021  02:54:00      284.194      224.552      -43.789      436.865       93.320      215.136   190850.963     8708.536    46283.354       18.942       12.292      362.201      296.551        0.670      331.729       -0.064      864.896
01/19/2021  02:55:00      261.838      214.321      -45.940      385.030       82.495      185.951   148247.945     6805.400    34577.699       15.308        9.482      338.368      258.343        0.583      331.707       -0.103      864.849
01/19/2021  02:56:00      189.064      207.147      -36.737      387.309       97.529      186.162   150008.510     9511.920    34656.465       13.705        9.709      280.455      259.407        0.856      331.640       -0.214      864.839
01/19/2021  02:57:00      270.782      214.670      -42.798      388.655      110.611      187.257   151052.693    12234.722    35065.363       15.975        9.918      345.552      256.521        0.551      331.658       -0.184      864.884
01/19/2021  02:58:00      269.630      239.313      -49.402      399.409       95.042      191.945   159527.903     9032.942    36842.802       16.886       10.270      360.515      263.866        0.536      331.707       -0.102      864.820
01/19/2021  02:59:00      350.341      199.087      -81.142      601.530       82.208      290.670   361838.893     6758.138    84488.810       31.093       22.654      402.957      411.596        1.043      331.961        0.322      864.832
01/19/2021  03:00:00      339.649      235.004      -46.245      389.573       80.909      184.668   151767.028     6546.226    34102.216       18.253        9.621      413.024      255.291        0.382      331.679       -0.150      864.917
01/19/2021  03:01:00      231.339      198.498      -21.771      323.614       91.057      156.007   104725.766     8291.300    24338.334       11.535        6.868      304.827      210.631        0.477      331.589       -0.299      864.916
01/19/2021  03:02:00      264.763      180.318      -42.011      427.451      150.146      208.717   182714.155    22543.792    43562.656       17.655       12.441      320.334      273.169        0.727      331.749       -0.031      864.906
01/19/2021  03:03:00      250.337      157.943      -39.392      417.662      102.304      195.663   174441.671    10466.188    38283.850       15.613       11.160      295.998      273.252        0.852      331.697       -0.117      864.859
01/19/2021  03:04:00      343.521      265.132      -46.455      384.295       87.363      190.271   147682.526     7632.289    36203.013       19.095        9.576      433.938      253.626        0.342      331.731       -0.064      864.798
01/19/2021  03:05:00      358.932      269.459      -77.309      439.012      117.652      211.220   192731.731    13841.942    44613.774       22.925       12.559      448.821      289.931        0.417      331.798        0.048      864.808
01/19/2021  03:06:00      295.954      251.016      -66.717      516.716      114.241      246.423   266995.145    13050.914    60724.268       24.784       17.039      388.069      345.901        0.794      331.874        0.176      864.814
01/19/2021  03:07:00      369.862      195.965      -39.689      373.189       79.117      174.781   139270.010     6259.544    30548.494       17.639        8.804      418.569      246.310        0.346      331.709       -0.100      864.803
01/19/2021  03:08:00      340.588      212.798      -67.276      530.545       85.837      243.523   281477.887     7367.920    59303.248       25.691       17.407      401.601      351.103        0.764      331.935        0.276      864.839
01/19/2021  03:09:00      247.017      157.560      -31.945      359.421       72.482      177.053   129183.621     5253.601    31347.614       12.629        8.289      292.989      240.396        0.673      331.748       -0.036      864.837
01/19/2021  03:10:00      323.000      170.446      -42.838      376.014      109.397      184.086   141386.452    11967.735    33887.805       16.119        9.362      365.213      251.649        0.475      331.698       -0.118      864.819
01/19/2021  03:11:00      286.878      171.587      -14.411      342.994      108.526      149.607   117645.013    11777.874    22382.142       13.185        7.590      334.278      213.126        0.406      331.705       -0.106      864.814
01/19/2021  03:12:00      312.621      140.926      -44.276      460.948      101.549      222.271   212472.682    10312.238    49404.590       19.581       13.609      342.917      312.323        0.830      331.831        0.102      864.802
01/19/2021  03:13:00      427.134      241.341      -65.296      464.803      153.864      211.638   216041.960    23674.271    44790.676       26.467       14.225      490.600      302.030        0.379      331.885        0.194      864.817
01/19/2021  03:14:00      473.617      179.308      -77.658      570.185      129.458      257.926   325110.396    16759.389    66525.914       33.536       20.420      506.423      372.682        0.542      332.064        0.494      864.793
01/19/2021  03:15:00      326.994      167.897      -30.903      321.907      115.189      152.455   103624.094    13268.396    23242.652       13.807        7.007      367.579      206.436        0.315      331.745       -0.041      864.790
01/19/2021  03:16:00      356.539      213.657      -69.175      483.475      122.207      228.042   233747.947    14934.539    52002.984       23.906       15.034      415.655      321.661        0.599      331.928        0.265      864.781
01/19/2021  03:17:00      347.674      176.290      -40.566      419.739      116.296      202.764   176180.833    13524.705    41113.248       19.216       11.541      389.815      275.354        0.499      331.829        0.101      864.782
01/19/2021  03:18:00      405.230      220.690      -56.441      416.911      102.218      185.128   173814.763    10448.545    34272.340       21.727       10.927      461.427      264.667        0.329      331.827        0.095      864.785
01/19/2021  03:19:00      388.069      301.545      -84.239      564.965      156.230      259.851   319185.780    24407.849    67522.560       32.978       20.556      491.454      372.444        0.574      332.043        0.457      864.750
01/19/2021  03:20:00      374.340      418.227      -47.753      356.789      274.029      174.341   127298.174    75091.687    30394.829       27.500       11.639      561.288      218.046        0.151      331.933        0.268      864.742
01/19/2021  03:21:00      373.581      241.075      -63.258      402.375      152.468      199.680   161905.753    23246.452    39871.904       21.331       11.251      444.612      267.413        0.362      331.920        0.249      864.766
01/19/2021  03:22:00      377.886      261.413      -72.548      504.391      181.884      226.720   254410.160    33081.718    51402.036       27.758       16.945      459.494      320.745        0.487      331.949        0.299      864.778
01/19/2021  03:23:00      436.184      250.485      -30.983      293.570      153.016      142.760    86183.125    23414.034    20380.356       19.194        6.499      502.991      185.604        0.136      331.792        0.035      864.811
01/19/2021  03:24:00      386.923      124.366      -49.154      548.047      126.631      253.354   300355.701    16035.452    64188.215       27.401       19.029      406.419      358.189        0.777      332.099        0.548      864.846
01/19/2021  03:25:00      319.860      104.052      -31.944      414.933      128.173      199.130   172169.532    16428.311    39652.691       17.116       11.413      336.359      270.935        0.649      331.836        0.111      864.856
01/19/2021  03:26:00      352.143      100.791      -29.605      400.734      124.080      194.595   160587.907    15395.866    37867.023       17.440       10.693      366.284      268.951        0.539      331.859        0.148      864.796
01/19/2021  03:27:00      345.019      116.495      -45.285      472.291       91.288      228.127   223059.259     8333.534    52041.873       20.899       14.172      364.156      321.354        0.779      331.882        0.189      864.784
01/19/2021  03:28:00      339.173      117.343      -50.337      522.272      111.343      248.317   272768.432    12397.154    61661.439       23.901       17.341      358.898      350.861        0.956      331.997        0.380      864.840
01/19/2021  03:29:00      249.591      140.741      -35.443      325.928      203.374      162.838   106229.310    41360.979    26516.143       12.870        8.705      286.537      188.126        0.431      331.924        0.255      864.818
01/19/2021  03:30:00      305.802       74.684      -46.460      482.047      102.390      236.497   232368.920    10483.752    55930.966       19.995       14.939      314.790      331.253        1.107      332.042        0.452      864.766
01/19/2021  03:31:00      254.426      128.668      -24.791      332.968      102.447      146.676   110867.803    10495.413    21513.721       11.236        7.144      285.110      210.444        0.545      331.799        0.048      864.711
01/19/2021  03:32:00      323.520      110.233      -42.054      494.568      121.342      225.673   244597.426    14723.788    50928.367       21.435       15.512      341.784      322.824        0.892      331.995        0.374      864.662
01/19/2021  03:33:00      223.430       93.082       -7.404      228.465      107.296      104.417    52196.167    11512.330    10902.877        6.661        3.731      242.043      138.011        0.325      331.854        0.138      864.690
01/19/2021  03:34:00      487.790      209.943      -58.547      535.495      193.952      227.521   286755.352    37617.225    51765.807       33.071       18.807      531.051      324.154        0.373      332.204        0.719      864.702
01/19/2021  03:35:00      478.657      151.471      -39.723      477.755      106.168      222.420   228250.036    11271.559    49470.489       27.125       14.450      502.051      311.347        0.385      332.194        0.705      864.727
01/19/2021  03:36:00      467.547      156.232      -33.288      431.808      124.403      199.475   186458.486    15476.035    39790.455       24.287       12.086      492.959      276.379        0.314      332.075        0.505      864.696
01/19/2021  03:37:00      461.410      153.754      -58.440      451.068      132.073      205.730   203462.259    17443.313    42324.760       25.154       13.162      486.353      293.293        0.364      332.026        0.426      864.672
01/19/2021  03:38:00      356.183      164.378      -45.378      451.454       88.271      212.572   203811.072     7791.693    45186.693       20.631       12.839      392.284      298.626        0.580      332.024        0.421      864.667
01/19/2021  03:39:00      368.796      154.763      -90.049      605.950      201.850      286.092   367175.760    40743.256    81848.613       32.882       24.488      399.953      387.037        0.936      332.263        0.823      864.641
01/19/2021  03:40:00      333.468      188.641      -54.742      440.960      128.089      210.225   194445.755    16406.886    44194.692       20.236       12.752      383.127      290.050        0.573      332.224        0.751      864.664
01/19/2021  03:41:00      241.013      257.561      -48.100      334.261      111.751      162.979   111730.275    12488.297    26562.197       13.873        7.539      352.740      220.111        0.389      331.931        0.264      864.639
01/19/2021  03:42:00      376.306      215.311      -73.168      562.612       93.231      268.047   316532.070     8692.036    71849.325       29.511       19.854      433.550      378.322        0.761      332.106        0.561      864.654
01/19/2021  03:43:00      306.397      263.079      -39.002      379.082      100.742      169.887   143703.310    10149.009    28861.649       17.362        9.136      403.843      237.730        0.347      331.874        0.170      864.722
01/19/2021  03:44:00      457.634      328.997      -74.349      412.924      155.129      181.406   170505.968    24064.912    32908.243       27.529       11.374      563.621      256.564        0.207      332.103        0.550      864.765
01/19/2021  03:45:00      340.832      229.877      -74.935      487.296       88.908      228.987   237456.955     7904.596    52434.906       23.615       14.890      411.108      325.237        0.626      332.118        0.576      864.734
01/19/2021  03:46:00      275.371      153.956      -27.657      390.759       91.761      182.725   152692.287     8420.150    33388.263       14.736        9.725      315.487      255.067        0.654      331.973        0.336      864.769
01/19/2021  03:47:00      369.449      187.914      -50.091      474.074      101.248      221.003   224746.629    10251.200    48842.440       22.902       14.192      414.493      313.815        0.573      331.992        0.368      864.873
01/19/2021  03:48:00      289.968      189.933      -28.491      279.732      100.282      131.858    78250.055    10056.474    17386.579       11.331        5.285      346.635      171.699        0.245      331.802        0.050      864.916
01/19/2021  03:49:00      336.833      168.534      -53.029      486.274       94.304      224.873   236461.932     8893.194    50567.951       22.024       14.796      376.643      322.212        0.732      332.066        0.492      864.885
01/19/2021  03:50:00      266.396      213.662      -31.704      389.056       97.684      185.938   151364.474     9542.084    34572.816       15.651        9.774      341.494      255.487        0.560      331.877        0.177      864.885
01/19/2021  03:51:00      231.345      246.343      -42.460      395.212      127.098      190.093   156192.550    16153.900    36135.523       16.220       10.424      337.943      265.274        0.616      331.956        0.308      864.897
01/19/2021  03:52:00      203.494      203.732      -19.284      226.414      112.417      111.927    51263.340    12637.538    12527.634        7.984        3.821      287.952      139.942        0.236      331.796        0.042      864.902
01/19/2021  03:53:00      315.751      226.590      -40.996      412.833       99.765      195.603   170430.917     9952.964    38260.415       18.564       10.932      388.641      269.281        0.480      331.951        0.299      864.903
01/19/2021  03:54:00      226.121      229.934      -48.391      369.791       83.757      176.923   136745.159     7015.307    31301.656       14.067        8.753      322.491      246.711        0.585      332.043        0.450      864.872
01/19/2021  03:55:00      252.297      205.822      -53.837      456.341       98.252      222.418   208246.737     9653.519    49469.791       18.809       13.369      325.602      309.726        0.905      332.097        0.542      864.887
01/19/2021  03:56:00      365.660      150.789      -43.449      403.039      108.327      195.175   162440.239    11734.662    38093.288       18.526       10.613      395.531      270.910        0.469      332.017        0.408      864.981
01/19/2021  03:57:00      328.305      100.154      -29.444      345.635      100.327      163.256   119463.646    10065.600    26652.497       13.740        7.809      343.242      223.085        0.422      331.959        0.313      865.048
01/19/2021  03:58:00      311.481      166.880      -41.486      429.273       98.914      204.862   184275.713     9783.931    41968.302       18.126       11.801      353.368      285.219        0.651      332.006        0.390      865.106
01/19/2021  03:59:00      244.897      160.531      -47.361      432.001       86.915      207.763   186625.294     7554.244    43165.545       16.262       11.867      292.822      294.991        1.015      332.025        0.424      865.097
01/19/2021  04:00:00      297.762      241.071      -53.311      489.875      109.956      224.249   239977.231    12090.381    50287.518       22.592       15.118      383.116      319.639        0.696      332.065        0.492      865.092
01/19/2021  04:01:00      379.482      226.533      -41.172      445.371      110.889      207.885   198355.711    12296.264    43216.228       22.539       12.693      441.955      290.061        0.431      332.032        0.435      865.044
01/19/2021  04:02:00      354.382      150.967      -53.720      562.727       99.307      262.477   316661.368     9861.970    68894.072       27.326       19.771      385.198      376.993        0.958      332.283        0.853      864.999
01/19/2021  04:03:00      285.634       70.306      -22.641      392.513       99.621      192.715   154066.328     9924.332    37139.107       14.404       10.056      294.160      264.148        0.806      332.056        0.472      864.973
01/19/2021  04:04:00      206.856       95.855      -16.082      342.821       87.329      159.381   117526.352     7626.417    25402.175       10.136        7.528      227.986      223.900        0.964      331.908        0.228      864.945
01/19/2021  04:05:00      371.357      151.441      -33.925      376.798      121.953      173.103   141976.911    14872.505    29964.708       17.436        9.341      401.049      239.705        0.357      331.992        0.367      864.936
01/19/2021  04:06:00      372.200      114.402      -36.671      435.398       78.528      206.930   189571.339     6166.607    42819.958       19.571       11.928      389.385      289.680        0.553      332.062        0.486      864.894
01/19/2021  04:07:00      213.082       76.592      -29.196      452.164      100.400      212.044   204452.031    10080.187    44962.747       15.575       12.975      226.429      303.327        1.795      331.995        0.377      864.915
01/19/2021  04:08:00      198.927       82.097      -36.129      436.395       63.298      209.514   190440.338     4006.670    43896.033       14.293       11.917      215.202      298.172        1.920      331.970        0.334      864.915
01/19/2021  04:09:00      253.362       68.608      -25.403      438.346       64.524      206.773   192147.296     4163.321    42755.257       15.426       11.953      262.487      294.933        1.262      332.035        0.442      864.896
01/19/2021  04:10:00      243.332       98.281      -15.115      323.092       89.069      155.678   104388.231     7933.332    24235.780       10.280        6.828      262.430      212.271        0.654      331.913        0.236      864.914
01/19/2021  04:11:00      289.780       84.544      -21.626      390.889       70.980      188.332   152794.022     5038.220    35468.969       14.240        9.665      301.861      265.702        0.775      331.884        0.190      864.969
01/19/2021  04:12:00      249.199      128.434       -6.761      274.697       81.672      127.260    75458.659     6670.327    16195.002        8.846        4.916      280.349      177.813        0.402      331.768       -0.006      865.000
01/19/2021  04:13:00      315.700      131.468      -42.560      470.511       80.884      225.617   221380.501     6542.279    50902.927       19.874       13.941      341.980      319.469        0.873      331.989        0.365      865.032
01/19/2021  04:14:00      285.586       88.934      -41.847      521.419       89.039      248.317   271877.519     7928.007    61661.433       21.627       17.073      299.113      353.108        1.394      332.003        0.389      865.025
01/19/2021  04:15:00      277.301      110.297      -37.456      455.384       70.278      216.136   207374.618     4939.039    46714.879       17.469       12.951      298.432      307.248        1.060      331.991        0.367      864.986
01/19/2021  04:16:00      203.386      156.852      -30.617      354.629       73.712      173.681   125762.043     5433.422    30165.171       11.410        8.068      256.843      241.020        0.881      331.879        0.181      864.959
01/19/2021  04:17:00      165.805      176.407      -22.273      307.551       71.809      149.514    94587.393     5156.582    22354.402        9.058        6.105      242.096      201.207        0.691      331.852        0.134      864.949
01/19/2021  04:18:00      165.284      159.150      -18.055      278.530       70.655      131.142    77579.030     4992.192    17198.122        7.635        4.988      229.451      180.423        0.618      331.901        0.215      864.929
01/19/2021  04:19:00      259.908       84.086      -39.463      507.018       96.999      242.599   257067.036     9408.745    58854.476       20.069       16.267      273.171      345.496        1.600      332.201        0.716      864.949
01/19/2021  04:20:00      313.376      157.241      -35.751      441.895       77.275      209.523   195271.217     5971.383    43899.762       18.462       12.257      350.612      296.191        0.714      332.010        0.397      864.972
01/19/2021  04:21:00      268.553      148.765      -53.371      542.306       69.266      257.444   294095.285     4797.819    66277.195       23.106       18.259      307.005      368.213        1.438      332.113        0.574      864.981
01/19/2021  04:22:00      296.915      182.139      -27.540      409.384      108.917      198.013   167595.151    11862.856    39209.062       17.033       10.933      348.329      269.040        0.597      332.046        0.458      864.930
01/19/2021  04:23:00      389.874      119.063      -45.687      476.041      136.899      221.798   226615.027    18741.242    49194.556       23.135       14.728      407.649      313.415        0.591      332.181        0.682      864.923
01/19/2021  04:24:00      384.644      139.911      -28.048      338.217      105.076      166.522   114390.621    11040.897    27729.421       16.071        7.658      409.300      225.130        0.303      332.053        0.467      864.909
01/19/2021  04:25:00      246.869      139.930       -5.241      245.862       85.243      106.997    60447.974     7266.367    11448.388        7.984        3.958      283.769      147.491        0.270      331.882        0.184      864.967
01/19/2021  04:26:00      271.459      121.573      -22.447      408.506       75.871      191.890   166877.366     5756.360    36821.734       14.917       10.473      297.439      273.920        0.848      332.037        0.444      865.002
01/19/2021  04:27:00      282.471      144.257      -54.742      505.187       83.158      237.910   255213.908     6915.332    56600.996       21.110       15.937      317.175      339.214        1.144      332.204        0.723      865.004
01/19/2021  04:28:00      281.253      148.712      -46.847      452.618       77.496      211.060   204862.654     6005.593    44546.421       17.936       12.771      318.148      303.702        0.911      332.095        0.539      864.991
01/19/2021  04:29:00      249.596      146.120      -45.649      478.062       69.397      220.545   228542.870     4815.971    48639.949       18.381       14.100      289.222      318.578        1.213      332.127        0.594      865.055
01/19/2021  04:30:00      235.055      125.000      -25.147      394.053       70.270      184.408   155277.631     4937.838    34006.373       13.282        9.711      266.225      261.936        0.968      331.931        0.266      865.128
01/19/2021  04:31:00      199.412      140.414      -26.660      383.041       76.671      171.881   146720.672     5878.410    29543.064       12.113        9.107      243.888      250.516        1.055      331.904        0.222      865.163
01/19/2021  04:32:00      227.125      153.503      -44.801      427.432      101.529      201.462   182698.339    10308.078    40586.829       15.533       11.680      274.133      285.432        1.084      331.911        0.236      865.145
01/19/2021  04:33:00      296.503      152.762      -61.883      443.402      108.643      214.870   196605.044    11803.373    46169.320       18.477       12.729      333.542      299.664        0.807      331.953        0.304      865.063
01/19/2021  04:34:00      290.719      175.448      -22.882      331.680      117.901      159.994   110011.935    13900.713    25598.002       13.264        7.476      339.558      216.962        0.408      331.859        0.146      864.986
01/19/2021  04:35:00      271.573      228.784      -50.973      487.390      108.911      223.408   237549.498    11861.567    49910.944       21.394       14.966      355.098      320.192        0.813      332.052        0.469      864.969
01/19/2021  04:36:00      274.128      191.341      -71.759      573.617      102.852      277.492   329036.721    10578.449    77001.823       26.667       20.831      334.302      393.912        1.388      332.305        0.891      864.914
01/19/2021  04:37:00      332.094       99.309      -44.240      446.677       96.166      210.045   199520.409     9247.983    44118.696       18.744       12.644      346.624      298.165        0.740      332.229        0.760      864.900
01/19/2021  04:38:00      270.057      138.246      -26.612      398.184       69.812      180.702   158550.809     4873.770    32653.123       14.437        9.804      303.385      259.631        0.732      332.050        0.463      864.951
01/19/2021  04:39:00      297.610      150.235      -68.909      587.984       70.280      277.206   345725.205     4939.210    76843.080       27.161       21.375      333.380      397.951        1.425      332.157        0.646      864.984
01/19/2021  04:40:00      287.934      158.572      -48.550      558.848       70.433      261.523   312311.524     4960.875    68394.114       24.796       19.283      328.711      376.563        1.312      332.102        0.554      865.026
01/19/2021  04:41:00      242.328      172.145      -56.272      471.762      178.860      240.977   222559.225    31991.018    58070.122       20.201       15.631      297.248      302.568        1.036      332.016        0.413      864.980
01/19/2021  04:42:00      240.324      326.567      -71.194      537.338      113.754      258.286   288732.047    12939.916    66711.603       26.885       18.419      405.465      364.911        0.810      332.157        0.644      864.896
01/19/2021  04:43:00      258.997      143.109      -39.971      453.414       85.011      221.739   205584.700     7226.797    49168.095       17.551       13.099      295.905      309.121        1.091      331.990        0.367      864.850
01/19/2021  04:44:00      318.125      164.328      -58.987      563.549       84.456      265.279   317587.471     7132.830    70372.763       26.331       19.755      358.060      377.036        1.109      332.208        0.729      864.915
01/19/2021  04:45:00      388.053      192.841      -83.908      587.702       99.548      279.122   345394.060     9909.775    77909.042       31.392       21.661      433.328      397.327        0.841      332.257        0.812      864.958
01/19/2021  04:46:00      219.655      163.734      -23.510      315.225       73.030      151.497    99367.085     5333.428    22951.404       10.160        6.383      273.966      207.830        0.575      331.939        0.280      864.941
01/19/2021  04:47:00      301.357      200.146      -50.767      479.049       74.686      220.795   229487.953     5578.026    48750.259       20.857       14.191      361.765      316.080        0.763      332.054        0.471      864.976
01/19/2021  04:48:00      342.565      149.719      -72.920      591.154       92.907      281.011   349463.616     8631.682    78967.178       29.098       21.853      373.853      401.673        1.154      332.232        0.771      865.017
01/19/2021  04:49:00      260.713      158.330      -78.118      594.705       74.978      282.203   353674.511     5621.629    79638.537       26.895       21.947      305.024      405.542        1.768      332.204        0.725      865.041
01/19/2021  04:50:00      207.900       94.627      -29.221      398.896       99.526      192.338   159118.220     9905.456    36993.934       12.948       10.301      228.422      268.987        1.387      331.877        0.180      865.018
01/19/2021  04:51:00      278.635      140.528      -64.092      638.501       95.288      302.783   407684.152     9079.858    91677.487       30.486       25.422      312.066      435.882        1.951      332.145        0.630      864.967
01/19/2021  04:52:00      147.828      151.585      -18.758      399.133       73.080      190.291   159307.516     5340.692    36210.683       12.298       10.043      211.734      269.632        1.622      331.799        0.052      864.964
01/19/2021  04:53:00      259.192      182.196      -29.794      328.768       81.699      166.052   108088.570     6674.667    27573.401       12.177        7.117      316.821      213.821        0.455      331.681       -0.148      864.973
01/19/2021  04:54:00      230.091      201.257      -43.885      405.683       82.892      195.816   164578.615     6871.070    38343.871       15.254       10.490      305.690      266.800        0.762      331.744       -0.042      864.948
01/19/2021  04:55:00      235.223      171.171      -47.157      429.416      100.223      210.973   184398.055    10044.683    44509.515       16.285       11.948      290.911      292.690        1.012      331.785        0.028      864.928
01/19/2021  04:56:00      165.546      210.396      -27.349      329.395      106.016      155.003   108501.139    11239.459    24026.030       10.806        7.188      267.716      212.768        0.632      331.692       -0.128      864.946
01/19/2021  04:57:00      137.769      326.389      -38.219      373.980      112.309      181.949   139860.790    12613.233    33105.463       15.624        9.279      354.274      252.929        0.510      331.732       -0.062      864.969
01/19/2021  04:58:00      231.918      249.335      -41.873      353.510       90.364      169.056   124969.110     8165.669    28579.789       13.968        8.086      340.520      229.550        0.454      331.783        0.023      864.971
01/19/2021  04:59:00      230.146      186.363      -29.316      373.420       77.821      181.918   139442.633     6056.177    33093.986       13.354        8.930      296.139      252.581        0.727      331.829        0.097      864.973
01/19/2021  05:00:00      197.580      196.719      -43.646      446.152      101.987      214.383   199051.660    10401.406    45960.280       16.747       12.771      278.813      303.286        1.183      331.893        0.206      864.937
01/19/2021  05:01:00      300.964      129.916      -29.941      415.765       92.642      189.937   172860.924     8582.628    36076.028       16.289       10.876      327.807      269.661        0.677      331.835        0.110      864.917
01/19/2021  05:02:00      355.829      219.260      -82.706      579.982      104.405      275.699   336379.510    10900.321    76010.075       30.232       21.164      417.958      392.756        0.883      331.975        0.345      864.939
01/19/2021  05:03:00      319.730      185.060      -62.348      552.612       90.321      255.723   305380.358     8157.826    65394.406       25.957       18.947      369.424      367.275        0.988      331.880        0.188      864.957
01/19/2021  05:04:00      334.644      169.830      -45.940      417.771       92.620      203.020   174532.886     8578.434    41217.131       18.359       11.216      375.272      280.381        0.558      331.761       -0.013      865.001
01/19/2021  05:05:00      398.792       68.456      -61.582      541.972      132.324      254.825   293733.211    17509.578    64935.557       27.177       18.809      404.624      359.495        0.789      331.970        0.337      864.979
01/19/2021  05:06:00      329.936      187.132      -50.917      434.006      101.325      208.257   188361.162    10266.696    43370.875       19.418       12.100      379.310      291.195        0.589      331.909        0.230      864.947
01/19/2021  05:07:00      252.080      145.857      -39.901      428.753       66.134      203.850   183829.078     4373.662    41554.690       15.804       11.488      291.236      289.424        0.988      331.804        0.058      864.932
01/19/2021  05:08:00      300.127      186.685      -74.289      482.768       71.586      233.521   233064.473     5124.548    54532.210       21.152       14.636      353.451      331.144        0.878      331.811        0.072      864.924
01/19/2021  05:09:00      310.786      125.566      -42.330      475.827       88.082      228.388   226411.607     7758.360    52161.104       20.018       14.317      335.194      322.059        0.923      331.838        0.116      864.934
01/19/2021  05:10:00      316.200      143.369      -50.746      455.034       92.422      217.782   207055.827     8541.886    47429.201       19.302       13.151      347.185      307.314        0.784      331.826        0.094      864.967
01/19/2021  05:11:00      364.758      135.312      -68.489      541.357      104.425      257.120   293067.469    10904.528    66110.705       26.299       18.504      389.047      365.131        0.881      331.932        0.271      864.977
01/19/2021  05:12:00      277.303       94.378      -19.930      299.340       92.518      132.411    89604.213     8559.553    17532.801       10.092        5.785      292.923      183.054        0.391      331.582       -0.310      865.006
01/19/2021  05:13:00      265.815      207.337      -45.579      342.217       87.330      167.269   117112.620     7626.452    27979.010       13.419        7.636      337.115      224.243        0.442      331.627       -0.235      865.019
01/19/2021  05:14:00      208.585      176.733      -51.670      476.412      111.637      231.514   226968.386    12462.927    53598.598       18.516       14.651      273.390      324.629        1.410      331.786        0.032      865.017
01/19/2021  05:15:00      341.890      191.513      -40.202      439.832       70.826      203.828   193451.954     5016.384    41545.777       19.755       12.001      391.875      291.103        0.552      331.753       -0.025      865.045
01/19/2021  05:16:00      236.736      165.021      -20.526      306.273       72.805      144.033    93803.243     5300.577    20745.524       10.175        5.992      288.576      201.173        0.486      331.642       -0.212      865.101
01/19/2021  05:17:00      281.349      129.669      -44.061      504.974       83.667      247.787   254998.971     7000.157    61398.253       21.059       16.170      309.792      348.253        1.264      331.824        0.094      865.133
01/19/2021  05:18:00      224.390      164.128      -58.453      495.937       87.300      239.307   245953.346     7621.211    57267.763       19.571       15.542      278.009      339.778        1.494      331.754       -0.021      865.115
01/19/2021  05:19:00      260.011      143.345      -24.274      280.317      126.694      137.552    78577.834    16051.261    18920.571       10.112        5.677      296.906      186.518        0.395      331.507       -0.435      865.101
01/19/2021  05:20:00      317.197       91.841      -34.300      419.642       85.019      199.246   176099.182     7228.236    39698.854       16.658       11.151      330.225      277.915        0.708      331.654       -0.189      865.079
01/19/2021  05:21:00      354.014      168.804      -71.490      537.840       81.707      259.811   289272.016     6676.018    67501.873       26.111       18.172      392.200      366.527        0.873      331.822        0.092      865.121
01/19/2021  05:22:00      309.860      166.101      -40.408      463.005       85.590      223.037   214373.652     7325.621    49745.552       19.828       13.572      351.571      313.575        0.796      331.693       -0.123      865.152
01/19/2021  05:23:00      234.216      158.641      -53.857      426.514       78.494      208.147   181914.116     6161.268    43325.344       15.711       11.570      282.886      291.324        1.061      331.578       -0.313      865.185
01/19/2021  05:24:00      163.554      141.549      -11.670      225.555       64.424      101.984    50875.121     4150.502    10400.685        5.616        3.271      216.301      138.030        0.407      331.392       -0.624      865.187
01/19/2021  05:25:00      234.990      162.679      -43.891      393.958       75.563      189.375   155203.169     5709.774    35862.801       14.015        9.839      285.805      265.478        0.863      331.538       -0.378      865.209
01/19/2021  05:26:00      322.589      128.202      -68.917      598.601       67.291      284.416   358322.794     4528.068    80892.509       28.440       22.187      347.131      407.980        1.381      331.850        0.142      865.238
01/19/2021  05:27:00      115.726      143.085      -17.860      267.810       65.702      125.365    71722.148     4316.726    15716.434        6.295        4.588      184.027      176.388        0.919      331.424       -0.569      865.267
01/19/2021  05:28:00      279.549      106.964      -73.764      640.716       87.388      307.870   410517.425     7636.598    94783.989       30.388       25.647      299.314      440.093        2.162      331.832        0.114      865.285
01/19/2021  05:29:00      276.576      136.497      -80.087      632.804      138.681      296.248   400441.308    19232.479    87762.959       30.438       25.372      308.425      416.936        1.827      331.759       -0.007      865.293
01/19/2021  05:30:00      286.240      190.914      -61.150      506.814       97.808      239.552   256860.526     9566.335    57385.288       22.290       16.191      344.066      338.628        0.969      331.565       -0.334      865.259
01/19/2021  05:31:00      235.616      137.655      -32.571      315.173       63.563      154.555    99334.332     4040.218    23887.247       10.137        6.363      272.881      213.070        0.610      331.348       -0.694      865.248
01/19/2021  05:32:00      276.094      129.020      -84.540      668.935       67.967      321.183   447473.608     4619.565   103158.319       32.752       27.763      304.752      460.972        2.288      331.887        0.207      865.248
01/19/2021  05:33:00      220.286      100.200      -44.260      470.651       64.984      220.952   221512.290     4222.887    48819.596       16.748       13.728      242.004      318.896        1.736      331.468       -0.492      865.268
01/19/2021  05:34:00      273.601      122.901      -66.820      552.654       56.910      267.369   305426.207     3238.786    71486.178       23.721       19.008      299.937      380.478        1.609      331.626       -0.228      865.283
01/19/2021  05:35:00      296.524      149.263      -69.814      574.090       82.882      272.511   329579.492     6869.497    74262.380       26.281       20.536      331.973      391.320        1.390      331.601       -0.269      865.305
01/19/2021  05:36:00      245.621      100.219      -59.344      564.764       68.891      269.906   318958.860     4745.914    72849.111       23.514       19.828      265.280      385.724        2.114      331.571       -0.319      865.331
01/19/2021  05:37:00      334.263      148.654      -91.498      609.830       64.266      285.864   371892.605     4130.144    81717.998       29.988       22.887      365.828      413.104        1.275      331.696       -0.113      865.339
01/19/2021  05:38:00      267.504      238.263      -61.903      453.986      137.872      219.900   206103.495    19008.576    48355.995       20.276       13.673      358.229      307.092        0.735      331.543       -0.369      865.347
01/19/2021  05:39:00      333.753      199.137      -46.236      392.663       91.126      179.277   154184.527     8303.948    32140.300       17.387        9.731      388.647      254.353        0.428      331.343       -0.702      865.353
01/19/2021  05:40:00      364.926      170.067      -81.956      596.481       82.276      272.516   355789.632     6769.266    74264.792       30.272       21.841      402.609      398.391        0.979      331.678       -0.142      865.347
01/19/2021  05:41:00      267.898       86.750      -47.253      542.219       86.645      256.377   294001.487     7507.278    65728.996       22.431       18.362      281.593      367.932        1.707      331.570       -0.322      865.352
01/19/2021  05:42:00      250.645       60.995      -43.948      468.225       73.238      222.163   219234.869     5363.872    49356.446       17.116       13.698      257.960      317.688        1.517      331.518       -0.410      865.388
01/19/2021  05:43:00      323.712      118.939      -45.099      459.398       88.221      215.254   211046.123     7783.012    46334.354       19.301       13.258      344.871      307.870        0.797      331.496       -0.447      865.415
01/19/2021  05:44:00      311.374      146.007      -46.397      464.496       77.811      217.188   215756.912     6054.485    47170.787       19.465       13.449      343.906      309.118        0.808      331.510       -0.424      865.461
01/19/2021  05:45:00      221.037       78.485      -31.975      333.222       76.176      157.910   111036.780     5802.814    24935.715        9.888        7.089      234.557      223.061        0.904      331.333       -0.718      865.480
01/19/2021  05:46:00      270.682       53.650      -60.936      596.066       69.752      289.640   355294.138     4865.290    83891.292       26.186       22.203      275.947      411.558        2.224      331.646       -0.195      865.488
01/19/2021  05:47:00      262.393       88.412      -49.102      415.797       87.922      199.896   172887.438     7730.266    39958.598       14.978       11.029      276.887      284.289        1.054      331.427       -0.561      865.476
01/19/2021  05:48:00      240.584       18.403      -68.729      593.272       67.465      279.901   351971.384     4551.521    78344.466       24.882       21.743      241.287      403.476        2.796      331.742       -0.034      865.473
01/19/2021  05:49:00      150.897       16.531      -44.621      530.353      101.928      257.876   281274.617    10389.375    66500.056       19.153       17.908      151.800      360.029        5.625      331.564       -0.329      865.484
01/19/2021  05:50:00      258.774       38.436      -62.562      569.863       59.355      269.912   324744.233     3523.012    72852.358       23.665       20.056      261.613      389.279        2.214      331.621       -0.236      865.490
01/19/2021  05:51:00      122.611       81.232      -16.822      369.497       61.959      182.298   136528.028     3838.949    33232.662        9.772        8.680      147.079      254.945        3.005      331.227       -0.889      865.498
01/19/2021  05:52:00      230.556       55.392      -88.542      753.173      122.377      364.493   567270.210    14976.138   132855.434       38.944       35.755      237.117      513.288        4.686      331.884        0.207      865.488
01/19/2021  05:53:00      155.599       27.415      -49.035      509.687       65.177      246.524   259781.206     4248.089    60774.306       17.602       16.240      157.996      352.056        4.965      331.506       -0.427      865.495
01/19/2021  05:54:00      164.971       36.569      -49.801      536.075       69.366      251.987   287375.947     4811.652    63497.639       19.328       17.784      168.976      363.196        4.620      331.602       -0.267      865.523
01/19/2021  05:55:00      168.309      -20.699      -40.677      504.569       59.822      242.550   254589.449     3578.648    58830.366       17.364       15.850      169.577      346.118        4.166      331.467       -0.493      865.553
01/19/2021  05:56:00      215.511        9.611      -55.170      577.782       50.925      276.082   333831.526     2593.395    76221.026       23.103       20.632      215.725      396.713        3.382      331.582       -0.298      865.559
01/19/2021  05:57:00      166.690        1.474      -41.369      485.804       53.407      235.557   236005.595     2852.338    55487.005       16.186       14.717      166.696      335.357        4.047      331.596       -0.281      865.548
01/19/2021  05:58:00      231.555      -17.457      -58.516      521.331       68.013      249.434   271786.101     4625.797    62217.332       19.792       16.931      232.212      356.152        2.352      331.503       -0.433      865.542
01/19/2021  05:59:00      134.048        3.502      -19.114      339.098       63.071      164.041   114987.428     3977.989    26909.362        8.208        7.294      134.094      232.424        3.004      331.330       -0.720      865.527
01/19/2021  06:00:00      157.984       12.293      -60.983      573.318       58.826      276.669   328693.689     3460.462    76545.774       21.868       20.435      158.462      396.140        6.250      331.623       -0.231      865.541
01/19/2021  06:01:00      196.813       -4.991      -84.451      639.546       87.565      311.163   409018.617     7667.642    96822.286       27.959       25.675      196.876      444.677        5.102      331.675       -0.144      865.573
01/19/2021  06:02:00      196.371     -118.294      -61.630      563.151      122.772      267.758   317138.888    15072.985    71694.102       23.005       20.195      229.249      384.055        2.807      331.661       -0.173      865.563
01/19/2021  06:03:00      205.705        1.267      -78.952      632.966       76.455      297.959   400646.517     5845.431    88779.439       27.181       24.764      205.709      429.631        4.362      331.720       -0.070      865.581
01/19/2021  06:04:00      158.831      -35.258      -63.765      545.457      176.891      272.016   297523.693    31290.575    73992.460       21.659       20.140      162.697      360.593        4.912      331.642       -0.201      865.589
01/19/2021  06:05:00      161.340      -24.196      -50.393      536.833       73.534      256.389   288189.283     5407.229    65735.106       19.417       17.967      163.144      367.916        5.086      331.507       -0.426      865.599
01/19/2021  06:06:00      201.242      -95.026      -38.706      483.524       86.607      232.507   233795.570     7500.816    54059.509       17.313       14.768      222.550      331.436        2.218      331.457       -0.508      865.598
01/19/2021  06:07:00      203.778       10.888      -62.845      573.880       71.464      269.516   329338.007     5107.139    72638.923       22.625       20.354      204.068      388.340        3.621      331.496       -0.442      865.614
01/19/2021  06:08:00      127.187      -14.323      -27.251      366.034      149.426      184.444   133980.605    22328.160    34019.550       10.369        9.516      127.991      228.865        3.197      331.345       -0.695      865.613
01/19/2021  06:09:00      273.354       10.125      -63.154      536.174       70.334      257.691   287482.173     4946.932    66404.502       21.875       17.942      273.541      368.920        1.819      331.461       -0.500      865.633
01/19/2021  06:10:00      268.087        9.574      -64.641      599.575       73.687      281.979   359490.424     5429.801    79512.403       26.019       22.222      268.257      407.748        2.310      331.524       -0.392      865.648
01/19/2021  06:11:00      149.896       -9.072      -33.752      444.005       68.288      212.790   197140.338     4663.303    45279.569       13.533       12.354      150.170      303.009        4.071      331.376       -0.642      865.654
01/19/2021  06:12:00      209.084      -24.220      -69.571      634.272       67.567      308.165   402300.772     4565.317    94965.790       27.538       25.092      210.482      439.089        4.352      331.662       -0.165      865.652
01/19/2021  06:13:00      333.873       15.047      -80.194      625.879       71.834      294.647   391724.937     5160.168    86816.680       30.081       24.185      334.212      425.362        1.620      331.637       -0.210      865.633
01/19/2021  06:14:00      158.141      -25.529      -40.402      493.909       56.898      231.262   243946.334     3237.355    53481.903       16.392       15.033      160.188      334.044        4.349      331.567       -0.325      865.633
01/19/2021  06:15:00      161.934     -100.707      -39.825      412.918       64.350      201.187   170501.300     4140.902    40476.286       12.649       10.756      190.695      283.942        2.217      331.539       -0.377      865.639
01/19/2021  06:16:00      259.265     -154.284      -80.671      538.302       56.815      257.888   289768.621     3227.929    66506.128       22.844       17.975      301.698      370.490        1.508      331.573       -0.317      865.663
01/19/2021  06:17:00      205.490     -108.881      -60.488      524.270       55.742      246.955   274859.003     3107.128    60986.741       19.828       16.948      232.553      357.400        2.362      331.618       -0.244      865.683
01/19/2021  06:18:00      207.116      -68.486      -82.333      589.134       55.321      282.445   347078.819     3060.369    79775.165       24.205       21.496      218.145      405.965        3.463      331.674       -0.147      865.683
01/19/2021  06:19:00       93.556      -68.619      -19.052      388.739       55.803      183.506   151118.053     3113.992    33674.438       10.083        9.395      116.023      263.710        5.166      331.497       -0.445      865.659
01/19/2021  06:20:00      181.702      -24.247      -43.715      443.165       65.934      210.221   196395.268     4347.247    44192.688       14.017       12.247      183.313      301.125        2.698      331.568       -0.326      865.658
01/19/2021  06:21:00      242.135     -127.343      -85.870      570.625       54.558      271.462   325612.641     2976.574    73691.709       24.217       20.114      273.579      391.587        2.049      331.642       -0.199      865.672
01/19/2021  06:22:00      278.412     -114.878      -98.331      656.176      125.808      312.261   430567.024    15827.741    97506.817       32.203       27.195      301.181      440.097        2.135      331.819        0.094      865.689
01/19/2021  06:23:00      176.087      -34.712      -47.464      457.865       68.575      224.001   209640.617     4702.573    50176.377       14.944       13.226      179.475      317.467        3.129      331.507       -0.426      865.727
01/19/2021  06:24:00      337.529       12.255     -126.044      817.041       76.642      387.281   667555.371     5874.043   149986.586       47.652       41.171      337.751      559.706        2.746      332.236        0.791      865.776
01/19/2021  06:25:00      159.420       46.344      -41.787      470.682       65.786      228.622   221541.382     4327.741    52268.242       15.366       13.907      166.020      324.150        3.812      331.427       -0.560      865.788
01/19/2021  06:26:00      102.028      -15.761      -51.463      570.665       55.649      275.023   325658.680     3096.827    75637.597       20.876       20.220      103.239      393.749       14.546      331.700       -0.103      865.773
01/19/2021  06:27:00      240.531      -27.080      -68.036      537.228       62.059      257.798   288614.226     3851.377    66459.667       21.100       17.946      242.051      369.186        2.326      331.579       -0.307      865.778
01/19/2021  06:28:00      144.371       11.875      -30.256      392.547       74.115      192.486   154093.179     5493.000    37051.017       10.923        9.832      144.858      271.119        3.503      331.316       -0.744      865.824
01/19/2021  06:29:00      210.114        7.396      -83.117      578.233       59.821      280.384   334353.134     3578.585    78615.309       23.374       20.827      210.244      399.492        3.611      331.587       -0.290      865.865
01/19/2021  06:30:00      247.852      -30.996      -82.812      583.179       80.884      271.713   340097.323     6542.223    73827.954       24.477       21.023      249.782      395.107        2.502      331.657       -0.176      865.892
01/19/2021  06:31:00      280.210       12.374      -82.954      672.396       63.584      322.105   452116.979     4042.909   103751.805       32.261       27.996      280.483      463.314        2.729      331.804        0.072      865.920
01/19/2021  06:32:00      184.223       12.056      -54.092      519.615       54.974      249.299   269999.389     3022.104    62149.891       18.602       16.759      184.617      356.550        3.730      331.423       -0.563      865.950
01/19/2021  06:33:00      178.539      -24.950      -54.828      514.111       66.674      249.097   264310.161     4445.439    62049.528       18.309       16.540      180.274      354.761        3.873      331.537       -0.375      865.939
01/19/2021  06:34:00      267.838       14.181      -51.484      590.668       67.113      288.514   348888.371     4504.136    83240.266       25.552       21.832      268.213      410.473        2.342      331.506       -0.424      865.941
01/19/2021  06:35:00      163.803       45.648      -32.070      411.189       49.863      190.935   169076.641     2486.292    36456.189       11.894       10.401      170.045      278.090        2.675      331.115       -1.072      865.951
01/19/2021  06:36:00      225.577        9.405      -47.825      567.951       57.426      276.505   322567.955     3297.770    76455.248       22.771       20.116      225.773      394.082        3.047      331.365       -0.655      865.938
01/19/2021  06:37:00      169.851       22.284      -34.516      471.884       45.507      226.631   222674.971     2070.914    51361.487       15.327       13.805      171.307      324.713        3.593      331.232       -0.878      865.906
01/19/2021  06:38:00      301.722       59.531     -109.235      758.057       41.995      362.058   574649.858     1763.541   131086.179       40.686       35.375      307.539      522.555        2.887      331.825        0.109      865.890
01/19/2021  06:39:00      197.667       21.637      -57.883      629.973       62.493      299.388   396865.518     3905.364    89633.251       26.655       24.520      198.848      431.597        4.711      331.624       -0.229      865.906
01/19/2021  06:40:00      200.403        4.516      -38.482      495.953       66.260      240.438   245969.223     4390.409    57810.516       17.485       15.409      200.454      341.141        2.896      331.341       -0.698      865.926
01/19/2021  06:41:00      171.230       11.022      -49.187      486.046       68.898      239.533   236240.706     4746.923    57376.255       16.505       14.918      171.584      338.034        3.881      331.430       -0.551      865.964
01/19/2021  06:42:00      215.769      -17.571      -56.128      569.955       63.797      273.084   324848.592     4070.038    74575.072       22.667       20.175      216.484      391.928        3.278      331.506       -0.425      865.990
01/19/2021  06:43:00      227.856       -7.959      -69.811      623.486       53.668      296.774   388734.633     2880.239    88074.603       26.817       23.984      227.995      428.603        3.534      331.653       -0.180      865.973
01/19/2021  06:44:00      251.656      -26.282      -81.113      587.568       53.155      278.567   345236.429     2825.419    77599.645       24.804       21.283      253.025      402.367        2.529      331.513       -0.413      865.970
01/19/2021  06:45:00      213.436       -5.270      -70.474      629.039       54.685      306.145   395690.465     2990.488    93724.914       27.137       24.620      213.501      436.715        4.184      331.624       -0.227      865.955
01/19/2021  06:46:00       97.400        8.477      -20.707      384.967       49.210      183.969   148199.749     2421.621    33844.568        9.719        9.223       97.768      263.590        7.269      331.265       -0.826      865.922
01/19/2021  06:47:00      192.105       -6.754      -48.696      497.851       54.006      239.198   247855.734     2916.658    57215.770       17.359       15.399      192.224      342.860        3.181      331.434       -0.547      865.895
01/19/2021  06:48:00      173.835      -35.359      -74.192      523.655       61.864      250.842   274214.221     3827.107    62921.955       18.890       17.048      177.395      360.222        4.123      331.561       -0.335      865.894
01/19/2021  06:49:00       64.709      -66.219      -14.388      250.103       48.888      122.529    62551.505     2389.990    15013.384        4.435        3.998       92.586      171.453        3.429      331.163       -0.996      865.906
01/19/2021  06:50:00      278.097       30.453     -108.089      757.466       35.121      365.637   573753.986     1233.465   133690.580       39.917       35.434      279.759      525.129        3.523      331.882        0.203      865.902
01/19/2021  06:51:00      170.553        5.021      -57.503      554.155       58.633      264.568   307087.540     3437.786    69996.042       20.639       19.026      170.627      379.779        4.954      331.513       -0.414      865.919
01/19/2021  06:52:00      195.533      -31.671      -50.932      493.557       57.891      237.597   243598.024     3351.390    56452.548       17.255       15.170      198.081      340.631        2.957      331.455       -0.512      865.927
01/19/2021  06:53:00      194.599      -47.936      -66.947      534.465       67.378      255.214   285652.971     4539.813    65133.956       19.991       17.766      200.417      367.515        3.363      331.567       -0.324      865.936
01/19/2021  06:54:00      270.977      -10.569      -80.220      686.028       57.840      322.769   470633.911     3345.422   104180.021       32.895       28.908      271.183      468.956        2.990      331.729       -0.051      865.925
01/19/2021  06:55:00      286.222       -2.702      -78.252      702.639       54.377      333.995   493701.280     2956.911   111552.363       34.800       30.411      286.234      481.542        2.830      331.736       -0.040      865.902
01/19/2021  06:56:00      152.297       -4.824      -63.912      520.360       53.774      246.147   270774.033     2891.648    60588.197       18.071       16.713      152.373      356.133        5.463      331.464       -0.496      865.892
01/19/2021  06:57:00      171.244        7.050      -54.811      544.037       63.580      263.763   295976.469     4042.377    69571.040       20.091       18.479      171.389      376.328        4.821      331.673       -0.149      865.887
01/19/2021  06:58:00      272.469      -46.663     -104.504      677.575       58.869      325.030   459107.327     3465.556   105644.229       32.766       28.411      276.436      467.953        2.866      331.931        0.281      865.893
01/19/2021  06:59:00      249.640       30.563      -88.057      645.819       56.003      307.608   417081.884     3136.316    94622.526       29.282       25.742      251.504      444.166        3.119      331.729       -0.055      865.900
01/19/2021  07:00:00      191.283       15.688      -75.030      603.812       64.273      290.335   364588.346     4131.040    84294.354       24.764       22.651      191.925      417.181        4.725      331.607       -0.257      865.917
01/19/2021  07:01:00      247.895       12.508      -82.701      681.037       39.984      321.394   463811.493     1598.724   103294.252       31.846       28.435      248.211      466.807        3.537      331.681       -0.133      865.932
01/19/2021  07:02:00      164.738       10.614      -37.224      479.122       40.443      230.066   229558.274     1635.656    52930.531       15.632       14.206      165.080      330.087        3.998      331.273       -0.811      865.934
01/19/2021  07:03:00      327.958       12.329     -105.682      718.372       40.459      344.120   516058.480     1636.943   118418.559       37.736       31.806      328.190      496.039        2.284      331.705       -0.089      865.943
01/19/2021  07:04:00      231.854       11.939      -83.727      693.476       41.054      334.892   480909.327     1685.447   112152.502       32.770       29.737      232.161      480.602        4.285      331.698       -0.103      865.949
01/19/2021  07:05:00      262.916       27.829      -94.607      679.384       45.889      325.736   461562.846     2105.817   106103.626       32.419       28.489      264.384      469.142        3.149      331.637       -0.202      865.965
01/19/2021  07:06:00      219.906        7.902      -86.908      675.072       44.331      319.935   455722.025     1965.224   102358.242       30.789       28.002      220.048      463.704        4.441      331.675       -0.143      865.942
01/19/2021  07:07:00      196.858       21.978      -68.855      593.450       56.283      286.704   352183.081     3167.776    82198.901       24.067       21.877      198.081      410.762        4.300      331.464       -0.494      865.924
01/19/2021  07:08:00      134.729       -2.255      -46.162      436.083       48.250      208.999   190167.965     2328.073    43680.376       12.818       11.809      134.748      299.750        4.948      331.292       -0.782      865.914
01/19/2021  07:09:00      220.473      -16.703      -78.581      565.795       29.103      269.575   320124.356      846.966    72670.484       22.427       19.682      221.105      389.613        3.105      331.640       -0.204      865.892
01/19/2021  07:10:00      287.712      -35.837     -114.410      729.852       50.020      349.956   532684.016     2501.997   122469.465       37.727       32.883      289.935      503.963        3.021      331.888        0.212      865.884
01/19/2021  07:11:00      274.350      -58.939     -108.755      715.713       44.155      342.999   512244.828     1949.694   117648.486       36.108       31.592      280.610      494.290        3.103      331.863        0.168      865.902
01/19/2021  07:12:00      190.684      -50.515      -71.087      629.248       46.602      300.203   395952.946     2171.715    90122.055       26.600       24.412      197.261      433.468        4.829      331.655       -0.176      865.919
01/19/2021  07:13:00      196.950      -59.476      -65.551      595.419       45.410      282.090   354523.876     2062.034    79574.508       24.130       21.808      205.734      408.465        3.942      331.515       -0.408      865.922
01/19/2021  07:14:00      178.026     -101.548      -60.041      497.664       43.138      236.998   247669.079     1860.896    56167.889       17.559       15.285      204.952      342.203        2.788      331.415       -0.577      865.922
01/19/2021  07:15:00      212.023      -81.807      -80.400      582.361       43.442      278.310   339143.911     1887.231    77456.541       23.821       20.924      227.258      400.596        3.107      331.645       -0.197      865.922
01/19/2021  07:16:00      108.423      -57.710      -35.812      456.535       43.802      217.672   208423.852     1918.602    47380.993       13.699       12.886      122.825      313.135        6.500      331.381       -0.634      865.930
01/19/2021  07:17:00      259.288      -37.054      -90.209      629.876       47.543      304.973   396744.283     2260.370    93008.255       28.427       24.601      261.922      436.686        2.780      331.711       -0.085      865.937
01/19/2021  07:18:00      204.693      -26.077      -67.795      574.560       45.087      280.399   330118.897     2032.880    78623.342       22.889       20.539      206.347      399.618        3.751      331.553       -0.346      865.959
01/19/2021  07:19:00      222.707      -66.657      -76.582      592.185       55.138      279.220   350683.103     3040.187    77963.669       24.571       21.584      232.469      404.718        3.031      331.544       -0.362      865.974
01/19/2021  07:20:00      210.244     -112.033      -80.453      599.954       42.707      284.577   359944.635     1823.893    80984.353       25.290       22.138      238.231      411.451        2.983      331.618       -0.239      865.967
01/19/2021  07:21:00      203.023     -122.055      -67.258      539.570       49.728      258.663   291136.086     2472.840    66906.625       21.050       18.026      236.887      371.581        2.461      331.597       -0.276      865.946
01/19/2021  07:22:00      238.718     -125.758      -83.739      579.894       50.363      276.824   336276.854     2536.473    76631.497       24.754       20.772      269.818      398.703        2.184      331.536       -0.374      865.939
01/19/2021  07:23:00      225.889      -54.638      -72.581      598.824       52.832      285.503   358590.462     2791.270    81511.833       25.099       22.145      232.403      411.910        3.141      331.602       -0.265      865.967
01/19/2021  07:24:00      148.326       -9.403      -53.808      541.632       55.395      261.428   293365.607     3068.572    68344.352       19.480       18.239      148.623      374.596        6.353      331.547       -0.356      866.015
01/19/2021  07:25:00      171.899       -6.796      -42.422      453.151       53.823      217.118   205346.084     2896.934    47140.409       14.334       12.769      172.033      310.698        3.262      331.421       -0.567      866.033
01/19/2021  07:26:00      223.128       85.707      -59.737      491.053       55.526      230.891   241132.681     3083.108    53310.435       17.905       14.876      239.022      334.370        1.957      331.368       -0.655      866.039
01/19/2021  07:27:00      245.497       -1.953      -77.014      637.532       52.674      302.732   406446.834     2774.522    91646.514       28.343       25.043      245.505      437.588        3.177      331.578       -0.301      866.049
01/19/2021  07:28:00      192.433      -56.209      -52.058      474.204      155.395      236.775   224869.485    24147.540    56062.179       17.393       15.254      200.475      310.414        2.398      331.495       -0.445      866.072
01/19/2021  07:29:00      138.511        9.577      -24.044      374.505       51.867      179.840   140253.814     2690.236    32342.537        9.753        8.764      138.842      256.403        3.410      331.366       -0.659      866.090
01/19/2021  07:30:00      297.000       56.424      -91.286      680.208       64.312      324.907   462683.357     4136.002   105564.519       33.593       28.619      302.313      468.257        2.399      331.647       -0.186      866.087
01/19/2021  07:31:00      202.024       52.500      -47.677      449.000      124.485      220.117   201601.409    15496.554    48451.476       15.564       13.277      208.734      296.592        2.019      331.195       -0.940      866.088
01/19/2021  07:32:00      213.578       43.033      -52.945      531.734       44.881      254.856   282740.846     2014.289    64951.645       19.992       17.485      217.871      365.937        2.821      331.329       -0.716      866.102
01/19/2021  07:33:00      131.265       34.003      -20.722      306.050       45.236      147.445    93666.634     2046.315    21739.946        6.811        5.873      135.598      208.886        2.373      331.077       -1.138      866.117
01/19/2021  07:34:00      107.034       10.685      -16.567      399.481       53.007      189.764   159584.846     2809.773    36010.249       10.508        9.920      107.566      272.893        6.436      331.274       -0.813      866.124
01/19/2021  07:35:00       89.551       48.502      -24.083      323.293      184.487      178.426   104518.658    34035.573    31835.673        9.063        8.519      101.842      201.993        3.934      331.402       -0.602      866.128
01/19/2021  07:36:00      105.816      -23.124      -19.725      382.621       58.688      187.122   146398.549     3444.242    35014.653        9.845        9.243      108.313      264.103        5.945      331.307       -0.758      866.149
01/19/2021  07:37:00      109.385       44.271      -18.759      386.272       54.811      187.902   149206.169     3004.271    35307.259       10.086        9.376      118.004      264.885        5.039      331.201       -0.932      866.190
01/19/2021  07:38:00      115.707        5.303      -30.989      505.565       56.736      245.922   255595.965     3219.019    60477.823       16.677       15.965      115.829      350.298        9.146      331.485       -0.460      866.220
01/19/2021  07:39:00      112.100       33.415      -27.832      438.132       53.552      213.542   191960.042     2867.848    45600.137       12.739       12.021      116.974      302.892        6.705      331.357       -0.673      866.244
01/19/2021  07:40:00       85.277       32.757      -12.380      427.281       55.109      208.637   182569.287     3037.047    43529.267       11.877       11.457       91.352      295.724       10.479      331.304       -0.764      866.277
01/19/2021  07:41:00      102.282       28.104      -17.691      337.266       78.659      162.344   113748.189     6187.169    26355.469        7.890        7.315      106.073      228.560        4.643      331.286       -0.791      866.309
01/19/2021  07:42:00      126.406       54.163      -30.825      458.466       46.347      223.010   210191.135     2148.038    49733.640       14.091       13.104      137.522      317.239        5.321      331.321       -0.733      866.315
01/19/2021  07:43:00       56.688       -8.399       -1.006      321.461       50.678      150.601   103337.013     2568.228    22680.750        6.591        6.429       57.307      215.871       14.190      331.354       -0.683      866.328
01/19/2021  07:44:00       56.882        7.596      -15.137      219.760       48.881      110.124    48294.555     2389.345    12127.340        3.315        3.141       57.387      151.258        6.947      331.253       -0.851      866.343
01/19/2021  07:45:00       99.634       -0.063      -41.652      421.395       49.850      201.674   177573.484     2485.033    40672.593       11.615       11.037       99.634      288.932        8.410      331.628       -0.227      866.354
01/19/2021  07:46:00      102.334       29.020      -10.631      296.962       52.863      145.530    88186.620     2794.474    21178.951        6.177        5.608      106.369      202.742        3.633      331.303       -0.766      866.364
01/19/2021  07:47:00      158.385       40.172      -28.354      426.258       53.183      205.877   181696.227     2828.379    42385.328       12.716       11.345      163.400      294.034        3.238      331.315       -0.743      866.386
01/19/2021  07:48:00      112.586       20.790      -19.866      366.637       51.925      176.055   134422.378     2696.223    30995.378        9.077        8.406      114.489      250.576        4.790      331.414       -0.581      866.426
01/19/2021  07:49:00       64.666       43.370       -3.394      251.721       45.097      119.394    63363.326     2033.750    14254.933        4.285        3.983       77.863      169.499        4.739      331.166       -0.993      866.434
01/19/2021  07:50:00      100.866       47.828      -20.520      397.512       46.817      191.702   158015.950     2191.833    36749.693       10.488        9.848      111.631      273.312        5.994      331.397       -0.609      866.422
01/19/2021  07:51:00      109.937       41.943       -7.036      343.655       47.787      167.574   118099.090     2283.580    28080.878        8.115        7.423      117.666      236.638        4.044      331.299       -0.771      866.408
01/19/2021  07:52:00      113.096       70.386       -7.968      213.062       46.847      107.029    45395.518     2194.597    11455.136        3.841        2.952      133.210      146.386        1.208      331.152       -1.016      866.423
01/19/2021  07:53:00      129.718       73.174      -27.065      333.585       42.590      161.091   111279.228     1813.948    25950.273        8.095        6.952      148.934      229.090        2.366      331.259       -0.838      866.449
01/19/2021  07:54:00      208.729       31.195      -79.145      582.000       65.994      278.339   338724.264     4355.273    77472.811       23.559       21.028      211.047      401.081        3.612      331.581       -0.300      866.460
01/19/2021  07:55:00       59.291       31.652      -15.050      215.093       49.834      108.293    46265.169     2483.468    11727.426        3.260        3.024       67.211      149.525        4.949      331.258       -0.842      866.459
01/19/2021  07:56:00      224.863       12.125      -55.297      555.260       70.897      259.058   308313.146     5026.326    67111.242       21.703       19.023      225.190      377.110        2.804      331.676       -0.145      866.467
01/19/2021  07:57:00      100.727       36.062      -14.066      206.858       65.660      100.283    42790.358     4311.226    10056.703        3.439        2.858      106.988      139.827        1.708      331.317       -0.747      866.493
01/19/2021  07:58:00      117.102        6.270      -48.906      451.848       66.872      209.828   204166.390     4471.808    44027.821       13.435       12.633      117.270      304.984        6.764      331.552       -0.352      866.521
01/19/2021  07:59:00      140.183       72.462      -34.179      323.207       41.429      155.234   104462.706     1716.327    24097.654        7.815        6.514      157.803      221.860        1.977      331.316       -0.745      866.520
01/19/2021  08:00:00      136.954       25.973      -20.828      315.568       54.270      156.311    99583.457     2945.249    24433.212        7.339        6.348      139.395      218.103        2.448      331.274       -0.812      866.501
01/19/2021  08:01:00      193.323       66.452      -38.558      381.251       56.920      181.986   145352.454     3239.834    33118.956       11.246        9.086      204.425      261.162        1.632      331.376       -0.646      866.506
01/19/2021  08:02:00      114.798       62.662      -17.160      208.358       50.327      100.820    43413.239     2532.804    10164.582        3.674        2.806      130.786      141.896        1.177      331.288       -0.793      866.547
01/19/2021  08:03:00      176.507       55.095      -48.028      444.280       59.436      211.837   197384.702     3532.692    44874.863       14.109       12.290      184.906      304.496        2.712      331.496       -0.447      866.581
01/19/2021  08:04:00      226.759        8.345      -22.142      351.747       42.386      164.512   123725.992     1796.562    27064.292       10.225        7.629      226.913      236.279        1.084      331.424       -0.568      866.591
01/19/2021  08:05:00      205.409       12.150      -32.098      478.718       50.188      229.959   229170.572     2518.807    52881.249       16.391       14.229      205.768      328.556        2.550      331.653       -0.186      866.594
01/19/2021  08:06:00      217.698       42.524      -34.746      417.022       54.432      197.522   173907.510     2962.829    39014.761       13.310       10.794      221.812      284.499        1.645      331.486       -0.463      866.624
01/19/2021  08:07:00      120.463        5.043      -39.244      457.803       62.518      214.286   209583.348     3908.556    45918.618       13.769       12.971      120.569      310.006        6.611      331.908        0.234      866.650
01/19/2021  08:08:00      183.926      -22.679      -77.308      617.052       67.396      295.301   380753.615     4542.158    87202.792       25.631       23.625      185.319      424.634        5.250      332.099        0.555      866.674
01/19/2021  08:09:00      248.696        7.607      -36.620      514.398       67.202      240.030   264605.810     4516.043    57614.230       19.492       16.337      248.812      347.213        1.947      331.683       -0.136      866.705
01/19/2021  08:10:00      235.660       82.495      -12.197      241.284      110.294      112.259    58217.765    12164.712    12602.027        7.272        4.149      249.682      153.219        0.377      331.405       -0.601      866.726
01/19/2021  08:11:00      309.864       63.258      -54.669      399.257       69.286      186.900   159406.492     4800.562    34931.450       15.103        9.957      316.256      268.701        0.722      331.591       -0.294      866.730
01/19/2021  08:12:00      174.907       10.147      -19.926      378.836       78.107      178.001   143516.370     6100.683    31684.411       10.616        9.065      175.201      254.896        2.117      331.817        0.081      866.725
01/19/2021  08:13:00      205.586       23.872      -56.127      457.605       75.548      224.721   209401.972     5707.470    50499.433       15.574       13.280      206.967      312.317        2.277      331.824        0.094      866.752
01/19/2021  08:14:00      254.640       66.951      -56.653      421.804       57.651      202.339   177918.771     3323.642    40941.178       14.731       11.109      263.294      289.855        1.212      331.687       -0.133      866.796
01/19/2021  08:15:00      176.878       56.098      -20.287      256.343       45.840      118.128    65711.671     2101.330    13954.204        5.829        4.088      185.560      169.745        0.837      331.402       -0.606      866.809
01/19/2021  08:16:00      205.876       62.313      -28.873      323.971       62.865      150.684   104957.446     3951.983    22705.612        8.933        6.581      215.099      217.746        1.025      331.544       -0.371      866.822
01/19/2021  08:17:00      142.635       16.813      -46.229      473.885       49.073      232.599   224566.813     2408.134    54102.265       15.186       14.054      143.623      330.320        5.290      331.947        0.299      866.830
01/19/2021  08:18:00      257.671       -4.096      -74.187      614.016       51.374      292.514   377016.163     2639.257    85564.211       26.847       23.261      257.703      421.069        2.670      332.027        0.436      866.810
01/19/2021  08:19:00      117.080       22.457      -21.993      321.113       53.976      151.771   103113.454     2913.412    23034.507        7.185        6.453      119.215      217.697        3.335      331.732       -0.059      866.807
01/19/2021  08:20:00       94.364       33.144      -26.013      224.985       58.902      107.457    50618.289     3469.434    11547.035        3.814        3.282      100.015      151.174        2.285      331.698       -0.118      866.809
01/19/2021  08:21:00      144.571       25.211      -43.268      436.534       81.075      206.486   190561.993     6573.217    42636.286       13.154       11.989      146.753      297.387        4.106      331.932        0.272      866.839
01/19/2021  08:22:00      203.369       45.583      -37.668      412.662       69.732      195.586   170289.972     4862.596    38253.850       12.909       10.670      208.414      278.563        1.786      331.882        0.187      866.913
01/19/2021  08:23:00      156.623       77.934      -22.569      332.256       48.737      158.150   110393.972     2375.291    25011.506        8.442        6.889      174.942      224.872        1.652      331.679       -0.147      866.981
01/19/2021  08:24:00      200.594       89.539      -24.518      243.323       86.014      115.031    59205.897     7398.438    13232.223        6.433        3.992      219.671      157.888        0.517      331.695       -0.124      867.021
01/19/2021  08:25:00      256.260       85.764      -23.101      317.718      113.418      154.480   100944.738    12863.541    23864.222       10.559        6.884      270.231      211.195        0.611      331.745       -0.040      867.004
01/19/2021  08:26:00      204.516       68.917      -37.790      374.399       83.809      173.914   140174.497     7023.892    30246.093       11.269        8.872      215.815      248.433        1.325      331.775        0.010      866.999
01/19/2021  08:27:00      144.724       34.487      -35.825      202.580       81.256       94.086    41038.538     6602.491     8852.196        3.994        2.825      148.776      126.412        0.722      331.748       -0.036      867.017
01/19/2021  08:28:00      131.928       60.413      -35.367      369.289       74.033      179.713   136374.545     5480.926    32296.791        9.819        8.708      145.103      251.939        3.015      332.027        0.428      867.020
01/19/2021  08:29:00      249.141      156.531      -40.659      266.135       54.597      128.004    70827.605     2980.813    16385.031        8.919        4.510      294.233      175.342        0.355      331.737       -0.054      867.023
01/19/2021  08:30:00      370.441      198.680      -62.934      328.172       80.872      143.547   107696.623     6540.288    20605.841       15.772        6.742      420.357      202.573        0.232      331.666       -0.174      867.018
01/19/2021  08:31:00      414.445      113.535      -54.184      357.526      148.483      164.123   127824.958    22047.058    26936.519       18.216        8.840      429.715      217.322        0.256      331.766       -0.006      867.001
01/19/2021  08:32:00      399.036      160.648      -43.713      362.030      119.293      177.378   131065.710    14230.857    31462.925       18.182        8.838      430.159      237.455        0.305      331.790        0.033      867.004
01/19/2021  08:33:00      412.332      137.159      -32.792      297.548      134.530      126.136    88534.700    18098.359    15910.301       15.620        6.127      434.546      163.930        0.142      331.643       -0.211      867.017
01/19/2021  08:34:00      375.800       64.971      -24.795      227.408      104.137      100.712    51714.308    10844.437    10142.822       10.937        3.635      381.375      119.877        0.099      331.606       -0.274      867.046
01/19/2021  08:35:00      345.892       63.780      -68.937      516.424      142.405      230.156   266694.174    20279.294    52971.796       23.413       16.997      351.723      329.430        0.877      331.957        0.314      867.070
01/19/2021  08:36:00      297.184       58.911      -21.267      279.480      114.338      138.947    78109.293    13073.217    19306.384       10.134        5.524      302.967      185.848        0.376      331.697       -0.123      867.096
01/19/2021  08:37:00      201.286      109.256      -24.974      297.496       78.139      136.719    88503.969     6105.669    18692.176        8.317        5.665      229.026      192.502        0.706      331.740       -0.050      867.108
01/19/2021  08:38:00      284.833       59.527      -48.489      451.605       64.677      211.276   203947.507     4183.088    44637.652       16.984       12.638      290.987      304.808        1.097      331.933        0.272      867.137
01/19/2021  08:39:00      269.612      101.356      -23.518      308.539       71.423      148.922    95196.616     5101.244    22177.888       10.297        6.124      288.035      204.460        0.504      331.719       -0.084      867.151
01/19/2021  08:40:00      283.903      197.296      -52.312      466.094       98.278      220.439   217243.319     9658.626    48593.420       19.882       13.775      345.726      313.051        0.820      331.899        0.216      867.174
01/19/2021  08:41:00      194.123      167.180      -23.967      126.191       80.029       52.348    15924.089     6404.577     2740.357        4.563        1.253      256.189       41.576        0.026      331.701       -0.117      867.183
01/19/2021  08:42:00      185.621      131.805      -30.586      313.504       76.149      144.670    98284.928     5798.734    20929.539        8.886        6.251      227.657      208.129        0.836      331.877        0.177      867.199
01/19/2021  08:43:00      140.154       44.834      -35.567      422.446       73.166      200.193   178460.394     5353.291    40077.201       12.336       11.195      147.150      287.810        3.826      332.108        0.561      867.202
01/19/2021  08:44:00      162.490       42.065      -28.179      311.313       84.767      147.084    96915.740     7185.365    21633.727        7.732        6.287      167.847      206.299        1.511      332.046        0.457      867.210
01/19/2021  08:45:00      194.634       -8.159      -15.796      354.667       86.988      166.398   125788.681     7566.861    27688.389        9.959        8.052      194.805      234.903        1.454      332.008        0.395      867.219
01/19/2021  08:46:00      215.526       28.100      -19.292      261.544      111.167      110.382    68405.430    12358.058    12184.270        7.026        4.647      217.350      151.415        0.485      331.981        0.347      867.212
01/19/2021  08:47:00      385.401      148.609      -51.657      307.970       95.716      148.756    94845.487     9161.515    22128.248       14.968        6.307      413.060      200.259        0.235      331.842        0.118      867.243
01/19/2021  08:48:00      316.345      136.391      -27.022      252.658      107.664      123.181    63836.097    11591.448    15173.458       10.498        4.530      344.495      163.226        0.224      331.870        0.162      867.274
01/19/2021  08:49:00      387.500       97.548      -42.201      319.896      121.509      150.187   102333.528    14764.421    22556.082       15.052        6.983      399.590      209.244        0.274      331.941        0.281      867.299
01/19/2021  08:50:00      320.488      147.040      -40.089      338.312       96.784      143.998   114455.179     9367.067    20735.392       13.522        7.228      352.609      202.096        0.328      331.967        0.325      867.300
01/19/2021  08:51:00      297.492      103.337      -26.999      283.782       84.222      134.562    80532.142     7093.298    18106.818       10.280        5.287      314.929      186.205        0.350      331.925        0.254      867.307
01/19/2021  08:52:00      239.030       59.612      -19.258      287.433       99.019      139.176    82617.901     9804.694    19370.033        8.640        5.590      246.351      190.353        0.597      331.915        0.240      867.342
01/19/2021  08:53:00      129.571       20.574      -18.774      206.187       96.990       99.534    42512.881     9407.002     9906.987        3.968        3.091      131.194      133.186        1.031      332.049        0.460      867.383
01/19/2021  08:54:00      164.838       19.286      -17.673      263.029      100.432      125.699    69184.369    10086.636    15800.311        6.144        4.754      165.962      172.862        1.085      332.134        0.600      867.410
01/19/2021  08:55:00      182.729        1.644      -13.515      124.462      111.610       54.869    15490.684    12456.702     3010.606        3.226        1.548      182.736       43.093        0.056      331.963        0.317      867.443
01/19/2021  08:56:00      203.765       84.888      -30.018      352.058       83.433      159.275   123944.686     6961.131    25368.615       10.292        7.814      220.740      231.159        1.097      332.147        0.621      867.485
01/19/2021  08:57:00      249.485      115.497      -39.829      371.884       96.111      175.511   138297.890     9237.400    30804.285       12.772        8.917      274.922      247.074        0.808      332.164        0.650      867.505
01/19/2021  08:58:00      334.330      101.249      -31.190      382.620      117.547      176.645   146397.825    13817.371    31203.442       15.717        9.571      349.325      246.486        0.498      332.074        0.500      867.469
01/19/2021  08:59:00      390.751      144.722      -25.821      157.573       93.068       67.051    24829.094     8661.738     4495.805       10.613        1.899      416.690       53.400        0.016      331.746       -0.044      867.498
01/19/2021  09:00:00      409.242      136.621      -56.529      439.364      111.745      205.798   193041.043    12486.976    42352.812       21.856       12.394      431.445      289.936        0.452      331.993        0.370      867.475
01/19/2021  09:01:00      355.951       63.266      -12.767      269.063      128.773      131.030    72394.959    16582.437    17168.738       11.848        5.307      361.529      160.824        0.198      331.767       -0.007      867.475
01/19/2021  09:02:00      178.580       -4.776       -3.495      271.004       90.318      136.089    73443.267     8157.306    18520.267        6.600        5.006      178.644      174.813        0.958      331.858        0.144      867.491
01/19/2021  09:03:00      300.207      123.671      -42.550      398.057      160.228      170.604   158449.363    25673.047    29105.786       16.018       10.661      324.683      245.129        0.570      331.924        0.254      867.511
01/19/2021  09:04:00      297.234      110.035      -51.153      476.885      107.725      227.173   227419.605    11604.686    51607.765       19.679       14.532      316.948      321.675        1.030      332.070        0.498      867.516
01/19/2021  09:05:00      266.650       -9.135      -33.848      319.960       91.925      154.760   102374.580     8450.123    23950.601       10.352        6.739      266.806      206.844        0.601      331.926        0.258      867.524
01/19/2021  09:06:00      335.133      -42.982      -46.142      444.635      109.127      203.337   197699.918    11908.784    41346.129       18.357       12.548      337.878      283.412        0.704      331.977        0.343      867.515
01/19/2021  09:07:00      306.412       -4.406      -26.010      397.185      117.904      179.676   157755.712    13901.296    32283.481       14.922       10.197      306.444      253.239        0.683      331.949        0.295      867.571
01/19/2021  09:08:00      115.503        2.663      -22.214      280.720      112.379      144.181    78803.704    12628.944    20788.132        6.301        5.611      115.534      187.382        2.630      331.942        0.284      867.608
01/19/2021  09:09:00      176.197       12.894      -34.196      373.950       96.209      169.796   139838.655     9256.259    28830.811       10.512        8.896      176.668      242.377        1.882      332.020        0.414      867.657
01/19/2021  09:10:00      121.852       41.084      -12.749      252.909       74.302      120.087    63962.778     5520.780    14420.955        5.028        4.195      128.592      167.871        1.704      331.951        0.299      867.689
01/19/2021  09:11:00      235.070        4.099      -42.937      436.286       72.456      204.466   190345.811     5249.848    41806.273       14.721       11.870      235.105      293.827        1.562      332.053        0.470      867.680
01/19/2021  09:12:00      185.464      -12.445      -37.430      370.980       78.553      173.824   137626.039     6170.643    30214.928       10.495        8.701      185.881      243.304        1.713      332.027        0.426      867.667
01/19/2021  09:13:00      154.876      -17.553      -29.666      365.812       80.181      175.319   133818.153     6428.937    30736.855        9.804        8.549      155.868      247.878        2.529      332.081        0.516      867.647
01/19/2021  09:14:00      121.701      -18.555      -37.177      284.010       88.080      140.568    80661.929     7758.151    19759.486        6.234        5.409      123.108      192.783        2.452      332.277        0.836      867.640
01/19/2021  09:15:00      166.505       -8.291      -25.793      367.823      103.352      185.478   135293.613    10681.677    34401.967       10.438        9.019      166.711      247.745        2.208      332.247        0.789      867.630
01/19/2021  09:16:00      189.437       10.047      -27.892      406.555       76.305      194.011   165287.078     5822.399    37640.157       12.271       10.437      189.703      274.793        2.098      332.195        0.703      867.650
01/19/2021  09:17:00       85.117      -37.094      -23.855      250.402       89.109      116.068    62700.981     7940.350    13471.695        4.663        4.206       92.849      165.796        3.189      332.247        0.787      867.659
01/19/2021  09:18:00      123.536      -19.305      -45.775      412.437       65.897      200.605   170104.392     4342.357    40242.518       11.616       10.734      125.035      284.453        5.176      332.529        1.256      867.652
01/19/2021  09:19:00      137.131      -16.019      -30.082      440.516       75.532      213.584   194054.290     5705.095    45618.018       13.262       12.269      138.063      302.513        4.801      332.618        1.404      867.638
01/19/2021  09:20:00      120.383        6.370      -30.867      297.893       90.757      142.526    88740.377     8236.912    20313.768        6.636        5.865      120.551      201.641        2.798      332.466        1.148      867.653
01/19/2021  09:21:00      127.988       27.305      -16.584      272.479       73.677      128.061    74244.990     5428.372    16399.626        5.672        4.804      130.868      175.737        1.803      332.420        1.071      867.673
01/19/2021  09:22:00      303.011       84.522      -33.568      295.397       64.504      141.110    87259.303     4160.709    19911.940       10.569        5.567      314.578      198.851        0.400      332.127        0.588      867.676
01/19/2021  09:23:00      116.319       36.478       -4.614       85.972       83.598       44.800     7391.205     6988.558     2007.055        1.563        0.819      121.904       42.606        0.122      332.298        0.868      867.675
01/19/2021  09:24:00      324.953       82.474      -38.576      320.853       60.292      154.307   102946.771     3635.155    23810.774       12.211        6.520      335.255      217.481        0.421      332.268        0.820      867.684
01/19/2021  09:25:00      109.044      -10.068      -20.221      200.852       77.259       88.494    40341.719     5968.955     7831.159        3.326        2.707      109.508      114.737        1.098      332.630        1.416      867.670
01/19/2021  09:26:00      258.517      117.183      -33.747      256.219       78.823      119.885    65648.396     6213.121    14372.505        8.395        4.312      283.836      167.593        0.349      332.223        0.745      867.686
01/19/2021  09:27:00      245.733       39.267      -26.143      199.146       77.598       97.482    39659.319     6021.401     9502.795        5.889        2.759      248.851      130.369        0.274      332.274        0.829      867.702
01/19/2021  09:28:00      208.592       -2.231       -0.220      208.240       80.414      107.978    43364.013     6466.466    11659.291        5.249        3.074      208.604      136.138        0.426      332.274        0.830      867.720
01/19/2021  09:29:00      122.235        7.903      -15.750      242.996      109.537      126.840    59047.068    11998.282    16088.276        5.117        4.357      122.491      163.508        1.782      332.422        1.075      867.749
01/19/2021  09:30:00      202.522       42.902       -1.978      148.702      112.797       60.918    22112.290    12723.167     3710.957        4.070        1.927      207.016       72.906        0.124      332.206        0.716      867.788
01/19/2021  09:31:00      214.688       77.501      -26.547      182.945       77.703       89.745    33469.008     6037.815     8054.162        5.017        2.378      228.248      116.534        0.261      332.363        0.974      867.838
01/19/2021  09:32:00      186.669       92.391      -26.450      242.289       65.630      117.473    58704.009     4307.351    13799.948        6.043        3.841      208.282      161.806        0.604      332.524        1.243      867.859
01/19/2021  09:33:00      166.551       66.386      -20.792      192.803       83.685       91.014    37172.861     7003.179     8283.507        4.251        2.623      179.294      122.825        0.469      332.578        1.331      867.873
01/19/2021  09:34:00      157.450       58.100      -22.100      279.067       70.811      120.894    77878.282     5014.145    14615.380        6.306        4.875      167.828      176.179        1.102      332.531        1.254      867.881
01/19/2021  09:35:00      169.131       81.197      -26.150       67.135       70.543       36.574     4507.096     4976.256     1337.625        2.335        0.541      187.612       24.387        0.017      332.290        0.854      867.875
01/19/2021  09:36:00      183.752       77.751      -28.802      199.335       68.199      100.375    39734.574     4651.168    10075.103        4.754        2.723      199.525      134.927        0.457      332.437        1.099      867.864
01/19/2021  09:37:00      278.879      174.427      -36.067      121.064       97.497       48.860    14656.497     9505.696     2387.309        6.802        1.327      328.935       48.612        0.022      332.372        0.989      867.884
01/19/2021  09:38:00      257.591      150.294      -25.498      140.562       96.009       60.829    19757.619     9217.766     3700.141        6.113        1.634      298.230       56.014        0.035      332.365        0.978      867.874
01/19/2021  09:39:00      178.639      104.627      -27.529       97.291      121.165       55.976     9465.536    14680.948     3133.348        3.544        1.364      207.023       44.388        0.046      332.459        1.132      867.875
01/19/2021  09:40:00      291.357       99.387      -14.378      135.004       88.707       57.118    18226.021     7869.015     3262.412        6.216        1.468      307.842       50.875        0.027      332.365        0.978      867.878
01/19/2021  09:41:00      277.436      135.960      -25.946      109.668       69.995       50.258    12027.146     4899.356     2525.859        5.779        0.973      308.959       43.779        0.020      332.296        0.864      867.896
01/19/2021  09:42:00      193.778      110.578      -28.592       99.055       81.814       48.980     9811.859     6693.503     2399.078        3.475        0.945      223.109       28.080        0.016      332.512        1.221      867.904
01/19/2021  09:43:00      107.915      129.688      -19.135       90.401       61.394       42.117     8172.318     3769.279     1773.843        2.127        0.686      168.715       47.157        0.078      332.504        1.209      867.913
01/19/2021  09:44:00      144.644      142.222      -20.001       82.456       63.784       45.564     6798.959     4068.440     2076.060        2.724        0.647      202.852       31.876        0.025      332.640        1.431      867.908
01/19/2021  09:45:00      224.499       64.692      -14.410       99.016       57.376       49.053     9804.072     3291.988     2406.173        3.514        0.775      233.634       43.757        0.035      332.538        1.262      867.886
01/19/2021  09:46:00      268.700       79.820       -9.308      181.614       91.796       79.078    32983.482     8426.582     6253.255        6.315        2.383      280.305      101.907        0.132      332.543        1.273      867.873
01/19/2021  09:47:00      211.099      130.312      -20.344       87.043       69.804       41.729     7576.491     4872.557     1741.273        3.807        0.710      248.080       24.957        0.010      332.642        1.435      867.916
01/19/2021  09:48:00      211.439       66.770      -12.940      145.312      109.712       47.371    21115.597    12036.762     2244.056        4.236        1.770      221.731       39.506        0.032      332.736        1.591      867.925
01/19/2021  09:49:00      192.322       41.786       -5.028      240.969      144.888      110.194    58066.266    20992.630    12142.803        6.496        4.560      196.809      146.394        0.553      332.931        1.914      867.896
01/19/2021  09:50:00      219.165      222.032      -29.793      102.465       94.848       58.240    10499.073     8996.073     3391.888        6.055        1.144      311.980       42.840        0.019      332.524        1.240      867.909
01/19/2021  09:51:00      223.326      222.675      -32.795      206.897      181.313       96.197    42806.411    32874.377     9253.910        9.272        4.247      315.371      121.899        0.149      332.741        1.598      867.898
01/19/2021  09:52:00      350.498       85.159      -13.456      154.713      119.113       62.409    23936.005    14187.821     3894.862        8.614        2.101      360.695       68.439        0.036      332.615        1.391      867.909
01/19/2021  09:53:00      317.000       91.349      -23.698      208.253       80.983      102.892    43369.149     6558.248    10586.737        8.494        3.026      329.899      131.669        0.159      332.567        1.314      867.918
01/19/2021  09:54:00      241.440       86.217      -19.208      109.565       85.212       58.238    12004.593     7261.040     3391.609        4.437        1.133      256.372       61.223        0.057      332.782        1.667      867.908
01/19/2021  09:55:00      288.149       96.914      -19.468       88.463       99.022       48.733     7825.733     9805.271     2374.938        5.640        1.000      304.010       22.928        0.006      332.631        1.416      867.912
01/19/2021  09:56:00      195.811      -59.878      -26.466      141.321       95.089       61.977    19971.484     9041.899     3841.126        3.773        1.643      204.762       48.287        0.056      332.785        1.672      867.918
01/19/2021  09:57:00      124.271      -29.890      -15.173      121.309      109.103       52.220    14715.785    11903.488     2726.903        2.295        1.467      127.815       50.317        0.155      332.865        1.804      867.907
01/19/2021  09:58:00      152.070      -17.967      -15.244      199.829       96.575      106.657    39931.452     9326.667    11375.701        4.214        3.032      153.127      128.896        0.709      332.773        1.653      867.908
01/19/2021  09:59:00      161.917      -13.478        6.253      132.019       85.603       63.317    17428.905     7327.815     4009.083        2.760        1.438      162.477       67.614        0.173      332.837        1.757      867.920
01/19/2021  10:00:00      164.091      -29.644      -31.644      190.826      168.266       91.398    36414.715    28313.460     8353.563        5.093        3.654      166.747      105.536        0.401      333.082        2.163      867.920
01/19/2021  10:01:00      212.247       11.753      -48.518      156.526      108.432       60.464    24500.258    11757.575     3655.929        4.372        1.996      212.572       19.915        0.009      332.889        1.842      867.909
01/19/2021  10:02:00      242.298       55.603      -18.441      108.830      101.103       66.809    11844.020    10221.789     4463.478        4.433        1.326      248.596       63.216        0.065      332.683        1.501      867.917
01/19/2021  10:03:00      167.656      137.263      -22.677       97.080       95.192       38.300     9424.533     9061.546     1466.919        3.370        0.998      216.679       37.300        0.030      332.878        1.825      867.921
01/19/2021  10:04:00      267.305      105.302      -16.631      133.552       86.643       49.181    17836.255     7507.063     2418.808        5.528        1.388      287.299       23.342        0.007      332.874        1.816      867.907
01/19/2021  10:05:00      338.674      104.386      -34.318      132.434      101.082       64.865    17538.740    10217.620     4207.494        7.936        1.598      354.396       45.441        0.016      332.850        1.777      867.907
01/19/2021  10:06:00      226.559      145.539      -24.614      217.492      115.158       94.107    47302.687    13261.337     8856.060        7.125        3.471      269.277      125.245        0.216      333.067        2.136      867.922
01/19/2021  10:07:00      437.297      155.794      -34.406      125.583       90.727       65.638    15771.027     8231.466     4308.282       12.249        1.416      464.220       51.928        0.013      332.725        1.572      867.940
01/19/2021  10:08:00      276.375       74.256      -34.677      233.813       77.295      115.297    54668.512     5974.444    13293.490        7.850        3.697      286.177      144.843        0.256      333.024        2.068      867.946
01/19/2021  10:09:00      291.156       82.677      -20.724      106.562       77.313       44.942    11355.384     5977.256     2019.786        5.569        0.968      302.667       41.051        0.018      332.852        1.780      867.968
01/19/2021  10:10:00      172.010       37.095       -1.797      101.245       77.984       51.388    10250.629     6081.456     2640.748        2.497        0.949      175.964       38.282        0.047      333.328        2.570      867.983
01/19/2021  10:11:00      179.680       16.430      -14.975      157.783       88.136       62.441    24895.545     7768.016     3898.850        3.466        1.828      180.430       56.763        0.099      333.466        2.799      867.988
01/19/2021  10:12:00      297.889      126.532      -20.018      112.454      112.960       56.669    12645.933    12759.980     3211.344        6.688        1.431      323.648       36.671        0.013      332.907        1.873      867.974
01/19/2021  10:13:00      218.696       49.829      -25.069      128.640      147.889       59.484    16548.376    21871.256     3538.342        4.644        2.098      224.301       62.391        0.077      333.101        2.194      867.967
01/19/2021  10:14:00      216.348      -24.738      -42.433      119.067      124.857       77.340    14176.992    15589.286     5981.453        4.248        1.787      217.758       54.331        0.062      333.101        2.194      867.967
01/19/2021  10:15:00      176.108     -142.032      -41.995      148.587      127.852       56.670    22078.172    16346.171     3211.509        4.728        2.082      226.246       46.431        0.042      333.066        2.134      867.922
01/19/2021  10:16:00      125.619      -33.775      -24.253      102.748      115.612       56.426    10557.252    13366.180     3183.842        2.230        1.355      130.080       36.377        0.078      333.116        2.219      867.897
01/19/2021  10:17:00      207.580        5.956      -11.300      103.078       89.906       47.156    10625.126     8083.158     2223.697        3.209        1.047      207.665       50.254        0.059      333.179        2.322      867.900
01/19/2021  10:18:00      311.027       69.918      -19.634      120.699      120.962       65.194    14568.296    14631.815     4250.250        6.772        1.673      318.789       29.429        0.009      333.155        2.281      867.863
01/19/2021  10:19:00      263.960       40.895      -24.483      147.331      141.468       85.807    21706.403    20013.277     7362.831        6.050        2.454      267.109       61.371        0.053      333.210        2.373      867.862
01/19/2021  10:20:00      241.911       19.812      -22.059      210.741      143.491       91.594    44411.933    20589.534     8389.459        6.638        3.670      242.721       99.397        0.168      333.200        2.358      867.855
01/19/2021  10:21:00      224.040        1.171      -19.862      161.674      158.926       86.571    26138.490    25257.625     7494.578        5.473        2.945      224.043       51.350        0.053      333.394        2.678      867.864
01/19/2021  10:22:00      243.387      -50.285       -4.061      206.904      170.824      115.848    42809.115    29180.940    13420.723        7.358        4.271      248.528      107.880        0.188      332.981        1.995      867.861
01/19/2021  10:23:00      260.028     -128.623      -66.764      268.567      213.727      130.211    72128.289    45679.205    16954.932       11.166        6.738      290.101      162.297        0.313      333.098        2.190      867.876
01/19/2021  10:24:00      383.955     -255.957      -69.536      227.849      180.987      120.405    51915.015    32756.334    14497.381       15.845        4.958      461.449      144.926        0.099      332.980        1.992      867.865
01/19/2021  10:25:00      410.912      -23.501      -43.765      235.894      183.615      121.696    55645.913    33714.602    14809.967       13.772        5.209      411.583      113.055        0.075      332.953        1.948      867.850
01/19/2021  10:26:00      274.010       -6.425      -16.547      186.913      137.175       75.873    34936.450    18817.025     5756.660        6.744        2.976      274.085       82.408        0.090      333.023        2.064      867.874
01/19/2021  10:27:00      422.374       33.786      -22.731      164.128      151.855       85.633    26938.100    23059.880     7332.951       11.868        2.867      423.724       87.606        0.043      332.926        1.903      867.812
01/19/2021  10:28:00      258.724      -26.428      -21.431      186.376      157.924      102.775    34736.141    24939.903    10562.728        6.915        3.512      260.071       88.127        0.115      333.128        2.238      867.799
01/19/2021  10:29:00       93.862     -117.690      -14.883      105.067      132.071       56.547    11039.013    17442.822     3197.594        2.727        1.584      150.536       52.962        0.124      333.430        2.738      867.840
01/19/2021  10:30:00      119.083      -15.236      -14.857      120.796      132.560       59.541    14591.618    17572.195     3545.086        2.516        1.785      120.054       43.013        0.128      333.565        2.962      867.868
01/19/2021  10:31:00      142.663     -189.037      -32.214      207.361      292.864      102.049    42998.755    85769.241    10413.944        9.812        6.959      236.828      121.195        0.262      333.270        2.473      867.859
01/19/2021  10:32:00      303.957     -269.717      -67.935      190.814      196.836       92.554    36409.959    38744.461     8566.280       12.672        4.186      406.371      107.487        0.070      333.051        2.110      867.813
01/19/2021  10:33:00      344.933     -195.031      -59.633      199.904      179.730       82.364    39961.574    32302.889     6783.817       11.979        3.952      396.253       78.638        0.039      333.085        2.165      867.827
01/19/2021  10:34:00      324.093      -10.373      -12.508      176.581      113.832       89.287    31181.012    12957.621     7972.128        7.869        2.606      324.259       89.396        0.076      333.059        2.123      867.803
01/19/2021  10:35:00      242.495        0.327      -52.711      191.816      122.377       96.079    36793.270    14976.184     9231.127        6.128        3.050      242.495      102.402        0.178      333.313        2.544      867.801
01/19/2021  10:36:00      272.940     -113.843      -63.433      169.077      185.466       76.508    28587.055    34397.664     5853.427        8.014        3.442      295.730       55.802        0.036      333.330        2.571      867.785
01/19/2021  10:37:00      240.544     -111.962      -30.635      141.647      164.942       78.296    20063.956    27205.780     6130.266        6.236        2.670      265.324       88.895        0.112      333.251        2.441      867.833
01/19/2021  10:38:00      206.163      -76.906      -22.566      145.781      131.428       64.355    21251.995    17273.282     4141.531        4.579        2.133      220.040       72.099        0.107      333.227        2.402      867.835
01/19/2021  10:39:00      158.626      -23.260       -1.304      205.110      105.482      105.300    42069.974    11126.402    11088.094        4.498        3.214      160.322      129.971        0.657      333.155        2.284      867.832
01/19/2021  10:40:00      134.695       11.392       -9.724      138.208      100.737       65.072    19101.350    10148.013     4234.382        2.592        1.674      135.176       61.312        0.206      333.283        2.495      867.837
01/19/2021  10:41:00       59.186      -38.907        2.501      129.758      107.178       86.279    16837.219    11487.051     7444.125        2.039        1.788       70.829       73.682        1.082      333.606        3.030      867.800
01/19/2021  10:42:00      183.731      -61.807       -9.487      195.162      142.783       88.774    38088.308    20387.112     7880.773        5.200        3.318      193.848       83.382        0.185      333.573        2.974      867.810
01/19/2021  10:43:00      181.608     -107.961      -10.677      159.559      173.410      103.432    25458.931    30071.140    10698.097        5.548        3.311      211.275       95.616        0.205      333.385        2.662      867.787
01/19/2021  10:44:00      172.070       14.745      -27.958      201.085      118.186       77.210    40435.118    13968.048     5961.419        4.547        3.018      172.701       65.344        0.143      333.445        2.764      867.808
01/19/2021  10:45:00       97.444      -44.755      -22.359      156.189       97.656       76.141    24394.926     9536.679     5797.487        2.586        1.986      107.231       61.608        0.330      333.559        2.952      867.776
01/19/2021  10:46:00      164.048      -79.937      -13.534      148.871      122.525       74.535    22162.687    15012.336     5555.514        3.810        2.137      182.487       83.233        0.208      333.524        2.893      867.761
01/19/2021  10:47:00      212.921      -49.061      -13.377      182.560      139.602       82.593    33328.231    19488.826     6821.658        5.377        2.982      218.500       79.724        0.133      333.474        2.811      867.756
01/19/2021  10:48:00      232.674      -12.402        0.008      217.472      155.537      100.710    47293.917    24191.759    10142.505        6.794        4.081      233.005       94.059        0.163      333.343        2.593      867.754
01/19/2021  10:49:00      168.529      -49.587      -51.766      190.905      157.504       68.564    36444.623    24807.414     4701.016        4.973        3.298      175.673       27.564        0.025      333.616        3.045      867.791
01/19/2021  10:50:00      303.460     -107.965      -49.188      158.690      193.398       86.228    25182.601    37402.953     7435.238        8.808        3.501      322.094       78.131        0.059      333.502        2.856      867.776
01/19/2021  10:51:00      178.520      -34.762      -27.492      126.328      167.169       75.041    15958.702    27945.514     5631.170        4.167        2.477      181.873       67.824        0.139      333.673        3.140      867.776
01/19/2021  10:52:00      202.874      -81.250      -24.020      217.938      147.753      109.200    47496.879    21830.923    11924.734        6.478        4.063      218.540      107.968        0.244      333.216        2.383      867.738
01/19/2021  10:53:00      218.970     -155.168      -34.869      147.472      182.306       79.594    21748.014    33235.553     6335.210        6.727        3.066      268.374       62.157        0.054      333.247        2.435      867.714
01/19/2021  10:54:00      220.882     -246.737      -59.759      124.518      179.792       65.813    15504.623    32325.281     4331.318        8.269        2.608      331.161       47.319        0.020      333.619        3.049      867.701
01/19/2021  10:55:00      262.989     -126.052      -37.295      196.723      174.273       85.579    38700.112    30371.176     7323.723        8.140        3.820      291.637      102.765        0.124      333.498        2.850      867.694
01/19/2021  10:56:00      216.316      -79.878      -23.806      176.603      147.582       96.838    31188.795    21780.321     9377.549        5.803        3.117      230.593       87.488        0.144      333.541        2.921      867.671
01/19/2021  10:57:00      352.902     -217.430      -47.784      170.590      170.530       94.205    29100.875    29080.563     8874.495       12.056        3.353      414.506       94.342        0.052      333.201        2.358      867.668
01/19/2021  10:58:00      340.224     -210.582      -62.370      160.180      201.304       87.625    25657.594    40523.398     7678.181       11.891        3.693      400.122       83.820        0.044      333.350        2.605      867.664
01/19/2021  10:59:00      195.816      -42.791      -29.468      201.934      135.329       75.239    40777.385    18313.937     5660.928        5.288        3.238      200.437       92.667        0.214      333.645        3.095      867.671
01/19/2021  11:00:00      203.114      -95.129      -36.705      145.522      229.487       84.380    21176.514    52664.499     7120.055        6.629        4.048      224.287       79.470        0.126      333.499        2.851      867.602
01/19/2021  11:01:00      215.178       -3.012      -19.284      190.114      169.647       99.141    36143.216    28780.079     9828.905        6.070        3.738      215.199       89.228        0.172      333.515        2.879      867.598
01/19/2021  11:02:00      336.263     -184.165      -60.019      185.949      171.380       95.934    34577.143    29371.140     9203.253       11.186        3.658      383.392      106.190        0.077      333.207        2.368      867.596
01/19/2021  11:03:00      356.359     -345.023      -77.448      173.737      190.022       83.895    30184.406    36108.299     7038.335       16.267        3.667      496.017       90.546        0.033      333.289        2.502      867.611
01/19/2021  11:04:00      279.666     -116.782      -37.106      207.517      209.327      105.185    43063.183    43817.863    11063.882        9.557        4.897      303.069       99.324        0.107      333.508        2.865      867.623
01/19/2021  11:05:00      226.730        9.652        5.658      202.172      120.307       83.359    40873.641    14473.866     6948.644        5.690        3.115      226.935       87.854        0.150      333.523        2.891      867.641
01/19/2021  11:06:00      240.297      -69.057      -22.612      164.228      138.429       81.794    26970.747    19162.489     6690.302        5.791        2.641      250.023       64.847        0.067      333.596        3.013      867.646
01/19/2021  11:07:00      206.367      -39.896      -26.421      163.206      147.535       90.669    26636.152    21766.710     8220.935        5.074        2.831      210.188       91.663        0.190      333.546        2.930      867.619
01/19/2021  11:08:00      118.056      -22.156      -11.378      135.187      152.268       93.109    18275.628    23185.538     8669.261        3.233        2.507      120.117       67.967        0.320      333.631        3.071      867.597
01/19/2021  11:09:00      241.003      -57.951      -21.599      208.860      144.249      100.367    43622.471    20807.656    10073.543        6.819        3.725      247.873      100.721        0.165      333.776        3.311      867.580
01/19/2021  11:10:00      298.721      -87.677      -13.056      251.473      187.929      140.621    63238.544    35317.141    19774.309       10.769        5.916      311.322      138.544        0.198      333.413        2.707      867.543
01/19/2021  11:11:00      369.466     -173.065      -50.517      203.982      259.275      107.182    41608.819    67223.632    11487.932       14.464        6.016      407.991       88.118        0.047      333.524        2.893      867.544
01/19/2021  11:12:00      266.905      -85.591      -48.176      265.442      179.701      109.283    70459.218    32292.573    11942.879        9.777        5.735      280.293       62.485        0.050      333.598        3.015      867.548
01/19/2021  11:13:00      277.234      -40.937      -22.255      242.253      169.849      118.788    58686.675    28848.727    14110.705        9.032        5.082      280.240      125.667        0.201      333.434        2.743      867.546
01/19/2021  11:14:00      429.824       29.226      -16.989      258.937      164.393      113.382    67048.178    27024.951    12855.411       14.639        5.346      430.817      115.906        0.072      333.334        2.577      867.580
01/19/2021  11:15:00      325.978       12.151      -14.390      220.281      155.754       92.314    48523.765    24259.356     8521.798        9.394        4.065      326.205       93.175        0.082      333.223        2.395      867.611
01/19/2021  11:16:00      314.430      -36.092      -33.668      194.121      168.757      104.160    37682.864    28478.974    10849.268        8.914        3.851      316.495       88.825        0.079      333.532        2.905      867.590
01/19/2021  11:17:00      275.247       19.862      -38.945      215.695      154.181      100.694    46524.181    23771.763    10139.288        7.904        4.022      275.963      102.592        0.138      333.656        3.113      867.650
01/19/2021  11:18:00      216.691       10.085      -21.492      174.234      143.139       98.575    30357.316    20488.713     9717.121        5.403        3.028      216.926       91.393        0.178      333.409        2.702      867.635
01/19/2021  11:19:00      397.042      144.549      -32.946      190.589      153.916       67.980    36324.148    23690.093     4621.226       12.212        3.232      422.537       63.151        0.022      333.272        2.476      867.520
01/19/2021  11:20:00      270.689      -48.069       -7.998      224.935      160.389      115.019    50595.682    25724.622    13229.459        8.258        4.477      274.924      110.497        0.162      333.602        3.023      867.485
01/19/2021  11:21:00      331.937      -46.967      -11.469      230.517      154.245      107.518    53138.029    23791.599    11560.174       10.049        4.424      335.243      103.612        0.096      333.809        3.363      867.507
01/19/2021  11:22:00      256.372       76.707      -47.693      217.776      192.379      100.346    47426.521    37009.574    10069.320        8.417        4.725      267.601       66.994        0.063      333.910        3.531      867.495
01/19/2021  11:23:00      382.854      -20.397      -48.077      235.803      176.646      117.748    55603.010    31203.796    13864.571       12.497        5.034      383.397      106.805        0.078      333.737        3.245      867.500
01/19/2021  11:24:00      506.593       -0.051      -21.434      253.017      189.276      126.001    64017.397    35825.516    15876.227       18.638        5.786      506.593      134.786        0.071      333.403        2.693      867.499
01/19/2021  11:25:00      219.588      -32.479      -23.967      197.840      130.773      105.017    39140.481    17101.583    11028.660        5.855        3.364      221.977       86.339        0.151      333.749        3.266      867.459
01/19/2021  11:26:00      508.842       21.817      -40.412      242.725      178.173      104.129    58915.261    31745.477    10842.767       18.124        5.075      509.310       93.321        0.034      333.655        3.110      867.437
01/19/2021  11:27:00      214.102        5.277       -1.280      195.971      155.762       99.922    38404.620    24261.842     9984.317        5.924        3.633      214.167       85.462        0.159      333.942        3.586      867.398
01/19/2021  11:28:00      456.989        5.775      -26.718      231.233      162.039      120.826    53468.474    26256.647    14599.035       15.194        4.716      457.025      106.398        0.054      333.604        3.025      867.345
01/19/2021  11:29:00      311.800      -51.372      -25.736      276.003      194.585      126.086    76177.480    37863.276    15897.613       11.520        6.497      316.004      130.360        0.170      333.669        3.134      867.321
01/19/2021  11:30:00      398.132      -30.115      -33.860      257.092      193.832      137.187    66096.367    37570.850    18820.408       14.150        6.124      399.270      118.266        0.088      333.515        2.877      867.286
01/19/2021  11:31:00      315.288      -97.509      -34.301      208.052      177.170       96.613    43285.774    31389.287     9333.999        9.703        4.200      330.022       99.586        0.091      333.610        3.035      867.272
01/19/2021  11:32:00      521.730      -62.839      -48.065      302.787      193.194      127.270    91679.674    37323.910    16197.603       21.180        7.260      525.500      119.847        0.052      333.580        2.985      867.195
01/19/2021  11:33:00      332.914      -31.026      -11.481      250.744      187.658      126.258    62872.642    35215.634    15941.174       11.295        5.701      334.357      120.287        0.129      333.771        3.301      867.186
01/19/2021  11:34:00      421.754      -27.402      -23.529      302.544      187.687      130.417    91532.733    35226.500    17008.481       16.144        7.188      422.644      117.786        0.078      333.755        3.274      867.162
01/19/2021  11:35:00      388.388      -70.516      -39.165      284.194      247.204      139.065    80766.361    61110.037    19338.986       15.925        8.061      394.738      137.908        0.122      333.762        3.287      867.168
01/19/2021  11:36:00      372.301      -57.746      -23.929      283.569      216.035      154.958    80411.563    46671.315    24011.852       14.677        7.555      376.753      125.196        0.110      333.686        3.160      867.181
01/19/2021  11:37:00      363.412      -34.345      -38.868      301.646      201.766      150.877    90990.491    40709.323    22764.014       14.458        7.723      365.031      150.801        0.171      333.557        2.947      867.167
01/19/2021  11:38:00      344.304      -65.839      -49.372      270.291      217.509      121.444    73057.024    47310.051    14748.656       13.019        6.756      350.543      123.298        0.124      333.786        3.326      867.173
01/19/2021  11:39:00      414.372        1.667      -49.064      254.851      235.689      113.285    64949.215    55549.331    12833.583       15.369        6.667      414.375       83.195        0.040      333.695        3.175      867.138
01/19/2021  11:40:00      455.975      -12.521      -23.228      282.725      179.114      118.206    79933.476    32081.809    13972.561       16.727        6.299      456.147      116.376        0.065      333.712        3.204      867.106
01/19/2021  11:41:00      495.846      -36.945      -29.906      309.580      218.501      138.504    95840.069    47742.727    19183.296       20.541        8.138      497.220      150.469        0.092      333.665        3.125      867.065
01/19/2021  11:42:00      612.916       97.732      -24.280      304.587      205.104      104.861    92773.037    42067.701    10995.740       26.579        7.292      620.659      107.551        0.030      333.613        3.039      867.050
01/19/2021  11:43:00      411.388      -90.255      -64.053      198.953      209.928      102.152    39582.223    44069.941    10435.095       13.777        4.704      421.172       62.802        0.022      333.865        3.457      867.069
01/19/2021  11:44:00      547.679      -47.324      -20.023      298.633      229.866      148.089    89181.888    52838.385    21930.412       23.324        8.198      549.720      125.037        0.052      333.641        3.086      867.066
01/19/2021  11:45:00      485.574        8.332      -57.481      336.437      193.472      120.193   113190.025    37431.247    14446.316       20.208        8.253      485.645      128.037        0.070      333.753        3.270      867.041
01/19/2021  11:46:00      535.893       49.223      -48.444      315.812      209.164      124.605    99737.096    43749.488    15526.372       22.545        7.951      538.149      106.644        0.039      333.724        3.223      867.045
01/19/2021  11:47:00      428.031       38.187      -26.124      237.035      157.025      108.794    56185.667    24656.776    11836.158       13.899        4.634      429.731       99.051        0.053      333.871        3.467      867.080
01/19/2021  11:48:00      314.302        6.164      -19.241      236.075      190.015      103.931    55731.226    36105.769    10801.751       10.089        5.132      314.363       94.873        0.091      333.885        3.490      867.109
01/19/2021  11:49:00      388.766       20.434      -10.153      271.963      191.356      120.933    73964.026    36617.161    14624.683       13.841        6.260      389.302      100.856        0.067      333.966        3.625      867.105
01/19/2021  11:50:00      419.566       34.199      -10.635      288.671      176.808      113.627    83331.156    31260.959    12910.998       15.238        6.375      420.957      115.600        0.075      333.937        3.576      867.068
01/19/2021  11:51:00      464.482       85.245       -6.476      268.148      183.114      107.957    71903.087    33530.826    11654.740       17.004        5.854      472.239      120.028        0.065      333.764        3.291      867.040
01/19/2021  11:52:00      485.405       46.977      -27.147      239.318      202.621      115.805    57273.056    41055.070    13410.784       17.513        5.587      487.672      107.601        0.049      333.862        3.450      867.017
01/19/2021  11:53:00      566.166       12.041      -30.058      299.383      195.429      120.022    89630.038    38192.532    14405.328       23.188        7.111      566.294      127.459        0.051      333.791        3.334      866.979
01/19/2021  11:54:00      554.155      104.973      -36.598      293.055      186.948      104.630    85881.410    34949.601    10947.372       22.558        6.589      564.010      110.926        0.039      333.737        3.245      866.980
01/19/2021  11:55:00      463.657       11.900      -34.601      221.963      186.639      106.603    49267.392    34834.035    11364.183       15.587        4.773      463.809      110.748        0.057      333.845        3.423      866.914
01/19/2021  11:56:00      667.613       94.267      -28.168      300.850      220.914      130.789    90510.922    48802.890    17105.660       30.587        7.821      674.235      128.504        0.036      333.726        3.226      866.868
01/19/2021  11:57:00      604.806      105.915      -26.953      265.322      220.236      120.550    70395.751    48503.732    14532.258       25.556        6.672      614.010       88.739        0.021      333.778        3.313      866.819
01/19/2021  11:58:00      562.964      164.480      -43.802      262.067      210.211      110.346    68679.089    44188.774    12176.135       23.545        6.252      586.500       91.078        0.024      333.757        3.278      866.779
01/19/2021  11:59:00      484.293       91.600       -6.587      301.207      184.624      126.325    90725.622    34086.025    15957.910       19.184        7.038      492.880      149.917        0.093      333.849        3.429      866.766
01/19/2021  12:00:00      570.074      125.256      -28.074      332.893      212.575      127.738   110818.078    45188.143    16316.934       25.686        8.616      583.672      124.542        0.046      333.966        3.625      866.770
01/19/2021  12:01:00      537.617      166.865      -41.197      294.075      236.858      117.143    86479.933    56101.834    13722.572       23.740        7.815      562.917      133.616        0.056      333.919        3.547      866.786
01/19/2021  12:02:00      456.278      166.207      -32.166      243.140      203.463       92.758    59116.958    41397.261     8604.009       17.296        5.456      485.608       93.164        0.037      333.934        3.571      866.793
01/19/2021  12:03:00      646.807      180.747      -54.134      207.122      179.227       82.650    42899.458    32122.290     6831.060       26.789        4.093      671.587       69.262        0.011      333.661        3.119      866.752
01/19/2021  12:04:00      557.578      126.982      -33.411      243.431      182.373       92.455    59258.464    33260.060     8547.876       21.458        5.053      571.855       77.740        0.018      333.859        3.446      866.749
01/19/2021  12:05:00      441.536       43.554      -16.970      301.397      225.608      132.605    90840.241    50898.813    17584.008       17.820        7.966      443.679      122.448        0.076      333.972        3.633      866.761
01/19/2021  12:06:00      564.240       60.360      -19.830      260.839      226.319      103.873    68036.884    51220.268    10789.540       22.620        6.502      567.460       81.162        0.020      333.947        3.592      866.682
01/19/2021  12:07:00      432.499       90.090      -17.639      249.012      195.099       93.497    62006.914    38063.807     8741.743       15.212        5.441      441.782       90.961        0.042      334.132        3.900      866.716
01/19/2021  12:08:00      358.771      143.078      -29.797      242.546      155.340       79.711    58828.535    24130.616     6353.797       11.968        4.466      386.249       93.667        0.059      334.338        4.241      866.733
01/19/2021  12:09:00      583.661      334.311      -49.498      258.747      191.322       81.275    66949.753    36604.109     6605.673       28.249        5.508      672.625       63.211        0.009      334.004        3.687      866.706
01/19/2021  12:10:00      768.062      344.833      -39.726      232.174      192.439      109.858    53904.826    37032.706    12068.678       40.668        5.150      841.920       86.666        0.011      333.792        3.336      866.689
01/19/2021  12:11:00      475.076      141.499      -23.871      294.898      183.960       94.232    86964.669    33841.213     8879.582       18.796        6.484      495.700      122.397        0.061      334.045        3.754      866.737
01/19/2021  12:12:00      385.960      157.706      -41.605      246.748      176.088       86.850    60884.777    31007.114     7542.922       13.748        4.972      416.936       85.158        0.042      334.206        4.022      866.752
01/19/2021  12:13:00      297.181       12.386      -29.396      204.215      168.430       98.844    41703.962    28368.621     9770.208        8.457        3.992      297.439       91.850        0.095      334.451        4.429      866.754
01/19/2021  12:14:00      477.312      113.326      -33.324      323.215      207.426      110.835   104468.179    43025.482    12284.481       20.074        7.989      490.581      118.383        0.058      334.174        3.969      866.747
01/19/2021  12:15:00      307.530       52.120      -26.705      224.572      199.286      101.176    50432.536    39714.823    10236.509        9.917        5.019      311.916      102.650        0.108      334.248        4.093      866.774
01/19/2021  12:16:00      335.207       64.960      -38.506      164.661      172.919       76.969    27113.162    29901.060     5924.192        9.049        3.147      341.443       51.943        0.023      334.259        4.112      866.794
01/19/2021  12:17:00      412.687       89.069      -35.876      216.740      182.292       90.176    46976.210    33230.426     8131.800       13.392        4.417      422.189       92.422        0.048      334.231        4.063      866.773
01/19/2021  12:18:00      544.290      201.721      -20.876      238.541      184.857      108.296    56901.572    34172.180    11727.948       22.007        5.140      580.468      103.716        0.032      334.024        3.721      866.778
01/19/2021  12:19:00      478.240      220.707      -38.235      205.877      187.200       83.513    42385.325    35043.784     6974.344       18.163        4.220      526.711       60.851        0.013      333.982        3.651      866.764
01/19/2021  12:20:00      586.979      309.132      -60.744      221.306      199.834      105.565    48976.423    39933.715    11143.928       27.190        5.003      663.406       91.338        0.019      333.959        3.612      866.722
01/19/2021  12:21:00      463.724      194.823       -8.107      178.277      162.434      100.485    31782.660    26384.847    10097.280       16.065        3.413      502.987       97.287        0.037      334.149        3.928      866.707
01/19/2021  12:22:00      462.899      141.055      -31.767      192.999      198.918       89.155    37248.531    39568.297     7948.700       15.996        4.238      483.913       95.458        0.039      334.120        3.880      866.741
01/19/2021  12:23:00      371.760      141.845      -25.448      219.456      160.043       87.779    48161.013    25613.876     7705.072       12.021        4.074      397.902       74.443        0.035      334.145        3.921      866.742
01/19/2021  12:24:00      396.167      136.346      -34.973      240.984      170.029       76.816    58073.110    28909.722     5900.758       13.480        4.644      418.973       81.859        0.038      334.315        4.203      866.790
01/19/2021  12:25:00      426.988      121.040      -32.868      207.772      138.096       73.900    43169.360    19070.541     5461.168       13.286        3.385      443.812       89.448        0.041      334.380        4.310      866.796
01/19/2021  12:26:00      243.273        5.910      -33.599      192.653      144.866       87.541    37115.215    20986.154     7663.489        6.304        3.288      243.344       63.560        0.068      334.624        4.717      866.849
01/19/2021  12:27:00      256.960      -35.611      -10.638      210.213      147.045       81.132    44189.435    21622.110     6582.481        6.989        3.620      259.416       86.151        0.110      334.552        4.597      866.841
01/19/2021  12:28:00      427.777       43.439      -26.516      295.664      189.994      123.991    87417.206    36097.824    15373.667       16.221        6.944      429.977      116.181        0.073      334.325        4.221      866.845
01/19/2021  12:29:00      207.512       46.096      -42.804      188.133      171.075       85.242    35394.145    29266.783     7266.222        5.946        3.596      212.570       61.455        0.084      334.476        4.470      866.855
01/19/2021  12:30:00      251.497       32.557      -36.404      167.853      110.484       73.822    28174.488    12206.816     5449.636        5.572        2.292      253.596       63.153        0.062      334.286        4.157      866.811
01/19/2021  12:31:00      538.844      181.150      -51.647      125.179      160.953       73.500    15669.838    25905.847     5402.207       18.640        2.349      568.479       49.473        0.008      334.264        4.118      866.799
01/19/2021  12:32:00      423.563       52.412      -36.943      227.724      182.676       82.615    51858.098    33370.621     6825.260       13.777        4.603      426.794       86.579        0.041      334.320        4.212      866.793
01/19/2021  12:33:00      464.446      118.376      -32.001      261.359      177.310      102.349    68308.717    31438.938    10475.325       17.046        5.511      479.294       99.857        0.043      334.322        4.214      866.747
01/19/2021  12:34:00      361.090      161.591       -4.361      144.289      166.001       90.363    20819.416    27556.175     8165.494       10.652        2.827      395.598       65.585        0.027      334.434        4.400      866.725
01/19/2021  12:35:00      143.094      -14.909      -33.474      137.206      130.121       73.056    18825.408    16931.352     5337.221        3.145        2.055      143.869       59.682        0.172      334.821        5.044      866.693
01/19/2021  12:36:00      537.056      130.217      -29.750      244.389      188.414      103.108    59726.210    35499.673    10631.224       20.604        5.293      552.617       66.026        0.014      334.555        4.602      866.631
01/19/2021  12:37:00      166.710       45.618      -27.959      175.419      162.835       65.098    30771.715    26515.169     4237.775        4.608        3.076      172.838       48.910        0.080      334.890        5.161      866.637
01/19/2021  12:38:00      365.450       69.183      -49.925      232.248      166.549       74.907    53939.263    27738.479     5611.024       11.404        4.364      371.941       46.875        0.016      334.626        4.719      866.582
01/19/2021  12:39:00      389.313        8.615      -23.989      218.867      166.357      109.529    47902.914    27674.553    11996.536       11.988        4.379      389.408       83.591        0.046      334.579        4.642      866.545
01/19/2021  12:40:00      196.871      -16.389       -5.667      203.819      167.254      114.577    41542.208    27973.999    13127.996        6.083        4.132      197.552       92.356        0.219      334.641        4.744      866.577
01/19/2021  12:41:00      513.339       66.540      -24.851      255.615      142.065       96.422    65338.996    20182.421     9297.203       18.167        4.741      517.634      105.193        0.041      334.244        4.086      866.613
01/19/2021  12:42:00      522.309      141.946      -23.639      198.595      154.416       85.119    39440.026    23844.238     7245.165       18.201        3.526      541.254       90.288        0.028      334.253        4.099      866.589
01/19/2021  12:43:00      598.555      202.600      -40.527      233.512      197.809       99.825    54527.850    39128.362     9965.115       25.227        5.181      631.914      103.815        0.027      334.357        4.273      866.618
01/19/2021  12:44:00      522.313       63.269      -40.720      210.834      178.829      106.770    44451.118    31979.787    11399.867       18.313        4.392      526.131       99.595        0.036      334.379        4.309      866.612
01/19/2021  12:45:00      384.799      176.116      -30.496      138.626      163.120       73.013    19217.131    26607.998     5330.904       11.558        2.558      423.187       53.666        0.016      334.613        4.697      866.634
01/19/2021  12:46:00      354.893       82.593      -17.822      153.723      149.175       69.790    23630.714    22253.147     4870.692        9.191        2.538      364.377       48.863        0.018      334.723        4.880      866.636
01/19/2021  12:47:00      379.887       97.989      -38.242      193.714      183.867       79.030    37525.054    33806.918     6245.687       11.646        3.879      392.322       79.853        0.041      334.770        4.958      866.632
01/19/2021  12:48:00      217.326       87.106      -17.393      141.240      108.225       62.978    19948.834    11712.588     3966.255        4.537        1.781      234.132       64.980        0.077      334.810        5.025      866.598
01/19/2021  12:49:00      301.864      101.077      -14.685      140.564      112.824       74.789    19758.246    12729.334     5593.393        6.981        1.904      318.337       46.810        0.022      334.855        5.101      866.599
01/19/2021  12:50:00      391.368      173.244      -36.384      240.403      153.452       81.043    57793.542    23547.644     6568.004       13.619        4.395      427.998       79.863        0.035      334.686        4.819      866.618
01/19/2021  12:51:00      429.213      160.427      -45.814      215.165      142.616       82.807    46295.852    20339.397     6857.081       14.276        3.675      458.215       75.574        0.027      334.513        4.532      866.654
01/19/2021  12:52:00      235.220       53.809       -8.303      158.273       94.241       66.412    25050.335     8881.452     4410.504        4.831        1.917      241.296       60.090        0.062      334.532        4.564      866.659
01/19/2021  12:53:00       14.923       34.431       -5.408       78.531       99.162       46.477     6167.088     9833.154     2160.115        0.980        0.908       37.526       38.450        1.050      334.847        5.090      866.626
01/19/2021  12:54:00      238.161       82.162      -36.868      214.587      142.785       59.569    46047.709    20387.510     3548.438        6.739        3.499      251.935       68.984        0.075      334.798        5.007      866.602
01/19/2021  12:55:00      487.496      201.206      -43.387      186.661      144.049       69.550    34842.310    20750.180     4837.228       17.021        3.021      527.386       42.820        0.007      334.505        4.517      866.568
01/19/2021  12:56:00      162.396       54.595      -20.921      155.856      145.215       84.767    24291.120    21087.371     7185.476        4.117        2.628      171.327       68.471        0.160      334.836        5.069      866.579
01/19/2021  12:57:00      172.143       24.972       -5.247      169.044      124.120       76.229    28575.838    15405.813     5810.800        4.003        2.490      173.945       71.233        0.168      334.734        4.899      866.582
01/19/2021  12:58:00      102.897       -5.979      -15.229      163.925      150.980      100.544    26871.398    22794.825    10109.101        3.530        2.989      103.070       85.925        0.695      334.753        4.931      866.586
01/19/2021  12:59:00      244.629       40.876      -19.469      156.891      131.256       85.361    24614.638    17228.176     7286.540        5.550        2.456      248.021       52.237        0.044      334.702        4.845      866.630
01/19/2021  13:00:00      227.827       84.609      -18.643       80.905       68.155       45.276     6545.653     4645.122     2049.944        3.632        0.662      243.030       27.731        0.013      334.923        5.213      866.656
01/19/2021  13:01:00      463.199      184.075      -36.324      119.979      115.976       61.877    14394.953    13450.407     3828.766       14.071        1.584      498.435       46.313        0.009      334.352        4.265      866.654
01/19/2021  13:02:00      231.735       79.700      -13.366       93.879      100.096       48.970     8813.260    10019.130     2398.069        4.073        1.062      245.058       41.169        0.028      334.607        4.688      866.635
01/19/2021  13:03:00      172.879      -37.602      -11.005      126.049       69.203       56.853    15888.318     4789.040     3232.254        2.766        1.195      176.921       57.904        0.107      334.762        4.946      866.645
01/19/2021  13:04:00      252.690      -74.905      -23.605      140.942      114.008       75.192    19864.653    12997.731     5653.819        5.426        1.926      263.559       65.546        0.062      334.799        5.008      866.656
01/19/2021  13:05:00      242.732       67.971      -19.551       92.195      114.278       42.485     8499.998    13059.525     1804.941        4.364        1.168      252.070       25.228        0.010      334.704        4.850      866.660
01/19/2021  13:06:00      330.414       19.075       -5.931      163.681      133.612       89.114    26791.418    17852.263     7941.315        8.107        2.629      330.964       78.434        0.056      334.737        4.904      866.646
01/19/2021  13:07:00      199.248       16.441       -7.022      158.012       76.100       58.689    24967.944     5791.144     3444.390        3.710        1.710      199.925       62.815        0.099      334.634        4.731      866.662
01/19/2021  13:08:00      318.644       18.853      -30.253      154.802      104.891       58.458    23963.649    11002.214     3417.286        7.059        1.919      319.201       61.951        0.038      334.663        4.781      866.664
01/19/2021  13:09:00      201.534       96.424       -4.210       90.796       91.904       44.450     8243.994     8446.386     1975.838        3.429        0.933      223.414       30.900        0.019      334.948        5.256      866.667
01/19/2021  13:10:00      313.863      158.486      -23.483      125.769      118.688       62.643    15817.879    14086.940     3924.113        7.900        1.691      351.607       57.110        0.026      334.870        5.125      866.654
01/19/2021  13:11:00      274.023      190.380      -29.168      185.189      137.518       66.928    34294.919    18911.087     4479.371        8.492        2.884      333.666       83.217        0.062      334.619        4.708      866.670
01/19/2021  13:12:00      376.354      222.719      -37.489      156.139      124.357       49.815    24379.257    15464.560     2481.572       11.748        2.116      437.317       55.864        0.016      334.399        4.341      866.687
01/19/2021  13:13:00      497.993      186.779      -47.208      203.772      200.027       82.219    41523.087    40010.712     6759.976       18.668        4.415      531.868       91.521        0.030      334.370        4.296      866.708
01/19/2021  13:14:00      332.910      -12.985      -12.544      191.098      169.321       95.889    36518.491    28669.619     9194.677        9.275        3.719      333.163       95.595        0.082      334.555        4.601      866.694
01/19/2021  13:15:00      342.513       76.310       -5.993      293.522      183.902       93.896    86154.891    33819.838     8816.513       12.595        6.440      350.911      110.358        0.099      334.486        4.488      866.685
01/19/2021  13:16:00      385.534       14.313      -28.199      255.221      146.660       90.948    65137.830    21509.208     8271.601       12.226        4.746      385.799       92.177        0.057      334.287        4.156      866.712
01/19/2021  13:17:00      310.656      125.202        4.381      248.150      139.338       84.597    61578.202    19415.088     7156.663       10.016        4.407      334.937      107.367        0.103      334.452        4.431      866.726
01/19/2021  13:18:00      215.286      116.057      -28.229      122.130      115.529       62.108    14915.618    13346.908     3857.364        4.636        1.606      244.576       46.960        0.037      334.595        4.669      866.738
01/19/2021  13:19:00      137.695       -7.621        1.362      125.268       81.764       63.630    15692.132     6685.404     4048.764        2.272        1.321      137.906       54.023        0.153      334.714        4.867      866.711
01/19/2021  13:20:00      202.228      104.389      -29.000      157.927       90.776       47.353    24941.013     8240.288     2242.264        4.402        1.771      227.581       54.877        0.058      334.565        4.619      866.708
01/19/2021  13:21:00      254.718      100.207       -9.498      151.597      136.063       59.039    22981.558    18513.128     3485.584        5.999        2.249      273.720       47.290        0.030      334.548        4.591      866.682
01/19/2021  13:22:00      179.646       16.732      -25.430      132.914      123.234       51.623    17666.001    15186.631     2664.893        3.435        1.776      180.424       40.404        0.050      334.560        4.612      866.670
01/19/2021  13:23:00      114.152      -19.566      -23.303       75.213      129.213       47.631     5657.032    16695.921     2268.666        1.928        1.231      115.817       42.536        0.135      334.671        4.796      866.664
01/19/2021  13:24:00      187.449       -2.740      -24.423      167.366      163.113      109.159    28011.311    26605.763    11915.697        5.112        3.327      187.469      101.653        0.294      334.704        4.849      866.604
01/19/2021  13:25:00      253.355        5.214      -26.090      196.420      109.354       75.295    38580.748    11958.248     5669.310        6.054        2.810      253.409       51.705        0.042      334.602        4.680      866.633
01/19/2021  13:26:00      328.862       97.427      -20.568      133.406      117.959       66.906    17797.287    13914.278     4476.353        7.712        1.809      342.990       68.367        0.040      334.467        4.456      866.632
01/19/2021  13:27:00      449.261      154.993      -24.563      198.150      188.970       86.196    39263.373    35709.528     7429.769       15.441        4.120      475.246       58.893        0.015      334.473        4.464      866.566
01/19/2021  13:28:00      263.951      -40.834      -19.590      179.969      145.128       97.768    32388.678    21062.112     9558.543        6.735        3.150      267.091       88.736        0.110      334.654        4.765      866.555
01/19/2021  13:29:00      319.278        0.341      -20.064      244.185      104.660       91.129    59626.453    10953.677     8304.417        9.060        3.944      319.279       86.972        0.074      334.494        4.501      866.531
01/19/2021  13:30:00      268.889      -34.595      -31.889      174.820      142.004       91.756    30562.018    20165.027     8419.174        6.682        2.957      271.106       80.336        0.088      334.622        4.713      866.498
01/19/2021  13:31:00      268.814      -14.269      -17.997      205.932      144.961      111.231    42407.899    21013.835    12372.326        7.428        3.790      269.192      104.473        0.151      334.633        4.730      866.454
01/19/2021  13:32:00      333.107      -56.660      -20.715      226.104      173.329      106.383    51123.193    30043.093    11317.383       10.352        4.624      337.891      102.745        0.092      334.676        4.803      866.434
01/19/2021  13:33:00      290.077       20.643      -19.876      168.925      157.649       74.141    28535.493    24853.184     5496.814        7.191        2.944      290.811       70.525        0.059      334.688        4.823      866.447
01/19/2021  13:34:00      408.347        8.840      -26.357      227.153      157.513       93.062    51598.277    24810.291     8660.488       12.628        4.253      408.442       66.353        0.026      334.609        4.692      866.436
01/19/2021  13:35:00      351.994       61.849      -31.899      186.064      183.521       80.304    34619.919    33679.942     6448.719       10.173        3.737      357.387       71.436        0.040      334.639        4.742      866.392
01/19/2021  13:36:00      253.500       -0.194      -27.978      127.840      136.713       69.797    16342.995    18690.398     4871.565        5.247        1.995      253.500       65.178        0.066      334.824        5.049      866.391
01/19/2021  13:37:00      102.902      -17.854      -15.426      154.593      127.273       62.866    23899.000    16198.474     3952.133        2.759        2.202      104.439       61.155        0.343      335.190        5.658      866.356
01/19/2021  13:38:00      173.722       38.144      -31.754      160.968      147.763       67.645    25910.666    21833.760     4575.789        4.247        2.616      177.860       55.428        0.097      335.136        5.568      866.364
01/19/2021  13:39:00      274.313       -1.555      -19.415      238.072      180.669      113.284    56678.266    32641.225    12833.327        8.887        5.108      274.317      105.485        0.148      334.746        4.919      866.314
01/19/2021  13:40:00      208.918      -44.546      -27.052      189.794      139.522       83.300    36021.781    19466.519     6938.837        5.438        3.121      213.615       74.345        0.121      334.760        4.943      866.303
01/19/2021  13:41:00      311.585      -15.831      -32.449      188.563      146.391       79.113    35556.111    21430.433     6258.922        8.080        3.162      311.987       65.391        0.044      334.862        5.112      866.283
01/19/2021  13:42:00      213.821       46.344      -12.311      201.345      150.892      103.404    40539.621    22768.511    10692.489        6.099        3.700      218.785      103.191        0.222      334.974        5.299      866.291
01/19/2021  13:43:00      376.955       26.779      -14.458      317.412      184.678      127.887   100750.240    34105.970    16354.998       14.708        7.561      377.905      147.367        0.152      334.838        5.072      866.273
01/19/2021  13:44:00      275.120      -26.339       -4.333      269.726      174.695      141.988    72752.034    30518.204    20160.497        9.989        6.172      276.378      141.753        0.263      334.808        5.021      866.242
01/19/2021  13:45:00      278.584       16.623      -14.500      296.229      185.668      108.273    87751.389    34472.675    11722.978       10.599        6.697      279.080       99.568        0.127      334.914        5.198      866.274
01/19/2021  13:46:00      359.823       35.271      -29.657      255.393      210.364      102.978    65225.464    44252.809    10604.516       12.581        6.004      361.548       92.741        0.066      334.761        4.942      866.244
01/19/2021  13:47:00      338.633       67.824       -4.155      227.760      182.666      111.764    51874.661    33367.016    12491.202       10.849        4.887      345.359       96.619        0.078      334.683        4.815      866.244
01/19/2021  13:48:00      265.846      -54.283      -22.761      251.914      171.412       95.904    63460.789    29382.127     9197.629        8.807        5.102      271.331       89.147        0.108      334.747        4.920      866.179
01/19/2021  13:49:00      247.600      -34.516      -30.335      232.034      189.868      113.899    53839.560    36049.899    12973.061        8.312        5.143      249.994      114.564        0.210      334.954        5.264      866.163
01/19/2021  13:50:00      234.404        2.756      -18.437      228.192      135.016       96.314    52071.560    18229.452     9276.352        6.742        3.979      234.420       96.711        0.170      334.748        4.922      866.164
01/19/2021  13:51:00      272.948       -0.044       -8.201      207.050      160.206       89.438    42869.552    25666.024     7999.200        7.554        3.827      272.948       83.679        0.094      334.892        5.162      866.187
01/19/2021  13:52:00      331.700       68.988      -30.147      204.617      176.676       79.244    41868.073    31214.552     6279.573        9.751        3.968      338.798       76.823        0.051      334.885        5.150      866.170
01/19/2021  13:53:00      342.893      -42.754      -34.683      241.154      162.724      114.271    58155.342    26479.256    13057.843       10.913        4.885      345.548      117.884        0.116      334.792        4.997      866.134
01/19/2021  13:54:00      144.905       28.488       -3.318      155.633      130.664       82.940    24221.495    17073.040     6879.098        3.499        2.409      147.679       58.017        0.154      335.009        5.358      866.126
01/19/2021  13:55:00      347.758      -18.951      -10.956      232.324      230.425      116.478    53974.489    53095.520    13567.204       12.100        6.032      348.274      125.500        0.130      334.847        5.086      866.109
01/19/2021  13:56:00      353.655      -34.064      -21.143      246.789      191.148      117.561    60905.008    36537.424    13820.685       11.895        5.563      355.292      116.805        0.108      334.807        5.021      866.112
01/19/2021  13:57:00      369.736       34.523       -7.126      230.618      182.403       89.776    53184.856    33270.673     8059.799       11.621        4.726      371.345       80.944        0.048      334.823        5.048      866.128
01/19/2021  13:58:00      255.320      -39.600      -21.722      277.954      164.973      101.855    77258.516    27216.073    10374.479        9.101        5.742      258.373      119.348        0.213      334.921        5.210      866.141
01/19/2021  13:59:00      353.785      -51.826      -11.783      293.755      176.648      149.943    86291.972    31204.500    22482.979       13.395        6.999      357.561      161.979        0.205      334.804        5.015      866.105
01/19/2021  14:00:00      397.929      -44.682      -29.354      317.453      176.600      116.897   100776.340    31187.459    13664.957       15.338        7.281      400.429      110.964        0.077      334.671        4.793      866.168
01/19/2021  14:01:00      304.708      -38.761      -24.770      237.375      196.407      104.803    56346.811    38575.641    10983.586       10.041        5.295      307.163       92.532        0.091      334.740        4.910      866.163
01/19/2021  14:02:00      365.666       56.007      -14.530      218.072      175.781       91.763    47555.530    30899.084     8420.496       11.195        4.344      369.930       87.507        0.056      334.846        5.086      866.155
01/19/2021  14:03:00      370.560       25.966       -9.085      216.858      167.798       90.165    47027.553    28156.269     8129.781       11.067        4.166      371.468       91.307        0.060      334.842        5.078      866.158
01/19/2021  14:04:00      260.138      -57.236      -15.550      194.835      170.839      104.199    37960.791    29186.128    10857.511        7.458        3.900      266.360       88.395        0.110      334.872        5.130      866.148
01/19/2021  14:05:00      184.861       -5.352       11.533      193.812      144.594       96.302    37563.057    20907.368     9274.027        5.103        3.387      184.938       98.941        0.286      334.937        5.238      866.154
01/19/2021  14:06:00      367.133       29.953      -10.837      245.681      186.126      116.926    60359.219    34642.980    13671.736       12.221        5.434      368.352      123.130        0.112      334.728        4.889      866.101
01/19/2021  14:07:00      280.403       83.203      -23.626      232.840      194.271       82.960    54214.563    37741.079     6882.384        9.245        4.942      292.486       86.442        0.087      334.973        5.296      866.140
01/19/2021  14:08:00      276.641        4.840      -18.503      233.137      197.541      116.568    54353.084    39022.399    13588.118        9.191        5.348      276.684      120.344        0.189      334.943        5.246      866.142
01/19/2021  14:09:00      379.542       46.110      -43.844      169.438      175.797       89.169    28709.256    30904.658     7951.166       10.782        3.378      382.332       66.394        0.030      334.759        4.941      866.175
01/19/2021  14:10:00      306.256       44.970      -23.271      197.577      146.393       69.521    39036.716    21431.057     4833.123        8.081        3.265      309.540       58.976        0.036      334.931        5.225      866.202
01/19/2021  14:11:00      331.041       83.061      -34.913      216.909      145.373       75.860    47049.499    21133.189     5754.780        9.581        3.697      341.302       57.017        0.028      334.923        5.213      866.204
01/19/2021  14:12:00      340.205      -20.226      -17.905      198.502      151.342      103.489    39403.207    22904.476    10709.923        9.473        3.651      340.806       91.138        0.072      334.839        5.075      866.206
01/19/2021  14:13:00      446.438       61.449      -29.036      218.696      187.206       89.925    47828.088    35046.048     8086.535       14.742        4.548      450.647       83.391        0.034      334.674        4.799      866.189
01/19/2021  14:14:00      373.801        0.717      -28.083      229.851      186.430       96.170    52831.528    34756.079     9248.656       11.866        4.842      373.801       87.402        0.055      334.726        4.884      866.165
01/19/2021  14:15:00      312.873       14.385      -23.278      221.698      170.775      100.663    49150.152    29164.083    10133.025        9.352        4.422      313.204       98.396        0.099      334.874        5.133      866.171
01/19/2021  14:16:00      346.648       35.071      -19.832      225.448      149.661       93.376    50826.967    22398.298     8719.051       10.185        4.097      348.418      103.212        0.088      334.771        4.961      866.188
01/19/2021  14:17:00      252.052      -44.341      -42.685      224.633      198.683      123.485    50459.870    39474.776    15248.663        8.623        5.259      255.922      134.467        0.276      334.851        5.094      866.167
01/19/2021  14:18:00      465.929        0.073      -30.972      245.745      159.654      108.250    60390.394    25489.280    11717.985       15.780        4.880      465.929      100.564        0.047      334.748        4.923      866.190
01/19/2021  14:19:00      380.897       21.901      -35.949      214.253      201.353      111.366    45904.219    40543.015    12402.376       12.283        4.942      381.526      100.571        0.069      334.773        4.964      866.198
01/19/2021  14:20:00      461.153       70.247      -32.677      220.972      191.666      101.071    48828.776    36735.786    10215.405       15.720        4.789      466.473       87.427        0.035      334.666        4.784      866.205
01/19/2021  14:21:00      283.104      -24.528      -23.373      173.457      135.861      101.505    30087.221    18458.265    10303.337        7.006        2.942      284.165       91.864        0.105      334.837        5.070      866.207
01/19/2021  14:22:00      274.797      -61.333      -39.415      255.392      192.142       95.440    65224.845    36918.688     9108.882        9.602        5.563      281.559       84.277        0.090      334.933        5.230      866.164
01/19/2021  14:23:00      177.695      -32.535      -46.605      212.819      229.529       90.048    45292.058    52683.366     8108.729        7.042        5.304      180.649       76.868        0.181      335.098        5.502      866.179
01/19/2021  14:24:00      228.748      -28.943      -11.498      238.819      128.132       99.815    57034.723    16417.716     9962.936        6.834        4.171      230.572      117.037        0.258      334.940        5.242      866.199
01/19/2021  14:25:00      325.924      -25.851      -34.468      249.561      152.394       93.308    62280.904    23223.892     8706.472       10.113        4.711      326.947      109.331        0.112      334.943        5.246      866.200
01/19/2021  14:26:00      374.796       -9.513      -26.964      280.467      158.710      109.701    78661.782    25188.974    12034.355       12.856        5.794      374.916      129.168        0.119      334.905        5.184      866.186
01/19/2021  14:27:00      257.378       18.413       -7.922      231.111      179.606      116.284    53412.352    32258.203    13521.888        8.290        4.960      258.036      109.176        0.179      334.800        5.012      866.159
01/19/2021  14:28:00      306.795      -45.616      -31.197      248.720      168.328      117.672    61861.540    28334.343    13846.609       10.059        5.202      310.168      108.848        0.123      334.856        5.101      866.179
01/19/2021  14:29:00      315.092      -49.480      -21.616      227.251      161.046      124.582    51643.129    25935.662    15520.763        9.763        4.655      318.953      133.257        0.175      334.825        5.050      866.153
01/19/2021  14:30:00      351.627      -78.895      -43.941      200.358      185.978      103.824    40143.294    34587.983    10779.520       10.864        4.276      360.369       95.413        0.070      334.803        5.013      866.194
01/19/2021  14:31:00      323.240     -100.468      -32.090      234.526      202.112      103.272    55002.359    40849.144    10665.204       11.104        5.326      338.493      121.286        0.128      334.808        5.023      866.211
01/19/2021  14:32:00      220.048     -111.203      -48.479      214.108      168.986       96.571    45842.412    28556.210     9325.979        7.341        4.186      246.550       90.445        0.135      334.988        5.322      866.260
01/19/2021  14:33:00      146.497       45.078        7.790      157.229      170.133       96.363    24720.987    28945.152     9285.915        4.324        3.148      153.276       66.293        0.187      335.045        5.417      866.246
01/19/2021  14:34:00      198.062       -0.950      -12.402      184.478      129.891       76.637    34032.162    16871.611     5873.264        4.807        2.839      198.064       57.087        0.083      335.143        5.581      866.287
01/19/2021  14:35:00      311.714       11.733       -8.371      215.149      137.489       78.133    46289.259    18903.126     6104.781        8.432        3.565      311.935       84.873        0.074      334.922        5.212      866.264
01/19/2021  14:36:00      211.583       25.499      -12.055      194.185      149.338       72.225    37707.777    22301.827     5216.404        5.538        3.261      213.114       67.253        0.100      334.986        5.320      866.225
01/19/2021  14:37:00      414.319       30.582      -17.701      205.461      130.731       93.843    42214.360    17090.605     8806.418       12.050        3.406      415.446       89.749        0.047      334.953        5.263      866.194
01/19/2021  14:38:00      221.829       -7.399      -13.108      172.780      162.744       83.218    29852.864    26485.616     6925.177        5.634        3.163      221.952       79.402        0.128      335.042        5.412      866.197
01/19/2021  14:39:00      175.747        4.630      -12.673      151.474      131.290       66.656    22944.479    17237.150     4443.089        3.784        2.231      175.808       66.355        0.142      335.174        5.632      866.200
01/19/2021  14:40:00      269.928        1.767       -0.513      205.147      124.081       99.278    42085.200    15396.122     9856.192        7.009        3.367      269.934       92.435        0.117      334.994        5.332      866.164
01/19/2021  14:41:00      281.893      -70.301      -39.693      202.143      165.237       79.788    40861.820    27303.371     6366.073        8.024        3.727      290.527       73.228        0.064      335.165        5.617      866.179
01/19/2021  14:42:00      112.280        0.104       -3.619       92.897      145.916       73.898     8629.818    21291.596     5460.950        2.399        1.769      112.280       57.062        0.258      335.323        5.878      866.213
01/19/2021  14:43:00      220.270     -180.962      -35.384      116.854      137.560       63.626    13654.768    18922.640     4048.265        5.956        1.831      285.072       61.613        0.047      335.122        5.545      866.208
01/19/2021  14:44:00      101.396      -68.238      -17.326      129.804      168.876       70.176    16849.112    28519.034     4924.671        3.275        2.515      122.219       66.027        0.292      335.270        5.789      866.170
01/19/2021  14:45:00      251.956     -225.766      -52.229      145.156      188.081       82.523    21070.133    35374.619     6810.097        9.020        3.163      338.308       75.393        0.050      335.094        5.496      866.150
01/19/2021  14:46:00      275.525      -46.100      -36.918      259.228      148.560      100.430    67199.328    22069.953    10086.199        8.936        4.968      279.355      104.218        0.139      335.031        5.392      866.137
01/19/2021  14:47:00      338.135     -176.932      -43.049      173.331      166.488      100.856    30043.481    27718.368    10171.919       10.770        3.397      381.628      109.862        0.083      334.925        5.215      866.207
01/19/2021  14:48:00      335.618      -34.965      -46.664      238.579      152.754      102.935    56919.937    23333.805    10595.576       10.343        4.542      337.434       84.356        0.062      334.927        5.220      866.195
01/19/2021  14:49:00      270.408      -86.911      -31.653      198.682      219.478       99.106    39474.582    48170.510     9822.014        8.955        4.873      284.032      103.532        0.133      334.937        5.238      866.211
01/19/2021  14:50:00      288.292      -52.253      -25.303      209.227      157.846       96.964    43775.806    24915.382     9401.966        8.227        3.905      292.989       74.404        0.064      334.859        5.108      866.202
01/19/2021  14:51:00      267.011     -202.699      -68.693      156.548      227.469       81.634    24507.168    51742.294     6664.083        9.999        4.146      335.234       73.578        0.048      334.920        5.208      866.194
01/19/2021  14:52:00      281.356        8.713        0.379      217.871      154.628      111.143    47467.699    23909.845    12352.776        8.147        4.187      281.491      106.497        0.143      334.913        5.198      866.185
01/19/2021  14:53:00      171.790        1.908       -7.789      169.847      128.245       78.409    28848.163    16446.715     6147.968        4.050        2.572      171.801       72.509        0.178      335.010        5.360      866.195
01/19/2021  14:54:00      129.595      -23.756        4.735      152.674      136.199      104.922    23309.391    18550.266    11008.628        3.511        2.643      131.754       90.804        0.475      335.083        5.479      866.197
01/19/2021  14:55:00      296.315       25.912       -7.839      166.226      132.266       94.943    27631.073    17494.386     9014.175        7.133        2.707      297.446       78.896        0.070      335.154        5.598      866.233
01/19/2021  14:56:00      294.350     -116.939      -41.660      199.283      210.918      105.685    39713.646    44486.562    11169.399        9.869        4.768      316.728       99.956        0.100      335.141        5.576      866.223
01/19/2021  14:57:00      270.285     -122.388      -41.625      134.692      145.715       77.298    18141.961    21232.718     5974.915        6.755        2.267      296.703       52.438        0.031      335.072        5.462      866.231
01/19/2021  14:58:00      257.896      -64.150      -27.227      191.133      183.542      107.342    36531.768    33687.716    11522.291        7.654        4.087      265.755      118.535        0.199      335.092        5.495      866.231
01/19/2021  14:59:00      287.960     -167.744      -57.192      185.068      216.097       82.512    34250.301    46698.084     6808.297       10.102        4.388      333.255       87.816        0.069      335.046        5.419      866.211
01/19/2021  15:00:00      201.856      -40.857      -30.339      202.274      140.700       92.136    40914.635    19796.490     8488.976        5.625        3.460      205.950       98.766        0.230      335.127        5.552      866.207
01/19/2021  15:01:00      275.053     -107.044      -29.157      222.474      154.877       82.981    49494.823    23986.822     6885.846        8.415        4.018      295.148       78.981        0.072      335.097        5.502      866.208
01/19/2021  15:02:00      303.008     -262.047      -75.334      214.686      190.108       95.310    46090.083    36140.919     9083.944       12.872        4.566      400.603      118.500        0.087      335.078        5.472      866.192
01/19/2021  15:03:00      256.210      -51.349      -20.830      208.665      142.038       81.614    43540.923    20174.857     6660.923        6.953        3.519      261.305       88.083        0.114      335.088        5.488      866.252
01/19/2021  15:04:00      233.603      -42.877      -15.310      167.992      142.709       97.205    28221.305    20365.869     9448.831        5.733        2.902      237.506       87.989        0.137      335.074        5.465      866.230
01/19/2021  15:05:00      115.602      -72.017      -18.337      122.161      150.315       74.855    14923.212    22594.519     5603.238        3.099        2.156      136.199       80.356        0.348      335.339        5.905      866.244
01/19/2021  15:06:00      221.590     -116.930      -33.816      140.208      165.346       90.556    19658.149    27339.310     8200.375        5.955        2.760      250.549       75.748        0.091      335.181        5.642      866.244
01/19/2021  15:07:00      153.247     -133.328      -29.253      126.398      144.508       64.288    15976.561    20882.610     4132.988        4.155        2.050      203.128       30.882        0.023      335.202        5.677      866.254
01/19/2021  15:08:00      209.593      -38.086        1.861      251.556      177.706      123.592    63280.454    31579.396    15274.908        7.774        5.507      213.025      133.115        0.390      335.040        5.408      866.182
01/19/2021  15:09:00      222.753      -37.751       -9.827      185.593      158.371      111.530    34444.578    25081.353    12438.836        6.154        3.598      225.929      116.152        0.264      335.052        5.429      866.199
01/19/2021  15:10:00      233.514      -27.410      -11.759      145.004       88.070       63.111    21026.108     7756.286     3983.010        4.408        1.638      235.117       59.530        0.064      335.113        5.530      866.206
01/19/2021  15:11:00      171.879     -103.601      -18.845      126.356       99.150       68.987    15965.857     9830.748     4759.191        3.559        1.528      200.688       60.789        0.092      335.282        5.808      866.221
01/19/2021  15:12:00      281.845     -282.530      -67.128      153.294      231.468       79.978    23499.197    53577.469     6396.457       12.360        4.174      399.073       69.314        0.030      335.100        5.508      866.213
01/19/2021  15:13:00      345.669      -71.136      -30.652      236.473      189.137      101.579    55919.506    35772.907    10318.293       11.373        5.101      352.912      114.085        0.105      335.047        5.420      866.213
01/19/2021  15:14:00      315.894      -92.165      -53.779      254.010      178.403       98.031    64521.061    31827.620     9610.152       10.854        5.298      329.064      102.137        0.096      335.067        5.452      866.200
01/19/2021  15:15:00      264.799       -5.709      -15.920      246.968      145.604      115.275    60993.161    21200.659    13288.361        8.292        4.774      264.860      119.724        0.204      334.995        5.332      866.177
01/19/2021  15:16:00      324.255      -47.629      -19.424      230.074      151.396      106.111    52933.849    22920.631    11259.519        9.743        4.356      327.734      111.483        0.116      334.975        5.301      866.187
01/19/2021  15:17:00      315.509       -0.349      -11.143      204.807      173.895      103.733    41945.989    30239.346    10760.483        9.129        4.147      315.509       88.436        0.079      334.962        5.280      866.158
01/19/2021  15:18:00      278.569      -33.551       -8.710      208.194      148.463       94.946    43344.715    22041.283     9014.673        7.659        3.720      280.582       96.519        0.118      334.993        5.329      866.129
01/19/2021  15:19:00      309.152       -6.754      -18.776      174.792      100.036       85.057    30552.415    10007.122     7234.684        7.187        2.390      309.226       82.689        0.072      334.954        5.266      866.093
01/19/2021  15:20:00      261.414        1.922      -25.605      219.403      142.505       79.752    48137.614    20307.562     6360.315        7.189        3.740      261.421       51.724        0.039      335.023        5.381      866.070
01/19/2021  15:21:00      322.844      -44.184      -10.549      196.304      164.589      109.054    38535.160    27089.678    11892.734        9.189        3.876      325.854      103.352        0.101      335.034        5.397      866.040
01/19/2021  15:22:00      265.504      -30.885      -21.789      213.761      133.215       99.710    45693.605    17746.135     9942.161        7.264        3.669      267.295      106.889        0.160      335.060        5.442      866.003
01/19/2021  15:23:00      259.145     -114.451      -45.932      155.152      186.518       83.859    24072.142    34788.940     7032.320        7.412        3.295      283.294       75.923        0.072      335.148        5.587      865.969
01/19/2021  15:24:00      333.409     -264.976      -67.064      171.547      200.417       88.403    29428.319    40167.151     7815.047       13.162        3.871      425.880       80.720        0.036      335.134        5.564      865.932
01/19/2021  15:25:00      152.880      -10.970       -3.590      182.405      157.376       88.143    33271.604    24767.104     7769.175        4.464        3.290      153.273       69.729        0.207      335.191        5.659      865.921
01/19/2021  15:26:00      229.258        8.297      -11.591      210.768      167.505      101.723    44423.277    28058.064    10347.471        6.778        4.141      229.408       98.886        0.186      335.195        5.666      865.912
01/19/2021  15:27:00      336.979       23.860      -31.076      225.298      191.710      100.724    50759.153    36752.749    10145.388       10.635        4.883      337.822      110.903        0.108      335.078        5.472      865.880
01/19/2021  15:28:00      463.481       90.743      -32.559      217.996      162.917       88.622    47522.056    26542.027     7853.929       15.300        4.096      472.281       76.804        0.026      334.943        5.247      865.853
01/19/2021  15:29:00      421.000        9.345      -15.748      208.781      130.129       79.246    43589.706    16933.481     6279.987       12.218        3.340      421.104       74.520        0.031      334.992        5.328      865.862
01/19/2021  15:30:00      346.682       65.659      -20.560      214.627      171.684       95.758    46064.889    29475.368     9169.641       10.480        4.235      352.845       90.877        0.066      334.965        5.283      865.825
01/19/2021  15:31:00      368.858       97.037       -8.191      177.961      162.016       88.671    31670.265    26249.332     7862.463       10.565        3.289      381.408       67.549        0.031      334.927        5.220      865.804
01/19/2021  15:32:00      329.874      -35.810        0.756      280.317      181.824      131.314    78577.444    33059.793    17243.362       11.946        6.444      331.812      141.646        0.182      334.942        5.246      865.771
01/19/2021  15:33:00      325.844      -39.694       -3.848      220.516      136.910      103.797    48627.440    18744.350    10773.904        9.294        3.907      328.253      101.511        0.096      335.013        5.363      865.790
01/19/2021  15:34:00      195.483      -14.216       -4.800      203.084      110.736       99.283    41243.064    12262.368     9857.165        5.089        3.168      195.999      101.022        0.266      335.122        5.544      865.794
01/19/2021  15:35:00      184.148      -20.834      -17.989      166.496      146.569       90.373    27720.874    21482.546     8167.322        4.601        2.869      185.322       75.009        0.164      335.124        5.548      865.760
01/19/2021  15:36:00      235.146      -31.484      -20.202      203.779      178.575      112.468    41526.038    31888.881    12649.067        7.136        4.303      237.244      109.481        0.213      335.075        5.466      865.736
01/19/2021  15:37:00      285.579       -9.459      -18.772      272.290      203.056      144.519    74141.815    41231.896    20885.865       10.910        6.813      285.735      135.132        0.224      334.939        5.241      865.645
01/19/2021  15:38:00      386.904      -83.668      -19.546      303.087      229.010      136.427    91861.668    52445.461    18612.220       15.996        8.146      395.847      128.517        0.105      334.880        5.142      865.621
01/19/2021  15:39:00      473.860       -3.006      -30.818      226.767      171.172      111.126    51423.091    29299.987    12348.911       15.927        4.654      473.869      118.823        0.063      334.846        5.085      865.624
01/19/2021  15:40:00      341.073      -20.125       -3.795      279.484      179.654      125.285    78111.195    32275.678    15696.249       12.139        6.304      341.666      124.676        0.133      334.840        5.075      865.587
01/19/2021  15:41:00      490.531      -44.100      -51.044      274.422      178.726      104.933    75307.492    31942.902    11010.900       18.169        5.913      492.509       63.935        0.017      334.800        5.008      865.552
01/19/2021  15:42:00      263.919      -66.623      -28.659      201.112      174.521      108.648    40446.124    30457.533    11804.388        7.879        4.135      272.198       95.364        0.123      334.901        5.177      865.508
01/19/2021  15:43:00      420.297      -13.856      -38.609      234.645      174.695      104.840    55058.492    30518.194    10991.398       13.743        4.828      420.525       83.408        0.039      334.892        5.163      865.488
01/19/2021  15:44:00      326.213      -19.018      -15.405      269.353      178.111      114.281    72551.115    31723.594    13060.140       11.215        5.867      326.767      132.236        0.164      334.895        5.167      865.493
01/19/2021  15:45:00      268.878       14.168      -21.162      223.373      136.300       95.591    49895.537    18577.651     9137.580        7.526        3.881      269.251       88.659        0.108      334.906        5.186      865.530
01/19/2021  15:46:00      437.764        9.368      -14.486      279.503      166.744      109.256    78122.039    27803.630    11936.929       15.487        5.893      437.864       99.734        0.052      334.840        5.074      865.539
01/19/2021  15:47:00      365.668      -71.117      -41.077      173.718      183.996       95.252    30177.890    33854.632     9072.948       10.677        3.655      372.519       89.327        0.058      334.862        5.112      865.596
01/19/2021  15:48:00      387.363      -16.288      -19.801      196.907      159.648       97.377    38772.220    25487.434     9482.366       11.221        3.687      387.706       80.509        0.043      334.826        5.053      865.605
01/19/2021  15:49:00      340.681      -33.345      -30.961      276.404      151.277      124.137    76399.074    22884.832    15409.934       11.639        5.735      342.309      131.959        0.149      334.823        5.047      865.649
01/19/2021  15:50:00      298.987       -1.545      -27.229      229.828      146.405       93.850    52821.017    21434.511     8807.799        8.658        4.153      298.991       92.972        0.097      334.854        5.100      865.731
01/19/2021  15:51:00      204.848      -25.024      -12.866      130.161      113.882       65.605    16942.011    12969.140     4303.973        3.848        1.711      206.371       55.648        0.073      334.951        5.260      865.854
01/19/2021  15:52:00      197.030      -23.289      -23.133      162.918      139.282       66.183    26542.419    19399.560     4380.151        4.510        2.516      198.402       73.382        0.137      334.951        5.261      865.900
01/19/2021  15:53:00      238.170      -32.086      -30.181      206.840      144.152       84.962    42782.773    20779.839     7218.593        6.471        3.539      240.322       65.103        0.073      334.890        5.160      865.898
01/19/2021  15:54:00      197.573       -0.253      -15.132      143.784      114.698       70.632    20673.861    13155.682     4988.898        3.903        1.941      197.574       74.162        0.141      334.889        5.158      865.941
01/19/2021  15:55:00      298.459      -28.582      -10.426      207.840      144.538       99.897    43197.508    20891.206     9979.476        8.202        3.703      299.825      104.988        0.123      334.866        5.120      865.926
01/19/2021  15:56:00      214.801      -26.778       -2.326      154.101       81.276       61.038    23747.039     6605.728     3725.691        4.046        1.704      216.464       63.405        0.086      334.871        5.128      865.948
01/19/2021  15:57:00      287.304      -23.269      -26.288      227.694      163.991      103.547    51844.695    26892.898    10721.984        8.660        4.473      288.244       80.676        0.078      334.850        5.092      865.919
01/19/2021  15:58:00      109.823      -53.586        0.780      175.910      114.608       91.776    30944.175    13134.948     8422.879        3.371        2.625      122.199       80.380        0.433      334.925        5.219      865.902
01/19/2021  15:59:00      150.509        3.972        1.282      146.636      113.497       92.847    21502.045    12881.630     8620.512        3.283        2.150      150.562       81.948        0.296      334.866        5.121      865.891
01/19/2021  16:00:00      298.351      -44.677      -19.794      225.687      141.277       89.658    50934.672    19959.082     8038.512        8.515        3.947      301.677       64.549        0.046      334.813        5.031      865.882
01/19/2021  16:01:00      258.031      -18.248        6.463      260.295      134.685      111.816    67753.680    18139.956    12502.897        8.265        4.920      258.676      123.527        0.228      334.800        5.010      865.879
01/19/2021  16:02:00      265.236       -4.609       -3.177      241.007      168.814      113.534    58084.573    28498.003    12889.914        8.491        4.974      265.276      107.213        0.163      334.751        4.927      865.909
01/19/2021  16:03:00      379.291      -68.562      -10.955      215.717      138.479       91.572    46533.796    19176.340     8385.398       11.137        3.705      385.438       93.443        0.059      334.725        4.883      865.934
01/19/2021  16:04:00      212.826      -41.586       -6.050      165.927      126.686       95.273    27531.871    16049.406     9076.868        4.985        2.633      216.851       84.181        0.151      334.776        4.968      865.949
01/19/2021  16:05:00      232.070      -46.692      -21.601      143.104      120.721       67.689    20478.824    14573.642     4581.832        4.806        1.982      236.721       63.527        0.072      334.808        5.022      865.991
01/19/2021  16:06:00      258.140      -81.213      -16.505      163.623      139.041       84.466    26772.529    19332.481     7134.507        6.336        2.662      270.614       77.669        0.082      334.819        5.041      866.006
01/19/2021  16:07:00      393.137        4.364      -13.489      169.185      125.857       80.599    28623.440    15839.985     6496.171       10.285        2.548      393.162       69.901        0.032      334.776        4.967      866.010
01/19/2021  16:08:00      241.543      -21.052      -25.855      175.902      168.916      103.480    30941.365    28532.684    10708.152        6.480        3.509      242.459       89.682        0.137      334.780        4.976      865.994
01/19/2021  16:09:00      222.839      -70.529       -9.852      184.716      144.405       91.752    34119.940    20852.930     8418.442        5.905        3.170      233.734       88.795        0.144      334.781        4.977      865.998
01/19/2021  16:10:00      294.991      -19.785        8.233      237.839      153.529       98.883    56567.359    23571.254     9777.877        8.868        4.496      295.654       98.097        0.110      334.756        4.936      865.987
01/19/2021  16:11:00      414.810      -28.333      -26.577      165.916      131.317       88.944    27527.968    17244.164     7911.084       11.312        2.634      415.776       75.635        0.033      334.721        4.877      865.996
01/19/2021  16:12:00      211.958       14.821        0.888      166.351      130.957       96.010    27672.712    17149.769     9217.899        4.958        2.702      212.475       89.160        0.176      334.774        4.965      866.039
01/19/2021  16:13:00      311.541      -34.555      -10.959      224.456      152.139      100.820    50380.289    23146.208    10164.591        9.101        4.185      313.451      105.647        0.114      334.737        4.904      866.050
01/19/2021  16:14:00      143.145        6.220       -9.602      151.236      109.169       81.136    22872.418    11917.833     6583.109        3.099        2.069      143.280       70.544        0.242      334.776        4.970      866.060
01/19/2021  16:15:00      176.576      -62.320      -32.996      118.963      107.966       54.001    14152.174    11656.712     2916.135        3.243        1.436      187.250       56.655        0.092      334.849        5.091      866.078
01/19/2021  16:16:00      125.494      -48.537       -6.526      106.508      134.453       82.373    11343.857    18077.665     6785.291        2.717        1.810      134.553       69.587        0.267      334.867        5.120      866.057
01/19/2021  16:17:00      222.552      -29.059      -19.061      157.205      110.978       72.592    24713.489    12316.084     5269.600        4.651        2.115      224.441       73.083        0.106      334.778        4.973      866.033
01/19/2021  16:18:00      252.350      -26.125       -8.212      168.114       94.674       65.400    28262.268     8963.219     4277.196        5.296        2.075      253.699       60.109        0.056      334.757        4.938      866.012
01/19/2021  16:19:00      272.291      -22.831      -30.961      204.666      134.463       85.312    41888.363    18080.196     7278.218        7.142        3.362      273.247       95.078        0.121      334.736        4.904      865.996
01/19/2021  16:20:00      293.939       65.831      -30.404      130.080      163.769       70.678    16920.921    26820.137     4995.397        7.019        2.437      301.221       59.987        0.040      334.700        4.840      866.000
01/19/2021  16:21:00      302.540      -13.646      -32.687      189.886      186.784       86.839    36056.691    34888.242     7540.960        8.562        3.924      302.848       84.882        0.079      334.703        4.847      865.980
01/19/2021  16:22:00      342.019       28.484      -25.917      176.307      157.486       88.987    31084.238    24801.770     7918.630        9.112        3.190      343.203       76.912        0.050      334.692        4.827      865.994
01/19/2021  16:23:00      368.342       47.240      -30.734      114.467      126.908       66.526    13102.802    16105.556     4425.719        8.624        1.682      371.359       35.777        0.009      334.667        4.786      866.015
01/19/2021  16:24:00      281.145        6.737      -16.036      163.210      121.135       70.938    26637.600    14673.797     5032.266        6.283        2.317      281.226       72.303        0.066      334.671        4.794      866.021
01/19/2021  16:25:00      216.150       11.435      -11.690      152.477      110.160       67.027    23249.204    12135.191     4492.613        4.342        1.994      216.452       62.229        0.083      334.687        4.821      866.043
01/19/2021  16:26:00      240.357      -49.916      -28.354      190.536      144.648       77.558    36303.884    20923.118     6015.208        6.214        3.162      245.485       64.100        0.068      334.692        4.830      866.053
01/19/2021  16:27:00      269.858      -29.520      -19.270      146.858      128.203       69.740    21567.257    16435.886     4863.643        5.846        2.143      271.468       65.285        0.058      334.674        4.799      866.084
01/19/2021  16:28:00      204.082        2.360      -13.878      166.792      139.644       81.244    27819.411    19500.307     6600.520        4.787        2.696      204.096       66.763        0.107      334.699        4.842      866.131
01/19/2021  16:29:00       90.183      -34.999      -28.328       92.885       88.715       51.962     8627.562     7870.430     2700.035        1.468        0.960       96.737       39.722        0.169      334.793        4.999      866.176
01/19/2021  16:30:00      136.390      -43.237       -8.244      150.895       93.294       67.231    22769.291     8703.752     4520.036        2.826        1.800      143.079       77.658        0.295      334.750        4.927      866.217
01/19/2021  16:31:00      271.045       -9.865      -15.175      177.384      100.997       70.000    31464.914    10200.395     4900.004        6.017        2.328      271.224       68.235        0.063      334.687        4.820      866.249
01/19/2021  16:32:00      264.872      -23.216      -13.522      146.079      109.564       70.947    21338.964    12004.257     5033.416        5.462        1.919      265.887       66.692        0.063      334.685        4.816      866.259
01/19/2021  16:33:00      294.781      -74.075      -38.111      116.906      137.710       58.266    13667.127    18963.921     3394.926        6.492        1.801      303.945       63.096        0.043      334.701        4.844      866.281
01/19/2021  16:34:00      135.069       -9.531       -6.961      113.426       79.385       53.704    12865.352     6301.941     2884.115        2.021        1.103      135.405       47.549        0.123      334.680        4.811      866.295
01/19/2021  16:35:00       96.599      -48.688      -20.532      103.040      124.594       52.185    10617.142    15523.730     2723.233        2.049        1.443      108.175       44.576        0.170      334.750        4.926      866.308
01/19/2021  16:36:00      154.760        9.256      -17.607       84.888       88.386       39.221     7205.894     7812.091     1538.251        2.045        0.828      155.037       19.676        0.016      334.673        4.799      866.319
01/19/2021  16:37:00      295.957       59.572      -15.963      133.456       96.603       60.676    17810.426     9332.049     3681.606        6.110        1.541      301.894       45.415        0.023      334.640        4.742      866.301
01/19/2021  16:38:00      150.834      -23.013      -37.736       86.641       92.222       50.965     7506.696     8504.879     2597.420        2.165        0.930      152.579       45.115        0.087      334.682        4.813      866.315
01/19/2021  16:39:00      203.097       17.024       -3.707       98.321       76.721       50.789     9667.071     5886.185     2579.553        2.984        0.907      203.809       35.550        0.030      334.673        4.799      866.328
01/19/2021  16:40:00      232.742       30.451      -19.959      113.453       81.273       48.828    12871.534     6605.224     2384.137        3.867        1.093      234.725       51.737        0.049      334.610        4.691      866.339
01/19/2021  16:41:00      230.680       59.060      -12.533      133.617      124.789       68.912    17853.618    15572.393     4748.903        4.751        1.909      238.121       57.487        0.058      334.612        4.695      866.333
01/19/2021  16:42:00      179.514        1.750       -1.083      129.957       98.503       62.623    16888.841     9702.858     3921.598        3.136        1.526      179.522       54.497        0.092      334.606        4.686      866.358
01/19/2021  16:43:00      151.672      -68.188      -28.009       77.232       77.480       52.332     5964.842     6003.217     2738.645        2.157        0.735      166.295       28.202        0.029      334.614        4.699      866.376
01/19/2021  16:44:00      138.221      -87.974      -13.193      126.528       85.815       49.065    16009.234     7364.214     2407.326        2.639        1.289      163.843       42.293        0.067      334.651        4.760      866.410
01/19/2021  16:45:00      150.867      -52.790      -14.618      119.108      108.241       82.820    14186.835    11716.186     6859.078        2.925        1.638      159.837       77.888        0.237      334.630        4.727      866.432
01/19/2021  16:46:00      104.193      -22.108      -19.968       95.701       87.663       56.392     9158.725     7684.793     3180.043        1.588        1.001      106.512       40.754        0.146      334.606        4.687      866.487
01/19/2021  16:47:00      170.301       23.295       13.830      160.405       71.964       57.511    25729.737     5178.815     3307.460        3.197        1.711      171.887       69.032        0.161      334.608        4.691      866.523
01/19/2021  16:48:00      149.254        9.658       -2.477      118.583       81.918       49.660    14061.966     6710.586     2466.120        2.280        1.162      149.566       23.267        0.024      334.628        4.724      866.573
01/19/2021  16:49:00       78.912       -8.468        0.784      105.174       82.172       53.218    11061.553     6752.216     2832.105        1.347        1.032       79.365       46.384        0.342      334.556        4.605      866.600
01/19/2021  16:50:00      247.741       79.327       -3.641      130.990       91.598       69.371    17158.488     8390.189     4812.375        4.901        1.518      260.132       63.416        0.059      334.543        4.581      866.607
01/19/2021  16:51:00      111.411      -37.591      -13.227       95.454       77.587       50.298     9111.534     6019.767     2529.920        1.583        0.883      117.581       42.772        0.132      334.536        4.571      866.638
01/19/2021  16:52:00      257.623       75.135      -18.090      106.261       98.875       50.904    11291.300     9776.296     2591.233        4.800        1.183      268.356       45.386        0.029      334.499        4.509      866.630
01/19/2021  16:53:00      171.424       19.740      -30.457      127.198      102.480       61.886    16179.421    10502.173     3829.869        3.060        1.526      172.557       51.295        0.088      334.527        4.555      866.588
01/19/2021  16:54:00      245.908       -2.133       -3.797      198.489      132.999      104.619    39397.906    17688.644    10945.045        6.425        3.402      245.918      108.347        0.194      334.512        4.530      866.576
01/19/2021  16:55:00      136.181       -9.768        8.601      156.634      107.592       86.318    24534.149    11576.002     7450.741        3.113        2.178      136.531       79.869        0.342      334.502        4.514      866.599
01/19/2021  16:56:00      273.299       31.661      -21.348      183.771      119.665       65.654    33771.666    14319.811     4310.424        6.427        2.620      275.127       46.088        0.028      334.532        4.563      866.611
01/19/2021  16:57:00      276.099       12.295      -11.505      149.650      105.038       65.970    22395.146    11032.948     4352.016        5.714        1.889      276.373       70.459        0.065      334.490        4.495      866.605
01/19/2021  16:58:00      229.616      -42.554      -27.756      155.651      109.217       71.685    24227.081    11928.421     5138.697        4.829        2.065      233.526       44.949        0.037      334.483        4.482      866.601
01/19/2021  16:59:00      143.734      -25.327      -12.666      142.544      127.236       69.092    20318.926    16188.910     4773.706        3.136        2.064      145.948       67.491        0.214      334.504        4.517      866.575
01/19/2021  17:00:00      220.460        7.069       -3.792      214.349      124.530       91.711    45945.688    15507.708     8410.885        5.925        3.493      220.573       90.789        0.169      334.464        4.451      866.557
01/19/2021  17:01:00      223.628      -10.810        9.387      190.110      118.170       92.156    36141.989    13964.031     8492.741        5.439        2.930      223.889       90.791        0.164      334.455        4.438      866.537
01/19/2021  17:02:00      150.175      -36.816      -29.258      177.172      127.565      106.304    31390.072    16272.708    11300.565        4.185        2.948      154.622      100.837        0.425      334.436        4.406      866.511
01/19/2021  17:03:00      191.331        4.633       -8.813      213.432      169.200      128.377    45553.044    28628.678    16480.574        6.367        4.533      191.387      124.333        0.422      334.469        4.458      866.439
01/19/2021  17:04:00      315.354      -64.752      -13.840      190.383      142.557       97.292    36245.762    20322.597     9465.657        8.492        3.302      321.933      106.231        0.109      334.451        4.430      866.442
01/19/2021  17:05:00      241.576        5.752      -27.628      152.647      146.848       77.884    23301.176    21564.410     6065.895        5.503        2.547      241.645       54.180        0.050      334.476        4.471      866.415
01/19/2021  17:06:00      271.202       13.640      -11.336      190.779      127.343       84.154    36396.661    16216.318     7081.845        6.677        2.985      271.545       81.400        0.090      334.421        4.379      866.384
01/19/2021  17:07:00      231.235        2.248      -25.675      148.707      136.386       95.574    22113.842    18601.209     9134.432        5.198        2.492      231.246       62.862        0.074      334.388        4.324      866.367
01/19/2021  17:08:00      174.205        5.291      -10.371      154.601      116.437       72.635    23901.326    13557.539     5275.835        3.660        2.137      174.285       62.858        0.130      334.408        4.359      866.355
01/19/2021  17:09:00      273.586       32.491      -13.986      117.999      123.541       61.304    13923.714    15262.424     3758.136        5.452        1.647      275.509       40.969        0.022      334.372        4.298      866.333
01/19/2021  17:10:00      222.783       22.737       -1.635      150.434      120.233       60.952    22630.532    14456.092     3715.164        4.547        2.040      223.941       58.551        0.068      334.409        4.362      866.325
01/19/2021  17:11:00      363.700       38.678      -13.889      199.892      121.333       85.550    39956.852    14721.817     7318.737        9.797        3.100      365.751       70.728        0.037      334.397        4.339      866.297
01/19/2021  17:12:00      316.384      -25.555        2.301      210.262      130.042       94.140    44210.161    16911.049     8862.324        8.536        3.499      317.415       91.772        0.084      334.411        4.364      866.299
01/19/2021  17:13:00      349.226       17.964       -3.473      207.790      142.938       95.386    43176.662    20431.393     9098.484        9.748        3.635      349.688      103.172        0.087      334.405        4.353      866.293
01/19/2021  17:14:00      278.986       -5.309      -19.638      207.697      127.449       90.196    43138.116    16243.201     8135.379        7.287        3.376      279.037      100.231        0.129      334.432        4.399      866.295
01/19/2021  17:15:00      250.412      -67.780       -2.330      220.430      108.889       96.562    48589.321    11856.759     9324.211        6.852        3.489      259.423       98.627        0.145      334.373        4.302      866.248
01/19/2021  17:16:00      195.548      -50.657      -27.985      151.632      139.257       71.320    22992.383    19392.609     5086.474        4.452        2.374      202.003       61.719        0.093      334.377        4.307      866.216
01/19/2021  17:17:00      309.342       -3.949      -33.467      180.319      135.143       89.542    32514.785    18263.761     8017.720        7.780        2.940      309.368       88.762        0.082      334.349        4.260      866.176
01/19/2021  17:18:00      257.009       -6.392      -20.646      165.060      122.165       89.791    27244.711    14924.184     8062.357        5.837        2.512      257.088       61.219        0.057      334.330        4.228      866.146
01/19/2021  17:19:00      250.570      -65.227      -11.975      207.005      156.190       88.662    42850.934    24395.447     7861.003        7.113        3.755      258.921       90.549        0.122      334.340        4.246      866.151
01/19/2021  17:20:00      343.955      -48.199       -9.478      217.871      144.022      103.496    47467.923    20742.414    10711.517        9.980        3.946      347.315      112.610        0.105      334.386        4.321      866.109
01/19/2021  17:21:00      393.202      -42.033      -38.113      206.710      147.538       88.578    42729.088    21767.466     7846.050       11.507        3.617      395.442       89.896        0.052      334.400        4.345      866.118
01/19/2021  17:22:00      254.011      -21.931       -6.719      268.153      124.147      137.356    71906.036    15412.388    18866.548        8.559        5.309      254.955      170.511        0.447      334.463        4.451      866.134
01/19/2021  17:23:00      297.263      -47.741       -8.692      199.944      118.143       94.686    39977.447    13957.660     8965.451        7.680        3.145      301.072       96.250        0.102      334.405        4.355      866.146
01/19/2021  17:24:00      168.753      -84.627      -25.235      115.450      124.629       66.626    13328.750    15532.449     4439.048        3.478        1.665      188.784       60.906        0.104      334.416        4.373      866.179
01/19/2021  17:25:00      206.911      -53.385      -15.319      126.509      122.597       62.920    16004.544    15030.047     3958.984        4.044        1.750      213.687       38.038        0.032      334.427        4.391      866.209
01/19/2021  17:26:00      329.283      -14.384      -24.600      194.335      120.536       82.091    37766.168    14528.962     6738.984        8.412        2.952      329.597       79.406        0.058      334.412        4.365      866.237
01/19/2021  17:27:00      166.145      -21.564      -19.169      129.526       97.485       59.451    16776.958     9503.258     3534.474        2.912        1.491      167.539       58.504        0.122      334.418        4.377      866.294
01/19/2021  17:28:00       95.459       -5.651      -13.217       80.282      120.475       53.062     6445.249    14514.156     2815.606        1.654        1.189       95.626       23.637        0.061      334.408        4.360      866.333
01/19/2021  17:29:00      252.412        2.175      -19.476       96.431      108.963       66.882     9298.918    11872.841     4473.262        4.487        1.282      252.421       46.032        0.033      334.368        4.290      866.347
01/19/2021  17:30:00      217.047      -53.763      -23.215      195.308       98.715       95.337    38145.198     9744.608     9089.183        5.375        2.849      223.606      117.374        0.276      334.450        4.430      866.352
01/19/2021  17:31:00      117.213      -32.637      -14.575       93.199      100.660       52.001     8686.055    10132.395     2704.056        1.826        1.076      121.672       34.283        0.079      334.391        4.330      866.365
01/19/2021  17:32:00      210.986      -31.765      -10.658      119.936      108.230       71.125    14384.653    11713.803     5058.748        3.839        1.558      213.364       56.128        0.069      334.378        4.310      866.367
01/19/2021  17:33:00      182.222       10.509       -6.845      141.476       92.475       65.862    20015.407     8551.628     4337.820        3.313        1.645      182.525       58.093        0.101      334.378        4.309      866.349
01/19/2021  17:34:00      279.946     -104.599      -41.423      243.324      132.250      127.980    59206.544    17490.092    16378.809        9.203        4.654      298.849      157.597        0.278      334.441        4.416      866.331
01/19/2021  17:35:00      191.854        5.802      -31.593      187.675      131.115       96.134    35222.056    17191.258     9241.778        4.973        3.083      191.942      103.751        0.292      334.346        4.255      866.274
01/19/2021  17:36:00      218.133      -93.542      -30.424      194.113      118.489      108.969    37679.838    14039.642    11874.332        6.041        3.180      237.344      124.582        0.276      334.353        4.268      866.218
01/19/2021  17:37:00      215.455      -51.442      -25.730      132.079      132.226       68.894    17444.866    17483.731     4746.400        4.469        1.984      221.511       63.510        0.082      334.295        4.170      866.171
01/19/2021  17:38:00      155.097      -61.944      -32.667      145.612      117.178       84.793    21202.715    13730.748     7189.906        3.553        2.106      167.009       80.391        0.232      334.309        4.195      866.137
01/19/2021  17:39:00      239.420      -30.279      -25.423      258.210      100.077      121.394    66672.282    10015.313    14736.430        7.513        4.571      241.327      158.623        0.432      334.318        4.209      866.087
01/19/2021  17:40:00      250.607      -56.695       -0.907      146.301      129.658       79.547    21404.037    16811.266     6327.656        5.527        2.227      256.940       63.809        0.062      334.281        4.147      866.069
01/19/2021  17:41:00      166.580      -75.855      -28.270      207.188      114.569      103.767    42926.747    13126.082    10767.529        5.055        3.341      183.038      129.916        0.504      334.320        4.215      866.058
01/19/2021  17:42:00      182.125      -29.232      -21.152      109.888      121.963       67.925    12075.388    14875.042     4613.744        3.301        1.578      184.456       59.896        0.105      334.288        4.159      866.089
01/19/2021  17:43:00      244.648     -117.276      -47.672      315.252      112.101      147.032    99383.676    12566.579    21618.320       10.470        6.678      271.305      205.933        0.576      334.411        4.366      866.099
01/19/2021  17:44:00      276.449      -69.647      -43.149      263.743      122.593      131.641    69560.447    15029.090    17329.377        9.251        5.096      285.087      174.115        0.373      334.385        4.323      866.108
01/19/2021  17:45:00      131.269      -76.974      -17.462      198.945      100.921       98.194    39579.142    10184.980     9642.120        4.142        2.970      152.173      127.579        0.703      334.330        4.231      866.138
01/19/2021  17:46:00      160.440      -39.130      -20.144      166.263       85.984       79.956    27643.298     7393.307     6393.017        3.454        2.071      165.143      104.802        0.403      334.329        4.229      866.172
01/19/2021  17:47:00       92.783      -74.737      -10.363      116.207       73.408       33.852    13504.152     5388.782     1145.969        1.717        1.002      119.140       19.527        0.027      334.352        4.266      866.205
01/19/2021  17:48:00      230.567     -109.204      -42.108      249.819      106.018      111.324    62409.762    11239.723    12392.979        7.643        4.302      255.121      159.091        0.389      334.408        4.361      866.250
01/19/2021  17:49:00      172.200      -25.655      -23.988      298.120       81.115      134.944    88875.282     6579.628    18209.968        7.225        5.683      174.101      188.675        1.174      334.392        4.333      866.296
01/19/2021  17:50:00       95.437      -31.435      -26.981      265.753       67.388      127.245    70624.708     4541.176    16191.176        5.107        4.568      100.480      178.519        3.156      334.372        4.302      866.361
01/19/2021  17:51:00       91.261       -0.894       -3.165      169.478       80.061       81.756    28722.867     6409.802     6684.047        2.507        2.091       91.265      105.748        1.343      334.296        4.174      866.401
01/19/2021  17:52:00       56.955        1.919        2.915       51.734       50.608       35.476     2676.381     2561.147     1258.558        0.487        0.325       56.987       26.646        0.219      334.331        4.234      866.438
01/19/2021  17:53:00       29.157      -34.309       -8.508      196.958       33.221       92.666    38792.495     1103.607     8586.905        2.528        2.424       45.025      132.317        8.636      334.423        4.389      866.472
01/19/2021  17:54:00      166.503      -74.371      -28.726      303.240       75.009      135.910    91954.510     5626.317    18471.474        7.504        5.803      182.358      190.455        1.091      334.399        4.348      866.496
01/19/2021  17:55:00       26.879       -7.380      -28.380      200.483       81.696       98.599    40193.472     6674.196     9721.716        2.907        2.829       27.874      135.137       23.505      334.368        4.298      866.524
01/19/2021  17:56:00       43.706      -66.545      -10.089       47.037       70.754       35.055     2212.436     5006.139     1228.875        0.744        0.422       79.615       33.422        0.176      334.302        4.184      866.555
01/19/2021  17:57:00      177.927     -104.816      -39.629      281.692       75.926      133.916    79350.226     5764.819    17933.457        7.361        5.152      206.506      189.449        0.842      334.410        4.367      866.567
01/19/2021  17:58:00       71.158      -85.864      -17.983      234.553       76.661      109.071    55015.196     5876.890    11896.535        4.276        3.639      111.517      153.022        1.883      334.367        4.294      866.582
01/19/2021  17:59:00      100.617      -65.144      -27.044      231.633       48.540      108.069    53654.076     2356.096    11678.970        4.138        3.384      119.865      152.524        1.619      334.432        4.401      866.594
01/19/2021  18:00:00      111.711     -100.265      -36.343      225.158       67.566      108.832    50695.933     4565.212    11844.366        4.547        3.355      150.108      153.900        1.051      334.389        4.331      866.589
01/19/2021  18:01:00      133.611      -85.761      -26.545       85.167       68.333       34.177     7253.345     4669.423     1168.091        1.950        0.655      158.767       36.159        0.052      334.316        4.206      866.583
01/19/2021  18:02:00       27.482      -22.403      -23.443      299.549       35.171      145.565    89729.850     1236.965    21189.138        5.696        5.608       35.456      207.109       34.120      334.463        4.456      866.591
01/19/2021  18:03:00       67.283      -42.379      -13.225      258.736       72.136      125.915    66944.248     5203.612    15854.698        4.723        4.400       79.518      175.915        4.894      334.381        4.318      866.590
01/19/2021  18:04:00       85.314      -70.924      -25.686       37.355       59.179       30.504     1395.391     3502.205      930.488        0.940        0.291      110.944       27.316        0.061      334.270        4.133      866.590
01/19/2021  18:05:00       82.674     -105.492      -13.105       57.338       54.591       38.728     3287.611     2980.170     1499.831        1.295        0.388      134.029       41.460        0.096      334.278        4.144      866.587
01/19/2021  18:06:00      154.098     -174.583      -41.728      294.484       87.501      143.298    86720.858     7656.508    20534.289        8.541        5.746      232.863      197.627        0.720      334.413        4.369      866.550
01/19/2021  18:07:00      125.517     -111.779      -26.365       72.161      102.223       41.871     5207.183    10449.552     1753.178        2.317        0.870      168.075       43.559        0.067      334.241        4.080      866.518
01/19/2021  18:08:00      240.805      -85.928      -56.826      378.779       64.145      176.212   143473.683     4114.529    31050.539       12.358        8.932      255.677      253.198        0.981      334.422        4.386      866.468
01/19/2021  18:09:00      106.497      -16.478       -8.992      246.750       78.939      116.210    60885.481     6231.407    13504.731        4.614        4.031      107.765      161.309        2.241      334.267        4.126      866.421
01/19/2021  18:10:00      164.590      -89.981      -42.475      223.848       80.357      115.796    50107.921     6457.184    13408.777        5.347        3.499      187.581      153.783        0.672      334.348        4.261      866.385
01/19/2021  18:11:00      122.777      -59.102      -20.865      265.124       63.937      124.183    70290.963     4088.002    15421.422        5.438        4.490      136.261      174.158        1.634      334.335        4.242      866.366
01/19/2021  18:12:00      154.702      -92.821      -27.272      267.156       65.439      120.861    71372.064     4282.288    14607.348        6.176        4.513      180.412      168.335        0.871      334.289        4.164      866.338
01/19/2021  18:13:00      169.071     -150.908      -47.571      352.185       73.318      165.401   124034.075     5375.476    27357.457       10.516        7.838      226.623      237.899        1.102      334.404        4.356      866.322
01/19/2021  18:14:00       66.536     -109.327      -26.134      214.432       63.818      100.663    45981.049     4072.771    10133.064        3.861        3.009      127.983      141.200        1.217      334.311        4.201      866.325
01/19/2021  18:15:00       82.005     -148.935      -18.225      229.125       80.319      112.401    52498.254     6451.219    12633.927        5.040        3.579      170.019      153.643        0.817      334.328        4.228      866.344
01/19/2021  18:16:00       65.025     -151.025      -30.727      216.479       77.091      104.356    46863.184     5943.079    10890.081        4.583        3.185      164.428      145.582        0.784      334.302        4.185      866.368
01/19/2021  18:17:00       33.550      -86.659      -12.531       52.512       60.138       30.133     2757.474     3616.626      907.993        0.804        0.364       92.927       30.706        0.109      334.257        4.111      866.433
01/19/2021  18:18:00       65.672      -23.919      -48.689      444.209       57.406      204.975   197322.056     3295.458    42014.759       12.489       12.132       69.892      297.516       18.120      334.452        4.439      866.488
01/19/2021  18:19:00      -37.889      -34.582       -7.250      255.269       38.141      121.106    65162.186     1454.714    14666.740        4.197        4.064       51.298      168.590       10.801      334.244        4.091      866.531
01/19/2021  18:20:00       24.438      -15.644      -11.336      353.793       35.976      169.723   125169.705     1294.304    28805.915        7.809        7.763       29.017      242.023       69.570      334.248        4.100      866.570
01/19/2021  18:21:00      -45.740      -23.489        4.442      180.946       53.306       92.269    32741.531     2841.515     8513.530        2.337        2.205       51.419      119.318        5.385      334.122        3.886      866.600
01/19/2021  18:22:00      -64.177      -30.952        6.783       75.752       53.657       33.537     5738.387     2879.117     1124.724        0.743        0.487       71.251       24.372        0.117      334.084        3.822      866.646
01/19/2021  18:23:00      -34.744      -60.559      -35.590      454.225       66.357      215.816   206320.720     4403.230    46576.586       13.167       12.865       69.818      308.972       19.584      334.318        4.219      866.696
01/19/2021  18:24:00      -33.220      -40.619      -21.322      318.314       50.664      152.728   101323.957     2566.879    23325.818        6.519        6.361       52.473      215.070       16.799      334.197        4.013      866.741
01/19/2021  18:25:00     -120.020      -49.914      -11.125      162.167       52.227       81.383    26298.272     2727.665     6623.255        2.633        1.782      129.985       99.752        0.589      334.139        3.913      866.769
01/19/2021  18:26:00     -109.450      -61.169      -20.624      224.686       48.047      108.310    50483.932     2308.511    11730.964        4.032        3.226      125.383      146.979        1.374      334.224        4.055      866.785
01/19/2021  18:27:00      -19.530      -41.223       -7.275       45.660       45.056       28.857     2084.815     2030.066      832.746        0.354        0.247       45.615       19.623        0.185      334.182        3.987      866.798
01/19/2021  18:28:00      -66.871      -27.717      -11.999      336.463       52.950      166.379   113207.513     2803.716    27682.036        7.451        7.185       72.388      226.385        9.781      334.260        4.115      866.807
01/19/2021  18:29:00        2.860      -38.335      -25.546      307.870       53.724      143.165    94783.875     2886.314    20496.208        6.012        5.908       38.442      206.778       28.934      334.300        4.186      866.824
01/19/2021  18:30:00      -53.943      -82.886      -24.165      276.343       67.320      133.777    76365.567     4532.036    17896.297        5.456        4.940       98.894      187.721        3.603      334.267        4.128      866.825
01/19/2021  18:31:00      -32.401      -11.437       -0.856      239.878       43.318      115.843    57541.274     1876.455    13419.574        3.699        3.642       34.360      160.962       21.945      334.209        4.033      866.816
01/19/2021  18:32:00      -17.151      -31.141      -11.857      281.415       36.083      136.184    79194.152     1301.949    18546.051        5.020        4.952       35.552      191.675       29.067      334.279        4.149      866.796
01/19/2021  18:33:00      -27.034      -33.308      -19.122       36.299       34.336       23.615     1317.612     1178.940      557.691        0.263        0.153       42.898       16.749        0.152      334.170        3.965      866.764
01/19/2021  18:34:00      -18.130      -36.096       -4.996      154.811       27.283       76.287    23966.395      744.346     5819.736        1.609        1.527       40.393      105.021        6.760      334.177        3.976      866.741
01/19/2021  18:35:00      -14.169      -36.317      -24.973      232.974       22.483      109.167    54276.658      505.497    11917.499        3.441        3.335       38.984      158.360       16.502      334.212        4.038      866.720
01/19/2021  18:36:00       86.221      -87.642      -37.559      387.842       61.321      183.832   150421.388     3760.303    33794.038       10.221        9.399      122.944      264.611        4.632      334.325        4.226      866.701
01/19/2021  18:37:00      113.581     -133.987      -33.055      142.804       50.605       67.336    20392.996     2560.841     4534.140        2.971        1.374      175.651       94.750        0.291      334.143        3.919      866.673
01/19/2021  18:38:00      111.323     -135.103      -37.862      276.070       69.401      129.600    76214.716     4816.551    16796.133        6.493        4.891      175.059      187.680        1.149      334.153        3.939      866.657
01/19/2021  18:39:00      102.280      -74.911      -37.562      269.634       77.550      133.163    72702.495     6013.959    17732.470        5.695        4.822      126.779      185.056        2.131      334.076        3.812      866.632
01/19/2021  18:40:00      122.136     -141.893      -32.425       49.900       51.185       24.716     2490.039     2619.948      610.905        2.091        0.286      187.218       19.793        0.011      333.985        3.659      866.612
01/19/2021  18:41:00      137.825     -108.259      -48.105      322.645       67.602      153.928   104099.493     4570.063    23693.818        8.267        6.618      175.259      220.846        1.588      334.117        3.882      866.593
01/19/2021  18:42:00      138.973     -153.106      -37.861      209.719       62.712       99.671    43982.264     3932.788     9934.377        5.101        2.892      206.773      137.629        0.443      334.048        3.762      866.579
01/19/2021  18:43:00      165.323     -235.842      -46.015      269.581       68.789      134.869    72673.763     4731.908    18189.686        9.031        4.780      288.016      186.113        0.418      334.143        3.919      866.569
01/19/2021  18:44:00      117.163     -173.850      -35.876      203.870       73.087      103.667    41562.866     5341.640    10746.880        5.143        2.883      209.645      141.168        0.453      334.085        3.826      866.554
01/19/2021  18:45:00      140.886     -180.442      -38.262      195.240       96.948       97.553    38118.480     9398.965     9516.548        5.544        2.852      228.928      132.543        0.335      334.080        3.815      866.546
01/19/2021  18:46:00       26.757      -82.048      -30.296      259.216       66.445      117.850    67192.682     4414.930    13888.582        4.691        4.275       86.300      167.268        3.757      334.221        4.052      866.564
01/19/2021  18:47:00      -10.643      -67.837      -17.946      199.499       59.954       99.233    39799.796     3594.469     9847.277        2.913        2.662       68.666      130.469        3.610      334.118        3.880      866.579
01/19/2021  18:48:00       18.366     -104.684      -34.663      278.818       51.826      137.120    77739.313     2685.911    18802.021        5.584        4.961      106.283      191.189        3.236      334.242        4.088      866.591
01/19/2021  18:49:00       56.292      -88.992      -19.991       69.356       96.166       38.608     4810.204     9247.828     1490.561        1.351        0.777      105.301       29.798        0.080      334.093        3.836      866.614
01/19/2021  18:50:00       94.939     -128.952      -35.670      254.036       55.005      120.649    64534.532     3025.585    14556.246        5.450        4.106      160.131      168.784        1.111      334.156        3.945      866.635
01/19/2021  18:51:00      -32.151      -25.308       -4.774       62.406       36.932       30.503     3894.482     1363.936      930.420        0.394        0.309       40.917       24.463        0.357      334.071        3.800      866.673
01/19/2021  18:52:00       16.825      -34.426      -32.198      353.884       42.712      168.719   125234.212     1824.294    28465.956        7.898        7.776       38.318      242.917       40.190      334.218        4.049      866.701
01/19/2021  18:53:00      -26.193      -43.974      -22.041      243.890       26.771      115.670    59482.205      716.666    13379.616        3.833        3.679       51.184      166.341       10.562      334.143        3.922      866.732
01/19/2021  18:54:00       -9.439      -23.250      -13.459      170.810       50.986       82.885    29176.188     2599.579     6869.972        1.972        1.932       25.093      113.666       20.520      334.061        3.787      866.764
01/19/2021  18:55:00       23.043       -8.912      -15.665      301.867       34.333      143.599    91123.615     1178.725    20620.766        5.687        5.646       24.706      206.408       69.797      334.116        3.880      866.789
01/19/2021  18:56:00      -11.430      -25.618      -15.685      214.098       29.199      101.520    45838.077      852.561    10306.312        2.900        2.850       28.052      143.812       26.282      334.120        3.883      866.799
01/19/2021  18:57:00      -25.825      -14.464       -2.139      295.865       31.961      142.399    87536.383     1021.515    20277.424        5.484        5.442       29.600      201.490       46.338      334.137        3.914      866.807
01/19/2021  18:58:00      -33.761      -60.253      -19.773      322.141       48.202      153.098   103774.942     2323.403    23438.945        6.732        6.477       69.067      217.274        9.896      334.224        4.057      866.817
01/19/2021  18:59:00      -62.979      -65.136      -45.000      306.106       50.127      146.899    93700.802     2512.687    21579.184        6.399        5.890       90.603      208.335        5.287      334.257        4.110      866.817
01/19/2021  19:00:00       -9.992      -62.528      -22.880      214.131       45.523      103.540    45851.935     2072.335    10720.558        3.158        2.932       63.321      143.440        5.131      334.243        4.089      866.818
01/19/2021  19:01:00       38.355      -57.284      -30.403      327.323       38.561      157.016   107140.600     1486.934    24654.144        6.945        6.664       68.938      224.365       10.592      334.349        4.266      866.813
01/19/2021  19:02:00       11.641      -87.830      -10.480      186.976       55.189       86.218    34959.972     3045.835     7433.540        2.669        2.272       88.598      115.465        1.698      334.266        4.126      866.806
01/19/2021  19:03:00      133.218     -114.409      -35.734      166.541       52.982       81.344    27736.044     2807.071     6616.870        3.463        1.858      175.603      112.099        0.408      334.065        3.791      866.785
01/19/2021  19:04:00      156.315      -98.936      -51.137      176.989       66.121       88.366    31325.016     4371.950     7808.501        4.016        2.175      184.994      121.443        0.431      334.033        3.738      866.748
01/19/2021  19:05:00      123.116     -147.703      -39.140      179.648       67.678       93.991    32273.235     4580.358     8834.219        4.209        2.284      192.285      125.698        0.427      334.026        3.728      866.715
01/19/2021  19:06:00      152.108     -158.840      -43.959      137.883       70.182       68.535    19011.644     4925.538     4697.053        3.946        1.432      219.925       90.531        0.169      333.994        3.672      866.679
01/19/2021  19:07:00      182.228     -200.893      -53.629      230.740       62.944      113.980    53241.136     3961.973    12991.343        7.330        3.510      271.229      158.407        0.341      334.063        3.785      866.651
01/19/2021  19:08:00      139.845     -173.089      -47.267      268.312       57.021      131.107    71991.489     3251.430    17189.110        7.207        4.622      222.522      184.623        0.688      334.103        3.855      866.640
01/19/2021  19:09:00      124.739     -173.566      -55.321      297.395       72.387      137.810    88444.040     5239.939    18991.649        8.069        5.634      213.740      199.759        0.873      334.113        3.872      866.633
01/19/2021  19:10:00      164.240     -188.006      -49.481      173.868       85.004       83.251    30229.998     7225.638     6930.767        5.457        2.219      249.642      115.903        0.216      334.049        3.763      866.634
01/19/2021  19:11:00      161.194     -177.848      -44.914      160.325       74.722       83.047    25703.967     5583.452     6896.880        4.890        1.909      240.027      107.161        0.199      334.006        3.691      866.638
01/19/2021  19:12:00      126.812     -131.711      -31.273      278.651       72.796      131.891    77646.503     5299.309    17395.283        6.735        5.017      182.836      187.322        1.050      334.055        3.777      866.675
01/19/2021  19:13:00      109.048      -98.298      -43.795      371.601       72.239      177.710   138087.015     5218.458    31580.974        9.914        8.744      146.813      255.228        3.022      334.183        3.992      866.725
01/19/2021  19:14:00      120.565     -113.487      -39.394      413.279       71.757      197.002   170799.593     5149.094    38809.779       12.182       10.738      165.576      282.245        2.906      334.272        4.140      866.770
01/19/2021  19:15:00       21.287      -97.506      -31.520      245.615       68.521      118.006    60326.807     4695.156    13925.365        4.493        3.947       99.803      165.529        2.751      334.110        3.869      866.827
01/19/2021  19:16:00       79.201      -95.614      -31.086      267.302       58.769      126.640    71450.096     3453.762    16037.637        5.364        4.547      124.156      179.755        2.096      334.102        3.854      866.870
01/19/2021  19:17:00       20.445       -4.261      -18.946      312.361       28.581      153.018    97569.466      816.873    23414.496        6.127        6.090       20.884      216.903      107.871      334.047        3.766      866.894
01/19/2021  19:18:00      -49.622      -56.621      -20.435      234.506       48.273      111.456    54992.888     2330.296    12422.452        3.790        3.487       75.288      155.273        4.253      334.076        3.811      866.913
01/19/2021  19:19:00      -49.095      -59.956       -3.037       77.729       77.072       44.059     6041.864     5940.114     1941.186        0.997        0.696       77.493       34.093        0.194      333.969        3.633      866.920
01/19/2021  19:20:00      -20.305      -55.205      -27.780      270.921       58.450      127.769    73398.452     3416.456    16324.864        4.867        4.657       58.821      180.234        9.389      334.179        3.983      866.937
01/19/2021  19:21:00        5.393      -58.367      -37.730      339.282       41.742      163.862   115112.247     1742.395    26850.646        7.425        7.185       58.616      233.100       15.814      334.292        4.172      866.977
01/19/2021  19:22:00       21.590      -73.620      -26.248      280.710       40.365      137.519    78797.949     1629.362    18911.586        5.294        4.967       76.721      193.940        6.390      334.152        3.940      866.999
01/19/2021  19:23:00       32.040      -56.204      -20.751      226.980       54.213      109.336    51520.026     2939.095    11954.252        3.550        3.321       64.696      151.344        5.472      334.101        3.853      867.019
01/19/2021  19:24:00       59.213      -52.346      -25.445      360.268       91.027      165.709   129793.036     8285.905    27459.498        8.618        8.277       79.034      235.362        8.868      334.203        4.024      867.002
01/19/2021  19:25:00      126.605     -118.491      -37.540      347.981       60.451      168.159   121090.463     3654.355    28277.509        9.222        7.651      173.404      236.252        1.856      334.104        3.860      866.979
01/19/2021  19:26:00       34.418      -43.338       -8.323      274.754       48.476      133.669    75489.864     2349.969    17867.340        4.940        4.785       55.342      188.319       11.579      334.062        3.790      866.955
01/19/2021  19:27:00      107.020      -71.767      -41.098      242.584       76.298      116.461    58847.008     5821.406    13563.069        4.825        3.912      128.856      164.594        1.632      334.010        3.701      866.903
01/19/2021  19:28:00      156.214     -118.932      -46.909      298.605       71.311      144.406    89164.981     5085.230    20852.990        7.790        5.755      196.335      205.230        1.093      334.046        3.762      866.848
01/19/2021  19:29:00      159.292     -110.880      -52.692      190.933      104.804       99.052    36455.340    10983.891     9811.329        4.884        2.863      194.083      128.616        0.439      333.985        3.658      866.799
01/19/2021  19:30:00      171.517     -143.016      -54.997      321.443       83.571      151.899   103325.616     6984.166    23073.286        9.311        6.669      223.320      215.624        0.932      334.066        3.795      866.773
01/19/2021  19:31:00      188.960     -211.323      -54.244      277.309      112.040      133.047    76900.380    12552.867    17701.442        9.521        5.358      283.484      188.733        0.443      334.073        3.806      866.764
01/19/2021  19:32:00      171.849     -271.289      -49.004      181.858       99.838       89.792    33072.501     9967.662     8062.530        7.831        2.555      321.139      120.960        0.142      333.989        3.664      866.752
01/19/2021  19:33:00      198.492     -230.457      -59.804      228.064      117.140      120.366    52013.404    13721.796    14487.922        8.814        4.011      304.154      157.323        0.268      333.980        3.648      866.731
01/19/2021  19:34:00      183.434     -199.758      -48.763      233.353       82.198      113.068    54453.431     6756.449    12784.299        7.495        3.700      271.203      155.028        0.327      333.951        3.601      866.751
01/19/2021  19:35:00      165.259      -99.033      -36.006      323.758       59.307      153.383   104819.108     3517.296    23526.347        8.511        6.593      192.661      220.365        1.308      333.972        3.639      866.791
01/19/2021  19:36:00      124.695     -112.225      -31.066      241.035       54.382      119.182    58097.780     2957.378    14204.391        5.217        3.763      167.760      164.033        0.956      333.928        3.566      866.844
01/19/2021  19:37:00       69.789       20.563      -15.465      279.066       59.513      136.039    77877.908     3541.828    18506.621        5.271        4.996       72.755      191.869        6.955      333.899        3.518      866.892
01/19/2021  19:38:00       69.140     -113.619      -38.140      249.301       40.374      117.126    62150.761     1630.085    13718.394        4.831        3.875      133.002      167.898        1.594      333.980        3.651      866.927
01/19/2021  19:39:00       95.063     -107.768      -27.931      214.838       46.551      105.178    46155.572     2167.010    11062.386        4.040        2.969      143.704      147.781        1.058      333.971        3.639      866.970
01/19/2021  19:40:00       84.800      -84.677      -21.789      231.833       66.833      110.889    53746.713     4466.619    12296.293        4.266        3.525      119.838      157.411        1.725      333.955        3.610      867.006
01/19/2021  19:41:00      138.148      -89.813      -34.546      376.813       43.170      179.220   141988.144     1863.659    32119.736       10.212        8.799      164.777      257.956        2.451      334.093        3.843      867.045
01/19/2021  19:42:00       56.115      -69.894      -22.636       28.546       26.979       20.011      814.886      727.883      400.433        0.524        0.097       89.633       14.358        0.026      333.876        3.478      867.075
01/19/2021  19:43:00       59.492        7.229      -17.020      232.213       48.425      111.154    53922.757     2344.989    12355.284        3.624        3.431       59.930      159.519        7.085      333.750        3.272      867.090
01/19/2021  19:44:00       33.857       25.835       -4.390      186.272       23.689       89.630    34697.142      561.160     8033.516        2.255        2.165       42.588      128.245        9.068      333.550        2.939      867.077
01/19/2021  19:45:00       23.207       -3.401       -9.012      208.331       18.815      100.122    43401.854      354.004    10024.357        2.719        2.689       23.455      143.659       37.514      333.569        2.972      867.067
01/19/2021  19:46:00       66.936       22.833      -18.388      257.541       34.620      122.612    66327.427     1198.558    15033.770        4.393        4.128       70.723      176.141        6.203      333.554        2.947      867.054
01/19/2021  19:47:00       61.362       44.903      -13.738      277.219       20.100      133.875    76850.587      404.025    17922.625        5.055        4.759       76.037      191.538        6.345      333.438        2.757      867.045
01/19/2021  19:48:00      122.363       53.005      -32.852      430.032       27.886      204.270   184927.681      777.605    41726.090       12.310       11.372      133.350      295.770        4.919      333.731        3.244      867.030
01/19/2021  19:49:00       96.890       24.775      -33.206      325.367       47.117      151.068   105863.392     2220.005    22821.529        7.098        6.545      100.008      220.014        4.840      333.658        3.122      867.024
01/19/2021  19:50:00       76.906       51.004      -11.284       49.486       31.929       16.028     2448.854     1019.452      256.896        0.618        0.186       92.282       11.539        0.016      333.432        2.743      867.009
01/19/2021  19:51:00      113.969        9.588      -29.200      305.302       45.417      148.536    93209.386     2062.667    22063.035        6.561        5.867      114.372      211.071        3.406      333.772        3.308      866.990
01/19/2021  19:52:00       80.830       -3.510      -12.954      299.375       23.787      145.780    89625.548      565.840    21251.807        5.905        5.572       80.906      208.119        6.617      333.567        2.968      867.000
01/19/2021  19:53:00      110.744        3.319      -10.045      267.510       24.369      126.645    71561.342      593.832    16038.979        5.027        4.410      110.794      182.839        2.723      333.507        2.869      867.026
01/19/2021  19:54:00      107.574        5.693      -23.551      329.554       22.259      154.673   108605.676      495.458    23923.683        7.256        6.651      107.725      224.769        4.354      333.653        3.113      867.054
01/19/2021  19:55:00      152.749        2.728      -33.612      399.203       31.014      189.373   159362.762      961.896    35862.133       11.029        9.809      152.774      274.291        3.223      333.705        3.199      867.066
01/19/2021  19:56:00      108.774      -35.976      -22.694      291.477       27.576      139.005    84958.603      760.423    19322.363        5.932        5.252      114.569      200.090        3.050      333.765        3.297      867.076
01/19/2021  19:57:00       98.023      -77.909      -43.231      246.133       51.721      118.041    60581.487     2675.106    13933.765        4.735        3.860      125.213      168.429        1.809      333.974        3.643      867.084
01/19/2021  19:58:00       50.326       37.138       -5.880      253.324       28.742      119.828    64173.088      826.102    14358.831        4.164        3.968       62.546      173.265        7.674      333.623        3.063      867.091
01/19/2021  19:59:00       57.086      -20.973      -32.587      399.789       24.834      191.351   159831.629      616.730    36615.207       10.087        9.853       60.817      276.049       20.603      333.799        3.357      867.090
01/19/2021  20:00:00       82.540      -34.934      -43.231      468.722       25.436      221.720   219699.923      647.005    49159.837       13.965       13.475       89.628      321.899       12.899      333.804        3.366      867.084
01/19/2021  20:01:00       95.363      -76.566      -29.109      285.852       48.497      135.721    81711.295     2351.951    18420.282        5.912        5.124      122.296      194.538        2.530      333.935        3.579      867.083
01/19/2021  20:02:00       55.410      -58.291      -24.672      212.068       45.011      100.976    44972.993     2025.957    10196.151        3.212        2.860       80.425      144.991        3.250      333.724        3.227      867.092
01/19/2021  20:03:00       25.256      -29.034      -19.728      312.082       18.880      150.068    97395.457      356.442    22520.461        6.105        6.014       38.481      215.917       31.483      333.680        3.157      867.101
01/19/2021  20:04:00       29.000      -24.980      -19.443      319.222       26.917      153.773   101902.725      724.530    23646.079        6.403        6.314       38.275      220.196       33.096      333.575        2.983      867.105
01/19/2021  20:05:00       67.543       -6.913      -21.676      404.130       25.696      193.848   163321.356      660.275    37576.992       10.328       10.078       67.896      279.061       16.893      333.690        3.177      867.128
01/19/2021  20:06:00       47.156       17.477       -8.673      298.012       25.308      140.662    88810.960      640.502    19785.920        5.590        5.462       50.291      203.945       16.445      333.509        2.872      867.155
01/19/2021  20:07:00        4.931       39.303      -16.087      298.610       25.292      142.681    89167.668      639.684    20357.785        5.597        5.508       39.611      205.480       26.910      333.391        2.676      867.179
01/19/2021  20:08:00      -37.730       10.069      -16.258      179.932       36.249       86.789    32375.695     1313.975     7532.288        2.150        2.061       39.050      121.266        9.643      332.859        1.796      867.207
01/19/2021  20:09:00      -71.601       -3.009      -12.249       73.051       49.663       34.130     5336.502     2466.456     1164.843        0.712        0.448       71.664       28.252        0.155      332.540        1.269      867.232
01/19/2021  20:10:00     -155.200       40.192       -7.093      249.022       51.602      120.905    62011.713     2662.750    14617.916        5.251        3.965      160.320      162.315        1.025      332.368        0.985      867.240
01/19/2021  20:11:00      -22.240       28.535      -28.950      344.250       40.546      159.477   118507.972     1644.002    25432.885        7.384        7.279       36.178      229.970       40.406      332.467        1.151      867.241
01/19/2021  20:12:00       22.314        7.154      -35.142      373.492       46.381      183.122   139495.994     2151.208    33533.555        8.845        8.759       23.433      256.335      119.667      332.619        1.404      867.250
01/19/2021  20:13:00       48.937       43.238      -23.313      392.364       38.773      189.487   153949.295     1503.324    35905.180        9.804        9.568       65.302      270.309       17.134      332.564        1.314      867.274
01/19/2021  20:14:00       -5.750       27.911      -22.156      334.792       41.117      157.480   112085.938     1690.607    24799.829        6.991        6.929       28.498      225.201       62.449      332.538        1.269      867.280
01/19/2021  20:15:00       29.382       33.013      -23.099      403.862       44.056      195.751   163104.856     1940.891    38318.270       10.288       10.168       44.194      277.950       39.555      332.632        1.426      867.285
01/19/2021  20:16:00       80.755       23.587      -18.797      406.333       36.730      190.058   165106.335     1349.084    36121.961       10.496       10.129       84.130      275.809       10.748      332.900        1.869      867.282
01/19/2021  20:17:00       53.175       30.614       -5.807      274.624       35.994      132.248    75418.114     1295.578    17489.585        4.898        4.710       61.358      187.968        9.385      332.958        1.963      867.272
01/19/2021  20:18:00       87.338       50.569       -3.925      273.995       45.328      132.363    75073.285     2054.614    17519.930        5.240        4.732      100.921      187.063        3.436      333.318        2.557      867.268
01/19/2021  20:19:00       70.994       25.689      -16.199      368.449       37.848      174.919   135754.912     1432.444    30596.734        8.684        8.389       75.499      251.670       11.112      333.250        2.447      867.270
01/19/2021  20:20:00       26.606       14.634      -29.611      365.689       39.486      166.236   133728.084     1559.135    27634.461        8.233        8.146       30.365      243.933       64.535      332.853        1.792      867.248
01/19/2021  20:21:00      -27.364       24.161      -19.403      302.271       46.806      146.697    91367.808     2190.804    21520.083        5.837        5.754       36.504      207.029       32.166      332.536        1.266      867.197
01/19/2021  20:22:00      -65.420       -6.844      -16.352      257.685       45.689      117.857    66401.385     2087.486    13890.328        4.347        4.119       65.777      170.297        6.703      332.360        0.974      867.220
01/19/2021  20:23:00      -28.822      -16.919      -34.990      350.695       48.121      164.596   122986.766     2315.670    27091.966        7.733        7.620       33.421      236.243       49.966      332.373        0.998      867.274
01/19/2021  20:24:00       11.177       48.749       -9.053      312.499       46.876      149.188    97655.735     2197.357    22257.189        6.232        6.106       50.013      212.920       18.124      332.459        1.139      867.322
01/19/2021  20:25:00      -32.418       24.639      -13.051      247.116       59.409      121.897    61066.409     3529.483    14858.842        4.062        3.973       40.718      165.854       16.591      332.328        0.921      867.353
01/19/2021  20:26:00       -1.020       22.900      -24.356      386.003       55.315      180.145   148998.697     3059.741    32452.338        9.278        9.226       22.923      257.960      126.640      332.413        1.064      867.380
01/19/2021  20:27:00      -79.233       57.645      -37.176      479.468       66.014      224.640   229889.424     4357.908    50463.272       14.779       14.236       97.983      320.752       10.716      332.448        1.122      867.391
01/19/2021  20:28:00      -58.355       41.308       -9.587      447.402       69.546      210.477   200168.960     4836.645    44300.611       12.720       12.465       71.496      296.669       17.218      332.379        1.008      867.381
01/19/2021  20:29:00     -129.420       43.768      -12.898      321.297       61.945      156.222   103231.566     3837.200    24405.466        7.512        6.574      136.620      214.784        2.472      332.120        0.578      867.374
01/19/2021  20:30:00     -108.286       53.226      -26.216      205.870       65.242      101.309    42382.322     4256.506    10263.561        3.606        2.845      120.661      134.794        1.248      332.110        0.561      867.358
01/19/2021  20:31:00       23.654       16.654      -33.886      414.155       55.209      195.622   171524.344     3048.021    38267.828       10.737       10.642       28.929      280.386       93.940      332.200        0.714      867.362
01/19/2021  20:32:00       19.289       25.337        2.990      253.512       64.322      123.707    64268.439     4137.306    15303.368        4.235        4.185       31.844      170.126       28.542      332.173        0.666      867.358
01/19/2021  20:33:00       98.944       -7.693      -53.203      508.635       51.124      242.992   258709.620     2613.697    59044.873       16.646       16.018       99.243      348.984       12.365      332.393        1.036      867.351
01/19/2021  20:34:00       60.213       57.053      -18.486      387.803       46.229      182.980   150390.779     2137.120    33481.668        9.658        9.300       82.950      264.016       10.130      332.822        1.740      867.335
01/19/2021  20:35:00       69.088       96.803      -33.513      435.729       40.934      206.336   189859.358     1675.621    42574.514       12.464       11.705      118.929      298.638        6.305      333.556        2.955      867.298
01/19/2021  20:36:00       98.450       90.586       -4.603      349.780       55.831      164.726   122345.946     3117.127    27134.687        8.523        7.630      133.784      236.653        3.129      333.943        3.594      867.270
01/19/2021  20:37:00      140.451      -50.488      -53.457      486.746       49.502      230.977   236921.949     2450.430    53350.283       15.887       14.636      149.250      332.391        4.960      333.054        2.126      867.262
01/19/2021  20:38:00       72.837        7.667       -7.617      289.565       48.711      141.316    83848.054     2372.746    19970.176        5.578        5.310       73.239      198.362        7.336      332.632        1.425      867.260
01/19/2021  20:39:00      104.677       12.299      -20.583      410.077       46.100      196.696   168162.818     2125.194    38689.131       11.021       10.449      105.397      281.333        7.125      332.899        1.866      867.265
01/19/2021  20:40:00      142.975       22.881      -37.631      579.790       44.135      271.717   336156.097     1947.874    73830.150       21.707       20.597      144.794      394.707        7.431      333.457        2.797      867.276
01/19/2021  20:41:00       70.602       12.943      -10.166      321.433       44.831      155.864   103319.266     2009.829    24293.631        6.741        6.481       71.778      220.614        9.447      332.830        1.752      867.300
01/19/2021  20:42:00      111.723       45.463      -27.425      456.597       50.318      222.111   208480.821     2531.913    49333.239       13.777       13.017      120.619      315.932        6.861      333.161        2.301      867.326
01/19/2021  20:43:00      132.141       73.274      -32.612      433.931       40.436      201.399   188295.766     1635.076    40561.542       12.714       11.525      151.097      293.751        3.780      333.639        3.092      867.370
01/19/2021  20:44:00       84.719       82.275      -19.166      346.421       41.610      164.672   120007.490     1731.389    27116.712        8.155        7.443      118.095      236.300        4.004      333.547        2.936      867.381
01/19/2021  20:45:00      101.030       42.665      -50.875      546.494       38.301      260.028   298655.697     1466.991    67614.387       19.110       18.387      109.669      375.699       11.736      333.278        2.499      867.381
01/19/2021  20:46:00       54.617       17.392      -29.461      446.417       41.723      211.598   199287.935     1740.839    44773.661       12.493       12.290       57.319      304.950       28.304      332.914        1.893      867.367
01/19/2021  20:47:00       15.505        1.877      -20.415      354.674       44.607      170.980   125793.562     1989.819    29234.044        7.881        7.851       15.618      242.965      242.016      332.629        1.420      867.377
01/19/2021  20:48:00       33.317        8.930      -10.806      309.197       44.084      138.365    95603.084     1943.392    19144.910        5.897        5.835       34.493      203.480       34.800      332.592        1.359      867.387
01/19/2021  20:49:00       23.600       31.753       -1.500      308.685       53.553      149.773    95286.148     2867.919    22432.025        6.105        6.029       39.563      210.629       28.344      332.868        1.814      867.376
01/19/2021  20:50:00       66.256       14.531      -11.913      410.822       43.259      199.533   168774.500     1871.380    39813.324       10.756       10.523       67.831      283.740       17.498      332.896        1.864      867.369
01/19/2021  20:51:00       90.647       32.981      -13.488      425.321       54.188      199.673   180898.014     2936.343    39869.184       11.655       11.185       96.460      288.175        8.925      333.259        2.462      867.352
01/19/2021  20:52:00       67.567       19.364       -9.381      327.093       52.688      152.157   106989.789     2776.040    23151.719        6.894        6.646       70.287      219.786        9.778      333.055        2.125      867.315
01/19/2021  20:53:00       94.928       15.524      -10.262      371.582       47.846      177.873   138073.387     2289.209    31638.899        9.064        8.600       96.189      254.213        6.985      333.135        2.258      867.274
01/19/2021  20:54:00       76.682       21.097        3.237      242.769       46.269      119.591    58936.647     2140.793    14302.118        4.084        3.769       79.531      165.877        4.350      333.100        2.196      867.242
01/19/2021  20:55:00      164.003       17.318      -42.874      567.515       43.468      269.939   322072.844     1889.479    72866.814       21.285       19.841      164.915      389.376        5.575      333.409        2.717      867.217
01/19/2021  20:56:00       64.897       18.950       -7.149      347.064       50.303      168.891   120453.703     2530.384    28524.124        7.803        7.575       67.607      238.391       12.434      333.029        2.080      867.218
01/19/2021  20:57:00       85.929       21.518       -4.297      320.476       53.551      154.355   102705.163     2867.751    23825.361        6.860        6.470       88.582      217.857        6.049      333.022        2.071      867.229
01/19/2021  20:58:00       70.450        7.360       -8.471      333.709       42.651      157.784   111361.557     1819.111    24895.838        7.155        6.904       70.834      226.590       10.233      332.993        2.022      867.256
01/19/2021  20:59:00       63.072       52.199        1.870      293.041       52.746      143.447    85872.888     2782.157    20577.083        5.795        5.462       81.871      200.585        6.003      333.107        2.209      867.279
01/19/2021  21:00:00       80.960       30.233      -27.371      468.702       47.377      222.878   219681.875     2244.560    49674.754       13.985       13.580       86.420      320.092       13.719      333.311        2.552      867.299
01/19/2021  21:01:00       36.567       28.294      -27.506      405.861       55.861      195.773   164722.748     3120.500    38326.993       10.449       10.309       46.235      278.173       36.199      332.791        1.687      867.331
01/19/2021  21:02:00       74.571       49.573      -52.992      624.776       54.760      293.169   390345.596     2998.652    85947.818       24.496       23.965       89.545      425.626       22.593      332.615        1.407      867.360
01/19/2021  21:03:00      -17.297       42.072      -30.785      377.898       48.772      183.539   142807.179     2378.687    33686.498        9.091        8.944       45.489      260.191       32.717      332.188        0.692      867.392
01/19/2021  21:04:00      -52.467       50.798      -17.106      276.673       47.391      131.108    76547.960     2245.866    17189.414        5.078        4.799       73.028      186.551        6.525      332.005        0.389      867.416
01/19/2021  21:05:00      -75.265       54.738      -17.059      215.199       55.147      107.461    46310.448     3041.189    11547.828        3.491        3.045       93.065      143.324        2.372      331.934        0.272      867.416
01/19/2021  21:06:00      -10.234       33.516      -23.091      428.336       69.377      213.459   183471.429     4813.191    45564.707       11.776       11.692       35.044      295.556       71.132      332.117        0.576      867.403
01/19/2021  21:07:00      -70.959       56.786        8.216      278.817       62.751      133.315    77739.183     3937.676    17772.833        5.387        4.972       90.884      178.547        3.860      331.903        0.221      867.407
01/19/2021  21:08:00      108.601       29.317      -50.398      605.952       60.998      288.492   367177.297     3720.764    83227.540       23.456       22.706      112.489      414.181       13.557      332.298        0.882      867.407
01/19/2021  21:09:00       50.841       41.533      -12.110      433.337       60.538      211.533   187780.753     3664.877    44746.303       12.028       11.810       65.649      297.600       20.550      332.098        0.546      867.407
01/19/2021  21:10:00       17.829       47.565       12.029      217.038       65.237      110.241    47105.673     4255.819    12153.151        3.311        3.176       50.796      144.489        8.091      332.057        0.475      867.406
01/19/2021  21:11:00       42.324       49.974        5.789      304.897       56.508      151.757    92962.287     3193.159    23030.100        6.173        5.959       65.489      209.676       10.251      332.042        0.452      867.389
01/19/2021  21:12:00       13.294       57.995       -5.830      273.968       58.177      132.134    75058.510     3384.580    17459.432        4.972        4.795       59.499      183.504        9.512      332.305        0.883      867.377
01/19/2021  21:13:00        1.456       59.993        6.278      216.318       64.850      102.811    46793.324     4205.458    10570.068        3.259        3.078       60.011      138.714        5.343      332.151        0.628      867.372
01/19/2021  21:14:00       69.803       37.760       -3.599      395.574       53.100      194.800   156478.814     2819.618    37947.154       10.174        9.862       79.361      273.725       11.896      332.241        0.781      867.391
01/19/2021  21:15:00       44.748       43.834       -4.530      352.409       61.124      171.406   124191.789     3736.169    29379.939        8.059        7.865       62.640      241.056       14.809      332.117        0.575      867.400
01/19/2021  21:16:00      -34.365       28.480       11.987       41.786       57.260       35.560     1746.040     3278.749     1264.533        0.421        0.314       44.633       46.658        1.093      331.807        0.062      867.393
01/19/2021  21:17:00       11.056       60.047       -6.639      352.713       63.891      167.091   124406.406     4082.024    27919.424        8.006        7.820       61.057      237.369       15.114      332.080        0.514      867.395
01/19/2021  21:18:00       -7.349       45.597       -7.221      321.749       64.294      158.895   103522.478     4133.768    25247.640        6.752        6.645       46.185      219.955       22.681      332.017        0.410      867.402
01/19/2021  21:19:00      -43.369       39.353       17.632       56.228       66.533       39.014     3161.579     4426.579     1522.108        0.642        0.456       58.562       48.125        0.675      331.730       -0.065      867.388
01/19/2021  21:20:00      -30.850       41.047       -3.217      177.650       57.753       90.289    31559.545     3335.402     8152.049        2.284        2.152       51.347      113.872        4.918      331.759       -0.017      867.396
01/19/2021  21:21:00       33.761       46.916       -3.595      348.941       72.683      174.566   121759.606     5282.808    30473.267        8.040        7.876       57.801      238.994       17.097      331.832        0.105      867.423
01/19/2021  21:22:00      -54.707       63.235       -4.419      187.878       63.181       93.630    35297.978     3991.894     8766.612        2.752        2.403       83.615      118.998        2.025      331.786        0.027      867.446
01/19/2021  21:23:00        4.891       88.269      -36.291      521.194       67.986      247.288   271643.094     4622.087    61151.412       17.320       16.871       88.404      354.631       16.092      332.071        0.505      867.477
01/19/2021  21:24:00       -5.760       68.938      -32.620      436.560       69.690      208.008   190584.999     4856.629    43267.337       12.223       11.935       69.178      293.359       17.983      331.869        0.168      867.517
01/19/2021  21:25:00     -101.706       26.994      -17.959      375.302       64.150      174.949   140851.863     4115.260    30607.299        9.345        8.779      105.228      248.768        5.589      331.775        0.012      867.548
01/19/2021  21:26:00     -127.971       72.492      -12.980      370.151       64.512      184.728   137011.894     4161.847    34124.606        9.851        8.765      147.078      253.462        2.970      331.714       -0.089      867.564
01/19/2021  21:27:00      -59.377       96.074      -28.810      483.982       74.529      234.751   234238.123     5554.597    55107.812       15.418       14.745      112.942      330.944        8.586      331.878        0.182      867.574
01/19/2021  21:28:00     -158.217       90.481        0.499      253.193       60.825      122.994    64106.516     3699.650    15127.591        5.806        4.147      182.262      165.285        0.822      331.675       -0.157      867.588
01/19/2021  21:29:00      -83.181       41.954       -0.547      277.465       70.429      133.193    76986.968     4960.233    17740.360        5.416        4.984       93.162      177.692        3.638      331.721       -0.079      867.575
01/19/2021  21:30:00      -49.258       50.478       -5.011      353.064       62.779      178.427   124653.913     3941.151    31836.150        8.268        8.022       70.530      239.171       11.499      331.767       -0.003      867.560
01/19/2021  21:31:00      -13.345       24.570       -4.571      322.863       61.123      157.695   104240.365     3736.054    24867.671        6.680        6.642       27.960      218.443       61.039      331.851        0.136      867.540
01/19/2021  21:32:00       33.059       20.753        5.577      348.773       66.550      170.395   121642.690     4428.856    29034.495        7.830        7.755       39.033      235.291       36.336      331.812        0.074      867.527
01/19/2021  21:33:00      -20.026       54.778       14.707      270.191       72.928      132.601    73003.005     5318.529    17583.084        4.974        4.795       58.324      177.435        9.255      331.823        0.089      867.515
01/19/2021  21:34:00      -22.789       57.534      -19.513      458.798       63.922      215.879   210495.260     4085.977    46603.641       13.264       13.059       61.883      309.836       25.068      331.837        0.116      867.488
01/19/2021  21:35:00      -69.146       70.496        5.987      216.132       61.184      107.844    46712.972     3743.511    11630.287        3.592        3.104       98.746      144.857        2.152      331.662       -0.175      867.457
01/19/2021  21:36:00        9.398       51.793      -25.911      470.709       61.686      232.791   221566.835     3805.188    54191.615       14.145       13.978       52.638      326.512       38.476      331.920        0.254      867.447
01/19/2021  21:37:00       37.137       40.813      -16.064      413.423       57.453      204.819   170918.588     3300.900    41950.754       10.969       10.809       55.180      285.800       26.826      331.917        0.247      867.465
01/19/2021  21:38:00       47.985       60.380      -13.381      427.713       62.692      197.479   182938.684     3930.347    38997.951       11.595       11.293       77.126      285.379       13.691      331.964        0.325      867.493
01/19/2021  21:39:00      -10.503       63.878       -2.241      348.636       68.738      170.500   121546.793     4724.979    29070.383        7.974        7.767       64.736      238.014       13.518      332.078        0.511      867.521
01/19/2021  21:40:00       31.683       56.890      -23.456      461.180       62.303      218.329   212686.743     3881.617    47667.742       13.446       13.212       65.118      312.993       23.103      332.385        1.020      867.541
01/19/2021  21:41:00       36.738       60.140      -32.891      492.342       58.746      239.984   242400.685     3451.076    57592.089       15.468       15.172       70.473      339.459       23.202      332.582        1.345      867.576
01/19/2021  21:42:00      -27.798       44.670      -13.200      229.066       58.293      113.620    52471.409     3398.105    12909.466        3.585        3.439       52.613      152.908        8.446      332.194        0.700      867.597
01/19/2021  21:43:00       40.482       35.643      -22.438      441.459       63.317      215.933   194886.381     4009.040    46626.895       12.442       12.276       53.937      303.867       31.739      332.298        0.875      867.616
01/19/2021  21:44:00       33.555       31.840      -16.172      390.679       58.408      185.978   152629.734     3411.473    34587.861        9.648        9.531       46.257      264.304       32.648      332.016        0.410      867.627
01/19/2021  21:45:00      -26.334       51.986       11.705      179.365       72.228       91.733    32171.839     5216.909     8414.933        2.466        2.290       58.276      115.948        3.959      331.929        0.262      867.636
01/19/2021  21:46:00       50.003       42.225       -1.413      355.985       58.636      174.246   126725.653     3438.192    30361.711        8.237        8.026       65.447      243.228       13.812      331.997        0.377      867.636
01/19/2021  21:47:00      -64.143       63.406        1.088      242.597       64.296      115.352    58853.127     4134.015    13306.108        4.220        3.815       90.192      158.315        3.081      331.774        0.008      867.629
01/19/2021  21:48:00      -63.385       62.649        5.926      248.747       68.345      119.687    61875.093     4671.040    14324.915        4.441        4.044       89.122      159.682        3.210      331.719       -0.081      867.634
01/19/2021  21:49:00       77.572       34.688      -30.288      519.872       55.807      244.797   270266.853     3114.442    59925.437       17.065       16.665       84.974      352.502       17.209      332.051        0.473      867.626
01/19/2021  21:50:00       79.009       38.736       -4.951      411.590       56.905      199.526   169406.137     3238.221    39810.701       11.007       10.623       87.994      282.674       10.320      331.931        0.271      867.618
01/19/2021  21:51:00       57.350       41.384      -12.433      348.188       52.164      167.855   121234.965     2721.123    28175.388        7.861        7.607       70.722      237.897       11.315      332.221        0.745      867.597
01/19/2021  21:52:00       45.234       46.221        3.474      267.692       52.348      130.961    71658.958     2740.323    17150.672        4.785        4.577       64.672      182.447        7.959      332.247        0.787      867.565
01/19/2021  21:53:00        6.323       29.054        4.326      264.343       55.177      126.068    69877.377     3044.458    15893.101        4.484        4.441       29.734      175.481       34.829      331.864        0.158      867.522
01/19/2021  21:54:00       93.377       42.332      -18.314      498.721       61.675      243.450   248723.071     3803.765    59268.012       16.126       15.590      102.524      344.581       11.296      332.006        0.395      867.493
01/19/2021  21:55:00      -12.634       48.560       -9.475      319.875       57.086      156.374   102320.132     3258.867    24452.921        6.629        6.502       50.176      218.839       19.022      331.942        0.288      867.472
01/19/2021  21:56:00      -15.508       54.436      -13.422      362.495       59.949      177.424   131402.662     3593.824    31479.272        8.490        8.324       56.602      248.254       19.237      331.903        0.223      867.467
01/19/2021  21:57:00      -29.064       37.963       -5.594      313.965       66.293      150.974    98573.803     4394.717    22793.147        6.401        6.288       47.811      210.639       19.410      331.855        0.144      867.485
01/19/2021  21:58:00      -16.494       30.866      -26.638      413.986       62.805      202.866   171384.173     3944.497    41154.485       10.916       10.824       34.997      284.623       66.143      331.958        0.314      867.522
01/19/2021  21:59:00      -23.382       18.148      -14.808      389.562       60.867      185.695   151758.552     3704.836    34482.514        9.548        9.497       29.598      260.045       77.190      331.780        0.021      867.558
01/19/2021  22:00:00      -78.987       40.922       18.958      275.540       62.501      128.175    75922.086     3906.367    16428.894        5.224        4.813       88.958      174.637        3.854      331.655       -0.187      867.592
01/19/2021  22:01:00       -0.429       10.378        8.177      313.299       69.632      144.703    98156.232     4848.629    20939.071        6.203        6.197       10.387      200.206      371.514      331.776        0.012      867.636
01/19/2021  22:02:00      -36.656       37.723      -22.471      429.018       65.685      205.692   184056.394     4314.544    42309.234       11.693       11.534       52.600      290.326       30.466      331.798        0.053      867.670
01/19/2021  22:03:00      -84.854       71.416       -2.119      332.382       65.951      160.947   110477.728     4349.480    25904.041        7.649        7.037      110.907      224.367        4.093      331.644       -0.204      867.696
01/19/2021  22:04:00      -29.865       67.703      -22.403      436.334       62.676      207.128   190387.538     3928.235    42901.987       12.155       11.861       73.997      293.989       15.784      331.795        0.047      867.712
01/19/2021  22:05:00      -15.171       84.364      -17.407      452.826       65.085      208.502   205051.504     4236.036    43473.043       13.015       12.638       85.717      302.037       12.416      331.728       -0.063      867.713
01/19/2021  22:06:00      -36.970       49.027       17.844       53.747       60.667       38.554     2888.711     3680.527     1486.448        0.607        0.403       61.404       46.444        0.572      331.536       -0.385      867.703
01/19/2021  22:07:00      146.863       24.536      -36.471      582.050       58.815      285.520   338782.294     3459.188    81521.718       22.355       21.188      148.899      404.648        7.385      332.159        0.651      867.685
01/19/2021  22:08:00       48.247       31.679        9.607      241.604       56.345      120.952    58372.641     3174.717    14629.503        3.978        3.809       57.718      164.148        8.088      331.922        0.253      867.658
01/19/2021  22:09:00      143.998       31.405      -38.580      567.425       60.699      278.313   321971.165     3684.426    77458.376       21.308       20.156      147.383      394.106        7.150      332.409        1.063      867.624
01/19/2021  22:10:00       93.262       34.550      -16.494      399.071       55.937      189.676   159257.381     3128.962    35977.072       10.422        9.918       99.455      271.266        7.439      332.173        0.669      867.614
01/19/2021  22:11:00       70.588       67.428       15.492      274.303       56.712      135.862    75242.243     3216.257    18458.603        5.332        4.846       97.618      187.442        3.687      332.248        0.790      867.599
01/19/2021  22:12:00      146.023       94.402      -25.186      482.829       55.270      226.064   233123.732     3054.732    51105.135       15.902       14.364      173.880      327.449        3.546      332.808        1.719      867.610
01/19/2021  22:13:00      111.287      110.649       -8.933      297.065       53.456      143.234    88247.518     2857.503    20515.921        6.814        5.581      156.933      201.373        1.647      332.769        1.650      867.622
01/19/2021  22:14:00      114.376       97.794        2.343      365.484       63.650      177.467   133578.766     4051.368    31494.493        9.585        8.456      150.484      249.887        2.757      332.825        1.742      867.648
01/19/2021  22:15:00       92.338       73.446        3.720      351.449       64.472      168.797   123516.190     4156.662    28492.485        8.502        7.808      117.986      238.233        4.077      332.725        1.579      867.674
01/19/2021  22:16:00       52.478       99.083       15.796      254.877       56.659      125.382    64962.491     3210.247    15720.742        4.834        4.195      112.122      173.503        2.395      332.709        1.551      867.701
01/19/2021  22:17:00       13.483       65.831       -7.127      315.365       53.983      151.950    99455.367     2914.133    23088.719        6.499        6.273       67.197      213.928       10.135      332.287        0.857      867.723
01/19/2021  22:18:00       36.832       44.613      -40.271      509.791       55.315      247.368   259886.450     3059.747    61190.828       16.449       16.207       57.853      352.037       37.028      332.115        0.578      867.735
01/19/2021  22:19:00       23.569       36.415      -13.492      386.970       59.817      186.510   149746.060     3578.023    34785.923        9.505        9.406       43.377      264.165       37.088      331.981        0.353      867.734
01/19/2021  22:20:00        2.026       43.828       10.712       31.470       51.485       28.093      990.375     2650.727      789.196        0.323        0.222       43.875       36.894        0.707      332.189        0.690      867.726
01/19/2021  22:21:00      113.968       63.206      -29.572      496.201       51.854      241.135   246215.088     2688.787    58146.027       16.239       15.352      130.321      343.530        6.949      332.832        1.760      867.706
01/19/2021  22:22:00      133.485      122.882      -18.552      452.635       64.534      217.237   204878.462     4164.649    47191.881       14.469       12.812      181.434      308.861        2.898      333.148        2.280      867.696
01/19/2021  22:23:00       79.365       96.353        1.144      286.553       58.404      138.772    82112.828     3411.041    19257.651        6.016        5.239      124.831      194.348        2.424      332.772        1.655      867.690
01/19/2021  22:24:00      125.604       99.120       -3.617      384.275       65.307      187.374   147667.608     4264.973    35108.854       10.629        9.352      160.003      263.167        2.705      332.652        1.460      867.702
01/19/2021  22:25:00       76.202       88.518        7.888      239.139       58.039      120.462    57187.587     3368.526    14511.110        4.437        3.753      116.799      162.728        1.941      332.382        1.009      867.712
01/19/2021  22:26:00       85.586      126.739        6.334      193.026       60.433       95.652    37259.209     3652.110     9149.318        3.673        2.503      152.930      128.885        0.710      332.433        1.093      867.730
01/19/2021  22:27:00       60.508      148.088        5.561      161.987       60.465       80.721    26239.831     3656.054     6515.827        3.101        1.821      159.972      105.818        0.438      332.520        1.237      867.746
01/19/2021  22:28:00       90.481      175.305      -27.332      359.362       56.896      163.768   129141.378     3237.105    26820.019        9.940        7.960      197.278      237.390        1.448      332.863        1.807      867.761
01/19/2021  22:29:00      132.607      171.540      -15.582      437.024       61.446      205.605   190990.332     3775.598    42273.404       14.210       11.852      216.819      295.644        1.859      332.842        1.774      867.767
01/19/2021  22:30:00      117.319      178.800        3.654      323.465       69.494      156.426   104629.558     4829.428    24469.095        8.981        6.696      213.853      217.883        1.038      332.733        1.591      867.751
01/19/2021  22:31:00       95.971      160.654        5.279      187.652       66.896       91.798    35213.141     4475.011     8426.934        4.157        2.406      187.137      123.631        0.436      332.549        1.284      867.741
01/19/2021  22:32:00       95.912      145.631        0.810      272.617       57.605      131.872    74320.005     3318.345    17390.200        6.270        4.751      174.378      183.881        1.112      332.569        1.318      867.738
01/19/2021  22:33:00       83.588      177.653       13.294      217.276       62.844      110.013    47208.717     3949.368    12102.946        5.098        3.163      196.336      145.029        0.546      332.810        1.715      867.741
01/19/2021  22:34:00       74.173      109.261        4.699      146.644       55.629       74.483    21504.364     3094.641     5547.717        2.380        1.507      132.059       94.542        0.513      332.651        1.451      867.740
01/19/2021  22:35:00      115.730      102.466       -7.775      343.496       52.457      165.596   117989.818     2751.705    27422.038        8.603        7.408      154.573      234.745        2.306      332.767        1.647      867.768
01/19/2021  22:36:00       92.117       84.680        3.777      229.570       61.113      116.887    52702.268     3734.817    13662.454        4.287        3.505      125.125      156.859        1.572      332.619        1.401      867.793
01/19/2021  22:37:00      101.404       88.521       -4.496      314.495       58.297      153.430    98906.904     3398.577    23540.891        7.197        6.292      134.606      214.255        2.534      332.735        1.595      867.812
01/19/2021  22:38:00      119.963       77.212      -20.110      497.816       54.387      232.054   247820.499     2957.964    53849.050       16.263       15.231      142.663      336.955        5.579      332.964        1.978      867.813
01/19/2021  22:39:00       84.424       59.753        2.303      373.374       53.647      182.476   139407.881     2877.976    33297.669        9.311        8.779      103.430      256.559        6.153      332.837        1.764      867.826
01/19/2021  22:40:00       12.378       16.560        3.031      275.983       53.133      136.576    76166.470     2823.074    18652.949        4.902        4.882       20.674      189.474       83.992      332.180        0.678      867.828
01/19/2021  22:41:00       -8.257       61.640       -5.908      346.034       60.439      170.421   119739.817     3652.885    29043.280        7.814        7.622       62.190      237.801       14.621      331.921        0.252      867.837
01/19/2021  22:42:00      -10.050       60.116       -4.030      297.714       53.542      141.553    88633.397     2866.796    20037.375        5.761        5.577       60.950      199.743       10.740      332.021        0.417      867.840
01/19/2021  22:43:00       10.223       69.756       -1.295      331.460       62.019      159.080   109865.808     3846.310    25306.415        7.197        6.951       70.501      223.989       10.094      332.007        0.394      867.837
01/19/2021  22:44:00       49.940       59.325        2.291      346.231       58.291      170.649   119876.111     3397.803    29120.949        7.917        7.620       77.547      237.750        9.400      332.373        0.998      867.825
01/19/2021  22:45:00       32.927       71.351       14.693      207.845       61.963      103.494    43199.720     3839.440    10711.010        3.206        2.888       78.582      138.210        3.093      332.596        1.361      867.804
01/19/2021  22:46:00       32.354       46.037       -3.059      305.300       54.934      151.193    93207.864     3017.756    22859.411        6.111        5.954       56.269      209.655       13.883      332.504        1.213      867.783
01/19/2021  22:47:00      -19.791       32.754        9.787       41.343       62.282       35.288     1709.210     3879.008     1245.237        0.420        0.342       38.269       49.387        1.665      331.819        0.081      867.772
01/19/2021  22:48:00       19.867       47.079        3.673      351.822       63.884      169.655   123778.493     4081.155    28782.651        7.960        7.832       51.099      238.554       21.795      331.771        0.005      867.773
01/19/2021  22:49:00       84.317       34.715      -25.308      509.115       60.637      240.827   259197.736     3676.872    57997.802       16.485       16.044       91.184      346.299       14.423      331.899        0.221      867.777
01/19/2021  22:50:00      -30.878       74.993        8.963      190.983       69.776       96.798    36474.566     4868.672     9369.919        2.868        2.536       81.101      123.829        2.331      331.611       -0.261      867.772
01/19/2021  22:51:00        7.714       77.257      -15.708      416.506       59.069      200.827   173477.306     3489.190    40331.616       11.174       10.865       77.641      284.338       13.412      331.701       -0.109      867.768
01/19/2021  22:52:00      -48.063       61.742        8.823      154.009       60.243       81.209    23718.813     3629.197     6594.922        2.006        1.697       78.244      102.261        1.708      331.533       -0.390      867.771
01/19/2021  22:53:00      -52.349       74.221        1.000      223.816       58.360      106.411    50093.458     3405.858    11323.196        3.652        3.241       90.825      145.823        2.578      331.532       -0.390      867.772
01/19/2021  22:54:00      -35.144       58.470       18.183       36.529       61.802       36.253     1334.332     3819.539     1314.258        0.572        0.323       68.219       47.636        0.488      331.489       -0.463      867.764
01/19/2021  22:55:00      -20.378       75.965        5.283      251.399       66.155      126.041    63201.408     4376.503    15886.212        4.482        4.173       78.651      169.930        4.668      331.682       -0.145      867.758
01/19/2021  22:56:00        6.574       42.509      -18.825      352.284       51.565      172.636   124103.832     2658.964    29803.292        7.935        7.828       43.014      242.879       31.883      331.793        0.042      867.761
01/19/2021  22:57:00       37.060       26.324      -12.392      303.658       47.176      149.540    92208.140     2225.546    22362.123        5.948        5.840       45.457      209.077       21.155      332.088        0.526      867.771
01/19/2021  22:58:00      136.369       22.943      -52.407      583.414       49.682      276.419   340371.549     2468.281    76407.438       22.047       20.962      138.286      399.140        8.331      332.468        1.161      867.795
01/19/2021  22:59:00       78.623       26.517      -18.752      431.086       44.930      210.420   185835.073     2018.702    44276.767       11.964       11.607       82.974      298.885       12.975      332.435        1.102      867.798
01/19/2021  23:00:00       61.735       67.254       -1.265      353.934       45.353      167.995   125269.430     2056.932    28222.205        8.191        7.777       91.292      240.326        6.930      332.533        1.264      867.797
01/19/2021  23:01:00       72.593       76.310      -14.967      416.654       51.266      198.098   173600.659     2628.189    39242.711       11.335       10.774      105.323      283.568        7.249      332.370        0.994      867.808
01/19/2021  23:02:00       -6.646       41.384        2.356      234.701       56.376      111.952    55084.409     3178.276    12533.346        3.626        3.540       41.914      155.609       13.783      331.706       -0.104      867.835
01/19/2021  23:03:00      -18.597       24.677        2.053      270.901       64.823      129.716    73387.282     4201.958    16826.302        4.767        4.721       30.900      179.975       33.925      331.270       -0.819      867.855
01/19/2021  23:04:00      -73.665       65.270       -2.080      163.040       66.197       81.428    26581.979     4381.993     6630.600        2.363        1.880       98.421      102.487        1.084      331.334       -0.717      867.871
01/19/2021  23:05:00       27.283       28.348      -19.584      427.775       75.003      200.658   182991.445     5625.416    40263.566       11.536       11.444       39.344      284.248       52.195      331.421       -0.568      867.884
01/19/2021  23:06:00       65.949        3.557      -37.265      450.625       69.959      210.456   203063.143     4894.306    44291.524       12.895       12.612       66.045      302.960       21.042      331.395       -0.611      867.897
01/19/2021  23:07:00       82.231       27.709      -12.532      440.384       68.125      203.038   193937.642     4641.062    41224.415       12.370       11.990       86.774      289.174       11.105      331.335       -0.710      867.915
01/19/2021  23:08:00       54.014        7.923      -34.189      496.397       81.524      236.152   246410.022     6646.221    55767.839       15.642       15.441       54.592      335.989       37.879      331.453       -0.514      867.932
01/19/2021  23:09:00      -97.058       64.544       -8.427      340.381       79.136      166.422   115859.152     6262.491    27696.135        8.171        7.491      116.560      228.580        3.846      331.311       -0.754      867.936
01/19/2021  23:10:00      -97.920       77.062        0.303      346.654       68.700      162.980   120169.266     4719.712    26562.529        8.346        7.573      124.607      226.316        3.299      331.258       -0.842      867.915
01/19/2021  23:11:00      -72.224       90.950      -24.198      452.966       62.640      221.891   205178.476     3923.781    49235.580       13.615       12.917      116.139      310.189        7.133      331.409       -0.590      867.901
01/19/2021  23:12:00     -112.372       78.179       -8.819      283.588       57.982      140.715    80422.165     3361.915    19800.671        6.118        5.179      136.892      188.794        1.902      331.269       -0.822      867.885
01/19/2021  23:13:00      -45.709       46.103       -1.380      298.121       60.204      145.705    88876.228     3624.552    21229.962        5.895        5.687       64.921      195.081        9.029      331.355       -0.681      867.877
01/19/2021  23:14:00      -60.757       59.333      -16.166      342.203       59.843      164.949   117103.008     3581.144    27208.221        7.765        7.395       84.922      230.920        7.394      331.489       -0.458      867.869
01/19/2021  23:15:00      -89.147       49.705       -8.009      314.877       60.009      156.235    99147.360     3601.052    24409.360        6.879        6.358      102.068      215.181        4.445      331.441       -0.538      867.868
01/19/2021  23:16:00      -73.128       69.530       14.241       57.836       56.702       32.891     3345.039     3215.151     1081.795        0.901        0.382      100.906       40.273        0.159      331.427       -0.564      867.864
01/19/2021  23:17:00       -8.819       62.391       -9.587      266.115       59.666      129.871    70817.052     3560.085    16866.469        4.763        4.562       63.011      178.733        8.046      331.489       -0.459      867.866
01/19/2021  23:18:00       73.062       48.804      -11.422      361.034       58.732      173.026   130345.667     3449.477    29938.022        8.576        8.187       87.863      244.815        7.764      331.501       -0.438      867.862
01/19/2021  23:19:00       50.968       30.878        0.897      317.451       59.279      153.352   100775.069     3513.978    23516.705        6.565        6.390       59.592      215.248       13.047      331.477       -0.478      867.856
01/19/2021  23:20:00        3.464       42.453       -9.659      307.818       48.312      143.436    94752.044     2334.034    20573.847        5.976        5.883       42.594      204.164       22.975      331.967        0.327      867.839
01/19/2021  23:21:00      -16.786       48.551        0.730      215.064       49.382      106.552    46252.468     2438.583    11353.424        3.133        3.002       51.371      145.160        7.985      332.013        0.402      867.831
01/19/2021  23:22:00       29.686       36.423      -16.794      346.673       41.319      167.524   120182.192     1707.294    28064.211        7.619        7.498       46.989      238.591       25.782      332.349        0.959      867.830
01/19/2021  23:23:00      115.099       33.432      -45.296      542.625       47.866      257.556   294442.388     2291.169    66334.840       18.967       18.153      119.856      371.531        9.609      332.220        0.749      867.831
01/19/2021  23:24:00       15.710       27.086        7.144      256.237       60.964      121.142    65657.556     3716.570    14675.464        4.252        4.202       31.312      168.940       29.109      331.458       -0.512      867.821
01/19/2021  23:25:00      -30.096       41.509       -0.902      253.578       55.757      123.043    64301.749     3108.828    15139.557        4.257        4.128       51.272      170.933       11.115      331.478       -0.479      867.824
01/19/2021  23:26:00        1.739       32.091       -8.168      336.412       59.714      164.982   113173.042     3565.732    27219.034        7.250        7.198       32.138      229.801       51.128      331.577       -0.314      867.826
01/19/2021  23:27:00       24.682       39.775      -11.142      424.859       67.938      208.818   180505.334     4615.513    43604.937       11.547       11.436       46.811      291.989       38.908      331.638       -0.212      867.827
01/19/2021  23:28:00       -0.905       21.750      -42.004      422.039       58.154      206.967   178116.849     3381.832    42835.240       11.324       11.217       21.769      291.547      179.367      331.593       -0.285      867.836
01/19/2021  23:29:00      -25.115       60.971        3.774      248.170       61.563      124.723    61588.557     3789.986    15555.830        4.263        4.047       65.941      169.462        6.604      331.369       -0.657      867.845
01/19/2021  23:30:00      -27.091       45.999      -40.203      420.238       64.050      206.654   176599.859     4102.427    42705.715       11.389       11.170       53.384      290.581       29.629      331.515       -0.413      867.844
01/19/2021  23:31:00      -60.679       68.482      -14.279      319.243       73.836      153.956   101915.812     5451.747    23702.542        6.980        6.554       91.497      211.665        5.352      331.315       -0.746      867.846
01/19/2021  23:32:00      -57.486       32.773      -14.622      416.127       65.575      194.986   173161.739     4300.114    38019.599       10.999       10.774       66.172      276.592       17.472      331.429       -0.556      867.858
01/19/2021  23:33:00      -66.993       34.667       -1.901      323.173       67.055      146.942   104440.886     4496.333    21592.073        6.808        6.526       75.431      202.891        7.235      331.256       -0.845      867.866
01/19/2021  23:34:00      -25.210       20.420        9.727      214.518       59.838      103.191    46018.173     3580.620    10648.414        3.068        3.012       32.442      133.765       17.000      331.116       -1.075      867.856
01/19/2021  23:35:00       81.080       30.909      -33.451      508.326       62.979      232.987   258395.710     3966.332    54283.062       16.258       15.832       86.772      339.134       15.275      331.375       -0.642      867.846
01/19/2021  23:36:00       37.466       57.895      -16.886      408.884       65.032      196.354   167186.128     4229.193    38555.040       10.746       10.499       68.961      275.269       15.934      331.301       -0.766      867.836
01/19/2021  23:37:00      -50.161       69.005       -5.741      281.601       64.685      135.748    79299.355     4184.118    18427.647        5.459        5.096       85.310      188.765        4.896      331.247       -0.858      867.848
01/19/2021  23:38:00       52.252       27.552      -10.812      389.677       62.719      186.205   151848.293     3933.721    34672.307        9.699        9.523       59.071      264.118       19.992      331.378       -0.642      867.867
01/19/2021  23:39:00      -16.259       26.506        3.781      180.467       61.271       95.942    32568.167     3754.179     9204.875        2.324        2.276       31.096      118.055       14.413      331.191       -0.953      867.898
01/19/2021  23:40:00      -28.281       52.329       -4.015      189.288       49.586       92.246    35829.844     2458.728     8509.326        2.517        2.340       59.482      125.044        4.419      331.453       -0.521      867.911
01/19/2021  23:41:00       92.244       36.695      -67.417      611.006       54.253      287.901   373328.733     2943.411    82886.826       23.668       22.958       99.275      416.546       17.605      331.940        0.292      867.912
01/19/2021  23:42:00       -1.494       41.118      -25.349      381.302       58.562      182.820   145391.175     3429.558    33423.011        9.225        9.112       41.146      259.772       39.860      331.494       -0.449      867.909
01/19/2021  23:43:00       54.876        7.645      -20.744      487.988       61.198      222.731   238131.988     3745.156    49609.189       14.743       14.574       55.406      324.954       34.398      331.552       -0.352      867.915
01/19/2021  23:44:00       85.154       13.957      -31.918      462.345       59.246      227.577   213762.610     3510.056    51791.512       13.871       13.453       86.290      320.561       13.801      331.493       -0.449      867.915
01/19/2021  23:45:00      177.556       31.901      -89.736      698.617       53.532      334.476   488065.267     2865.660   111873.951       32.157       30.140      180.399      480.618        7.098      331.850        0.148      867.903
01/19/2021  23:46:00       76.664       24.406      -26.604      473.372       52.057      229.126   224081.457     2709.904    52498.818       14.318       13.965       80.455      325.726       16.391      331.410       -0.586      867.862
01/19/2021  23:47:00       37.911       36.109      -34.807      454.239       47.159      214.577   206333.260     2223.942    46043.368       12.922       12.730       52.356      308.894       34.809      331.497       -0.443      867.831
01/19/2021  23:48:00       25.886       40.952      -20.240      398.934       51.512      195.307   159148.706     2653.442    38144.807       10.131        9.997       48.448      275.893       32.429      331.847        0.133      867.818
01/19/2021  23:49:00       25.331       40.468      -14.435      352.765       45.438      171.199   124443.433     2064.655    29309.173        7.912        7.791       47.742      242.846       25.874      332.194        0.703      867.810
01/19/2021  23:50:00        9.599       15.045      -14.239      390.283       53.788      191.162   152320.865     2893.102    36542.884        9.610        9.588       17.846      268.700      226.693      331.443       -0.533      867.818
01/19/2021  23:51:00       -5.159       30.645      -30.112      423.080       49.717      205.677   178996.340     2471.738    42302.933       11.277       11.189       31.076      291.602       88.050      331.302       -0.764      867.824
01/19/2021  23:52:00       -4.645       27.108      -36.887      469.160       54.788      221.301   220110.838     3001.686    48974.333       13.704       13.604       27.503      318.332      133.969      331.330       -0.717      867.831
01/19/2021  23:53:00        7.060        4.939      -34.924      421.810       57.739      200.861   177923.884     3333.848    40345.011       11.140       11.080        8.616      285.687     1099.441      331.145       -1.023      867.841
01/19/2021  23:54:00       32.855       20.011      -56.575      550.809       54.458      255.848   303390.847     2965.722    65458.007       18.817       18.591       38.469      371.442       93.231      331.381       -0.631      867.853
01/19/2021  23:55:00      -11.055       49.845      -12.581      368.414       53.763      171.088   135728.596     2890.472    29271.025        8.529        8.395       51.056      239.833       22.066      331.068       -1.151      867.860
01/19/2021  23:56:00        0.622       19.421      -11.815      281.502       74.854      139.841    79243.178     5603.135    19555.573        5.244        5.220       19.430      189.071       94.685      330.948       -1.350      867.862
01/19/2021  23:57:00      -22.630       31.598      -18.909      255.623       61.518      124.717    65343.355     3784.439    15554.283        4.326        4.234       38.866      166.231       18.293      330.931       -1.379      867.856
01/19/2021  23:58:00       14.348       29.508       -4.895      256.914       54.282      128.254    66004.979     2946.504    16449.133        4.323        4.270       32.812      174.249       28.202      330.874       -1.471      867.855
01/19/2021  23:59:00       59.030       21.249      -15.481      416.756       62.380      203.447   173685.539     3891.293    41390.752       11.153       10.948       62.738      284.374       20.546      331.078       -1.133      867.854
01/20/2021  00:00:00      -58.412       52.696      -30.582      355.700       55.125      168.678   126522.475     3038.774    28452.150        8.254        7.901       78.669      238.913        9.223      331.069       -1.150      867.847
01/20/2021  00:01:00       66.416       22.776      -55.320      589.333       52.465      281.519   347313.172     2752.609    79253.146       21.856       21.466       70.213      403.628       33.047      331.309       -0.747      867.836
01/20/2021  00:02:00       62.542       23.767      -21.182      471.596       49.526      230.907   222402.788     2452.859    53318.062       14.149       13.909       66.906      326.436       23.805      331.055       -1.169      867.814
01/20/2021  00:03:00      131.437       36.940      -70.836      636.367       48.636      304.582   404962.351     2365.459    92770.299       26.177       25.005      136.529      437.475       10.267      331.496       -0.437      867.787
01/20/2021  00:04:00        5.151       38.228      -43.052      440.771       46.502      212.790   194279.012     2162.425    45279.501       12.248       12.086       38.573      303.574       61.938      331.212       -0.913      867.757
01/20/2021  00:05:00       88.536       31.932      -69.058      632.286       40.703      299.686   399785.624     1656.751    89811.801       25.234       24.563       94.118      433.501       21.214      331.712       -0.080      867.745
01/20/2021  00:06:00       24.172       39.837      -46.654      472.750       45.854      227.826   223493.016     2102.549    51904.615       14.086       13.875       46.597      325.622       48.834      331.857        0.151      867.742
01/20/2021  00:07:00      -21.687       43.076      -17.461      319.077       54.948      151.952   101810.343     3019.235    23089.264        6.525        6.396       48.227      215.248       19.920      331.244       -0.861      867.743
01/20/2021  00:08:00       16.056       27.777      -21.633      428.539       50.387      206.511   183645.742     2538.846    42646.638       11.512       11.442       32.083      293.995       83.972      331.262       -0.830      867.751
01/20/2021  00:09:00       34.714       31.720      -10.768      397.944       54.058      196.469   158359.154     2922.305    38600.072       10.106        9.994       47.023      275.759       34.390      331.122       -1.061      867.758
01/20/2021  00:10:00      -34.539       31.112      -22.562      305.269       43.428      145.687    93189.213     1885.965    21224.757        5.946        5.815       46.485      206.177       19.672      331.173       -0.980      867.751
01/20/2021  00:11:00      -23.434        8.561      -17.730      334.787       52.385      155.857   112082.527     2744.202    24291.531        7.000        6.956       24.949      221.806       79.040      331.090       -1.115      867.741
01/20/2021  00:12:00       38.136       19.421      -14.637      427.416       52.230      206.439   182684.748     2728.002    42617.126       11.499       11.401       42.796      290.904       46.205      331.124       -1.057      867.749
01/20/2021  00:13:00      -53.679       22.973      -22.034      405.859       44.616      196.907   164721.296     1990.585    38772.209       10.465       10.274       58.388      278.633       22.773      331.263       -0.828      867.759
01/20/2021  00:14:00        1.968       -2.554      -22.999      398.396       47.817      190.944   158719.071     2286.480    36459.581        9.896        9.873        3.224      271.093     7068.986      331.352       -0.681      867.761
01/20/2021  00:15:00        8.993       21.936      -29.314      493.081       50.560      228.428   243129.015     2556.357    52179.133       14.958       14.893       23.708      332.455      196.648      331.537       -0.376      867.758
01/20/2021  00:16:00        8.478       24.003      -15.127      464.483       51.039      224.201   215744.134     2604.932    50265.969       13.469       13.431       25.457      318.757      156.790      331.538       -0.375      867.765
01/20/2021  00:17:00       58.317       25.775      -31.409      519.023       54.371      243.047   269385.277     2956.158    59071.859       16.816       16.571       63.759      352.069       30.491      331.640       -0.206      867.760
01/20/2021  00:18:00       15.555       13.338        1.831      262.721       48.423      131.562    69022.153     2344.797    17308.440        4.453        4.434       20.491      182.095       78.975      331.402       -0.604      867.755
01/20/2021  00:19:00       -2.603       14.316        5.164      279.741       51.281      130.360    78255.201     2629.753    16993.688        4.904        4.894       14.550      184.820      161.342      331.362       -0.668      867.744
01/20/2021  00:20:00       31.586       11.497      -16.677      405.318       40.122      193.121   164282.864     1609.768    37295.645       10.226       10.159       33.613      276.229       67.533      331.401       -0.602      867.748
01/20/2021  00:21:00      -11.634       16.884      -23.852      482.012       57.197      224.561   232335.433     3271.473    50427.837       14.345       14.302       20.504      325.666      252.259      331.508       -0.423      867.741
01/20/2021  00:22:00       47.264       11.568      -51.877      625.914      101.137      302.537   391768.814    10228.632    91528.644       24.919       24.676       48.659      426.007       76.648      331.683       -0.130      867.732
01/20/2021  00:23:00       75.014       19.206      -26.072      493.048       51.240      235.358   243095.851     2625.519    55393.490       15.383       15.056       77.434      336.246       18.856      331.475       -0.478      867.737
01/20/2021  00:24:00       63.463       12.216      -39.455      515.292       51.393      247.155   265526.072     2641.203    61085.564       16.742       16.463       64.628      353.372       29.896      331.517       -0.409      867.717
01/20/2021  00:25:00       11.707       11.772       -2.311      278.506       49.791      135.408    77565.693     2479.117    18335.300        4.931        4.919       16.603      188.892      129.441      331.253       -0.849      867.716
01/20/2021  00:26:00       53.942       22.303      -22.470      496.044       58.130      242.792   246059.434     3379.116    58948.135       15.608       15.419       58.371      343.820       34.695      331.432       -0.549      867.716
01/20/2021  00:27:00        8.617       27.321      -15.327      412.685       50.989      200.723   170308.774     2599.876    40289.802       10.708       10.660       28.647      283.986       98.272      331.339       -0.705      867.715
01/20/2021  00:28:00       -4.693       21.042      -26.278      465.731       45.621      222.331   216905.351     2081.264    49431.082       13.473       13.421       21.559      318.909      218.813      331.248       -0.851      867.704
01/20/2021  00:29:00       33.277        1.720      -27.690      416.248       48.976      200.998   173262.675     2398.621    40400.305       10.892       10.803       33.321      284.488       72.894      331.267       -0.822      867.690
01/20/2021  00:30:00       58.027        2.513      -51.351      576.741       51.069      277.423   332630.334     2608.003    76963.504       20.902       20.610       58.082      397.928       46.939      331.470       -0.483      867.674
01/20/2021  00:31:00        8.360       41.644      -52.295      537.323       45.481      261.548   288716.018     2068.520    68407.411       18.179       17.960       42.475      372.646       76.971      331.338       -0.701      867.657
01/20/2021  00:32:00      -81.325       29.465      -12.269      207.302       48.015      102.015    42974.099     2305.471    10407.152        3.165        2.784       86.498      140.393        2.634      330.987       -1.285      867.640
01/20/2021  00:33:00       54.987       26.417       -4.898      410.828       52.164      199.458   168779.458     2721.069    39783.607       10.747       10.564       61.004      282.272       21.410      331.145       -1.023      867.630
01/20/2021  00:34:00       28.145       17.423      -12.839      384.707       48.514      181.979   147999.690     2353.642    33116.291        9.233        9.173       33.102      259.448       61.433      331.175       -0.973      867.626
01/20/2021  00:35:00        1.709       37.980      -36.255      512.155       48.609      239.726   262302.873     2362.851    57468.363       16.238       16.107       38.018      347.588       83.588      331.342       -0.695      867.622
01/20/2021  00:36:00        5.190       35.555      -44.661      533.934       44.716      256.915   285085.889     1999.491    66005.541       17.811       17.655       35.931      367.762      104.757      331.390       -0.616      867.608
01/20/2021  00:37:00      -15.831       49.583      -17.752      304.394       48.744      148.583    92655.472     2375.944    22077.037        6.004        5.855       52.049      208.800       16.093      330.982       -1.294      867.622
01/20/2021  00:38:00       53.048       49.722      -57.794      559.548       39.365      269.418   313094.377     1549.616    72585.812       19.785       19.361       72.707      386.861       28.311      331.236       -0.869      867.624
01/20/2021  00:39:00      -49.984       72.733      -19.484      372.208       48.499      180.079   138538.888     2352.173    32428.500        9.071        8.666       88.252      254.904        8.343      330.921       -1.392      867.602
01/20/2021  00:40:00      -63.555       26.839      -20.978      318.848       47.103      151.926   101664.231     2218.678    23081.510        6.606        6.348       68.990      216.502        9.848      330.920       -1.394      867.604
01/20/2021  00:41:00      -30.560       17.528      -11.766      256.424       47.227      126.134    65753.114     2230.347    15909.892        4.262        4.195       35.230      172.775       24.051      330.842       -1.525      867.608
01/20/2021  00:42:00      -28.964       16.870      -27.074      323.164      179.928      172.039   104434.996    32374.094    29597.338        8.410        8.320       33.519      189.819       32.070      330.972       -1.308      867.613
01/20/2021  00:43:00      -15.008       18.294      -39.611      411.793       49.889      192.873   169573.510     2488.883    37200.000       10.565       10.463       23.662      278.629      138.657      330.879       -1.459      867.612
01/20/2021  00:44:00        8.188       34.416      -63.143      590.194       49.275      279.062   348328.631     2428.069    77875.782       21.684       21.432       35.376      403.213      129.912      331.092       -1.103      867.612
01/20/2021  00:45:00      122.383        2.736      -82.452      662.612       45.187      316.145   439054.586     2041.880    99947.846       28.130       27.052      122.414      454.926       13.811      331.286       -0.780      867.631
01/20/2021  00:46:00      140.515       24.165      -60.515      655.173       46.006      311.110   429252.196     2116.587    96789.194       27.596       26.408      142.577      448.816        9.909      331.235       -0.867      867.640
01/20/2021  00:47:00       27.517       50.099      -55.147      522.803       47.582      250.373   273323.174     2264.092    62686.851       17.222       16.914       57.159      359.064       39.462      330.979       -1.293      867.638
01/20/2021  00:48:00      -11.475       22.063      -32.141      440.191       48.157      210.188   193767.823     2319.069    44178.786       12.091       12.013       24.869      300.505      146.012      330.793       -1.600      867.636
01/20/2021  00:49:00      -39.289       38.916      -50.581      498.243       42.682      237.233   248245.697     1821.774    56279.493       15.592       15.317       55.300      340.739       37.966      330.844       -1.515      867.621
01/20/2021  00:50:00      -78.211       48.114      -25.702      356.265       49.584      176.455   126925.031     2458.536    31136.524        8.477        8.026       91.826      245.492        7.147      330.664       -1.814      867.610
01/20/2021  00:51:00      -46.902       39.681      -50.410      523.618       41.153      251.232   274175.621     1693.552    63117.754       17.258       16.949       61.436      359.895       34.316      330.801       -1.584      867.610
01/20/2021  00:52:00      -74.525       36.114      -35.142      413.868       36.214      198.162   171286.549     1311.463    39268.367       10.993       10.593       82.814      283.217       11.696      330.686       -1.777      867.605
01/20/2021  00:53:00      -14.175        4.555      -20.458      306.065       45.238      147.368    93676.069     2046.464    21717.468        5.902        5.872       14.889      206.911      193.127      330.672       -1.802      867.603
01/20/2021  00:54:00      100.626       24.676      -46.148      565.302       42.644      265.728   319566.520     1818.511    70611.448       20.235       19.600      103.607      385.720       13.860      330.992       -1.268      867.611
01/20/2021  00:55:00       36.223       24.284      -56.811      556.351       45.787      268.531   309526.760     2096.474    72109.010       19.435       19.187       43.610      383.898       77.492      331.033       -1.203      867.624
01/20/2021  00:56:00       22.424        6.372      -26.225      408.891       47.979      203.403   167191.707     2301.941    41372.894       10.600       10.543       23.312      283.159      147.540      330.849       -1.509      867.633
01/20/2021  00:57:00       19.637       21.167      -46.358      516.563       48.752      247.602   266837.191     2376.750    61306.714       16.668       16.526       28.873      355.101      151.262      330.886       -1.444      867.635
01/20/2021  00:58:00       57.980       10.285      -38.855      493.077       40.116      234.860   243125.089     1609.303    55159.108       15.237       14.995       58.886      337.384       32.827      330.852       -1.501      867.631
01/20/2021  00:59:00       80.786        3.838      -58.218      575.941       57.372      276.266   331707.517     3291.578    76322.709       21.054       20.566       80.877      395.918       23.964      330.876       -1.459      867.628
01/20/2021  01:00:00       12.956        9.602      -34.209      416.059       61.989      201.480   173104.813     3842.678    40594.316       10.944       10.877       16.126      283.927      309.994      330.644       -1.846      867.631
01/20/2021  01:01:00      101.773        4.988      -66.804      602.391       50.168      285.574   362874.670     2516.815    81552.232       23.080       22.347      101.896      411.937       16.344      330.861       -1.483      867.638
01/20/2021  01:02:00       89.856       50.915      -52.886      622.365       47.049      293.106   387337.858     2213.649    85910.946       24.436       23.773      103.279      423.556       16.819      330.955       -1.328      867.639
01/20/2021  01:03:00       18.566      -17.186      -42.039      499.398       61.891      239.433   249398.214     3830.538    57328.359       15.642       15.528       25.299      341.888      182.623      330.827       -1.540      867.639
01/20/2021  01:04:00        8.807        0.936      -32.533      446.285       40.358      210.733   199170.339     1628.794    44408.516       12.312       12.260        8.857      302.346     1165.417      330.781       -1.620      867.652
01/20/2021  01:05:00        6.828       19.727      -31.767      411.306       41.934      197.017   169172.351     1758.435    38815.726       10.555       10.487       20.875      280.763      180.898      330.784       -1.615      867.668
01/20/2021  01:06:00      127.112       10.072      -58.875      569.689       49.375      270.122   324545.432     2437.873    72965.870       20.975       19.997      127.510      389.958        9.353      331.020       -1.223      867.665
01/20/2021  01:07:00       13.443       14.775      -39.846      402.246       41.348      186.006   161801.725     1709.655    34598.398       10.001        9.905       19.975      270.879      183.894      330.847       -1.511      867.659
01/20/2021  01:08:00       15.790       13.898      -36.277      448.491       39.442      214.505   201143.824     1555.677    46012.278       12.518       12.436       21.035      308.039      214.453      331.016       -1.234      867.655
01/20/2021  01:09:00       -3.178       17.883      -41.316      425.277       40.452      201.740   180860.427     1636.326    40698.933       11.257       11.160       18.163      290.527      255.848      330.878       -1.460      867.656
01/20/2021  01:10:00      119.888       15.291      -48.181      584.763       36.526      284.182   341948.256     1334.176    80759.355       22.040       21.202      120.859      404.741       11.215      331.019       -1.224      867.646
01/20/2021  01:11:00       72.935       10.251      -55.128      521.701       36.869      248.682   272171.591     1359.291    61842.974       17.185       16.769       73.652      358.753       23.726      331.017       -1.230      867.645
01/20/2021  01:12:00       35.918        2.595      -38.194      452.399       48.448      219.813   204664.537     2347.195    48317.752       12.899       12.766       36.012      312.356       75.233      330.847       -1.512      867.643
01/20/2021  01:13:00      146.553        7.150      -66.360      640.626       35.389      305.265   410402.069     1252.376    93186.836       26.528       25.242      146.727      440.887        9.029      331.073       -1.132      867.641
01/20/2021  01:14:00       90.622       13.942      -80.908      592.752       37.230      284.892   351354.965     1386.044    81163.396       22.434       21.695       91.688      409.216       19.920      331.109       -1.074      867.643
01/20/2021  01:15:00       33.576       25.561      -42.453      467.843       37.120      225.756   218877.022     1377.874    50965.954       13.734       13.561       42.199      323.221       58.668      330.866       -1.478      867.642
01/20/2021  01:16:00      117.044        5.313      -56.534      576.312       37.656      276.957   332135.901     1417.976    76704.995       21.350       20.513      117.164      397.865       11.531      331.028       -1.209      867.624
01/20/2021  01:17:00       84.966       14.919      -48.737      489.207       38.231      236.215   239323.972     1461.635    55797.381       15.314       14.829       86.266      338.260       15.375      330.931       -1.372      867.604
01/20/2021  01:18:00       41.699      -22.905      -41.359      416.990       28.894      200.395   173880.811      834.866    40158.346       10.938       10.744       47.576      287.670       36.561      330.870       -1.474      867.609
01/20/2021  01:19:00      113.128       -9.250      -74.858      625.373       34.021      300.922   391091.386     1157.421    90554.251       25.054       24.140      113.505      432.765       14.537      331.096       -1.095      867.635
01/20/2021  01:20:00       66.668       -2.501      -51.862      504.884       98.870      247.542   254907.435     9775.195    61276.998       16.648       16.298       66.715      343.042       26.439      330.884       -1.449      867.652
01/20/2021  01:21:00       70.694        5.117      -46.021      503.502       35.279      241.542   253514.401     1244.597    58342.751       16.006       15.655       70.879      346.686       23.924      330.721       -1.717      867.658
01/20/2021  01:22:00      129.854        6.506      -63.432      580.203       32.177      278.512   336635.149     1035.370    77569.209       21.800       20.762      130.016      401.091        9.517      330.848       -1.506      867.650
01/20/2021  01:23:00      235.340        7.744     -114.335      830.960       48.065      396.028   690494.206     2310.284   156838.540       45.890       42.482      235.467      572.091        5.903      331.197       -0.919      867.641
01/20/2021  01:24:00       36.332       19.930      -73.978      577.276       32.879      276.963   333247.252     1081.045    76708.411       20.903       20.552       41.439      398.163       92.322      330.746       -1.673      867.636
01/20/2021  01:25:00      -44.228       24.298      -46.436      388.798       32.352      186.571   151163.526     1046.674    34808.568        9.582        9.351       50.463      267.414       28.081      330.539       -2.018      867.628
01/20/2021  01:26:00       21.604       46.527      -64.196      570.132       36.307      274.321   325050.217     1318.182    75251.788       20.410       20.081       51.298      394.061       59.009      330.711       -1.730      867.615
01/20/2021  01:27:00      -26.527       47.245      -47.108      481.676       33.078      231.198   232011.974     1094.154    53452.418       14.579       14.328       54.183      332.344       37.623      330.625       -1.875      867.595
01/20/2021  01:28:00       13.553       45.494      -64.519      572.537       34.037      269.479   327798.482     1158.486    72618.854       20.391       20.079       47.470      391.649       68.070      330.831       -1.535      867.583
01/20/2021  01:29:00      -27.725       33.235      -34.722      377.966       26.232      181.509   142858.263      688.115    32945.421        8.975        8.825       43.281      260.636       36.265      330.851       -1.505      867.560
01/20/2021  01:30:00       23.854       13.080      -31.315      410.206       36.901      199.140   168268.572     1361.682    39656.597       10.546       10.464       27.205      284.093      109.052      330.977       -1.299      867.546
01/20/2021  01:31:00       90.960        2.799      -54.219      578.574       39.786      276.308   334747.311     1582.900    76346.351       21.186       20.634       91.004      398.337       19.160      331.008       -1.243      867.541
01/20/2021  01:32:00      137.033       10.264      -65.373      616.999       40.905      291.561   380687.685     1673.210    85007.895       24.516       23.368      137.417      422.698        9.462      331.021       -1.220      867.534
01/20/2021  01:33:00      102.130      -13.713      -66.325      578.326       29.254      277.848   334461.007      855.788    77199.669       21.368       20.626      103.047      399.948       15.064      330.875       -1.462      867.530
01/20/2021  01:34:00       43.809        1.816      -42.943      467.367       30.518      221.597   218431.825      931.366    49105.315       13.606       13.423       43.847      320.136       53.308      330.636       -1.858      867.530
01/20/2021  01:35:00       53.081        2.446      -58.411      566.798       42.708      267.221   321260.303     1823.939    71407.297       20.028       19.725       53.138      386.945       53.027      330.703       -1.743      867.534
01/20/2021  01:36:00       85.491      -14.032      -69.274      591.052       37.120      284.223   349342.316     1377.909    80782.877       22.181       21.575       86.635      406.590       22.025      330.718       -1.718      867.531
01/20/2021  01:37:00       70.661       -5.240      -90.124      674.031       38.150      323.166   454317.735     1455.389   104436.045       28.656       28.010       70.855      465.075       43.083      330.739       -1.680      867.551
01/20/2021  01:38:00       89.152       31.249      -69.281      670.157       43.437      315.380   449110.751     1886.743    99464.668       28.198       27.523       94.470      456.314       23.331      330.788       -1.601      867.557
01/20/2021  01:39:00       24.657       52.504      -75.210      623.590       31.226      298.639   388864.614      975.036    89185.392       24.392       23.951       58.006      430.106       54.981      330.623       -1.873      867.562
01/20/2021  01:40:00       -5.989       46.979      -50.960      522.924       31.826      250.061   273449.392     1012.865    62530.742       17.085       16.850       47.359      360.313       57.883      330.460       -2.146      867.569
01/20/2021  01:41:00      -12.411       41.142      -37.480      461.359       30.252      223.022   212852.179      915.170    49738.738       13.332       13.175       42.974      318.052       54.776      330.439       -2.180      867.573
01/20/2021  01:42:00      -30.690       29.851      -47.327      437.562       33.435      209.637   191460.320     1117.901    43947.473       12.025       11.826       42.813      301.310       49.530      330.510       -2.064      867.560
01/20/2021  01:43:00        8.571       38.949      -70.028      566.239      149.689      274.154   320627.062    22406.717    75160.436       21.225       20.910       39.880      374.654       88.256      330.798       -1.589      867.546
01/20/2021  01:44:00       34.996       37.264      -80.994      642.412       34.779      308.032   412692.817     1209.593    94883.966       25.887       25.439       51.120      443.447       75.249      330.772       -1.628      867.524
01/20/2021  01:45:00       70.854       31.536      -42.713      531.629       37.461      255.068   282629.595     1403.357    65059.887       17.839       17.455       77.555      366.531       22.336      330.574       -1.957      867.508
01/20/2021  01:46:00        5.075       32.139      -66.495      529.758       32.800      254.875   280643.400     1075.825    64961.280       17.601       17.334       32.537      366.092      126.600      330.629       -1.864      867.485
01/20/2021  01:47:00       24.902       31.318      -46.036      451.623       37.317      218.463   203963.534     1392.563    47726.146       12.835       12.654       40.011      310.258       60.129      330.473       -2.126      867.469
01/20/2021  01:48:00      163.568       -4.779     -101.345      689.479       44.243      331.455   475380.838     1957.428   109862.228       31.200       29.360      163.638      476.153        8.467      330.862       -1.478      867.450
01/20/2021  01:49:00      175.914       25.038      -62.052      636.700       41.388      303.974   405387.168     1712.953    92400.003       26.736       24.975      177.687      438.337        6.086      330.661       -1.811      867.434
01/20/2021  01:50:00      124.027        7.149      -31.071      501.188       33.977      240.823   251189.633     1154.460    57995.676       16.330       15.517      124.233      345.465        7.733      330.426       -2.202      867.433
01/20/2021  01:51:00      155.948        4.809      -74.737      646.016       49.492      315.488   417337.237     2449.477    99532.408       27.451       25.966      156.022      449.902        8.315      330.682       -1.775      867.434
01/20/2021  01:52:00       72.823      -12.812      -42.479      483.137       38.050      232.479   233421.499     1447.793    54046.523       14.803       14.446       73.942      331.206       20.064      330.394       -2.253      867.441
01/20/2021  01:53:00      -56.248       26.178      -58.693      480.739       28.563      232.090   231109.640      815.821    53865.855       14.648       14.290       62.041      330.161       28.320      330.600       -1.915      867.441
01/20/2021  01:54:00       -8.752       16.934      -22.514      396.605       38.764      186.291   157295.841     1502.654    34704.197        9.714        9.675       19.062      266.407      195.329      330.517       -2.055      867.447
01/20/2021  01:55:00      134.480      -11.110      -66.455      622.692       29.836      294.983   387745.743      890.162    87014.889       24.904       23.783      134.938      426.602        9.995      330.863       -1.478      867.450
01/20/2021  01:56:00      196.376       -4.239      -96.700      714.759       35.869      339.752   510880.775     1286.562   115431.608       33.763       31.380      196.422      491.349        6.257      331.024       -1.209      867.446
01/20/2021  01:57:00       70.971      -33.677      -53.240      574.972      161.373      279.186   330593.125    26041.107    77944.947       22.170       21.729       78.556      377.315       23.070      330.743       -1.677      867.448
01/20/2021  01:58:00      117.608       16.765      -84.648      668.059       23.642      317.588   446303.406      558.923   100862.073       28.438       27.386      118.797      459.664       14.972      330.817       -1.553      867.460
01/20/2021  01:59:00       66.246      -28.811      -44.098      494.717       34.905      236.517   244745.352     1218.329    55940.195       15.447       15.095       72.240      340.915       22.271      330.758       -1.657      867.466
01/20/2021  02:00:00      112.981       16.110      -42.066      521.601       50.948      249.752   272067.393     2595.721    62376.140       17.584       16.852      114.124      359.612        9.929      330.915       -1.398      867.462
01/20/2021  02:01:00      133.467       15.404      -58.525      611.730       36.515      291.497   374214.130     1333.342    84970.306       24.090       23.026      134.353      421.065        9.822      330.931       -1.366      867.446
01/20/2021  02:02:00       91.404      -22.234      -68.191      518.295       24.875      247.211   268630.187      618.756    61113.407       17.186       16.518       94.069      356.921       14.396      331.257       -0.834      867.431
01/20/2021  02:03:00      151.066        2.128      -96.103      690.892       32.639      327.706   477332.156     1065.303   107391.277       30.880       29.289      151.081      474.675        9.871      331.195       -0.931      867.416
01/20/2021  02:04:00       35.663       -9.425      -43.552      446.051       27.420      216.246   198961.426      751.853    46762.400       12.481       12.324       36.888      309.676       70.478      330.820       -1.555      867.408
01/20/2021  02:05:00      143.782      -11.487      -72.161      651.585       25.852      313.373   424563.113      668.320    98202.943       27.461       26.172      144.240      450.966        9.775      331.176       -0.964      867.423
01/20/2021  02:06:00       78.072        2.362      -44.547      511.863       20.716      244.283   262003.335      429.148    59674.342       16.503       16.105       78.107      353.057       20.432      331.397       -0.605      867.430
01/20/2021  02:07:00       67.279       41.137      -60.402      549.951       31.681      263.987   302446.347     1003.675    69689.218       19.142       18.657       78.859      380.274       23.254      331.094       -1.102      867.417
01/20/2021  02:08:00       11.285       38.187      -53.059      520.436       40.271      248.578   270853.922     1621.713    61790.840       16.926       16.713       39.820      358.301       80.966      330.915       -1.397      867.405
01/20/2021  02:09:00       40.163       31.630      -48.678      539.305       31.572      257.074   290849.527      996.792    66087.241       18.138       17.897       51.123      371.348       52.762      330.946       -1.345      867.410
01/20/2021  02:10:00       43.599       40.889      -53.204      532.683       36.605      254.694   283750.668     1339.936    64868.959       17.811       17.498       59.773      367.167       37.733      331.049       -1.177      867.394
01/20/2021  02:11:00       27.008       13.080      -37.187      436.311       33.296      209.995   190366.915     1108.595    44097.911       11.888       11.779       30.008      301.086      100.669      330.754       -1.663      867.371
01/20/2021  02:12:00       84.736        5.798      -50.852      525.163       29.112      249.203   275796.420      847.508    62102.214       17.420       16.937       84.934      360.655       18.031      330.667       -1.805      867.385
01/20/2021  02:13:00        5.097        8.419      -40.856      412.687       26.691      198.211   170310.878      712.394    39287.753       10.599       10.516        9.842      284.033      832.852      330.514       -2.058      867.401
01/20/2021  02:14:00      -64.929        0.888      -49.589      437.952       35.443      208.650   191801.821     1256.198    43534.748       12.158       11.830       64.935      300.473       21.412      330.419       -2.214      867.403
01/20/2021  02:15:00        0.249       17.318      -54.763      504.690       41.826      241.856   254712.304     1749.398    58494.119       15.906       15.748       17.320      346.815      400.981      330.550       -1.997      867.403
01/20/2021  02:16:00       29.333       13.577      -52.439      511.860       43.702      246.237   262000.402     1909.827    60632.579       16.410       16.227       32.323      353.280      119.459      330.533       -2.025      867.418
01/20/2021  02:17:00       88.940       -8.643      -65.874      583.231       37.735      278.810   340158.613     1423.899    77734.855       21.573       20.966       89.359      400.441       20.082      330.631       -1.862      867.430
01/20/2021  02:18:00       87.089        0.940      -74.842      610.106       34.897      290.001   372229.011     1217.820    84100.499       23.527       22.877       87.094      418.643       23.105      330.632       -1.859      867.421
01/20/2021  02:19:00       91.338       22.198      -46.713      513.985       27.728      246.175   264180.729      768.854    60602.004       16.821       16.278       93.997      354.273       14.205      330.468       -2.131      867.416
01/20/2021  02:20:00      185.213       15.759      -77.767      677.992       17.189      324.669   459672.650      295.474   105410.239       30.287       28.269      185.882      468.631        6.356      330.893       -1.427      867.428
01/20/2021  02:21:00       55.313       13.710      -33.978      394.894       14.774      189.193   155941.435      218.285    35794.122        9.814        9.598       56.986      272.583       22.880      330.600       -1.919      867.438
01/20/2021  02:22:00      104.071       35.762      -69.547      614.400       31.990      289.412   377486.834     1023.366    83759.251       23.951       23.113      110.044      420.996       14.636      331.223       -0.888      867.434
01/20/2021  02:23:00       95.356       71.451      -47.721      545.198       29.909      260.868   297241.225      894.537    68052.267       19.125       18.309      119.155      376.166        9.966      331.363       -0.659      867.420
01/20/2021  02:24:00      129.965       80.826      -44.650      507.547       25.402      243.073   257604.086      645.271    59084.395       17.131       15.867      153.048      350.485        5.244      331.736       -0.048      867.405
01/20/2021  02:25:00      143.156       76.604      -45.945      492.534       24.666      236.127   242589.536      608.394    55755.991       16.365       14.948      162.363      340.268        4.392      331.846        0.132      867.370
01/20/2021  02:26:00      112.130       59.976      -24.576      427.916       32.420      207.161   183111.691     1051.071    42915.811       12.188       11.354      127.162      296.433        5.434      331.341       -0.700      867.342
01/20/2021  02:27:00       98.590       57.013      -28.632      405.063       29.241      193.050   164076.281      855.042    37268.353       10.795       10.110      113.888      278.780        5.992      331.329       -0.721      867.318
01/20/2021  02:28:00      145.174       49.960      -57.369      565.265       21.349      269.993   319524.770      455.793    72896.189       20.979       19.644      153.530      390.089        6.456      331.602       -0.266      867.312
01/20/2021  02:29:00       83.565       37.806      -27.851      440.090       36.118      211.447   193679.139     1304.489    44709.875       12.439       11.985       91.719      303.772       10.969      331.294       -0.777      867.308
01/20/2021  02:30:00       28.796       13.826      -19.856      372.595       42.754      181.818   138826.845     1827.933    33057.913        8.753        8.686       31.944      257.349       64.904      330.832       -1.538      867.301
01/20/2021  02:31:00      120.192        9.375      -60.264      612.975       38.411      294.416   375738.499     1475.429    86680.724       24.093       23.195      120.557      423.404       12.334      331.082       -1.120      867.305
01/20/2021  02:32:00       21.576       16.155      -33.192      406.256       34.726      196.666   165043.741     1205.892    38677.645       10.333       10.246       26.954      281.052      108.728      330.754       -1.665      867.307
01/20/2021  02:33:00      120.242        7.532      -57.101      572.994       28.941      275.492   328321.980      837.604    75895.580       21.133       20.253      120.478      396.467       10.829      330.850       -1.503      867.313
01/20/2021  02:34:00       67.796       -2.364      -56.447      528.096       99.221      256.265   278884.987     9844.787    65671.687       18.102       17.720       67.837      358.091       27.864      331.045       -1.184      867.313
01/20/2021  02:35:00      -12.568        3.046      -30.160      336.845       35.200      161.756   113464.375     1239.030    26164.930        7.094        7.043       12.932      232.025      321.934      330.562       -1.982      867.301
01/20/2021  02:36:00       59.572        9.262      -89.847      706.640       34.669      338.029   499340.469     1201.931   114263.369       31.313       30.740       60.288      487.298       65.333      330.806       -1.569      867.296
01/20/2021  02:37:00      -29.392       39.761      -54.612      556.564       35.292      266.632   309763.226     1245.491    71092.384       19.368       19.105       49.445      383.367       60.114      330.438       -2.180      867.257
01/20/2021  02:38:00      -21.454       48.625      -34.925      431.762       22.968      203.910   186418.028      527.546    41579.390       11.624       11.426       53.147      295.414       30.896      330.318       -2.380      867.218
01/20/2021  02:39:00       74.194       40.694      -51.141      525.702       26.460      252.382   276362.153      700.154    63696.470       17.519       17.038       84.622      363.146       18.416      330.854       -1.498      867.185
01/20/2021  02:40:00      204.561       59.376      -84.396      697.220       27.254      333.121   486116.177      742.756   110969.544       32.503       29.891      213.004      481.218        5.104      331.683       -0.128      867.157
01/20/2021  02:41:00      134.083       58.475      -37.046      493.539       34.851      235.136   243581.206     1214.603    55288.836       16.136       15.004      146.279      339.514        5.387      331.438       -0.539      867.143
01/20/2021  02:42:00       97.057       58.024      -22.347      363.119       31.252      173.598   131855.204      976.694    30136.282        8.809        8.148      113.079      249.520        4.869      331.222       -0.897      867.131
01/20/2021  02:43:00       64.304       81.423      -10.105      246.206       31.479      116.140    60617.459      990.901    13488.604        4.297        3.755      103.753      166.869        2.587      331.131       -1.049      867.116
01/20/2021  02:44:00      112.142      106.498      -33.722      456.210       24.854      217.893   208127.765      617.698    47477.317       14.058       12.811      154.653      314.430        4.134      331.570       -0.323      867.105
01/20/2021  02:45:00      142.237      110.665      -57.197      576.627       38.749      277.109   332498.735     1501.513    76789.431       22.318       20.539      180.217      398.567        4.891      331.617       -0.240      867.103
01/20/2021  02:46:00       57.715       53.815      -38.189      484.841       44.141      228.036   235071.210     1948.386    52000.619       14.829       14.451       78.912      330.662       17.558      330.809       -1.572      867.100
01/20/2021  02:47:00       22.060       18.102      -12.386      305.850       35.648      147.877    93544.394     1270.789    21867.634        5.880        5.834       28.537      210.131       54.222      330.344       -2.339      867.082
01/20/2021  02:48:00       92.048        4.892      -66.401      581.271       30.298      277.188   337876.123      917.952    76832.974       21.418       20.781       92.178      400.557       18.883      330.564       -1.972      867.069
01/20/2021  02:49:00      143.510       26.047      -84.508      678.312       46.990      326.508   460107.446     2208.048   106607.278       29.855       28.446      145.855      469.340       10.355      331.115       -1.061      867.064
01/20/2021  02:50:00       40.763       71.301      -28.738      370.158       41.432      175.939   137016.696     1716.651    30954.501        8.859        8.484       82.130      252.105        9.422      330.996       -1.269      867.060
01/20/2021  02:51:00       49.484      146.427      -26.827      343.863       28.529      162.635   118241.479      813.930    26450.290        8.503        7.275      154.562      235.547        2.322      331.576       -0.316      867.054
01/20/2021  02:52:00       39.629      164.925      -14.862      191.660       25.542       91.679    36733.521      652.381     8404.983        3.738        2.290      169.619      131.029        0.597      331.742       -0.044      867.052
01/20/2021  02:53:00      125.619      168.422      -40.600      513.933       32.726      246.750   264127.267     1070.987    60885.699       18.587       16.304      210.110      354.612        2.848      332.043        0.458      867.046
01/20/2021  02:54:00      117.296      183.298      -33.322      494.212       43.098      238.054   244245.994     1857.466    56669.939       17.555       15.139      217.616      341.116        2.457      332.023        0.424      867.035
01/20/2021  02:55:00       94.716      155.081      -27.274      380.808      137.247      189.020   145014.700    18836.808    35728.714       11.663        9.979      181.718      245.006        1.818      331.923        0.257      867.029
01/20/2021  02:56:00      129.472      162.899      -30.320      465.564       53.315      223.630   216749.540     2842.494    50010.467       15.685       13.480      208.084      320.113        2.367      331.966        0.328      867.030
01/20/2021  02:57:00      200.734      168.143      -67.544      628.483       47.914      296.988   394990.611     2295.748    88201.990       27.921       24.274      261.852      429.851        2.695      332.232        0.774      867.023
01/20/2021  02:58:00      107.822      184.698      -37.318      383.744       43.274      185.534   147259.603     1872.648    34422.975       11.530        9.178      213.866      265.042        1.536      331.932        0.270      867.032
01/20/2021  02:59:00       75.551      178.501      -26.728      289.597       40.940      138.367    83866.224     1676.094    19145.441        7.146        5.234      193.832      197.327        1.036      331.804        0.058      867.046
01/20/2021  03:00:00      109.874      110.974      -21.962      485.499       53.604      234.609   235709.493     2873.436    55041.284       15.918       14.681      156.165      334.955        4.600      331.523       -0.400      867.057
01/20/2021  03:01:00       95.265      109.368      -19.136      461.734       53.353      222.965   213198.451     2846.509    49713.217       14.352       13.288      145.040      317.582        4.794      331.657       -0.181      867.062
01/20/2021  03:02:00       54.849       39.626      -28.623      406.310       46.534      194.057   165087.953     2165.423    37658.009       10.511       10.246       67.666      277.621       16.833      331.134       -1.041      867.074
01/20/2021  03:03:00       82.188       29.538      -45.951      505.774       41.458      236.356   255806.883     1718.734    55864.264       16.150       15.669       87.335      343.756       15.493      331.414       -0.576      867.086
01/20/2021  03:04:00       -4.244       23.427      -14.691      337.224       36.746      160.586   113720.250     1350.270    25787.880        7.079        7.043       23.808      230.463       93.700      330.830       -1.543      867.088
01/20/2021  03:05:00       94.685       29.807      -60.081      598.753       40.615      289.365   358504.599     1649.597    83732.184       22.858       22.194       99.266      414.868       17.467      331.103       -1.085      867.098
01/20/2021  03:06:00      135.460       43.626      -39.670      584.223       37.533      279.630   341316.009     1408.700    78193.063       22.128       21.046      142.311      402.636        8.005      331.603       -0.263      867.103
01/20/2021  03:07:00      109.628       24.919      -26.805      465.502       39.523      225.506   216692.481     1562.054    50853.153       14.118       13.455      112.424      322.092        8.208      331.419       -0.571      867.099
01/20/2021  03:08:00       88.871       12.456      -24.712      453.614       41.369      219.145   205765.727     1711.422    48024.550       13.203       12.775       89.740      313.227       12.183      331.391       -0.619      867.092
01/20/2021  03:09:00       77.597       19.797      -41.567      523.776       39.311      247.742   274341.311     1545.350    61375.898       17.263       16.863       80.082      358.710       20.064      331.069       -1.143      867.088
01/20/2021  03:10:00       84.544       18.445      -36.313      507.462       40.461      243.944   257517.345     1637.098    59508.710       16.367       15.933       86.532      350.174       16.376      331.035       -1.201      867.087
01/20/2021  03:11:00      100.876        9.052      -62.465      631.230       33.137      304.023   398451.173     1098.074    92430.258       25.297       24.599      101.281      437.050       18.621      331.137       -1.028      867.081
01/20/2021  03:12:00       50.209        8.773      -28.636      461.891       45.866      223.288   213342.852     2103.732    49857.412       13.430       13.265       50.970      319.196       39.218      330.771       -1.637      867.071
01/20/2021  03:13:00       84.599       -2.226      -61.690      594.240       40.057      282.886   353121.613     1604.567    80024.346       22.277       21.738       84.629      408.544       23.305      330.954       -1.331      867.066
01/20/2021  03:14:00       96.753        3.142      -48.224      548.010       37.535      261.118   300315.433     1408.852    68182.816       19.072       18.495       96.804      376.328       15.113      330.865       -1.478      867.063
01/20/2021  03:15:00       77.154       -8.510      -64.587      607.287       34.905      289.400   368797.975     1218.372    83752.552       23.189       22.688       77.622      418.036       29.004      330.806       -1.573      867.060
01/20/2021  03:16:00       52.644       -4.445      -41.044      496.851       40.846      232.603   246860.622     1668.397    54104.122       15.349       15.132       52.831      338.177       40.974      330.646       -1.839      867.043
01/20/2021  03:17:00       28.351        8.094      -33.747      458.878       30.395      218.339   210568.663      923.837    47672.107       13.053       12.958       29.484      315.243      114.319      330.541       -2.013      867.026
01/20/2021  03:18:00       73.378        0.260      -30.445      490.280       35.684      234.078   240374.610     1273.361    54792.315       15.131       14.822       73.379      336.329       21.008      330.652       -1.829      867.017
01/20/2021  03:19:00       30.062       20.924      -39.761      449.096       22.828      216.805   201687.258      521.105    47004.200       12.601       12.461       36.627      310.197       71.726      330.476       -2.118      867.017
01/20/2021  03:20:00      -20.026       32.652      -32.653      353.750       24.082      169.959   125139.122      579.932    28886.007        7.854        7.730       38.304      244.070       40.602      330.405       -2.240      866.995
01/20/2021  03:21:00       29.127       23.322      -53.119      486.408       27.017      232.171   236592.847      729.913    53903.313       14.766       14.561       37.314      335.030       80.617      330.553       -1.993      866.973
01/20/2021  03:22:00       36.149        3.549      -45.763      408.552       24.832      191.828   166914.351      616.651    36798.091       10.383       10.216       36.323      278.781       58.906      330.608       -1.903      866.962
01/20/2021  03:23:00      135.753       50.781      -48.683      579.424       33.842      278.449   335732.322     1145.269    77533.665       21.881       20.721      144.940      400.225        7.625      331.268       -0.815      866.934
01/20/2021  03:24:00       27.299      -11.335      -24.343      360.345       30.907      173.502   129848.376      955.239    30102.864        8.115        8.045       29.559      248.132       70.469      330.773       -1.635      866.915
01/20/2021  03:25:00       68.852       46.650      -26.730      454.155       34.114      222.588   206256.910     1163.756    49545.239       13.224       12.848       83.168      316.047       14.441      331.053       -1.174      866.907
01/20/2021  03:26:00      126.025       38.424      -45.658      594.245       31.851      283.247   353127.062     1014.480    80228.826       22.681       21.719      131.753      409.182        9.645      331.131       -1.041      866.904
01/20/2021  03:27:00      121.770       28.899      -42.779      542.896      126.930      265.052   294735.859    16111.192    70252.513       19.922       19.055      125.152      363.843        8.452      331.282       -0.793      866.898
01/20/2021  03:28:00       96.170       22.069      -34.978      507.265       32.879      239.876   257317.891     1081.014    57540.654       16.338       15.797       98.669      347.622       12.412      331.164       -0.988      866.903
01/20/2021  03:29:00       94.775        9.016      -33.092      459.779       31.814      217.845   211396.499     1012.157    47456.261       13.496       12.993       95.203      315.449       10.979      331.148       -1.017      866.907
01/20/2021  03:30:00      170.479       12.028      -73.971      674.366       24.142      321.604   454769.816      582.857   103428.933       29.661       27.939      170.903      465.162        7.408      331.308       -0.745      866.902
01/20/2021  03:31:00      121.454       21.541      -50.780      577.581       27.630      276.867   333599.677      763.402    76655.229       21.432       20.551      123.350      399.125       10.470      330.988       -1.274      866.898
01/20/2021  03:32:00      131.314       -5.642      -52.903      523.576       29.072      250.037   274131.936      845.160    62518.492       17.871       16.875      131.435      361.008        7.544      330.907       -1.411      866.904
01/20/2021  03:33:00      113.316      -29.459      -42.394      519.476       22.323      250.942   269855.476      498.334    62971.916       17.435       16.666      117.083      360.387        9.474      330.946       -1.346      866.890
01/20/2021  03:34:00      235.373       20.593      -95.308      740.654       42.727      356.260   548568.104     1825.620   126921.085       37.097       33.866      236.272      512.763        4.710      331.339       -0.690      866.877
01/20/2021  03:35:00      325.135       12.013     -138.436      851.544       34.152      407.166   725126.714     1166.374   165784.462       50.836       44.604      325.357      588.293        3.269      331.720       -0.059      866.856
01/20/2021  03:36:00      122.847        4.792      -40.409      482.951       23.322      230.619   233241.505      543.912    53185.289       15.180       14.349      122.940      333.108        7.341      330.888       -1.442      866.844
01/20/2021  03:37:00      180.039        8.826      -58.075      620.690       30.191      297.474   385256.116      911.474    88490.620       25.516       23.733      180.255      428.869        5.661      331.123       -1.051      866.844
01/20/2021  03:38:00      195.987       -1.584      -71.230      636.480       27.696      307.067   405106.771      767.091    94290.040       27.172       25.008      195.994      441.293        5.070      331.154       -0.999      866.851
01/20/2021  03:39:00      104.751        3.529      -38.487      481.270       20.740      230.940   231620.981      430.152    53333.433       14.886       14.269      104.811      332.856       10.086      330.921       -1.387      866.863
01/20/2021  03:40:00      155.834        4.080      -63.977      614.900       27.586      291.900   378101.786      760.966    85205.775       24.613       23.203      155.887      422.977        7.362      331.265       -0.819      866.860
01/20/2021  03:41:00      183.529       -3.570      -72.363      652.028       19.661      311.564   425140.733      386.557    97072.394       28.066       26.130      183.564      450.289        6.017      331.385       -0.619      866.850
01/20/2021  03:42:00      233.590        4.729     -106.295      761.598       22.357      364.142   580031.498      499.846   132599.166       38.936       35.657      233.638      526.238        5.073      331.567       -0.314      866.838
01/20/2021  03:43:00      179.842        4.906      -94.126      711.094       16.554      338.555   505655.319      274.027   114619.473       33.076       31.027      179.909      490.178        7.423      331.017       -1.223      866.840
01/20/2021  03:44:00      156.226        5.212      -88.645      679.098       22.001      323.615   461173.619      484.033   104726.414       29.922       28.319      156.313      467.679        8.952      330.816       -1.553      866.845
01/20/2021  03:45:00       37.694        2.057      -54.348      508.620       22.730      243.074   258694.090      516.632    59085.100       16.127       15.915       37.750      350.415       86.167      330.384       -2.269      866.852
01/20/2021  03:46:00       51.034       21.295      -64.457      604.005       27.452      286.959   364822.642      753.611    82345.419       22.747       22.396       55.299      415.616       56.487      330.374       -2.283      866.870
01/20/2021  03:47:00       83.669       29.803      -96.377      699.392       20.070      334.928   489148.607      402.793   112176.905       30.933       30.086       88.818      483.523       29.637      330.755       -1.654      866.882
01/20/2021  03:48:00        2.173       44.984      -57.427      481.154       24.431      230.339   231509.462      596.880    53055.921       14.518       14.258       45.036      331.926       54.320      330.437       -2.183      866.889
01/20/2021  03:49:00       -8.979       38.893      -33.589      412.775       39.160      196.775   170383.016     1533.470    38720.481       10.663       10.532       39.916      283.019       50.274      330.250       -2.491      866.887
01/20/2021  03:50:00       44.355       12.911      -45.811      545.268       29.878      258.951   297316.689      892.715    67055.677       18.467       18.263       46.196      374.153       65.598      330.256       -2.478      866.896
01/20/2021  03:51:00      128.260       10.059      -87.100      700.907       26.658      334.945   491270.768      710.626   112188.350       31.403       30.208      128.654      483.760       14.139      330.520       -2.038      866.905
01/20/2021  03:52:00       52.664       10.642      -68.291      609.060       25.373      289.403   370954.039      643.806    83754.172       23.135       22.768       53.728      418.686       60.726      330.428       -2.193      866.902
01/20/2021  03:53:00      112.383       16.082      -70.175      649.271       22.733      311.130   421553.203      516.801    96801.572       26.823       25.944      113.528      448.803       15.628      330.376       -2.276      866.894
01/20/2021  03:54:00       55.233       10.772      -54.991      555.620       37.591      264.675   308713.952     1413.100    70053.114       19.310       19.009       56.274      382.520       46.206      330.358       -2.311      866.875
01/20/2021  03:55:00      104.923       12.832      -52.233      542.929       20.972      258.064   294772.080      439.807    66596.832       18.778       18.090      105.705      373.490       12.484      330.484       -2.103      866.863
01/20/2021  03:56:00      186.755        0.581      -92.283      722.439       19.134      347.815   521918.610      366.126   120974.941       34.319       32.163      186.756      500.966        7.196      330.738       -1.679      866.849
01/20/2021  03:57:00      137.344       13.601      -83.030      624.789       10.836      297.747   390361.732      117.422    88653.035       25.243       23.957      138.016      431.035        9.754      330.941       -1.350      866.828
01/20/2021  03:58:00      172.523       -0.111      -68.186      610.122       23.427      294.921   372248.404      548.824    86978.238       24.700       22.989      172.523      423.154        6.016      331.325       -0.719      866.802
01/20/2021  03:59:00      318.968      -14.708     -117.537      781.578       24.380      373.429   610863.646      594.407   139449.109       43.318       37.545      319.307      539.768        2.858      331.722       -0.059      866.780
01/20/2021  04:00:00      290.757      -15.173     -122.027      765.831      138.603      369.534   586496.755    19210.900   136555.676       42.080       37.113      291.153      520.108        3.191      331.822        0.106      866.762
01/20/2021  04:01:00      155.056       -0.804      -61.730      591.934       22.494      283.526   350385.631      505.974    80386.960       22.948       21.564      155.058      409.274        6.967      331.221       -0.891      866.742
01/20/2021  04:02:00      131.713        0.868      -58.887      620.739       28.109      294.554   385317.475      790.131    86761.861       24.674       23.643      131.715      427.125       10.516      331.172       -0.971      866.726
01/20/2021  04:03:00       96.306       18.598      -33.380      468.376       23.993      224.210   219376.323      575.659    50270.071       14.042       13.511       98.085      323.419       10.872      330.865       -1.481      866.719
01/20/2021  04:04:00      101.598       23.978      -42.016      503.583       19.793      239.874   253595.425      391.756    57539.582       16.203       15.576      104.389      347.010       11.050      331.015       -1.235      866.716
01/20/2021  04:05:00      150.485       18.965      -60.439      614.129       75.877      294.026   377153.923     5757.349    86451.365       24.791       23.468      151.675      420.212        7.676      331.176       -0.965      866.717
01/20/2021  04:06:00      137.939       40.603      -55.553      565.359       24.190      269.874   319630.907      585.155    72831.876       20.832       19.652      143.790      389.700        7.345      331.130       -1.042      866.735
01/20/2021  04:07:00      104.016       31.227      -27.812      423.025       24.452      202.455   178950.528      597.917    40987.850       11.650       11.027      108.602      291.701        7.214      330.968       -1.314      866.761
01/20/2021  04:08:00      112.341       38.633      -41.738      484.095       28.512      232.563   234347.685      812.960    54085.354       15.249       14.462      118.798      334.639        7.935      331.172       -0.975      866.780
01/20/2021  04:09:00       90.687       23.132      -41.638      496.348       30.862      238.381   246361.402      952.469    56825.573       15.725       15.207       93.591      342.956       13.428      331.130       -1.045      866.793
01/20/2021  04:10:00      158.050       12.838      -95.333      711.889       32.531      341.755   506785.759     1058.241   116796.185       32.930       31.232      158.571      492.922        9.663      331.157       -0.990      866.806
01/20/2021  04:11:00       44.590      -23.348      -58.976      533.689      191.887      266.017   284824.359    36820.589    70764.781       19.913       19.620       50.333      343.181       46.488      330.465       -2.133      866.823
01/20/2021  04:12:00       33.997       22.000      -57.763      522.835       11.607      250.521   273356.390      134.712    62760.701       17.054       16.813       40.494      361.534       79.710      330.378       -2.279      866.831
01/20/2021  04:13:00       28.679       17.244      -53.455      506.515       21.306      242.074   256557.758      453.946    58599.782       15.973       15.781       33.464      349.578      109.129      330.261       -2.470      866.830
01/20/2021  04:14:00       53.995       32.297      -92.443      666.879       14.971      318.854   444726.989      224.118   101667.743       27.944       27.331       62.917      460.554       53.583      330.526       -2.031      866.832
01/20/2021  04:15:00      -32.278       27.937      -50.394      488.310       20.314      232.785   238446.832      412.642    54188.871       14.864       14.652       42.689      336.016       61.958      330.276       -2.448      866.820
01/20/2021  04:16:00      118.614       16.603     -124.091      797.234       15.765      380.222   635581.404      248.530   144568.538       40.490       39.020      119.770      550.259       21.107      330.678       -1.773      866.814
01/20/2021  04:17:00      -13.844       15.826      -55.114      502.050       26.769      238.757   252054.278      716.597    57004.915       15.656       15.489       21.027      344.944      269.127      330.180       -2.603      866.819
01/20/2021  04:18:00       31.553      -20.611      -59.216      567.658       46.715      272.801   322235.292     2182.307    74420.318       20.180       19.942       37.688      390.570      107.395      330.346       -2.330      866.817
01/20/2021  04:19:00       19.718        4.543      -49.086      570.790       36.265      271.087   325801.391     1315.127    73488.167       20.163       20.030       20.235      391.973      375.252      330.240       -2.503      866.819
01/20/2021  04:20:00       66.927       13.279      -80.277      675.716       22.563      316.857   456592.149      509.088   100398.255       28.418       27.875       68.232      461.344       45.717      330.448       -2.159      866.815
01/20/2021  04:21:00       70.810        1.738      -68.538      608.986       31.915      290.107   370864.328     1018.578    84162.300       23.278       22.802       70.831      418.434       34.898      330.461       -2.140      866.814
01/20/2021  04:22:00      121.884        6.640      -88.503      696.187       28.546      329.953   484676.177      814.877   108868.944       30.842       29.718      122.065      476.963       15.268      330.600       -1.908      866.810
01/20/2021  04:23:00       98.558       12.065      -88.522      708.140       28.266      337.372   501462.760      798.989   113819.686       31.676       30.804       99.293      487.290       24.084      330.593       -1.919      866.803
01/20/2021  04:24:00       63.913        3.202      -52.678      541.938      115.318      260.464   293696.311    13298.149    67841.290       19.077       18.742       63.993      361.659       31.940      330.406       -2.231      866.787
01/20/2021  04:25:00      159.993      -11.773      -90.876      731.805       26.258      351.055   535538.767      689.480   123239.476       34.659       32.973      160.425      505.930        9.946      330.680       -1.775      866.786
01/20/2021  04:26:00      170.407      -11.300      -95.439      736.403       26.815      354.383   542289.093      719.042   125587.508       35.329       33.430      170.781      509.820        8.912      330.701       -1.741      866.783
01/20/2021  04:27:00       35.433       12.157      -44.403      514.643       26.251      246.553   264857.785      689.111    60788.394       16.479       16.317       37.460      354.255       89.432      330.264       -2.467      866.783
01/20/2021  04:28:00       94.436        3.943      -75.842      630.062       24.492      300.601   396978.400      599.881    90360.945       25.121       24.397       94.518      434.399       21.123      330.505       -2.066      866.790
01/20/2021  04:29:00       74.028       26.010      -66.697      592.902       16.567      282.778   351532.580      274.467    79963.558       22.110       21.589       78.464      408.835       27.149      330.406       -2.230      866.802
01/20/2021  04:30:00      150.786       13.257      -92.005      738.028       17.708      349.100   544684.652      313.588   121870.752       34.898       33.343      151.368      506.906       11.215      330.547       -1.992      866.815
01/20/2021  04:31:00      106.795       25.308      -85.618      644.014       18.971      306.917   414754.091      359.901    94197.894       26.423       25.466      109.752      444.113       16.374      330.457       -2.145      866.820
01/20/2021  04:32:00       46.645       14.170      -57.319      566.898       27.351      272.328   321372.953      748.076    74162.634       20.089       19.814       48.749      392.126       64.701      330.409       -2.225      866.823
01/20/2021  04:33:00      -11.674        3.945      -47.012      522.057       18.592      246.390   272543.715      345.659    60707.926       16.791       16.680       12.323      358.116      844.535      330.418       -2.212      866.828
01/20/2021  04:34:00       62.000       19.200      -70.375      619.094       16.805      294.624   383277.129      282.398    86803.573       23.966       23.518       64.904      426.632       43.207      330.580       -1.943      866.831
01/20/2021  04:35:00       69.172       21.654      -70.925      575.853       17.354      275.049   331607.139      301.152    75651.756       20.883       20.378       72.482      397.487       30.073      330.592       -1.926      866.820
01/20/2021  04:36:00      234.812        2.206     -132.651      808.445       15.517      386.808   653583.523      240.764   149620.704       43.792       40.172      234.823      558.772        5.662      331.018       -1.217      866.817
01/20/2021  04:37:00      126.245        2.833      -90.093      676.956       14.636      322.308   458268.956      214.208   103882.370       29.309       28.118      126.276      466.875       13.670      331.051       -1.168      866.820
01/20/2021  04:38:00       13.201        1.735      -55.141      460.366      186.963      236.001   211936.630    34955.020    55696.436       15.284       15.129       13.314      292.901      483.961      330.791       -1.602      866.815
01/20/2021  04:39:00       74.807      -10.138      -61.332      543.778       15.716      259.346   295694.090      246.997    67260.144       18.625       18.160       75.491      374.955       24.670      330.612       -1.895      866.809
01/20/2021  04:40:00      108.083      -10.854      -85.391      648.631       25.617      307.902   420722.103      656.206    94803.502       26.753       25.809      108.627      446.383       16.887      330.512       -2.054      866.810
01/20/2021  04:41:00       77.285      -10.488      -76.281      639.867       23.757      305.509   409429.831      564.396    93335.763       25.751       25.166       77.993      440.999       31.972      330.341       -2.333      866.810
01/20/2021  04:42:00      116.575       -1.026     -101.734      712.212       39.922      337.366   507245.229     1593.750   113815.855       32.316       31.133      116.580      488.759       17.577      330.490       -2.088      866.797
01/20/2021  04:43:00      -86.263       42.287      -50.128      488.846       42.094      237.908   238969.961     1771.871    56600.188       15.448       14.867       96.070      337.285       12.326      329.851       -3.145      866.791
01/20/2021  04:44:00      -85.009       43.362      -25.403      418.776       42.306      192.767   175372.940     1789.792    37159.294       11.199       10.716       95.429      278.338        8.507      329.697       -3.399      866.785
01/20/2021  04:45:00      175.080       -7.865     -119.374      823.961       39.397      392.185   678912.142     1552.143   153808.975       43.944       41.714      175.257      566.059       10.432      330.518       -2.034      866.778
01/20/2021  04:46:00       87.930       -0.063      -67.847      593.045       36.514      282.885   351702.104     1333.275    80023.695       22.260       21.653       87.930      406.562       21.379      330.064       -2.790      866.762
01/20/2021  04:47:00       90.070        1.677      -96.904      699.170       26.504      332.209   488839.165      702.466   110362.758       30.858       29.995       90.086      479.667       28.351      330.308       -2.385      866.737
01/20/2021  04:48:00      122.178        7.341     -109.874      754.061       23.395      358.802   568608.637      547.332   128738.678       36.233       34.895      122.399      518.938       17.975      330.470       -2.117      866.722
01/20/2021  04:49:00       58.327       16.208      -81.350      653.099       27.574      312.100   426538.343      760.341    97406.129       26.738       26.235       60.537      450.357       55.344      330.269       -2.452      866.724
01/20/2021  04:50:00      303.514       -4.375     -152.171      903.600       21.566      431.131   816492.189      465.094   185874.020       55.885       50.142      303.545      622.693        4.208      330.855       -1.477      866.733
01/20/2021  04:51:00      240.653        8.333     -151.584      839.618       24.152      398.175   704957.861      583.316   158543.266       47.234       43.204      240.797      577.570        5.753      330.712       -1.715      866.742
01/20/2021  04:52:00      223.757       11.097     -110.421      778.843       18.747      371.004   606595.739      351.443   137643.900       40.333       37.230      224.032      537.196        5.750      330.572       -1.949      866.737
01/20/2021  04:53:00      101.630        8.734      -78.624      635.056       19.242      302.216   403295.861      370.258    91334.756       25.569       24.750      102.005      437.622       18.406      330.590       -1.927      866.727
01/20/2021  04:54:00      107.723       -9.115      -81.021      611.784       21.422      292.058   374280.168      458.892    85297.964       23.905       23.002      108.108      422.302       15.259      330.333       -2.348      866.713
01/20/2021  04:55:00      290.055       -5.286     -147.706      851.908       21.359      405.639   725746.745      456.215   164543.229       49.817       44.537      290.103      587.513        4.101      330.821       -1.537      866.703
01/20/2021  04:56:00      269.993      -13.096     -139.979      856.277       26.442      409.264   733210.047      699.155   167496.967       49.685       45.070      270.310      591.556        4.789      330.752       -1.649      866.704
01/20/2021  04:57:00      340.978      -20.133     -199.576      982.102       15.760      468.620   964524.809      248.391   219605.093       67.019       59.219      341.572      677.972        3.940      331.294       -0.750      866.710
01/20/2021  04:58:00      166.444      -18.713     -119.394      754.270       17.634      358.442   568923.985      310.951   128480.622       36.986       34.886      167.493      519.373        9.615      330.713       -1.719      866.715
01/20/2021  04:59:00      121.383       -4.583      -97.480      665.006       22.360      315.913   442232.635      499.953    99801.279       28.328       27.127      121.470      457.578       14.190      330.620       -1.876      866.718
01/20/2021  05:00:00      140.006       -5.896      -97.449      720.296       20.739      342.389   518826.860      430.099   117230.506       33.267       31.824      140.130      495.628       12.510      330.744       -1.671      866.705
01/20/2021  05:01:00      201.836       -7.539     -102.520      752.492       17.975      358.197   566244.778      323.110   128305.224       37.294       34.744      201.977      518.194        6.582      330.838       -1.511      866.686
01/20/2021  05:02:00      144.141       -8.551      -93.534      720.631       20.418      344.810   519309.656      416.887   118894.128       33.398       31.931      144.394      497.637       11.878      330.749       -1.662      866.688
01/20/2021  05:03:00       32.598        4.860      -78.686      597.618       21.542      285.826   357147.179      464.045    81696.580       22.320       21.965       32.958      412.467      156.619      330.458       -2.144      866.685
01/20/2021  05:04:00       43.947        9.177      -87.780      683.380       28.013      323.660   467008.028      784.755   104755.912       29.101       28.627       44.895      469.150      109.203      330.418       -2.206      866.689
01/20/2021  05:05:00       39.513       13.845      -81.832      749.090       32.854      352.749   561135.491     1079.379   124431.928       34.740       34.332       41.868      512.209      149.666      330.402       -2.231      866.688
01/20/2021  05:06:00       76.731       -4.631      -85.525      720.948       37.783      335.354   519765.635     1427.525   112462.512       32.330       31.683       76.871      488.052       40.310      330.363       -2.297      866.698
01/20/2021  05:07:00       57.161       -8.730      -67.159      624.499       48.096      296.568   389999.262     2313.203    87952.420       24.396       24.013       57.824      426.685       54.451      330.206       -2.558      866.712
01/20/2021  05:08:00      -38.585       11.200      -58.433      568.457       43.154      269.265   323143.721     1862.229    72503.689       20.118       19.875       40.177      389.223       93.850      330.155       -2.642      866.723
01/20/2021  05:09:00       15.554        4.454      -63.912      609.061       42.667      283.485   370955.367     1820.516    80364.021       22.865       22.657       16.179      411.317      646.323      330.241       -2.501      866.725
01/20/2021  05:10:00       52.104       -4.833      -59.889      606.784       44.767      289.385   368186.934     2004.083    83743.658       23.003       22.697       52.327      416.116       63.237      330.304       -2.398      866.729
01/20/2021  05:11:00       25.972        3.583      -71.560      607.422       31.266      289.859   368961.822      977.561    84018.364       22.978       22.698       26.218      417.658      253.780      330.344       -2.331      866.724
01/20/2021  05:12:00       67.653       25.393      -94.513      730.493       41.267      350.240   533620.145     1702.943   122667.730       33.593       32.900       72.261      503.813       48.610      330.554       -1.982      866.712
01/20/2021  05:13:00      119.224       -2.139      -98.682      722.027      161.537      351.236   521322.662    26094.343   123366.389       34.723       33.539      119.243      483.108       16.414      330.585       -1.928      866.695
01/20/2021  05:14:00      147.531       -7.595      -89.823      714.960       48.205      336.995   511168.228     2323.698   113565.748       32.834       31.353      147.727      488.816       10.949      330.497       -2.076      866.685
01/20/2021  05:15:00       14.340       17.549      -58.647      542.590       34.610      259.695   294404.391     1197.859    67441.337       18.342       18.152       22.663      372.937      270.792      330.200       -2.570      866.691
01/20/2021  05:16:00      160.900       -6.481     -113.166      778.106       36.453      370.998   605448.915     1328.823   137639.470       39.142       37.221      161.031      535.381       11.054      330.642       -1.833      866.701
01/20/2021  05:17:00      333.227      -16.343     -149.342      881.223       34.523      423.397   776553.879     1191.810   179264.989       54.511       47.851      333.627      610.193        3.345      330.940       -1.339      866.710
01/20/2021  05:18:00      192.521       -1.228     -110.517      720.049       45.492      343.803   518470.454     2069.562   118200.739       34.388       31.937      192.525      496.743        6.657      330.443       -2.162      866.723
01/20/2021  05:19:00      149.142       -6.826      -79.921      596.965       13.290      286.012   356367.692      176.614    81802.787       23.342       21.917      149.298      412.874        7.648      330.271       -2.451      866.730
01/20/2021  05:20:00      290.980       -7.640     -133.407      833.817       10.929      396.870   695250.339      119.443   157505.717       47.752       42.644      291.081      575.029        3.903      330.715       -1.711      866.740
01/20/2021  05:21:00      248.529        6.862     -130.178      836.094       18.379      401.572   699052.732      337.801   161260.322       46.952       43.033      248.624      578.878        5.421      330.846       -1.496      866.740
01/20/2021  05:22:00      180.368       -1.824      -93.086      692.954       12.765      329.083   480185.287      162.946   108295.479       31.480       29.432      180.377      477.251        7.001      330.634       -1.851      866.743
01/20/2021  05:23:00      264.069       13.657     -131.982      840.526       14.794      400.296   706483.206      218.858   160236.720       47.696       43.347      264.422      579.717        4.807      331.352       -0.662      866.758
01/20/2021  05:24:00      282.701        2.360     -127.219      813.445       15.421      388.087   661693.417      237.811   150611.235       45.415       40.627      282.711      561.666        3.947      331.268       -0.804      866.778
01/20/2021  05:25:00      248.112      -17.931     -127.179      812.398        7.777      387.247   659990.024       60.486   149960.067       44.386       40.501      248.759      560.718        5.081      330.978       -1.278      866.809
01/20/2021  05:26:00      294.078       -9.407     -143.355      859.298       11.453      408.941   738393.029      131.162   167232.672       50.625       45.288      294.228      592.594        4.056      331.155       -0.987      866.827
01/20/2021  05:27:00      304.642        5.125     -169.597      927.992       18.976      442.765   861169.049      360.085   196040.776       58.936       52.878      304.685      640.706        4.422      331.276       -0.783      866.832
01/20/2021  05:28:00      192.649        3.266     -116.110      772.700       19.000      369.170   597064.658      360.985   136286.705       39.200       36.686      192.677      533.823        7.676      330.602       -1.899      866.825
01/20/2021  05:29:00      139.757      -10.959     -100.779      716.965       18.154      341.505   514038.119      329.561   116625.753       33.027       31.550      140.186      494.325       12.434      330.251       -2.479      866.817
01/20/2021  05:30:00      116.251       -8.044     -122.896      730.053       30.139      348.366   532977.490      908.358   121359.084       34.182       32.762      116.529      503.725       18.686      330.329       -2.349      866.814
01/20/2021  05:31:00      108.553       34.207     -127.593      793.725       13.768      376.938   629999.707      189.567   142081.890       40.059       38.614      113.815      546.627       23.067      330.426       -2.187      866.817
01/20/2021  05:32:00       36.635       17.069      -85.470      633.636       10.896      302.151   401494.186      118.716    91295.195       25.082       24.645       40.416      437.305      117.075      330.248       -2.487      866.834
01/20/2021  05:33:00      190.185       13.825     -117.511      841.871      131.665      410.087   708747.349    17335.643   168171.049       47.202       44.713      190.687      577.304        9.166      330.701       -1.733      866.832
01/20/2021  05:34:00      109.678       -1.884      -83.355      681.017       24.543      327.201   463784.006      602.344   107060.522       29.509       28.572      109.695      470.798       18.420      330.359       -2.302      866.823
01/20/2021  05:35:00       81.856      -13.574      -89.170      653.341      117.220      315.675   426854.045    13740.491    99650.511       27.743       27.012       82.974      442.429       28.432      330.390       -2.253      866.817
01/20/2021  05:36:00       13.076       18.987      -58.061      490.379       18.596      231.422   240471.912      345.822    53556.143       14.908       14.719       23.054      336.361      212.874      330.061       -2.798      866.820
01/20/2021  05:37:00       58.267       15.472      -90.236      678.540       15.148      323.848   460416.278      229.450   104877.562       28.853       28.276       60.286      468.258       60.330      330.213       -2.541      866.825
01/20/2021  05:38:00       76.674        1.950      -87.022      668.429       24.161      320.215   446797.559      583.752   102537.563       28.157       27.496       76.698      461.851       36.260      330.163       -2.624      866.832
01/20/2021  05:39:00      143.600       13.929     -127.038      791.854       20.465      376.127   627032.239      418.811   141471.271       40.277       38.446      144.274      544.888       14.264      330.456       -2.139      866.842
01/20/2021  05:40:00       10.204       16.624      -82.384      667.762       28.718      315.437   445906.644      824.697    99500.657       27.658       27.312       19.506      457.800      550.803      330.023       -2.854      866.852
01/20/2021  05:41:00       63.839       39.234     -120.773      761.070       21.401      360.875   579227.043      458.004   130230.635       36.491       35.496       74.931      523.475       48.806      330.260       -2.462      866.859
01/20/2021  05:42:00       78.438       26.860     -105.923      726.514       41.035      345.479   527822.942     1683.874   119355.837       33.334       32.443       82.910      498.337       36.127      330.090       -2.743      866.866
01/20/2021  05:43:00       86.488       21.682     -129.465      793.664      133.627      379.288   629903.216    17856.155   143859.098       40.800       39.581       89.165      536.865       36.253      330.193       -2.571      866.879
01/20/2021  05:44:00      191.559       -2.176     -113.303      762.954      125.944      365.406   582099.443    15861.990   133521.346       39.036       36.574      191.571      515.570        7.243      330.138       -2.662      866.890
01/20/2021  05:45:00      344.301      -14.465     -146.624      917.356       91.760      426.818   841541.749     8419.913   182173.390       58.598       51.607      344.605      621.843        3.256      330.530       -2.009      866.892
01/20/2021  05:46:00      238.643       -1.830     -127.118      795.060       40.482      379.196   632120.364     1638.802   143789.230       42.516       38.877      238.650      548.015        5.273      330.216       -2.533      866.886
01/20/2021  05:47:00      200.810       -8.203     -123.175      807.142       24.785      384.417   651478.086      614.302   147776.066       42.755       39.993      200.978      555.874        7.650      330.198       -2.561      866.886
01/20/2021  05:48:00      366.602       -8.162     -203.171      976.621       28.322      463.405   953789.275      802.157   214743.934       67.229       58.467      366.693      671.386        3.352      330.791       -1.579      866.884
01/20/2021  05:49:00      196.407       26.907     -129.770      824.450       20.091      391.434   679717.314      403.632   153220.777       44.456       41.667      198.241      566.664        8.171      330.332       -2.337      866.887
01/20/2021  05:50:00      283.747       -8.619     -172.670      898.915       33.781      431.054   808048.431     1141.173   185807.663       55.249       49.750      283.878      621.868        4.799      330.861       -1.468      866.882
01/20/2021  05:51:00      314.183        5.436     -149.934      905.975       16.592      431.550   820790.934      275.309   186235.375       56.405       50.365      314.230      625.053        3.957      330.632       -1.844      866.888
01/20/2021  05:52:00      192.253      -18.380     -108.357      712.778       17.455      340.959   508053.135      304.680   116253.266       33.669       31.231      193.130      492.691        6.508      330.601       -1.906      866.887
01/20/2021  05:53:00      191.697      -13.571     -107.801      767.085       14.953      368.109   588418.952      223.586   135504.570       38.620       36.207      192.177      530.774        7.628      331.120       -1.049      866.877
01/20/2021  05:54:00      144.913      -11.477     -111.964      720.533       19.635      344.989   519168.363      385.541   119017.129       33.598       31.929      145.367      497.844       11.729      330.430       -2.185      866.859
01/20/2021  05:55:00      146.649       -6.603     -111.559      723.936       22.646      345.340   524083.917      512.825   119259.884       33.879       32.193      146.798      499.652       11.585      330.308       -2.385      866.850
01/20/2021  05:56:00      178.444       -6.952     -123.079      797.165       17.942      380.280   635472.230      321.906   144612.897       41.355       39.020      178.579      550.291        9.496      330.518       -2.036      866.846
01/20/2021  05:57:00       -2.060        4.245      -47.381      506.318        8.994      241.415   256358.314       80.886    58281.036       15.843       15.736        4.719      349.194     5476.713      329.947       -2.985      866.841
01/20/2021  05:58:00      176.437       12.853     -125.406      817.088        6.940      389.493   667632.071       48.164   151704.569       43.302       40.969      176.905      563.938       10.162      330.627       -1.855      866.854
01/20/2021  05:59:00       67.486       12.403      -71.483      578.507       10.437      275.732   334670.088      108.939    76028.363       21.022       20.540       68.616      399.249       33.856      330.279       -2.439      866.854
01/20/2021  06:00:00      163.773       -0.647     -121.668      785.872      143.137      381.165   617595.395    20488.066   145286.513       41.233       39.168      163.774      533.342       10.605      330.648       -1.823      866.873
01/20/2021  06:01:00      190.809       -5.590      -96.807      724.990       16.604      345.175   525610.788      275.700   119145.609       34.529       32.252      190.891      499.928        6.859      330.455       -2.143      866.875
01/20/2021  06:02:00      356.336        3.338     -166.996      949.523        6.291      453.847   901593.177       39.576   205976.711       63.101       55.380      356.352      656.233        3.391      331.010       -1.219      866.869
01/20/2021  06:03:00      260.611        3.269     -149.392      859.809        7.542      411.598   739270.671       56.879   169412.880       49.930       45.437      260.631      594.513        5.203      330.866       -1.462      866.868
01/20/2021  06:04:00      199.948       -5.684     -114.194      798.353       12.538      382.241   637368.002      157.190   146108.426       41.818       39.182      200.029      552.115        7.619      330.664       -1.796      866.855
01/20/2021  06:05:00      185.014       -8.145     -109.668      769.971       13.934      367.055   592854.799      194.160   134729.244       38.690       36.389      185.193      531.235        8.229      330.549       -1.987      866.853
01/20/2021  06:06:00      111.348       -1.938      -84.245      662.328       17.013      315.456   438678.593      289.458    99512.403       27.888       26.924      111.365      456.579       16.809      330.302       -2.397      866.851
01/20/2021  06:07:00      250.008      -13.007     -125.932      833.081       19.818      397.936   694024.116      392.769   158352.705       46.547       42.638      250.347      574.837        5.272      330.607       -1.888      866.853
01/20/2021  06:08:00      199.202       -4.278     -113.629      789.511       22.606      378.105   623328.376      511.035   142963.020       40.954       38.340      199.248      545.457        7.494      330.466       -2.122      866.863
01/20/2021  06:09:00      150.016       10.187      -99.756      751.040       24.455      353.768   564061.821      598.053   125151.574       36.104       34.491      150.361      513.416       11.659      330.219       -2.530      866.865
01/20/2021  06:10:00      199.036        3.070     -155.528      857.384       25.352      409.420   735107.822      642.723   167624.526       48.340       45.169      199.059      591.579        8.832      330.544       -1.990      866.857
01/20/2021  06:11:00      145.257        6.735     -112.395      769.575       31.482      368.952   592246.045      991.121   136125.460       38.141       36.468      145.414      531.709       13.370      330.257       -2.466      866.856
01/20/2021  06:12:00      136.084        3.677     -127.702      804.668      189.335      388.244   647490.359    35847.727   150733.150       43.428       41.704      136.134      535.967       15.500      330.447       -2.151      866.861
01/20/2021  06:13:00       82.511        5.060      -90.937      727.355       33.798      347.436   529045.534     1142.277   120711.598       33.286       32.545       82.666      501.289       36.773      330.186       -2.585      866.861
01/20/2021  06:14:00      181.233       24.811     -156.809      919.308       24.191      439.272   845127.335      585.227   192959.695       54.814       51.934      182.924      634.639       12.037      330.549       -1.977      866.847
01/20/2021  06:15:00      133.301       19.279     -145.651      910.866       28.430      433.575   829677.709      808.262   187987.232       52.870       50.924      134.688      627.470       21.703      330.465       -2.117      866.843
01/20/2021  06:16:00      132.308       10.662     -125.830      804.558       23.220      384.580   647314.109      539.153   147901.876       41.444       39.788      132.736      555.129       17.491      330.283       -2.421      866.846
01/20/2021  06:17:00      218.548        6.345     -121.768      823.991       28.666      393.021   678960.437      821.756   154465.258       44.827       41.712      218.640      567.994        6.749      330.303       -2.387      866.847
01/20/2021  06:18:00      245.568      -24.381     -159.383      926.755       30.538      445.338   858874.874      932.591   198325.713       57.199       52.907      246.775      641.184        6.751      330.663       -1.790      866.844
01/20/2021  06:19:00      296.812       13.147     -165.538      939.731       25.811      447.751   883093.712      666.208   200480.616       59.973       54.212      297.103      647.783        4.754      330.694       -1.738      866.848
01/20/2021  06:20:00      319.315       -2.798     -182.870      977.356       30.668      471.630   955224.768      940.553   222435.257       65.675       58.930      319.327      677.968        4.508      330.883       -1.426      866.861
01/20/2021  06:21:00      154.821       18.996      -91.103      710.708       19.509      338.391   505105.690      380.591   114508.455       32.618       31.000      155.982      489.401        9.844      330.203       -2.560      866.877
01/20/2021  06:22:00      103.402       25.622     -109.161      757.375       14.998      361.869   573616.213      224.949   130949.468       36.388       35.240      106.529      522.915       24.095      330.144       -2.651      866.894
01/20/2021  06:23:00      237.790        6.423     -168.004      949.545       17.391      451.634   901634.863      302.447   203973.697       59.512       55.296      237.877      654.502        7.570      330.666       -1.785      866.914
01/20/2021  06:24:00       66.986        3.856      -93.231      692.729       20.952      329.570   479873.656      438.970   108616.675       30.094       29.446       67.097      477.470       50.639      330.096       -2.734      866.909
01/20/2021  06:25:00      110.719       10.668      -98.799      711.419       20.142      341.286   506117.511      405.700   116476.312       32.243       31.150      111.232      491.837       19.552      330.102       -2.724      866.902
01/20/2021  06:26:00      153.087       -6.601     -122.188      791.774       22.297      375.751   626905.318      497.170   141188.876       40.334       38.430      153.229      544.663       12.635      330.311       -2.376      866.881
01/20/2021  06:27:00      145.093       -2.676     -104.412      796.360       18.987      377.936   634189.446      360.506   142835.953       40.451       38.869      145.118      548.065       14.263      330.273       -2.439      866.862
01/20/2021  06:28:00      183.270       -2.091     -141.125      850.288      186.547      413.276   722989.176    34799.833   170797.237       49.085       46.429      183.282      571.439        9.721      330.394       -2.236      866.834
01/20/2021  06:29:00      252.811       21.283     -164.966      940.669       19.296      447.500   884857.749      372.351   200255.897       58.830       54.274      253.705      648.372        6.531      330.540       -1.992      866.817
01/20/2021  06:30:00      199.179       26.849     -143.156      840.368       17.576      401.524   706218.175      308.933   161221.633       46.413       43.387      200.980      580.606        8.346      330.287       -2.412      866.809
01/20/2021  06:31:00      114.092        3.281      -93.506      671.489       13.934      320.830   450897.807      194.155   102931.676       28.778       27.701      114.139      463.573       16.496      330.038       -2.829      866.798
01/20/2021  06:32:00      140.922       20.887     -117.800      767.871       14.883      367.040   589625.872      221.507   134718.288       37.921       36.228      142.462      530.578       13.871      330.183       -2.588      866.779
01/20/2021  06:33:00      215.273       26.132     -145.429      831.985       10.752      398.681   692199.815      115.604   158946.728       45.954       42.563      216.853      575.663        7.047      330.371       -2.277      866.765
01/20/2021  06:34:00      151.553       16.091     -115.986      775.315       10.123      370.428   601113.770      102.483   137216.776       38.740       36.922      152.405      535.640       12.352      330.117       -2.694      866.751
01/20/2021  06:35:00      330.044       10.395     -195.090      970.207        7.718      463.449   941301.380       59.571   214784.914       65.138       57.807      330.208      670.353        4.121      330.820       -1.532      866.738
01/20/2021  06:36:00      255.931       24.118     -173.676      905.069      160.863      433.660   819149.794    25876.759   188060.843       56.445       51.654      257.065      611.709        5.662      330.609       -1.880      866.723
01/20/2021  06:37:00      394.809        3.149     -228.920     1010.070       15.055      482.911  1020241.567      226.640   233202.862       73.071       62.684      394.822      698.128        3.127      331.033       -1.179      866.720
01/20/2021  06:38:00      305.465       -7.565     -184.271      937.306      101.356      446.495   878542.274    10273.084   199358.007       60.752       54.409      305.558      640.900        4.399      330.660       -1.794      866.714
01/20/2021  06:39:00      177.897        9.324     -123.744      791.807       18.710      377.769   626958.988      350.074   142709.640       40.837       38.501      178.142      546.596        9.415      330.130       -2.672      866.720
01/20/2021  06:40:00      240.547        7.757     -152.984      878.244       16.169      420.631   771313.159      261.421   176930.431       51.471       47.425      240.672      607.427        6.370      330.348       -2.311      866.722
01/20/2021  06:41:00      221.008       27.819     -145.888      863.148       14.701      410.494   745024.212      216.109   168505.161       49.213       45.687      222.752      594.956        7.134      330.263       -2.452      866.720
01/20/2021  06:42:00      263.036       22.936     -157.995      891.474       10.367      425.982   794726.036      107.468   181460.940       53.528       48.815      264.034      615.901        5.441      330.400       -2.225      866.713
01/20/2021  06:43:00      211.078       15.471     -138.336      824.053       10.912      393.769   679062.897      119.069   155053.964       44.890       41.712      211.644      569.340        7.237      330.206       -2.546      866.701
01/20/2021  06:44:00      221.326       15.278     -147.681      847.117       19.717      402.537   717607.090      388.773   162035.926       47.534       44.002      221.852      583.599        6.920      330.282       -2.421      866.699
01/20/2021  06:45:00      173.052       35.609     -147.436      857.388      102.044      407.296   735114.814    10412.915   165890.143       48.199       45.571      176.677      584.110       10.930      330.324       -2.352      866.690
01/20/2021  06:46:00      262.786       -0.124     -184.812      909.533      164.458      434.605   827250.424    27046.543   188881.219       57.298       52.159      262.786      613.251        5.446      330.528       -2.012      866.682
01/20/2021  06:47:00      178.508       11.130     -152.567      844.025       19.397      402.815   712378.828      376.234   162259.879       46.496       43.751      178.854      582.565       10.609      330.213       -2.534      866.675
01/20/2021  06:48:00      334.425       12.368     -219.067     1051.478       31.425      493.963  1105606.214      987.501   243999.222       75.500       67.530      334.653      719.834        4.627      330.719       -1.691      866.670
01/20/2021  06:49:00      190.374       31.107     -160.736      907.367       19.172      432.311   823314.368      367.569   186892.872       53.660       50.529      192.899      625.714       10.522      330.216       -2.525      866.673
01/20/2021  06:50:00      266.044       19.452     -187.372      978.808       21.686      466.113   958066.007      470.304   217261.435       64.078       58.790      266.755      674.849        6.400      330.437       -2.159      866.686
01/20/2021  06:51:00      377.013        3.906     -220.679     1064.222       23.299      501.744  1132568.463      542.833   251747.318       78.756       69.243      377.033      729.919        3.748      330.768       -1.610      866.693
01/20/2021  06:52:00      408.528        0.262     -215.770     1034.051       21.975      495.089  1069261.840      482.906   245113.497       76.388       65.743      408.528      714.927        3.063      330.712       -1.703      866.690
01/20/2021  06:53:00      347.308       18.050     -201.847      998.262       15.478      474.947   996527.480      239.566   225574.533       69.176       61.117      347.776      688.152        3.915      330.615       -1.866      866.683
01/20/2021  06:54:00      325.812       12.918     -202.136      987.437       14.095      469.010   975031.597      198.676   219970.790       67.093       59.760      326.068      680.211        4.352      330.511       -2.038      866.677
01/20/2021  06:55:00      286.693       -0.143     -189.188      911.542       50.488      439.185   830908.854     2548.989   192883.327       57.195       51.317      286.693      631.123        4.846      330.349       -2.307      866.675
01/20/2021  06:56:00      394.942        4.954     -207.531     1016.164       24.949      484.473  1032589.637      622.451   234714.489       73.323       63.396      394.973      701.138        3.151      330.584       -1.915      866.677
01/20/2021  06:57:00      310.275        5.895     -165.080      888.120       13.753      425.848   788756.270      189.133   181346.589       54.672       48.515      310.331      614.152        3.917      330.280       -2.423      866.691
01/20/2021  06:58:00      378.723       -4.738     -212.528     1007.663       30.368      478.892  1015384.622      922.205   229337.786       71.686       62.282      378.753      694.191        3.359      330.670       -1.774      866.709
01/20/2021  06:59:00      276.435      -11.274     -165.430      896.341       19.374      429.284   803427.808      375.367   184284.463       54.579       49.404      276.665      619.811        5.019      330.241       -2.484      866.734
01/20/2021  07:00:00      244.021       13.163     -151.001      889.981       15.768      424.673   792065.426      248.638   180346.756       52.739       48.633      244.376      614.323        6.319      330.163       -2.612      866.750
01/20/2021  07:01:00      289.535       15.697     -168.127      934.052       12.595      446.545   872452.544      158.633   199402.786       59.196       53.601      289.960      645.568        4.957      330.366       -2.277      866.741
01/20/2021  07:02:00      389.239       12.673     -223.042     1035.606       12.335      494.624  1072479.354      152.147   244652.794       75.907       65.864      389.445      715.462        3.375      330.755       -1.633      866.730
01/20/2021  07:03:00      308.752        9.857     -185.985      979.197       14.868      467.656   958827.477      221.057   218702.377       65.363       58.888      308.910      676.353        4.794      330.442       -2.149      866.724
01/20/2021  07:04:00      413.173      -11.047     -205.773     1018.656      112.301      492.545  1037659.271    12611.624   242600.694       75.275       64.644      413.320      701.729        2.882      330.742       -1.655      866.711
01/20/2021  07:05:00      328.412       20.527     -197.531      957.814      104.901      457.541   917408.440    11004.238   209343.405       64.228       56.888      329.053      656.176        3.977      330.591       -1.908      866.712
01/20/2021  07:06:00      311.046       11.861     -187.654      939.793       74.791      451.333   883211.728     5593.707   203701.087       61.208       54.625      311.272      647.940        4.333      330.550       -1.976      866.709
01/20/2021  07:07:00      256.376        7.693     -167.796      923.487       15.881      439.572   852827.449      252.215   193223.833       56.990       52.315      256.492      636.863        6.165      330.476       -2.099      866.708
01/20/2021  07:08:00      304.818        3.248     -173.991      923.170       12.584      441.824   852243.469      158.350   195208.270       58.518       52.381      304.835      638.244        4.384      330.490       -2.075      866.722
01/20/2021  07:09:00      293.831        5.876     -191.480      956.344      142.153      454.906   914594.517    20207.488   206939.033       63.214       57.087      293.889      648.081        4.863      330.536       -1.998      866.729
01/20/2021  07:10:00      272.814       37.939     -188.022      974.083       84.602      464.391   948838.319     7157.550   215659.377       64.119       58.583      275.439      668.329        5.887      330.407       -2.209      866.719
01/20/2021  07:11:00      327.192       15.835     -204.322     1004.734       22.148      482.582  1009489.859      490.539   232885.663       69.570       62.143      327.575      695.747        4.511      330.575       -1.931      866.729
01/20/2021  07:12:00      431.864       -5.277     -236.447     1065.196       25.198      508.235  1134642.190      634.941   258303.049       81.772       69.679      431.896      734.611        2.893      330.854       -1.468      866.753
01/20/2021  07:13:00      252.767       -7.116     -138.960      859.658       20.848      408.535   739012.067      434.642   166900.830       49.461       45.317      252.867      591.890        5.479      330.170       -2.604      866.771
01/20/2021  07:14:00      314.424        5.606     -196.716      989.328       18.189      472.840   978770.442      330.839   223577.810       66.988       60.134      314.473      683.249        4.721      330.458       -2.123      866.789
01/20/2021  07:15:00      245.930       20.976     -149.158      882.761      134.691      428.027   779266.546    18141.628   183206.839       53.169       49.031      246.823      603.525        5.979      330.230       -2.503      866.789
01/20/2021  07:16:00      414.467       11.466     -229.642     1037.974       11.630      496.279  1077389.662      135.259   246293.015       77.395       66.191      414.626      717.441        2.994      330.854       -1.471      866.787
01/20/2021  07:17:00      350.851        4.649     -198.864     1049.524       12.374      502.949  1101501.575      153.125   252957.467       75.835       67.731      350.881      725.862        4.279      330.650       -1.803      866.780
01/20/2021  07:18:00      276.052        6.054     -182.874      989.767       22.243      475.446   979638.511      494.740   226048.866       65.768       60.309      276.119      685.167        6.157      330.538       -1.992      866.769
01/20/2021  07:19:00      218.297        4.868     -163.620      898.234       16.437      430.151   806824.375      270.160   185029.788       53.308       49.606      218.352      620.872        8.085      330.344       -2.316      866.765
01/20/2021  07:20:00      197.925       13.493     -146.028      915.291       19.830      433.360   837757.526      393.226   187800.831       54.310       51.298      198.384      629.128       10.057      330.258       -2.455      866.770
01/20/2021  07:21:00      287.703        8.378     -179.138      988.519       67.699      468.818   977169.796     4583.121   219790.620       65.798       60.077      287.825      677.921        5.548      330.466       -2.110      866.770
01/20/2021  07:22:00      329.845        6.290     -207.900     1037.902       23.542      492.536  1077239.711      554.213   242591.929       73.594       66.019      329.905      714.466        4.690      330.588       -1.907      866.767
01/20/2021  07:23:00      247.241        6.643     -169.432      952.101       18.560      454.158   906497.161      344.477   206259.836       60.125       55.655      247.330      656.981        7.056      330.333       -2.330      866.751
01/20/2021  07:24:00      380.876        9.101     -206.395     1036.617      102.936      502.715  1074575.321    10595.749   252722.675       76.254       66.895      380.985      716.210        3.534      330.830       -1.506      866.733
01/20/2021  07:25:00      229.222       18.284     -160.922      891.563       15.902      423.574   794884.312      252.859   179414.693       52.645       48.728      229.950      614.216        7.135      330.300       -2.388      866.720
01/20/2021  07:26:00      161.359        9.475     -124.534      847.674       16.112      403.702   718551.912      259.589   162975.610       46.153       44.089      161.637      584.388       13.071      330.147       -2.642      866.714
01/20/2021  07:27:00      220.286       -7.186     -173.151      921.616      226.595      503.745   849376.857    51345.093   253759.374       61.628       57.724      220.403      660.617        8.984      330.519       -2.018      866.714
01/20/2021  07:28:00      139.452        8.588     -113.447      804.885       23.678      385.095   647840.518      560.643   148297.951       41.437       39.835      139.716      555.918       15.832      330.034       -2.828      866.713
01/20/2021  07:29:00      196.927       31.532     -159.190      907.432      132.679      435.079   823432.814    17603.713   189293.729       54.750       51.517      199.436      618.317        9.612      330.307       -2.376      866.714
01/20/2021  07:30:00      237.977        5.782     -145.595      846.237      155.668      434.281   716116.732    24232.642   188600.202       50.321       46.447      238.047      594.019        6.227      330.242       -2.480      866.707
01/20/2021  07:31:00      141.546       18.569     -129.025      809.051       29.481      384.785   654563.067      869.140   148059.594       42.009       40.175      142.759      556.438       15.192      330.061       -2.786      866.715
01/20/2021  07:32:00      186.812        3.519     -120.648      764.232       31.306      365.630   584051.025      980.059   133685.535       38.394       35.936      186.845      527.424        7.968      330.078       -2.757      866.730
01/20/2021  07:33:00      124.287        2.481     -115.306      735.735      214.968      359.988   541306.009    46211.056   129591.546       37.278       35.855      124.311      482.119       15.041      329.931       -3.001      866.743
01/20/2021  07:34:00      193.467       -4.685     -108.543      748.912       18.904      359.704   560869.006      357.345   129387.012       36.977       34.531      193.524      518.480        7.178      330.032       -2.836      866.770
01/20/2021  07:35:00      112.472       -3.427      -95.728      634.119       21.737      302.085   402107.490      472.516    91255.496       25.773       24.692      112.524      436.905       15.076      329.887       -3.078      866.771
01/20/2021  07:36:00      120.620       23.580     -117.056      734.840       17.276      351.977   539989.709      298.452   123887.690       34.635       33.209      122.903      508.104       17.092      329.954       -2.963      866.762
01/20/2021  07:37:00      119.282       13.506     -105.065      704.136       24.411      335.559   495807.201      595.879   112599.769       31.709       30.450      120.044      485.244       16.339      329.919       -3.024      866.748
01/20/2021  07:38:00      161.555        3.371      -71.217      676.345       28.311      326.985   457442.839      801.516   106919.262       29.805       28.258      161.590      469.461        8.441      329.924       -3.016      866.740
01/20/2021  07:39:00       57.938        1.048      -70.969      573.438       25.332      272.981   328831.512      641.714    74518.550       20.611       20.200       57.947      394.034       46.239      329.733       -3.334      866.724
01/20/2021  07:40:00       67.724        5.208      -55.178      559.845       38.753      270.749   313426.505     1501.758    73304.981       19.786       19.412       67.923      387.209       32.498      329.713       -3.366      866.709
01/20/2021  07:41:00       70.746        0.296      -41.532      510.591       34.687      242.291   260703.339     1203.203    58704.899       16.360       16.031       70.747      348.924       24.325      329.667       -3.444      866.703
01/20/2021  07:42:00      132.553       10.715     -103.212      705.108       36.720      338.559   497176.878     1348.338   114622.229       32.061       30.657      132.985      487.480       13.437      329.966       -2.946      866.700
01/20/2021  07:43:00      202.226       23.967     -116.396      808.025       34.239      385.338   652904.665     1172.322   148485.066       42.862       40.128      203.641      557.031        7.482      330.154       -2.633      866.698
01/20/2021  07:44:00      179.916       12.104      -81.754      709.521       39.335      341.225   503419.608     1547.271   116434.634       33.017       31.070      180.322      490.386        7.396      330.085       -2.752      866.694
01/20/2021  07:45:00      189.937       24.982      -89.880      713.243       47.637      341.303   508715.481     2269.244   116487.422       33.599       31.374      191.572      491.842        6.592      330.155       -2.636      866.695
01/20/2021  07:46:00      108.229       33.540      -87.139      715.935       40.153      342.728   512562.905     1612.250   117462.554       32.590       31.582      113.307      494.036       19.011      329.945       -2.979      866.697
01/20/2021  07:47:00       57.214       22.654      -55.867      559.298       48.723      271.442   312814.626     2373.947    73680.802       19.781       19.443       61.535      387.529       39.661      329.823       -3.187      866.696
01/20/2021  07:48:00       38.297       34.868      -23.382      485.187       50.161      231.288   235406.801     2516.151    53494.031       14.726       14.571       51.792      331.706       41.018      329.724       -3.352      866.701
01/20/2021  07:49:00       28.888       32.617      -39.854      524.233       42.442      249.375   274819.884     1801.358    62187.861       17.108       16.940       43.570      359.469       68.067      329.702       -3.387      866.703
01/20/2021  07:50:00       55.584       27.073      -43.402      563.454       50.665      270.854   317479.884     2566.964    73361.847       19.947       19.670       61.827      387.868       39.357      329.942       -2.992      866.700
01/20/2021  07:51:00        1.018       30.466      -32.370      422.664       45.252      205.917   178644.678     2047.749    42401.871       11.249       11.155       30.483      292.580       92.124      329.800       -3.230      866.699
01/20/2021  07:52:00       22.521       35.785      -16.660      410.505       49.343      199.831   168514.233     2434.770    39932.586       10.643       10.544       42.281      283.318       44.900      329.949       -2.985      866.694
01/20/2021  07:53:00       62.551       40.116      -46.570      589.782       57.047      277.001   347843.061     3254.375    76729.814       21.767       21.391       74.310      400.946       29.112      330.287       -2.425      866.692
01/20/2021  07:54:00       31.548       17.738      -24.430      428.917       44.832      206.729   183970.096     2009.950    42736.705       11.526       11.436       36.193      294.978       66.427      330.081       -2.768      866.695
01/20/2021  07:55:00       88.528       10.125      -27.356      487.658       49.729      235.693   237809.967     2472.962    55551.251       15.220       14.792       89.105      336.183       14.235      330.195       -2.581      866.694
01/20/2021  07:56:00       78.943       39.904      -14.018      477.804       72.407      231.133   228296.979     5242.787    53422.584       14.743       14.348       88.455      326.774       13.647      330.189       -2.589      866.696
01/20/2021  07:57:00      -46.546       34.317        5.375      213.571       52.840      100.052    45612.489     2792.073    10010.315        3.088        2.921       57.829      138.916        5.771      329.793       -3.243      866.703
01/20/2021  07:58:00       43.299       10.925      -17.055      446.621       51.398      217.508   199470.477     2641.757    47309.945       12.580       12.471       44.656      307.485       47.413      330.061       -2.798      866.710
01/20/2021  07:59:00       15.895        7.890      -20.003      436.162       53.125      211.465   190237.146     2822.251    44717.613       11.920       11.889       17.746      300.124      286.030      330.063       -2.796      866.725
01/20/2021  08:00:00       91.829       19.077      -58.339      665.110      100.393      323.910   442371.330    10078.790   104917.438       28.467       27.868       93.790      455.420       23.578      330.392       -2.250      866.730
01/20/2021  08:01:00       19.315       27.147      -13.747      411.835       48.931      195.435   169607.700     2394.253    38194.947       10.570       10.510       33.317      279.263       70.257      330.052       -2.816      866.730
01/20/2021  08:02:00      -51.505       21.410        5.361      220.956       39.691      106.781    48821.738     1575.350    11402.267        3.246        3.090       55.778      149.248        7.160      329.844       -3.161      866.734
01/20/2021  08:03:00       12.788       11.178       -9.271      350.930       43.456      168.817   123151.968     1888.441    28499.279        7.692        7.677       16.985      239.395      198.660      330.141       -2.669      866.726
01/20/2021  08:04:00       91.195       16.054      -27.337      539.489       44.784      262.953   291047.979     2005.567    69144.030       18.568       18.110       92.597      374.732       16.377      330.463       -2.138      866.709
01/20/2021  08:05:00       94.210       -0.326      -36.201      531.028       35.847      252.173   281990.569     1284.981    63591.248       17.845       17.343       94.210      364.466       14.966      330.648       -1.835      866.687
01/20/2021  08:06:00       35.639        0.190      -20.906      363.982       22.783      174.819   132482.915      519.061    30561.623        8.260        8.178       35.640      251.266       49.705      330.377       -2.284      866.660
01/20/2021  08:07:00       20.026       19.911      -23.785      354.661       27.286      169.650   125784.179      744.521    28781.210        7.830        7.765       28.240      244.204       74.776      330.325       -2.370      866.657
01/20/2021  08:08:00       -4.725        8.165      -16.617      250.615       21.939      120.209    62808.110      481.318    14450.162        3.904        3.887        9.434      172.504      334.377      330.284       -2.439      866.649
01/20/2021  08:09:00       17.330       -1.132      -22.228      408.692       30.323      194.161   167029.154      919.511    37698.667       10.318       10.282       17.367      280.352      260.582      330.297       -2.416      866.646
01/20/2021  08:10:00       -1.764        9.151      -26.301      369.189       24.505      178.675   136300.203      600.489    31924.907        8.477        8.441        9.319      256.001      754.637      330.255       -2.486      866.652
01/20/2021  08:11:00       -4.781      -11.037      -16.539      334.205       32.502      162.073   111693.014     1056.409    26267.509        6.969        6.951       12.028      230.864      368.383      330.172       -2.621      866.660
01/20/2021  08:12:00      -87.524        1.760       -6.803       35.823       31.189       19.124     1283.288      972.736      365.711        0.517        0.131       87.542       20.576        0.055      330.090       -2.761      866.663
01/20/2021  08:13:00      -12.119        6.683      -11.922      260.210       30.349      122.315    67709.444      921.034    14960.912        4.194        4.180       13.840      176.232      162.145      330.300       -2.414      866.675
01/20/2021  08:14:00       12.369       31.705      -42.956      507.984       32.182      242.869   258047.941     1035.659    58985.131       16.047       15.903       34.033      350.292      105.943      330.431       -2.191      866.677
01/20/2021  08:15:00      -54.635       30.184       -8.521      273.173       29.701      130.769    74623.745      882.179    17100.611        4.827        4.630       62.418      186.455        8.923      330.213       -2.555      866.684
01/20/2021  08:16:00      -11.844       21.097      -31.622      401.506       25.385      192.871   161206.803      644.398    37199.397       10.027        9.953       24.195      276.753      130.841      330.413       -2.225      866.690
01/20/2021  08:17:00      -13.192      -10.639      -16.453      312.460       21.941      149.736    97631.523      481.391    22420.947        6.052        6.027       16.948      215.443      161.595      330.402       -2.243      866.696
01/20/2021  08:18:00      -14.177       -7.134      -10.911      233.241       14.480      114.583    54401.393      209.672    13129.366        3.404        3.387       15.871      162.584      104.947      330.440       -2.183      866.704
01/20/2021  08:19:00      -20.570       14.136      -18.794      301.253       13.529      144.021    90753.116      183.031    20742.035        5.630        5.584       24.959      207.842       69.344      330.412       -2.229      866.704
01/20/2021  08:20:00       13.516       14.742      -27.532      400.488       11.105      189.613   160390.279      123.314    35953.236        9.877        9.823       20.000      274.635      188.563      330.503       -2.076      866.708
01/20/2021  08:21:00        4.161      -24.487       -8.275      179.723       30.831       86.059    32300.503      950.520     7406.204        2.066        2.033       24.838      123.178       24.595      330.700       -1.759      866.719
01/20/2021  08:22:00       56.906      -55.375      -47.277      416.170       21.972      199.692   173197.178      482.787    39876.820       11.100       10.678       79.402      287.680       13.127      330.965       -1.316      866.738
01/20/2021  08:23:00       52.214      -13.023      -38.845      422.048       17.447      202.549   178124.777      304.408    41025.963       11.188       10.973       53.814      291.943       29.431      330.911       -1.406      866.768
01/20/2021  08:24:00       57.916       26.412      -11.097      372.593       14.371      177.442   138825.675      206.513    31485.708        8.731        8.526       63.654      256.638       16.255      330.856       -1.498      866.787
01/20/2021  08:25:00       37.650       11.366      -17.897      310.597       16.517      147.591    96470.287      272.805    21783.212        6.017        5.926       39.328      213.569       29.490      330.734       -1.701      866.793
01/20/2021  08:26:00      -31.277      -11.601       -5.642       10.848       12.278        9.596      117.669      150.747       92.086        0.075        0.018       33.359        7.933        0.057      330.447       -2.174      866.794
01/20/2021  08:27:00       10.433       13.588      -13.004      284.009       10.395      135.472    80661.129      108.050    18352.568        4.977        4.956       17.131      195.967      130.854      330.620       -1.888      866.780
01/20/2021  08:28:00       57.314       17.499       -8.789      335.449       23.795      159.861   112526.258      566.212    25555.659        7.113        6.932       59.926      230.806       14.834      331.042       -1.194      866.770
01/20/2021  08:29:00      106.067       48.182      -34.170      322.995       21.958      153.706   104326.043      482.161    23625.572        7.156        6.422      116.497      222.120        3.635      330.879       -1.460      866.768
01/20/2021  08:30:00       88.034       56.601      -20.820      164.104       11.668       77.824    26930.173      136.141     6056.648        2.225        1.656      104.660      111.963        1.144      330.698       -1.763      866.769
01/20/2021  08:31:00       97.113       64.703      -28.654      157.860       16.648       75.986    24919.852      277.171     5773.902        2.270        1.549      116.694      108.585        0.866      330.650       -1.838      866.778
01/20/2021  08:32:00      103.143       68.020      -30.258      174.183       28.798       83.616    30339.760      829.311     6991.683        2.716        1.908      123.552      119.215        0.931      330.768       -1.645      866.792
01/20/2021  08:33:00       90.767       42.023      -26.926      222.737       37.006      105.565    49611.922     1369.439    11143.984        3.641        3.106      100.023      151.817        2.304      331.010       -1.249      866.807
01/20/2021  08:34:00       98.818       47.309      -28.816      315.954       14.930      150.331    99827.061      222.913    22599.396        6.771        6.132      109.558      217.226        3.931      330.915       -1.403      866.832
01/20/2021  08:35:00      128.816       38.327      -44.157      439.792       13.105      209.704   193417.280      171.741    43975.896       12.874       11.878      134.396      303.024        5.084      330.992       -1.273      866.837
01/20/2021  08:36:00       75.827       31.942      -19.774       12.854       16.476       17.273      165.231      271.470      298.342        0.395        0.037       82.280        9.246        0.013      330.719       -1.727      866.852
01/20/2021  08:37:00       42.741       -7.795      -17.828      214.270       41.819      102.914    45911.524     1748.858    10591.316        3.022        2.913       43.446      146.589       11.384      331.134       -1.044      866.860
01/20/2021  08:38:00       36.903      -10.778      -15.832      126.848       34.139       63.059    16090.452     1165.492     3976.432        1.148        1.062       38.445       87.743        5.209      331.188       -0.958      866.874
01/20/2021  08:39:00       41.226      -23.760      -18.734      280.799       36.219      133.994    78848.074     1311.830    17954.452        5.034        4.906       47.583      193.445       16.528      331.359       -0.673      866.875
01/20/2021  08:40:00       80.057      -33.281      -18.598      304.512       31.375      144.000    92727.592      984.401    20736.079        6.113        5.722       86.699      207.699        5.739      331.293       -0.783      866.889
01/20/2021  08:41:00       43.139      -40.686      -13.571       37.902       28.254       23.828     1436.591      798.316      567.776        0.325        0.140       59.298       22.653        0.146      331.141       -1.034      866.912
01/20/2021  08:42:00       20.859      -49.291       -7.451      141.166       32.802       69.866    19927.718     1075.954     4881.310        1.440        1.294       53.523       96.354        3.241      331.261       -0.838      866.912
01/20/2021  08:43:00       61.295      -55.027      -21.447       32.627       46.011       23.004     1064.520     2116.978      529.184        0.548        0.186       82.371       18.751        0.052      331.203       -0.934      866.922
01/20/2021  08:44:00       16.699        2.725       -6.812      138.167       18.754       66.124    19090.092      351.725     4372.414        1.207        1.191       16.920       94.421       31.141      331.277       -0.810      866.919
01/20/2021  08:45:00       42.474       12.886      -12.246      143.562       41.886       69.090    20609.909     1754.417     4773.415        1.462        1.357       44.386       98.097        4.884      331.240       -0.871      866.910
01/20/2021  08:46:00       46.046        4.901      -14.605      189.823       37.251       91.165    36032.879     1387.651     8310.987        2.403        2.287       46.306      130.267        7.914      331.226       -0.893      866.911
01/20/2021  08:47:00       38.867      -37.990      -15.219       30.460       37.770       20.047      927.837     1426.603      401.880        0.297        0.138       54.350       13.768        0.064      331.243       -0.867      866.898
01/20/2021  08:48:00       66.316      -31.978      -23.839      182.781       36.743       87.679    33408.726     1350.053     7687.533        2.421        2.122       73.624      124.024        2.838      331.315       -0.748      866.892
01/20/2021  08:49:00        1.815      -35.517       -2.093       29.498       19.964       19.523      870.117      398.574      381.136        0.146        0.082       35.563       11.478        0.104      331.443       -0.540      866.903
01/20/2021  08:50:00        2.982      -39.205        0.862       31.322       30.763       20.138      981.091      946.382      405.542        0.194        0.117       39.319       19.899        0.256      331.494       -0.456      866.895
01/20/2021  08:51:00       18.251      -37.379      -23.977      174.723       35.292       83.456    30528.292     1245.505     6964.912        2.051        1.937       41.597      118.042        8.053      331.341       -0.705      866.895
01/20/2021  08:52:00      -41.532      -51.258      -11.344       34.889       43.981       20.852     1217.256     1934.294      434.805        0.403        0.179       65.972       11.770        0.032      331.378       -0.645      866.904
01/20/2021  08:53:00       19.700      -47.107      -13.046       56.647       37.971       28.722     3208.843     1441.809      824.948        0.413        0.274       51.060       29.379        0.331      331.341       -0.706      866.904
01/20/2021  08:54:00       68.519       24.736      -17.238       32.861       35.435       16.742     1079.831     1255.672      280.300        0.411        0.131       72.847       10.177        0.020      331.245       -0.864      866.913
01/20/2021  08:55:00       53.528       34.607      -18.903       24.422       30.786       18.507      596.443      947.753      342.510        0.315        0.094       63.741       12.039        0.036      331.186       -0.961      866.922
01/20/2021  08:56:00       47.987       41.909      -12.185       18.924       16.802       14.167      358.130      282.320      200.698        0.252        0.042       63.711        9.058        0.020      331.248       -0.858      866.920
01/20/2021  08:57:00       73.644       53.825       -4.660       34.034       37.624       20.820     1158.324     1415.562      433.455        0.567        0.150       91.217       17.371        0.036      331.308       -0.760      866.921
01/20/2021  08:58:00       61.781       54.397      -12.882       22.599       24.933       14.467      510.693      621.635      209.286        0.414        0.067       82.316        5.741        0.005      331.289       -0.792      866.920
01/20/2021  08:59:00       43.272       26.984      -14.617       16.876       24.528       17.855      284.803      601.619      318.805        0.201        0.060       50.996        6.926        0.018      331.100       -1.103      866.930
01/20/2021  09:00:00       64.283       56.063      -17.783       21.372       23.997       13.051      456.783      575.864      170.338        0.440        0.060       85.296        7.131        0.007      331.232       -0.886      866.947
01/20/2021  09:01:00       60.975       79.001       -8.204       18.533       16.569       18.489      343.462      274.517      341.828        0.549        0.048       99.796        8.207        0.007      331.194       -0.949      866.962
01/20/2021  09:02:00       69.963       65.804      -21.979       30.848       44.770       22.526      951.613     2004.343      507.419        0.658        0.173       96.046       19.299        0.040      331.246       -0.862      866.983
01/20/2021  09:03:00       62.431       40.900      -14.345       29.417       37.148       18.626      865.361     1379.990      346.940        0.418        0.130       74.635       11.766        0.025      331.689       -0.135      866.988
01/20/2021  09:04:00       46.362       47.785       -8.656       22.525       32.403       20.298      507.394     1049.978      411.995        0.324        0.098       66.579        5.251        0.006      331.350       -0.692      867.001
01/20/2021  09:05:00       69.430       52.760      -16.236       22.222       23.415       17.079      493.799      548.249      291.692        0.460        0.067       87.202       13.338        0.023      331.321       -0.739      867.009
01/20/2021  09:06:00       81.415       48.396      -16.393       25.401       27.032       17.541      645.205      730.725      307.686        0.546        0.084       94.713        9.155        0.009      331.440       -0.542      867.012
01/20/2021  09:07:00       91.314       52.922      -24.269       39.210       32.513       19.115     1537.424     1057.118      365.385        0.734        0.148      105.542       18.744        0.032      331.566       -0.335      867.013
01/20/2021  09:08:00       55.680        2.455       -6.576       33.647       46.588       22.121     1132.109     2170.427      489.327        0.347        0.190       55.734       20.012        0.129      331.642       -0.211      867.009
01/20/2021  09:09:00       66.368       59.867      -13.872       26.717       27.043       26.933      713.784      731.306      725.396        0.518        0.109       89.380       13.540        0.023      331.415       -0.585      867.003
01/20/2021  09:10:00      -23.466       -3.707       -0.109       32.375       59.104       27.672     1048.115     3493.315      765.758        0.293        0.265       23.757       26.820        1.274      331.714       -0.093      867.011
01/20/2021  09:11:00      -20.803       29.244        0.845       44.990       28.083       18.150     2024.076      788.680      329.437        0.221        0.157       35.889        7.734        0.046      331.784        0.022      867.022
01/20/2021  09:12:00       54.065       55.529       -8.263       29.370       23.548       22.543      862.577      554.507      508.190        0.400        0.096       77.502        9.981        0.017      331.788        0.030      867.027
01/20/2021  09:13:00       69.604       52.396      -10.641       29.352       29.072       20.332      861.550      845.178      413.406        0.491        0.106       87.121        6.766        0.006      331.696       -0.123      867.028
01/20/2021  09:14:00       68.793       36.465      -17.958       31.912       42.064       21.522     1018.403     1769.413      463.205        0.482        0.163       77.860       14.747        0.036      331.616       -0.254      867.019
01/20/2021  09:15:00       70.401       44.435       -1.491       28.471       23.976       20.371      810.600      574.850      414.969        0.437        0.090       83.251       16.931        0.041      331.719       -0.083      867.015
01/20/2021  09:16:00       -7.068       24.051        6.612       33.814       23.521       18.242     1143.398      553.259      332.764        0.135        0.101       25.068        8.727        0.121      331.844        0.121      867.007
01/20/2021  09:17:00       32.826       51.147       -1.184       36.576       38.768       21.224     1337.780     1502.928      450.466        0.349        0.165       60.775       20.767        0.117      331.827        0.093      866.995
01/20/2021  09:18:00        0.509       53.535       -6.289       27.045       29.989       24.181      731.451      899.312      584.706        0.256        0.111       53.538       20.331        0.144      331.892        0.200      866.992
01/20/2021  09:19:00      -15.799       46.620       -5.203       26.438       19.942       17.802      698.986      397.683      316.900        0.193        0.071       49.225       15.128        0.094      331.726       -0.073      866.988
01/20/2021  09:20:00      -16.192       -1.809      -20.543       32.676       20.186       14.745     1067.705      407.486      217.405        0.119        0.085       16.293        8.998        0.305      331.692       -0.129      866.971
01/20/2021  09:21:00        0.080       12.145      -11.925       31.014       28.993       18.481      961.850      840.594      341.532        0.122        0.107       12.145       17.398        2.052      331.769       -0.002      866.963
01/20/2021  09:22:00       32.094      -39.201      -24.327       38.012       38.995       24.829     1444.892     1520.581      616.481        0.337        0.179       50.663       19.879        0.154      332.067        0.490      866.947
01/20/2021  09:23:00      -31.804       -9.903       -1.448       31.252       18.409       21.317      976.657      338.909      454.407        0.144        0.088       33.310       12.318        0.137      332.070        0.495      866.939
01/20/2021  09:24:00        2.774      -22.210       -9.372       32.581       24.750       20.036     1061.524      612.563      401.424        0.133        0.104       22.382       19.126        0.730      332.133        0.598      866.915
01/20/2021  09:25:00       22.622        4.934       -7.795       37.457       41.783       19.908     1403.038     1745.796      396.337        0.207        0.177       23.153       15.172        0.429      332.161        0.643      866.902
01/20/2021  09:26:00       37.698      -22.914      -12.435       33.220       44.377       25.293     1103.555     1969.361      639.724        0.291        0.186       44.116       25.678        0.339      332.435        1.096      866.912
01/20/2021  09:27:00       31.457      -20.354       -7.369       34.396       41.606       27.338     1183.098     1731.089      747.346        0.256        0.183       37.468       22.136        0.349      332.394        1.028      866.909
01/20/2021  09:28:00       76.104      -36.266      -11.964       48.021       57.112       30.079     2306.017     3261.786      904.718        0.686        0.324       84.304       26.514        0.099      332.133        0.597      866.910
01/20/2021  09:29:00       70.210      -41.424      -30.522       63.624       59.372       44.621     4047.983     3525.026     1991.048        0.857        0.478       81.519       33.180        0.166      332.612        1.388      866.902
01/20/2021  09:30:00       77.780      -70.199      -15.773       41.744       51.622       32.968     1742.565     2664.793     1086.868        0.836        0.275      104.774       25.701        0.060      332.189        0.692      866.906
01/20/2021  09:31:00       94.106      -27.804      -22.825       52.729       63.438       32.553     2780.381     4024.364     1059.701        0.901        0.393       98.127       26.496        0.073      332.045        0.452      866.892
01/20/2021  09:32:00       99.694      -97.161      -27.543       42.036       48.874       25.173     1767.008     2388.679      633.681        1.246        0.239      139.209       28.230        0.041      331.910        0.230      866.889
01/20/2021  09:33:00       86.427      -70.336      -30.071       51.015       61.786       29.403     2602.503     3817.486      864.556        1.030        0.364      111.430       22.143        0.039      332.103        0.549      866.880
01/20/2021  09:34:00       98.649      -50.709      -24.139       33.505       30.817       19.149     1122.575      949.718      366.682        0.766        0.122      110.919       18.977        0.029      332.012        0.398      866.881
01/20/2021  09:35:00       44.651       -7.416      -20.429       43.812       53.293       29.219     1919.464     2840.197      853.740        0.404        0.281       45.263       14.010        0.096      332.397        1.032      866.868
01/20/2021  09:36:00       46.398       19.708      -12.779       50.175       68.530       38.250     2517.512     4696.418     1463.077        0.569        0.434       50.410       25.878        0.264      332.374        0.997      866.867
01/20/2021  09:37:00       55.159      -21.273      -10.509       54.387       71.391       37.668     2957.900     5096.652     1418.850        0.654        0.474       59.119       27.880        0.222      332.370        0.989      866.870
01/20/2021  09:38:00       88.114      -55.561      -29.780       39.073       31.753       24.823     1526.718     1008.234      616.186        0.744        0.158      104.169       11.146        0.011      332.093        0.531      866.880
01/20/2021  09:39:00       36.009       -3.353       -4.566       36.771       51.565       28.323     1352.106     2658.950      802.192        0.307        0.241       36.165       14.593        0.163      332.343        0.944      866.881
01/20/2021  09:40:00       39.895       34.902        8.509       52.251       59.858       31.973     2730.174     3583.022     1022.253        0.511        0.367       53.007       33.525        0.400      332.654        1.456      866.881
01/20/2021  09:41:00       44.979       20.459       -8.246       57.503       54.035       27.583     3306.614     2919.807      760.834        0.475        0.349       49.413       34.412        0.485      332.496        1.197      866.879
01/20/2021  09:42:00       53.946      -27.422      -17.769       48.025       54.199       36.582     2306.440     2937.504     1338.232        0.528        0.329       60.515       30.317        0.251      332.534        1.259      866.871
01/20/2021  09:43:00      106.666      -17.157      -17.776       60.879       45.065       27.683     3706.289     2030.824      766.322        0.924        0.325      108.037       27.658        0.066      332.207        0.720      866.863
01/20/2021  09:44:00       99.890      -65.658      -24.637       36.008       39.811       22.628     1296.572     1584.945      512.016        0.914        0.170      119.537       18.137        0.023      332.081        0.513      866.869
01/20/2021  09:45:00       60.363      -88.813      -18.121       33.646       50.799       24.228     1132.064     2580.500      587.018        0.808        0.215      107.384       17.975        0.028      332.353        0.960      866.876
01/20/2021  09:46:00       81.397      -45.336      -23.117       51.712       77.222       32.107     2674.102     5963.291     1030.860        0.944        0.483       93.171       31.966        0.118      332.334        0.930      866.890
01/20/2021  09:47:00      113.528       46.284      -15.938       57.907       56.312       22.639     3353.170     3171.040      512.507        1.116        0.352      122.600       20.147        0.027      332.102        0.546      866.921
01/20/2021  09:48:00       55.491       -3.990      -10.008       88.410       60.851       47.847     7816.311     3702.892     2289.342        0.850        0.690       55.634       42.759        0.591      332.586        1.345      866.922
01/20/2021  09:49:00      124.575      -44.798      -28.247       64.024       43.247       31.803     4099.077     1870.334     1011.406        1.265        0.349      132.385       36.654        0.077      332.368        0.984      866.937
01/20/2021  09:50:00       62.333        4.954       -7.151       40.562       54.051       31.263     1645.311     2921.554      977.368        0.475        0.277       62.530       28.416        0.207      332.442        1.108      866.941
01/20/2021  09:51:00       84.731       -0.812       -6.386       77.662       57.034       51.181     6031.341     3252.870     2619.511        0.956        0.595       84.735       46.215        0.297      332.420        1.070      866.920
01/20/2021  09:52:00       58.647      -13.434       -0.003       71.597       78.949       48.567     5126.063     6232.874     2358.741        0.867        0.686       60.166       40.702        0.458      332.342        0.941      866.903
01/20/2021  09:53:00      135.336      -27.367      -20.765       63.388       59.957       39.734     4018.017     3594.869     1578.814        1.434        0.460      138.076       32.127        0.054      332.176        0.668      866.880
01/20/2021  09:54:00       34.925      -22.503       -7.821       49.391       50.821       31.798     2439.440     2582.745     1011.089        0.391        0.302       41.547       24.130        0.337      332.725        1.575      866.874
01/20/2021  09:55:00       59.285      -23.247      -15.775       57.100       73.372       42.956     3260.428     5383.435     1845.245        0.739        0.524       63.680       31.530        0.245      332.754        1.622      866.876
01/20/2021  09:56:00       86.343       -5.437       -9.493       69.711       74.420       42.151     4859.620     5538.362     1776.698        0.987        0.609       86.514       41.067        0.225      332.709        1.547      866.881
01/20/2021  09:57:00       67.176      -20.791      -15.419       45.643       58.572       27.909     2083.313     3430.734      778.884        0.574        0.315       70.320       15.508        0.049      332.787        1.677      866.870
01/20/2021  09:58:00       83.342      -74.003      -32.403       55.346      107.310       30.151     3063.188    11515.490      909.096        1.448        0.774      111.455       32.200        0.083      332.555        1.291      866.874
01/20/2021  09:59:00      121.062       -8.661      -14.853       48.823       70.889       33.522     2383.654     5025.294     1123.731        1.174        0.427      121.372       20.559        0.029      332.726        1.576      866.882
01/20/2021  10:00:00      146.248      -29.911      -28.637       59.642       73.537       32.816     3557.220     5407.736     1076.879        1.657        0.502      149.275       31.696        0.045      332.692        1.520      866.877
01/20/2021  10:01:00      124.498      -74.171      -26.048       49.693       46.156       30.371     2469.433     2130.405      922.384        1.360        0.276      144.918       31.566        0.047      332.885        1.837      866.877
01/20/2021  10:02:00       40.503       10.505      -11.206       56.372       71.755       33.079     3177.769     5148.772     1094.199        0.565        0.471       41.843       32.027        0.586      333.301        2.525      866.879
01/20/2021  10:03:00      137.350      -78.959      -24.611       84.800       66.593       40.906     7191.121     4434.662     1673.303        1.950        0.665      158.428       37.364        0.056      332.771        1.648      866.876
01/20/2021  10:04:00      121.010      -83.907      -11.745       92.479       69.916       37.538     8552.357     4888.291     1409.110        1.833        0.742      147.254       42.006        0.081      332.657        1.461      866.879
01/20/2021  10:05:00      142.835       31.047      -12.198       88.974       54.960       33.302     7916.435     3020.583     1109.001        1.678        0.602      146.170       30.950        0.045      332.728        1.579      866.872
01/20/2021  10:06:00      125.797      -36.996      -15.743       64.985       62.503       47.159     4223.018     3906.582     2223.978        1.390        0.518      131.125       29.489        0.051      333.247        2.436      866.869
01/20/2021  10:07:00       65.923      -36.539      -26.112       73.305       50.793       35.405     5373.607     2579.972     1253.546        0.778        0.460       75.372       26.632        0.125      332.996        2.021      866.874
01/20/2021  10:08:00       77.271      -64.626      -19.696       40.161       33.347       23.367     1612.871     1112.029      545.996        0.690        0.164      100.734       20.671        0.042      332.722        1.570      866.887
01/20/2021  10:09:00       61.210      -52.473      -17.162       46.021       57.287       28.815     2117.952     3281.829      830.320        0.651        0.312       80.623       25.927        0.103      333.141        2.263      866.900
01/20/2021  10:10:00       81.132      -84.309      -25.140       50.144       43.190       26.995     2514.448     1865.340      728.731        0.971        0.255      117.007       24.151        0.043      332.767        1.645      866.914
01/20/2021  10:11:00       34.450      -71.732      -24.052       46.464       61.692       30.272     2158.865     3805.886      916.414        0.689        0.344       79.576       19.984        0.063      333.076        2.154      866.911
01/20/2021  10:12:00       15.581       -5.833      -16.157       67.443       54.399       19.535     4548.615     2959.263      381.624        0.421        0.394       16.637       24.400        2.151      332.920        1.896      866.908
01/20/2021  10:13:00       57.657        0.209      -23.977       38.447       51.810       25.049     1478.166     2684.302      627.461        0.434        0.239       57.657       16.882        0.086      333.110        2.211      866.888
01/20/2021  10:14:00       50.304        1.667      -14.111       52.573       83.458       32.403     2763.942     6965.276     1049.953        0.675        0.539       50.332       23.532        0.219      333.342        2.593      866.859
01/20/2021  10:15:00       47.286      -52.854       -3.889       43.666       62.885       33.633     1906.741     3954.485     1131.160        0.602        0.350       70.919       26.357        0.138      333.362        2.628      866.853
01/20/2021  10:16:00       75.318     -115.343      -24.601       60.007       55.043       30.874     3600.861     3029.764      953.208        1.358        0.379      137.756       31.364        0.052      333.005        2.037      866.822
01/20/2021  10:17:00       94.062      -96.224      -30.758       53.723       84.069       41.289     2886.195     7067.593     1704.751        1.535        0.583      134.561       38.918        0.084      333.206        2.368      866.798
01/20/2021  10:18:00       75.938     -127.223      -15.640       73.656       69.280       40.611     5425.170     4799.655     1649.276        1.703        0.594      148.163       45.449        0.094      332.903        1.868      866.792
01/20/2021  10:19:00       84.859     -105.747      -29.189       30.995       47.695       18.591      960.679     2274.784      345.643        1.141        0.179      135.586       12.984        0.009      332.704        1.539      866.805
01/20/2021  10:20:00       30.355      -53.608      -24.735       33.576       43.810       24.778     1127.323     1919.349      613.936        0.403        0.183       61.606       21.801        0.125      333.223        2.397      866.804
01/20/2021  10:21:00      -28.025       12.452       -5.628       39.830       27.004       20.458     1586.406      729.218      418.532        0.185        0.137       30.666       18.591        0.368      333.333        2.580      866.809
01/20/2021  10:22:00      -11.486      -10.577       -1.823       44.440       21.220       25.036     1974.902      450.289      626.786        0.165        0.153       15.614       21.931        1.973      333.175        2.318      866.817
01/20/2021  10:23:00       41.568       31.618       -4.150       44.542       36.880       20.862     1983.995     1360.104      435.215        0.326        0.189       52.226       27.019        0.268      333.091        2.179      866.815
01/20/2021  10:24:00       48.255       45.931      -13.999       35.737       47.889       19.216     1277.146     2293.339      369.273        0.429        0.197       66.619       10.882        0.027      332.989        2.009      866.808
01/20/2021  10:25:00       81.474      -76.611      -35.673       37.529       50.671       26.168     1408.437     2567.552      684.762        0.922        0.233      111.836       18.257        0.027      333.242        2.429      866.805
01/20/2021  10:26:00       78.646      -32.655      -22.082       54.981       51.830       41.011     3022.941     2686.391     1681.943        0.756        0.370       85.156       34.923        0.168      333.336        2.585      866.806
01/20/2021  10:27:00       92.705      -37.334      -21.249       38.429       45.218       23.993     1476.784     2044.690      575.681        0.727        0.205       99.940       21.621        0.047      333.106        2.205      866.796
01/20/2021  10:28:00       67.514      -12.272       -5.333       48.366       75.336       41.739     2339.281     5675.479     1742.105        0.724        0.488       68.620       33.293        0.235      333.536        2.916      866.782
01/20/2021  10:29:00      -11.109       -4.018      -13.797       61.987       50.679       30.806     3842.384     2568.323      949.028        0.384        0.368       11.813       34.423        8.491      333.444        2.765      866.768
01/20/2021  10:30:00       47.315      -65.661      -21.861       96.576       64.216       35.723     9326.978     4123.652     1276.099        1.087        0.736       80.932       46.732        0.333      333.281        2.493      866.769
01/20/2021  10:31:00       41.360      -23.130      -16.298       44.031       42.886       28.242     1938.688     1839.188      797.609        0.354        0.229       47.388       24.170        0.260      333.415        2.716      866.765
01/20/2021  10:32:00        5.235       -6.120       -0.261       45.617       21.411       23.623     2080.937      458.413      558.069        0.158        0.155        8.054       25.959       10.389      333.586        2.999      866.751
01/20/2021  10:33:00       24.690        7.446      -11.580       35.466       38.778       23.599     1257.852     1503.705      556.902        0.206        0.166       25.788       24.744        0.921      333.568        2.968      866.737
01/20/2021  10:34:00       52.850       25.387       -9.812       57.516       77.609       26.680     3308.074     6023.219      711.804        0.679        0.502       58.631       29.392        0.251      333.477        2.817      866.731
01/20/2021  10:35:00       39.497       57.855       -5.627       46.205       42.543       25.816     2134.895     1809.928      666.466        0.477        0.231       70.051       24.940        0.127      333.363        2.629      866.722
01/20/2021  10:36:00       76.787       63.213      -12.231       35.040       23.230       22.464     1227.788      539.620      504.622        0.616        0.114       99.459       19.218        0.037      333.549        2.937      866.723
01/20/2021  10:37:00      113.172       22.592      -12.842       38.020       46.907       21.877     1445.500     2200.229      478.611        0.880        0.206      115.405       19.898        0.030      333.431        2.741      866.722
01/20/2021  10:38:00       56.457       35.398      -13.047       44.691       40.633       23.620     1997.278     1651.007      557.903        0.441        0.210       66.636       17.719        0.071      333.764        3.293      866.722
01/20/2021  10:39:00       47.211       17.012      -24.304       45.404       49.415       26.706     2061.538     2441.823      713.196        0.416        0.261       50.182       28.363        0.319      333.991        3.670      866.713
01/20/2021  10:40:00        2.297      -47.060      -27.080       52.963       68.292       26.560     2805.119     4663.753      705.434        0.556        0.409       47.116       27.642        0.344      333.818        3.383      866.705
01/20/2021  10:41:00       66.306     -125.339      -30.725       42.181       29.399       29.564     1779.203      864.318      874.009        1.228        0.176      141.796       27.086        0.036      333.297        2.519      866.688
01/20/2021  10:42:00       85.603      -47.079      -23.840       34.911       43.099       19.443     1218.764     1857.513      378.017        0.678        0.173       97.695       14.954        0.023      333.404        2.696      866.684
01/20/2021  10:43:00       81.189      -49.724      -16.190       52.852       51.633       32.791     2793.325     2665.944     1075.250        0.793        0.327       95.206       29.957        0.099      333.549        2.937      866.669
01/20/2021  10:44:00       77.394      -56.584      -28.191       49.209       51.283       35.140     2421.503     2629.985     1234.799        0.813        0.314       95.872       32.869        0.118      333.831        3.404      866.652
01/20/2021  10:45:00      -13.627      -24.517       -8.277       55.972       52.438       35.236     3132.865     2749.706     1241.546        0.399        0.356       28.049       31.980        1.300      333.919        3.552      866.633
01/20/2021  10:46:00       26.907      -70.339      -27.283       61.865       50.506       33.586     3827.236     2550.886     1128.041        0.696        0.375       75.310       34.474        0.210      333.853        3.440      866.614
01/20/2021  10:47:00       53.049     -108.796      -21.380       54.963       72.358       32.847     3020.894     5235.636     1078.912        1.222        0.467      121.041       31.536        0.068      333.799        3.350      866.598
01/20/2021  10:48:00       49.844      -66.674      -29.030       45.235       53.390       29.136     2046.178     2850.544      848.890        0.676        0.287       83.246       19.025        0.052      333.997        3.679      866.577
01/20/2021  10:49:00       66.301       42.704       -0.679       65.572       36.285       31.158     4299.658     1316.589      970.795        0.640        0.329       78.863       36.418        0.213      334.054        3.774      866.557
01/20/2021  10:50:00       37.092       56.492      -10.243       51.555       31.939       28.328     2657.933     1020.077      802.456        0.458        0.224       67.581       27.928        0.171      333.941        3.586      866.540
01/20/2021  10:51:00       17.843       61.854        3.650       49.762       20.120       28.949     2476.254      404.798      838.031        0.394        0.186       64.376       31.027        0.232      333.951        3.601      866.506
01/20/2021  10:52:00        9.788       24.773       -1.393       46.619       22.122       26.202     2173.311      489.392      686.561        0.203        0.167       26.636       21.813        0.671      334.048        3.763      866.477
01/20/2021  10:53:00       18.111        5.904       -4.492       54.795       34.670       34.837     3002.519     1202.022     1213.608        0.290        0.271       19.049       35.706        3.513      334.100        3.850      866.460
01/20/2021  10:54:00        0.153       26.472       -7.260       47.426       30.528       26.894     2249.199      931.954      723.276        0.233        0.195       26.473       26.491        1.001      334.239        4.080      866.441
01/20/2021  10:55:00      -11.912      -20.015      -12.792       56.589       22.566       23.397     3202.316      509.235      547.441        0.248        0.213       23.291       30.123        1.673      333.827        3.399      866.429
01/20/2021  10:56:00      -33.259       -5.089      -11.589       56.790       34.099       24.018     3225.116     1162.722      576.849        0.311        0.248       33.646       29.632        0.776      333.727        3.231      866.422
01/20/2021  10:57:00      -28.052       -5.694       -6.434       29.714       40.073       17.485      882.922     1605.827      305.722        0.183        0.140       28.624       18.539        0.419      333.790        3.336      866.415
01/20/2021  10:58:00      -15.770      -35.966      -14.977       46.087       34.168       23.446     2124.022     1167.459      549.712        0.280        0.192       39.272       17.561        0.200      333.955        3.610      866.403
01/20/2021  10:59:00       49.093      -81.806      -23.425       29.921       20.548       13.302      895.253      422.201      176.935        0.557        0.075       95.407       11.579        0.015      333.461        2.793      866.389
01/20/2021  11:00:00       39.324      -44.348      -14.246       24.438       41.277       26.510      597.211     1703.796      702.755        0.336        0.150       59.272       21.022        0.126      334.060        3.784      866.370
01/20/2021  11:01:00       63.403       27.199       -8.682       53.809       74.802       33.576     2895.417     5595.372     1127.362        0.722        0.481       68.991       30.862        0.200      334.269        4.130      866.354
01/20/2021  11:02:00       64.739       68.788      -15.228       43.650       33.590       25.421     1905.328     1128.266      646.218        0.642        0.184       94.461       18.999        0.040      333.942        3.587      866.327
01/20/2021  11:03:00        6.822       18.861        0.355       32.081       24.384       18.202     1029.183      594.562      331.308        0.118        0.098       20.056       11.165        0.310      334.043        3.756      866.306
01/20/2021  11:04:00       -8.642      -16.652       -1.430       35.059       36.597       20.065     1229.152     1339.352      402.621        0.166        0.149       18.761       16.297        0.755      334.382        4.318      866.294
01/20/2021  11:05:00       -7.580       -1.460       -4.850       38.796       29.673       27.637     1505.127      880.464      763.823        0.162        0.157        7.719       17.447        5.109      334.504        4.521      866.274
01/20/2021  11:06:00      -82.342      -51.337      -13.662       55.823       36.902       29.662     3116.257     1361.729      879.814        0.748        0.268       97.035       19.216        0.039      333.916        3.545      866.259
01/20/2021  11:07:00      -76.497      -48.982       -5.936       46.632       44.370       33.718     2174.549     1968.728     1136.885        0.678        0.264       90.836       22.238        0.060      333.857        3.447      866.241
01/20/2021  11:08:00      -36.027       -3.197       -0.119       33.638       26.471       23.651     1131.515      700.714      559.366        0.185        0.120       36.168       12.889        0.127      334.011        3.703      866.233
01/20/2021  11:09:00      -34.662       -9.805       -3.010       18.457       27.433       18.521      340.677      752.552      343.021        0.137        0.072       36.022       10.161        0.080      334.039        3.749      866.206
01/20/2021  11:10:00      -38.764      -11.690       -8.965       22.208       24.236       17.801      493.203      587.402      316.877        0.156        0.070       40.488       11.257        0.077      334.048        3.765      866.192
01/20/2021  11:11:00      -19.386      -39.879      -21.102       56.770       55.218       32.644     3222.882     3049.067     1065.598        0.487        0.367       44.342       31.059        0.491      334.280        4.149      866.183
01/20/2021  11:12:00      -61.152      -54.184      -13.738       49.181       41.761       31.600     2418.740     1744.004      998.543        0.601        0.258       81.704       20.854        0.065      334.148        3.930      866.172
01/20/2021  11:13:00      -31.378      -20.711      -20.185       39.980       34.779       22.066     1598.362     1209.576      486.926        0.256        0.165       37.596       16.230        0.186      334.090        3.832      866.195
01/20/2021  11:14:00       -2.922       25.849        2.229       23.520       25.641       16.295      553.203      657.450      265.539        0.108        0.074       26.014       12.280        0.223      334.338        4.246      866.179
01/20/2021  11:15:00      -19.133       -3.598        1.567       22.474       12.979       15.833      505.090      168.465      250.694        0.065        0.046       19.469        8.476        0.190      334.702        4.848      866.158
01/20/2021  11:16:00      -23.630       -9.176       -8.518       18.903       35.358       18.480      357.331     1250.178      341.528        0.133        0.097       25.349        4.014        0.025      334.398        4.344      866.134
01/20/2021  11:17:00       -0.685      -26.069       -1.126       50.861       57.305       32.986     2586.881     3283.889     1088.066        0.382        0.348       26.078       31.514        1.460      334.721        4.882      866.118
01/20/2021  11:18:00       30.289      -42.451      -14.053       70.463       62.991       37.149     4964.970     3967.896     1380.048        0.661        0.516       52.149       45.254        0.753      334.648        4.761      866.095
01/20/2021  11:19:00      146.115     -170.541      -45.056       35.578       40.337       19.469     1265.807     1627.088      379.059        2.787        0.164      224.575       19.611        0.008      334.022        3.714      866.074
01/20/2021  11:20:00       90.391     -142.941      -26.527       46.936       48.974       33.880     2203.002     2398.420     1147.879        1.753        0.287      169.123       30.166        0.032      334.440        4.414      866.064
01/20/2021  11:21:00      117.440     -168.585      -47.260       92.295       85.849       38.969     8518.286     7370.092     1518.597        3.092        0.870      205.458       48.262        0.055      334.269        4.127      866.057
01/20/2021  11:22:00      161.397     -161.622      -57.456       42.409       58.929       22.491     1798.544     3472.585      505.854        3.062        0.289      228.409       19.484        0.007      334.064        3.786      866.046
01/20/2021  11:23:00      130.734      -99.995      -45.129       36.673       59.247       25.272     1344.902     3510.219      638.680        1.731        0.275      164.592       30.014        0.033      334.035        3.741      866.040
01/20/2021  11:24:00       28.831      -53.448      -27.745       83.262       49.747       34.333     6932.535     2474.737     1178.772        0.752        0.529       60.728       29.602        0.238      334.465        4.456      866.028
01/20/2021  11:25:00       84.976      -71.426      -21.293       49.396       64.671       32.186     2439.928     4182.325     1035.924        1.022        0.383      111.007       29.663        0.071      334.263        4.121      866.013
01/20/2021  11:26:00       68.770     -130.178      -24.740       48.404       58.416       31.140     2342.951     3412.450      969.680        1.450        0.336      147.226       29.185        0.039      334.280        4.147      865.995
01/20/2021  11:27:00       28.428      -94.754      -21.712       59.055       46.984       37.471     3487.552     2207.541     1404.069        0.868        0.355       98.926       21.423        0.047      334.473        4.468      865.969
01/20/2021  11:28:00       17.824        0.329       -7.808       37.626       49.218       21.571     1415.717     2422.407      465.305        0.234        0.215       17.827       22.832        1.640      334.858        5.107      865.946
01/20/2021  11:29:00       49.767       21.984       -7.834       75.431       53.894       32.621     5689.908     2904.603     1064.152        0.634        0.483       54.406       31.603        0.337      334.729        4.894      865.932
01/20/2021  11:30:00       59.481      -56.366      -12.985       63.354       74.300       30.949     4013.779     5520.527      957.857        0.869        0.525       81.946       30.146        0.135      334.746        4.922      865.905
01/20/2021  11:31:00      111.120      -71.266      -30.199       62.915      104.308       36.706     3958.310    10880.237     1347.304        1.726        0.809      132.010       29.821        0.051      334.704        4.851      865.878
01/20/2021  11:32:00      141.173     -195.556      -41.125       44.855       77.863       25.779     2011.968     6062.647      664.566        3.430        0.437      241.189       27.177        0.013      334.207        4.024      865.835
01/20/2021  11:33:00      125.551      -21.941      -18.897       75.438       43.750       40.672     5690.940     1914.103     1654.181        1.293        0.463      127.454       44.595        0.122      334.523        4.552      865.819
01/20/2021  11:34:00       -4.919       -0.476        4.521       47.834       33.585       24.915     2288.084     1127.944      620.766        0.204        0.202        4.942       22.387       20.516      335.078        5.473      865.802
01/20/2021  11:35:00       49.552        7.924      -10.589       60.300       51.487       32.096     3636.091     2650.870     1030.139        0.497        0.366       50.181       30.754        0.376      335.111        5.529      865.766
01/20/2021  11:36:00       15.817      -19.197      -17.734       70.998       61.760       41.592     5040.775     3814.292     1729.874        0.576        0.529       24.874       34.530        1.927      334.872        5.131      865.724
01/20/2021  11:37:00       28.907      -10.494       -9.033       61.408       50.698       37.450     3770.895     2570.288     1402.516        0.438        0.387       30.753       26.540        0.745      335.264        5.783      865.714
01/20/2021  11:38:00       -2.004      -25.536      -13.200       52.601       42.576       29.049     2766.815     1812.748      843.828        0.313        0.271       25.614       13.800        0.290      335.300        5.842      865.687
01/20/2021  11:39:00       83.195     -147.795      -32.370       58.768       73.378       46.381     3453.707     5384.289     2151.200        2.040        0.549      169.602       28.459        0.028      334.996        5.335      865.678
01/20/2021  11:40:00      179.631     -224.131      -60.242       69.922       60.984       25.504     4889.108     3719.012      650.432        4.769        0.463      287.232       30.392        0.011      334.564        4.615      865.665
01/20/2021  11:41:00       46.376      -27.617      -24.039       87.313       49.784       34.180     7623.500     2478.484     1168.284        0.738        0.564       53.977       47.229        0.766      334.945        5.252      865.655
01/20/2021  11:42:00      -25.270      -66.701      -10.103       60.075       47.004       31.406     3608.948     2209.413      986.346        0.600        0.340       71.327       21.443        0.090      335.285        5.816      865.647
01/20/2021  11:43:00       -1.444      -66.002      -11.925       46.731       63.543       32.321     2183.787     4037.742     1044.632        0.588        0.363       66.018       20.901        0.100      335.452        6.095      865.635
01/20/2021  11:44:00        6.819      -48.676       -5.504       64.094       59.553       33.607     4108.079     3546.506     1129.422        0.561        0.439       49.152       31.096        0.400      335.143        5.583      865.629
01/20/2021  11:45:00       71.865       -6.370      -13.894       66.455       76.161       40.132     4416.253     5800.562     1610.542        0.861        0.591       72.147       23.935        0.110      335.284        5.816      865.612
01/20/2021  11:46:00       -0.760      -33.460       -3.325       69.079       54.196       33.399     4771.842     2937.259     1115.504        0.498        0.441       33.469       29.467        0.775      335.348        5.922      865.591
01/20/2021  11:47:00       52.125      -34.878      -10.023       77.846       63.635       36.228     6059.996     4049.389     1312.467        0.773        0.571       62.718       37.220        0.352      335.241        5.745      865.561
01/20/2021  11:48:00       86.007     -129.415      -27.437       79.592       82.959       45.581     6334.819     6882.139     2077.602        2.009        0.765      155.388       53.046        0.117      335.221        5.710      865.527
01/20/2021  11:49:00       53.343      -75.626      -23.759       56.618       74.195       44.383     3205.578     5504.910     1969.859        0.990        0.534       92.546       39.426        0.181      335.432        6.063      865.500
01/20/2021  11:50:00       88.884      -87.233      -25.893       78.182       57.371       33.936     6112.406     3291.414     1151.622        1.337        0.528      124.540       30.321        0.059      335.046        5.421      865.466
01/20/2021  11:51:00       87.559      -49.599      -10.043       60.875       46.558       36.364     3705.775     2167.631     1322.310        0.871        0.360      100.631       27.860        0.077      335.205        5.684      865.428
01/20/2021  11:52:00       12.762       15.401       23.442       52.719       71.622       35.780     2779.252     5129.740     1280.232        0.507        0.459       20.002       28.113        1.976      335.380        5.977      865.406
01/20/2021  11:53:00      101.820       90.463       -1.702       52.564       45.397       31.194     2762.942     2060.863      973.097        1.217        0.290      136.201       23.100        0.029      334.961        5.280      865.385
01/20/2021  11:54:00       11.862      -18.848       -4.657       42.914       42.902       28.007     1841.593     1840.602      784.393        0.249        0.223       22.269       17.849        0.642      335.606        6.352      865.371
01/20/2021  11:55:00       36.948     -134.842      -31.590       67.900       49.507       23.832     4610.345     2450.956      567.954        1.409        0.381      139.812       10.871        0.006      334.992        5.330      865.371
01/20/2021  11:56:00       54.715      -32.669      -29.186       37.206       74.289       23.027     1384.259     5518.899      530.227        0.617        0.372       63.726       18.487        0.084      335.257        5.771      865.350
01/20/2021  11:57:00       74.332      -33.830      -13.931       55.926       56.688       33.900     3127.758     3213.569     1149.193        0.718        0.375       81.668       25.552        0.098      335.288        5.823      865.326
01/20/2021  11:58:00      144.998      -89.148      -19.006      102.488       66.517       37.988    10503.759     4424.472     1443.065        2.285        0.819      170.211       38.542        0.051      335.439        6.072      865.289
01/20/2021  11:59:00      141.022     -141.903      -45.977       78.982      109.346       35.289     6238.113    11956.641     1245.324        3.078        0.972      200.059       36.175        0.033      335.208        5.685      865.266
01/20/2021  12:00:00       80.687     -177.922      -31.793       33.975       37.206       19.666     1154.267     1384.265      386.764        2.105        0.146      195.362       14.965        0.006      334.772        4.964      865.243
01/20/2021  12:01:00       73.937      -88.778      -25.470       46.402       83.484       34.111     2153.190     6969.619     1163.590        1.214        0.514      115.535       26.093        0.051      335.317        5.869      865.221
01/20/2021  12:02:00       91.995     -196.093      -30.547       56.349       60.333       32.184     3175.196     3640.125     1035.786        2.785        0.393      216.600       22.782        0.011      335.285        5.815      865.192
01/20/2021  12:03:00      137.432     -256.035      -55.581       38.388       79.513       32.395     1473.622     6322.379     1049.436        4.819        0.442      290.589       18.002        0.004      334.916        5.201      865.156
01/20/2021  12:04:00      139.123     -111.157      -44.337       43.100       81.406       28.797     1857.608     6626.860      829.275        2.149        0.466      178.076       33.528        0.035      334.927        5.221      865.140
01/20/2021  12:05:00       78.577      -16.243      -32.367       52.684       45.016       35.196     2775.562     2026.468     1238.737        0.676        0.302       80.239       30.513        0.145      335.353        5.931      865.103
01/20/2021  12:06:00      -65.477      -33.632      -19.636       55.752       55.097       35.210     3108.261     3035.700     1239.719        0.659        0.369       73.610       14.290        0.038      335.485        6.150      865.062
01/20/2021  12:07:00      -68.786      -69.279       -6.069       64.852       74.716       38.189     4205.768     5582.439     1458.367        1.040        0.562       97.627       35.453        0.132      335.642        6.412      865.037
01/20/2021  12:08:00      -27.839      -11.330      -17.093       61.670       68.268       24.569     3803.161     4660.462      603.654        0.513        0.453       30.056       21.588        0.516      335.191        5.661      865.010
01/20/2021  12:09:00       81.302      -65.371      -23.034       36.942       67.651       30.836     1364.688     4576.597      950.886        0.915        0.345      104.323       17.836        0.029      335.377        5.973      864.978
01/20/2021  12:10:00       20.791      -24.981      -12.333       41.861       47.300       31.307     1752.339     2237.275      980.143        0.309        0.248       32.501       16.904        0.271      335.713        6.530      864.952
01/20/2021  12:11:00       20.444      -37.327      -12.774       35.085       38.125       20.190     1230.954     1453.486      407.636        0.253        0.155       42.559       19.707        0.214      335.891        6.827      864.931
01/20/2021  12:12:00       29.768       -0.171       -4.359       45.353       52.521       27.114     2056.882     2758.445      735.165        0.323        0.278       29.768       20.902        0.493      335.409        6.023      864.905
01/20/2021  12:13:00       29.126        8.305        0.995       56.844       56.843       24.407     3231.291     3231.085      595.719        0.399        0.353       30.287       19.300        0.406      335.583        6.314      864.872
01/20/2021  12:14:00      -22.085        7.891       -3.043       43.411       26.126       25.267     1884.505      682.550      638.398        0.188        0.160       23.453       22.723        0.939      335.947        6.920      864.833
01/20/2021  12:15:00       42.296       29.282       -0.434       41.728       30.147       28.539     1741.237      908.818      814.463        0.305        0.173       51.443       24.674        0.230      335.748        6.588      864.812
01/20/2021  12:16:00       -5.200        5.701      -10.804       44.670       58.253       19.637     1995.429     3393.459      385.620        0.297        0.289        7.716       10.195        1.746      335.616        6.366      864.784
01/20/2021  12:17:00      105.228       -2.436      -20.678       67.006       75.957       40.039     4489.768     5769.425     1603.093        1.168        0.593      105.256       32.324        0.094      335.558        6.272      864.764
01/20/2021  12:18:00       69.464        2.446      -18.211       48.456       64.752       38.799     2348.003     4192.814     1505.366        0.660        0.402       69.507       26.096        0.141      335.783        6.646      864.748
01/20/2021  12:19:00       47.042       16.874       -0.862       95.819       49.902       44.294     9181.187     2490.210     1961.992        0.806        0.682       49.977       45.730        0.837      335.844        6.748      864.730
01/20/2021  12:20:00      -24.387      -37.227      -28.535       53.542       38.678       34.997     2866.751     1495.961     1224.818        0.419        0.279       44.504       25.251        0.322      335.820        6.709      864.744
01/20/2021  12:21:00        6.639       -1.844       -4.871       29.834       20.771       19.217      890.060      431.426      369.289        0.088        0.085        6.890       13.536        3.860      336.050        7.093      864.721
01/20/2021  12:22:00       42.895      -84.289      -18.934       46.261       47.495       26.972     2140.118     2255.791      727.467        0.721        0.256       94.576       21.819        0.053      335.692        6.495      864.696
01/20/2021  12:23:00       41.944      -86.399      -18.641       41.999       46.561       25.248     1763.909     2167.970      637.471        0.707        0.228       96.042       22.783        0.056      335.406        6.019      864.674
01/20/2021  12:24:00       65.498      -15.904      -29.416       35.467       68.267       19.794     1257.890     4660.411      391.789        0.586        0.316       67.402       16.874        0.063      335.129        5.559      864.652
01/20/2021  12:25:00       40.116       15.474       -3.780       31.010       30.725       19.826      961.618      944.005      393.086        0.208        0.115       42.997       18.528        0.186      335.557        6.270      864.614
01/20/2021  12:26:00       83.932      -58.078       -8.165       80.100       58.030       37.292     6416.023     3367.477     1390.704        1.083        0.559      102.067       38.153        0.140      335.542        6.245      864.585
01/20/2021  12:27:00      103.544      -48.570      -20.900       73.212       73.967       49.323     5359.983     5471.112     2432.739        1.339        0.663      114.369       32.274        0.080      335.654        6.431      864.559
01/20/2021  12:28:00       95.946       45.050      -13.298       72.162       63.018       35.580     5207.289     3971.282     1265.938        1.093        0.522      105.996       30.555        0.083      335.924        6.882      864.550
01/20/2021  12:29:00       66.706      -38.686      -27.659       60.232       91.412       39.121     3627.867     8356.140     1530.457        1.011        0.676       77.112       30.188        0.153      335.970        6.959      864.553
01/20/2021  12:30:00       71.269       11.228      -10.041       76.188       82.525       39.071     5804.640     6810.334     1526.537        0.972        0.707       72.148       25.726        0.127      335.967        6.952      864.547
01/20/2021  12:31:00      -15.408       -9.761       -5.521       36.036       44.448       26.448     1298.596     1975.655      699.508        0.217        0.199       18.240       23.228        1.622      336.264        7.448      864.523
01/20/2021  12:32:00       99.720     -139.014      -31.904       59.648       66.085       26.128     3557.827     4367.281      682.664        1.945        0.430      171.082       34.412        0.040      335.400        6.008      864.512
01/20/2021  12:33:00       79.710      -82.835      -23.321       32.682       43.238       27.158     1068.117     1869.538      737.574        0.872        0.184      114.958       24.052        0.044      335.375        5.969      864.505
01/20/2021  12:34:00       52.383      -77.362      -24.510       26.475       36.196       12.916      700.920     1310.172      166.827        0.575        0.109       93.428       16.750        0.032      335.378        5.972      864.493
01/20/2021  12:35:00       54.169      -59.199      -39.408       37.188       75.291       28.008     1382.980     5668.807      784.435        0.791        0.392       80.242       13.721        0.029      335.794        6.665      864.494
01/20/2021  12:36:00       55.796       -8.608      -26.230       68.322       77.830       46.361     4667.836     6057.522     2149.323        0.837        0.644       56.456       31.773        0.317      335.890        6.824      864.498
01/20/2021  12:37:00       76.447      -74.208      -19.894       49.255       73.297       34.350     2426.077     5372.394     1179.937        1.036        0.449      106.541       20.379        0.037      335.471        6.126      864.500
01/20/2021  12:38:00       91.267       41.885      -21.676       37.278       74.410       28.338     1389.621     5536.860      803.015        0.914        0.386      100.419       24.372        0.059      335.364        5.949      864.502
01/20/2021  12:39:00       70.581       74.428       -8.045       36.356       21.852       19.979     1321.793      477.507      399.145        0.639        0.110      102.573       12.933        0.016      335.319        5.874      864.489
01/20/2021  12:40:00       39.106       57.689       -0.390       44.081       26.269       18.579     1943.177      690.059      345.164        0.392        0.149       69.695       17.848        0.066      335.473        6.128      864.462
01/20/2021  12:41:00       11.838       45.822        1.910       35.239       24.721       20.135     1241.804      611.116      405.428        0.225        0.113       47.326       15.907        0.113      335.855        6.769      864.445
01/20/2021  12:42:00       18.847       26.200        5.565       37.713       23.234       21.845     1422.276      539.822      477.189        0.176        0.122       32.274       24.943        0.597      335.966        6.951      864.409
01/20/2021  12:43:00       30.200      -11.902      -18.595       68.499       58.092       30.654     4692.085     3374.704      939.668        0.520        0.450       32.460       37.433        1.330      335.916        6.867      864.380
01/20/2021  12:44:00      114.029     -114.691      -36.647       61.484       97.472       41.916     3780.250     9500.768     1756.921        2.127        0.752      161.730       33.227        0.042      335.955        6.932      864.358
01/20/2021  12:45:00      -10.538      -50.085      -23.174       77.740       71.708       37.965     6043.572     5142.072     1441.312        0.789        0.631       51.182       37.570        0.539      336.025        7.049      864.346
01/20/2021  12:46:00       49.753       10.128       -5.554       57.431       64.931       33.150     3298.337     4216.098     1098.941        0.561        0.431       50.774       22.835        0.202      336.058        7.105      864.352
01/20/2021  12:47:00       63.591       66.233       -0.555       44.106       38.067       24.460     1945.297     1449.130      598.291        0.621        0.200       91.819       24.558        0.072      335.719        6.541      864.352
01/20/2021  12:48:00       72.268       82.442      -13.574       28.509       27.136       21.799      812.760      736.364      475.202        0.711        0.101      109.633       15.246        0.019      335.504        6.181      864.351
01/20/2021  12:49:00       31.699       67.619        1.101       37.643       33.527       18.632     1416.976     1124.065      347.133        0.423        0.144       74.680       22.072        0.087      335.635        6.400      864.341
01/20/2021  12:50:00       27.223       15.709        9.868       41.963       29.182       24.520     1760.934      851.562      601.249        0.215        0.161       31.430       25.930        0.681      336.149        7.257      864.321
01/20/2021  12:51:00       11.139       16.300      -19.557       22.456       26.145       16.399      504.290      683.541      268.944        0.111        0.073       19.743       11.201        0.322      335.880        6.810      864.300
01/20/2021  12:52:00       -9.960        2.996       -4.222       24.354       18.692       17.111      593.129      349.381      292.774        0.068        0.062       10.401       14.680        1.992      336.316        7.536      864.281
01/20/2021  12:53:00      -32.335        6.655       -8.038       52.803       33.908       23.441     2788.171     1149.751      549.466        0.282        0.224       33.013       22.574        0.468      336.217        7.370      864.267
01/20/2021  12:54:00      -57.885      -31.036       -4.224       59.158       45.269       34.998     3499.621     2049.304     1224.894        0.555        0.339       65.681       24.175        0.135      336.305        7.519      864.236
01/20/2021  12:55:00      -65.784      -41.311      -15.030       43.023       52.858       18.347     1850.994     2793.948      336.605        0.562        0.249       77.680       17.028        0.048      335.540        6.242      864.215
01/20/2021  12:56:00      -57.975       -6.717      -10.068       54.195       41.533       21.862     2937.049     1725.019      477.940        0.432        0.257       58.363       12.003        0.042      335.860        6.776      864.191
01/20/2021  12:57:00       30.480      -22.721      -21.818       28.212       34.405       23.214      795.909     1183.673      538.890        0.222        0.126       38.017       15.049        0.157      335.851        6.759      864.176
01/20/2021  12:58:00       76.323      -70.427      -17.445       78.598       62.011       37.557     6177.678     3845.378     1410.502        1.126        0.572      103.852       44.245        0.182      336.283        7.481      864.159
01/20/2021  12:59:00      158.341     -229.223      -42.894       62.555       74.958       37.424     3913.107     5618.765     1400.577        4.519        0.547      278.595       34.170        0.015      335.781        6.638      864.137
01/20/2021  13:00:00       79.322     -124.410      -35.844       76.269       96.527       35.247     5816.884     9317.403     1242.352        1.971        0.819      147.546       32.490        0.048      335.908        6.855      864.146
01/20/2021  13:01:00       50.033      -43.338      -16.588       36.014       32.938       27.230     1297.018     1084.893      741.468        0.389        0.156       66.193       20.426        0.095      336.176        7.301      864.144
01/20/2021  13:02:00      -15.663      -80.406      -20.180       30.049       29.280       19.144      902.932      857.335      366.485        0.462        0.106       81.917       13.420        0.027      336.329        7.557      864.111
01/20/2021  13:03:00       53.454      -30.049      -17.442       49.640       65.840       33.516     2464.171     4334.862     1123.337        0.599        0.396       61.321       34.428        0.315      336.204        7.348      864.094
01/20/2021  13:04:00       30.035      -81.929      -23.369       58.408       65.257       35.701     3411.444     4258.471     1274.571        0.855        0.447       87.261       25.786        0.087      336.438        7.740      864.079
01/20/2021  13:05:00       96.478     -203.403      -34.583       55.599       65.036       29.019     3091.296     4229.631      842.078        3.002        0.408      225.124       27.949        0.015      335.784        6.646      864.065
01/20/2021  13:06:00       82.537     -206.292      -35.677       28.872       49.742       19.384      833.591     2474.293      375.735        2.716        0.184      222.191        6.719        0.001      335.713        6.528      864.049
01/20/2021  13:07:00      110.010     -212.201      -47.787       28.443       55.871       17.854      809.030     3121.597      318.770        3.183        0.212      239.021        8.181        0.001      335.809        6.688      864.031
01/20/2021  13:08:00       74.046      -64.515      -33.709       45.358       79.042       26.110     2057.320     6247.627      681.751        0.988        0.449       98.209       17.208        0.031      336.178        7.305      864.037
01/20/2021  13:09:00       97.914       28.989      -24.095       70.599       73.766       30.537     4984.183     5441.457      932.536        1.118        0.568      102.115       19.374        0.036      336.180        7.308      864.035
01/20/2021  13:10:00       65.773       -0.673      -21.234       57.877       95.495       30.210     3349.763     9119.348      912.634        0.908        0.669       65.777       29.796        0.205      336.338        7.573      864.034
01/20/2021  13:11:00       46.370      -55.069      -25.134       34.583       61.622       19.005     1196.016     3797.226      361.172        0.558        0.268       71.991       14.285        0.039      336.053        7.099      864.041
01/20/2021  13:12:00       55.532      -76.731      -36.865       46.970       66.382       25.782     2206.223     4406.614      664.712        0.880        0.364       94.718       19.349        0.042      336.199        7.341      864.041
01/20/2021  13:13:00       14.963      -78.237      -12.747       84.268       86.209       38.580     7101.113     7431.933     1488.412        1.126        0.801       79.655       48.220        0.366      336.396        7.670      864.022
01/20/2021  13:14:00       -7.079        1.063        7.035       51.826       58.225       27.008     2685.955     3390.095      729.439        0.345        0.340        7.159        9.809        1.878      336.505        7.853      864.016
01/20/2021  13:15:00       85.339     -161.761      -26.209       68.417       91.787       37.648     4680.870     8424.893     1417.403        2.433        0.726      182.892       53.105        0.084      336.084        7.147      864.006
01/20/2021  13:16:00      102.157     -154.026      -38.623       36.017       37.405       17.334     1297.202     1399.169      300.484        1.932        0.150      184.825       12.482        0.005      335.824        6.716      864.001
01/20/2021  13:17:00       18.953      -76.700      -17.925       47.520       51.875       26.175     2258.145     2690.998      685.116        0.610        0.282       79.008       17.958        0.052      336.274        7.464      863.995
01/20/2021  13:18:00        2.112      -17.469       -6.961       31.018       37.234       26.082      962.118     1386.394      680.260        0.169        0.151       17.597       18.742        1.134      336.627        8.057      863.986
01/20/2021  13:19:00      -22.267      -12.081       -7.726       33.384       46.094       21.995     1114.460     2124.637      483.800        0.221        0.186       25.333       17.483        0.476      336.822        8.383      863.972
01/20/2021  13:20:00      -18.974      -12.490       -4.180       30.825       32.731       25.543      950.207     1071.301      652.448        0.160        0.134       22.716       17.213        0.574      336.973        8.634      863.960
01/20/2021  13:21:00      -23.189      -27.236       -1.100       61.770       35.797       31.388     3815.486     1281.439      985.220        0.368        0.304       35.770       15.312        0.183      336.600        8.012      863.924
01/20/2021  13:22:00      -33.109       -6.911       -2.439       41.539       38.788       24.211     1725.465     1504.544      586.189        0.248        0.191       33.823       19.354        0.327      336.594        8.000      863.915
01/20/2021  13:23:00       12.738        3.914      -17.580       29.742       30.134       22.317      884.562      908.046      498.034        0.139        0.115       13.326        7.062        0.281      336.542        7.913      863.910
01/20/2021  13:24:00      -10.598        5.616        1.033       31.265       16.880       14.432      977.500      284.941      208.288        0.081        0.074       11.994        7.648        0.407      336.422        7.714      863.916
01/20/2021  13:25:00      122.773       -8.203       -4.648       54.318       53.405       29.864     2950.491     2852.087      891.833        1.093        0.335      123.047       28.508        0.054      336.261        7.444      863.918
01/20/2021  13:26:00       81.588       12.203       -9.761       57.676       45.917       33.804     3326.526     2108.339     1142.739        0.674        0.329       82.495       22.053        0.071      336.388        7.656      863.916
01/20/2021  13:27:00       50.158      -31.105      -15.164       50.110       46.541       22.675     2510.996     2166.077      514.163        0.445        0.260       59.020       13.567        0.053      336.342        7.580      863.916
01/20/2021  13:28:00       -1.016      -49.598        3.922       25.624       29.396       27.589      656.571      864.144      761.139        0.238        0.114       49.608       22.057        0.198      336.415        7.700      863.921
01/20/2021  13:29:00       49.923        8.945       -9.257       44.725       58.533       32.367     2000.298     3426.091     1047.598        0.456        0.324       50.718       23.829        0.221      336.460        7.777      863.903
01/20/2021  13:30:00      145.397       51.078      -25.429       68.678       63.267       35.459     4716.660     4002.672     1257.366        1.718        0.499      154.108       20.891        0.018      336.335        7.566      863.872
01/20/2021  13:31:00       81.101       18.258      -15.079       64.329       84.865       39.673     4138.247     7202.032     1573.922        1.002        0.646       83.131       32.235        0.150      336.620        8.045      863.844
01/20/2021  13:32:00       59.177       14.152      -11.899       92.438       80.868       34.803     8544.790     6539.603     1211.273        1.007        0.815       60.846       26.583        0.191      336.530        7.894      863.815
01/20/2021  13:33:00       -5.055       34.728       -0.874       55.326       40.584       30.035     3060.948     1647.075      902.084        0.342        0.281       35.094       13.102        0.139      336.700        8.178      863.797
01/20/2021  13:34:00       26.693       48.703        4.485       43.018       40.859       25.204     1850.569     1669.457      635.234        0.363        0.208       55.538       26.215        0.223      336.480        7.811      863.785
01/20/2021  13:35:00       76.811     -109.823      -26.590       61.038       64.773       30.562     3725.674     4195.500      934.041        1.376        0.443      134.019       34.146        0.065      336.632        8.063      863.764
01/20/2021  13:36:00       43.923      -44.339      -11.768       61.761       75.048       33.118     3814.362     5632.156     1096.785        0.729        0.527       62.411       31.458        0.254      336.722        8.215      863.752
01/20/2021  13:37:00       27.517       36.014      -12.302       46.411       45.419       20.610     2153.951     2062.844      424.768        0.342        0.232       45.323       19.450        0.184      336.766        8.288      863.759
01/20/2021  13:38:00       -9.393      -25.386      -12.551       28.368       50.180       20.099      804.768     2517.997      403.953        0.231        0.186       27.068       21.187        0.613      337.033        8.735      863.744
01/20/2021  13:39:00      -16.403      -16.988      -10.701       31.085       26.220       25.502      966.296      687.471      650.352        0.149        0.115       23.614       13.851        0.344      337.156        8.939      863.735
01/20/2021  13:40:00       -8.866      -54.011      -17.814       36.360       39.304       24.912     1322.014     1544.814      620.626        0.340        0.174       54.734        5.019        0.008      337.108        8.860      863.745
01/20/2021  13:41:00      -19.002       -7.095       -7.922       31.264       22.392       22.881      977.421      501.418      523.537        0.124        0.100       20.283       13.497        0.443      337.171        8.966      863.746
01/20/2021  13:42:00       68.337     -114.564      -25.209       49.298       46.806       24.696     2430.337     2190.800      609.878        1.183        0.262      133.397       28.764        0.046      336.702        8.182      863.735
01/20/2021  13:43:00       53.816      -24.884       -7.922       38.391       93.010       43.996     1473.857     8650.906     1935.635        0.782        0.603       59.291       47.374        0.638      336.609        8.026      863.735
01/20/2021  13:44:00       29.853      -12.926      -12.554       47.376       39.895       17.217     2244.502     1591.575      296.438        0.267        0.207       32.531       10.220        0.099      336.755        8.271      863.738
01/20/2021  13:45:00       33.370      -50.839       -9.601       70.291       51.007       33.692     4940.804     2601.687     1135.154        0.623        0.434       60.812       30.940        0.259      336.765        8.287      863.720
01/20/2021  13:46:00      -49.726      -67.759      -11.171       62.924       49.406       29.092     3959.395     2440.975      846.351        0.722        0.362       84.047       24.964        0.088      336.828        8.392      863.706
01/20/2021  13:47:00       72.552     -113.519      -14.443       78.919       64.044       34.791     6228.244     4101.687     1210.430        1.495        0.577      134.723       39.944        0.088      336.624        8.050      863.695
01/20/2021  13:48:00       29.001      -61.450      -14.636       59.626       46.867       33.553     3555.236     2196.490     1125.815        0.585        0.344       67.950       37.548        0.305      336.763        8.282      863.682
01/20/2021  13:49:00      -41.361      -14.621       -7.564       42.447       43.190       25.453     1801.717     1865.362      647.840        0.315        0.216       43.869       22.351        0.260      336.936        8.573      863.658
01/20/2021  13:50:00      -36.361      -40.384      -13.093       38.190       45.827       29.075     1458.456     2100.078      845.367        0.376        0.220       54.341       18.440        0.115      336.795        8.337      863.626
01/20/2021  13:51:00      -49.123       -1.061        5.282       32.681       39.235       27.552     1068.042     1539.346      759.098        0.290        0.168       49.135       22.885        0.217      337.113        8.868      863.601
01/20/2021  13:52:00      -23.249       -0.207        0.206       32.997       39.286       29.582     1088.804     1543.386      875.108        0.202        0.175       23.250       24.458        1.107      337.031        8.731      863.573
01/20/2021  13:53:00      -59.528       -2.938        5.710       60.029       33.709       23.442     3603.450     1136.316      549.518        0.444        0.264       59.601       10.003        0.028      336.933        8.568      863.550
01/20/2021  13:54:00      -14.719       -5.833       10.608       38.143       50.612       28.268     1454.904     2561.607      799.065        0.259        0.241       15.832       22.853        2.083      337.122        8.884      863.523
01/20/2021  13:55:00      -60.400       38.483        0.360       42.774       32.809       19.814     1829.648     1076.419      392.586        0.421        0.165       71.617       11.962        0.028      336.574        7.967      863.503
01/20/2021  13:56:00       -3.198      -24.004       -3.935       33.806       29.586       24.569     1142.817      875.323      603.639        0.161        0.131       24.216       15.467        0.408      336.917        8.541      863.493
01/20/2021  13:57:00      -40.098       -3.179      -11.164       25.842       19.428       17.723      667.824      377.453      314.091        0.155        0.068       40.224       16.009        0.158      336.657        8.106      863.493
01/20/2021  13:58:00       26.807       38.397       -7.458       60.400       22.870       17.921     3648.111      523.020      321.160        0.337        0.225       46.829       14.784        0.100      336.632        8.065      863.480
01/20/2021  13:59:00       47.457       70.700      -11.192       50.027       26.239       13.970     2502.676      688.504      195.161        0.538        0.169       85.151       16.237        0.036      336.614        8.035      863.473
01/20/2021  14:00:00       58.434     -110.995      -20.576       58.531       96.998       30.017     3425.888     9408.557      900.991        1.494        0.687      125.437       43.628        0.121      336.765        8.284      863.463
01/20/2021  14:01:00      112.001     -228.111      -35.706       44.310       60.827       31.609     1963.377     3699.982      999.146        3.626        0.333      254.123       30.757        0.015      336.444        7.748      863.447
01/20/2021  14:02:00       85.854     -146.948      -27.969       26.552       31.955       15.919      704.996     1021.138      253.413        1.586        0.099      170.190       13.484        0.006      336.465        7.785      863.451
01/20/2021  14:03:00       88.617      -66.728      -22.817       63.546      102.064       34.689     4038.088    10417.027     1203.293        1.424        0.783      110.931       40.046        0.130      336.813        8.365      863.451
01/20/2021  14:04:00       69.495      -15.414      -10.443       61.856       74.087       45.203     3826.175     5488.922     2043.353        0.826        0.568       71.183       40.296        0.320      336.669        8.126      863.463
01/20/2021  14:05:00       93.799      -45.113       -9.812       69.465       49.551       34.124     4825.431     2455.341     1164.415        0.969        0.422      104.084       38.746        0.139      336.511        7.863      863.462
01/20/2021  14:06:00       60.075       62.289      -11.871       44.253       42.209       20.309     1958.298     1781.608      412.446        0.589        0.208       86.538       16.785        0.038      336.496        7.837      863.455
01/20/2021  14:07:00      109.597      106.609      -10.090       25.826       23.845       18.496      666.991      568.572      342.089        1.253        0.079      152.895       13.182        0.007      336.542        7.914      863.438
01/20/2021  14:08:00       92.232       43.783      -17.531       38.236       51.536       26.225     1461.973     2655.998      687.731        0.777        0.240      102.096       17.467        0.029      336.648        8.092      863.414
01/20/2021  14:09:00      108.343       69.063      -17.714       45.263       35.506       18.498     2048.757     1260.662      342.174        1.024        0.183      128.483       12.721        0.010      336.580        7.977      863.417
01/20/2021  14:10:00       79.242       52.410      -12.359       25.746       18.748       13.853      662.872      351.476      191.897        0.519        0.060       95.006       15.487        0.027      336.384        7.648      863.422
01/20/2021  14:11:00       31.609       60.209       -1.388       19.990       21.471       15.876      399.607      461.014      252.055        0.287        0.056       68.002       11.728        0.030      336.517        7.874      863.424
01/20/2021  14:12:00       32.394       43.565       -4.410       21.536       16.358       15.943      463.811      267.595      254.168        0.198        0.049       54.289       15.831        0.085      336.545        7.919      863.426
01/20/2021  14:13:00       14.890       20.029      -12.109       17.818       10.996        9.505      317.472      120.909       90.343        0.065        0.026       24.958        6.060        0.059      336.662        8.115      863.429
01/20/2021  14:14:00      -51.266      -31.846       -8.576       27.354       25.280       19.620      748.230      639.075      384.946        0.274        0.089       60.352        4.816        0.006      336.836        8.405      863.428
01/20/2021  14:15:00      -19.719       -6.139        5.253       54.734       28.752       20.007     2995.858      826.678      400.296        0.234        0.211       20.652       14.054        0.463      336.950        8.594      863.430
01/20/2021  14:16:00      -58.567       37.682       -2.257       52.570       29.311       24.033     2763.641      859.137      577.567        0.453        0.210       69.643       15.439        0.049      337.153        8.935      863.425
01/20/2021  14:17:00      -25.887       98.929        0.290       36.096       37.747       24.621     1302.925     1424.870      606.209        0.689        0.167      102.260       18.487        0.033      336.980        8.646      863.422
01/20/2021  14:18:00      -35.714      124.166       -7.479       37.627       42.010       27.125     1415.808     1764.862      735.761        1.033        0.196      129.200       18.731        0.021      337.001        8.680      863.414
01/20/2021  14:19:00        4.283       37.389       -7.577       15.500       20.160       11.092      240.259      406.439      123.030        0.112        0.038       37.634        7.609        0.041      336.645        8.088      863.407
01/20/2021  14:20:00      -45.360        8.604      -31.407       50.615       30.341       23.304     2561.865      920.577      543.072        0.357        0.201       46.169       29.217        0.400      336.791        8.330      863.386
01/20/2021  14:21:00       53.662       22.170       -4.480       45.773       23.827       20.320     2095.200      567.743      412.898        0.323        0.154       58.062       14.832        0.065      336.803        8.351      863.380
01/20/2021  14:22:00       39.092       29.911       -1.053       50.776       36.662       18.286     2578.160     1344.096      334.382        0.334        0.213       49.222       19.798        0.162      336.884        8.485      863.380
01/20/2021  14:23:00      -16.047       -3.786       12.659       41.368       76.696       37.719     1711.271     5882.210     1422.696        0.472        0.451       16.487       32.178        3.809      337.185        8.988      863.365
01/20/2021  14:24:00        1.521       -6.977       -6.086       42.302       38.375       34.397     1789.468     1472.638     1183.132        0.227        0.222        7.141       24.143       11.431      337.033        8.734      863.366
01/20/2021  14:25:00       42.070      -80.968      -26.288       33.851       52.897       29.625     1145.874     2798.058      877.667        0.692        0.241       91.246       23.531        0.067      336.991        8.666      863.362
01/20/2021  14:26:00       30.510      -20.610       -2.371       27.197       61.378       25.548      739.651     3767.220      652.720        0.326        0.258       36.819       18.763        0.260      337.211        9.032      863.360
01/20/2021  14:27:00       30.377      -10.550        0.407       35.385       65.285       30.917     1252.117     4262.078      955.885        0.375        0.324       32.157       28.791        0.802      337.256        9.107      863.355
01/20/2021  14:28:00       16.959        5.520        1.015       40.396       55.810       30.154     1631.854     3114.708      909.258        0.299        0.283       17.835       25.402        2.029      337.369        9.297      863.344
01/20/2021  14:29:00       56.037        8.353       -7.409       56.001       38.850       20.796     3136.089     1509.357      432.475        0.417        0.254       56.656        9.999        0.031      337.034        8.736      863.341
01/20/2021  14:30:00       82.193       27.516       -8.613       28.387       48.343       26.700      805.829     2337.067      712.877        0.572        0.193       86.676       20.500        0.056      337.006        8.690      863.329
01/20/2021  14:31:00      130.170       52.612       -5.531       47.167       55.629       30.999     2224.760     3094.609      960.959        1.301        0.314      140.400       28.236        0.040      336.837        8.406      863.315
01/20/2021  14:32:00       92.141       23.361       -8.171       45.230       63.172       30.651     2045.720     3990.676      939.497        0.804        0.349       95.056       28.830        0.092      336.953        8.600      863.304
01/20/2021  14:33:00       95.667       61.869       -8.277       44.935       25.017       21.807     2019.154      625.845      475.563        0.808        0.156      113.929       23.200        0.041      336.735        8.237      863.292
01/20/2021  14:34:00       22.459       26.041        3.069       27.820       20.475       17.993      773.954      419.238      323.752        0.135        0.076       34.388       16.458        0.229      336.913        8.534      863.274
01/20/2021  14:35:00       46.174       41.669       -7.847       26.999       25.008       19.608      728.948      625.404      384.489        0.283        0.087       62.196        6.870        0.012      337.107        8.858      863.256
01/20/2021  14:36:00       27.145       41.272        3.636       44.793       83.878       27.900     2006.433     7035.574      778.423        0.613        0.491       49.399       29.518        0.357      337.217        9.041      863.241
01/20/2021  14:37:00       32.294       32.787      -13.748       42.422       58.104       23.597     1799.640     3376.117      556.839        0.402        0.287       46.021       17.429        0.143      337.182        8.983      863.222
01/20/2021  14:38:00       69.080       42.819       -4.363       57.092       31.272       24.256     3259.455      977.922      588.361        0.572        0.241       81.275       23.867        0.086      337.136        8.906      863.203
01/20/2021  14:39:00       23.331       40.525        2.337       29.343       30.330       20.366      861.031      919.897      414.787        0.219        0.110       46.761       12.742        0.074      337.232        9.067      863.197
01/20/2021  14:40:00       18.095      -18.061      -10.495       56.293       67.227       21.955     3168.910     4519.522      482.011        0.447        0.409       25.566       18.695        0.535      337.345        9.258      863.195
01/20/2021  14:41:00      131.625     -118.290      -36.234       36.372       34.577       21.738     1322.935     1195.546      472.522        1.781        0.150      176.967       19.296        0.012      337.012        8.699      863.178
01/20/2021  14:42:00       79.796     -104.174      -23.742       28.926       37.482       22.592      836.726     1404.875      510.395        1.027        0.138      131.223       17.454        0.018      336.962        8.617      863.167
01/20/2021  14:43:00       61.641       -4.061       -8.754       27.826       37.278       19.137      774.271     1389.644      366.230        0.321        0.127       61.775        9.456        0.023      336.965        8.621      863.165
01/20/2021  14:44:00       84.889      -59.732      -19.957       24.249       33.022       19.275      588.028     1090.430      371.530        0.661        0.102      103.798       12.968        0.016      336.959        8.610      863.150
01/20/2021  14:45:00       79.072      -41.834      -21.974       30.548       29.770       26.423      933.187      886.253      698.170        0.550        0.126       89.457       17.156        0.037      337.046        8.755      863.130
01/20/2021  14:46:00       52.070      -96.755       -7.370       45.974       40.727       36.111     2113.591     1658.655     1303.985        0.860        0.254      109.876       29.218        0.071      337.235        9.072      863.109
01/20/2021  14:47:00       11.655      -27.789      -10.433       33.699       30.493       19.197     1135.618      929.800      368.540        0.172        0.122       30.134       15.828        0.276      337.522        9.553      863.107
01/20/2021  14:48:00       14.548      -26.264      -14.612       45.515       45.566       25.978     2071.600     2076.258      674.861        0.297        0.241       30.024       21.029        0.491      337.610        9.702      863.104
01/20/2021  14:49:00       94.549      -83.231      -14.599       56.933       52.093       40.566     3241.414     2713.710     1645.589        1.184        0.380      125.964       35.936        0.081      337.418        9.378      863.102
01/20/2021  14:50:00       72.391      -87.953      -22.629       53.753       48.227       33.194     2889.392     2325.858     1101.871        0.990        0.316      113.914       35.794        0.099      337.364        9.288      863.101
01/20/2021  14:51:00       45.775      -80.091      -27.892       29.474       40.153       18.718      868.729     1612.233      350.353        0.606        0.142       92.249       11.837        0.016      337.361        9.283      863.099
01/20/2021  14:52:00       30.497       -1.672      -15.270       24.863       34.954       22.633      618.186     1221.781      512.232        0.176        0.118       30.543       14.099        0.213      337.364        9.287      863.106
01/20/2021  14:53:00      -11.347       -7.916       -7.038       28.089       15.377       12.313      788.974      236.461      151.604        0.071        0.059       13.835        7.378        0.284      337.468        9.462      863.103
01/20/2021  14:54:00      -30.126      -30.943      -13.013       32.152       30.685       14.830     1033.736      941.585      219.936        0.211        0.110       43.186       16.698        0.149      337.673        9.806      863.090
01/20/2021  14:55:00      -24.807       11.333       -5.912       32.830       21.173       11.201     1077.797      448.298      125.465        0.121        0.083       27.273        7.013        0.066      337.591        9.668      863.091
01/20/2021  14:56:00        6.112        6.134      -12.926       20.571       24.443       20.060      423.184      597.443      402.405        0.083        0.071        8.659       16.262        3.527      337.737        9.913      863.090
01/20/2021  14:57:00       -6.743      -12.740      -16.362       31.378       30.927       16.807      984.601      956.460      282.485        0.135        0.111       14.414       15.478        1.153      337.518        9.545      863.086
01/20/2021  14:58:00        7.797      -23.104        4.533       23.213       26.901       20.041      538.854      723.639      401.659        0.114        0.083       24.385       13.475        0.305      337.755        9.943      863.083
01/20/2021  14:59:00      -43.794      -26.443       -0.279       37.796       33.882       20.664     1428.571     1147.966      427.002        0.281        0.150       51.158       10.433        0.042      337.611        9.702      863.074
01/20/2021  15:00:00      -26.970       -8.077        0.833       34.894       27.355       19.055     1217.599      748.310      363.086        0.156        0.116       28.153       14.520        0.266      337.664        9.790      863.074
01/20/2021  15:01:00      -17.895       19.147        5.577       50.721       34.421       26.739     2572.657     1184.815      714.979        0.259        0.224       26.208       18.379        0.492      337.451        9.435      863.085
01/20/2021  15:02:00        2.996        5.700       -8.313       28.284       42.629       24.712      800.000     1817.248      610.673        0.167        0.161        6.440       12.294        3.645      337.519        9.548      863.090
01/20/2021  15:03:00       64.878      -84.137      -22.105       55.681       44.839       27.757     3100.369     2010.523      770.457        0.883        0.294      106.245       29.503        0.077      337.282        9.151      863.088
01/20/2021  15:04:00       70.872      -88.959      -34.268       42.753       52.910       28.044     1827.861     2799.500      786.446        0.976        0.271      113.739       20.099        0.031      337.446        9.425      863.085
01/20/2021  15:05:00      -26.995       -1.519      -12.868       44.876       40.965       20.007     2013.831     1678.155      400.276        0.249        0.205       27.038       19.403        0.515      337.701        9.853      863.070
01/20/2021  15:06:00       74.171      -63.271      -16.825       33.509       42.389       20.941     1122.837     1796.788      438.533        0.657        0.168       97.492       22.441        0.053      337.242        9.085      863.076
01/20/2021  15:07:00        1.053       26.149      -10.766       34.680       27.443       18.231     1202.681      753.143      332.387        0.154        0.114       26.171       18.348        0.492      337.151        8.931      863.067
01/20/2021  15:08:00      -11.317        3.214       -5.109       12.769       15.211       16.737      163.054      231.362      280.142        0.042        0.034       11.765        9.222        0.614      337.647        9.762      863.057
01/20/2021  15:09:00       -3.598      -30.797        8.688       17.642       24.365       18.551      311.238      593.642      344.125        0.114        0.062       31.006       14.949        0.232      337.956       10.281      863.052
01/20/2021  15:10:00       -7.073       -2.449        4.324       23.096       21.583       17.758      533.414      465.823      315.339        0.069        0.066        7.485       12.439        2.762      338.017       10.383      863.048
01/20/2021  15:11:00      -60.553       23.898       -9.405       22.965       19.656       20.581      527.383      386.366      423.581        0.283        0.067       65.098       11.915        0.034      337.460        9.449      863.048
01/20/2021  15:12:00      -13.574       28.036       -9.997       22.563       18.320       13.852      509.110      335.610      191.876        0.105        0.052       31.150        8.408        0.073      337.482        9.486      863.039
01/20/2021  15:13:00        1.319       -9.823        3.677       28.496       22.686       16.214      812.045      514.672      262.899        0.085        0.079        9.911       14.456        2.127      337.674        9.807      863.031
01/20/2021  15:14:00       29.715       33.537       -0.246       21.682       18.013       11.633      470.126      324.478      135.318        0.147        0.046       44.807        7.345        0.027      337.409        9.365      863.019
01/20/2021  15:15:00       53.833       67.736      -12.377       43.745       14.394       14.604     1913.620      207.197      213.269        0.499        0.117       86.523        7.079        0.007      337.299        9.180      863.010
01/20/2021  15:16:00        6.686      -14.690      -14.754       36.523       62.349       15.842     1333.901     3887.391      250.981        0.297        0.274       16.140        2.808        0.030      337.433        9.405      862.988
01/20/2021  15:17:00       30.643      -18.042        1.169       48.641       42.836       29.154     2365.941     1834.949      849.944        0.316        0.253       35.560       25.188        0.502      337.462        9.453      862.976
01/20/2021  15:18:00        6.777       -4.194       -2.299       34.998       39.892       30.907     1224.834     1591.361      955.240        0.192        0.189        7.970       14.555        3.335      337.595        9.675      862.955
01/20/2021  15:19:00       31.790      -35.274       -4.494       61.779       63.484       45.897     3816.660     4030.218     2106.520        0.611        0.498       47.485       35.252        0.551      337.491        9.501      862.948
01/20/2021  15:20:00       25.873       18.202      -13.654       57.680       50.967       23.961     3327.001     2597.644      574.113        0.384        0.325       31.634       17.856        0.319      337.449        9.429      862.942
01/20/2021  15:21:00      132.857       60.808      -13.296       53.993       28.083       23.796     2915.297      788.668      566.267        1.290        0.214      146.112       21.336        0.021      337.203        9.018      862.935
01/20/2021  15:22:00       50.274       60.082       -3.714       40.915       32.361       23.119     1674.024     1047.256      534.503        0.470        0.163       78.341       22.133        0.080      337.268        9.129      862.929
01/20/2021  15:23:00       43.129       52.905       -7.964       33.193       33.284       22.842     1101.755     1107.856      521.773        0.373        0.137       68.257       20.642        0.091      337.357        9.277      862.909
01/20/2021  15:24:00      115.710       58.748       -5.541       65.548       31.391       19.366     4296.558      985.365      375.039        1.126        0.283      129.769       21.860        0.028      337.257        9.109      862.893
01/20/2021  15:25:00      138.190       79.335      -11.493       42.428       31.429       18.248     1800.145      987.783      332.990        1.432        0.156      159.344       19.781        0.015      337.166        8.958      862.886
01/20/2021  15:26:00      122.631       87.334      -10.682       36.782       24.438       22.973     1352.902      597.204      527.781        1.263        0.124      150.551       12.199        0.007      337.200        9.016      862.886
01/20/2021  15:27:00       57.160       69.317       -1.419       40.132       24.951       24.402     1610.551      622.569      595.456        0.545        0.141       89.845       17.712        0.039      337.227        9.060      862.887
01/20/2021  15:28:00       51.970       73.750       -0.955       29.157       36.821       20.153      850.114     1355.769      406.159        0.538        0.131       90.221       19.998        0.049      337.301        9.183      862.887
01/20/2021  15:29:00       48.029      -18.845      -11.187       38.567       76.310       38.054     1487.384     5823.253     1448.098        0.577        0.438       51.594       32.665        0.401      337.392        9.336      862.876
01/20/2021  15:30:00       76.384      -66.605      -31.361       42.320       49.483       24.982     1790.990     2448.545      624.112        0.806        0.243      101.345       17.806        0.031      337.295        9.172      862.886
01/20/2021  15:31:00       40.381       11.727      -26.039       54.035       62.145       32.435     2919.753     3861.966     1052.058        0.514        0.392       42.049       32.991        0.616      337.267        9.125      862.882
01/20/2021  15:32:00       55.280       51.365       -1.855       47.719       31.780       18.630     2277.128     1009.997      347.071        0.467        0.182       75.460       21.300        0.080      337.272        9.135      862.880
01/20/2021  15:33:00       16.860       28.862        1.362       20.760       30.993       23.486      430.995      960.592      551.612        0.153        0.097       33.426       11.973        0.128      337.425        9.389      862.873
01/20/2021  15:34:00       56.591       36.980      -14.043       32.171       25.467       20.831     1034.996      648.573      433.919        0.344        0.106       67.602       18.324        0.073      337.318        9.211      862.878
01/20/2021  15:35:00       58.745       44.069      -10.215       24.422       26.893       14.452      596.449      723.251      208.868        0.351        0.076       73.437        7.715        0.011      337.362        9.284      862.881
01/20/2021  15:36:00       89.555        2.708      -13.515       71.041       38.736       29.248     5046.892     1500.463      855.448        0.780        0.370       89.596       29.924        0.112      337.424        9.389      862.867
01/20/2021  15:37:00      118.230       61.001       -7.379       66.322       40.175       28.777     4398.598     1614.027      828.128        1.230        0.342      133.039       14.440        0.012      337.353        9.268      862.869
01/20/2021  15:38:00      106.193       73.141       -2.428       61.125       44.424       31.365     3736.210     1973.523      983.756        1.166        0.335      128.944       28.260        0.048      337.414        9.372      862.868
01/20/2021  15:39:00       83.638       54.415       -4.568       66.350       44.292       29.655     4402.292     1961.758      879.446        0.861        0.362       99.781       14.938        0.022      337.480        9.481      862.865
01/20/2021  15:40:00       76.728       32.763       -0.688       51.813       44.922       25.767     2684.556     2018.022      663.940        0.616        0.268       83.430       25.745        0.095      337.416        9.376      862.861
01/20/2021  15:41:00       47.858       29.702      -14.873       37.847       54.205       22.607     1432.419     2938.206      511.065        0.414        0.244       56.325        9.953        0.031      337.501        9.517      862.860
01/20/2021  15:42:00       38.868      -14.928       -4.822       60.011       43.954       31.462     3601.378     1931.963      989.833        0.414        0.326       41.636       28.896        0.482      337.582        9.654      862.868
01/20/2021  15:43:00       92.430      -86.646      -20.977       88.641       63.848       29.016     7857.182     4076.515      841.908        1.463        0.639      126.692       37.175        0.086      337.502        9.518      862.868
01/20/2021  15:44:00       45.752        2.054       -1.233       52.230       49.534       35.323     2727.951     2453.616     1247.715        0.426        0.321       45.798       33.689        0.541      337.357        9.278      862.865
01/20/2021  15:45:00      113.212       25.133      -18.986       65.239       48.118       29.128     4256.106     2315.373      848.436        1.061        0.371      115.968       17.720        0.023      337.313        9.203      862.867
01/20/2021  15:46:00       34.562      -14.172      -19.292       38.429       49.436       27.962     1476.819     2443.929      781.877        0.323        0.235       37.354       19.612        0.276      337.424        9.388      862.868
01/20/2021  15:47:00       81.698      -76.375      -20.953       42.175       49.027       26.214     1778.718     2403.691      687.177        0.891        0.243      111.838       20.425        0.033      337.521        9.550      862.870
01/20/2021  15:48:00       92.561      -71.590      -30.196       32.381       50.496       20.221     1048.512     2549.871      408.899        0.931        0.200      117.016       22.277        0.036      337.501        9.519      862.876
01/20/2021  15:49:00       91.927     -159.093      -26.557       34.989       50.305       24.937     1224.256     2530.563      621.878        1.942        0.219      183.742       21.988        0.014      337.428        9.394      862.894
01/20/2021  15:50:00       93.055     -103.157      -28.010       26.895       32.911       19.315      723.357     1083.133      373.074        1.113        0.109      138.927       16.964        0.015      337.387        9.326      862.918
01/20/2021  15:51:00       29.582      -23.668       -8.088       34.957       20.857       20.985     1221.985      435.015      440.384        0.180        0.105       37.885       15.713        0.172      337.492        9.501      862.938
01/20/2021  15:52:00       15.455      -50.589      -10.521       49.264       29.563       20.775     2426.963      873.995      431.600        0.332        0.187       52.897       20.342        0.148      337.626        9.727      862.941
01/20/2021  15:53:00       -9.663      -22.799       -7.197       25.806       22.156       24.166      665.975      490.877      583.979        0.120        0.087       24.762       15.008        0.367      337.795       10.011      862.935
01/20/2021  15:54:00      -23.820      -24.504       -5.325       45.121       35.301       21.567     2035.892     1246.130      465.132        0.247        0.187       34.174       18.115        0.281      337.711        9.870      862.935
01/20/2021  15:55:00       -3.037      -12.208        4.869       52.596       38.301       27.608     2766.339     1466.942      762.220        0.259        0.250       12.580       21.600        2.948      337.729        9.898      862.928
01/20/2021  15:56:00      -31.129        0.708      -16.861       36.542       27.482       27.663     1335.350      755.250      765.245        0.205        0.143       31.137       17.319        0.309      337.814       10.042      862.928
01/20/2021  15:57:00       -2.482      -15.365        4.544       42.297       36.495       24.839     1789.005     1331.856      616.995        0.200        0.187       15.564       15.954        1.051      337.783        9.991      862.927
01/20/2021  15:58:00      -65.214       16.796      -12.468       35.167       26.191       19.839     1236.706      685.961      393.593        0.350        0.116       67.342       13.526        0.040      337.764        9.960      862.929
01/20/2021  15:59:00      -43.477        0.101      -10.883       35.208       38.199       25.107     1239.602     1459.139      630.367        0.267        0.166       43.478       20.123        0.214      337.914       10.210      862.937
01/20/2021  16:00:00      -43.596       -5.534       -4.786       37.734       37.472       20.177     1423.884     1404.161      407.112        0.259        0.162       43.945       13.595        0.096      337.845       10.094      862.941
01/20/2021  16:01:00       22.997        3.615        4.794       16.714       14.275       15.375      279.370      203.786      236.382        0.064        0.036       23.279        6.558        0.079      337.759        9.950      862.953
01/20/2021  16:02:00      -39.760       10.421        3.788       49.173       27.168       28.334     2417.941      738.088      802.812        0.283        0.198       41.103       27.289        0.441      337.831       10.071      862.963
01/20/2021  16:03:00      -28.212       19.295       -7.878       40.027       26.334       18.536     1602.125      693.505      343.579        0.193        0.132       34.179       13.382        0.153      337.950       10.270      862.976
01/20/2021  16:04:00      -24.010       40.591       -3.667       39.603       40.301       20.966     1568.391     1624.191      439.578        0.293        0.182       47.161       18.735        0.158      338.007       10.365      862.991
01/20/2021  16:05:00       22.344       62.589       -1.217       29.646       29.983       17.600      878.866      898.986      309.745        0.325        0.104       66.458       14.497        0.048      337.639        9.748      863.002
01/20/2021  16:06:00       22.938       32.349        7.745       32.707       17.825       12.089     1069.734      317.734      146.147        0.158        0.077       39.656       17.188        0.188      337.525        9.558      863.007
01/20/2021  16:07:00      -39.692       -3.428      -12.650       23.754       30.309       17.174      564.238      918.622      294.942        0.176        0.089       39.840       15.640        0.154      337.768        9.964      863.008
01/20/2021  16:08:00      -12.733      -41.525      -14.807       23.403       22.095       12.789      547.690      488.178      163.554        0.165        0.060       43.433        7.387        0.029      337.771        9.970      863.006
01/20/2021  16:09:00        1.493      -24.177       -9.820       12.572       14.612       10.859      158.050      213.508      117.927        0.059        0.024       24.223        8.149        0.113      337.805       10.026      863.005
01/20/2021  16:10:00       11.712       11.797        0.611       11.427       14.831        9.091      130.583      219.944       82.652        0.035        0.022       16.624        7.742        0.217      337.675        9.808      863.008
01/20/2021  16:11:00       48.262       32.190       -1.046       18.255       13.835       11.459      333.245      191.405      131.310        0.201        0.033       58.012        4.651        0.006      337.519        9.546      863.008
01/20/2021  16:12:00       24.962       24.793       -2.273       15.104       17.435       11.517      228.145      303.989      132.635        0.095        0.033       35.182        9.831        0.078      337.543        9.587      863.010
01/20/2021  16:13:00       24.299       34.713        0.049       16.566       12.061       12.640      274.432      145.478      159.761        0.119        0.029       42.372        7.914        0.035      337.527        9.560      863.010
01/20/2021  16:14:00       35.389       44.225        0.997       24.490       20.816       16.912      599.776      433.306      286.006        0.226        0.066       56.642        8.252        0.021      337.525        9.557      863.011
01/20/2021  16:15:00       46.214       40.674       -8.494       23.677        9.292       13.242      560.606       86.345      175.349        0.234        0.041       61.564       12.077        0.038      337.507        9.528      863.017
01/20/2021  16:16:00       49.597       36.710       -5.043       19.362       15.555       12.666      374.888      241.946      160.416        0.230        0.039       61.705        8.119        0.017      337.500        9.515      863.010
01/20/2021  16:17:00       38.501       31.893       -1.648       16.127       21.185       10.804      260.087      448.788      116.734        0.166        0.041       49.995        5.753        0.013      337.456        9.442      863.006
01/20/2021  16:18:00       51.273        3.576       -7.765       15.249       20.898       11.012      232.531      436.725      121.260        0.175        0.040       51.397       10.773        0.044      337.498        9.512      863.004
01/20/2021  16:19:00       35.327       21.100       -8.746       30.232       23.560       19.838      913.966      555.083      393.536        0.182        0.093       41.149       17.565        0.182      337.516        9.543      863.002
01/20/2021  16:20:00       33.953       15.755       -7.152       14.225       12.153        9.995      202.353      147.706       99.908        0.095        0.022       37.431        5.232        0.020      337.505        9.523      863.001
01/20/2021  16:21:00       26.500       27.841        7.492       24.728       13.190       10.732      611.476      173.977      115.173        0.122        0.045       38.437        8.329        0.047      337.578        9.647      862.993
01/20/2021  16:22:00       45.081       39.606       -1.434       24.777       17.399        8.781      613.879      302.732       77.107        0.230        0.050       60.008       10.389        0.030      337.512        9.537      862.993
01/20/2021  16:23:00       20.137       76.345       -4.887       26.520       22.929       11.681      703.326      525.745      136.451        0.381        0.068       78.956        6.054        0.006      337.619        9.713      862.994
01/20/2021  16:24:00      -16.723       95.293      -13.178       27.399       20.569       15.554      750.727      423.064      241.932        0.547        0.071       96.749        9.931        0.011      337.756        9.946      863.002
01/20/2021  16:25:00      -32.006       87.305       -8.465       28.828       29.598       17.789      831.045      876.047      316.456        0.537        0.101       92.987       11.516        0.015      337.771        9.969      863.016
01/20/2021  16:26:00      -38.607       90.024      -17.439       14.007       20.535       14.706      196.201      421.697      216.263        0.537        0.042       97.953        9.558        0.010      337.715        9.876      863.044
01/20/2021  16:27:00      -42.130       74.773        5.995       22.804       18.925       13.840      520.039      358.151      191.550        0.424        0.053       85.825       12.043        0.020      337.911       10.204      863.053
01/20/2021  16:28:00      -26.713       62.608       -9.019       27.142       28.133       16.584      736.668      791.482      275.023        0.326        0.090       68.069       11.471        0.028      337.878       10.150      863.065
01/20/2021  16:29:00        0.905       50.538       -8.960       21.238       15.325       14.603      451.032      234.865      213.257        0.177        0.045       50.546        4.550        0.008      337.588        9.662      863.071
01/20/2021  16:30:00       13.730        2.571       -0.964       14.805       29.081       15.366      219.173      845.700      236.116        0.075        0.065       13.968       10.614        0.577      337.545        9.589      863.080
01/20/2021  16:31:00       26.697       26.499       -4.660       20.736        9.850       10.867      429.980       97.023      118.089        0.104        0.032       37.616       12.453        0.110      337.435        9.408      863.083
01/20/2021  16:32:00       17.788       -1.943        1.358       20.368       10.867       12.498      414.836      118.086      156.196        0.051        0.034       17.894        4.005        0.050      337.513        9.538      863.087
01/20/2021  16:33:00       -6.629      -25.344       10.366       25.242       20.023       15.860      637.161      400.912      251.554        0.104        0.064       26.197        9.455        0.130      337.697        9.846      863.091
01/20/2021  16:34:00       -5.378      -29.520       -2.534       24.668       22.532       17.846      608.522      507.677      318.483        0.117        0.072       30.006       13.899        0.215      337.723        9.890      863.091
01/20/2021  16:35:00      -24.823      -35.157      -21.227       23.458       11.934       11.342      550.297      142.415      128.635        0.156        0.041       43.037       11.585        0.072      337.465        9.456      863.078
01/20/2021  16:36:00       -9.322      -42.239       -8.089       21.852       13.234       12.235      477.528      175.140      149.693        0.137        0.040       43.255        4.750        0.012      337.485        9.490      863.066
01/20/2021  16:37:00        6.922      -25.707       -2.545       20.459       13.286       12.616      418.589      176.513      159.154        0.073        0.038       26.623       12.209        0.210      337.502        9.521      863.048
01/20/2021  16:38:00        4.470      -17.952        1.125       19.599       14.923       13.323      384.135      222.686      177.492        0.056        0.039       18.500       11.980        0.419      337.574        9.642      863.050
01/20/2021  16:39:00        0.405      -12.341       -0.636       23.565       20.908       14.021      555.304      437.144      196.591        0.067        0.059       12.348       16.587        1.805      337.660        9.783      863.052
01/20/2021  16:40:00       20.964       -2.042        4.101       11.953       12.095       10.669      142.869      146.287      113.825        0.043        0.020       21.063        8.249        0.153      337.423        9.388      863.052
01/20/2021  16:41:00        3.607       -3.802       -1.439       26.688        8.073       14.891      712.239       65.169      221.740        0.051        0.050        5.241       15.744        9.024      337.486        9.493      863.052
01/20/2021  16:42:00        5.514       -3.522        1.717       13.180        9.532        7.513      173.715       90.850       56.439        0.018        0.016        6.543        7.049        1.161      337.622        9.720      863.045
01/20/2021  16:43:00        7.634        4.275       -2.646       10.042       15.531        7.893      100.832      241.216       62.295        0.024        0.020        8.750        5.246        0.359      337.551        9.600      863.040
01/20/2021  16:44:00      -16.565        4.562        5.086       15.652       14.974       12.390      244.985      224.208      153.507        0.047        0.031       17.182        9.993        0.338      337.495        9.506      863.045
01/20/2021  16:45:00      -68.478       14.228      -10.599       38.836       23.917       17.205     1508.250      572.008      296.007        0.369        0.119       69.941       12.227        0.031      337.416        9.375      863.048
01/20/2021  16:46:00      -92.291       37.276      -11.660       32.926       27.840       16.710     1084.118      775.046      279.220        0.609        0.107       99.535        7.045        0.005      337.497        9.513      863.054
01/20/2021  16:47:00     -111.400       42.037      -10.124       21.890       22.634       15.743      479.156      512.313      247.848        0.776        0.062      119.067       11.457        0.009      337.377        9.311      863.058
01/20/2021  16:48:00     -113.586       32.425      -12.534       22.672       26.140       15.583      514.008      683.293      242.827        0.777        0.072      118.124        9.801        0.007      337.263        9.120      863.058
01/20/2021  16:49:00     -102.352       11.888      -19.794       22.272       21.245       18.980      496.041      451.354      360.238        0.616        0.065      103.040       11.089        0.012      337.271        9.133      863.060
01/20/2021  16:50:00      -90.411       17.421      -15.956       34.586       21.833       19.903     1196.188      476.667      396.119        0.540        0.103       92.074        5.771        0.004      337.314        9.205      863.059
01/20/2021  16:51:00      -34.581        3.852      -11.151       43.386       25.146       19.086     1882.358      632.329      364.293        0.211        0.144       34.795       14.319        0.169      337.218        9.044      863.062
01/20/2021  16:52:00      -80.574       15.938      -12.126       42.381       25.997       20.512     1796.160      675.851      420.752        0.489        0.145       82.135       21.006        0.065      337.194        9.003      863.060
01/20/2021  16:53:00      -59.690       11.785      -15.498       47.820       17.873       17.965     2286.763      319.431      322.729        0.343        0.146       60.842       18.255        0.090      337.182        8.984      863.061
01/20/2021  16:54:00      -77.650        6.738      -11.978       30.308       19.404       17.439      918.597      376.517      304.123        0.391        0.080       77.942       15.050        0.037      337.189        8.994      863.063
01/20/2021  16:55:00      -56.766       -0.433       -7.906       48.322       25.119       15.760     2335.039      630.980      248.367        0.325        0.161       56.767       15.121        0.071      337.151        8.931      863.057
01/20/2021  16:56:00      -60.393        7.652       -4.915       31.725       15.865       12.078     1006.489      251.693      145.880        0.257        0.070       60.876        9.893        0.026      337.110        8.863      863.059
01/20/2021  16:57:00      -55.714        0.325       -2.249       30.459       23.456       14.741      927.772      550.161      217.287        0.240        0.085       55.715        9.792        0.031      337.143        8.919      863.052
01/20/2021  16:58:00      -64.633       15.179       -6.998       17.365       12.198       13.373      301.527      148.802      178.829        0.254        0.031       66.391        8.271        0.016      337.105        8.854      863.047
01/20/2021  16:59:00      -40.449        2.929       -0.625       20.297       15.761       12.078      411.958      248.421      145.871        0.123        0.040       40.555        5.664        0.020      337.182        8.985      863.034
01/20/2021  17:00:00      -37.475        3.815        0.051       23.081       13.828       10.484      532.716      191.224      109.925        0.113        0.042       37.669        9.798        0.068      337.118        8.875      863.028
01/20/2021  17:01:00      -84.125       25.494      -13.212       14.873       15.814       10.554      221.217      250.082      111.395        0.424        0.029       87.903        6.429        0.005      336.897        8.507      863.025
01/20/2021  17:02:00      -95.048       25.837      -12.014       21.143       16.412       13.261      447.013      269.353      175.845        0.537        0.045       98.497       10.959        0.012      336.848        8.425      863.021
01/20/2021  17:03:00      -94.647       23.557       -5.797       27.748       20.850       15.735      769.965      434.732      247.582        0.550        0.073       97.535       10.147        0.011      336.766        8.288      863.018
01/20/2021  17:04:00      -67.516       13.983       -1.830       32.611       21.119       17.264     1063.452      446.012      298.041        0.328        0.090       68.949       16.259        0.056      336.723        8.217      863.011
01/20/2021  17:05:00      -39.465      -10.839        0.029       34.879       25.909       18.827     1216.552      671.256      354.446        0.196        0.112       40.927       18.109        0.196      336.624        8.053      863.001
01/20/2021  17:06:00      -78.324        3.531       -2.425       34.562       19.392       14.696     1194.504      376.031      215.984        0.397        0.089       78.404       12.427        0.025      336.633        8.069      862.997
01/20/2021  17:07:00      -79.207        2.672       -5.071       30.703       24.401       14.114      942.653      595.397      199.211        0.402        0.087       79.252       13.723        0.030      336.713        8.200      862.994
01/20/2021  17:08:00      -79.416        6.866       -1.168       36.150       24.944       15.453     1306.825      622.190      238.789        0.426        0.108       79.712       14.651        0.034      336.685        8.153      862.995
01/20/2021  17:09:00     -100.104       24.937       -7.987       20.639       20.368       13.127      425.970      414.851      172.323        0.586        0.051      103.163        8.438        0.007      336.563        7.949      862.996
01/20/2021  17:10:00     -104.439       17.451       -6.598       29.348       21.895       17.781      861.325      479.383      316.151        0.646        0.083      105.887       15.708        0.022      336.616        8.037      862.978
01/20/2021  17:11:00      -64.310       -2.137       -3.990       49.395       26.256       21.053     2439.838      689.395      443.221        0.386        0.179       64.346       18.673        0.084      336.560        7.944      862.963
01/20/2021  17:12:00      -55.731        7.629       -5.264       33.019       24.767       16.190     1090.262      613.404      262.111        0.258        0.098       56.251        8.399        0.022      336.319        7.540      862.934
01/20/2021  17:13:00      -26.042       -2.086       -4.456       30.161       33.464       16.198      909.666     1119.855      262.384        0.150        0.115       26.125       14.215        0.296      336.176        7.301      862.913
01/20/2021  17:14:00      -15.666       -3.215        2.705       31.325       32.725       19.086      981.268     1070.922      364.261        0.134        0.121       15.993       16.945        1.123      336.171        7.294      862.898
01/20/2021  17:15:00      -14.297       -4.837        4.988       39.750       27.032       22.265     1580.048      730.716      495.735        0.153        0.140       15.093       25.045        2.754      336.118        7.204      862.879
01/20/2021  17:16:00     -100.345      -76.558      -12.045       54.681       53.580       23.491     2990.022     2870.768      551.820        1.124        0.321      126.215       27.562        0.048      336.433        7.731      862.872
01/20/2021  17:17:00     -107.831      -21.710       -8.257       29.585       43.186       20.361      875.275     1865.039      414.580        0.766        0.158      109.994       15.735        0.020      336.498        7.840      862.864
01/20/2021  17:18:00      -65.813      -31.007        1.131       32.857       37.676       19.728     1079.552     1419.456      389.204        0.409        0.144       72.752       13.908        0.037      336.404        7.681      862.870
01/20/2021  17:19:00      -96.863      -35.244        1.048       28.292       40.218       23.886      800.433     1617.475      570.535        0.681        0.149      103.076       20.109        0.038      336.507        7.854      862.885
01/20/2021  17:20:00     -114.529      -34.789       -7.419       39.235       38.335       19.158     1539.368     1469.571      367.014        0.888        0.169      119.696       17.341        0.021      336.452        7.764      862.905
01/20/2021  17:21:00      -60.702      -15.953       -4.291       44.437       22.360       16.698     1974.675      499.985      278.824        0.335        0.138       62.763       16.574        0.070      336.373        7.631      862.926
01/20/2021  17:22:00      -59.536      -15.703        2.032       30.242       28.099       15.832      914.554      789.572      250.637        0.287        0.098       61.572       15.209        0.061      336.388        7.655      862.946
01/20/2021  17:23:00      -86.152        4.824        0.932       41.193       25.301       17.532     1696.872      640.158      307.374        0.504        0.132       86.287       18.874        0.048      336.345        7.585      862.964
01/20/2021  17:24:00      -90.891       -4.432       -3.014       45.275       27.282       20.550     2049.852      744.292      422.285        0.575        0.161       90.999       22.579        0.062      336.450        7.761      862.973
01/20/2021  17:25:00     -104.376        5.767        0.772       38.736       28.193       21.533     1500.462      794.818      463.679        0.684        0.138      104.535       20.397        0.038      336.347        7.588      862.982
01/20/2021  17:26:00     -102.261       -2.883       -1.244       49.568       30.170       24.395     2456.944      910.230      595.123        0.721        0.198      102.301       26.406        0.067      336.342        7.579      862.994
01/20/2021  17:27:00      -57.949        0.812       -6.557       43.784       29.153       25.613     1917.055      849.902      656.004        0.341        0.171       57.955       23.149        0.160      336.285        7.483      862.999
01/20/2021  17:28:00      -48.596      -19.663       -5.819       36.710       27.908       22.978     1347.594      778.834      528.000        0.272        0.133       52.423       22.832        0.190      336.229        7.388      863.004
01/20/2021  17:29:00      -48.083        5.415        2.581       53.150       37.597       19.082     2824.945     1413.503      364.120        0.347        0.230       48.387       20.912        0.187      335.948        6.922      863.007
01/20/2021  17:30:00      -62.294        2.198       -0.148       46.220       26.955       19.005     2136.322      726.590      361.194        0.355        0.161       62.332       20.338        0.106      335.855        6.767      863.001
01/20/2021  17:31:00      -75.236        0.457       -4.509       29.499       31.864       18.354      870.178     1015.343      336.882        0.395        0.111       75.237       12.155        0.026      335.914        6.866      862.996
01/20/2021  17:32:00      -61.020       -0.265       -3.360       54.225       31.953       21.938     2940.348     1020.978      481.264        0.409        0.222       61.021       20.539        0.113      335.757        6.603      862.995
01/20/2021  17:33:00     -120.975       24.620       -1.354       56.126       30.497       20.332     3150.107      930.078      413.400        0.987        0.225      123.455       21.475        0.030      335.477        6.136      862.994
01/20/2021  17:34:00     -133.898       36.044       -3.884       41.163       30.034       21.791     1694.372      902.033      474.865        1.116        0.154      138.665       19.481        0.020      335.308        5.855      863.005
01/20/2021  17:35:00     -132.429       24.085       -7.632       21.988       26.918       21.645      483.471      724.571      468.502        0.993        0.084      134.602       13.509        0.010      335.296        5.834      863.027
01/20/2021  17:36:00     -115.049       18.027        2.656       56.299       34.967       31.952     3169.541     1222.716     1020.938        0.949        0.271      116.452       32.061        0.076      335.404        6.014      863.048
01/20/2021  17:37:00     -125.635       29.210        1.700       51.763       45.213       25.678     2679.382     2044.181      659.345        1.101        0.269      128.986       16.511        0.016      335.469        6.123      863.061
01/20/2021  17:38:00     -110.174       34.633        3.374       54.699       42.450       26.614     2991.932     1801.974      708.289        0.942        0.275      115.489       20.576        0.032      335.499        6.174      863.062
01/20/2021  17:39:00     -144.137       15.738       -7.631       38.477       29.416       20.145     1480.494      865.295      405.826        1.192        0.138      144.994       16.572        0.013      335.436        6.069      863.056
01/20/2021  17:40:00     -128.053       23.899       -6.145       29.946       26.172       19.713      896.764      684.962      388.594        0.949        0.099      130.264       13.541        0.011      335.475        6.132      863.056
01/20/2021  17:41:00     -145.102       32.109      -12.702       19.990       19.435       12.670      399.599      377.702      160.517        1.159        0.047      148.613        5.173        0.001      335.350        5.924      863.055
01/20/2021  17:42:00     -130.971       24.074      -11.149       41.308       28.825       18.417     1706.327      830.866      339.184        1.037        0.144      133.165       13.640        0.010      335.323        5.881      863.062
01/20/2021  17:43:00     -136.542       18.170       -6.579       39.898       35.527       22.309     1591.888     1262.165      497.670        1.118        0.168      137.745       19.981        0.021      335.358        5.939      863.071
01/20/2021  17:44:00     -117.450       28.957       -4.291       61.969       46.437       30.115     3840.176     2156.372      906.905        1.078        0.345      120.966       34.424        0.081      335.456        6.101      863.085
01/20/2021  17:45:00     -137.765        4.833      -14.666       61.099       35.303       23.216     3733.031     1246.275      538.972        1.237        0.276      137.850       22.046        0.026      335.450        6.092      863.097
01/20/2021  17:46:00     -100.557        4.666       -2.870       61.710       46.791       29.226     3808.113     2189.372      854.134        0.850        0.343      100.665       31.301        0.097      335.409        6.023      863.108
01/20/2021  17:47:00     -112.666        4.532       -8.997       47.686       38.404       24.368     2273.983     1474.830      593.796        0.857        0.217      112.757       14.586        0.017      335.440        6.076      863.116
01/20/2021  17:48:00      -69.536        1.048        4.353       74.243       40.396       27.331     5511.979     1631.825      746.983        0.637        0.395       69.544       33.565        0.233      335.405        6.016      863.136
01/20/2021  17:49:00      -67.977       -5.124        1.336       48.442       38.668       23.598     2346.640     1495.203      556.850        0.452        0.220       68.170       18.291        0.072      335.445        6.083      863.143
01/20/2021  17:50:00      -58.722        1.313       -2.338       53.461       38.790       24.526     2858.093     1504.699      601.518        0.421        0.248       58.737       20.985        0.128      335.423        6.046      863.157
01/20/2021  17:51:00      -62.486       -6.635        8.719       48.492       34.263       19.139     2351.488     1173.983      366.293        0.396        0.195       62.837       19.732        0.099      335.463        6.114      863.161
01/20/2021  17:52:00      -35.682       -6.201       -2.343       52.473       29.505       24.570     2753.366      870.547      603.685        0.277        0.211       36.217       27.691        0.585      335.389        5.988      863.170
01/20/2021  17:53:00      -66.272      -27.646      -13.686       36.003       37.674       22.862     1296.226     1419.364      522.652        0.429        0.162       71.807       17.633        0.060      335.429        6.055      863.174
01/20/2021  17:54:00      -33.095      -17.642       -4.916       32.722       29.180       23.121     1070.705      851.497      534.559        0.194        0.123       37.504       16.211        0.187      335.394        5.998      863.186
01/20/2021  17:55:00      -99.906      -16.617      -10.288       43.452       35.828       22.369     1888.113     1283.628      500.384        0.702        0.184      101.278       17.145        0.029      335.391        5.994      863.186
01/20/2021  17:56:00      -11.948       -1.396       10.734       37.048       29.756       23.930     1372.553      885.435      572.640        0.154        0.142       12.029       12.614        1.099      335.298        5.838      863.184
01/20/2021  17:57:00      -68.365        6.328        6.255       41.567       37.526       25.663     1727.831     1408.187      658.590        0.427        0.190       68.658       25.041        0.133      335.287        5.819      863.185
01/20/2021  17:58:00      -59.337       -5.256        2.081       48.176       35.727       22.128     2320.973     1276.435      489.637        0.382        0.204       59.570       16.138        0.073      335.264        5.782      863.185
01/20/2021  17:59:00      -32.264       -2.708        3.753       57.385       36.081       26.041     3293.000     1301.868      678.127        0.317        0.264       32.378       25.467        0.619      335.143        5.581      863.200
01/20/2021  18:00:00     -109.014      -19.567       -1.340       46.443       35.963       26.316     2156.963     1293.331      692.538        0.820        0.207      110.756       18.044        0.027      335.242        5.746      863.212
01/20/2021  18:01:00     -120.637      -13.356        2.247       51.464       38.707       28.304     2648.533     1498.241      801.125        0.984        0.247      121.374       18.873        0.024      335.292        5.828      863.221
01/20/2021  18:02:00     -112.443        6.900        6.962       65.185       33.123       25.005     4249.106     1097.152      625.243        0.935        0.299      112.654       23.452        0.043      335.422        6.046      863.233
01/20/2021  18:03:00      -34.339       -7.561       -2.554       33.930       42.696       21.407     1151.241     1822.930      458.273        0.234        0.172       35.161       14.369        0.167      335.412        6.028      863.236
01/20/2021  18:04:00      -74.014       -8.274        4.991       54.114       38.776       23.970     2928.336     1503.550      574.571        0.529        0.250       74.475       19.811        0.071      335.335        5.901      863.238
01/20/2021  18:05:00      -74.164       -3.373        2.781      176.346       34.451       82.009    31098.062     1186.839     6725.535        2.226        1.951       74.241      110.899        2.231      335.406        6.019      863.246
01/20/2021  18:06:00      -57.563      -15.453        5.989       61.630       39.464       28.104     3798.206     1557.403      789.843        0.487        0.307       59.601       23.455        0.155      335.272        5.795      863.249
01/20/2021  18:07:00      -54.879       -6.242       -7.172       59.071       34.790       26.145     3489.393     1210.362      683.587        0.424        0.269       55.232       17.057        0.095      335.194        5.665      863.246
01/20/2021  18:08:00      -35.044      -11.957       -1.801       60.082       35.565       27.222     3609.865     1264.866      741.063        0.349        0.281       37.027       28.017        0.573      335.129        5.558      863.245
01/20/2021  18:09:00     -117.957      -29.691        8.120       49.138       41.236       33.336     2414.566     1700.434     1111.310        1.004        0.261      121.637       26.182        0.046      335.141        5.578      863.236
01/20/2021  18:10:00      -74.353       -8.707       11.516       53.497       43.990       33.130     2861.935     1935.098     1097.574        0.581        0.295       74.861       31.413        0.176      335.111        5.528      863.233
01/20/2021  18:11:00     -129.388       -1.998       -5.254       45.038       41.505       21.503     2028.432     1722.636      462.362        1.049        0.211      129.403       11.431        0.008      335.263        5.779      863.238
01/20/2021  18:12:00      -85.658      -20.416       -0.968       66.386       35.808       32.236     4407.166     1282.182     1039.135        0.724        0.336       88.057       23.021        0.068      335.174        5.633      863.245
01/20/2021  18:13:00     -147.050      -10.571       -0.660       65.561       37.543       26.402     4298.289     1409.492      697.062        1.407        0.320      147.429       33.459        0.052      335.219        5.707      863.258
01/20/2021  18:14:00     -139.163       -9.985       -3.993       51.175       43.677       22.732     2618.913     1907.722      516.722        1.226        0.252      139.521       22.314        0.026      335.281        5.810      863.264
01/20/2021  18:15:00     -114.509        0.945        1.610       42.900       42.258       23.087     1840.451     1785.758      533.003        0.864        0.208      114.513       16.509        0.021      335.253        5.763      863.263
01/20/2021  18:16:00     -112.910        5.205       -0.829       38.364       29.160       24.417     1471.804      850.333      596.187        0.785        0.146      113.030       23.310        0.043      335.286        5.818      863.258
01/20/2021  18:17:00      -99.625        5.648        1.895       48.419       32.664       25.124     2344.406     1066.962      631.217        0.700        0.202       99.785       18.082        0.033      335.246        5.752      863.258
01/20/2021  18:18:00      -90.207       -4.599       -0.502      134.042       29.051       66.366    17967.213      843.940     4404.450        1.568        1.161       90.325       85.978        0.906      335.266        5.785      863.272
01/20/2021  18:19:00      -47.532       -1.273       13.306       58.493       34.218       23.040     3421.482     1170.875      530.848        0.378        0.256       47.549       24.955        0.275      335.219        5.707      863.287
01/20/2021  18:20:00      -65.033      -19.735       -2.503       64.056       29.037       22.493     4103.151      843.152      505.935        0.504        0.273       67.962       19.167        0.080      335.122        5.547      863.301
01/20/2021  18:21:00     -124.648       16.564       -7.347       48.555       29.613       23.453     2357.609      876.950      550.022        0.982        0.189      125.743       19.098        0.023      334.985        5.321      863.315
01/20/2021  18:22:00      -70.787       -0.728       -4.953      141.769       29.113       67.122    20098.491      847.557     4505.350        1.524        1.273       70.790       88.670        1.569      335.067        5.456      863.320
01/20/2021  18:23:00      -58.472      -14.536        7.315       55.463       28.244       24.197     3076.128      797.722      585.494        0.407        0.223       60.252       27.454        0.208      334.973        5.300      863.322
01/20/2021  18:24:00        1.064       -3.025       -3.800      161.080       20.187       79.227    25946.858      407.495     6276.957        1.632        1.632        3.207      110.161     1180.105      334.946        5.257      863.322
01/20/2021  18:25:00      -69.390       22.440       -7.389       28.769       24.941       18.104      827.666      622.046      327.771        0.357        0.089       72.929       13.229        0.033      334.888        5.158      863.314
01/20/2021  18:26:00      -63.390       -2.262      -11.231      227.160       24.159      109.063    51601.481      583.648    11894.728        3.410        3.204       63.430      154.610        5.941      334.904        5.187      863.314
01/20/2021  18:27:00      -24.251        6.137        1.865       25.529       20.647       14.277      651.733      426.305      203.824        0.096        0.064       25.015       10.173        0.165      334.722        4.883      863.320
01/20/2021  18:28:00      -14.852       -2.504       -1.288       24.936       15.842        7.344      621.813      250.967       53.931        0.058        0.046       15.061        8.244        0.300      334.887        5.157      863.333
01/20/2021  18:29:00      -68.651        9.609      -10.782       33.481       23.099       15.052     1120.951      533.568      226.558        0.340        0.094       69.320       16.413        0.056      334.815        5.036      863.343
01/20/2021  18:30:00      -29.647       -3.924       -0.127       32.948       22.138       20.518     1085.582      490.102      421.002        0.145        0.100       29.906       17.086        0.326      334.733        4.901      863.367
01/20/2021  18:31:00      -52.241      -19.890        1.094       37.210       27.034       16.868     1384.581      730.849      284.527        0.276        0.120       55.900       12.080        0.047      334.677        4.807      863.389
01/20/2021  18:32:00      -20.185       -6.665        5.417       27.679       19.816       17.089      766.108      392.677      292.043        0.097        0.073       21.257       13.812        0.422      334.695        4.837      863.407
01/20/2021  18:33:00      -41.969       -6.787        0.955       46.040       28.702       19.149     2119.657      823.821      366.671        0.256        0.166       42.514       16.684        0.154      334.631        4.731      863.410
01/20/2021  18:34:00     -100.549      -23.227       -2.622       39.189       35.848       24.937     1535.765     1285.101      621.864        0.705        0.172      103.197       18.727        0.033      334.726        4.889      863.410
01/20/2021  18:35:00      -11.954       -3.530       15.466       38.895       30.718       20.609     1512.835      943.571      424.735        0.164        0.144       12.464       21.331        2.929      334.800        5.012      863.409
01/20/2021  18:36:00      -31.985        5.938       -5.301       55.735       27.082       18.390     3106.439      733.429      338.189        0.263        0.209       32.531       22.343        0.472      334.899        5.176      863.413
01/20/2021  18:37:00      -30.346      -10.981       -2.323       34.300       31.962       19.078     1176.492     1021.565      363.956        0.180        0.128       32.272       13.291        0.170      334.874        5.135      863.415
01/20/2021  18:38:00      -22.080        7.643      -10.556      116.735       26.489       54.885    13627.173      701.654     3012.388        0.900        0.867       23.365       76.731       10.785      334.862        5.117      863.420
01/20/2021  18:39:00      -24.223       -6.462        4.212       26.941       17.453       11.153      725.805      304.615      124.387        0.090        0.058       25.071       11.075        0.195      334.760        4.945      863.427
01/20/2021  18:40:00      -39.818      -29.791       -7.099       23.958       25.090       12.345      573.963      629.532      152.410        0.194        0.068       49.729        9.427        0.036      334.783        4.983      863.433
01/20/2021  18:41:00      -34.062      -22.454        2.672       23.766       30.380       16.766      564.807      922.955      281.108        0.172        0.088       40.797        9.203        0.051      334.870        5.128      863.439
01/20/2021  18:42:00      -31.967      -12.708       -1.357       28.297       33.554       18.648      800.706     1125.885      347.757        0.173        0.114       34.400       13.303        0.150      334.749        4.926      863.451
01/20/2021  18:43:00      -18.460        2.923       -9.718      231.403       19.046      112.713    53547.250      362.752    12704.231        3.351        3.331       18.690      160.496       73.742      334.705        4.856      863.456
01/20/2021  18:44:00      -44.288      -13.328        1.337       38.940       29.204       13.965     1516.291      852.884      195.017        0.235        0.128       46.250       15.846        0.117      334.665        4.788      863.456
01/20/2021  18:45:00       -9.879       -6.068       -2.282      198.224       25.912       92.649    39292.772      671.446     8583.783        2.433        2.427       11.594      133.284      132.162      334.617        4.709      863.457
01/20/2021  18:46:00      -41.158      -15.442       -5.627      178.257       27.267       83.919    31775.643      743.515     7042.454        2.075        1.978       43.960      119.427        7.381      334.533        4.569      863.452
01/20/2021  18:47:00       -8.438        2.930        4.986       28.403       20.575       17.443      806.741      423.339      304.269        0.082        0.077        8.932        8.119        0.826      334.486        4.491      863.454
01/20/2021  18:48:00       -5.410       -7.442       -1.585       21.157       15.506       12.162      447.605      240.446      147.914        0.046        0.042        9.201        9.581        1.084      334.517        4.541      863.469
01/20/2021  18:49:00       -7.481        1.313      -12.136      257.789       12.333      118.973    66455.087      152.112    14154.664        4.047        4.038        7.596      172.924      518.308      334.559        4.613      863.482
01/20/2021  18:50:00      -54.884       -0.630       -3.572       30.947       19.366       13.475      957.712      375.027      181.574        0.227        0.076       54.887       13.381        0.059      334.402        4.352      863.486
01/20/2021  18:51:00       -3.878       -5.697       -9.484      211.125       28.790      100.662    44573.861      828.871    10132.909        2.782        2.777        6.891      141.990      424.515      334.375        4.307      863.486
01/20/2021  18:52:00      -43.280        9.191       -2.027      151.332       20.862       74.444    22901.476      435.231     5541.917        1.541        1.444       44.245      103.429        5.464      334.328        4.230      863.489
01/20/2021  18:53:00      -94.902       26.373       -4.033       30.005       19.189       14.291      900.298      368.211      204.243        0.560        0.074       98.498       14.203        0.021      334.136        3.909      863.494
01/20/2021  18:54:00      -61.912        6.617        0.037       33.374       23.006       14.958     1113.826      529.297      223.739        0.287        0.093       62.265       10.145        0.027      334.077        3.811      863.503
01/20/2021  18:55:00      -68.100        4.728       -7.703      184.761       24.045       86.660    34136.726      578.183     7509.924        2.346        2.111       68.264      122.722        3.232      334.238        4.079      863.517
01/20/2021  18:56:00      -74.606       24.298       -9.486      224.298       19.833      106.485    50309.682      393.351    11339.080        3.413        3.102       78.463      152.240        3.765      334.130        3.902      863.525
01/20/2021  18:57:00      -67.371       16.993      -12.466      204.898       22.310       94.910    41983.252      497.745     9007.945        2.822        2.574       69.481      137.386        3.910      334.067        3.798      863.544
01/20/2021  18:58:00      -74.870       11.178      -17.473      162.704       23.811       75.914    26472.723      566.955     5762.913        1.941        1.640       75.700      108.611        2.059      334.070        3.802      863.557
01/20/2021  18:59:00      -56.023        3.534       -3.451       48.963       24.782       20.346     2397.407      614.142      413.957        0.329        0.171       56.135       24.342        0.188      333.915        3.543      863.581
01/20/2021  19:00:00      -39.083        5.066      -14.312      270.603       27.069      130.422    73226.097      732.734    17009.940        4.634        4.548       39.410      182.588       21.465      334.067        3.797      863.602
01/20/2021  19:01:00      -25.869       12.347      -16.678      255.879       25.972      118.379    65474.010      674.558    14013.675        4.061        4.008       28.665      171.335       35.727      333.959        3.619      863.617
01/20/2021  19:02:00      -68.886        2.441      -11.954      140.400       31.348       68.194    19712.037      982.705     4650.419        1.511        1.267       68.929       90.774        1.734      333.892        3.505      863.616
01/20/2021  19:03:00      -26.230       -3.833        2.854      149.527       28.534       67.021    22358.252      814.210     4491.843        1.418        1.383       26.509       91.255       11.851      333.819        3.385      863.599
01/20/2021  19:04:00       13.034      -15.035       -9.955      209.930       28.049       98.965    44070.627      786.742     9794.058        2.756        2.733       19.898      141.140       50.314      333.897        3.514      863.579
01/20/2021  19:05:00      -51.512        3.339        4.428       57.037       26.331       21.749     3253.218      693.342      473.009        0.355        0.221       51.620       25.411        0.242      333.816        3.379      863.561
01/20/2021  19:06:00      -70.373       13.843       -5.257      157.103       20.504       76.157    24681.320      420.395     5799.851        1.803        1.545       71.722      106.234        2.194      333.869        3.469      863.548
01/20/2021  19:07:00      -86.015       13.402      -14.734      244.422       21.361      117.489    59742.268      456.305    13803.749        4.088        3.700       87.052      167.475        3.701      333.965        3.628      863.545
01/20/2021  19:08:00      -53.530        7.420       -0.622      204.157       26.961       95.859    41680.051      726.914     9188.947        2.725        2.580       54.041      134.668        6.210      333.852        3.439      863.561
01/20/2021  19:09:00      -86.940       19.363      -35.438      298.291       25.478      142.658    88977.681      649.126    20351.297        5.956        5.499       89.070      205.333        5.314      333.866        3.465      863.575
01/20/2021  19:10:00      -26.166        4.371       -5.958      207.154       35.819       97.316    42912.660     1283.026     9470.482        2.719        2.683       26.528      136.221       26.368      333.799        3.353      863.588
01/20/2021  19:11:00       13.424      -17.330      -17.900      220.402       24.253      103.777    48577.029      588.232    10769.574        3.035        2.997       21.921      148.628       45.970      333.797        3.350      863.603
01/20/2021  19:12:00       15.925        8.493      -24.841      252.134       25.147      122.218    63571.520      632.351    14937.212        4.002        3.957       18.048      174.675       93.666      333.749        3.272      863.609
01/20/2021  19:13:00       31.070       -3.240      -13.017      177.756       18.051       85.491    31597.300      325.830     7308.732        2.018        1.962       31.238      122.103       15.278      333.713        3.209      863.609
01/20/2021  19:14:00        5.008        7.159        4.623       12.215       17.957       11.498      149.209      322.452      132.202        0.035        0.030        8.736       13.782        2.489      333.527        2.899      863.604
01/20/2021  19:15:00       22.220        8.695      -11.117      272.895       18.741      130.456    74471.863      351.230    17018.710        4.625        4.592       23.861      188.017       62.088      333.598        3.020      863.599
01/20/2021  19:16:00      -16.160        0.353        0.260       27.053       32.064       19.195      731.855     1028.080      368.454        0.119        0.106       16.164       22.693        1.971      333.771        3.305      863.589
01/20/2021  19:17:00      -26.244      -29.035      -23.486      243.923       26.715      117.573    59498.557      713.686    13823.482        3.804        3.702       39.138      166.699       18.141      333.694        3.178      863.586
01/20/2021  19:18:00      -19.534        7.746       -0.443       26.389       20.175       15.651      696.395      407.026      244.941        0.089        0.067       21.014       12.021        0.327      333.430        2.739      863.598
01/20/2021  19:19:00       -8.887       -7.192      -10.912      166.111       35.583       82.647    27592.999     1266.142     6830.529        1.796        1.784       11.433      111.318       94.809      333.396        2.685      863.609
01/20/2021  19:20:00       -7.454       20.813      -27.321      322.299       31.431      159.284   103876.827      987.932    25371.414        6.571        6.512       22.108      223.287      102.010      333.513        2.880      863.617
01/20/2021  19:21:00      -14.267        7.792      -12.912      221.251       27.436      106.329    48951.957      752.707    11305.808        3.071        3.051       16.256      150.114       85.275      333.388        2.672      863.623
01/20/2021  19:22:00      -14.858       21.553      -29.860      345.233       23.203      165.156   119185.985      538.402    27276.638        7.426        7.350       26.178      237.191       82.097      333.568        2.972      863.621
01/20/2021  19:23:00       28.649       11.614       -3.057      197.714       27.669       95.546    39090.768      765.600     9128.950        2.496        2.449       30.914      135.747       19.282      333.490        2.840      863.612
01/20/2021  19:24:00      -46.279       -0.699       -8.712       36.666       32.373       28.909     1344.366     1047.985      835.708        0.272        0.161       46.285       25.819        0.311      333.380        2.657      863.613
01/20/2021  19:25:00      -70.769        3.879        0.402       47.066       39.909       29.332     2215.181     1592.730      860.341        0.484        0.233       70.875       28.559        0.162      333.380        2.655      863.620
01/20/2021  19:26:00      -58.174        6.925       -3.585      152.387       35.470       70.597    23221.734     1258.139     4983.979        1.645        1.473       58.585       94.800        2.618      333.486        2.833      863.628
01/20/2021  19:27:00      -77.708       12.229       -8.151      172.223       32.934       84.070    29660.748     1084.630     7067.785        2.203        1.891       78.664      117.218        2.220      333.496        2.850      863.633
01/20/2021  19:28:00      -78.268       11.665       -9.370      266.381       32.979      127.983    70959.056     1087.586    16379.711        4.737        4.421       79.133      181.163        5.241      333.590        3.005      863.643
01/20/2021  19:29:00      -73.247       15.266      -14.541      229.131       26.298      110.246    52500.981      691.601    12154.277        3.556        3.267       74.821      156.674        4.385      333.574        2.980      863.647
01/20/2021  19:30:00      -69.968       21.043      -14.921      272.172       28.120      131.200    74077.681      790.750    17213.435        4.880        4.604       73.064      186.860        6.541      333.640        3.089      863.649
01/20/2021  19:31:00      -42.586       20.621      -26.795      398.893       35.207      189.559   159115.821     1239.556    35932.637        9.958        9.814       47.315      273.016       33.294      333.697        3.186      863.648
01/20/2021  19:32:00      -48.199        8.625       -0.498      188.157       31.786       88.192    35403.148     1010.349     7777.834        2.329        2.210       48.965      123.291        6.340      333.517        2.886      863.646
01/20/2021  19:33:00      -59.657        5.453        0.678      169.468       28.060       81.243    28719.420      787.376     6600.459        1.984        1.805       59.906      110.433        3.398      333.563        2.962      863.652
01/20/2021  19:34:00      -16.337        1.621       -9.669      291.304       38.481      138.724    84858.113     1480.818    19244.274        5.295        5.279       16.417      197.987      145.435      333.566        2.968      863.643
01/20/2021  19:35:00      -41.902       12.086      -29.087      385.362       29.502      182.074   148503.564      870.396    33150.791        9.260        9.126       43.610      263.358       36.469      333.583        2.999      863.643
01/20/2021  19:36:00       -3.566       17.528      -33.042      443.049       26.742      212.183   196292.443      715.113    45021.443       12.167       12.101       17.887      305.225      291.186      333.626        3.071      863.646
01/20/2021  19:37:00      -22.064       -6.496       -8.795      295.424       30.707      136.902    87275.575      942.938    18742.165        5.376        5.348       23.000      197.892       74.026      333.440        2.760      863.653
01/20/2021  19:38:00      -19.796       11.073      -28.406      389.898       37.758      188.351   152020.269     1425.671    35475.996        9.508        9.446       22.682      269.250      140.912      333.613        3.050      863.650
01/20/2021  19:39:00        3.870        6.524      -16.669      389.316       36.891      188.157   151566.816     1360.942    35403.067        9.429        9.417        7.585      267.778     1246.201      333.535        2.918      863.650
01/20/2021  19:40:00      -40.630       19.410      -23.085      339.259       29.856      163.983   115096.758      891.362    26890.450        7.269        7.144       45.029      233.887       26.980      333.517        2.887      863.665
01/20/2021  19:41:00      -68.161       16.078      -21.504      337.351       27.393      158.346   113805.514      750.375    25073.587        7.247        6.981       70.031      229.474       10.737      333.495        2.852      863.680
01/20/2021  19:42:00      -40.986       12.953      -19.253      356.341       34.268      168.687   126978.957     1174.327    28455.172        7.938        7.830       42.984      243.246       32.024      333.522        2.897      863.700
01/20/2021  19:43:00      -19.881       -9.183       -1.620      156.503       35.226       76.124    24493.265     1240.906     5794.838        1.600        1.576       21.899      104.110       22.601      333.271        2.477      863.720
01/20/2021  19:44:00       25.749       10.854      -21.748      370.718       38.794      180.090   137431.766     1504.978    32432.496        8.627        8.568       27.943      255.969       83.913      333.391        2.679      863.741
01/20/2021  19:45:00       48.282       -2.950      -19.757      384.168       55.138      184.350   147585.083     3040.214    33984.914        9.363        9.231       48.372      262.780       29.512      333.414        2.717      863.745
01/20/2021  19:46:00      -34.788       32.542      -12.206      269.040       40.877      131.957    72382.714     1670.940    17412.779        4.692        4.573       47.636      184.238       14.959      333.242        2.432      863.757
01/20/2021  19:47:00       -3.045       13.784      -11.250      280.703       32.668      132.848    78794.156     1067.220    17648.496        4.890        4.875       14.116      190.853      182.787      333.196        2.355      863.779
01/20/2021  19:48:00       69.470       37.730      -22.717      434.025       45.345      209.162   188377.308     2056.190    43748.600       12.042       11.709       79.055      298.897       14.295      333.336        2.591      863.811
01/20/2021  19:49:00       -9.433       23.356      -12.968      245.143       53.818      117.637    60094.936     2896.373    13838.389        3.880        3.841       25.189      165.913       43.386      333.192        2.347      863.830
01/20/2021  19:50:00       37.475       15.766      -13.464      355.958       41.062      174.711   126706.408     1686.099    30523.901        8.034        7.946       40.656      247.016       36.915      333.287        2.507      863.845
01/20/2021  19:51:00      -32.294        1.235      -16.415      298.227       41.406      138.258    88939.183     1714.423    19115.372        5.552        5.488       32.317      198.841       37.856      333.247        2.440      863.847
01/20/2021  19:52:00      -46.993        0.710       -7.320      196.158       39.854       96.387    38478.073     1588.348     9290.385        2.580        2.468       46.998      131.631        7.844      333.241        2.428      863.846
01/20/2021  19:53:00        3.512       11.991      -52.837      488.228       38.451      233.672   238366.892     1478.454    54602.437       14.864       14.722       12.494      335.601      721.486      333.567        2.974      863.843
01/20/2021  19:54:00      -32.400       26.086      -40.341      393.385       36.596      185.822   154752.097     1339.287    34529.744        9.695        9.531       41.596      268.406       41.636      333.372        2.649      863.852
01/20/2021  19:55:00      -11.344       -3.499      -34.225      449.219       36.074      211.868   201797.300     1301.339    44887.844       12.460       12.399       11.871      306.281      665.659      333.432        2.750      863.853
01/20/2021  19:56:00      -32.491       18.315      -32.352      385.596       34.605      182.412   148684.505     1197.483    33274.099        9.276        9.158       37.297      262.950       49.704      333.432        2.746      863.846
01/20/2021  19:57:00      -52.796        8.331       -3.996      227.080       35.095      107.085    51565.167     1231.659    11467.193        3.355        3.213       53.449      151.775        8.063      333.274        2.483      863.845
01/20/2021  19:58:00      -54.392       22.445      -19.848      363.836       42.018      172.958   132376.495     1765.531    29914.631        8.392        8.203       58.841      247.700       17.721      333.463        2.799      863.839
01/20/2021  19:59:00      -30.194        9.901      -21.148      413.484       41.095      199.184   170968.994     1688.789    39674.387       10.685       10.617       31.775      283.149       79.404      333.459        2.794      863.835
01/20/2021  20:00:00      -50.095        4.270      -15.376      276.590       45.944      133.536    76502.184     2110.809    17831.960        4.958        4.822       50.276      188.250       14.020      333.247        2.441      863.812
01/20/2021  20:01:00       30.041       22.555      -49.127      527.082       39.947      247.304   277815.547     1595.731    61159.032       17.212       17.029       37.566      359.046       91.350      333.577        2.995      863.790
01/20/2021  20:02:00        0.270       25.527      -28.383      385.095       39.913      185.507   148298.003     1593.071    34412.958        9.284        9.215       25.529      264.496      107.345      333.452        2.779      863.777
01/20/2021  20:03:00      -28.416       25.775      -45.048      443.856       31.911      212.408   197008.507     1018.281    45117.217       12.327       12.157       38.365      305.776       63.525      333.499        2.860      863.766
01/20/2021  20:04:00      -86.878       28.541      -12.197      218.086       35.431      102.798    47561.546     1255.357    10567.393        3.394        2.969       91.446      145.671        2.538      333.316        2.553      863.770
01/20/2021  20:05:00      -50.479       24.974      -28.688      342.190       35.731      163.094   117094.134     1276.678    26599.652        7.445        7.249       56.319      233.814       17.236      333.330        2.579      863.768
01/20/2021  20:06:00       -6.148       27.579      -49.875      524.419       42.843      254.058   275015.300     1835.497    64545.252       17.227       17.070       28.256      362.672      164.747      333.562        2.969      863.774
01/20/2021  20:07:00     -106.113       26.650       -1.680      200.615       41.759       96.084    40246.193     1743.773     9232.090        3.159        2.561      109.409      133.564        1.490      333.196        2.354      863.773
01/20/2021  20:08:00      -22.580       20.609      -32.253      464.408       39.510      225.022   215674.461     1561.047    50634.941       13.487       13.394       30.571      321.063      110.294      333.521        2.898      863.773
01/20/2021  20:09:00      -39.699       19.558      -28.449      431.830       40.065      206.054   186477.069     1605.234    42458.281       11.661       11.527       44.255      295.765       44.665      333.479        2.828      863.777
01/20/2021  20:10:00      -42.098       11.566      -19.764      366.381       36.277      174.645   134235.143     1316.052    30500.856        8.414        8.303       43.658      250.784       32.997      333.379        2.659      863.780
01/20/2021  20:11:00        1.299        8.420      -16.735      362.981       33.854      174.127   131754.864     1146.098    30320.206        8.175        8.161        8.520      248.247      849.039      333.433        2.749      863.788
01/20/2021  20:12:00       13.788       16.465      -17.989      433.972       45.643      204.526   188331.997     2083.251    41830.683       11.647       11.612       21.476      295.476      189.292      333.484        2.835      863.790
01/20/2021  20:13:00       47.177        9.934      -38.172      521.074       37.933      247.098   271517.937     1438.920    61057.618       16.882       16.701       48.212      357.207       54.895      333.523        2.904      863.793
01/20/2021  20:14:00      -24.692      -13.317      -31.583      435.248       35.469      208.648   189440.682     1258.036    43533.878       11.796       11.712       28.054      298.893      113.515      333.396        2.690      863.795
01/20/2021  20:15:00      -49.514       -7.997      -16.011      334.857       36.108      165.050   112129.046     1303.774    27241.553        7.169        7.034       50.155      231.954       21.388      333.305        2.535      863.794
01/20/2021  20:16:00       -6.922        3.445      -20.411      400.818       44.393      196.624   160655.223     1970.717    38661.096       10.084       10.064        7.732      277.391     1287.049      333.301        2.531      863.782
01/20/2021  20:17:00      -60.059       10.115        7.332      178.477       48.431       82.357    31853.920     2345.550     6782.593        2.236        2.049       60.905      107.869        3.137      333.131        2.246      863.770
01/20/2021  20:18:00       -1.630       12.057      -21.382      426.587       43.152      204.118   181976.312     1862.090    41664.336       11.301       11.275       12.167      291.449      573.812      333.405        2.705      863.760
01/20/2021  20:19:00      -43.543        5.004      -14.824      338.974       39.184      157.647   114903.351     1535.414    24852.444        7.169        7.065       43.830      227.104       26.848      333.332        2.580      863.759
01/20/2021  20:20:00       42.037        1.263      -46.139      523.523       45.671      252.624   274076.017     2085.818    63819.046       17.187       16.999       42.056      361.375       73.833      333.545        2.938      863.762
01/20/2021  20:21:00      -27.780       11.679      -24.441      383.829       47.594      182.641   147324.649     2265.156    33357.677        9.219        9.147       30.135      261.799       75.473      333.398        2.691      863.778
01/20/2021  20:22:00      -58.919       22.810       -5.167      322.982       51.700      153.720   104317.652     2672.900    23629.904        6.729        6.531       63.180      217.002       11.797      333.286        2.504      863.796
01/20/2021  20:23:00      -49.490       12.769      -18.308      370.627       43.387      174.886   137364.435     1882.419    30585.284        8.635        8.492       51.111      249.928       23.911      333.280        2.499      863.826
01/20/2021  20:24:00      -40.799       10.550       -8.151      242.982       59.216      122.484    59040.456     3506.490    15002.380        3.968        3.877       42.141      165.314       15.389      333.094        2.187      863.848
01/20/2021  20:25:00      -25.376       24.765      -30.971      393.823       47.311      185.920   155096.427     2238.343    34566.204        9.702        9.595       35.458      267.435       56.886      333.087        2.179      863.858
01/20/2021  20:26:00       13.532       30.590      -41.550      521.318       43.499      244.155   271772.829     1892.167    59611.458       16.799       16.664       33.449      354.562      112.362      333.150        2.285      863.851
01/20/2021  20:27:00       24.127       26.435      -28.171      429.811       45.325      211.266   184737.877     2054.325    44633.350       11.670       11.571       35.790      298.014       69.336      333.170        2.317      863.835
01/20/2021  20:28:00      -33.574        6.558       -4.000      275.655       43.912      135.903    75985.621     1928.304    18469.500        4.876        4.819       34.209      188.182       30.261      332.993        2.020      863.803
01/20/2021  20:29:00      -74.683       15.060      -13.056      268.045       44.034      128.359    71848.165     1938.969    16475.932        4.810        4.513       76.187      180.689        5.625      333.062        2.133      863.768
01/20/2021  20:30:00      -65.126       38.328      -16.119      329.546       48.153      161.990   108600.776     2318.708    26240.761        7.154        6.858       75.568      227.058        9.028      333.116        2.224      863.740
01/20/2021  20:31:00      -62.155       36.910        0.829      191.363       48.829       95.169    36619.909     2384.252     9057.138        2.663        2.403       72.288      128.825        3.176      333.008        2.042      863.735
01/20/2021  20:32:00      -43.084       26.795      -23.806      384.144       36.211      184.434   147566.326     1311.268    34016.028        9.298        9.145       50.737      263.709       27.015      333.138        2.262      863.741
01/20/2021  20:33:00     -114.494       27.977       -0.247       28.995       43.481       26.258      840.695     1890.585      689.464        0.866        0.171      117.863       33.665        0.082      332.876        1.824      863.753
01/20/2021  20:34:00      -38.900       22.637      -28.741      408.118       48.056      196.890   166559.959     2309.426    38765.795       10.520       10.382       45.007      280.254       38.774      332.982        2.005      863.770
01/20/2021  20:35:00      -59.236       27.786       -9.728      203.419       44.191      102.571    41379.256     1952.874    10520.770        2.910        2.693       65.429      138.089        4.454      332.796        1.693      863.776
01/20/2021  20:36:00      -33.511       20.285      -37.166      431.122       41.100      205.443   185866.348     1689.234    42206.908       11.629       11.488       39.172      295.369       56.856      332.996        2.029      863.777
01/20/2021  20:37:00      -21.081       19.615      -27.982      384.657       35.255      181.951   147960.996     1242.886    33106.335        9.192        9.116       28.795      261.795       82.659      332.864        1.809      863.776
01/20/2021  20:38:00      -36.311       30.455      -43.817      423.132       33.440      203.527   179040.465     1118.236    41423.197       11.283       11.079       47.392      292.107       37.990      332.790        1.688      863.774
01/20/2021  20:39:00      -81.064       20.727      -10.946      152.890       39.795       78.746    23375.333     1583.656     6200.994        1.913        1.558       83.672      103.130        1.519      332.614        1.391      863.762
01/20/2021  20:40:00       -6.875        6.959      -34.086      419.337       47.902      203.311   175843.884     2294.646    41335.297       11.032       10.974        9.783      289.195      873.940      332.856        1.799      863.755
01/20/2021  20:41:00        4.501       37.522      -36.184      450.278       43.084      219.386   202749.920     1856.261    48130.391       12.768       12.637       37.791      311.955       68.142      332.927        1.915      863.740
01/20/2021  20:42:00      -16.918       23.812      -34.627      395.561       35.204      185.092   156468.668     1239.309    34259.054        9.697        9.598       29.210      268.599       84.555      332.806        1.713      863.734
01/20/2021  20:43:00      -19.940       20.190      -24.314      315.956       45.987      156.287    99827.924     2114.849    24425.677        6.386        6.318       28.377      218.461       59.269      332.805        1.709      863.727
01/20/2021  20:44:00       28.578       24.553      -60.058      556.184       37.476      263.269   309340.155     1404.479    69310.712       19.246       19.003       37.678      381.101      102.310      333.017        2.068      863.710
01/20/2021  20:45:00      -77.405       22.600      -22.098      322.246       38.241      153.835   103842.182     1462.387    23665.279        6.795        6.448       80.637      220.057        7.447      332.753        1.622      863.702
01/20/2021  20:46:00      -90.914       27.110       -3.428      203.317       46.936      100.732    41337.730     2202.985    10146.961        3.134        2.684       94.870      136.264        2.063      332.704        1.541      863.686
01/20/2021  20:47:00      -50.007       39.696      -26.203      409.182       47.021      196.704   167429.943     2210.999    38692.461       10.650       10.417       63.847      280.612       19.316      332.836        1.762      863.673
01/20/2021  20:48:00       26.777       24.740      -59.152      569.868       42.571      273.971   324748.993     1812.253    75060.140       20.314       20.081       36.456      393.348      116.417      333.120        2.238      863.663
01/20/2021  20:49:00       -8.323       13.973      -29.806      443.365       47.542      214.110   196572.949     2260.266    45843.295       12.286       12.234       16.264      304.478      350.458      332.919        1.902      863.658
01/20/2021  20:50:00       23.086       28.140      -39.127      520.638       50.205      254.729   271064.161     2520.500    64886.768       17.059       16.924       36.398      360.769       98.243      333.064        2.144      863.632
01/20/2021  20:51:00      -26.348       24.331      -21.716      454.641       46.026      212.763   206698.724     2118.409    45268.255       12.787       12.704       35.864      307.405       73.471      332.927        1.915      863.614
01/20/2021  20:52:00      -50.260       25.144      -21.728      378.372       39.719      178.631   143165.345     1577.606    31909.177        9.010        8.833       56.199      256.334       20.805      332.896        1.861      863.618
01/20/2021  20:53:00      -27.034       29.959      -25.347      412.714       38.647      201.228   170332.621     1493.619    40492.535       10.725       10.616       40.353      284.706       49.778      332.852        1.789      863.629
01/20/2021  20:54:00      -44.922       49.130      -26.493      418.463       42.099      199.889   175111.082     1772.292    39955.469       11.094       10.842       66.571      286.056       18.464      332.782        1.674      863.646
01/20/2021  20:55:00      -32.440       55.691      -24.732      463.452       50.286      224.840   214787.656     2528.693    50553.203       13.626       13.393       64.450      318.830       24.472      332.776        1.665      863.654
01/20/2021  20:56:00      -42.029       51.676      -30.683      468.103       41.989      221.015   219120.497     1763.090    48847.670       13.750       13.487       66.610      319.137       22.955      332.775        1.665      863.682
01/20/2021  20:57:00      -11.834       18.047      -33.427      420.652       43.626      205.295   176947.807     1903.264    42145.878       11.124       11.050       21.581      286.644      176.416      332.694        1.528      863.718
01/20/2021  20:58:00       12.718       18.963      -25.851      414.554       60.288      202.330   171854.615     3634.639    40937.360       10.876       10.821       22.833      281.883      152.413      332.635        1.429      863.759
01/20/2021  20:59:00       75.569       16.738      -40.995      505.891       55.556      247.584   255925.783     3086.525    61298.079       16.392       16.016       77.400      350.492       20.506      332.745        1.616      863.795
01/20/2021  21:00:00      -13.870        5.858      -24.568      322.363       55.283      154.867   103917.858     3056.233    23983.791        6.587        6.548       15.056      217.833      209.325      332.484        1.181      863.776
01/20/2021  21:01:00       52.513        9.006      -15.391      401.938       56.754      186.231   161554.121     3221.010    34682.147       10.122        9.973       53.279      269.714       25.627      332.506        1.219      863.768
01/20/2021  21:02:00       20.749       14.171      -26.536      408.319       61.242      191.650   166724.728     3750.595    36729.536       10.423       10.360       25.126      273.113      118.149      332.545        1.281      863.778
01/20/2021  21:03:00       49.561       18.704      -15.521      383.595       60.805      188.834   147145.291     3697.226    35658.225        9.473        9.325       52.973      264.916       25.010      332.377        1.003      863.775
01/20/2021  21:04:00       53.885       32.314      -39.528      507.664       61.986      240.805   257722.366     3842.239    57987.058       16.246       15.978       62.832      344.720       30.101      332.578        1.341      863.776
01/20/2021  21:05:00       10.930       30.921      -21.589      389.821       58.914      192.590   151960.284     3470.833    37090.741        9.699        9.626       32.796      269.676       67.613      332.424        1.083      863.779
01/20/2021  21:06:00      -19.069       27.397      -18.168      301.890       54.718      143.291    91137.299     2994.055    20532.242        5.803        5.733       33.380      201.574       36.466      332.358        0.973      863.780
01/20/2021  21:07:00       -3.873       25.690      -12.063      306.994       55.398      147.894    94245.575     3068.889    21872.650        5.998        5.959       25.980      206.807       63.366      332.381        1.008      863.776
01/20/2021  21:08:00      -14.792       43.233      -16.533      306.091       43.090      145.939    93691.542     1856.789    21298.081        5.958        5.842       45.694      205.960       20.317      332.353        0.964      863.760
01/20/2021  21:09:00        0.537       33.536      -19.358      321.772       60.841      155.262   103537.102     3701.592    24106.438        6.639        6.567       33.541      216.695       41.740      332.455        1.131      863.730
01/20/2021  21:10:00       27.868       41.689      -42.617      456.265       51.743      220.148   208177.637     2677.362    48465.296       13.177       12.966       50.146      313.947       39.196      332.590        1.359      863.701
01/20/2021  21:11:00        9.381       40.583      -27.657      404.198       45.810      189.351   163376.154     2098.572    35853.651       10.187       10.066       41.654      274.004       43.272      332.482        1.178      863.672
01/20/2021  21:12:00      -22.915       46.226      -10.282      263.889       55.841      129.141    69637.662     3118.190    16677.392        4.608        4.472       51.594      178.436       11.961      332.504        1.212      863.658
01/20/2021  21:13:00        8.393       45.203      -39.858      464.591       44.484      217.899   215844.884     1978.870    47479.835       13.445       13.265       45.975      316.062       47.260      332.559        1.307      863.662
01/20/2021  21:14:00      -29.938       24.610      -21.273      351.925       49.226      168.552   123851.351     2423.196    28409.672        7.829        7.734       38.755      239.899       38.318      332.396        1.036      863.672
01/20/2021  21:15:00      -73.174       38.609      -21.758      306.528       41.231      146.423    93959.702     1699.956    21439.603        6.218        5.855       82.735      207.751        6.305      332.298        0.873      863.692
01/20/2021  21:16:00       52.022       44.876      -48.267      566.848       64.645      267.612   321317.115     4178.957    71616.246       20.200       19.856       68.703      385.437       31.474      332.756        1.637      863.719
01/20/2021  21:17:00       34.188       31.550      -28.602      424.706       50.197      206.221   180374.918     2519.750    42526.949       11.415       11.271       46.521      292.948       39.653      332.556        1.301      863.739
01/20/2021  21:18:00      -28.150        1.170      -15.372      243.410       39.651      123.260    59248.304     1572.236    15192.974        3.851        3.801       28.174      167.268       35.247      332.253        0.797      863.771
01/20/2021  21:19:00      -26.099        2.725      -18.332      283.438       50.543      138.343    80336.929     2554.551    19138.666        5.151        5.102       26.241      192.504       53.819      332.288        0.855      863.782
01/20/2021  21:20:00        7.161       38.153      -15.611      344.577       57.507      169.541   118733.126     3307.051    28744.160        7.624        7.539       38.819      236.470       37.107      332.283        0.847      863.794
01/20/2021  21:21:00       28.514       29.808       -8.950      275.070       57.422      134.597    75663.532     3297.309    18116.266        4.941        4.854       41.250      186.055       20.344      332.211        0.729      863.786
01/20/2021  21:22:00       92.858      -38.411      -25.378      374.073       63.320      183.668   139930.252     4009.430    33734.012        9.417        8.884      100.489      257.054        6.544      332.450        1.125      863.765
01/20/2021  21:23:00      126.932       -9.143      -18.525      470.578       50.793      220.107   221443.880     2579.951    48447.120       14.445       13.624      127.260      318.710        6.272      332.672        1.495      863.747
01/20/2021  21:24:00        7.600       14.470      -21.586      381.935       58.553      184.173   145874.145     3428.413    33919.739        9.194        9.161       16.344      257.877      248.950      332.421        1.076      863.738
01/20/2021  21:25:00      -79.320       21.362        0.791      189.687       52.868       89.865    35981.232     2795.052     8075.663        2.679        2.343       82.146      118.893        2.095      332.235        0.766      863.739
01/20/2021  21:26:00      -69.195       38.804       -1.304      303.113       52.048      144.848    91877.629     2708.949    20980.874        6.091        5.778       79.333      201.340        6.441      332.321        0.909      863.744
01/20/2021  21:27:00      -49.654       43.932        5.202      348.137       56.751      166.296   121199.427     3220.679    27654.291        7.822        7.604       66.298      233.575       12.412      332.319        0.909      863.748
01/20/2021  21:28:00       88.133        9.547      -33.270      479.280       56.867      228.276   229709.264     3233.832    52110.133       14.695       14.253       88.649      328.189       13.706      332.505        1.219      863.752
01/20/2021  21:29:00      -32.267        7.844       -7.609      361.600       50.442      167.811   130754.880     2544.364    28160.695        8.128        8.073       33.207      239.151       51.866      332.321        0.911      863.745
01/20/2021  21:30:00       42.421       28.126      -14.581      453.744       51.187      214.165   205883.957     2620.132    45866.637       12.853       12.719       50.898      305.676       36.068      332.405        1.053      863.741
01/20/2021  21:31:00      -52.564       43.376      -10.781      325.761       49.795      153.126   106120.443     2479.583    23447.565        6.838        6.602       68.151      217.155       10.153      332.248        0.791      863.737
01/20/2021  21:32:00      -45.626       43.113      -16.194      272.502       51.304      136.966    74257.501     2632.098    18759.615        4.991        4.782       62.773      185.376        8.721      332.181        0.679      863.738
01/20/2021  21:33:00        4.475       26.707      -27.475      469.653       52.529      222.857   220574.133     2759.303    49665.192       13.718       13.650       27.080      318.782      138.580      332.348        0.960      863.739
01/20/2021  21:34:00      -38.420       30.570       -7.008      296.623       56.824      135.273    87984.947     3228.964    18298.694        5.596        5.476       49.098      193.851       15.589      332.132        0.600      863.749
01/20/2021  21:35:00       35.451       35.419      -19.112      459.928       51.509      225.495   211534.156     2653.145    50848.115       13.390       13.252       50.113      316.675       39.933      332.388        1.025      863.762
01/20/2021  21:36:00      -77.341       28.765       11.181      234.120       56.151      108.928    54812.030     3152.920    11865.358        3.837        3.492       82.517      150.114        3.309      332.163        0.649      863.772
01/20/2021  21:37:00     -112.691       54.755        0.755      233.365       57.548      117.305    54459.031     3311.790    13760.487        4.360        3.577      125.289      154.497        1.521      332.143        0.616      863.782
01/20/2021  21:38:00      -41.695       28.071        8.527      302.818       58.169      143.955    91698.636     3383.623    20723.025        5.918        5.790       50.264      198.234       15.554      332.135        0.604      863.800
01/20/2021  21:39:00       24.759       45.825       -0.386      325.598       51.714      154.348   106014.242     2674.343    23823.432        6.758        6.626       52.086      215.354       17.095      332.220        0.744      863.810
01/20/2021  21:40:00      -23.741       13.226        7.618      220.304       48.039      103.354    48533.961     2307.785    10682.065        3.115        3.076       27.177      143.751       27.979      332.183        0.682      863.815
01/20/2021  21:41:00      -31.431       33.278        0.358      229.493       54.884      109.404    52666.953     3012.258    11969.164        3.486        3.382       45.775      149.203       10.624      332.162        0.647      863.807
01/20/2021  21:42:00      -42.158       14.563       -0.451      216.361       46.732      107.605    46812.051     2183.911    11578.918        3.127        3.029       44.603      144.827       10.543      332.157        0.638      863.803
01/20/2021  21:43:00      -18.716       70.500      -15.308      433.731       49.905      205.238   188122.167     2490.513    42122.774       11.910       11.637       72.942      293.322       16.171      332.257        0.808      863.800
01/20/2021  21:44:00       -8.670       50.738      -13.897      357.567       46.886      173.066   127853.963     2198.277    29951.700        8.139        8.000       51.473      244.819       22.622      332.202        0.717      863.796
01/20/2021  21:45:00        3.182       48.955      -21.690      431.833       45.678      207.812   186479.354     2086.481    43185.679       11.726       11.588       49.059      296.366       36.494      332.321        0.914      863.789
01/20/2021  21:46:00       -4.938       37.863      -29.701      418.615       52.387      204.258   175238.694     2744.386    41721.276       11.098       10.985       38.184      288.363       57.032      332.391        1.030      863.784
01/20/2021  21:47:00      -34.630       11.886        2.099      173.080       46.663       86.961    29956.552     2177.472     7562.235        2.051        1.985       36.613      114.495        9.779      332.235        0.766      863.783
01/20/2021  21:48:00      -41.346       34.110      -16.963      324.584       44.924      157.304   105354.673     2018.124    24744.600        6.761        6.606       53.600      222.182       17.182      332.227        0.756      863.783
01/20/2021  21:49:00      -32.093       16.015      -16.203      287.832      147.786      154.862    82847.169    21840.814    23982.192        6.508        6.434       35.867      175.708       23.999      332.268        0.823      863.783
01/20/2021  21:50:00       24.223       18.101       -1.386      292.142       54.171      144.648    85346.657     2934.474    20923.170        5.504        5.460       30.240      199.642       43.587      332.232        0.763      863.789
01/20/2021  21:51:00       59.776       15.476      -25.703      430.141       51.100      205.142   185021.061     2611.220    42083.378       11.705       11.486       61.747      293.057       22.525      332.335        0.936      863.796
01/20/2021  21:52:00       11.022       15.327      -20.469      436.186       51.099      209.557   190258.534     2611.073    43914.260       11.873       11.839       18.878      298.591      250.165      332.314        0.902      863.799
01/20/2021  21:53:00       31.641       34.266       -7.401      366.736       57.190      174.423   134495.112     3270.748    30423.319        8.517        8.409       46.640      248.344       28.352      332.206        0.722      863.806
01/20/2021  21:54:00      -67.230       22.400        2.257       35.072       47.209       25.474     1230.041     2228.689      648.901        0.457        0.205       70.863       32.647        0.212      332.098        0.539      863.812
01/20/2021  21:55:00      -41.368       14.928      -11.665      277.737       54.056      134.962    77137.680     2922.029    18214.825        5.015        4.914       43.979      187.114       18.101      332.182        0.682      863.814
01/20/2021  21:56:00       10.345       27.386      -34.759      500.890       37.874      241.705   250890.871     1434.429    58421.469       15.634       15.537       29.274      346.061      139.744      332.473        1.166      863.804
01/20/2021  21:57:00       27.388        6.013      -27.560      482.736       45.397      229.387   233034.322     2060.925    52618.610       14.457       14.386       28.041      330.167      138.641      332.395        1.038      863.794
01/20/2021  21:58:00      -48.296        8.513       -1.292      219.798       49.404      109.503    48311.266     2440.790    11990.820        3.256        3.137       49.040      148.414        9.159      332.323        0.913      863.793
01/20/2021  21:59:00      -43.777       -2.736      -17.050      371.143       51.778      176.789   137747.359     2680.971    31254.209        8.691        8.584       43.863      251.673       32.922      332.384        1.017      863.803
01/20/2021  22:00:00        5.315       16.367      -33.268      479.885       47.966      228.953   230289.794     2300.701    52419.315       14.315       14.250       17.208      328.678      364.824      332.574        1.333      863.825
01/20/2021  22:01:00      -66.448       -5.196        4.642      129.986       45.174       67.449    16896.463     2040.701     4549.335        1.397        1.174       66.650       85.245        1.636      332.342        0.943      863.849
01/20/2021  22:02:00       11.503      -13.917      -33.778      509.745       53.320      245.930   259840.235     2842.970    60481.725       16.225       16.158       18.055      349.478      374.648      332.668        1.488      863.867
01/20/2021  22:03:00       -7.827       19.154       -8.431      321.888       54.100      157.616   103611.901     2926.780    24842.680        6.591        6.569       20.691      220.070      113.121      332.452        1.128      863.877
01/20/2021  22:04:00        7.228        3.833      -11.951      377.848       53.064      184.402   142769.366     2815.787    34004.155        8.986        8.979        8.181      259.259     1004.167      332.418        1.072      863.888
01/20/2021  22:05:00      -26.557       16.518        9.556      184.211       49.606       91.501    33933.845     2460.802     8372.369        2.291        2.238       31.275      121.514       15.096      332.246        0.786      863.887
01/20/2021  22:06:00        7.210        0.532       -6.667      379.659       48.400      180.077   144140.991     2342.516    32427.735        8.947        8.946        7.230      256.615     1259.790      332.429        1.090      863.894
01/20/2021  22:07:00      -32.809       26.025      -10.352      394.821       56.709      187.927   155883.944     3215.886    35316.506        9.810        9.721       41.877      267.587       40.829      332.493        1.196      863.895
01/20/2021  22:08:00      -29.836       27.192      -17.496      427.587       50.090      205.246   182830.223     2509.043    42126.058       11.465       11.373       40.368      290.712       51.862      332.499        1.206      863.900
01/20/2021  22:09:00       -7.690       13.910      -18.585      441.356       55.359      214.531   194795.314     3064.603    46023.736       12.219       12.194       15.894      303.144      363.777      332.513        1.231      863.905
01/20/2021  22:10:00      -45.920       13.789       -2.365      298.600       50.802      143.371    89161.788     2580.869    20555.124        5.728        5.615       47.945      200.152       17.427      332.368        0.987      863.913
01/20/2021  22:11:00       -8.491        7.601      -11.832      369.421       47.664      174.956   136471.660     2271.837    30609.608        8.478        8.468       11.397      249.755      480.256      332.438        1.104      863.917
01/20/2021  22:12:00       75.404       13.184      -32.646      528.411       55.122      250.161   279218.157     3038.431    62580.413       17.581       17.242       76.548      359.939       22.110      332.695        1.535      863.913
01/20/2021  22:13:00      -23.983       15.261        5.848      261.249       53.052      124.866    68251.130     2814.551    15591.607        4.373        4.333       28.426      174.738       37.786      332.331        0.926      863.902
01/20/2021  22:14:00       52.314        6.392      -26.093      482.179       50.510      237.937   232496.459     2551.249    56613.790       14.750       14.583       52.703      335.206       40.453      332.521        1.245      863.898
01/20/2021  22:15:00      -14.803       13.545       14.856      139.045       50.238       70.726    19333.647     2523.866     5002.149        1.374        1.343       20.065       89.560       19.923      332.218        0.739      863.892
01/20/2021  22:16:00      -19.910       17.951        4.777      216.767       50.418      107.194    46987.862     2541.968    11490.545        3.087        3.051       26.807      145.707       29.543      332.317        0.903      863.890
01/20/2021  22:17:00      -42.086       12.752      -16.854      367.580       51.510      176.653   135115.187     2653.230    31206.252        8.556        8.449       43.975      248.896       32.034      332.305        0.886      863.896
01/20/2021  22:18:00      -68.481       14.886      -23.750      340.405       38.502      164.434   115875.677     1482.379    27038.488        7.491        7.220       70.081      231.124       10.877      332.207        0.724      863.904
01/20/2021  22:19:00      -88.715       15.693        0.409      317.801       59.666      149.638   100997.350     3560.053    22391.423        6.751        6.347       90.092      208.583        5.360      332.205        0.720      863.921
01/20/2021  22:20:00      -78.569       24.219      -12.014      348.442       52.908      168.164   121411.672     2799.271    28279.176        7.966        7.625       82.217      236.919        8.304      332.219        0.743      863.939
01/20/2021  22:21:00     -115.964       32.251        9.319      156.230       54.854       76.736    24407.732     3008.969     5888.405        2.393        1.665      120.365       91.826        0.582      332.084        0.516      863.956
01/20/2021  22:22:00      -67.237       12.081       -1.403      301.821       60.597      142.672    91096.064     3672.021    20355.364        5.987        5.756       68.314      198.958        8.482      332.127        0.590      863.969
01/20/2021  22:23:00       34.234       13.707       -5.783      396.718       53.596      188.843   157385.200     2872.527    35661.552        9.861        9.796       36.876      268.047       52.837      332.210        0.730      863.976
01/20/2021  22:24:00      -49.907       -3.043        8.284       58.889       60.801       44.008     3467.909     3696.784     1936.690        0.583        0.455       50.000       41.080        0.675      331.944        0.285      863.976
01/20/2021  22:25:00       35.950       13.594       -7.985      344.700       51.770      168.111   118818.005     2680.132    28261.474        7.562        7.488       38.434      236.123       37.743      332.011        0.401      863.979
01/20/2021  22:26:00      -49.422       19.576       -1.984      280.431       47.339      135.531    78641.568     2241.020    18368.774        5.102        4.963       53.158      188.485       12.573      332.017        0.410      863.979
01/20/2021  22:27:00       21.075       27.794      -16.148      394.695       47.771      194.200   155784.489     2282.070    37713.548        9.859        9.789       34.880      272.728       61.137      332.031        0.436      863.989
01/20/2021  22:28:00      -53.734       -5.987      -12.073      304.205       50.098      151.200    92540.715     2509.765    22861.414        6.047        5.896       54.066      207.932       14.791      331.912        0.237      864.004
01/20/2021  22:29:00      -62.141       21.938       -3.984      170.028       47.827       85.454    28909.418     2287.398     7302.333        2.142        1.925       65.900      113.271        2.954      331.906        0.226      864.009
01/20/2021  22:30:00      -35.148       39.641      -21.722      353.403       42.668      170.092   124893.522     1820.535    28931.400        7.943        7.782       52.979      241.680       20.810      331.989        0.366      864.006
01/20/2021  22:31:00      -32.744       32.901      -15.949      401.654       49.650      195.542   161325.995     2465.144    38236.788       10.218       10.101       46.418      277.042       35.623      331.997        0.379      864.010
01/20/2021  22:32:00        5.069       11.192      -12.602      373.095       57.585      181.186   139199.916     3316.026    32828.343        8.779        8.767       12.286      254.069      427.628      332.065        0.490      864.007
01/20/2021  22:33:00        8.273       19.189      -12.964      319.376       50.779      154.953   102000.958     2578.461    24010.491        6.457        6.429       20.896      218.653      109.493      331.918        0.246      864.010
01/20/2021  22:34:00      -57.716       13.268       -2.488      196.414       51.922       94.709    38578.427     2695.911     8969.846        2.687        2.512       59.222      128.616        4.717      331.781        0.021      864.013
01/20/2021  22:35:00      -35.105       41.207      -38.577      436.865       44.491      205.541   190851.038     1979.447    42247.090       11.970       11.754       54.133      297.315       30.166      331.954        0.311      864.003
01/20/2021  22:36:00      -93.791       45.628       -5.948      169.065       44.530       78.797    28583.086     1982.880     6209.028        2.384        1.839      104.301      107.893        1.070      331.694       -0.123      863.991
01/20/2021  22:37:00      -77.428       18.873      -25.003      343.448       47.862      163.211   117956.346     2290.756    26637.731        7.690        7.344       79.695      232.896        8.540      331.826        0.096      863.979
01/20/2021  22:38:00      -12.507       23.228       -9.798      257.049       61.740      129.856    66073.953     3811.772    16862.508        4.375        4.337       26.381      172.719       42.864      331.801        0.052      863.972
01/20/2021  22:39:00       16.473        4.395      -23.666      369.572       56.182      180.880   136583.372     3156.399    32717.397        8.662        8.623       17.049      252.198      218.822      331.840        0.118      863.952
01/20/2021  22:40:00      -53.129       33.307      -13.908      359.909       52.577      172.466   129534.836     2764.381    29744.630        8.305        8.102       62.706      244.519       15.206      331.753       -0.025      863.918
01/20/2021  22:41:00      -37.742       24.762      -16.311      351.978       50.764      162.216   123888.773     2577.003    26314.180        7.751        7.639       45.140      233.249       26.701      331.805        0.061      863.865
01/20/2021  22:42:00      -40.204       23.873        0.206      236.659       49.353      118.510    56007.448     2435.729    14044.648        3.732        3.624       46.758      161.195       11.885      331.815        0.076      863.819
01/20/2021  22:43:00      -13.436       13.972      -27.681      423.784       39.179      203.096   179592.989     1534.966    41248.074       11.171       11.119       19.384      291.084      225.495      332.088        0.530      863.766
01/20/2021  22:44:00      -34.422       16.840        4.262      171.832       44.902       81.632    29526.210     2016.153     6663.797        1.984        1.910       38.320      110.872        8.371      331.969        0.328      863.729
01/20/2021  22:45:00       17.171        5.921      -20.436      406.997       43.909      194.932   165646.726     1928.041    37998.567       10.312       10.279       18.163      278.800      235.615      332.133        0.603      863.696
01/20/2021  22:46:00       41.192       16.650      -11.724      392.644       46.760      190.235   154168.987     2186.491    36189.441        9.729        9.627       44.429      270.284       37.008      332.111        0.567      863.685
01/20/2021  22:47:00       19.474       16.894       -2.886      307.072       46.477      148.933    94293.442     2160.069    22181.020        5.963        5.932       25.781      209.078       65.769      331.957        0.311      863.684
01/20/2021  22:48:00       33.204       19.073      -29.377      429.121       35.424      206.847   184144.662     1254.880    42785.875       11.521       11.409       38.292      295.827       59.683      331.985        0.361      863.691
01/20/2021  22:49:00      -47.452       19.701       -2.430      138.099       47.391       66.909    19071.352     2245.909     4476.798        1.421        1.290       51.379       87.846        2.923      331.889        0.196      863.700
01/20/2021  22:50:00      -72.049       24.846       -8.251      277.420       42.434      133.873    76962.017     1800.624    17922.070        5.126        4.834       76.213      188.450        6.114      331.839        0.116      863.714
01/20/2021  22:51:00      -86.749       24.419      -11.086      380.460       57.781      181.870   144749.666     3338.635    33076.611        9.467        9.058       90.120      257.319        8.153      331.769        0.003      863.716
01/20/2021  22:52:00      -51.341       17.013      -21.606      471.514       51.689      218.720   222325.579     2671.767    47838.493       13.806       13.642       54.087      315.652       34.059      331.775        0.016      863.707
01/20/2021  22:53:00      -49.922       25.540      -11.322      382.593       58.307      181.777   146377.347     3399.651    33042.853        9.301        9.141       56.076      256.883       20.985      331.598       -0.278      863.715
01/20/2021  22:54:00      -56.446       14.667       -4.229      311.986       45.806      147.678    97335.144     2098.218    21808.788        6.230        6.062       58.321      208.453       12.775      331.598       -0.281      863.730
01/20/2021  22:55:00      -18.208        7.620      -18.725      489.166       61.148      236.446   239283.713     3739.120    55906.549       14.977       14.946       19.738      332.293      283.423      331.904        0.226      863.755
01/20/2021  22:56:00       29.586       -5.072      -30.705      481.293       54.134      223.742   231643.241     2930.476    50060.593       14.318       14.232       30.018      322.478      115.410      331.822        0.093      863.780
01/20/2021  22:57:00       20.553        1.717      -30.046      521.355       61.698      251.836   271811.431     3806.704    63421.617       17.011       16.952       20.625      357.518      300.483      331.885        0.197      863.792
01/20/2021  22:58:00      -29.961        9.131       -2.129      312.447       50.080      147.425    97623.329     2508.004    21734.050        6.140        6.093       31.321      207.782       44.009      331.563       -0.338      863.798
01/20/2021  22:59:00       35.738       10.433      -29.714      492.597       40.640      236.629   242652.242     1651.649    55993.074       15.122       15.015       37.230      338.737       82.784      331.749       -0.026      863.783
01/20/2021  23:00:00       45.500       16.881      -17.693      421.832       43.558      202.267   177942.541     1897.318    40911.996       11.166       11.038       48.531      289.704       35.634      331.754       -0.021      863.769
01/20/2021  23:01:00      -36.412       21.661      -14.289      355.399       35.169      169.894   126308.554     1236.879    28863.920        7.917        7.820       42.368      240.432       32.204      331.679       -0.147      863.760
01/20/2021  23:02:00      -18.906       13.946        4.823      174.962       49.051       82.704    30611.799     2406.017     6839.922        2.021        1.993       23.493      108.147       21.192      331.582       -0.309      863.754
01/20/2021  23:03:00       45.315       14.568      -10.239      324.675       44.471      153.696   105413.630     1977.705    23622.412        6.666        6.551       47.600      219.865       21.336      331.656       -0.186      863.760
01/20/2021  23:04:00      -16.144       11.160      -15.289      354.206       37.110      169.919   125461.902     1377.136    28872.449        7.813        7.786       19.625      242.424      152.585      331.726       -0.067      863.772
01/20/2021  23:05:00       43.061       21.245      -20.188      443.964       40.127      214.424   197104.373     1610.204    45977.508       12.365       12.235       48.017      306.109       40.640      331.795        0.049      863.775
01/20/2021  23:06:00       15.791       15.774      -14.961      375.536       39.638      183.132   141027.646     1571.140    33537.461        8.839        8.807       22.320      258.903      134.552      331.645       -0.202      863.761
01/20/2021  23:07:00       28.563        7.760      -45.542      519.590       33.759      249.851   269973.267     1139.685    62425.676       16.817       16.677       29.599      358.759      146.912      331.858        0.154      863.750
01/20/2021  23:08:00        4.292       20.809      -13.107      402.503       40.469      186.268   162008.624     1637.734    34695.638        9.944        9.917       21.247      270.332      161.880      331.630       -0.226      863.737
01/20/2021  23:09:00      -14.916        9.886      -16.753      352.500       35.428      165.566   124256.414     1255.145    27412.003        7.673        7.646       17.894      238.761      178.028      331.541       -0.372      863.742
01/20/2021  23:10:00      -81.246       24.542       -4.005      161.134       45.555       78.548    25964.079     2075.246     6169.728        2.071        1.710       84.872      105.031        1.531      331.463       -0.504      863.749
01/20/2021  23:11:00      -88.768       51.361        0.040      178.389       41.360       89.966    31822.517     1710.646     8093.920        2.606        2.081      102.556      119.195        1.351      331.216       -0.911      863.765
01/20/2021  23:12:00      -54.973       30.351      -18.693      295.343       48.080      133.244    87227.326     2311.725    17753.979        5.577        5.365       62.795      193.808        9.526      331.341       -0.703      863.764
01/20/2021  23:13:00       29.678       17.433      -44.568      503.370       43.623      241.380   253381.248     1902.994    58264.401       15.829       15.677       34.419      346.644      101.429      331.496       -0.444      863.743
01/20/2021  23:14:00       18.152       23.665       -4.123      218.631       41.881      103.578    47799.689     1754.031    10728.320        3.058        3.014       29.825      145.925       23.939      331.441       -0.540      863.719
01/20/2021  23:15:00       29.763       -6.210      -32.883      419.344       35.659      203.359   175849.543     1271.574    41354.847       11.019       10.924       30.404      290.143       91.065      331.638       -0.212      863.710
01/20/2021  23:16:00       51.828        0.475      -36.026      434.914       42.016      208.967   189150.574     1765.313    43667.182       11.923       11.729       51.830      299.122       33.307      331.639       -0.210      863.712
01/20/2021  23:17:00       74.022       -9.625      -53.620      529.325       38.546      253.894   280184.747     1485.776    64462.376       17.722       17.307       74.645      365.006       23.911      331.715       -0.083      863.743
01/20/2021  23:18:00       30.306       -8.408       -2.574      373.595       41.467      178.747   139573.498     1719.491    31950.345        8.708        8.662       31.451      256.609       66.571      331.655       -0.185      863.766
01/20/2021  23:19:00       90.562       18.350      -25.436      450.344       41.995      217.733   202809.474     1763.576    47407.837       13.053       12.599       92.403      311.669       11.377      331.637       -0.213      863.786
01/20/2021  23:20:00       30.363       17.119       -5.054      292.359       27.045      140.439    85473.784      731.428    19723.163        5.356        5.296       34.856      200.972       33.244      331.410       -0.591      863.790
01/20/2021  23:21:00       62.425       14.276      -21.118      380.647       30.431      181.273   144892.337      926.031    32859.774        9.157        8.934       64.036      261.393       16.662      331.612       -0.255      863.785
01/20/2021  23:22:00       98.470       23.546      -30.454      422.000       30.050      201.358   178083.992      903.021    40545.217       11.531       10.977      101.247      290.572        8.237      331.611       -0.258      863.794
01/20/2021  23:23:00      120.936       44.536      -32.457      428.631       33.075      201.079   183724.405     1093.923    40432.886       12.141       11.263      128.876      291.891        5.130      331.370       -0.652      863.806
01/20/2021  23:24:00      112.375        6.549      -42.401      518.480       38.336      248.416   268821.132     1469.672    61710.672       17.316       16.600      112.566      357.342       10.078      331.580       -0.305      863.812
01/20/2021  23:25:00       58.448       11.497      -27.389      415.304       29.421      197.472   172477.041      865.606    38995.383       10.827       10.617       59.569      285.177       22.919      331.517       -0.411      863.810
01/20/2021  23:26:00       42.731        8.910      -11.358      319.642       29.828      153.377   102170.955      889.707    23524.482        6.428        6.329       43.650      219.964       25.394      331.420       -0.573      863.808
01/20/2021  23:27:00       25.662        7.228      -26.071      386.664       31.600      182.942   149508.837      998.584    33467.867        9.264        9.199       26.661      264.575       98.480      331.514       -0.417      863.806
01/20/2021  23:28:00       59.603        7.610      -43.910      486.480       40.182      234.798   236662.481     1614.581    55130.251       14.941       14.670       60.087      336.142       31.295      331.553       -0.350      863.805
01/20/2021  23:29:00      -30.174       17.351      -14.201      313.855       30.650      149.601    98504.735      939.443    22380.506        6.159        6.091       34.807      214.352       37.925      331.293       -0.781      863.812
01/20/2021  23:30:00       56.733       25.723      -47.577      561.099       35.493      267.886   314832.284     1259.736    71762.721       19.692       19.393       62.292      385.418       38.282      331.511       -0.416      863.824
01/20/2021  23:31:00      -28.541       39.586       -8.461      332.554       43.774      159.210   110592.235     1916.184    25347.856        7.013        6.893       48.802      226.408       21.523      331.123       -1.061      863.839
01/20/2021  23:32:00       -7.429       23.096      -42.074      517.838       34.828      248.474   268155.937     1212.957    61739.319       16.666       16.555       24.262      356.921      216.425      331.399       -0.602      863.844
01/20/2021  23:33:00       28.522        0.095      -35.324      493.317       34.091      238.824   243362.024     1162.166    57036.688       15.175       15.078       28.522      341.515      143.373      331.523       -0.399      863.853
01/20/2021  23:34:00       -4.932        9.062      -10.322      339.099       36.595      157.786   114987.873     1339.172    24896.538        7.069        7.061       10.317      227.658      486.920      331.332       -0.718      863.839
01/20/2021  23:35:00      -11.545       31.035      -27.882      412.814       37.196      196.529   170415.115     1383.549    38623.550       10.610       10.521       33.113      282.490       72.778      331.371       -0.652      863.819
01/20/2021  23:36:00       40.818       33.702      -60.669      588.022       29.108      280.705   345769.580      847.301    78795.466       21.586       21.271       52.934      405.143       58.580      331.603       -0.263      863.801
01/20/2021  23:37:00      -28.140       31.947      -29.131      369.265       34.824      178.745   136356.987     1212.721    31949.691        8.605        8.476       42.573      255.114       35.908      331.379       -0.640      863.788
01/20/2021  23:38:00       -3.087       23.690      -37.464      441.657       27.861      210.663   195061.152      776.220    44378.749       12.104       12.011       23.890      303.453      161.338      331.379       -0.636      863.772
01/20/2021  23:39:00       17.660       13.202      -20.963      351.189       28.294      168.066   123333.861      800.549    28246.305        7.662        7.619       22.050      241.645      120.104      331.270       -0.819      863.763
01/20/2021  23:40:00       30.437       -9.140      -14.076      298.994       37.183      140.905    89397.539     1382.552    19854.101        5.590        5.532       31.780      203.149       40.863      331.303       -0.766      863.739
01/20/2021  23:41:00       65.261       -3.452      -29.970      462.660       24.608      222.892   214054.413      605.555    49680.863       13.470       13.217       65.352      320.590       24.065      331.621       -0.237      863.707
01/20/2021  23:42:00       61.651        0.401      -31.607      450.476       26.432      214.726   202928.263      698.629    46107.464       12.721       12.487       61.652      310.020       25.286      331.712       -0.090      863.687
01/20/2021  23:43:00       21.326       17.821      -22.220      372.212       32.904      180.306   138541.839     1082.655    32510.285        8.666        8.607       27.791      257.248       85.682      331.428       -0.559      863.673
01/20/2021  23:44:00       70.436       20.359      -52.698      574.275       30.757      278.261   329792.142      946.008    77429.362       20.807       20.408       73.319      398.669       29.566      331.534       -0.376      863.664
01/20/2021  23:45:00      134.485       -1.816      -69.677      601.907       29.039      286.780   362291.837      843.286    82242.914       23.406       22.269      134.497      414.745        9.509      331.661       -0.166      863.660
01/20/2021  23:46:00       64.589       19.922      -51.281      521.834       37.263      249.110   272310.534     1388.559    62055.954       17.140       16.788       67.591      358.705       28.164      331.413       -0.580      863.664
01/20/2021  23:47:00       77.234       17.342      -54.605      538.735       28.281      258.227   290235.177      799.809    66680.980       18.341       17.886       79.157      372.014       22.087      331.523       -0.399      863.663
01/20/2021  23:48:00       18.418       12.420      -16.291      336.955       40.013      164.048   113538.486     1601.074    26911.883        7.138        7.103       22.215      232.289      109.341      331.187       -0.957      863.665
01/20/2021  23:49:00      149.640       -1.421      -65.791      598.413       30.579      286.810   358098.494      935.066    82259.903       23.391       22.065      149.647      413.364        7.630      331.603       -0.264      863.663
01/20/2021  23:50:00       27.367        9.578      -17.459      301.247       14.410      143.969    90750.051      207.648    20726.999        5.639        5.584       28.995      207.764       51.345      331.281       -0.803      863.653
01/20/2021  23:51:00       80.830        0.978      -45.712      504.350       13.447      240.870   254368.874      180.828    58018.178       16.053       15.628       80.836      348.139       18.548      331.636       -0.212      863.654
01/20/2021  23:52:00       53.951       16.815      -35.823      449.609       21.139      215.684   202147.999      446.848    46519.752       12.674       12.456       56.511      310.796       30.247      331.783        0.028      863.648
01/20/2021  23:53:00       44.990       24.875      -37.249      472.814       26.437      226.984   223553.002      698.911    51521.962       13.984       13.789       51.409      326.797       40.409      331.485       -0.462      863.633
01/20/2021  23:54:00       39.557       27.173      -33.963      417.763       17.524      200.024   174525.521      307.107    40009.468       10.910       10.742       47.991      288.587       36.160      331.712       -0.090      863.628
01/20/2021  23:55:00       32.655       16.978      -23.081      353.268       22.478      170.389   124798.122      505.240    29032.344        7.808        7.717       36.805      244.615       44.174      331.931        0.267      863.620
01/20/2021  23:56:00       49.190        4.618      -36.416      434.841       24.689      207.887   189086.354      609.530    43216.840       11.829       11.646       49.406      299.865       36.837      331.669       -0.160      863.603
01/20/2021  23:57:00       60.695       -1.228      -38.223      455.976       31.439      219.323   207914.521      988.402    48102.687       13.102       12.850       60.707      314.917       26.910      331.651       -0.189      863.586
01/20/2021  23:58:00       59.560        6.561      -32.391      431.889       14.425      206.399   186527.704      208.086    42600.348       11.694       11.467       59.920      298.189       24.765      331.917        0.247      863.569
01/20/2021  23:59:00       60.067        0.449      -40.292      457.120       21.234      218.358   208958.992      450.884    47680.360       13.111       12.855       60.068      315.267       27.546      331.962        0.322      863.551
01/21/2021  00:00:00       54.221        5.560      -35.761      429.314       18.358      205.369   184310.678      337.012    42176.328       11.549       11.341       54.506      296.443       29.580      331.961        0.320      863.535
01/21/2021  00:01:00       32.552       17.403      -35.905      426.642       17.929      201.998   182023.085      321.438    40803.335       11.285       11.157       36.912      292.967       62.993      331.644       -0.201      863.530
01/21/2021  00:02:00       43.400       13.105      -27.504      388.804       21.149      183.095   151168.531      447.266    33523.700        9.394        9.257       45.336      266.130       34.459      331.797        0.049      863.531
01/21/2021  00:03:00       68.100       40.797      -17.913      366.224       30.393      175.680   134119.657      923.756    30863.629        8.623        8.295       79.385      252.634       10.128      332.023        0.420      863.533
01/21/2021  00:04:00      118.879       51.640      -26.790      422.093       36.555      203.131   178162.133     1336.301    41262.277       11.909       11.038      129.611      291.134        5.045      332.236        0.774      863.531
01/21/2021  00:05:00       70.021        5.101      -23.372      426.735       34.725      204.909   182102.461     1205.821    41987.508       11.534       11.265       70.206      294.722       17.623      331.866        0.164      863.536
01/21/2021  00:06:00       76.219      -21.494      -45.510      512.349       29.141      244.912   262501.086      849.213    59981.805       16.577       16.167       79.192      353.217       19.894      331.925        0.264      863.533
01/21/2021  00:07:00       17.351       11.778      -25.592      332.610       28.994      159.237   110629.116      840.628    25356.357        6.893        6.841       20.970      228.583      118.815      331.507       -0.429      863.533
01/21/2021  00:08:00        7.209       33.109      -43.453      468.561       28.452      223.745   219548.984      809.510    50061.840       13.667       13.521       33.885      322.717       90.704      331.387       -0.623      863.538
01/21/2021  00:09:00        9.775       29.746      -50.877      502.963       18.163      241.881   252972.202      329.897    58506.233       15.762       15.590       31.311      348.181      123.655      331.366       -0.657      863.541
01/21/2021  00:10:00       72.447       12.846      -56.058      581.810       20.964      277.547   338502.323      439.485    77032.257       21.218       20.799       73.578      401.300       29.747      331.609       -0.254      863.562
01/21/2021  00:11:00      121.290       -7.557      -75.757      679.119       24.292      325.414   461202.628      590.097   105894.089       29.398       28.384      121.525      469.615       14.933      331.994        0.385      863.587
01/21/2021  00:12:00      126.169       -4.978      -69.351      612.411       27.011      291.004   375047.184      729.600    84683.359       24.051       23.023      126.267      421.306       11.133      331.880        0.193      863.615
01/21/2021  00:13:00       15.148        4.213      -10.500      329.834       28.628      159.014   108790.281      819.565    25285.609        6.760        6.745       15.723      227.889      210.085      331.222       -0.899      863.645
01/21/2021  00:14:00      120.723       18.125      -94.075      661.112       30.231      317.170   437069.457      913.934   100596.897       28.105       26.929      122.076      457.051       14.018      331.720       -0.068      863.673
01/21/2021  00:15:00      -62.619       27.442      -10.760      156.678       25.549       75.957    24548.116      652.747     5769.446        1.787        1.549       68.368      107.252        2.461      331.190       -0.954      863.713
01/21/2021  00:16:00       10.027       17.364      -44.854      471.348       28.378      223.315   222169.223      805.322    49869.404       13.757       13.642       20.051      323.258      259.915      331.296       -0.772      863.738
01/21/2021  00:17:00       11.878       33.744      -42.473      498.999       34.954      239.298   248999.830     1221.763    57263.410       15.522       15.374       35.773      344.311       92.636      331.353       -0.680      863.754
01/21/2021  00:18:00       23.174       29.953      -38.822      437.343       30.542      207.986   191269.100      932.823    43258.002       11.915       11.773       37.871      300.073       62.784      331.295       -0.777      863.766
01/21/2021  00:19:00       16.189       10.653      -31.537      391.964       26.386      188.324   153635.755      696.199    35465.825        9.554        9.490       19.380      270.499      194.820      331.246       -0.858      863.773
01/21/2021  00:20:00       13.210       10.323      -25.986      329.631       26.741      157.520   108656.679      715.102    24812.700        6.754        6.709       16.765      226.553      182.609      331.192       -0.947      863.774
01/21/2021  00:21:00       -3.908       24.143      -29.552      381.099       31.742      182.150   145236.155     1007.541    33178.666        9.041        8.971       24.458      261.418      114.247      331.240       -0.868      863.767
01/21/2021  00:22:00       15.939       -6.811      -33.835      424.855       28.128      202.288   180502.092      791.176    40920.573       11.178       11.111       17.334      292.184      284.140      331.195       -0.940      863.757
01/21/2021  00:23:00       72.722        0.721      -59.238      598.260       29.477      284.237   357915.281      868.916    80790.741       22.409       21.979       72.726      411.419       32.003      331.405       -0.588      863.753
01/21/2021  00:24:00       40.524        5.796      -46.825      515.140      168.183      258.377   265369.540    28285.634    66758.654       18.207       18.021       40.937      337.971       68.161      331.396       -0.606      863.748
01/21/2021  00:25:00       83.565       18.061      -51.780      529.094       29.683      251.477   279940.378      881.105    63240.659       17.695       17.203       85.495      363.973       18.124      331.769        0.007      863.731
01/21/2021  00:26:00       74.947        4.507      -27.803      400.961       23.319      192.321   160769.590      543.771    36987.551       10.231        9.915       75.083      276.848       13.596      331.752       -0.025      863.715
01/21/2021  00:27:00      126.744       16.753      -60.521      544.967       17.559      260.515   296988.812      308.307    67868.095       19.251       18.258      127.846      376.408        8.668      331.885        0.198      863.698
01/21/2021  00:28:00       73.139       -0.943      -57.723      536.188       23.160      257.153   287497.496      536.394    66127.707       18.135       17.708       73.145      370.528       25.661      331.708       -0.093      863.683
01/21/2021  00:29:00      125.559        0.365      -61.473      649.255       27.491      311.134   421532.050      755.741    96804.165       26.921       25.955      125.559      448.606       12.765      331.585       -0.291      863.668
01/21/2021  00:30:00       87.404        5.883      -62.345      586.358       21.702      278.538   343815.629      470.968    77583.691       21.663       21.094       87.602      403.478       21.213      331.479       -0.468      863.658
01/21/2021  00:31:00       76.180       14.953      -65.860      563.225       19.361      268.121   317222.230      374.834    71889.094       19.984       19.474       77.634      388.170       25.000      331.508       -0.423      863.652
01/21/2021  00:32:00       51.660      -10.507      -25.566      398.998       21.486      192.278   159199.392      461.664    36970.740        9.999        9.832       52.718      276.416       27.493      331.266       -0.826      863.648
01/21/2021  00:33:00        8.381       15.086      -36.526      444.828       19.311      212.965   197871.729      372.919    45354.220       12.256       12.180       17.258      307.252      316.966      331.296       -0.774      863.653
01/21/2021  00:34:00       47.883       18.069      -71.860      604.104       21.768      287.904   364941.355      473.830    82888.849       22.795       22.415       51.179      416.334       66.177      331.618       -0.239      863.644
01/21/2021  00:35:00       45.456       17.397      -64.933      606.119       31.687      290.971   367380.604     1004.057    84664.158       22.972       22.652       48.671      418.843       74.055      331.634       -0.211      863.646
01/21/2021  00:36:00        7.163       19.374      -44.743      537.462       25.004      257.815   288864.939      625.222    66468.724       17.912       17.798       20.656      371.224      322.993      331.361       -0.664      863.656
01/21/2021  00:37:00       10.883        9.156      -36.503      439.270       23.669      212.803   192958.046      560.211    45285.281       12.012       11.940       14.222      304.927      459.690      331.290       -0.785      863.663
01/21/2021  00:38:00        9.120        8.341      -23.984      388.559       22.543      185.903   150978.024      508.192    34559.870        9.335        9.302       12.359      267.576      468.728      331.258       -0.837      863.678
01/21/2021  00:39:00        2.889       21.609      -53.905      549.940       27.140      262.477   302433.924      736.587    68894.428       18.764       18.603       21.802      378.890      302.030      331.455       -0.509      863.696
01/21/2021  00:40:00      -43.315       47.657      -36.680      458.302       24.193      217.627   210040.391      585.297    47361.637       13.168       12.899       64.400      314.446       23.841      331.230       -0.882      863.707
01/21/2021  00:41:00      -68.517       44.619      -13.349      242.735       23.134      116.630    58920.462      535.202    13602.478        3.995        3.653       81.764      166.344        4.139      331.193       -0.948      863.714
01/21/2021  00:42:00      -19.858       22.654      -35.461      410.385       17.626      195.800   168416.040      310.659    38337.619       10.457       10.353       30.126      282.746       88.089      331.311       -0.750      863.716
01/21/2021  00:43:00        1.978       13.120      -39.641      427.220       30.820      199.915   182516.974      949.873    39965.825       11.254       11.172       13.268      288.699      473.438      331.171       -0.979      863.724
01/21/2021  00:44:00      107.830       -8.970      -59.881      603.057      111.417      316.463   363677.411    12413.822   100148.973       24.566       23.812      108.202      428.366       15.673      331.248       -0.844      863.726
01/21/2021  00:45:00      -31.145       -8.559      -21.754      299.952       35.077      147.096    89971.179     1230.407    21637.361        5.715        5.642       32.300      206.268       40.781      330.850       -1.511      863.725
01/21/2021  00:46:00      -25.235       43.026      -63.555      524.322       32.517      249.383   274913.188     1057.386    62191.896       17.227       16.908       49.880      360.552       52.250      331.153       -1.007      863.731
01/21/2021  00:47:00       56.747       19.120      -70.268      633.217       36.254      302.157   400963.179     1314.355    91298.853       25.094       24.679       59.882      435.358       52.857      331.325       -0.720      863.729
01/21/2021  00:48:00       67.643       15.856      -83.298      691.382       31.130      334.839   478009.327      969.056   112117.239       30.130       29.555       69.477      479.125       47.558      331.478       -0.464      863.727
01/21/2021  00:49:00      -28.836       16.333      -47.024      512.096       31.944      244.596   262242.576     1020.438    59827.064       16.313       16.155       33.140      351.259      112.341      331.241       -0.861      863.725
01/21/2021  00:50:00       23.793        4.566      -40.022      500.403       32.111      239.555   250402.718     1031.127    57386.546       15.544       15.441       24.227      342.777      200.178      331.176       -0.968      863.722
01/21/2021  00:51:00       55.437       18.127      -68.042      598.779       21.017      284.570   358535.954      441.704    80980.076       22.390       21.998       58.325      412.165       49.938      331.430       -0.549      863.730
01/21/2021  00:52:00       13.401       32.446      -60.376      564.251       35.379      270.933   318378.693     1251.660    73404.508       19.887       19.652       35.105      389.288      122.971      331.269       -0.813      863.734
01/21/2021  00:53:00      -58.441        0.960       -8.386      277.597       29.730      134.887    77059.946      883.848    18194.535        4.979        4.807       58.449      190.369       10.608      331.046       -1.187      863.737
01/21/2021  00:54:00       18.627       15.160      -25.220      432.836       27.058      206.731   187347.336      732.133    42737.545       11.597       11.541       24.017      297.752      153.705      331.182       -0.960      863.737
01/21/2021  00:55:00      -33.241       13.365      -27.482      401.758       22.550      192.977   161409.524      508.481    37240.031       10.056        9.958       35.828      277.300       59.905      331.188       -0.952      863.740
01/21/2021  00:56:00      -55.356       19.964      -12.991      341.279       23.278      164.210   116471.318      541.886    26964.942        7.377        7.199       58.846      235.147       15.968      331.128       -1.052      863.735
01/21/2021  00:57:00        2.326       15.707      -18.449      373.397       24.644      178.711   139425.522      607.322    31937.461        8.624        8.599       15.878      256.978      261.923      331.119       -1.068      863.740
01/21/2021  00:58:00       29.062       28.557      -54.409      576.555       26.059      277.555   332416.029      679.083    77036.802       20.729       20.507       40.745      398.569       95.689      331.251       -0.842      863.754
01/21/2021  00:59:00       17.606       14.199      -54.453      551.207       31.386      259.436   303829.324      985.081    67307.169       18.772       18.606       22.618      376.776      277.488      331.284       -0.791      863.766
01/21/2021  01:00:00      -28.485        7.635      -36.617      400.068       24.097      191.269   160054.588      580.680    36583.729        9.967        9.861       29.490      275.793       87.458      331.060       -1.162      863.774
01/21/2021  01:01:00       51.972       15.571      -75.148      613.614       22.529      294.877   376522.290      507.556    86952.562       23.619       23.199       54.254      424.832       61.315      331.398       -0.600      863.792
01/21/2021  01:02:00      -52.655       23.308      -41.885      437.798       30.041      210.817   191666.660      902.434    44443.764       12.099       11.851       57.583      302.107       27.526      331.149       -1.015      863.805
01/21/2021  01:03:00      -35.715        7.280      -41.209      486.431       31.954      230.334   236615.060     1021.058    53053.624       14.679       14.534       36.449      332.495       83.214      331.214       -0.907      863.813
01/21/2021  01:04:00       23.636       10.222      -46.468      552.441       29.887      261.771   305191.103      893.209    68524.174       18.864       18.730       25.752      378.298      215.803      331.369       -0.650      863.805
01/21/2021  01:05:00      -40.832       13.949      -37.276      426.888       30.260      204.758   182233.672      915.640    41925.693       11.412       11.254       43.148      294.537       46.596      331.277       -0.805      863.788
01/21/2021  01:06:00      -41.391       30.202      -33.578      466.789       29.864      221.942   217892.278      891.841    49258.291       13.584       13.402       51.238      320.177       39.047      331.167       -0.987      863.777
01/21/2021  01:07:00      -13.846       27.044      -55.099      558.108       18.588      264.211   311484.602      345.504    69807.456       19.272       19.082       30.383      383.434      159.266      331.312       -0.744      863.773
01/21/2021  01:08:00      -33.958        3.393      -52.851      447.847       35.119      211.840   200566.929     1233.331    44876.159       12.526       12.334       34.127      306.729       80.781      331.101       -1.095      863.770
01/21/2021  01:09:00       76.966       -6.474      -62.271      551.319       35.277      269.433   303952.260     1244.489    72594.288       19.374       18.890       77.238      382.166       24.482      331.329       -0.716      863.773
01/21/2021  01:10:00       58.666       11.461      -57.022      577.215       49.205      277.747   333176.594     2421.164    77143.271       20.970       20.637       59.775      396.680       44.039      331.367       -0.653      863.782
01/21/2021  01:11:00      -31.145       25.753      -32.697      444.638       35.777      207.401   197702.605     1279.986    43015.010       12.230       12.100       40.413      299.386       54.880      331.221       -0.898      863.782
01/21/2021  01:12:00      -23.371       -2.896      -39.779      439.841       42.123      204.401   193460.526     1774.363    41779.616       11.952       11.851       23.550      296.622      158.642      331.301       -0.765      863.786
01/21/2021  01:13:00       87.815       -3.357      -66.664      633.806       45.367      296.388   401709.934     2058.157    87845.661       25.179       24.581       87.879      430.492       23.997      331.554       -0.343      863.791
01/21/2021  01:14:00       10.188       15.229      -57.108      551.129       39.869      262.755   303743.398     1589.554    69040.264       18.890       18.719       18.322      377.905      425.400      331.370       -0.648      863.802
01/21/2021  01:15:00      -12.270        4.416      -46.214      507.309       28.269      245.866   257362.533      799.129    60450.163       16.039       15.931       13.041      351.660      727.194      331.295       -0.773      863.808
01/21/2021  01:16:00       19.936        2.871      -32.416      450.223       24.399      217.143   202700.314      595.320    47150.944       12.590       12.522       20.142      310.725      237.996      331.280       -0.800      863.801
01/21/2021  01:17:00      -56.424       24.083      -39.576      393.676       24.179      187.067   154980.562      584.642    34994.239        9.790        9.528       61.349      270.176       19.395      331.121       -1.063      863.797
01/21/2021  01:18:00      -19.984       21.804      -36.832      479.424       38.444      231.627   229847.409     1477.915    53650.970       14.354       14.249       29.577      330.321      124.732      331.226       -0.886      863.798
01/21/2021  01:19:00       -5.938       47.799      -47.328      519.491       27.890      248.487   269870.517      777.836    61745.991       16.841       16.620       48.167      357.383       55.052      331.260       -0.830      863.806
01/21/2021  01:20:00      -31.310        8.404      -42.332      477.452       25.120      230.720   227960.660      631.029    53231.678       14.227       14.091       32.419      329.550      103.337      331.266       -0.822      863.816
01/21/2021  01:21:00       -4.473       11.862      -42.646      500.086       43.971      235.770   250086.443     1933.444    55587.684       15.473       15.380       12.677      339.140      715.661      331.262       -0.828      863.837
01/21/2021  01:22:00       15.626       20.041      -58.307      545.568       37.371      263.632   297644.952     1396.600    69501.792       18.621       18.427       25.413      376.855      219.905      331.386       -0.622      863.847
01/21/2021  01:23:00       51.335      -25.685      -43.297      503.684       35.266      237.841   253697.695     1243.699    56568.144       15.827       15.575       57.402      342.991       35.704      331.165       -0.988      863.855
01/21/2021  01:24:00       -2.575        3.439      -37.844      453.569       36.518      219.483   205724.497     1333.586    48172.951       12.829       12.762        4.296      312.380     5286.215      331.137       -1.035      863.866
01/21/2021  01:25:00        5.951        6.272      -55.934      501.589       29.932      235.469   251591.787      895.926    55445.472       15.550       15.397        8.646      342.093     1565.584      331.317       -0.736      863.865
01/21/2021  01:26:00       29.372       -3.407      -39.462      486.560       32.085      228.699   236740.307     1029.426    52303.277       14.619       14.504       29.569      330.769      125.137      331.254       -0.841      863.857
01/21/2021  01:27:00       13.164        8.447      -26.897      373.160       36.833      179.385   139248.711     1356.657    32179.009        8.684        8.639       15.642      256.672      269.274      331.135       -1.040      863.852
01/21/2021  01:28:00      115.514        0.741      -70.669      624.044       27.867      295.079   389431.395      776.550    87071.830       24.771       23.864      115.516      428.526       13.762      331.480       -0.464      863.850
01/21/2021  01:29:00       30.698       -3.792      -37.073      425.690       23.291      204.031   181212.204      542.468    41628.651       11.281       11.169       30.931      293.596       90.097      331.333       -0.715      863.856
01/21/2021  01:30:00      -15.013       19.306      -43.708      494.934       27.953      236.175   244959.723      781.354    55778.748       15.195       15.076       24.456      340.776      194.160      331.286       -0.788      863.867
01/21/2021  01:31:00       30.370        2.517      -76.979      614.100       28.720      293.647   377118.737      824.845    86228.380       23.542       23.209       30.474      423.914      193.502      331.453       -0.509      863.877
01/21/2021  01:32:00       85.930        7.372      -81.860      684.755       36.835      326.575   468889.056     1356.836   106651.161       29.540       28.845       86.245      470.952       29.818      331.559       -0.332      863.864
01/21/2021  01:33:00       69.779       -0.814      -40.608      463.306       27.791      219.612   214652.463      772.352    48229.400       13.503       13.183       69.784      318.038       20.771      331.169       -0.981      863.841
01/21/2021  01:34:00      141.029       -9.697      -57.914      588.964       23.067      280.536   346879.093      532.106    78700.485       22.463       21.306      141.362      406.036        8.250      331.376       -0.636      863.826
01/21/2021  01:35:00      109.031       -5.856      -61.990      533.789       15.240      254.592   284930.693      232.257    64817.237       18.280       17.499      109.188      368.364       11.382      331.304       -0.756      863.830
01/21/2021  01:36:00      176.464        1.331      -88.446      686.577       15.961      328.077   471388.487      254.763   107634.719       30.900       28.964      176.469      474.321        7.224      331.678       -0.137      863.841
01/21/2021  01:37:00        7.851       40.638      -33.547      395.541       18.048      187.812   156452.767      325.726    35273.518        9.740        9.603       41.390      272.092       43.216      331.402       -0.600      863.828
01/21/2021  01:38:00      108.449       21.331      -86.277      648.038       21.246      310.609   419953.345      451.395    96478.173       26.816       25.844      110.527      448.063       16.434      331.838        0.126      863.816
01/21/2021  01:39:00       57.334       -2.855      -50.686      540.091       26.123      257.909   291697.779      682.408    66517.258       18.230       17.945       57.405      372.505       42.108      331.424       -0.560      863.812
01/21/2021  01:40:00       12.006       -4.942      -30.009      431.715       26.641      206.923   186377.966      709.724    42817.023       11.544       11.495       12.984      297.789      526.052      331.168       -0.984      863.813
01/21/2021  01:41:00       41.678       -9.800      -51.841      546.677       31.333      259.474   298855.928      981.765    67326.588       18.576       18.358       42.815      375.151       76.775      331.309       -0.748      863.804
01/21/2021  01:42:00       75.611        4.277      -51.640      544.374       34.644      259.086   296342.791     1200.232    67125.455       18.646       18.233       75.732      373.751       24.356      331.196       -0.934      863.789
01/21/2021  01:43:00       13.988       -5.713      -18.944      352.775       36.781      173.364   124450.077     1352.816    30054.980        7.819        7.793       15.109      244.885      262.684      330.913       -1.405      863.772
01/21/2021  01:44:00       91.529       -4.265      -45.522      494.789       33.748      234.022   244816.193     1138.952    54766.268       15.553       15.036       91.628      338.537       13.651      331.041       -1.193      863.771
01/21/2021  01:45:00       53.904        3.180      -62.927      636.584       50.528      300.924   405238.680     2553.075    90555.051       25.251       24.917       53.998      433.551       64.465      331.156       -0.997      863.782
01/21/2021  01:46:00       47.096       23.418      -54.654      563.748       44.600      269.119   317812.324     1989.185    72424.771       19.891       19.611       52.598      384.315       53.388      330.976       -1.296      863.800
01/21/2021  01:47:00       62.650       29.947      -72.585      569.941       47.159      274.312   324832.882     2223.958    75246.975       20.611       20.115       69.439      392.664       31.976      330.991       -1.270      863.819
01/21/2021  01:48:00      106.888       10.009      -72.528      601.120       38.504      285.674   361344.934     1482.589    81609.484       23.052       22.222      107.355      410.291       14.606      330.968       -1.308      863.830
01/21/2021  01:49:00      115.487        7.055      -68.912      595.427       29.412      282.357   354533.615      865.050    79725.478       22.654       21.756      115.702      408.030       12.436      330.992       -1.268      863.827
01/21/2021  01:50:00       56.113       -1.420      -16.542      354.155       16.423      168.851   125425.560      269.726    28510.618        7.878        7.710       56.131      244.033       18.901      330.664       -1.816      863.817
01/21/2021  01:51:00       54.263       27.851      -53.394      524.517       29.542      250.399   275117.559      872.758    62699.898       17.256       16.935       60.993      361.066       35.044      330.828       -1.539      863.800
01/21/2021  01:52:00      160.013      -17.538      -89.660      674.320       42.846      316.911   454707.676     1835.742   100432.849       29.534       27.849      160.971      460.420        8.181      331.060       -1.154      863.788
01/21/2021  01:53:00      159.639       17.827      -72.327      656.566       22.763      312.898   431079.232      518.133    97905.118       28.016       26.475      160.631      452.472        7.935      330.965       -1.311      863.781
01/21/2021  01:54:00      251.362        1.628     -110.658      790.928       25.290      375.334   625567.000      639.568   140875.246       42.109       38.354      251.367      543.763        4.680      331.336       -0.694      863.768
01/21/2021  01:55:00      154.776       15.127      -76.854      678.469       18.510      325.516   460319.544      342.636   105960.818       29.824       28.331      155.514      469.576        9.117      330.994       -1.262      863.753
01/21/2021  01:56:00      134.133        0.805      -63.552      576.390       31.063      272.799   332225.976      964.920    74419.153       21.474       20.381      134.136      395.947        8.713      331.169       -0.978      863.752
01/21/2021  01:57:00      322.992      -10.163     -162.493      935.988       22.429      446.564   876073.342      503.039   199419.727       60.318       53.800      323.152      646.243        3.999      331.856        0.170      863.744
01/21/2021  01:58:00      134.508       -1.196      -70.353      610.186       14.476      291.150   372327.454      209.565    84768.152       24.008       22.865      134.513      421.164        9.803      331.256       -0.833      863.757
01/21/2021  01:59:00      170.376       29.338      -94.462      722.356       16.833      345.725   521797.600      283.357   119525.713       34.007       32.080      172.883      499.425        8.345      331.610       -0.246      863.778
01/21/2021  02:00:00       76.729       22.759      -64.840      568.574       24.303      271.621   323276.653      590.637    73777.793       20.404       19.882       80.034      392.269       24.023      331.238       -0.865      863.809
01/21/2021  02:01:00      125.907       -0.607      -79.556      663.849       30.222      318.702   440695.240      913.349   101570.728       28.256       27.159      125.909      459.277       13.306      331.110       -1.071      863.836
01/21/2021  02:02:00      208.515       -9.502      -96.904      764.018       17.191      364.611   583723.906      295.529   132941.512       38.481       35.848      208.732      527.379        6.384      331.303       -0.748      863.846
01/21/2021  02:03:00      308.433       -5.389     -140.285      898.015       26.796      427.953   806430.372      718.040   183143.474       55.236       49.515      308.480      619.565        4.034      331.800        0.077      863.846
01/21/2021  02:04:00      205.630      -18.717      -96.005      736.406       17.940      347.489   542293.894      321.838   120748.616       35.747       33.168      206.480      505.021        5.982      331.446       -0.514      863.857
01/21/2021  02:05:00      186.304      -38.228     -120.099      768.068       29.622      367.232   589927.715      877.486   134859.542       38.798       36.283      190.186      530.651        7.785      331.417       -0.561      863.856
01/21/2021  02:06:00       40.990      -39.214      -32.625      380.252       32.781      183.973   144591.389     1074.621    33846.167        9.186        8.976       56.727      262.780       21.459      330.732       -1.702      863.840
01/21/2021  02:07:00       88.017      -36.417      -62.699      508.375       19.381      242.622   258444.807      375.608    58865.209       16.528       15.884       95.253      350.768       13.561      330.872       -1.468      863.827
01/21/2021  02:08:00      148.449      -25.933      -84.572      679.312       20.536      324.434   461464.393      421.736   105257.304       29.838       28.357      150.697      468.982        9.685      331.238       -0.860      863.821
01/21/2021  02:09:00       43.117       -9.192      -32.508      417.702       21.491      200.275   174475.050      461.847    40110.195       10.898       10.752       44.086      288.669       42.874      330.875       -1.466      863.819
01/21/2021  02:10:00      211.281       -2.160     -114.062      781.945       19.826      370.033   611437.569      393.069   136924.442       40.304       37.438      211.292      537.550        6.472      331.475       -0.465      863.830
01/21/2021  02:11:00      119.127        6.714      -73.950      650.024       17.860      311.557   422531.493      318.970    97067.647       26.970       25.996      119.316      449.626       14.201      331.121       -1.052      863.846
01/21/2021  02:12:00       59.718        5.784      -38.555      487.417       17.165      232.934   237575.440      294.634    54258.146       14.854       14.606       59.998      336.308       31.420      330.865       -1.480      863.865
01/21/2021  02:13:00      149.544        3.990      -70.276      612.270       13.723      290.475   374874.888      188.312    84375.447       24.328       22.972      149.597      421.444        7.937      331.052       -1.169      863.863
01/21/2021  02:14:00      114.312       14.857      -59.976      570.291       11.005      271.052   325231.290      121.102    73469.061       20.777       19.941      115.273      393.010       11.624      331.102       -1.090      863.851
01/21/2021  02:15:00      173.905       29.307      -77.569      690.356       18.830      330.439   476590.854      354.584   109189.875       31.150       29.307      176.357      477.198        7.322      331.339       -0.695      863.846
01/21/2021  02:16:00       62.473       -5.074      -36.099      458.415       18.367      216.909   210144.144      337.339    47049.728       13.133       12.877       62.679      314.220       25.132      330.926       -1.382      863.838
01/21/2021  02:17:00       49.219       -2.271      -40.390      472.196      113.735      230.887   222968.594    12935.691    53308.864       14.657       14.461       49.271      315.551       41.017      330.925       -1.382      863.836
01/21/2021  02:18:00       55.681        5.569      -53.767      572.163       27.566      274.043   327370.259      759.857    75099.343       20.454       20.161       55.959      394.806       49.776      331.036       -1.196      863.834
01/21/2021  02:19:00       34.733       34.690      -57.167      559.214       20.835      265.484   312720.771      434.080    70482.008       19.458       19.182       49.089      384.754       61.431      330.957       -1.325      863.843
01/21/2021  02:20:00      -57.914       27.655      -27.337      363.056       27.585      173.511   131809.860      760.954    30106.033        8.374        8.134       64.178      249.502       15.114      330.610       -1.902      863.857
01/21/2021  02:21:00      -72.770       23.760      -20.578      277.584       33.311      133.794    77052.884     1109.633    17900.826        5.115        4.803       76.551      190.025        6.162      330.493       -2.096      863.875
01/21/2021  02:22:00       31.150        5.927      -40.571      486.213       28.563      230.275   236403.163      815.840    53026.792       14.639       14.512       31.709      331.867      109.535      330.667       -1.805      863.898
01/21/2021  02:23:00       11.536       19.092      -40.556      449.047       22.694      215.598   201643.108      515.001    46482.561       12.534       12.432       22.307      309.789      192.867      330.523       -2.043      863.914
01/21/2021  02:24:00       70.187        8.045      -56.388      570.288       19.525      275.205   325228.394      381.216    75737.690       20.467       20.067       70.647      395.294       31.308      330.805       -1.575      863.917
01/21/2021  02:25:00       50.674       -5.736      -52.631      531.070       24.661      252.186   282035.498      608.163    63597.913       17.573       17.312       50.998      364.674       51.134      330.735       -1.692      863.924
01/21/2021  02:26:00       56.665       19.354      -61.866      581.713       22.214      277.578   338390.333      493.470    77049.577       21.158       20.797       59.879      401.260       44.906      330.788       -1.603      863.916
01/21/2021  02:27:00       44.063       21.979      -54.864      549.301       13.867      262.527   301731.728      192.307    68920.639       18.806       18.542       49.240      379.277       59.330      330.825       -1.543      863.907
01/21/2021  02:28:00      141.898        1.743      -76.608      654.287       12.497      313.704   428091.361      156.177    98410.125       27.622       26.333      141.909      452.638       10.174      331.021       -1.216      863.906
01/21/2021  02:29:00       83.677       16.392      -48.388      522.251       11.995      249.006   272746.286      143.889    62004.148       17.218       16.745       85.267      360.414       17.867      330.854       -1.498      863.916
01/21/2021  02:30:00      164.542       16.402     -100.599      717.389       11.819      342.245   514647.301      139.694   117131.850       33.456       31.596      165.357      495.296        8.972      331.240       -0.854      863.920
01/21/2021  02:31:00       87.031       25.534      -55.184      503.602       11.863      241.752   253615.159      140.738    58444.222       16.167       15.610       90.699      348.653       14.777      330.958       -1.328      863.934
01/21/2021  02:32:00      155.141       26.083      -81.889      684.458       11.683      326.249   468482.591      136.485   106438.447       30.313       28.753      157.319      472.330        9.014      331.299       -0.760      863.944
01/21/2021  02:33:00        4.287       26.489      -25.279      347.221       15.460      166.412   120562.201      239.005    27692.797        7.489        7.425       26.834      239.887       79.920      330.772       -1.638      863.951
01/21/2021  02:34:00       -5.339       21.281      -23.007      368.720       16.848      176.016   135954.266      283.840    30981.585        8.408        8.361       21.941      254.130      134.157      330.913       -1.405      863.947
01/21/2021  02:35:00       92.150       -9.438      -55.989      539.263       17.756      258.183   290804.948      315.283    66658.451       18.467       17.889       92.632      372.721       16.190      331.056       -1.165      863.937
01/21/2021  02:36:00      187.499       -4.567      -99.497      735.713       11.391      353.264   541273.251      129.765   124795.188       35.550       33.310      187.555      509.367        7.376      331.287       -0.776      863.921
01/21/2021  02:37:00      215.584       -2.541     -124.278      788.271        9.486      376.444   621371.815       89.979   141709.917       41.239       38.159      215.599      544.586        6.380      331.242       -0.847      863.905
01/21/2021  02:38:00       80.959      -10.751      -43.185      472.395       17.891      224.613   223156.629      320.101    50450.935       14.117       13.696       81.669      325.387       15.874      330.825       -1.546      863.888
01/21/2021  02:39:00       59.688       -3.667      -42.501      476.955       20.610      228.541   227485.751      424.756    52231.161       14.270       14.007       59.801      329.553       30.369      331.011       -1.242      863.863
01/21/2021  02:40:00       91.397        4.188      -68.085      596.732       20.243      284.666   356089.428      409.764    81034.516       22.518       21.877       91.493      411.560       20.235      330.982       -1.284      863.856
01/21/2021  02:41:00       -9.640       23.693      -39.969      455.035       25.272      217.003   207056.989      638.655    47090.165       12.846       12.739       25.579      313.134      149.865      330.638       -1.854      863.862
01/21/2021  02:42:00       27.261       27.924      -69.637      587.250       26.623      278.068   344862.015      708.792    77321.693       21.454       21.145       39.024      402.868      106.575      330.710       -1.731      863.881
01/21/2021  02:43:00       38.476       -0.042      -55.478      516.579       28.717      244.885   266853.455      824.659    59968.505       16.603       16.382       38.476      354.133       84.711      330.612       -1.894      863.884
01/21/2021  02:44:00      118.974        1.328      -87.609      675.747       25.576      321.500   456633.840      654.141   103362.387       29.112       28.033      118.981      464.980       15.273      330.873       -1.461      863.890
01/21/2021  02:45:00      102.466       -1.002      -69.213      604.139       23.613      286.065   364984.093      557.565    81833.174       23.124       22.369      102.471      412.807       16.229      330.704       -1.740      863.878
01/21/2021  02:46:00       92.154        6.015      -71.912      682.369       36.312      325.520   465627.476     1318.573   105963.570       29.318       28.645       92.350      469.138       25.806      330.748       -1.665      863.872
01/21/2021  02:47:00      186.604      -17.693      -93.054      705.040       19.320      335.789   497081.150      373.262   112754.163       32.687       30.510      187.441      486.161        6.727      330.877       -1.451      863.856
01/21/2021  02:48:00      196.327       -2.912      -89.921      687.318       16.985      327.958   472406.387      288.499   107556.747       31.333       29.013      196.348      474.436        5.838      331.088       -1.109      863.834
01/21/2021  02:49:00      290.113      -17.281     -136.209      841.075       17.174      402.814   707407.525      294.957   162259.316       48.631       43.498      290.627      581.674        4.006      331.391       -0.600      863.821
01/21/2021  02:50:00      221.777      -10.679     -112.069      736.786       20.081      351.108   542853.787      403.245   123276.910       36.405       33.327      222.034      508.445        5.244      331.016       -1.222      863.811
01/21/2021  02:51:00      112.735       15.692      -65.436      597.156       15.177      285.941   356594.769      230.353    81762.487       22.782       21.929      113.822      412.877       13.158      330.654       -1.823      863.792
01/21/2021  02:52:00        2.532       13.762      -36.321      399.321       16.160      191.558   159457.639      261.144    36694.515        9.892        9.821       13.993      276.029      389.101      330.365       -2.303      863.790
01/21/2021  02:53:00       57.398        4.526      -49.175      499.795       21.050      237.266   249795.022      443.096    56295.005       15.607       15.327       57.576      343.684       35.632      330.447       -2.166      863.787
01/21/2021  02:54:00      136.904      -12.213      -68.244      651.259       29.609      314.894   424137.909      876.719    99158.439       27.375       26.209      137.448      451.525       10.792      330.664       -1.803      863.785
01/21/2021  02:55:00        8.347      -22.159      -40.895      413.909       24.413      201.781   171320.998      596.007    40715.682       10.739       10.632       23.679      286.765      146.662      330.278       -2.445      863.786
01/21/2021  02:56:00        6.007       36.943      -48.379      481.592       20.144      230.495   231930.872      405.795    53128.168       14.454       14.273       37.429      332.540       78.937      330.447       -2.166      863.772
01/21/2021  02:57:00        7.647       10.380      -53.453      559.740       17.900      266.703   313308.932      320.397    71130.598       19.381       19.238       12.893      385.787      895.368      330.646       -1.837      863.759
01/21/2021  02:58:00       -1.388       -1.843      -41.280      490.197       22.643      236.285   240293.142      512.697    55830.769       14.911       14.832        2.307      339.070    21593.503      330.621       -1.879      863.752
01/21/2021  02:59:00       48.486        5.095      -53.184      564.955       21.608      268.801   319174.296      466.903    72253.761       19.847       19.595       48.753      388.766       63.588      330.662       -1.810      863.735
01/21/2021  03:00:00       81.778       25.240      -72.721      643.839       22.300      307.738   414528.432      497.291    94702.620       26.106       25.486       85.585      444.487       26.973      330.774       -1.623      863.708
01/21/2021  03:01:00       33.340       12.259      -59.847      560.275       18.119      264.615   313908.254      328.305    70021.083       19.447       19.213       35.522      384.183      116.972      330.703       -1.744      863.690
01/21/2021  03:02:00       25.360        9.014      -59.663      571.821       20.257      270.870   326979.549      410.345    73370.553       20.244       20.038       26.915      392.840      213.035      330.691       -1.764      863.683
01/21/2021  03:03:00       73.089       -9.634      -71.590      573.112       22.644      274.094   328457.564      512.762    75127.728       20.724       20.205       73.721      395.445       28.773      330.660       -1.815      863.685
01/21/2021  03:04:00       52.778      -18.629      -33.466      416.122       19.275      198.195   173157.358      371.509    39281.373       10.849       10.641       55.969      286.600       26.221      330.432       -2.194      863.690
01/21/2021  03:05:00      114.834        2.645      -49.147      556.980       29.964      266.484   310227.049      897.815    71013.859       19.879       19.107      114.864      384.476       11.204      330.552       -1.992      863.685
01/21/2021  03:06:00        2.526       19.076      -63.011      523.003       34.376      245.378   273532.566     1181.733    60210.354       16.956       16.746       19.243      356.519      343.261      330.496       -2.085      863.675
01/21/2021  03:07:00      112.965       15.621     -102.516      721.214       25.943      343.480   520149.373      673.032   117978.580       33.102       31.940      114.040      497.066       18.998      330.821       -1.544      863.659
01/21/2021  03:08:00      143.101        2.092      -85.653      686.516       16.745      327.774   471304.823      280.402   107436.038       30.330       28.951      143.117      474.035       10.971      330.798       -1.581      863.634
01/21/2021  03:09:00       97.468       17.177      -57.230      537.311       14.566      257.323   288702.584      212.160    66214.903       18.402       17.756       98.970      371.598       14.097      330.866       -1.477      863.623
01/21/2021  03:10:00      153.628      -10.413      -79.194      635.365       13.675      302.350   403688.926      186.996    91415.796       26.253       24.765      153.980      437.987        8.091      330.878       -1.453      863.616
01/21/2021  03:11:00      160.496      -23.247      -84.942      661.101       17.834      315.749   437054.215      318.055    99697.371       28.518       26.853      162.170      456.258        7.915      330.839       -1.516      863.604
01/21/2021  03:12:00      270.900      -14.883     -137.707      830.638       12.857      396.406   689959.414      165.292   157137.432       46.974       42.363      271.309      573.496        4.468      331.230       -0.865      863.587
01/21/2021  03:13:00      166.206      -17.341      -91.047      660.948       15.509      315.997   436852.692      240.534    99853.954       28.647       26.847      167.108      456.665        7.468      330.879       -1.451      863.573
01/21/2021  03:14:00      147.415      -17.664      -81.905      670.217       11.587      320.062   449190.645      134.266   102439.524       29.014       27.588      148.470      462.823        9.717      330.905       -1.407      863.555
01/21/2021  03:15:00      238.210       11.253     -110.513      823.543       11.396      391.000   678223.619      129.869   152881.365       44.998       41.562      238.476      567.123        5.655      331.029       -1.196      863.539
01/21/2021  03:16:00       58.221       10.596      -59.734      537.935        9.822      255.850   289374.094       96.470    65459.464       18.092       17.747       59.178      370.703       39.241      330.609       -1.899      863.533
01/21/2021  03:17:00       52.537       17.238      -62.910      559.020       11.264      265.411   312502.819      126.878    70443.164       19.496       19.154       55.292      384.818       48.437      330.656       -1.822      863.534
01/21/2021  03:18:00       65.643        6.428      -85.967      676.526       17.542      323.918   457687.037      307.716   104922.670       28.721       28.146       65.957      467.590       50.258      330.677       -1.781      863.533
01/21/2021  03:19:00       46.392       18.688      -64.549      556.434        9.672      266.243   309619.264       93.553    70885.413       19.355       19.030       50.014      384.533       59.112      330.429       -2.195      863.525
01/21/2021  03:20:00      120.944       18.835      -68.136      601.253        9.499      286.664   361505.503       90.238    82176.134       23.160       22.189      122.402      414.964       11.493      330.741       -1.681      863.523
01/21/2021  03:21:00       79.421        9.704      -59.183      554.052       11.368      264.169   306973.746      129.232    69785.364       19.332       18.844       80.011      382.274       22.827      330.949       -1.339      863.531
01/21/2021  03:22:00       74.667      -10.931      -41.384      478.820       19.007      225.775   229268.447      361.276    50974.574       14.395       14.030       75.463      327.966       18.888      330.487       -2.100      863.542
01/21/2021  03:23:00      175.884        4.497      -78.096      691.484       21.736      329.451   478149.898      472.450   108537.964       31.198       29.358      175.941      476.616        7.338      330.716       -1.718      863.553
01/21/2021  03:24:00      159.835        4.319      -99.966      700.270      158.619      339.690   490377.495    25160.066   115389.209       33.311       31.546      159.893      469.041        8.605      330.759       -1.645      863.554
01/21/2021  03:25:00       58.578       17.494      -50.006      445.298        7.883      213.260   198290.531       62.135    45479.624       12.498       12.192       61.134      307.975       25.378      330.423       -2.207      863.535
01/21/2021  03:26:00       70.895        9.457      -47.336      488.087       18.561      233.718   238229.275      344.524    54623.913       15.022       14.660       71.523      337.311       22.242      330.399       -2.246      863.519
01/21/2021  03:27:00       24.570       11.431      -37.550      442.692       15.792      212.870   195976.479      249.381    45313.707       12.179       12.077       27.098      306.314      127.774      330.183       -2.599      863.507
01/21/2021  03:28:00       83.165       18.097      -81.899      605.648       18.778      288.234   366809.548      352.598    83078.591       23.200       22.512       85.111      417.137       24.021      330.484       -2.102      863.497
01/21/2021  03:29:00       57.175       34.380      -68.819      574.758       11.994      274.287   330346.879      143.853    75233.429       20.737       20.286       66.716      396.499       35.321      330.384       -2.266      863.477
01/21/2021  03:30:00       70.151       18.414      -68.658      583.130       18.572      279.570   340040.893      344.928    78159.213       21.417       20.927       72.527      403.375       30.933      330.543       -2.004      863.454
01/21/2021  03:31:00      133.358        4.294     -103.442      677.437      133.682      327.043   458920.276    17870.945   106957.228       30.600       29.187      133.427      456.940       11.728      330.773       -1.624      863.431
01/21/2021  03:32:00      161.009       15.908     -110.630      752.332        9.935      358.722   566003.424       98.707   128681.161       36.645       34.739      161.793      519.158       10.296      330.870       -1.462      863.410
01/21/2021  03:33:00      113.598       17.876      -72.436      614.831       14.115      293.312   378017.685      199.230    86031.749       24.126       23.212      114.996      424.439       13.623      330.802       -1.579      863.389
01/21/2021  03:34:00      176.359       -1.957     -101.448      738.248       18.805      352.435   545009.719      353.617   124210.584       35.534       33.479      176.370      509.694        8.352      330.899       -1.414      863.386
01/21/2021  03:35:00       90.107        0.010      -56.059      550.568       11.177      262.776   303124.745      124.917    69051.281       19.170       18.615       90.107      380.069       17.791      330.485       -2.103      863.379
01/21/2021  03:36:00      246.545        1.162     -133.124      828.163       14.992      396.533   685854.214      224.764   157238.812       46.074       42.166      246.548      572.844        5.398      331.082       -1.109      863.375
01/21/2021  03:37:00      170.747        2.931     -108.060      756.679       21.861      360.791   572562.667      477.882   130170.367       37.188       35.161      170.773      522.297        9.354      330.946       -1.335      863.376
01/21/2021  03:38:00      122.405        7.054      -74.826      624.137       19.681      297.767   389547.374      387.356    88665.115       24.951       23.930      122.608      430.517       12.329      330.553       -1.987      863.387
01/21/2021  03:39:00       48.019       -1.292      -59.432      516.714       20.449      245.767   266993.490      418.162    60401.255       16.676       16.391       48.036      355.604       54.803      330.217       -2.543      863.392
01/21/2021  03:40:00      188.010       11.363     -136.490      778.940       17.570      371.883   606747.882      308.696   138296.598       39.957       37.268      188.353      537.842        8.154      330.669       -1.790      863.385
01/21/2021  03:41:00       74.353       -2.487      -56.484      527.402       17.245      250.661   278153.018      297.397    62830.698       17.493       17.064       74.395      362.862       23.790      330.276       -2.446      863.369
01/21/2021  03:42:00      131.415       -4.942      -82.004      671.199       31.067      320.822   450507.641      965.186   102926.498       28.909       27.720      131.508      462.552       12.371      330.408       -2.223      863.351
01/21/2021  03:43:00      100.932       20.540     -112.602      780.511      139.697      377.683   609198.173    19515.241   142644.200       39.716       38.568      103.000      530.166       26.494      330.583       -1.930      863.328
01/21/2021  03:44:00       76.268       -6.956      -82.230      661.349       14.620      314.082   437382.797      213.734    98647.440       27.432       26.812       76.585      455.314       35.346      330.483       -2.100      863.309
01/21/2021  03:45:00       95.426        8.118      -99.713      690.331       14.017      329.651   476556.924      196.477   108669.587       30.215       29.271       95.771      476.694       24.775      330.575       -1.947      863.293
01/21/2021  03:46:00      -32.936        6.197      -41.717      388.498       15.088      185.626   150930.339      227.652    34456.840        9.420        9.281       33.514      267.741       63.822      330.252       -2.489      863.278
01/21/2021  03:47:00      163.846        5.971      -88.913      728.905       18.841      345.311   531302.293      354.990   119239.481       34.270       32.545      163.955      500.948        9.335      330.669       -1.791      863.258
01/21/2021  03:48:00      112.150      -11.501      -67.079      617.786       28.097      294.841   381659.443      789.458    86931.340       24.320       23.469      112.738      425.112       14.219      330.574       -1.953      863.252
01/21/2021  03:49:00      158.777       -1.989      -87.664      734.736       25.421      347.689   539836.383      646.207   120887.296       34.699       33.068      158.790      504.127       10.079      330.672       -1.788      863.251
01/21/2021  03:50:00      229.090       -7.353     -125.479      808.633       17.882      385.101   653887.303      319.783   148302.919       43.522       40.126      229.208      557.411        5.914      331.006       -1.236      863.253
01/21/2021  03:51:00       11.559        0.079      -43.592      522.935       23.626      249.657   273460.999      558.192    62328.368       16.912       16.817       11.559      359.844      969.171      330.525       -2.038      863.252
01/21/2021  03:52:00       66.042       -1.106      -39.945      497.107       22.506      233.794   247115.132      506.513    54659.408       15.405       15.114       66.051      339.287       26.386      330.513       -2.057      863.253
01/21/2021  03:53:00       19.847       12.241      -35.086      449.136       17.829      211.941   201722.744      317.874    44918.928       12.432       12.348       23.318      307.686      174.109      330.297       -2.415      863.252
01/21/2021  03:54:00      160.382       19.678      -96.628      715.330       15.862      341.121   511697.706      251.587   116363.288       33.175       31.416      161.585      493.649        9.333      330.806       -1.570      863.236
01/21/2021  03:55:00      138.688       -7.829      -69.619      622.219       15.968      293.444   387156.647      254.971    86109.331       24.873       23.676      138.909      426.627        9.433      330.774       -1.626      863.229
01/21/2021  03:56:00      222.642        5.544     -106.411      750.297       25.140      358.120   562945.986      632.025   128250.207       37.623       34.591      222.711      517.933        5.408      330.953       -1.326      863.220
01/21/2021  03:57:00      143.434       -4.002      -76.400      675.702       23.328      324.811   456572.857      544.195   105502.480       29.440       28.131      143.489      467.667       10.623      330.648       -1.829      863.214
01/21/2021  03:58:00      220.268       -2.467     -119.068      792.229       23.642      379.519   627626.419      558.953   144034.623       41.729       38.611      220.282      547.633        6.180      330.848       -1.494      863.211
01/21/2021  03:59:00      164.832        0.233      -90.796      702.651       14.882      334.671   493718.124      221.469   112004.625       32.055       30.297      164.832      484.489        8.639      330.629       -1.859      863.203
01/21/2021  04:00:00       22.440       -9.081      -31.274      338.703       97.860      167.007   114719.403     9576.580    27891.479        7.684        7.609       24.207      222.997       84.859      330.347       -2.334      863.185
01/21/2021  04:01:00      208.395        3.019     -118.932      779.846       22.397      376.281   608160.007      501.639   141587.705       40.376       37.512      208.417      541.106        6.741      331.004       -1.237      863.179
01/21/2021  04:02:00       64.715       20.455      -85.604      656.939       12.348      314.135   431568.968      152.468    98680.947       27.105       26.520       67.871      453.847       44.715      330.671       -1.791      863.181
01/21/2021  04:03:00       25.992       24.926      -66.815      599.432       15.291      285.914   359318.553      233.807    81746.783       22.343       22.065       36.013      413.654      131.937      330.566       -1.968      863.176
01/21/2021  04:04:00      109.809       17.204      -94.151      705.076       17.093      335.722   497131.671      292.182   112709.564       31.555       30.507      111.148      486.054       19.123      330.786       -1.602      863.178
01/21/2021  04:05:00       79.714       23.192      -81.068      612.009       10.619      291.796   374555.269      112.770    85145.170       23.654       22.991       83.019      422.303       25.876      330.624       -1.872      863.173
01/21/2021  04:06:00       85.652       19.710      -81.562      696.952       15.133      333.571   485741.511      229.017   111269.745       30.568       29.862       87.891      481.877       30.060      330.765       -1.636      863.165
01/21/2021  04:07:00       69.203       16.258      -70.405      561.800       17.354      266.881   315619.295      301.153    71225.375       19.850       19.357       71.087      386.753       29.599      330.545       -2.005      863.156
01/21/2021  04:08:00      236.553        0.068     -112.142      769.011       16.917      366.935   591377.736      286.173   134641.385       39.727       36.315      236.553      530.834        5.036      330.816       -1.550      863.158
01/21/2021  04:09:00       98.045       -1.756      -78.596      679.064      115.733      325.269   461127.916    13394.186   105800.174       29.794       29.016       98.061      459.792       21.985      330.524       -2.032      863.164
01/21/2021  04:10:00       72.852        8.703      -85.049      653.060       10.732      311.525   426487.839      115.184    97047.838       26.802       26.183       73.370      450.791       37.750      330.475       -2.115      863.172
01/21/2021  04:11:00      115.565        4.180      -78.521      654.909       16.078      313.576   428905.230      258.501    98330.078       27.340       26.375      115.641      452.220       15.292      330.472       -2.119      863.169
01/21/2021  04:12:00       16.377       22.439      -71.356      599.938       18.620      285.374   359926.107      346.686    81438.202       22.369       22.086       27.780      413.500      221.556      330.291       -2.419      863.165
01/21/2021  04:13:00       23.598       25.232      -55.153      531.269      100.589      254.960   282246.394    10118.172    65004.580       18.073       17.868       34.547      357.432      107.044      330.165       -2.627      863.147
01/21/2021  04:14:00       19.935       43.222      -78.461      635.447       25.934      305.263   403793.082      672.594    93185.208       25.293       24.883       47.598      439.469       85.247      330.268       -2.454      863.129
01/21/2021  04:15:00       21.466       46.050      -75.667      628.687       25.680      301.766   395247.489      659.445    91062.870       24.753       24.348       50.807      434.071       72.991      330.196       -2.573      863.120
01/21/2021  04:16:00       88.974       26.708      -96.868      707.402       26.726      339.620   500418.224      714.261   115341.699       31.711       30.824       92.896      489.247       27.737      330.395       -2.242      863.120
01/21/2021  04:17:00      119.924       27.126     -111.998      734.591      102.186      351.655   539624.264    10441.996   123661.190       35.055       33.686      122.953      500.504       16.570      330.415       -2.209      863.129
01/21/2021  04:18:00        6.536       17.624      -73.720      587.683       20.655      279.850   345371.888      426.642    78315.935       21.486       21.206       18.797      405.023      464.301      330.111       -2.713      863.136
01/21/2021  04:19:00      170.371       -3.831     -132.855      802.502       23.800      384.622   644008.856      566.445   147933.962       41.943       39.625      170.414      554.377       10.583      330.609       -1.888      863.140
01/21/2021  04:20:00       88.437        4.203     -101.725      705.812       16.918      337.459   498170.575      286.226   113878.353       31.513       30.617       88.536      487.586       30.329      330.360       -2.301      863.134
01/21/2021  04:21:00       71.618        6.019      -87.638      652.084       19.861      310.160   425213.452      394.457    96199.320       26.721       26.090       71.871      448.931       39.017      330.303       -2.398      863.120
01/21/2021  04:22:00       46.055       19.176      -83.404      618.146       16.869      294.277   382103.874      284.556    86598.751       23.912       23.449       49.887      425.974       72.910      330.167       -2.621      863.090
01/21/2021  04:23:00       76.302       19.978      -75.861      622.090       21.151      296.717   386995.859      447.356    88040.753       24.363       23.774       78.874      429.196       29.610      330.182       -2.596      863.070
01/21/2021  04:24:00      156.612        0.972     -112.815      728.173      117.245      371.683   530236.645    13746.465   138148.564       35.955       34.107      156.615      512.458       10.707      330.513       -2.047      863.065
01/21/2021  04:25:00      154.824      -23.915     -103.265      719.890       34.709      342.797   518242.182     1204.688   117509.523       33.595       31.848      156.660      495.790       10.016      330.409       -2.218      863.067
01/21/2021  04:26:00      200.635        6.981     -134.259      806.282       29.125      385.882   650090.573      848.250   148904.941       42.892       39.992      200.756      557.357        7.708      330.507       -2.055      863.068
01/21/2021  04:27:00      247.407        4.971     -122.648      788.906       12.368      377.178   622372.472      152.971   142262.940       42.037       38.239      247.457      545.271        4.855      330.533       -2.012      863.068
01/21/2021  04:28:00      220.786        8.651     -102.573      725.641        8.224      346.864   526554.925       67.630   120314.655       35.301       32.347      220.955      501.437        5.150      330.690       -1.757      863.079
01/21/2021  04:29:00      289.829        3.779     -153.212      836.008       13.819      399.007   698908.672      190.975   159206.671       48.272       42.915      289.854      577.313        3.967      330.877       -1.446      863.092
01/21/2021  04:30:00      235.232       12.025     -146.220      868.822       12.944      413.366   754851.576      167.558   170871.820       50.118       46.295      235.539      598.950        6.466      330.752       -1.648      863.107
01/21/2021  04:31:00      144.454        6.038     -129.404      768.244       18.780      366.065   590199.122      352.675   134003.257       38.095       36.228      144.580      529.983       13.437      330.408       -2.219      863.117
01/21/2021  04:32:00      403.733        0.004     -231.517     1058.568       30.050      506.698  1120566.619      902.977   256742.919       79.712       68.911      403.733      731.573        3.283      331.208       -0.888      863.128
01/21/2021  04:33:00      259.105        9.799     -135.658      841.333       42.581      399.316   707841.223     1813.113   159453.370       47.719       43.455      259.290      578.832        4.983      330.530       -2.013      863.130
01/21/2021  04:34:00      322.509       12.921     -187.399      953.000       24.649      450.829   908208.179      607.575   203247.122       62.545       55.603      322.768      654.844        4.116      330.936       -1.341      863.135
01/21/2021  04:35:00      160.753        3.173      -89.879      687.200       15.192      329.355   472243.974      230.803   108474.512       30.732       29.047      160.784      475.411        8.743      330.235       -2.507      863.127
01/21/2021  04:36:00      312.148       -9.568     -161.191      901.981       18.448      431.586   813570.035      340.319   186266.759       56.163       50.009      312.295      623.583        3.987      330.713       -1.709      863.121
01/21/2021  04:37:00      288.902       -5.625     -175.632      861.425       19.560      414.955   742053.511      382.596   172187.531       51.429       45.731      288.956      597.150        4.271      330.870       -1.454      863.101
01/21/2021  04:38:00      187.767        8.340     -131.814      764.713       19.474      363.594   584785.786      379.247   132200.882       38.488       35.868      187.952      526.834        7.857      330.743       -1.669      863.068
01/21/2021  04:39:00      247.253       13.710     -158.879      895.872       28.445      421.243   802586.516      809.132   177446.062       53.350       49.042      247.632      612.846        6.125      330.750       -1.649      863.033
01/21/2021  04:40:00      150.474       12.757     -119.316      756.186       18.464      362.496   571817.866      340.933   131403.446       37.015       35.178      151.014      522.758       11.983      330.447       -2.156      863.007
01/21/2021  04:41:00      217.052        3.226     -135.001      813.595       12.465      387.303   661936.292      155.376   150003.768       43.855       40.605      217.076      561.015        6.679      330.841       -1.506      862.988
01/21/2021  04:42:00      174.404      -11.070      -84.357      675.428        9.583      321.365   456203.621       91.834   103275.210       29.849       27.979      174.755      465.503        7.096      330.619       -1.876      862.965
01/21/2021  04:43:00      284.018       -6.199     -151.044      823.256       86.400      392.643   677750.763     7464.943   154168.555       47.128       41.969      284.086      563.528        3.935      331.211       -0.899      862.936
01/21/2021  04:44:00       48.462       -2.128      -48.421      447.194       10.076      213.525   199982.537      101.532    45592.754       12.514       12.284       48.508      308.791       40.522      330.442       -2.177      862.910
01/21/2021  04:45:00      171.688       -4.683      -90.555      741.633        7.743      353.479   550019.893       59.949   124947.211       35.622       33.751      171.752      511.592        8.872      330.827       -1.533      862.873
01/21/2021  04:46:00      327.441       -4.179     -162.754      931.968       17.718      443.149   868564.698      313.926   196380.862       59.927       53.263      327.467      642.266        3.847      331.311       -0.727      862.828
01/21/2021  04:47:00      273.831      -10.578     -131.504      800.912        8.422      382.976   641460.718       70.923   146670.290       44.013       39.410      274.035      553.638        4.082      331.094       -1.092      862.805
01/21/2021  04:48:00      327.897      -12.285     -168.322      937.801       12.693      447.145   879470.716      161.101   199938.525       60.755       53.979      328.127      647.318        3.892      331.291       -0.758      862.784
01/21/2021  04:49:00      273.751        8.040     -132.805      847.254      112.041      409.576   717838.948    12553.097   167752.721       49.520       44.907      273.869      581.291        4.505      331.018       -1.213      862.765
01/21/2021  04:50:00      244.709       -7.639     -126.981      814.339       11.063      386.863   663147.575      122.385   149662.946       44.433       40.647      244.828      560.958        5.250      330.878       -1.445      862.736
01/21/2021  04:51:00      238.789      -11.945     -141.266      853.551       22.148      408.416   728549.777      490.548   166803.282       48.629       44.792      239.088      589.499        6.079      331.063       -1.138      862.710
01/21/2021  04:52:00      205.072       -8.156     -104.113      752.196        8.538      357.130   565799.435       72.897   127541.765       37.304       34.671      205.234      517.969        6.370      330.773       -1.621      862.696
01/21/2021  04:53:00      260.264      -12.277     -127.716      816.939       11.903      390.355   667388.573      141.674   152377.258       45.188       40.995      260.553      564.457        4.693      331.052       -1.159      862.691
01/21/2021  04:54:00      307.203       -2.484     -163.245      899.413       14.283      429.853   808943.162      203.999   184773.860       55.727       49.696      307.213      621.550        4.093      331.317       -0.719      862.697
01/21/2021  04:55:00      147.199       -3.769      -94.820      694.203       18.996      331.996   481918.373      360.833   110221.292       31.146       29.625      147.247      479.793       10.617      330.609       -1.891      862.708
01/21/2021  04:56:00      151.549       13.889     -102.204      740.630       20.954      354.700   548533.483      439.087   125812.429       35.405       33.739      152.184      512.040       11.321      330.640       -1.839      862.717
01/21/2021  04:57:00       96.352       30.634      -77.089      666.307       15.897      318.795   443965.627      252.713   101630.497       28.089       27.292      101.105      460.377       20.734      330.347       -2.323      862.716
01/21/2021  04:58:00      190.852       36.740     -113.504      761.517       13.375      362.226   579908.392      178.889   131207.364       38.083       35.565      194.356      524.971        7.296      330.566       -1.959      862.706
01/21/2021  04:59:00      189.283       34.654     -115.079      777.914       21.114      373.028   605150.774      445.787   139150.140       39.735       37.237      192.429      538.281        7.825      330.656       -1.809      862.710
01/21/2021  05:00:00       93.334       24.817      -81.615      635.096       21.320      300.749   403346.486      454.548    90450.126       25.501       24.713       96.577      436.212       20.401      330.362       -2.299      862.717
01/21/2021  05:01:00       59.199       25.628      -63.012      554.476       14.705      264.208   307443.410      216.244    69805.898       19.272       18.873       64.509      382.294       35.120      330.219       -2.538      862.747
01/21/2021  05:02:00      221.817       21.047     -142.432      846.926       17.430      405.743   717283.765      303.809   164627.735       47.589       44.111      222.814      585.623        6.908      330.675       -1.776      862.777
01/21/2021  05:03:00      154.303       54.283     -130.893      788.101      113.527      376.078   621102.557    12888.479   141434.578       40.950       38.771      163.572      535.917       10.734      330.466       -2.124      862.792
01/21/2021  05:04:00      100.401       38.891     -104.125      720.480      108.199      343.506   519091.133    11706.959   117996.149       33.548       32.440      107.671      488.754       20.606      330.240       -2.495      862.798
01/21/2021  05:05:00       85.675        8.070      -68.169      617.527       27.468      293.095   381339.719      754.501    85904.939       23.993       23.400       86.055      424.350       24.316      330.121       -2.696      862.800
01/21/2021  05:06:00      144.546      -13.771      -81.181      624.239       25.870      295.237   389674.242      669.247    87165.030       25.249       23.875      145.200      428.347        8.703      330.205       -2.559      862.800
01/21/2021  05:07:00      190.795      -15.867      -96.635      695.775       30.457      334.382   484102.699      927.650   111811.056       32.129       29.842      191.454      481.794        6.333      330.259       -2.466      862.808
01/21/2021  05:08:00      300.179      -12.619     -164.901      863.394      158.945      441.406   745448.975    25263.479   194839.417       54.130       48.278      300.445      603.640        4.037      330.651       -1.811      862.820
01/21/2021  05:09:00      295.007        8.912     -151.348      886.073       30.004      424.891   785125.079      900.258   180532.198       53.809       48.328      295.141      613.047        4.314      330.491       -2.075      862.829
01/21/2021  05:10:00       37.521       45.591      -78.966      603.536       23.890      288.497   364255.723      570.750    83230.425       22.880       22.403       59.046      415.940       49.623      329.912       -3.039      862.831
01/21/2021  05:11:00      269.612       34.074     -161.000      910.041        9.719      435.728   828174.652       94.457   189858.499       55.873       50.906      271.756      629.330        5.363      330.839       -1.503      862.808
01/21/2021  05:12:00      205.330        3.430     -129.634      798.209       30.626      379.476   637137.344      937.962   144001.956       42.036       39.104      205.358      549.633        7.163      330.622       -1.866      862.794
01/21/2021  05:13:00      183.599       24.499     -134.058      793.218       23.335      376.992   629194.855      544.513   142123.295       41.191       38.593      185.227      545.714        8.680      330.435       -2.172      862.781
01/21/2021  05:14:00      205.232        9.417     -102.566      681.135        6.414      324.901   463945.291       41.143   105560.579       31.102       28.477      205.448      470.239        5.239      330.446       -2.162      862.768
01/21/2021  05:15:00      158.658        7.752      -79.292      632.604        8.363      301.924   400187.620       69.934    91158.340       26.136       24.571      158.847      436.901        7.565      330.532       -2.023      862.768
01/21/2021  05:16:00      193.968       -5.857      -97.056      688.812       22.142      327.436   474461.938      490.264   107214.201       31.450       29.108      194.057      474.627        5.982      330.471       -2.117      862.782
01/21/2021  05:17:00      273.805       13.863     -131.380      819.811       12.870      390.883   672089.313      165.638   152789.530       45.856       41.252      274.155      565.899        4.261      330.640       -1.838      862.801
01/21/2021  05:18:00      363.921       -4.399     -185.856      943.834       15.549      450.697   890821.832      241.780   203127.819       63.037       54.710      363.948      652.013        3.209      331.040       -1.170      862.812
01/21/2021  05:19:00      237.101       -7.445     -114.068      786.598       11.436      374.332   618737.146      130.777   140124.473       41.398       37.950      237.218      542.364        5.227      330.400       -2.231      862.814
01/21/2021  05:20:00      281.398       -1.144     -137.385      810.355        5.569      386.295   656675.017       31.014   149223.852       45.182       40.296      281.400      559.344        3.951      330.713       -1.718      862.820
01/21/2021  05:21:00      287.485        7.258     -150.496      887.749       11.681      425.317   788098.394      136.449   180894.944       53.704       48.456      287.576      614.266        4.563      330.987       -1.261      862.818
01/21/2021  05:22:00      258.878        7.176     -151.928      870.273       14.648      416.351   757374.772      214.568   173347.859       51.035       46.547      258.977      601.702        5.398      330.777       -1.609      862.813
01/21/2021  05:23:00      141.568        6.876      -86.679      658.394       13.444      313.020   433482.313      180.750    97981.476       27.951       26.582      141.735      453.746       10.249      330.222       -2.529      862.808
01/21/2021  05:24:00      213.319       27.121     -126.931      823.011       13.594      391.707   677346.853      184.789   153434.287       44.648       41.548      215.036      567.480        6.964      330.576       -1.938      862.810
01/21/2021  05:25:00      232.820       22.439     -134.638      800.290       14.282      383.511   640464.745      203.976   147080.312       43.013       39.387      233.898      553.659        5.603      330.605       -1.893      862.839
01/21/2021  05:26:00      345.553        9.960     -182.829      955.275       10.268      455.754   912550.520      105.431   207712.140       63.641       56.018      345.697      659.571        3.640      330.875       -1.441      862.867
01/21/2021  05:27:00      305.477       -1.721     -153.814      842.105        9.951      402.208   709140.179       99.021   161771.375       49.381       43.551      305.481      581.695        3.626      330.777       -1.609      862.868
01/21/2021  05:28:00      232.066        8.154     -134.349      801.330       10.709      382.604   642129.408      114.689   146385.943       43.013       39.432      232.209      553.393        5.679      330.368       -2.283      862.845
01/21/2021  05:29:00      365.398       20.016     -162.961      949.719       12.155      452.974   901965.696      147.741   205185.186       63.365       55.365      365.946      655.629        3.210      330.910       -1.382      862.824
01/21/2021  05:30:00      318.417        7.184     -143.273      846.102       20.393      402.846   715889.041      415.877   162285.223       50.010       43.930      318.498      583.444        3.356      330.947       -1.331      862.809
01/21/2021  05:31:00      285.258        5.250     -135.886      826.293       12.293      395.190   682760.180      151.113   156175.138       46.930       41.954      285.307      570.986        4.005      330.559       -1.967      862.802
01/21/2021  05:32:00      320.764        1.411     -158.121      881.102        5.522      419.731   776341.478       30.490   176174.486       54.002       47.627      320.768      607.958        3.592      330.594       -1.907      862.787
01/21/2021  05:33:00      376.121      -13.104     -183.132      935.857       10.147      446.595   875828.733      102.960   199447.283       62.505       53.769      376.349      646.305        2.949      331.066       -1.128      862.766
01/21/2021  05:34:00      282.868       -5.374     -147.609      825.773       15.741      394.432   681901.790      247.772   155576.450       46.960       41.886      282.919      570.481        4.066      330.820       -1.541      862.750
01/21/2021  05:35:00      195.720      -12.017     -105.582      752.297       13.494      359.594   565951.301      182.078   129307.761       37.238       34.772      196.088      519.760        7.026      330.461       -2.133      862.744
01/21/2021  05:36:00      274.344       -7.721     -132.432      837.282        6.847      400.371   701041.760       46.878   160297.155       47.694       43.069      274.452      578.832        4.448      330.638       -1.838      862.722
01/21/2021  05:37:00      294.430       -6.921     -151.035      851.353       11.700      406.065   724802.779      136.889   164889.171       49.950       44.491      294.511      587.766        3.983      330.769       -1.623      862.708
01/21/2021  05:38:00      333.036        1.079     -154.786      927.795       11.217      441.592   860803.643      125.820   195003.348       59.518       52.797      333.038      639.863        3.691      331.011       -1.219      862.702
01/21/2021  05:39:00      265.261      -29.215     -131.341      797.227       25.029      377.651   635570.396      626.467   142620.396       43.348       38.941      266.865      548.166        4.219      330.847       -1.495      862.714
01/21/2021  05:40:00      201.781       -4.742     -131.196      797.186       28.434      384.539   635506.284      808.480   147870.561       42.090       39.209      201.837      552.991        7.506      330.634       -1.845      862.755
01/21/2021  05:41:00      194.596        3.475     -112.209      780.532       24.173      369.514   609229.862      584.343   136540.410       39.825       37.318      194.627      536.256        7.592      330.464       -2.126      862.791
01/21/2021  05:42:00      271.651        5.449     -149.003      866.782       22.801      411.524   751311.511      519.895   169352.229       50.841       46.059      271.706      596.750        4.824      330.783       -1.599      862.810
01/21/2021  05:43:00      112.257        4.332      -75.144      629.379       12.319      300.096   396117.792      151.757    90057.539       25.219       24.316      112.341      433.573       14.895      330.315       -2.378      862.835
01/21/2021  05:44:00      202.208        7.525     -129.552      800.539       19.161      380.672   640862.527      367.148   144911.170       42.177       39.307      202.348      551.451        7.427      330.564       -1.961      862.841
01/21/2021  05:45:00      128.277       19.826     -112.539      761.736       18.712      361.655   580242.158      350.135   130794.120       37.030       35.569      129.800      524.181       16.308      330.280       -2.428      862.864
01/21/2021  05:46:00       20.476        5.825      -66.094      586.410       28.390      280.609   343876.612      806.013    78741.239       21.403       21.171       21.288      404.683      361.381      329.818       -3.194      862.869
01/21/2021  05:47:00      209.241       20.184     -135.730      855.980       23.219      406.453   732701.869      539.145   165203.802       48.034       44.922      210.213      589.357        7.860      330.335       -2.331      862.855
01/21/2021  05:48:00      163.581       35.044     -119.527      771.403       15.798      368.407   595062.683      249.579   135723.616       38.650       36.552      167.292      532.720       10.140      330.258       -2.464      862.843
01/21/2021  05:49:00      196.609       23.466     -119.551      778.674       12.480      370.987   606332.996      155.743   137631.060       39.865       37.206      198.004      537.131        7.359      330.378       -2.268      862.837
01/21/2021  05:50:00      277.280       17.999     -168.073      927.261       13.847      443.025   859812.585      191.729   196271.520       58.064       52.814      277.863      640.610        5.315      330.797       -1.570      862.845
01/21/2021  05:51:00      183.507       -0.562     -107.249      728.735       17.237      346.831   531053.981      297.101   120291.473       34.827       32.582      183.508      502.117        7.487      330.247       -2.485      862.857
01/21/2021  05:52:00      262.471        7.095     -152.838      857.662       16.721      411.565   735583.884      279.604   169385.624       49.858       45.262      262.567      593.480        5.109      330.462       -2.126      862.860
01/21/2021  05:53:00      277.244       19.204     -153.422      841.075       13.535      401.247   707407.746      183.197   160999.111       48.450       43.430      277.908      580.709        4.366      330.665       -1.792      862.851
01/21/2021  05:54:00      277.292       20.259     -137.323      817.979        6.537      389.945   669089.311       42.737   152057.034       45.850       41.059      278.032      564.592        4.124      330.792       -1.585      862.841
01/21/2021  05:55:00      269.492       38.029     -118.289      777.833       10.061      372.976   605023.481      101.230   139110.802       41.599       37.212      272.162      538.416        3.914      330.651       -1.820      862.834
01/21/2021  05:56:00      307.315       70.982     -131.935      841.399       29.551      399.135   707952.607      873.281   159308.574       49.233       43.407      315.406      579.210        3.372      330.794       -1.582      862.835
01/21/2021  05:57:00      240.520       83.546     -102.614      724.840       83.934      345.629   525392.319     7044.982   119459.073       36.349       32.595      254.617      495.446        3.786      330.449       -2.156      862.831
01/21/2021  05:58:00      316.841       82.121     -133.909      852.844       37.466      406.268   727342.953     1403.694   165053.989       50.924       44.690      327.311      588.029        3.228      330.798       -1.575      862.820
01/21/2021  05:59:00      219.394      121.784     -112.244      768.017      248.731      379.769   589850.803    61867.237   144224.238       43.558       39.797      250.929      499.117        3.956      330.747       -1.660      862.802
01/21/2021  06:00:00      215.408      168.461     -107.128      706.117      108.820      339.073   498600.693    11841.728   114970.467       35.570       31.271      273.459      480.536        3.088      330.628       -1.860      862.787
01/21/2021  06:01:00      222.621      153.293      -96.186      702.157       25.877      336.298   493024.699      669.619   113096.177       34.442       30.340      270.293      485.232        3.223      330.617       -1.879      862.764
01/21/2021  06:02:00      236.889       88.294     -105.499      728.022       32.988      346.446   530015.981     1088.227   120024.990       36.295       32.556      252.809      501.349        3.933      330.437       -2.172      862.738
01/21/2021  06:03:00      135.748       71.512      -46.504      523.743       29.560      252.246   274306.651      873.790    63628.246       18.218       16.940      153.432      362.758        5.590      330.003       -2.892      862.716
01/21/2021  06:04:00      282.352       55.556     -117.137      783.624       21.998      370.023   614067.310      483.903   136917.369       42.384       37.573      287.766      538.119        3.497      330.587       -1.924      862.690
01/21/2021  06:05:00      265.231       67.769     -105.493      767.786       17.837      366.487   589494.891      318.166   134312.562       40.494       36.206      273.752      530.154        3.750      330.601       -1.902      862.671
01/21/2021  06:06:00      280.193       76.060     -114.385      765.072       20.734      363.620   585335.134      429.892   132219.553       40.753       35.899      290.333      527.199        3.297      330.719       -1.708      862.656
01/21/2021  06:07:00      322.566       49.626     -152.829      873.201      214.966      422.579   762480.604    46210.566   178572.637       55.836       49.363      326.362      580.643        3.165      331.039       -1.177      862.652
01/21/2021  06:08:00      250.575       57.898     -100.091      692.991       16.442      330.390   480236.588      270.335   109157.362       33.278       29.483      257.177      478.230        3.458      330.576       -1.947      862.661
01/21/2021  06:09:00      291.261       59.396     -117.136      753.991       21.107      359.844   568503.022      445.499   129487.588       40.011       34.922      297.256      520.423        3.065      330.731       -1.689      862.674
01/21/2021  06:10:00      195.126       57.064      -73.726      617.552       20.664      291.525   381369.869      426.983    84986.623       25.668       23.339      203.299      423.921        4.348      330.444       -2.167      862.687
01/21/2021  06:11:00      221.227       50.917      -87.152      676.801       17.510      321.835   458059.427      306.587   103578.060       31.042       28.097      227.011      466.320        4.220      330.567       -1.962      862.701
01/21/2021  06:12:00      214.097       44.570      -82.190      661.148       13.591      314.949   437116.562      184.703    99193.172       29.542       26.825      218.687      456.008        4.348      330.577       -1.946      862.700
01/21/2021  06:13:00      277.711       49.059     -112.361      752.803       17.363      359.488   566712.709      301.472   129231.421       39.406       34.812      282.011      519.948        3.399      330.801       -1.573      862.687
01/21/2021  06:14:00      224.929       40.526     -107.810      756.238       12.625      359.563   571895.742      159.394   129285.747       38.245       35.067      228.551      521.217        5.201      330.706       -1.731      862.665
01/21/2021  06:15:00      274.837       38.520     -135.904      846.039      120.128      408.648   715781.165    14430.643   166993.398       49.616       44.860      277.523      579.439        4.359      330.763       -1.631      862.653
01/21/2021  06:16:00      120.288       13.688      -88.509      665.936       13.192      317.779   443470.361      174.034   100983.808       28.345       27.231      121.065      459.802       14.425      330.244       -2.493      862.657
01/21/2021  06:17:00      110.507       22.240     -109.030      760.443       12.202      363.662   578273.388      148.881   132250.387       36.748       35.534      112.723      525.625       21.743      330.248       -2.483      862.666
01/21/2021  06:18:00       47.115       11.573      -88.521      587.448      122.221      287.383   345095.704    14937.852    82588.904       22.631       22.131       48.515      397.918       67.272      329.800       -3.223      862.672
01/21/2021  06:19:00      144.198        7.332     -136.295      802.887       24.755      380.744   644628.283      612.802   144966.066       41.465       39.510      144.385      552.522       14.644      330.105       -2.713      862.684
01/21/2021  06:20:00      249.148        6.250     -157.669      856.579       23.660      408.920   733727.509      559.808   167215.320       49.405       45.075      249.227      590.530        5.614      330.359       -2.293      862.680
01/21/2021  06:21:00      155.799       29.625     -139.103      828.317       21.292      395.790   686108.248      453.335   156649.367       44.368       42.161      158.590      572.116       13.014      330.228       -2.510      862.682
01/21/2021  06:22:00      274.639       30.464     -184.741      968.931       19.301      458.760   938827.313      372.548   210460.899       62.983       57.483      276.323      666.223        5.813      330.681       -1.758      862.682
01/21/2021  06:23:00      155.062       27.669     -143.646      843.991       15.847      401.614   712320.939      251.115   161293.993       45.947       43.693      157.511      581.891       13.648      330.234       -2.499      862.682
01/21/2021  06:24:00      155.760        0.672     -127.248      782.426       28.067      370.600   612190.409      787.752   137344.627       39.523       37.516      155.762      536.765       11.875      330.221       -2.526      862.684
01/21/2021  06:25:00      249.772       20.041     -180.637      962.047       35.257      463.366   925533.724     1243.025   214707.596       61.821       57.074      250.575      665.637        7.057      330.652       -1.806      862.705
01/21/2021  06:26:00      279.550        3.589     -178.607      939.514       43.109      447.915   882686.418     1858.359   200627.486       59.739       54.259      279.573      646.777        5.352      330.633       -1.841      862.717
01/21/2021  06:27:00      113.042       24.113     -120.786      770.402      143.370      368.650   593519.748    20554.816   135902.619       38.880       37.499      115.586      517.703       20.061      330.094       -2.734      862.696
01/21/2021  06:28:00       78.665       32.689     -112.889      743.114       29.873      352.607   552217.778      892.388   124331.727       34.858       33.872       85.187      510.949       35.976      330.043       -2.817      862.667
01/21/2021  06:29:00      197.317       43.457     -167.910      918.368       39.386      436.382   843398.884     1551.285   190429.481       55.198       51.769      202.046      631.759        9.777      330.422       -2.188      862.660
01/21/2021  06:30:00      175.888       32.327     -142.832      873.802       36.023      413.107   763529.126     1297.668   170657.129       49.373       46.774      178.834      598.691       11.207      330.266       -2.446      862.667
01/21/2021  06:31:00      243.578       25.114     -180.306      941.304       35.158      450.329   886052.399     1236.076   202796.470       59.105       54.504      244.869      649.614        7.038      330.497       -2.062      862.670
01/21/2021  06:32:00      142.245       23.855     -143.493      884.888      196.170      425.486   783026.022    38482.487   181038.343       52.176       50.127      144.231      589.608       16.711      330.218       -2.522      862.682
01/21/2021  06:33:00      150.139       52.216     -142.528      859.546       19.739      409.155   738818.947      389.626   167407.742       47.591       45.331      158.960      592.301       13.884      330.243       -2.485      862.674
01/21/2021  06:34:00      157.612       21.712     -134.461      803.648       21.308      381.098   645850.110      454.047   145235.834       41.730       39.577      159.100      552.611       12.064      330.256       -2.466      862.659
01/21/2021  06:35:00      151.662        7.404     -127.552      812.196       16.358      387.500   659662.086      267.585   150156.309       42.453       40.504      151.843      560.593       13.630      330.233       -2.502      862.645
01/21/2021  06:36:00      134.515        2.199     -100.759      715.901       20.858      340.307   512514.787      435.044   115808.814       32.837       31.438      134.533      492.663       13.410      330.076       -2.767      862.636
01/21/2021  06:37:00      250.962       -0.981     -158.930      865.247       16.489      411.936   748653.192      271.897   169691.116       50.324       45.931      250.964      596.489        5.649      330.593       -1.911      862.618
01/21/2021  06:38:00      133.018        5.632     -109.209      761.817      181.423      368.825   580365.012    32914.205   136031.851       38.933       37.466      133.137      507.457       14.528      330.233       -2.505      862.590
01/21/2021  06:39:00      216.235        9.103     -148.349      861.091       12.739      411.012   741477.743      162.283   168931.236       48.952       45.529      216.427      594.618        7.548      330.575       -1.939      862.595
01/21/2021  06:40:00      141.974       34.188     -129.603      808.372       13.943      382.188   653465.731      194.404   146067.698       41.876       39.986      146.032      555.441       14.467      330.362       -2.292      862.625
01/21/2021  06:41:00      117.388       33.801     -131.108      794.554       25.193      377.189   631316.539      634.684   142271.294       40.300       38.711      122.158      546.113       19.986      330.271       -2.443      862.644
01/21/2021  06:42:00      274.014        1.429     -163.427      919.633       31.693      437.834   845724.905     1004.437   191698.981       56.989       51.921      274.018      633.165        5.339      330.646       -1.819      862.660
01/21/2021  06:43:00      363.224       -9.855     -210.675     1020.644      138.940      486.051  1041714.564    19304.405   236245.300       73.657       64.863      363.358      694.391        3.652      331.106       -1.058      862.692
01/21/2021  06:44:00      201.898        7.649      -85.498      705.726       20.175      339.876   498048.959      407.046   115515.756       33.092       30.699      202.043      488.989        5.857      330.166       -2.618      862.697
01/21/2021  06:45:00      300.796       -0.643     -151.563      879.104       20.331      416.326   772823.432      413.343   173326.991       52.981       47.328      300.797      603.170        4.021      330.651       -1.814      862.680
01/21/2021  06:46:00      170.939       21.940     -152.392      849.089       25.718      403.310   720952.229      661.405   162658.693       46.841       44.214      172.341      584.706       11.511      330.437       -2.167      862.657
01/21/2021  06:47:00      328.312        7.551     -205.998     1002.573      176.732      512.355  1005152.035    31234.166   262507.817       72.432       64.945      328.399      702.401        4.575      330.935       -1.334      862.637
01/21/2021  06:48:00      189.754       14.620     -138.481      804.532       18.932      383.159   647271.924      358.415   146811.161       42.475       39.722      190.316      554.543        8.490      330.372       -2.277      862.621
01/21/2021  06:49:00      189.729        1.078     -134.419      805.979       24.324      383.578   649602.189      591.640   147132.277       42.552       39.866      189.732      555.707        8.578      330.512       -2.045      862.621
01/21/2021  06:50:00      365.253       -2.583     -174.621      966.919       21.279      465.096   934932.383      452.800   216314.437       65.756       57.585      365.262      669.597        3.361      330.883       -1.429      862.622
01/21/2021  06:51:00      212.237       -6.719     -124.737      827.144       23.085      394.268   684167.946      532.913   155447.299       45.022       42.007      212.343      569.817        7.201      330.300       -2.391      862.624
01/21/2021  06:52:00      311.048      -18.921     -183.862      930.717      163.706      453.073   866233.783    26799.662   205275.200       61.438       54.915      311.623      634.245        4.142      330.723       -1.693      862.621
01/21/2021  06:53:00      337.197        8.137     -185.749      954.428       17.970      453.670   910931.981      322.929   205816.179       63.244       55.854      337.295      657.532        3.800      330.755       -1.638      862.602
01/21/2021  06:54:00      162.323       32.186     -128.416      794.403       24.014      377.517   631076.490      576.666   142519.033       40.886       38.709      165.483      546.844       10.920      330.243       -2.487      862.570
01/21/2021  06:55:00      193.511       28.277     -145.361      867.965       16.265      411.078   753363.746      264.543   168985.301       49.080       46.131      195.566      596.926        9.317      330.432       -2.175      862.545
01/21/2021  06:56:00      190.615       21.851     -132.360      877.322       14.816      416.412   769694.376      219.514   173399.099       49.862       47.166      191.863      603.915        9.908      330.462       -2.124      862.536
01/21/2021  06:57:00      284.266        0.995     -171.084      929.922       20.102      441.294   864754.483      404.095   194740.570       58.477       52.995      284.268      640.180        5.072      330.706       -1.720      862.524
01/21/2021  06:58:00      182.547        5.180     -116.466      766.581       10.959      367.237   587646.975      120.090   134862.846       38.462       36.131      182.620      530.047        8.424      330.295       -2.403      862.526
01/21/2021  06:59:00      354.114      -12.054     -171.639      902.749       13.322      430.156   814955.803      177.483   185033.815       57.737       50.008      354.319      622.971        3.091      330.760       -1.635      862.522
01/21/2021  07:00:00      243.382       22.314     -125.425      769.711       69.647      367.051   592455.466     4850.742   134726.458       40.359       36.602      244.403      528.131        4.669      330.639       -1.840      862.520
01/21/2021  07:01:00      335.250       14.643     -156.796      880.192        6.253      419.400   774737.530       39.105   175896.443       54.373       47.534      335.570      607.423        3.277      330.912       -1.385      862.525
01/21/2021  07:02:00      449.608        0.666     -222.945     1044.136        8.696      497.679  1090220.121       75.623   247684.391       79.464       66.899      449.609      720.649        2.569      331.324       -0.699      862.536
01/21/2021  07:03:00      324.468        4.202     -170.306      929.101       18.178      443.330   863228.690      330.441   196541.614       59.698       53.005      324.496      641.420        3.907      330.675       -1.770      862.540
01/21/2021  07:04:00      371.817       -9.787     -184.805      951.255       15.409      455.000   904885.762      237.439   207025.329       64.209       55.607      371.946      657.641        3.126      330.772       -1.610      862.546
01/21/2021  07:05:00      315.362       -8.185     -165.315      849.699      138.797      429.115   721987.656    19264.509   184139.868       52.593       46.270      315.468      593.813        3.543      330.701       -1.731      862.543
01/21/2021  07:06:00      305.037      -16.536     -155.315      857.116       14.561      410.620   734648.458      212.027   168609.094       51.027       45.173      305.485      592.963        3.768      330.699       -1.738      862.543
01/21/2021  07:07:00      319.860      -11.688     -167.044      911.621       12.720      434.988   831052.300      161.796   189214.705       57.518       51.021      320.073      629.538        3.869      330.699       -1.732      862.544
01/21/2021  07:08:00      376.616       -5.036     -199.472      935.372       12.173      445.907   874920.654      148.192   198832.871       62.755       53.695      376.649      645.535        2.937      330.962       -1.300      862.531
01/21/2021  07:09:00      222.573      -27.542     -144.986      799.270      195.896      386.922   638832.406    38375.357   149708.724       44.894       41.346      224.270      530.927        5.604      330.530       -2.015      862.518
01/21/2021  07:10:00      402.380       -3.639     -208.026      982.693       14.858      470.003   965684.921      220.755   220902.402       69.575       59.340      402.397      679.379        2.850      331.029       -1.186      862.521
01/21/2021  07:11:00      382.847       -2.066     -195.054      939.919        8.458      448.442   883447.870       71.538   201099.843       63.439       54.231      382.853      649.040        2.874      330.898       -1.404      862.517
01/21/2021  07:12:00      267.049       16.457     -123.843      775.485       15.108      370.780   601377.163      228.259   137477.828       41.285       36.954      267.556      535.963        4.013      330.450       -2.150      862.517
01/21/2021  07:13:00      348.647       30.804     -154.479      881.093       11.200      420.875   776324.428      125.448   177136.177       54.978       47.679      350.005      608.676        3.024      330.733       -1.679      862.512
01/21/2021  07:14:00      286.021       24.565     -143.064      867.351       11.832      413.809   752297.563      139.985   171238.047       51.308       46.184      287.074      598.886        4.352      330.650       -1.815      862.523
01/21/2021  07:15:00      268.470       26.355     -157.715      915.005      169.592      440.772   837234.658    28761.437   194279.932       57.873       53.014      269.760      618.831        5.262      330.684       -1.756      862.539
01/21/2021  07:16:00      435.439       36.997     -209.380     1050.776        8.539      499.240  1104131.100       72.907   249240.446       79.384       67.672      437.008      723.936        2.744      331.128       -1.019      862.538
01/21/2021  07:17:00      322.387       29.764     -140.381      889.401       12.274      424.178   791034.001      150.645   179926.705       54.761       48.556      323.758      613.971        3.596      330.649       -1.816      862.540
01/21/2021  07:18:00      335.904       53.652     -132.570      823.266       16.718      392.670   677767.557      279.484   154190.040       48.259       41.612      340.161      568.283        2.791      330.664       -1.795      862.543
01/21/2021  07:19:00      264.255       54.248     -102.194      759.132       14.371      361.891   576281.240      206.539   130965.341       39.518       35.373      269.766      523.880        3.771      330.409       -2.218      862.539
01/21/2021  07:20:00      408.460       48.555     -174.812      945.597       17.343      450.632   894152.974      300.779   203069.101       64.841       54.876      411.336      652.486        2.516      330.953       -1.314      862.530
01/21/2021  07:21:00      355.249       67.953     -156.212      872.682       18.661      415.798   761574.182      348.220   172887.869       54.481       46.741      361.689      602.174        2.772      330.832       -1.518      862.531
01/21/2021  07:22:00      272.285       51.694     -113.699      794.870       20.092      379.199   631818.300      403.678   143791.758       43.271       38.801      277.148      548.683        3.919      330.489       -2.084      862.532
01/21/2021  07:23:00      240.190       47.869      -99.195      704.592       16.633      334.045   496450.199      276.671   111586.343       33.894       30.416      244.914      484.909        3.920      330.370       -2.285      862.534
01/21/2021  07:24:00      197.537       19.476      -79.943      680.348       19.440      326.605   462873.743      377.921   106671.068       30.774       28.496      198.495      471.039        5.631      330.204       -2.557      862.526
01/21/2021  07:25:00      448.584        6.049     -211.272     1026.300       11.188      489.848  1053290.766      125.180   239950.650       76.937       64.668      448.624      708.828        2.496      331.016       -1.206      862.527
01/21/2021  07:26:00      348.794       61.394     -150.933      908.817       26.066      430.189   825948.527      679.431   185062.743       57.973       50.585      354.156      624.911        3.113      330.732       -1.678      862.523
01/21/2021  07:27:00      337.515       57.378     -145.501      880.387       18.078      418.711   775080.604      326.807   175319.049       54.435       47.536      342.357      606.871        3.142      330.658       -1.803      862.541
01/21/2021  07:28:00      234.712       41.796      -93.900      740.204       94.210      356.820   547901.881     8875.567   127320.699       37.473       34.205      238.404      507.859        4.538      330.323       -2.359      862.548
01/21/2021  07:29:00      394.154       34.939     -186.320      966.945       23.974      460.490   934981.849      574.749   212050.978       66.920       57.380      395.699      666.848        2.840      330.878       -1.436      862.551
01/21/2021  07:30:00      146.983       10.789      -95.323      694.705       14.639      332.873   482614.419      214.313   110804.734       31.210       29.682      147.379      480.646       10.636      329.819       -3.187      862.534
01/21/2021  07:31:00      244.035       15.415     -148.158      858.533        7.608      409.100   737078.662       57.878   167362.551       49.293       45.225      244.522      592.469        5.871      330.296       -2.397      862.509
01/21/2021  07:32:00      309.912        5.657     -172.912      919.703       10.089      438.769   845852.860      101.797   192518.629       58.201       51.924      309.963      634.991        4.197      330.571       -1.943      862.495
01/21/2021  07:33:00      128.099        7.347      -98.925      715.694        9.814      342.464   512217.420       96.305   117281.567       32.779       31.480      128.310      494.830       14.873      329.844       -3.144      862.493
01/21/2021  07:34:00       78.672       14.311      -98.775      686.427        9.364      326.667   471182.639       87.684   106711.599       29.694       28.899       79.963      473.238       35.025      329.773       -3.262      862.516
01/21/2021  07:35:00      191.799       -5.101     -133.378      786.482       23.350      374.136   618554.447      545.233   139977.395       40.668       37.954      191.867      541.830        7.975      330.198       -2.562      862.541
01/21/2021  07:36:00      136.070       13.014     -105.608      710.893       20.385      337.833   505369.316      415.567   114130.852       32.475       30.996      136.690      489.372       12.817      329.964       -2.949      862.545
01/21/2021  07:37:00      284.512       -4.313     -140.632      845.909       21.483      402.151   715562.689      461.524   161725.142       48.906       43.887      284.545      582.858        4.196      330.404       -2.222      862.547
01/21/2021  07:38:00      122.884        5.985      -76.931      637.554       17.270      305.913   406474.627      298.262    93582.613       26.060       25.018      123.029      441.117       12.856      329.940       -2.991      862.530
01/21/2021  07:39:00       87.571       13.003      -71.638      585.399       10.501      277.982   342691.973      110.270    77273.882       21.643       21.004       88.531      403.117       20.733      329.799       -3.225      862.520
01/21/2021  07:40:00      206.229       13.212     -138.061      814.849       11.238      388.570   663979.161      126.289   150986.919       43.826       40.755      206.652      562.511        7.409      330.498       -2.068      862.514
01/21/2021  07:41:00       68.072       16.452      -78.847      620.979       16.045      297.846   385615.213      257.445    88712.302       24.275       23.729       70.032      429.760       37.658      330.058       -2.797      862.516
01/21/2021  07:42:00      157.412       -0.923      -99.619      718.450       26.758      342.574   516169.867      715.995   117356.720       33.434       31.712      157.415      494.919        9.885      330.292       -2.411      862.516
01/21/2021  07:43:00       85.547        1.033      -61.063      597.808       26.459      281.762   357374.659      700.058    79389.796       22.416       21.873       85.554      409.362       22.895      330.120       -2.698      862.506
01/21/2021  07:44:00      110.167       10.372      -56.490      575.113       31.124      276.148   330754.469      968.695    76257.808       21.162       20.399      110.654      397.024       12.874      330.202       -2.566      862.494
01/21/2021  07:45:00       83.444       28.990      -17.115      450.008       46.991      216.836   202506.938     2208.144    47017.866       12.986       12.587       88.337      309.749       12.295      330.144       -2.665      862.480
01/21/2021  07:46:00       81.382       35.861      -12.245      437.981       54.486      208.433   191827.398     2968.775    43444.147       12.310       11.912       88.933      298.040       11.231      330.211       -2.556      862.467
01/21/2021  07:47:00      151.333       17.816      -56.005      628.078       50.155      302.358   394481.899     2515.572    91420.652       25.728       24.421      152.378      433.382        8.089      330.572       -1.957      862.469
01/21/2021  07:48:00      111.976        3.016      -39.313      530.597       49.858      255.319   281533.633     2485.827    65187.696       18.158       17.460      112.017      365.421       10.642      330.412       -2.222      862.486
01/21/2021  07:49:00       13.201       27.683      -12.593      310.477       47.526      147.954    96396.036     2258.693    21890.312        6.080        6.027       30.669      210.584       47.145      330.015       -2.880      862.514
01/21/2021  07:50:00       79.237       15.767      -36.412      506.816       50.203      244.497   256862.386     2520.340    59779.021       16.344       15.958       80.791      349.634       18.728      330.303       -2.402      862.528
01/21/2021  07:51:00       99.997       25.811      -19.589      493.059       54.130      238.703   243107.645     2930.062    56979.211       15.697       15.151      103.274      340.000       10.839      330.490       -2.095      862.537
01/21/2021  07:52:00       88.432       35.560      -33.108      476.712       51.813      231.085   227254.067     2684.621    53400.055       14.670       14.167       95.314      329.039       11.917      330.379       -2.280      862.537
01/21/2021  07:53:00      123.403       20.540      -57.359      659.136       48.284      320.030   434460.203     2331.384   102419.046       27.896       26.961      125.101      457.176       13.355      330.573       -1.954      862.530
01/21/2021  07:54:00      101.139       17.868      -37.357      582.667       42.771      282.964   339500.473     1829.327    80068.466       21.658       21.070      102.706      403.847       15.461      330.548       -1.997      862.520
01/21/2021  07:55:00      141.565       22.362      -60.137      651.181       52.220      315.544   424036.560     2726.919    99568.005       27.513       26.317      143.320      451.184        9.910      330.817       -1.553      862.513
01/21/2021  07:56:00        1.730       22.046      -17.251      432.744       46.645      212.517   187267.038     2175.790    45163.514       11.765       11.730       22.114      300.256      184.353      330.413       -2.224      862.517
01/21/2021  07:57:00       21.898       24.110      -13.055      454.738       48.574      220.439   206787.032     2359.455    48593.457       12.943       12.887       32.570      313.481       92.637      330.483       -2.108      862.523
01/21/2021  07:58:00       61.834       12.126      -30.502      514.693       43.350      249.866   264909.340     1879.202    62432.882       16.699       16.461       63.012      356.327       31.978      330.682       -1.781      862.514
01/21/2021  07:59:00      -43.095       25.542        5.778      218.877       44.395      105.794    47907.353     1970.959    11192.474        3.179        3.054       50.096      147.270        8.642      330.334       -2.360      862.508
01/21/2021  08:00:00       -2.365       30.837       -6.582      375.854       53.790      177.339   141266.022     2893.340    31449.208        8.827        8.780       30.928      254.356       67.636      330.564       -1.977      862.510
01/21/2021  08:01:00        7.721       28.107      -16.312      422.734       45.043      205.620   178703.942     2028.902    42279.437       11.202       11.151       29.149      291.784      100.204      330.611       -1.900      862.506
01/21/2021  08:02:00      -25.010       36.004        4.055      309.563       46.949      147.018    95829.248     2204.204    21614.150        6.077        5.982       43.838      208.798       22.686      330.463       -2.144      862.506
01/21/2021  08:03:00       45.496       26.420      -37.753      560.344       49.719      269.358   313985.103     2471.960    72553.832       19.652       19.451       52.611      386.204       53.887      330.771       -1.632      862.498
01/21/2021  08:04:00      -73.288       31.834       13.260       35.840       44.626       27.596     1284.540     1991.508      761.557        0.530        0.202       79.903       33.170        0.172      330.304       -2.408      862.501
01/21/2021  08:05:00       -0.810       40.570      -20.248      447.983       38.887      214.126   200689.008     1512.197    45850.128       12.500       12.403       40.578      307.132       57.288      330.484       -2.106      862.511
01/21/2021  08:06:00      -38.292       58.213      -20.002      402.519       40.391      194.372   162021.933     1631.448    37780.329       10.330       10.072       69.678      277.294       15.837      330.467       -2.135      862.507
01/21/2021  08:07:00      -55.444       44.975       -3.501      226.565       47.846      112.841    51331.703     2289.236    12733.108        3.572        3.318       71.392      153.947        4.650      330.352       -2.328      862.500
01/21/2021  08:08:00       46.356       16.408      -48.750      574.140       40.050      278.170   329637.281     1603.996    77378.466       20.662       20.431       49.174      398.337       65.619      330.720       -1.715      862.487
01/21/2021  08:09:00       74.659       32.186      -48.294      567.615       42.590      263.887   322186.547     1813.922    69636.516       20.121       19.682       81.302      384.957       22.419      330.829       -1.537      862.480
01/21/2021  08:10:00       -2.772       13.531       -8.029      296.892       32.184      141.917    88144.606     1035.807    20140.331        5.476        5.466       13.812      203.003      216.008      330.601       -1.918      862.488
01/21/2021  08:11:00       60.264        6.850      -28.906      461.708       18.089      216.637   213174.494      327.219    46931.614       13.242       13.022       60.652      315.669       27.088      330.875       -1.464      862.491
01/21/2021  08:12:00       15.534       18.524      -20.794      357.527       20.821      170.164   127825.693      433.517    28955.842        7.908        7.861       24.175      246.228      103.739      330.700       -1.754      862.485
01/21/2021  08:13:00       30.283       20.852      -22.879      370.254       30.680      178.372   137087.675      941.259    31816.637        8.582        8.492       36.768      255.863       48.425      330.803       -1.586      862.485
01/21/2021  08:14:00       42.176       28.630      -45.477      477.620       17.893      227.626   228120.911      320.158    51813.446       14.240       14.013       50.975      329.305       41.733      330.958       -1.329      862.483
01/21/2021  08:15:00       10.350       -1.717       -2.754      220.613       21.684      107.689    48670.205      470.201    11596.924        3.041        3.037       10.491      151.853      209.514      330.838       -1.532      862.486
01/21/2021  08:16:00      -34.461        1.282       -9.576      172.443       22.029       81.518    29736.576      485.257     6645.145        1.907        1.843       34.485      116.877       11.487      330.638       -1.860      862.496
01/21/2021  08:17:00       30.560       20.084      -42.351      494.154       24.270      237.312   244188.389      589.049    56317.151       15.205       15.055       36.569      341.787       87.355      330.916       -1.396      862.500
01/21/2021  08:18:00      -33.706        0.739      -25.150      341.855       30.242      160.845   116864.692      914.598    25871.267        7.268        7.183       33.714      232.072       47.382      330.827       -1.547      862.514
01/21/2021  08:19:00      -22.589       20.136      -23.575      336.333       18.468      161.318   113120.031      341.056    26023.463        7.045        6.974       30.261      231.881       58.716      330.778       -1.628      862.513
01/21/2021  08:20:00      -16.653        3.442      -19.739      294.591       25.057      142.184    86783.986      627.866    20216.293        5.413        5.381       17.005      203.684      143.476      330.814       -1.569      862.514
01/21/2021  08:21:00       -3.125        7.946      -11.559      272.848       16.661      130.529    74445.932      277.581    17037.736        4.596        4.588        8.539      186.394      476.497      330.819       -1.562      862.506
01/21/2021  08:22:00       18.363       -5.475      -24.519      357.189       20.962      171.106   127583.691      439.397    29277.252        7.910        7.865       19.162      246.492      165.471      331.018       -1.233      862.505
01/21/2021  08:23:00       -0.170       17.749      -26.001      331.082       21.457      159.357   109615.466      460.410    25394.632        6.820        6.774       17.750      228.448      165.646      330.984       -1.290      862.507
01/21/2021  08:24:00       16.398      -11.557      -14.510      224.675       22.104      108.457    50478.855      488.603    11763.005        3.166        3.137       20.062      154.394       59.228      331.115       -1.076      862.494
01/21/2021  08:25:00      -11.569        7.181      -15.808      329.731       20.461      158.793   108722.589      418.633    25215.308        6.737        6.718       13.617      227.482      279.094      331.032       -1.210      862.484
01/21/2021  08:26:00       42.596       -2.183      -30.737      339.973       23.665      160.134   115581.540      560.017    25642.990        7.224        7.089       42.652      232.406       29.691      331.129       -1.052      862.483
01/21/2021  08:27:00      -41.185        8.512      -18.977      279.789       24.304      130.384    78282.126      590.692    16999.960        4.898        4.794       42.055      188.839       20.163      330.968       -1.316      862.491
01/21/2021  08:28:00      -40.893       27.051      -21.095      334.479       21.743      160.331   111876.513      472.738    25705.883        7.042        6.903       49.031      230.760       22.151      330.932       -1.375      862.502
01/21/2021  08:29:00      -60.524       27.569      -11.704      250.252       12.239      118.533    62626.310      149.781    14049.975        4.068        3.841       66.507      171.710        6.666      330.927       -1.385      862.500
01/21/2021  08:30:00      -14.337       17.807      -20.799      384.353       25.073      182.523   147726.880      628.649    33314.698        9.127        9.084       22.861      263.669      133.024      331.151       -1.014      862.516
01/21/2021  08:31:00      -29.421       16.799       -7.902      164.961       15.095       79.626    27212.130      227.850     6340.317        1.749        1.689       33.879      112.865       11.098      331.032       -1.214      862.520
01/21/2021  08:32:00       -5.621       28.331      -22.257      326.764       15.084      157.405   106774.982      227.514    24776.231        6.653        6.589       28.884      225.924       61.182      331.127       -1.055      862.525
01/21/2021  08:33:00      -60.281       31.521       -5.061      160.032       11.990       77.115    25610.230      143.753     5946.728        1.817        1.585       68.025      109.440        2.588      331.073       -1.148      862.528
01/21/2021  08:34:00      -65.929        9.265       -6.061      156.612       20.838       77.099    24527.225      434.206     5944.292        1.768        1.545       66.577      108.269        2.645      331.168       -0.991      862.539
01/21/2021  08:35:00      -23.437        9.398      -17.869      244.343       14.037      115.958    59703.611      197.035    13446.312        3.714        3.667       25.252      167.476       43.987      331.215       -0.913      862.545
01/21/2021  08:36:00      -23.254       -2.538      -13.067      241.782       16.590      116.345    58458.701      275.221    13536.216        3.648        3.614       23.392      166.819       50.858      331.333       -0.718      862.546
01/21/2021  08:37:00      -32.208        4.294       -8.632      170.624       18.905       79.973    29112.582      357.395     6395.634        1.849        1.793       32.493      115.766       12.694      331.343       -0.703      862.562
01/21/2021  08:38:00       18.685       -8.559      -10.554      209.978       10.230       99.797    44090.863      104.648     9959.370        2.733        2.708       20.552      144.416       49.378      331.580       -0.311      862.576
01/21/2021  08:39:00       -8.745      -18.970       -1.831       23.594        8.784       13.931      556.699       77.167      194.071        0.063        0.041       20.889       14.094        0.455      331.486       -0.468      862.583
01/21/2021  08:40:00        1.990        8.847       -7.784      143.855       12.844       67.882    20694.230      164.969     4608.034        1.280        1.273        9.068       97.971      116.717      331.536       -0.385      862.577
01/21/2021  08:41:00        7.270        8.071      -13.904      184.226       10.659       88.196    33939.239      113.617     7778.449        2.106        2.092       10.863      127.177      137.073      331.648       -0.200      862.561
01/21/2021  08:42:00      -11.663       14.667        0.131       25.118       31.841       18.522      630.896     1013.874      343.056        0.117        0.099       18.739       12.769        0.464      331.653       -0.193      862.546
01/21/2021  08:43:00       14.994      -83.560       -2.974       36.533       33.889       25.222     1334.654     1148.469      636.157        0.517        0.156       84.894       10.861        0.016      331.659       -0.182      862.524
01/21/2021  08:44:00        6.143      -62.069       -3.377       39.901       36.208       19.603     1592.057     1311.028      384.296        0.359        0.164       62.372       18.586        0.089      331.622       -0.244      862.499
01/21/2021  08:45:00       71.552      -99.993      -23.976      160.492       36.347       77.753    25757.655     1321.089     6045.584        2.440        1.656      122.956      109.210        0.789      331.794        0.041      862.480
01/21/2021  08:46:00       61.492      -88.716      -20.026      147.114       37.263       70.921    21642.466     1388.555     5029.758        2.005        1.403      107.944       98.164        0.827      331.724       -0.075      862.484
01/21/2021  08:47:00       64.491      -97.267      -23.104       40.605       48.907       28.517     1648.755     2391.901      813.202        0.950        0.243      116.704       18.772        0.026      331.874        0.171      862.502
01/21/2021  08:48:00        3.019      -33.620      -17.739       45.428       40.335       23.169     2063.709     1626.877      536.788        0.284        0.211       33.755       17.841        0.279      331.912        0.233      862.504
01/21/2021  08:49:00      103.199     -101.248      -32.452      241.584       43.321      115.223    58362.871     1876.740    13276.437        4.772        3.676      144.572      165.782        1.315      331.530       -0.393      862.512
01/21/2021  08:50:00       83.860      -67.324      -19.840       39.979       39.424       21.577     1598.317     1554.286      465.584        0.779        0.181      107.541       19.596        0.033      331.587       -0.303      862.510
01/21/2021  08:51:00       77.658      -77.577      -24.601       38.806       41.222       22.291     1505.940     1699.257      496.892        0.818        0.185      109.768       20.799        0.036      331.651       -0.195      862.516
01/21/2021  08:52:00       81.950      -63.649      -28.846      131.453       41.733       63.395    17279.896     1741.653     4018.975        1.731        1.152      103.765       87.507        0.711      331.781        0.017      862.517
01/21/2021  08:53:00       83.935     -120.492      -24.337       44.662       47.675       28.551     1994.727     2272.945      815.141        1.362        0.254      146.845       30.632        0.044      331.579       -0.315      862.513
01/21/2021  08:54:00      100.434     -117.023      -33.983       24.417       36.997       15.980      596.172     1368.746      255.347        1.358        0.111      154.212        8.814        0.003      331.625       -0.241      862.505
01/21/2021  08:55:00       84.071      -89.425      -25.927       28.739       34.593       20.560      825.941     1196.710      422.693        0.909        0.122      122.739       12.707        0.011      331.633       -0.227      862.491
01/21/2021  08:56:00       85.983      -87.954      -32.612      182.969       52.746       88.012    33477.707     2782.143     7746.058        3.009        2.200      123.000      125.227        1.037      331.847        0.127      862.485
01/21/2021  08:57:00       88.657      -83.084      -37.333      229.892       39.382      108.353    52850.533     1550.980    11740.395        4.113        3.307      121.503      156.881        1.667      331.796        0.044      862.486
01/21/2021  08:58:00       89.150      -93.145      -28.953      157.771       31.000       76.272    24891.544      961.002     5817.438        2.456        1.583      128.933      108.467        0.708      331.587       -0.302      862.497
01/21/2021  08:59:00      110.980      -52.668      -33.096      305.365       30.319      144.568    93247.655      919.261    20899.866        6.560        5.753      122.844      209.128        2.898      331.846        0.128      862.505
01/21/2021  09:00:00       58.071      -62.203      -11.245       25.708       30.737       22.411      660.902      944.775      502.260        0.474        0.105       85.097       19.934        0.055      331.736       -0.056      862.514
01/21/2021  09:01:00       28.458      -14.618      -13.239       35.237       46.586       22.506     1241.675     2170.287      506.504        0.256        0.196       31.993       19.268        0.363      332.076        0.503      862.523
01/21/2021  09:02:00       -3.889      -35.439      -10.886       40.842       29.447       19.435     1668.066      867.098      377.737        0.215        0.146       35.652       19.028        0.285      332.209        0.723      862.520
01/21/2021  09:03:00       -7.326      -19.019      -10.900      164.735       32.761       80.332    27137.656     1073.268     6453.277        1.759        1.733       20.381      110.557       29.426      332.100        0.544      862.528
01/21/2021  09:04:00       22.899      -79.227      -15.942       56.940       45.213       25.448     3242.180     2044.173      647.605        0.649        0.297       82.470       25.698        0.097      332.040        0.444      862.543
01/21/2021  09:05:00      -19.445      -22.610       -3.180       35.342       57.389       26.617     1249.068     3293.495      708.461        0.307        0.263       29.821       24.628        0.682      332.115        0.569      862.550
01/21/2021  09:06:00       -2.026      -27.929       -1.992      133.956       39.862       66.335    17944.172     1588.985     4400.328        1.236        1.197       28.002       90.727       10.497      332.309        0.889      862.552
01/21/2021  09:07:00      -18.017      -29.939       16.735       39.612       30.744       23.689     1569.088      945.200      561.178        0.229        0.154       34.942       21.183        0.368      332.205        0.716      862.548
01/21/2021  09:08:00       33.176      -40.698      -14.453       35.179       50.192       31.160     1237.538     2519.193      970.953        0.385        0.236       52.507       20.720        0.156      332.214        0.731      862.537
01/21/2021  09:09:00       79.873       49.904      -12.757       53.996       83.482       27.133     2915.612     6969.253      736.222        0.982        0.531       94.181       17.328        0.034      332.093        0.531      862.536
01/21/2021  09:10:00       64.140       34.611      -18.599       38.029       38.017       21.260     1446.173     1445.304      452.005        0.450        0.167       72.883       15.454        0.045      332.075        0.502      862.530
01/21/2021  09:11:00       86.950      -15.963      -14.689       44.940       42.097       20.783     2019.612     1772.132      431.940        0.613        0.211       88.403       12.374        0.020      332.164        0.648      862.526
01/21/2021  09:12:00       47.967       -4.452      -10.586       39.115       62.838       33.689     1529.981     3948.669     1134.949        0.452        0.331       48.174       29.972        0.387      332.212        0.728      862.522
01/21/2021  09:13:00       15.168      -68.861      -13.678       46.366       53.658       31.877     2149.807     2879.134     1016.154        0.560        0.302       70.512       26.499        0.141      332.290        0.856      862.514
01/21/2021  09:14:00       62.609     -103.603      -33.302       36.254       42.658       23.123     1314.342     1819.674      534.660        0.971        0.183      121.051       13.506        0.012      332.093        0.531      862.507
01/21/2021  09:15:00       77.854      -64.490      -23.018       32.056       39.123       15.992     1027.557     1530.576      255.755        0.678        0.141      101.095       12.636        0.016      332.046        0.454      862.491
01/21/2021  09:16:00       55.591      -49.847      -32.121       30.268       48.807       20.398      916.131     2382.158      416.084        0.516        0.186       74.667       12.258        0.027      332.389        1.020      862.469
01/21/2021  09:17:00      -19.182      -71.973      -13.193       46.257       40.131       28.319     2139.744     1610.474      801.987        0.514        0.228       74.485       18.304        0.060      332.389        1.020      862.456
01/21/2021  09:18:00       39.220      -75.692       -8.259       31.692       30.122       22.651     1004.356      907.310      513.051        0.488        0.121       85.250       20.979        0.061      332.241        0.773      862.465
01/21/2021  09:19:00       17.392      -54.872       -5.283       28.647       30.519       26.546      820.648      931.428      704.684        0.290        0.123       57.562       20.209        0.123      332.429        1.086      862.467
01/21/2021  09:20:00      -28.326       -9.301       -5.923       31.995       19.932       18.131     1023.690      397.302      328.751        0.134        0.087       29.813       11.984        0.162      332.430        1.088      862.475
01/21/2021  09:21:00      -15.171       -2.849        7.618       25.065       19.021       14.958      628.256      361.791      223.743        0.075        0.061       15.436       10.452        0.458      332.653        1.458      862.464
01/21/2021  09:22:00       -0.115       -8.855        1.038       31.756       28.177       27.872     1008.414      793.924      776.825        0.133        0.129        8.856       21.518        5.905      332.916        1.891      862.441
01/21/2021  09:23:00       19.739        4.153       -1.198       58.861       50.799       27.172     3464.626     2580.503      738.327        0.359        0.339       20.171       22.996        1.300      332.640        1.434      862.424
01/21/2021  09:24:00       91.062      -18.379      -15.892       38.009       25.808       20.056     1444.714      666.069      402.258        0.570        0.126       92.898       17.923        0.037      332.387        1.017      862.418
01/21/2021  09:25:00       59.598      -12.896      -16.870       41.379       56.460       32.797     1712.184     3187.760     1075.658        0.499        0.299       60.977       21.152        0.120      332.711        1.551      862.419
01/21/2021  09:26:00       64.263       -9.728      -16.668       43.529       34.507       29.887     1894.773     1190.731      893.250        0.424        0.199       64.995       18.525        0.081      332.572        1.321      862.415
01/21/2021  09:27:00       69.632       27.595      -29.512       49.008       72.224       35.004     2401.800     5216.315     1225.287        0.766        0.442       74.900       20.560        0.075      332.687        1.512      862.426
01/21/2021  09:28:00       69.209       19.920      -12.216       53.276       58.358       41.515     2838.322     3405.708     1723.467        0.665        0.398       72.018       29.163        0.164      332.599        1.366      862.458
01/21/2021  09:29:00       86.722      -25.690      -26.398       37.060       55.883       30.011     1373.438     3122.943      900.649        0.714        0.270       90.447       17.943        0.039      332.646        1.444      862.479
01/21/2021  09:30:00       78.143      -23.893      -26.171       50.475       72.859       33.825     2547.759     5308.478     1144.153        0.818        0.450       81.714       23.322        0.081      332.783        1.670      862.475
01/21/2021  09:31:00       56.219       13.082      -13.393       43.564       44.496       25.841     1897.829     1979.864      667.751        0.403        0.227       57.721       18.390        0.102      332.896        1.858      862.448
01/21/2021  09:32:00       82.301      -14.491      -13.737       62.026       67.954       42.953     3847.221     4617.753     1844.998        0.874        0.515       83.567       36.023        0.186      332.840        1.764      862.424
01/21/2021  09:33:00      104.041      -27.540      -23.081       52.855       59.639       38.421     2793.634     3556.836     1476.168        0.997        0.391      107.625       36.369        0.114      332.605        1.378      862.419
01/21/2021  09:34:00       92.790       41.357       -6.601       60.352       64.396       27.227     3642.311     4146.881      741.312        0.945        0.427      101.589       27.432        0.073      332.502        1.206      862.440
01/21/2021  09:35:00       32.218        1.205       -4.769       63.722       65.665       34.675     4060.485     4311.953     1202.335        0.532        0.479       32.241       24.156        0.561      332.956        1.957      862.440
01/21/2021  09:36:00       97.014       21.804       -9.779       72.943       65.256       33.241     5320.647     4258.336     1104.938        1.033        0.534       99.434       22.746        0.052      332.863        1.802      862.443
01/21/2021  09:37:00       78.692       52.050       -8.837       43.005       59.758       34.479     1849.396     3570.978     1188.798        0.779        0.330       94.349       19.207        0.041      332.864        1.804      862.440
01/21/2021  09:38:00       14.269       10.805       -3.619       53.175       64.666       29.956     2827.535     4181.675      897.341        0.412        0.395       17.898       28.808        2.591      332.856        1.790      862.447
01/21/2021  09:39:00       90.608      -48.569      -26.375       51.600       44.326       22.588     2662.603     1964.797      510.211        0.820        0.257      102.805       15.067        0.021      332.630        1.417      862.451
01/21/2021  09:40:00       87.490      -65.262      -33.667       35.939       28.491       21.282     1291.619      811.722      452.926        0.780        0.128      109.149       15.160        0.019      332.714        1.556      862.462
01/21/2021  09:41:00       60.842       -2.444      -16.187       40.475       40.843       24.871     1638.229     1668.175      618.562        0.395        0.196       60.892       19.733        0.105      333.105        2.202      862.475
01/21/2021  09:42:00       41.395      -32.714      -16.348       35.358       37.020       12.902     1250.172     1370.509      166.472        0.292        0.139       52.761        7.214        0.019      332.743        1.605      862.490
01/21/2021  09:43:00       50.402       -8.170        0.040       27.377       38.575       22.426      749.492     1488.062      502.908        0.267        0.137       51.060        7.679        0.023      333.069        2.142      862.494
01/21/2021  09:44:00       66.628       45.114      -11.686       43.309       53.019       23.500     1875.663     2811.030      552.268        0.592        0.262       80.464       14.779        0.034      332.893        1.852      862.500
01/21/2021  09:45:00       58.199      -18.546      -11.193       50.558       55.690       31.059     2556.089     3101.350      964.653        0.524        0.331       61.082       19.334        0.100      333.167        2.306      862.481
01/21/2021  09:46:00       74.628      -36.851      -17.202       79.670       33.026       27.394     6347.306     1090.743      750.436        0.770        0.409       83.230       27.381        0.108      332.929        1.913      862.486
01/21/2021  09:47:00       71.136       14.516      -16.692       42.224       67.958       36.620     1782.861     4618.301     1341.052        0.664        0.387       72.602       23.387        0.104      333.056        2.120      862.473
01/21/2021  09:48:00       76.236      -48.259      -27.706       54.047       58.124       25.181     2921.078     3378.363      634.105        0.792        0.347       90.227       16.716        0.034      332.986        2.007      862.447
01/21/2021  09:49:00       67.746      -49.360      -11.493       43.004       53.724       28.184     1849.349     2886.314      794.349        0.634        0.277       83.821       19.689        0.055      333.070        2.144      862.444
01/21/2021  09:50:00       58.368       13.593      -20.803       40.090       54.623       29.369     1607.230     2983.673      862.562        0.474        0.273       59.930       16.213        0.073      333.299        2.523      862.457
01/21/2021  09:51:00       13.309      -17.372      -21.797       43.180       52.037       23.520     1864.530     2707.829      553.189        0.304        0.256       21.884       17.441        0.635      333.449        2.771      862.460
01/21/2021  09:52:00       30.433      -43.312       -5.468       56.690       34.216       31.532     3213.787     1170.767      994.241        0.410        0.269       52.935       27.487        0.270      333.483        2.828      862.459
01/21/2021  09:53:00       94.257      -45.402      -21.025       38.879       71.166       30.518     1511.574     5064.610      931.371        0.945        0.375      104.622       35.733        0.117      333.103        2.198      862.455
01/21/2021  09:54:00       37.148      -18.725       -2.293       30.479       26.274       20.506      928.978      690.314      420.494        0.189        0.102       41.600       17.213        0.171      333.144        2.268      862.457
01/21/2021  09:55:00       59.503       69.275       -3.729       24.458       26.653       18.845      598.192      710.392      355.136        0.501        0.083       91.322       15.925        0.030      333.021        2.063      862.454
01/21/2021  09:56:00       80.178       65.084      -10.670       27.755       24.645       17.219      770.323      607.394      296.500        0.623        0.084      103.269       13.538        0.017      332.995        2.020      862.428
01/21/2021  09:57:00      109.145       36.703      -17.634       53.876       51.148       22.549     2902.625     2616.076      508.479        0.980        0.301      115.151       19.481        0.029      333.254        2.450      862.393
01/21/2021  09:58:00       93.159       36.375       -8.238       52.164       29.404       23.848     2721.094      864.570      568.745        0.711        0.208      100.009       16.539        0.027      333.180        2.326      862.393
01/21/2021  09:59:00       79.035       70.443      -14.517       35.796       24.595       18.563     1281.327      604.928      344.599        0.682        0.112      105.872        9.438        0.008      333.050        2.111      862.405
01/21/2021  10:00:00       58.561       26.190      -31.708       37.977       75.174       25.055     1442.245     5651.195      627.771        0.642        0.386       64.150       13.989        0.048      333.372        2.643      862.398
01/21/2021  10:01:00       46.686      -63.914      -35.744       63.543       54.105       30.217     4037.731     2927.380      913.046        0.771        0.394       79.149       19.978        0.064      333.410        2.707      862.383
01/21/2021  10:02:00       64.356      -29.118       -3.686       61.602       39.498       37.077     3794.818     1560.056     1374.732        0.586        0.336       70.637       43.456        0.378      333.303        2.530      862.382
01/21/2021  10:03:00       87.002      -19.305      -13.091       84.625       54.159       38.521     7161.398     2933.230     1483.885        0.984        0.579       89.118       29.337        0.108      333.268        2.472      862.374
01/21/2021  10:04:00      102.744      -35.684      -27.623       43.558       53.130       30.126     1897.333     2822.779      907.601        0.911        0.281      108.765       25.245        0.054      333.121        2.230      862.362
01/21/2021  10:05:00       99.135      -39.157      -23.708       56.951       49.407       31.705     3243.472     2441.003     1005.200        0.930        0.334      106.588       30.135        0.080      333.219        2.391      862.354
01/21/2021  10:06:00       65.864      -49.577      -21.377       56.165       47.885       23.420     3154.518     2293.005      548.490        0.662        0.300       82.438       28.538        0.120      333.403        2.695      862.357
01/21/2021  10:07:00       77.909      -47.708      -11.402       48.969       50.963       34.119     2397.938     2597.232     1164.116        0.732        0.308       91.356       28.066        0.094      333.355        2.616      862.349
01/21/2021  10:08:00       63.497       -2.388      -13.957       57.448       53.245       31.186     3300.324     2835.053      972.546        0.567        0.355       63.542       25.749        0.164      333.569        2.970      862.333
01/21/2021  10:09:00       40.304       11.240        6.098       44.802       49.249       25.721     2007.187     2425.505      661.588        0.344        0.255       41.842       19.546        0.218      333.495        2.846      862.308
01/21/2021  10:10:00       14.015       -5.624       -4.820       52.298       39.613       29.874     2735.064     1569.186      892.457        0.272        0.260       15.101       29.289        3.762      333.771        3.304      862.278
01/21/2021  10:11:00       89.608      -55.756      -38.976       33.894       49.532       23.924     1148.835     2453.454      572.338        0.842        0.209      105.538       15.931        0.023      333.571        2.972      862.244
01/21/2021  10:12:00      122.692      -26.833      -33.078       64.101       73.012       40.570     4108.965     5330.729     1645.921        1.397        0.554      125.592       32.463        0.067      333.577        2.983      862.198
01/21/2021  10:13:00       96.238      -12.427      -14.933       84.624       57.735       49.126     7161.273     3333.379     2413.409        1.127        0.645       97.037       48.055        0.245      333.648        3.101      862.179
01/21/2021  10:14:00      113.628      -28.796      -23.292       59.645       65.457       36.457     3557.560     4284.583     1329.085        1.173        0.459      117.220       26.899        0.053      333.528        2.901      862.196
01/21/2021  10:15:00       88.153       17.357       -7.600       43.010       25.491       21.572     1849.853      649.795      465.335        0.555        0.148       89.846        7.710        0.007      333.249        2.440      862.216
01/21/2021  10:16:00       67.147       31.650      -10.762       35.117       52.193       25.711     1233.186     2724.135      661.038        0.512        0.231       74.233       15.145        0.042      333.697        3.182      862.203
01/21/2021  10:17:00       37.340      -38.456       -7.670       46.834       60.182       27.843     2193.426     3621.874      775.256        0.476        0.330       53.601       23.265        0.188      334.100        3.849      862.167
01/21/2021  10:18:00       68.400      -66.931      -29.340       52.187       62.462       33.012     2723.517     3901.558     1089.788        0.887        0.386       95.699       18.566        0.038      333.882        3.489      862.151
01/21/2021  10:19:00       88.654       -8.680      -10.995       75.019       81.632       43.762     5627.895     6663.792     1915.126        1.113        0.710       89.078       39.766        0.199      333.908        3.532      862.142
01/21/2021  10:20:00      143.512       21.845      -12.623       77.286       67.683       38.017     5973.067     4580.949     1445.311        1.661        0.600      145.165       24.058        0.027      333.690        3.169      862.146
01/21/2021  10:21:00      145.425       -5.762      -18.841       98.141       46.625       33.996     9631.677     2173.878     1155.707        1.725        0.648      145.539       28.880        0.039      333.678        3.149      862.140
01/21/2021  10:22:00       69.794      -20.350      -16.530       36.180       46.046       31.802     1308.997     2120.251     1011.392        0.500        0.222       72.700       17.191        0.056      333.739        3.252      862.130
01/21/2021  10:23:00       60.453      -34.992      -12.540       42.795       33.421       26.482     1831.425     1116.934      701.287        0.434        0.182       69.850       22.931        0.108      333.871        3.470      862.127
01/21/2021  10:24:00       87.161      -33.425      -40.654       47.774       58.125       31.061     2282.336     3378.491      964.817        0.849        0.331       93.350       19.475        0.044      334.003        3.689      862.132
01/21/2021  10:25:00       92.899      -71.240      -27.864       34.510       42.970       21.563     1190.928     1846.453      464.943        0.899        0.175      117.070       22.566        0.037      333.705        3.197      862.146
01/21/2021  10:26:00       80.017      -53.987      -18.797       43.920       48.815       28.736     1928.929     2382.919      825.731        0.740        0.257       96.526       23.778        0.061      334.070        3.800      862.125
01/21/2021  10:27:00       74.716       -4.282      -18.023       75.227       53.838       40.595     5659.064     2898.537     1647.929        0.806        0.510       74.839       38.374        0.263      333.919        3.550      862.116
01/21/2021  10:28:00       69.536      -46.455      -21.407       83.878       70.645       41.537     7035.530     4990.676     1725.283        1.060        0.688       83.626       39.230        0.220      333.958        3.613      862.111
01/21/2021  10:29:00       50.460      -11.206       -6.752       47.457       81.268       35.802     2252.154     6604.428     1281.775        0.643        0.507       51.690       32.770        0.402      334.095        3.842      862.104
01/21/2021  10:30:00       47.565       54.207       -6.955       51.404       62.924       36.750     2642.348     3959.431     1350.586        0.660        0.398       72.116       24.389        0.114      334.304        4.188      862.108
01/21/2021  10:31:00      175.721       82.972      -23.540       61.515       47.182       30.833     3784.102     2226.150      950.665        2.264        0.348      194.325       25.772        0.018      333.604        3.027      862.098
01/21/2021  10:32:00       91.382       18.520      -13.664       62.765       71.483       34.427     3939.411     5109.825     1185.250        0.956        0.512       93.240       17.678        0.036      334.044        3.758      862.084
01/21/2021  10:33:00       98.795      -75.076      -28.843       39.539       45.181       29.685     1563.347     2041.301      881.199        1.036        0.224      124.084       19.303        0.024      333.744        3.259      862.084
01/21/2021  10:34:00       44.769       10.018       -1.913       37.776       64.783       24.473     1427.015     4196.775      598.931        0.416        0.311       45.876       22.019        0.230      333.958        3.613      862.079
01/21/2021  10:35:00       85.583       19.654      -12.737       50.884       55.373       27.040     2589.170     3066.173      731.163        0.713        0.319       87.811       23.000        0.069      333.819        3.382      862.080
01/21/2021  10:36:00      112.965       58.255      -11.479       56.824       34.211       23.549     3228.938     1170.370      554.542        1.062        0.248      127.102       21.608        0.029      333.792        3.340      862.069
01/21/2021  10:37:00      134.682       23.465      -12.107       41.334       49.913       31.072     1708.472     2491.289      965.451        1.200        0.258      136.711       15.940        0.014      333.821        3.386      862.061
01/21/2021  10:38:00      133.974       50.674      -24.030       58.371       63.501       31.121     3407.193     4032.381      968.546        1.475        0.420      143.237       20.903        0.021      333.879        3.482      862.051
01/21/2021  10:39:00       39.718       11.090        0.207       49.472       56.723       37.168     2447.526     3217.543     1381.463        0.437        0.352       41.237       26.154        0.402      334.139        3.914      862.030
01/21/2021  10:40:00      104.055      -18.069       -2.107       59.204       53.087       39.460     3505.170     2818.271     1557.085        0.952        0.394      105.612       24.177        0.052      333.942        3.590      862.001
01/21/2021  10:41:00      115.141       47.118      -12.018       27.453       66.597       23.644      753.649     4435.170      559.056        1.068        0.287      124.409       20.236        0.026      333.707        3.198      861.983
01/21/2021  10:42:00       98.106       40.434      -10.668       38.270       39.601       31.162     1464.611     1568.229      971.099        0.769        0.200      106.112       18.420        0.030      333.850        3.436      861.947
01/21/2021  10:43:00       63.967       -8.203      -14.540       41.705       66.381       35.274     1739.327     4406.461     1244.250        0.588        0.370       64.491       26.392        0.167      334.103        3.856      861.937
01/21/2021  10:44:00       74.999       15.385       -3.641       41.820       44.962       27.440     1748.933     2021.554      752.968        0.520        0.226       76.561       26.065        0.116      334.299        4.181      861.935
01/21/2021  10:45:00       15.687       30.805        0.827       48.950       43.106       23.485     2396.142     1858.096      551.553        0.300        0.240       34.569       19.538        0.319      334.339        4.247      861.931
01/21/2021  10:46:00       22.884      -29.569       -3.746       60.694       37.904       29.291     3683.773     1436.732      857.947        0.369        0.299       37.390       19.862        0.282      334.283        4.154      861.949
01/21/2021  10:47:00       20.226      -50.436      -15.240       42.977       52.674       23.572     1847.012     2774.531      555.658        0.418        0.259       54.340       21.215        0.152      334.328        4.228      861.933
01/21/2021  10:48:00       14.178      -49.422       -7.852       29.600       48.363       23.807      876.161     2338.982      566.793        0.324        0.189       51.415       11.554        0.050      334.304        4.188      861.921
01/21/2021  10:49:00       51.344       56.255       -1.942       36.288       43.321       17.508     1316.850     1876.683      306.513        0.465        0.175       76.163        5.404        0.005      334.255        4.108      861.901
01/21/2021  10:50:00       42.352       -4.810       -1.643       32.920       56.596       26.633     1083.752     3203.106      709.337        0.341        0.250       42.624        7.069        0.028      334.526        4.556      861.855
01/21/2021  10:51:00       62.810      -12.172      -20.674       37.729       73.289       31.004     1423.497     5371.238      961.252        0.614        0.388       63.978       26.485        0.171      334.334        4.239      861.805
01/21/2021  10:52:00       74.423      -40.220      -12.260       53.026       46.850       29.282     2811.745     2194.957      857.423        0.658        0.293       84.596       28.170        0.111      334.196        4.009      861.780
01/21/2021  10:53:00       61.770      -50.696      -16.899       33.649       37.964       23.307     1132.266     1441.259      543.235        0.489        0.156       79.910       16.915        0.045      334.374        4.307      861.789
01/21/2021  10:54:00       50.059      -42.401       -8.889       51.468       49.868       24.906     2648.921     2486.769      620.290        0.507        0.288       65.603       25.027        0.146      334.391        4.332      861.783
01/21/2021  10:55:00        8.915      -61.855      -10.637       70.433       48.769       26.773     4960.864     2378.429      716.777        0.604        0.403       62.494       24.678        0.156      334.398        4.343      861.789
01/21/2021  10:56:00      131.742      -72.993      -24.357       29.196       33.524       24.608      852.395     1123.864      605.546        1.293        0.129      150.611       16.986        0.013      333.948        3.598      861.800
01/21/2021  10:57:00       67.222      -20.894       -6.423       68.822       66.070       41.587     4736.440     4365.216     1729.514        0.791        0.542       70.394       42.988        0.373      334.460        4.448      861.785
01/21/2021  10:58:00      100.916        8.374      -22.525       76.933       78.765       44.959     5918.681     6203.900     2021.330        1.245        0.707      101.263       41.384        0.167      334.232        4.070      861.743
01/21/2021  10:59:00      118.093      -19.922      -19.208       41.243       45.509       28.145     1701.000     2071.045      792.153        0.964        0.228      119.761       22.940        0.037      334.041        3.754      861.734
01/21/2021  11:00:00       95.109      -38.539      -15.508       65.603       49.729       38.497     4303.802     2473.005     1482.034        0.951        0.413      102.621       41.197        0.161      334.255        4.107      861.704
01/21/2021  11:01:00      117.018        1.013      -20.695       40.389       50.915       22.303     1631.264     2592.359      497.433        0.942        0.236      117.023       16.823        0.021      334.128        3.898      861.695
01/21/2021  11:02:00       76.176       22.250       -8.632       67.419       55.386       20.838     4545.377     3067.656      434.208        0.721        0.402       79.359       25.033        0.099      334.252        4.103      861.675
01/21/2021  11:03:00      101.952      -38.338      -17.350       53.153       60.911       30.065     2825.235     3710.127      903.890        0.980        0.372      108.922       31.418        0.083      334.198        4.012      861.645
01/21/2021  11:04:00       74.991       -0.414       -2.131       75.670       52.145       42.456     5725.934     2719.130     1802.544        0.794        0.512       74.992       44.741        0.356      334.518        4.543      861.625
01/21/2021  11:05:00      106.232       31.342      -18.602       44.713       55.370       34.678     1999.270     3065.859     1202.564        0.944        0.313      110.759       25.214        0.052      334.397        4.344      861.615
01/21/2021  11:06:00      102.716       58.647      -19.440       57.944       68.219       29.924     3357.471     4653.834      895.436        1.164        0.445      118.279       18.841        0.025      334.436        4.408      861.611
01/21/2021  11:07:00       98.723       19.243      -17.873       54.629       76.102       28.483     2984.376     5791.475      811.260        1.001        0.479      100.581       21.898        0.047      334.338        4.245      861.599
01/21/2021  11:08:00       80.227       16.297      -14.508       52.954       51.374       25.466     2804.153     2639.323      648.504        0.650        0.305       81.866       13.082        0.026      334.528        4.561      861.585
01/21/2021  11:09:00       18.663      -52.352      -13.743       44.811       48.513       31.066     2008.059     2353.484      965.127        0.430        0.266       55.579       26.931        0.235      334.742        4.915      861.573
01/21/2021  11:10:00       56.562      -41.960      -20.410       52.062       62.366       30.078     2710.452     3889.578      904.657        0.644        0.375       70.426       22.310        0.100      334.675        4.803      861.557
01/21/2021  11:11:00      118.419       26.069      -10.730       70.117       46.250       30.844     4916.455     2139.080      951.371        1.141        0.400      121.254       20.134        0.028      334.572        4.633      861.545
01/21/2021  11:12:00      174.594       86.131      -15.535       58.810       40.995       23.233     3458.622     1680.587      539.763        2.191        0.284      194.683       18.978        0.010      334.303        4.184      861.531
01/21/2021  11:13:00       88.821       -1.263       -2.816       73.862       52.002       33.022     5455.658     2704.200     1090.474        0.857        0.463       88.830       37.490        0.178      334.594        4.669      861.524
01/21/2021  11:14:00      111.940       90.546      -17.456       37.234       31.556       19.061     1386.340      995.802      363.322        1.189        0.137      143.976       12.875        0.008      334.373        4.303      861.548
01/21/2021  11:15:00       64.924       86.397      -23.293       26.827       24.784       25.543      719.713      614.233      652.438        0.710        0.099      108.072        8.825        0.007      334.306        4.192      861.547
01/21/2021  11:16:00       90.477       47.910      -17.895       43.712       51.164       23.363     1910.730     2617.791      545.833        0.794        0.254      102.379       14.831        0.021      334.563        4.619      861.508
01/21/2021  11:17:00       68.669        6.628      -11.869       66.773       67.529       44.512     4458.699     4560.226     1981.338        0.795        0.550       68.988       28.095        0.166      334.851        5.098      861.428
01/21/2021  11:18:00      101.255      -33.483      -21.319       85.470       81.149       59.981     7305.197     6585.115     3597.681        1.465        0.874      106.647       59.873        0.315      334.680        4.812      861.399
01/21/2021  11:19:00      113.031      -17.188      -11.856       66.180       30.811       34.426     4379.763      949.319     1185.156        0.986        0.326      114.330       35.392        0.096      334.482        4.483      861.416
01/21/2021  11:20:00       65.964      -27.315      -13.790       57.162       29.190       29.009     3267.488      852.035      841.550        0.512        0.248       71.396       16.762        0.055      334.512        4.533      861.429
01/21/2021  11:21:00        1.073       -8.191       -6.724       37.943       41.075       22.023     1439.677     1687.149      485.011        0.186        0.181        8.261       15.914        3.711      334.784        4.986      861.412
01/21/2021  11:22:00       -3.182      -25.445       -7.032       48.914       45.515       25.145     2392.624     2071.621      632.275        0.290        0.255       25.643       17.890        0.487      335.070        5.460      861.381
01/21/2021  11:23:00       63.954      -18.291       -8.650       61.702       71.787       41.538     3807.161     5153.309     1725.397        0.759        0.534       66.518       36.430        0.300      334.868        5.125      861.362
01/21/2021  11:24:00      155.597       53.496      -12.163       77.058       58.593       40.690     5937.983     3433.187     1655.642        1.912        0.551      164.537       38.912        0.056      334.653        4.766      861.349
01/21/2021  11:25:00      106.284       55.569      -17.050       56.508       58.896       32.349     3193.140     3468.704     1046.444        1.119        0.385      119.934       20.476        0.029      334.740        4.912      861.338
01/21/2021  11:26:00       59.536       51.870       -9.125       36.393       37.236       29.377     1324.486     1386.487      863.035        0.495        0.179       78.962       16.731        0.045      334.696        4.839      861.329
01/21/2021  11:27:00       88.575       61.353      -13.734       54.889       43.188       17.259     3012.763     1865.219      297.873        0.849        0.259      107.749        8.680        0.006      334.548        4.594      861.333
01/21/2021  11:28:00      109.324       80.821      -17.711       34.228       26.991       18.667     1171.526      728.496      348.450        1.052        0.112      135.955       13.398        0.010      334.445        4.423      861.333
01/21/2021  11:29:00      131.586       88.407      -15.078       35.096       20.968       20.573     1231.709      439.636      423.252        1.373        0.105      158.527       18.363        0.013      334.429        4.396      861.288
01/21/2021  11:30:00      125.699       66.049      -18.054       34.456       23.482       16.018     1187.204      551.411      256.582        1.124        0.100      141.996       12.606        0.008      334.481        4.482      861.235
01/21/2021  11:31:00       32.727       35.659       -3.089       43.917       37.025       22.670     1928.722     1370.827      513.923        0.308        0.191       48.400       26.705        0.304      334.817        5.041      861.217
01/21/2021  11:32:00       63.901      -22.486      -13.377       61.151       50.697       37.829     3739.482     2570.193     1431.059        0.625        0.387       67.742       29.974        0.196      334.779        4.976      861.181
01/21/2021  11:33:00       87.494       21.040      -17.496       49.340       58.088       30.750     2434.480     3374.248      945.588        0.758        0.338       89.988       20.962        0.054      334.797        5.007      861.158
01/21/2021  11:34:00       41.265       34.260       -8.878       29.561       31.478       21.362      873.855      990.861      456.338        0.264        0.116       53.634       14.864        0.077      334.705        4.854      861.171
01/21/2021  11:35:00       64.635       -0.300      -17.400       45.120       42.473       23.150     2035.793     1803.996      535.916        0.443        0.219       64.635       23.844        0.136      334.817        5.041      861.170
01/21/2021  11:36:00       61.429       12.593      -13.795       34.392       56.114       20.073     1182.814     3148.807      402.933        0.443        0.237       62.707       15.331        0.060      334.775        4.970      861.152
01/21/2021  11:37:00       69.747       -1.518      -16.349       33.916       40.997       21.959     1150.313     1680.747      482.184        0.422        0.166       69.764       18.048        0.067      334.786        4.989      861.130
01/21/2021  11:38:00       40.440       -0.967      -16.808       26.623       41.120       23.430      708.781     1690.818      548.951        0.243        0.147       40.451       14.575        0.130      334.898        5.176      861.130
01/21/2021  11:39:00       20.013       12.359       -1.980       24.936       29.112       17.357      621.809      847.521      301.271        0.116        0.089       23.522       11.898        0.256      334.900        5.178      861.121
01/21/2021  11:40:00       39.091       25.865      -15.577       14.772       10.886       12.840      218.203      118.508      164.871        0.147        0.025       46.873        6.867        0.021      334.657        4.772      861.109
01/21/2021  11:41:00       25.888       22.743       -9.843       24.328       14.208       14.718      591.853      201.869      216.617        0.115        0.051       34.459       15.507        0.203      334.718        4.876      861.092
01/21/2021  11:42:00       24.240       45.495       -7.082       28.238       24.436       13.968      797.367      597.118      195.111        0.215        0.079       51.550       13.901        0.073      334.795        5.004      861.057
01/21/2021  11:43:00       56.475       71.519      -10.497       33.484       19.365       17.764     1121.189      374.984      315.574        0.511        0.091       91.128       18.589        0.042      334.769        4.959      861.020
01/21/2021  11:44:00       64.103       36.941      -15.224       17.969       14.308       11.011      322.873      204.731      121.236        0.318        0.032       73.985        7.027        0.009      334.696        4.839      860.987
01/21/2021  11:45:00       45.197       23.488      -15.123       16.395       12.239       11.663      268.812      149.782      136.019        0.169        0.028       50.936        7.889        0.024      334.779        4.977      860.973
01/21/2021  11:46:00       42.235       35.855      -12.883       17.756       15.483       13.929      315.272      239.728      194.027        0.199        0.037       55.402       10.720        0.037      334.762        4.950      860.961
01/21/2021  11:47:00       10.364       69.340        0.760       13.054       12.270       11.987      170.416      150.555      143.691        0.269        0.023       70.111        6.955        0.010      334.804        5.017      860.942
01/21/2021  11:48:00       39.342       75.631       -9.241       27.209       21.290       20.761      740.303      453.284      431.022        0.449        0.081       85.251       12.145        0.020      334.968        5.291      860.898
01/21/2021  11:49:00       75.430       57.084       -5.720       32.026       29.989       16.543     1025.676      899.336      273.668        0.559        0.110       94.595       14.317        0.023      334.964        5.284      860.861
01/21/2021  11:50:00       53.835       29.240       -4.308       30.081       22.448       17.316      904.846      503.908      299.859        0.274        0.085       61.263       10.784        0.031      335.080        5.477      860.832
01/21/2021  11:51:00       51.766       56.458       -0.187       44.102       22.982       19.380     1944.954      528.158      375.573        0.436        0.142       76.598       23.002        0.090      335.232        5.730      860.822
01/21/2021  11:52:00       34.700       47.948       -8.304       33.162       24.810       25.250     1099.744      615.539      637.547        0.296        0.118       59.187       18.950        0.103      335.273        5.797      860.817
01/21/2021  11:53:00       24.581       59.387       -4.552       25.075       20.090       17.534      628.751      403.591      307.438        0.275        0.067       64.273       14.793        0.053      335.092        5.498      860.808
01/21/2021  11:54:00       17.482       33.019       -7.890       32.397       12.050       18.381     1049.593      145.204      337.867        0.150        0.077       37.361       20.373        0.297      335.167        5.621      860.799
01/21/2021  11:55:00       16.016       31.014       -7.001       22.591       13.308       17.150      510.340      177.114      294.111        0.112        0.049       34.905       12.081        0.120      335.112        5.530      860.785
01/21/2021  11:56:00       29.931       33.777      -11.044       23.731       18.040       12.988      563.147      325.437      168.689        0.161        0.053       45.131       12.463        0.076      335.078        5.475      860.754
01/21/2021  11:57:00       25.043        4.825       -1.707       31.097       44.218       20.153      967.018     1955.193      406.124        0.199        0.166       25.504       16.372        0.412      335.448        6.088      860.728
01/21/2021  11:58:00      -14.820       -4.141       -7.266       43.945       42.123       19.993     1931.146     1774.311      399.730        0.220        0.205       15.388       14.640        0.905      335.348        5.921      860.700
01/21/2021  11:59:00      -10.711      -19.035       -5.849       43.824       39.840       21.272     1920.508     1587.197      452.496        0.223        0.198       21.842       26.098        1.428      335.516        6.201      860.695
01/21/2021  12:00:00      -41.962        6.109       -8.626       36.252       30.586       25.672     1314.210      935.528      659.058        0.239        0.145       42.405       15.738        0.138      335.498        6.170      860.688
01/21/2021  12:01:00        1.814       -9.024       -3.331       46.982       21.613       23.122     2207.278      467.113      534.627        0.165        0.160        9.205       12.465        1.834      335.622        6.377      860.673
01/21/2021  12:02:00        2.181      -18.882       -9.054       44.662       17.192       26.034     1994.693      295.575      677.762        0.171        0.148       19.007       26.658        1.967      335.681        6.477      860.650
01/21/2021  12:03:00        7.387      -34.040      -20.105       41.452       12.337       21.336     1718.252      152.209      455.213        0.197        0.116       34.832       24.070        0.478      335.631        6.393      860.639
01/21/2021  12:04:00       11.038       -3.159       -3.233       26.852       21.878       18.685      721.032      478.630      349.140        0.085        0.077       11.481       15.553        1.835      335.813        6.696      860.642
01/21/2021  12:05:00        7.141      -28.943       -7.976       31.081       20.808       19.178      966.026      432.969      367.783        0.136        0.088       29.811       19.645        0.434      336.078        7.139      860.629
01/21/2021  12:06:00        3.853       16.674       -7.665       38.589       16.869       21.176     1489.096      284.549      448.428        0.129        0.111       17.114       24.450        2.041      335.988        6.988      860.596
01/21/2021  12:07:00        8.703      -22.563       -4.029       40.462       45.147       28.323     1637.147     2038.271      802.192        0.254        0.224       24.183       21.132        0.764      336.027        7.055      860.580
01/21/2021  12:08:00       46.561      -19.099      -11.970       48.399       25.675       26.617     2342.465      659.208      708.468        0.319        0.186       50.326       22.525        0.200      335.990        6.992      860.570
01/21/2021  12:09:00       78.511      -56.492      -29.986       34.546       48.588       28.042     1193.458     2360.759      786.341        0.730        0.217       96.723       15.633        0.026      335.869        6.790      860.545
01/21/2021  12:10:00       52.219      -29.450      -34.936       43.849       52.416       30.569     1922.750     2747.395      934.439        0.521        0.280       59.951       27.204        0.206      336.144        7.248      860.524
01/21/2021  12:11:00       56.906       13.780      -12.483       43.552       44.125       23.604     1896.787     1947.007      557.126        0.399        0.220       58.551       11.218        0.037      335.876        6.802      860.500
01/21/2021  12:12:00       33.712      -30.148      -16.129       36.076       32.877       16.309     1301.513     1080.896      265.986        0.248        0.132       45.226       18.055        0.159      335.817        6.704      860.477
01/21/2021  12:13:00       80.219      -51.600       -9.628       33.407       33.222       24.781     1116.030     1103.708      614.082        0.601        0.142       95.382       20.517        0.046      335.623        6.381      860.441
01/21/2021  12:14:00       57.859      -10.930        4.025       49.829       35.730       34.506     2482.882     1276.631     1190.667        0.422        0.248       58.883       36.619        0.387      336.097        7.173      860.422
01/21/2021  12:15:00       21.005       28.383        2.558       43.096       39.261       26.434     1857.231     1541.439      698.755        0.267        0.205       35.310       24.831        0.495      336.295        7.502      860.418
01/21/2021  12:16:00       24.043       48.887       -2.903       24.540       17.946       20.382      602.211      322.060      415.416        0.216        0.067       54.480       13.201        0.059      335.740        6.574      860.417
01/21/2021  12:17:00       82.159      102.017      -14.624       36.090       26.606       25.435     1302.488      707.877      646.931        1.001        0.133      130.988       18.658        0.020      335.685        6.483      860.396
01/21/2021  12:18:00       74.798       73.615       -1.917       38.205       41.836       28.541     1459.651     1750.241      814.589        0.752        0.201      104.947       19.822        0.036      336.005        7.017      860.343
01/21/2021  12:19:00       40.339      -21.213      -12.327       63.595       67.212       55.210     4044.344     4517.446     3048.102        0.692        0.580       45.576       42.459        0.868      336.481        7.811      860.315
01/21/2021  12:20:00      114.326      -31.092      -33.297       81.868       73.098       41.050     6702.379     5343.272     1685.113        1.444        0.687      118.479       45.518        0.148      336.114        7.197      860.307
01/21/2021  12:21:00       70.608      -10.143       -6.715       59.413       54.267       34.454     3529.858     2944.889     1187.053        0.640        0.383       71.333       31.881        0.200      336.118        7.206      860.306
01/21/2021  12:22:00       53.191      -20.304      -22.675       36.621       36.961       20.908     1341.109     1366.135      437.156        0.345        0.157       56.934       17.407        0.093      335.973        6.964      860.318
01/21/2021  12:23:00       85.471      -29.736      -12.430       38.870       20.326       16.438     1510.863      413.150      270.208        0.527        0.110       90.495        6.831        0.006      335.849        6.757      860.334
01/21/2021  12:24:00      100.956       -4.730       -5.616       55.645       49.296       31.672     3096.392     2430.126     1003.103        0.839        0.326      101.067       28.664        0.080      336.103        7.179      860.314
01/21/2021  12:25:00      103.816       25.503      -12.394       65.727       61.281       32.013     4320.015     3755.307     1024.824        1.034        0.455      106.903       24.742        0.054      336.162        7.278      860.306
01/21/2021  12:26:00       29.443       26.051        3.052       49.566       48.729       29.419     2456.758     2374.479      865.456        0.362        0.285       39.313       18.239        0.215      336.443        7.748      860.298
01/21/2021  12:27:00        1.234      -68.916       -3.590       40.279       33.406       22.793     1622.427     1115.974      519.524        0.401        0.163       68.927       16.601        0.058      336.495        7.836      860.287
01/21/2021  12:28:00        4.717        7.983       -4.508       53.112       41.265       25.193     2820.914     1702.794      634.699        0.263        0.258        9.273       14.782        2.541      336.556        7.937      860.285
01/21/2021  12:29:00       90.210       68.355      -11.244       44.921       47.686       25.762     2017.901     2273.985      663.665        0.895        0.248      113.182       15.334        0.018      336.255        7.434      860.266
01/21/2021  12:30:00       52.770       -1.479      -12.823       49.324       56.807       38.332     2432.849     3227.025     1469.308        0.504        0.356       52.791       26.929        0.260      336.588        7.993      860.225
01/21/2021  12:31:00       71.560      -17.615       -9.252       67.366       51.156       41.357     4538.210     2616.888     1710.362        0.719        0.443       73.696       26.766        0.132      336.261        7.443      860.214
01/21/2021  12:32:00      114.726        4.372      -19.961       69.223       52.590       30.533     4791.845     2765.742      932.279        1.103        0.424      114.809       30.662        0.071      336.242        7.413      860.207
01/21/2021  12:33:00      111.810       73.255       -8.222       68.782       42.236       35.190     4730.945     1783.864     1238.313        1.284        0.388      133.670       36.842        0.076      336.244        7.415      860.208
01/21/2021  12:34:00       82.973       23.364      -12.954       77.879       77.265       44.026     6065.189     5969.811     1938.309        1.078        0.699       86.200       28.665        0.111      336.578        7.974      860.187
01/21/2021  12:35:00       56.703      -10.847       -5.204       63.589       53.620       38.639     4043.596     2875.131     1492.965        0.588        0.421       57.731       24.679        0.183      336.605        8.019      860.167
01/21/2021  12:36:00      106.980       -1.440      -14.946       54.378       40.596       33.899     2956.972     1648.040     1149.122        0.871        0.288      106.989       30.071        0.079      336.360        7.609      860.154
01/21/2021  12:37:00       65.931      -26.701      -17.811       57.144       51.557       38.846     3265.396     2658.154     1509.012        0.640        0.372       71.133       24.309        0.117      336.433        7.732      860.128
01/21/2021  12:38:00      111.614       68.411      -11.587       45.550       48.032       25.270     2074.764     2307.118      638.554        1.115        0.251      130.911       24.743        0.036      336.262        7.446      860.115
01/21/2021  12:39:00      187.399       75.209      -24.590       37.528       31.137       32.800     1408.314      969.497     1075.832        2.242        0.173      201.927       24.549        0.015      336.184        7.315      860.093
01/21/2021  12:40:00       82.274       18.874       -6.830       69.009       54.616       31.182     4762.258     2982.949      972.309        0.794        0.436       84.412       33.941        0.162      336.435        7.733      860.077
01/21/2021  12:41:00       92.966       38.523      -18.384       46.144       57.452       28.563     2129.228     3300.726      815.827        0.835        0.312      100.632       20.252        0.041      336.535        7.903      860.064
01/21/2021  12:42:00       60.572      -21.869      -18.343       67.810       74.494       40.626     4598.197     5549.303     1650.494        0.814        0.590       64.399       24.208        0.141      336.700        8.178      860.047
01/21/2021  12:43:00       72.680      -35.314       -6.646       62.706       55.411       31.067     3932.103     3070.391      965.156        0.727        0.398       80.805       31.855        0.155      336.383        7.646      860.050
01/21/2021  12:44:00      136.681     -118.634      -31.254       51.827       74.362       32.342     2686.069     5529.697     1045.984        2.150        0.463      180.986       41.064        0.051      336.267        7.451      860.021
01/21/2021  12:45:00      132.351      -21.896      -16.048       88.548       61.496       44.062     7840.780     3781.809     1941.442        1.591        0.678      134.150       34.531        0.066      336.507        7.854      859.969
01/21/2021  12:46:00      109.829       30.491      -10.809       71.251       43.671       25.801     5076.670     1907.181      665.698        1.038        0.382      113.983       24.570        0.046      336.209        7.357      859.959
01/21/2021  12:47:00       92.853        9.461      -18.535       64.430       71.379       31.622     4151.237     5094.941      999.928        0.965        0.512       93.334       17.746        0.036      336.636        8.072      859.943
01/21/2021  12:48:00      133.576      -14.310      -24.245       57.041       72.060       37.690     3253.704     5192.703     1420.554        1.425        0.493      134.340       34.034        0.064      336.474        7.799      859.924
01/21/2021  12:49:00       66.164      -10.083      -25.474       67.915       95.461       39.487     4612.501     9112.878     1559.214        1.020        0.764       66.928       25.242        0.142      336.588        7.991      859.912
01/21/2021  12:50:00        6.954      -44.175      -12.698       76.409       83.214       47.086     5838.376     6924.511     2217.064        0.857        0.749       44.719       41.973        0.881      336.740        8.245      859.916
01/21/2021  12:51:00      101.919      -83.479       -9.999       70.246       69.912       41.237     4934.566     4887.728     1700.521        1.449        0.576      131.743       41.660        0.100      336.498        7.838      859.950
01/21/2021  12:52:00       76.547      -17.277      -14.153       68.735       63.889       41.799     4724.454     4081.781     1747.130        0.845        0.528       78.472       37.182        0.225      336.667        8.122      859.961
01/21/2021  12:53:00       95.689      -12.935        3.374       86.360       60.951       44.500     7458.077     3714.966     1980.293        1.124        0.658       96.559       38.506        0.159      336.633        8.065      859.930
01/21/2021  12:54:00      116.457       44.849      -15.560       49.382       49.952       23.624     2438.617     2495.158      558.077        1.065        0.275      124.795       17.134        0.019      336.516        7.869      859.944
01/21/2021  12:55:00       97.282       46.422      -15.502       53.092       34.829       26.780     2818.762     1213.029      717.159        0.830        0.237      107.791       22.791        0.045      336.486        7.820      859.945
01/21/2021  12:56:00      105.685      -33.451      -11.202       86.642       94.455       57.554     7506.757     8921.804     3312.410        1.607        0.987      110.852       57.751        0.271      336.826        8.386      859.862
01/21/2021  12:57:00      103.306     -161.026      -41.888       78.807       43.235       33.908     6210.580     1869.289     1149.776        2.379        0.461      191.315       39.286        0.042      336.486        7.819      859.841
01/21/2021  12:58:00       32.751      -31.587       -2.165       44.676       37.671       22.722     1995.936     1419.108      516.292        0.300        0.197       45.501       20.651        0.206      336.770        8.296      859.902
01/21/2021  12:59:00       74.612      -29.043      -32.484       48.142       56.892       29.976     2317.678     3236.727      898.545        0.696        0.323       80.065       21.407        0.071      336.783        8.318      859.858
01/21/2021  13:00:00       82.888       17.622      -19.304       57.767       64.201       39.193     3337.042     4121.749     1536.100        0.827        0.450       84.740       34.647        0.167      336.716        8.206      859.799
01/21/2021  13:01:00       21.773       17.055      -20.316       41.340       36.564       18.340     1709.037     1336.896      336.342        0.228        0.169       27.658       17.314        0.392      336.697        8.174      859.801
01/21/2021  13:02:00      130.706       -6.546      -13.148       81.878       50.317       34.752     6703.995     2531.814     1207.669        1.387        0.522      130.869       37.206        0.081      336.556        7.935      859.824
01/21/2021  13:03:00       63.477      -10.515       -6.411       57.106       43.672       37.556     3261.141     1907.279     1410.431        0.538        0.329       64.342       36.270        0.318      336.587        7.990      859.836
01/21/2021  13:04:00       56.765      -12.812      -13.442       53.602       20.040       20.718     2873.175      401.622      429.220        0.363        0.185       58.193       26.559        0.208      336.398        7.673      859.855
01/21/2021  13:05:00       17.114       21.821        6.541       22.578       37.266       18.762      509.765     1388.719      352.009        0.153        0.113       27.731       14.149        0.260      336.608        8.024      859.850
01/21/2021  13:06:00      105.149       -8.533      -15.179       59.732       64.901       32.312     3567.885     4212.198     1044.038        1.009        0.441      105.495       24.698        0.055      336.608        8.023      859.765
01/21/2021  13:07:00      104.392      -62.984      -19.055       62.862       68.178       42.208     3951.687     4648.208     1781.524        1.280        0.519      121.921       37.035        0.092      336.721        8.213      859.685
01/21/2021  13:08:00      128.833      -10.513      -12.644       68.620       56.404       36.398     4708.645     3181.364     1324.786        1.304        0.461      129.261       30.053        0.054      336.728        8.225      859.698
01/21/2021  13:09:00      112.097       40.317      -19.642       65.668       58.977       33.400     4312.311     3478.274     1115.554        1.174        0.445      119.127       30.117        0.064      336.694        8.169      859.699
01/21/2021  13:10:00       79.527      -47.239      -33.624       59.162       70.543       34.877     3500.185     4976.266     1216.431        0.969        0.485       92.499       32.455        0.123      336.727        8.223      859.690
01/21/2021  13:11:00       51.382      -35.805      -13.053       31.685       46.990       19.286     1003.950     2208.052      371.943        0.384        0.179       62.627       20.361        0.106      336.654        8.101      859.723
01/21/2021  13:12:00       49.718      -17.593       -7.260       70.452       43.999       31.764     4963.430     1935.932     1008.980        0.537        0.395       52.739       36.192        0.471      336.736        8.239      859.708
01/21/2021  13:13:00      121.945       -0.988      -18.003       43.854       51.103       31.910     1923.211     2611.515     1018.242        1.037        0.278      121.949       25.443        0.044      336.538        7.907      859.696
01/21/2021  13:14:00      119.939      -18.558      -46.558       80.541       77.914       51.840     6486.786     6070.570     2687.425        1.607        0.762      121.366       46.474        0.147      336.913        8.531      859.636
01/21/2021  13:15:00      116.086     -108.930      -39.848       68.099       67.244       25.758     4637.416     4521.721      663.464        1.837        0.491      159.191       28.415        0.032      336.738        8.240      859.605
01/21/2021  13:16:00       72.932     -131.858      -21.719       45.381       43.016       26.316     2059.440     1850.373      692.545        1.389        0.230      150.684       25.718        0.029      336.699        8.174      859.653
01/21/2021  13:17:00       56.746      -45.913       -8.737       41.863       39.261       27.775     1752.473     1541.387      771.425        0.473        0.203       72.994       23.686        0.105      336.747        8.257      859.654
01/21/2021  13:18:00       84.185        3.527      -11.670       87.269       66.110       54.875     7615.872     4370.529     3011.246        1.111        0.750       84.259       49.484        0.345      336.936        8.572      859.588
01/21/2021  13:19:00      103.501      -46.530       -9.568       88.360       60.283       47.690     7807.572     3634.040     2274.363        1.334        0.686      113.479       38.143        0.113      336.785        8.318      859.565
01/21/2021  13:20:00      135.022       -1.051      -20.496       72.829       80.671       42.460     5304.058     6507.800     1802.837        1.613        0.681      135.026       36.986        0.075      336.746        8.254      859.570
01/21/2021  13:21:00       80.394        3.426      -14.610       59.253       63.269       39.531     3510.875     4003.009     1562.670        0.788        0.454       80.467       33.997        0.179      336.846        8.422      859.585
01/21/2021  13:22:00       86.066      -17.782      -11.569       61.731       47.939       35.078     3810.754     2298.118     1230.496        0.760        0.367       87.884       31.560        0.129      336.711        8.197      859.599
01/21/2021  13:23:00       89.717      -64.763      -44.609       61.461       73.870       32.056     3777.447     5456.850     1027.588        1.225        0.513      110.650       28.213        0.065      336.874        8.468      859.587
01/21/2021  13:24:00       95.672      -79.399      -32.450       53.237       66.413       33.373     2834.223     4410.670     1113.744        1.243        0.418      124.327       24.902        0.040      336.908        8.524      859.560
01/21/2021  13:25:00       72.292       18.755      -23.050       49.442       42.398       23.248     2444.493     1797.568      540.492        0.544        0.239       74.685       23.736        0.101      336.943        8.583      859.515
01/21/2021  13:26:00       -5.209      -17.313      -20.077       46.946       36.163       25.490     2203.916     1307.771      649.752        0.244        0.208       18.079       27.971        2.394      337.048        8.759      859.496
01/21/2021  13:27:00       59.459     -159.214      -22.566       31.543       35.386       28.984      994.949     1252.163      840.071        1.624        0.154      169.955       23.279        0.019      336.789        8.327      859.535
01/21/2021  13:28:00      121.831     -185.640      -45.381       51.230       42.477       27.004     2624.519     1804.281      729.226        2.826        0.258      222.047       26.775        0.015      336.642        8.079      859.543
01/21/2021  13:29:00      150.208     -152.175      -44.949       55.850       83.752       38.308     3119.189     7014.321     1467.488        2.967        0.580      213.822       41.894        0.038      336.667        8.121      859.497
01/21/2021  13:30:00      148.925     -108.753      -40.445       75.970       71.976       39.747     5771.374     5180.530     1579.814        2.408        0.627      184.406       47.692        0.067      336.616        8.035      859.487
01/21/2021  13:31:00       96.769      -68.614      -15.383       60.405       59.266       30.294     3648.706     3512.419      917.752        1.119        0.404      118.626       34.130        0.083      336.637        8.074      859.474
01/21/2021  13:32:00       89.922       14.141      -20.690       39.468       31.973       23.876     1557.721     1022.268      570.053        0.593        0.158       91.027       23.587        0.067      336.500        7.845      859.477
01/21/2021  13:33:00       72.428       -9.888      -14.672       70.669       57.738       41.943     4994.116     3333.631     1759.256        0.782        0.504       73.100       37.594        0.264      336.811        8.363      859.425
01/21/2021  13:34:00      102.620      -24.068      -31.257       75.478       56.409       42.844     5696.982     3181.946     1835.581        1.140        0.536      105.405       41.114        0.152      336.813        8.367      859.419
01/21/2021  13:35:00       96.727      -63.443      -27.822       72.461       82.525       30.570     5250.581     6810.426      934.500        1.357        0.650      115.677       32.854        0.081      336.767        8.289      859.493
01/21/2021  13:36:00      105.577     -104.223      -27.930       61.411       63.589       29.656     3771.361     4043.555      879.489        1.574        0.435      148.354       32.204        0.047      336.573        7.965      859.456
01/21/2021  13:37:00      160.915      -17.206      -20.425       75.781       52.919       39.144     5742.784     2800.381     1532.246        1.834        0.504      161.832       32.427        0.040      336.637        8.072      859.385
01/21/2021  13:38:00       93.713       40.514      -16.940       80.838       70.545       50.535     6534.759     4976.649     2553.750        1.238        0.703      102.095       42.395        0.172      336.636        8.070      859.328
01/21/2021  13:39:00       62.466      -50.935       -9.798       70.877       62.202       36.648     5023.562     3869.119     1343.107        0.841        0.512       80.600       42.205        0.274      336.626        8.053      859.378
01/21/2021  13:40:00      124.256        3.257      -10.104       28.331       25.206       23.900      802.634      635.367      571.226        0.878        0.100      124.299       20.663        0.028      336.477        7.806      859.413
01/21/2021  13:41:00       91.661      -57.527      -33.621       52.710       53.677       28.387     2778.302     2881.216      805.809        0.965        0.323      108.218       25.832        0.057      336.677        8.142      859.377
01/21/2021  13:42:00       67.201      -78.993      -34.155       51.009       83.783       31.562     2601.945     7019.535      996.140        1.127        0.531      103.711       20.409        0.039      336.858        8.441      859.331
01/21/2021  13:43:00       47.837      -46.087      -21.727       52.408       45.223       30.495     2746.592     2045.139      929.940        0.530        0.286       66.426       14.134        0.045      336.893        8.500      859.335
01/21/2021  13:44:00       71.449      -45.843      -16.246       55.745       83.054       33.070     3107.511     6897.911     1093.640        0.928        0.555       84.892       28.753        0.115      336.855        8.437      859.332
01/21/2021  13:45:00      119.531      -21.343      -13.369       77.202       71.787       54.296     5960.221     5153.359     2948.093        1.449        0.703      121.421       49.209        0.164      336.679        8.142      859.301
01/21/2021  13:46:00      117.671       -4.468      -19.195       74.776       70.527       36.628     5591.384     4974.028     1341.612        1.307        0.595      117.756       38.695        0.108      336.664        8.117      859.302
01/21/2021  13:47:00       90.881      -20.718       -9.408       83.204       65.115       38.933     6922.830     4239.928     1515.766        1.073        0.634       93.212       41.603        0.199      336.672        8.132      859.285
01/21/2021  13:48:00       69.026      -24.599       -6.084       81.981       59.803       46.532     6720.894     3576.438     2165.265        0.893        0.623       73.278       42.633        0.338      336.880        8.478      859.232
01/21/2021  13:49:00       55.454      -43.587      -28.175       91.465       77.460       32.127     8365.912     6000.053     1032.147        1.058        0.770       70.533       31.003        0.193      336.857        8.439      859.205
01/21/2021  13:50:00       75.413      -29.125       -8.106       55.313       68.165       32.363     3059.511     4646.535     1047.352        0.768        0.438       80.841       30.959        0.147      336.928        8.558      859.210
01/21/2021  13:51:00      118.168     -102.793      -27.710       52.693       45.572       34.404     2776.532     2076.846     1183.609        1.567        0.302      156.620       32.025        0.042      336.720        8.212      859.211
01/21/2021  13:52:00      133.887        7.689      -16.276       69.057       71.074       38.392     4768.928     5051.499     1473.938        1.477        0.565      134.107       24.723        0.034      336.777        8.305      859.206
01/21/2021  13:53:00       83.494       42.697       -5.704       49.715       58.298       25.539     2471.594     3398.680      652.238        0.767        0.326       93.778       15.131        0.026      336.781        8.312      859.220
01/21/2021  13:54:00       29.434       -7.345       -8.362       97.737       72.721       35.157     9552.513     5288.291     1235.993        0.853        0.804       30.336       35.474        1.367      336.967        8.623      859.189
01/21/2021  13:55:00       18.883     -100.945      -21.516       76.815       60.977       22.916     5900.541     3718.166      525.159        1.057        0.507      102.696       24.601        0.057      336.937        8.573      859.205
01/21/2021  13:56:00      112.391     -109.526      -42.479       37.332       79.959       24.106     1393.653     6393.521      581.093        1.740        0.418      156.933       18.456        0.014      336.586        7.987      859.228
01/21/2021  13:57:00      114.008      -92.098      -34.035       40.428       61.386       29.365     1634.394     3768.224      862.274        1.445        0.313      146.560       27.727        0.036      336.707        8.191      859.226
01/21/2021  13:58:00       44.181      -57.989      -26.339       44.745       38.034       24.807     2002.103     1446.554      615.397        0.504        0.203       72.902       26.998        0.137      336.933        8.567      859.250
01/21/2021  13:59:00       29.154      -27.209       -0.083       26.326       26.918       20.216      693.079      724.587      408.678        0.171        0.091       39.878       15.376        0.149      337.062        8.780      859.250
01/21/2021  14:00:00       79.377      -76.755      -33.242       61.850       50.265       23.316     3825.441     2526.553      543.620        1.009        0.345      110.417       25.270        0.052      337.048        8.760      859.222
01/21/2021  14:01:00       77.679     -116.571      -44.602       46.689       59.543       29.976     2179.897     3545.336      898.589        1.412        0.331      140.081       28.223        0.041      337.119        8.877      859.161
01/21/2021  14:02:00       -2.591      -49.817      -19.127       56.367       43.355       29.516     3177.215     1879.619      871.165        0.439        0.296       49.885       25.337        0.258      337.247        9.093      859.130
01/21/2021  14:03:00       12.131      -10.366        0.950       45.765       33.491       27.054     2094.397     1121.616      731.914        0.210        0.197       15.957       16.636        1.087      337.290        9.165      859.129
01/21/2021  14:04:00       47.605      -43.637      -20.600       44.697       38.367       23.009     1997.860     1472.058      529.427        0.430        0.200       64.579       10.348        0.026      337.221        9.048      859.126
01/21/2021  14:05:00       30.108     -104.942      -19.437       69.846       56.531       29.100     4878.429     3195.702      846.821        1.061        0.446      109.176       28.343        0.067      337.225        9.054      859.129
01/21/2021  14:06:00      115.406     -148.935      -31.272       44.402       61.326       26.246     1971.510     3760.852      688.877        2.145        0.321      188.414       28.600        0.023      336.868        8.457      859.125
01/21/2021  14:07:00       88.738     -143.412      -33.354       43.949       66.321       22.862     1931.522     4398.453      522.668        1.820        0.343      168.645       25.784        0.023      336.858        8.440      859.146
01/21/2021  14:08:00      135.346     -115.416      -29.855       35.449       45.260       26.397     1256.599     2048.491      696.792        1.827        0.200      177.874       22.713        0.016      336.870        8.460      859.168
01/21/2021  14:09:00      155.885     -131.732      -50.399       52.566       84.206       33.401     2763.208     7090.660     1115.625        2.758        0.548      204.092       36.599        0.032      336.838        8.406      859.079
01/21/2021  14:10:00      145.120     -141.826      -47.441       49.305       53.416       29.504     2430.995     2853.228      870.467        2.479        0.308      202.915       20.292        0.010      336.909        8.524      859.047
01/21/2021  14:11:00       55.841     -147.123      -19.304       53.412       56.463       31.608     2852.832     3188.106      999.064        1.609        0.352      157.364       29.111        0.034      337.146        8.922      859.064
01/21/2021  14:12:00       87.497     -148.530      -32.175       37.716       53.029       24.945     1422.528     2812.025      622.248        1.780        0.243      172.386       11.539        0.004      337.098        8.842      859.063
01/21/2021  14:13:00       72.027     -156.094      -30.217       26.320       60.529       20.254      692.752     3663.805      410.225        1.762        0.238      171.911        9.690        0.003      336.969        8.628      859.048
01/21/2021  14:14:00       57.813      -36.229      -20.805       30.393       34.486       18.431      923.720     1189.270      339.699        0.377        0.123       68.226       15.371        0.051      337.144        8.919      859.011
01/21/2021  14:15:00        9.687      -27.336      -24.283       43.121       55.285       30.075     1859.433     3056.438      904.535        0.362        0.291       29.002       20.323        0.491      337.405        9.357      858.960
01/21/2021  14:16:00       23.191      -42.061      -11.027       63.841       39.221       29.438     4075.638     1538.252      866.605        0.445        0.324       48.030       15.350        0.102      337.529        9.564      858.970
01/21/2021  14:17:00       23.570        5.454       -6.403       47.088       44.234       21.057     2217.289     1956.665      443.387        0.262        0.231       24.193       19.002        0.617      337.582        9.653      858.961
01/21/2021  14:18:00       63.612       -7.435      -12.333       36.923       54.722       23.510     1363.312     2994.448      552.698        0.458        0.246       64.045       24.337        0.144      337.382        9.319      858.931
01/21/2021  14:19:00       64.321       -3.405      -27.608       52.319       67.805       34.612     2737.240     4597.551     1198.015        0.672        0.427       64.411       26.282        0.166      337.527        9.562      858.914
01/21/2021  14:20:00      107.280        0.981      -19.700       65.223       59.027       36.592     4254.097     3484.135     1338.956        1.049        0.454      107.285       34.104        0.101      337.396        9.342      858.911
01/21/2021  14:21:00      102.258        2.198      -14.267       55.891       43.081       28.894     3123.827     1855.963      834.875        0.824        0.291      102.282       23.238        0.052      337.597        9.678      858.898
01/21/2021  14:22:00       55.720      -21.480       -0.572       64.419       63.223       35.484     4149.793     3997.135     1259.099        0.648        0.470       59.717       34.156        0.327      337.561        9.617      858.871
01/21/2021  14:23:00       73.272      -31.876      -11.107       77.633       54.980       39.718     6026.934     3022.773     1577.524        0.857        0.531       79.906       37.565        0.221      337.516        9.542      858.832
01/21/2021  14:24:00       66.764      -14.929       -4.841       59.848       38.586       35.202     3581.725     1488.874     1239.166        0.551        0.315       68.413       26.648        0.152      337.524        9.556      858.815
01/21/2021  14:25:00       70.135     -139.656      -31.726       43.365       61.814       28.505     1880.500     3821.007      812.545        1.597        0.326      156.278       19.703        0.016      337.509        9.530      858.787
01/21/2021  14:26:00       94.750     -177.231      -34.280       30.789       54.293       18.514      947.990     2947.745      342.786        2.290        0.212      200.968       11.604        0.003      337.343        9.253      858.778
01/21/2021  14:27:00      107.233     -101.815      -35.476       35.639       75.688       21.017     1270.143     5728.679      441.713        1.528        0.372      147.868       19.906        0.018      337.403        9.355      858.760
01/21/2021  14:28:00      101.715       17.352      -13.938       80.953       69.277       46.858     6553.337     4799.255     2195.684        1.219        0.677      103.185       50.309        0.238      337.625        9.724      858.711
01/21/2021  14:29:00      134.297       -9.035      -18.327       59.519       66.215       40.084     3542.493     4384.391     1606.738        1.399        0.477      134.600       28.911        0.046      337.478        9.477      858.699
01/21/2021  14:30:00       89.668       -6.357      -31.739       62.808       76.035       35.497     3944.888     5781.359     1260.052        1.003        0.549       89.893       34.508        0.147      337.638        9.748      858.683
01/21/2021  14:31:00       67.744      -19.344       -9.426       82.921       73.331       33.611     6875.875     5377.378     1129.670        0.921        0.669       70.452       28.264        0.161      337.620        9.716      858.670
01/21/2021  14:32:00       88.662      -27.921      -12.485       92.181       38.228       34.000     8497.315     1461.384     1155.975        0.995        0.556       92.954       38.351        0.170      337.660        9.786      858.655
01/21/2021  14:33:00       96.931      -46.499      -16.535       62.794       47.104       37.537     3943.041     2218.761     1409.052        0.970        0.379      107.507       36.135        0.113      337.670        9.800      858.655
01/21/2021  14:34:00      114.900      -13.826      -13.180       57.030       50.499       36.355     3252.399     2550.169     1321.656        1.034        0.356      115.729       31.770        0.075      337.550        9.600      858.648
01/21/2021  14:35:00       88.665      -11.863       -7.377       69.844       60.380       42.475     4878.204     3645.751     1804.166        0.919        0.516       89.455       27.378        0.094      337.621        9.719      858.630
01/21/2021  14:36:00      164.469      -10.737      -11.345       79.329       57.002       43.015     6293.162     3249.268     1850.312        1.934        0.570      164.819       35.468        0.046      337.551        9.600      858.605
01/21/2021  14:37:00       75.211       -9.399       -3.387       76.322       58.218       50.721     5825.077     3389.301     2572.599        0.877        0.589       75.796       47.648        0.395      337.646        9.761      858.591
01/21/2021  14:38:00       47.023       28.928       -4.931       55.131       47.324       34.730     3039.461     2239.578     1206.168        0.478        0.324       55.208       26.663        0.233      337.725        9.893      858.597
01/21/2021  14:39:00       80.740       -7.658       -7.019       60.508       61.305       33.152     3661.239     3758.270     1099.059        0.757        0.426       81.103       27.721        0.117      337.785        9.993      858.582
01/21/2021  14:40:00      120.900      -13.739      -10.790       67.560       56.702       36.051     4564.403     3215.102     1299.673        1.200        0.454      121.678       19.513        0.026      337.689        9.831      858.579
01/21/2021  14:41:00      128.702       -6.727      -16.607       61.286       52.847       32.751     3755.928     2792.803     1072.616        1.225        0.381      128.877       25.031        0.038      337.656        9.778      858.599
01/21/2021  14:42:00      172.468       24.430       -4.341      132.630      104.746       65.305    17590.765    10971.820     4264.772        3.159        1.641      174.190       62.696        0.130      337.631        9.732      858.446
01/21/2021  14:43:00      209.754     -146.359      -65.653      107.259      126.065       61.320    11504.411    15892.397     3760.193        5.044        1.558      255.769       65.212        0.065      337.681        9.815      858.448
01/21/2021  14:44:00      152.427     -249.405      -44.713       82.645       79.839       50.526     6830.150     6374.307     2552.839        5.159        0.788      292.295       43.650        0.022      337.672        9.800      858.423
01/21/2021  14:45:00       81.769     -202.800      -31.535       58.056       63.262       45.872     3370.483     4002.112     2104.216        2.914        0.474      218.664       44.622        0.042      337.665        9.789      858.429
01/21/2021  14:46:00       -3.442     -199.235      -18.628       80.608       69.772       49.839     6497.582     4868.121     2483.961        2.695        0.692      199.265       44.020        0.049      337.743        9.921      858.432
01/21/2021  14:47:00       99.211      -70.538      -30.785      114.835      109.313       46.633    13187.120    11949.227     2174.616        2.153        1.366      121.731       42.605        0.122      337.780        9.983      858.426
01/21/2021  14:48:00      187.723     -113.440      -34.116      112.390      116.004       65.687    12631.530    13456.950     4314.769        3.983        1.520      219.336       64.655        0.087      337.731        9.900      858.393
01/21/2021  14:49:00      171.158      -78.651      -14.159       96.189       61.195       45.288     9252.241     3744.850     2051.025        2.536        0.752      188.364       48.112        0.065      337.663        9.786      858.457
01/21/2021  14:50:00      181.963      -14.818      -16.196       90.812       56.530       40.558     8246.803     3195.665     1644.944        2.334        0.654      182.565       30.003        0.027      337.601        9.683      858.472
01/21/2021  14:51:00      168.337       17.615      -12.783       78.405       52.748       40.115     6147.415     2782.307     1609.250        1.967        0.527      169.256       35.511        0.044      337.576        9.643      858.451
01/21/2021  14:52:00      112.894      -25.750      -13.684      109.851       86.266       50.846    12067.232     7441.805     2585.288        1.784        1.105      115.793       37.829        0.107      337.651        9.767      858.402
01/21/2021  14:53:00       83.211       -0.357        6.555      114.590      103.661       83.726    13130.886    10745.533     7010.023        1.892        1.544       83.212       68.448        0.677      337.773        9.972      858.295
01/21/2021  14:54:00       59.043       -1.638      -15.737       75.442       94.089       56.137     5691.448     8852.781     3151.324        1.071        0.885       59.066       36.881        0.390      337.804       10.027      858.253
01/21/2021  14:55:00       68.873      -21.020      -12.483       77.099       80.808       39.568     5944.332     6529.955     1565.603        0.969        0.702       72.009       24.928        0.120      337.826       10.063      858.274
01/21/2021  14:56:00       66.359       -4.316      -16.790       60.646       73.764       31.979     3677.979     5441.152     1022.634        0.742        0.507       66.499       31.342        0.222      337.894       10.177      858.293
01/21/2021  14:57:00       32.031       44.969       -2.446       32.646       25.188       17.676     1065.729      634.432      312.425        0.253        0.101       55.211       14.664        0.071      337.658        9.780      858.337
01/21/2021  14:58:00       34.101       46.794      -19.977       23.871       29.286       20.519      569.830      857.648      421.019        0.280        0.092       57.901       13.566        0.055      337.748        9.930      858.338
01/21/2021  14:59:00       52.090       34.261        1.924       56.958       42.814       23.548     3244.211     1833.007      554.529        0.476        0.282       62.347       16.305        0.068      337.846       10.094      858.283
01/21/2021  15:00:00       54.237        5.485      -24.808       62.066       67.463       35.323     3852.161     4551.275     1247.705        0.662        0.483       54.514       28.393        0.271      337.884       10.159      858.263
01/21/2021  15:01:00       89.156      -26.130      -36.463       52.181       65.907       35.237     2722.877     4343.671     1241.625        0.913        0.415       92.906       29.281        0.099      338.017       10.382      858.238
01/21/2021  15:02:00        9.913      -34.697       -6.443       46.066       30.507       18.668     2122.096      930.678      348.489        0.237        0.170       36.086       20.149        0.312      338.111       10.539      858.266
01/21/2021  15:03:00       14.337      -76.614      -20.635       58.214       48.169       26.856     3388.837     2320.267      721.236        0.646        0.322       77.944       19.328        0.061      338.098       10.520      858.322
01/21/2021  15:04:00      -29.472       -3.108       -2.593       52.567       68.555       32.324     2763.322     4699.730     1044.873        0.469        0.425       29.636       36.421        1.510      338.185       10.663      858.316
01/21/2021  15:05:00       37.410      -72.633      -28.569       36.557       38.908       24.631     1336.451     1513.825      606.691        0.547        0.173       81.701        7.720        0.009      337.943       10.260      858.290
01/21/2021  15:06:00       49.627     -144.497      -28.095       71.954       64.869       35.480     5177.387     4207.931     1258.812        1.739        0.532      152.782       35.655        0.054      337.759        9.948      858.271
01/21/2021  15:07:00       45.820      -70.803      -18.934       46.161       50.604       32.094     2130.792     2560.800     1030.040        0.660        0.286       84.336       29.467        0.122      337.732        9.905      858.285
01/21/2021  15:08:00       77.497      -25.344      -16.155       55.189       52.805       31.852     3045.779     2788.385     1014.562        0.688        0.342       81.536       33.500        0.169      337.745        9.927      858.284
01/21/2021  15:09:00       66.183      -56.075      -21.294       60.881       53.820       29.001     3706.493     2896.620      841.038        0.771        0.372       86.745       27.373        0.100      337.712        9.871      858.259
01/21/2021  15:10:00       95.198     -129.465      -38.718       50.571       63.116       26.861     2557.466     3983.582      721.498        1.729        0.363      160.699       13.673        0.007      337.682        9.820      858.243
01/21/2021  15:11:00      102.453     -248.551      -36.979       53.602       79.255       32.251     2873.159     6281.412     1040.109        4.192        0.510      268.839       29.387        0.012      337.553        9.600      858.223
01/21/2021  15:12:00       15.383     -106.343      -28.313       51.785       75.375       32.154     2681.653     5681.351     1033.865        1.087        0.470      107.450       29.526        0.076      337.718        9.882      858.270
01/21/2021  15:13:00       23.652        3.341      -12.614       49.163       51.794       39.250     2417.002     2682.579     1540.581        0.368        0.332       23.887       21.424        0.804      337.752        9.939      858.337
01/21/2021  15:14:00      -70.081       14.096       -8.349       36.645       22.736       19.860     1342.861      516.919      394.413        0.372        0.113       71.485        8.466        0.014      337.697        9.846      858.328
01/21/2021  15:15:00       -9.542      -19.653      -11.927       27.973       21.338       17.764      782.472      455.320      315.574        0.109        0.078       21.847       10.093        0.213      337.804       10.024      858.291
01/21/2021  15:16:00       76.163       -5.837      -18.180       47.201       69.842       30.597     2227.914     4877.914      936.152        0.710        0.402       76.386       22.942        0.090      337.752        9.938      858.234
01/21/2021  15:17:00       61.167        0.623      -21.790       57.428       70.254       38.042     3297.922     4935.651     1447.207        0.695        0.484       61.171       30.612        0.250      337.874       10.142      858.189
01/21/2021  15:18:00       70.024      -26.966      -12.145       62.168       58.555       40.967     3864.844     3428.632     1678.316        0.737        0.449       75.037       35.621        0.225      337.837       10.080      858.186
01/21/2021  15:19:00       -5.226       -5.506      -12.105       63.542       32.613       23.585     4037.615     1063.620      556.243        0.293        0.283        7.592       19.751        6.769      337.920       10.220      858.212
01/21/2021  15:20:00      -80.114       -7.173      -14.035       55.494       35.065       28.348     3079.572     1229.545      803.619        0.589        0.256       80.434       24.975        0.096      337.907       10.198      858.221
01/21/2021  15:21:00      -55.780      -16.092        2.999       55.068       29.263       24.186     3032.439      856.327      584.980        0.393        0.224       58.055       18.133        0.098      338.006       10.365      858.235
01/21/2021  15:22:00      -50.318      -14.479       -3.027       47.892       29.775       22.851     2293.647      886.535      522.176        0.323        0.185       52.360       13.540        0.067      338.027       10.400      858.245
01/21/2021  15:23:00      -16.223        7.678        1.818       51.121       26.021       19.167     2613.352      677.076      367.380        0.199        0.183       17.949       12.990        0.524      338.005       10.361      858.241
01/21/2021  15:24:00      -23.310       27.771       -5.996       29.506       25.560       12.358      870.616      653.311      152.729        0.151        0.084       36.257        9.097        0.063      337.928       10.234      858.226
01/21/2021  15:25:00       15.916       60.729      -14.100       19.362       13.897       14.095      374.879      193.137      198.681        0.245        0.038       62.780       10.355        0.027      338.006       10.365      858.203
01/21/2021  15:26:00      -20.999       89.629      -11.958       38.981       18.196       17.532     1519.535      331.083      307.360        0.539        0.108       92.056        7.115        0.006      338.188       10.670      858.188
01/21/2021  15:27:00      -60.051       43.700       -9.987       38.248       48.704       21.719     1462.935     2372.074      471.731        0.496        0.215       74.268       23.228        0.098      338.358       10.956      858.185
01/21/2021  15:28:00      -57.824       -9.680       -7.878       76.062       39.794       23.092     5785.482     1583.598      533.218        0.570        0.395       58.629       20.059        0.117      338.111       10.540      858.185
01/21/2021  15:29:00       18.048      -68.854       -3.372       36.398       33.714       27.441     1324.830     1136.658      753.023        0.415        0.161       71.180       14.762        0.043      338.136       10.582      858.182
01/21/2021  15:30:00      -53.817      -82.539      -29.215       27.748       26.732       19.544      769.973      714.577      381.950        0.621        0.093       98.534       10.334        0.011      337.946       10.263      858.181
01/21/2021  15:31:00      -47.162      -40.201      -14.395       55.229       39.534       26.700     3050.219     1562.901      712.887        0.469        0.266       61.971        8.642        0.019      338.072       10.474      858.179
01/21/2021  15:32:00       -6.326      -73.702      -14.565       90.917       78.707       26.297     8265.983     6194.841      691.539        1.041        0.758       73.973       34.993        0.224      338.111       10.538      858.166
01/21/2021  15:33:00      103.966     -105.058      -35.041       59.055       77.500       31.512     3487.481     6006.173      993.030        1.678        0.524      147.804       22.479        0.023      337.965       10.294      858.161
01/21/2021  15:34:00       11.765       13.018       -5.936       50.082       24.795       22.692     2508.236      614.776      514.949        0.199        0.182       17.547       21.967        1.567      338.194       10.678      858.152
01/21/2021  15:35:00        0.737      -27.509       -1.281       24.453       20.588       19.282      597.936      423.870      371.784        0.108        0.070       27.518       15.340        0.311      338.338       10.920      858.152
01/21/2021  15:36:00       -4.440        6.407       -2.773       21.951       15.163       12.997      481.828      229.931      168.910        0.047        0.044        7.795        7.214        0.856      338.229       10.739      858.156
01/21/2021  15:37:00      -20.593       26.940      -12.726       28.930       41.319       17.239      836.927     1707.224      297.169        0.208        0.142       33.910       13.702        0.163      338.130       10.572      858.145
01/21/2021  15:38:00        5.820      -24.765        6.142       20.810       22.207       16.227      433.068      493.146      263.322        0.094        0.059       25.439       12.999        0.261      338.240       10.756      858.119
01/21/2021  15:39:00       -4.259      -31.077       -3.273       32.167       23.017       19.237     1034.695      529.764      370.052        0.146        0.097       31.368       11.008        0.123      338.176       10.649      858.098
01/21/2021  15:40:00       40.861      -32.113      -15.629       69.418       46.935       20.031     4818.877     2202.930      401.254        0.518        0.371       51.970       12.468        0.058      338.071       10.474      858.086
01/21/2021  15:41:00       82.690      -58.041      -15.566       34.155       31.071       18.165     1166.546      965.378      329.983        0.645        0.123      101.027       20.523        0.041      338.005       10.362      858.073
01/21/2021  15:42:00       22.351      -45.514       -3.869       36.317       43.137       22.663     1318.934     1860.784      513.604        0.314        0.185       50.706       19.382        0.146      338.138       10.586      858.058
01/21/2021  15:43:00      100.561     -142.246      -35.581       28.877       35.298       17.833      833.863     1245.928      318.008        1.700        0.120      174.203       18.519        0.011      337.969       10.302      858.036
01/21/2021  15:44:00       69.439     -127.241      -18.419       37.828       39.142       25.000     1430.969     1532.121      625.012        1.247        0.179      144.955       25.400        0.031      338.101       10.523      858.039
01/21/2021  15:45:00       48.168     -104.747      -12.120       34.551       41.558       24.291     1193.765     1727.050      590.040        0.847        0.176      115.291       15.152        0.017      338.099       10.520      858.055
01/21/2021  15:46:00      -48.110       -7.371        0.943       50.386       45.386       27.710     2538.788     2059.887      767.843        0.387        0.268       48.671       10.416        0.046      338.130       10.571      858.062
01/21/2021  15:47:00     -111.191        4.205       -7.423       38.471       42.307       27.321     1480.021     1789.888      746.445        0.823        0.201      111.271       18.649        0.028      338.104       10.527      858.074
01/21/2021  15:48:00      -95.777      -11.931       -5.755       60.911       43.177       28.050     3710.118     1864.235      786.785        0.785        0.318       96.517       19.647        0.041      338.103       10.527      858.088
01/21/2021  15:49:00      -54.490        3.536       -0.021       67.828       42.013       27.485     4600.694     1765.068      755.412        0.505        0.356       54.605       25.952        0.226      338.137       10.584      858.109
01/21/2021  15:50:00       -3.396       11.092       12.852       74.219       39.429       31.722     5508.444     1554.664     1006.263        0.418        0.403       11.600       33.436        8.308      338.116       10.549      858.123
01/21/2021  15:51:00      -35.256       -0.016       10.586       44.978       35.326       23.772     2023.055     1247.936      565.114        0.259        0.192       35.256       21.691        0.379      338.098       10.519      858.128
01/21/2021  15:52:00      -53.206       15.747       -4.674       39.301       26.170       15.774     1544.531      684.882      248.816        0.279        0.124       55.488        9.752        0.031      338.037       10.416      858.130
01/21/2021  15:53:00        0.987       75.000       -4.346       39.631       36.485       24.254     1570.644     1331.157      588.276        0.457        0.175       75.007       10.265        0.019      338.114       10.546      858.114
01/21/2021  15:54:00       37.735       56.849       -7.446       37.541       18.469       18.841     1409.352      341.109      354.981        0.341        0.105       68.233        8.927        0.017      338.121       10.556      858.094
01/21/2021  15:55:00       26.630      -14.438      -10.040       22.591       45.893       16.246      510.334     2106.164      263.920        0.195        0.144       30.292       12.498        0.170      338.042       10.425      858.098
01/21/2021  15:56:00      -14.485      -48.385      -12.625       21.928       19.399       14.123      480.841      376.309      199.462        0.188        0.053       50.507        7.712        0.023      338.175       10.648      858.114
01/21/2021  15:57:00      -37.997      -34.554        0.620       51.792       26.127       22.206     2682.446      682.633      493.094        0.325        0.193       51.358       19.127        0.139      338.228       10.736      858.126
01/21/2021  15:58:00       -9.553      -60.302      -24.780       54.265       47.738       31.402     2944.707     2278.908      986.075        0.527        0.310       61.054       27.245        0.199      338.154       10.611      858.104
01/21/2021  15:59:00       97.539      -47.926      -31.797       39.184       54.935       26.558     1535.350     3017.880      705.334        0.904        0.263      108.677       18.255        0.028      338.114       10.545      858.060
01/21/2021  16:00:00       79.673      -65.030      -24.533       41.004       27.647       21.893     1681.352      764.363      479.315        0.705        0.146      102.843       19.558        0.036      338.073       10.476      858.026
01/21/2021  16:01:00       -6.868      -20.879      -14.863       35.207       28.567       16.036     1239.536      816.062      257.149        0.151        0.116       21.979        9.284        0.178      338.111       10.541      858.037
01/21/2021  16:02:00      -36.206      -19.591       -4.048       38.365       29.842       20.273     1471.837      890.565      410.986        0.224        0.139       41.167       13.167        0.102      338.135       10.581      858.058
01/21/2021  16:03:00      -58.397       -8.391       -0.746       51.786       25.905       23.353     2681.747      671.082      545.380        0.369        0.195       58.997       13.854        0.055      338.160       10.623      858.070
01/21/2021  16:04:00       -2.547       -7.865       -0.779       18.603       23.039       11.221      346.066      530.803      125.910        0.054        0.050        8.267       10.231        1.532      338.189       10.670      858.071
01/21/2021  16:05:00       37.060       10.265      -11.719       38.958       19.505       16.309     1517.730      380.457      265.984        0.189        0.108       38.456       20.553        0.286      338.145       10.595      858.054
01/21/2021  16:06:00       60.998       -5.572       -3.266       36.258       24.157       19.125     1314.630      583.550      365.776        0.301        0.113       61.252       17.715        0.084      338.115       10.547      858.030
01/21/2021  16:07:00       33.379        0.629        2.644       50.607       36.257       36.431     2561.044     1314.549     1327.213        0.316        0.260       33.385       28.924        0.751      338.125       10.564      857.989
01/21/2021  16:08:00       64.698       17.153      -27.058       50.763       56.018       36.509     2576.836     3137.987     1332.904        0.613        0.352       66.933       25.617        0.146      338.130       10.572      857.947
01/21/2021  16:09:00       94.777      -28.549      -18.047       41.298       37.881       22.368     1705.525     1434.956      500.324        0.688        0.182       98.984       14.723        0.022      338.128       10.568      857.968
01/21/2021  16:10:00        2.575      -18.413       -8.906       43.160       14.894       11.393     1862.784      221.833      129.806        0.132        0.111       18.592        6.218        0.112      338.170       10.641      858.026
01/21/2021  16:11:00      -25.996       -9.432       -0.571       48.123       36.346       28.869     2315.812     1321.033      833.396        0.262        0.224       27.654       24.610        0.792      338.189       10.671      858.075
01/21/2021  16:12:00      -37.196      -22.724        9.874       55.302       41.913       33.237     3058.308     1756.741     1104.711        0.396        0.296       43.589       27.600        0.401      338.221       10.724      858.107
01/21/2021  16:13:00     -100.785       -8.673       -0.648       59.614       35.138       27.533     3553.844     1234.655      758.073        0.789        0.277      101.158       26.808        0.070      338.207       10.702      858.107
01/21/2021  16:14:00      -63.084       -2.074      -11.605       39.934       22.084       16.190     1594.756      487.724      262.126        0.323        0.117       63.118       14.874        0.056      338.211       10.707      858.096
01/21/2021  16:15:00        6.957       28.367       -5.293       28.346       32.810       18.286      803.485     1076.499      334.367        0.155        0.111       29.207       16.597        0.323      338.224       10.728      858.067
01/21/2021  16:16:00       33.773       44.310       -6.948       31.062       16.855       14.696      964.835      284.107      215.985        0.231        0.073       55.713       18.027        0.105      338.214       10.713      858.043
01/21/2021  16:17:00        8.325       39.617       -3.211       21.762       16.994       14.217      473.597      288.779      202.115        0.131        0.048       40.482       13.888        0.118      338.194       10.679      858.031
01/21/2021  16:18:00       -6.142       15.218      -13.766       22.417       15.946        8.740      502.517      254.274       76.389        0.065        0.042       16.411       10.839        0.436      338.204       10.697      858.025
01/21/2021  16:19:00      -78.926       13.366       -7.387       22.932       21.359       16.234      525.865      456.224      263.540        0.385        0.062       80.050        9.823        0.015      338.091       10.506      858.040
01/21/2021  16:20:00      -58.022        2.712       -4.474       51.264       29.905       18.365     2628.009      894.285      337.287        0.363        0.193       58.086       21.088        0.132      338.116       10.548      858.048
01/21/2021  16:21:00      -73.161       -9.832       -5.117       46.374       27.860       24.506     2150.584      776.195      600.531        0.450        0.176       73.819       16.306        0.049      338.157       10.618      858.040
01/21/2021  16:22:00      -87.517       -4.242       -9.222       37.754       26.260       18.441     1425.364      689.608      340.070        0.511        0.123       87.620       18.098        0.043      338.226       10.734      858.026
01/21/2021  16:23:00      -73.695        8.153      -14.195       29.444       26.700       20.204      866.974      712.868      408.204        0.384        0.099       74.145       15.031        0.041      338.248       10.770      858.024
01/21/2021  16:24:00      -75.503       15.140      -14.633       36.585       27.645       22.864     1338.495      764.261      522.778        0.438        0.131       77.006       22.005        0.082      338.400       11.026      858.027
01/21/2021  16:25:00      -47.164       33.120       -0.909       45.065       20.656       20.678     2030.849      426.670      427.583        0.310        0.144       57.631       19.029        0.109      338.447       11.105      858.017
01/21/2021  16:26:00      -24.209      119.277       -7.012       33.497       31.728       21.108     1122.061     1006.695      445.542        0.872        0.129      121.709       14.338        0.014      338.653       11.451      858.015
01/21/2021  16:27:00       45.862      111.897       -8.792       31.640       42.958       22.235     1001.083     1845.416      494.384        0.902        0.167      120.930       21.054        0.030      338.795       11.689      858.002
01/21/2021  16:28:00       83.808       89.027      -10.177       36.713       27.942       28.177     1347.865      780.741      793.964        0.899        0.146      122.269       19.439        0.025      338.521       11.228      857.988
01/21/2021  16:29:00       49.322       50.964        5.740       42.610       29.193       21.607     1815.588      852.217      466.858        0.410        0.157       70.922       17.798        0.063      338.414       11.049      857.986
01/21/2021  16:30:00       13.883       17.073       -1.547       24.199       13.826       12.708      585.593      191.158      161.502        0.071        0.047       22.005        8.200        0.139      338.445       11.100      857.994
01/21/2021  16:31:00      -19.290        7.667       -3.552       20.615       20.599       20.039      424.960      424.337      401.559        0.085        0.063       20.758       13.488        0.422      338.413       11.046      858.009
01/21/2021  16:32:00      -41.462      -11.028       -9.061       45.319       26.667       24.870     2053.843      711.128      618.514        0.265        0.169       42.904       25.394        0.350      338.233       10.745      858.034
01/21/2021  16:33:00      -32.357      -21.809        6.018       42.888       29.785       27.464     1839.367      887.135      754.281        0.252        0.174       39.020       23.516        0.363      338.231       10.741      858.053
01/21/2021  16:34:00       -7.585      -29.182      -18.592       36.701       18.216       12.964     1346.965      331.833      168.060        0.155        0.092       30.152        9.263        0.094      338.457       11.120      858.058
01/21/2021  16:35:00       35.084        9.203      -13.218       26.748       20.260       18.204      715.460      410.458      331.372        0.147        0.073       36.271       13.065        0.130      338.340       10.924      858.037
01/21/2021  16:36:00      -16.995       14.655       -9.658       21.273       11.831       14.668      452.539      139.982      215.140        0.070        0.040       22.441       12.165        0.294      338.324       10.898      858.045
01/21/2021  16:37:00      -62.939       -3.078      -13.631       42.022       21.941       13.904     1765.844      481.406      193.331        0.330        0.122       63.014       15.571        0.061      338.344       10.932      858.054
01/21/2021  16:38:00      -32.643       -8.324       -6.112       19.987       23.171       11.115      399.461      536.897      123.549        0.112        0.053       33.688       10.201        0.092      338.350       10.940      858.054
01/21/2021  16:39:00      -27.817       -2.648       -7.439       30.088       28.740       18.024      905.302      826.005      324.849        0.145        0.103       27.943       15.846        0.322      338.333       10.912      858.048
01/21/2021  16:40:00      -72.081      -16.100       -7.685       31.783       22.294       16.729     1010.160      497.040      279.850        0.365        0.089       73.857       10.390        0.020      338.294       10.848      858.029
01/21/2021  16:41:00      -49.054       -3.207       -3.820       33.128       23.867       17.747     1097.457      569.625      314.967        0.221        0.099       49.159       14.479        0.087      338.364       10.965      858.030
01/21/2021  16:42:00      -36.496       -0.173       -1.838       31.345       20.468       13.356      982.479      418.929      178.394        0.146        0.079       36.497        7.353        0.041      338.348       10.938      858.021
01/21/2021  16:43:00      -26.240      -17.470       -5.208       16.208        9.947        9.752      262.685       98.944       95.097        0.074        0.023       31.524        7.715        0.060      338.293       10.845      858.012
01/21/2021  16:44:00     -110.737       -9.347      -18.865       27.846       23.435       16.254      775.416      549.177      264.180        0.715        0.079      111.131       11.495        0.011      338.196       10.681      858.023
01/21/2021  16:45:00      -12.711       37.735       -6.612       46.875       39.425       12.902     2197.272     1554.329      166.462        0.277        0.196       39.818        9.383        0.056      338.463       11.131      858.003
01/21/2021  16:46:00       27.813      -51.376      -21.159       40.727       66.132       17.888     1658.674     4373.436      319.978        0.511        0.318       58.421       23.238        0.158      338.547       11.273      857.951
01/21/2021  16:47:00      -53.345      -46.066      -15.748       70.790       49.027       38.281     5011.284     2403.684     1465.405        0.705        0.444       70.482       30.956        0.193      338.720       11.563      857.970
01/21/2021  16:48:00     -106.223       10.059       -9.348      114.891       65.170       48.985    13200.027     4247.164     2399.531        1.566        0.992      106.699       41.954        0.155      338.723       11.566      857.955
01/21/2021  16:49:00     -260.786       30.046      -28.468       61.977       73.939       31.463     3841.163     5467.004      989.935        4.001        0.515      262.511       18.109        0.005      338.576       11.316      857.953
01/21/2021  16:50:00      -74.913      119.446      -11.412       73.076       49.487       22.510     5340.119     2448.991      506.707        1.415        0.415      140.994       15.504        0.012      338.566       11.304      857.972
01/21/2021  16:51:00     -124.796       36.602      -11.367       85.566       54.277       33.970     7321.471     2945.940     1153.943        1.423        0.571      130.052       38.483        0.088      338.723       11.568      857.970
01/21/2021  16:52:00      -85.705       -6.022       -3.246       98.398       55.179       33.565     9682.225     3044.767     1126.612        1.062        0.693       85.916       34.690        0.163      338.615       11.385      857.955
01/21/2021  16:53:00      -19.712      -14.240       -0.978       50.915       38.283       25.863     2592.348     1465.616      668.878        0.266        0.236       24.318       18.919        0.605      338.537       11.257      857.943
01/21/2021  16:54:00     -117.094      -31.369       -3.225      119.585       78.265       39.709    14300.550     6125.334     1576.834        1.835        1.100      121.223       42.830        0.125      338.571       11.312      857.936
01/21/2021  16:55:00     -242.769      -41.415      -18.880      163.032      101.462       73.563    26579.392    10294.502     5411.553        5.164        2.114      246.276       92.936        0.142      338.599       11.358      857.920
01/21/2021  16:56:00     -252.581      -10.502      -15.612      121.657       91.260       58.928    14800.338     8328.423     3472.478        4.537        1.330      252.799       64.931        0.066      338.634       11.415      857.921
01/21/2021  16:57:00     -169.580      -17.434      -12.339      113.959       91.611       49.897    12986.734     8392.617     2489.724        2.654        1.193      170.474       46.313        0.074      338.626       11.404      857.933
01/21/2021  16:58:00       -2.683       11.078       15.585      126.758       68.966       67.152    16067.595     4756.295     4509.392        1.285        1.267       11.398       69.260       36.921      338.581       11.330      857.942
01/21/2021  16:59:00     -221.118       16.385       -6.590       97.812       72.479       47.001     9567.264     5253.166     2209.096        3.311        0.851      221.724       40.808        0.034      338.593       11.347      857.966
01/21/2021  17:00:00     -142.850      -37.179        4.626      154.502      108.643       68.739    23870.832    11803.256     4725.017        3.110        2.020      147.609       60.087        0.166      338.580       11.327      857.971
01/21/2021  17:01:00     -108.896       40.871       -6.761      124.997       79.816       50.419    15624.222     6370.585     2542.028        1.905        1.227      116.313       38.164        0.108      338.625       11.402      857.952
01/21/2021  17:02:00     -116.403       24.986       -5.610       97.238       66.424       40.447     9455.289     4412.171     1635.997        1.485        0.775      119.054       27.122        0.052      338.625       11.402      857.945
01/21/2021  17:03:00     -181.799       36.578        0.372       87.217       71.511       46.517     7606.735     5113.837     2163.854        2.463        0.744      185.442       43.128        0.054      338.655       11.451      857.926
01/21/2021  17:04:00     -140.315       39.491      -11.160      120.002       57.491       48.435    14400.491     3305.254     2345.953        2.071        1.003      145.767       60.036        0.170      338.529       11.241      857.915
01/21/2021  17:05:00     -165.996       50.289       -3.810       76.312       45.724       39.604     5823.494     2090.706     1568.456        1.979        0.474      173.446       28.304        0.027      338.599       11.357      857.914
01/21/2021  17:06:00     -197.359       48.967      -15.480       64.704       55.936       34.012     4186.617     3128.844     1156.834        2.503        0.424      203.343       18.006        0.008      338.527       11.236      857.921
01/21/2021  17:07:00     -247.408       67.719       -5.680      108.074       94.083       58.644    11680.031     8851.604     3439.073        4.489        1.199      256.508       59.221        0.053      338.619       11.391      857.925
01/21/2021  17:08:00     -265.239      119.944      -11.728      135.738       99.655       56.124    18424.688     9931.081     3149.931        5.818        1.575      291.098       59.502        0.042      338.705       11.533      857.920
01/21/2021  17:09:00     -348.019       67.341       -1.515       99.697       70.778       58.778     9939.447     5009.577     3454.810        7.202        0.920      354.474       48.331        0.019      338.524       11.231      857.930
01/21/2021  17:10:00     -218.688       26.815       -0.431       86.070       73.473       48.299     7408.077     5398.326     2332.799        3.184        0.757      220.326       39.468        0.032      338.494       11.180      857.930
01/21/2021  17:11:00      -93.574       42.573       -6.775       88.832       69.722       43.306     7891.147     4861.198     1875.402        1.262        0.731      102.804       42.888        0.174      338.550       11.277      857.942
01/21/2021  17:12:00      -66.742       31.163       -2.907      103.248       78.539       53.778    10660.216     6168.408     2892.089        1.257        0.986       73.659       47.155        0.410      338.452       11.111      857.940
01/21/2021  17:13:00     -163.028       28.155       -5.515      150.202       73.880       55.197    22560.717     5458.266     3046.692        2.923        1.553      165.442       26.204        0.025      338.402       11.026      857.949
01/21/2021  17:14:00     -179.002       28.995       -6.363      113.756       94.765       53.539    12940.314     8980.387     2866.401        2.885        1.239      181.335       42.919        0.056      338.497       11.186      857.965
01/21/2021  17:15:00     -292.119       51.263      -27.150      150.356      100.401       54.584    22606.981    10080.328     2979.449        6.217        1.783      296.583       53.910        0.033      338.425       11.064      857.956
01/21/2021  17:16:00     -220.184       40.796      -15.628      108.360       81.819       53.940    11741.825     6694.326     2909.565        3.586        1.067      223.932       54.971        0.060      338.474       11.147      857.953
01/21/2021  17:17:00     -369.318       25.959      -21.269      270.554      115.754       81.411    73199.350    13398.926     6627.735       11.535        4.661      370.229       79.283        0.046      338.425       11.065      857.952
01/21/2021  17:18:00     -197.003        7.355        0.485      137.539      116.501       67.724    18917.046    13572.481     4586.495        3.796        1.854      197.140       69.385        0.124      338.384       10.997      857.952
01/21/2021  17:19:00     -245.745       46.779      -14.123      208.739       83.925       74.661    43572.178     7043.363     5574.303        5.947        2.809      250.158       88.346        0.125      338.332       10.909      857.967
01/21/2021  17:20:00     -424.659       88.212      -18.202      155.195      113.388       66.902    24085.596    12856.952     4475.839       11.492        2.071      433.724       71.542        0.027      338.343       10.926      857.958
01/21/2021  17:21:00     -325.864       -8.672      -12.695      175.356      126.913       78.638    30749.749    16106.936     6183.970        7.972        2.652      325.980       62.239        0.036      338.364       10.961      857.932
01/21/2021  17:22:00     -277.817       52.892        4.026      171.349      116.895       70.444    29360.543    13664.550     4962.343        6.398        2.399      282.807       77.024        0.074      338.372       10.975      857.914
01/21/2021  17:23:00     -121.694       42.589      -12.805      212.432       85.102       62.208    45127.196     7242.310     3869.785        3.650        2.812      128.931       26.604        0.043      338.282       10.825      857.919
01/21/2021  17:24:00     -278.228       55.972       -4.887      129.532       99.400       63.773    16778.545     9880.304     4067.017        5.564        1.536      283.802       61.148        0.046      338.364       10.962      857.908
01/21/2021  17:25:00     -215.459      107.295      -21.308      152.372      150.325       66.497    23217.227    22597.563     4421.836        5.430        2.512      240.696       79.149        0.108      338.432       11.077      857.920
01/21/2021  17:26:00     -289.280       47.740      -21.574      170.009      144.752       70.638    28903.088    20953.007     4989.708        7.062        2.742      293.193       54.702        0.035      338.337       10.917      857.923
01/21/2021  17:27:00     -291.547       29.012      -14.698      164.909      105.842       62.476    27194.955    11202.482     3903.238        6.417        2.115      292.987       72.652        0.061      338.357       10.951      857.932
01/21/2021  17:28:00     -215.081       17.764        6.257      144.128       94.813       54.587    20772.757     8989.444     2979.750        3.967        1.637      215.813       57.262        0.070      338.290       10.838      857.953
01/21/2021  17:29:00     -246.857       55.691       -6.910       96.189       72.009       49.379     9252.357     5185.325     2438.267        4.048        0.844      253.061       39.001        0.024      338.273       10.809      857.961
01/21/2021  17:30:00     -153.447        4.020       11.315      161.606       96.237       56.725    26116.473     9261.467     3217.757        3.113        1.930      153.500       44.054        0.082      338.190       10.670      857.967
01/21/2021  17:31:00     -296.015       12.188       -4.342      135.291       94.604       56.689    18303.607     8949.851     3213.661        5.912        1.523      296.265       59.301        0.040      338.180       10.653      857.983
01/21/2021  17:32:00     -188.858       -3.609       -5.628      153.973       83.635       44.368    23707.753     6994.755     1968.512        3.418        1.634      188.893       53.447        0.080      338.208       10.700      857.984
01/21/2021  17:33:00     -327.537      -38.195      -30.046      205.309      123.769       70.581    42151.837    15318.691     4981.677        8.603        3.123      329.756       65.290        0.039      338.180       10.653      857.985
01/21/2021  17:34:00     -203.735       29.674      -13.791      133.869       88.308       50.119    17920.910     7798.246     2511.957        3.540        1.412      205.885       50.949        0.061      338.199       10.685      858.010
01/21/2021  17:35:00     -429.032       90.386      -11.278      168.936      120.047       63.401    28539.239    14411.359     4019.658       11.966        2.349      438.449       66.595        0.023      338.204       10.694      858.004
01/21/2021  17:36:00     -311.535       56.719      -14.321      110.383      113.090       70.714    12184.393    12789.285     5000.421        6.522        1.499      316.656       70.906        0.050      338.108       10.532      858.018
01/21/2021  17:37:00     -254.571       42.464        4.964      122.664       97.017       48.898    15046.503     9412.395     2390.971        4.674        1.342      258.088       47.317        0.034      338.087       10.497      858.028
01/21/2021  17:38:00     -160.168       30.117        6.567      112.101       92.144       56.922    12566.657     8490.568     3240.066        2.545        1.215      162.975       52.188        0.103      338.120       10.554      858.020
01/21/2021  17:39:00     -355.903      -50.644      -22.862      142.677      115.846       70.934    20356.728    13420.266     5031.652        8.427        1.940      359.488       49.194        0.019      338.073       10.474      858.000
01/21/2021  17:40:00     -330.273       19.891      -19.372      149.753       90.604       70.910    22425.893     8209.172     5028.207        7.275        1.783      330.871       79.446        0.058      338.095       10.509      858.018
01/21/2021  17:41:00     -174.483       42.420       16.249      188.607      112.591       69.846    35572.745    12676.743     4878.412        4.281        2.656      179.565       61.788        0.118      338.036       10.413      858.021
01/21/2021  17:42:00     -335.976       68.476      -22.257      131.717       82.646       66.555    17349.356     6830.293     4429.616        7.333        1.430      342.883       62.333        0.033      338.102       10.521      858.031
01/21/2021  17:43:00     -249.782       32.874       -3.157      123.007       95.514       55.597    15130.844     9122.956     3091.039        4.541        1.367      251.936       53.227        0.045      338.059       10.450      858.037
01/21/2021  17:44:00     -229.134      -32.374       -0.766      168.173       92.103       74.672    28282.293     8482.905     5575.847        4.794        2.117      231.409       77.406        0.112      338.080       10.485      858.028
01/21/2021  17:45:00     -121.477      -31.205       -7.827      149.153       88.112       63.380    22246.593     7763.698     4017.032        2.490        1.701      125.420       55.489        0.196      338.066       10.463      858.038
01/21/2021  17:46:00     -150.360      -39.222      -25.817      155.356       93.140       47.692    24135.342     8675.020     2274.542        2.994        1.754      155.392       57.351        0.136      338.046       10.430      858.035
01/21/2021  17:47:00     -181.768        1.412       13.764      174.613       85.668       68.363    30489.859     7339.015     4673.482        3.786        2.125      181.773       87.332        0.231      338.008       10.365      858.031
01/21/2021  17:48:00     -302.295        9.376       -8.270      201.607      133.379       69.078    40645.348    17789.974     4771.810        7.736        3.160      302.440       60.311        0.040      337.996       10.346      858.043
01/21/2021  17:49:00      -78.814       47.298       -0.700      142.011       97.743       76.168    20167.074     9553.771     5801.630        2.198        1.776       91.917       61.931        0.454      337.974       10.310      858.062
01/21/2021  17:50:00     -251.647      -20.599       -4.932      209.699      119.073       72.213    43973.802    14178.448     5214.744        6.356        3.168      252.489       82.020        0.106      338.016       10.379      858.071
01/21/2021  17:51:00     -361.078       16.259      -31.761      217.810      136.411       81.899    47441.253    18607.972     6707.505       10.219        3.638      361.444       84.634        0.055      338.016       10.378      858.068
01/21/2021  17:52:00     -128.090      -11.411       -2.801      123.996      101.671       61.188    15374.887    10337.051     3743.948        2.299        1.473      128.597       51.252        0.159      337.980       10.319      858.062
01/21/2021  17:53:00     -244.361       23.207      -29.047      285.652      119.823       68.150    81596.826    14357.578     4644.405        8.082        5.030      245.461       44.658        0.033      337.993       10.340      858.081
01/21/2021  17:54:00     -268.654       17.381       -9.601      189.820      153.938       97.227    36031.619    23696.853     9453.005        7.086        3.459      269.215       75.966        0.080      338.020       10.386      858.083
01/21/2021  17:55:00     -229.970       23.475       -1.323      190.983      132.022       79.227    36474.639    17429.721     6276.929        5.680        3.009      231.165       81.201        0.123      337.998       10.347      858.080
01/21/2021  17:56:00     -206.865       44.220        2.605      103.816       65.754       49.765    10777.799     4323.573     2476.552        3.116        0.879      211.538       52.841        0.062      337.995       10.344      858.093
01/21/2021  17:57:00     -195.546      -18.567        1.333      116.116       96.070       53.385    13483.010     9229.376     2849.996        3.207        1.278      196.425       44.252        0.051      337.956       10.278      858.095
01/21/2021  17:58:00     -232.799       41.750       -1.958       99.690       90.180       62.394     9938.057     8132.480     3893.045        3.895        1.098      236.513       57.973        0.060      337.884       10.156      858.099
01/21/2021  17:59:00     -254.520       29.784       -5.756      147.749      135.082       62.433    21829.811    18247.012     3897.820        5.483        2.199      256.256       62.024        0.059      337.932       10.238      858.082
01/21/2021  18:00:00     -155.050       11.473      -17.553       94.322       72.846       37.627     8896.676     5306.602     1415.758        2.005        0.781      155.474       29.055        0.035      337.898       10.182      858.064
01/21/2021  18:01:00     -104.715       -6.315       -9.723      126.869       79.640       40.831    16095.714     6342.475     1667.163        1.760        1.205      104.905       38.502        0.135      337.903       10.190      858.062
01/21/2021  18:02:00     -266.582      -28.009      -13.543      187.861       95.732       70.315    35291.670     9164.622     4944.223        6.071        2.470      268.049       59.178        0.049      337.868       10.129      858.051
01/21/2021  18:03:00     -194.941      -41.677      -21.905      144.903      108.448       68.202    20996.904    11760.920     4651.499        3.881        1.870      199.346       58.727        0.087      337.863       10.121      858.075
01/21/2021  18:04:00     -121.672      -16.020        3.063      130.113       84.587       58.459    16929.394     7155.000     3417.484        2.128        1.375      122.722       68.951        0.316      337.855       10.108      858.074
01/21/2021  18:05:00     -155.377        3.191        0.025      166.988      118.494       80.362    27884.918    14040.892     6458.030        3.626        2.419      155.410       81.778        0.277      337.861       10.118      858.046
01/21/2021  18:06:00     -118.729      -29.048       19.579      154.240       89.077       68.323    23789.834     7934.655     4668.092        2.585        1.820      122.231       73.338        0.360      337.836       10.076      858.038
01/21/2021  18:07:00      -84.113       19.406        1.442      168.947      100.588       63.514    28543.169    10117.914     4034.017        2.507        2.135       86.323       51.564        0.357      337.826       10.060      858.035
01/21/2021  18:08:00     -331.175       57.388      -28.336      185.974      118.655       65.629    34586.244    14079.011     4307.146        8.336        2.649      336.110       81.452        0.059      337.856       10.109      858.040
01/21/2021  18:09:00     -333.815       40.582        5.444      122.049       94.386       50.670    14895.977     8908.762     2567.418        6.973        1.319      336.273       33.032        0.010      337.886       10.159      858.040
01/21/2021  18:10:00     -204.215       57.101        1.277      123.804       78.371       49.986    15327.370     6142.025     2498.557        3.446        1.198      212.047       48.294        0.052      337.886       10.160      858.045
01/21/2021  18:11:00     -209.259       32.848       -1.184      148.658       79.804       52.660    22099.098     6368.695     2773.076        3.805        1.562      211.821       50.903        0.058      337.822       10.053      858.041
01/21/2021  18:12:00     -214.150       37.020       -3.389      131.943       81.503       59.664    17409.019     6642.809     3559.771        3.742        1.381      217.326       46.486        0.046      337.821       10.051      858.045
01/21/2021  18:13:00     -180.600       33.784       12.591      178.094       83.011       64.690    31717.415     6890.794     4184.859        3.835        2.140      183.733       78.968        0.185      337.769        9.964      858.055
01/21/2021  18:14:00     -211.018      -41.520       11.983      198.027      127.300       93.495    39214.604    16205.237     8741.368        5.526        3.208      215.064       95.414        0.197      337.728        9.895      858.047
01/21/2021  18:15:00     -203.954       19.778        7.471      135.546      139.106       81.934    18372.791    19350.405     6713.130        4.323        2.222      204.911       62.049        0.092      337.776        9.977      858.030
01/21/2021  18:16:00     -221.951       58.054      -14.364      101.348       93.978       58.303    10271.508     8831.955     3399.203        3.767        1.125      229.418       44.921        0.038      337.821       10.050      858.035
01/21/2021  18:17:00     -252.504       38.073       29.829      211.275      112.963       85.849    44636.921    12760.675     7370.023        6.542        3.238      255.358       78.148        0.094      337.729        9.896      858.015
01/21/2021  18:18:00     -343.630       42.845       -4.983      138.528      125.615       62.017    19190.059    15779.153     3846.079        7.937        1.941      346.291       53.463        0.024      337.724        9.889      858.016
01/21/2021  18:19:00     -327.644       34.541      -26.610      122.102      122.653       67.862    14908.785    15043.647     4605.211        7.190        1.728      329.459       65.423        0.039      337.692        9.835      858.027
01/21/2021  18:20:00     -399.402      114.027      -27.020      106.652       90.064       66.266    11374.753     8111.569     4391.131        9.856        1.194      415.360       44.448        0.011      337.700        9.848      858.035
01/21/2021  18:21:00     -256.427       81.568       19.893      181.596      117.027       70.143    32977.185    13695.386     4920.053        6.219        2.580      269.087       81.080        0.091      337.688        9.828      858.048
01/21/2021  18:22:00     -292.526       78.542       -0.155      127.659      106.935       58.814    16296.803    11435.118     3459.075        6.146        1.560      302.887       55.701        0.034      337.718        9.879      858.067
01/21/2021  18:23:00     -196.804       65.392      -22.825      142.556       79.333       55.912    20322.077     6293.793     3126.166        3.663        1.487      207.384       60.300        0.085      337.683        9.820      858.074
01/21/2021  18:24:00     -316.000       54.501       -8.267      148.402       80.207       53.682    22023.116     6433.227     2881.772        6.711        1.567      320.666       45.155        0.020      337.715        9.873      858.060
01/21/2021  18:25:00     -208.895       20.365       -8.341      160.644       79.553       60.849    25806.342     6328.662     3702.577        3.997        1.792      209.885       58.884        0.079      337.681        9.816      858.036
01/21/2021  18:26:00     -264.869       92.313        2.566      171.963      130.962       72.217    29571.444    17151.051     5215.307        6.530        2.597      280.495       77.570        0.076      337.719        9.880      858.006
01/21/2021  18:27:00     -355.136      107.482        0.141      139.671      117.935       73.988    19507.981    13908.687     5474.216        8.827        1.945      371.044       76.667        0.043      337.698        9.846      857.997
01/21/2021  18:28:00     -417.705      155.412       -1.294      159.330      114.193       69.602    25385.933    13040.030     4844.393       12.094        2.164      445.679       64.626        0.021      337.710        9.865      857.964
01/21/2021  18:29:00     -189.382       11.127       -4.335      150.267       96.579       63.529    22580.040     9327.409     4035.908        3.597        1.797      189.708       74.448        0.154      337.632        9.736      857.965
01/21/2021  18:30:00      -91.288       16.162        3.289      126.298      116.394       59.950    15951.207    13547.596     3593.952        2.084        1.655       92.708       51.026        0.303      337.683        9.822      857.982
01/21/2021  18:31:00     -101.097        1.501       -4.031      150.381       95.855       65.207    22614.347     9188.142     4251.976        2.314        1.803      101.108       68.288        0.456      337.662        9.785      857.987
01/21/2021  18:32:00     -167.530      -20.185       -9.672      146.496       99.606       70.058    21460.982     9921.401     4908.169        3.242        1.815      168.742       74.758        0.196      337.653        9.770      857.994
01/21/2021  18:33:00     -204.731        8.040      -16.486      129.736       98.907       56.431    16831.495     9782.599     3184.466        3.602        1.490      204.888       44.861        0.048      337.658        9.779      858.022
01/21/2021  18:34:00     -185.110       44.076       -9.221      149.816       97.437       57.946    22444.915     9493.992     3357.702        3.579        1.765      190.285       59.835        0.099      337.693        9.838      858.044
01/21/2021  18:35:00     -247.819      -10.502      -10.057      170.735       89.447       63.086    29150.485     8000.720     3979.901        5.137        2.057      248.042       67.013        0.073      337.659        9.781      858.062
01/21/2021  18:36:00     -127.761      -25.055      -10.294      130.144       89.045       58.483    16937.333     7928.940     3420.272        2.267        1.414      130.195       49.664        0.146      337.649        9.765      858.084
01/21/2021  18:37:00     -195.849        2.704        2.383      149.833      113.346       66.316    22449.920    12847.399     4397.823        3.902        1.985      195.868       65.399        0.111      337.669        9.797      858.078
01/21/2021  18:38:00     -287.564      -26.625      -10.371      185.215      107.487       82.322    34304.585    11553.540     6776.945        6.806        2.632      288.794       94.427        0.107      337.665        9.790      858.070
01/21/2021  18:39:00     -174.814       42.018       -5.406      141.416       98.033       59.970    19998.541     9610.427     3596.376        3.277        1.660      179.793       58.135        0.105      337.643        9.753      858.074
01/21/2021  18:40:00      -62.104       36.939       16.246      116.642       94.346       73.570    13605.402     8901.198     5412.529        1.670        1.396       72.260       69.266        0.919      337.652        9.771      858.075
01/21/2021  18:41:00     -275.394       29.585      -17.530      193.181      103.128       79.036    37318.898    10635.347     6246.741        6.560        2.710      276.978       75.555        0.074      337.664        9.791      858.079
01/21/2021  18:42:00     -179.034       -1.410      -14.567      146.552       83.449       71.576    21477.615     6963.736     5123.157        3.291        1.678      179.039       74.026        0.171      337.619        9.713      858.082
01/21/2021  18:43:00     -158.628      -42.637      -17.793      156.429       83.622       70.601    24470.044     6992.646     4984.504        3.186        1.822      164.258       75.863        0.213      337.639        9.747      858.081
01/21/2021  18:44:00      -27.718        5.972       11.840       98.708      100.818       65.965     9743.347    10164.221     4351.319        1.260        1.213       28.354       32.474        1.312      337.707        9.863      858.080
01/21/2021  18:45:00     -228.538       29.246       -9.552      173.107       98.783       69.216    29965.923     9758.041     4790.840        4.884        2.226      230.402       82.694        0.129      337.635        9.739      858.076
01/21/2021  18:46:00     -161.077       56.752       23.591      166.176      112.086       66.700    27614.477    12563.252     4448.868        3.717        2.231      170.782       67.728        0.157      337.692        9.836      858.062
01/21/2021  18:47:00     -239.841       14.617       -1.751      127.608      113.074       65.264    16283.842    12785.796     4259.410        4.553        1.666      240.286       72.857        0.092      337.620        9.714      858.051
01/21/2021  18:48:00     -146.386        2.811      -15.176      190.755       99.810       61.129    36387.532     9961.953     3736.756        3.587        2.504      146.413       70.417        0.231      337.566        9.622      858.051
01/21/2021  18:49:00     -141.319       61.331       24.296      154.830      101.445       67.577    23972.333    10291.122     4566.678        3.157        1.942      154.054       66.901        0.189      337.649        9.764      858.030
01/21/2021  18:50:00     -304.535       51.987       -3.670      208.930      127.461       65.734    43651.579    16246.367     4320.920        7.982        3.211      308.940       87.163        0.080      337.594        9.671      858.010
01/21/2021  18:51:00      -84.124       -3.206       12.268      129.116       93.551       59.536    16670.941     8751.772     3544.490        1.810        1.448       84.185       43.150        0.263      337.582        9.652      858.003
01/21/2021  18:52:00     -226.805      -24.195      -11.443      238.144       98.092       72.120    56712.496     9622.124     5201.241        6.183        3.577      228.092       86.948        0.145      337.563        9.618      857.998
01/21/2021  18:53:00     -186.312       14.735       -8.765      187.601      113.082       73.056    35194.303    12787.532     5337.108        4.415        2.666      186.894       65.838        0.124      337.572        9.635      857.986
01/21/2021  18:54:00     -220.121       31.196      -27.254      183.837      104.622       56.072    33795.865    10945.781     3144.084        4.902        2.394      222.320       61.962        0.078      337.590        9.663      857.983
01/21/2021  18:55:00     -259.450       30.057       -5.699      114.397       76.765       59.610    13086.771     5892.839     3553.324        4.539        1.127      261.186       45.200        0.030      337.631        9.731      857.990
01/21/2021  18:56:00     -247.506       27.668      -10.154       96.405       99.852       51.128     9293.909     9970.327     2614.116        4.200        1.094      249.048       48.098        0.037      337.530        9.563      857.980
01/21/2021  18:57:00     -156.809       69.093        0.748      141.275       96.153       62.693    19958.742     9245.460     3930.469        3.124        1.657      171.356       61.490        0.129      337.643        9.754      857.979
01/21/2021  18:58:00     -267.772       80.864       -3.296      185.746      120.923       65.900    34501.645    14622.347     4342.849        6.585        2.673      279.716       76.451        0.075      337.601        9.683      857.980
01/21/2021  18:59:00     -356.548      101.677       -3.417      136.692      101.857       69.916    18684.759    10374.910     4888.250        8.570        1.697      370.762       58.605        0.025      337.610        9.697      857.980
01/21/2021  19:00:00     -311.716       66.638       10.875      133.073       98.242       67.630    17708.540     9651.526     4573.821        6.682        1.597      318.760       59.351        0.035      337.606        9.690      857.973
01/21/2021  19:01:00     -308.314       59.797       -0.715      142.739      105.947       67.815    20374.287    11224.750     4598.856        6.741        1.810      314.060       64.698        0.042      337.574        9.637      857.973
01/21/2021  19:02:00     -203.557       11.682        2.995      179.381      102.444       75.369    32177.462    10494.790     5680.475        4.496        2.418      203.892       84.744        0.173      337.525        9.553      857.966
01/21/2021  19:03:00     -131.721       25.698       -4.420      145.907       69.320       61.437    21288.894     4805.316     3774.461        2.394        1.493      134.204       29.386        0.048      337.474        9.472      857.959
01/21/2021  19:04:00     -247.143      -12.192       -2.471      136.531       95.304       68.782    18640.591     9082.769     4730.947        4.684        1.623      247.444       61.120        0.061      337.476        9.473      857.953
01/21/2021  19:05:00     -228.736       14.482       -4.848      155.139       92.052       48.028    24068.152     8473.525     2306.728        4.369        1.742      229.194       53.361        0.054      337.494        9.503      857.961
01/21/2021  19:06:00     -273.689       48.730       -1.140      108.536       89.410       49.408    11780.167     7994.226     2441.120        4.974        1.111      277.993       55.229        0.039      337.477        9.475      857.962
01/21/2021  19:07:00     -453.294      103.121      -22.980      106.905      101.171       68.414    11428.615    10235.531     4680.497       12.149        1.317      464.876       58.694        0.016      337.454        9.436      857.945
01/21/2021  19:08:00     -359.842      119.783       -1.490      130.590      100.689       64.428    17053.682    10138.190     4151.006        8.758        1.567      379.255       71.681        0.036      337.436        9.405      857.926
01/21/2021  19:09:00     -271.489       71.685       -4.443       93.255       84.393       59.838     8696.458     7122.107     3580.617        4.913        0.970      280.794       40.373        0.021      337.477        9.474      857.920
01/21/2021  19:10:00     -295.524       30.219        5.658      145.655       82.027       62.488    21215.291     6728.408     3904.754        6.006        1.592      297.065       70.445        0.056      337.422        9.382      857.891
01/21/2021  19:11:00     -230.629       70.136      -20.208      175.492      103.364       83.454    30797.434    10684.127     6964.512        5.347        2.422      241.058       85.670        0.126      337.480        9.479      857.852
01/21/2021  19:12:00     -304.536       46.869        1.210      111.317       88.008       66.616    12391.570     7745.384     4437.734        5.975        1.229      308.122       64.982        0.044      337.404        9.351      857.835
01/21/2021  19:13:00     -154.540       49.346       14.819      152.878      114.708       81.347    23371.542    13157.862     6617.290        3.483        2.157      162.227       72.355        0.199      337.374        9.304      857.832
01/21/2021  19:14:00     -232.715       44.830       -1.417      151.086      101.922       63.444    22827.036    10388.054     4025.112        4.670        1.862      236.994       58.724        0.061      337.373        9.299      857.838
01/21/2021  19:15:00     -260.497      -10.609       -6.995      182.614      110.411       72.100    33347.743    12190.661     5198.444        5.937        2.537      260.713       83.996        0.104      337.342        9.249      857.817
01/21/2021  19:16:00     -255.258       73.022       -6.425      142.811       97.861       64.253    20394.866     9576.738     4128.464        5.231        1.705      265.498       52.804        0.040      337.409        9.362      857.800
01/21/2021  19:17:00     -223.654       43.036       -3.026      202.731       93.186       63.809    41099.981     8683.696     4071.623        5.286        2.693      227.756       62.338        0.075      337.373        9.300      857.773
01/21/2021  19:18:00     -384.613      112.595       -8.528      203.925      107.066       71.560    41585.280    11463.221     5120.871       10.941        2.908      400.755       90.477        0.051      337.340        9.245      857.750
01/21/2021  19:19:00     -189.304       78.418        8.263      233.309      112.665       72.301    54433.077    12693.475     5227.377        5.719        3.618      204.903       71.176        0.121      337.338        9.244      857.737
01/21/2021  19:20:00     -168.971        0.750       -4.669      154.878      102.050       68.158    23987.322    10414.144     4645.517        3.380        1.952      168.973       67.356        0.159      337.314        9.203      857.738
01/21/2021  19:21:00     -264.059       35.488       14.355      112.659      111.502       56.103    12692.061    12432.704     3147.580        4.973        1.414      266.433       58.337        0.048      337.279        9.144      857.750
01/21/2021  19:22:00     -178.261       -5.550       10.052      164.743      103.351       69.347    27140.119    10681.348     4809.048        3.726        2.132      178.348       58.426        0.107      337.273        9.134      857.775
01/21/2021  19:23:00      -67.300       -9.713      -16.985      120.390      111.704       60.570    14493.779    12477.861     3668.746        1.777        1.532       67.997       64.317        0.895      337.242        9.084      857.798
01/21/2021  19:24:00     -118.954      -49.683       -5.166      138.902      105.145       76.759    19293.887    11055.443     5891.953        2.644        1.812      128.912       70.570        0.300      337.253        9.102      857.813
01/21/2021  19:25:00     -191.717      -21.040        9.584      130.149       93.961       69.492    16938.873     8828.705     4829.162        3.394        1.530      192.868       59.759        0.096      337.240        9.079      857.825
01/21/2021  19:26:00     -261.803      -47.025       -3.461      129.004       85.519       50.964    16642.121     7313.443     2597.327        4.865        1.328      265.993       52.766        0.039      337.261        9.114      857.827
01/21/2021  19:27:00     -118.211        2.497        8.845      159.859      123.057       80.661    25555.047    15142.914     6506.125        3.062        2.360      118.238       83.813        0.502      337.256        9.106      857.811
01/21/2021  19:28:00     -264.297      -54.128      -13.422      176.817      103.109       59.144    31264.166    10631.491     3497.974        5.917        2.270      269.782       55.088        0.042      337.271        9.130      857.832
01/21/2021  19:29:00     -266.714      -69.778      -15.690      135.154      108.319       61.134    18266.675    11732.905     3737.387        5.499        1.687      275.690       60.306        0.048      337.278        9.142      857.858
01/21/2021  19:30:00     -199.158      -91.094      -11.892       98.675      112.427       50.007     9736.739    12639.887     2500.706        3.648        1.244      219.003       56.867        0.067      337.261        9.114      857.849
01/21/2021  19:31:00     -169.975      -68.453      -10.752       82.345       87.456       41.125     6780.771     7648.581     1691.246        2.490        0.806      183.241       31.343        0.029      337.238        9.077      857.835
01/21/2021  19:32:00     -232.196      -55.384      -12.131      129.839       90.287       56.647    16858.098     8151.814     3208.872        4.267        1.411      238.710       48.533        0.041      337.200        9.013      857.831
01/21/2021  19:33:00     -207.861      -45.865      -13.440       85.471       72.166       42.878     7305.363     5207.968     1838.489        2.992        0.718      212.861       41.567        0.038      337.197        9.006      857.855
01/21/2021  19:34:00     -109.572       -8.060        1.141      105.619       82.389       47.152    11155.464     6788.005     2223.302        1.612        1.008      109.868       44.866        0.167      337.153        8.935      857.863
01/21/2021  19:35:00     -292.238      -44.069       -2.530      138.510       84.752       73.652    19184.987     7182.829     5424.674        5.957        1.590      295.542       72.492        0.060      337.185        8.986      857.870
01/21/2021  19:36:00     -253.637      -63.942       -8.372      163.087       92.411       78.242    26597.317     8539.722     6121.756        5.487        2.063      261.572       79.289        0.092      337.189        8.992      857.883
01/21/2021  19:37:00     -229.596      -48.548        0.387      149.785      101.050       74.397    22435.615    10211.024     5534.874        4.662        1.909      234.673       70.859        0.091      337.166        8.954      857.895
01/21/2021  19:38:00     -196.668      -22.921       -6.656      134.445      107.952       57.783    18075.327    11653.613     3338.932        3.615        1.653      197.999       50.323        0.065      337.142        8.915      857.901
01/21/2021  19:39:00     -277.204       13.584       -5.097       89.811      119.669       53.288     8065.928    14320.605     2839.647        5.113        1.261      277.537       36.015        0.017      337.125        8.883      857.915
01/21/2021  19:40:00     -335.473      -81.877       -9.302      122.594       88.814       61.430    15029.287     7887.857     3773.597        7.301        1.335      345.320       58.469        0.029      337.139        8.909      857.905
01/21/2021  19:41:00     -156.267        5.969       -3.585      158.813       88.622       59.526    25221.606     7853.946     3543.321        3.054        1.831      156.381       69.141        0.195      337.091        8.828      857.899
01/21/2021  19:42:00     -172.531       24.493      -16.794       77.768       57.032       43.305     6047.917     3252.701     1875.324        2.091        0.559      174.261       43.308        0.062      337.095        8.835      857.874
01/21/2021  19:43:00     -184.740       15.248       -5.627      104.687       87.381       53.057    10959.392     7635.401     2815.003        2.790        1.070      185.368       50.016        0.073      337.079        8.808      857.856
01/21/2021  19:44:00     -254.662       65.055       -0.079       75.807       74.307       48.937     5746.758     5521.583     2394.867        4.137        0.683      262.840       41.514        0.025      337.101        8.842      857.834
01/21/2021  19:45:00     -149.732       -7.682        6.537      145.138       60.139       56.579    21065.144     3616.664     3201.195        2.520        1.394      149.929       68.866        0.211      337.099        8.842      857.833
01/21/2021  19:46:00     -298.420      -27.693      -25.461       81.153       76.628       47.259     6585.817     5871.776     2233.397        5.258        0.735      299.702       43.332        0.021      337.154        8.931      857.870
01/21/2021  19:47:00     -211.016      -33.723       -0.767       98.940       61.409       45.585     9789.158     3771.071     2078.029        3.065        0.782      213.694       46.928        0.048      337.099        8.842      857.896
01/21/2021  19:48:00     -255.295      -39.352      -27.733      113.373       71.509       43.837    12853.418     5113.560     1921.713        4.369        0.994      258.310       45.954        0.032      337.119        8.874      857.896
01/21/2021  19:49:00     -254.106      -25.747       -9.202      110.155       78.150       66.520    12134.049     6107.380     4424.892        4.399        1.133      255.407       67.050        0.069      337.078        8.805      857.879
01/21/2021  19:50:00     -184.120       -9.476        5.085      130.348       84.645       51.067    16990.564     7164.827     2607.877        3.038        1.338      184.364       55.620        0.091      337.078        8.806      857.840
01/21/2021  19:51:00     -179.068      -21.467        6.078      100.119       84.200       39.371    10023.789     7089.597     1550.104        2.561        0.933      180.350       23.216        0.017      337.079        8.808      857.813
01/21/2021  19:52:00     -159.137      -28.734       -9.948       66.662       66.552       42.750     4443.849     4429.132     1827.547        1.847        0.535      161.710       27.405        0.029      337.031        8.729      857.794
01/21/2021  19:53:00     -202.238      -40.706      -14.032       72.914       70.638       44.938     5316.407     4989.765     2019.461        2.754        0.616      206.294       28.063        0.019      336.969        8.624      857.772
01/21/2021  19:54:00     -174.292       19.752      -12.197       92.624       66.317       39.873     8579.285     4397.932     1589.841        2.274        0.728      175.408       45.523        0.067      336.912        8.529      857.740
01/21/2021  19:55:00     -188.440      -44.464       -8.547       89.501       70.307       41.538     8010.471     4943.067     1725.444        2.612        0.734      193.615       34.591        0.032      336.900        8.510      857.720
01/21/2021  19:56:00     -177.855       -1.521       -6.795       83.146       59.690       39.584     6913.248     3562.849     1566.889        2.186        0.602      177.861       38.671        0.047      336.829        8.390      857.689
01/21/2021  19:57:00     -135.528      -24.560       -5.994       60.873       45.702       37.913     3705.555     2088.680     1437.410        1.312        0.362      137.735       25.929        0.035      336.820        8.379      857.701
01/21/2021  19:58:00     -139.316      -20.259       -3.105      109.774       50.484       40.004    12050.287     2548.612     1600.322        1.801        0.810      140.782       39.564        0.079      336.817        8.373      857.741
01/21/2021  19:59:00     -218.231     -111.053      -37.178       54.963       45.727       30.508     3020.970     2090.980      930.738        3.369        0.302      244.862       11.276        0.002      336.887        8.484      857.816
01/21/2021  20:00:00     -174.475      -82.608      -15.840       94.932       59.863       46.116     9012.068     3583.522     2126.703        2.612        0.736      193.044       46.338        0.058      336.895        8.501      857.857
01/21/2021  20:01:00     -244.651      -66.043      -17.727       93.860       80.112       43.922     8809.714     6417.936     1929.111        4.084        0.858      253.408       37.657        0.022      336.853        8.431      857.891
01/21/2021  20:02:00     -282.122      -92.341      -31.599       91.392       66.968       52.898     8352.504     4484.715     2798.184        5.237        0.782      296.849       40.125        0.018      336.906        8.518      857.894
01/21/2021  20:03:00     -266.161      -92.591      -31.838       96.421      107.196       43.676     9296.987    11490.876     1907.607        5.156        1.135      281.806       26.797        0.009      336.977        8.636      857.872
01/21/2021  20:04:00     -248.221      -58.749      -17.288       94.423       71.516       46.786     8915.610     5114.512     2188.956        4.079        0.811      255.078       43.990        0.030      336.927        8.554      857.827
01/21/2021  20:05:00     -170.488      -37.823       -6.639      122.518       59.201       46.196    15010.636     3504.733     2134.062        2.559        1.032      174.633       47.041        0.073      336.823        8.382      857.792
01/21/2021  20:06:00     -158.060      -11.729        4.863      143.127       74.847       48.494    20485.428     5602.060     2351.694        2.679        1.422      158.494       45.360        0.082      336.810        8.360      857.790
01/21/2021  20:07:00     -211.626       21.241       -7.157      157.639       78.238       55.387    24850.209     6121.207     3067.676        3.966        1.702      212.689       64.024        0.091      336.779        8.309      857.799
01/21/2021  20:08:00     -270.859      -58.902       -8.211      124.495       69.157       54.770    15499.072     4782.624     2999.807        5.009        1.164      277.190       56.429        0.041      336.851        8.427      857.809
01/21/2021  20:09:00     -314.784      -30.776       -4.415       85.625       75.030       54.324     7331.639     5629.449     2951.137        5.798        0.796      316.285       43.346        0.019      336.841        8.410      857.802
01/21/2021  20:10:00     -248.232      -42.132       -7.245      136.465       84.353       57.883    18622.832     7115.402     3350.393        4.626        1.454      251.782       64.144        0.065      336.866        8.452      857.782
01/21/2021  20:11:00     -159.003      -37.310      -10.734      114.306       75.169       44.451    13065.930     5650.413     1975.893        2.374        1.035      163.322       52.991        0.105      336.824        8.383      857.763
01/21/2021  20:12:00      -73.053        9.497       -4.672       88.910       73.682       56.577     7904.926     5429.026     3201.011        1.099        0.827       73.668       59.224        0.646      336.821        8.380      857.750
01/21/2021  20:13:00     -167.756      -23.399       -0.316      157.096       91.613       56.787    24679.051     8392.869     3224.730        3.249        1.815      169.381       56.943        0.113      336.962        8.613      857.750
01/21/2021  20:14:00     -225.886      -53.412      -14.929       66.806       67.280       39.574     4462.993     4526.612     1566.105        3.233        0.528      232.115       34.760        0.022      337.060        8.775      857.746
01/21/2021  20:15:00     -208.562      -10.561       -9.420      140.400       98.610       53.448    19712.180     9723.880     2856.727        3.799        1.615      208.829       57.416        0.076      336.894        8.500      857.735
01/21/2021  20:16:00     -209.473       38.591        0.918      105.257      105.754       49.669    11078.984    11183.904     2466.995        3.504        1.236      212.998       48.517        0.052      336.835        8.400      857.720
01/21/2021  20:17:00     -282.927       23.085       -4.404      126.412       94.849       57.008    15979.887     8996.314     3249.871        5.441        1.411      283.867       55.100        0.038      336.866        8.451      857.685
01/21/2021  20:18:00     -195.240       37.629       16.499      132.354       67.676       56.588    17517.453     4580.002     3202.154        3.255        1.265      198.833       54.705        0.076      336.869        8.458      857.653
01/21/2021  20:19:00     -181.256       18.849       18.905      118.306       71.501       48.465    13996.267     5112.362     2348.810        2.751        1.073      182.233       44.144        0.059      336.945        8.584      857.649
01/21/2021  20:20:00     -277.440       48.391       -6.045       89.878       67.856       38.279     8078.132     4604.382     1465.282        4.675        0.707      281.629       28.236        0.010      336.859        8.440      857.642
01/21/2021  20:21:00     -283.505       57.391       -9.273       70.009       55.326       38.374     4901.215     3060.934     1472.567        4.659        0.472      289.256       33.424        0.013      336.796        8.335      857.651
01/21/2021  20:22:00     -193.264       -3.434        0.369       90.795       45.143       40.114     8243.686     2037.926     1609.141        2.462        0.595      193.295       47.359        0.060      336.794        8.332      857.661
01/21/2021  20:23:00      -98.084      -10.987        5.980      102.055       71.642       49.768    10415.257     5132.546     2476.863        1.390        0.901       98.697       56.847        0.332      336.703        8.182      857.663
01/21/2021  20:24:00     -177.356       61.432      -16.940       57.362       35.075       32.861     3290.420     1230.267     1079.872        2.056        0.280      187.694       29.978        0.026      336.726        8.221      857.660
01/21/2021  20:25:00     -201.308       -9.199       -5.559       79.421       57.900       39.213     6307.774     3352.435     1537.666        2.592        0.560      201.518       34.733        0.030      336.758        8.273      857.657
01/21/2021  20:26:00     -160.423       -8.172       -7.606       98.006       49.986       43.090     9605.218     2498.567     1856.739        1.991        0.698      160.631       40.065        0.062      336.673        8.132      857.678
01/21/2021  20:27:00     -104.664      -17.884        2.348       93.176       69.877       58.520     8681.695     4882.792     3424.614        1.413        0.849      106.180       56.257        0.281      336.653        8.099      857.690
01/21/2021  20:28:00     -149.378      -39.568       -2.125       88.766       76.502       51.220     7879.446     5852.551     2623.521        2.012        0.818      154.530       44.604        0.083      336.603        8.014      857.694
01/21/2021  20:29:00     -183.331       -8.113       -4.267       87.514       55.850       42.715     7658.737     3119.206     1824.602        2.315        0.630      183.510       27.554        0.023      336.642        8.080      857.693
01/21/2021  20:30:00     -246.495      -12.287       -7.253       86.733       56.676       48.806     7522.589     3212.175     2382.000        3.704        0.656      246.801       46.355        0.035      336.667        8.121      857.693
01/21/2021  20:31:00     -175.065      -33.086       -5.558      108.635       74.810       50.867    11801.476     5596.532     2587.442        2.588        0.999      178.164       49.351        0.077      336.626        8.053      857.684
01/21/2021  20:32:00      -78.791       -6.465       -0.173       89.447       59.480       35.432     8000.712     3537.890     1255.441        0.952        0.640       79.055       32.142        0.165      336.585        7.985      857.667
01/21/2021  20:33:00     -123.491       12.138       -5.301       81.657       58.148       38.951     6667.936     3381.212     1517.157        1.349        0.578      124.086       43.759        0.124      336.559        7.943      857.641
01/21/2021  20:34:00     -235.830        0.925      -11.095       51.947       44.262       33.209     2698.514     1959.111     1102.815        3.075        0.288      235.832       28.192        0.014      336.563        7.946      857.627
01/21/2021  20:35:00     -174.870      -18.815       -7.227       58.830       51.475       33.017     3460.972     2649.681     1090.112        1.909        0.360      175.879       27.690        0.025      336.542        7.912      857.624
01/21/2021  20:36:00     -128.040       -3.429       -1.469       78.816       38.868       33.056     6211.899     1510.698     1092.687        1.261        0.441      128.086       29.811        0.054      336.472        7.796      857.627
01/21/2021  20:37:00      -78.279       -8.400       -0.799       73.400       46.742       37.190     5387.529     2184.781     1383.127        0.758        0.448       78.729       30.807        0.153      336.428        7.722      857.616
01/21/2021  20:38:00     -132.307        4.125       -7.644       78.115       48.928       34.191     6101.983     2393.934     1169.057        1.362        0.483      132.372       38.769        0.086      336.478        7.806      857.592
01/21/2021  20:39:00     -158.481        2.378        0.762       68.896       62.902       31.899     4746.666     3956.638     1017.554        1.742        0.486      158.499       29.522        0.035      336.517        7.871      857.577
01/21/2021  20:40:00     -175.821       -7.118        0.443       80.557       55.570       36.162     6489.487     3088.035     1307.679        2.092        0.544      175.965       36.851        0.044      336.525        7.883      857.577
01/21/2021  20:41:00     -120.218      -26.197        2.645       92.336       54.979       40.081     8525.895     3022.652     1606.503        1.415        0.658      123.039       44.391        0.130      336.439        7.740      857.573
01/21/2021  20:42:00     -144.057      -22.591        0.533      105.625       50.229       39.051    11156.613     2522.959     1525.002        1.823        0.760      145.817       41.477        0.081      336.453        7.764      857.581
01/21/2021  20:43:00     -116.886      -11.003        3.678       92.120       45.010       41.614     8486.115     2025.927     1731.748        1.302        0.612      117.403       48.500        0.171      336.463        7.781      857.578
01/21/2021  20:44:00     -163.360       -5.217       -6.207       71.028       57.501       39.804     5045.038     3306.353     1584.384        1.834        0.497      163.444       37.944        0.054      336.390        7.658      857.557
01/21/2021  20:45:00      -51.549       -9.426        5.463       59.502       41.930       28.112     3540.499     1758.143      790.301        0.443        0.304       52.404       24.131        0.212      336.391        7.660      857.554
01/21/2021  20:46:00     -184.144      -27.194       -5.446       97.733       53.679       39.128     9551.707     2881.405     1531.007        2.432        0.698      186.141       45.566        0.060      336.497        7.836      857.555
01/21/2021  20:47:00     -200.653      -45.361      -13.545       72.182       50.358       41.868     5210.284     2535.891     1752.932        2.600        0.475      205.716       39.219        0.036      336.573        7.963      857.572
01/21/2021  20:48:00     -202.886       -5.022       -3.438       78.439       44.986       34.555     6152.695     2023.750     1194.069        2.528        0.469      202.949       29.851        0.022      336.553        7.930      857.579
01/21/2021  20:49:00     -209.365      -55.441      -13.027       74.991       76.248       37.898     5623.661     5813.819     1436.246        2.997        0.644      216.581       37.948        0.031      336.595        7.999      857.566
01/21/2021  20:50:00     -175.648       -5.520        1.311       64.582       64.114       38.485     4170.787     4110.592     1481.101        2.032        0.488      175.735       36.528        0.043      336.520        7.877      857.556
01/21/2021  20:51:00     -171.243      -36.127        5.230       98.426       85.312       54.503     9687.645     7278.132     2970.572        2.529        0.997      175.012       43.653        0.062      336.484        7.813      857.531
01/21/2021  20:52:00     -137.388       19.791        7.207       81.403       61.428       43.040     6626.464     3773.458     1852.403        1.578        0.613      138.806       39.939        0.083      336.340        7.574      857.518
01/21/2021  20:53:00     -261.437      -10.667       -1.049       85.049       60.283       45.595     7233.332     3633.998     2078.891        4.070        0.647      261.654       40.680        0.024      336.329        7.552      857.509
01/21/2021  20:54:00     -271.273       15.042       -3.785       76.485       48.293       31.972     5849.949     2332.172     1022.211        4.152        0.460      271.690       26.867        0.010      336.316        7.532      857.531
01/21/2021  20:55:00      -80.520      -39.786        3.033       70.318       62.642       38.120     4944.641     3923.987     1453.155        0.920        0.516       89.813       31.816        0.125      336.227        7.386      857.556
01/21/2021  20:56:00     -167.823      -48.878       -3.453       69.045       48.614       36.409     4767.227     2363.319     1325.623        1.951        0.423      174.796       35.198        0.041      336.262        7.443      857.577
01/21/2021  20:57:00      -99.118      -12.149      -10.257       65.576       41.955       29.819     4300.240     1760.203      889.153        0.851        0.347       99.860       32.983        0.109      336.212        7.362      857.566
01/21/2021  20:58:00      -89.504      -30.420       -7.013       60.004       70.651       28.250     3600.496     4991.528      798.056        0.919        0.470       94.532       30.195        0.102      336.205        7.351      857.523
01/21/2021  20:59:00      -74.551       13.744      -17.802       31.654       18.458       15.560     1001.966      340.686      242.109        0.382        0.079       75.807        7.959        0.011      336.161        7.277      857.480
01/21/2021  21:00:00     -100.801       16.611       -6.607       53.579       33.269       21.359     2870.689     1106.798      456.200        0.746        0.222      102.161       23.756        0.054      336.071        7.126      857.479
01/21/2021  21:01:00      -60.830        1.920       12.865       42.630       36.937       17.918     1817.334     1364.368      321.069        0.369        0.175       60.860       16.500        0.074      335.992        6.994      857.510
01/21/2021  21:02:00      -55.857      -33.136       -4.555       23.588       27.980       18.478      556.416      782.898      341.455        0.296        0.084       64.946       17.777        0.075      336.031        7.060      857.541
01/21/2021  21:03:00      -61.284      -63.133       -1.129       34.353       32.696       17.864     1180.133     1069.054      319.138        0.516        0.128       87.986        8.563        0.009      336.059        7.106      857.552
01/21/2021  21:04:00     -105.198     -105.159       -6.720       43.753       45.170       22.519     1914.335     2040.333      507.098        1.332        0.223      148.745        5.241        0.001      336.057        7.105      857.550
01/21/2021  21:05:00     -114.347      -20.109       -2.433       49.954       37.053       28.321     2495.383     1372.933      802.080        0.908        0.234      116.101       21.680        0.035      336.052        7.093      857.537
01/21/2021  21:06:00      -77.801        5.358        2.190       27.112       57.055       22.918      735.042     3255.283      525.234        0.530        0.226       77.986       14.696        0.036      336.010        7.024      857.518
01/21/2021  21:07:00      -95.509       36.625       -9.328       18.431       23.966       12.970      339.690      574.350      168.215        0.582        0.054      102.290        7.976        0.006      336.002        7.011      857.523
01/21/2021  21:08:00      -74.058       19.768       -3.911       31.394       17.639       13.742      985.611      311.141      188.833        0.369        0.074       76.651       14.033        0.034      336.037        7.068      857.530
01/21/2021  21:09:00      -45.489       26.290        0.314       22.420       28.454       14.546      502.668      809.642      211.582        0.214        0.076       52.540        3.376        0.004      336.039        7.073      857.538
01/21/2021  21:10:00      -57.114       29.623       -5.599       39.650       32.700       17.531     1572.140     1069.312      307.344        0.356        0.147       64.339       14.810        0.053      336.023        7.046      857.542
01/21/2021  21:11:00       21.813       47.325        1.448       42.642       26.835       16.530     1818.320      720.093      273.252        0.276        0.141       52.110        8.759        0.028      335.929        6.890      857.527
01/21/2021  21:12:00       -9.096       70.034       -4.636       33.720       44.367       19.311     1137.031     1968.440      372.918        0.424        0.174       70.622       16.636        0.055      336.013        7.029      857.512
01/21/2021  21:13:00       20.983       47.424       -0.192       34.291       17.640       15.439     1175.868      311.154      238.362        0.221        0.086       51.858        7.741        0.022      335.993        6.997      857.507
01/21/2021  21:14:00       43.236       25.165       -8.985       32.699       24.081       17.868     1069.201      579.875      319.270        0.228        0.098       50.026       10.134        0.041      335.818        6.705      857.508
01/21/2021  21:15:00       28.349        1.750       -5.123       17.033       20.488       12.513      290.120      419.738      156.567        0.085        0.043       28.403        9.614        0.115      335.735        6.567      857.520
01/21/2021  21:16:00       16.761       14.741       -0.702       33.840       14.448       11.767     1145.173      208.736      138.461        0.100        0.075       22.321       15.077        0.456      335.750        6.591      857.516
01/21/2021  21:17:00       79.137       29.436       -6.155       19.621       12.059       10.927      384.981      145.425      119.395        0.391        0.032       84.435       11.150        0.017      335.756        6.602      857.493
01/21/2021  21:18:00       31.416       -2.222       -1.836       30.756       21.113       15.771      945.946      445.771      248.714        0.132        0.082       31.495       17.707        0.316      335.554        6.266      857.474
01/21/2021  21:19:00       -2.837      -28.134       -2.849       16.434       13.769       10.544      270.078      189.594      111.173        0.069        0.029       28.277        4.190        0.022      335.582        6.312      857.450
01/21/2021  21:20:00       22.175      -54.671      -10.336       24.341       17.855       11.588      592.482      318.784      134.280        0.232        0.052       58.997        7.343        0.015      335.593        6.330      857.443
01/21/2021  21:21:00       26.470       -8.072      -14.030       30.717       32.059       20.084      943.520     1027.774      403.361        0.167        0.119       27.673       17.629        0.406      335.692        6.495      857.444
01/21/2021  21:22:00      -17.643      -21.303      -10.634       27.279       22.875       12.793      744.118      523.244      163.659        0.115        0.072       27.661       11.383        0.169      335.658        6.438      857.441
01/21/2021  21:23:00      -50.001       11.210       -1.013       16.001        8.911        9.884      256.031       79.398       97.690        0.153        0.022       51.242        8.057        0.025      335.685        6.483      857.444
01/21/2021  21:24:00      -46.303       17.727       -0.480       13.284       16.755       12.524      176.469      280.720      156.841        0.154        0.031       49.580        9.265        0.035      335.594        6.331      857.437
01/21/2021  21:25:00      -56.738       25.225       -0.316       28.204       29.033       17.447      795.481      842.941      304.402        0.290        0.097       62.093       11.874        0.037      335.903        6.847      857.418
01/21/2021  21:26:00      -62.541       40.672       -9.975       21.653       13.168       13.165      468.858      173.393      173.309        0.324        0.041       74.602       12.794        0.029      336.053        7.096      857.409
01/21/2021  21:27:00      -81.264       32.515       -6.438       26.110       19.453       11.823      681.751      378.415      139.780        0.445        0.060       87.527        9.724        0.012      335.974        6.964      857.408
01/21/2021  21:28:00      -46.263       -5.280        0.629       41.447       20.860       16.238     1717.848      435.128      263.687        0.229        0.121       46.563        8.869        0.036      335.701        6.510      857.426
01/21/2021  21:29:00      -66.802      -13.380        2.750       37.427       23.033       16.732     1400.783      530.530      279.970        0.343        0.111       68.129       14.225        0.044      335.839        6.740      857.432
01/21/2021  21:30:00      -83.917       -4.846       -1.782       43.847       30.164       18.349     1922.524      909.874      336.683        0.512        0.158       84.056       20.600        0.060      335.970        6.959      857.417
01/21/2021  21:31:00      -67.666       -0.636       -0.535       39.207       21.565       15.882     1537.180      465.044      252.229        0.342        0.113       67.669       14.248        0.044      335.846        6.751      857.387
01/21/2021  21:32:00      -95.506      -17.462       -7.185       28.890       27.240       22.072      834.613      742.031      487.192        0.577        0.103       97.090       17.027        0.031      335.970        6.958      857.341
01/21/2021  21:33:00     -127.967        1.345       -1.778       43.759       35.177       27.250     1914.834     1237.401      742.542        1.014        0.195      127.974       18.902        0.022      335.875        6.800      857.331
01/21/2021  21:34:00      -95.199       10.227        5.494       47.083       28.158       21.945     2216.854      792.856      481.584        0.634        0.175       95.747       21.603        0.051      335.839        6.740      857.321
01/21/2021  21:35:00      -49.693        2.612        3.869       50.912       31.823       24.933     2592.076     1012.679      621.637        0.336        0.211       49.762       18.985        0.146      335.743        6.582      857.342
01/21/2021  21:36:00     -121.719      -28.996       -3.568       47.374       33.313       26.695     2244.293     1109.754      712.631        0.987        0.203      125.125       23.526        0.035      335.816        6.701      857.369
01/21/2021  21:37:00     -116.482      -43.575       -2.783       87.280       51.204       30.198     7617.874     2621.807      911.895        1.331        0.558      124.366       33.010        0.070      335.855        6.766      857.381
01/21/2021  21:38:00     -134.033     -132.779       -8.435       41.311       65.735       34.816     1706.634     4321.090     1212.155        2.145        0.362      188.667       35.327        0.035      335.977        6.968      857.356
01/21/2021  21:39:00      -42.308      -32.793        0.875       33.147       49.315       18.175     1098.717     2431.995      330.313        0.336        0.193       53.529       17.468        0.106      335.996        7.002      857.329
01/21/2021  21:40:00      -40.685       -8.808        3.936       24.828       25.228       19.211      616.446      636.436      369.077        0.168        0.081       41.627       17.649        0.180      335.912        6.862      857.308
01/21/2021  21:41:00      -33.496      -27.213       -2.678       22.514       31.543       13.682      506.877      994.936      187.185        0.178        0.084       43.157       14.058        0.106      335.958        6.939      857.310
01/21/2021  21:42:00      -76.071      -32.324       -5.252       43.402       26.176       20.693     1883.738      685.200      428.182        0.493        0.150       82.654       14.658        0.031      335.965        6.947      857.328
01/21/2021  21:43:00      -39.141      -30.011        6.152       58.422       37.159       22.828     3413.173     1380.798      521.124        0.389        0.266       49.322       22.362        0.206      335.894        6.831      857.347
01/21/2021  21:44:00     -106.703      -86.573      -11.305       51.787       53.653       25.830     2681.924     2878.645      667.201        1.262        0.311      137.406       23.745        0.030      335.835        6.733      857.354
01/21/2021  21:45:00     -105.356      -39.856       -2.006       57.976       49.517       34.810     3361.239     2451.973     1211.736        0.986        0.351      112.643       30.783        0.075      335.783        6.647      857.359
01/21/2021  21:46:00     -123.065     -101.434       -8.031       67.810      103.959       39.547     4598.183    10807.428     1563.944        2.123        0.848      159.480       35.171        0.049      335.799        6.672      857.335
01/21/2021  21:47:00     -109.512       -0.247       15.117       56.827       57.118       36.079     3229.309     3262.440     1301.664        1.001        0.390      109.512       29.338        0.072      335.754        6.599      857.305
01/21/2021  21:48:00     -144.661       -8.561      -23.224       36.731       39.852       27.007     1349.137     1588.184      729.387        1.260        0.183      144.914       21.145        0.021      335.836        6.735      857.287
01/21/2021  21:49:00     -141.091       -6.575      -16.948       61.041       43.700       26.437     3726.013     1909.659      698.915        1.328        0.317      141.244       32.214        0.052      335.791        6.659      857.286
01/21/2021  21:50:00     -125.425       38.781       -3.973       64.893       32.596       27.777     4211.090     1062.493      771.537        1.165        0.302      131.284       29.925        0.052      335.705        6.518      857.286
01/21/2021  21:51:00      -97.967       -2.175       -5.708       63.721       33.998       22.158     4060.422     1155.892      490.991        0.767        0.285       97.991       25.785        0.069      335.780        6.642      857.283
01/21/2021  21:52:00      -79.451        4.778        1.449       69.746       38.493       30.498     4864.559     1481.699      930.142        0.681        0.364       79.594       35.291        0.197      335.655        6.434      857.291
01/21/2021  21:53:00      -63.554        2.897       -0.173       51.397       34.574       21.655     2641.689     1195.382      468.924        0.418        0.215       63.620       20.688        0.106      335.618        6.372      857.303
01/21/2021  21:54:00      -89.996      -15.326       -0.769       45.589       33.514       20.656     2078.349     1123.159      426.685        0.598        0.181       91.291       20.284        0.049      335.722        6.546      857.323
01/21/2021  21:55:00      -68.457      -18.557       -2.743       68.226       55.237       31.079     4654.823     3051.148      965.895        0.685        0.434       70.928       36.629        0.267      335.690        6.493      857.328
01/21/2021  21:56:00      -72.078      -55.266      -22.864       49.097       51.610       26.528     2410.532     2663.642      703.743        0.727        0.289       90.828       25.878        0.081      335.666        6.453      857.321
01/21/2021  21:57:00     -134.654      -11.805       -2.117       74.626       36.693       28.295     5569.058     1346.377      800.617        1.299        0.386      135.170       30.067        0.049      335.704        6.515      857.298
01/21/2021  21:58:00     -152.740      -27.220       -8.845       44.575       33.780       25.384     1986.925     1141.073      644.339        1.396        0.189      155.146       15.912        0.011      335.744        6.581      857.289
01/21/2021  21:59:00     -117.432      -23.249       -4.383       35.292       26.811       22.808     1245.527      718.844      520.191        0.842        0.124      119.711       18.381        0.024      335.751        6.594      857.291
01/21/2021  22:00:00     -111.200      -62.378       -7.133       27.719       45.796       26.686      768.316     2097.310      712.119        0.994        0.179      127.500       16.021        0.016      335.719        6.541      857.310
01/21/2021  22:01:00     -118.906      -79.583      -17.911       66.677       65.819       40.885     4445.772     4332.144     1671.585        1.562        0.522      143.080       41.754        0.085      335.740        6.574      857.323
01/21/2021  22:02:00      -68.402      -46.260       -4.264       60.048       54.027       30.715     3605.779     2918.951      943.413        0.715        0.373       82.576       23.260        0.079      335.716        6.536      857.329
01/21/2021  22:03:00     -109.373      -49.660       -1.956       59.756       62.651       32.453     3570.801     3925.089     1053.215        1.149        0.427      120.119       28.393        0.056      335.782        6.644      857.327
01/21/2021  22:04:00     -145.831      -50.613      -10.632       59.799       45.762       31.188     3575.874     2094.133      972.714        1.529        0.332      154.364       32.549        0.044      335.785        6.649      857.329
01/21/2021  22:05:00     -137.896       -3.876        1.315       53.981       38.786       28.519     2913.921     1504.373      813.347        1.213        0.262      137.951       23.022        0.028      335.696        6.501      857.334
01/21/2021  22:06:00     -110.035      -29.551        0.241       44.623       37.418       23.304     1991.172     1400.082      543.099        0.846        0.197      113.934       23.440        0.042      335.771        6.628      857.331
01/21/2021  22:07:00     -106.701      -81.031       -7.964       38.591       46.104       24.865     1489.243     2125.624      618.293        1.112        0.212      133.982       19.867        0.022      335.763        6.613      857.321
01/21/2021  22:08:00     -102.115      -20.668       -5.516       41.717       61.572       29.426     1740.318     3791.105      865.881        0.864        0.320      104.185       20.351        0.038      335.733        6.563      857.304
01/21/2021  22:09:00      -92.625      -27.136       -8.035       31.080       32.300       24.063      965.990     1043.320      579.029        0.598        0.129       96.518       14.327        0.022      335.781        6.644      857.280
01/21/2021  22:10:00      -74.762      -13.977       -6.822       38.748       34.957       16.806     1501.388     1221.980      282.445        0.442        0.150       76.057       18.842        0.061      335.780        6.643      857.262
01/21/2021  22:11:00      -12.641       -3.111        4.560       18.364       20.787       13.233      337.242      432.119      175.123        0.057        0.047       13.018        3.531        0.074      335.724        6.550      857.248
01/21/2021  22:12:00      -38.853      -27.836       -2.741       19.519       18.853       14.267      380.987      355.436      203.547        0.162        0.047       47.796       13.767        0.083      335.687        6.487      857.240
01/21/2021  22:13:00      -67.980        9.937       -4.181       21.744       21.911       12.817      472.782      480.092      164.286        0.293        0.056       68.702        9.132        0.018      335.671        6.461      857.227
01/21/2021  22:14:00      -77.859        0.426       -8.264       25.381       20.179       12.523      644.190      407.203      156.824        0.367        0.060       77.860       13.631        0.031      335.598        6.340      857.212
01/21/2021  22:15:00      -92.822       -2.836       -4.394       39.117       22.059       16.626     1530.126      486.593      276.413        0.547        0.115       92.865       16.225        0.031      335.679        6.474      857.200
01/21/2021  22:16:00     -104.828        7.471       -5.827       39.711       32.457       17.954     1576.957     1053.472      322.340        0.702        0.148      105.094       18.202        0.030      335.821        6.710      857.179
01/21/2021  22:17:00      -77.138       12.220        5.440       48.189       32.553       25.399     2322.147     1059.720      645.132        0.508        0.201       78.099       28.829        0.136      335.626        6.385      857.176
01/21/2021  22:18:00      -81.455        1.202       -0.163       28.417       20.230       16.275      807.503      409.268      264.870        0.406        0.074       81.464       15.501        0.036      335.523        6.214      857.181
01/21/2021  22:19:00     -103.202       -4.759       -0.210       32.560       23.569       15.796     1060.123      555.491      249.508        0.627        0.093      103.312       15.701        0.023      335.668        6.454      857.197
01/21/2021  22:20:00     -102.430      -14.681       -2.115       43.144       29.742       17.756     1861.396      884.608      315.282        0.689        0.153      103.477       13.907        0.018      335.980        6.975      857.211
01/21/2021  22:21:00      -75.505      -26.909       -7.338       29.371       29.775       16.048      862.682      886.559      257.526        0.424        0.100       80.157       12.946        0.026      335.875        6.801      857.215
01/21/2021  22:22:00      -94.151      -75.598       -5.633       35.937       39.565       24.427     1291.501     1565.366      596.690        0.903        0.173      120.746       18.083        0.022      336.089        7.157      857.214
01/21/2021  22:23:00      -19.683      -54.571       -1.560       34.198       38.837       36.063     1169.525     1508.276     1300.517        0.367        0.199       58.012       23.993        0.171      335.793        6.663      857.214
01/21/2021  22:24:00      -40.872      -53.235      -18.129       46.412       35.443       31.796     2154.057     1256.208     1010.962        0.463        0.221       67.116       23.747        0.125      335.701        6.510      857.174
01/21/2021  22:25:00      -41.857       14.897       -5.880       30.113       26.976       22.900      906.763      727.681      524.391        0.208        0.108       44.429       20.371        0.210      335.886        6.820      857.119
01/21/2021  22:26:00      -27.970       24.247        4.751       20.947       20.566       12.458      438.762      422.958      155.209        0.120        0.051       37.017       11.992        0.105      335.838        6.738      857.077
01/21/2021  22:27:00      -19.987       10.618        3.781       16.943       12.054        8.652      287.080      145.310       74.852        0.052        0.025       22.632        4.711        0.043      335.647        6.419      857.051
01/21/2021  22:28:00       26.894       -5.567      -14.214       18.360       27.379       11.574      337.105      749.609      133.950        0.109        0.061       27.464       13.243        0.233      335.507        6.185      857.053
01/21/2021  22:29:00       22.106      -23.407       -8.016       21.822       23.080       11.080      476.219      532.697      122.766        0.112        0.057       32.195       12.881        0.160      335.511        6.193      857.074
01/21/2021  22:30:00       16.555      -35.833       -9.477       25.830       22.552       15.849      667.201      508.579      251.187        0.154        0.071       39.473        5.781        0.021      335.441        6.075      857.077
01/21/2021  22:31:00       -3.165      -22.192      -10.613       19.483       17.626       15.768      379.585      310.687      248.639        0.078        0.047       22.416        1.800        0.006      335.469        6.124      857.056
01/21/2021  22:32:00      -18.182       28.581        4.088       16.129       15.836       14.965      260.160      250.775      223.948        0.095        0.037       33.874        1.689        0.002      335.471        6.125      857.012
01/21/2021  22:33:00        9.418       15.829       -9.310       38.698       17.166       20.886     1497.551      294.663      436.245        0.133        0.111       18.419       16.144        0.768      335.607        6.353      856.977
01/21/2021  22:34:00       18.498        4.575       -7.858       22.789       18.805       10.212      519.342      353.617      104.278        0.070        0.049       19.055       10.895        0.327      335.413        6.029      856.964
01/21/2021  22:35:00      -22.609      -17.301        3.068       29.575       22.925       22.011      874.653      525.552      484.493        0.135        0.094       28.470       16.193        0.324      335.587        6.320      856.966
01/21/2021  22:36:00      -11.748       -3.149        4.064       19.303       22.862       16.007      372.595      522.662      256.224        0.066        0.058       12.162       11.943        0.964      335.496        6.168      856.973
01/21/2021  22:37:00      -74.354      -42.729       -1.770       64.809       41.579       23.759     4200.201     1728.817      564.512        0.692        0.325       85.757       26.659        0.097      335.511        6.194      856.999
01/21/2021  22:38:00      -61.969      -23.448       -5.372       38.192       46.063       20.807     1458.658     2121.766      432.926        0.422        0.201       66.257       20.990        0.100      335.471        6.129      857.001
01/21/2021  22:39:00      -91.672      -35.907       -6.694       49.209       39.775       22.975     2421.490     1582.080      527.863        0.713        0.227       98.453       17.263        0.031      335.512        6.195      856.976
01/21/2021  22:40:00      -73.939      -72.922       -7.246       28.503       49.912       21.830      812.406     2491.243      476.549        0.731        0.189      103.849       10.615        0.010      335.557        6.270      856.937
01/21/2021  22:41:00      -18.590      -11.351       12.093       17.665       37.223       12.874      312.065     1385.538      165.736        0.124        0.093       21.782       10.726        0.243      335.456        6.101      856.909
01/21/2021  22:42:00        8.765       24.961       -0.112       19.885       12.537        9.743      395.411      157.173       94.918        0.067        0.032       26.455       10.051        0.144      335.406        6.018      856.895
01/21/2021  22:43:00        9.662        9.789       -1.990       11.418       12.638       11.590      130.363      159.721      134.320        0.031        0.021       13.754       12.363        0.808      335.439        6.074      856.906
01/21/2021  22:44:00      -25.028      -12.162        4.169       36.852       22.593       14.214     1358.067      510.447      202.033        0.143        0.104       27.827        5.604        0.041      335.368        5.954      856.938
01/21/2021  22:45:00      -67.540       -7.201        2.061       37.336       35.709       23.246     1394.008     1275.147      540.397        0.391        0.160       67.923       18.595        0.075      335.268        5.790      856.965
01/21/2021  22:46:00      -65.408      -22.088        1.397       48.841       27.760       23.557     2385.477      770.612      554.955        0.424        0.186       69.037       18.805        0.074      335.122        5.548      856.983
01/21/2021  22:47:00      -76.259       14.939       -0.239       39.325       32.682       14.131     1546.456     1068.101      199.673        0.443        0.141       77.709       15.030        0.037      335.132        5.562      856.976
01/21/2021  22:48:00      -10.929      -21.249      -12.530       31.264       14.690       13.045      977.452      215.806      170.173        0.105        0.068       23.895        6.401        0.072      335.165        5.617      856.938
01/21/2021  22:49:00       39.708       30.259       -5.035       13.056       22.218        9.486      170.451      493.628       89.992        0.164        0.038       49.923        3.888        0.006      335.230        5.726      856.867
01/21/2021  22:50:00       73.625       54.940      -13.807       26.941       20.098       12.734      725.805      403.937      162.144        0.496        0.065       91.864       11.369        0.015      335.130        5.560      856.785
01/21/2021  22:51:00       79.748       47.100       -8.191       31.003       25.550       17.495      961.194      652.808      306.087        0.528        0.096       92.618        8.586        0.009      335.135        5.568      856.712
01/21/2021  22:52:00       33.679       45.860       -7.204       14.911       16.401       12.280      222.352      269.008      150.800        0.197        0.032       56.898        2.951        0.003      335.070        5.461      856.705
01/21/2021  22:53:00      -42.785       24.785       -3.193       29.363       22.791       13.055      862.158      519.448      170.427        0.200        0.078       49.446       15.765        0.102      335.300        5.842      856.748
01/21/2021  22:54:00      -50.868       11.886       -7.910       12.101       14.511       10.174      146.431      210.579      103.503        0.163        0.023       52.238        7.014        0.018      335.033        5.399      856.783
01/21/2021  22:55:00      -61.132        5.152       -6.649       19.195       19.136       11.316      368.445      366.204      128.051        0.234        0.043       61.348       11.647        0.036      334.980        5.310      856.790
01/21/2021  22:56:00      -29.691       -6.977        8.979       29.922       18.964       11.889      895.338      359.645      141.359        0.120        0.070       30.500       13.005        0.182      335.018        5.374      856.763
01/21/2021  22:57:00        2.183       -4.031        5.875       12.556       14.274       10.466      157.663      203.737      109.534        0.026        0.024        4.585       10.073        4.827      335.138        5.573      856.713
01/21/2021  22:58:00        8.670      -60.624      -18.969       15.543       13.255       11.742      241.600      175.687      137.869        0.233        0.028       61.241        7.014        0.013      335.233        5.730      856.716
01/21/2021  22:59:00       73.281      -42.045      -18.247       25.964       46.015       24.725      674.128     2117.411      611.340        0.544        0.170       84.486       14.558        0.030      335.280        5.808      856.727
01/21/2021  23:00:00       11.695      -40.605      -17.575       41.496       40.972       21.836     1721.924     1678.683      476.798        0.299        0.194       42.256       16.509        0.153      335.238        5.737      856.721
01/21/2021  23:01:00       24.773      -44.395      -13.052       20.675       30.032       20.595      427.442      901.936      424.147        0.225        0.088       50.839       12.515        0.061      335.215        5.702      856.687
01/21/2021  23:02:00       83.567        8.433      -14.702       39.582       37.321       18.137     1566.747     1392.849      328.938        0.528        0.164       83.991       15.430        0.034      335.001        5.346      856.597
01/21/2021  23:03:00       56.605        6.585       10.951       62.948       57.710       31.055     3962.401     3330.433      964.406        0.581        0.413       56.987       27.802        0.238      334.776        4.972      856.558
01/21/2021  23:04:00       93.436      -23.741       -6.668       68.785       55.218       31.898     4731.388     3049.049     1017.470        0.907        0.440       96.405       28.116        0.085      334.480        4.480      856.598
01/21/2021  23:05:00       87.878      -45.400       -7.890       55.751       52.701       34.811     3108.215     2777.378     1211.818        0.847        0.355       98.913       32.052        0.105      334.510        4.531      856.684
01/21/2021  23:06:00       43.026      -84.063        1.286       35.439       35.836       24.308     1255.925     1284.228      590.897        0.602        0.157       94.434       19.256        0.042      334.897        5.172      856.724
01/21/2021  23:07:00       87.454      -69.941      -20.702       36.819       67.928       20.867     1355.603     4614.238      435.423        0.969        0.320      111.982       17.993        0.026      334.774        4.968      856.676
01/21/2021  23:08:00       87.245       28.891       -3.912       62.907       56.828       31.292     3957.299     3229.407      979.174        0.831        0.408       91.904       18.409        0.040      334.798        5.009      856.588
01/21/2021  23:09:00      118.418       21.740       -1.981       46.991       41.591       27.176     2208.111     1729.830      738.553        0.959        0.234      120.397        7.111        0.003      334.664        4.785      856.518
01/21/2021  23:10:00      118.471       26.031        0.350       42.500       34.709       20.701     1806.221     1204.702      428.512        0.908        0.172      121.297       18.992        0.025      334.527        4.557      856.486
01/21/2021  23:11:00       46.460       11.794       -1.341       33.041       24.813       16.375     1091.720      615.706      268.134        0.214        0.099       47.934        5.325        0.012      334.585        4.654      856.469
01/21/2021  23:12:00      -18.085        2.315        4.884       14.545       12.367        7.084      211.544      152.953       50.189        0.039        0.021       18.232        4.507        0.061      334.624        4.720      856.464
01/21/2021  23:13:00      -27.382      -17.777        6.847        9.975       17.487       11.145       99.506      305.779      124.208        0.082        0.026       32.646       10.718        0.108      334.621        4.714      856.479
01/21/2021  23:14:00      -13.331      -34.539       -0.281       20.653       16.967       13.748      426.532      287.896      189.005        0.114        0.045       37.022       11.713        0.100      334.680        4.814      856.502
01/21/2021  23:15:00       -7.606      -20.582        4.603       21.966       19.901       16.303      482.515      396.038      265.793        0.082        0.057       21.943       12.771        0.339      334.795        5.003      856.518
01/21/2021  23:16:00       17.896      -56.441       -5.364       29.831       36.555       17.270      889.899     1336.235      298.257        0.303        0.126       59.210       17.539        0.088      335.022        5.381      856.530
01/21/2021  23:17:00       57.626      -52.753      -15.261       24.848       37.869       22.719      617.401     1434.047      516.172        0.445        0.128       78.126       18.522        0.056      335.313        5.864      856.528
01/21/2021  23:18:00       20.760      -12.494       -7.403       32.382       24.921       15.592     1048.574      621.044      243.115        0.128        0.096       24.229       16.430        0.460      334.950        5.262      856.504
01/21/2021  23:19:00      -19.195       -5.862       -2.343       12.516       11.826       11.508      156.656      139.860      132.445        0.042        0.021       20.070        6.367        0.101      334.826        5.056      856.480
01/21/2021  23:20:00      -12.332       -5.577       -1.065       18.047        6.296        5.638      325.682       39.641       31.785        0.029        0.020       13.534        3.656        0.073      334.804        5.020      856.469
01/21/2021  23:21:00       34.308       -3.862        0.098       28.795       18.887       13.185      829.140      356.706      173.852        0.128        0.068       34.525       11.045        0.102      334.819        5.043      856.476
01/21/2021  23:22:00       80.619       55.530       -6.443       26.029       23.434       14.208      677.484      549.169      201.880        0.553        0.071       97.893       10.828        0.012      334.618        4.711      856.434
01/21/2021  23:23:00       49.401       73.473       -4.774       31.695       32.433       19.556     1004.573     1051.870      382.423        0.515        0.122       88.537       20.247        0.052      334.515        4.538      856.390
01/21/2021  23:24:00       38.305       91.687       -3.544       25.787       29.799       16.140      664.986      887.994      260.494        0.585        0.091       99.367       14.407        0.021      334.597        4.674      856.416
01/21/2021  23:25:00       15.266      108.225       -2.223       31.779       17.260       15.120     1009.896      297.896      228.614        0.674        0.077      109.297       16.204        0.022      334.806        5.022      856.445
01/21/2021  23:26:00       -8.951       42.727       -9.464       20.243       29.028       13.932      409.782      842.619      194.103        0.172        0.072       43.654        5.453        0.016      334.646        4.755      856.465
01/21/2021  23:27:00        3.651        0.738       -2.840       11.832       11.799       10.625      140.003      139.220      112.888        0.021        0.020        3.725        7.420        3.968      334.588        4.659      856.500
01/21/2021  23:28:00      -41.712       -7.410       -7.586       17.670       13.351       10.417      312.219      178.236      108.513        0.123        0.030       42.365        5.743        0.018      334.580        4.647      856.544
01/21/2021  23:29:00      -41.250       -7.179       -6.580       15.383       12.959       10.214      236.635      167.940      104.328        0.115        0.025       41.870        6.087        0.021      334.606        4.687      856.548
01/21/2021  23:30:00      -34.477       20.458       -8.316       13.773       11.090        6.114      189.682      122.996       37.375        0.101        0.018       40.089        5.770        0.021      334.618        4.708      856.520
01/21/2021  23:31:00       -4.488       48.517       -3.756       13.056       19.565       10.131      170.458      382.796      102.629        0.152        0.033       48.724        5.088        0.011      335.003        5.349      856.488
01/21/2021  23:32:00       18.203       44.433        3.176       13.920       19.691        9.790      193.763      387.732       95.837        0.150        0.034       48.017        9.310        0.038      335.067        5.455      856.483
01/21/2021  23:33:00        3.027       43.918        2.297       16.550       12.471        9.490      273.903      155.525       90.060        0.123        0.026       44.022        4.165        0.009      335.016        5.371      856.474
01/21/2021  23:34:00        4.754       35.900        3.112       22.841       18.206       14.526      521.689      331.455      211.005        0.119        0.053       36.214        9.962        0.076      334.816        5.040      856.428
01/21/2021  23:35:00       37.150      110.301       -6.282       27.321       23.699       13.839      746.447      561.633      191.507        0.754        0.075      116.389        5.445        0.002      334.992        5.331      856.371
01/21/2021  23:36:00       50.444      113.177       -2.461       25.262       26.954       23.911      638.181      726.528      571.726        0.865        0.097      123.910       17.467        0.020      335.109        5.526      856.374
01/21/2021  23:37:00       12.663      103.841      -10.898       30.444       35.440       19.947      926.815     1255.977      397.878        0.682        0.129      104.611       12.911        0.015      335.218        5.706      856.427
01/21/2021  23:38:00      -60.741       -9.902       -7.602       26.723       19.423       17.802      714.112      377.234      316.896        0.263        0.070       61.543       16.172        0.069      334.406        4.358      856.462
01/21/2021  23:39:00      -60.507       -2.227       -5.592       27.512       19.997       14.501      756.894      399.874      210.277        0.253        0.068       60.548       13.442        0.049      334.276        4.142      856.451
01/21/2021  23:40:00      -64.002       18.774      -12.511       15.458       18.185       15.327      238.935      330.693      234.907        0.270        0.040       66.699       12.679        0.036      334.354        4.274      856.415
01/21/2021  23:41:00      -35.685       14.114       -7.779       11.992        7.547        6.524      143.819       56.951       42.560        0.089        0.012       38.375        6.688        0.030      334.407        4.360      856.382
01/21/2021  23:42:00       -1.882       19.705       -6.962       19.742       12.531        7.991      389.739      157.025       63.854        0.053        0.031       19.795        2.559        0.017      334.841        5.081      856.358
01/21/2021  23:43:00        6.062       24.046        4.311       23.527       14.118       14.443      553.532      199.325      208.593        0.080        0.048       24.798       11.565        0.217      335.025        5.386      856.333
01/21/2021  23:44:00       -3.782       21.676      -19.173       28.742       26.467       10.720      826.107      700.491      114.910        0.125        0.082       22.003        8.348        0.144      334.865        5.120      856.287
01/21/2021  23:45:00      -24.067       13.744       -1.547       14.258       12.834        7.933      203.301      164.710       62.939        0.060        0.022       27.715        5.599        0.041      334.426        4.392      856.242
01/21/2021  23:46:00       -9.368       10.755       10.430       26.368       16.911       14.722      695.265      285.998      216.735        0.075        0.060       14.263        9.913        0.483      334.645        4.755      856.219
01/21/2021  23:47:00      -40.326      -22.543       -8.441       15.191       13.901        8.473      230.765      193.226       71.795        0.135        0.025       46.200        5.705        0.015      334.564        4.620      856.213
01/21/2021  23:48:00        6.619      -35.623       -4.865       22.439       13.206        6.655      503.494      174.397       44.292        0.103        0.036       36.232        8.023        0.049      334.870        5.128      856.197
01/21/2021  23:49:00       42.828      -31.297       -8.192       23.097       31.618       18.094      533.452      999.680      327.376        0.237        0.093       53.045       16.344        0.095      334.741        4.915      856.170
01/21/2021  23:50:00       38.138      -18.085      -13.391       37.638       25.599       23.573     1416.631      655.329      555.673        0.229        0.131       42.208       23.193        0.302      334.663        4.784      856.120
01/21/2021  23:51:00       49.183      -19.415      -12.167       46.131       45.017       23.698     2128.109     2026.541      561.595        0.383        0.236       52.877       23.504        0.198      335.074        5.468      856.067
01/21/2021  23:52:00       23.615       15.627       -6.842       25.722       25.944       16.243      661.608      673.110      263.844        0.122        0.080       28.317       12.128        0.183      335.000        5.344      856.028
01/21/2021  23:53:00       -2.894      -10.280        7.865       18.449       21.461        9.444      340.383      460.594       89.187        0.053        0.045       10.680        6.127        0.329      335.060        5.444      856.029
01/21/2021  23:54:00       19.880      -12.979        0.166       15.678       14.729       11.963      245.808      216.947      143.107        0.058        0.030       23.742        7.550        0.101      335.056        5.438      856.042
01/21/2021  23:55:00       40.431      -47.549       -5.541       27.900       18.725       14.860      778.390      350.628      220.807        0.264        0.067       62.414       11.904        0.036      334.826        5.055      856.039
01/21/2021  23:56:00        3.606      -16.784       -0.099       20.469       14.740       12.281      418.992      217.257      150.821        0.054        0.039       17.167       11.729        0.467      334.827        5.057      856.033
01/21/2021  23:57:00      -22.252        2.503        6.471       12.868       12.093       15.938      165.580      146.245      254.011        0.055        0.028       22.392       11.013        0.242      334.928        5.225      856.028
01/21/2021  23:58:00      -72.453       22.076      -10.532       14.906       17.402       11.547      222.200      302.840      133.324        0.325        0.033       75.741        7.923        0.011      334.488        4.494      856.037
01/21/2021  23:59:00     -149.217       37.758      -15.868      137.764       37.711       62.699    18979.050     1422.131     3931.199        2.413        1.217      153.920       84.841        0.304      333.919        3.550      856.052
01/22/2021  00:00:00      -73.847       69.070       -2.255       46.876       30.194       21.171     2197.376      911.699      448.191        0.689        0.178      101.114       18.637        0.034      334.057        3.778      856.001
01/22/2021  00:01:00       25.863       57.847       -3.663       17.436       22.241       11.079      303.999      494.672      122.741        0.247        0.046       63.366       10.887        0.030      334.770        4.963      855.930
01/22/2021  00:02:00       23.411       56.474        4.241       16.219       26.076        8.670      263.071      679.938       75.174        0.239        0.051       61.134       10.526        0.030      334.794        5.005      855.898
01/22/2021  00:03:00       21.579       62.408        0.732       24.856       21.540       13.798      617.839      463.984      190.373        0.282        0.064       66.033        9.648        0.021      334.910        5.195      855.853
01/22/2021  00:04:00       18.113       -5.563       -8.343       43.194       33.992       11.845     1865.744     1155.424      140.310        0.179        0.158       18.948       18.239        0.927      334.494        4.505      855.874
01/22/2021  00:05:00      -47.784      -10.580      -10.876       43.998       28.706       27.757     1935.837      824.010      770.430        0.302        0.177       48.941       27.650        0.319      333.737        3.247      855.959
01/22/2021  00:06:00      -54.332       -7.528       -6.880       44.683       30.940       22.394     1996.613      957.264      501.502        0.325        0.173       54.851       22.845        0.173      333.670        3.138      855.985
01/22/2021  00:07:00      -13.288       67.124       -7.196       62.914       33.032       12.833     3958.223     1091.083      164.693        0.497        0.261       68.426        7.672        0.013      334.420        4.381      855.901
01/22/2021  00:08:00       34.717       68.584        0.581       38.157       25.955       16.465     1455.989      673.679      271.095        0.415        0.120       76.871        9.412        0.015      334.860        5.110      855.785
01/22/2021  00:09:00      -67.447       14.110       -9.430       63.102       67.544       35.877     3981.831     4562.130     1287.191        0.733        0.492       68.907       24.639        0.128      333.931        3.569      855.791
01/22/2021  00:10:00     -128.334       12.540        0.447       83.610       45.282       39.100     6990.707     2050.421     1528.776        1.360        0.528      128.945       33.390        0.067      333.628        3.067      855.879
01/22/2021  00:11:00      -61.890       14.624      -13.495      225.773       53.905      105.451    50973.630     2905.773    11119.882        3.460        3.250       63.594      129.854        4.169      333.728        3.235      855.919
01/22/2021  00:12:00        2.164       11.353       11.356      159.054       46.525       81.482    25298.176     2164.533     6639.291        1.717        1.705       11.557      103.030       79.474      333.768        3.299      855.920
01/22/2021  00:13:00      -73.296       50.873       -6.041       37.546       28.127       18.349     1409.725      791.130      336.687        0.527        0.127       89.221       13.800        0.024      333.752        3.273      855.876
01/22/2021  00:14:00     -109.680       28.817      -21.112       36.860       35.265       28.188     1358.675     1243.652      794.565        0.835        0.170      113.402       17.316        0.023      333.915        3.543      855.828
01/22/2021  00:15:00      -84.706       95.242       -6.931       39.251       35.052       21.151     1540.671     1228.671      447.368        0.975        0.161      127.460       20.671        0.026      334.052        3.771      855.791
01/22/2021  00:16:00      -26.541      106.099       -9.514       21.035       29.648       14.974      442.485      878.994      224.224        0.680        0.077      109.368        8.447        0.006      334.395        4.340      855.748
01/22/2021  00:17:00      -22.468       35.334       -2.216       20.899       46.055       18.412      436.753     2121.064      339.006        0.233        0.145       41.872       12.521        0.089      334.319        4.213      855.738
01/22/2021  00:18:00      -37.790      -11.310      -20.703       22.005       20.110       13.997      484.205      404.410      195.929        0.153        0.054       39.447       12.017        0.093      334.049        3.767      855.772
01/22/2021  00:19:00       17.851       55.481      -11.017      183.230       15.136       87.825    33573.215      229.085     7713.317        2.251        2.076       58.282      125.817        4.660      335.098        5.508      855.790
01/22/2021  00:20:00       72.292       84.175       -9.796      160.992       25.448       77.763    25918.376      647.597     6047.037        2.250        1.631      110.958      110.509        0.992      334.587        4.659      855.744
01/22/2021  00:21:00       58.102       38.484       -7.262      228.105       27.196      109.136    52032.107      739.629    11910.730        3.478        3.234       69.691      156.607        5.050      334.697        4.843      855.662
01/22/2021  00:22:00       51.095       14.017       -2.711       25.859       27.962       16.348      668.665      781.847      267.245        0.227        0.086       52.982       10.729        0.041      334.426        4.390      855.647
01/22/2021  00:23:00       18.144      -15.991       -5.473       25.445       23.692       14.133      647.452      561.299      199.755        0.101        0.070       24.185        8.983        0.138      334.126        3.892      855.669
01/22/2021  00:24:00       26.162        6.882       -5.392       33.975       22.773       15.764     1154.309      518.597      248.518        0.134        0.096       27.052        8.091        0.089      334.161        3.951      855.637
01/22/2021  00:25:00       82.646      -15.170       -2.145       45.820       31.329       23.013     2099.496      981.499      529.618        0.534        0.181       84.027        5.590        0.004      333.859        3.449      855.543
01/22/2021  00:26:00       58.354       -9.094       11.288       57.837       46.453       30.984     3345.154     2157.923      960.019        0.504        0.323       59.058       28.421        0.232      333.746        3.262      855.455
01/22/2021  00:27:00       49.849       -6.704       -1.692      150.026       45.000       75.458    22507.949     2025.009     5693.955        1.637        1.511       50.298      101.327        4.058      333.663        3.126      855.483
01/22/2021  00:28:00       34.183      -35.871       -4.311       27.651       51.205       21.827      764.590     2621.930      476.409        0.317        0.193       49.550       16.772        0.115      334.038        3.748      855.556
01/22/2021  00:29:00       94.706      -10.727       -5.446      231.953       45.585      111.153    53802.378     2078.020    12355.009        3.866        3.412       95.312      157.833        2.742      334.413        4.372      855.596
01/22/2021  00:30:00       77.353      -12.016       -0.832       39.768       28.002       18.065     1581.520      784.123      326.345        0.441        0.135       78.281       14.470        0.034      334.339        4.247      855.619
01/22/2021  00:31:00       81.205      -47.754        0.102       35.706       25.730       20.518     1274.906      662.030      420.976        0.562        0.118       94.206       13.989        0.022      334.956        5.272      855.639
01/22/2021  00:32:00       78.137      -33.912      -26.491       39.945       49.661       26.551     1595.630     2466.233      704.980        0.636        0.238       85.179       14.082        0.027      334.420        4.380      855.593
01/22/2021  00:33:00       89.391       -1.920      -26.535       67.775       58.453       47.634     4593.401     3416.764     2268.999        0.949        0.514       89.412       37.154        0.173      334.068        3.795      855.464
01/22/2021  00:34:00       75.789       -9.316       -7.686      272.294       56.860      129.565    74143.759     3233.064    16787.114        5.001        4.708       76.359      184.065        5.811      334.261        4.119      855.393
01/22/2021  00:35:00       37.388      -33.295      -23.594      252.746       41.224      114.932    63880.537     1699.380    13209.343        4.091        3.939       50.064      165.353       10.909      334.336        4.243      855.533
01/22/2021  00:36:00      -54.609      -13.733      -24.284      293.711       33.808      136.547    86266.322     1142.987    18644.957        5.488        5.303       56.309      196.373       12.162      334.269        4.131      855.635
01/22/2021  00:37:00      -54.013      -11.575        0.922       30.717       20.141       13.238      943.519      405.670      175.252        0.229        0.076       55.239       15.851        0.082      334.241        4.084      855.624
01/22/2021  00:38:00       -2.577      -10.190       -8.419       13.015       26.746       14.366      169.403      715.339      206.374        0.064        0.055       10.510        9.742        0.859      334.374        4.305      855.559
01/22/2021  00:39:00       68.735        4.436      -16.956      151.235       29.992       70.274    22871.940      899.533     4938.492        1.686        1.435       68.878       98.732        2.055      334.287        4.160      855.463
01/22/2021  00:40:00       61.633       23.467        4.162       58.832       22.148       13.768     3461.150      490.553      189.562        0.425        0.207       65.950       10.408        0.025      334.340        4.248      855.396
01/22/2021  00:41:00      -53.389        6.158      -12.475      210.897       49.416      103.405    44477.651     2441.989    10692.670        3.032        2.881       53.743      144.858        7.265      334.304        4.189      855.507
01/22/2021  00:42:00      -25.907      -24.108       -4.066      220.644       34.001      104.845    48683.603     1156.046    10992.563        3.104        3.042       35.389      144.375       16.644      334.157        3.948      855.550
01/22/2021  00:43:00      -49.356        8.321        0.223       35.002       28.040       22.876     1225.131      786.216      523.324        0.252        0.127       50.052       23.148        0.214      334.367        4.293      855.502
01/22/2021  00:44:00       -3.076       13.007       -0.552       29.289       19.160       12.418      857.829      367.090      154.204        0.078        0.069       13.366       12.569        0.884      334.716        4.871      855.433
01/22/2021  00:45:00       97.942       -5.297      -14.866      294.636       29.294      142.621    86810.199      858.110    20340.776        5.890        5.400       98.085      203.879        4.321      334.648        4.763      855.369
01/22/2021  00:46:00      102.505      -44.869      -43.964      245.299       79.823      122.981    60171.572     6371.716    15124.433        4.804        4.083      111.895      169.158        2.285      334.313        4.203      855.337
01/22/2021  00:47:00       98.481      -88.448      -25.125      220.308       53.256      100.841    48535.683     2836.208    10168.912        3.983        3.077      132.369      146.711        1.228      334.693        4.836      855.381
01/22/2021  00:48:00       31.222      -64.690        1.313       24.772       23.689       15.898      613.645      561.179      252.746        0.329        0.071       71.830       12.184        0.029      334.860        5.112      855.419
01/22/2021  00:49:00       56.259      -75.491       -9.355       23.657       29.374       17.474      559.669      862.861      305.348        0.534        0.086       94.149       13.707        0.021      334.826        5.054      855.405
01/22/2021  00:50:00       23.345      -51.497       -4.087       30.087       36.841       16.833      905.218     1357.272      283.346        0.288        0.127       56.541       12.705        0.050      334.812        5.033      855.386
01/22/2021  00:51:00      -63.537       -9.927        1.259       39.983       27.824       19.808     1598.645      774.156      392.354        0.345        0.138       64.308       20.107        0.098      334.315        4.207      855.391
01/22/2021  00:52:00       -8.156       19.625       -7.199      166.860       16.076       78.646    27842.131      258.427     6185.233        1.739        1.714       21.252      113.382       28.462      334.282        4.154      855.345
01/22/2021  00:53:00       27.028       29.097       -4.410      148.248       21.963       70.116    21977.325      482.373     4916.285        1.448        1.369       39.713      100.596        6.416      334.550        4.597      855.298
01/22/2021  00:54:00      -42.777      -11.636       -2.832       20.528       17.921       14.922      421.401      321.158      222.665        0.147        0.048       44.331       11.817        0.071      334.561        4.615      855.336
01/22/2021  00:55:00      -53.327      -15.633       -9.518       15.155       17.531       12.962      229.668      307.350      168.020        0.194        0.035       55.571       10.779        0.038      334.362        4.287      855.405
01/22/2021  00:56:00      -24.463        1.189       -4.199       12.737       13.641        7.335      162.233      186.090       53.802        0.051        0.020       24.491        8.415        0.118      334.304        4.191      855.417
01/22/2021  00:57:00      -15.230        9.924        8.306       22.417       11.679       10.549      502.505      136.405      111.281        0.057        0.038       18.178        6.200        0.116      334.490        4.498      855.346
01/22/2021  00:58:00       43.070       14.513        0.058       12.332       20.172        7.646      152.083      406.920       58.462        0.134        0.031       45.449        6.798        0.022      334.613        4.700      855.267
01/22/2021  00:59:00       67.351       59.127        1.176       25.794       37.071       17.691      665.337     1374.237      312.976        0.519        0.118       89.623       14.739        0.027      334.826        5.054      855.207
01/22/2021  01:00:00       91.751       80.992       -7.568      176.385       28.483       85.792    31111.834      811.290     7360.192        2.715        1.964      122.384      121.263        0.982      334.824        5.052      855.156
01/22/2021  01:01:00      118.343       73.179      -10.049      186.660       25.510       88.058    34841.858      650.746     7754.267        3.134        2.162      139.141      126.194        0.823      334.743        4.918      855.155
01/22/2021  01:02:00      109.150       49.574       -9.367      203.788       40.472       97.592    41529.401     1637.984     9524.288        3.356        2.635      119.880      138.445        1.334      334.855        5.104      855.200
01/22/2021  01:03:00       88.192       97.629       -5.319       40.886       30.499       21.866     1671.648      930.190      478.118        1.021        0.154      131.564       11.009        0.007      335.153        5.596      855.191
01/22/2021  01:04:00       34.372      137.317      -15.204      160.376       36.589       75.478    25720.540     1338.769     5696.862        2.651        1.638      141.553      104.306        0.543      334.996        5.337      855.169
01/22/2021  01:05:00      -30.937      128.346       -9.566       26.325       34.719       18.652      693.011     1205.415      347.913        0.988        0.112      132.022        7.387        0.003      334.911        5.196      855.181
01/22/2021  01:06:00      -40.624       -6.535      -10.066       37.613       44.877       16.819     1414.738     2013.948      282.877        0.275        0.186       41.146       15.218        0.137      334.616        4.706      855.170
01/22/2021  01:07:00      -37.672       60.708       -7.532       34.958       41.722       13.092     1222.061     1740.754      171.388        0.415        0.157       71.447       11.189        0.025      335.167        5.623      855.136
01/22/2021  01:08:00        1.697        9.511        3.795       33.750       37.275       25.008     1139.059     1389.417      625.381        0.163        0.158        9.661       14.831        2.357      335.458        6.107      855.121
01/22/2021  01:09:00      -50.916       32.681       -9.876      225.842       51.494      109.684    51004.579     2651.631    12030.527        3.471        3.284       60.502      152.382        6.344      334.534        4.572      855.064
01/22/2021  01:10:00      -10.178      100.577       -9.015       36.047       25.430       14.526     1299.403      646.682      211.017        0.623        0.108      101.090        8.378        0.007      334.799        5.011      854.964
01/22/2021  01:11:00      -15.014       19.021       -7.408       43.949       47.550       13.838     1931.525     2260.999      191.477        0.251        0.219       24.233       20.554        0.719      334.941        5.247      854.947
01/22/2021  01:12:00       -8.263      -54.974      -18.833       38.140       27.607       13.181     1454.694      762.129      173.733        0.292        0.120       55.592       16.248        0.085      334.631        4.731      854.940
01/22/2021  01:13:00       58.948      -94.584      -32.660       38.933       41.472       22.842     1515.806     1719.942      521.772        0.862        0.188      111.449       10.597        0.009      334.883        5.149      854.982
01/22/2021  01:14:00       -2.750      -59.085      -27.401       49.622       37.485       22.930     2462.315     1405.133      525.791        0.432        0.220       59.149       15.254        0.067      334.742        4.916      855.019
01/22/2021  01:15:00      -18.475       -6.556       -7.216       58.020       49.691       19.981     3366.309     2469.239      399.244        0.333        0.312       19.604       25.577        1.702      334.703        4.851      854.958
01/22/2021  01:16:00        4.230        3.984        0.094       24.548       20.828       12.184      602.585      433.824      148.444        0.061        0.059        5.810        3.801        0.428      334.545        4.587      854.870
01/22/2021  01:17:00      101.334       46.649      -10.270       29.948       43.347       17.035      896.904     1878.939      290.200        0.781        0.153      111.555       17.800        0.025      334.482        4.483      854.759
01/22/2021  01:18:00       55.712      114.306      -12.430      223.284       22.767      104.516    49855.559      518.347    10923.653        3.880        3.065      127.160      151.003        1.410      334.839        5.079      854.715
01/22/2021  01:19:00      -54.131       78.148       -7.462       25.481       38.463       16.042      649.303     1479.366      257.335        0.574        0.119       95.065       12.416        0.017      334.638        4.742      854.743
01/22/2021  01:20:00      -15.158      -26.248       -9.596       36.292       33.117       13.789     1317.115     1096.756      190.124        0.181        0.130       30.310       10.055        0.110      334.379        4.315      854.727
01/22/2021  01:21:00       76.914     -176.044      -36.001       39.303       77.060       21.077     1544.762     5938.239      444.255        2.306        0.396      192.113       18.807        0.010      334.834        5.065      854.627
01/22/2021  01:22:00      163.082     -289.840      -57.240       55.565       38.865       30.550     3087.458     1510.462      933.326        5.970        0.277      332.570       27.388        0.007      334.993        5.328      854.655
01/22/2021  01:23:00      135.846     -235.718      -40.951       81.386       65.306       53.085     6623.615     4264.925     2818.063        4.470        0.685      272.061       24.710        0.008      334.620        4.710      854.752
01/22/2021  01:24:00       28.356      -46.736      -10.541       50.730       75.939       30.545     2573.545     5766.714      932.992        0.618        0.464       54.665       25.412        0.216      334.597        4.673      854.729
01/22/2021  01:25:00      -73.169       25.465       -6.152      136.953       39.464       67.542    18756.125     1557.399     4561.972        1.545        1.244       77.473       86.543        1.248      334.803        5.017      854.696
01/22/2021  01:26:00      -38.796      -84.415      -15.998       53.769       82.283       21.258     2891.159     6770.512      451.892        0.950        0.506       92.903       21.974        0.056      336.455        7.767      854.650
01/22/2021  01:27:00      -60.671     -132.500      -34.194       76.882       59.252       28.031     5910.874     3510.832      785.722        1.630        0.510      145.730       17.941        0.015      336.442        7.745      854.657
01/22/2021  01:28:00      -11.608     -138.356      -41.173       72.591       72.458       32.957     5269.419     5250.094     1086.173        1.629        0.580      138.842       28.732        0.043      336.054        7.099      854.727
01/22/2021  01:29:00      -49.744     -164.730      -29.731      108.998       69.834       43.084    11880.600     4876.718     1856.219        2.455        0.931      172.077       24.000        0.019      336.222        7.377      854.772
01/22/2021  01:30:00     -155.411     -134.420      -19.680      192.556       87.806       92.064    37077.795     7709.827     8475.862        4.792        2.663      205.479      111.757        0.296      336.287        7.485      854.845
01/22/2021  01:31:00      -96.478     -102.461       -9.603       76.182       56.579       34.488     5803.674     3201.187     1189.432        1.504        0.510      140.735       31.254        0.049      336.221        7.376      854.808
01/22/2021  01:32:00        5.074       -4.258       -1.725       38.393       53.175       24.433     1474.051     2827.609      596.959        0.247        0.245        6.624       19.262        8.457      336.014        7.032      854.650
01/22/2021  01:33:00       24.752      -39.375      -22.394       43.736       35.586       20.804     1912.821     1266.347      432.798        0.314        0.181       46.508       18.642        0.161      335.932        6.893      854.637
01/22/2021  01:34:00       14.450      -33.855      -16.009       50.108       57.580       22.679     2510.814     3315.437      514.354        0.397        0.317       36.810       22.186        0.363      335.748        6.588      854.787
01/22/2021  01:35:00      -33.147       -1.664       -7.407       47.412       37.096       15.999     2247.943     1376.101      255.971        0.252        0.194       33.189       10.561        0.101      335.091        5.496      854.906
01/22/2021  01:36:00       19.956       38.066       -3.800       29.937       23.166       15.532      896.205      536.676      241.240        0.177        0.084       42.980       11.704        0.074      335.228        5.723      854.914
01/22/2021  01:37:00      -24.554       38.332        1.299       36.623       15.538       14.389     1341.239      241.421      207.056        0.193        0.089       45.522       14.663        0.104      335.273        5.797      854.869
01/22/2021  01:38:00     -111.821       21.872       -4.888       30.107       23.281       16.362      906.437      542.027      267.729        0.736        0.086      113.940        7.448        0.004      335.176        5.638      854.810
01/22/2021  01:39:00      -33.200       83.331       -6.914       29.133       22.177        9.047      848.739      491.819       81.842        0.476        0.071       89.701        4.169        0.002      335.763        6.613      854.640
01/22/2021  01:40:00       86.540      132.326      -12.687       45.038       35.836       28.255     2028.394     1284.246      798.368        1.463        0.206      158.112       20.794        0.017      335.740        6.575      854.403
01/22/2021  01:41:00       95.011        1.970      -19.173       86.266       70.033       40.214     7441.797     4904.561     1617.205        1.168        0.698       95.032        7.262        0.006      335.016        5.371      854.490
01/22/2021  01:42:00      -99.147      -13.022      -10.079      153.652       79.961       50.888    23608.857     6393.778     2589.582        2.134        1.630       99.998       38.014        0.145      335.225        5.716      854.832
01/22/2021  01:43:00     -163.264      -26.624      -15.591       94.513       55.594       41.670     8932.711     3090.669     1736.395        2.068        0.688      165.420       39.468        0.057      335.407        6.017      854.872
01/22/2021  01:44:00      -50.425       -1.376        5.936       59.509       37.853       26.793     3541.328     1432.880      717.865        0.413        0.285       50.443       18.612        0.136      335.419        6.040      854.768
01/22/2021  01:45:00       49.557      -29.255      -13.836       42.932       35.078       19.846     1843.160     1230.456      393.858        0.348        0.173       57.548       20.383        0.125      335.450        6.092      854.690
01/22/2021  01:46:00      120.158      -94.092      -56.283       51.699       72.507       33.684     2672.801     5257.332     1134.630        1.776        0.453      152.615       20.105        0.017      335.335        5.898      854.666
01/22/2021  01:47:00      130.594     -198.295      -36.523       63.463       52.490       43.464     4027.569     2755.242     1889.133        3.319        0.434      237.436       42.038        0.031      335.156        5.599      854.670
01/22/2021  01:48:00      128.326     -200.551      -39.845       31.804       41.042       21.082     1011.519     1684.464      444.449        3.071        0.157      238.093       17.332        0.005      335.146        5.583      854.693
01/22/2021  01:49:00      154.101     -121.199      -32.651       39.853       74.266       24.603     1588.298     5515.471      605.283        2.360        0.385      196.052       27.750        0.020      335.056        5.436      854.669
01/22/2021  01:50:00      103.188      -22.231      -17.417       70.686       54.748       35.146     4996.531     2997.367     1235.260        1.034        0.461      105.556       36.505        0.120      335.027        5.389      854.595
01/22/2021  01:51:00       58.174      -30.120       -6.428       39.240       54.625       35.318     1539.802     2983.898     1247.356        0.505        0.289       65.509       35.492        0.294      335.168        5.621      854.555
01/22/2021  01:52:00       20.907      -15.995       -4.160       26.066       17.930       10.400      679.426      321.497      108.159        0.091        0.055       26.323       11.885        0.204      335.200        5.675      854.593
01/22/2021  01:53:00      -37.738      100.800       -8.739       13.627       49.182       14.256      185.682     2418.836      203.224        0.723        0.140      107.632       16.832        0.024      334.487        4.491      854.605
01/22/2021  01:54:00      -12.337      137.133        0.143       27.174       41.611       15.612      738.410     1731.454      243.740        1.084        0.136      137.687       16.488        0.014      334.407        4.360      854.510
01/22/2021  01:55:00      -29.501      169.990       -6.250       37.843       44.271       27.030     1432.085     1959.962      730.618        1.696        0.206      172.531       23.734        0.019      334.455        4.439      854.402
01/22/2021  01:56:00       91.102      127.434      -14.962       72.002       55.163       29.852     5184.355     3042.987      891.114        1.694        0.456      156.650       25.063        0.026      334.502        4.516      854.327
01/22/2021  01:57:00      115.874       40.438       -6.731       66.162       65.963       38.256     4377.391     4351.110     1463.560        1.265        0.510      122.728       36.194        0.087      334.205        4.023      854.352
01/22/2021  01:58:00       56.126      -71.061      -22.465       53.937       55.342       28.212     2909.241     3062.751      795.910        0.773        0.338       90.553       30.093        0.110      334.038        3.749      854.428
01/22/2021  01:59:00       46.340     -122.122      -13.766       27.589       32.030       18.866      761.161     1025.920      355.934        0.970        0.107      130.618       11.010        0.007      334.632        4.733      854.493
01/22/2021  02:00:00       65.485      -44.570      -28.357       32.727       63.060       15.398     1071.040     3976.506      237.104        0.618        0.264       79.214       11.091        0.020      334.656        4.772      854.506
01/22/2021  02:01:00       70.143       -1.695      -17.406      182.526       42.008       91.975    33315.626     1764.634     8459.359        2.437        2.177       70.164      125.256        3.187      334.643        4.751      854.459
01/22/2021  02:02:00      104.536        5.844        4.517      183.305       45.507       86.185    33600.658     2070.903     7427.828        2.703        2.155      104.699      120.144        1.317      334.728        4.892      854.441
01/22/2021  02:03:00      108.441       -8.540       -7.801       65.011       42.721       29.171     4226.373     1825.095      850.919        0.940        0.345      108.777       27.984        0.066      334.572        4.633      854.474
01/22/2021  02:04:00      106.623      -58.885       -9.927      158.564       36.987       76.987    25142.498     1368.035     5927.057        2.368        1.622      121.803      105.147        0.745      334.816        5.040      854.487
01/22/2021  02:05:00       62.528      -90.513      -14.899       22.902       32.578       17.116      524.481     1061.306      292.961        0.710        0.094      110.011       13.447        0.015      335.024        5.385      854.459
01/22/2021  02:06:00       60.567      -46.462       -6.798      138.038       26.944       66.282    19054.409      726.001     4393.346        1.502        1.209       76.336       94.583        1.535      335.059        5.444      854.424
01/22/2021  02:07:00       37.668      -31.362      -15.147       29.980       38.026       15.951      898.819     1445.963      254.437        0.261        0.130       49.015       12.085        0.061      335.096        5.503      854.409
01/22/2021  02:08:00       48.561      -33.072       -9.333       26.560       37.294       20.184      705.413     1390.836      407.412        0.302        0.125       58.753       15.821        0.073      335.204        5.684      854.421
01/22/2021  02:09:00       17.385      -53.760      -10.746      147.880       46.375       73.846    21868.356     2150.613     5453.179        1.638        1.474       56.501      101.859        3.250      335.193        5.666      854.491
01/22/2021  02:10:00      -23.035       17.407        7.469       38.536       27.773       24.729     1485.016      771.319      611.536        0.188        0.143       28.873       29.255        1.027      334.616        4.705      854.587
01/22/2021  02:11:00      -20.185       47.725       -6.052       19.333        9.906       12.992      373.766       98.138      168.795        0.168        0.032       51.818        4.822        0.009      335.168        5.623      854.495
01/22/2021  02:12:00       91.941      105.366      -23.993      331.667       36.005      158.690   110003.045     1296.347    25182.358        7.828        6.824      139.840      228.714        2.675      335.684        6.485      854.358
01/22/2021  02:13:00       83.748      145.250      -13.817       33.923       44.987       27.438     1150.762     2023.797      752.870        1.611        0.196      167.665       21.322        0.016      335.759        6.607      854.344
01/22/2021  02:14:00       64.362       78.930       -5.801       37.636       39.697       24.348     1416.448     1575.887      592.835        0.699        0.179      101.845       24.243        0.057      335.355        5.934      854.343
01/22/2021  02:15:00       40.389       31.925       -8.483       28.507       26.600       16.137      812.638      707.565      260.398        0.225        0.089       51.482       14.172        0.076      335.345        5.916      854.398
01/22/2021  02:16:00       59.687       33.531       -7.275       51.774       31.324       27.533     2680.545      981.170      758.040        0.458        0.221       68.461       27.598        0.163      335.349        5.924      854.414
01/22/2021  02:17:00       70.838       36.193       -8.510      150.822       50.402       77.296    22747.167     2540.320     5974.706        1.882        1.563       79.548      105.226        1.750      335.099        5.510      854.346
01/22/2021  02:18:00       63.732       20.661      -13.670      119.747       38.561       57.310    14339.306     1486.975     3284.388        1.189        0.956       66.997       79.751        1.417      334.930        5.228      854.288
01/22/2021  02:19:00       42.697       17.594       -8.855       27.426       26.214       11.747      752.209      687.190      137.992        0.189        0.079       46.180        4.119        0.008      334.702        4.849      854.344
01/22/2021  02:20:00      -24.135       70.509       -7.268       24.594       33.304       15.821      604.888     1109.146      250.319        0.379        0.098       74.525        8.489        0.013      335.012        5.364      854.380
01/22/2021  02:21:00       19.926      128.837      -10.444       26.841       24.100       15.378      720.455      580.811      236.481        0.932        0.077      130.369       13.480        0.011      335.670        6.458      854.346
01/22/2021  02:22:00      105.100      135.494      -19.058       51.111       39.114       25.861     2612.370     1529.887      668.781        1.729        0.241      171.478       25.660        0.022      335.800        6.674      854.283
01/22/2021  02:23:00       91.306      149.560      -14.532       47.643       55.651       34.194     2269.853     3097.057     1169.256        1.872        0.327      175.228       28.911        0.027      335.717        6.536      854.235
01/22/2021  02:24:00       10.013      155.879      -15.868       57.320       71.949       22.007     3285.526     5176.607      484.327        1.680        0.447      156.200       19.032        0.015      335.390        5.990      854.307
01/22/2021  02:25:00       19.210       55.252      -12.375      139.987       39.197       66.890    19596.374     1536.377     4474.243        1.459        1.280       58.496       95.235        2.651      335.406        6.020      854.392
01/22/2021  02:26:00        8.461      -69.404       -7.958       21.277       41.356       15.093      452.716     1710.356      227.808        0.367        0.120       69.917       19.241        0.076      335.289        5.824      854.457
01/22/2021  02:27:00       34.072      -83.219      -35.358      164.292       39.935       87.377    26991.889     1594.768     7634.790        2.277        1.811       89.924      116.440        1.677      335.432        6.063      854.508
01/22/2021  02:28:00        7.688      -29.468       -9.524       55.899       52.263       37.623     3124.708     2731.394     1415.521        0.414        0.364       30.454       26.072        0.733      335.114        5.534      854.499
01/22/2021  02:29:00       72.711      -82.592      -37.021       42.942       57.236       25.806     1844.034     3275.975      665.958        0.963        0.289      110.038       21.681        0.039      334.875        5.137      854.418
01/22/2021  02:30:00       81.808     -117.025      -27.482       25.872       41.991       19.700      669.351     1763.271      388.081        1.198        0.141      142.784       14.255        0.010      334.992        5.332      854.340
01/22/2021  02:31:00       94.171       -0.317      -11.352      210.841       50.060       99.597    44453.936     2506.048     9919.513        3.293        2.844       94.171      140.000        2.210      334.542        4.585      854.257
01/22/2021  02:32:00       10.566      -35.251       -9.984       42.449       39.610       20.889     1801.932     1568.927      436.341        0.263        0.190       36.800       14.169        0.148      334.412        4.367      854.215
01/22/2021  02:33:00      -23.489        6.707      -14.628      186.910       19.691       90.376    34935.193      387.745     8167.823        2.214        2.175       24.428      126.884       26.980      334.866        5.123      854.269
01/22/2021  02:34:00        3.164      -20.871       -7.368       25.087       20.602       18.389      629.354      424.451      338.170        0.095        0.070       21.110       16.084        0.581      334.738        4.908      854.313
01/22/2021  02:35:00       28.305      -10.380      -11.482      252.170       24.301      121.063    63589.776      590.562    14656.355        3.992        3.942       30.148      174.059       33.332      334.863        5.119      854.264
01/22/2021  02:36:00       42.742      -55.141      -13.801       22.186       23.923       13.929      492.228      572.301      194.029        0.316        0.063       69.767        8.349        0.014      335.155        5.600      854.222
01/22/2021  02:37:00      -20.525      -23.814      -13.858       39.940       36.582       16.750     1595.217     1338.248      280.560        0.220        0.161       31.438       18.892        0.361      335.115        5.535      854.288
01/22/2021  02:38:00      -83.365       36.577      -10.098       19.545       14.638       12.720      382.006      214.267      161.792        0.457        0.038       91.036        7.587        0.007      335.087        5.489      854.324
01/22/2021  02:39:00      -53.754       11.176       -6.397       17.962       19.507       12.382      322.631      380.529      153.305        0.196        0.043       54.903        7.499        0.019      335.125        5.551      854.293
01/22/2021  02:40:00        5.403       50.094       -9.371      178.542       25.664       81.006    31877.196      658.641     6561.948        2.085        1.955       50.384      118.507        5.532      335.071        5.464      854.228
01/22/2021  02:41:00       73.625       87.281       -5.356       30.831       32.042       22.064      950.560     1026.717      486.806        0.777        0.123      114.187       16.827        0.022      335.458        6.105      854.176
01/22/2021  02:42:00      106.107       79.380       -7.366       44.661       29.946       22.994     1994.634      896.789      528.706        1.052        0.171      132.513       18.716        0.020      335.323        5.880      854.138
01/22/2021  02:43:00       85.460       18.622       -7.463      180.227       32.483       87.964    32481.629     1055.150     7737.588        2.448        2.064       87.465      124.004        2.010      335.277        5.807      854.124
01/22/2021  02:44:00       25.202        4.052        4.084       32.987       38.318       22.669     1088.149     1468.263      513.871        0.187        0.154       25.526       19.596        0.589      335.036        5.405      854.113
01/22/2021  02:45:00       11.552       14.274        5.752       29.629       32.064       24.468      877.900     1028.125      598.696        0.144        0.125       18.363       18.040        0.965      335.232        5.729      854.081
01/22/2021  02:46:00       27.110      -13.090       -1.181       21.790       26.208       14.697      474.804      686.862      216.009        0.114        0.069       30.105        9.551        0.101      335.315        5.866      854.095
01/22/2021  02:47:00      -19.733       13.724       -4.055       23.132       22.292        8.836      535.083      496.931       78.080        0.085        0.056       24.036        7.152        0.089      335.461        6.110      854.152
01/22/2021  02:48:00      -28.567       13.806      -15.643      189.461       16.973       90.774    35895.438      288.092     8239.902        2.283        2.221       31.729      129.655       16.698      334.933        5.234      854.191
01/22/2021  02:49:00      -11.017      -14.148       -4.449       13.954       13.008        9.006      194.723      169.210       81.109        0.039        0.022       17.931        7.616        0.180      334.898        5.173      854.183
01/22/2021  02:50:00       68.971      -91.656      -20.296       70.181       88.120       27.910     4925.319     7765.143      778.994        1.352        0.673      114.707       44.594        0.151      334.651        4.763      854.180
01/22/2021  02:51:00       98.782     -112.590      -29.879       33.083       54.925       19.729     1094.482     3016.706      389.216        1.391        0.225      149.781       24.601        0.027      334.544        4.585      854.133
01/22/2021  02:52:00        5.686      -30.381      -11.625      154.820       45.037       74.462    23969.093     2028.338     5544.641        1.631        1.577       30.908      105.305       11.608      334.825        5.056      854.126
01/22/2021  02:53:00      -72.484      -24.266       -7.840      133.947       37.781       63.648    17941.918     1427.389     4051.058        1.466        1.171       76.438       84.774        1.230      334.578        4.642      854.154
01/22/2021  02:54:00     -110.947      -26.489       11.355       57.268       44.287       34.472     3279.655     1961.350     1188.324        0.978        0.321      114.065       27.613        0.059      334.489        4.496      854.176
01/22/2021  02:55:00      -85.052      -24.131        3.720       75.422       48.885       36.128     5688.440     2389.728     1305.233        0.860        0.469       88.409       34.320        0.151      334.550        4.597      854.178
01/22/2021  02:56:00     -116.640      -29.406        4.294       66.793       50.389       31.294     4461.296     2539.004      979.297        1.123        0.399      120.290       33.808        0.079      334.879        5.143      854.149
01/22/2021  02:57:00     -113.604        9.697       -6.782      183.921       31.336       89.673    33826.988      981.965     8041.270        2.794        2.143      114.017      118.232        1.075      334.850        5.096      854.096
01/22/2021  02:58:00     -121.822      -23.665       -2.248       43.537       35.927       16.927     1895.498     1290.736      286.516        0.944        0.174      124.099       14.410        0.013      334.997        5.339      854.095
01/22/2021  02:59:00      -92.584      -90.985      -11.686       17.268       18.347       13.539      298.179      336.622      183.309        0.890        0.041      129.807        9.217        0.005      335.325        5.883      854.072
01/22/2021  03:00:00      -89.898      -91.972      -11.413       22.743       22.795       13.435      517.243      519.607      180.488        0.894        0.061      128.610        8.639        0.005      335.624        6.382      854.044
01/22/2021  03:01:00      -55.403      -19.378       12.771       51.137       36.142       24.061     2614.997     1306.219      578.916        0.405        0.225       58.694       18.913        0.104      335.221        5.710      854.073
01/22/2021  03:02:00      -99.144      -30.600       -6.334       63.288       53.688       31.984     4005.340     2882.354     1022.972        0.936        0.396      103.759       30.910        0.089      335.429        6.057      854.111
01/22/2021  03:03:00     -153.697      -46.634       -6.009       52.869       58.891       28.674     2795.168     3468.198      822.172        1.646        0.354      160.616       22.833        0.020      335.350        5.926      854.120
01/22/2021  03:04:00     -177.482       -3.915       -0.093       44.458       34.632       26.296     1976.530     1199.393      691.459        1.769        0.193      177.525       12.877        0.005      335.219        5.706      854.090
01/22/2021  03:05:00      -80.141       26.143        1.238       51.198       30.297       21.786     2621.254      917.935      474.640        0.556        0.201       84.297       25.057        0.088      335.063        5.447      853.998
01/22/2021  03:06:00      -73.867        4.828       -1.350       31.156       24.566       18.665      970.716      603.467      348.369        0.370        0.096       74.025       16.348        0.049      335.186        5.653      853.939
01/22/2021  03:07:00      -53.555       -8.814       -1.228       34.066       18.159       17.188     1160.489      329.763      295.442        0.237        0.089       54.275       17.719        0.107      335.189        5.658      853.945
01/22/2021  03:08:00      -25.834       10.278       -8.509      165.230       25.549       80.033    27300.961      652.743     6405.282        1.759        1.718       27.804      113.264       16.595      335.028        5.394      853.965
01/22/2021  03:09:00      -28.371       -6.151        3.285       22.864       22.505       15.365      522.743      506.459      236.095        0.106        0.063       29.030       13.226        0.208      334.784        4.986      853.974
01/22/2021  03:10:00      -58.279       46.785       -0.798       32.580       26.391       16.041     1061.485      696.482      257.326        0.380        0.101       74.735       12.732        0.029      334.552        4.599      853.973
01/22/2021  03:11:00      -49.714       59.176      -14.433      242.435       19.633      115.273    58774.588      385.447    13287.938        3.930        3.622       77.287      165.749        4.599      334.795        5.006      853.971
01/22/2021  03:12:00      -67.152       80.614       -3.584       33.286       21.930       12.807     1107.948      480.928      164.021        0.639        0.088      104.919       12.122        0.013      334.997        5.340      853.953
01/22/2021  03:13:00        2.072       84.525        1.516       20.689       32.015       18.086      428.051     1024.978      327.111        0.447        0.089       84.551       17.042        0.041      335.548        6.256      853.862
01/22/2021  03:14:00      -18.682       45.283        8.894       29.968       28.478       18.037      898.062      810.980      325.327        0.226        0.102       48.985       12.938        0.070      335.234        5.734      853.823
01/22/2021  03:15:00      -65.590       12.587      -10.199       29.426       28.204       19.937      865.886      795.448      397.473        0.331        0.103       66.787       16.563        0.061      334.414        4.372      853.864
01/22/2021  03:16:00       24.091       25.212       -9.417      128.422       11.940       61.681    16492.204      142.560     3804.583        1.087        1.022       34.872       88.176        6.394      334.948        5.259      853.810
01/22/2021  03:17:00       68.281      -12.329       -9.681       25.098       14.902       15.740      629.911      222.074      247.735        0.300        0.055       69.385       15.937        0.053      334.383        4.320      853.722
01/22/2021  03:18:00       64.970      -35.705      -10.970       13.715       16.205        7.702      188.089      262.586       59.324        0.306        0.025       74.135        7.764        0.011      334.989        5.326      853.727
01/22/2021  03:19:00       17.623      -28.368       -5.917       30.003       24.224       17.946      900.175      586.785      322.057        0.148        0.090       33.397       19.003        0.324      335.178        5.641      853.780
01/22/2021  03:20:00       18.064       -5.267       -3.482       18.741       18.881       14.681      351.223      356.489      215.524        0.064        0.046       18.816       11.225        0.356      335.126        5.555      853.760
01/22/2021  03:21:00       60.258        7.339      -13.126      133.871        8.954       62.246    17921.356       80.171     3874.550        1.286        1.094       60.703       89.725        2.185      335.649        6.427      853.701
01/22/2021  03:22:00      108.472       23.775       -6.815       14.498       22.706        9.815      210.187      515.567       96.343        0.660        0.041      111.047        7.672        0.005      335.003        5.349      853.687
01/22/2021  03:23:00      105.723       33.014       -5.337       20.250       19.467       13.343      410.058      378.954      178.039        0.663        0.048      110.757        3.601        0.001      334.601        4.681      853.676
01/22/2021  03:24:00       42.809       -3.919       -1.170       40.776       39.629       19.591     1662.700     1570.449      383.808        0.273        0.181       42.988       15.658        0.133      334.321        4.218      853.662
01/22/2021  03:25:00       -2.050        4.682       -4.822       50.284       26.475       17.246     2528.531      700.925      297.412        0.179        0.176        5.111       19.734       14.908      334.217        4.043      853.707
01/22/2021  03:26:00      -86.955       32.658      -12.194       18.757       22.753       11.489      351.816      517.690      131.999        0.489        0.050       92.885        6.960        0.006      334.082        3.819      853.752
01/22/2021  03:27:00      -65.729       48.817       -6.655       20.004       16.852       11.760      400.145      283.976      138.295        0.378        0.041       81.874       11.939        0.021      334.306        4.192      853.665
01/22/2021  03:28:00        4.875       78.499       -0.039       27.644       18.804       10.245      764.187      353.578      104.959        0.370        0.061       78.650        9.322        0.014      335.138        5.573      853.581
01/22/2021  03:29:00       41.905       88.461        0.625       25.172       29.169       14.916      633.623      850.849      222.482        0.564        0.085       97.885       15.039        0.024      335.404        6.016      853.549
01/22/2021  03:30:00       38.165      113.845        3.675       26.546       38.882       21.916      704.675     1511.834      480.294        0.856        0.135      120.071       20.785        0.030      335.325        5.884      853.523
01/22/2021  03:31:00       10.297       32.115       -7.445      180.453       62.471       84.647    32563.383     3902.674     7165.082        2.240        2.182       33.725      120.635       12.795      335.007        5.357      853.514
01/22/2021  03:32:00      -69.089      -18.239      -12.683       23.925       21.639       14.949      572.387      468.234      223.486        0.327        0.063       71.456       16.355        0.052      333.875        3.478      853.562
01/22/2021  03:33:00      -69.674       -4.171      -16.077       10.530       15.910        9.681      110.888      253.123       93.718        0.279        0.023       69.799       10.706        0.024      334.309        4.196      853.633
01/22/2021  03:34:00      -12.265       17.426      -10.809      174.666       18.019       83.243    30508.298      324.674     6929.339        1.916        1.888       21.310      117.814       30.566      334.535        4.573      853.649
01/22/2021  03:35:00      127.215       60.601      -14.291      180.624       14.040       86.001    32625.151      197.126     7396.089        3.013        2.011      140.912      123.663        0.770      334.238        4.081      853.571
01/22/2021  03:36:00      145.162       62.600      -10.970      127.688       33.462       61.564    16304.331     1119.704     3790.066        2.316        1.061      158.085       86.127        0.297      334.418        4.378      853.511
01/22/2021  03:37:00       83.148       25.030        3.490       55.953       52.987       35.965     3130.698     2807.650     1293.453        0.739        0.362       86.834       23.908        0.076      334.779        4.975      853.482
01/22/2021  03:38:00      132.256       36.460       -4.500      167.265       51.662       80.503    27977.511     2668.977     6480.659        2.798        1.856      137.189      108.639        0.627      334.740        4.910      853.432
01/22/2021  03:39:00       52.530      -19.503       -9.140       40.515       29.707       21.663     1641.454      882.500      469.284        0.311        0.150       56.034       17.958        0.103      334.013        3.706      853.505
01/22/2021  03:40:00       43.456      -20.564       -0.085       28.396       27.870       15.123      806.340      776.742      228.716        0.206        0.091       48.076       15.707        0.107      334.173        3.970      853.582
01/22/2021  03:41:00      102.877      -29.119       -5.186      182.780       29.288       86.332    33408.416      857.784     7453.194        2.658        2.086      106.918      123.973        1.344      334.519        4.546      853.544
01/22/2021  03:42:00      134.705       28.501       -3.124       38.111       32.887       23.336     1452.471     1081.574      544.592        1.102        0.154      137.687       15.035        0.012      334.689        4.826      853.416
01/22/2021  03:43:00       89.941       90.686       -1.547       50.118       41.451       23.976     2511.832     1718.145      574.845        1.056        0.240      127.723       16.791        0.017      334.901        5.178      853.326
01/22/2021  03:44:00       -6.435       98.321       -8.555       54.382       45.068       28.531     2957.365     2031.157      814.035        0.779        0.290       98.531        9.488        0.009      334.657        4.776      853.325
01/22/2021  03:45:00      -66.212       36.771       -9.006       35.094       38.829       22.809     1231.566     1507.682      520.266        0.454        0.163       75.737       16.726        0.049      334.055        3.776      853.356
01/22/2021  03:46:00      -23.973       -0.499      -19.157      213.780       30.014      100.953    45701.691      900.811    10191.597        2.886        2.840       23.978      145.066       36.603      333.950        3.602      853.410
01/22/2021  03:47:00     -101.796      -21.751        4.708       74.276       49.039       39.417     5516.937     2404.858     1553.707        1.016        0.474      104.094       36.950        0.126      334.042        3.754      853.524
01/22/2021  03:48:00     -158.403      -42.110      -13.756      282.376       44.209      124.475    79736.361     1954.447    15494.130        6.210        4.859      163.905      176.523        1.160      334.648        4.760      853.582
01/22/2021  03:49:00      -60.026       20.274       -3.397       37.304       45.013       21.046     1391.578     2026.193      442.915        0.394        0.193       63.358       19.331        0.093      334.539        4.577      853.498
01/22/2021  03:50:00        9.907       20.580       -4.829      121.789       29.292       57.750    14832.624      858.032     3335.005        0.978        0.951       22.841       79.936       12.248      334.897        5.174      853.348
01/22/2021  03:51:00       65.432      -17.333       -9.092      160.758       29.137       75.789    25843.131      848.982     5743.937        1.854        1.622       67.689      108.469        2.568      334.591        4.666      853.296
01/22/2021  03:52:00       18.516        1.655       -0.951       32.115       34.352       16.788     1031.384     1180.072      281.853        0.142        0.125       18.590       18.001        0.938      334.560        4.612      853.310
01/22/2021  03:53:00      -36.221       30.327        0.817       25.094       44.557       16.258      629.694     1985.292      264.329        0.256        0.144       47.241       17.766        0.141      334.699        4.845      853.312
01/22/2021  03:54:00      -93.308       13.502      -17.468      171.717       41.112       82.015    29486.890     1690.176     6726.378        2.354        1.895       94.280      112.874        1.433      334.063        3.790      853.356
01/22/2021  03:55:00     -152.655       29.857       -1.322       98.546       76.310       42.565     9711.383     5823.200     1811.805        2.077        0.867      155.548       36.090        0.054      333.801        3.352      853.419
01/22/2021  03:56:00      -73.778      -18.837       -1.534       92.286       61.398       48.578     8516.657     3769.741     2359.820        1.022        0.732       76.145       41.141        0.292      333.939        3.584      853.427
01/22/2021  03:57:00     -118.169       72.536      -14.075      219.237       46.360      107.350    48064.924     2149.254    11524.125        4.057        3.087      138.656      146.339        1.114      334.298        4.179      853.393
01/22/2021  03:58:00      -86.863       46.543      -12.792      177.050       48.955       86.843    31346.620     2396.619     7541.658        2.557        2.064       98.546      115.485        1.373      334.218        4.046      853.353
01/22/2021  03:59:00      -41.984       24.292        0.013      158.221       36.868       71.600    25033.804     1359.278     5126.606        1.693        1.576       48.505       94.779        3.818      334.154        3.939      853.368
01/22/2021  04:00:00       20.449       -3.243        4.363       17.339       29.854       17.945      300.631      891.280      322.005        0.098        0.076       20.704       21.253        1.054      334.390        4.330      853.367
01/22/2021  04:01:00       41.974       -3.514       -2.247       20.538       26.456       18.207      421.812      699.906      331.512        0.162        0.073       42.121       19.428        0.213      334.305        4.191      853.309
01/22/2021  04:02:00       65.993       -6.100      -11.376      228.022       27.800      104.959    51993.970      772.815    11016.395        3.414        3.189       66.274      152.826        5.318      334.705        4.856      853.275
01/22/2021  04:03:00       56.647        7.202       -4.328      242.381       27.790      117.052    58748.325      772.288    13701.215        3.824        3.661       57.103      166.450        8.497      335.122        5.549      853.250
01/22/2021  04:04:00       33.203       19.758       -1.861      235.336       27.913      112.574    55383.036      779.118    12672.955        3.515        3.442       38.637      161.214       17.410      334.978        5.309      853.213
01/22/2021  04:05:00       42.707       98.418        2.875       38.118       60.014       17.029     1453.009     3601.655      289.980        0.843        0.267      107.285       12.075        0.013      335.109        5.524      853.143
01/22/2021  04:06:00      -29.579       85.306      -18.308      240.176       59.837      114.547    57684.727     3580.491    13121.072        4.142        3.719       90.289      153.086        2.875      334.334        4.239      853.121
01/22/2021  04:07:00     -205.665       52.601      -26.539       67.617       47.065       33.878     4572.125     2215.080     1147.746        2.685        0.397      212.286       27.244        0.016      333.624        3.059      853.159
01/22/2021  04:08:00     -189.949       25.239      -15.930      246.038       56.987      117.970    60534.728     3247.479    13916.932        5.732        3.885      191.619      160.178        0.699      333.579        2.986      853.190
01/22/2021  04:09:00     -217.017       21.520       22.090      116.375       79.658       53.985    13543.160     6345.471     2914.353        3.542        1.140      218.081       41.178        0.036      333.655        3.110      853.205
01/22/2021  04:10:00     -167.357       34.250       -7.754       97.301       76.058       46.316     9467.436     5784.838     2145.204        2.332        0.870      170.826       45.085        0.070      333.691        3.171      853.225
01/22/2021  04:11:00     -155.711       50.637      -10.804      166.754       58.095       87.235    27806.740     3374.978     7609.988        3.285        1.940      163.738       98.509        0.362      333.709        3.201      853.277
01/22/2021  04:12:00     -120.975       56.108      -10.062      287.223       41.391      138.675    82496.977     1713.177    19230.701        6.064        5.172      133.353      193.920        2.115      333.703        3.192      853.244
01/22/2021  04:13:00      -56.119       89.278       -4.759      139.980       38.121       68.682    19594.332     1453.218     4717.150        1.845        1.288      105.451       91.325        0.750      334.029        3.732      853.138
01/22/2021  04:14:00       23.397       57.393      -19.292      353.211       33.374      169.286   124757.949     1113.853    28657.642        7.934        7.726       61.979      242.875       15.356      334.389        4.333      853.104
01/22/2021  04:15:00      -34.547       29.931      -15.989      204.768       34.712       94.508    41930.044     1204.944     8931.677        2.719        2.603       45.710      136.011        8.854      333.983        3.656      853.095
01/22/2021  04:16:00      -64.106       16.499      -18.729      163.486       37.119       83.428    26727.624     1377.839     6960.313        1.989        1.753       66.195      107.773        2.651      333.725        3.228      853.103
01/22/2021  04:17:00     -110.873       39.126      -22.030      275.948       64.416      130.423    76147.343     4149.438    17010.191        5.579        4.865      117.574      183.717        2.442      333.983        3.657      853.110
01/22/2021  04:18:00      -91.236       43.058      -21.925      348.719       51.000      162.823   121605.208     2600.956    26511.297        8.066        7.536      100.886      231.588        5.269      334.029        3.735      853.108
01/22/2021  04:19:00     -123.124       87.246       -5.218       44.786       49.116       32.015     2005.764     2412.409     1024.933        1.412        0.272      150.902       25.594        0.029      334.103        3.854      853.110
01/22/2021  04:20:00      -99.718       32.511       -7.025       47.023       50.852       31.647     2211.136     2585.908     1001.545        0.842        0.290      104.884       28.927        0.076      333.979        3.650      853.121
01/22/2021  04:21:00      -82.858       64.120      -15.699      162.735       41.446       83.090    26482.666     1717.745     6904.003        2.316        1.755      104.770      107.559        1.054      333.990        3.668      853.094
01/22/2021  04:22:00      -87.395       42.927       -5.349       33.319       45.981       28.589     1110.131     2114.264      817.350        0.677        0.202       97.368       27.993        0.083      333.862        3.455      853.087
01/22/2021  04:23:00       24.714       20.770      -12.977      242.874       37.282      112.888    58987.710     1389.936    12743.625        3.715        3.656       32.282      161.388       24.992      333.870        3.471      853.114
01/22/2021  04:24:00       16.454       10.837       -0.126      159.239       33.617       78.353    25357.166     1130.095     6139.164        1.650        1.631       19.702      105.224       28.525      333.739        3.254      853.147
01/22/2021  04:25:00      -50.589       20.683      -16.667      253.837       43.048      121.682    64433.207     1853.147    14806.497        4.216        4.055       54.654      169.591        9.628      333.774        3.311      853.148
01/22/2021  04:26:00     -102.217       30.884      -10.674      271.344       42.278      131.373    73627.785     1787.437    17258.740        5.207        4.634      106.781      181.833        2.900      333.766        3.297      853.137
01/22/2021  04:27:00     -118.296       48.500       -6.214      296.400       59.192      146.227    87853.143     3503.669    21382.392        6.454        5.637      127.852      199.921        2.445      333.737        3.249      853.168
01/22/2021  04:28:00     -147.388       55.688       -4.275      252.873       58.127      128.096    63944.687     3378.737    16408.606        5.427        4.187      157.557      171.729        1.188      333.812        3.373      853.219
01/22/2021  04:29:00     -169.283       18.035       -2.360      133.010       48.549       66.565    17691.783     2357.022     4430.854        2.673        1.224      170.241       80.137        0.222      333.739        3.252      853.234
01/22/2021  04:30:00      -85.449       38.257      -20.911      202.506       53.087       98.079    41008.622     2818.206     9619.494        3.131        2.672       93.622      133.635        2.037      333.686        3.164      853.193
01/22/2021  04:31:00      -78.967       67.364       -3.069       86.819       51.296       44.838     7537.525     2631.317     2010.460        1.148        0.609      103.797       39.375        0.144      333.545        2.930      853.130
01/22/2021  04:32:00      -21.400       57.064      -32.757      364.102       58.286      177.182   132570.212     3397.279    31393.306        8.604        8.368       60.945      250.575       16.904      333.822        3.393      853.093
01/22/2021  04:33:00       -8.257       20.988       -3.785      162.676       47.186       84.079    26463.621     2226.477     7069.284        1.813        1.788       22.554      106.800       22.424      333.555        2.947      853.115
01/22/2021  04:34:00       21.789       13.932       -1.366      261.258       52.381      129.929    68255.996     2743.728    16881.586        4.426        4.394       25.863      175.875       46.245      333.390        2.675      853.164
01/22/2021  04:35:00     -155.983       44.337      -25.460      253.067       62.032      110.009    64042.889     3847.938    12101.894        5.345        4.000      162.162      142.502        0.772      333.261        2.459      853.195
01/22/2021  04:36:00     -192.059       89.888       -8.972      244.025       70.374      118.748    59548.014     4952.447    14101.053        6.181        3.930      212.053      153.413        0.523      333.428        2.734      853.208
01/22/2021  04:37:00     -146.607      157.425      -32.534      311.017       62.360      146.215    96731.808     3888.810    21378.869        8.464        6.100      215.119      203.051        0.891      333.974        3.641      853.174
01/22/2021  04:38:00      -49.348      135.045      -29.118      362.303       78.548      171.999   131263.627     6169.822    29583.621        9.423        8.351      143.778      238.758        2.758      334.048        3.766      853.118
01/22/2021  04:39:00     -169.575      139.621      -22.992      192.632       69.284       96.686    37107.187     4800.218     9348.117        5.001        2.563      219.658      116.908        0.283      334.305        4.188      853.097
01/22/2021  04:40:00     -116.852       73.480      -23.120      247.612       52.551      116.260    61311.896     2761.614    13516.412        4.857        3.879      138.035      155.641        1.271      334.307        4.194      853.146
01/22/2021  04:41:00     -118.209       80.170       -8.926      199.137       69.215      102.701    39655.677     4790.764    10547.558        3.773        2.750      142.830      127.991        0.803      334.383        4.318      853.161
01/22/2021  04:42:00      -40.448      100.610      -35.511      418.518       51.536      195.882   175157.350     2655.921    38369.728       11.455       10.809      108.436      282.520        6.788      334.686        4.828      853.093
01/22/2021  04:43:00      -33.553      169.344       -5.640       46.062       43.246       30.308     2121.681     1870.237      918.584        1.737        0.246      172.636       23.621        0.019      334.710        4.859      853.036
01/22/2021  04:44:00       -6.325      149.092       -8.984       66.669       63.853       31.371     4444.767     4077.159      984.149        1.593        0.475      149.227        9.127        0.004      334.820        5.045      853.027
01/22/2021  04:45:00        6.492      112.753      -14.566      192.308       49.525       94.022    36982.242     2452.739     8840.142        3.061        2.414      112.939      130.527        1.336      334.694        4.838      853.023
01/22/2021  04:46:00      -64.674       10.323       -4.989       46.320       47.705       30.939     2145.555     2275.760      957.191        0.485        0.269       65.493       31.034        0.225      334.227        4.060      853.067
01/22/2021  04:47:00      -98.261       15.016      -12.555      279.094       52.895      138.963    77893.296     2797.837    19310.585        5.500        5.000       99.402      181.119        3.320      334.046        3.762      853.115
01/22/2021  04:48:00     -199.462       18.676      -18.669       60.631       53.434       38.941     3676.115     2855.205     1516.401        2.426        0.402      200.334       31.577        0.025      333.921        3.550      853.140
01/22/2021  04:49:00      -94.880       34.510      -10.179      285.866       69.097      139.734    81719.336     4774.359    19525.661        5.814        5.301      100.961      188.895        3.501      333.926        3.563      853.125
01/22/2021  04:50:00     -141.443       71.882      -10.755       88.831       63.597       37.916     7890.940     4044.599     1437.639        1.933        0.669      158.661       41.368        0.068      333.769        3.299      853.062
01/22/2021  04:51:00      -69.688      100.442      -19.763      311.189       50.457      152.461    96838.327     2545.930    23244.361        6.896        6.131      122.249      211.847        3.003      334.006        3.696      852.996
01/22/2021  04:52:00      -54.526       74.155      -32.259      333.298       55.461      163.959   111087.789     3075.906    26882.561        7.525        7.052       92.044      228.498        6.163      334.060        3.787      853.001
01/22/2021  04:53:00      -43.928        6.213       -8.874      190.265       65.604       91.718    36200.635     4303.902     8412.119        2.547        2.446       44.365      114.905        6.708      333.771        3.304      853.067
01/22/2021  04:54:00     -109.890       -1.887      -33.288      345.191       54.663      163.323   119156.501     2988.009    26674.343        8.097        7.441      109.906      230.234        4.388      333.859        3.453      853.109
01/22/2021  04:55:00     -103.900       35.749      -42.140      417.220       57.189      200.236   174072.626     3270.631    40094.500       11.560       10.872      109.878      283.818        6.672      334.025        3.730      853.109
01/22/2021  04:56:00      -90.318       77.464      -16.995      300.762       66.129      150.364    90457.994     4373.026    22609.425        6.592        5.872      118.988      202.893        2.908      334.237        4.079      853.074
01/22/2021  04:57:00     -133.985      138.565      -31.837      241.699       84.351      117.257    58418.348     7115.172    13749.107        5.871        3.964      192.749      160.719        0.695      334.697        4.841      853.040
01/22/2021  04:58:00     -118.561       46.482      -16.589      149.659       56.414       79.864    22397.895     3182.505     6378.305        2.422        1.598      127.347       91.812        0.520      334.463        4.452      853.044
01/22/2021  04:59:00      -80.774       47.907      -20.117      183.042       43.595       94.705    33504.523     1900.490     8969.059        2.679        2.219       93.912      115.198        1.505      334.479        4.479      853.065
01/22/2021  05:00:00      -72.330       83.035       -2.022       48.372       45.527       29.458     2339.869     2072.702      867.786        0.870        0.264      110.120       28.895        0.069      334.519        4.546      853.065
01/22/2021  05:01:00       -8.957       43.630      -23.605      339.384       34.158      165.045   115181.206     1166.783    27239.789        7.303        7.179       44.539      235.075       27.856      334.398        4.347      853.060
01/22/2021  05:02:00      -82.182       23.034       -6.681      169.239       40.805       88.748    28641.711     1665.024     7876.262        2.275        1.909       85.349      114.501        1.800      334.117        3.878      853.059
01/22/2021  05:03:00     -169.176        9.851      -32.649       74.657       41.405       29.347     5573.685     1714.379      861.226        1.896        0.407      169.462       17.831        0.011      333.894        3.507      853.073
01/22/2021  05:04:00     -160.949       10.341       -7.875       90.883       59.989       39.513     8259.676     3598.716     1561.275        1.974        0.671      161.280       40.688        0.064      333.770        3.301      853.136
01/22/2021  05:05:00     -126.921       30.551      -14.568      242.921       61.627      123.459    59010.829     3797.835    15242.181        4.764        3.903      130.546      161.271        1.526      333.743        3.260      853.207
01/22/2021  05:06:00     -216.639       77.636       -4.874       59.231       59.964       39.692     3508.278     3595.727     1575.421        3.083        0.434      230.130       34.604        0.023      333.825        3.389      853.206
01/22/2021  05:07:00     -184.107      148.125      -26.902      201.442       81.454       97.239    40578.707     6634.826     9455.494        5.660        2.833      236.297      118.923        0.253      333.995        3.673      853.145
01/22/2021  05:08:00      -89.116      103.488       -0.690       49.550       68.176       33.964     2455.232     4647.919     1153.577        1.345        0.413      136.570       30.707        0.051      333.969        3.633      853.055
01/22/2021  05:09:00     -135.213      174.100      -24.824      180.873       60.400       91.334    32714.988     3648.131     8341.837        4.695        2.235      220.439      113.739        0.266      334.543        4.581      853.003
01/22/2021  05:10:00      -94.500      152.744      -18.730      222.251       81.681      109.194    49395.575     6671.849    11923.434        5.029        3.400      179.614      147.378        0.673      334.616        4.704      853.013
01/22/2021  05:11:00      -66.949       40.513      -41.351      296.349       50.988      146.992    87822.984     2599.744    21606.778        5.991        5.601       78.253      202.796        6.716      334.364        4.290      853.061
01/22/2021  05:12:00      -78.042       34.554      -28.459      199.539       66.396       91.651    39815.999     4408.373     8399.942        3.035        2.631       85.350      119.310        1.954      334.158        3.946      853.116
01/22/2021  05:13:00      -61.839       39.786      -15.936      171.206       55.583       88.639    29311.472     3089.439     7856.928        2.295        2.013       73.532      114.610        2.429      334.171        3.969      853.128
01/22/2021  05:14:00      -97.329       58.239      -20.688      176.058       57.658       91.697    30996.303     3324.429     8408.329        2.800        2.136      113.423      119.855        1.117      334.338        4.246      853.073
01/22/2021  05:15:00      -84.913       89.465      -10.693      180.109       58.291       85.151    32439.358     3397.805     7250.689        2.920        2.154      123.346      116.248        0.888      334.472        4.467      853.009
01/22/2021  05:16:00     -108.060      125.870      -11.978      158.352       52.225       76.845    25075.401     2727.484     5905.165        3.068        1.685      165.892      100.917        0.370      334.728        4.891      852.987
01/22/2021  05:17:00     -120.782       83.676      -31.291      261.784       46.852      128.621    68530.787     2195.151    16543.371        5.490        4.363      146.935      176.321        1.440      334.703        4.852      853.021
01/22/2021  05:18:00     -123.694      143.712      -22.373      135.349       44.076       65.805    18319.487     1942.698     4330.333        3.052        1.230      189.614       86.459        0.208      334.718        4.872      853.043
01/22/2021  05:19:00     -106.118       96.950      -37.706      301.290       51.021      143.208    90775.947     2603.155    20508.467        6.796        5.694      143.737      202.592        1.987      334.825        5.055      853.023
01/22/2021  05:20:00      -66.344      114.315      -11.289       50.729       45.756       26.110     2573.465     2093.612      681.735        1.147        0.267      132.172       17.643        0.018      335.141        5.579      853.021
01/22/2021  05:21:00      -14.808       65.701      -13.007      245.384       40.330      115.549    60213.134     1626.535    13351.638        3.993        3.760       67.349      165.410        6.032      335.014        5.370      853.038
01/22/2021  05:22:00       13.279       98.906      -17.832      286.053       51.079      135.049    81826.353     2609.088    18238.191        5.645        5.134       99.793      194.352        3.793      335.204        5.687      853.041
01/22/2021  05:23:00      -11.553      149.230       -5.816      142.482       43.505       73.905    20301.060     1892.700     5462.006        2.504        1.383      149.676       96.951        0.420      335.394        5.999      853.013
01/22/2021  05:24:00       -1.072      152.957       -0.147       36.764       46.630       24.490     1351.627     2174.340      599.762        1.376        0.206      152.961       14.180        0.009      335.301        5.844      852.984
01/22/2021  05:25:00       35.135      175.575      -13.125      166.440       36.940       79.296    27702.112     1364.578     6287.919        3.379        1.768      179.056      111.263        0.386      335.400        6.010      852.951
01/22/2021  05:26:00       79.964      157.600      -27.110      250.172       55.712      122.611    62585.982     3103.807    15033.336        5.633        4.036      176.726      171.832        0.945      335.407        6.021      852.922
01/22/2021  05:27:00       28.164      172.195       -5.266       37.024       63.175       26.438     1370.813     3991.019      698.992        1.827        0.303      174.483       33.909        0.038      335.237        5.735      852.885
01/22/2021  05:28:00       49.803      163.942      -19.187       36.524       47.612       24.048     1334.003     2266.938      578.311        1.695        0.209      171.340       16.738        0.010      335.067        5.454      852.867
01/22/2021  05:29:00        8.291       44.811       -7.159      166.297       70.752       83.422    27654.785     5005.860     6959.169        2.087        1.981       45.571      110.472        5.877      334.605        4.688      852.856
01/22/2021  05:30:00      -11.725       -2.805      -20.601      243.319       24.320      116.953    59204.286      591.482    13677.898        3.701        3.674       12.056      166.244      190.154      334.267        4.130      852.870
01/22/2021  05:31:00      -77.808       -3.823       -9.304       24.939       27.863       19.220      621.954      776.339      369.403        0.396        0.088       77.902       19.735        0.064      333.989        3.667      852.900
01/22/2021  05:32:00      -73.171       24.125       -7.819       21.144       29.257       17.086      447.056      855.994      291.947        0.380        0.080       77.046       18.872        0.060      334.373        4.303      852.901
01/22/2021  05:33:00      -31.051       51.447       -8.669       19.269       20.632       13.629      371.276      425.699      185.746        0.233        0.049       60.092       10.320        0.029      334.310        4.200      852.847
01/22/2021  05:34:00      -36.569       44.508       -5.042       19.178       18.524       11.847      367.786      343.134      140.353        0.210        0.043       57.605        8.421        0.021      334.270        4.133      852.786
01/22/2021  05:35:00      -91.116       21.680      -10.945       40.868       28.105       18.976     1670.216      789.865      360.103        0.586        0.141       93.659       20.936        0.050      334.228        4.063      852.761
01/22/2021  05:36:00     -100.767       10.824      -25.288      170.201       34.787       79.998    28968.496     1210.114     6399.725        2.374        1.829      101.347      111.320        1.207      333.906        3.529      852.767
01/22/2021  05:37:00     -150.540       36.194      -20.228       46.974       41.807       25.026     2206.513     1747.791      626.287        1.448        0.229      154.830       18.167        0.014      333.879        3.483      852.788
01/22/2021  05:38:00     -163.214       22.299      -23.029      189.512       47.164       93.441    35914.962     2224.432     8731.293        3.726        2.344      164.730      124.663        0.573      333.980        3.650      852.821
01/22/2021  05:39:00     -178.214       41.819      -14.940       52.551       49.960       32.821     2761.655     2496.031     1077.205        2.003        0.317      183.055       28.632        0.024      334.025        3.726      852.866
01/22/2021  05:40:00     -183.287       83.243      -16.789      203.529       49.068       99.241    41423.900     2407.669     9848.840        4.723        2.684      201.304      131.934        0.430      334.199        4.012      852.898
01/22/2021  05:41:00     -155.369       56.526      -15.194       38.692       55.565       29.422     1497.086     3087.523      865.664        1.651        0.273      165.332       22.324        0.018      334.229        4.063      852.908
01/22/2021  05:42:00     -122.414      105.233      -12.855       57.684       69.581       30.855     3327.420     4841.527      952.046        1.767        0.456      161.428       24.344        0.023      334.571        4.629      852.914
01/22/2021  05:43:00     -133.260       77.938      -14.104       46.006       42.931       26.856     2116.519     1843.096      721.229        1.436        0.234      154.378       20.771        0.018      334.582        4.648      852.917
01/22/2021  05:44:00     -121.097       71.477      -11.909       32.765       44.806       30.613     1073.516     2007.594      937.184        1.197        0.201      140.618       18.139        0.017      334.560        4.613      852.918
01/22/2021  05:45:00     -133.515       79.388      -22.535       35.956       46.077       25.918     1292.805     2123.100      671.743        1.436        0.204      155.334       21.496        0.019      334.541        4.581      852.909
01/22/2021  05:46:00     -153.348      106.563      -18.312       42.229       53.868       30.864     1783.325     2901.765      952.589        2.042        0.282      186.738       18.000        0.009      334.665        4.784      852.895
01/22/2021  05:47:00     -145.922       97.414      -30.078      209.175       53.055       98.995    43754.229     2814.792     9799.957        4.402        2.818      175.450      138.978        0.627      334.464        4.454      852.882
01/22/2021  05:48:00     -142.004      103.702      -18.675      159.611       44.852       79.597    25475.519     2011.737     6335.758        3.254        1.691      175.839      101.179        0.331      334.527        4.557      852.872
01/22/2021  05:49:00     -120.261       43.917      -25.485      217.513       36.849      104.683    47311.854     1357.858    10958.457        3.832        2.981      128.029      141.764        1.226      334.340        4.250      852.863
01/22/2021  05:50:00     -145.669       75.090      -26.902      143.378       48.997       73.040    20557.131     2400.732     5334.884        2.793        1.415      163.884       95.754        0.341      334.279        4.148      852.864
01/22/2021  05:51:00      -74.894        7.731      -16.287       56.489       56.838       31.414     3190.978     3230.587      986.826        0.667        0.370       75.292       33.544        0.198      334.092        3.837      852.880
01/22/2021  05:52:00      -53.753       19.667      -19.607      197.172       45.149       95.982    38876.749     2038.415     9212.590        2.688        2.506       57.238      130.435        5.193      334.312        4.204      852.896
01/22/2021  05:53:00      -61.014       36.741       -3.713       50.451       52.670       27.777     2545.276     2774.098      771.570        0.559        0.305       71.222       30.983        0.189      334.159        3.948      852.898
01/22/2021  05:54:00      -59.465       61.204      -15.488      274.046       34.014      130.475    75101.358     1156.946    17023.755        5.038        4.664       85.335      183.070        4.602      334.416        4.377      852.879
01/22/2021  05:55:00     -131.178       34.537      -14.165       43.377       31.851       29.322     1881.525     1014.509      859.765        1.118        0.188      135.648       25.955        0.037      334.081        3.819      852.853
01/22/2021  05:56:00     -166.436       65.839       -9.234       46.179       61.765       24.824     2132.533     3814.923      616.218        1.934        0.328      178.985       22.465        0.016      334.331        4.231      852.850
01/22/2021  05:57:00     -153.440       95.817      -25.703      143.609       50.359       67.891    20623.565     2536.078     4609.249        3.057        1.388      180.900       89.055        0.242      334.399        4.344      852.861
01/22/2021  05:58:00     -174.763       70.776      -11.124       40.550       34.482       26.532     1644.295     1189.006      703.960        1.961        0.177      188.551       14.656        0.006      334.274        4.137      852.876
01/22/2021  05:59:00      -93.548       55.868       -7.389       40.445       34.339       26.145     1635.774     1179.166      683.541        0.771        0.175      108.961       25.165        0.053      334.230        4.065      852.872
01/22/2021  06:00:00      -57.717       45.231       -0.708       28.125       30.536       23.212      790.989      932.448      538.816        0.382        0.113       73.329       18.743        0.065      334.433        4.402      852.849
01/22/2021  06:01:00      -37.905       36.783       -4.706       21.806       22.958       14.927      475.521      527.089      222.810        0.202        0.061       52.818        9.118        0.030      334.416        4.374      852.811
01/22/2021  06:02:00      -37.215      114.535       -0.335       31.783       51.577       21.244     1010.182     2660.139      451.316        0.931        0.206      120.430       17.105        0.020      334.803        5.016      852.790
01/22/2021  06:03:00      -25.381      122.245       -8.674      196.277       36.230       94.641    38524.705     1312.645     8956.838        3.222        2.440      124.852      133.931        1.151      334.780        4.981      852.786
01/22/2021  06:04:00       37.438       50.368      -10.048      206.662       44.664       96.061    42709.339     1994.838     9227.784        2.897        2.697       62.757      138.436        4.866      334.473        4.470      852.776
01/22/2021  06:05:00       69.580        8.967      -13.621       51.806       53.158       32.237     2683.812     2825.783     1039.237        0.583        0.327       70.155       24.088        0.118      333.786        3.329      852.757
01/22/2021  06:06:00      116.269       45.543       -3.158      158.128       47.795       74.374    25004.368     2284.349     5531.489        2.420        1.641      124.871      105.290        0.711      333.725        3.229      852.766
01/22/2021  06:07:00      113.894       48.351       -2.700       21.693       26.582       18.750      470.577      706.623      351.547        0.842        0.076      123.733       14.874        0.014      333.646        3.098      852.790
01/22/2021  06:08:00       97.430      -29.413       -6.635       54.225       39.334       29.265     2940.365     1547.174      856.430        0.787        0.267      101.773       21.193        0.043      333.676        3.148      852.828
01/22/2021  06:09:00      103.739      -15.257      -12.855       61.838       52.811       37.089     3823.928     2789.049     1375.592        0.957        0.399      104.855       30.761        0.086      333.836        3.411      852.840
01/22/2021  06:10:00       75.514     -112.393      -23.324      155.572       81.633       76.256    24202.761     6663.998     5814.967        2.777        1.834      135.405      103.335        0.582      334.050        3.767      852.848
01/22/2021  06:11:00       28.017     -130.205      -21.911       84.844       58.323       33.100     7198.437     3401.614     1095.589        1.495        0.585      133.185       21.983        0.027      334.099        3.847      852.882
01/22/2021  06:12:00       42.429      -90.887      -33.601      214.528       75.987      104.976    46022.303     5774.037    11019.898        3.699        3.141      100.303      142.334        2.014      333.919        3.550      852.902
01/22/2021  06:13:00       -8.300      -50.796      -11.978      177.757       66.485       85.061    31597.500     4420.308     7235.367        2.301        2.163       51.469      117.382        5.201      333.860        3.452      852.899
01/22/2021  06:14:00      101.918      -72.218      -27.347       41.181       49.252       30.681     1695.838     2425.717      941.351        1.071        0.253      124.910       23.126        0.034      333.779        3.316      852.875
01/22/2021  06:15:00       80.036      -40.311      -15.493      117.528       38.804       57.176    13812.945     1505.749     3269.072        1.343        0.929       89.614       75.618        0.712      333.836        3.411      852.849
01/22/2021  06:16:00       76.852        3.568        0.103      164.098       31.586       79.149    26928.114      997.674     6264.525        2.005        1.710       76.935      110.860        2.076      333.896        3.513      852.844
01/22/2021  06:17:00        6.266        5.129       -2.985      214.761       29.008      102.077    46122.134      841.439    10419.801        2.872        2.869        8.097      145.664      323.636      333.971        3.637      852.840
01/22/2021  06:18:00      -24.181       -0.041       -8.257      131.991       17.129       63.077    17421.701      293.419     3978.745        1.117        1.085       24.181       90.052       13.868      333.888        3.498      852.833
01/22/2021  06:19:00      -44.723       12.419       -0.862       15.455       21.536       12.966      238.858      463.807      168.128        0.151        0.044       46.415       16.397        0.125      333.877        3.480      852.821
01/22/2021  06:20:00      -43.361       31.977       -4.794      144.575       26.811       69.142    20902.054      718.827     4780.613        1.466        1.320       53.877       96.505        3.208      334.348        4.262      852.818
01/22/2021  06:21:00      -61.759       34.187      -22.752      248.400       35.598      113.070    61702.719     1267.233    12784.740        4.061        3.788       70.590      164.231        5.413      334.033        3.741      852.814
01/22/2021  06:22:00     -145.074       12.973       -3.274       79.642       63.221       40.309     6342.790     3996.843     1624.833        1.659        0.598      145.653       37.117        0.065      333.553        2.944      852.800
01/22/2021  06:23:00     -113.336       53.451       -7.555      163.992       39.969       75.821    26893.306     1597.559     5748.879        2.499        1.712      125.308      102.848        0.674      333.738        3.250      852.776
01/22/2021  06:24:00     -153.782       79.795      -16.919       26.947       36.338       22.831      726.119     1320.452      521.254        1.643        0.128      173.252       19.528        0.013      333.932        3.571      852.734
01/22/2021  06:25:00      -97.071       49.333      -11.552       50.443       35.983       23.337     2544.505     1294.807      544.600        0.819        0.219      108.888       22.939        0.044      333.830        3.402      852.732
01/22/2021  06:26:00      -52.211       27.121      -18.879      209.229       40.067      102.237    43776.651     1605.386    10452.446        2.981        2.792       58.835      141.898        5.817      333.910        3.535      852.740
01/22/2021  06:27:00      -54.569       26.883       -7.174       44.031       37.857       30.822     1938.746     1433.182      949.982        0.404        0.216       60.832       21.154        0.121      333.837        3.414      852.737
01/22/2021  06:28:00      -65.172       34.499      -22.446      149.074       35.394       72.368    22223.169     1252.753     5237.174        1.732        1.436       73.740       90.692        1.513      333.948        3.598      852.729
01/22/2021  06:29:00      -42.026       12.293      -17.290      195.862       32.150       96.931    38362.088     1033.615     9395.714        2.549        2.440       43.787      132.397        9.142      333.838        3.418      852.728
01/22/2021  06:30:00     -128.662       14.379      -15.766      175.477       33.888       77.497    30792.222     1148.374     6005.746        2.747        1.897      129.463      109.154        0.711      333.711        3.207      852.745
01/22/2021  06:31:00     -124.515       30.608      -10.996      212.317       45.028      105.821    45078.382     2027.547    11198.138        3.742        2.915      128.222      143.308        1.249      334.067        3.797      852.763
01/22/2021  06:32:00      -83.932       42.293       -7.408      183.861       35.267       88.569    33804.920     1243.774     7844.492        2.588        2.145       93.986      120.557        1.645      334.080        3.819      852.771
01/22/2021  06:33:00      -67.858       35.032       -9.028      172.411       38.294       84.114    29725.557     1466.434     7075.148        2.208        1.913       76.367      114.990        2.267      334.163        3.957      852.760
01/22/2021  06:34:00      -36.107        8.025       -2.590       18.738       32.368       17.940      351.100     1047.686      321.860        0.155        0.086       36.988       16.209        0.192      334.322        4.219      852.770
01/22/2021  06:35:00       14.329      -18.303       -5.587      233.829       24.570      112.712    54675.936      603.675    12703.923        3.426        3.399       23.245      161.141       48.059      334.363        4.288      852.774
01/22/2021  06:36:00      -15.531      -15.518       -9.031      149.306       25.900       73.830    22292.235      670.813     5450.826        1.448        1.421       21.955      101.766       21.485      334.458        4.445      852.777
01/22/2021  06:37:00        0.087      -27.130       -9.476      164.142       23.660       78.387    26942.720      559.796     6144.488        1.723        1.682       27.130      111.385       16.856      334.360        4.282      852.772
01/22/2021  06:38:00       28.776      -51.202      -24.607      191.472       32.178       92.588    36661.571     1035.398     8572.506        2.515        2.313       58.734      129.897        4.891      334.315        4.209      852.774
01/22/2021  06:39:00      133.618     -135.492      -39.346      232.273       48.469      114.080    53950.884     2349.221    13014.157        5.352        3.466      190.295      160.030        0.707      334.070        3.802      852.787
01/22/2021  06:40:00       79.417      -71.436      -10.325       49.206       53.011       29.589     2421.243     2810.155      875.534        0.881        0.305      106.818       18.560        0.030      333.831        3.403      852.800
01/22/2021  06:41:00       56.594      -25.529       -6.385      237.042       50.434      117.418    56188.674     2543.596    13786.896        3.819        3.626       62.085      164.077        6.984      333.862        3.456      852.787
01/22/2021  06:42:00      -34.321       53.108       -4.302      142.114       31.370       67.564    20196.453      984.075     4564.838        1.488        1.287       63.233       91.157        2.078      333.818        3.382      852.778
01/22/2021  06:43:00      -92.642       22.865      -20.635      272.931       34.809      130.490    74491.433     1211.633    17027.569        5.111        4.637       95.422      185.984        3.799      333.779        3.320      852.787
01/22/2021  06:44:00       -7.201        1.548        9.470       43.273       35.128       25.450     1872.544     1234.003      647.727        0.195        0.188        7.366       21.174        8.264      333.447        2.767      852.791
01/22/2021  06:45:00      -15.701        0.157        5.496       39.176       34.373       22.644     1534.777     1181.498      512.750        0.175        0.161       15.702       22.153        1.990      333.611        3.040      852.787
01/22/2021  06:46:00      -59.416       21.459       -2.827      199.027       34.838       94.902    39611.685     1213.712     9006.340        2.690        2.492       63.173      133.220        4.447      333.772        3.306      852.770
01/22/2021  06:47:00      -91.720       16.730        0.004       18.105       25.049       16.084      327.795      627.463      258.708        0.495        0.061       93.233       19.637        0.044      333.902        3.522      852.751
01/22/2021  06:48:00      -83.286        7.947      -20.330      156.518       24.096       75.641    24497.954      580.615     5721.636        1.910        1.540       83.664      106.677        1.626      333.927        3.564      852.757
01/22/2021  06:49:00      -29.676       -2.628      -33.329      392.973       29.003      186.872   154427.941      841.200    34921.037        9.605        9.510       29.792      268.842       81.432      334.059        3.786      852.766
01/22/2021  06:50:00     -100.009       -5.403      -12.931       25.712       25.204       18.676      661.116      635.254      348.795        0.592        0.082      100.155       12.866        0.017      333.763        3.292      852.783
01/22/2021  06:51:00      -70.671      -15.344      -17.718      172.929       25.325       84.777    29904.529      641.370     7187.140        2.163        1.887       72.318      117.166        2.625      333.796        3.347      852.796
01/22/2021  06:52:00      -67.970       -1.455      -14.689      235.003       27.787      112.182    55226.459      772.129    12584.811        3.670        3.429       67.986      159.067        5.474      333.835        3.413      852.817
01/22/2021  06:53:00       12.492       -5.455      -10.308      192.013       40.504       86.990    36869.086     1640.549     7567.240        2.317        2.304       13.631      125.683       85.013      333.722        3.224      852.843
01/22/2021  06:54:00       46.903      -57.546      -18.697       55.151       44.659       29.338     3041.648     1994.406      860.729        0.588        0.295       74.239       25.041        0.114      333.885        3.495      852.891
01/22/2021  06:55:00      177.388     -218.567      -54.164      319.150       50.965      156.604   101856.411     2597.464    24524.844       10.555        6.449      281.492      220.489        0.614      334.066        3.793      852.954
01/22/2021  06:56:00       13.768      -79.477      -23.687      180.165       59.618       77.849    32459.370     3554.271     6060.389        2.456        2.104       80.661      106.892        1.756      333.799        3.350      852.986
01/22/2021  06:57:00       90.684      -72.320      -13.560      175.465       83.764       88.314    30787.961     7016.427     7799.326        2.961        2.280      115.991      118.532        1.044      333.770        3.303      852.984
01/22/2021  06:58:00       77.436     -117.998      -22.880      152.455       82.007       78.661    23242.671     6725.230     6187.608        2.829        1.808      141.138      100.483        0.507      333.736        3.246      852.973
01/22/2021  06:59:00       65.820      -37.836      -19.976      259.939       49.121      126.089    67568.272     2412.893    15898.368        4.600        4.294       75.920      177.110        5.442      333.790        3.338      852.938
01/22/2021  07:00:00       19.771      -22.641        6.591       30.565       32.949       27.088      934.199     1085.644      733.748        0.185        0.138       30.059       21.891        0.530      333.866        3.462      852.894
01/22/2021  07:01:00        7.519      -34.617      -10.745      132.139       30.427       64.272    17460.622      925.797     4130.912        1.194        1.126       35.424       89.364        6.364      333.905        3.528      852.868
01/22/2021  07:02:00       23.442       -7.039      -14.659      203.486       31.126       99.102    41406.644      968.839     9821.213        2.649        2.610       24.476      139.381       32.427      333.933        3.574      852.884
01/22/2021  07:03:00       -1.205       -3.919       -1.910      191.155       25.016       90.982    36540.372      625.817     8277.812        2.272        2.272        4.100      129.712     1000.811      333.811        3.369      852.901
01/22/2021  07:04:00      -38.596        4.772        1.306      144.722       26.176       69.413    20944.373      685.202     4818.109        1.398        1.322       38.890       97.158        6.241      333.807        3.365      852.912
01/22/2021  07:05:00       28.160        0.449       -7.745      235.596       34.613      113.926    55505.692     1198.094    12979.193        3.525        3.484       28.164      161.684       32.957      333.889        3.500      852.908
01/22/2021  07:06:00      -12.234        8.465       -3.748      149.068       25.306       71.464    22221.346      640.414     5107.139        1.410        1.398       14.877      101.015       46.105      333.779        3.318      852.903
01/22/2021  07:07:00      -32.633       19.990       -3.919      135.690       32.567       66.180    18411.683     1060.589     4379.795        1.266        1.193       38.269       89.102        5.421      333.711        3.206      852.898
01/22/2021  07:08:00       37.827       -7.725       -5.035      263.957       28.174      134.556    69673.558      793.775    18105.432        4.503        4.429       38.608      185.679       23.130      333.725        3.231      852.901
01/22/2021  07:09:00        5.474      -13.038       -3.842      261.149       31.021      126.144    68198.675      962.278    15912.419        4.263        4.254       14.140      178.373      159.128      333.769        3.305      852.908
01/22/2021  07:10:00      -27.047       -8.110        8.984       29.605       26.670       17.403      876.450      711.275      302.858        0.138        0.095       28.236       14.434        0.261      333.852        3.440      852.913
01/22/2021  07:11:00        8.582        9.647        7.316       16.512       22.436       13.879      272.635      503.361      192.627        0.059        0.048       12.911       13.042        1.020      333.830        3.403      852.917
01/22/2021  07:12:00       16.755       33.889        2.886       21.813       24.428       16.601      475.798      596.745      275.579        0.139        0.067       37.805       17.108        0.205      333.781        3.321      852.925
01/22/2021  07:13:00       54.255       40.211       -7.829      185.796       23.431       88.958    34520.195      549.005     7913.443        2.379        2.149       67.532      127.445        3.561      333.886        3.495      852.940
01/22/2021  07:14:00       66.588       71.229      -10.435      197.363       32.942       95.410    38952.342     1085.176     9102.973        2.937        2.457       97.506      135.433        1.929      333.936        3.581      852.940
01/22/2021  07:15:00       -2.074      123.737       -1.603       26.256       18.799       15.793      689.358      353.386      249.434        0.830        0.065      123.754        9.036        0.005      333.791        3.338      852.937
01/22/2021  07:16:00       -6.284      107.267        0.774       32.887       33.941       21.411     1081.561     1152.001      458.448        0.712        0.135      107.451       11.588        0.012      333.808        3.366      852.926
01/22/2021  07:17:00       41.695      139.369      -21.545      177.206       28.364       87.268    31402.080      804.516     7615.767        3.072        1.991      145.472      122.054        0.704      333.988        3.666      852.921
01/22/2021  07:18:00       14.685      123.729      -10.123       33.076       39.093       23.368     1094.018     1528.225      546.060        0.940        0.158      124.597       17.841        0.021      333.874        3.475      852.919
01/22/2021  07:19:00      -19.551      102.446       -0.859       35.127       45.766       30.813     1233.909     2094.569      949.419        0.758        0.214      104.295       23.435        0.050      333.714        3.210      852.924
01/22/2021  07:20:00      -35.132       68.761      -10.454      237.061       35.312      113.297    56197.836     1246.946    12836.284        3.816        3.514       77.216      159.815        4.284      333.784        3.327      852.917
01/22/2021  07:21:00      -98.983       61.776      -12.158       31.355       37.478       16.974      983.135     1404.624      288.111        0.822        0.134      116.678       16.602        0.020      333.662        3.122      852.914
01/22/2021  07:22:00     -110.733       35.345      -20.914       56.581       40.081       25.267     3201.415     1606.478      638.411        0.970        0.272      116.238       24.352        0.044      333.639        3.086      852.913
01/22/2021  07:23:00      -84.283       41.164      -27.756       60.933       39.702       32.905     3712.780     1576.218     1082.720        0.797        0.319       93.798       29.474        0.099      333.653        3.109      852.924
01/22/2021  07:24:00      -36.487        1.637      -16.318      231.961       50.191      112.085    53805.988     2519.121    12562.987        3.523        3.444       36.523      152.593       17.455      333.642        3.091      852.900
01/22/2021  07:25:00       -9.017      -29.828        2.033      198.680       58.448       99.634    39473.694     3416.178     9926.867        2.688        2.641       31.161      126.861       16.574      333.665        3.131      852.890
01/22/2021  07:26:00       25.628      -36.181      -21.443      236.759       40.935      114.593    56055.059     1675.660    13131.600        3.663        3.543       44.338      162.006       13.351      333.703        3.194      852.918
01/22/2021  07:27:00       79.628     -110.130      -19.621      172.602       94.450       88.938    29791.611     8920.892     7909.990        3.273        2.331      135.902      113.290        0.695      333.846        3.427      852.941
01/22/2021  07:28:00       93.544     -134.231      -19.914      196.788       60.722       94.144    38725.709     3687.112     8863.013        3.921        2.564      163.611      131.493        0.646      333.796        3.345      852.993
01/22/2021  07:29:00       -9.702      -58.145      -34.149      180.835       59.759       91.616    32701.165     3571.196     8393.419        2.464        2.233       58.949      121.879        4.275      333.912        3.538      853.022
01/22/2021  07:30:00       31.243     -124.495      -41.323      229.397       80.600       97.328    52622.888     6496.304     9472.834        4.337        3.430      128.355      138.555        1.165      333.948        3.598      853.029
01/22/2021  07:31:00      110.121     -180.113      -41.214      274.647       54.472      131.233    75430.955     2967.188    17222.171        7.092        4.781      211.110      186.850        0.783      333.962        3.621      853.019
01/22/2021  07:32:00      -92.569      -29.363      -26.793       59.099       60.752       29.223     3492.728     3690.760      853.968        0.909        0.402       97.114       28.374        0.085      334.178        3.980      853.021
01/22/2021  07:33:00      -86.961       -2.689        4.452       91.175       58.988       44.490     8312.870     3479.620     1979.332        1.068        0.689       87.003       42.919        0.243      334.027        3.728      852.990
01/22/2021  07:34:00       10.112      -10.291       -0.222       65.646       47.445       31.485     4309.351     2251.013      991.331        0.388        0.378       14.428       15.118        1.098      334.108        3.863      852.975
01/22/2021  07:35:00      -85.854       23.081      -14.652      151.104       45.940       68.796    22832.511     2110.451     4732.861        1.889        1.484       88.902       80.911        0.828      334.201        4.017      852.963
01/22/2021  07:36:00     -149.111       70.512      -17.186       45.778       42.683       30.804     2095.596     1821.821      948.884        1.618        0.243      164.943       28.995        0.031      334.089        3.830      852.950
01/22/2021  07:37:00      -42.787       22.228       -4.623      201.712       25.000       94.362    40687.915      624.978     8904.231        2.627        2.511       48.216      133.810        7.702      334.138        3.916      852.904
01/22/2021  07:38:00      -20.086       19.644      -12.249      151.046       20.190       71.360    22815.040      407.640     5092.181        1.462        1.416       28.095      100.580       12.817      334.355        4.275      852.863
01/22/2021  07:39:00       -1.709       -0.458      -12.209       41.994       32.485       19.736     1763.479     1055.259      389.519        0.168        0.160        1.769       15.325       75.018      334.217        4.043      852.835
01/22/2021  07:40:00      -13.504      -30.816       -3.989       51.606       33.993       20.821     2663.204     1155.548      433.502        0.270        0.213       33.645       22.044        0.429      334.105        3.856      852.829
01/22/2021  07:41:00        0.879      -16.861       -4.397       12.551       29.352       13.535      157.523      861.567      183.200        0.075        0.060       16.884       17.656        1.094      334.053        3.773      852.846
01/22/2021  07:42:00      -19.720       -6.567       -1.529       28.316       29.491       12.877      801.783      869.741      165.826        0.114        0.092       20.784        7.483        0.130      334.030        3.733      852.872
01/22/2021  07:43:00       14.440      -17.255       -8.184      181.799       35.945       88.516    33050.736     1292.027     7835.144        2.137        2.109       22.500      125.677       31.200      334.058        3.782      852.893
01/22/2021  07:44:00      -60.322       14.813        1.637       28.816       25.802       18.175      830.333      665.731      330.346        0.284        0.091       62.114       10.540        0.029      333.849        3.433      852.907
01/22/2021  07:45:00        9.529       11.398        3.664       38.779       19.211       18.661     1503.818      369.050      348.227        0.123        0.111       14.856       14.242        0.919      333.909        3.534      852.909
01/22/2021  07:46:00       38.471       17.105      -10.526      141.291       10.609       68.068    19963.041      112.554     4633.306        1.329        1.235       42.102       96.941        5.302      333.997        3.681      852.920
01/22/2021  07:47:00      -15.761      -21.038       -3.305       35.337       30.240       29.630     1248.699      914.484      877.947        0.187        0.152       26.287       22.031        0.702      333.972        3.639      852.938
01/22/2021  07:48:00      -12.883       -5.985       -3.949      152.570       33.396       72.746    23277.456     1115.285     5291.956        1.494        1.484       14.205      100.352       49.906      333.953        3.607      852.948
01/22/2021  07:49:00     -101.994      -10.784      -13.435       35.454       22.926       14.883     1257.014      525.624      221.506        0.635        0.100      102.562        9.288        0.008      333.942        3.589      852.935
01/22/2021  07:50:00      -77.396      -34.055        2.736       79.096       47.665       36.219     6256.202     2272.000     1311.789        0.850        0.492       84.557       41.363        0.239      333.903        3.523      852.942
01/22/2021  07:51:00      -65.068       30.798       -1.058       37.322       55.399       22.312     1392.958     3069.075      497.830        0.507        0.248       71.989       16.101        0.050      334.023        3.722      852.949
01/22/2021  07:52:00      -46.216       42.164       -8.500       27.671       24.721       12.360      765.708      611.116      152.763        0.276        0.076       62.560       11.450        0.033      334.117        3.877      852.950
01/22/2021  07:53:00      -42.758       23.071       -5.204      114.285       18.236       53.348    13061.067      332.549     2845.957        0.931        0.812       48.585       71.760        2.181      334.099        3.847      852.963
01/22/2021  07:54:00      -55.872       -8.590       -1.400       46.028       48.903       28.585     2118.583     2391.490      817.115        0.426        0.266       56.528       23.426        0.172      334.038        3.746      852.967
01/22/2021  07:55:00     -114.551      -11.008       -4.632      135.446       39.670       65.195    18345.626     1573.676     4250.335        1.871        1.208      115.079       88.021        0.585      334.185        3.991      852.961
01/22/2021  07:56:00      -85.275       -8.543        4.839       62.956       34.435       29.815     3963.396     1185.798      888.937        0.670        0.302       85.701       34.259        0.160      334.165        3.959      852.950
01/22/2021  07:57:00      -30.760      -31.467       -4.536       26.588       18.718       16.623      706.898      350.372      276.322        0.164        0.067       44.004       12.800        0.085      334.144        3.926      852.937
01/22/2021  07:58:00      -81.719      -16.815        7.535       69.153       35.607       32.391     4782.205     1267.854     1049.169        0.706        0.355       83.431       30.816        0.136      334.129        3.898      852.958
01/22/2021  07:59:00      -99.251      -11.229        7.910       41.858       32.523       28.461     1752.126     1057.742      810.036        0.683        0.181       99.884       22.496        0.051      334.058        3.781      852.999
01/22/2021  08:00:00      -78.438      -22.183       -9.079       29.035       35.780       12.903      843.033     1280.239      166.489        0.451        0.114       81.514       12.038        0.022      334.121        3.885      853.010
01/22/2021  08:01:00      -75.435      -31.620        0.042       36.158       45.080       22.228     1307.430     2032.170      494.077        0.526        0.192       81.794       20.513        0.063      334.317        4.208      853.021
01/22/2021  08:02:00      -45.151       -9.284        5.146       35.198       38.135       23.966     1238.928     1454.279      574.383        0.271        0.163       46.096       20.600        0.200      334.267        4.127      853.011
01/22/2021  08:03:00      -48.153      -10.637        9.410       49.369       34.169       31.792     2437.330     1167.505     1010.751        0.357        0.231       49.314       30.897        0.393      334.169        3.965      852.997
01/22/2021  08:04:00      -84.934       28.836        0.377       49.569       21.218       16.238     2457.122      450.188      263.674        0.561        0.159       89.695       15.986        0.032      334.056        3.776      852.964
01/22/2021  08:05:00      -37.453      -13.687        3.066       39.971       27.935       22.137     1597.650      780.389      490.055        0.223        0.143       39.875       19.311        0.235      334.210        4.033      852.939
01/22/2021  08:06:00      -38.255        2.183       -4.241       35.429       33.424       19.475     1255.221     1117.172      379.258        0.212        0.138       38.317       18.011        0.221      334.203        4.020      852.937
01/22/2021  08:07:00      -80.129      -24.862       -0.418       41.529       34.399       16.672     1724.631     1183.302      277.953        0.511        0.159       83.898       16.834        0.040      334.149        3.931      852.945
01/22/2021  08:08:00      -57.576       -6.829        3.607       51.499       32.283       26.589     2652.137     1042.216      706.956        0.389        0.220       57.979       20.817        0.129      334.044        3.756      852.945
01/22/2021  08:09:00      -84.613        2.439       10.276       58.860       31.135       23.553     3464.491      969.412      554.743        0.613        0.249       84.648       12.054        0.020      334.031        3.736      852.948
01/22/2021  08:10:00     -101.576       -8.789       -3.967       63.521       34.519       24.928     4034.939     1191.595      621.394        0.813        0.292      101.955       23.812        0.055      334.026        3.728      852.960
01/22/2021  08:11:00     -117.065      -24.524       -1.042       59.452       36.875       28.222     3534.568     1359.779      796.498        1.000        0.285      119.606       29.165        0.059      334.205        4.025      852.979
01/22/2021  08:12:00      -93.628      -54.622       -2.854       31.138       32.242       19.531      969.545     1039.528      381.464        0.707        0.120      108.397       13.622        0.016      334.225        4.057      852.984
01/22/2021  08:13:00      -86.378      -51.240       -7.885      125.327       45.958       65.884    15706.976     2112.131     4340.732        1.615        1.108      100.433       65.871        0.430      334.228        4.061      852.978
01/22/2021  08:14:00      -83.955      -19.392        2.140       47.168       38.997       27.891     2224.830     1520.745      777.910        0.598        0.226       86.165       21.315        0.061      334.168        3.963      852.976
01/22/2021  08:15:00      -89.479      -21.613       -9.197      179.431       39.585       84.121    32195.573     1566.997     7076.311        2.469        2.042       92.052      110.651        1.445      334.099        3.847      852.963
01/22/2021  08:16:00     -161.960      -29.156       -0.431       56.448       37.699       27.000     3186.398     1421.216      728.973        1.621        0.267      164.563       26.253        0.025      333.944        3.590      852.949
01/22/2021  08:17:00      -65.974       -8.183        2.112       48.045       35.964       24.736     2308.335     1293.402      611.888        0.432        0.211       66.479       26.541        0.159      333.966        3.628      852.931
01/22/2021  08:18:00      -63.830       13.077        4.257       35.025       25.272       17.174     1226.751      638.659      294.935        0.321        0.108       65.156       18.659        0.082      334.017        3.712      852.932
01/22/2021  08:19:00      -18.840      -10.853       -1.993       26.414       28.822       12.297      697.703      830.732      151.215        0.108        0.084       21.742       10.832        0.248      334.046        3.761      852.943
01/22/2021  08:20:00      -21.572      -68.881      -23.005       38.987       24.425       17.665     1520.019      596.557      312.048        0.408        0.121       72.180       16.960        0.055      334.231        4.067      852.978
01/22/2021  08:21:00      -25.614       -6.476       -4.127       34.601       21.770       17.204     1197.216      473.936      295.992        0.134        0.098       26.420       13.995        0.281      334.123        3.886      853.006
01/22/2021  08:22:00      -14.182       -4.300        0.364       21.132       19.090       17.722      446.569      364.447      314.084        0.067        0.056       14.820        8.017        0.293      334.133        3.902      853.002
01/22/2021  08:23:00        8.198       -5.857       -4.563       22.813       37.995       18.314      520.454     1443.629      335.394        0.121        0.115       10.075       17.749        3.103      334.177        3.978      853.006
01/22/2021  08:24:00        3.095      -63.483      -14.532       50.161       44.242       24.698     2516.169     1957.316      610.004        0.467        0.254       63.559       20.495        0.104      334.165        3.956      852.998
01/22/2021  08:25:00      -18.551       -6.885       -3.123       36.646       16.744       14.322     1342.910      280.353      205.120        0.111        0.091       19.787       18.973        0.919      334.214        4.037      853.002
01/22/2021  08:26:00       28.417       -0.423      -13.825       22.608       23.828       10.419      511.133      567.792      108.548        0.109        0.059       28.420        9.418        0.110      334.121        3.883      852.994
01/22/2021  08:27:00      -15.656        7.847       -0.816       20.556       26.791       16.364      422.550      717.748      267.777        0.086        0.070       17.513       11.132        0.404      334.148        3.929      852.983
01/22/2021  08:28:00      -22.451       18.841       -0.162       19.170       11.747        9.451      367.500      138.003       89.314        0.073        0.030       29.309        7.416        0.064      334.125        3.890      852.974
01/22/2021  08:29:00      -22.857       27.064       -5.366       18.160       12.020        8.366      329.774      144.484       69.987        0.091        0.027       35.425        3.390        0.009      334.170        3.966      852.965
01/22/2021  08:30:00       10.547       22.700        3.911        8.411        9.163        6.895       70.741       83.960       47.538        0.042        0.010       25.031        4.600        0.034      334.184        3.988      852.934
01/22/2021  08:31:00       -1.391       45.905       -2.057       14.403       12.077       10.198      207.461      145.846      104.003        0.129        0.023       45.926        7.355        0.026      334.240        4.082      852.902
01/22/2021  08:32:00       17.192       40.708       -2.124       19.016       17.240       10.051      361.598      297.213      101.016        0.136        0.038       44.189        8.760        0.039      334.235        4.074      852.877
01/22/2021  08:33:00       13.495       36.628       -3.977       15.060       14.612        8.099      226.818      213.508       65.589        0.102        0.025       39.035        3.349        0.007      334.311        4.201      852.868
01/22/2021  08:34:00       18.394        7.676       -6.376        9.708       12.830        8.327       94.238      164.600       69.334        0.038        0.016       19.932        8.102        0.165      334.256        4.110      852.869
01/22/2021  08:35:00       14.108       -7.567      -12.561      154.047       10.653       72.840    23730.352      113.493     5305.734        1.478        1.457       16.009      105.340       43.296      334.307        4.195      852.871
01/22/2021  08:36:00      -10.640      -25.240        1.709       14.458       20.779       13.828      209.030      431.769      191.225        0.079        0.042       27.391       12.591        0.211      334.341        4.250      852.887
01/22/2021  08:37:00     -120.374      -93.216      -12.904       48.944       60.642       27.736     2395.532     3677.446      769.294        1.509        0.342      152.247       31.546        0.043      334.660        4.779      852.925
01/22/2021  08:38:00     -105.885      -84.110      -14.691       72.965       54.983       28.300     5323.898     3023.168      800.895        1.382        0.457      135.226       27.821        0.042      334.741        4.913      852.930
01/22/2021  08:39:00      -16.449      -31.637       -2.993       27.178       43.915       21.339      738.637     1928.530      455.336        0.220        0.156       35.657       14.554        0.167      334.568        4.626      852.903
01/22/2021  08:40:00      -12.520       17.292       -2.284       18.550       20.658       15.489      344.088      426.740      239.904        0.074        0.051       21.349        8.569        0.161      334.486        4.491      852.868
01/22/2021  08:41:00        8.377       20.926        0.977       21.456       22.841       12.493      460.357      521.704      156.068        0.082        0.057       22.540        8.279        0.135      334.543        4.584      852.836
01/22/2021  08:42:00       49.873       32.758       -8.906       28.310       43.904       16.385      801.462     1927.541      268.467        0.332        0.150       59.669       14.533        0.059      334.511        4.532      852.824
01/22/2021  08:43:00       37.762      -66.133      -32.375      196.347       53.681       94.043    38551.956     2881.660     8844.062        2.855        2.514       76.155      126.551        2.761      334.730        4.897      852.822
01/22/2021  08:44:00     -129.870      -75.778      -14.019       71.631       69.039       37.975     5131.008     4766.409     1442.081        1.707        0.567      150.362       39.309        0.068      334.994        5.332      852.862
01/22/2021  08:45:00     -171.029      -88.341      -31.556       51.829       68.735       31.740     2686.268     4724.484     1007.459        2.323        0.421      192.497       14.702        0.006      335.063        5.446      852.874
01/22/2021  08:46:00      -92.962      -17.651        1.562       47.242       40.462       20.559     2231.821     1637.213      422.666        0.662        0.215       94.623       15.526        0.027      335.025        5.386      852.859
01/22/2021  08:47:00      -88.728      -66.176       -7.883       34.528       74.683       26.708     1192.160     5577.540      713.315        0.990        0.374      110.688       24.107        0.047      335.031        5.395      852.847
01/22/2021  08:48:00     -119.339     -115.001      -14.468       74.712       87.096       41.428     5581.898     7585.641     1716.308        2.128        0.744      165.732       37.287        0.051      335.101        5.511      852.808
01/22/2021  08:49:00     -191.352      -54.990      -18.871       95.472       77.951       46.519     9114.967     6076.293     2164.048        2.867        0.868      199.096       42.542        0.046      335.092        5.495      852.795
01/22/2021  08:50:00      -97.821      -84.601       -9.672       47.077       61.383       27.980     2216.273     3767.829      782.896        1.179        0.338      129.331       10.899        0.007      335.132        5.564      852.784
01/22/2021  08:51:00     -105.378      -55.001      -10.793       71.814       48.478       28.669     5157.196     2350.071      821.905        1.129        0.416      118.868       30.735        0.067      335.141        5.579      852.757
01/22/2021  08:52:00      -89.005      -51.086       -3.698       56.221       51.724       32.236     3160.771     2675.352     1039.141        0.871        0.344      102.624       25.904        0.064      335.104        5.519      852.737
01/22/2021  08:53:00      -80.683       -2.443       14.340       73.900       53.341       30.223     5461.167     2845.265      913.438        0.797        0.461       80.720       33.635        0.174      335.121        5.545      852.694
01/22/2021  08:54:00      -19.480      -42.280        2.461       35.539       53.627       29.183     1263.038     2875.831      851.644        0.358        0.250       46.552       19.789        0.181      335.234        5.733      852.731
01/22/2021  08:55:00      108.143     -186.751      -34.055       56.230       63.517       32.110     3161.819     4034.402     1031.057        2.798        0.411      215.802       26.799        0.015      335.231        5.724      852.791
01/22/2021  08:56:00       48.593     -113.272      -17.039       42.061       50.577       32.286     1769.111     2558.026     1042.414        1.042        0.268      123.255       26.556        0.046      335.284        5.815      852.840
01/22/2021  08:57:00       48.826      -34.221      -11.353       33.366       53.847       24.170     1113.296     2899.485      584.212        0.414        0.230       59.624       10.022        0.028      335.238        5.738      852.811
01/22/2021  08:58:00       25.564       30.524      -11.903       34.316       24.729       19.735     1177.597      611.521      389.467        0.195        0.109       39.815        9.726        0.060      335.130        5.561      852.763
01/22/2021  08:59:00      -31.605       14.001       -5.339       27.533       35.939       17.089      758.079     1291.620      292.050        0.178        0.117       34.567       11.162        0.104      335.157        5.604      852.749
01/22/2021  09:00:00       16.177       19.649       -1.205       20.656       34.432       19.447      426.655     1185.535      378.174        0.132        0.100       25.451       14.955        0.345      335.350        5.923      852.768
01/22/2021  09:01:00       77.554        6.239      -27.948       62.149       58.733       33.594     3862.540     3449.596     1128.551        0.764        0.422       77.804       29.924        0.148      335.341        5.909      852.793
01/22/2021  09:02:00      104.392       15.120      -17.309       79.084       71.790       38.924     6254.295     5153.797     1515.104        1.217        0.646      105.482       33.236        0.099      335.159        5.608      852.774
01/22/2021  09:03:00      113.869       39.534        1.269       84.236       73.172       43.027     7095.735     5354.110     1851.362        1.441        0.715      120.537       43.805        0.132      334.797        5.006      852.754
01/22/2021  09:04:00       69.821       13.310      -11.299       57.714       58.893       26.252     3330.864     3468.401      689.142        0.633        0.374       71.078       22.063        0.096      334.886        5.155      852.760
01/22/2021  09:05:00       53.706       -8.894      -22.715       54.669       61.463       24.675     2988.721     3777.709      608.852        0.543        0.369       54.438       19.945        0.134      335.011        5.363      852.755
01/22/2021  09:06:00      111.537      -17.738      -35.942       75.351       79.220       41.702     5677.831     6275.819     1739.022        1.387        0.685      112.938       33.274        0.087      334.822        5.048      852.710
01/22/2021  09:07:00      166.916       63.810      -19.158       82.570       51.361       32.634     6817.831     2637.902     1064.993        2.141        0.526      178.697       18.765        0.011      334.519        4.543      852.640
01/22/2021  09:08:00       64.597      -18.432      -19.105       55.059       66.808       38.670     3031.442     4463.316     1495.402        0.693        0.450       67.176       28.575        0.181      334.623        4.718      852.663
01/22/2021  09:09:00       79.826       34.250      -14.291       63.673       73.346       30.895     4054.272     5379.603      954.500        0.907        0.519       86.864       18.898        0.047      334.625        4.720      852.660
01/22/2021  09:10:00       69.675       38.158       -0.361       58.166       38.505       23.898     3383.322     1482.659      571.109        0.587        0.272       79.440       26.434        0.111      334.471        4.465      852.635
01/22/2021  09:11:00       54.541       10.107       -8.597       43.568       45.370       26.946     1898.186     2058.428      726.062        0.392        0.234       55.469       21.759        0.154      334.636        4.740      852.644
01/22/2021  09:12:00       58.875      -90.905      -18.779       41.693       50.388       27.157     1738.295     2538.976      737.492        0.855        0.251      108.305       19.186        0.031      334.739        4.909      852.671
01/22/2021  09:13:00       69.410       38.358      -15.162       37.143       56.365       23.223     1379.618     3177.002      539.293        0.581        0.255       79.304       18.401        0.054      334.656        4.773      852.670
01/22/2021  09:14:00       43.963       40.893       -5.476       37.732       31.018       18.976     1423.710      962.126      360.096        0.319        0.137       60.042       17.730        0.087      334.625        4.720      852.649
01/22/2021  09:15:00        5.377       67.083       -4.651       27.961       27.246       19.339      781.832      742.346      373.981        0.322        0.095       67.299       10.908        0.026      334.868        5.123      852.653
01/22/2021  09:16:00       70.017       44.505       -9.468       30.741       38.776       18.789      944.979     1503.606      353.037        0.489        0.140       82.964       16.806        0.041      334.905        5.186      852.652
01/22/2021  09:17:00       51.598       52.099       -2.920       18.046       20.516       18.938      325.650      420.903      358.647        0.324        0.055       73.326       10.326        0.020      334.881        5.146      852.648
01/22/2021  09:18:00       66.754       30.721      -18.690       30.936       26.767       15.425      957.018      716.480      237.929        0.383        0.096       73.483       15.365        0.044      335.060        5.443      852.643
01/22/2021  09:19:00       47.281       22.777       -8.903       40.883       43.492       23.787     1671.433     1891.565      565.822        0.348        0.206       52.481       18.289        0.121      335.295        5.833      852.638
01/22/2021  09:20:00      137.392       67.465      -14.017       96.929       53.426       30.061     9395.228     2854.378      903.640        1.839        0.658      153.062       25.624        0.028      335.113        5.531      852.622
01/22/2021  09:21:00       61.831      108.205        7.489       71.028       52.296       28.202     5044.959     2734.883      795.352        1.208        0.429      124.625       26.913        0.047      335.134        5.565      852.617
01/22/2021  09:22:00        9.012       93.318       -0.377       43.526       58.631       27.515     1894.471     3437.610      757.057        0.744        0.304       93.752       27.443        0.086      335.230        5.726      852.650
01/22/2021  09:23:00       23.405      118.224      -19.777       27.788       23.941       17.028      772.198      573.151      289.961        0.828        0.082      120.518       14.281        0.014      335.216        5.702      852.656
01/22/2021  09:24:00      159.623      107.700      -16.828       73.833       42.364       25.836     5451.384     1794.667      667.493        2.264        0.396      192.559       12.512        0.004      335.287        5.818      852.627
01/22/2021  09:25:00       92.197       17.887       -4.784       71.384       81.365       42.408     5095.713     6620.183     1798.442        1.118        0.676       93.916       41.500        0.195      335.595        6.333      852.635
01/22/2021  09:26:00        2.822       32.884       -6.589       39.385       48.445       27.476     1551.182     2346.905      754.948        0.289        0.233       33.005       24.121        0.534      335.650        6.426      852.725
01/22/2021  09:27:00      -39.617       92.127       -8.434       54.423       64.074       30.253     2961.878     4105.502      915.226        0.905        0.399      100.284       16.785        0.028      335.633        6.397      852.743
01/22/2021  09:28:00       -3.061      150.690      -12.161       42.156       34.775       27.330     1777.163     1209.313      746.955        1.330        0.187      150.721       20.981        0.019      335.393        5.997      852.683
01/22/2021  09:29:00      107.092       93.240      -26.507       39.352       46.499       20.599     1548.550     2162.190      424.315        1.250        0.207      141.994       15.237        0.012      335.432        6.061      852.676
01/22/2021  09:30:00       83.233       64.837      -16.465       45.430       40.551       23.726     2063.920     1644.350      562.905        0.784        0.214      105.507       23.057        0.048      335.702        6.511      852.644
01/22/2021  09:31:00       18.159       55.838       -3.830       55.201       46.062       29.581     3047.162     2121.687      875.051        0.475        0.302       58.717       29.617        0.254      335.706        6.517      852.662
01/22/2021  09:32:00      -81.740       46.707      -32.876       64.607       41.443       32.726     4174.078     1717.562     1071.007        0.845        0.348       94.143       25.302        0.072      335.720        6.540      852.676
01/22/2021  09:33:00      -61.208      127.696      -26.407       74.957       38.466       31.652     5618.616     1479.628     1001.880        1.442        0.405      141.608       17.009        0.014      335.694        6.498      852.646
01/22/2021  09:34:00       74.646      224.916      -26.553       60.329       52.471       33.626     3639.646     2753.169     1130.695        3.219        0.376      236.979       35.859        0.023      335.705        6.513      852.592
01/22/2021  09:35:00      101.097      220.674      -19.679       63.449       77.416       33.371     4025.759     5993.184     1113.600        3.522        0.557      242.730       28.849        0.014      335.745        6.579      852.560
01/22/2021  09:36:00       25.824      201.547      -18.932       67.373       67.148       28.452     4539.103     4508.859      809.503        2.575        0.493      203.195       33.463        0.027      335.951        6.923      852.542
01/22/2021  09:37:00       -3.709      214.621      -19.381      125.271      137.927       60.274    15692.856    19023.993     3632.988        4.239        1.917      214.653       43.550        0.041      336.028        7.051      852.445
01/22/2021  09:38:00        3.253       42.434      -46.291      115.465      151.247       35.142    13332.218    22875.653     1234.948        2.069        1.872       42.559       35.550        0.698      336.199        7.339      852.422
01/22/2021  09:39:00      -12.278      -26.240      -19.353       60.231       42.544       25.832     3627.808     1809.972      667.311        0.366        0.305       28.970       20.993        0.525      336.413        7.698      852.425
01/22/2021  09:40:00      -41.712      -70.805      -21.676       59.476       38.771       29.996     3537.372     1503.214      899.752        0.658        0.297       82.178       27.845        0.115      336.223        7.380      852.482
01/22/2021  09:41:00      -45.008       -1.053       12.897       46.982       49.819       25.655     2207.295     2481.942      658.196        0.377        0.267       45.020       23.761        0.279      336.401        7.678      852.483
01/22/2021  09:42:00      -54.003       30.907       -3.973       43.103       33.368       23.001     1857.887     1113.451      529.040        0.369        0.175       62.222       13.641        0.048      336.377        7.638      852.471
01/22/2021  09:43:00       -7.736      -42.670       -1.515       71.179       51.698       34.498     5066.406     2672.692     1190.123        0.540        0.446       43.366       27.080        0.390      336.363        7.614      852.446
01/22/2021  09:44:00       21.387      -20.550      -19.238       65.263       38.418       37.731     4259.318     1475.957     1423.603        0.420        0.358       29.660       32.865        1.228      336.105        7.183      852.445
01/22/2021  09:45:00      -45.681       -8.687        7.874       70.104       47.343       32.382     4914.639     2241.399     1048.597        0.521        0.410       46.499       13.339        0.082      336.310        7.525      852.458
01/22/2021  09:46:00      -26.728      -38.934        8.535       63.259       65.788       42.268     4001.646     4328.030     1786.624        0.621        0.506       47.225       25.403        0.289      336.445        7.752      852.481
01/22/2021  09:47:00     -122.888        4.315        4.222       52.380       56.461       33.091     2743.715     3187.807     1094.995        1.108        0.351      122.964       14.450        0.014      336.226        7.385      852.493
01/22/2021  09:48:00       -4.341       -3.153        8.883       42.790       32.372       27.610     1831.006     1047.945      762.306        0.187        0.182        5.365       11.234        4.384      336.506        7.855      852.488
01/22/2021  09:49:00       -9.299       31.376        7.147       40.512       49.872       24.308     1641.204     2487.191      590.894        0.292        0.236       32.725       19.167        0.343      336.773        8.300      852.485
01/22/2021  09:50:00       -0.716       -4.631       -2.555       57.500       43.599       36.100     3306.255     1900.856     1303.211        0.327        0.326        4.686       27.311       33.966      336.836        8.406      852.510
01/22/2021  09:51:00     -218.814      -50.370      -20.680      109.094       75.319       59.705    11901.571     5672.954     3564.657        3.599        1.057      224.537       51.987        0.054      336.146        7.250      852.539
01/22/2021  09:52:00     -232.479       34.645      -13.003      108.012      143.788       66.935    11666.520    20675.066     4480.320        4.611        1.841      235.046       63.082        0.072      336.230        7.388      852.523
01/22/2021  09:53:00     -271.378       22.433        9.054      194.986      100.626       64.530    38019.729    10125.505     4164.105        6.326        2.615      272.304       31.533        0.013      336.222        7.374      852.496
01/22/2021  09:54:00      -37.622       34.365      -10.169      111.987       66.942       55.842    12541.018     4481.172     3118.298        1.142        1.007       50.954       53.535        1.104      336.357        7.604      852.512
01/22/2021  09:55:00     -150.778       24.779        1.242       96.298       80.258       49.441     9273.375     6441.417     2444.382        2.075        0.908      152.801       42.770        0.078      336.326        7.551      852.503
01/22/2021  09:56:00     -261.269       80.457        1.386      160.969      117.717       69.698    25911.162    13857.231     4857.831        5.967        2.231      273.377       81.087        0.088      336.427        7.718      852.474
01/22/2021  09:57:00     -207.253       30.104        3.286      103.840       87.728       56.621    10782.689     7696.181     3205.901        3.277        1.084      209.428       39.945        0.036      336.285        7.482      852.486
01/22/2021  09:58:00     -130.968       65.355        1.823       96.786       68.890       44.262     9367.614     4745.796     1959.106        1.875        0.804      146.369       39.091        0.071      336.696        8.169      852.490
01/22/2021  09:59:00     -272.292       35.575      -18.147       98.577      110.384       50.205     9717.424    12184.715     2520.568        5.007        1.221      274.606       42.914        0.024      336.326        7.549      852.490
01/22/2021  10:00:00     -289.842       -9.702        6.944      189.552       90.575       59.532    35930.057     8203.780     3544.017        6.590        2.384      290.004       64.183        0.049      336.473        7.795      852.485
01/22/2021  10:01:00     -280.676       -6.341       -7.624      128.867      104.098       67.054    16606.804    10836.298     4496.284        5.540        1.597      280.748       62.535        0.050      336.239        7.405      852.456
01/22/2021  10:02:00     -249.924        5.228       -8.299      167.454      145.243       69.557    28040.706    21095.508     4838.153        5.825        2.699      249.978       63.366        0.064      336.268        7.453      852.420
01/22/2021  10:03:00     -209.338       34.663        5.443      145.545       95.558       66.033    21183.393     9131.296     4360.414        3.986        1.734      212.188       65.117        0.094      336.523        7.879      852.452
01/22/2021  10:04:00     -175.703      -33.198       -1.272      135.002       94.261       70.017    18225.440     8885.165     4902.408        3.199        1.601      178.812       66.696        0.139      336.473        7.796      852.464
01/22/2021  10:05:00     -370.933      -47.117      -18.110      186.698      136.712       81.636    34856.148    18690.283     6664.376       10.016        3.011      373.914       77.986        0.043      336.382        7.644      852.453
01/22/2021  10:06:00     -263.485       34.539        0.629      119.590       79.936       56.034    14301.744     6389.751     3139.787        4.722        1.192      265.739       52.011        0.038      336.535        7.899      852.430
01/22/2021  10:07:00     -187.014     -123.029      -19.154       90.606      179.948       60.332     8209.381    32381.342     3639.928        4.734        2.212      223.853       59.540        0.071      336.540        7.908      852.466
01/22/2021  10:08:00      -80.177     -164.860      -13.445      133.296      125.435       65.150    17767.922    15733.888     4244.566        3.576        1.887      183.323       49.119        0.072      336.778        8.306      852.427
01/22/2021  10:09:00      -65.127     -174.082      -19.229       93.247      108.392       59.572     8695.040    11748.746     3548.766        2.945        1.200      185.866       47.243        0.065      336.920        8.543      852.459
01/22/2021  10:10:00      -92.788     -139.763      -32.417      107.483       91.612       44.567    11552.700     8392.687     1986.206        2.556        1.097      167.759       14.832        0.008      336.727        8.220      852.433
01/22/2021  10:11:00       48.939     -151.839      -31.867      120.713       92.873       53.432    14571.701     8625.482     2855.002        2.625        1.303      159.531       58.605        0.135      337.050        8.762      852.418
01/22/2021  10:12:00       81.895     -203.730      -44.462      129.282      218.850       85.699    16713.716    47895.282     7344.250        6.106        3.598      219.574       99.775        0.206      337.012        8.695      852.396
01/22/2021  10:13:00      109.983     -272.011      -61.495       68.825      119.191       58.149     4736.900    14206.472     3381.277        5.609        1.116      293.405       16.163        0.003      336.964        8.615      852.426
01/22/2021  10:14:00        0.098     -145.436      -33.125       92.632       89.450       50.014     8580.690     8001.379     2501.443        2.066        0.954      145.436       20.150        0.019      337.194        9.001      852.453
01/22/2021  10:15:00     -220.468     -120.933      -48.165      184.471      119.398       56.952    34029.495    14255.983     3243.505        5.853        2.576      251.458       56.386        0.050      336.961        8.612      852.489
01/22/2021  10:16:00     -268.725     -143.597      -12.936      134.708      162.021       69.475    18146.205    26250.706     4826.837        7.110        2.461      304.685       59.625        0.038      336.792        8.328      852.506
01/22/2021  10:17:00     -316.180     -115.987      -30.942      169.165      178.672       77.049    28616.877    31923.600     5936.581        9.041        3.324      336.783       55.643        0.027      336.721        8.210      852.482
01/22/2021  10:18:00     -287.244     -208.192      -40.346      205.097      212.944       97.705    42064.807    45345.201     9546.311       11.220        4.848      354.758       84.603        0.057      336.677        8.136      852.490
01/22/2021  10:19:00     -273.677     -103.336      -28.687      134.502      144.117       71.887    18090.750    20769.838     5167.705        6.520        2.201      292.536       47.213        0.026      336.621        8.043      852.524
01/22/2021  10:20:00     -368.009     -252.834      -36.808      162.262      201.765       82.044    26328.974    40709.041     6731.248       13.722        3.688      446.493       66.813        0.022      336.436        7.733      852.508
01/22/2021  10:21:00     -252.361     -136.829      -26.803      115.426      130.307       69.588    13323.245    16979.881     4842.446        5.913        1.757      287.069       55.657        0.038      336.549        7.922      852.492
01/22/2021  10:22:00     -124.025      -72.360      -25.270      133.998      110.871       58.239    17955.354    12292.310     3391.724        2.744        1.682      143.591       45.667        0.101      336.788        8.324      852.465
01/22/2021  10:23:00      -35.449     -113.178      -43.097      172.764      100.118       73.144    29847.539    10023.595     5349.991        3.056        2.261      118.600       32.241        0.074      337.043        8.749      852.428
01/22/2021  10:24:00     -142.529     -151.613      -26.714      109.675      138.890       52.903    12028.535    19290.422     2798.700        3.906        1.706      208.089       44.375        0.045      336.841        8.411      852.456
01/22/2021  10:25:00     -363.582     -237.494      -27.009      158.786      160.635       88.692    25212.835    25803.610     7866.234       12.409        2.944      434.275       81.494        0.035      336.553        7.930      852.449
01/22/2021  10:26:00     -339.435     -163.956      -43.322      179.785      169.719       87.310    32322.538    28804.614     7622.957       10.635        3.438      376.959       86.207        0.052      336.474        7.795      852.458
01/22/2021  10:27:00     -173.618     -107.739      -32.317      113.862      131.513       47.681    12964.643    17295.586     2273.481        3.766        1.627      204.330       46.080        0.051      336.571        7.960      852.477
01/22/2021  10:28:00     -108.120       12.828       11.595      102.901       92.372       50.522    10588.692     8532.652     2552.485        1.683        1.084      108.879       39.307        0.130      337.018        8.708      852.521
01/22/2021  10:29:00     -174.785       71.045        8.637      132.947       91.788       57.464    17674.919     8425.087     3302.069        3.253        1.470      188.672       39.571        0.044      336.968        8.623      852.546
01/22/2021  10:30:00     -217.243      -11.253       -9.398      136.760      101.400       62.552    18703.166    10281.941     3912.709        4.015        1.645      217.534       47.584        0.048      336.566        7.950      852.554
01/22/2021  10:31:00     -101.983       -2.688        1.026      116.766       74.456       43.471    13634.282     5543.622     1889.754        1.573        1.053      102.018       43.417        0.181      336.807        8.356      852.526
01/22/2021  10:32:00     -145.810      -41.619       -7.893      124.218      112.844       60.391    15430.210    12733.828     3647.100        2.743        1.591      151.633       62.249        0.169      336.788        8.321      852.512
01/22/2021  10:33:00     -290.881      -38.007       -4.647      100.770      102.039       69.964    10154.615    10412.001     4895.004        5.576        1.273      293.353       49.510        0.028      336.645        8.083      852.528
01/22/2021  10:34:00     -302.368      -80.523      -25.933      134.556      107.578       76.079    18105.251    11573.006     5788.066        6.702        1.773      312.906       65.747        0.044      336.527        7.887      852.523
01/22/2021  10:35:00     -320.725     -113.745      -25.789      210.240      137.907       97.308    44200.914    19018.245     9468.937        9.456        3.634      340.297      119.493        0.123      336.308        7.519      852.521
01/22/2021  10:36:00     -351.155     -110.054      -32.584      233.229      142.565       90.347    54395.748    20324.775     8162.491       10.967        4.144      367.997       85.640        0.054      336.229        7.387      852.525
01/22/2021  10:37:00     -567.680     -111.555      -47.126      294.177      216.590      121.793    86540.003    46911.161    14833.624       24.257        7.414      578.537      116.877        0.041      335.839        6.737      852.543
01/22/2021  10:38:00     -537.842      -32.201       -9.983      307.686      176.146      107.135    94670.577    31027.510    11477.864       21.376        6.859      538.805      120.609        0.050      335.719        6.537      852.492
01/22/2021  10:39:00     -378.097      -69.090      -34.734      275.333      151.515      115.192    75808.222    22956.887    13269.212       13.046        5.602      384.357      104.326        0.074      335.711        6.524      852.480
01/22/2021  10:40:00     -308.877       66.882        5.554      290.076      162.772       99.957    84143.827    26494.878     9991.312       11.024        6.032      316.035       88.535        0.078      335.778        6.634      852.474
01/22/2021  10:41:00     -307.271      -12.440       -1.646      278.683      194.100      113.609    77664.127    37674.717    12906.945       11.138        6.412      307.522      105.364        0.117      335.750        6.590      852.463
01/22/2021  10:42:00     -354.655       64.074      -17.022      255.695      187.890       92.777    65379.803    35302.789     8607.625       11.971        5.465      360.396       81.492        0.051      335.771        6.623      852.482
01/22/2021  10:43:00     -393.975       96.488       -3.862      194.904      149.283       90.208    37987.692    22285.440     8137.393       11.646        3.421      405.618       91.944        0.051      335.829        6.720      852.502
01/22/2021  10:44:00     -409.430      116.906      -18.149      233.871      132.573       89.689    54695.763    17575.574     8044.030       13.096        4.016      425.794       94.566        0.049      335.775        6.630      852.534
01/22/2021  10:45:00     -375.933       -9.241       -7.333      221.799      176.270      102.578    49194.614    31071.013    10522.182       11.611        4.539      376.047       76.952        0.042      335.767        6.618      852.519
01/22/2021  10:46:00     -363.593       98.475       -0.865      212.478      113.703       88.754    45146.752    12928.333     7877.216       10.391        3.298      376.693       94.286        0.063      335.801        6.674      852.504
01/22/2021  10:47:00     -329.854       47.387      -27.353      238.806      151.834       91.976    57028.319    23053.648     8459.574       10.015        4.427      333.241       94.441        0.080      335.857        6.767      852.496
01/22/2021  10:48:00     -279.184      154.882        1.968      222.515      180.692       81.062    49513.046    32649.637     6571.039        9.532        4.437      319.268       98.100        0.094      335.944        6.915      852.540
01/22/2021  10:49:00     -308.037       78.548      -32.215      258.801      169.426      102.290    66978.136    28705.106    10463.178       10.410        5.307      317.894      117.414        0.136      335.779        6.638      852.521
01/22/2021  10:50:00     -210.040       38.505       17.912      242.778      137.721       83.810    58941.224    18967.153     7024.072        6.541        4.247      213.540       83.375        0.152      335.756        6.600      852.504
01/22/2021  10:51:00     -304.720       52.129        9.323      195.136      139.767       84.762    38078.021    19534.781     7184.557        8.021        3.240      309.147       81.848        0.070      335.743        6.577      852.524
01/22/2021  10:52:00     -338.292       62.082      -10.440      239.731      149.633       89.051    57470.775    22389.929     7930.072       10.308        4.390      343.941       64.692        0.035      335.670        6.456      852.540
01/22/2021  10:53:00     -354.564      120.476      -12.603      244.684      148.642       87.366    59870.314    22094.324     7632.775       11.497        4.480      374.473      104.189        0.077      335.644        6.411      852.541
01/22/2021  10:54:00     -302.967      111.645      -18.704      213.960      117.961       74.361    45778.853    13914.684     5529.512        8.490        3.261      322.883       68.552        0.045      335.653        6.427      852.557
01/22/2021  10:55:00     -261.339       77.010       -5.780      159.197      112.856       77.325    25343.659    12736.379     5979.138        5.915        2.203      272.450       76.028        0.078      335.617        6.368      852.553
01/22/2021  10:56:00     -258.628       65.316        5.353      222.836      143.085       96.149    49655.773    20473.175     9244.590        7.526        3.969      266.748      109.857        0.170      335.597        6.335      852.562
01/22/2021  10:57:00     -512.154      162.383      -16.513      255.644      152.392       99.486    65353.888    23223.340     9897.533       19.369        4.924      537.280       87.258        0.026      335.502        6.175      852.545
01/22/2021  10:58:00     -434.649       42.517       -1.906      320.731      185.643      106.352   102868.186    34463.225    11310.840       16.965        7.432      436.724       97.526        0.050      335.364        5.945      852.494
01/22/2021  10:59:00     -515.728      186.205      -19.738      250.249      222.751      115.424    62624.344    49618.147    13322.803       21.327        6.278      548.313      119.289        0.047      335.389        5.987      852.475
01/22/2021  11:00:00     -367.141       78.739       -0.667      198.461      157.667       80.756    39386.712    24858.765     6521.488       10.586        3.538      375.490       74.692        0.040      335.453        6.094      852.489
01/22/2021  11:01:00     -219.934       53.361       10.921      219.019      114.272       96.058    47969.221    13058.067     9227.106        6.078        3.513      226.314      101.198        0.200      335.497        6.167      852.501
01/22/2021  11:02:00     -180.647       46.418        1.189      214.973      117.500       86.241    46213.300    13806.228     7437.510        5.111        3.373      186.516       76.811        0.170      335.596        6.333      852.486
01/22/2021  11:03:00     -246.320       57.930       -6.459      134.806       96.546       52.948    18172.624     9321.221     2803.464        4.718        1.515      253.041       55.797        0.049      335.584        6.313      852.498
01/22/2021  11:04:00     -121.586        1.648       -3.849      134.386       88.989       60.976    18059.498     7918.988     3718.120        2.224        1.485      121.597       55.034        0.205      335.611        6.359      852.481
01/22/2021  11:05:00     -189.968       46.530       21.523      182.683      118.008       57.133    33372.923    13925.952     3264.195        4.463        2.528      195.584       62.802        0.103      335.667        6.452      852.507
01/22/2021  11:06:00     -297.424       29.748       -7.822      116.928      161.108       80.757    13672.222    25955.659     6521.626        6.777        2.307      298.908       68.752        0.053      335.592        6.324      852.504
01/22/2021  11:07:00     -107.083       22.898       -1.153      154.926      103.503       79.051    24001.944    10712.922     6249.072        2.647        2.048      109.504       80.228        0.537      335.657        6.435      852.515
01/22/2021  11:08:00     -291.475      -45.577       -5.797      219.941      111.425       76.422    48374.259    12415.494     5840.347        7.684        3.332      295.017       93.749        0.101      335.678        6.469      852.520
01/22/2021  11:09:00     -333.078       24.525       -4.656      148.284      119.621       68.738    21988.248    14309.094     4724.859        7.628        2.051      333.979       70.486        0.045      335.670        6.456      852.527
01/22/2021  11:10:00     -300.637     -111.063      -27.670      193.629      133.854       86.433    37492.055    17916.795     7470.749        8.317        3.144      320.495       87.146        0.074      335.452        6.091      852.446
01/22/2021  11:11:00     -297.430      -60.870       -9.945      242.109      163.285       93.177    58616.695    26661.880     8681.951        9.309        4.698      303.594       66.606        0.048      335.444        6.080      852.422
01/22/2021  11:12:00     -203.968       -5.506        3.668      130.681      102.456       70.563    17077.565    10497.166     4979.115        3.709        1.628      204.042       64.310        0.099      335.458        6.101      852.468
01/22/2021  11:13:00     -100.224       63.409        7.630      149.682      101.815       78.829    22404.829    10366.353     6213.989        2.655        1.949      118.598       71.541        0.364      335.372        5.959      852.439
01/22/2021  11:14:00     -425.935       96.143       -0.778      249.187      167.956      106.086    62094.022    28209.377    11254.205       14.609        5.078      436.651       98.010        0.050      335.268        5.786      852.381
01/22/2021  11:15:00     -283.983      -16.872       -1.701      230.987      152.774       97.958    53354.942    23339.773     9595.832        8.359        4.315      284.484      101.592        0.128      335.273        5.794      852.423
01/22/2021  11:16:00     -467.422       38.875      -15.891      207.016      152.300       96.034    42855.571    23195.246     9222.518       14.774        3.764      469.036       94.534        0.041      335.233        5.728      852.425
01/22/2021  11:17:00     -254.530       90.308        6.652      189.746      141.187       85.623    36003.729    19933.908     7331.222        6.811        3.163      270.076       86.484        0.103      335.348        5.920      852.400
01/22/2021  11:18:00     -457.681      -26.507      -14.907      276.284      251.169      117.851    76332.752    63085.646    13888.851       18.182        7.665      458.448      113.500        0.061      335.296        5.832      852.360
01/22/2021  11:19:00     -328.070       62.035       10.864      254.176      183.106      103.185    64605.668    33527.909    10647.072       11.016        5.439      333.883      106.503        0.102      335.328        5.886      852.389
01/22/2021  11:20:00     -360.446       67.363      -43.284      238.590      205.708      105.206    56925.241    42315.880    11068.203       12.330        5.515      366.686       79.711        0.047      335.229        5.722      852.412
01/22/2021  11:21:00     -360.098       63.150      -13.078      240.425      151.086      102.062    57804.390    22827.056    10416.616       11.242        4.552      365.593       80.375        0.048      335.157        5.603      852.416
01/22/2021  11:22:00     -442.770       10.605       -9.901      250.481      168.053       92.362    62740.866    28241.743     8530.770       14.786        4.976      442.897       98.236        0.049      335.154        5.598      852.404
01/22/2021  11:23:00     -459.134      -25.678      -12.724      236.754      173.694      105.869    56052.402    30169.433    11208.214       15.451        4.872      459.851       98.887        0.046      335.100        5.507      852.403
01/22/2021  11:24:00     -333.907       39.416      -11.618      284.139      146.927      106.371    80735.006    21587.512    11314.706       11.339        5.682      336.225      128.297        0.146      335.133        5.563      852.409
01/22/2021  11:25:00     -304.745      -10.574       -9.140      290.211      148.712       83.629    84222.140    22115.135     6993.762       10.317        5.667      304.928      100.438        0.108      335.186        5.650      852.395
01/22/2021  11:26:00     -274.222       30.199        4.505      177.390      186.592       94.819    31467.264    34816.396     8990.631        7.569        3.764      275.880       93.209        0.114      335.174        5.630      852.406
01/22/2021  11:27:00     -226.999       -5.694        0.167      162.544      161.305       85.131    26420.511    26019.454     7247.351        5.561        2.984      227.070       91.567        0.163      335.140        5.574      852.391
01/22/2021  11:28:00     -269.286       59.577       -3.803      204.482      127.603       95.633    41812.905    16282.524     9145.650        7.165        3.362      275.798       81.986        0.088      335.210        5.690      852.366
01/22/2021  11:29:00     -434.851       74.821       21.801      263.019      171.064       91.403    69178.828    29262.898     8354.506       15.096        5.340      441.241       92.365        0.044      335.212        5.694      852.393
01/22/2021  11:30:00     -306.726       84.935       -5.457      306.910      138.790       91.786    94194.037    19262.627     8424.666       11.158        6.094      318.268      116.229        0.133      335.184        5.647      852.356
01/22/2021  11:31:00     -425.773       23.483      -36.215      242.716      238.227      102.827    58911.017    56752.191    10573.356       15.466        6.312      426.420       84.064        0.039      335.134        5.563      852.391
01/22/2021  11:32:00     -396.072       17.534      -14.908      312.260      172.557       97.455    97506.014    29775.988     9497.503       14.706        6.839      396.460       92.188        0.054      335.060        5.442      852.368
01/22/2021  11:33:00     -500.696       33.322       -7.010      214.310      153.105       86.721    45928.848    23441.069     7520.511       16.436        3.845      501.803       75.262        0.022      334.996        5.335      852.384
01/22/2021  11:34:00     -480.005       47.562      -14.358      324.524      188.327      114.131   105315.883    35467.107    13025.774       19.331        7.690      482.356       96.731        0.040      334.977        5.304      852.400
01/22/2021  11:35:00     -317.558       78.805       21.211      265.697      152.398      102.698    70595.051    23225.197    10546.878       10.591        5.218      327.190      107.641        0.108      335.089        5.490      852.359
01/22/2021  11:36:00     -535.432      108.959      -18.016      258.710      167.431      104.830    66930.737    28033.120    10989.253       20.240        5.298      546.406      104.541        0.037      334.970        5.292      852.342
01/22/2021  11:37:00     -550.724      139.939        4.513      314.638      173.296      112.976    98997.384    30031.541    12763.562       23.232        7.090      568.225      117.475        0.043      334.896        5.169      852.333
01/22/2021  11:38:00     -594.084      138.938       -6.941      219.194      167.911      110.285    48045.996    28193.995    12162.744       23.033        4.420      610.115      108.691        0.032      334.814        5.032      852.315
01/22/2021  11:39:00     -418.227       81.927       17.037      254.034      142.667       83.353    64533.247    20353.847     6947.733       13.685        4.592      426.175       98.313        0.053      334.880        5.142      852.285
01/22/2021  11:40:00     -355.985       54.639       -3.519      214.378      161.857       92.471    45957.912    26197.555     8550.896       10.520        4.035      360.154       73.740        0.042      334.887        5.154      852.253
01/22/2021  11:41:00     -390.987       86.809        6.680      243.211      205.534      104.643    59151.562    42244.193    10950.111       13.637        5.617      400.508       99.130        0.061      334.939        5.240      852.215
01/22/2021  11:42:00     -381.181       93.103       -6.434      318.859      196.376      130.431   101670.744    38563.608    17012.227       15.559        7.862      392.387      150.198        0.147      334.901        5.177      852.201
01/22/2021  11:43:00     -825.635       71.446      -17.357      268.885      248.603      116.580    72299.056    61803.556    13590.833       41.735        7.385      828.720      111.216        0.018      334.674        4.799      852.200
01/22/2021  11:44:00     -274.200       68.026        5.566      289.340      178.751      105.857    83717.622    31951.820    11205.789       10.333        6.344      282.512      103.475        0.134      334.801        5.011      852.227
01/22/2021  11:45:00     -369.287       75.180      -20.051      277.704      150.533       92.833    77119.703    22660.306     8617.980       12.539        5.420      376.862       75.412        0.040      334.874        5.132      852.238
01/22/2021  11:46:00     -352.937       63.840        9.888      229.000      143.869       86.715    52440.953    20698.296     7519.572       10.468        4.033      358.664       98.504        0.075      334.841        5.076      852.283
01/22/2021  11:47:00     -271.804       58.908       -0.666      206.894      180.337       97.757    42805.124    32521.413     9556.442        8.110        4.244      278.114      113.385        0.166      334.848        5.089      852.272
01/22/2021  11:48:00     -282.199       74.725       -1.433      200.958      130.254       82.549    40383.973    16965.995     6814.381        7.468        3.208      291.925       89.020        0.093      334.846        5.086      852.254
01/22/2021  11:49:00     -268.153       29.365       -6.602      225.551      116.346       69.570    50873.048    13536.441     4839.995        7.102        3.462      269.756       32.126        0.014      334.859        5.107      852.210
01/22/2021  11:50:00     -341.532       89.040       17.029      190.128      119.488       87.371    36148.584    14277.337     7633.720        9.145        2.903      352.948       78.774        0.050      334.932        5.227      852.158
01/22/2021  11:51:00     -507.205       52.784      -14.311      230.656      207.976      100.050    53202.181    43253.878    10009.915       18.333        5.323      509.944       85.823        0.028      334.865        5.116      852.160
01/22/2021  11:52:00     -415.423      -17.777      -24.434      194.913      116.590       84.846    37990.922    13593.219     7198.822       11.612        2.939      415.803       90.384        0.047      334.910        5.192      852.174
01/22/2021  11:53:00     -410.056       26.430      -15.697      269.266      154.698      101.167    72504.013    23931.444    10234.759       13.786        5.334      410.907      113.270        0.076      334.840        5.076      852.223
01/22/2021  11:54:00     -349.496       28.715        1.542      259.604      144.098      100.266    67394.081    20764.292    10053.233       11.057        4.911      350.674      123.149        0.123      334.869        5.123      852.257
01/22/2021  11:55:00     -259.926       68.374        1.344      194.775      101.066       82.481    37937.468    10214.345     6803.096        6.358        2.748      268.768       90.413        0.113      335.042        5.413      852.231
01/22/2021  11:56:00     -315.146        1.801       -0.895      231.251      152.609       82.912    53476.835    23289.566     6874.413        9.146        4.182      315.151       92.647        0.086      335.024        5.381      852.223
01/22/2021  11:57:00     -209.984      -11.262       -9.157      163.424      107.338       79.163    26707.406    11521.501     6266.754        4.439        2.225      210.285       55.589        0.070      335.017        5.371      852.210
01/22/2021  11:58:00     -274.114       33.260       -7.151      222.591      122.059       96.198    49546.615    14898.516     9254.143        7.498        3.685      276.124      108.289        0.154      335.029        5.390      852.228
01/22/2021  11:59:00     -409.941       72.736        5.507      167.234      120.005       80.968    27967.117    14401.194     6555.853       11.114        2.446      416.343       86.372        0.043      335.004        5.348      852.237
01/22/2021  12:00:00     -367.885      -83.811      -10.371      236.506      184.963      110.547    55935.271    34211.290    12220.626       12.240        5.118      377.311      105.646        0.078      334.976        5.301      852.219
01/22/2021  12:01:00     -410.961       12.819      -10.085      260.588      155.635      102.071    67906.056    24222.155    10418.580       13.583        5.127      411.160      113.886        0.077      335.018        5.373      852.190
01/22/2021  12:02:00     -608.985       97.333       -8.482      308.071      159.275      102.511    94907.525    25368.496    10508.473       25.557        6.539      616.714      101.328        0.027      335.133        5.562      852.165
01/22/2021  12:03:00     -491.999       19.650       -1.220      245.113      193.249      101.058    60080.598    37345.129    10212.733       17.502        5.382      492.391       97.176        0.039      335.140        5.573      852.145
01/22/2021  12:04:00     -481.321       34.310       -7.061      223.439      157.992       88.639    49925.112    24961.425     7856.861       15.780        4.137      482.542       97.393        0.041      335.131        5.559      852.167
01/22/2021  12:05:00     -344.033       55.229        0.179      284.657      149.020       91.616    81029.627    22207.105     8393.582       11.650        5.582      348.438       82.945        0.057      335.109        5.523      852.168
01/22/2021  12:06:00     -305.438      -38.562      -19.996      258.216      149.960       96.811    66675.371    22488.034     9372.453        9.684        4.927      307.862       76.159        0.061      335.051        5.426      852.166
01/22/2021  12:07:00     -385.517      107.144       10.549      209.665      165.795       96.761    43959.392    27488.006     9362.781       12.049        4.041      400.129       98.569        0.061      335.097        5.501      852.175
01/22/2021  12:08:00     -418.755       62.234       -5.773      188.280      135.418       92.770    35449.289    18337.974     8606.312       12.081        3.120      423.354       84.484        0.040      335.054        5.431      852.175
01/22/2021  12:09:00     -411.850       47.460       -3.049      214.009      114.527       75.637    45799.944    13116.381     5721.017       11.825        3.232      414.575       82.073        0.039      335.085        5.483      852.176
01/22/2021  12:10:00     -261.309       -8.828       -0.321      185.608      124.513       79.466    34450.150    15503.439     6314.777        6.230        2.813      261.458       83.045        0.101      335.153        5.595      852.181
01/22/2021  12:11:00     -262.874       10.736       -4.509      179.121      118.363       69.189    32084.217    14009.839     4787.095        6.005        2.544      263.093       60.265        0.052      335.139        5.572      852.166
01/22/2021  12:12:00     -346.382      -32.984      -13.748      171.476      116.673       72.814    29404.031    13612.526     5301.828        8.478        2.416      347.949       62.963        0.033      335.096        5.501      852.151
01/22/2021  12:13:00     -226.208       54.424       17.482      138.023      147.719       86.612    19050.407    21820.911     7501.629        5.139        2.419      232.662       72.141        0.096      335.207        5.685      852.159
01/22/2021  12:14:00     -378.515       76.266        7.543      233.269      142.932      104.472    54414.480    20429.576    10914.296       11.743        4.288      386.122      113.200        0.086      335.139        5.572      852.145
01/22/2021  12:15:00     -226.454        8.903        5.822      184.394      144.628       82.426    34001.164    20917.232     6793.994        5.654        3.086      226.629       80.523        0.126      335.194        5.666      852.128
01/22/2021  12:16:00     -253.539      -26.665      -12.153      210.424      107.247       80.042    44278.176    11501.860     6406.736        6.365        3.109      254.937       86.887        0.116      335.128        5.555      852.110
01/22/2021  12:17:00     -223.812       -9.941       -4.878      151.595       95.686       64.915    22980.999     9155.889     4214.016        4.327        1.818      224.032       75.759        0.114      335.125        5.550      852.113
01/22/2021  12:18:00     -326.947      -37.982      -15.397      186.410      105.756       77.079    34748.580    11184.278     5941.180        8.021        2.594      329.146       84.460        0.066      335.151        5.592      852.105
01/22/2021  12:19:00     -217.803        5.955       -1.090      125.961      105.219       53.377    15866.177    11071.046     2849.144        3.862        1.489      217.885       50.454        0.054      335.160        5.608      852.105
01/22/2021  12:20:00     -110.122       10.764       -1.960      135.461      106.513       62.173    18349.741    11345.104     3865.437        2.290        1.678      110.647       37.943        0.118      335.256        5.768      852.100
01/22/2021  12:21:00     -367.855       20.391        7.373      201.265      106.782       75.350    40507.716    11402.324     5677.680        9.668        2.879      368.420       73.071        0.039      335.203        5.679      852.096
01/22/2021  12:22:00     -352.448       79.193      -14.628      168.946      104.140       73.997    28542.722    10845.100     5475.610        8.777        2.243      361.235       76.734        0.045      335.182        5.644      852.108
01/22/2021  12:23:00     -244.964       59.842        8.622      160.012      118.827       79.171    25603.987    14119.917     6268.080        5.482        2.300      252.168       78.453        0.097      335.180        5.640      852.104
01/22/2021  12:24:00     -238.428      -13.991       -9.946      192.954      119.704       74.367    37231.334    14328.995     5530.511        5.710        2.855      238.838       90.357        0.143      335.194        5.664      852.084
01/22/2021  12:25:00     -155.741       52.149        7.056      163.723      138.764       89.286    26805.072    19255.472     7971.934        4.052        2.702      164.240       77.298        0.222      335.313        5.862      852.078
01/22/2021  12:26:00     -362.638       95.021      -12.056      165.503      114.005       75.662    27391.157    12997.048     5724.778        9.339        2.306      374.880       74.813        0.040      335.187        5.652      852.052
01/22/2021  12:27:00     -428.124      119.063        6.718      217.758      131.675       89.097    47418.549    17338.307     7938.287       13.509        3.635      444.372       99.578        0.050      335.220        5.706      852.000
01/22/2021  12:28:00     -243.538      -11.531       13.498      208.921      146.289       87.110    43648.119    21400.554     7588.172        6.612        3.632      243.811       95.902        0.155      335.333        5.894      852.060
01/22/2021  12:29:00     -172.388       41.223      -31.523      108.821       95.088       57.353    11842.014     9041.758     3289.391        2.829        1.209      177.248       52.323        0.087      335.408        6.018      852.070
01/22/2021  12:30:00     -514.738       66.604      -15.056      208.583      143.405       80.907    43506.693    20565.110     6545.918       17.010        3.531      519.030       71.981        0.019      335.117        5.534      852.013
01/22/2021  12:31:00     -311.606       37.247      -26.829      202.014      187.152       81.249    40809.808    35025.898     6601.429        9.080        4.122      313.824       91.644        0.085      335.226        5.717      851.962
01/22/2021  12:32:00     -367.300      181.669       -7.553      154.711      126.942       88.001    23935.418    16114.292     7744.157       10.787        2.390      409.772       77.403        0.036      335.216        5.699      851.960
01/22/2021  12:33:00      -98.605       -0.944       -7.369       89.194       87.474       48.466     7955.527     7651.696     2348.907        1.386        0.898       98.609       25.939        0.069      335.332        5.895      851.913
01/22/2021  12:34:00      -92.999       -3.017       14.103      129.749      131.344       61.919    16834.717    17251.299     3834.020        2.338        1.896       93.048       43.875        0.222      335.527        6.218      851.873
01/22/2021  12:35:00     -249.927       44.147        3.281      167.410      129.055       78.774    28026.168    16655.294     6205.408        5.764        2.544      253.797       74.721        0.087      335.616        6.365      851.865
01/22/2021  12:36:00     -289.616       11.913       -9.751      147.367      112.132       74.180    21716.950    12573.640     5502.609        6.195        1.990      289.861       53.603        0.034      335.563        6.277      851.831
01/22/2021  12:37:00     -236.828       29.366      -18.857      145.921      106.295       53.951    21292.803    11298.591     2910.702        4.640        1.775      238.642       44.176        0.034      335.721        6.539      851.823
01/22/2021  12:38:00     -187.127       15.855       15.603      154.949      125.590       70.144    24009.296    15772.950     4920.190        4.010        2.235      187.797       62.794        0.112      335.830        6.722      851.814
01/22/2021  12:39:00     -422.863      -80.836       -6.929      212.118      134.966       95.574    44994.125    18215.822     9134.447       12.885        3.617      430.520      107.514        0.062      335.529        6.219      851.765
01/22/2021  12:40:00     -319.265      -58.634      -12.622      203.864      105.166       76.165    41560.602    11059.889     5801.103        8.196        2.921      324.604       82.169        0.064      335.786        6.649      851.741
01/22/2021  12:41:00     -326.570       39.809      -11.944      164.010      133.174       83.251    26899.278    17735.259     6930.740        7.996        2.578      328.987       78.807        0.057      335.879        6.803      851.737
01/22/2021  12:42:00     -245.471      -41.728      -12.146      164.444      120.558       71.098    27041.754    14534.333     5054.878        5.438        2.332      248.992       55.462        0.050      335.886        6.815      851.726
01/22/2021  12:43:00     -191.519       37.658       -3.197      114.673       93.642       58.550    13149.990     8768.838     3428.135        3.172        1.267      195.186       54.346        0.078      336.009        7.019      851.722
01/22/2021  12:44:00     -337.386      -47.845      -16.513      190.158      129.291       83.532    36160.234    16716.124     6977.616        8.811        2.993      340.762       81.182        0.057      335.927        6.883      851.728
01/22/2021  12:45:00     -375.767       47.737        6.254      252.973      147.460       90.145    63995.525    21744.427     8126.203       11.867        4.693      378.787       95.127        0.063      335.777        6.634      851.747
01/22/2021  12:46:00     -402.641        2.624      -47.111      170.423      153.883       68.034    29043.832    23680.089     4628.676       11.084        2.868      402.650       52.654        0.017      335.489        6.152      851.757
01/22/2021  12:47:00      -37.088      -16.887      -24.246       76.939       44.280       45.129     5919.565     1960.694     2036.615        0.608        0.496       40.751       42.219        1.073      335.884        6.815      851.694
01/22/2021  12:48:00     -142.189      -75.067      -12.714       89.267       77.694       47.181     7968.670     6036.295     2226.045        2.112        0.812      160.788       33.286        0.043      335.651        6.425      851.664
01/22/2021  12:49:00     -244.859      -21.390       -9.630      175.056      119.016       63.202    30644.573    14164.817     3994.449        5.464        2.440      245.792       72.963        0.088      335.956        6.934      851.669
01/22/2021  12:50:00     -219.736       16.117       -7.164      125.088      133.977       60.993    15647.005    17949.739     3720.177        4.295        1.866      220.327       43.915        0.040      336.118        7.202      851.646
01/22/2021  12:51:00     -385.668      -98.862      -19.449      184.718      148.827       87.151    34120.576    22149.400     7595.276       11.136        3.193      398.138       89.782        0.051      336.039        7.071      851.645
01/22/2021  12:52:00     -161.322       23.295        3.071      139.773       80.127       64.555    19536.450     6420.380     4167.370        2.834        1.506      162.995       55.311        0.115      336.250        7.423      851.639
01/22/2021  12:53:00     -170.793      -19.414       -4.946      120.405      119.158       50.048    14497.336    14198.715     2504.787        3.038        1.560      171.893       40.304        0.055      335.998        7.003      851.613
01/22/2021  12:54:00     -206.523     -102.797      -23.845      117.614      126.595       54.315    13833.116    16026.328     2950.072        4.329        1.640      230.692       46.696        0.041      335.948        6.919      851.589
01/22/2021  12:55:00     -216.426        0.041       -5.330      118.437       91.029       61.110    14027.242     8286.365     3734.374        3.645        1.302      216.426       57.086        0.070      336.021        7.040      851.590
01/22/2021  12:56:00     -161.458      -10.177        7.549      145.147      101.805       49.398    21067.778    10364.175     2440.193        3.004        1.694      161.779       57.607        0.127      336.125        7.215      851.588
01/22/2021  12:57:00     -248.767      -71.901      -16.202      137.849       83.127       72.855    19002.222     6910.145     5307.883        4.926        1.561      258.950       74.682        0.083      335.998        7.004      851.547
01/22/2021  12:58:00     -304.380      -32.491       -1.651      170.428      112.095       67.880    29045.629    12565.389     4607.645        6.995        2.311      306.110       61.801        0.041      335.936        6.900      851.523
01/22/2021  12:59:00     -355.688      -32.331      -10.639      214.666      108.748       83.457    46081.485    11826.022     6965.050        9.626        3.244      357.154       96.542        0.073      336.036        7.065      851.523
01/22/2021  13:00:00     -348.887      -52.589       -7.486      175.065      129.400       91.979    30647.792    16744.373     8460.109        9.019        2.793      352.828       95.125        0.073      336.193        7.328      851.522
01/22/2021  13:01:00     -190.403      -64.314      -13.007      154.609       99.794       67.009    23903.904     9958.925     4490.179        3.945        1.918      200.972       62.738        0.097      335.820        6.707      851.492
01/22/2021  13:02:00     -472.567      -44.408      -25.615      234.680      157.949       98.739    55074.618    24947.803     9749.359       15.784        4.489      474.649      108.576        0.052      335.822        6.708      851.474
01/22/2021  13:03:00     -360.654       62.883       -5.459      152.074      116.892       82.614    23126.594    13663.825     6825.001        8.883        2.181      366.095       81.103        0.049      335.922        6.875      851.452
01/22/2021  13:04:00     -268.632        5.056      -10.734      187.231      144.300       80.589    35055.542    20822.510     6494.666        6.732        3.119      268.679       83.822        0.097      336.010        7.023      851.413
01/22/2021  13:05:00     -185.013      -25.878        4.818      213.219      152.920       97.632    45462.313    23384.395     9532.044        5.663        3.919      186.814       96.484        0.267      336.081        7.141      851.442
01/22/2021  13:06:00     -294.710      -64.107      -30.125      189.877      127.614       76.405    36053.338    16285.245     5837.690        7.501        2.909      301.602       91.363        0.092      335.962        6.942      851.476
01/22/2021  13:07:00     -238.237     -147.251      -33.586      100.955      120.937       52.705    10191.897    14625.650     2777.858        5.358        1.380      280.070       40.561        0.021      335.728        6.552      851.410
01/22/2021  13:08:00     -263.669      -37.100       -8.362      201.223      137.036       80.177    40490.873    18778.780     6428.308        6.832        3.285      266.266       93.311        0.123      335.826        6.717      851.393
01/22/2021  13:09:00     -229.661     -129.596       -9.334      133.235      160.836       65.414    17751.547    25868.141     4279.024        5.875        2.395      263.703       62.012        0.055      335.976        6.965      851.418
01/22/2021  13:10:00     -358.004      -17.422      -23.386      192.147      154.244       75.549    36920.519    23791.254     5707.579        9.770        3.321      358.428       73.806        0.042      335.956        6.932      851.438
01/22/2021  13:11:00     -332.556      -63.050       -9.044      162.709      113.888       80.340    26474.365    12970.427     6454.495        8.027        2.295      338.480       88.246        0.068      335.800        6.672      851.456
01/22/2021  13:12:00     -242.487      -37.766      -15.162      130.087      136.659       60.290    16922.606    18675.809     3634.903        4.984        1.962      245.410       49.344        0.040      335.865        6.781      851.434
01/22/2021  13:13:00     -230.108      -63.340      -12.831      118.565       89.550       54.534    14057.551     8019.224     2973.956        4.108        1.253      238.666       46.819        0.038      335.853        6.760      851.387
01/22/2021  13:14:00     -257.956      -70.129      -21.036      124.672       95.936       61.667    15543.232     9203.720     3802.806        5.022        1.427      267.319       56.588        0.045      336.005        7.013      851.372
01/22/2021  13:15:00     -330.015      -33.009      -15.656      141.777      143.164       62.767    20100.618    20496.056     3939.649        7.738        2.227      331.662       36.263        0.012      335.817        6.699      851.367
01/22/2021  13:16:00     -240.524      -45.699      -11.667      155.594      137.874       70.281    24209.401    19009.220     4939.435        5.411        2.408      244.827       91.769        0.141      335.992        6.992      851.370
01/22/2021  13:17:00     -369.305      -24.144      -25.847      163.336      134.261       71.726    26678.808    18025.921     5144.633        9.373        2.492      370.093       67.591        0.033      335.850        6.755      851.370
01/22/2021  13:18:00     -383.688      -67.917      -15.014      226.066      173.257       96.864    51105.753    30017.829     9382.670       12.126        4.525      389.653      101.091        0.067      335.663        6.444      851.382
01/22/2021  13:19:00     -242.123      -88.682       -8.065      117.479      115.134       60.362    13801.375    13255.782     3643.594        4.862        1.535      257.853       54.337        0.044      335.679        6.470      851.351
01/22/2021  13:20:00     -361.056      -14.840       -9.671      132.183       82.929       67.725    17472.473     6877.186     4586.719        7.980        1.447      361.360       70.437        0.038      335.713        6.527      851.392
01/22/2021  13:21:00     -313.422       16.550       -7.157      122.723      102.393       67.022    15060.873    10484.250     4491.939        6.429        1.502      313.859       56.689        0.033      335.523        6.209      851.396
01/22/2021  13:22:00     -208.396        5.321        0.698      171.203       88.634       69.233    29310.614     7855.996     4793.206        4.270        2.098      208.464       79.159        0.144      335.603        6.344      851.365
01/22/2021  13:23:00     -140.997       21.823      -15.901      163.308       93.619       59.379    26669.518     8764.584     3525.820        2.978        1.948      142.676       53.159        0.139      335.728        6.553      851.372
01/22/2021  13:24:00     -224.156       -0.077      -20.254      151.318       74.429       51.594    22897.020     5539.723     2661.937        4.087        1.555      224.156       55.549        0.061      335.675        6.464      851.329
01/22/2021  13:25:00     -378.636       36.020        9.108      302.077      189.884      117.823    91250.666    36056.024    13882.346       14.294        7.059      380.345      119.846        0.099      335.866        6.783      851.277
01/22/2021  13:26:00     -554.064      101.734      -16.988      230.454      155.902       96.900    53108.889    24305.465     9389.600       20.220        4.340      563.327      101.466        0.032      335.595        6.331      851.288
01/22/2021  13:27:00     -289.326       60.878        6.304      188.971      102.459       75.690    35710.021    10497.823     5728.954        6.968        2.597      295.661       72.524        0.060      335.890        6.822      851.265
01/22/2021  13:28:00     -427.228       -2.716      -26.586      268.176      146.626       95.853    71918.607    21499.087     9187.846       14.290        5.130      427.237      102.504        0.058      335.764        6.611      851.224
01/22/2021  13:29:00     -197.275       26.559      -10.612      274.934      177.915      120.697    75588.706    31653.618    14567.842        8.075        6.091      199.055      125.681        0.399      335.848        6.753      851.230
01/22/2021  13:30:00     -211.442       28.144        7.898      215.637      156.170       97.456    46499.117    24389.015     9497.579        6.296        4.019      213.307       90.738        0.181      335.880        6.806      851.237
01/22/2021  13:31:00     -351.175       28.082       -4.563      175.901      149.615       85.111    30941.266    22384.509     7243.893        9.234        3.028      352.296       81.240        0.053      335.948        6.919      851.241
01/22/2021  13:32:00     -465.736      101.868      -25.859      253.474      125.605       86.638    64249.304    15776.711     7506.218       15.772        4.377      476.746      104.052        0.048      335.832        6.725      851.239
01/22/2021  13:33:00     -386.474      106.172        1.268      197.036      158.051       84.841    38823.050    24980.151     7198.011       11.580        3.550      400.792       80.766        0.041      335.951        6.923      851.207
01/22/2021  13:34:00     -397.154      115.194       -8.192      233.827      143.723       91.365    54675.224    20656.327     8347.565       12.736        4.184      413.522      108.066        0.068      335.910        6.855      851.210
01/22/2021  13:35:00     -257.812       59.749      -16.359      205.761      154.234       91.245    42337.543    23787.982     8325.629        7.236        3.723      264.645       93.238        0.124      335.932        6.892      851.189
01/22/2021  13:36:00     -221.491       39.754       -6.130      165.168      110.369       66.302    27280.405    12181.296     4395.933        4.726        2.193      225.030       44.094        0.038      336.019        7.038      851.172
01/22/2021  13:37:00      -57.532       22.517      -21.677      203.567      128.804       79.942    41439.652    16590.349     6390.764        3.434        3.221       61.781       64.081        1.076      335.946        6.916      851.202
01/22/2021  13:38:00     -282.949      -31.229      -16.817      256.070      146.006       97.284    65571.696    21317.645     9464.239        8.881        4.818      284.667       92.915        0.107      335.628        6.385      851.192
01/22/2021  13:39:00     -446.248      157.919       -0.872      162.682      139.225       92.428    26465.329    19383.492     8542.867       13.922        2.720      473.366       85.031        0.032      335.541        6.241      851.204
01/22/2021  13:40:00     -286.282       62.863       -1.185      186.777      133.896       77.252    34885.633    17928.163     5967.802        7.233        2.939      293.103       72.863        0.062      335.688        6.486      851.189
01/22/2021  13:41:00     -140.037      -12.696       12.158      188.408      103.060       76.289    35497.752    10621.296     5819.978        3.592        2.597      140.611       74.777        0.283      335.879        6.805      851.158
01/22/2021  13:42:00     -277.478       24.597        4.696      150.455      117.709       65.665    22636.833    13855.404     4311.869        5.920        2.040      278.566       56.253        0.041      335.885        6.813      851.175
01/22/2021  13:43:00     -241.467      -27.990       -0.753      178.023      125.407       85.557    31692.233    15726.913     7320.072        5.690        2.737      243.084       94.139        0.150      335.870        6.789      851.157
01/22/2021  13:44:00     -341.241      -20.861       -2.856      246.639      156.230       94.117    60830.843    24407.684     8858.036       10.547        4.705      341.878       99.438        0.085      335.811        6.692      851.127
01/22/2021  13:45:00     -454.395       10.689      -10.619      200.614      145.889      105.717    40246.169    21283.550    11176.110       13.969        3.635      454.521      105.540        0.054      335.667        6.450      851.124
01/22/2021  13:46:00     -514.652      111.365       -5.360      237.445      144.610      101.894    56380.139    20912.165    10382.373       18.247        4.384      526.564      112.603        0.046      335.777        6.632      851.102
01/22/2021  13:47:00     -549.328      131.011       12.547      252.082      142.961      109.863    63545.370    20437.852    12069.837       20.755        4.803      564.735      118.600        0.044      335.761        6.607      851.078
01/22/2021  13:48:00     -284.961       61.065        3.741      195.596      109.475       73.035    38257.687    11984.872     5334.104        7.025        2.779      291.431       62.595        0.046      336.054        7.096      851.125
01/22/2021  13:49:00     -294.911      -87.241      -30.040      196.577      138.460       90.802    38642.509    19171.265     8245.059        8.076        3.303      307.545       90.470        0.087      335.838        6.736      851.127
01/22/2021  13:50:00     -190.419       -3.623        3.262      173.377      143.830       76.054    30059.654    20687.121     5784.257        4.639        2.827      190.454       57.281        0.090      335.785        6.648      851.129
01/22/2021  13:51:00     -237.240        5.127      -18.531      258.374      134.797       96.933    66757.148    18170.345     9396.027        7.547        4.716      237.295       63.078        0.071      335.695        6.497      851.064
01/22/2021  13:52:00     -347.477      106.024      -15.999      166.378      123.236       76.151    27681.598    15187.034     5798.971        9.044        2.433      363.292       80.770        0.049      336.026        7.048      851.106
01/22/2021  13:53:00     -148.118       12.809        4.730      176.970       99.808       71.842    31318.280     9961.648     5161.317        3.427        2.322      148.671       65.740        0.196      336.256        7.433      851.140
01/22/2021  13:54:00     -294.649        1.359      -15.162      143.187      112.647       77.845    20502.549    12689.273     6059.907        6.314        1.963      294.652       76.952        0.068      335.916        6.866      851.150
01/22/2021  13:55:00     -326.753       31.959      -19.504      176.464      125.316       82.043    31139.427    15704.069     6730.989        8.086        2.679      328.312       67.930        0.043      335.898        6.835      851.122
01/22/2021  13:56:00     -339.255      -12.515       -3.273      268.856      153.179       97.087    72283.605    23463.657     9425.820       11.019        5.259      339.486      105.542        0.097      335.808        6.685      851.111
01/22/2021  13:57:00     -310.594      -78.677        1.394      182.241      136.117      101.978    33211.620    18527.748    10399.560        8.239        3.107      320.404      101.105        0.100      335.899        6.837      851.105
01/22/2021  13:58:00     -188.280      -14.748       -8.845      154.343      128.480       84.454    23821.681    16507.089     7132.500        4.159        2.373      188.856       82.868        0.193      336.229        7.389      851.108
01/22/2021  13:59:00     -359.677       52.363        6.667      220.915      107.347       75.337    48803.414    11523.371     5675.624        9.906        3.300      363.469       83.856        0.053      336.079        7.138      851.114
01/22/2021  14:00:00     -456.694       25.575       -8.858      279.560      183.883       99.736    78153.541    33813.016     9947.338       16.558        6.096      457.409       98.943        0.047      335.768        6.618      851.126
01/22/2021  14:01:00     -292.007       48.941      -10.689      161.363      161.425       90.512    26038.109    26058.144     8192.414        7.402        3.014      296.080       74.388        0.063      336.058        7.101      851.150
01/22/2021  14:02:00     -355.579      -76.874       -8.252      278.283      147.889      107.863    77441.223    21871.137    11634.442       12.166        5.547      363.794      123.930        0.116      335.869        6.787      851.174
01/22/2021  14:03:00     -400.992       10.125      -12.182      199.588      114.616       77.119    39835.324    13136.764     5947.375       10.997        2.946      401.120       79.668        0.039      335.634        6.397      851.202
01/22/2021  14:04:00     -238.265       19.142      -19.308      140.402      113.890       78.066    19712.678    12970.985     6094.229        4.814        1.939      239.032       77.338        0.105      335.839        6.736      851.187
01/22/2021  14:05:00     -293.878       26.169       -0.570      168.094      124.897       71.745    28255.710    15599.346     5147.391        6.802        2.450      295.041       74.256        0.063      336.052        7.093      851.203
01/22/2021  14:06:00     -378.346      -10.920      -12.659      236.655      157.436       72.379    56005.647    24786.019     5238.655       11.471        4.302      378.504       60.235        0.025      335.876        6.801      851.186
01/22/2021  14:07:00     -159.311      -16.793      -15.018      114.301      104.956       58.050    13064.642    11015.742     3369.770        2.666        1.373      160.194       36.366        0.052      336.213        7.362      851.194
01/22/2021  14:08:00     -346.003      -83.518      -20.965      199.710      104.845       92.596    39884.007    10992.498     8573.989        9.328        2.973      355.940       89.575        0.063      335.746        6.583      851.182
01/22/2021  14:09:00     -295.375      -71.854      -14.631      222.556      111.217       87.171    49531.315    12369.180     7598.856        8.105        3.475      303.989       95.892        0.100      336.030        7.056      851.180
01/22/2021  14:10:00     -250.819      -19.052       23.522      182.192      129.238       88.813    33193.950    16702.377     7887.666        6.079        2.889      251.542       95.166        0.143      335.919        6.870      851.189
01/22/2021  14:11:00     -365.310      -67.136        8.276      247.921      135.285       84.728    61464.685    18302.159     7178.865       11.247        4.347      371.428       93.537        0.063      335.825        6.714      851.173
01/22/2021  14:12:00     -250.383      -23.945      -11.544      148.602       89.912       66.160    22082.428     8084.251     4377.138        4.896        1.727      251.526       71.445        0.081      335.927        6.885      851.163
01/22/2021  14:13:00     -208.350      -45.800       -8.360      197.830      142.457       86.127    39136.577    20294.029     7417.843        5.620        3.342      213.325       89.190        0.175      335.986        6.983      851.178
01/22/2021  14:14:00     -298.089      -38.005      -16.767      221.760      198.655      113.873    49177.305    39463.671    12967.131        9.607        5.080      300.502      123.439        0.169      335.816        6.699      851.151
01/22/2021  14:15:00     -423.107       83.888      -13.067      203.002      152.484      101.073    41209.861    23251.507    10215.735       13.044        3.734      431.343       94.800        0.048      335.843        6.744      851.198
01/22/2021  14:16:00     -484.979       34.528       -0.262      213.404      128.511       81.220    45541.271    16514.950     6596.650       15.251        3.433      486.207       85.328        0.031      335.722        6.542      851.204
01/22/2021  14:17:00     -328.073       22.503       -2.876      158.769      140.522       82.347    25207.561    19746.313     6780.998        7.993        2.587      328.843       69.320        0.044      335.801        6.675      851.207
01/22/2021  14:18:00     -303.085      -99.176      -27.345      167.740      124.438       83.200    28136.827    15484.813     6922.247        7.648        2.527      318.898       70.728        0.049      335.798        6.669      851.178
01/22/2021  14:19:00     -112.533      -13.989       -9.544      159.611      132.661       88.371    25475.772    17598.988     7809.432        3.191        2.544      113.399       37.675        0.110      336.106        7.182      851.187
01/22/2021  14:20:00     -102.093        1.356        0.933      129.851       98.882       59.008    16861.178     9777.692     3481.897        2.027        1.506      102.102       40.081        0.154      336.421        7.711      851.186
01/22/2021  14:21:00     -205.082       44.086      -10.284      227.753      106.066       64.919    51871.533    11249.933     4214.540        5.571        3.367      209.767       59.132        0.079      336.320        7.542      851.191
01/22/2021  14:22:00     -340.606       -8.934        9.306      210.518      119.955       78.766    44317.641    14389.294     6204.131        9.053        3.246      340.723       98.548        0.084      335.934        6.895      851.176
01/22/2021  14:23:00     -306.894      -86.785      -23.655      218.048      141.102       98.318    47544.842    19909.781     9666.498        8.968        3.856      318.929       89.612        0.079      336.000        7.006      851.175
01/22/2021  14:24:00     -236.330      -13.337       -3.681      243.753      157.724      106.376    59415.349    24877.006    11315.863        7.580        4.780      236.706      105.693        0.199      335.991        6.990      851.170
01/22/2021  14:25:00     -441.859      -80.055      -26.163      273.719      148.512      109.777    74921.827    22055.726    12050.909       15.566        5.451      449.052      120.563        0.072      335.597        6.334      851.191
01/22/2021  14:26:00     -375.268      -34.663      -22.149      224.555      134.144      105.684    50424.931    17994.548    11169.196       11.104        3.979      376.866      106.318        0.080      335.578        6.302      851.203
01/22/2021  14:27:00     -331.305      -87.284      -24.558      193.363      141.027       85.214    37389.322    19888.616     7261.406        9.125        3.227      342.610       76.414        0.050      335.638        6.402      851.204
01/22/2021  14:28:00     -321.362       10.690      -30.393      191.980      185.675       80.805    36856.500    34475.184     6529.409        9.107        3.893      321.540       81.166        0.064      335.605        6.347      851.201
01/22/2021  14:29:00     -180.282       69.914       12.822      158.702       94.803       66.503    25186.393     8987.663     4422.704        3.807        1.930      193.363       71.149        0.135      335.827        6.718      851.208
01/22/2021  14:30:00     -279.295       55.059      -24.886      248.142      108.577       60.132    61574.379    11789.061     3615.804        7.930        3.849      284.670       54.941        0.037      335.769        6.623      851.200
01/22/2021  14:31:00     -412.178       35.464      -24.912      127.719      127.715       72.238    16312.219    16311.201     5218.310       10.480        1.892      413.701       57.162        0.019      335.671        6.457      851.191
01/22/2021  14:32:00     -294.067       26.730      -12.102      104.764      100.907       54.740    10975.490    10182.156     2996.446        5.574        1.208      295.279       33.813        0.013      335.806        6.683      851.188
01/22/2021  14:33:00     -328.358      122.034      -13.896      154.098      161.470       76.791    23746.323    26072.529     5896.788        8.930        2.786      350.302       71.442        0.042      335.782        6.642      851.175
01/22/2021  14:34:00     -410.716      101.164       -8.851      188.857      164.903       85.657    35666.806    27193.160     7337.187       12.458        3.510      422.992       88.331        0.044      335.712        6.525      851.137
01/22/2021  14:35:00     -411.220       17.803      -21.265      212.161      178.905       79.617    45012.242    32007.030     6338.865       12.660        4.168      411.606       91.877        0.050      335.711        6.524      851.158
01/22/2021  14:36:00     -482.401        7.846       -0.355      237.270      186.320      113.022    56296.944    34715.191    12773.997       16.826        5.189      482.465      119.405        0.061      335.617        6.366      851.166
01/22/2021  14:37:00     -361.687      110.180       20.976      262.200      156.653       94.056    68748.828    24540.117     8846.573       12.274        5.107      378.096      110.370        0.085      335.736        6.567      851.192
01/22/2021  14:38:00     -290.771       16.324       16.411      227.910      152.407       94.210    51943.025    23227.849     8875.497        8.455        4.202      291.229       86.268        0.088      335.699        6.504      851.220
01/22/2021  14:39:00     -344.644      -16.663      -18.309      202.398      161.469       91.407    40964.866    26072.228     8355.239        9.738        3.770      345.047       78.438        0.052      335.557        6.268      851.236
01/22/2021  14:40:00     -354.371       46.020      -10.082      233.254      136.905       80.420    54407.342    18742.871     6467.341       10.369        3.981      357.347       80.058        0.050      335.557        6.268      851.248
01/22/2021  14:41:00     -463.833      108.929        2.963      254.038      137.501       91.026    64535.436    18906.404     8285.665       15.935        4.586      476.452       96.297        0.041      335.454        6.095      851.265
01/22/2021  14:42:00     -366.981       42.428       10.417      248.312      112.349       91.613    61658.829    12622.269     8392.884       10.961        4.134      369.425      108.916        0.087      335.406        6.015      851.259
01/22/2021  14:43:00     -332.254       71.650       -5.015      164.139       92.281       53.656    26941.754     8515.755     2878.961        7.694        1.917      339.891       38.288        0.013      335.521        6.206      851.253
01/22/2021  14:44:00     -300.265      114.390        5.606      163.710      120.198       72.378    26800.889    14447.487     5238.554        7.487        2.324      321.317       66.184        0.042      335.523        6.209      851.253
01/22/2021  14:45:00     -249.549       30.578        8.370      194.182       85.652       68.528    37706.699     7336.241     4696.061        5.650        2.487      251.416       74.617        0.088      335.578        6.303      851.265
01/22/2021  14:46:00     -254.469      -10.117      -19.757      229.453      152.732       86.034    52648.887    23327.206     7401.825        7.429        4.169      254.670       84.585        0.110      335.405        6.014      851.252
01/22/2021  14:47:00     -257.388       -9.543       12.317      171.232      135.083       81.076    29320.568    18247.430     6573.259        6.030        2.707      257.565       73.515        0.081      335.512        6.191      851.272
01/22/2021  14:48:00     -293.916      -72.559       -0.734      182.801      150.540       95.204    33416.263    22662.285     9063.877        7.838        3.257      302.740       91.867        0.092      335.433        6.061      851.269
01/22/2021  14:49:00     -196.317       -3.809        6.031      156.082      102.554       64.873    24361.436    10517.244     4208.531        3.883        1.954      196.354       64.494        0.108      335.480        6.138      851.272
01/22/2021  14:50:00     -207.348      -10.656       -1.039      225.236       96.100       71.395    50731.216     9235.177     5097.198        5.407        3.253      207.622       88.242        0.181      335.458        6.103      851.280
01/22/2021  14:51:00     -179.721       -5.807      -14.231      143.299      107.734       51.968    20534.687    11606.593     2700.700        3.368        1.742      179.815       50.222        0.078      335.424        6.048      851.282
01/22/2021  14:52:00     -256.350       -4.960        1.014      162.170      117.484       71.368    26299.233    13802.446     5093.369        5.546        2.260      256.398       76.002        0.088      335.418        6.036      851.274
01/22/2021  14:53:00     -277.116       14.134      -13.429      159.099      111.708       54.773    25312.625    12478.764     3000.111        5.897        2.040      277.477       51.675        0.035      335.399        6.004      851.278
01/22/2021  14:54:00     -137.438       51.331       14.346      136.621      106.360       66.838    18665.419    11312.410     4467.327        2.808        1.722      146.711       66.301        0.204      335.609        6.356      851.294
01/22/2021  14:55:00     -238.062       75.092       -4.564      112.519       84.933       58.052    12660.631     7213.637     3370.063        4.278        1.162      249.624       41.891        0.028      335.501        6.173      851.290
01/22/2021  14:56:00     -238.138       31.637       -7.109      171.860       93.059       56.492    29535.742     8660.009     3191.319        4.957        2.069      240.231       52.142        0.047      335.341        5.907      851.271
01/22/2021  14:57:00     -376.887       49.593       -6.704      124.697      109.422       74.404    15549.398    11973.098     5535.983        8.880        1.653      380.136       76.471        0.040      335.356        5.931      851.270
01/22/2021  14:58:00     -129.941       36.208       -1.861      129.439       75.179       50.072    16754.555     5651.834     2507.238        2.155        1.246      134.892       38.929        0.083      335.398        6.003      851.263
01/22/2021  14:59:00     -196.515       15.452      -19.123      178.088      100.107       54.784    31715.494    10021.450     3001.304        4.197        2.237      197.122       69.273        0.123      335.374        5.963      851.249
01/22/2021  15:00:00     -234.199      -44.232        1.144      146.153      108.601       69.305    21360.650    11794.270     4803.227        4.737        1.898      238.340       57.164        0.058      335.377        5.968      851.226
01/22/2021  15:01:00     -215.171      -36.659       -0.012      168.112      107.796       82.666    28261.560    11619.941     6833.622        4.717        2.336      218.271       85.904        0.155      335.411        6.024      851.225
01/22/2021  15:02:00     -183.678      -12.760       16.024      149.542       89.989       66.230    22362.922     8098.024     4386.411        3.449        1.742      184.121       60.375        0.108      335.455        6.097      851.224
01/22/2021  15:03:00     -262.223      -69.476      -12.087      155.983      109.241       81.358    24330.566    11933.699     6619.159        5.830        2.144      271.271       80.696        0.088      335.389        5.988      851.212
01/22/2021  15:04:00     -220.294      -34.544       -4.799      165.779       91.060       63.236    27482.806     8291.835     3998.793        4.475        1.989      222.986       69.803        0.098      335.404        6.013      851.196
01/22/2021  15:05:00     -225.579       -7.487       14.844      157.594       93.466       73.207    24835.961     8735.919     5359.283        4.504        1.947      225.704       72.057        0.102      335.404        6.014      851.192
01/22/2021  15:06:00     -305.242      -36.833       -5.721      165.722      113.703       66.403    27463.931    12928.451     4409.326        6.967        2.240      307.456       70.534        0.053      335.353        5.926      851.190
01/22/2021  15:07:00     -277.576       -2.115      -20.805      167.584      141.517       75.129    28084.323    20027.014     5644.368        6.561        2.688      277.584       68.126        0.060      335.364        5.946      851.189
01/22/2021  15:08:00     -340.641      -69.356      -33.196      176.663      117.342       68.332    31209.685    13769.065     4669.214        8.579        2.482      347.630       54.646        0.025      335.358        5.936      851.184
01/22/2021  15:09:00     -265.686      -56.246      -25.336      140.533      129.262       70.676    19749.556    16708.769     4995.146        5.791        2.073      271.574       63.777        0.055      335.293        5.828      851.166
01/22/2021  15:10:00      -87.978        3.936       -7.374      160.665      116.111       57.374    25813.221    13481.796     3291.809        2.519        2.129       88.066       60.485        0.472      335.414        6.030      851.154
01/22/2021  15:11:00     -157.788      -25.857       -0.174      144.654       94.567       66.063    20924.771     8942.988     4364.290        2.989        1.712      159.893       55.045        0.119      335.440        6.074      851.179
01/22/2021  15:12:00     -245.374      -31.294        4.194      181.416      100.077       79.965    32911.641    10015.497     6394.399        5.525        2.466      247.362       98.764        0.159      335.405        6.015      851.178
01/22/2021  15:13:00     -374.439      -35.321      -17.119      182.927      175.774       84.184    33462.321    30896.671     7086.902       10.658        3.572      376.101       86.301        0.053      335.390        5.989      851.188
01/22/2021  15:14:00     -255.261        1.669      -16.956      173.439      122.964       75.883    30081.171    15120.033     5758.228        5.819        2.548      255.266       69.669        0.074      335.335        5.897      851.198
01/22/2021  15:15:00     -228.554      -29.634      -22.966      111.727       68.822       50.637    12482.910     4736.530     2564.057        3.671        0.989      230.467       45.598        0.039      335.331        5.891      851.217
01/22/2021  15:16:00     -178.265       27.732        3.631      130.726       86.001       57.525    17089.202     7396.251     3309.116        3.017        1.390      180.409       43.821        0.059      335.465        6.115      851.232
01/22/2021  15:17:00     -188.565       88.029       14.949      122.548       80.986       54.493    15017.974     6558.811     2969.490        3.403        1.227      208.101       54.624        0.069      335.485        6.149      851.240
01/22/2021  15:18:00     -260.002       18.017       -8.445      135.054       76.622       49.159    18239.531     5870.992     2416.623        4.726        1.326      260.626       38.189        0.021      335.379        5.970      851.238
01/22/2021  15:19:00     -182.067       33.856       -6.927      107.727       62.644       45.104    11605.195     3924.332     2034.328        2.595        0.878      185.188       38.550        0.043      335.542        6.242      851.237
01/22/2021  15:20:00     -212.624       49.931      -13.267       99.084       78.486       47.019     9817.598     6160.077     2210.742        3.303        0.909      218.408       44.121        0.041      335.452        6.093      851.244
01/22/2021  15:21:00     -114.122       29.724       -9.386      118.483       82.430       48.113    14038.238     6794.630     2314.896        1.857        1.157      117.930       38.535        0.107      335.523        6.212      851.260
01/22/2021  15:22:00      -41.588      -18.567       -3.927      105.338       72.419       49.278    11096.035     5244.552     2428.346        1.043        0.938       45.544       53.161        1.362      335.585        6.316      851.264
01/22/2021  15:23:00       56.726      -31.362       -3.444       51.574       65.564       43.037     2659.907     4298.660     1852.148        0.651        0.441       64.819       24.493        0.143      335.722        6.545      851.270
01/22/2021  15:24:00      -20.645       44.842       -9.301       76.432       51.751       37.356     5841.913     2678.169     1395.458        0.622        0.496       49.366       36.604        0.550      335.813        6.698      851.298
01/22/2021  15:25:00      -63.971      -14.620        0.411      113.365       89.245       69.939    12851.589     7964.688     4891.476        1.500        1.285       65.620       67.380        1.054      335.779        6.638      851.316
01/22/2021  15:26:00     -187.848       61.633      -16.703      140.860       97.700       63.173    19841.650     9545.284     3990.806        3.636        1.669      197.701       62.659        0.100      335.505        6.182      851.303
01/22/2021  15:27:00       11.286        6.570       -2.861       93.181       58.247       45.579     8682.678     3392.675     2077.465        0.716        0.708       13.059       46.766       12.825      335.506        6.184      851.307
01/22/2021  15:28:00     -106.340       71.183       -3.132       77.231       86.918       39.288     5964.685     7554.746     1543.570        1.572        0.753      127.966       31.919        0.062      335.607        6.352      851.304
01/22/2021  15:29:00     -258.594       90.076      -38.610      179.136      118.668       75.965    32089.802    14082.042     5770.639        6.420        2.597      273.833       87.117        0.101      335.214        5.696      851.295
01/22/2021  15:30:00     -252.594       80.369      -28.111      113.664      136.634       67.320    12919.427    18668.826     4531.963        5.358        1.806      265.071       62.925        0.056      335.243        5.743      851.286
01/22/2021  15:31:00     -196.851      115.763      -23.942      109.733      113.216       64.518    12041.386    12817.921     4162.572        4.087        1.451      228.366       53.022        0.054      335.263        5.778      851.284
01/22/2021  15:32:00     -200.806      195.555      -24.964      103.921      108.401       51.375    10799.554    11750.729     2639.439        5.218        1.259      280.294       34.340        0.015      335.292        5.824      851.285
01/22/2021  15:33:00     -200.894      101.884      -57.912      187.805      135.554       76.347    35270.830    18374.877     5828.879        5.677        2.974      225.252       82.276        0.133      335.328        5.886      851.294
01/22/2021  15:34:00     -163.223      139.402        1.070      170.727      138.930       75.660    29147.704    19301.550     5724.471        5.011        2.709      214.650       54.342        0.064      335.314        5.863      851.297
01/22/2021  15:35:00      -98.518       93.510      -16.022      124.455      181.679       65.002    15489.157    33007.210     4225.238        3.570        2.636      135.831       60.459        0.198      335.405        6.015      851.308
01/22/2021  15:36:00     -111.570      183.512      -26.251       92.340       91.359       50.260     8526.746     8346.419     2526.021        3.310        0.970      214.766       36.499        0.029      335.351        5.924      851.336
01/22/2021  15:37:00     -114.257      283.111      -11.693       96.755      132.505       55.171     9361.619    17557.508     3043.884        6.165        1.498      305.297       42.713        0.020      335.317        5.868      851.341
01/22/2021  15:38:00     -124.991      363.822      -25.173       96.859      127.617       62.262     9381.648    16286.156     3876.511        8.908        1.477      384.693       54.142        0.020      335.207        5.686      851.340
01/22/2021  15:39:00     -131.506      406.262      -42.092      101.481      155.248       60.593    10298.362    24101.860     3671.458       11.108        1.904      427.016       62.087        0.021      335.078        5.470      851.359
01/22/2021  15:40:00     -167.070      278.538      -18.746      145.015      120.291       73.481    21029.478    14469.869     5399.430        7.336        2.045      324.802       60.798        0.035      335.252        5.759      851.362
01/22/2021  15:41:00     -223.962      275.629      -33.395      112.991      145.075       61.436    12767.057    21046.881     3774.430        8.241        1.879      355.148       43.910        0.015      335.178        5.636      851.360
01/22/2021  15:42:00      -26.457      252.487      -21.958      126.160      199.504       66.777    15916.249    39801.684     4459.139        6.254        3.009      253.870       59.049        0.054      335.242        5.743      851.375
01/22/2021  15:43:00      -67.643      199.505      -18.667      104.142      148.939       61.200    10845.569    22182.905     3745.445        4.074        1.839      210.661       48.208        0.052      335.294        5.830      851.403
01/22/2021  15:44:00      -60.930      347.810      -28.158       83.621      141.385       55.258     6992.486    19989.856     3053.410        7.775        1.502      353.107       57.349        0.026      335.161        5.609      851.426
01/22/2021  15:45:00     -130.259      319.633      -22.738      127.753      134.300       58.441    16320.927    18036.568     3415.299        7.870        1.889      345.156       51.343        0.022      335.133        5.562      851.436
01/22/2021  15:46:00     -111.123      224.938      -25.248      124.444      104.302       65.047    15486.326    10878.943     4231.151        4.708        1.530      250.889       52.514        0.044      335.242        5.743      851.443
01/22/2021  15:47:00     -104.811      308.212      -21.672      130.985       89.154       52.249    17157.090     7948.475     2729.995        6.714        1.392      325.546       44.876        0.019      335.200        5.675      851.464
01/22/2021  15:48:00      -39.144      251.664      -11.885      104.673      144.412       61.229    10956.362    20854.743     3748.988        5.028        1.778      254.690       68.357        0.072      335.202        5.678      851.476
01/22/2021  15:49:00      -78.422      317.516      -28.869      159.516      136.602       56.925    25445.316    18659.987     3240.406        7.756        2.367      327.057       42.011        0.016      335.132        5.561      851.467
01/22/2021  15:50:00      -36.961      325.279      -19.803       93.777      149.399       71.472     8794.163    22319.977     5108.317        7.189        1.811      327.372       65.637        0.040      335.132        5.560      851.457
01/22/2021  15:51:00      -23.028      340.062      -15.999      100.525      129.317       69.273    10105.340    16722.944     4798.695        7.402        1.581      340.841       60.271        0.031      335.090        5.490      851.472
01/22/2021  15:52:00      -51.947      276.451      -31.171       98.598       89.484       49.643     9721.611     8007.468     2464.462        5.014        1.010      281.289       33.187        0.014      335.118        5.536      851.493
01/22/2021  15:53:00     -150.029      204.152       -4.799      134.013      109.845       65.128    17959.466    12065.921     4241.661        4.923        1.713      253.352       55.119        0.047      335.279        5.804      851.515
01/22/2021  15:54:00     -120.395      259.024       -8.169      121.179      108.713       57.428    14684.286    11818.614     3298.027        5.572        1.490      285.637       49.658        0.030      335.269        5.788      851.541
01/22/2021  15:55:00     -149.279      237.394      -23.341      119.310      104.922       59.622    14234.767    11008.588     3554.798        5.399        1.440      280.428       46.085        0.027      335.348        5.919      851.561
01/22/2021  15:56:00     -104.540      188.666      -22.891      112.050       96.121       56.803    12555.304     9239.332     3226.610        3.603        1.251      215.693       46.301        0.046      335.351        5.924      851.571
01/22/2021  15:57:00      -70.024      187.312      -17.379       72.515       92.969       41.730     5258.386     8643.315     1741.367        2.796        0.782      199.973       32.384        0.026      335.394        5.997      851.594
01/22/2021  15:58:00     -136.465      221.999      -18.123      102.777       99.498       45.634    10563.160     9899.919     2082.451        4.539        1.127      260.588       46.527        0.032      335.453        6.095      851.605
01/22/2021  15:59:00     -105.102      275.365      -40.735      145.547      142.963       67.241    21184.011    20438.528     4521.332        6.733        2.307      294.741       46.825        0.025      335.289        5.822      851.610
01/22/2021  16:00:00     -156.364      299.044      -34.802      149.205      150.328       73.870    22262.172    22598.447     5456.750        8.269        2.516      337.456       42.060        0.016      335.192        5.659      851.617
01/22/2021  16:01:00     -214.629      284.899      -38.271      128.343      197.716       85.468    16471.974    39091.586     7304.786        9.577        3.143      356.697       55.737        0.024      335.174        5.630      851.614
01/22/2021  16:02:00     -118.966      159.448      -29.058      154.833      144.008       86.496    23973.123    20738.307     7481.592        4.630        2.610      198.938       84.199        0.179      335.232        5.727      851.631
01/22/2021  16:03:00     -172.846      176.462      -49.579      145.484      131.069       80.557    21165.531    17179.129     6489.431        5.414        2.242      247.011       65.595        0.071      335.286        5.817      851.623
01/22/2021  16:04:00     -199.815      190.027      -35.793      149.444      150.889       89.415    22333.449    22767.487     7995.048        6.520        2.655      275.747       56.414        0.042      335.248        5.753      851.650
01/22/2021  16:05:00     -218.350       92.775      -52.589      165.943      117.548       66.562    27536.995    13817.493     4430.525        5.241        2.289      237.243       67.825        0.082      335.252        5.760      851.686
01/22/2021  16:06:00     -118.168       96.404      -22.273      152.402      179.064       85.110    23226.365    32064.025     7243.719        4.313        3.127      152.504       82.561        0.293      335.261        5.776      851.692
01/22/2021  16:07:00      -59.975      104.401      -30.324      108.572      140.642       61.671    11787.845    19780.267     3803.330        2.539        1.769      120.401       40.055        0.111      335.257        5.771      851.668
01/22/2021  16:08:00     -202.443      203.963      -37.615      138.200      138.924       75.071    19099.335    19299.999     5635.683        6.401        2.202      287.374       70.039        0.059      335.131        5.558      851.675
01/22/2021  16:09:00     -172.775       98.935      -56.535      126.281      109.531       52.131    15946.818    11996.933     2717.589        3.674        1.533      199.096       31.113        0.024      335.242        5.743      851.696
01/22/2021  16:10:00      -63.932      226.981      -22.745      115.004      122.619       58.004    13225.927    15035.508     3364.441        4.387        1.581      235.813       51.130        0.047      335.176        5.635      851.704
01/22/2021  16:11:00      -15.758      109.704       24.412       83.092       72.104       45.297     6904.315     5198.973     2051.836        1.351        0.708      110.829       24.160        0.048      335.396        6.002      851.702
01/22/2021  16:12:00      -40.087      142.521      -12.650       58.032       70.433       46.315     3367.740     4960.816     2145.055        1.627        0.524      148.051       29.091        0.039      335.277        5.803      851.688
01/22/2021  16:13:00      -51.689      110.629      -10.747       97.916      122.421       60.682     9587.507    14986.995     3682.294        2.164        1.413      122.109       50.249        0.169      335.500        6.173      851.694
01/22/2021  16:14:00      -41.169      257.592       -8.130      121.945      104.247       62.831    14870.635    10867.514     3947.694        4.889        1.484      260.861       45.672        0.031      335.341        5.908      851.687
01/22/2021  16:15:00     -144.975      127.913      -18.153       89.910      142.538       51.717     8083.892    20317.011     2674.670        3.439        1.554      193.338       52.642        0.074      335.344        5.913      851.728
01/22/2021  16:16:00        1.729      112.337       -7.034      103.365       68.307       52.261    10684.266     4665.865     2731.252        1.537        0.904      112.350       33.605        0.089      335.317        5.870      851.722
01/22/2021  16:17:00      -31.683      -10.155       -8.230      133.834       78.346       55.115    17911.571     6138.030     3037.671        1.413        1.354       33.271       43.479        1.708      335.396        6.002      851.723
01/22/2021  16:18:00     -230.265       -6.250      -11.046      146.135       91.056       66.817    21355.384     8291.119     4464.455        4.364        1.706      230.350       70.377        0.093      335.188        5.653      851.768
01/22/2021  16:19:00     -200.947       45.261        4.342      128.414       71.664       50.392    16490.249     5135.787     2539.391        3.330        1.208      205.981       56.529        0.075      335.259        5.771      851.814
01/22/2021  16:20:00     -221.314       54.544      -19.431      152.565       87.622       55.395    23276.184     7677.697     3068.642        4.317        1.701      227.936       24.722        0.012      335.455        6.098      851.832
01/22/2021  16:21:00     -261.128       98.958      -31.901      125.099      104.795       59.598    15649.640    10981.935     3551.948        5.458        1.509      279.250       46.845        0.028      335.269        5.789      851.857
01/22/2021  16:22:00      -79.199       38.540        2.756       78.209       73.252       59.176     6116.698     5365.891     3501.740        1.137        0.749       88.079       38.813        0.194      335.420        6.042      851.857
01/22/2021  16:23:00     -165.161       34.110        4.680      155.427       74.191       64.423    24157.608     5504.233     4150.365        3.113        1.691      168.646       68.272        0.164      335.186        5.651      851.838
01/22/2021  16:24:00     -189.212      -68.598       -8.426      178.408      123.738       57.600    31829.389    15311.085     3317.756        4.551        2.523      201.263       62.131        0.095      335.046        5.418      851.814
01/22/2021  16:25:00     -196.667       50.813       10.569      146.298       94.362       67.273    21403.102     8904.127     4525.651        3.809        1.742      203.125       61.513        0.092      335.228        5.721      851.826
01/22/2021  16:26:00     -300.564       65.436        5.608      108.759       96.430       63.192    11828.458     9298.697     3993.260        5.988        1.256      307.605       56.461        0.034      335.011        5.359      851.823
01/22/2021  16:27:00     -271.483       58.606       -0.255      140.872       97.125       53.523    19844.879     9433.324     2864.755        5.463        1.607      277.737       53.592        0.037      335.061        5.443      851.840
01/22/2021  16:28:00     -294.533       95.993       -3.513      108.753       83.804       46.065    11827.155     7023.079     2121.998        5.847        1.049      309.781       39.726        0.016      334.904        5.181      851.855
01/22/2021  16:29:00      -22.955       10.606       -3.781       84.572       67.070       36.771     7152.390     4498.402     1352.096        0.683        0.650       25.287       27.692        1.199      335.251        5.760      851.866
01/22/2021  16:30:00     -174.652       47.987       -5.957      142.721      102.813       56.840    20369.336    10570.575     3230.782        3.350        1.709      181.125       48.256        0.071      335.182        5.645      851.883
01/22/2021  16:31:00     -356.761       65.895       10.438      212.568      118.172       74.406    45184.948    13964.520     5536.196        9.819        3.234      362.796       90.552        0.062      334.986        5.317      851.873
01/22/2021  16:32:00     -347.319       63.632       12.336      176.261      115.413       69.041    31067.893    13320.071     4766.645        8.698        2.458      353.100       66.560        0.036      334.886        5.153      851.866
01/22/2021  16:33:00     -242.398       30.123        7.805      126.416      102.936       60.266    15981.090    10595.830     3632.036        4.496        1.510      244.263       62.606        0.066      334.862        5.112      851.853
01/22/2021  16:34:00     -177.141       44.055        5.977      118.696       83.511       53.189    14088.685     6974.147     2829.075        2.862        1.195      182.537       41.654        0.052      335.066        5.451      851.853
01/22/2021  16:35:00      -68.138       57.100        9.643      111.471       59.753       39.651    12425.835     3570.404     1572.240        1.278        0.878       88.900       38.937        0.192      335.104        5.517      851.845
01/22/2021  16:36:00     -292.421       58.958        4.840      147.072       97.080       67.783    21630.046     9424.584     4594.500        6.232        1.782      298.305       69.203        0.054      334.876        5.136      851.846
01/22/2021  16:37:00     -313.649       27.296       -1.441       93.850      115.071       51.275     8807.742    13241.250     2629.084        6.190        1.234      314.835       34.029        0.012      334.820        5.040      851.838
01/22/2021  16:38:00     -137.566       25.307       -4.641       94.294       89.783       48.318     8891.396     8061.040     2334.674        1.943        0.964      139.875       32.457        0.054      334.944        5.251      851.864
01/22/2021  16:39:00     -123.871       28.389       -1.060       97.934       77.488       49.303     9591.131     6004.334     2430.833        1.708        0.901      127.082       41.146        0.105      335.045        5.418      851.882
01/22/2021  16:40:00     -323.018      133.597       -2.979      140.260      109.348       74.030    19672.863    11957.092     5480.436        7.965        1.856      349.555       77.440        0.049      334.834        5.065      851.906
01/22/2021  16:41:00     -206.948       62.290      -19.715      176.709       98.635       60.249    31225.992     9728.794     3629.929        4.583        2.229      216.119       79.515        0.135      334.805        5.017      851.916
01/22/2021  16:42:00     -222.616       -2.431      -10.250      183.651      121.121       83.433    33727.808    14670.396     6961.147        5.250        2.768      222.629       71.287        0.103      334.830        5.059      851.913
01/22/2021  16:43:00     -335.422      -10.157       -5.482      160.746      105.461       71.462    25839.155    11122.074     5106.778        7.735        2.103      335.575       75.676        0.051      334.732        4.893      851.900
01/22/2021  16:44:00     -165.256       45.946       -0.012      127.780       87.120       63.453    16327.786     7589.979     4026.251        2.868        1.397      171.524       70.904        0.171      334.816        5.036      851.915
01/22/2021  16:45:00     -189.789       -2.564      -16.753       99.547       81.729       43.961     9909.640     6679.639     1932.609        2.741        0.926      189.806       26.696        0.020      334.826        5.052      851.917
01/22/2021  16:46:00      -52.615       -4.182       16.355      136.570       70.767       52.970    18651.499     5008.019     2805.824        1.475        1.323       52.780       43.073        0.666      334.893        5.167      851.915
01/22/2021  16:47:00     -141.677       31.350       -9.157      131.833       78.454       52.819    17379.941     6154.956     2789.818        2.373        1.316      145.104       41.837        0.083      334.885        5.152      851.931
01/22/2021  16:48:00      -95.534       12.203        1.885      161.407      116.630       62.857    26052.324    13602.636     3951.016        2.643        2.180       96.310       59.017        0.375      334.874        5.133      851.943
01/22/2021  16:49:00      -61.897       56.416        7.585       90.897       72.517       54.820     8262.260     5258.726     3005.255        1.180        0.826       83.749       28.737        0.118      334.805        5.020      851.964
01/22/2021  16:50:00     -110.462       62.928       -7.255      145.708       76.409       62.426    21230.760     5838.405     3897.010        2.358        1.548      127.129       61.065        0.231      334.734        4.900      851.965
01/22/2021  16:51:00     -142.389       85.000      -10.606      105.614      118.207       64.719    11154.336    13972.867     4188.571        2.846        1.466      165.830       35.722        0.046      334.625        4.719      851.946
01/22/2021  16:52:00     -130.258       48.249      -23.479       90.001       84.934       52.302     8100.162     7213.702     2735.463        1.894        0.902      138.907       46.822        0.114      334.594        4.668      851.952
01/22/2021  16:53:00      -31.695       67.002        7.688       64.627       62.469       43.592     4176.618     3902.364     1900.293        0.776        0.499       74.120       25.246        0.116      334.645        4.755      851.953
01/22/2021  16:54:00       23.442        4.573       -6.448       60.048       99.000       44.320     3605.764     9801.006     1964.298        0.799        0.769       23.884       23.520        0.970      334.743        4.917      851.954
01/22/2021  16:55:00     -129.707       38.852      -19.903      130.588       94.233       69.158    17053.153     8879.860     4782.815        2.472        1.536      135.401       66.393        0.240      334.503        4.517      851.980
01/22/2021  16:56:00     -179.183      219.531      -36.949      170.280      108.988       80.494    28995.192    11878.353     6479.361        6.450        2.368      283.373       54.151        0.037      334.255        4.102      851.977
01/22/2021  16:57:00     -203.235      207.807      -28.021       89.248      143.546       62.965     7965.248    20605.519     3964.563        5.890        1.627      290.669       49.460        0.029      334.398        4.340      851.934
01/22/2021  16:58:00      -66.595      135.808       -6.314      149.730      136.809       65.053    22419.119    18716.677     4231.957        3.413        2.268      151.257       30.278        0.040      334.364        4.285      851.917
01/22/2021  16:59:00     -127.668      174.762       -8.902      117.175      132.958       78.902    13730.069    17677.843     6225.468        4.227        1.882      216.427       53.310        0.061      334.339        4.243      851.925
01/22/2021  17:00:00      -59.707       82.605        3.453      132.642      132.814       62.272    17593.978    17639.508     3877.861        2.475        1.956      101.924       63.760        0.391      334.181        3.983      851.920
01/22/2021  17:01:00     -141.834      121.533      -31.002       95.053       99.128       51.221     9034.986     9826.324     2623.603        2.866        1.074      186.781       40.137        0.046      334.245        4.089      851.899
01/22/2021  17:02:00      -20.435       28.064        1.597       80.799       76.608       47.778     6528.479     5868.820     2282.777        0.794        0.734       34.716       35.894        1.069      334.415        4.372      851.921
01/22/2021  17:03:00     -102.985       22.980      -12.824      145.006      167.362       65.714    21026.846    28010.069     4318.308        3.232        2.668      105.517       56.774        0.290      334.290        4.164      851.945
01/22/2021  17:04:00     -123.017        8.754        7.550      123.180       62.215       44.768    15173.228     3870.705     2004.133        1.815        1.052      123.328       45.558        0.136      334.200        4.013      851.971
01/22/2021  17:05:00     -139.601       89.499      -12.268       85.643       81.994       41.327     7334.751     6723.070     1707.883        2.170        0.788      165.827       34.993        0.045      334.142        3.917      851.971
01/22/2021  17:06:00      -28.612      125.673      -18.046      103.320      116.519       47.018    10675.065    13576.594     2210.651        2.169        1.323      128.889       29.183        0.051      334.222        4.051      851.967
01/22/2021  17:07:00      -95.022       74.569      -26.823       84.907       57.807       45.086     7209.164     3341.629     2032.735        1.394        0.629      120.788       39.057        0.105      334.219        4.046      852.006
01/22/2021  17:08:00     -133.271       75.257      -33.335       69.888       93.898       44.349     4884.364     8816.836     1966.842        2.010        0.783      153.052       40.097        0.069      334.183        3.985      852.033
01/22/2021  17:09:00      -76.385       34.874       -8.847      137.996       96.408       69.373    19042.870     9294.537     4812.554        2.013        1.657       83.969       58.804        0.490      334.217        4.044      852.054
01/22/2021  17:10:00     -199.389       71.822      -24.858      123.175      114.024       50.230    15172.144    13001.528     2523.081        3.811        1.535      211.930       47.026        0.049      334.034        3.738      852.067
01/22/2021  17:11:00      -55.427       74.784      -12.564       73.199      116.216       45.594     5358.022    13506.111     2078.814        1.488        1.047       93.084       16.607        0.032      334.107        3.860      852.074
01/22/2021  17:12:00     -109.655      110.344      -18.206      115.398      107.832       60.666    13316.603    11627.635     3680.400        2.657        1.431      155.564       51.483        0.110      334.005        3.691      852.081
01/22/2021  17:13:00      -98.319       71.473       -7.448       89.648      101.253       64.611     8036.799    10252.213     4174.615        1.864        1.123      121.553       41.495        0.117      333.932        3.570      852.083
01/22/2021  17:14:00     -114.829      162.432      -27.683       89.799      130.836       68.872     8063.772    17117.938     4743.306        3.512        1.496      198.922       58.604        0.087      333.930        3.564      852.091
01/22/2021  17:15:00     -174.870      223.899      -39.213      133.300      146.884       65.235    17768.826    21574.936     4255.649        6.291        2.180      284.095       48.745        0.029      333.874        3.472      852.079
01/22/2021  17:16:00     -140.595      199.758      -13.905      116.242      120.036       53.026    13512.174    14408.582     2811.761        4.529        1.537      244.275       38.844        0.025      333.918        3.545      852.078
01/22/2021  17:17:00      -16.990       44.031      -14.016       77.541       77.673       47.380     6012.601     6033.072     2244.855        0.835        0.715       47.195       40.517        0.737      333.956        3.611      852.073
01/22/2021  17:18:00     -152.202      149.333      -30.102       66.107       70.862       52.911     4370.168     5021.451     2799.528        2.928        0.610      213.227       37.388        0.031      333.922        3.553      852.071
01/22/2021  17:19:00     -179.136      142.135      -34.184      111.068      134.306       54.872    12336.190    18038.179     3010.972        4.342        1.669      228.674       43.130        0.036      333.870        3.465      852.037
01/22/2021  17:20:00      -16.948       11.042       12.933       95.568       54.691       38.875     9133.251     2991.146     1511.285        0.710        0.682       20.228       37.630        3.461      333.940        3.584      852.030
01/22/2021  17:21:00     -216.392       30.786        1.867      143.960       91.223       51.285    20724.398     8321.694     2630.139        3.972        1.584      218.571       47.393        0.047      333.904        3.522      852.021
01/22/2021  17:22:00     -112.333        0.133        7.546      162.968       65.393       51.565    26558.448     4276.277     2658.938        2.308        1.675      112.334       59.291        0.279      333.867        3.462      852.007
01/22/2021  17:23:00     -113.441      110.230      -12.010      152.560      133.186       63.957    23274.548    17738.441     4090.523        3.512        2.255      158.176       53.401        0.114      333.844        3.421      852.019
01/22/2021  17:24:00     -155.593      106.601       -8.947      122.447       81.118       49.741    14993.359     6580.116     2474.162        2.985        1.202      188.608       53.234        0.080      333.808        3.363      852.009
01/22/2021  17:25:00     -153.328       22.251      -17.988      113.702       70.763       45.672    12928.139     5007.466     2085.947        2.217        1.001      154.935       40.682        0.069      333.763        3.290      851.991
01/22/2021  17:26:00     -179.771       51.046       -7.175       96.192       68.452       40.945     9252.894     4685.622     1676.531        2.529        0.781      186.878       26.033        0.019      333.779        3.315      851.992
01/22/2021  17:27:00      -23.451       99.568       -1.906       56.126       69.537       38.466     3150.113     4835.414     1479.635        0.996        0.473      102.293       29.104        0.081      333.861        3.454      852.000
01/22/2021  17:28:00      -50.101       12.798       -3.886      173.528       75.814       86.062    30112.035     5747.754     7406.623        2.297        2.163       51.710      100.394        3.769      333.872        3.472      851.979
01/22/2021  17:29:00      -74.101       88.612      -10.925       98.932       72.995       49.525     9787.622     5328.305     2452.734        1.551        0.878      115.513       18.904        0.027      333.804        3.357      851.963
01/22/2021  17:30:00     -113.356       56.954      -25.008       84.590       69.109       57.710     7155.486     4775.992     3330.437        1.599        0.763      126.860       49.242        0.151      333.799        3.349      851.963
01/22/2021  17:31:00      -74.748      122.489       -5.174       69.940      100.486       43.350     4891.578    10097.356     1879.239        1.874        0.843      143.495       36.177        0.064      333.767        3.296      851.959
01/22/2021  17:32:00      -46.244      104.895       -7.073       84.090       72.022       46.180     7071.197     5187.131     2132.604        1.379        0.720      114.636       34.215        0.089      333.789        3.333      851.957
01/22/2021  17:33:00      -12.809       55.835      -11.197       70.190       85.781       48.870     4926.619     7358.411     2388.310        0.904        0.734       57.286       37.732        0.434      333.810        3.368      851.942
01/22/2021  17:34:00      -28.897       69.320      -13.828      190.991       81.773       94.426    36477.409     6686.804     8916.295        2.894        2.604       75.102      113.008        2.264      333.842        3.422      851.948
01/22/2021  17:35:00     -106.321      175.880       -9.123       84.426       80.260       53.489     7127.797     6441.711     2861.066        2.937        0.822      205.518       40.783        0.039      333.731        3.236      851.932
01/22/2021  17:36:00     -110.439      118.248      -26.762      108.788       73.918       40.629    11834.936     5463.819     1650.748        2.292        0.947      161.801       40.926        0.064      333.769        3.299      851.918
01/22/2021  17:37:00      -30.318      157.252       -1.395       88.134       80.566       50.208     7767.677     6490.812     2520.799        2.121        0.839      160.148       30.062        0.035      333.760        3.284      851.900
01/22/2021  17:38:00      -84.162      386.184      -30.440       90.715       94.163       59.949     8229.200     8866.640     3593.864        8.891        1.034      395.248       32.321        0.007      333.681        3.151      851.909
01/22/2021  17:39:00     -119.125      171.013      -13.994      115.934      129.400       57.055    13440.687    16744.341     3255.326        3.853        1.672      208.414       46.140        0.049      333.686        3.160      851.912
01/22/2021  17:40:00     -104.854      295.953      -10.744      116.350      101.174       53.748    13537.389    10236.264     2888.827        6.267        1.333      313.979       50.760        0.026      333.660        3.116      851.899
01/22/2021  17:41:00      -79.880      220.150       -8.076      175.826       85.173       91.025    30914.924     7254.475     8285.597        5.067        2.323      234.194      109.801        0.220      333.770        3.301      851.889
01/22/2021  17:42:00      -69.083      166.402      -11.212       54.643      106.955       46.602     2985.822    11439.354     2171.763        2.459        0.830      180.172       39.861        0.049      333.675        3.143      851.888
01/22/2021  17:43:00      -63.800      113.884      -18.940      169.745       94.010       83.958    28813.314     8837.962     7048.880        3.104        2.235      130.537      101.332        0.603      333.744        3.258      851.885
01/22/2021  17:44:00      -99.710      131.104       -4.303      204.032      152.881      101.118    41629.145    23372.610    10224.791        5.117        3.761      164.713      120.079        0.531      333.712        3.205      851.881
01/22/2021  17:45:00      -49.297       97.836      -22.566      156.740      114.691       91.737    24567.424    13154.000     8415.739        2.931        2.307      109.554       87.171        0.633      333.681        3.153      851.885
01/22/2021  17:46:00      -66.437      141.163       -9.034       91.622      101.929       59.628     8394.680    10389.491     3555.476        2.338        1.117      156.015       27.120        0.030      333.694        3.175      851.886
01/22/2021  17:47:00      -73.705       98.873        8.397      144.790       94.379       73.202    20964.264     8907.460     5358.545        2.525        1.762      123.322       83.343        0.457      333.708        3.198      851.892
01/22/2021  17:48:00     -164.342      161.236      -32.194      119.110      134.520       80.810    14187.216    18095.757     6530.184        4.642        1.941      230.229       77.229        0.113      333.624        3.058      851.908
01/22/2021  17:49:00     -138.014      149.445      -32.367       75.816      136.856       51.201     5748.088    18729.594     2621.537        3.476        1.355      203.425       44.824        0.049      333.637        3.079      851.907
01/22/2021  17:50:00      -99.975       67.034      -28.026      118.027      104.401       61.027    13930.445    10899.604     3724.269        2.191        1.428      120.369       53.225        0.196      333.654        3.109      851.921
01/22/2021  17:51:00      -77.060      103.358      -23.855      234.476       99.515      110.899    54978.890     9903.197    12298.533        4.717        3.859      128.923      139.587        1.172      333.700        3.187      851.933
01/22/2021  17:52:00       18.169       17.705       -0.504      221.449       89.112      111.992    49039.444     7940.879    12542.215        3.507        3.476       25.369      134.871       28.263      333.668        3.136      851.934
01/22/2021  17:53:00      -82.249      143.813        7.952       46.313       67.831       48.852     2144.927     4601.085     2386.495        1.832        0.457      165.671       49.230        0.088      333.617        3.048      851.939
01/22/2021  17:54:00      -92.058      172.773      -22.741      225.236       84.240      106.394    50731.036     7096.302    11319.640        5.398        3.457      195.768      134.003        0.469      333.743        3.257      851.967
01/22/2021  17:55:00      -61.021       98.951      -14.497      169.800      103.267       90.788    28832.036    10664.057     8242.488        3.072        2.387      116.253       89.637        0.595      333.763        3.290      851.980
01/22/2021  17:56:00     -198.059       61.098      -32.465       82.703       70.477       53.833     6839.843     4967.077     2897.971        2.936        0.735      207.268       36.166        0.030      333.655        3.109      851.997
01/22/2021  17:57:00      -78.057      144.670       -0.047       77.412       80.315       41.378     5992.622     6450.520     1712.146        2.059        0.708      164.384       42.691        0.067      333.685        3.161      851.993
01/22/2021  17:58:00      -49.152      105.449      -11.945      159.101       68.210       78.682    25312.995     4652.644     6190.793        2.491        1.808      116.342       85.994        0.546      333.751        3.271      851.993
01/22/2021  17:59:00      -85.148       94.857      -15.352      204.080       71.872       94.952    41648.825     5165.632     9015.830        3.614        2.792      127.468      116.009        0.828      333.704        3.194      852.002
01/22/2021  18:00:00     -213.480      209.116      -25.386      153.771      148.655       73.964    23645.436    22098.173     5470.723        7.057        2.561      298.836       67.644        0.051      333.649        3.099      851.997
01/22/2021  18:01:00     -103.049      178.496      -18.067      240.338      156.056      116.049    57762.416    24353.351    13467.325        6.917        4.779      206.107      139.926        0.461      333.743        3.257      852.011
01/22/2021  18:02:00     -153.727       54.765      -29.569      180.400      111.363       95.026    32544.269    12401.803     9029.879        4.073        2.699      163.190       87.798        0.289      333.694        3.175      852.005
01/22/2021  18:03:00      -83.915       97.139      -32.347      220.474      130.975      103.442    48608.905    17154.405    10700.333        4.698        3.823      128.366       92.428        0.518      333.680        3.153      851.984
01/22/2021  18:04:00     -167.783      112.942      -16.671      100.531       92.023       60.281    10106.573     8468.305     3633.813        3.169        1.110      202.255       53.735        0.071      333.669        3.132      851.976
01/22/2021  18:05:00     -125.105      140.583      -29.711      178.150       80.084      100.342    31737.396     6413.492    10068.487        4.225        2.411      188.188      102.568        0.297      333.705        3.191      851.973
01/22/2021  18:06:00     -142.153      108.263      -21.422       81.068      112.901       51.969     6572.000    12746.550     2700.827        2.720        1.101      178.685       37.182        0.043      333.687        3.164      851.970
01/22/2021  18:07:00      -85.769       27.093      -26.655      282.616       99.407      138.697    79872.023     9881.769    19236.885        5.887        5.450       89.947      172.828        3.692      333.720        3.221      851.964
01/22/2021  18:08:00      -47.939      132.235      -19.698      255.582       76.668      117.604    65322.353     5878.011    13830.795        5.258        4.252      140.657      161.028        1.311      333.748        3.266      851.969
01/22/2021  18:09:00      -56.974      113.728      -36.421      209.884       70.768      105.135    44051.259     5008.170    11053.394        3.880        3.006      127.201      123.272        0.939      333.745        3.261      851.980
01/22/2021  18:10:00      -77.901       83.887       -0.440      186.148       85.681       89.164    34651.077     7341.193     7950.248        3.151        2.497      114.480       96.078        0.704      333.686        3.164      851.988
01/22/2021  18:11:00      -62.794      121.159      -23.785      177.743       83.571       89.531    31592.662     6984.043     8015.774        3.288        2.330      136.465      105.961        0.603      333.695        3.179      852.004
01/22/2021  18:12:00      -84.186       63.421      -21.573      174.840       86.603       81.606    30569.001     7500.102     6659.599        2.814        2.236      105.401       92.404        0.769      333.632        3.074      851.997
01/22/2021  18:13:00      -13.592      201.447      -49.404      445.639      137.511      210.677   198594.135    18909.151    44384.593       15.249       13.094      201.905      292.353        2.097      333.835        3.414      852.007
01/22/2021  18:14:00      -72.219      170.133        1.184       88.204      118.813       51.345     7779.906    14116.438     2636.267        2.934        1.227      184.826       34.859        0.036      333.593        3.009      852.022
01/22/2021  18:15:00      -24.047      129.160      -17.654      265.149       89.897      131.864    70303.871     8081.553    17388.187        5.665        4.789      131.379      164.053        1.559      333.695        3.179      852.041
01/22/2021  18:16:00        7.858      107.724        8.304      188.130       70.840       99.107    35392.792     5018.252     9822.106        3.097        2.512      108.011      123.185        1.301      333.718        3.217      852.057
01/22/2021  18:17:00     -192.291      187.258      -47.789      178.063      149.807       84.549    31706.419    22442.080     7148.469        6.780        3.065      268.406       75.579        0.079      333.566        2.962      852.082
01/22/2021  18:18:00     -117.912      204.226      -37.049      279.547      137.009      141.432    78146.365    18771.575    20003.105        8.693        5.846      235.821      155.581        0.435      333.668        3.132      852.085
01/22/2021  18:19:00      -93.399      225.384      -36.827      187.824      105.352       99.463    35277.709    11099.008     9892.810        5.856        2.813      243.970      101.038        0.172      333.616        3.044      852.086
01/22/2021  18:20:00     -139.737      157.676      -15.730      126.039      113.349       78.131    15885.872    12848.066     6104.473        3.973        1.742      210.685       69.313        0.108      333.579        2.984      852.099
01/22/2021  18:21:00     -106.558      194.235      -26.695      273.923      150.977      131.256    75033.613    22794.088    17228.150        8.240        5.753      221.544      158.041        0.509      333.655        3.112      852.098
01/22/2021  18:22:00      -62.811      204.275      -19.969      351.903      126.289      163.801   123835.678    15948.854    26830.639       10.631        8.331      213.714      218.566        1.046      333.712        3.206      852.102
01/22/2021  18:23:00      -91.685      101.498       -9.723      184.391       96.211       95.573    34000.124     9256.532     9134.235        3.559        2.620      136.777       97.861        0.512      333.634        3.077      852.103
01/22/2021  18:24:00      -70.937      162.522       -9.308       82.305       84.762       46.500     6774.176     7184.577     2162.290        2.382        0.806      177.328       30.878        0.030      333.613        3.040      852.108
01/22/2021  18:25:00     -133.683      156.477      -22.688      109.099      124.190       59.321    11902.511    15423.068     3519.008        3.685        1.542      205.806       39.143        0.036      333.582        2.988      852.098
01/22/2021  18:26:00     -126.515      118.654       -7.371      153.495       91.005       58.541    23560.633     8281.927     3427.060        3.270        1.763      173.450       58.180        0.113      333.527        2.899      852.084
01/22/2021  18:27:00      -21.398      168.564      -11.718      192.837      105.541       94.258    37186.166    11138.973     8884.597        4.310        2.860      169.917      115.388        0.461      333.599        3.018      852.068
01/22/2021  18:28:00      -76.512      181.200      -32.012      303.344      101.659      150.953    92017.617    10334.563    22786.851        8.240        6.257      196.692      198.285        1.016      333.728        3.233      852.080
01/22/2021  18:29:00      -69.067      168.281      -27.161      287.706      115.241      144.459    82774.988    13280.547    20868.387        7.535        5.846      181.903      188.300        1.072      333.657        3.115      852.073
01/22/2021  18:30:00      -57.147      257.847      -20.848      174.850      124.038       85.249    30572.662    15385.467     7267.352        6.169        2.661      264.104      106.220        0.162      333.544        2.926      852.082
01/22/2021  18:31:00      -15.703      132.755      -19.272      376.672      116.180      188.093   141882.172    13497.836    35378.989       10.446        9.538      133.680      254.514        3.625      333.756        3.283      852.075
01/22/2021  18:32:00     -109.548      179.967      -22.162      212.295      112.377      109.463    45069.050    12628.669    11982.096        5.726        3.484      210.687      101.558        0.232      333.559        2.951      852.095
01/22/2021  18:33:00     -164.198      170.332      -36.801      265.332      103.404      129.460    70401.099    10692.413    16759.779        7.757        4.893      236.588      158.547        0.449      333.588        3.001      852.117
01/22/2021  18:34:00     -117.059      118.100      -14.239      190.196      124.827      102.606    36174.673    15581.868    10528.023        4.506        3.114      166.284       80.522        0.234      333.523        2.891      852.114
01/22/2021  18:35:00      -71.347      175.914      -26.877      258.305      130.867      139.195    66721.250    17126.277    19375.297        6.997        5.161      189.832      163.714        0.744      333.644        3.094      852.116
01/22/2021  18:36:00      -92.825      122.635      -37.424      220.803      111.780       98.464    48753.936    12494.848     9695.114        4.798        3.547      153.805      116.214        0.571      333.532        2.908      852.133
01/22/2021  18:37:00      -79.185       91.162      -21.802      187.414      162.145       89.623    35123.856    26291.107     8032.260        4.224        3.472      120.751       83.202        0.475      333.529        2.902      852.138
01/22/2021  18:38:00     -121.761      138.103      -23.576      195.271      123.231       95.417    38130.867    15185.843     9104.323        4.842        3.121      184.114       81.064        0.194      333.495        2.845      852.169
01/22/2021  18:39:00      -76.153      171.843      -22.345      290.310      133.592      146.961    84279.674    17846.768    21597.489        7.975        6.186      187.960      183.351        0.952      333.560        2.956      852.195
01/22/2021  18:40:00     -149.691       61.381      -59.858      358.312       89.735      166.859   128387.547     8052.352    27841.868        9.698        8.214      161.787      226.197        1.955      333.602        3.028      852.205
01/22/2021  18:41:00     -119.667      148.605      -32.811      117.670      151.224       70.893    13846.237    22868.659     5025.821        3.960        2.087      190.798       51.829        0.074      333.432        2.738      852.216
01/22/2021  18:42:00      -54.205      110.687       -3.240       56.385       80.051       42.689     3179.302     6408.086     1822.311        1.330        0.570      123.247       27.537        0.050      333.453        2.778      852.221
01/22/2021  18:43:00      -89.107      133.538       -0.408       82.617       77.820       56.966     6825.607     6055.954     3245.144        2.095        0.806      160.538       38.926        0.059      333.464        2.794      852.233
01/22/2021  18:44:00      -66.324       87.981      -35.759      400.527       66.411      176.573   160422.095     4410.428    31178.094       10.467        9.801      110.179      253.643        5.300      333.677        3.151      852.249
01/22/2021  18:45:00     -133.749      125.465       -9.146      204.698       82.639       93.593    41901.305     6829.261     8759.627        4.559        2.875      183.386      118.844        0.420      333.470        2.804      852.258
01/22/2021  18:46:00     -110.541      130.936      -19.719      265.032       68.879      125.983    70241.939     4744.336    15871.647        6.029        4.543      171.358      168.168        0.963      333.517        2.884      852.286
01/22/2021  18:47:00     -119.211      138.613      -11.366       53.123       90.048       42.957     2822.064     8108.710     1845.314        2.316        0.639      182.825       31.475        0.030      333.404        2.696      852.307
01/22/2021  18:48:00      -85.359      108.756      -16.815       94.136       86.679       58.238     8861.528     7513.332     3391.665        1.958        0.988      138.253       49.853        0.130      333.379        2.655      852.318
01/22/2021  18:49:00     -185.524      103.805      -21.451      250.336      133.942      107.380    62668.312    17940.428    11530.417        6.888        4.607      212.590      104.307        0.241      333.410        2.706      852.329
01/22/2021  18:50:00      -34.156      125.800      -22.547      303.415       82.481      142.233    92060.640     6803.130    20230.317        6.827        5.955      130.355      197.389        2.293      333.497        2.853      852.348
01/22/2021  18:51:00      -38.242      124.256      -17.421      262.229      136.886      120.447    68763.944    18737.676    14507.433        5.959        5.100      130.008      152.462        1.375      333.496        2.849      852.371
01/22/2021  18:52:00      -38.977      169.531      -28.669      287.372      105.354      134.429    82582.816    11099.417    18071.271        7.139        5.588      173.954      177.733        1.044      333.533        2.911      852.406
01/22/2021  18:53:00     -131.970      178.539      -20.636      124.944       86.596       62.786    15611.081     7498.834     3942.101        3.838        1.353      222.018       59.410        0.072      333.431        2.738      852.431
01/22/2021  18:54:00     -105.212      150.099      -40.587      186.036       83.498       96.167    34609.219     6971.935     9248.017        4.303        2.541      183.301      109.179        0.355      333.500        2.854      852.460
01/22/2021  18:55:00      -38.089       85.952      -23.026      269.625      138.612      135.210    72697.630    19213.210    18281.768        5.976        5.510       94.013      167.334        3.168      333.582        2.990      852.480
01/22/2021  18:56:00     -143.465       78.130      -12.846      176.902       94.014       79.092    31294.408     8838.602     6255.491        3.661        2.319      163.360       77.047        0.222      333.541        2.920      852.508
01/22/2021  18:57:00     -154.740      188.934      -39.953      100.631      112.366       54.615    10126.615    12626.175     2982.775        4.348        1.287      244.214       42.819        0.031      333.558        2.950      852.548
01/22/2021  18:58:00      -92.131       50.627      -36.685      238.359       88.875      112.233    56814.875     7898.721    12596.269        4.484        3.865      105.124      145.801        1.924      333.621        3.057      852.572
01/22/2021  18:59:00      -17.764       38.243      -26.863      349.716       85.935      161.499   122301.154     7384.741    26081.965        7.910        7.788       42.167      224.800       28.421      333.686        3.166      852.591
01/22/2021  19:00:00      -21.721        7.559       -2.247      188.215       69.236       96.450    35425.041     4793.654     9302.607        2.502        2.476       22.999      111.374       23.451      333.580        2.987      852.611
01/22/2021  19:01:00     -138.610       36.670      -12.612      134.877       89.702       43.164    18191.827     8046.395     1863.093        2.440        1.405      143.379       33.864        0.056      333.509        2.867      852.587
01/22/2021  19:02:00     -109.416       67.048      -19.510      195.855      141.467       95.548    38359.302    20012.952     9129.388        4.216        3.375      128.325      116.497        0.824      333.567        2.965      852.587
01/22/2021  19:03:00       52.557      -49.946      -31.080      343.002       68.675      158.759   117650.623     4716.230    25204.323        7.686        7.379       72.504      223.279        9.484      333.780        3.324      852.579
01/22/2021  19:04:00      -82.299       33.135       -8.024      147.170       60.019       72.535    21659.112     3602.277     5261.359        1.922        1.526       88.719       86.042        0.941      333.639        3.087      852.581
01/22/2021  19:05:00      -83.997      155.002      -28.363      350.058      149.299      170.122   122540.332    22290.329    28941.654       10.279        8.689      176.298      231.000        1.717      333.789        3.335      852.601
01/22/2021  19:06:00     -131.280      265.683      -34.403       90.212      110.874       62.527     8138.208    12293.144     3909.645        5.667        1.217      296.348       36.944        0.016      333.718        3.213      852.611
01/22/2021  19:07:00      -92.472      111.253      -28.632      210.053       74.551      109.920    44122.347     5557.901    12082.461        4.174        3.088      144.666      119.157        0.678      333.779        3.317      852.626
01/22/2021  19:08:00      -64.435      120.071      -28.261      211.309       90.413      109.233    44651.347     8174.509    11931.904        4.205        3.238      136.268      117.843        0.748      333.802        3.354      852.643
01/22/2021  19:09:00     -102.125       64.906      -18.932      159.660      102.541       79.955    25491.474    10514.669     6392.734        2.869        2.120      121.006       61.167        0.256      333.799        3.349      852.648
01/22/2021  19:10:00     -119.956      126.877      -14.507      107.454       82.099       45.085    11546.401     6740.169     2032.693        2.550        1.016      174.606       44.096        0.064      333.810        3.367      852.643
01/22/2021  19:11:00      -99.055      104.337      -13.173      223.182       79.322       91.844    49809.999     6291.953     8435.268        4.269        3.227      143.868      108.319        0.567      333.830        3.401      852.659
01/22/2021  19:12:00     -141.159      123.858      -11.011       91.531       76.866       56.474     8377.925     5908.393     3189.304        2.643        0.874      187.794       48.442        0.067      333.789        3.332      852.667
01/22/2021  19:13:00     -116.798      165.642      -24.928       82.089      107.590       49.561     6738.621    11575.670     2456.312        3.123        1.039      202.679       29.886        0.022      333.783        3.320      852.667
01/22/2021  19:14:00     -163.893      120.845      -24.392       92.766       87.007       53.460     8605.483     7570.280     2858.020        3.054        0.952      203.628       39.889        0.038      333.754        3.273      852.663
01/22/2021  19:15:00     -151.518      134.281      -27.123      102.770      126.837       55.134    10561.603    16087.617     3039.750        3.570        1.484      202.458       59.051        0.085      333.769        3.298      852.659
01/22/2021  19:16:00      -63.756       71.229       -3.456       70.501      102.522       38.319     4970.328    10510.662     1468.354        1.305        0.847       95.595       42.092        0.194      333.776        3.311      852.662
01/22/2021  19:17:00      -73.731      134.227      -41.271      251.569      107.737      118.665    63286.918    11607.226    14081.420        5.705        4.449      153.144      157.982        1.064      333.824        3.392      852.671
01/22/2021  19:18:00      -71.061      116.708      -14.954       61.454       65.036       40.646     3776.538     4229.663     1652.058        1.427        0.483      136.640       29.815        0.048      333.794        3.343      852.675
01/22/2021  19:19:00      -44.700       89.023      -15.886      160.843       87.104       80.966    25870.344     7587.167     6555.526        2.509        2.001       99.615       98.702        0.982      333.824        3.392      852.687
01/22/2021  19:20:00      -58.128      149.838      -16.773      197.882       77.864       90.253    39157.248     6062.784     8145.683        3.973        2.668      160.718      110.881        0.476      333.778        3.316      852.695
01/22/2021  19:21:00      -98.846       69.340      -14.614      227.711      118.887      102.377    51852.334    14134.173    10481.032        4.561        3.823      120.741      127.408        1.113      333.798        3.350      852.693
01/22/2021  19:22:00     -124.783      155.764      -25.392      101.087       63.786       54.211    10218.564     4068.639     2938.835        2.885        0.861      199.583       50.357        0.064      333.721        3.219      852.693
01/22/2021  19:23:00      -89.219       34.934      -30.940      352.983       69.612      166.543   124596.916     4845.861    27736.729        8.362        7.859       95.814      229.175        5.721      333.902        3.524      852.692
01/22/2021  19:24:00      -46.593       54.475       -6.205       50.509       53.119       39.701     2551.193     2821.668     1576.203        0.606        0.347       71.683       27.345        0.146      333.735        3.244      852.686
01/22/2021  19:25:00      -54.609      105.568      -17.582      206.862       54.244       93.432    42791.941     2942.453     8729.539        3.444        2.723      118.856      119.315        1.008      333.744        3.261      852.673
01/22/2021  19:26:00      -24.280      100.769      -18.655      344.397       56.890      163.194   118609.124     3236.456    26632.326        7.975        7.424      103.653      227.133        4.802      333.832        3.409      852.671
01/22/2021  19:27:00      -70.362      114.184      -32.547      180.530       49.312       98.862    32591.084     2431.678     9773.681        3.191        2.240      134.122      117.971        0.774      333.756        3.281      852.663
01/22/2021  19:28:00      -52.483       35.896      -13.856      226.759       46.323      103.357    51419.579     2145.855    10682.665        3.423        3.212       63.584      118.679        3.484      333.766        3.297      852.658
01/22/2021  19:29:00      -75.060       20.624       -0.710      185.432       80.019       91.986    34385.151     6403.117     8461.449        2.764        2.462       77.842      110.391        2.011      333.703        3.192      852.645
01/22/2021  19:30:00     -183.445      137.413      -15.199      212.298      102.978       95.132    45070.317    10604.547     9050.028        5.873        3.236      229.204      108.324        0.223      333.651        3.103      852.643
01/22/2021  19:31:00      -85.182       91.983      -15.733      167.129       93.905       87.172    27932.237     8818.186     7598.895        3.015        2.217      125.367      108.074        0.743      333.684        3.162      852.635
01/22/2021  19:32:00      -60.978       90.152       -0.524      140.942       80.997       76.713    19864.692     6560.494     5884.930        2.207        1.616      108.838       88.670        0.664      333.746        3.264      852.626
01/22/2021  19:33:00      -14.866       18.407      -10.476       92.500       97.940       57.396     8556.236     9592.162     3294.358        1.105        1.072       23.660       44.192        3.489      333.716        3.212      852.608
01/22/2021  19:34:00      -14.198       40.664       -3.892      305.131       87.941      145.445    93104.716     7733.537    21154.165        6.190        6.100       43.071      199.506       21.455      333.846        3.431      852.608
01/22/2021  19:35:00      -43.800       -9.323       -6.289      272.077       61.159      124.453    74026.034     3740.482    15488.560        4.763        4.663       44.781      164.001       13.413      333.748        3.268      852.588
01/22/2021  19:36:00      -36.820        7.408      -16.190      204.636       81.814      100.488    41876.080     6693.512    10097.748        3.016        2.933       37.558      107.448        8.185      333.697        3.183      852.576
01/22/2021  19:37:00       18.388      -26.723       -6.436      208.337       79.696      105.406    43404.358     6351.498    11110.375        3.097        3.043       32.438      134.466       17.184      333.751        3.274      852.578
01/22/2021  19:38:00      -31.896       73.208      -17.010      236.377       74.918      109.788    55874.178     5612.699    12053.304        4.009        3.677       79.855      127.703        2.557      333.685        3.164      852.583
01/22/2021  19:39:00       -6.433      -16.958      -10.088      146.241       61.508       43.244    21386.457     3783.242     1870.064        1.373        1.352       18.137       54.297        8.962      333.719        3.218      852.579
01/22/2021  19:40:00     -135.055       18.388      -15.047      203.852       72.461       94.667    41555.486     5250.655     8961.747        3.727        2.788      136.301       99.937        0.538      333.677        3.148      852.584
01/22/2021  19:41:00      -29.243       23.026       -2.968      178.071       76.703       89.132    31709.404     5883.347     7944.425        2.346        2.277       37.220      102.416        7.572      333.670        3.137      852.596
01/22/2021  19:42:00     -262.560       23.848      -11.220      122.601       79.689       50.262    15031.023     6350.358     2526.244        4.676        1.195      263.641       39.027        0.022      333.630        3.068      852.608
01/22/2021  19:43:00       16.196        1.915        3.655      169.600       71.132       84.390    28764.168     5059.715     7121.722        2.060        2.047       16.309      103.016       39.898      333.696        3.182      852.615
01/22/2021  19:44:00     -130.122      -18.721       -0.594      110.883       73.962       49.175    12295.067     5470.431     2418.168        1.873        1.009      131.462       38.349        0.085      333.633        3.074      852.630
01/22/2021  19:45:00     -118.243       25.371      -14.370      128.238       96.834       49.591    16444.938     9376.810     2459.229        2.155        1.414      120.934       45.064        0.139      333.637        3.081      852.630
01/22/2021  19:46:00      -98.714       15.349        6.432      114.035       90.873       45.592    13003.921     8257.936     2078.660        1.668        1.167       99.900       39.756        0.158      333.592        3.007      852.650
01/22/2021  19:47:00     -187.646       35.535      -10.956      283.736       87.076      136.150    80506.382     7582.293    18536.797        7.159        5.331      190.981      169.733        0.790      333.669        3.135      852.644
01/22/2021  19:48:00     -216.273       57.436       -9.591      118.789      128.085       49.377    14110.742    16405.844     2438.123        4.155        1.648      223.770       46.264        0.043      333.602        3.022      852.653
01/22/2021  19:49:00     -160.406       40.884        0.723      158.007       82.117       63.472    24966.205     6743.214     4028.724        3.156        1.787      165.534       71.744        0.188      333.601        3.019      852.660
01/22/2021  19:50:00      -91.968       59.422        2.063      156.440       67.229       52.205    24473.384     4519.734     2725.384        2.185        1.586      109.495       30.671        0.078      333.634        3.076      852.661
01/22/2021  19:51:00      -79.785       20.446        0.426      210.142       82.886      101.585    44159.788     6870.138    10319.600        3.405        3.067       82.363      118.853        2.082      333.663        3.127      852.672
01/22/2021  19:52:00     -221.900       62.833       -7.283      220.112       83.054       91.871    48449.117     6897.895     8440.205        5.850        3.189      230.624      101.946        0.195      333.629        3.068      852.677
01/22/2021  19:53:00     -176.326       43.180      -29.731      408.462       78.655      197.056   166841.477     6186.532    38830.942       12.280       10.593      181.536      269.698        2.207      333.776        3.313      852.677
01/22/2021  19:54:00     -142.604        5.956       -0.475      250.348       94.254      109.664    62674.019     8883.797    12026.165        5.196        4.179      142.728      128.238        0.807      333.632        3.073      852.677
01/22/2021  19:55:00     -218.583       -1.552        3.098      219.523       84.762       99.864    48190.252     7184.672     9972.896        5.655        3.267      218.589       71.355        0.107      333.601        3.022      852.685
01/22/2021  19:56:00     -145.609       21.149      -13.696      358.439      105.927      162.443   128478.427    11220.521    26387.815        9.393        8.304      147.136      217.389        2.183      333.709        3.204      852.698
01/22/2021  19:57:00     -195.907       -4.254        3.743      129.274      107.080       69.778    16711.812    11466.217     4869.022        3.572        1.652      195.953       71.583        0.133      333.568        2.966      852.705
01/22/2021  19:58:00     -206.336       24.895       -7.866      129.964       88.976       56.207    16890.529     7916.748     3159.174        3.561        1.398      207.832       58.697        0.080      333.582        2.989      852.718
01/22/2021  19:59:00     -203.202       38.528       -0.833      282.015       96.909      123.644    79532.415     9391.275    15287.778        7.347        5.211      206.822      146.268        0.500      333.646        3.097      852.730
01/22/2021  20:00:00     -127.232       42.970        9.769      182.246       98.095       91.567    33213.706     9622.694     8384.604        3.466        2.561      134.292       92.128        0.471      333.607        3.032      852.740
01/22/2021  20:01:00     -260.512       61.920        1.539      235.262      114.633       93.816    55347.985    13140.772     8801.427        7.448        3.865      267.770       91.935        0.118      333.613        3.041      852.740
01/22/2021  20:02:00     -181.226       47.292      -10.873      233.175       79.233      111.538    54370.671     6277.908    12440.721        5.413        3.654      187.295      137.781        0.541      333.646        3.096      852.767
01/22/2021  20:03:00     -242.249       59.026       -8.166      243.038       91.537      122.349    59067.277     8378.968    14969.224        7.231        4.121      249.336      150.884        0.366      333.668        3.132      852.772
01/22/2021  20:04:00     -167.761        8.087        1.428      232.420       97.430      112.831    54018.999     9492.596    12730.874        5.221        3.812      167.956      136.064        0.656      333.636        3.079      852.781
01/22/2021  20:05:00     -209.020       61.575       -1.988      120.993      106.894       66.536    14639.413    11426.239     4426.984        3.898        1.525      217.901       64.730        0.088      333.581        2.987      852.787
01/22/2021  20:06:00     -244.047       50.152      -17.297      200.727       90.052       95.123    40291.459     8109.350     9048.378        5.990        2.872      249.147      112.307        0.203      333.597        3.014      852.805
01/22/2021  20:07:00     -249.453       32.629       -3.542      261.027       85.434      126.586    68135.331     7298.892    16023.983        7.736        4.573      251.578      142.586        0.321      333.639        3.084      852.805
01/22/2021  20:08:00     -214.148       79.382        0.819      199.466      111.729       91.088    39786.836    12483.337     8296.951        5.635        3.028      228.387       88.595        0.150      333.591        3.004      852.816
01/22/2021  20:09:00     -189.673       13.124       -4.987      190.126       95.827       98.662    36147.850     9182.843     9734.103        4.561        2.753      190.126       81.496        0.184      333.597        3.014      852.820
01/22/2021  20:10:00     -129.097       43.675       -8.356      249.943      110.601      119.558    62471.668    12232.540    14294.094        5.380        4.450      136.285      139.666        1.050      333.669        3.135      852.824
01/22/2021  20:11:00     -191.611       12.151      -16.047      265.287      107.180      126.003    70377.102    11487.452    15876.855        6.741        4.887      191.996      135.290        0.497      333.655        3.113      852.819
01/22/2021  20:12:00     -166.457       -2.655        5.818      191.540       96.057       83.788    36687.426     9226.857     7020.409        4.033        2.647      166.478       77.222        0.215      333.569        2.968      852.829
01/22/2021  20:13:00     -188.188       32.463       -5.803      263.897       93.358       99.589    69641.816     8715.678     9917.888        6.237        4.414      190.967      103.106        0.292      333.653        3.107      852.819
01/22/2021  20:14:00     -234.011       61.152      -12.713      304.629      120.681      147.300    92798.662    14563.907    21697.199        9.383        6.453      241.869      170.672        0.498      333.665        3.127      852.814
01/22/2021  20:15:00     -322.311       68.986      -14.305      271.437       92.511      109.680    73677.866     8558.201    12029.694       10.154        4.713      329.611      123.059        0.139      333.623        3.056      852.818
01/22/2021  20:16:00     -278.131      133.764       -5.368      195.563       88.660      102.338    38245.002     7860.523    10473.048        7.592        2.829      308.625      114.591        0.138      333.593        3.007      852.820
01/22/2021  20:17:00     -308.877       67.348      -15.441      138.209      114.071       57.012    19101.597    13012.154     3250.364        6.776        1.768      316.134       45.301        0.021      333.558        2.949      852.824
01/22/2021  20:18:00     -282.517       92.946      -26.698      311.559      115.042      145.396    97069.205    13234.658    21139.895       11.028        6.572      297.413      184.903        0.387      333.658        3.117      852.821
01/22/2021  20:19:00     -294.971       43.442       -1.592      104.878       97.607       50.663    10999.440     9527.142     2566.737        5.599        1.155      298.153       43.768        0.022      333.562        2.953      852.822
01/22/2021  20:20:00     -272.152       53.469      -26.868      374.281      110.304      195.883   140086.274    12166.870    38370.250       13.409        9.531      277.354      243.953        0.774      333.689        3.168      852.833
01/22/2021  20:21:00     -248.968       26.281        3.766      152.325      107.149       60.992    23202.805    11480.881     3720.049        5.054        1.920      250.351       67.916        0.074      333.525        2.895      852.835
01/22/2021  20:22:00     -246.437       94.222       -7.041      224.779      103.950      112.699    50525.562    10805.603    12701.138        7.183        3.702      263.835      129.036        0.239      333.603        3.024      852.830
01/22/2021  20:23:00     -265.750       50.899        2.024      120.650      109.145       61.200    14556.490    11912.594     3745.415        5.171        1.511      270.581       56.946        0.044      333.529        2.901      852.825
01/22/2021  20:24:00     -292.759       93.973      -33.596      243.891       80.588      119.130    59482.772     6494.369    14191.866        8.790        4.008      307.472      140.405        0.209      333.627        3.064      852.814
01/22/2021  20:25:00     -217.477       55.626        7.508      207.611       87.597       93.331    43102.178     7673.257     8710.752        5.495        2.974      224.478      101.594        0.205      333.568        2.965      852.802
01/22/2021  20:26:00     -186.285       22.733       -2.439      200.147       94.155       96.012    40058.898     8865.224     9218.348        4.667        2.907      187.667      100.391        0.286      333.585        2.994      852.797
01/22/2021  20:27:00     -138.175       43.305       -3.386      284.890       90.044      131.568    81162.456     8107.852    17310.133        6.376        5.329      144.802      165.754        1.310      333.594        3.011      852.786
01/22/2021  20:28:00     -166.867       48.125       -4.882      196.749       90.186      102.507    38710.329     8133.534    10507.591        4.376        2.868      173.668      114.156        0.432      333.528        2.899      852.777
01/22/2021  20:29:00     -220.448       34.379        3.205      295.051      102.218      112.322    87055.292    10448.564    12616.265        7.993        5.506      223.113      135.717        0.370      333.576        2.980      852.776
01/22/2021  20:30:00     -313.164      106.939       20.175      140.789      107.325       69.532    19821.654    11518.582     4834.650        7.304        1.809      330.919       67.854        0.042      333.484        2.826      852.765
01/22/2021  20:31:00     -197.577       72.915       -7.431      301.612      110.727      139.879    90969.654    12260.447    19566.114        8.358        6.140      210.602      172.913        0.674      333.631        3.072      852.765
01/22/2021  20:32:00     -289.362       83.252      -19.967      310.012      114.402      141.881    96107.365    13087.737    20130.181       11.016        6.466      301.100      175.949        0.341      333.635        3.079      852.772
01/22/2021  20:33:00     -274.417       47.189       -6.953      248.319       86.600      124.722    61662.566     7499.530    15555.672        8.113        4.236      278.445      149.314        0.288      333.613        3.041      852.764
01/22/2021  20:34:00     -191.571       62.031      -16.447      284.170      107.274      139.254    80752.465    11507.620    19391.632        7.621        5.583      201.364      157.872        0.615      333.628        3.067      852.768
01/22/2021  20:35:00     -129.462       70.709       -2.829      252.342       88.982      127.813    63676.436     7917.742    16336.042        5.483        4.397      147.513      152.459        1.068      333.578        2.984      852.767
01/22/2021  20:36:00     -196.904       76.485       -3.012      289.686       95.724      131.092    83918.120     9163.167    17185.115        7.742        5.513      211.237      162.930        0.595      333.594        3.011      852.760
01/22/2021  20:37:00     -311.491      101.888       -1.777      217.636       86.517      105.501    47365.449     7485.207    11130.375        8.668        3.299      327.731      100.725        0.094      333.558        2.948      852.756
01/22/2021  20:38:00     -200.832       23.701       -4.716      217.702      110.262       96.569    47394.177    12157.618     9325.477        5.488        3.444      202.225       78.485        0.151      333.563        2.957      852.754
01/22/2021  20:39:00     -190.409       74.323       -9.490      342.419       94.341      149.170   117250.990     8900.318    22251.599        9.510        7.420      204.400      194.336        0.904      333.645        3.097      852.747
01/22/2021  20:40:00     -237.818       21.105       11.546      161.588      109.539       67.623    26110.604    11998.791     4572.900        4.990        2.134      238.753       71.289        0.089      333.490        2.836      852.739
01/22/2021  20:41:00     -295.837       49.833       -0.006      166.750      119.715       57.141    27805.531    14331.574     3265.096        6.769        2.270      300.004       52.801        0.031      333.526        2.895      852.741
01/22/2021  20:42:00     -295.613       97.222       12.360      128.975      102.723       63.672    16634.572    10551.952     4054.089        6.411        1.562      311.190       57.950        0.035      333.521        2.887      852.754
01/22/2021  20:43:00     -189.284      -31.645      -22.108      236.220       80.702      118.306    55799.749     6512.786    13996.320        5.680        3.815      191.911      137.406        0.513      333.575        2.977      852.761
01/22/2021  20:44:00     -141.447        5.607       -7.579      197.711       78.386       98.800    39089.630     6144.381     9761.357        3.753        2.750      141.559      111.637        0.622      333.560        2.954      852.783
01/22/2021  20:45:00     -162.592       -9.513        7.060      181.472       67.905       83.991    32932.009     4611.073     7054.439        3.558        2.230      162.870       81.980        0.253      333.574        2.976      852.788
01/22/2021  20:46:00      -93.346       11.911      -10.389      361.127       90.021      177.727   130412.640     8103.757    31586.940        8.950        8.505       94.103      231.217        6.037      333.680        3.154      852.798
01/22/2021  20:47:00     -117.065      -21.204      -25.375      315.617       79.092      146.824    99614.375     6255.526    21557.381        7.109        6.371      118.970      197.081        2.744      333.620        3.055      852.800
01/22/2021  20:48:00     -123.690       11.938        0.985      274.292       90.998      131.305    75235.986     8280.622    17241.120        5.808        5.038      124.265      159.074        1.639      333.523        2.892      852.810
01/22/2021  20:49:00     -177.884        3.351      -22.152      449.146       95.061      204.608   201732.554     9036.660    41864.344       14.233       12.632      177.915      275.633        2.400      333.672        3.142      852.817
01/22/2021  20:50:00     -262.811      -13.186      -11.300      113.197      101.888       59.710    12813.604    10381.265     3565.321        4.806        1.338      263.141       61.347        0.054      333.513        2.873      852.815
01/22/2021  20:51:00      -73.009       10.107       -8.423      193.672       76.011       96.019    37508.833     5777.667     9219.627        2.899        2.625       73.705       97.235        1.740      333.559        2.952      852.831
01/22/2021  20:52:00     -118.631        0.305        5.624      159.192       92.451       55.545    25342.248     8547.228     3085.277        2.553        1.849      118.631       42.902        0.131      333.518        2.884      852.847
01/22/2021  20:53:00     -263.229      -49.831      -14.829      202.475       96.814      102.300    40995.954     9372.960    10465.286        6.640        3.042      267.904       80.272        0.090      333.530        2.903      852.854
01/22/2021  20:54:00     -149.381      -17.954      -28.534      353.201       96.020      169.025   124750.926     9219.794    28569.349        9.296        8.127      150.457      210.556        1.958      333.602        3.027      852.872
01/22/2021  20:55:00     -118.695        4.608      -23.432      436.046       72.385      196.492   190135.731     5239.622    38609.085       12.427       11.699      118.784      279.607        5.541      333.701        3.191      852.879
01/22/2021  20:56:00     -185.325       -9.641      -23.373      292.229       87.742      142.532    85398.070     7698.731    20315.487        7.417        5.671      185.576      159.225        0.736      333.521        2.891      852.892
01/22/2021  20:57:00     -284.931      -13.784        4.861      179.910       77.107       55.902    32367.537     5945.550     3125.033        6.141        2.072      285.264       74.491        0.068      333.397        2.683      852.898
01/22/2021  20:58:00     -131.083      -20.797      -13.787      310.145       91.277      148.753    96190.161     8331.543    22127.524        7.220        6.332      132.722      184.206        1.926      333.499        2.855      852.899
01/22/2021  20:59:00     -306.055       12.975      -16.842      291.779       97.190      141.213    85135.235     9445.923    19941.007       10.430        5.726      306.330      171.449        0.313      333.476        2.816      852.896
01/22/2021  21:00:00     -184.651      -36.374      -10.140      249.581       97.248      114.707    62290.850     9457.091    13157.674        6.020        4.245      188.200      141.224        0.563      333.430        2.739      852.878
01/22/2021  21:01:00       -2.011        8.913      -15.763      311.541       91.842      146.401    97058.035     8435.009    21433.256        6.360        6.346        9.137      190.536      434.887      333.517        2.887      852.868
01/22/2021  21:02:00       -8.731        4.433       -0.448      244.086       88.589      121.246    59577.864     7847.973    14700.582        4.109        4.106        9.791      148.240      229.215      333.442        2.762      852.860
01/22/2021  21:03:00     -155.157       15.490       -7.640      124.005       91.921       57.261    15377.285     8449.384     3278.857        2.573        1.355      155.929       62.520        0.161      333.392        2.675      852.869
01/22/2021  21:04:00     -205.694       -9.621       -0.924      312.845      104.409      153.711    97872.199    10901.242    23627.005        8.737        6.620      205.919      182.250        0.783      333.429        2.738      852.858
01/22/2021  21:05:00     -130.977      -45.634       -5.387      205.795       99.962      106.561    42351.483     9992.481    11355.292        4.147        3.185      138.699      108.691        0.614      333.358        2.620      852.857
01/22/2021  21:06:00     -220.864      -26.588      -20.561      266.915       83.292      118.109    71243.405     6937.482    13949.829        7.100        4.607      222.459      133.607        0.361      333.390        2.673      852.868
01/22/2021  21:07:00     -216.278       29.569        3.601      263.186      111.765      129.820    69266.642    12491.431    16853.174        7.312        4.931      218.290      152.542        0.488      333.370        2.639      852.877
01/22/2021  21:08:00     -263.568      -58.142      -33.077      325.142       88.725      144.111   105717.319     7872.061    20767.842       10.412        6.718      269.905      188.265        0.487      333.411        2.708      852.868
01/22/2021  21:09:00     -103.848        7.336      -25.408      263.096       79.196      131.633    69219.379     6272.026    17327.233        5.213        4.641      104.106      168.290        2.613      333.422        2.727      852.859
01/22/2021  21:10:00     -235.340      -17.731       -0.724      125.940       69.491       60.481    15860.864     4828.986     3657.892        4.002        1.217      236.007       58.787        0.062      333.293        2.510      852.869
01/22/2021  21:11:00     -127.467       -6.808        2.849      173.159       88.820       82.803    29983.929     7888.977     6856.310        3.051        2.236      127.649       66.674        0.273      333.290        2.508      852.874
01/22/2021  21:12:00       23.054        5.669      -14.859      383.661       77.539      180.950   147196.025     6012.323    32743.070        9.333        9.298       23.741      249.187      110.168      333.436        2.753      852.871
01/22/2021  21:13:00     -114.802        8.517      -16.367      304.527       72.466      146.887    92736.704     5251.346    21575.784        6.652        5.978      115.117      200.751        3.041      333.387        2.669      852.891
01/22/2021  21:14:00     -135.295       90.387        4.608      164.608       80.944       83.922    27095.706     6551.978     7042.845        3.358        2.035      162.710       97.254        0.357      333.262        2.459      852.903
01/22/2021  21:15:00     -124.496       43.801        8.702       63.735       75.966       32.624     4062.192     5770.761     1064.305        1.419        0.545      131.976       28.222        0.046      333.151        2.277      852.911
01/22/2021  21:16:00      -69.054       68.787       -0.271      311.523       71.061      145.421    97046.653     5049.648    21147.244        6.635        6.162       97.468      201.952        4.293      333.308        2.541      852.907
01/22/2021  21:17:00      -28.966       73.667        8.951      223.409       56.624      113.177    49911.695     3206.230    12809.110        3.612        3.296       79.157      152.197        3.697      333.280        2.492      852.897
01/22/2021  21:18:00       -4.195      112.295      -11.318      356.729       63.067      164.695   127255.510     3977.486    27124.458        8.552        7.918      112.373      237.250        4.457      333.465        2.800      852.885
01/22/2021  21:19:00      -38.035      119.537      -11.765      311.968       55.692      151.342    97324.133     3101.623    22904.520        6.958        6.167      125.442      210.657        2.820      333.348        2.605      852.892
01/22/2021  21:20:00      -14.134       93.618       -9.019      214.113       68.149      102.129    45844.238     4644.227    10430.305        3.497        3.046       94.679      141.950        2.248      333.332        2.579      852.909
01/22/2021  21:21:00      -14.088       48.589        3.234      187.312       57.265       78.839    35085.868     3279.315     6215.631        2.357        2.229       50.590      110.019        4.729      333.262        2.462      852.934
01/22/2021  21:22:00      -58.785       36.109       -0.511      155.537       59.963       79.287    24191.665     3595.532     6286.418        1.941        1.704       68.989       97.675        2.004      333.185        2.335      852.961
01/22/2021  21:23:00       27.551       31.401        5.883      142.413       53.401       74.769    20281.517     2851.621     5590.341        1.525        1.436       41.774       92.694        4.924      333.160        2.294      852.977
01/22/2021  21:24:00       -0.839       81.284       14.050       97.640       49.364       50.873     9533.591     2436.794     2588.053        1.068        0.728       81.288       58.386        0.516      333.121        2.229      852.978
01/22/2021  21:25:00        9.496       71.964      -14.116      285.260       49.762      144.674    81373.353     2476.304    20930.584        5.510        5.239       72.588      197.971        7.438      333.333        2.584      852.985
01/22/2021  21:26:00       54.469      121.549      -27.751      353.819       52.990      169.542   125187.698     2807.934    28744.443        8.759        7.837      133.195      242.524        3.315      333.335        2.587      852.993
01/22/2021  21:27:00       27.767      100.480        7.329      144.467       46.924       72.931    20870.619     2201.900     5318.990        1.965        1.420      104.246       95.315        0.836      333.157        2.288      852.990
01/22/2021  21:28:00       21.942      150.128      -14.461      291.762       43.809      137.301    85125.212     1919.205    18851.504        6.454        5.295      151.723      196.000        1.669      333.100        2.198      852.992
01/22/2021  21:29:00      -14.258      197.153      -13.522      225.708       56.107      108.088    50944.175     3148.030    11682.988        5.250        3.289      197.668      151.346        0.586      332.981        1.998      852.992
01/22/2021  21:30:00       57.206      124.258      -11.129      362.829       48.279      172.063   131645.176     2330.848    29605.646        9.117        8.179      136.794      246.270        3.241      333.145        2.273      852.990
01/22/2021  21:31:00       40.222      158.225       -0.367       57.494       54.313       39.005     3305.572     2949.949     1521.399        1.721        0.389      163.257       21.048        0.017      332.952        1.949      852.987
01/22/2021  21:32:00       51.442      110.396      -14.036      350.276       53.267      167.231   122693.269     2837.412    27966.212        8.423        7.675      121.793      237.393        3.799      333.066        2.142      853.000
01/22/2021  21:33:00       73.635       96.408       -2.792      242.595       56.987      113.718    58852.095     3247.536    12931.856        4.486        3.752      121.312      160.290        1.746      333.012        2.050      853.006
01/22/2021  21:34:00       66.881      151.896      -14.599      207.328       63.403      101.826    42984.849     4019.970    10368.447        4.255        2.869      165.968      139.360        0.705      332.907        1.876      853.021
01/22/2021  21:35:00      143.172      169.019      -31.515      425.347       62.396      205.716   180920.445     3893.272    42319.129       13.855       11.357      221.508      292.396        1.742      333.054        2.123      853.029
01/22/2021  21:36:00       62.473      167.988      -14.109      212.428       49.255      103.916    45125.710     2426.015    10798.478        4.532        2.918      179.228      144.343        0.649      332.816        1.726      853.034
01/22/2021  21:37:00       59.443      141.263      -22.514      388.200       51.474      186.376   150699.519     2649.571    34736.023       10.600        9.404      153.260      264.980        2.989      332.961        1.968      853.051
01/22/2021  21:38:00       95.543      133.381      -35.314      463.298       61.629      222.565   214645.244     3798.161    49535.310       14.802       13.399      164.069      318.048        3.758      332.964        1.976      853.053
01/22/2021  21:39:00       33.300      128.900       -1.739      230.277       58.954      115.654    53027.438     3475.517    13375.951        4.379        3.494      133.132      158.067        1.410      332.731        1.586      853.063
01/22/2021  21:40:00      -36.658      118.872       -3.130       50.810       54.190       34.681     2581.632     2936.549     1202.785        1.110        0.336      124.396       32.666        0.069      332.717        1.560      853.070
01/22/2021  21:41:00      -22.632      138.372        9.051       57.454       47.329       32.976     3300.943     2240.019     1087.436        1.318        0.331      140.211       33.928        0.059      332.735        1.592      853.027
01/22/2021  21:42:00       -5.636      178.535       -7.168       41.018       53.739       30.573     1682.506     2887.903      934.699        1.873        0.275      178.624       22.994        0.017      332.635        1.424      852.985
01/22/2021  21:43:00       26.621      178.215      -24.960      279.039       48.064      131.328    77862.843     2310.182    17246.957        6.524        4.871      180.192      186.471        1.071      332.736        1.594      852.984
01/22/2021  21:44:00      -17.748      143.836       -1.678      229.325       64.127      113.980    52589.728     4112.323    12991.410        4.534        3.485      144.927      154.528        1.137      332.710        1.551      852.995
01/22/2021  21:45:00       82.281      212.026      -25.247      321.125       66.258      153.971   103121.037     4390.144    23707.038        9.176        6.561      227.432      218.800        0.926      332.680        1.502      852.997
01/22/2021  21:46:00       95.595      130.508      -31.574      485.366       54.516      230.524   235580.415     2971.942    53141.504       15.937       14.585      161.773      331.355        4.195      332.934        1.927      852.999
01/22/2021  21:47:00       76.906      211.259      -25.569      253.541       68.939      123.048    64283.239     4752.545    15140.710        6.767        4.209      224.822      167.233        0.553      332.644        1.441      853.005
01/22/2021  21:48:00       30.607      252.492      -21.491      183.878       72.150       85.383    33811.053     5205.673     7290.299        5.572        2.315      254.340      109.061        0.184      332.568        1.311      853.006
01/22/2021  21:49:00        2.024      225.501      -10.035      161.691       70.366       75.998    26143.914     4951.333     5775.706        4.391        1.844      225.510       97.591        0.187      332.559        1.298      853.036
01/22/2021  21:50:00       10.557      233.390      -23.590      279.507       64.954      137.551    78124.044     4218.960    18920.237        7.818        5.063      233.628      188.964        0.654      332.644        1.438      853.059
01/22/2021  21:51:00       -5.619      190.936      -30.116      312.025       73.370      147.648    97359.808     5383.158    21800.049        8.094        6.227      191.019      205.195        1.154      332.699        1.533      853.066
01/22/2021  21:52:00       19.177      149.169      -17.074      374.311       94.515      177.432   140109.038     8933.081    31482.273       10.168        9.026      150.397      249.697        2.756      332.763        1.642      853.074
01/22/2021  21:53:00       32.937      264.240      -40.619      399.551       73.120      190.446   159641.345     5346.596    36269.721       13.686       10.063      266.285      268.390        1.016      332.789        1.682      853.078
01/22/2021  21:54:00       97.431      213.474      -55.720      518.682       81.259      249.619   269030.732     6602.950    62309.815       19.798       16.897      234.657      356.627        2.310      332.865        1.813      853.071
01/22/2021  21:55:00      -30.676      141.539       -6.373      183.336       55.356       86.372    33612.176     3064.245     7460.111        3.257        2.207      144.825      113.244        0.611      332.622        1.404      853.069
01/22/2021  21:56:00        5.823      220.088      -32.059      373.590       68.589      176.147   139569.417     4704.470    31027.683       11.236        8.765      220.165      251.770        1.308      332.709        1.549      853.058
01/22/2021  21:57:00       32.209      164.450      -22.064      359.731       61.464      171.848   129406.193     3777.868    29531.584        9.561        8.136      167.574      243.661        2.114      332.718        1.566      853.054
01/22/2021  21:58:00      -28.687      140.229      -28.158      369.574       71.844      184.508   136584.929     5161.550    34043.053        9.850        8.789      143.133      256.055        3.200      332.742        1.607      853.053
01/22/2021  21:59:00       27.058      209.762      -37.738      419.116       69.667      197.228   175657.803     4853.505    38899.042       13.274       10.971      211.500      282.859        1.789      332.750        1.620      853.051
01/22/2021  22:00:00      -15.998      154.741      -20.104      376.623       98.947      179.455   141844.971     9790.561    32204.079       10.418        9.192      155.566      253.315        2.652      332.677        1.500      853.052
01/22/2021  22:01:00       14.847      145.610      -21.528      403.399       70.159      190.913   162730.630     4922.266    36447.658       11.295       10.205      146.365      272.186        3.458      332.784        1.675      853.063
01/22/2021  22:02:00        1.167      134.408      -24.185      349.115       66.488      168.130   121881.331     4420.641    28267.559        8.658        7.728      134.413      236.575        3.098      332.745        1.609      853.061
01/22/2021  22:03:00       80.594      133.556      -33.583      441.466       47.706      213.652   194892.497     2275.888    45647.272       13.409       12.141      155.989      303.845        3.794      332.868        1.816      853.055
01/22/2021  22:04:00       48.727      174.104      -32.509      419.595       49.595      203.427   176059.988     2459.647    41382.468       12.678       10.995      180.794      288.566        2.548      332.766        1.647      853.045
01/22/2021  22:05:00       19.990      140.995      -32.173      480.269       64.027      234.161   230658.011     4099.461    54831.425       15.539       14.479      142.405      331.222        5.410      332.833        1.759      853.058
01/22/2021  22:06:00      -24.686      129.107       -5.111      316.448       72.530      150.551   100139.488     5260.538    22665.559        7.266        6.403      131.446      212.319        2.609      332.661        1.471      853.060
01/22/2021  22:07:00       47.012      109.644      -31.266      490.676       64.053      239.440   240762.540     4102.801    57331.616       15.864       15.110      119.298      338.882        8.069      332.908        1.884      853.059
01/22/2021  22:08:00       -7.825       68.997      -11.550      254.900       64.456      113.391    64973.923     4154.578    12857.417        4.345        4.099       69.440      160.594        5.349      332.682        1.505      853.039
01/22/2021  22:09:00       15.691      135.596      -18.005      315.282       67.257      154.282    99402.712     4523.506    23802.921        7.332        6.386      136.501      215.703        2.497      332.682        1.507      853.039
01/22/2021  22:10:00      -17.087       55.923      -24.735      393.848       61.274      182.575   155115.894     3754.546    33333.476        9.808        9.610       58.475      259.756       19.733      332.729        1.585      853.054
01/22/2021  22:11:00        3.189      141.118       -9.933      227.748       60.649      113.708    51869.341     3678.294    12929.501        4.424        3.424      141.154      155.002        1.206      332.576        1.330      853.045
01/22/2021  22:12:00       22.579      149.574      -31.279      432.882       60.123      206.793   187386.902     3614.749    42763.370       12.876       11.688      151.269      295.157        3.807      332.919        1.900      853.041
01/22/2021  22:13:00        8.826      153.369       -8.422      187.530       69.412       88.901    35167.552     4818.020     7903.383        3.577        2.394      153.622      120.430        0.615      332.700        1.534      853.043
01/22/2021  22:14:00      -30.853       92.416        3.588      163.381       74.573       85.111    26693.226     5561.179     7243.929        2.449        1.975       97.430      103.453        1.127      332.680        1.501      853.050
01/22/2021  22:15:00      -31.025      132.696      -18.701      280.769       67.520      134.481    78831.444     4558.940    18085.173        6.018        5.074      136.274      188.487        1.913      332.699        1.533      853.061
01/22/2021  22:16:00      -19.044      145.700      -10.110      284.949       56.725      137.822    81195.846     3217.774    18994.960        6.253        5.170      146.939      194.347        1.749      332.671        1.487      853.075
01/22/2021  22:17:00        8.730      109.225       -9.895      385.579       66.848      190.176   148671.534     4468.678    36166.922       10.067        9.465      109.573      265.929        5.890      332.809        1.717      853.088
01/22/2021  22:18:00       -7.766       99.791      -23.781      370.328       65.698      171.489   137142.530     4316.291    29408.423        9.069        8.543      100.093      245.144        5.998      332.682        1.509      853.095
01/22/2021  22:19:00       14.992      180.142      -26.169      396.416       49.779      190.683   157145.865     2477.970    36360.091       11.463        9.799      180.765      271.349        2.253      332.877        1.829      853.083
01/22/2021  22:20:00       40.499      237.950      -61.077      542.267       55.172      254.526   294053.274     3043.949    64783.621       21.186       18.094      241.372      368.666        2.333      333.020        2.068      853.102
01/22/2021  22:21:00       15.987      275.343      -59.441      480.266       44.755      225.066   230655.195     2002.999    50654.785       18.140       14.166      275.807      326.608        1.402      332.921        1.901      853.104
01/22/2021  22:22:00       87.969      232.710      -36.750      376.631       55.518      178.583   141851.137     3082.204    31891.864       12.000        8.841      248.782      255.416        1.054      332.907        1.878      853.085
01/22/2021  22:23:00       -7.057      208.594       -7.782      190.730       51.277       91.944    36377.747     2629.364     8453.615        4.553        2.373      208.713      122.516        0.345      332.707        1.544      853.076
01/22/2021  22:24:00      -12.777      186.013      -20.682      354.017       75.940      172.075   125327.937     5766.945    29609.973        9.791        8.035      186.451      238.599        1.638      332.832        1.753      853.092
01/22/2021  22:25:00       17.363      158.389      -39.700      400.473       62.545      191.841   160378.376     3911.835    36802.993       11.399       10.055      159.338      273.533        2.947      332.809        1.716      853.098
01/22/2021  22:26:00       -3.881      124.178       -4.998      280.148       65.107      130.731    78482.750     4238.907    17090.469        5.762        4.991      124.239      186.180        2.246      332.664        1.476      853.108
01/22/2021  22:27:00      -42.434      175.139      -12.310      335.691       56.487      161.795   112688.544     3190.727    26177.695        8.731        7.103      180.206      227.787        1.598      332.823        1.738      853.111
01/22/2021  22:28:00       25.334      156.059      -31.556      391.056       53.918      185.372   152924.751     2907.175    34362.723       10.805        9.510      158.102      266.317        2.837      332.815        1.727      853.101
01/22/2021  22:29:00      -13.096       59.073      -10.994      302.547       50.176      143.336    91534.697     2517.588    20545.131        5.917        5.730       60.507      201.865       11.130      332.756        1.629      853.093
01/22/2021  22:30:00       59.600       64.584      -24.242      471.242       65.511      225.057   222069.037     4291.740    50650.479       14.260       13.851       87.882      321.036       13.345      332.930        1.920      853.100
01/22/2021  22:31:00       -7.228       37.869      -24.851      363.076       46.802      169.986   131824.048     2190.448    28895.348        8.247        8.145       38.553      243.822       39.998      332.717        1.566      853.110
01/22/2021  22:32:00       45.767       39.904      -40.454      452.668       53.620      211.116   204908.628     2875.065    44570.101       12.879       12.618       60.720      300.794       24.540      332.852        1.789      853.113
01/22/2021  22:33:00       -4.420       41.269       -9.684      226.111       51.864      113.316    51126.287     2689.845    12840.626        3.422        3.333       41.505      150.672       13.179      332.623        1.407      853.116
01/22/2021  22:34:00       11.747       50.045       -4.045      316.917       57.456      154.876   100436.493     3301.151    23986.698        6.516        6.386       51.405      213.564       17.260      332.597        1.367      853.105
01/22/2021  22:35:00       52.006       99.568      -33.901      495.107       57.607      232.921   245131.314     3318.512    54252.170       15.817       15.135      112.332      336.551        8.976      332.854        1.794      853.105
01/22/2021  22:36:00       -4.071       44.712       -8.053      319.999       55.303      154.683   102399.586     3058.382    23926.876        6.571        6.469       44.897      217.833       23.540      332.589        1.354      853.095
01/22/2021  22:37:00       36.403      109.794      -16.886      350.708       52.027      169.645   122996.422     2706.793    28779.526        8.404        7.724      115.672      239.688        4.294      332.789        1.684      853.088
01/22/2021  22:38:00        9.160       67.780      -13.143      315.934       49.389      150.726    99814.418     2439.301    22718.440        6.489        6.249       68.396      214.286        9.816      332.710        1.553      853.087
01/22/2021  22:39:00       63.313       32.423      -57.054      559.569       50.073      260.742   313117.845     2507.295    67986.512       19.588       19.181       71.132      379.584       28.477      332.938        1.937      853.082
01/22/2021  22:40:00       -5.774       36.554       -7.556      265.416       54.375      130.460    70445.695     2956.633    17019.891        4.591        4.521       37.007      181.171       23.967      332.674        1.493      853.081
01/22/2021  22:41:00       46.966       33.983      -29.612      476.998       49.817      227.968   227527.241     2481.691    51969.572       14.305       14.099       57.971      326.568       31.734      332.723        1.579      853.092
01/22/2021  22:42:00        8.823       23.146      -17.572      376.531       51.113      182.849   141775.324     2612.518    33433.897        8.933        8.891       24.771      258.699      109.072      332.558        1.303      853.085
01/22/2021  22:43:00      -25.383       20.081      -23.103      298.123       45.587      142.928    88877.514     2078.215    20428.529        5.646        5.569       32.366      202.186       39.023      332.490        1.189      853.086
01/22/2021  22:44:00       70.524       15.457      -22.679      442.867       41.997      212.979   196130.875     1763.740    45359.953       12.444       12.163       72.198      304.794       17.822      332.681        1.505      853.090
01/22/2021  22:45:00       48.992       33.998      -32.002      465.877       50.434      226.337   217041.259     2543.593    51228.486       13.764       13.541       59.632      321.754       29.113      332.649        1.457      853.097
01/22/2021  22:46:00       65.464       34.525      -38.863      500.938       50.182      238.291   250938.562     2518.280    56782.581       15.855       15.512       74.010      343.037       21.483      332.709        1.556      853.106
01/22/2021  22:47:00        7.626       19.818      -22.368      344.679       40.295      166.911   118803.493     1623.657    27859.366        7.459        7.414       21.235      236.870      124.427      332.578        1.336      853.111
01/22/2021  22:48:00        0.696       23.348       17.552      137.378       47.192       69.129    18872.722     2227.116     4778.873        1.336        1.294       23.359       88.584       14.382      332.339        0.938      853.125
01/22/2021  22:49:00       88.899        0.705      -31.839      472.780       39.617      225.777   223521.123     1569.496    50975.292       14.243       13.803       88.902      324.839       13.351      332.511        1.229      853.130
01/22/2021  22:50:00       32.082       24.814       -6.402      241.319       44.197      120.898    58235.099     1953.393    14616.298        3.823        3.740       40.559      165.875       16.726      332.390        1.022      853.136
01/22/2021  22:51:00      111.566       42.586       -8.301      327.907       50.243      154.591   107523.025     2524.388    23898.466        7.411        6.697      119.417      220.951        3.423      332.523        1.243      853.145
01/22/2021  22:52:00      104.469        7.529       -6.067      313.066       54.548      148.710    98010.041     2975.453    22114.681        6.703        6.155      104.740      211.827        4.090      332.356        0.969      853.153
01/22/2021  22:53:00       97.195       23.646      -29.189      299.151       57.921      148.737    89491.550     3354.885    22122.637        6.289        5.748      100.030      206.301        4.253      332.514        1.229      853.173
01/22/2021  22:54:00       82.444       35.243      -26.905      328.008       68.640      162.344   107589.261     4711.444    26355.582        7.368        6.933       89.661      225.902        6.348      332.539        1.270      853.199
01/22/2021  22:55:00      163.270       49.454      -26.438      341.489       62.828      155.531   116614.426     3947.386    24189.841        8.725        7.238      170.596      226.091        1.756      332.383        1.014      853.229
01/22/2021  22:56:00      158.212       54.362      -15.432      324.980       56.488      158.585   105612.074     3190.880    25149.058        8.106        6.698      167.291      220.946        1.744      332.342        0.945      853.256
01/22/2021  22:57:00      126.581       36.142      -23.253      417.633       54.396      203.183   174416.976     2958.964    41283.304       11.822       10.933      131.640      287.475        4.769      332.345        0.953      853.278
01/22/2021  22:58:00      164.073       78.380       -0.523      253.918       64.657      121.355    64474.178     4180.519    14727.016        5.821        4.169      181.833      167.703        0.851      332.189        0.691      853.298
01/22/2021  22:59:00      135.308       34.628      -17.286      391.546       66.821      188.911   153308.484     4465.052    35687.488       10.659        9.673      139.668      267.696        3.674      332.276        0.838      853.304
01/22/2021  23:00:00      203.821       69.125      -28.740      396.570       81.265      185.098   157267.933     6603.957    34261.118       12.260        9.907      215.223      265.671        1.524      332.286        0.855      853.306
01/22/2021  23:01:00      194.366      106.980      -20.468      441.804       61.322      208.039   195190.418     3760.328    43280.131       14.589       12.112      221.862      297.114        1.793      332.313        0.900      853.323
01/22/2021  23:02:00      152.046      158.068      -26.609      406.060       90.373      199.194   164884.418     8167.196    39678.076       13.072       10.636      219.325      276.629        1.591      332.372        0.995      853.323
01/22/2021  23:03:00       65.814      130.365      -11.901      416.390       87.389      206.445   173380.326     7636.762    42619.378       12.250       11.182      146.036      287.985        3.889      332.501        1.210      853.328
01/22/2021  23:04:00      152.747      214.586      -46.392      445.871       79.838      221.964   198800.795     6374.138    49268.182       16.293       12.722      263.399      309.791        1.383      332.553        1.294      853.326
01/22/2021  23:05:00       86.662      220.865      -33.201      344.448       86.761      162.544   118644.305     7527.536    26420.708       10.496        7.630      237.258      229.536        0.936      332.295        0.866      853.340
01/22/2021  23:06:00       38.464      179.997      -41.086      439.767       93.080      200.484   193395.223     8663.845    40193.859       13.886       12.113      184.061      284.280        2.385      332.425        1.083      853.339
01/22/2021  23:07:00       19.542       78.585      -15.323      307.867       62.127      151.537    94781.800     3859.741    22963.387        6.417        6.080       80.978      208.300        6.617      332.373        0.998      853.343
01/22/2021  23:08:00      -16.464      110.987      -18.310      388.227       73.277      190.604   150719.830     5369.482    36330.034       10.263        9.621      112.201      264.528        5.558      332.383        1.015      853.342
01/22/2021  23:09:00       19.980      131.172      -29.771      375.586       57.712      183.132   141064.735     3330.696    33537.300        9.817        8.897      132.685      256.738        3.744      332.351        0.962      853.347
01/22/2021  23:10:00       -0.271       53.955      -15.070      282.172       62.893      139.196    79621.311     3955.497    19375.423        5.302        5.148       53.956      188.253       12.173      332.266        0.818      853.349
01/22/2021  23:11:00       -8.268      107.731      -19.362      312.651       67.737      151.436    97750.840     4588.309    22932.721        6.863        6.264      108.048      210.931        3.811      332.303        0.881      853.351
01/22/2021  23:12:00      -33.449       79.407      -12.202      276.512       54.860      133.083    76458.615     3009.634    17711.205        5.236        4.859       86.165      180.870        4.406      332.311        0.893      853.352
01/22/2021  23:13:00      -55.824       -2.525      -11.955      325.254       82.954      157.753   105790.035     6881.318    24885.860        7.038        6.878       55.881      214.517       14.736      332.415        1.067      853.361
01/22/2021  23:14:00       18.392       60.028      -30.751      399.896       70.963      191.555   159916.627     5035.759    36693.313       10.322       10.082       62.782      269.093       18.371      332.447        1.120      853.358
01/22/2021  23:15:00        3.943       79.878      -30.059      434.070       68.577      204.925   188416.892     4702.760    41994.352       12.116       11.756       79.975      294.182       13.531      332.523        1.247      853.373
01/22/2021  23:16:00      -75.289       58.875      -36.687      422.729       54.118      206.902   178699.944     2928.803    42808.609       11.741       11.222       95.576      290.858        9.261      332.506        1.219      853.375
01/22/2021  23:17:00       51.118        2.135      -32.747      446.513       67.195      209.029   199374.052     4515.224    43692.985       12.558       12.379       51.163      302.102       34.866      332.608        1.387      853.380
01/22/2021  23:18:00       99.996       37.940      -48.134      576.356       62.723      276.314   332185.999     3934.222    76349.633       21.302       20.623      106.951      396.041       13.712      332.766        1.653      853.393
01/22/2021  23:19:00      176.461       44.264      -49.627      554.126       61.643      263.713   307055.662     3799.826    69544.694       20.790       19.020      181.928      379.889        4.360      332.862        1.810      853.398
01/22/2021  23:20:00       44.710       34.757       -7.997      363.918       46.564      175.113   132436.221     2168.243    30664.564        8.424        8.263       56.631      249.514       19.413      332.503        1.213      853.401
01/22/2021  23:21:00       12.471      181.606      -29.098      305.708       76.741      150.425    93457.346     5889.141    22627.701        7.795        6.099      182.034      204.759        1.265      332.426        1.082      853.422
01/22/2021  23:22:00       63.088      116.551      -47.029      571.251       55.978      272.003   326327.192     3133.580    73985.836       21.153       20.172      132.530      392.102        8.753      332.739        1.608      853.439
01/22/2021  23:23:00       59.121      139.312       -8.013      290.288       62.266      139.477    84266.913     3876.995    19453.829        6.526        5.380      151.338      194.100        1.645      332.439        1.104      853.449
01/22/2021  23:24:00       76.234       77.240       -8.991      421.798       66.823      201.671   177913.608     4465.359    40671.363       11.741       11.153      108.525      288.288        7.057      332.563        1.313      853.465
01/22/2021  23:25:00      -55.659       22.791       -3.756      267.193       65.068      127.577    71391.862     4233.809    16275.871        4.775        4.595       60.144      175.207        8.486      332.378        1.004      853.491
01/22/2021  23:26:00       96.450      110.957      -24.264      462.910       63.613      224.411   214285.453     4046.600    50360.119       14.539       13.435      147.018      318.977        4.707      332.530        1.259      853.489
01/22/2021  23:27:00       10.836       11.372        3.708      186.406       57.756       94.878    34747.298     3335.804     9001.786        2.366        2.354       15.709      121.805       60.125      332.371        0.991      853.482
01/22/2021  23:28:00       78.485      -12.099       -9.974      434.672       58.790      207.330   188939.472     3456.209    42985.641       12.084       11.769       79.412      296.149       13.907      332.539        1.274      853.461
01/22/2021  23:29:00        5.681       32.035       -5.289      315.828       69.309      155.232    99747.326     4803.692    24096.878        6.484        6.432       32.535      212.333       42.594      332.402        1.044      853.464
01/22/2021  23:30:00      -71.985       81.468      -23.947      376.273       52.244      178.288   141581.215     2729.390    31786.573        9.421        8.805      108.714      251.662        5.359      332.362        0.978      853.501
01/22/2021  23:31:00      -42.377       15.556        3.079      300.599       59.431      137.997    90359.568     3532.086    19043.045        5.747        5.647       45.142      194.755       18.613      332.376        1.002      853.526
01/22/2021  23:32:00        4.657       23.772      -15.360      350.534       63.713      160.557   122873.799     4059.344    25778.512        7.673        7.636       24.224      226.887       87.725      332.494        1.196      853.538
01/22/2021  23:33:00       -9.377       50.351      -15.262      322.115       49.802      149.573   103758.159     2480.275    22372.033        6.571        6.431       51.217      212.441       17.205      332.419        1.072      853.530
01/22/2021  23:34:00      -41.499       74.784      -13.693      364.556       51.779      179.123   132901.300     2681.111    32085.195        8.755        8.383       85.527      251.651        8.658      332.379        1.007      853.520
01/22/2021  23:35:00       38.793       64.529      -37.480      512.752       61.088      244.318   262914.941     3731.690    59691.442       16.664       16.317       75.292      350.359       21.654      332.591        1.361      853.509
01/22/2021  23:36:00      -76.520       31.507        1.700      183.924       47.604       91.393    33827.868     2266.163     8352.630        2.564        2.222       82.753      121.993        2.173      332.295        0.867      853.503
01/22/2021  23:37:00       48.804       -3.401       -5.886      365.342       55.848      179.117   133474.977     3118.989    32082.851        8.552        8.434       48.922      251.328       26.392      332.538        1.271      853.498
01/22/2021  23:38:00      -18.160      -15.964      -10.251      175.774       61.287       82.799    30896.450     3756.144     6855.629        2.109        2.075       24.180      106.990       19.579      332.511        1.221      853.482
01/22/2021  23:39:00      -99.890      -17.819      -39.746      511.398       69.527      242.620   261527.464     4834.049    58864.411       16.848       16.261      101.466      345.965       11.626      332.715        1.563      853.461
01/22/2021  23:40:00      -73.010      -10.029      -25.042      473.131       72.051      223.772   223853.402     5191.276    50074.083       14.253       13.956       73.696      317.333       18.541      332.571        1.327      853.447
01/22/2021  23:41:00     -121.654      -30.151       -1.243      125.429       78.810       53.727    15732.459     6210.965     2886.610        2.026        1.242      125.334       66.982        0.286      332.331        0.920      853.451
01/22/2021  23:42:00       -3.337       25.569      -13.385      384.648       64.897      193.973   147953.983     4211.680    37625.642        9.528        9.490       25.786      263.297      104.261      332.552        1.293      853.466
01/22/2021  23:43:00     -127.365      137.872      -25.937      341.468       74.066      161.868   116600.348     5485.810    26201.153        9.206        7.414      187.698      224.999        1.437      332.379        1.004      853.477
01/22/2021  23:44:00      -70.276       88.599      -31.556      392.856       62.166      184.127   154335.905     3864.618    33902.801       10.290        9.605      113.086      261.498        5.347      332.396        1.037      853.473
01/22/2021  23:45:00      -87.112       99.055      -12.033      269.941       55.846      132.964    72868.080     3118.779    17679.487        5.559        4.683      131.911      184.389        1.954      332.287        0.853      853.452
01/22/2021  23:46:00       71.986       54.867      -52.045      532.229       51.871      258.498   283267.387     2690.588    66821.384       18.177       17.639       90.512      368.097       16.539      332.635        1.436      853.442
01/22/2021  23:47:00        2.061      143.992       -9.558      273.751       82.740      135.134    74939.513     6845.839    18261.097        6.042        5.002      144.007      186.424        1.676      332.314        0.898      853.424
01/22/2021  23:48:00       23.904      166.919      -23.129      408.628       52.619      189.455   166976.707     2768.737    35893.307       11.726       10.282      168.622      275.134        2.662      332.499        1.207      853.412
01/22/2021  23:49:00      -31.996      164.175      -24.640      379.186       64.091      176.942   143781.692     4107.703    31308.352       10.385        8.960      167.264      254.960        2.323      332.576        1.332      853.417
01/22/2021  23:50:00       -9.918       93.692      -29.206      342.908       94.422      164.138   117585.695     8915.452    26941.126        8.155        7.672       94.215      230.057        5.963      332.534        1.262      853.429
01/22/2021  23:51:00      -71.519       79.370      -24.246      382.031      113.839      188.108   145947.990    12959.240    35384.784       10.311        9.715      106.839      247.413        5.363      332.690        1.519      853.411
01/22/2021  23:52:00      -25.860      131.286      -25.226      382.888       66.638      179.018   146602.881     4440.681    32047.358       10.078        9.155      133.808      256.293        3.669      332.764        1.642      853.412
01/22/2021  23:53:00      -99.324       50.090      -20.292      280.051       78.494      131.479    78428.444     6161.303    17286.667        5.731        5.094      111.240      185.427        2.779      332.573        1.327      853.410
01/22/2021  23:54:00     -232.865       79.001      -15.170      309.848       80.739      144.589    96005.851     6518.774    20905.981        9.204        6.172      245.901      182.073        0.548      332.520        1.237      853.408
01/22/2021  23:55:00     -118.947        1.586      -34.265      457.853       78.915      210.467   209629.187     6227.558    44296.526       13.768       13.008      118.957      287.320        5.834      332.667        1.483      853.397
01/22/2021  23:56:00      -29.796       78.066       -0.619      185.673       61.453       91.229    34474.403     3776.439     8322.720        2.677        2.329       83.559      107.603        1.658      332.598        1.365      853.389
01/22/2021  23:57:00       28.816       50.426      -26.559      411.416       72.447      201.569   169263.436     5248.605    40630.168       10.956       10.757       58.079      274.776       22.383      332.830        1.753      853.368
01/22/2021  23:58:00       62.445       57.789      -11.069      429.669       83.235      205.682   184615.232     6928.105    42304.993       12.056       11.692       85.082      289.886       11.608      332.874        1.826      853.353
01/22/2021  23:59:00      -39.782       41.682      -59.524      532.027       64.094      244.587   283052.364     4108.008    59822.594       17.685       17.349       57.619      351.355       37.184      332.942        1.940      853.341
01/23/2021  00:00:00     -105.359       51.286      -26.201      409.869       72.794      187.979   167992.780     5298.988    35336.068       11.148       10.431      117.179      268.258        5.241      332.931        1.919      853.310
01/23/2021  00:01:00     -103.958       64.079      -14.157      289.508       73.036      131.015    83814.802     5334.201    17164.911        6.069        5.316      122.120      178.750        2.142      332.924        1.903      853.297
01/23/2021  00:02:00      -60.160       54.869       -5.940      372.009       59.603      183.641   138390.476     3552.550    33723.965        9.113        8.783       81.424      252.318        9.603      332.961        1.969      853.303
01/23/2021  00:03:00        7.842       19.158        0.927      305.605       68.350      142.771    93394.374     4671.769    20383.621        5.941        5.922       20.701      199.574       92.948      332.961        1.967      853.303
01/23/2021  00:04:00       -6.174       22.533       -9.764      407.158       70.943      193.651   165777.962     5032.958    37500.806       10.443       10.416       23.363      272.112      135.652      333.053        2.122      853.295
01/23/2021  00:05:00      -79.245       24.458       -5.198      244.026       64.488      122.431    59548.644     4158.664    14989.317        4.278        3.935       82.934      161.049        3.771      332.943        1.935      853.312
01/23/2021  00:06:00      -31.131       46.508      -13.886      428.269       65.264      206.738   183414.191     4259.400    42740.437       11.682       11.521       55.965      289.290       26.720      332.997        2.030      853.315
01/23/2021  00:07:00       -6.250       26.441      -30.094      515.414       65.705      244.568   265651.418     4317.107    59813.701       16.564       16.489       27.170      348.787      164.794      333.194        2.359      853.320
01/23/2021  00:08:00       82.325       24.940      -10.805      367.882       74.287      177.548   135336.903     5518.571    31523.202        8.991        8.619       86.020      250.244        8.463      333.082        2.170      853.309
01/23/2021  00:09:00      -38.824       76.866       -3.898      149.826       80.820       78.598    22447.829     6531.828     6177.712        2.129        1.758       86.114       87.819        1.040      332.985        2.003      853.302
01/23/2021  00:10:00     -102.492       44.462      -29.604      370.662       91.852      174.337   137390.599     8436.700    30393.341        9.475        8.811      111.721      237.568        4.522      333.002        2.034      853.293
01/23/2021  00:11:00      -36.541       14.618      -29.995      465.883       74.022      211.650   217046.591     5479.206    44795.530       13.483       13.366       39.356      305.223       60.146      333.110        2.215      853.284
01/23/2021  00:12:00      -27.052       19.570      -32.589      485.269       62.715      217.589   235485.728     3933.139    47344.787       14.441       14.338       33.388      313.552       88.193      333.129        2.247      853.276
01/23/2021  00:13:00      -20.931       12.647      -15.898      410.647       77.858      197.871   168630.769     6061.912    39153.010       10.730       10.692       24.456      266.959      119.161      332.980        2.000      853.263
01/23/2021  00:14:00      -65.101       13.918        9.494      201.160       95.779       95.972    40465.373     9173.690     9210.603        3.167        2.942       66.572       97.227        2.133      332.787        1.676      853.250
01/23/2021  00:15:00       29.140       58.257      -20.361      489.189       66.833      232.009   239305.516     4466.681    53828.149       15.107       14.880       65.139      330.331       25.717      333.110        2.219      853.232
01/23/2021  00:16:00      -88.641       65.070      -37.004      577.982       78.473      269.403   334062.645     6158.042    72578.237       21.304       20.640      109.961      387.118       12.394      333.233        2.420      853.220
01/23/2021  00:17:00       16.570       84.981      -49.988      585.627       98.217      272.994   342958.648     9646.576    74525.809       21.847       21.357       86.581      392.946       20.598      333.392        2.688      853.209
01/23/2021  00:18:00     -163.940       88.640       -6.459      190.184       61.326       87.812    36169.936     3760.926     7710.966        4.120        2.382      186.368      104.388        0.314      332.909        1.875      853.188
01/23/2021  00:19:00       54.628       74.191      -33.819      460.198       68.096      223.953   211781.910     4637.021    50154.786       13.805       13.329       92.133      315.403       11.719      333.204        2.374      853.186
01/23/2021  00:20:00       -2.511       -6.189        0.744      251.903       70.199      123.019    63455.308     4927.900    15133.777        4.176        4.176        6.679      156.925      552.106      332.849        1.781      853.201
01/23/2021  00:21:00       49.601       28.132      -19.994      507.777       59.433      239.797   257837.495     3532.338    57502.673       16.119       15.944       57.023      341.853       35.940      333.032        2.091      853.208
01/23/2021  00:22:00      -19.825       60.964      -26.658      297.533       65.447      136.676    88526.026     4283.287    18680.449        5.813        5.574       64.106      194.018        9.160      332.922        1.904      853.212
01/23/2021  00:23:00       52.609      124.887      -44.544      500.477       64.995      236.904   250477.543     4224.392    56123.271       16.552       15.541      135.516      339.145        6.263      333.136        2.262      853.226
01/23/2021  00:24:00       42.171      101.322      -10.588      367.394       62.483      175.292   134978.347     3904.099    30727.357        9.085        8.480      109.748      247.783        5.097      332.964        1.973      853.254
01/23/2021  00:25:00      115.211       98.342      -12.955      373.822       61.149      174.549   139743.133     3739.181    30467.404        9.849        8.697      151.475      250.197        2.728      332.857        1.796      853.241
01/23/2021  00:26:00       60.053       74.696       -6.330      353.278       58.947      162.676   124805.355     3474.794    26463.359        8.195        7.737       95.843      233.239        5.922      332.811        1.720      853.234
01/23/2021  00:27:00       31.341       49.777       -9.256      371.623       61.827      179.521   138103.379     3822.619    32227.704        8.881        8.708       58.822      251.973       18.350      332.887        1.847      853.255
01/23/2021  00:28:00      -30.602       52.705      -25.775      439.953       74.781      206.367   193558.287     5592.174    42587.478       12.301       12.087       60.945      294.658       23.376      332.838        1.767      853.266
01/23/2021  00:29:00      -28.323       10.359      -14.022      376.022       68.575      179.174   141392.553     4702.552    32103.484        8.961        8.910       30.157      250.346       68.911      332.626        1.414      853.254
01/23/2021  00:30:00     -149.629       72.437      -17.855      431.804       70.978      199.913   186454.975     5037.848    39965.385       12.966       11.573      166.241      280.667        2.850      332.704        1.540      853.264
01/23/2021  00:31:00      -55.409       74.006      -38.160      454.632       74.165      215.827   206690.143     5500.380    46581.332       13.433       12.939       92.450      305.057       10.888      332.799        1.702      853.268
01/23/2021  00:32:00      -68.731      141.301      -19.048      357.144       73.743      173.029   127551.593     5437.967    29938.895        9.396        8.146      157.130      241.593        2.364      332.724        1.576      853.286
01/23/2021  00:33:00      -34.853       60.147      -11.256      204.469       76.846       99.132    41807.724     5905.349     9827.172        3.124        2.877       69.516      118.212        2.892      332.539        1.268      853.309
01/23/2021  00:34:00      -26.216       36.643       -3.219      380.678       75.890      175.386   144915.600     5759.295    30760.221        9.170        9.072       45.055      241.978       28.844      332.631        1.424      853.328
01/23/2021  00:35:00     -203.534       47.950      -19.519      344.827       92.692      164.757   118905.467     8591.884    27144.826        9.934        7.732      209.105      212.688        1.035      332.665        1.476      853.335
01/23/2021  00:36:00     -174.251       41.629       -2.381      303.000       73.376      136.001    91808.815     5384.091    18496.387        7.387        5.784      179.154      181.176        1.023      332.679        1.501      853.336
01/23/2021  00:37:00     -112.055       56.951      -18.325      434.340       70.127      197.198   188650.810     4917.831    38886.966       12.425       11.623      125.697      281.159        5.003      332.771        1.652      853.324
01/23/2021  00:38:00     -132.234       68.526      -38.565      423.191       79.397      207.497   179090.253     6303.926    43055.124       12.601       11.422      148.935      285.872        3.684      332.749        1.617      853.333
01/23/2021  00:39:00     -217.833       37.251      -31.786      412.405       85.468      198.567   170077.727     7304.704    39429.022       13.328       10.841      220.995      276.690        1.568      332.706        1.544      853.362
01/23/2021  00:40:00      -99.146       13.752      -23.817      398.118       78.750      191.391   158498.079     6201.616    36630.381       10.592       10.067      100.095      263.310        6.920      332.693        1.526      853.374
01/23/2021  00:41:00      -23.333       72.366      -27.224      424.635       59.544      201.818   180315.085     3545.434    40730.569       11.551       11.230       76.035      284.063       13.957      332.769        1.653      853.384
01/23/2021  00:42:00       23.666       54.810      -11.662      403.347       63.319      184.683   162688.494     4009.351    34107.631       10.221       10.040       59.701      264.224       19.588      332.807        1.716      853.382
01/23/2021  00:43:00      -82.977       85.346      -27.989      410.084       69.697      194.889   168169.021     4857.703    37981.706       11.294       10.550      119.034      273.676        5.286      332.694        1.528      853.392
01/23/2021  00:44:00      -45.893       87.273      -25.417      310.530       76.089      144.917    96429.029     5789.592    21000.975        6.677        6.161       98.604      196.829        3.985      332.633        1.425      853.396
01/23/2021  00:45:00        8.096      109.312      -17.995      333.019       58.168      150.959   110901.426     3383.565    22788.483        7.468        6.854      109.611      216.027        3.884      332.683        1.509      853.392
01/23/2021  00:46:00      109.169      127.411      -55.864      571.011       46.305      272.871   326053.487     2144.151    74458.845       21.688       20.133      167.784      392.066        5.460      332.845        1.784      853.391
01/23/2021  00:47:00       15.581      108.989      -28.096      481.476       61.651      223.771   231818.749     3800.889    50073.400       14.924       14.285      110.097      324.612        8.693      332.612        1.396      853.415
01/23/2021  00:48:00       -9.800      125.300       -1.193      313.767       57.325      153.230    98449.474     3286.117    23479.534        7.048        6.261      125.683      214.020        2.900      332.381        1.009      853.429
01/23/2021  00:49:00       40.988      135.186      -15.370      382.040       59.103      182.002   145954.443     3493.137    33124.662       10.134        9.129      141.263      258.446        3.347      332.434        1.098      853.431
01/23/2021  00:50:00       32.522      159.850       -3.028      255.441       62.764      127.390    65250.109     3939.329    16228.289        5.600        4.271      163.125      170.750        1.096      332.281        0.843      853.416
01/23/2021  00:51:00        2.612       90.028      -17.643      425.284       59.202      206.786   180866.525     3504.915    42760.475       11.773       11.357       90.066      290.412       10.397      332.472        1.162      853.433
01/23/2021  00:52:00      -43.301       27.313      -16.389      249.990       51.632      126.306    62494.846     2665.813    15953.113        4.198        4.056       51.195      165.219       10.415      332.228        0.756      853.468
01/23/2021  00:53:00      -71.067       39.435      -20.053      343.936       56.544      160.645   118292.126     3197.188    25806.893        7.712        7.365       81.275      227.385        7.827      332.289        0.857      853.475
01/23/2021  00:54:00       26.052       14.305      -11.747      375.607       53.247      181.512   141080.487     2835.205    32946.555        8.890        8.843       29.721      253.517       72.757      332.363        0.980      853.462
01/23/2021  00:55:00     -156.729       38.071      -25.757      308.080       56.412      152.394    94913.506     3182.276    23224.000        7.397        6.066      161.287      211.954        1.727      332.232        0.763      853.466
01/23/2021  00:56:00      -55.287       29.716      -50.372      460.294       51.994      215.536   211870.527     2703.380    46455.863       13.370       13.051       62.767      309.742       24.352      332.442        1.113      853.466
01/23/2021  00:57:00     -127.888      128.297      -33.854      329.951       57.246      159.873   108867.525     3277.072    25559.329        8.580        6.885      181.151      222.355        1.507      332.386        1.015      853.473
01/23/2021  00:58:00     -100.874       95.923      -28.197      264.618       80.331      126.062    70022.753     6453.131    15891.707        5.625        4.618      139.200      171.006        1.509      332.314        0.896      853.463
01/23/2021  00:59:00       -6.495       57.568        7.609      191.159       53.090       95.190    36541.694     2818.541     9061.166        2.591        2.421       57.933      125.418        4.687      332.286        0.851      853.445
01/23/2021  01:00:00      -20.331       39.918        2.111      233.270       82.565      114.844    54415.113     6817.042    13189.045        3.820        3.721       44.797      150.856       11.340      332.332        0.927      853.420
01/23/2021  01:01:00       17.657       54.829      -41.537      450.725       58.044      222.062   203153.404     3369.086    49311.395       13.039       12.792       57.602      310.584       29.073      332.624        1.413      853.416
01/23/2021  01:02:00      -16.002       49.633      -18.461      363.844       60.704      180.488   132382.819     3684.955    32576.001        8.582        8.432       52.149      249.875       22.959      332.477        1.168      853.427
01/23/2021  01:03:00       30.466       36.796      -13.276      354.811       53.145      176.121   125890.570     2824.443    31018.592        8.106        7.987       47.771      243.275       25.934      332.392        1.029      853.425
01/23/2021  01:04:00      -82.955       33.929       -9.186      323.435       59.584      148.630   104610.194     3550.221    22090.913        6.916        6.513       89.626      209.535        5.466      332.282        0.848      853.419
01/23/2021  01:05:00       17.476       90.012      -10.750      375.752       94.445      179.438   141189.926     8919.874    32198.164        9.538        9.115       91.693      254.388        7.697      332.336        0.937      853.433
01/23/2021  01:06:00      -13.859      155.559      -14.902      277.822       51.940      133.347    77185.325     2697.719    17781.536        6.112        4.883      156.175      187.105        1.435      332.360        0.973      853.429
01/23/2021  01:07:00      -13.068      184.957       -9.487      269.022       48.328      131.738    72372.946     2335.575    17354.776        6.325        4.603      185.418      182.076        0.964      332.394        1.028      853.432
01/23/2021  01:08:00       50.698      149.120      -36.519      480.921       60.075      231.372   231285.212     3608.998    53532.999       15.722       14.421      157.503      330.909        4.414      332.541        1.279      853.447
01/23/2021  01:09:00       11.749      127.960        2.258      190.976       57.510       94.818    36471.805     3307.373     8990.497        3.263        2.438      128.498      127.114        0.979      332.323        0.912      853.466
01/23/2021  01:10:00        6.324       73.177      -37.599      433.468       51.951      208.177   187894.690     2698.888    43337.518       12.032       11.697       73.450      297.144       16.366      332.602        1.379      853.493
01/23/2021  01:11:00       26.850      112.069       -0.933      169.908       61.247       87.135    28868.678     3751.214     7592.502        2.674        2.011      115.241      111.708        0.940      332.289        0.855      853.480
01/23/2021  01:12:00       15.234      177.306      -21.290      305.535       66.656      147.588    93351.707     4443.054    21782.323        7.582        5.979      177.959      206.468        1.346      332.445        1.114      853.481
01/23/2021  01:13:00       -4.957      115.660      -10.417      315.665       69.837      150.045    99644.463     4877.156    22513.603        7.025        6.352      115.767      211.729        3.345      332.490        1.190      853.509
01/23/2021  01:14:00       17.779      123.244      -16.366      321.868       59.228      157.899   103598.777     3507.964    24932.075        7.388        6.602      124.520      220.988        3.150      332.535        1.263      853.499
01/23/2021  01:15:00      -18.027       84.274        0.878      283.874       49.103      135.358    80584.686     2411.148    18321.658        5.435        5.066       86.181      189.649        4.843      332.447        1.118      853.499
01/23/2021  01:16:00      -31.691      124.252        2.274      161.372       57.038       81.691    26040.909     3253.378     6673.458        2.620        1.798      128.229      105.249        0.674      332.452        1.124      853.502
01/23/2021  01:17:00       44.879      112.555      -20.861      412.245       61.333      195.958   169945.559     3761.744    38399.390       11.357       10.605      121.173      279.096        5.305      332.755        1.628      853.502
01/23/2021  01:18:00      -16.598       28.354      -13.759      300.116       65.978      140.359    90069.597     4353.071    19700.554        5.767        5.706       32.855      197.221       36.034      332.604        1.378      853.531
01/23/2021  01:19:00       15.459        4.434        7.719      307.531       53.314      140.129    94575.466     2842.351    19636.033        5.866        5.853       16.082      196.329      149.028      332.380        1.009      853.581
01/23/2021  01:20:00      -88.275       49.986        4.166      191.794       65.674       96.613    36784.989     4313.085     9334.056        3.036        2.522      101.445      111.608        1.210      332.277        0.835      853.613
01/23/2021  01:21:00       -2.874       61.761      -33.027      457.791       54.525      218.063   209572.314     2972.933    47551.528       13.245       13.005       61.828      311.073       25.314      332.582        1.345      853.603
01/23/2021  01:22:00      -88.702      -13.240      -12.776      321.009       73.392      154.722   103046.732     5386.349    23938.895        7.026        6.619       89.685      211.408        5.557      332.365        0.983      853.616
01/23/2021  01:23:00      -14.981       17.647       -7.871      378.712       77.679      178.641   143422.748     6033.982    31912.697        9.095        9.068       23.148      250.645      117.240      332.548        1.286      853.636
01/23/2021  01:24:00      -79.107       89.003      -24.475      348.069       56.361      169.747   121151.875     3176.552    28813.884        8.393        7.657      119.077      235.286        3.904      332.588        1.352      853.619
01/23/2021  01:25:00       -3.201       77.899      -54.122      552.522       77.158      270.556   305280.839     5953.348    73200.544       19.664       19.222       77.965      380.706       23.844      332.810        1.724      853.612
01/23/2021  01:26:00      173.318       76.415      -34.463      528.508       76.142      257.725   279320.330     5797.629    66422.164       19.423       17.577      189.416      363.244        3.678      332.763        1.647      853.576
01/23/2021  01:27:00      110.931       74.404      -23.287      505.161       53.076      241.748   255187.333     2817.010    58441.887       16.735       15.822      133.573      345.124        6.676      332.816        1.733      853.553
01/23/2021  01:28:00     -150.266       67.655      -19.175      343.559       58.829      162.635   118032.681     3460.888    26450.121        8.770        7.397      164.794      228.587        1.924      332.581        1.338      853.577
01/23/2021  01:29:00     -157.717       32.604        5.655       65.565       55.768       42.245     4298.823     3110.035     1784.647        1.758        0.460      161.052       32.212        0.040      332.343        0.943      853.598
01/23/2021  01:30:00       27.556      138.841       -6.840      256.836       70.234      120.665    65964.939     4932.748    14559.965        5.275        4.273      141.549      168.026        1.409      332.524        1.243      853.597
01/23/2021  01:31:00       30.464      162.298      -19.938      347.543       76.413      168.859   120785.865     5838.973    28513.438        9.137        7.757      165.133      237.345        2.066      332.661        1.473      853.579
01/23/2021  01:32:00      -29.664      111.457        2.221      219.257       58.068      110.085    48073.554     3371.898    12118.714        3.842        3.178      115.336      149.519        1.681      332.483        1.175      853.585
01/23/2021  01:33:00       16.145       26.482      -43.129      430.256       54.151      211.355   185120.486     2932.298    44670.743       11.772       11.636       31.015      295.865       90.997      332.654        1.464      853.607
01/23/2021  01:34:00       46.752      129.125      -16.385      312.910       74.291      147.545    97912.859     5519.106    21769.598        7.214        6.260      137.328      205.519        2.240      332.565        1.313      853.612
01/23/2021  01:35:00      -27.804       98.061      -11.597      295.791       62.200      140.657    87492.521     3868.853    19784.265        6.081        5.557      101.926      194.475        3.640      332.643        1.440      853.594
01/23/2021  01:36:00       20.839       89.741      -17.671      403.982       67.077      193.591   163201.135     4499.390    37477.575       10.695       10.259       92.129      274.821        8.898      332.790        1.687      853.592
01/23/2021  01:37:00       21.027      136.101       -8.161      339.435       68.469      163.633   115216.058     4687.996    26775.608        8.282        7.334      137.716      228.167        2.745      332.653        1.457      853.611
01/23/2021  01:38:00       81.049      123.442      -17.128      380.053       61.670      185.006   144440.299     3803.155    34227.357       10.225        9.124      147.672      261.221        3.129      332.702        1.541      853.618
01/23/2021  01:39:00        9.946      162.557      -29.478      385.479       48.737      181.167   148593.996     2375.275    32821.386       10.555        9.190      162.861      259.734        2.543      332.691        1.522      853.627
01/23/2021  01:40:00      -17.063      136.660        6.487      259.785       66.588      131.202    67488.120     4433.989    17213.849        5.405        4.457      137.721      175.029        1.615      332.696        1.528      853.635
01/23/2021  01:41:00      -11.836       54.428      -26.886      401.713       77.144      189.966   161373.339     5951.239    36086.987       10.358       10.171       55.700      266.478       22.888      332.800        1.703      853.639
01/23/2021  01:42:00     -101.089       56.520      -22.585      315.602       81.733      153.071    99604.838     6680.319    23430.650        7.179        6.486      115.817      210.276        3.296      332.692        1.522      853.638
01/23/2021  01:43:00       87.582       40.818      -36.053      543.220       59.474      260.492   295088.086     3537.102    67856.221       18.848       18.324       96.627      371.961       14.818      333.008        2.050      853.634
01/23/2021  01:44:00      -20.684       23.340       -3.176      361.349       49.115      171.428   130572.891     2412.263    29387.440        8.164        8.119       31.187      241.176       59.804      332.731        1.588      853.636
01/23/2021  01:45:00       59.585       28.907      -30.043      441.869       53.355      217.704   195248.609     2846.800    47394.834       12.534       12.275       66.227      306.548       21.425      332.885        1.845      853.641
01/23/2021  01:46:00       50.868       21.023        1.773      335.143       57.988      160.503   112320.744     3362.585    25761.153        7.221        7.072       55.041      224.678       16.663      332.880        1.835      853.646
01/23/2021  01:47:00       -4.003        6.538        0.814      282.570       49.438      134.811    79845.921     2444.090    18173.931        5.024        5.023        7.666      186.534      592.110      332.759        1.633      853.641
01/23/2021  01:48:00      -45.409      -31.707      -24.782      405.460       58.308      197.407   164398.117     3399.821    38969.514       10.518       10.338       55.383      275.385       24.724      332.797        1.700      853.638
01/23/2021  01:49:00      -19.709       14.263      -15.259      297.357       70.665      147.361    88420.890     4993.571    21715.268        5.795        5.756       24.329      201.857       68.842      332.849        1.782      853.620
01/23/2021  01:50:00       20.170       83.353      -15.947      398.667       58.402      193.759   158935.480     3410.788    37542.638       10.371        9.994       85.759      273.409       10.164      332.868        1.816      853.622
01/23/2021  01:51:00        7.902       93.940       -5.141      255.335       56.108      126.050    65195.779     3148.072    15888.555        4.656        4.212       94.272      174.096        3.410      332.779        1.667      853.626
01/23/2021  01:52:00        8.278       43.368       -6.728      326.302       66.320      159.273   106473.306     4398.337    25367.859        6.909        6.812       44.151      222.260       25.342      332.926        1.909      853.627
01/23/2021  01:53:00       32.877      -17.071       -0.124      219.899       55.002      106.799    48355.513     3025.259    11405.983        3.207        3.139       37.045      145.022       15.325      332.873        1.820      853.605
01/23/2021  01:54:00      -92.128       -4.527      -14.943      352.473       65.839      171.851   124237.009     4334.839    29532.796        8.338        7.905       92.239      233.427        6.404      332.895        1.859      853.597
01/23/2021  01:55:00      -35.293       33.117      -54.299      514.011       64.406      247.867   264207.687     4148.072    61438.189       16.747       16.490       48.398      352.797       53.137      333.037        2.098      853.591
01/23/2021  01:56:00      -54.746       51.858       -6.444      258.052       66.457      128.233    66591.018     4416.510    16443.817        4.657        4.373       75.408      169.802        5.070      332.746        1.611      853.573
01/23/2021  01:57:00       -7.571       10.171       -1.607      345.348       76.435      163.564   119265.469     5842.262    26753.331        7.598        7.593       12.680      224.625      313.818      332.854        1.791      853.586
01/23/2021  01:58:00      -83.438        9.810      -11.142      279.130       67.457      136.146    77913.538     4550.474    18535.693        5.407        5.050       84.013      180.432        4.613      332.703        1.540      853.626
01/23/2021  01:59:00      -39.225       35.723       -5.239      180.391       94.286       87.392    32540.851     8889.846     7637.333        2.594        2.453       53.054      100.643        3.599      332.694        1.524      853.614
01/23/2021  02:00:00      -46.756       -4.416       -0.906      281.348      108.996      135.712    79156.903    11880.088    18417.757        5.581        5.473       46.964      182.651       15.126      332.769        1.648      853.623
01/23/2021  02:01:00      -87.697      -15.331      -12.207      302.397       69.184      142.247    91443.909     4786.460    20234.239        6.224        5.823       89.027      186.723        4.399      332.801        1.702      853.624
01/23/2021  02:02:00      -30.904       54.168      -14.353      293.050       82.020      138.521    85878.503     6727.257    19188.124        5.792        5.590       62.363      192.201        9.498      332.777        1.662      853.646
01/23/2021  02:03:00      -76.740       69.911      -21.159      321.987       98.683      158.954   103675.876     9738.363    25266.240        7.492        6.934      103.810      194.231        3.501      332.768        1.647      853.683
01/23/2021  02:04:00     -117.687       18.309      -73.757      544.464       78.236      252.165   296440.867     6120.812    63587.165       19.281       18.307      119.103      362.112        9.244      333.017        2.063      853.690
01/23/2021  02:05:00      -99.893       54.862        3.821       57.320       69.849       38.652     3285.550     4878.847     1493.953        1.133        0.483      113.967       38.553        0.114      332.680        1.500      853.677
01/23/2021  02:06:00        2.267       23.724      -43.072      547.914       68.262      259.403   300209.294     4659.753    67289.929       18.721       18.608       23.832      369.384      240.230      333.040        2.104      853.678
01/23/2021  02:07:00     -113.936      -25.601      -11.192      374.611       96.002      179.609   140333.484     9216.464    32259.392        9.775        9.090      116.776      241.412        4.274      332.876        1.827      853.650
01/23/2021  02:08:00      -89.908       30.820        2.676      230.379       89.840       97.356    53074.583     8071.150     9478.156        3.982        3.531       95.044      111.088        1.366      332.768        1.645      853.624
01/23/2021  02:09:00      -55.393        3.963       13.176      290.373       91.790      135.904    84316.671     8425.478    18469.814        5.721        5.561       55.534      178.184       10.295      332.801        1.701      853.606
01/23/2021  02:10:00      -97.854       83.810      -10.259      364.065      109.279      178.227   132543.545    11941.907    31765.013        9.644        8.813      128.839      235.328        3.336      332.849        1.781      853.617
01/23/2021  02:11:00      -78.231       57.081      -40.657      423.551      103.694      206.297   179395.711    10752.527    42558.315       12.182       11.635       96.842      281.902        8.474      332.944        1.938      853.621
01/23/2021  02:12:00       -3.800      145.238      -29.170      341.217       65.448      164.772   116429.338     4283.391    27149.964        8.488        7.393      145.288      230.546        2.518      332.880        1.834      853.628
01/23/2021  02:13:00      -18.562      116.865      -19.905      328.623       63.022      155.077   107992.907     3971.736    24048.741        7.518        6.801      118.330      216.366        3.343      332.884        1.839      853.652
01/23/2021  02:14:00      -48.444       75.882      -23.520      325.958       68.200      156.068   106248.377     4651.259    24357.154        7.193        6.763       90.027      219.163        5.926      332.897        1.861      853.668
01/23/2021  02:15:00      -47.659       51.557      -40.357      576.008       83.793      275.923   331785.502     7021.216    76133.508       21.066       20.747       70.211      385.566       30.157      333.069        2.153      853.688
01/23/2021  02:16:00     -154.568       48.789       -8.856      392.705       78.191      188.498   154217.174     6113.885    35531.658       11.106        9.793      162.085      254.785        2.471      332.847        1.779      853.724
01/23/2021  02:17:00      -89.961       43.471        0.373      361.404       76.830      172.876   130613.049     5902.806    29886.061        8.816        8.320       99.914      236.711        5.613      332.861        1.802      853.702
01/23/2021  02:18:00     -110.872       55.226      -44.575      470.659       66.291      221.922   221520.196     4394.484    49249.543       14.619       13.758      123.865      309.202        6.231      332.990        2.017      853.685
01/23/2021  02:19:00      -54.412       31.540      -34.215      394.635       79.020      187.396   155736.694     6244.140    35117.237       10.107        9.855       62.892      265.876       17.872      332.926        1.911      853.692
01/23/2021  02:20:00      -30.812       57.705       -6.000      256.866       62.208      125.057    65980.131     3869.887    15639.348        4.488        4.274       65.416      167.692        6.571      332.856        1.792      853.708
01/23/2021  02:21:00      -20.956       16.596      -23.080      444.045       61.391      210.460   197176.075     3768.882    44293.325       12.319       12.262       26.731      296.531      123.055      333.028        2.081      853.723
01/23/2021  02:22:00      -73.215       16.507      -21.913      404.519       57.040      191.504   163635.305     3253.540    36673.734       10.479       10.178       75.053      269.471       12.891      332.930        1.918      853.725
01/23/2021  02:23:00      -17.433       24.265        0.971      310.347       67.017      145.260    96315.432     4491.237    21100.589        6.137        6.095       29.878      204.444       46.822      332.898        1.863      853.739
01/23/2021  02:24:00       40.667       22.889       -2.163      320.754       62.157      148.637   102883.311     3863.538    22092.982        6.548        6.442       46.666      212.294       20.695      332.962        1.969      853.726
01/23/2021  02:25:00       -3.889      -33.331      -15.682      297.145       62.017      144.917    88294.965     3846.061    21000.982        5.723        5.657       33.557      198.810       35.100      332.928        1.912      853.709
01/23/2021  02:26:00        4.537       26.342      -14.331      382.031      128.000      176.489   145947.372    16384.054    31148.325        9.716        9.674       26.730      233.973       76.620      332.969        1.981      853.744
01/23/2021  02:27:00     -184.241       86.118      -14.562      347.844       95.882      156.577   120995.775     9193.331    24516.212        9.811        7.735      203.374      188.528        0.859      332.882        1.835      853.762
01/23/2021  02:28:00     -257.456      127.416      -26.207      372.109       87.106      156.997   138465.051     7587.476    24648.162       12.692        8.535      287.260      201.530        0.492      332.944        1.936      853.761
01/23/2021  02:29:00     -128.787      197.600      -29.910      327.209       67.633      147.526   107065.728     4574.193    21763.835        9.494        6.670      235.864      206.135        0.764      332.971        1.981      853.762
01/23/2021  02:30:00      -94.025       86.797      -28.612      357.447       66.746      169.599   127768.197     4454.987    28763.660        8.906        8.049      127.963      240.248        3.525      333.018        2.062      853.764
01/23/2021  02:31:00        2.698       10.487       -9.401      209.913       64.634       97.831    44063.657     4177.605     9570.821        2.900        2.891       10.828      133.264      151.458      332.924        1.904      853.761
01/23/2021  02:32:00      119.160        2.580      -30.238      501.371       58.511      239.712   251372.802     3423.516    57461.943       16.362       15.613      119.188      342.934        8.279      333.217        2.397      853.773
01/23/2021  02:33:00      -27.672       20.964       -2.510      287.007       69.944      138.950    82373.273     4892.214    19307.018        5.387        5.329       34.717      191.053       30.285      333.000        2.031      853.788
01/23/2021  02:34:00       85.160      101.342      -17.268      262.417       51.664      118.194    68862.736     2669.173    13969.760        5.164        4.275      132.373      170.255        1.654      332.884        1.839      853.785
01/23/2021  02:35:00       81.249       93.542      -20.805      372.702       52.571      175.745   138906.434     2763.665    30886.404        9.413        8.628      123.901      252.468        4.152      332.953        1.956      853.789
01/23/2021  02:36:00      103.299       44.690      -21.901      441.496       46.483      210.585   194918.823     2160.683    44345.971       12.724       12.071      112.552      302.454        7.221      332.938        1.934      853.800
01/23/2021  02:37:00       29.466       72.422        3.785      186.913       48.204       88.788    34936.310     2323.628     7883.325        2.563        2.257       78.187      122.388        2.450      332.812        1.718      853.813
01/23/2021  02:38:00       49.180      107.283        0.179       91.694       57.485       35.812     8407.739     3304.539     1282.501        1.346        0.650      118.019       13.155        0.012      332.673        1.488      853.815
01/23/2021  02:39:00       67.028      102.697        2.776       47.763       62.309       36.199     2281.351     3882.418     1310.395        1.126        0.374      122.635       11.176        0.008      332.595        1.359      853.828
01/23/2021  02:40:00      119.723       69.772       -8.261      305.877       55.761      146.915    93560.706     3109.245    21584.080        6.874        5.913      138.570      206.820        2.228      332.779        1.666      853.828
01/23/2021  02:41:00      186.420       43.995      -25.569      357.374       43.160      169.213   127716.187     1862.818    28633.052        9.774        7.911      191.541      242.529        1.603      332.744        1.609      853.814
01/23/2021  02:42:00       84.211       47.269      -10.427      241.330       51.829      120.114    58240.275     2686.252    14427.287        4.238        3.768       96.570      166.115        2.959      332.705        1.543      853.810
01/23/2021  02:43:00       62.750       86.433       -6.923      206.093       55.111      100.634    42474.530     3037.202    10127.282        3.354        2.782      106.809      136.411        1.631      332.636        1.428      853.810
01/23/2021  02:44:00       26.823      101.251       -9.991      310.340       46.993      149.586    96310.854     2208.327    22375.899        6.596        6.045      104.743      211.830        4.090      333.008        2.044      853.812
01/23/2021  02:45:00      100.921      161.640      -34.891      425.659       44.112      204.415   181185.905     1945.866    41785.528       13.117       11.246      190.558      292.623        2.358      333.071        2.152      853.824
01/23/2021  02:46:00      114.779      131.045      -15.279      204.964       51.872       97.235    42010.314     2690.657     9454.733        4.236        2.708      174.204      132.936        0.582      332.732        1.587      853.828
01/23/2021  02:47:00      153.518      114.240      -23.788      301.146       57.146      141.471    90688.707     3265.673    20013.988        7.555        5.698      191.360      201.547        1.109      332.836        1.759      853.821
01/23/2021  02:48:00       63.530      134.460      -10.629      252.872       72.194      123.085    63944.362     5211.934    15149.875        5.325        4.215      148.713      168.004        1.276      332.786        1.678      853.820
01/23/2021  02:49:00      -18.424      124.051      -14.756      288.100       56.743      133.607    83001.813     3219.761    17850.768        5.999        5.204      125.412      191.493        2.331      332.957        1.960      853.832
01/23/2021  02:50:00      -10.278       61.426        5.015      256.487       48.612      121.223    65785.670     2363.113    14694.931        4.336        4.142       62.280      171.183        7.555      332.905        1.872      853.849
01/23/2021  02:51:00       33.452       53.033        2.422      236.070       50.380      113.755    55729.124     2538.171    12940.169        3.756        3.560       62.702      158.564        6.395      332.799        1.698      853.858
01/23/2021  02:52:00       64.623       54.981      -14.830       28.321       44.674       24.983      802.096     1995.799      624.152        0.542        0.171       84.847       25.549        0.091      332.722        1.569      853.868
01/23/2021  02:53:00      108.487       57.499      -16.845      223.016       46.196      111.283    49736.218     2134.082    12383.954        3.979        3.213      122.783      152.285        1.538      332.631        1.421      853.871
01/23/2021  02:54:00       58.614       49.798       12.715      106.605       53.242       58.810    11364.596     2834.705     3458.563        1.186        0.883       76.912       66.790        0.754      332.596        1.361      853.872
01/23/2021  02:55:00       25.356       25.166      -18.947      322.361       50.651      159.538   103916.602     2565.523    25452.226        6.676        6.597       35.725      221.592       38.475      332.869        1.815      853.881
01/23/2021  02:56:00       60.508       56.481       -5.312      293.908       49.422      138.155    86381.920     2442.560    19086.766        5.737        5.396       82.772      196.648        5.644      332.861        1.801      853.884
01/23/2021  02:57:00       38.612       48.846       11.739      212.247       59.041      103.715    45048.640     3485.850    10756.803        3.164        2.965       62.264      141.439        5.160      332.931        1.916      853.894
01/23/2021  02:58:00      -19.098       37.615       -6.882      307.213       64.942      141.393    94379.633     4217.501    19992.001        6.018        5.929       42.186      199.888       22.452      332.937        1.928      853.905
01/23/2021  02:59:00      -50.301        6.698       -2.910      292.985       61.127      130.977    85840.183     3736.507    17155.060        5.463        5.337       50.745      181.222       12.754      332.911        1.885      853.926
01/23/2021  03:00:00      -72.489       42.268      -19.617      435.687       53.731      206.539   189823.397     2886.981    42658.491       12.135       11.768       83.912      295.765       12.423      333.017        2.063      853.941
01/23/2021  03:01:00      -38.608       56.966       15.874      173.720       58.131       90.559    30178.525     3379.185     8201.020        2.336        2.088       68.816      115.864        2.835      332.842        1.768      853.943
01/23/2021  03:02:00      -27.289       33.510        7.538       30.405       53.317       27.536      924.440     2842.671      758.222        0.322        0.226       43.216       35.728        0.683      332.879        1.830      853.930
01/23/2021  03:03:00       67.999       43.296        2.149      212.523       53.970      104.284    45166.083     2912.731    10875.212        3.272        2.948       80.613      143.957        3.189      332.937        1.925      853.925
01/23/2021  03:04:00       67.096       46.743        1.018      178.908       51.572       88.792    32008.181     2659.674     7884.033        2.461        2.128       81.773      117.941        2.080      332.789        1.680      853.935
01/23/2021  03:05:00       33.953       49.422      -10.130      264.516       45.272      132.450    69968.534     2049.551    17542.955        4.661        4.478       59.961      182.605        9.274      332.899        1.862      853.938
01/23/2021  03:06:00       65.656       25.303       -4.581      272.071       50.894      134.814    74022.832     2590.205    18174.914        4.986        4.739       70.363      187.668        7.114      332.817        1.730      853.935
01/23/2021  03:07:00       63.128       58.817       -3.273      252.116       48.901      122.205    63562.639     2391.349    14934.170        4.415        4.044       86.282      170.750        3.916      332.592        1.355      853.932
01/23/2021  03:08:00      113.248       -7.938      -28.014      412.848       78.375      199.962   170443.625     6142.656    39984.617       11.508       10.829      113.526      284.080        6.262      332.695        1.532      853.925
01/23/2021  03:09:00      118.197      -39.868      -34.368      413.417       57.311      201.391   170913.744     3284.594    40558.246       11.570       10.738      124.740      286.033        5.258      332.614        1.396      853.926
01/23/2021  03:10:00       86.135      -40.487      -42.559      385.817       31.964      185.689   148854.469     1021.704    34480.499        9.757        9.218       95.176      266.193        7.822      332.516        1.234      853.937
01/23/2021  03:11:00       53.666       17.201       -3.464      297.949       50.433      147.790    88773.497     2543.508    21841.914        5.815        5.658       56.355      206.209       13.389      332.516        1.232      853.944
01/23/2021  03:12:00       45.383       43.366       -7.000      188.006       52.262       97.051    35346.316     2731.362     9418.942        2.573        2.375       62.771      128.040        4.161      332.472        1.156      853.944
01/23/2021  03:13:00       80.161       62.603        0.753       45.738       52.116       30.883     2091.934     2716.118      953.749        0.805        0.288      101.710       38.462        0.143      332.357        0.967      853.942
01/23/2021  03:14:00       28.129       41.192        7.973      136.235       48.892       71.657    18560.045     2390.448     5134.749        1.431        1.304       49.880       91.776        3.385      332.383        1.010      853.933
01/23/2021  03:15:00       79.867       50.779       -6.446      282.423       40.980      132.180    79762.611     1679.399    17471.600        5.393        4.946       94.643      190.097        4.034      332.326        0.919      853.941
01/23/2021  03:16:00       98.235       49.528       -7.576      262.730       48.140      129.876    69026.874     2317.473    16867.834        5.017        4.411      110.014      180.175        2.682      332.245        0.783      853.945
01/23/2021  03:17:00      100.809       53.312       -1.021      263.641       49.699      126.758    69506.605     2469.947    16067.472        5.051        4.402      114.038      178.211        2.442      332.388        1.019      853.943
01/23/2021  03:18:00       74.284       65.977       -1.263      196.149       48.273       95.456    38474.242     2330.239     9111.808        2.988        2.496       99.354      130.767        1.732      332.386        1.015      853.963
01/23/2021  03:19:00       88.744       53.273       -4.388      298.696       46.699      139.537    89219.287     2180.834    19470.658        6.078        5.544      103.506      200.037        3.735      332.396        1.033      853.982
01/23/2021  03:20:00       47.685      170.957      -27.259      273.892       58.088      128.167    75016.973     3374.272    16426.852        6.351        4.741      177.483      180.093        1.030      332.673        1.488      854.003
01/23/2021  03:21:00      -13.604      149.092        5.543       41.586       60.221       34.836     1729.382     3626.553     1213.513        1.451        0.328      149.712       23.765        0.025      332.588        1.346      854.014
01/23/2021  03:22:00       34.524      191.062      -39.696      436.497       51.447      206.398   190529.313     2646.823    42600.228       13.747       11.789      194.156      297.581        2.349      332.786        1.679      854.011
01/23/2021  03:23:00       26.586      165.212      -25.103      393.696       58.877      183.650   154996.265     3466.514    33727.287       11.037        9.610      167.337      264.254        2.494      332.779        1.667      854.012
01/23/2021  03:24:00      138.333      124.556      -26.065      324.067      128.646      154.553   105019.413    16549.837    23886.699        9.036        7.273      186.146      219.183        1.386      332.659        1.469      854.007
01/23/2021  03:25:00       84.810      210.278      -27.006      373.249       61.818      175.230   139314.865     3821.448    30705.552       11.295        8.692      226.737      251.353        1.229      332.693        1.525      854.017
01/23/2021  03:26:00       45.752      174.243      -10.535       52.394       63.368       34.751     2745.153     4015.473     1207.667        2.026        0.398      180.150       15.316        0.007      332.440        1.102      854.046
01/23/2021  03:27:00       40.791      226.509      -11.754       88.069       85.390       45.317     7756.226     7291.502     2053.622        3.510        0.855      230.152       28.324        0.015      332.342        0.939      854.050
01/23/2021  03:28:00       80.869      207.470      -25.796      274.291       76.147      132.659    75235.754     5798.297    17598.481        7.442        4.932      222.673      185.232        0.692      332.368        0.984      854.057
01/23/2021  03:29:00       37.659      205.696       -2.510       77.914       63.631       38.576     6070.622     4048.892     1488.139        2.767        0.580      209.115       18.506        0.008      332.274        0.828      854.061
01/23/2021  03:30:00       35.813      110.957      -27.469      349.158       77.416      171.600   121911.156     5993.274    29446.397        8.582        7.868      116.594      239.648        4.225      332.514        1.230      854.074
01/23/2021  03:31:00      -11.741      140.502      -41.229      392.059       75.671      186.508   153709.912     5726.119    34785.147       10.786        9.711      140.992      264.084        3.508      332.522        1.244      854.086
01/23/2021  03:32:00      -24.684      157.977       -9.277      313.158       74.123      153.331    98067.764     5494.231    23510.327        7.634        6.354      159.894      211.362        1.747      332.432        1.094      854.094
01/23/2021  03:33:00      -45.993      172.633      -14.476      223.009       72.895      109.952    49732.976     5313.716    12089.389        4.962        3.357      178.655      144.660        0.656      332.314        0.896      854.095
01/23/2021  03:34:00       34.432      203.652      -16.959      291.546       73.079      146.403    84999.016     5340.582    21433.841        7.734        5.589      206.542      199.404        0.932      332.308        0.886      854.083
01/23/2021  03:35:00       -0.103      173.440       -5.309      255.724       66.480      124.089    65394.550     4419.619    15398.071        5.764        4.261      173.440      168.814        0.947      332.321        0.908      854.078
01/23/2021  03:36:00        7.240      222.392      -18.029      275.070       65.286      132.234    75663.583     4262.313    17485.897        7.360        4.871      222.510      182.164        0.670      332.273        0.827      854.064
01/23/2021  03:37:00       11.869      190.477      -18.489      354.370       70.306      168.751   125578.168     4942.924    28476.995        9.785        7.950      190.846      233.861        1.502      332.376        1.000      854.061
01/23/2021  03:38:00      -21.695      182.132      -14.935      302.253       58.751      139.949    91356.950     3451.730    19585.678        7.411        5.720      183.419      198.400        1.170      332.224        0.748      854.077
01/23/2021  03:39:00      -61.253      171.196       -4.846      164.395       64.432       78.831    27025.746     4151.498     6214.264        3.523        1.870      181.824       97.888        0.290      332.144        0.614      854.085
01/23/2021  03:40:00      -78.614      241.323      -29.744      230.378       66.468      110.505    53074.195     4418.054    12211.337        6.749        3.485      253.805      148.190        0.341      332.111        0.558      854.080
01/23/2021  03:41:00      -64.245      198.434      -21.103      273.779       72.446      132.513    74954.778     5248.444    17559.769        7.084        4.888      208.575      180.894        0.752      332.163        0.648      854.077
01/23/2021  03:42:00      -20.400      131.244      -16.533      313.510       59.990      154.997    98288.337     3598.767    24024.215        7.189        6.296      132.820      214.759        2.614      332.231        0.762      854.091
01/23/2021  03:43:00      -91.537      105.671      -34.959      421.696       96.085      202.271   177827.810     9232.250    40913.637       12.432       11.399      139.804      283.707        4.118      332.225        0.753      854.084
01/23/2021  03:44:00      -70.035       51.304       -7.978      250.471       69.308      116.039    62735.950     4803.664    13465.007        4.429        4.050       86.816      142.993        2.713      332.084        0.518      854.085
01/23/2021  03:45:00       -8.020       70.955      -14.768      293.592       61.368      140.676    86196.230     3766.063    19789.824        5.751        5.488       71.407      196.115        7.543      332.240        0.777      854.088
01/23/2021  03:46:00       20.350       42.826      -18.568      267.203       70.710      130.621    71397.560     4999.901    17061.764        4.801        4.673       47.415      181.402       14.637      332.155        0.638      854.090
01/23/2021  03:47:00       40.195       22.190        6.705      268.747       47.183      131.498    72225.196     2226.210    17291.724        4.693        4.587       45.913      182.421       15.786      332.218        0.742      854.083
01/23/2021  03:48:00       57.274       52.506      -23.076      437.466       53.201      210.545   191376.931     2830.399    44329.034       12.250       11.927       77.699      299.552       14.863      332.379        1.010      854.081
01/23/2021  03:49:00       -8.838       14.640      -24.448      385.954       60.731      191.406   148960.598     3688.200    36636.440        9.505        9.464       17.101      265.221      240.524      332.200        0.714      854.079
01/23/2021  03:50:00       12.386       14.030      -22.655      399.925       63.729      190.466   159940.301     4061.335    36277.129       10.053       10.014       18.715      267.816      204.773      332.263        0.816      854.083
01/23/2021  03:51:00      -23.544       29.570      -18.649      303.997       54.194      145.616    92414.446     2936.961    21203.899        5.914        5.828       37.799      205.788       29.641      332.106        0.557      854.081
01/23/2021  03:52:00        4.061       78.065      -37.080      500.435       62.026      242.874   250435.492     3847.218    58987.709       16.031       15.664       78.170      342.129       19.156      332.358        0.976      854.091
01/23/2021  03:53:00       -4.258       90.672      -19.537      320.668       59.891      160.863   102828.284     3586.946    25876.887        7.043        6.615       90.772      220.617        5.907      332.143        0.618      854.089
01/23/2021  03:54:00        0.797       79.812      -25.734      450.029       64.879      212.008   202526.247     4209.230    44947.539       12.931       12.584       79.816      302.395       14.354      332.256        0.807      854.095
01/23/2021  03:55:00      -25.657      171.938      -13.088      195.111       75.021       97.757    38068.174     5628.121     9556.426        4.181        2.663      173.842      129.988        0.559      332.013        0.400      854.089
01/23/2021  03:56:00       31.130       92.849      -25.551      450.939       58.567      215.133   203346.021     3430.096    46282.012       13.160       12.653       97.929      307.790        9.878      332.283        0.853      854.083
01/23/2021  03:57:00      -37.899       67.378        2.440      162.242       57.441       79.499    26322.554     3299.455     6320.166        2.095        1.797       77.305      105.619        1.867      332.118        0.575      854.097
01/23/2021  03:58:00      -65.374       41.374        8.125      187.239       52.694       83.888    35058.383     2776.641     7037.212        2.545        2.244       77.366      103.570        1.792      332.063        0.483      854.104
01/23/2021  03:59:00      -55.840       92.901      -12.987      357.576       73.186      171.933   127860.858     5356.262    29561.128        8.731        8.139      108.392      241.186        4.951      332.068        0.493      854.121
01/23/2021  04:00:00       51.611       60.418       -8.173      318.603       66.597      152.019   101508.176     4435.164    23109.887        6.769        6.453       79.461      213.665        7.230      332.087        0.524      854.130
01/23/2021  04:01:00        3.336       75.238      -27.692      457.714       47.869      215.857   209502.379     2291.440    46594.177       13.236       12.919       75.312      309.377       16.875      332.171        0.669      854.139
01/23/2021  04:02:00      -43.092       51.817        2.631       40.156       67.818       31.335     1612.523     4599.235      981.873        0.587        0.360       67.394       37.912        0.316      332.035        0.437      854.142
01/23/2021  04:03:00       31.510       87.116      -20.967      387.121       65.270      180.510   149862.677     4260.193    32583.751        9.782        9.335       92.639      261.125        7.945      332.088        0.528      854.150
01/23/2021  04:04:00        8.970       50.309      -18.544      352.625       67.300      168.808   124344.115     4529.267    28496.222        8.013        7.868       51.102      236.880       21.487      332.089        0.530      854.149
01/23/2021  04:05:00        8.438       97.696      -19.392      353.896       46.061      171.486   125242.671     2121.651    29407.318        8.335        7.839       98.060      243.151        6.148      332.087        0.526      854.138
01/23/2021  04:06:00       24.646      123.001      -19.525      349.507       71.899      163.846   122154.869     5169.486    26845.655        8.511        7.709      125.446      233.740        3.472      331.976        0.342      854.143
01/23/2021  04:07:00        2.100      133.241      -21.693      394.234       56.988      191.029   155420.299     3247.681    36492.257       10.665        9.758      133.258      270.096        4.108      332.008        0.396      854.147
01/23/2021  04:08:00        4.368      122.449      -38.654      465.295       77.578      218.417   216499.219     6018.271    47705.839       14.331       13.511      122.527      311.263        6.453      331.942        0.289      854.147
01/23/2021  04:09:00      -25.069      161.248      -18.833      330.823       62.746      162.606   109443.724     3937.043    26440.725        8.337        6.991      163.186      227.445        1.943      331.855        0.142      854.145
01/23/2021  04:10:00      -72.656      106.034      -15.521      184.165       67.198       89.636    33916.737     4515.583     8034.569        3.161        2.323      128.538      116.796        0.826      331.710       -0.099      854.152
01/23/2021  04:11:00     -113.861       74.705      -19.231      269.153       46.128      132.117    72443.162     2127.795    17454.832        5.545        4.601      136.181      181.899        1.784      331.721       -0.080      854.155
01/23/2021  04:12:00       74.033       21.304       -7.294      403.346       63.462      192.371   162687.685     4027.390    37006.510       10.481       10.186       77.038      272.876       12.547      331.926        0.261      854.154
01/23/2021  04:13:00       40.916       74.220      -56.861      515.804       65.294      255.695   266053.314     4263.261    65379.905       17.298       16.785       84.751      358.821       17.925      331.976        0.348      854.156
01/23/2021  04:14:00        7.048      109.875      -22.658      326.916       54.117      157.420   106874.227     2928.687    24781.064        7.358        6.729      110.101      221.771        4.057      331.762       -0.010      854.159
01/23/2021  04:15:00      -43.293       80.148      -38.340      353.793       50.869      169.802   125169.162     2587.696    28832.775        8.314        7.829       91.093      240.595        6.976      331.715       -0.086      854.154
01/23/2021  04:16:00     -103.045       40.443      -24.057      228.427       61.130      106.721    52178.849     3736.919    11389.403        4.005        3.365      110.698      144.238        1.698      331.617       -0.251      854.157
01/23/2021  04:17:00       39.495       58.580       -8.044      345.788       68.120      166.488   119569.419     4640.384    27718.159        7.846        7.596       70.650      235.054       11.069      331.736       -0.053      854.162
01/23/2021  04:18:00       22.842      113.153      -36.247      360.680       48.721      171.133   130089.787     2373.775    29286.392        8.816        8.087      115.435      245.181        4.511      331.858        0.148      854.163
01/23/2021  04:19:00      -83.154       80.974       -9.147       62.788       59.819       33.559     3942.327     3578.282     1126.206        1.110        0.432      116.066       30.695        0.070      331.615       -0.256      854.184
01/23/2021  04:20:00       -7.550       76.468      -30.101      369.696       47.277      177.786   136674.795     2235.128    31607.724        8.863        8.526       76.839      252.530       10.801      331.789        0.035      854.175
01/23/2021  04:21:00      -10.086       46.873      -24.980      302.935       53.038      144.586    91769.327     2813.005    20905.246        5.918        5.774       47.946      204.792       18.244      331.842        0.122      854.188
01/23/2021  04:22:00       29.882       59.302      -37.114      418.079       62.161      197.789   174789.794     3863.983    39120.586       11.173       10.889       66.405      284.220       18.319      331.919        0.251      854.190
01/23/2021  04:23:00      -19.751      100.110       -4.874      197.702       71.138       95.618    39086.225     5060.612     9142.777        3.185        2.664      102.039      129.315        1.606      331.814        0.073      854.185
01/23/2021  04:24:00       46.265       51.850      -35.573      441.609       48.505      213.122   195018.505     2352.755    45420.801       12.439       12.140       69.491      303.480       19.073      332.063        0.488      854.190
01/23/2021  04:25:00      -51.051      133.660      -26.153      299.981       46.441      142.131    89988.831     2156.783    20201.310        6.673        5.617      143.077      201.095        1.975      331.795        0.043      854.205
01/23/2021  04:26:00       -4.187      132.255      -11.424      176.981       40.128       85.601    31322.229     1610.243     7327.515        2.894        2.013      132.321      116.356        0.773      331.716       -0.088      854.207
01/23/2021  04:27:00       25.391      115.876      -33.610      366.952       37.175      177.439   134653.798     1381.997    31484.676        9.132        8.376      118.626      253.262        4.558      331.918        0.247      854.218
01/23/2021  04:28:00      -25.630       30.896      -12.231      288.345       47.567      137.601    83143.126     2262.630    18934.136        5.303        5.217       40.143      195.476       23.712      331.904        0.223      854.236
01/23/2021  04:29:00       15.110       52.176      -16.405      341.009       51.271      164.797   116286.933     2628.728    27157.993        7.462        7.304       54.320      235.074       18.728      331.830        0.103      854.236
01/23/2021  04:30:00      -29.500       48.879      -23.725      307.256       44.823      151.113    94406.193     2009.125    22835.097        6.151        5.963       57.091      209.489       13.464      331.801        0.054      854.243
01/23/2021  04:31:00        6.757       31.859      -47.428      469.207       33.744      225.238   220154.868     1138.632    50731.984       13.761       13.601       32.567      323.127       98.443      332.001        0.388      854.254
01/23/2021  04:32:00      -68.566       48.826       -9.848       32.495       43.126       20.354     1055.949     1859.867      414.285        0.526        0.167       84.174       23.974        0.081      331.707       -0.105      854.262
01/23/2021  04:33:00       69.627       52.874      -29.333      403.689       35.955      191.785   162964.509     1292.727    36781.541       10.473       10.052       87.428      275.772        9.950      331.919        0.252      854.254
01/23/2021  04:34:00       29.632      145.593      -28.155      365.204       38.301      174.838   133373.909     1466.934    30568.222        9.410        8.270      148.578      250.925        2.852      331.816        0.080      854.258
01/23/2021  04:35:00       17.148      121.539      -20.005      309.426       38.283      146.414    95744.207     1465.575    21437.075        6.703        5.932      122.742      207.592        2.860      331.846        0.127      854.270
01/23/2021  04:36:00      -40.926      146.570      -19.759      170.956       73.972       80.238    29225.949     5471.820     6438.208        3.233        2.057      152.177      108.496        0.508      331.708       -0.103      854.273
01/23/2021  04:37:00      -48.555      131.115       -2.251       43.185       43.825       26.701     1864.938     1920.644      712.962        1.203        0.225      139.817        8.229        0.003      331.792        0.036      854.264
01/23/2021  04:38:00      -20.105      140.842      -15.468      244.397       35.518      115.635    59729.868     1261.505    13371.341        4.741        3.718      142.270      165.764        1.358      331.833        0.104      854.272
01/23/2021  04:39:00        5.494      116.661       -7.423      232.916       48.391      111.571    54250.036     2341.649    12448.124        4.135        3.452      116.791      156.470        1.795      331.808        0.063      854.275
01/23/2021  04:40:00      -43.323       90.354       -7.943       55.843       55.904       29.234     3118.465     3125.207      854.605        0.860        0.355      100.203       20.773        0.043      331.804        0.055      854.280
01/23/2021  04:41:00       18.735       89.704      -19.720      348.919       49.987      162.631   121744.283     2498.720    26448.694        7.971        7.535       91.639      236.079        6.637      332.020        0.416      854.278
01/23/2021  04:42:00      -26.822       92.367       -3.255      241.383       46.773      119.138    58265.760     2187.707    14193.871        4.194        3.732       96.183      163.806        2.900      331.905        0.225      854.269
01/23/2021  04:43:00      -36.027       62.253      -22.357      440.008       80.722      208.913   193606.824     6515.966    43644.807       12.467       12.188       71.926      295.962       16.932      332.014        0.406      854.258
01/23/2021  04:44:00     -109.640       73.667      -21.775      231.913       45.343      111.983    53783.710     2055.945    12540.180        4.314        3.419      132.091      153.633        1.353      331.797        0.048      854.257
01/23/2021  04:45:00       30.825       38.389      -19.197      420.571       52.286      201.910   176880.010     2733.799    40767.822       11.154       11.019       49.233      285.696       33.674      332.053        0.471      854.246
01/23/2021  04:46:00       51.206      109.313      -21.633      394.206       46.824      190.024   155398.244     2192.498    36109.205       10.433        9.685      120.712      270.768        5.031      332.008        0.394      854.228
01/23/2021  04:47:00      -25.765      105.689      -16.335      269.726       47.981      123.367    72752.173     2302.220    15219.424        5.117        4.514      108.784      177.492        2.662      331.942        0.285      854.234
01/23/2021  04:48:00       40.679       54.325      -18.278      362.496       57.351      173.349   131403.044     3289.192    30049.703        8.481        8.237       67.868      246.322       13.173      332.056        0.476      854.217
01/23/2021  04:49:00      -23.503      103.855      -18.602      330.582       96.527      159.144   109284.605     9317.536    25326.926        7.778        7.196      106.481      220.308        4.281      331.914        0.238      854.226
01/23/2021  04:50:00     -112.523       97.791      -26.172      188.839       63.229       92.267    35660.349     3997.946     8513.220        3.553        2.409      149.079      125.032        0.703      331.753       -0.027      854.235
01/23/2021  04:51:00        0.857       36.070      -42.482      429.462       52.036      208.131   184437.532     2707.726    43318.347       11.674       11.523       36.080      290.346       64.758      332.074        0.506      854.236
01/23/2021  04:52:00      -63.304       70.753      -16.156      207.048       79.649       99.089    42868.722     6343.913     9818.620        3.414        2.952       94.939      129.524        1.861      331.839        0.114      854.245
01/23/2021  04:53:00       57.286       49.738      -24.231      484.249       50.488      228.931   234496.844     2549.080    52409.210       14.784       14.473       75.865      328.272       18.723      332.157        0.646      854.253
01/23/2021  04:54:00      -38.912       33.386        1.968      232.221       46.863      111.051    53926.733     2196.108    12332.229        3.553        3.423       51.272      153.313        8.941      331.878        0.180      854.257
01/23/2021  04:55:00       12.478       54.585      -18.006      363.508       57.574      177.371   132137.733     3314.743    31460.444        8.515        8.346       55.993      248.879       19.756      332.019        0.414      854.263
01/23/2021  04:56:00        4.157      108.772      -13.526      248.276       80.711      119.324    61640.903     6514.275    14238.183        4.720        4.120      108.851      163.875        2.267      331.918        0.245      854.261
01/23/2021  04:57:00       -9.156      113.381      -15.523      335.427       51.896      158.681   112511.465     2693.241    25179.624        7.675        7.019      113.750      225.573        3.933      332.056        0.475      854.263
01/23/2021  04:58:00      -18.630       76.075      -34.558      396.008       46.402      187.985   156822.025     2153.130    35338.544       10.078        9.716       78.323      269.870       11.872      331.992        0.370      854.287
01/23/2021  04:59:00       72.153       57.604      -18.180      480.110       73.895      228.113   230505.794     5460.454    52035.634       14.837       14.400       92.326      328.015       12.622      332.161        0.651      854.288
01/23/2021  05:00:00        1.858       71.728        1.882      281.634       52.970      139.073    79317.531     2805.869    19341.260        5.329        5.073       71.752      191.212        7.102      332.015        0.403      854.294
01/23/2021  05:01:00      -17.562       60.416       -9.762      327.156       48.558      161.926   107031.346     2357.889    26219.987        6.980        6.780       62.917      226.418       12.950      332.017        0.410      854.318
01/23/2021  05:02:00       -5.263       75.280      -32.292      419.251       60.769      201.516   175771.726     3692.814    40608.625       11.336       11.004       75.463      287.472       14.512      332.055        0.474      854.325
01/23/2021  05:03:00        9.548       25.333      -26.988      427.412       48.760      204.287   182680.707     2377.497    41733.288       11.408       11.340       27.073      291.785      116.163      332.080        0.517      854.326
01/23/2021  05:04:00       11.076       25.442        8.188      245.321       57.537      125.035    60182.334     3310.486    15633.767        3.997        3.956       27.749      168.624       36.928      332.036        0.439      854.333
01/23/2021  05:05:00       40.587        6.767        3.417      187.063       44.664       91.524    34992.411     1994.898     8376.709        2.353        2.268       41.147      126.166        9.402      331.989        0.361      854.331
01/23/2021  05:06:00       63.978       27.445      -31.253      478.148       45.724      227.484   228625.276     2090.692    51748.744       14.409       14.123       69.616      327.013       22.065      332.229        0.763      854.339
01/23/2021  05:07:00      -23.747       29.730      -24.487      370.812       53.638      180.754   137501.314     2877.016    32672.180        8.751        8.653       38.050      254.670       44.796      332.051        0.468      854.364
01/23/2021  05:08:00       -9.755       36.633      -11.152      292.439       56.265      142.332    85520.311     3165.757    20258.384        5.523        5.447       37.910      198.890       27.525      331.998        0.378      854.376
01/23/2021  05:09:00       93.514       44.235      -37.161      480.316       54.650      229.278   230703.328     2986.577    52568.455       14.911       14.313      103.449      328.283       10.070      332.282        0.851      854.391
01/23/2021  05:10:00        0.465       66.546      -18.501      337.176       58.729      162.816   113687.873     3449.058    26509.156        7.418        7.182       66.547      230.016       11.947      332.043        0.452      854.402
01/23/2021  05:11:00        5.543       83.202        1.940      257.750       47.303      126.853    66435.268     2237.604    16091.608        4.584        4.238       83.387      176.704        4.491      332.068        0.493      854.412
01/23/2021  05:12:00       40.941       59.507      -43.200      500.736       53.841      236.432   250736.430     2898.814    55899.896       15.824       15.477       72.231      339.854       22.138      332.266        0.824      854.426
01/23/2021  05:13:00       55.089       66.151      -38.985      504.604       45.311      242.695   254624.817     2053.078    58900.893       16.219       15.779       86.086      347.564       16.301      332.222        0.752      854.438
01/23/2021  05:14:00       49.649       64.970      -17.350      360.682       64.502      177.671   130091.421     4160.471    31567.145        8.637        8.291       81.768      249.033        9.276      332.135        0.604      854.442
01/23/2021  05:15:00       75.892      106.100      -45.920      514.817       55.121      248.347   265036.428     3038.270    61676.346       17.437       16.488      130.449      354.723        7.394      332.280        0.849      854.453
01/23/2021  05:16:00       19.501       40.214       -1.274      285.435       57.592      140.394    81472.860     3316.881    19710.568        5.323        5.225       44.693      195.626       19.159      332.050        0.464      854.461
01/23/2021  05:17:00       77.081       31.794      -11.640      352.153       52.597      168.502   124011.573     2766.410    28393.067        8.110        7.759       83.381      239.531        8.253      332.114        0.571      854.466
01/23/2021  05:18:00       36.387       20.013       12.056      249.565       66.757      125.884    62282.911     4456.438    15846.801        4.221        4.129       41.528      169.328       16.626      331.997        0.376      854.492
01/23/2021  05:19:00       55.069       31.003       -5.526      253.090       59.126      123.927    64054.680     3495.827    15357.894        4.345        4.145       63.196      171.209        7.340      331.964        0.320      854.511
01/23/2021  05:20:00       12.287       12.410       -2.756      203.642       51.302      103.889    41469.928     2631.932    10793.016        2.759        2.745       17.463      135.790       60.462      331.971        0.332      854.521
01/23/2021  05:21:00       46.453       87.302       -9.755      273.692       52.450      133.888    74907.584     2750.992    17926.053        5.271        4.779       98.891      187.006        3.576      331.939        0.279      854.536
01/23/2021  05:22:00      -18.888       54.494       -2.871      309.635       58.646      142.046    95873.872     3439.386    20177.010        6.139        5.975       57.674      197.085       11.677      331.910        0.231      854.544
01/23/2021  05:23:00      -33.658       37.776       -9.198      321.174       56.305      152.656   103152.811     3170.266    23303.987        6.611        6.481       50.596      206.021       16.580      331.847        0.129      854.560
01/23/2021  05:24:00      -21.244       71.267      -12.178      275.955       61.455      132.624    76151.235     3776.772    17589.232        5.158        4.876       74.366      180.793        5.910      331.827        0.096      854.573
01/23/2021  05:25:00     -174.034       32.640      -19.345      297.877       72.225      149.996    88730.938     5216.419    22498.814        7.406        5.822      177.068      193.179        1.190      331.727       -0.070      854.566
01/23/2021  05:26:00     -110.682       46.149      -13.716      224.721       66.315      103.740    50499.605     4397.696    10762.087        4.010        3.283      119.917      136.285        1.292      331.679       -0.150      854.571
01/23/2021  05:27:00      -50.593        8.674       -7.875      256.659       67.511      123.579    65873.969     4557.735    15271.808        4.418        4.285       51.331      160.635        9.793      331.735       -0.058      854.602
01/23/2021  05:28:00        3.335      114.381      -15.691      185.982       72.947       93.748    34589.488     5321.331     8788.739        3.101        2.435      114.429      122.747        1.151      331.683       -0.142      854.609
01/23/2021  05:29:00       46.662      150.965       -5.005      240.342       65.196      124.820    57764.084     4250.473    15579.987        5.128        3.880      158.012      164.309        1.081      331.734       -0.059      854.596
01/23/2021  05:30:00      -61.898       39.457       -7.652      258.816       53.410      122.491    66985.910     2852.644    15003.937        4.513        4.242       73.405      167.123        5.183      331.729       -0.066      854.595
01/23/2021  05:31:00       -5.665       70.427       -1.242      247.184       64.904      116.273    61099.932     4212.545    13519.341        4.190        3.942       70.654      160.453        5.157      331.726       -0.072      854.597
01/23/2021  05:32:00      -27.180       42.425       -7.970      319.940       51.068      149.097   102361.470     2607.909    22230.031        6.487        6.360       50.385      214.525       18.128      331.755       -0.021      854.591
01/23/2021  05:33:00      -40.486       19.638      -36.510      460.302       63.343      211.160   211877.755     4012.378    44588.627       13.186       13.024       44.997      303.535       45.504      331.828        0.103      854.574
01/23/2021  05:34:00     -120.957       44.415      -39.016      465.776       60.558      220.586   216947.099     3667.266    48658.024       14.364       13.464      128.854      315.379        5.991      331.827        0.098      854.575
01/23/2021  05:35:00     -169.260       32.192      -19.158      296.944       69.049      144.673    88176.008     4767.764    20930.373        7.194        5.694      172.294      195.946        1.293      331.678       -0.152      854.590
01/23/2021  05:36:00      -82.069       54.672      -19.187      303.407       50.786      145.725    92055.977     2579.203    21235.915        6.296        5.794       98.612      203.712        4.267      331.703       -0.108      854.593
01/23/2021  05:37:00      -76.222       80.530      -36.188      478.247       58.701      227.358   228720.222     3445.835    51691.522       14.867       14.193      110.882      321.968        8.431      331.768        0.002      854.586
01/23/2021  05:38:00     -136.958       23.545       -1.531      260.638       84.075      127.899    67931.970     7068.644    16358.088        5.532        4.568      138.967      162.981        1.375      331.647       -0.204      854.588
01/23/2021  05:39:00     -112.152       32.018        0.425      194.649       47.423       99.992    37888.193     2248.967     9998.485        3.186        2.507      116.633      124.162        1.133      331.589       -0.298      854.609
01/23/2021  05:40:00      -33.000       35.620      -23.609      381.278       50.084      181.257   145373.135     2508.421    32854.160        9.179        9.037       48.557      258.996       28.450      331.766       -0.003      854.610
01/23/2021  05:41:00     -146.280       25.894       -6.760      228.997       51.889      108.350    52439.404     2692.490    11739.641        4.448        3.344      148.554      147.165        0.981      331.561       -0.345      854.623
01/23/2021  05:42:00      -99.874       41.349      -27.724      392.476       54.732      188.179   154037.601     2995.641    35411.394       10.241        9.622      108.095      264.281        5.978      331.672       -0.157      854.629
01/23/2021  05:43:00      -31.794       37.540      -21.059      413.156       47.301      198.765   170697.674     2237.428    39507.339       10.761       10.622       49.195      282.525       32.982      331.716       -0.083      854.631
01/23/2021  05:44:00      -76.089       27.669      -18.713      385.286       58.708      183.898   148445.169     3446.572    33818.484        9.627        9.286       80.964      259.901       10.305      331.691       -0.126      854.632
01/23/2021  05:45:00      -47.712       -0.585       -2.254      193.412       45.399       94.086    37408.325     2061.049     8852.173        2.529        2.416       47.715      128.718        7.277      331.593       -0.290      854.633
01/23/2021  05:46:00       10.089        0.590      -16.713      408.358       49.680      195.008   166755.935     2468.082    38028.058       10.377       10.363       10.106      278.834      761.241      331.856        0.148      854.650
01/23/2021  05:47:00     -119.247       58.035       -8.468      316.992       68.238      142.782   100483.843     4656.470    20386.759        7.157        6.276      132.620      195.446        2.172      331.645       -0.206      854.667
01/23/2021  05:48:00     -180.293       79.415       -9.113      195.600       65.158       98.857    38259.393     4245.619     9772.791        4.558        2.614      197.009      120.179        0.372      331.526       -0.403      854.680
01/23/2021  05:49:00     -124.254       73.862      -18.695      394.061       73.572      185.925   155284.036     5412.795    34568.110       10.821        9.763      144.550      258.319        3.194      331.677       -0.152      854.687
01/23/2021  05:50:00      -89.609       24.332      -36.762      428.044       62.548      196.364   183221.760     3912.218    38558.682       11.778       11.285       92.854      282.520        9.258      331.810        0.069      854.700
01/23/2021  05:51:00     -117.001       43.140       -3.151      201.382       62.076       91.841    40554.900     3853.459     8434.686        3.419        2.642      124.701      116.877        0.878      331.592       -0.294      854.712
01/23/2021  05:52:00     -189.130       28.915       -5.744      174.995       61.075       86.015    30623.154     3730.131     7398.600        3.919        2.088      191.328      110.926        0.336      331.559       -0.350      854.720
01/23/2021  05:53:00     -117.253       17.625      -11.412      267.945       51.328      133.706    71794.450     2634.583    17877.259        5.323        4.615      118.570      181.094        2.333      331.666       -0.169      854.720
01/23/2021  05:54:00      -35.191       -4.001      -36.344      473.685       62.456      223.558   224377.547     3900.779    49978.122       14.036       13.913       35.418      318.781       81.012      331.908        0.235      854.727
01/23/2021  05:55:00     -122.034        0.430       -8.515      327.753       64.359      162.449   107422.352     4142.084    26389.563        7.643        6.898      122.035      214.826        3.099      331.724       -0.075      854.746
01/23/2021  05:56:00      -62.570       -4.158      -10.396      318.391       60.825      152.343   101373.132     3699.680    23208.447        6.613        6.414       62.708      198.049        9.975      331.729       -0.066      854.749
01/23/2021  05:57:00     -119.154      -21.359      -22.632      412.434       71.126      201.695   170102.203     5058.941    40680.697       11.546       10.792      121.053      276.793        5.228      331.819        0.085      854.754
01/23/2021  05:58:00      -43.950       19.270      -30.407      371.460       62.217      178.342   137982.213     3870.926    31805.879        8.841        8.683       47.989      249.817       27.100      331.841        0.122      854.744
01/23/2021  05:59:00      -42.858       -4.828      -29.220      419.798       49.990      202.600   176230.770     2498.959    41046.654       11.120       10.989       43.129      286.167       44.025      331.922        0.256      854.747
01/23/2021  06:00:00      -72.075       10.240      -29.064      392.087       47.105      183.717   153732.161     2218.894    33751.756        9.788        9.485       72.799      264.418       13.193      331.879        0.184      854.759
01/23/2021  06:01:00      -40.117       32.435      -25.568      442.419       59.357      211.100   195734.794     3523.246    44563.265       12.351       12.191       51.588      299.681       33.746      331.915        0.246      854.776
01/23/2021  06:02:00      -74.617        4.324       -8.592      247.963       53.977      115.104    61485.844     2913.544    13248.985        4.164        3.882       74.742      162.933        4.752      331.747       -0.036      854.785
01/23/2021  06:03:00      -14.572       13.014       -8.664      295.760       53.994      144.173    87474.137     2915.403    20785.838        5.579        5.559       19.537      199.093      103.844      331.816        0.077      854.796
01/23/2021  06:04:00       11.262        9.641       -7.608      287.551       43.776      139.347    82685.745     1916.328    19417.708        5.213        5.201       14.825      196.461      175.623      331.856        0.144      854.809
01/23/2021  06:05:00      -21.959       39.975      -21.404      348.074       43.170      167.000   121155.692     1863.645    27889.017        7.669        7.545       45.609      236.120       26.802      331.861        0.154      854.811
01/23/2021  06:06:00      -64.689       82.833      -40.681      390.522       36.161      186.551   152507.581     1307.618    34801.307       10.062        9.431      105.100      267.480        6.477      331.766       -0.000      854.826
01/23/2021  06:07:00       -4.496      -13.646      -30.139      349.388       42.056      169.954   122071.641     1768.728    28884.232        7.689        7.636       14.367      240.638      280.523      331.813        0.077      854.836
01/23/2021  06:08:00      -11.429       29.860       -0.440      173.649       46.335       85.055    30154.146     2146.930     7234.363        2.027        1.977       31.972      116.951       13.380      331.668       -0.166      854.833
01/23/2021  06:09:00       31.569        2.283      -39.474      495.902       44.083      234.073   245919.087     1943.306    54790.397       15.254       15.133       31.652      338.738      114.534      331.943        0.294      854.833
01/23/2021  06:10:00      -99.438      -37.441      -27.755      268.618       40.259      120.021    72155.874     1620.747    14405.114        5.010        4.409      106.253      175.142        2.717      331.732       -0.059      854.827
01/23/2021  06:11:00       14.387      -15.868      -67.326      571.534       38.742      272.945   326651.619     1500.965    74499.053       20.374       20.133       21.419      393.350      337.241      332.167        0.665      854.852
01/23/2021  06:12:00      -85.638      -49.636      -16.448      300.540       41.033      142.614    90324.127     1683.724    20338.619        6.118        5.617       98.983      201.312        4.136      331.866        0.162      854.872
01/23/2021  06:13:00      -52.459      -13.517      -12.796      307.861       47.015      146.696    94778.161     2210.363    21519.645        6.078        5.925       54.172      208.032       14.747      331.901        0.218      854.868
01/23/2021  06:14:00      -98.577       -7.141      -10.116      368.869       62.586      181.786   136064.584     3917.038    33046.240        9.141        8.651       98.835      252.503        6.527      331.988        0.363      854.871
01/23/2021  06:15:00     -163.717      -81.193      -40.235      386.182       82.020      185.323   149136.905     6727.238    34344.568       11.257        9.510      182.745      260.831        2.037      331.951        0.301      854.879
01/23/2021  06:16:00      -81.311      -28.241      -24.953      409.231       88.354      191.017   167470.316     7806.411    36487.651       10.985       10.588       86.076      271.459        9.946      332.064        0.486      854.877
01/23/2021  06:17:00     -117.985     -100.925      -19.817      249.735       69.511      119.845    62367.413     4831.772    14362.726        5.301        4.078      155.262      157.787        1.033      331.939        0.278      854.872
01/23/2021  06:18:00     -165.479      -20.536      -16.514      320.337       79.432      154.574   102615.611     6309.390    23893.043        8.042        6.641      166.748      208.490        1.563      331.977        0.341      854.888
01/23/2021  06:19:00     -122.643      -59.686      -36.188      356.874       67.640      174.633   127358.988     4575.216    30496.664        9.114        8.122      136.395      235.899        2.991      332.031        0.431      854.880
01/23/2021  06:20:00     -104.309      -91.025      -45.989      424.906       76.569      203.821   180544.806     5862.808    41542.894       12.457       11.398      138.441      287.997        4.328      332.129        0.594      854.871
01/23/2021  06:21:00      -85.989     -112.269      -59.968      432.151      152.943      249.628   186754.338    23391.474    62314.003       14.797       13.623      141.416      312.374        4.879      332.272        0.834      854.856
01/23/2021  06:22:00      -87.134      -24.478      -10.436      307.119       60.799      152.618    94321.941     3696.535    23292.193        6.478        6.066       90.507      209.304        5.348      332.054        0.471      854.867
01/23/2021  06:23:00     -116.176      -21.853       -5.933      174.555       47.503       85.207    30469.290     2256.537     7260.216        2.699        1.999      118.213      107.986        0.834      331.963        0.318      854.873
01/23/2021  06:24:00     -160.156      -77.104      -12.875      220.564       67.638       91.092    48648.608     4574.832     8297.721        4.663        3.076      177.750      108.867        0.375      331.976        0.338      854.871
01/23/2021  06:25:00     -175.165      -77.985      -20.768      209.439       96.187      101.572    43864.562     9251.845    10316.792        5.030        3.172      191.740      128.937        0.452      331.997        0.372      854.848
01/23/2021  06:26:00     -199.503      -65.597      -38.714      334.388       68.949      161.120   111815.303     4753.949    25959.587        9.404        7.126      210.010      220.210        1.099      331.992        0.367      854.882
01/23/2021  06:27:00     -123.220      -27.472      -24.891      331.562       53.826      156.686   109933.062     2897.237    24550.628        7.694        6.869      126.245      216.003        2.927      332.052        0.465      854.892
01/23/2021  06:28:00      -80.757      -12.469      -20.471      373.241       51.881      175.298   139309.087     2691.689    30729.369        8.988        8.637       81.713      247.583        9.180      332.094        0.537      854.883
01/23/2021  06:29:00      -53.182      -99.703      -22.756      389.321       81.954      180.342   151570.966     6716.508    32523.284       10.201        9.541      113.000      260.299        5.306      332.279        0.843      854.870
01/23/2021  06:30:00      -95.696      -64.129       -8.807       42.339       66.570       34.353     1792.576     4431.591     1180.145        1.037        0.370      115.197       34.577        0.090      332.176        0.668      854.882
01/23/2021  06:31:00      -43.220      -14.268      -21.002      336.009       67.078      160.527   112902.071     4499.412    25769.047        7.281        7.159       45.514      228.334       25.168      332.203        0.715      854.915
01/23/2021  06:32:00      -39.930       49.243      -17.373      353.745       46.215      169.682   125135.348     2135.791    28791.871        8.016        7.803       63.398      241.965       14.567      332.235        0.770      854.910
01/23/2021  06:33:00       -5.743      -18.248       -6.973      330.484       51.867      164.103   109219.696     2690.194    26929.703        6.960        6.942       19.130      229.493      143.913      332.270        0.828      854.913
01/23/2021  06:34:00       57.119        1.446      -43.855      509.262       49.693      247.504   259348.042     2469.354    61258.440       16.406       16.154       57.138      352.447       38.049      332.444        1.118      854.911
01/23/2021  06:35:00       26.541       24.758      -17.766      408.001       49.353      199.002   166464.814     2435.732    39601.608       10.502       10.425       36.295      281.718       60.245      332.274        0.836      854.922
01/23/2021  06:36:00      -20.526       38.680      -13.095      321.793       46.863      150.707   103550.961     2196.152    22712.617        6.525        6.423       43.788      214.420       23.978      332.318        0.906      854.915
01/23/2021  06:37:00       40.170      113.915      -23.908      426.123       52.901      199.385   181580.561     2798.473    39754.563       11.960       11.207      120.790      287.030        5.647      332.700        1.537      854.927
01/23/2021  06:38:00      -49.452       76.984       -8.080      227.843       59.370      107.630    51912.334     3524.801    11584.205        3.772        3.351       91.499      146.756        2.573      332.496        1.199      854.932
01/23/2021  06:39:00       -7.442      -14.137       -2.722      223.728       51.381      109.759    50054.393     2639.999    12047.002        3.249        3.237       15.977      151.699       90.156      332.489        1.187      854.925
01/23/2021  06:40:00       24.276        5.937      -11.306      332.751       55.031      162.093   110723.357     3028.442    26274.113        7.036        7.001       24.992      228.149       83.339      332.748        1.615      854.931
01/23/2021  06:41:00       55.598      107.065      -12.696      262.645      106.509      126.957    68982.497    11344.234    16118.180        5.556        4.822      120.640      174.037        2.081      332.704        1.542      854.945
01/23/2021  06:42:00      -61.542      111.322      -14.323      264.609       72.413      114.068    70017.673     5243.657    13011.574        5.231        4.414      127.201      156.871        1.521      332.688        1.513      854.927
01/23/2021  06:43:00      -29.046      161.044      -19.486      353.148       64.741      168.203   124713.515     4191.421    28292.345        9.214        7.860      163.642      237.488        2.106      332.835        1.760      854.936
01/23/2021  06:44:00        1.084       58.770      -24.656      420.736       69.356      204.483   177018.641     4810.251    41813.374       11.381       11.182       58.780      287.717       23.959      332.916        1.896      854.942
01/23/2021  06:45:00      -20.268       55.745      -32.080      322.033       54.306      163.023   103705.085     2949.105    26576.344        6.886        6.662       59.315      223.085       14.145      332.866        1.810      854.952
01/23/2021  06:46:00      -23.101       78.406      -15.133      354.065       66.288      168.764   125361.913     4394.110    28481.182        8.254        7.912       81.738      235.885        8.328      332.829        1.751      854.950
01/23/2021  06:47:00     -104.155       79.753      -12.872      294.459       86.285      129.721    86705.992     7445.074    16827.511        6.415        5.549      131.182      177.938        1.840      332.702        1.536      854.960
01/23/2021  06:48:00      -64.316       66.319       -1.821      272.600       83.531      120.638    74310.510     6977.355    14553.622        5.217        4.792       92.383      163.234        3.122      332.766        1.644      854.973
01/23/2021  06:49:00      -47.231      103.208      -31.632      384.611       53.284      183.951   147925.953     2839.222    33837.840        9.920        9.230      113.501      255.883        5.083      332.848        1.782      854.981
01/23/2021  06:50:00      -33.025      143.921      -12.227      230.184       77.685      110.877    52984.774     6034.923    12293.636        4.662        3.566      147.661      150.886        1.044      332.750        1.616      854.982
01/23/2021  06:51:00       28.385       88.848       -5.458      373.694       61.330      182.678   139647.098     3761.370    33371.291        9.272        8.839       93.272      254.178        7.426      332.983        2.005      854.991
01/23/2021  06:52:00       47.462       88.330        3.814      159.221       60.152       72.129    25351.430     3618.294     5202.556        2.211        1.709      100.274       96.638        0.929      332.780        1.666      855.018
01/23/2021  06:53:00       73.496       54.426       -5.394      285.900       67.508      138.774    81738.900     4557.292    19258.117        5.695        5.278       91.454      193.072        4.457      332.881        1.835      855.029
01/23/2021  06:54:00       23.346      139.754      -14.274      182.201      120.961       86.951    33197.208    14631.643     7560.422        3.782        2.769      141.690      113.451        0.641      332.761        1.634      855.046
01/23/2021  06:55:00      -37.417      267.351      -19.129      301.179       80.778      148.251    90708.817     6525.147    21978.446        9.620        5.961      269.956      205.084        0.577      332.796        1.692      855.023
01/23/2021  06:56:00      -33.991      257.177      -18.690      181.841       61.257       90.434    33066.020     3752.361     8178.380        5.631        2.250      259.413      119.611        0.213      332.673        1.485      855.031
01/23/2021  06:57:00       83.444      178.897      -38.518      435.498       56.234      208.895   189658.868     3162.245    43637.005       13.840       11.823      197.401      298.352        2.284      332.930        1.918      855.040
01/23/2021  06:58:00       34.950      152.128      -23.325      356.062       65.113      175.403   126780.282     4239.688    30766.234        9.331        8.089      156.091      244.801        2.460      332.948        1.946      855.053
01/23/2021  06:59:00      -11.319       86.038        0.376      159.958       54.815       76.791    25586.437     3004.712     5896.873        2.100        1.724       86.780      100.658        1.345      332.760        1.632      855.063
01/23/2021  07:00:00        1.356       94.746      -11.552      341.268       67.363      158.487   116463.988     4537.772    25117.992        7.759        7.306       94.755      227.397        5.759      332.863        1.805      855.066
01/23/2021  07:01:00       17.351      121.900      -16.956      267.800       59.626      124.976    71717.104     3555.305    15618.962        5.315        4.545      123.129      178.236        2.095      332.838        1.763      855.067
01/23/2021  07:02:00     -182.752      -18.155       -0.827      173.527       78.551       87.899    30111.703     6170.285     7726.235        3.886        2.200      183.652       90.845        0.245      332.698        1.528      855.053
01/23/2021  07:03:00       -0.501       -6.559       -6.536      314.260       78.755      151.030    98759.471     6202.384    22810.102        6.390        6.389        6.578      197.352      900.121      332.814        1.725      855.056
01/23/2021  07:04:00       -7.218       62.072      -21.277      323.943       53.561      158.569   104939.139     2868.731    25144.162        6.863        6.648       62.490      215.179       11.857      332.835        1.759      855.064
01/23/2021  07:05:00       41.085       28.336        7.583       43.849       57.889       38.621     1922.723     3351.129     1491.603        0.466        0.338       49.909       35.862        0.516      332.781        1.668      855.054
01/23/2021  07:06:00      -63.064       61.700       -4.655      217.662       53.725      106.310    47376.911     2886.392    11301.718        3.467        3.078       88.227      141.832        2.584      332.746        1.610      855.084
01/23/2021  07:07:00      -44.188       53.177      -23.189      297.047       54.026      151.630    88236.977     2918.761    22991.512        5.971        5.707       69.140      207.142        8.976      332.817        1.730      855.084
01/23/2021  07:08:00      -10.917       12.533       -0.318      220.059       63.072      107.083    48426.117     3978.131    11466.717        3.206        3.194       16.621      145.314       76.439      332.818        1.731      855.066
01/23/2021  07:09:00      -25.038        6.592       -2.204      271.396       52.303      127.465    73655.819     2735.574    16247.208        4.664        4.632       25.892      177.988       47.257      332.817        1.729      855.070
01/23/2021  07:10:00       17.703       15.596      -23.755      383.786       88.710      179.909   147291.535     7869.470    32367.136        9.428        9.376       23.593      257.950      119.539      332.964        1.976      855.076
01/23/2021  07:11:00        9.416       11.008      -30.450      419.943       76.478      196.872   176352.473     5848.909    38758.754       11.100       11.048       14.486      280.969      376.195      332.992        2.021      855.083
01/23/2021  07:12:00     -129.122       70.570       -9.027      176.343       94.014       90.236    31096.807     8838.609     8142.450        3.490        2.404      147.148      102.663        0.487      332.721        1.566      855.098
01/23/2021  07:13:00     -156.703       96.462      -30.583      406.778       97.434      192.498   165468.553     9493.395    37055.474       12.336       10.601      184.013      259.660        1.991      332.863        1.805      855.102
01/23/2021  07:14:00      -98.483      121.885      -18.460      178.870       73.874       88.392    31994.435     5457.340     7813.059        3.507        2.263      156.700      109.027        0.484      332.709        1.549      855.113
01/23/2021  07:15:00      -47.778      126.352      -13.581      258.395       62.702      125.815    66767.944     3931.564    15829.383        5.246        4.326      135.083      172.427        1.629      332.771        1.651      855.136
01/23/2021  07:16:00     -203.231       80.743      -16.907      257.828       63.363      117.356    66475.450     4014.886    13772.519        6.617        4.213      218.683      157.217        0.517      332.741        1.599      855.133
01/23/2021  07:17:00     -187.942       31.663       -0.371      291.186       97.266      132.689    84789.031     9460.728    17606.303        7.407        5.593      190.590      171.411        0.809      332.720        1.565      855.136
01/23/2021  07:18:00      -83.260       60.255      -34.164      486.445       86.602      224.626   236628.826     7499.967    50456.779       15.310       14.729      102.776      320.632        9.733      332.915        1.893      855.159
01/23/2021  07:19:00     -131.468       12.075       17.673      117.643       67.051       49.270    13839.899     4495.887     2427.541        1.925        1.038      132.021       46.122        0.122      332.663        1.471      855.145
01/23/2021  07:20:00      -80.637      109.017      -24.234      332.791       92.855      171.332   110749.774     8622.050    29354.542        8.382        7.436      135.599      224.793        2.748      332.813        1.723      855.179
01/23/2021  07:21:00     -128.016      103.918       -8.305       92.175       63.492       44.018     8496.268     4031.286     1937.543        2.086        0.723      164.884       42.595        0.067      332.649        1.448      855.166
01/23/2021  07:22:00      -28.030       68.487       -5.478      306.783       59.531      146.884    94115.699     3543.931    21574.768        6.234        5.962       74.001      203.117        7.534      332.766        1.645      855.171
01/23/2021  07:23:00       59.547      118.116      -26.008      372.957       70.478      180.560   139097.200     4967.212    32602.035        9.738        8.833      132.277      254.127        3.691      332.943        1.938      855.190
01/23/2021  07:24:00       19.874      157.442      -23.579      310.069       67.865      149.207    96142.490     4605.619    22262.725        7.435        6.151      158.692      209.160        1.737      332.889        1.847      855.192
01/23/2021  07:25:00       -2.888       17.244      -16.854      316.842       77.798      147.599   100388.891     6052.502    21785.536        6.438        6.411       17.484      209.423      143.470      332.906        1.875      855.203
01/23/2021  07:26:00       75.691       15.186      -17.110      335.529       48.827      162.173   112579.676     2384.108    26300.047        7.373        7.063       77.199      225.016        8.496      332.890        1.850      855.224
01/23/2021  07:27:00      -55.122       18.782      -11.520      264.456       65.682      126.748    69937.049     4314.148    16064.949        4.690        4.516       58.234      169.230        8.445      332.796        1.693      855.253
01/23/2021  07:28:00       63.159       72.361        6.118      283.772       86.502      133.809    80526.680     7482.511    17904.724        5.757        5.296       96.048      184.271        3.681      332.844        1.773      855.268
01/23/2021  07:29:00      -86.582       72.240        1.138       66.893       89.674       44.320     4474.635     8041.363     1964.282        1.360        0.724      112.761       34.677        0.095      332.698        1.529      855.299
01/23/2021  07:30:00        0.340      115.380        4.507      172.131       59.023       84.585    29628.970     3483.736     7154.681        2.679        2.013      115.380      106.349        0.850      332.779        1.664      855.317
01/23/2021  07:31:00       -4.846       26.365       -4.519      244.426       86.651      116.148    59743.985     7508.432    13490.259        4.072        4.037       26.807      161.101       36.116      332.868        1.813      855.320
01/23/2021  07:32:00       -5.449       90.710        1.935      232.614       67.785      114.182    54109.197     4594.871    13037.467        3.999        3.587       90.874      151.842        2.792      332.830        1.748      855.324
01/23/2021  07:33:00      -41.530       33.552       11.137      238.219       77.330      112.579    56748.505     5979.910    12674.092        3.917        3.770       53.390      145.136        7.390      332.768        1.647      855.336
01/23/2021  07:34:00       -2.193       63.227        1.715      279.485       60.007      132.572    78111.778     3600.899    17575.402        5.163        4.964       63.265      181.157        8.199      332.842        1.771      855.357
01/23/2021  07:35:00       -8.780       49.258       -1.227      266.310       82.956      132.573    70921.178     6881.616    17575.504        4.892        4.769       50.035      178.214       12.687      332.854        1.791      855.352
01/23/2021  07:36:00      -68.521       28.924        0.186      212.672       51.329      107.036    45229.344     2634.651    11456.748        3.241        2.966       74.376      142.585        3.675      332.762        1.636      855.353
01/23/2021  07:37:00       15.175       35.532        8.116      276.577       58.643      132.087    76494.881     3438.944    17447.046        4.945        4.869       38.637      180.022       21.709      332.812        1.721      855.358
01/23/2021  07:38:00       90.522       30.699      -14.648      402.594       56.660      192.133   162081.952     3210.312    36915.016       10.574       10.110       95.585      274.679        8.258      333.044        2.106      855.369
01/23/2021  07:39:00        9.882       66.511       -6.707      332.198       63.809      167.639   110355.770     4071.618    28102.939        7.352        7.127       67.241      228.673       11.565      332.909        1.882      855.378
01/23/2021  07:40:00       17.860       82.100        1.290      296.209       55.908      144.237    87739.887     3125.743    20804.346        5.934        5.583       84.020      202.363        5.801      332.810        1.716      855.391
01/23/2021  07:41:00      -78.229       43.775        4.970      194.648       53.307      100.153    37888.033     2841.649    10030.720        2.940        2.538       89.644      129.984        2.102      332.778        1.663      855.403
01/23/2021  07:42:00      -52.373       41.195      -18.033      256.556       52.084      123.218    65821.220     2712.722    15182.677        4.422        4.186       66.633      168.847        6.421      332.827        1.745      855.402
01/23/2021  07:43:00        3.847       64.305        6.364      206.460       57.238      102.303    42625.857     3276.200    10465.946        3.027        2.818       64.420      135.591        4.430      332.829        1.746      855.403
01/23/2021  07:44:00       20.867       77.808        5.980      204.663       55.029      101.246    41886.903     3028.204    10250.850        3.083        2.758       80.558      136.199        2.858      332.840        1.764      855.407
01/23/2021  07:45:00      -66.475       47.560       -3.446       75.531       87.288       35.077     5704.881     7619.111     1230.386        1.062        0.728       81.736       27.395        0.112      332.745        1.607      855.408
01/23/2021  07:46:00      -69.229       89.620       -3.520       44.821       53.391       38.369     2008.940     2850.647     1472.204        0.958        0.317      113.245       30.356        0.072      332.734        1.589      855.426
01/23/2021  07:47:00       43.890       62.379        2.075      262.658       52.541      126.416    68989.399     2760.536    15981.091        4.676        4.387       76.273      175.103        5.270      332.873        1.819      855.444
01/23/2021  07:48:00       33.602      137.179      -19.987      231.750       71.659      112.006    53708.012     5135.068    12545.256        4.585        3.569      141.234      155.403        1.211      332.888        1.845      855.463
01/23/2021  07:49:00      -23.529      128.938       -9.160      149.740       51.832       71.800    22422.114     2686.570     5155.266        2.376        1.513      131.067       95.575        0.532      332.826        1.741      855.482
01/23/2021  07:50:00       12.288       96.797        2.563      161.867       52.961       81.819    26200.893     2804.875     6694.429        2.261        1.785       97.574      108.599        1.239      332.807        1.710      855.499
01/23/2021  07:51:00       37.820       62.940      -15.245      380.810       55.437      182.512   145015.983     3073.215    33310.655        9.347        9.070       73.429      260.087       12.546      332.952        1.954      855.531
01/23/2021  07:52:00       72.238       23.564       -4.624      207.018       46.730       99.954    42856.515     2183.739     9990.898        3.040        2.752       75.984      138.074        3.302      332.741        1.602      855.539
01/23/2021  07:53:00       11.285       36.041        5.597       36.123       51.966       27.191     1304.867     2700.516      739.366        0.310        0.237       37.767       32.788        0.754      332.720        1.566      855.552
01/23/2021  07:54:00      141.775       45.504      -29.954      348.846       44.796      171.687   121693.616     2006.700    29476.327        8.809        7.659      148.899      241.547        2.632      332.793        1.691      855.575
01/23/2021  07:55:00      110.079       23.555       -6.044      167.114       59.177       85.773    27927.193     3501.862     7357.067        2.574        1.939      112.571      110.249        0.959      332.696        1.527      855.596
01/23/2021  07:56:00      148.540       52.065       -4.085       38.840       45.756       27.994     1508.531     2093.653      783.686        1.459        0.219      157.400       29.570        0.035      332.559        1.300      855.621
01/23/2021  07:57:00      101.593       84.376       -9.627      148.544       68.618       69.534    22065.238     4708.420     4834.945        2.456        1.580      132.062       88.098        0.445      332.620        1.401      855.644
01/23/2021  07:58:00      100.830       41.696       -4.324      212.799       60.531      102.694    45283.207     3663.968    10546.154        3.570        2.975      109.111      142.936        1.716      332.658        1.465      855.645
01/23/2021  07:59:00      182.976       63.043      -21.683      349.134       48.075      168.369   121894.273     2311.189    28347.989        9.521        7.628      193.532      239.086        1.526      332.559        1.303      855.663
01/23/2021  08:00:00      134.102       45.197        3.653      140.353       56.884       70.470    19699.056     3235.748     4965.993        2.396        1.395      141.514       89.734        0.402      332.454        1.127      855.685
01/23/2021  08:01:00      173.348       61.333       -1.772       38.554       47.982       35.104     1486.379     2302.283     1232.311        1.942        0.251      183.879       29.584        0.026      332.308        0.887      855.702
01/23/2021  08:02:00       97.258       42.469       -1.059       48.854       49.549       28.372     2386.678     2455.079      804.981        0.845        0.282      106.126       19.805        0.035      332.393        1.027      855.711
01/23/2021  08:03:00      203.727       94.965      -27.689      345.213       49.942      160.950   119172.238     2494.183    25904.752        9.940        7.379      224.774      231.471        1.060      332.424        1.081      855.737
01/23/2021  08:04:00      118.118       37.819      -11.227      251.126       54.739      120.542    63064.094     2996.314    14530.358        4.803        4.030      124.025      165.246        1.775      332.442        1.109      855.755
01/23/2021  08:05:00       82.588       43.061       -2.284      240.260       71.903      115.587    57724.788     5170.022    13360.300        4.245        3.813       93.140      157.558        2.862      332.593        1.357      855.768
01/23/2021  08:06:00      116.414       86.595       -4.193      189.270       55.350       81.682    35823.006     3063.573     6671.998        3.330        2.278      145.089      115.117        0.630      332.465        1.146      855.801
01/23/2021  08:07:00       58.475       79.973      -18.197      314.390       64.412      154.087    98840.945     4148.965    23742.768        6.841        6.337       99.071      214.330        4.680      332.715        1.561      855.814
01/23/2021  08:08:00       76.181      146.872      -19.474      309.081       53.421      143.011    95530.894     2853.754    20452.239        7.327        5.942      165.453      201.670        1.486      332.674        1.493      855.834
01/23/2021  08:09:00      100.356      117.705      -19.128      300.418       77.910      144.288    90251.193     6070.002    20818.888        7.069        5.857      154.679      203.937        1.738      332.701        1.537      855.844
01/23/2021  08:10:00       95.786       88.067      -14.416      281.584       51.463      135.319    79289.393     2648.412    18311.216        5.867        5.012      130.119      189.580        2.123      332.671        1.488      855.843
01/23/2021  08:11:00       49.704       83.059      -32.065      431.936       69.601      200.651   186569.012     4844.350    40260.880       12.099       11.584       96.795      291.202        9.051      332.934        1.926      855.862
01/23/2021  08:12:00       54.692       44.617       -6.090      274.572       49.114      128.968    75389.866     2412.148    16632.821        4.971        4.722       70.583      183.364        6.749      332.672        1.489      855.868
01/23/2021  08:13:00      145.996       43.549       -3.724      220.824       55.512      107.592    48763.370     3081.565    11575.941        4.331        3.171      152.353      147.096        0.932      332.577        1.332      855.867
01/23/2021  08:14:00       75.314       62.579       -1.039      260.878       57.524      124.694    68057.177     3308.976    15548.702        4.823        4.346       97.920      173.177        3.128      332.709        1.550      855.887
01/23/2021  08:15:00      124.108       39.125      -16.020      382.503       56.302      179.841   146308.337     3169.873    32342.811        9.947        9.091      130.129      258.218        3.938      332.858        1.798      855.912
01/23/2021  08:16:00      133.338       76.318       -8.506      156.578       48.799       75.177    24516.778     2381.355     5651.615        2.811        1.627      153.634      102.097        0.442      332.572        1.322      855.916
01/23/2021  08:17:00      133.680       36.239      -22.098      316.008       58.469      153.117    99861.015     3418.569    23444.862        7.317        6.336      138.505      216.269        2.438      332.736        1.596      855.919
01/23/2021  08:18:00      119.921       65.563       -2.013       41.694       63.563       31.315     1738.367     4040.260      980.641        1.272        0.338      136.673       19.811        0.021      332.418        1.067      855.946
01/23/2021  08:19:00      138.615      110.188       -9.658      176.314       54.386       84.150    31086.761     2957.798     7081.200        3.628        2.056      177.075      113.483        0.411      332.510        1.219      855.953
01/23/2021  08:20:00       88.206      133.153       -7.887       49.000       56.223       32.060     2400.998     3160.977     1027.828        1.608        0.329      159.718       11.860        0.006      332.704        1.539      855.958
01/23/2021  08:21:00      129.930       76.365      -17.816      330.412       48.946      158.451   109172.257     2395.759    25106.834        7.982        6.834      150.710      224.794        2.225      332.697        1.530      855.960
01/23/2021  08:22:00       95.181       63.296      -16.594      333.421       54.065      158.669   111169.610     2923.034    25175.885        7.628        6.963      114.306      227.113        3.948      332.670        1.487      855.975
01/23/2021  08:23:00       54.081       61.330      -20.229      334.459       49.575      158.949   111862.682     2457.684    25264.747        7.331        6.979       81.769      226.896        7.700      332.787        1.679      855.984
01/23/2021  08:24:00       54.147       -7.982      -16.751      332.594       52.701      153.221   110618.859     2777.381    23476.628        7.005        6.844       54.732      222.423       16.515      332.901        1.869      855.982
01/23/2021  08:25:00       29.970       26.686       -0.035      291.950       39.637      143.532    85235.038     1571.110    20601.521        5.449        5.370       40.129      201.801       25.289      332.775        1.660      855.999
01/23/2021  08:26:00       78.582       29.312       -2.688      182.373       45.923       83.493    33260.037     2108.906     6971.057        2.468        2.117       83.870      116.464        1.928      332.679        1.499      856.009
01/23/2021  08:27:00        7.438       34.368       18.222       41.269       50.774       27.305     1703.165     2578.013      745.565        0.330        0.251       35.164       35.011        0.991      332.686        1.512      856.022
01/23/2021  08:28:00       87.128       13.300      -15.443      388.694       37.204      186.405   151082.684     1384.138    34746.956        9.757        9.361       88.137      266.304        9.129      332.833        1.757      856.021
01/23/2021  08:29:00       12.218       41.653       10.121       25.303       44.653       25.875      640.230     1993.904      669.500        0.264        0.165       43.408       32.750        0.569      332.705        1.541      856.030
01/23/2021  08:30:00      126.779       30.625      -26.700      421.915       55.138      198.149   178012.342     3040.248    39263.120       11.897       11.016      130.425      286.639        4.830      332.877        1.832      856.044
01/23/2021  08:31:00       55.529       60.690        7.222      155.523       52.790       76.564    24187.546     2786.765     5862.120        1.982        1.642       82.260      102.354        1.548      332.661        1.469      856.067
01/23/2021  08:32:00       54.453       54.549       -5.865      224.397       45.423      109.303    50354.030     2063.215    11947.177        3.516        3.218       77.076      151.801        3.879      332.712        1.554      856.080
01/23/2021  08:33:00       -9.540       55.479      -10.241      218.048       48.215      106.448    47544.981     2324.724    11331.200        3.222        3.060       56.293      146.713        6.792      332.719        1.567      856.092
01/23/2021  08:34:00       81.892       11.399       -4.489      160.928       46.510       77.822    25897.930     2163.138     6056.208        2.048        1.706       82.681      105.030        1.614      332.684        1.507      856.108
01/23/2021  08:35:00       50.561       37.004        8.051      159.943       42.255       79.166    25581.770     1785.482     6267.264        1.881        1.682       62.656      106.237        2.875      332.661        1.469      856.129
01/23/2021  08:36:00       95.488      135.735      -13.698      151.799       83.068       77.556    23042.864     6900.359     6014.951        3.184        1.798      165.958      101.320        0.373      332.637        1.428      856.161
01/23/2021  08:37:00        3.217       69.019        4.045      257.587       47.216      128.210    66351.146     2229.332    16437.721        4.489        4.251       69.094      176.426        6.520      332.752        1.620      856.169
01/23/2021  08:38:00       32.411       87.754        5.101       53.422       44.164       29.908     2853.962     1950.436      894.494        0.724        0.285       93.548       14.997        0.026      332.682        1.503      856.181
01/23/2021  08:39:00       90.934       47.316        5.344       46.247       58.111       34.745     2138.830     3376.894     1207.226        0.863        0.336      102.507       27.811        0.074      332.561        1.302      856.174
01/23/2021  08:40:00       42.338       39.529        3.254      251.995       50.955      122.612    63501.673     2596.421    15033.790        4.223        4.057       57.923      169.488        8.562      332.731        1.587      856.190
01/23/2021  08:41:00       65.925       34.076      -13.511      316.946       47.641      152.079   100454.514     2269.648    23127.958        6.574        6.293       74.211      216.187        8.486      332.768        1.648      856.207
01/23/2021  08:42:00       59.446       54.364       -3.893       39.954       47.182       23.650     1596.307     2226.157      559.345        0.544        0.219       80.556       26.481        0.108      332.570        1.319      856.214
01/23/2021  08:43:00      106.042       60.650      -22.584      331.691       40.641      158.280   110018.981     1651.722    25052.680        7.605        6.836      122.161      226.041        3.424      332.720        1.571      856.227
01/23/2021  08:44:00      121.839       58.703      -24.459      317.973       35.556      146.155   101107.073     1264.219    21361.404        7.128        6.187      135.243      213.232        2.486      332.675        1.494      856.241
01/23/2021  08:45:00      173.405       75.941      -26.002      320.990       46.515      151.695   103034.857     2163.676    23011.479        8.233        6.411      189.304      215.316        1.294      332.668        1.483      856.248
01/23/2021  08:46:00        6.605       17.245       -3.332      163.019       44.031       78.777    26575.147     1938.742     6205.872        1.753        1.736       18.467      103.688       31.526      332.680        1.501      856.249
01/23/2021  08:47:00       16.165       74.384      -11.843      223.411       48.443      111.420    49912.692     2346.755    12414.314        3.529        3.234       76.121      152.443        4.011      332.704        1.540      856.266
01/23/2021  08:48:00       70.818       69.078       -8.657      202.705       37.799       91.410    41089.459     1428.783     8355.727        3.036        2.544       98.929      132.728        1.800      332.696        1.527      856.285
01/23/2021  08:49:00       22.989       64.813       -3.655      162.583       38.767       80.389    26433.135     1502.887     6462.332        1.956        1.720       68.769      109.485        2.535      332.672        1.488      856.284
01/23/2021  08:50:00       44.445       42.979       -1.757      331.395       52.535      164.257   109822.432     2759.911    26980.439        7.166        6.978       61.826      230.086       13.849      332.886        1.845      856.279
01/23/2021  08:51:00       -8.103       25.708       -4.067      305.485       39.932      145.472    93320.873     1594.585    21162.069        5.839        5.804       26.954      206.784       58.854      332.768        1.649      856.285
01/23/2021  08:52:00        0.693        6.054      -12.383      321.015       54.041      144.486   103050.754     2920.463    20876.296        6.349        6.342        6.093      209.080     1177.442      332.804        1.709      856.293
01/23/2021  08:53:00       61.418      -11.867      -12.863      406.399       36.928      194.552   165160.522     1363.652    37850.460       10.418       10.219       62.554      279.682       19.991      332.962        1.972      856.315
01/23/2021  08:54:00       35.352        4.602        9.894       39.396       58.001       25.989     1552.049     3364.061      675.452        0.348        0.280       35.650       19.552        0.301      332.709        1.548      856.335
01/23/2021  08:55:00       -8.158       36.940      -30.417      317.008       33.901      154.698   100494.190     1149.260    23931.540        6.394        6.279       37.830      218.789       33.449      332.809        1.715      856.354
01/23/2021  08:56:00      -12.227       35.757        4.366       35.812       36.504       22.939     1282.469     1332.568      526.198        0.229        0.157       37.790       24.446        0.418      332.704        1.538      856.373
01/23/2021  08:57:00      -19.039      -36.925       -7.132      167.067       35.241       79.976    27911.220     1241.915     6396.174        1.866        1.777       41.544      109.826        6.989      332.751        1.618      856.376
01/23/2021  08:58:00       -9.305       18.179       -5.311      256.489       42.207      122.624    65786.468     1781.463    15036.679        4.151        4.130       20.422      173.174       71.905      332.722        1.574      856.389
01/23/2021  08:59:00      -13.389       38.122      -17.622      286.022       68.531      135.411    81808.840     4696.501    18336.091        5.337        5.242       40.405      192.616       22.726      332.812        1.720      856.387
01/23/2021  09:00:00      -91.544      115.597       -5.643       43.217       51.513       27.146     1867.751     2653.624      736.887        1.352        0.263      147.456       26.964        0.033      332.653        1.456      856.388
01/23/2021  09:01:00     -125.507      134.924      -26.606      233.822       67.170      103.402    54672.537     4511.845    10692.048        5.226        3.494      184.273      131.578        0.510      332.657        1.463      856.385
01/23/2021  09:02:00      -32.116      174.572       -7.734      242.869       77.265      110.849    58985.235     5969.807    12287.546        5.439        3.862      177.501      149.974        0.714      332.741        1.600      856.332
01/23/2021  09:03:00      -42.511        8.395        1.298      190.747       58.262       96.257    36384.517     3394.480     9265.490        2.545        2.452       43.332      119.495        7.605      332.757        1.630      856.317
01/23/2021  09:04:00      -50.520       35.738      -40.793      391.866       69.460      193.718   153558.600     4824.708    37526.846       10.066        9.796       61.883      267.625       18.703      332.909        1.882      856.314
01/23/2021  09:05:00      -43.628       32.575       -3.648      176.048       81.773       89.327    30992.849     6686.897     7979.389        2.431        2.283       54.448      115.360        4.489      332.760        1.633      856.301
01/23/2021  09:06:00     -120.930       36.051      -18.768      232.572       87.267      113.951    54089.554     7615.612    12984.840        4.547        3.735      126.189      132.030        1.095      332.743        1.603      856.286
01/23/2021  09:07:00      -97.680       73.157      -22.354      151.286       57.945       71.900    22887.581     3357.668     5169.664        2.340        1.571      122.039       83.900        0.473      332.714        1.556      856.285
01/23/2021  09:08:00      -24.339       78.543        6.328      166.025       45.522       85.581    27564.369     2072.287     7324.085        2.187        1.848       82.228      107.839        1.720      332.780        1.665      856.293
01/23/2021  09:09:00      -52.560       86.845      -17.587      220.022       76.110      112.571    48409.498     5792.732    12672.280        3.873        3.344      101.512      145.078        2.043      332.735        1.592      856.294
01/23/2021  09:10:00      -48.939       35.101      -20.050      234.304       67.164      106.538    54898.230     4510.982    11350.281        3.738        3.538       60.225      146.809        5.942      332.747        1.612      856.306
01/23/2021  09:11:00      -56.673       41.275      -20.443      176.236       81.625       89.698    31058.985     6662.649     8045.681        2.554        2.288       70.110      109.053        2.419      332.736        1.593      856.309
01/23/2021  09:12:00      -40.085       69.833      -22.322      186.443       59.564       95.906    34760.920     3547.819     9197.911        2.723        2.375       80.520      118.287        2.158      332.754        1.622      856.320
01/23/2021  09:13:00      -40.484      134.148      -15.772      339.251      163.368      168.406   115091.461    26689.166    28360.493        9.498        8.507      140.124      224.008        2.556      332.891        1.850      856.322
01/23/2021  09:14:00      -41.118       32.886       -1.677       83.778       60.531       46.020     7018.803     3664.005     2117.802        0.779        0.640       52.652       37.130        0.497      332.751        1.616      856.333
01/23/2021  09:15:00      -62.829       62.009      -27.242      146.021       62.998       76.010    21322.167     3968.734     5777.470        1.979        1.553       88.276       77.105        0.763      332.794        1.688      856.318
01/23/2021  09:16:00      -70.412      138.769      -15.556       50.814       57.234       45.742     2582.035     3275.676     2092.338        1.620        0.398      155.611       19.946        0.016      332.775        1.655      856.300
01/23/2021  09:17:00      -50.002        6.959      -19.713      103.808       98.906       46.205    10776.032     9782.465     2134.940        1.281        1.135       50.484       32.381        0.411      332.818        1.727      856.285
01/23/2021  09:18:00     -146.730      101.785      -17.962       84.962      100.662       51.449     7218.468    10132.912     2647.028        2.610        1.000      178.577       43.833        0.060      332.788        1.676      856.299
01/23/2021  09:19:00     -142.740       54.197      -19.874       93.637      105.469       56.330     8767.910    11123.719     3173.084        2.338        1.153      152.683       38.996        0.065      332.801        1.698      856.319
01/23/2021  09:20:00     -127.844       59.184      -20.133       70.773      116.148       49.656     5008.839    13490.389     2465.719        2.060        1.048      140.879       55.472        0.155      332.805        1.703      856.345
01/23/2021  09:21:00      -68.474       37.743      -21.642      182.587       80.527       85.971    33337.941     6484.627     7390.939        2.689        2.361       78.187       90.951        1.353      332.857        1.792      856.357
01/23/2021  09:22:00        1.751       29.645       -3.220      204.291       63.061       97.297    41734.807     3976.636     9466.803        2.802        2.759       29.697      133.198       20.118      332.893        1.854      856.382
01/23/2021  09:23:00      -57.824       16.302       -7.872      229.917       81.746      103.303    52861.833     6682.367    10671.505        3.693        3.511       60.078      135.031        5.052      332.905        1.874      856.404
01/23/2021  09:24:00        4.137      103.204      -22.611      339.343       39.017      162.722   115153.644     1522.364    26478.557        7.714        7.158      103.287      230.482        4.979      333.040        2.099      856.431
01/23/2021  09:25:00      -14.022       86.373       -2.944       32.438       46.753       37.351     1052.225     2185.800     1395.131        0.615        0.232       87.504       16.364        0.035      332.876        1.823      856.468
01/23/2021  09:26:00       -6.662      128.506      -17.218      146.341       62.828       67.570    21415.833     3947.346     4565.662        2.339        1.496      128.679       88.926        0.478      332.917        1.891      856.510
01/23/2021  09:27:00      -38.058      146.699      -14.084      226.688       70.994      109.700    51387.229     5040.122    12034.009        4.580        3.423      151.555      150.241        0.983      332.925        1.906      856.542
01/23/2021  09:28:00      -27.860      152.838      -15.862      172.710       55.526       88.395    29828.629     3083.158     7813.729        3.255        2.036      155.357      111.969        0.519      332.891        1.850      856.557
01/23/2021  09:29:00       19.927      143.787      -14.193      270.157       54.798      127.448    72984.689     3002.846    16243.056        5.673        4.612      145.161      180.489        1.546      332.974        1.987      856.551
01/23/2021  09:30:00       25.043      175.944      -10.491      129.473       71.623       62.665    16763.302     5129.887     3926.953        2.875        1.291      177.717       81.283        0.209      332.840        1.763      856.536
01/23/2021  09:31:00      -36.451       62.994        1.022       41.086       41.011       29.155     1688.056     1681.922      850.013        0.476        0.211       72.780       20.117        0.076      332.878        1.827      856.516
01/23/2021  09:32:00       -7.253      129.655       -3.987       57.648       56.270       43.033     3323.249     3166.345     1851.864        1.261        0.417      129.858       22.131        0.029      332.857        1.793      856.496
01/23/2021  09:33:00       -0.432       86.105      -11.436      241.554       52.101      116.954    58348.501     2714.528    13678.338        4.113        3.737       86.106      164.237        3.638      332.985        2.007      856.499
01/23/2021  09:34:00      -91.220      144.141      -20.061      161.815       66.678       80.917    26184.058     4445.916     6547.628        3.333        1.859      170.581      104.302        0.374      332.965        1.971      856.522
01/23/2021  09:35:00      -12.847      160.217      -23.910      326.065       59.821      159.252   106318.217     3578.522    25361.233        8.080        6.763      160.731      223.007        1.925      333.033        2.086      856.551
01/23/2021  09:36:00      -31.943      134.306       -7.877       69.408       82.041       33.798     4817.519     6730.749     1142.317        1.590        0.635      138.052       27.362        0.039      332.980        1.996      856.570
01/23/2021  09:37:00     -100.711      231.077      -13.777       83.140      127.572       51.359     6912.269    16274.615     2637.709        4.477        1.291      252.070       59.330        0.055      332.884        1.835      856.591
01/23/2021  09:38:00       45.333      156.203      -32.186      351.601       71.741      168.769   123623.346     5146.728    28483.134        9.234        7.863      162.648      237.632        2.135      333.110        2.214      856.604
01/23/2021  09:39:00        7.246       86.861       -8.577      274.561       48.966      135.553    75383.884     2397.701    18374.566        5.189        4.808       87.163      188.223        4.663      333.090        2.179      856.614
01/23/2021  09:40:00       -8.388       24.460       -3.863      158.846       71.542       77.783    25232.002     5118.297     6050.185        1.853        1.820       25.858      100.872       15.218      333.078        2.159      856.638
01/23/2021  09:41:00       59.367      193.219      -28.768      230.446       96.515      118.250    53105.179     9315.070    13983.144        5.903        3.820      202.134      154.982        0.588      333.026        2.071      856.659
01/23/2021  09:42:00      -17.742      160.361       -8.493      174.113       47.981       82.829    30315.340     2302.147     6860.576        3.278        1.974      161.339      110.931        0.473      333.011        2.046      856.683
01/23/2021  09:43:00      -82.716      145.428       -3.844       60.782       69.917       30.771     3694.440     4888.356      946.874        1.877        0.476      167.306       26.175        0.024      333.031        2.077      856.698
01/23/2021  09:44:00     -107.129      210.764      -13.476       68.516       75.250       41.629     4694.378     5662.616     1732.968        3.408        0.604      236.428       28.486        0.015      332.988        2.007      856.711
01/23/2021  09:45:00      -67.285      101.278      -15.259      188.784       60.571       85.495    35639.584     3668.874     7309.310        3.081        2.331      121.591      116.576        0.919      333.015        2.053      856.704
01/23/2021  09:46:00      -43.740      120.953      -31.917      317.068       82.387      151.785   100532.199     6787.599    23038.723        7.393        6.518      128.619      211.792        2.711      333.110        2.212      856.706
01/23/2021  09:47:00     -105.286      231.935      -13.381      188.671       58.682       93.016    35596.772     3443.619     8652.068        5.636        2.385      254.714      120.111        0.222      333.030        2.076      856.715
01/23/2021  09:48:00      -73.398      119.034      -24.444      301.449       51.878      135.821    90871.467     2691.311    18447.352        6.606        5.601      139.844      194.211        1.929      333.078        2.160      856.739
01/23/2021  09:49:00      -13.803      100.935      -27.435      297.158       78.846      136.682    88302.912     6216.709    18681.958        6.214        5.660      101.874      194.682        3.652      333.105        2.205      856.766
01/23/2021  09:50:00      -62.699      218.434      -20.492      147.056       51.296       73.787    21625.336     2631.305     5444.521        4.088        1.485      227.254       90.932        0.160      333.035        2.083      856.799
01/23/2021  09:51:00       31.001      187.135      -13.090      238.214       76.649      116.675    56746.030     5875.078    13612.971        5.618        3.812      189.686      157.077        0.686      333.106        2.204      856.823
01/23/2021  09:52:00      -43.151       88.683       -7.096      148.948       67.691       70.735    22185.495     4582.005     5003.483        2.077        1.589       98.624       84.247        0.730      333.091        2.179      856.835
01/23/2021  09:53:00      -59.729      132.290      -17.603      220.458       47.792      107.223    48601.774     2284.085    11496.798        4.187        3.119      145.149      148.553        1.047      333.117        2.223      856.831
01/23/2021  09:54:00      -38.671       95.646      -20.262      233.661       66.079      109.369    54597.444     4366.375    11961.656        4.097        3.546      103.168      154.494        2.243      333.163        2.300      856.824
01/23/2021  09:55:00      -65.840      109.322      -40.871      318.355       69.538      154.143   101350.196     4835.563    23760.015        7.392        6.497      127.618      215.021        2.839      333.160        2.296      856.821
01/23/2021  09:56:00      -68.043      187.693      -29.876      216.296       99.535      101.390    46783.754     9907.194    10279.898        5.385        3.349      199.646      121.956        0.373      333.062        2.130      856.809
01/23/2021  09:57:00       -2.736      118.562      -22.658      289.058       86.631      138.215    83554.528     7504.971    19103.338        6.235        5.508      118.594      191.985        2.621      333.122        2.231      856.821
01/23/2021  09:58:00      -85.414      205.027      -32.864      317.528       74.513      151.878   100823.845     5552.259    23067.058        8.990        6.472      222.107      209.128        0.887      333.178        2.322      856.840
01/23/2021  09:59:00      -33.110      155.348      -32.335      350.512       74.405      164.341   122858.475     5536.136    27008.061        9.081        7.770      158.837      233.016        2.152      333.214        2.384      856.839
01/23/2021  10:00:00      -33.981       45.563      -10.443      246.512       44.063      114.096    60768.212     1941.552    13017.793        3.952        3.786       56.839      160.896        8.013      333.155        2.288      856.845
01/23/2021  10:01:00      -90.142      180.954      -30.848      209.821       63.380      109.406    44024.697     4017.024    11969.742        5.090        3.001      202.163      140.612        0.484      333.106        2.202      856.844
01/23/2021  10:02:00     -111.521      223.407      -33.124      259.517      101.674      123.989    67349.059    10337.541    15373.149        7.823        4.653      249.696      158.687        0.404      333.086        2.169      856.832
01/23/2021  10:03:00      -60.178      178.413      -16.032       48.247       65.953       28.981     2327.742     4349.852      839.912        2.161        0.376      188.289       12.321        0.004      333.072        2.144      856.822
01/23/2021  10:04:00     -153.605       85.734       -3.858       89.673       74.233       53.507     8041.309     5510.523     2862.987        2.368        0.821      175.911       41.554        0.056      333.034        2.082      856.806
01/23/2021  10:05:00     -145.803      128.118      -24.663       75.631       90.924       43.995     5720.071     8267.234     1935.579        2.710        0.796      194.094       35.980        0.034      333.036        2.086      856.785
01/23/2021  10:06:00      -21.651      156.688      -22.735      274.791       68.044      124.644    75510.256     4629.965    15536.108        6.059        4.784      158.177      178.060        1.267      333.153        2.284      856.777
01/23/2021  10:07:00      -72.561       76.471      -18.364       74.058       62.149       42.561     5484.587     3862.443     1811.480        1.130        0.558      105.418       27.180        0.066      333.050        2.110      856.778
01/23/2021  10:08:00      -22.360      130.035      -16.359      188.318       48.560       90.665    35463.826     2358.084     8220.128        3.185        2.302      131.944      127.001        0.926      333.104        2.201      856.777
01/23/2021  10:09:00      -12.963      187.841      -37.067      381.141       54.901      179.849   145268.702     3014.133    32345.591       10.869        9.031      188.288      257.493        1.870      333.270        2.478      856.782
01/23/2021  10:10:00      -34.756      100.113       -9.589      166.033       60.615       81.643    27566.916     3674.124     6665.574        2.461        1.895      105.974      107.043        1.020      333.121        2.230      856.811
01/23/2021  10:11:00      -17.174       69.140      -15.005      202.074       53.834       96.535    40833.700     2898.076     9319.057        2.916        2.653       71.241      132.776        3.474      333.156        2.287      856.837
01/23/2021  10:12:00      -46.350      154.385      -24.580      194.453       60.063       99.051    37811.862     3607.558     9811.141        3.890        2.562      161.193      132.628        0.677      333.137        2.256      856.857
01/23/2021  10:13:00      -84.234       39.585       -4.187       58.223       51.810       29.798     3389.917     2684.306      887.943        0.782        0.348       93.072       28.870        0.096      333.082        2.165      856.872
01/23/2021  10:14:00       49.700      118.625      -18.305      330.175       79.966      158.831   109015.538     6394.639    25227.189        7.873        7.032      128.616      224.815        3.055      333.250        2.445      856.893
01/23/2021  10:15:00      -15.821      174.310      -14.505      178.180       84.105       82.470    31748.191     7073.712     6801.334        3.822        2.281      175.026      106.169        0.368      333.104        2.199      856.909
01/23/2021  10:16:00      -35.291      160.867      -20.027      242.441       70.042      112.185    58777.514     4905.861    12585.580        5.188        3.813      164.692      147.571        0.803      333.108        2.207      856.908
01/23/2021  10:17:00      -29.850       96.530      -12.071      207.766       63.779       97.431    43166.740     4067.734     9492.721        3.353        2.836      101.040      133.705        1.751      333.156        2.289      856.905
01/23/2021  10:18:00      -23.319       98.285      -14.397      277.459       34.376      133.268    76983.564     1181.720    17760.357        5.315        4.796      101.013      186.089        3.394      333.254        2.451      856.905
01/23/2021  10:19:00      -48.410      147.318      -13.989       40.410       54.440       30.243     1632.987     2963.684      914.664        1.488        0.276      155.068       18.414        0.014      333.121        2.227      856.902
01/23/2021  10:20:00      -90.300      108.592      -21.871      193.564       83.951       93.727    37467.173     7047.751     8784.671        3.685        2.665      141.231      116.874        0.685      333.189        2.340      856.895
01/23/2021  10:21:00      -15.067      122.651        2.419       79.030       84.394       44.092     6245.690     7122.334     1944.097        1.529        0.766      123.573       36.000        0.085      333.183        2.331      856.878
01/23/2021  10:22:00     -139.588       61.182      -29.735      230.309       67.625       98.359    53042.163     4573.150     9674.449        4.569        3.364      152.408      125.467        0.678      333.175        2.317      856.878
01/23/2021  10:23:00      -36.757      146.164      -18.957      153.752       66.425       72.558    23639.732     4412.227     5264.727        2.819        1.666      150.714       87.174        0.335      333.219        2.389      856.884
01/23/2021  10:24:00      -48.033      137.056      -19.858       86.644       78.218       38.680     7507.215     6117.995     1496.112        1.830        0.756      145.229       28.144        0.038      333.120        2.224      856.899
01/23/2021  10:25:00       63.366      179.438      -18.832       49.767       70.568       35.773     2476.796     4979.898     1279.710        2.265        0.437      190.297       29.058        0.023      333.186        2.335      856.905
01/23/2021  10:26:00       59.491      189.105      -11.689      159.138       63.854       74.084    25324.915     4077.321     5488.413        3.716        1.745      198.242       99.193        0.250      333.260        2.456      856.913
01/23/2021  10:27:00      -29.581      202.889      -14.203       50.315       52.056       33.385     2531.616     2709.781     1114.526        2.430        0.318      205.035       25.414        0.015      333.102        2.196      856.921
01/23/2021  10:28:00      -43.265      215.954      -18.279       91.923       60.827       30.190     8449.786     3699.877      911.445        3.095        0.653      220.245       22.953        0.011      333.120        2.225      856.918
01/23/2021  10:29:00       22.650      190.993       -6.200      175.791       60.459       83.745    30902.499     3655.294     7013.307        3.929        2.079      192.331      113.836        0.350      333.184        2.330      856.924
01/23/2021  10:30:00      -46.205      144.111      -18.289       66.674      105.232       41.078     4445.380    11073.672     1687.364        2.022        0.860      151.336       38.770        0.066      333.197        2.353      856.937
01/23/2021  10:31:00      -74.582      185.800      -23.507      208.226       64.264       99.125    43357.896     4129.830     9825.763        4.896        2.866      200.210      134.173        0.449      333.243        2.429      856.950
01/23/2021  10:32:00      -56.675      153.998      -17.303       69.517       68.334       38.358     4832.657     4669.562     1471.371        1.910        0.549      164.096       11.353        0.005      333.145        2.266      856.979
01/23/2021  10:33:00      -39.907      132.210      -15.725       45.885       51.696       28.654     2105.422     2672.490      821.061        1.246        0.280      138.101       16.934        0.015      333.159        2.291      856.994
01/23/2021  10:34:00      -37.499      172.130      -24.200      197.647       68.563       92.976    39064.296     4700.903     8644.525        4.200        2.620      176.168      128.181        0.529      333.242        2.429      857.012
01/23/2021  10:35:00       14.891      152.100      -19.635       76.631       95.347       49.340     5872.257     9090.990     2434.466        2.057        0.870      152.827       52.978        0.120      333.203        2.363      857.018
01/23/2021  10:36:00      -12.026      177.757      -23.517      143.352       50.164       74.331    20549.813     2516.452     5525.135        3.044        1.430      178.164       92.181        0.268      333.212        2.378      857.017
01/23/2021  10:37:00       -7.759      153.060      -17.142       81.844       81.013       36.472     6698.458     6563.185     1330.226        1.918        0.730      153.256       24.729        0.026      333.201        2.359      857.038
01/23/2021  10:38:00       95.178      290.445      -30.819      280.873      112.146      136.870    78889.481    12576.795    18733.424       10.226        5.510      305.643      191.864        0.394      333.206        2.367      857.043
01/23/2021  10:39:00      -18.571      276.277      -15.076       76.035       93.069       37.861     5781.374     8661.914     1433.477        4.639        0.794      276.901       45.484        0.027      333.062        2.127      857.039
01/23/2021  10:40:00      -38.916      241.968      -19.675       62.008       80.874       44.201     3845.046     6540.637     1953.703        3.639        0.617      245.078       24.948        0.010      333.124        2.230      857.044
01/23/2021  10:41:00       47.244      287.371      -25.759       74.612       69.951       36.315     5566.977     4893.079     1318.792        4.863        0.589      291.228       30.223        0.011      333.091        2.177      857.038
01/23/2021  10:42:00       45.540      325.626      -26.397       99.876      118.883       60.199     9975.255    14133.253     3623.974        6.826        1.387      328.795       66.634        0.041      333.092        2.177      857.030
01/23/2021  10:43:00       22.083      273.445      -35.486      210.348       78.620       97.522    44246.401     6181.047     9510.565        6.822        2.997      274.335      133.952        0.238      333.228        2.405      857.015
01/23/2021  10:44:00      -46.870      249.153      -22.642      202.748       79.425       90.780    41106.757     6308.301     8241.023        6.021        2.783      253.523      120.552        0.226      333.216        2.384      857.013
01/23/2021  10:45:00       -1.324      211.831      -20.356       53.937       53.359       32.030     2909.235     2847.226     1025.893        2.603        0.339      211.835       21.260        0.010      333.153        2.279      856.987
01/23/2021  10:46:00       43.796      249.023      -31.866      187.342       95.597       95.493    35097.008     9138.706     9118.828        5.914        2.668      252.844      124.176        0.241      333.240        2.422      856.972
01/23/2021  10:47:00      104.272      304.036      -34.440      280.131       94.699      133.633    78473.314     8967.969    17857.869       10.487        5.265      321.419      186.006        0.335      333.285        2.499      856.956
01/23/2021  10:48:00       92.943      302.383      -32.472      237.479       88.386      113.956    56396.324     7812.039    12985.959        8.914        3.860      316.345      158.879        0.252      333.235        2.418      856.954
01/23/2021  10:49:00       21.506      219.159      -19.873       58.580       71.295       29.867     3431.672     5083.022      892.056        2.915        0.470      220.212       11.182        0.003      333.288        2.502      856.951
01/23/2021  10:50:00       58.424      214.629      -18.765      196.763       57.783       91.639    38715.715     3338.853     8397.749        5.013        2.523      222.438      124.146        0.311      333.378        2.652      856.958
01/23/2021  10:51:00       38.089      188.305      -16.456       67.575       60.255       34.410     4566.317     3630.713     1184.030        2.328        0.469      192.118       37.506        0.038      333.358        2.618      856.973
01/23/2021  10:52:00      -22.243      186.889      -17.596       62.379       78.594       42.732     3891.176     6177.007     1826.057        2.381        0.595      188.208       29.292        0.024      333.328        2.568      856.976
01/23/2021  10:53:00       45.417      226.142      -18.790       54.002       79.225       42.755     2916.164     6276.565     1827.994        3.229        0.551      230.657       38.152        0.027      333.349        2.602      856.987
01/23/2021  10:54:00       28.187      267.040       -8.396      110.534       98.689       55.032    12217.742     9739.579     3028.545        4.858        1.249      268.523       52.592        0.038      333.289        2.502      856.994
01/23/2021  10:55:00      102.781      360.301      -31.969       80.381       95.424       51.507     6461.038     9105.664     2652.940        7.981        0.911      374.675       52.682        0.020      333.198        2.354      856.992
01/23/2021  10:56:00       70.120      308.441      -26.075       76.927      120.369       48.056     5917.808    14488.735     2309.358        6.172        1.136      316.311       43.639        0.019      333.232        2.409      856.979
01/23/2021  10:57:00       68.294      307.129      -26.359       62.798       96.497       39.714     3943.588     9311.709     1577.195        5.726        0.742      314.631       38.939        0.015      333.273        2.479      856.971
01/23/2021  10:58:00        6.475      214.746      -20.039       70.951       67.343       28.882     5034.114     4535.028      834.197        2.848        0.520      214.844       12.743        0.004      333.392        2.675      856.969
01/23/2021  10:59:00      -12.435      194.773      -13.307       59.089       68.418       33.700     3491.531     4681.069     1135.672        2.379        0.465      195.169       33.661        0.030      333.463        2.792      856.975
01/23/2021  11:00:00      -30.087      213.437      -14.483      196.792       81.168       98.528    38726.969     6588.286     9707.848        5.083        2.751      215.547      119.577        0.308      333.434        2.744      856.988
01/23/2021  11:01:00      -23.147      224.151      -22.996      138.969       58.400       66.873    19312.328     3410.502     4471.954        3.925        1.360      225.343       83.534        0.137      333.476        2.813      856.984
01/23/2021  11:02:00       66.083      149.068      -12.630       85.187       77.970       39.720     7256.768     6079.302     1577.672        2.083        0.746      163.059       34.740        0.045      333.563        2.957      856.994
01/23/2021  11:03:00      126.120      161.816      -13.896      109.830       84.265       45.441    12062.542     7100.650     2064.925        3.175        1.061      205.160       50.104        0.060      333.430        2.737      857.001
01/23/2021  11:04:00       48.391      180.184      -10.994       42.397       78.929       31.485     1797.527     6229.723      991.298        2.197        0.451      186.569       35.416        0.036      333.475        2.812      857.012
01/23/2021  11:05:00       13.259      131.177        0.949       69.510       79.978       38.624     4831.598     6396.470     1491.841        1.505        0.636      131.846       42.009        0.102      333.433        2.743      857.020
01/23/2021  11:06:00       56.650      137.352      -14.312       60.903       65.705       30.940     3709.228     4317.084      957.294        1.563        0.449      148.576       29.362        0.039      333.566        2.963      857.025
01/23/2021  11:07:00       87.197      290.188      -35.646       42.840       63.477       36.770     1835.279     4029.315     1352.035        5.015        0.361      303.006       31.696        0.011      333.315        2.545      857.026
01/23/2021  11:08:00      147.874      156.851      -31.729       58.447       83.683       35.327     3415.998     7002.776     1247.965        2.957        0.583      215.567       35.491        0.027      333.389        2.669      857.028
01/23/2021  11:09:00       12.814      145.975      -11.349       71.638      111.557       34.212     5131.979    12444.915     1170.495        2.017        0.937      146.536       40.263        0.075      333.461        2.789      857.014
01/23/2021  11:10:00      -94.249      121.815      -21.993       59.355      110.713       40.321     3523.054    12257.377     1625.805        2.080        0.870      154.018       36.758        0.057      333.614        3.043      856.999
01/23/2021  11:11:00      -38.477      206.691      -20.164       67.900       61.052       31.600     4610.463     3727.394      998.547        2.697        0.467      210.242       30.102        0.021      333.427        2.731      856.989
01/23/2021  11:12:00        7.615      130.490        0.931       50.919       79.426       34.172     2592.735     6308.520     1167.703        1.358        0.503      130.712       37.088        0.081      333.484        2.829      856.983
01/23/2021  11:13:00       30.515       52.439       -1.902       87.505       88.810       35.093     7657.112     7887.219     1231.551        1.023        0.839       60.671       36.398        0.360      333.821        3.389      856.967
01/23/2021  11:14:00       34.126      150.993       -9.862       70.067       62.972       39.218     4909.444     3965.485     1538.080        1.723        0.521      154.801       38.908        0.063      333.452        2.774      856.968
01/23/2021  11:15:00      257.744      208.441      -24.933      107.082       84.503       54.060    11466.591     7140.697     2922.469        6.601        1.076      331.481       42.750        0.017      333.407        2.699      856.935
01/23/2021  11:16:00      299.275      105.096      -28.153      108.941       81.557       51.357    11868.249     6651.609     2637.524        6.128        1.058      317.192       45.237        0.020      333.355        2.611      856.923
01/23/2021  11:17:00      285.644       85.194      -20.907       60.896       50.618       39.635     3708.301     2562.227     1570.909        4.856        0.392      298.078       26.331        0.008      333.257        2.449      856.912
01/23/2021  11:18:00      168.074       61.487      -23.227       70.131       43.659       29.937     4918.312     1906.145      896.228        2.014        0.386      178.968       13.099        0.005      333.353        2.610      856.906
01/23/2021  11:19:00       57.018      -28.916      -15.963       43.657       66.760       30.392     1905.969     4456.880      923.681        0.581        0.364       63.931       21.223        0.110      333.572        2.974      856.899
01/23/2021  11:20:00      -17.504       93.470       -8.159       51.444       75.762       26.305     2646.495     5739.861      691.971        0.909        0.454       95.095       23.989        0.064      333.560        2.956      856.906
01/23/2021  11:21:00      -21.851      -33.611      -42.088       46.350      102.712       34.064     2148.355    10549.828     1160.336        0.862        0.693       40.089       17.829        0.198      333.586        2.997      856.927
01/23/2021  11:22:00       49.862      -30.201      -12.587       93.486       64.651       31.513     8739.586     4179.808      993.056        0.873        0.696       58.296       39.794        0.466      333.682        3.156      856.944
01/23/2021  11:23:00      140.932      -58.923      -33.681       81.098      112.458       56.238     6576.958    12646.894     3162.750        2.342        1.119      152.754       46.224        0.092      333.525        2.895      856.938
01/23/2021  11:24:00      123.073       -5.891      -14.092       90.712       74.810       43.732     8228.634     5596.479     1912.444        1.556        0.787      123.214       35.607        0.084      333.431        2.740      856.964
01/23/2021  11:25:00      106.879      -55.984      -28.681       72.179       73.181       45.316     5209.786     5355.422     2053.510        1.400        0.631      120.654       35.246        0.085      333.379        2.655      856.975
01/23/2021  11:26:00       94.239       -8.998      -12.787       91.647       91.207       58.931     8399.186     8318.665     3472.879        1.465        1.010       94.667       51.787        0.299      333.312        2.542      856.949
01/23/2021  11:27:00      100.128      -10.334       -4.016       65.353       58.139       35.354     4270.961     3380.134     1249.900        0.952        0.445      100.660       30.143        0.090      333.337        2.585      856.942
01/23/2021  11:28:00        9.190      -35.375        0.121       37.211       66.007       31.482     1384.681     4356.904      991.103        0.403        0.337       36.549       20.998        0.330      333.651        3.106      856.953
01/23/2021  11:29:00      129.208       10.878      -12.540       61.925       61.242       36.255     3834.659     3750.599     1314.399        1.293        0.445      129.665       18.229        0.020      333.410        2.705      856.967
01/23/2021  11:30:00      196.821       84.500      -14.278       39.140       65.679       24.586     1531.936     4313.729      604.481        2.626        0.323      214.193       13.124        0.004      333.118        2.221      856.963
01/23/2021  11:31:00      146.566      -31.981      -14.867       59.922       71.017       32.795     3590.700     5043.471     1075.527        1.622        0.485      150.014       27.257        0.033      333.321        2.559      856.960
01/23/2021  11:32:00      140.667      -37.567      -25.058       64.359       73.202       42.204     4142.088     5358.511     1781.155        1.655        0.564      145.597       25.385        0.030      333.450        2.772      856.956
01/23/2021  11:33:00      142.237       22.573       -8.629       83.477       81.078       37.095     6968.334     6573.584     1376.065        1.786        0.746      144.017       37.801        0.069      333.454        2.778      856.960
01/23/2021  11:34:00      100.967       14.556       -7.099       74.230       66.608       28.083     5510.145     4436.581      788.643        1.059        0.537      102.011       26.272        0.066      333.467        2.800      856.949
01/23/2021  11:35:00       74.679      -54.225      -13.496       57.985       60.492       32.815     3362.273     3659.256     1076.854        0.840        0.405       92.289       32.993        0.128      333.607        3.033      856.926
01/23/2021  11:36:00       96.297      -56.931      -24.034       69.867       49.549       33.227     4881.378     2455.107     1104.052        1.076        0.422      111.868       42.453        0.144      333.430        2.739      856.921
01/23/2021  11:37:00       42.447      -70.639      -17.290       46.226       26.562       24.689     2136.829      705.539      609.557        0.527        0.173       82.412       22.807        0.077      333.497        2.850      856.905
01/23/2021  11:38:00       72.227      -32.456       13.353       63.389       46.936       37.366     4018.161     2202.994     1396.183        0.703        0.381       79.184       36.486        0.212      333.527        2.901      856.889
01/23/2021  11:39:00      111.925       -4.998       -5.563       65.371       45.888       34.001     4273.416     2105.716     1156.068        1.006        0.377      112.037       31.883        0.081      333.300        2.524      856.891
01/23/2021  11:40:00       35.748       20.029       -5.823       39.133       53.098       29.476     1531.393     2819.446      868.843        0.347        0.261       40.977       25.083        0.375      333.505        2.863      856.892
01/23/2021  11:41:00       29.493      -57.117      -11.113       39.661       41.235       22.917     1572.999     1700.308      525.169        0.403        0.190       64.282       16.737        0.068      333.595        3.012      856.881
01/23/2021  11:42:00       -4.467        6.376       14.290       24.990       14.606       15.198      624.493      213.337      230.985        0.067        0.053        7.785       15.461        3.944      333.818        3.383      856.878
01/23/2021  11:43:00       78.296       -6.920        3.923       75.934       44.276       31.351     5765.899     1960.384      982.879        0.745        0.435       78.601       18.850        0.058      333.647        3.100      856.860
01/23/2021  11:44:00      148.545      -15.080        2.301       69.596       66.582       43.747     4843.658     4433.200     1913.831        1.674        0.560      149.308       32.468        0.047      333.506        2.864      856.846
01/23/2021  11:45:00       69.466        4.793        7.515       68.197       75.870       50.865     4650.827     5756.227     2587.208        0.895        0.650       69.631       43.810        0.396      333.512        2.875      856.834
01/23/2021  11:46:00      118.391       10.367       -4.185       58.860       37.570       30.884     3464.502     1411.528      953.836        0.998        0.291      118.844       28.345        0.057      333.314        2.548      856.833
01/23/2021  11:47:00       71.639      -36.161       -6.892       83.613       52.569       26.791     6991.128     2763.517      717.778        0.848        0.524       80.248       13.587        0.029      333.553        2.943      856.810
01/23/2021  11:48:00      129.676      -20.147      -30.007       66.076       54.515       33.931     4366.043     2971.844     1151.306        1.330        0.424      131.232       27.216        0.043      333.397        2.686      856.805
01/23/2021  11:49:00       66.499       19.550       -3.466       43.973       39.674       26.970     1933.592     1574.051      727.400        0.452        0.212       69.313       20.185        0.085      333.330        2.575      856.799
01/23/2021  11:50:00       73.873      -21.336      -15.505       75.043       80.402       47.982     5631.414     6464.425     2302.242        1.027        0.720       76.893       43.371        0.318      333.669        3.134      856.795
01/23/2021  11:51:00      117.112      -16.357      -23.017       58.015       55.485       27.809     3365.784     3078.607      773.340        1.086        0.361      118.249       25.825        0.048      333.513        2.876      856.799
01/23/2021  11:52:00       27.762      -86.518      -16.234       53.727       30.618       26.353     2886.590      937.465      694.491        0.652        0.226       90.863       17.068        0.035      333.684        3.160      856.793
01/23/2021  11:53:00       73.450      -91.184      -27.711       46.737       65.985       21.437     2184.342     4354.069      459.552        1.074        0.350      117.088       29.647        0.064      333.485        2.831      856.776
01/23/2021  11:54:00       77.881      -69.632      -22.070       49.789       41.881       23.454     2478.947     1754.042      550.069        0.809        0.239      104.470       23.174        0.049      333.524        2.895      856.761
01/23/2021  11:55:00       94.467      -18.026      -15.183       77.558       86.310       52.510     6015.230     7449.456     2757.315        1.285        0.811       96.171       43.750        0.207      333.583        2.992      856.745
01/23/2021  11:56:00      108.099       -4.744      -22.916       95.550       55.103       42.966     9129.753     3036.389     1846.065        1.312        0.701      108.203       48.034        0.197      333.589        3.003      856.741
01/23/2021  11:57:00      117.936       28.451      -12.789       68.598       39.970       29.197     4705.721     1597.608      852.492        1.102        0.358      121.319       36.271        0.089      333.430        2.739      856.734
01/23/2021  11:58:00       81.087       23.013      -14.643       34.350       63.153       21.197     1179.894     3988.316      449.318        0.647        0.281       84.289       15.950        0.036      333.498        2.852      856.724
01/23/2021  11:59:00       72.382      -25.292      -16.201       43.916       56.468       27.467     1928.637     3188.615      754.413        0.601        0.294       76.673       17.999        0.055      333.805        3.360      856.700
01/23/2021  12:00:00       77.415       -9.646      -25.685       59.669       61.199       30.692     3560.353     3745.300      941.985        0.749        0.412       78.014       17.742        0.052      333.759        3.285      856.680
01/23/2021  12:01:00      117.833       10.845       -4.067       99.343       79.115       53.395     9869.019     6259.241     2851.067        1.650        0.949      118.331       58.749        0.246      333.633        3.076      856.651
01/23/2021  12:02:00       89.568      -21.308      -19.765       80.366       75.117       41.573     6458.717     5642.536     1728.278        1.135        0.691       92.068       37.769        0.168      333.683        3.157      856.643
01/23/2021  12:03:00      138.126      -11.721      -12.861       93.938       66.271       49.977     8824.259     4391.799     2497.683        1.754        0.786      138.622       52.616        0.144      333.645        3.095      856.637
01/23/2021  12:04:00       81.956      -19.159      -15.026       85.053       63.465       42.309     7233.931     4027.793     1790.054        1.018        0.653       84.165       23.668        0.079      333.714        3.209      856.622
01/23/2021  12:05:00       30.298     -140.458      -26.683       68.306       76.309       36.795     4665.664     5823.139     1353.836        1.660        0.592      143.689       31.415        0.048      333.742        3.255      856.609
01/23/2021  12:06:00      138.662     -179.469      -46.616       46.171       77.133       34.699     2131.724     5949.564     1204.017        3.145        0.464      226.796       26.896        0.014      333.529        2.899      856.599
01/23/2021  12:07:00      132.964     -116.534      -32.981       45.971       66.781       27.178     2113.360     4459.746      738.656        1.983        0.366      176.804       28.794        0.027      333.484        2.827      856.606
01/23/2021  12:08:00      128.928     -115.506      -33.460       35.073       51.489       26.115     1230.084     2651.143      682.013        1.782        0.228      173.101       28.108        0.026      333.543        2.926      856.603
01/23/2021  12:09:00       67.204     -119.723      -35.273       47.264       66.269       35.417     2233.894     4391.583     1254.394        1.399        0.394      137.295       28.802        0.044      333.728        3.232      856.596
01/23/2021  12:10:00       33.974      -31.215      -13.205       53.073       38.516       24.127     2816.760     1483.470      582.118        0.359        0.244       46.136       10.274        0.050      333.819        3.383      856.591
01/23/2021  12:11:00      116.553     -109.289      -17.734       64.664       54.287       34.796     4181.380     2947.097     1210.730        1.709        0.417      159.777       31.661        0.039      333.684        3.160      856.585
01/23/2021  12:12:00      122.431      -61.861      -11.301       50.507       42.353       30.058     2550.938     1793.740      903.478        1.209        0.262      137.172       21.519        0.025      333.773        3.308      856.593
01/23/2021  12:13:00        7.598       -8.950       13.014       59.849       56.153       34.870     3581.889     3153.136     1215.909        0.413        0.398       11.741       36.875        9.864      333.965        3.627      856.603
01/23/2021  12:14:00       35.269       -9.099       -3.500       46.515       75.464       34.202     2163.663     5694.748     1169.791        0.518        0.451       36.424       32.305        0.787      334.134        3.906      856.616
01/23/2021  12:15:00       60.289      -12.655      -25.187       55.415       89.157       34.675     3070.801     7949.005     1202.329        0.832        0.611       61.603       28.732        0.218      334.076        3.809      856.640
01/23/2021  12:16:00       66.725       12.917       -1.932       87.264       67.612       34.984     7615.018     4571.338     1223.881        0.901        0.671       67.964       37.414        0.303      333.968        3.631      856.645
01/23/2021  12:17:00       94.769       -6.511       -5.096       59.037       77.836       43.689     3485.336     6058.387     1908.696        1.025        0.573       94.992       28.692        0.091      333.980        3.651      856.645
01/23/2021  12:18:00       33.536       -1.125      -10.420       37.263       49.230       31.116     1388.532     2423.574      968.176        0.301        0.239       33.555       23.930        0.509      334.036        3.744      856.654
01/23/2021  12:19:00        9.236      149.870      -12.266       62.716       55.548       32.628     3933.311     3085.628     1064.610        1.539        0.404      150.155       30.813        0.042      333.788        3.331      856.673
01/23/2021  12:20:00       11.143      189.412      -16.481       57.026       50.294       28.975     3251.941     2529.525      839.540        2.145        0.331      189.740       23.702        0.016      333.760        3.284      856.666
01/23/2021  12:21:00       22.905      127.824      -12.733       43.452       38.239       24.199     1888.076     1462.206      585.592        1.048        0.197      129.859       13.639        0.011      333.910        3.534      856.669
01/23/2021  12:22:00      -54.427      116.603       -2.918       46.813       47.060       23.815     2191.486     2214.603      567.171        1.077        0.249      128.681       19.184        0.022      333.788        3.333      856.671
01/23/2021  12:23:00      -33.849       38.202       -8.881       29.053       47.240       22.208      844.054     2231.655      493.197        0.313        0.178       51.040       21.078        0.171      333.831        3.404      856.655
01/23/2021  12:24:00      -53.718       42.984       -8.037       38.887       33.037       19.565     1512.178     1091.450      382.790        0.389        0.149       68.799       14.882        0.047      333.954        3.607      856.646
01/23/2021  12:25:00       32.140       63.485       -7.032       74.946       27.370       16.737     5616.842      749.098      280.114        0.588        0.332       71.157       20.345        0.082      333.866        3.462      856.640
01/23/2021  12:26:00       90.138      -33.613      -10.627       56.944       65.488       35.192     3242.606     4288.617     1238.489        0.907        0.438       96.201       27.855        0.084      334.090        3.832      856.634
01/23/2021  12:27:00      123.200       91.851      -23.228       73.877       57.336       31.374     5457.844     3287.398      984.350        1.694        0.486      153.672       23.116        0.023      333.952        3.602      856.638
01/23/2021  12:28:00       82.051       25.542      -23.202       56.003       59.004       28.526     3136.283     3481.486      813.722        0.768        0.372       85.934       18.877        0.048      334.043        3.754      856.634
01/23/2021  12:29:00       39.260       -1.887      -12.920       48.545       71.096       29.278     2356.639     5054.579      857.198        0.499        0.413       39.305       24.726        0.396      334.172        3.968      856.627
01/23/2021  12:30:00      138.145        9.519      -14.190       42.020       38.238       23.920     1765.647     1462.182      572.145        1.159        0.190      138.473       11.447        0.007      333.798        3.350      856.631
01/23/2021  12:31:00       14.463       36.758       -7.945       46.911       39.010       22.945     2200.597     1521.746      526.495        0.294        0.212       39.501       17.651        0.200      333.984        3.658      856.623
01/23/2021  12:32:00       69.638       25.487       -9.757       44.258       53.995       28.897     1958.802     2915.427      835.029        0.565        0.285       74.155       24.074        0.105      333.925        3.561      856.613
01/23/2021  12:33:00      127.790      -12.511       -4.850       74.988       60.347       48.175     5623.180     3641.766     2320.867        1.405        0.579      128.401       45.977        0.128      333.863        3.455      856.608
01/23/2021  12:34:00       61.099        5.291       -9.283       68.162       60.629       36.935     4646.083     3675.923     1364.182        0.676        0.484       61.327       34.139        0.310      334.065        3.791      856.614
01/23/2021  12:35:00       84.052       65.094      -20.285       58.003       61.768       31.233     3364.358     3815.249      975.488        0.993        0.408      106.311       26.172        0.061      334.201        4.018      856.625
01/23/2021  12:36:00       81.409       92.132       -3.964       60.767       39.403       30.319     3692.598     1552.582      919.218        1.065        0.308      122.946       26.165        0.045      333.956        3.611      856.629
01/23/2021  12:37:00       54.682       92.123       -7.530       70.710       43.270       28.518     4999.941     1872.333      813.291        0.961        0.384      107.130       30.258        0.080      334.004        3.692      856.623
01/23/2021  12:38:00      219.734       83.279       -8.594      108.833       57.907       41.645    11844.556     3353.186     1734.283        3.611        0.847      234.986       37.475        0.025      333.913        3.537      856.624
01/23/2021  12:39:00      234.964      100.584      -18.812       59.619       57.181       34.446     3554.370     3269.707     1186.556        3.684        0.401      255.588       23.557        0.008      333.727        3.228      856.625
01/23/2021  12:40:00      148.860       55.010      -17.386       49.521       46.629       24.437     2452.370     2174.222      597.178        1.535        0.261      158.699       16.241        0.010      333.703        3.191      856.626
01/23/2021  12:41:00      149.015       19.298      -21.688       60.065       82.350       28.929     3607.803     6781.503      836.876        1.713        0.561      150.259       25.929        0.030      333.767        3.298      856.629
01/23/2021  12:42:00      164.925       16.836      -13.192       83.500       73.520       52.663     6972.320     5405.257     2773.372        2.140        0.758      165.782       40.436        0.059      333.877        3.479      856.619
01/23/2021  12:43:00      170.790       26.170      -13.141       89.363       95.178       40.316     7985.759     9058.864     1625.389        2.434        0.934      172.783       19.228        0.012      333.862        3.453      856.634
01/23/2021  12:44:00       59.087      -36.822      -18.819       51.104       63.585       27.413     2611.659     4043.067      751.491        0.630        0.370       69.621       10.923        0.025      334.040        3.750      856.644
01/23/2021  12:45:00      106.805       -7.603      -18.260       69.764       76.288       25.814     4867.065     5819.811      666.375        1.157        0.568      107.075       25.720        0.058      333.914        3.539      856.648
01/23/2021  12:46:00       53.053      -90.500      -19.542       51.650       44.674       28.637     2667.673     1995.811      820.100        0.843        0.274      104.904       29.566        0.079      334.053        3.772      856.650
01/23/2021  12:47:00      103.468      -23.425      -26.299       61.414       70.765       36.860     3771.721     5007.748     1358.685        1.104        0.507      106.087       30.757        0.084      334.137        3.910      856.641
01/23/2021  12:48:00       97.077       -4.919       -1.462       40.782       45.068       29.106     1663.152     2031.169      847.137        0.699        0.227       97.202       19.365        0.040      334.003        3.689      856.649
01/23/2021  12:49:00      100.927       36.374      -12.239       46.684       31.335       21.346     2179.387      981.896      455.650        0.764        0.181      107.282        6.627        0.004      333.907        3.531      856.658
01/23/2021  12:50:00      -17.017       17.834       -5.581       26.477       22.777       19.402      701.016      518.811      376.457        0.112        0.080       24.651       15.539        0.397      334.125        3.890      856.652
01/23/2021  12:51:00        2.622       50.947       -4.597       39.166       44.607       16.105     1534.003     1989.820      259.356        0.320        0.189       51.015       12.520        0.060      334.139        3.915      856.648
01/23/2021  12:52:00       84.132      112.924      -17.069       38.297       46.244       26.018     1466.679     2138.536      676.950        1.220        0.214      140.819       22.082        0.025      333.903        3.523      856.649
01/23/2021  12:53:00       79.036       71.375       -8.632       41.136       31.902       18.412     1692.190     1017.717      339.019        0.723        0.152      106.494       13.291        0.016      333.928        3.565      856.654
01/23/2021  12:54:00      104.689        0.466        0.749       83.901       66.823       45.372     7039.427     4465.264     2058.586        1.226        0.678      104.690       29.763        0.081      333.981        3.652      856.654
01/23/2021  12:55:00      149.174       53.483      -14.845       78.380       52.500       29.980     6143.441     2756.272      898.787        1.756        0.490      158.472       24.282        0.023      333.940        3.584      856.649
01/23/2021  12:56:00      149.439       60.029      -19.163       64.808       54.240       31.003     4200.080     2942.013      961.200        1.720        0.405      161.045       19.171        0.014      333.904        3.524      856.649
01/23/2021  12:57:00       87.488       38.217       -2.095       61.112       61.043       27.176     3734.689     3726.276      738.555        0.866        0.410       95.471       19.742        0.043      333.858        3.448      856.652
01/23/2021  12:58:00      116.073       21.589      -15.121       32.335       61.502       27.219     1045.584     3782.489      740.868        0.987        0.278      118.064       19.565        0.027      333.910        3.535      856.647
01/23/2021  12:59:00      109.453       -6.566        4.774       65.425       52.439       37.911     4280.387     2749.830     1437.280        1.025        0.423      109.650       36.244        0.109      333.919        3.550      856.633
01/23/2021  13:00:00      132.668       12.603       -8.230       52.864       49.129       29.743     2794.654     2413.623      884.622        1.196        0.305      133.265       22.266        0.028      333.870        3.468      856.645
01/23/2021  13:01:00      169.629      -28.735      -20.420       79.060       87.567       39.154     6250.457     7668.034     1533.053        2.273        0.773      172.046       39.578        0.053      333.880        3.483      856.652
01/23/2021  13:02:00       46.444       -4.083      -17.170       64.011       59.335       31.915     4097.451     3520.684     1018.545        0.555        0.432       46.624       24.766        0.282      334.115        3.875      856.656
01/23/2021  13:03:00       38.809       -7.006        0.725       72.174       52.934       40.675     5209.030     2801.957     1654.472        0.561        0.483       39.436       42.816        1.179      334.008        3.698      856.662
01/23/2021  13:04:00       81.455       10.838       -0.886       58.595       41.003       32.598     3433.400     1681.225     1062.641        0.646        0.309       82.173       28.239        0.118      333.796        3.346      856.669
01/23/2021  13:05:00       17.434        3.643        0.514       27.015       48.704       21.175      729.811     2372.038      448.375        0.193        0.178       17.810       24.342        1.868      333.842        3.423      856.680
01/23/2021  13:06:00        7.737      -33.987       -1.726       58.335       26.528       23.505     3402.929      703.750      552.483        0.294        0.233       34.857       24.552        0.496      333.967        3.629      856.701
01/23/2021  13:07:00       15.553      -18.697      -10.026       29.321       42.131       17.488      859.710     1775.049      305.816        0.182        0.147       24.321       24.855        1.044      334.065        3.791      856.719
01/23/2021  13:08:00      -24.582      -12.524        0.686       28.732       44.960       23.048      825.520     2021.373      531.213        0.207        0.169       27.589       27.259        0.976      333.984        3.658      856.738
01/23/2021  13:09:00      -45.398       43.840        3.057       31.705       25.808       17.939     1005.227      666.041      321.816        0.299        0.100       63.111       13.681        0.047      334.089        3.833      856.738
01/23/2021  13:10:00      -57.860       13.677       -9.805       38.468       21.195       17.202     1479.802      449.242      295.917        0.293        0.111       59.455       13.638        0.053      334.108        3.864      856.744
01/23/2021  13:11:00      -19.496       -8.495       -9.895       28.402       18.302       13.598      806.676      334.954      184.903        0.094        0.066       21.266       11.143        0.275      334.201        4.018      856.745
01/23/2021  13:12:00      -56.291       37.332       -9.327       50.900       30.279       25.712     2590.838      916.831      661.084        0.441        0.208       67.545       23.144        0.117      333.953        3.608      856.742
01/23/2021  13:13:00      -22.941       23.490       19.478       42.931       30.521       22.484     1843.080      931.506      505.514        0.237        0.164       32.834       13.987        0.181      334.105        3.857      856.736
01/23/2021  13:14:00       46.201       36.812       -7.006       41.908       46.863       27.930     1756.272     2196.114      780.088        0.413        0.237       59.073       16.101        0.074      334.027        3.729      856.712
01/23/2021  13:15:00        3.236      -16.591       -4.479       52.114       48.879       26.715     2715.882     2389.120      713.671        0.306        0.291       16.904       11.121        0.433      334.139        3.914      856.688
01/23/2021  13:16:00      -12.337      -21.654       12.198       48.339       34.392       21.296     2336.683     1182.838      453.508        0.237        0.199       24.922       19.602        0.619      334.134        3.906      856.687
01/23/2021  13:17:00      -66.577       -4.011        4.429       52.148       55.414       38.279     2719.397     3070.753     1465.266        0.586        0.363       66.698       29.785        0.199      333.749        3.268      856.704
01/23/2021  13:18:00      -61.894       27.441       -1.225       51.352       32.042       18.732     2637.056     1026.713      350.902        0.430        0.201       67.705       15.106        0.050      333.694        3.175      856.708
01/23/2021  13:19:00      -82.660       11.820        1.106       49.844       48.394       27.468     2484.386     2342.014      754.495        0.628        0.279       83.501       23.990        0.083      333.714        3.210      856.716
01/23/2021  13:20:00      -97.593        9.866      -10.822       47.409       37.597       17.014     2247.590     1413.510      289.471        0.684        0.198       98.091       19.451        0.039      333.708        3.198      856.713
01/23/2021  13:21:00       13.697       68.630        7.351       28.851       46.982       21.918      832.378     2207.319      480.416        0.424        0.176       69.984       18.499        0.070      333.937        3.580      856.728
01/23/2021  13:22:00      -34.793       64.423       14.224       45.818       31.516       27.384     2099.311      993.256      749.897        0.470        0.192       73.218       17.667        0.058      333.792        3.340      856.726
01/23/2021  13:23:00       64.104       85.865      -14.327       33.155       27.731       18.129     1099.241      769.000      328.658        0.694        0.110      107.155       12.939        0.015      333.850        3.436      856.728
01/23/2021  13:24:00       12.636       46.224       -4.565       33.909       55.096       24.407     1149.835     3035.549      595.701        0.355        0.239       47.920       16.663        0.121      334.139        3.916      856.733
01/23/2021  13:25:00       37.393       22.182      -27.501       43.466       55.117       24.302     1889.334     3037.933      590.576        0.408        0.276       43.478        9.147        0.044      334.246        4.092      856.729
01/23/2021  13:26:00       63.657      -21.037      -14.798       62.526       59.727       36.310     3909.479     3567.318     1318.388        0.675        0.440       67.043       38.409        0.328      333.985        3.658      856.721
01/23/2021  13:27:00       84.111      -31.602      -18.249       46.480       49.958       29.437     2160.400     2495.811      866.558        0.696        0.276       89.851       24.573        0.075      333.975        3.643      856.726
01/23/2021  13:28:00       30.211        4.811       -2.675       53.828       59.171       40.581     2897.489     3501.161     1646.779        0.449        0.402       30.591       32.159        1.105      333.914        3.541      856.729
01/23/2021  13:29:00       73.570       -3.656        3.071       67.035       32.864       34.337     4493.742     1080.075     1179.025        0.609        0.338       73.660       37.022        0.253      333.891        3.503      856.737
01/23/2021  13:30:00       55.561        0.690      -10.104       40.635       38.270       27.898     1651.210     1464.629      778.304        0.354        0.195       55.565       22.658        0.166      333.893        3.508      856.737
01/23/2021  13:31:00       86.783      -20.133       -5.191       62.398       50.119       33.386     3893.456     2511.918     1114.601        0.774        0.376       89.088       28.328        0.101      334.014        3.707      856.738
01/23/2021  13:32:00       37.739        9.375       -7.533       51.526       58.727       41.247     2654.920     3448.901     1701.285        0.469        0.390       38.886       26.451        0.463      334.057        3.778      856.728
01/23/2021  13:33:00       41.686      -71.603      -23.616       50.340       54.585       35.440     2534.128     2979.546     1255.984        0.709        0.338       82.853       24.038        0.084      334.111        3.868      856.724
01/23/2021  13:34:00       52.664      -66.261      -19.480       45.364       53.871       30.334     2057.896     2902.063      920.172        0.671        0.294       84.641       23.953        0.080      334.220        4.049      856.715
01/23/2021  13:35:00       76.883      -51.506      -24.063       38.713       47.218       25.679     1498.708     2229.509      659.386        0.676        0.219       92.541       17.888        0.037      333.986        3.661      856.710
01/23/2021  13:36:00       67.086       -4.891       -5.510       46.365       43.871       25.816     2149.729     1924.695      666.471        0.465        0.237       67.264       25.943        0.149      333.986        3.661      856.705
01/23/2021  13:37:00       88.722      -38.236      -30.118       45.041       65.853       21.534     2028.734     4336.581      463.698        0.853        0.341       96.610       18.161        0.035      333.993        3.672      856.689
01/23/2021  13:38:00       28.212      -50.982      -25.713       43.264       67.785       36.320     1871.784     4594.856     1319.111        0.592        0.389       58.267       24.786        0.181      334.108        3.862      856.670
01/23/2021  13:39:00       47.794       -7.079      -15.621       60.265       55.522       35.887     3631.825     3082.686     1287.861        0.529        0.400       48.316       27.433        0.322      334.158        3.946      856.655
01/23/2021  13:40:00       47.487        4.585       -2.040       62.845       44.855       29.998     3949.468     2011.976      899.882        0.457        0.343       47.708       23.586        0.244      334.055        3.775      856.649
01/23/2021  13:41:00        9.939      -64.847      -16.001       63.138       54.136       24.936     3986.381     2930.662      621.818        0.605        0.377       65.604       17.965        0.075      334.180        3.983      856.641
01/23/2021  13:42:00       69.522      -64.647      -15.278       71.413       53.764       38.108     5099.861     2890.575     1452.255        0.934        0.472       94.934       35.753        0.142      333.996        3.677      856.630
01/23/2021  13:43:00       87.491     -104.901      -27.786       60.885       77.856       26.371     3706.979     6061.513      695.436        1.495        0.523      136.598       32.086        0.055      334.015        3.709      856.621
01/23/2021  13:44:00       71.196     -103.268      -18.060       46.978       43.149       30.859     2206.891     1861.845      952.285        1.054        0.251      125.432       29.701        0.056      334.085        3.825      856.632
01/23/2021  13:45:00      118.347     -164.509      -31.996       47.111       63.491       33.532     2219.402     4031.162     1124.425        2.473        0.369      202.655       33.522        0.027      333.953        3.604      856.638
01/23/2021  13:46:00      115.868     -169.633      -35.727       48.543       45.591       30.267     2356.406     2078.521      916.119        2.441        0.268      205.428       27.110        0.017      333.751        3.267      856.640
01/23/2021  13:47:00      127.691     -162.210      -29.509       58.793       59.945       34.639     3456.589     3593.454     1199.845        2.587        0.412      206.439       35.487        0.030      333.726        3.226      856.645
01/23/2021  13:48:00      120.927      -66.371      -17.019       56.307       60.729       36.970     3170.453     3687.992     1366.812        1.377        0.411      137.943       39.281        0.081      333.671        3.139      856.652
01/23/2021  13:49:00      151.595     -239.159      -42.948       48.544       73.318       28.547     2356.551     5375.532      814.920        4.528        0.427      283.158       27.589        0.009      333.727        3.227      856.652
01/23/2021  13:50:00      104.695     -139.916      -35.096      123.445       95.085       53.618    15238.615     9041.236     2874.898        2.946        1.358      174.750       72.283        0.171      333.986        3.658      856.656
01/23/2021  13:51:00       28.520     -122.409      -31.643       90.786       72.293       33.074     8242.177     5226.207     1093.919        1.568        0.728      125.688       29.220        0.054      334.125        3.890      856.683
01/23/2021  13:52:00        2.034      -35.478       -4.357       38.610       45.318       25.968     1490.697     2053.759      674.315        0.275        0.211       35.536       22.984        0.418      334.249        4.097      856.679
01/23/2021  13:53:00      -34.174      -41.980       -1.013       54.316       61.231       26.360     2950.195     3749.215      694.862        0.516        0.370       54.131       33.584        0.385      334.226        4.059      856.684
01/23/2021  13:54:00      -48.066      -89.825      -19.609       50.231       46.569       25.913     2523.132     2168.642      671.495        0.806        0.268      101.876       18.448        0.033      334.248        4.097      856.698
01/23/2021  13:55:00       -2.505      -65.299       -7.929       77.985      105.998       35.625     6081.631    11235.508     1269.154        1.146        0.929       65.347       43.680        0.447      334.295        4.173      856.711
01/23/2021  13:56:00       64.090     -153.947      -25.114       60.972       67.566       38.202     3717.554     4565.130     1459.379        1.909        0.487      166.755       30.267        0.033      334.011        3.699      856.722
01/23/2021  13:57:00       24.827      -55.880       -4.262       72.674       58.935       42.985     5281.478     3473.352     1847.697        0.718        0.530       61.147       27.524        0.203      334.066        3.795      856.722
01/23/2021  13:58:00       -7.226      -26.264        7.445       41.049       42.344       30.544     1685.045     1793.028      932.946        0.260        0.221       27.239       12.359        0.206      334.182        3.984      856.737
01/23/2021  13:59:00       42.816      -84.066      -16.606       71.247       62.740       26.256     5076.152     3936.332      689.365        0.944        0.485       94.341       27.990        0.088      334.004        3.690      856.743
01/23/2021  14:00:00       79.969      -95.180      -17.035       51.394       88.312       32.446     2641.362     7798.981     1052.767        1.362        0.575      124.315       38.562        0.096      333.881        3.486      856.742
01/23/2021  14:01:00      152.892     -187.596      -45.648       32.731       41.146       22.258     1071.347     1692.973      495.438        3.196        0.163      242.008        9.523        0.002      333.738        3.245      856.746
01/23/2021  14:02:00      173.529     -128.321      -34.401       54.746       64.031       35.890     2997.110     4099.986     1288.088        2.807        0.419      215.821       36.020        0.028      333.772        3.303      856.743
01/23/2021  14:03:00       66.242     -144.414      -19.337       43.774       47.388       30.085     1916.146     2245.605      905.127        1.534        0.253      158.882       22.580        0.020      333.930        3.567      856.745
01/23/2021  14:04:00       34.315      -96.571      -23.360       44.631       32.615       21.702     1991.904     1063.767      470.993        0.729        0.176      102.486       12.865        0.016      333.929        3.566      856.747
01/23/2021  14:05:00      109.598     -166.666      -38.382       41.798       53.502       25.222     1747.114     2862.462      636.151        2.325        0.262      199.472       24.249        0.015      333.821        3.386      856.756
01/23/2021  14:06:00      111.786     -187.713      -37.821       29.102       39.348       23.420      846.909     1548.232      548.491        2.605        0.147      218.477       17.310        0.006      333.913        3.536      856.764
01/23/2021  14:07:00       57.893     -103.496      -25.708       47.970       46.502       20.975     2301.148     2162.398      439.954        0.981        0.245      118.588       24.312        0.042      333.962        3.621      856.789
01/23/2021  14:08:00       63.807      -34.366      -12.614       52.956       45.971       30.321     2804.339     2113.293      919.389        0.562        0.292       72.473       26.567        0.134      334.055        3.775      856.796
01/23/2021  14:09:00      116.855       12.780        0.274       64.858       47.311       32.954     4206.557     2238.333     1085.942        1.067        0.377      117.552       27.333        0.054      333.988        3.664      856.813
01/23/2021  14:10:00       95.915       18.009       -3.073       83.315       61.622       33.512     6941.322     3797.220     1123.085        1.070        0.593       97.591       34.228        0.123      334.059        3.780      856.821
01/23/2021  14:11:00       37.544        0.388       -1.555       43.782       36.336       28.300     1916.854     1320.327      800.881        0.272        0.202       37.546       26.887        0.513      334.204        4.022      856.835
01/23/2021  14:12:00       25.447        4.507       -2.837       29.751       28.007       21.262      885.103      784.376      452.083        0.140        0.106       25.843       19.004        0.541      334.072        3.803      856.832
01/23/2021  14:13:00        4.186       -4.304       -5.275       15.069       14.535       12.635      227.077      211.277      159.644        0.033        0.030        6.004        9.232        2.364      334.084        3.822      856.831
01/23/2021  14:14:00       -3.859       20.389       -5.558       13.854       33.276       12.789      191.943     1107.313      163.569        0.096        0.073       20.751        7.012        0.114      334.133        3.903      856.836
01/23/2021  14:15:00       23.144        6.245       -7.472       28.547       36.932       16.331      814.945     1363.959      266.702        0.154        0.122       23.971       11.340        0.224      334.191        4.001      856.840
01/23/2021  14:16:00       38.958       23.223      -17.808       28.541       42.526       12.423      814.573     1808.497      154.340        0.258        0.139       45.354       16.876        0.138      333.933        3.574      856.849
01/23/2021  14:17:00       36.362       46.050        2.599       24.075       20.292       14.907      579.618      411.765      222.217        0.233        0.061       58.676        9.684        0.027      334.019        3.716      856.847
01/23/2021  14:18:00       44.074      -13.697      -16.112       32.066       65.311       20.222     1028.228     4265.510      408.945        0.404        0.285       46.153       24.231        0.276      334.136        3.910      856.856
01/23/2021  14:19:00       90.580        6.223      -25.558       46.072       70.729       31.870     2122.607     5002.585     1015.700        0.852        0.407       90.793       31.053        0.117      334.164        3.957      856.873
01/23/2021  14:20:00      146.421        6.601      -14.424       44.864       54.521       28.119     2012.755     2972.586      790.703        1.373        0.289      146.569       19.920        0.018      334.041        3.753      856.896
01/23/2021  14:21:00       89.128       32.075       -3.319       41.854       35.185       23.963     1751.779     1238.017      574.222        0.627        0.178       94.723       15.302        0.026      334.045        3.758      856.910
01/23/2021  14:22:00       89.422       17.117       -5.657       40.822       38.546       24.446     1666.457     1485.815      597.628        0.603        0.187       91.045       23.709        0.068      334.037        3.745      856.911
01/23/2021  14:23:00      104.069       62.239       -8.042       41.690       37.190       22.417     1738.055     1383.063      502.508        0.920        0.181      121.260       19.496        0.026      334.060        3.784      856.913
01/23/2021  14:24:00       77.200       29.692       -4.214       39.981       46.501       24.212     1598.479     2162.303      586.214        0.560        0.217       82.713       15.769        0.036      334.195        4.008      856.914
01/23/2021  14:25:00      128.209       48.176      -16.010       59.691       51.543       28.255     3563.019     2656.672      798.340        1.301        0.351      136.962       13.917        0.010      334.101        3.851      856.923
01/23/2021  14:26:00      157.544       74.916       -3.978       68.788       48.308       27.831     4731.736     2333.652      774.581        1.914        0.392      174.450       26.511        0.023      334.060        3.780      856.928
01/23/2021  14:27:00      130.948       71.506       -7.927       67.403       59.279       30.780     4543.167     3513.977      947.392        1.566        0.450      149.199       25.634        0.030      334.115        3.874      856.932
01/23/2021  14:28:00      165.924       97.804      -23.923       41.053       59.410       24.491     1685.336     3529.574      599.809        2.174        0.291      192.604       19.246        0.010      334.062        3.786      856.932
01/23/2021  14:29:00       77.241       44.120       -6.037       47.112       31.572       24.650     2219.548      996.774      607.635        0.589        0.191       88.954       21.123        0.056      334.107        3.861      856.928
01/23/2021  14:30:00      123.662      125.917      -19.829       79.549       60.856       32.002     6328.031     3703.418     1024.110        2.130        0.553      176.486       38.103        0.047      334.129        3.896      856.935
01/23/2021  14:31:00       76.937      142.659      -18.469       45.028       80.157       25.018     2027.531     6425.216      625.900        1.784        0.454      162.082       28.618        0.031      334.155        3.938      856.937
01/23/2021  14:32:00      -39.054      107.332       -1.404       49.882       72.218       38.790     2488.261     5215.418     1504.658        1.113        0.460      114.216       29.346        0.066      334.264        4.123      856.931
01/23/2021  14:33:00       57.207      104.692       -4.678       44.225       38.095       24.820     1955.838     1451.264      616.012        0.914        0.201      119.303       20.996        0.031      334.233        4.071      856.935
01/23/2021  14:34:00      112.498      108.234      -10.645       61.901       50.587       30.467     3831.715     2558.998      928.209        1.590        0.366      156.110       19.846        0.016      334.160        3.949      856.943
01/23/2021  14:35:00       88.708       24.541       -9.256       54.324       49.345       31.573     2951.101     2434.976      996.861        0.747        0.319       92.040       22.122        0.058      334.254        4.104      856.948
01/23/2021  14:36:00      127.733       60.808      -16.654       58.864       43.347       23.491     3465.015     1878.977      551.813        1.309        0.295      141.469       16.074        0.013      334.132        3.902      856.963
01/23/2021  14:37:00       41.834       76.900      -11.269       28.015       45.787       20.834      784.831     2096.443      434.071        0.555        0.166       87.542       16.629        0.036      334.165        3.958      856.975
01/23/2021  14:38:00       45.014       35.658      -18.902       20.175       21.892       17.762      407.025      479.281      315.477        0.243        0.060       57.426        8.976        0.024      334.078        3.812      856.979
01/23/2021  14:39:00       82.983       23.530      -12.995       85.978       51.741       20.127     7392.281     2677.143      405.108        0.904        0.524       86.254       12.760        0.022      334.162        3.952      856.996
01/23/2021  14:40:00       49.753      -20.563        2.605       57.943       54.614       42.613     3357.370     2982.672     1815.871        0.553        0.408       53.835       34.306        0.406      334.134        3.905      856.994
01/23/2021  14:41:00      202.963       69.474      -23.275       93.865       42.445       25.520     8810.677     1801.589      651.258        2.891        0.563      214.524       20.956        0.010      334.018        3.712      857.014
01/23/2021  14:42:00      150.629       29.699      -14.747       91.856       48.257       30.486     8437.561     2328.699      929.419        1.774        0.585      153.529       29.030        0.036      333.991        3.666      857.020
01/23/2021  14:43:00      107.567       24.651       -1.991       55.777       39.546       25.314     3111.094     1563.873      640.796        0.875        0.266      110.355       31.046        0.079      334.025        3.726      857.028
01/23/2021  14:44:00      137.503       30.449       -8.141       45.891       35.635       25.023     2106.003     1269.839      626.146        1.195        0.200      140.834       17.195        0.015      334.011        3.702      857.038
01/23/2021  14:45:00       95.420       -4.177       -1.718       53.692       55.050       31.250     2882.803     3030.537      976.557        0.801        0.344       95.511       30.248        0.100      334.008        3.698      857.041
01/23/2021  14:46:00       78.334       -0.658      -12.210       35.752       50.964       26.604     1278.236     2597.347      707.766        0.543        0.229       78.337       13.808        0.031      334.084        3.823      857.047
01/23/2021  14:47:00      119.357       34.531      -22.065       67.495       70.248       33.178     4555.546     4934.746     1100.801        1.326        0.530      124.251       23.165        0.035      334.069        3.796      857.053
01/23/2021  14:48:00       48.365        7.574       -7.683       51.013       53.545       31.458     2602.276     2867.034      989.595        0.446        0.323       48.954       23.269        0.226      334.113        3.871      857.064
01/23/2021  14:49:00        1.571       -1.614       -3.548       29.879       42.445       22.873      892.774     1801.537      523.175        0.162        0.161        2.252       24.618      119.460      334.108        3.861      857.085
01/23/2021  14:50:00      127.802       13.837       -0.771       83.160       63.233       27.581     6915.563     3998.420      760.736        1.410        0.584      128.549       31.122        0.059      334.030        3.733      857.104
01/23/2021  14:51:00      105.836       -0.010       -5.741       58.867       47.810       32.715     3465.350     2285.815     1070.254        0.903        0.341      105.836       28.536        0.073      334.012        3.705      857.125
01/23/2021  14:52:00      147.860       63.065       -7.492       58.627       54.995       27.746     3437.123     3024.449      769.827        1.656        0.362      160.747       24.208        0.023      333.944        3.591      857.148
01/23/2021  14:53:00       24.189       -7.799        4.438       29.148       46.177       21.969      849.630     2132.320      482.625        0.206        0.173       25.416       20.051        0.622      334.122        3.886      857.158
01/23/2021  14:54:00       73.067      -63.868      -21.590       38.617       46.905       24.498     1491.295     2200.081      600.143        0.709        0.215       97.046       19.670        0.041      334.082        3.820      857.175
01/23/2021  14:55:00       76.753      -13.523      -14.101       49.907       44.864       27.791     2490.754     2012.784      772.360        0.577        0.264       77.936       19.328        0.062      334.149        3.931      857.170
01/23/2021  14:56:00       98.349      -27.799      -11.328       56.514       46.024       32.339     3193.879     2118.177     1045.813        0.846        0.318      102.203       32.818        0.103      334.252        4.102      857.180
01/23/2021  14:57:00       60.478        0.546      -16.233       56.270       44.008       27.707     3166.369     1936.702      767.677        0.489        0.294       60.480        9.892        0.027      334.214        4.039      857.193
01/23/2021  14:58:00       77.515       -5.164       -2.703       49.079       52.293       31.370     2408.718     2734.513      984.097        0.608        0.306       77.687       28.829        0.138      334.087        3.829      857.200
01/23/2021  14:59:00      111.894       -8.221       -3.044       71.153       48.021       29.002     5062.758     2306.014      841.108        1.040        0.410      112.196       29.053        0.067      334.005        3.692      857.200
01/23/2021  15:00:00       62.853       24.652        4.945       51.172       44.987       31.942     2618.611     2023.813     1020.276        0.512        0.283       67.515       31.630        0.219      333.967        3.631      857.196
01/23/2021  15:01:00       97.369       21.578       -6.498       49.756       37.563       17.703     2475.702     1410.991      313.409        0.709        0.210       99.732       18.496        0.034      333.936        3.577      857.193
01/23/2021  15:02:00       80.835       17.727      -11.211       53.591       45.633       24.462     2872.012     2082.352      598.411        0.626        0.278       82.756       32.060        0.150      334.004        3.690      857.189
01/23/2021  15:03:00       91.282        9.441      -11.834       33.844       47.618       18.949     1145.435     2267.484      359.051        0.617        0.189       91.769       18.075        0.039      333.977        3.647      857.181
01/23/2021  15:04:00      141.005       63.071      -15.778       52.796       47.619       23.794     2787.390     2267.600      566.159        1.486        0.281      154.468       23.932        0.024      333.958        3.615      857.172
01/23/2021  15:05:00      110.655       49.299      -13.467       44.886       40.593       20.603     2014.765     1647.764      424.500        0.947        0.204      121.140       21.609        0.032      334.036        3.744      857.160
01/23/2021  15:06:00       72.882       43.279      -12.911       45.580       47.806       24.587     2077.527     2285.380      604.517        0.616        0.248       84.764       12.235        0.021      334.091        3.836      857.154
01/23/2021  15:07:00       39.236      -18.616       -6.378       44.671       36.722       30.599     1995.523     1348.525      936.312        0.310        0.214       43.428       29.291        0.455      334.094        3.839      857.144
01/23/2021  15:08:00       45.157      -23.816        0.629       37.935       33.628       28.971     1439.069     1130.824      839.325        0.301        0.170       51.052       25.005        0.240      334.121        3.883      857.131
01/23/2021  15:09:00       87.650       -7.041       -8.401       66.770       45.469       35.343     4458.264     2067.432     1249.094        0.779        0.389       87.932       27.334        0.097      334.117        3.878      857.116
01/23/2021  15:10:00       70.484       -8.112       -3.422       61.809       54.591       28.823     3820.414     2980.193      830.754        0.634        0.382       70.950       29.362        0.171      334.096        3.842      857.102
01/23/2021  15:11:00      106.929        1.201       -0.596       45.900       42.356       30.646     2106.852     1794.062      939.189        0.814        0.242      106.936       25.517        0.057      334.139        3.913      857.094
01/23/2021  15:12:00       62.231       11.955       -6.200       61.306       45.657       36.280     3758.390     2084.527     1316.273        0.561        0.358       63.369       30.363        0.230      334.200        4.017      857.082
01/23/2021  15:13:00       44.431      -15.791      -22.474       37.807       50.767       28.686     1429.403     2577.329      822.879        0.378        0.241       47.154       23.067        0.239      334.189        3.998      857.072
01/23/2021  15:14:00       65.197      -20.869      -12.236       46.836       42.637       31.222     2193.649     1817.909      974.837        0.491        0.249       68.455       20.454        0.089      334.175        3.974      857.067
01/23/2021  15:15:00      118.586      -13.809      -20.785       78.622       73.287       43.811     6181.496     5371.039     1919.435        1.408        0.674      119.388       42.766        0.128      334.154        3.939      857.048
01/23/2021  15:16:00      143.342      -24.084      -13.567       87.193       63.359       47.505     7602.620     4014.396     2256.692        1.759        0.694      145.351       50.690        0.122      334.075        3.807      857.049
01/23/2021  15:17:00       72.833      -15.260       -7.437       56.430       64.241       41.140     3184.302     4126.915     1692.478        0.730        0.450       74.415       32.682        0.193      334.053        3.771      857.036
01/23/2021  15:18:00       85.939       -2.968      -19.228       45.054       72.362       27.846     2029.843     5236.279      775.414        0.790        0.402       85.990       19.761        0.053      334.078        3.813      857.030
01/23/2021  15:19:00       98.379        1.734       -0.673       73.708       60.405       35.487     5432.820     3648.747     1259.321        1.001        0.517       98.394       37.594        0.146      334.076        3.811      857.018
01/23/2021  15:20:00       47.368      -24.660      -14.524       38.414       46.371       26.483     1475.633     2150.224      701.332        0.369        0.216       53.403       19.475        0.133      334.132        3.902      857.012
01/23/2021  15:21:00       95.126      -68.335      -23.645       65.387       65.475       32.689     4275.462     4286.938     1068.560        1.195        0.482      117.127       26.004        0.049      334.105        3.857      856.999
01/23/2021  15:22:00       84.813      -15.321        3.702       88.567       67.453       47.236     7844.079     4549.948     2231.201        1.103        0.731       86.186       43.356        0.253      334.064        3.790      856.990
01/23/2021  15:23:00      101.716       33.913       -5.724       69.481       70.099       33.946     4827.576     4913.806     1152.348        1.121        0.545      107.220       34.862        0.106      334.042        3.754      856.991
01/23/2021  15:24:00       86.252      -45.417       -9.421       65.767       44.371       29.244     4325.305     1968.753      855.197        0.837        0.357       97.479       27.720        0.081      334.123        3.888      857.000
01/23/2021  15:25:00       74.907       -8.476      -15.413       43.423       40.444       30.768     1885.584     1635.686      946.672        0.519        0.223       75.385       22.121        0.086      334.145        3.924      857.018
01/23/2021  15:26:00       67.315      -23.708      -14.115       72.208       45.268       31.774     5213.931     2049.221     1009.602        0.678        0.414       71.367       37.261        0.273      334.114        3.872      857.026
01/23/2021  15:27:00       49.538       -7.236       -9.259       32.613       27.603       18.665     1063.588      761.940      348.401        0.238        0.109       50.064       16.673        0.111      334.127        3.893      857.048
01/23/2021  15:28:00       68.759       10.725       -4.634       25.867       32.679       17.132      669.119     1067.894      293.519        0.345        0.102       69.590       12.175        0.031      334.073        3.804      857.061
01/23/2021  15:29:00       69.046       -8.555       -8.794       27.669       34.188       16.804      765.572     1168.797      282.386        0.357        0.111       69.574       14.828        0.045      334.161        3.951      857.076
01/23/2021  15:30:00       33.675      -10.832       -4.562       42.123       38.279       26.716     1774.335     1465.270      713.764        0.261        0.198       35.374       25.923        0.537      334.183        3.987      857.080
01/23/2021  15:31:00       82.976      -23.913       -4.109       69.556       44.833       33.003     4838.055     2009.996     1089.187        0.770        0.397       86.353       29.097        0.114      334.023        3.721      857.089
01/23/2021  15:32:00       76.149       15.656       -4.238       59.781       55.672       43.308     3573.750     3099.400     1875.607        0.730        0.427       77.741       33.679        0.188      334.077        3.811      857.097
01/23/2021  15:33:00       26.416       -3.442        6.731       52.642       36.694       31.099     2771.194     1346.442      967.172        0.292        0.254       26.639       30.041        1.272      334.214        4.038      857.104
01/23/2021  15:34:00      118.117       11.408      -22.396       47.895       50.740       26.297     2293.971     2574.586      691.533        1.007        0.278      118.667       21.792        0.034      334.072        3.804      857.105
01/23/2021  15:35:00       99.270       14.099       -4.361       48.223       38.185       24.684     2325.497     1458.080      609.299        0.723        0.220      100.266       18.209        0.033      334.015        3.709      857.117
01/23/2021  15:36:00       92.149       11.230        3.675       54.095       41.524       25.391     2926.225     1724.217      644.712        0.696        0.265       92.830       23.220        0.063      334.048        3.764      857.121
01/23/2021  15:37:00      115.039      -13.856       -0.943       71.282       32.828       29.918     5081.155     1077.659      895.065        1.024        0.353      115.870       33.278        0.082      334.073        3.805      857.122
01/23/2021  15:38:00       91.556        8.769       -1.319       73.432       59.408       49.007     5392.189     3529.282     2401.703        0.989        0.566       91.975       40.660        0.195      334.044        3.757      857.126
01/23/2021  15:39:00      123.445      -25.401      -21.649       67.903       56.222       40.003     4610.859     3160.938     1600.215        1.286        0.469      126.031       23.976        0.036      334.054        3.773      857.129
01/23/2021  15:40:00       90.094      -17.495       -5.473       87.186       61.407       48.674     7601.412     3770.858     2369.122        1.109        0.687       91.777       45.990        0.251      334.058        3.779      857.134
01/23/2021  15:41:00       83.136      -22.348      -20.268       53.259       53.187       29.993     2836.519     2828.854      899.584        0.719        0.328       86.088       27.994        0.106      334.090        3.832      857.150
01/23/2021  15:42:00       68.354      -39.034      -31.769       44.415       55.139       22.219     1972.686     3040.273      493.693        0.635        0.275       78.714       19.109        0.059      334.186        3.992      857.152
01/23/2021  15:43:00       71.491      -17.446      -20.768       54.798       50.508       22.345     3002.823     2551.072      499.288        0.595        0.303       73.588       19.952        0.074      334.120        3.883      857.160
01/23/2021  15:44:00       84.376       21.240       -6.779       67.037       62.550       28.218     4493.976     3912.553      796.267        0.841        0.460       87.008       17.741        0.042      334.125        3.890      857.162
01/23/2021  15:45:00       85.071      -11.991       -3.183       59.776       37.559       31.494     3573.203     1410.710      991.903        0.668        0.299       85.912       25.447        0.088      334.089        3.831      857.162
01/23/2021  15:46:00       62.243        8.312      -12.694       46.477       49.095       26.932     2160.126     2410.287      725.316        0.470        0.265       62.796       21.933        0.122      334.128        3.895      857.160
01/23/2021  15:47:00       74.395        5.929       -2.312       46.717       57.067       28.138     2182.475     3256.663      791.766        0.590        0.312       74.631       13.028        0.030      334.135        3.908      857.153
01/23/2021  15:48:00      144.878       45.311      -13.472       53.777       41.101       21.935     2891.977     1689.293      481.156        1.414        0.253      151.799       22.930        0.023      334.010        3.701      857.152
01/23/2021  15:49:00       75.309      -17.141        0.253       84.068       49.959       51.595     7067.443     2495.916     2662.072        0.909        0.611       77.235       50.627        0.430      334.058        3.779      857.133
01/23/2021  15:50:00       41.055       -7.850        3.727       73.754       51.185       46.421     5439.719     2619.943     2154.917        0.599        0.511       41.799       41.406        0.981      334.056        3.776      857.125
01/23/2021  15:51:00      103.465      -15.941      -26.523       48.870       60.179       40.512     2388.320     3621.570     1641.224        0.966        0.383      104.686       29.074        0.077      334.113        3.871      857.127
01/23/2021  15:52:00       73.284       -5.534       -5.307       54.287       41.946       30.047     2947.065     1759.445      902.828        0.552        0.280       73.493       20.538        0.078      334.100        3.849      857.124
01/23/2021  15:53:00       66.620      -13.399        1.272       67.547       72.034       45.057     4562.571     5188.889     2030.173        0.820        0.589       67.954       42.810        0.397      334.054        3.774      857.115
01/23/2021  15:54:00       43.073      -13.943        1.970       73.392       45.162       43.188     5386.393     2039.606     1865.186        0.567        0.465       45.274       43.692        0.931      334.025        3.726      857.112
01/23/2021  15:55:00      164.021      -22.245      -22.377       90.543       72.432       46.010     8198.063     5246.349     2116.934        2.173        0.778      165.522       33.204        0.040      334.010        3.697      857.100
01/23/2021  15:56:00       60.161      -28.892      -12.107       60.311       61.630       36.623     3637.409     3798.205     1341.217        0.669        0.439       66.739       30.260        0.206      334.074        3.807      857.111
01/23/2021  15:57:00      138.443        2.036      -26.900       50.497       78.219       29.991     2549.913     6118.279      899.479        1.473        0.478      138.458       19.784        0.020      334.051        3.766      857.113
01/23/2021  15:58:00       97.136      -34.814      -22.114       71.259       68.185       33.364     5077.878     4649.191     1113.127        1.099        0.542      103.186       38.498        0.139      334.069        3.797      857.118
01/23/2021  15:59:00      103.116      -48.141       -9.526       71.454       78.516       41.641     5105.729     6164.760     1733.992        1.302        0.650      113.801       40.854        0.129      334.112        3.870      857.125
01/23/2021  16:00:00      138.784       12.021      -23.363       89.296      120.884       37.919     7973.834    14612.831     1437.840        2.198        1.201      139.304       41.048        0.087      334.121        3.884      857.136
01/23/2021  16:01:00       24.427       29.609       -4.240       72.937       52.259       29.579     5319.862     2730.952      874.941        0.521        0.446       38.385       30.403        0.627      334.132        3.902      857.149
01/23/2021  16:02:00      116.644       60.635      -10.488       76.478       65.511       32.862     5848.865     4291.711     1079.930        1.430        0.561      131.462       30.013        0.052      334.093        3.837      857.161
01/23/2021  16:03:00      155.315       96.549      -12.454       62.713       33.714       26.800     3932.928     1136.616      718.222        1.969        0.289      182.878       24.707        0.018      334.044        3.754      857.165
01/23/2021  16:04:00      108.810       52.401       -8.840       43.541       38.755       22.369     1895.827     1501.984      500.380        0.928        0.195      120.771       13.660        0.013      334.081        3.818      857.168
01/23/2021  16:05:00       63.503       -3.377        0.405       56.748       40.706       26.494     3220.287     1657.003      701.954        0.481        0.279       63.592       27.631        0.189      334.117        3.878      857.174
01/23/2021  16:06:00      123.734       40.656        0.599       60.119       41.063       24.613     3614.350     1686.157      605.779        1.143        0.295      130.243       17.739        0.019      334.081        3.818      857.187
01/23/2021  16:07:00      136.747       48.204       -6.770       51.030       33.604       27.831     2604.093     1129.244      774.571        1.279        0.225      144.994       25.409        0.031      334.068        3.796      857.195
01/23/2021  16:08:00      114.500       39.205      -17.714       42.921       38.872       20.627     1842.194     1511.014      425.460        0.937        0.189      121.026       17.096        0.020      334.159        3.951      857.201
01/23/2021  16:09:00       65.113       23.499       -3.334       64.955       44.065       29.907     4219.116     1941.762      894.456        0.593        0.353       69.224       36.730        0.282      334.291        4.168      857.205
01/23/2021  16:10:00      111.428       38.475      -12.789       48.720       47.192       26.294     2373.597     2227.128      691.374        0.967        0.265      117.884       26.896        0.052      334.148        3.929      857.216
01/23/2021  16:11:00       94.690       19.323       -1.413       31.797       35.114       19.726     1011.021     1232.966      389.096        0.599        0.132       96.642       12.220        0.016      334.089        3.831      857.221
01/23/2021  16:12:00      119.806       36.844       -9.250       27.912       23.800       16.385      779.088      566.440      268.467        0.870        0.081      125.343        9.271        0.005      334.071        3.800      857.226
01/23/2021  16:13:00       50.820        0.766      -17.159       33.165       61.819       17.638     1099.916     3821.617      311.101        0.405        0.262       50.826       13.943        0.075      334.150        3.932      857.223
01/23/2021  16:14:00       58.242      -22.842       -7.151       36.693       37.568       21.317     1346.388     1411.373      454.425        0.359        0.161       62.561       10.241        0.027      334.145        3.924      857.227
01/23/2021  16:15:00      110.352       36.173       -6.322       35.686       29.882       24.455     1273.458      892.945      598.065        0.814        0.138      116.129       16.262        0.020      334.101        3.852      857.220
01/23/2021  16:16:00      100.417       57.830       -4.254       27.520       19.283       16.182      757.337      371.853      261.850        0.742        0.070      115.879       11.983        0.011      334.076        3.808      857.215
01/23/2021  16:17:00       52.772       10.532        3.869       42.470       40.456       26.146     1803.665     1636.715      683.598        0.352        0.206       53.813       26.850        0.249      334.196        4.009      857.208
01/23/2021  16:18:00        8.125        6.892        1.461       20.652       32.621       16.073      426.496     1064.155      258.333        0.093        0.087       10.654       15.343        2.074      334.254        4.105      857.206
01/23/2021  16:19:00       52.978        4.808      -14.578       55.709       44.193       33.057     3103.478     1953.055     1092.796        0.459        0.307       53.196       32.400        0.371      334.308        4.196      857.202
01/23/2021  16:20:00       54.666        0.570       -6.656       53.344       46.212       30.466     2845.611     2135.545      928.171        0.447        0.295       54.669       27.006        0.244      334.140        3.915      857.205
01/23/2021  16:21:00       89.812      -44.904      -14.955       48.414       41.634       28.197     2343.886     1733.384      795.079        0.759        0.244      100.412       22.443        0.050      334.126        3.892      857.210
01/23/2021  16:22:00       88.492      -29.353      -15.396       60.606       44.980       29.023     3673.133     2023.171      842.334        0.773        0.327       93.233       22.848        0.060      334.099        3.847      857.215
01/23/2021  16:23:00      118.395      -45.228       -6.287       73.816       41.499       34.342     5448.822     1722.175     1179.341        1.222        0.418      126.740       31.577        0.062      334.106        3.858      857.219
01/23/2021  16:24:00       67.828      -13.795        0.791       64.547       47.455       35.378     4166.270     2251.963     1251.609        0.623        0.383       69.217       31.680        0.209      334.130        3.899      857.216
01/23/2021  16:25:00       81.760      -13.098       -1.804       58.549       37.520       39.173     3427.978     1407.767     1534.555        0.661        0.319       82.803       34.453        0.173      334.143        3.920      857.214
01/23/2021  16:26:00       80.598       -2.228       -9.096       54.575       41.154       31.201     2978.437     1693.687      973.474        0.611        0.282       80.629       30.286        0.141      334.115        3.874      857.213
01/23/2021  16:27:00       49.010       -5.699      -13.587       49.279       64.800       38.461     2428.405     4199.013     1479.269        0.536        0.405       49.341       32.703        0.439      334.240        4.081      857.211
01/23/2021  16:28:00       53.423        5.005       -8.887       43.568       58.418       31.346     1898.156     3412.650      982.557        0.462        0.315       53.656       23.480        0.191      334.235        4.074      857.224
01/23/2021  16:29:00      109.088       29.594       -6.619       45.996       42.131       20.797     2115.643     1775.016      432.506        0.857        0.216      113.031       14.724        0.017      334.130        3.900      857.243
01/23/2021  16:30:00      131.357       38.284       -7.896       55.576       41.297       26.965     3088.715     1705.469      727.106        1.215        0.276      136.822       26.643        0.038      334.092        3.836      857.256
01/23/2021  16:31:00       73.080      -38.993      -11.201       43.265       68.502       24.887     1871.834     4692.470      619.387        0.708        0.359       82.833       27.568        0.111      334.140        3.916      857.272
01/23/2021  16:32:00       51.820       -8.064      -10.519       45.603       31.766       18.650     2079.674     1009.049      347.807        0.315        0.172       52.444       21.904        0.174      334.110        3.866      857.275
01/23/2021  16:33:00       80.338       18.324       -6.109       28.929       21.428       16.740      836.869      459.152      280.235        0.420        0.079       82.401       12.324        0.022      334.085        3.822      857.283
01/23/2021  16:34:00       95.617       34.559       -4.337       38.613       23.147       13.800     1490.930      535.794      190.441        0.629        0.111      101.670       13.393        0.017      334.071        3.803      857.283
01/23/2021  16:35:00       62.500       10.549       -1.837       44.469       43.058       25.098     1977.474     1853.958      629.897        0.424        0.223       63.384       17.125        0.073      334.156        3.941      857.286
01/23/2021  16:36:00       54.479       10.795      -19.675       48.457       56.530       27.934     2348.128     3195.611      780.308        0.490        0.316       55.538       20.013        0.130      334.282        4.151      857.286
01/23/2021  16:37:00       82.769      -20.713      -34.295       51.262       51.065       30.493     2627.764     2607.636      929.831        0.731        0.308       85.321       25.698        0.091      334.288        4.161      857.293
01/23/2021  16:38:00       52.999      -10.339      -10.257       34.468       41.319       26.899     1188.028     1707.290      723.575        0.332        0.181       53.998        7.821        0.021      334.198        4.012      857.296
01/23/2021  16:39:00       63.122        8.776       -1.211       36.037       33.827       22.779     1298.646     1144.242      518.861        0.351        0.148       63.729       14.286        0.050      334.120        3.881      857.303
01/23/2021  16:40:00       54.661       -5.989       -7.344       33.860       27.109       16.979     1146.506      734.875      288.301        0.262        0.108       54.988       13.944        0.064      334.154        3.938      857.305
01/23/2021  16:41:00       39.507      -11.740      -13.476       32.782       32.049       26.019     1074.646     1027.107      676.980        0.233        0.139       41.214       17.995        0.191      334.177        3.978      857.301
01/23/2021  16:42:00       34.808       -4.435      -23.010       37.998       47.979       30.844     1443.837     2302.022      951.356        0.323        0.235       35.090       25.266        0.518      334.154        3.937      857.296
01/23/2021  16:43:00       68.596      -11.723      -26.958       37.765       74.091       27.080     1426.191     5489.445      733.331        0.661        0.382       69.591       28.603        0.169      334.116        3.876      857.302
01/23/2021  16:44:00       66.309       26.391      -14.397       35.399       37.434       16.738     1253.119     1401.310      280.149        0.412        0.147       71.368       12.679        0.032      334.135        3.907      857.304
01/23/2021  16:45:00       11.079       -7.352      -11.763       25.957       35.918       23.034      673.779     1290.095      530.585        0.140        0.125       13.296       10.243        0.593      334.137        3.911      857.307
01/23/2021  16:46:00       19.198      -11.124       -7.482       22.949       43.765       22.201      526.654     1915.371      492.866        0.174        0.147       22.188       14.929        0.453      334.182        3.986      857.307
01/23/2021  16:47:00       18.484       -3.398      -12.397       31.416       30.280       17.446      986.971      916.877      304.347        0.136        0.110       18.794       17.201        0.838      334.159        3.948      857.307
01/23/2021  16:48:00       95.738      -47.665      -12.622       70.112       46.488       22.759     4915.761     2161.113      517.950        0.959        0.380      106.948       21.064        0.039      334.112        3.868      857.310
01/23/2021  16:49:00       92.364      -24.832      -16.122       47.377       34.973       22.218     2244.587     1223.104      493.637        0.668        0.198       95.644       23.231        0.059      334.105        3.857      857.321
01/23/2021  16:50:00       81.289       14.324       -1.642       55.839       50.296       30.739     3118.028     2529.664      944.876        0.670        0.330       82.541       26.884        0.106      334.120        3.881      857.345
01/23/2021  16:51:00      150.847       44.276      -10.728       33.416       41.247       29.912     1116.601     1701.319      894.719        1.427        0.186      157.211       21.783        0.019      334.063        3.789      857.357
01/23/2021  16:52:00       74.216       47.757       -5.806       38.746       26.513       19.378     1501.254      702.943      375.512        0.520        0.129       88.254       14.689        0.028      334.031        3.735      857.372
01/23/2021  16:53:00       67.291       31.722      -12.827       20.432       19.206       14.054      417.456      368.880      197.506        0.334        0.049       74.394       11.565        0.024      334.026        3.727      857.381
01/23/2021  16:54:00       82.258       49.716      -13.291       29.606       19.049       14.623      876.543      362.872      213.836        0.543        0.073       96.114       11.508        0.014      334.103        3.854      857.379
01/23/2021  16:55:00       90.459       44.087      -24.876       24.381       27.185       13.162      594.444      739.038      173.234        0.613        0.075      100.631       11.362        0.013      334.109        3.866      857.374
01/23/2021  16:56:00       73.906       38.265       -8.552       27.688       21.420       17.760      766.651      458.818      315.424        0.427        0.077       83.224       10.523        0.016      334.064        3.790      857.374
01/23/2021  16:57:00       78.976       41.510       -5.167       34.587       23.317       14.336     1196.291      543.681      205.525        0.497        0.097       89.220       14.915        0.028      334.040        3.753      857.365
01/23/2021  16:58:00       89.017       46.948       -9.071       20.286       19.457       14.707      411.515      378.573      216.302        0.561        0.050      100.639       13.189        0.017      334.043        3.758      857.352
01/23/2021  16:59:00       93.607       63.390       -8.483       16.531       17.186       11.412      273.266      295.374      130.224        0.678        0.035      113.051        6.459        0.003      334.040        3.750      857.355
01/23/2021  17:00:00       70.976       10.044       -9.006       42.221       40.195       21.436     1782.628     1615.606      459.488        0.454        0.193       71.683       15.638        0.048      334.095        3.841      857.351
01/23/2021  17:01:00       44.183        4.417       -5.067       34.804       39.571       18.919     1211.349     1565.827      357.913        0.257        0.157       44.403       14.173        0.102      334.092        3.836      857.348
01/23/2021  17:02:00       43.966        1.583       -2.763       32.485       26.855       21.785     1055.263      721.183      474.606        0.210        0.113       43.994       15.112        0.118      334.143        3.920      857.339
01/23/2021  17:03:00       61.498       -3.450       -7.920       52.627       45.135       34.705     2769.643     2037.206     1204.468        0.493        0.301       61.595       25.062        0.166      334.139        3.914      857.325
01/23/2021  17:04:00       90.283       -8.138       -8.164       42.778       40.446       28.305     1829.984     1635.859      801.151        0.627        0.213       90.649       18.859        0.043      334.115        3.874      857.311
01/23/2021  17:05:00       93.783       -0.943      -11.367       49.789       48.685       29.633     2478.941     2370.219      878.098        0.733        0.286       93.787       24.872        0.070      334.161        3.950      857.298
01/23/2021  17:06:00       63.052      -12.909      -18.226       36.390       45.285       20.940     1324.237     2050.742      438.498        0.414        0.191       64.360       15.329        0.057      334.101        3.851      857.295
01/23/2021  17:07:00       86.636       -7.936       -1.010       52.161       27.015       30.938     2720.723      729.789      957.137        0.599        0.220       86.999       29.729        0.117      334.027        3.729      857.299
01/23/2021  17:08:00       64.578       -5.365       -2.857       37.617       23.554       25.696     1415.073      554.780      660.292        0.342        0.132       64.801       23.152        0.128      334.020        3.720      857.312
01/23/2021  17:09:00       49.434       -4.722       -0.024       33.665       28.123       16.336     1133.329      790.915      266.852        0.233        0.110       49.659       14.486        0.085      334.055        3.776      857.333
01/23/2021  17:10:00       61.835       29.129       -9.158       19.804       16.343       11.425      392.208      267.088      130.535        0.277        0.039       68.352        9.961        0.021      334.037        3.747      857.346
01/23/2021  17:11:00       46.149       28.096       -8.629      132.301        9.052       62.490    17503.661       81.934     3904.950        1.224        1.075       54.029       90.067        2.779      334.009        3.705      857.375
01/23/2021  17:12:00       46.925       35.621       -5.037       20.947       12.180        9.325      438.768      148.341       86.946        0.209        0.034       58.914        9.036        0.024      333.988        3.665      857.389
01/23/2021  17:13:00       23.335       43.470       -8.375       15.204       10.403       11.038      231.155      108.227      121.833        0.148        0.023       49.337        2.864        0.003      333.996        3.681      857.413
01/23/2021  17:14:00       11.999       77.550       -5.230       22.033       60.325       12.685      485.474     3639.102      160.920        0.523        0.214       78.473        9.418        0.014      334.021        3.720      857.428
01/23/2021  17:15:00       47.704       20.949       -3.698       29.349       30.283       21.020      861.359      917.059      441.860        0.247        0.111       52.102       13.796        0.070      334.071        3.802      857.444
01/23/2021  17:16:00       13.639       -3.770      -10.400       37.196       36.344       21.523     1383.518     1320.909      463.230        0.174        0.158       14.150       15.846        1.254      334.076        3.810      857.442
01/23/2021  17:17:00      -21.873       43.181       -5.695       35.954       23.947       18.911     1292.697      573.447      357.621        0.230        0.111       48.405       11.617        0.058      334.109        3.864      857.450
01/23/2021  17:18:00      -54.317       83.739       -6.814       37.768       66.656       24.917     1426.404     4443.006      620.851        0.825        0.325       99.813       19.455        0.038      334.112        3.868      857.460
01/23/2021  17:19:00        9.975       62.249        3.868      139.637       43.214       69.432    19498.550     1867.475     4820.762        1.508        1.309       63.043       96.036        2.321      334.142        3.920      857.466
01/23/2021  17:20:00      -30.272       90.786        0.156       39.437       53.292       23.444     1555.306     2840.064      549.627        0.705        0.247       95.700       13.471        0.020      334.116        3.875      857.461
01/23/2021  17:21:00      -11.354       73.052       -0.299       30.596       26.015       14.782      936.126      676.769      218.519        0.365        0.092       73.929        9.596        0.017      334.098        3.847      857.458
01/23/2021  17:22:00       44.156       75.685       -6.303       34.230       44.923       21.666     1171.691     2018.086      469.406        0.569        0.183       87.624       17.055        0.038      334.124        3.888      857.456
01/23/2021  17:23:00       39.312       44.367       -9.383       27.825       29.670       16.276      774.233      880.320      264.902        0.276        0.096       59.278       16.043        0.073      334.067        3.794      857.459
01/23/2021  17:24:00       55.793       13.936      -15.425       25.126       29.400       13.845      631.331      864.350      191.680        0.262        0.084       57.507       11.360        0.039      334.130        3.898      857.456
01/23/2021  17:25:00       80.623       25.393       -3.464       44.297       34.602       19.115     1962.184     1197.329      365.388        0.534        0.176       84.527       11.532        0.019      334.041        3.753      857.452
01/23/2021  17:26:00       90.640       29.176      -10.529       38.821       35.238       20.987     1507.066     1241.697      440.447        0.618        0.159       95.220        8.045        0.007      334.009        3.698      857.454
01/23/2021  17:27:00       96.301       31.620       -9.646       34.971       25.270       22.235     1222.941      638.568      494.413        0.636        0.118      101.359       18.890        0.035      333.995        3.676      857.460
01/23/2021  17:28:00       45.899       -3.697       -2.371       30.419       27.593       16.677      925.316      761.362      278.121        0.204        0.098       46.048       13.864        0.091      334.012        3.704      857.465
01/23/2021  17:29:00       21.010       20.166        1.862       23.806       31.617       17.348      566.718      999.660      300.967        0.136        0.093       29.122       12.144        0.174      334.026        3.728      857.463
01/23/2021  17:30:00       25.678       12.685       -6.483       36.426       41.669       27.651     1326.878     1736.342      764.561        0.234        0.191       28.640       21.603        0.569      334.110        3.865      857.455
01/23/2021  17:31:00       64.124       75.078      -21.025       41.501       30.512       36.303     1722.322      930.955     1317.920        0.708        0.199       98.735       29.826        0.091      334.030        3.735      857.452
01/23/2021  17:32:00       31.832       45.032        3.503       34.411       36.297       22.588     1184.112     1317.481      510.220        0.303        0.151       55.147       15.533        0.079      333.992        3.672      857.460
01/23/2021  17:33:00       58.255       23.959      -15.310      238.519       18.205      112.531    56891.201      331.422    12663.114        3.703        3.494       62.989      163.253        6.717      334.073        3.808      857.467
01/23/2021  17:34:00       27.593        3.835       -6.829       31.796       29.162       15.518     1010.967      850.448      240.812        0.146        0.105       27.858       10.811        0.151      333.971        3.636      857.479
01/23/2021  17:35:00       62.284       30.535      -11.464       35.578       20.885       10.023     1265.784      436.200      100.458        0.337        0.090       69.366        7.267        0.011      333.980        3.653      857.483
01/23/2021  17:36:00       21.068       21.141       -4.811       14.139       12.142       15.389      199.924      147.431      236.819        0.075        0.029       29.846        7.250        0.059      333.963        3.625      857.487
01/23/2021  17:37:00       63.883       33.490       -9.793       24.535       17.737       14.930      601.990      314.595      222.892        0.322        0.057       72.130       13.720        0.036      333.953        3.605      857.491
01/23/2021  17:38:00       64.231       43.354       -4.774       44.458       21.795       16.610     1976.523      475.027      275.887        0.438        0.136       77.493       20.541        0.070      333.972        3.638      857.498
01/23/2021  17:39:00       81.906      103.391       -8.678       58.152       68.201       30.414     3381.638     4651.359      924.986        1.321        0.448      131.902       32.390        0.060      334.025        3.725      857.511
01/23/2021  17:40:00       64.990       73.527       -8.221      178.720       39.707       83.577    31940.809     1576.634     6985.187        2.509        2.025       98.132      117.515        1.434      334.052        3.773      857.519
01/23/2021  17:41:00       62.149       93.156       -3.966       51.342       41.837       25.779     2636.038     1750.374      664.554        0.880        0.253      111.985       19.196        0.029      334.068        3.797      857.526
01/23/2021  17:42:00       66.771       57.654      -13.525      182.888       30.833       86.204    33448.192      950.680     7431.153        2.489        2.092       88.217      123.657        1.965      334.044        3.760      857.525
01/23/2021  17:43:00       37.483      140.662      -10.657       34.343       45.821       24.551     1179.433     2099.522      602.765        1.259        0.194      145.571       20.804        0.020      334.175        3.975      857.515
01/23/2021  17:44:00       54.832       95.875       -2.935       45.413       58.885       27.019     2062.361     3467.500      730.007        0.923        0.313      110.447       31.177        0.080      334.130        3.900      857.506
01/23/2021  17:45:00       -3.658       78.812      -10.950       49.807       31.184       27.025     2480.761      972.447      730.347        0.526        0.209       78.897        8.143        0.011      334.054        3.775      857.507
01/23/2021  17:46:00       18.710      129.822       -7.903       45.573       45.398       32.955     2076.928     2060.998     1086.025        1.124        0.261      131.163       24.144        0.034      334.066        3.793      857.510
01/23/2021  17:47:00        1.398      118.052       -4.350       44.259       46.219       22.934     1958.857     2136.225      525.983        0.929        0.231      118.060       25.077        0.045      334.104        3.856      857.520
01/23/2021  17:48:00       35.875       48.954        9.037       36.531       31.724       24.242     1334.513     1006.424      587.656        0.335        0.146       60.692       23.607        0.151      334.031        3.736      857.538
01/23/2021  17:49:00       12.104       98.798      -10.519       42.647       32.575       20.378     1818.775     1061.139      415.279        0.666        0.165       99.537       15.023        0.023      334.101        3.853      857.556
01/23/2021  17:50:00        0.046      103.148       -5.974       37.960       30.124       18.013     1440.931      907.446      324.467        0.667        0.134      103.148       11.945        0.013      334.060        3.785      857.574
01/23/2021  17:51:00        0.604       61.865       -3.676       47.484       47.756       21.034     2254.716     2280.673      442.426        0.441        0.249       61.868       18.320        0.088      334.061        3.785      857.587
01/23/2021  17:52:00       -5.049       95.495       -2.905       43.524       54.445       25.025     1894.324     2964.286      626.228        0.732        0.274       95.629       26.453        0.077      334.023        3.723      857.600
01/23/2021  17:53:00       10.622       21.826        4.499       28.780       22.838       16.222      828.302      521.566      263.139        0.111        0.081       24.274       17.644        0.528      333.976        3.645      857.615
01/23/2021  17:54:00       37.300       71.577        0.553       34.830       49.898       21.986     1213.126     2489.809      483.385        0.535        0.209       80.713       16.149        0.040      334.045        3.758      857.622
01/23/2021  17:55:00       30.143      102.110       -6.515       29.735       35.099       23.302      884.194     1231.906      542.984        0.702        0.133      106.466       17.570        0.027      334.116        3.875      857.631
01/23/2021  17:56:00       40.941       31.400        4.430       44.094       35.745       18.816     1944.288     1277.685      354.052        0.313        0.179       51.596       17.464        0.115      334.034        3.742      857.637
01/23/2021  17:57:00       67.065       25.837        7.505       28.825       17.523       20.091      830.901      307.043      403.658        0.338        0.077       71.870       11.579        0.026      333.980        3.652      857.644
01/23/2021  17:58:00       54.796       38.925      -13.874       30.005       14.549       17.251      900.272      211.662      297.581        0.306        0.070       67.214       15.767        0.055      334.027        3.729      857.648
01/23/2021  17:59:00       17.311       18.448        6.453       28.922       29.362       16.565      836.493      862.123      274.400        0.133        0.099       25.298       10.200        0.163      333.969        3.634      857.660
01/23/2021  18:00:00      -14.131        2.788        1.628       16.314       15.555       12.064      266.141      241.952      145.542        0.043        0.033       14.404        8.587        0.355      334.089        3.832      857.661
01/23/2021  18:01:00       -9.906        9.253        7.033       16.625       19.541       10.949      276.382      381.847      119.876        0.051        0.039       13.556       10.171        0.563      334.060        3.785      857.666
01/23/2021  18:02:00        5.357        5.492       -3.931       13.641       12.926        8.344      186.068      167.076       69.614        0.025        0.021        7.671        8.323        1.177      333.978        3.648      857.671
01/23/2021  18:03:00        7.484       30.160       -1.573       29.584       54.019       22.160      875.205     2918.075      491.076        0.263        0.214       31.075       19.796        0.406      334.068        3.798      857.669
01/23/2021  18:04:00       -3.114       63.267        8.296       38.895       30.401       24.750     1512.818      924.201      612.585        0.356        0.152       63.344       16.337        0.067      334.003        3.691      857.670
01/23/2021  18:05:00        8.398       55.859        4.103       33.919       29.145       21.805     1150.516      849.426      475.440        0.284        0.124       56.487       14.198        0.063      333.984        3.658      857.677
01/23/2021  18:06:00        1.548       89.377       -9.351      103.874       33.226       51.028    10789.772     1103.944     2603.894        1.128        0.725       89.391       69.341        0.602      334.021        3.720      857.683
01/23/2021  18:07:00        1.247       45.857       -1.202       36.778       34.469       16.080     1352.646     1188.127      258.560        0.245        0.140       45.874        9.110        0.039      334.028        3.730      857.685
01/23/2021  18:08:00       47.441       95.936      -11.384       39.289       40.176       23.010     1543.658     1614.138      529.473        0.763        0.184      107.025       23.664        0.049      334.000        3.684      857.691
01/23/2021  18:09:00       18.595       98.643       -1.790       39.777       35.621       20.978     1582.243     1268.850      440.074        0.668        0.165      100.380       20.821        0.043      334.063        3.788      857.698
01/23/2021  18:10:00      -13.375       70.187       -0.477       30.118       26.824       19.364      907.068      719.540      374.952        0.355        0.100       71.450       14.317        0.040      334.015        3.708      857.691
01/23/2021  18:11:00       19.876       29.931        2.777       21.345       20.783       15.700      455.614      431.949      246.483        0.122        0.057       35.930       12.341        0.118      333.941        3.586      857.694
01/23/2021  18:12:00      -25.629       17.588       -2.428       22.903       25.440       15.040      524.526      647.180      226.210        0.118        0.070       31.084       10.589        0.116      333.986        3.662      857.696
01/23/2021  18:13:00       -2.083       32.741        3.836       23.049       23.537       14.893      531.272      553.996      221.788        0.120        0.065       32.807        9.180        0.078      333.944        3.594      857.706
01/23/2021  18:14:00       -8.430       32.338        1.882       23.233       26.105       13.837      539.777      681.450      191.457        0.127        0.071       33.419       11.211        0.113      333.924        3.559      857.710
01/23/2021  18:15:00       -3.494       78.147      -13.160       24.089       24.726       13.718      580.297      611.358      188.186        0.384        0.069       78.225        9.217        0.014      333.969        3.633      857.710
01/23/2021  18:16:00       27.437       41.830        1.433       29.383       26.169       16.113      863.383      684.804      259.614        0.216        0.090       50.025       12.903        0.067      333.841        3.422      857.706
01/23/2021  18:17:00      -13.730       52.716       -4.373       27.094       24.490       16.912      734.071      599.762      286.024        0.230        0.081       54.474       13.145        0.058      333.906        3.528      857.702
01/23/2021  18:18:00      -23.338       34.463       -4.372       22.562       12.646       11.464      509.024      159.921      131.426        0.128        0.040       41.621        7.427        0.032      333.909        3.533      857.695
01/23/2021  18:19:00      -31.138       69.100       -7.675       27.055       37.082       16.189      731.999     1375.080      262.076        0.409        0.118       75.792       11.845        0.024      333.918        3.549      857.691
01/23/2021  18:20:00      -65.089       15.140       -1.024       41.082       25.028       20.415     1687.709      626.420      416.761        0.360        0.137       66.826       12.612        0.036      333.927        3.564      857.692
01/23/2021  18:21:00        5.244       99.763      -13.568      146.094       53.351       69.437    21343.313     2846.318     4821.518        1.958        1.451       99.901       93.560        0.877      333.984        3.657      857.698
01/23/2021  18:22:00      -40.632       74.118       -5.230       23.628       39.215       17.859      558.263     1537.846      318.931        0.479        0.121       84.525       13.645        0.026      333.936        3.577      857.694
01/23/2021  18:23:00      -75.571       53.393      -14.917       30.135       30.411       15.451      908.147      924.809      238.733        0.543        0.104       92.530       11.034        0.014      333.922        3.555      857.697
01/23/2021  18:24:00      -10.565       95.012      -13.494       42.957       43.829       23.582     1845.284     1920.939      556.097        0.682        0.216       95.598       20.338        0.045      333.931        3.571      857.697
01/23/2021  18:25:00      -42.067       71.979       -3.592       33.299       33.581       16.405     1108.829     1127.674      269.123        0.473        0.125       83.370       11.417        0.019      333.867        3.464      857.706
01/23/2021  18:26:00      -95.455       37.835       -8.035       30.848       25.669       22.553      951.572      658.919      508.631        0.636        0.106      102.680       13.455        0.017      333.839        3.416      857.703
01/23/2021  18:27:00      -62.958       79.576      -18.405      110.557       77.569       56.771    12222.934     6017.012     3222.909        1.604        1.073      101.469       65.250        0.414      333.851        3.437      857.705
01/23/2021  18:28:00      -33.763      138.631       -6.429       59.521       38.215       29.988     3542.734     1460.395      899.266        1.315        0.295      142.684       35.356        0.061      333.861        3.454      857.721
01/23/2021  18:29:00      -64.523       -6.861       -9.300       25.963       46.894       22.345      674.094     2199.044      499.281        0.383        0.169       64.886       13.605        0.044      333.861        3.453      857.721
01/23/2021  18:30:00       15.997      -30.340      -14.704      241.664       50.072      115.223    58401.494     2507.190    13276.336        3.777        3.709       34.299      163.057       22.601      333.964        3.626      857.725
01/23/2021  18:31:00      -19.969       -4.467       -5.681       22.981       26.689       12.920      528.118      712.325      166.938        0.093        0.070       20.463        7.061        0.119      333.850        3.435      857.750
01/23/2021  18:32:00      -17.413       15.571        1.472       15.332       20.100       14.665      235.057      404.016      215.069        0.070        0.043       23.360        5.378        0.053      333.807        3.364      857.755
01/23/2021  18:33:00      -33.550      -25.374      -12.753      205.083       28.482       97.653    42059.229      811.234     9536.082        2.716        2.620       42.065      139.519       11.001      333.854        3.442      857.769
01/23/2021  18:34:00      -61.933      -10.885        1.432       26.060       26.704       19.477      679.116      713.107      379.371        0.286        0.089       62.883       13.154        0.044      333.789        3.334      857.765
01/23/2021  18:35:00       -9.759       10.054        3.818       37.269       37.495       18.824     1388.993     1405.866      354.352        0.168        0.157       14.011       16.878        1.451      333.761        3.289      857.760
01/23/2021  18:36:00      -21.100       28.183        0.079      166.877       34.782       81.262    27847.804     1209.762     6603.518        1.844        1.783       35.206      114.485       10.574      333.679        3.152      857.757
01/23/2021  18:37:00      -22.899      -17.049       -0.743       25.221       28.453       15.113      636.123      809.552      228.388        0.124        0.084       28.548        7.927        0.077      333.691        3.173      857.755
01/23/2021  18:38:00      -39.254      -14.892       -2.695      173.973       24.907       81.167    30266.626      620.341     6588.003        1.961        1.874       41.983      115.641        7.587      333.718        3.218      857.753
01/23/2021  18:39:00      -18.316       10.902       -2.991       75.058       19.778       36.261     5633.745      391.158     1314.831        0.390        0.367       21.315       48.136        5.100      333.671        3.139      857.756
01/23/2021  18:40:00      -47.928       31.249       -1.154       23.465       27.847       16.178      550.627      775.469      261.733        0.243        0.079       57.215       17.612        0.095      333.578        2.985      857.753
01/23/2021  18:41:00      -34.733       22.290        2.798       22.897       28.645       19.314      524.289      820.564      373.037        0.171        0.086       41.270       21.034        0.260      333.639        3.086      857.748
01/23/2021  18:42:00      -90.902       20.623        4.163       40.575       26.953       18.378     1646.318      726.484      337.758        0.571        0.136       93.212       16.500        0.031      333.550        2.940      857.746
01/23/2021  18:43:00      -40.921       -3.597        3.235      189.536       34.456       87.829    35924.065     1187.234     7713.975        2.325        2.241       41.079      122.259        8.858      333.613        3.045      857.747
01/23/2021  18:44:00      -46.224       16.549       -0.607      159.313       34.657       77.343    25380.631     1201.079     5981.952        1.748        1.628       49.097      104.654        4.544      333.542        2.927      857.746
01/23/2021  18:45:00      -31.911        7.432      -13.809      290.855       33.334      139.944    84596.917     1111.166    19584.242        5.326        5.265       32.765      197.270       36.250      333.686        3.167      857.749
01/23/2021  18:46:00       -4.621       13.679        0.191      204.946       37.768       97.150    42002.775     1426.456     9438.172        2.653        2.643       14.438      135.554       88.144      333.620        3.055      857.749
01/23/2021  18:47:00     -110.883       34.308        0.945       57.061       43.565       29.135     3255.976     1897.942      848.872        0.974        0.300      116.069       24.694        0.045      333.446        2.766      857.749
01/23/2021  18:48:00      -73.775       12.636      -11.162      247.355       39.947      114.461    61184.404     1595.752    13101.419        4.079        3.794       74.849      163.996        4.801      333.490        2.840      857.751
01/23/2021  18:49:00     -110.449       57.454        3.880      148.576       39.355       74.423    22074.894     1548.789     5538.799        2.233        1.458      124.499       94.048        0.571      333.300        2.525      857.749
01/23/2021  18:50:00     -111.980       12.572        8.070       53.931       52.824       34.287     2908.537     2790.401     1175.617        0.982        0.344      112.684       32.886        0.085      333.345        2.601      857.745
01/23/2021  18:51:00      -52.611       -0.688       -4.984      262.604       52.203      124.060    68960.716     2725.139    15390.944        4.492        4.354       52.615      172.899       10.798      333.473        2.815      857.730
01/23/2021  18:52:00     -110.305      -32.346      -15.921      164.542       41.609       83.483    27074.094     1731.300     6969.372        2.461        1.789      114.950      109.652        0.910      333.410        2.708      857.719
01/23/2021  18:53:00      -34.935        6.885      -17.208      301.854       37.005      141.709    91115.892     1369.368    20081.367        5.704        5.628       35.607      202.878       32.464      333.514        2.882      857.708
01/23/2021  18:54:00      -24.716       20.386       -3.900      270.328       38.271      125.215    73077.425     1464.676    15678.890        4.561        4.511       32.039      180.142       31.614      333.406        2.702      857.693
01/23/2021  18:55:00      -10.899       12.022      -14.936      289.331       41.028      139.561    83712.521     1683.294    19477.234        5.266        5.244       16.227      198.429      149.531      333.440        2.758      857.691
01/23/2021  18:56:00        7.146       20.295      -14.821      300.145       36.509      141.897    90087.296     1332.921    20134.835        5.609        5.578       21.516      202.838       88.872      333.487        2.837      857.671
01/23/2021  18:57:00      -39.104       25.957        0.149      167.641       36.527       77.704    28103.655     1334.211     6037.868        1.883        1.774       46.935      109.760        5.469      333.302        2.528      857.658
01/23/2021  18:58:00      -20.058       31.471       -5.145      213.516       27.806      102.616    45588.915      773.184    10530.120        2.914        2.845       37.319      146.177       15.342      333.265        2.467      857.650
01/23/2021  18:59:00       34.018       11.770      -10.944      274.217       42.394      132.744    75195.137     1797.232    17621.016        4.799        4.731       35.997      187.562       27.149      333.431        2.743      857.641
01/23/2021  19:00:00       52.820       12.592      -18.100      317.982       40.523      153.528   101112.562     1642.107    23570.907        6.477        6.316       54.300      218.647       16.214      333.481        2.826      857.628
01/23/2021  19:01:00       63.694       -2.932      -11.490      279.460       50.926      133.436    78097.763     2593.494    17805.052        5.133        4.925       63.761      188.845        8.772      333.418        2.722      857.623
01/23/2021  19:02:00      134.535      -18.034      -23.365      275.091       44.868      134.341    75675.109     2013.106    18047.509        5.733        4.787      135.739      188.699        1.933      333.447        2.769      857.627
01/23/2021  19:03:00      133.984      -10.758      -22.725      301.294       47.722      144.090    90778.272     2277.362    20761.816        6.618        5.691      134.415      203.881        2.301      333.564        2.965      857.635
01/23/2021  19:04:00       97.571        7.322      -17.909      180.684       58.000       92.460    32646.599     3364.057     8548.805        2.722        2.228       97.846      123.486        1.593      333.582        2.993      857.636
01/23/2021  19:05:00       77.658       -3.016      -13.862      215.110       41.036      105.013    46272.263     1683.939    11027.757        3.260        2.949       77.716      146.766        3.566      333.694        3.178      857.652
01/23/2021  19:06:00       81.353        5.870      -11.583      348.205       33.728      168.265   121246.906     1137.559    28313.210        7.871        7.535       81.565      239.839        8.646      333.684        3.164      857.658
01/23/2021  19:07:00       41.227       18.326        0.162      216.460       42.392      105.432    46854.992     1797.068    11115.922        3.089        2.988       45.117      147.010       10.617      333.731        3.241      857.659
01/23/2021  19:08:00        0.587       41.767      -15.481      331.793       45.395      156.546   110086.592     2060.693    24506.550        6.929        6.833       41.772      224.448       28.872      333.643        3.096      857.658
01/23/2021  19:09:00      134.410       52.890      -14.266      319.588       44.217      155.492   102136.401     1955.173    24177.824        7.464        6.413      144.441      218.415        2.287      333.727        3.235      857.662
01/23/2021  19:10:00       63.802        4.996        0.740      257.727       42.209      127.632    66423.409     1781.623    16289.869        4.428        4.225       63.998      177.345        7.679      333.607        3.034      857.663
01/23/2021  19:11:00       69.014       28.113        1.100      218.906       50.292      106.796    47919.913     2529.281    11405.310        3.369        3.093       74.521      148.076        3.948      333.615        3.047      857.668
01/23/2021  19:12:00       38.529       16.209        9.157      263.683       38.499      127.462    69528.467     1482.196    16246.483        4.453        4.363       41.799      180.418       18.630      333.593        3.012      857.683
01/23/2021  19:13:00       53.520       39.037        2.446      157.860       54.309       76.892    24919.664     2949.504     5912.388        1.908        1.689       66.244      103.903        2.460      333.457        2.786      857.699
01/23/2021  19:14:00      101.973       32.743       -9.632      362.692       60.392      173.601   131545.388     3647.190    30137.433        8.841        8.267      107.101      246.097        5.280      333.545        2.933      857.716
01/23/2021  19:15:00       81.229       18.237        0.089      200.277       44.781       96.976    40110.882     2005.325     9404.407        2.921        2.576       83.251      134.115        2.595      333.310        2.541      857.727
01/23/2021  19:16:00      185.932       21.554      -28.854      431.778       49.657      209.846   186432.648     2465.864    44035.195       13.435       11.647      187.177      297.905        2.533      333.562        2.964      857.728
01/23/2021  19:17:00      105.609       43.696       -2.981      189.850       51.039       93.443    36042.995     2604.963     8731.519        3.022        2.369      114.292      127.984        1.254      333.191        2.345      857.725
01/23/2021  19:18:00       62.221       93.633        3.421      140.289       51.289       73.382    19681.009     2630.521     5384.942        2.017        1.385      112.421       92.562        0.678      333.221        2.394      857.715
01/23/2021  19:19:00       40.744      118.623      -11.563      260.395       42.075      126.964    67805.534     1770.302    16119.818        5.076        4.285      125.426      177.954        2.013      333.354        2.616      857.711
01/23/2021  19:20:00       15.331      119.311      -11.083      245.546       38.639      119.951    60292.632     1492.954    14388.302        4.537        3.809      120.292      168.876        1.971      333.220        2.394      857.706
01/23/2021  19:21:00        9.577       82.866        5.666      150.207       49.699       71.944    22562.076     2469.999     5175.898        1.859        1.510       83.418       96.239        1.331      333.268        2.471      857.700
01/23/2021  19:22:00       26.125       69.107        3.249      272.531       55.252      128.755    74273.164     3052.822    16577.730        4.967        4.695       73.880      181.914        6.063      333.088        2.177      857.690
01/23/2021  19:23:00       76.117       34.936      -42.538      486.522       44.623      235.623   236703.203     1991.239    55517.995       15.146       14.711       83.752      336.665       16.159      333.121        2.236      857.689
01/23/2021  19:24:00       50.918       31.739       -0.851      310.729       52.209      148.781    96552.644     2725.728    22135.832        6.248        6.071       60.000      210.830       12.347      332.871        1.819      857.673
01/23/2021  19:25:00       48.493       38.033       -6.364      278.521       50.729      137.629    77574.032     2573.449    18941.734        5.144        4.954       61.628      191.022        9.607      332.992        2.019      857.662
01/23/2021  19:26:00       38.069       46.526       -6.712      313.980       49.043      150.453    98583.566     2405.214    22636.014        6.362        6.181       60.116      212.686       12.517      332.995        2.023      857.648
01/23/2021  19:27:00       37.981       33.792        3.214      231.277       48.431      115.582    53488.825     2345.591    13359.098        3.588        3.460       50.838      157.985        9.657      332.869        1.815      857.632
01/23/2021  19:28:00       25.782       49.080        5.581      155.002       46.862       78.771    24025.700     2196.052     6204.930        1.776        1.621       55.440      103.389        3.478      332.809        1.714      857.581
01/23/2021  19:29:00       66.739       47.812       -2.265      247.282       51.729      122.232    61148.458     2675.905    14940.672        4.274        3.938       82.098      168.599        4.217      333.083        2.167      857.548
01/23/2021  19:30:00       82.460       34.090       -9.710      353.504       47.302      172.404   124964.793     2237.477    29723.126        8.246        7.846       89.229      243.422        7.442      333.098        2.194      857.540
01/23/2021  19:31:00       80.607       43.084      -11.846      371.491       46.918      179.626   138005.588     2201.256    32265.603        9.045        8.624       91.399      255.159        7.794      333.124        2.238      857.529
01/23/2021  19:32:00       17.905       30.126        0.581      268.493       47.452      131.401    72088.759     2251.656    17266.180        4.640        4.580       35.045      182.700       27.178      332.896        1.860      857.520
01/23/2021  19:33:00       -1.650        9.090       12.866      134.497       44.189       68.762    18089.524     1952.708     4728.258        1.251        1.239        9.238       87.526       89.767      332.717        1.562      857.527
01/23/2021  19:34:00      -12.715       25.693      -11.969      281.935       48.780      139.802    79487.293     2379.529    19544.473        5.117        5.071       28.667      194.009       45.802      332.796        1.695      857.534
01/23/2021  19:35:00       11.747       31.394        1.348      241.147       53.094      116.912    58151.646     2818.920    13668.506        3.787        3.732       33.520      162.367       23.463      332.747        1.613      857.547
01/23/2021  19:36:00       14.226       20.837      -20.334      374.553       52.288      181.448   140290.043     2734.040    32923.341        8.846        8.797       25.230      255.461      102.519      332.722        1.574      857.559
01/23/2021  19:37:00      -85.326       17.239       -8.117      137.819       50.828       68.423    18993.951     2583.513     4681.751        1.695        1.313       87.050       81.583        0.878      332.437        1.100      857.555
01/23/2021  19:38:00      -21.724       26.764      -25.458      436.061       58.345      205.033   190149.314     3404.137    42038.686       11.866       11.780       34.471      291.436       71.479      332.651        1.459      857.559
01/23/2021  19:39:00     -105.664       31.369       14.338       59.963       59.396       39.420     3595.557     3527.870     1553.937        1.051        0.434      110.222       43.452        0.155      332.311        0.890      857.557
01/23/2021  19:40:00      -46.966       49.369       -8.488      360.574       57.166      165.196   130013.391     3267.909    27289.605        8.261        8.029       68.141      237.874       12.187      332.345        0.953      857.547
01/23/2021  19:41:00     -111.784       61.283        7.823       50.783       55.100       32.833     2578.881     3036.056     1077.984        1.150        0.335      127.481       34.827        0.075      332.122        0.581      857.536
01/23/2021  19:42:00       -4.239       46.851      -10.528      395.050       63.188      188.933   156064.357     3992.730    35695.654        9.900        9.788       47.042      267.694       32.382      332.275        0.838      857.540
01/23/2021  19:43:00      -15.350       29.328      -20.446      422.333       55.808      199.592   178365.447     3114.548    39837.078       11.137       11.066       33.103      285.385       74.325      332.372        0.997      857.534
01/23/2021  19:44:00      -48.420       18.412      -23.092      390.443       52.437      192.938   152445.778     2749.685    37224.901        9.778        9.621       51.802      268.138       26.793      332.348        0.957      857.542
01/23/2021  19:45:00      -59.791       59.595      -26.589      355.063       51.511      161.342   126069.762     2653.337    26031.203        8.126        7.738       84.418      230.764        7.472      332.263        0.816      857.556
01/23/2021  19:46:00     -135.275       54.330       -2.941       51.037       55.303       36.425     2604.773     3058.468     1326.815        1.412        0.350      145.778       36.176        0.062      332.099        0.541      857.569
01/23/2021  19:47:00      -41.265       62.006      -58.303      522.169       55.088      247.057   272660.125     3034.741    61037.086       17.277       16.837       74.482      355.832       22.824      332.488        1.192      857.585
01/23/2021  19:48:00      -79.069       45.645      -44.951      413.239       51.097      203.914   170766.474     2610.853    41580.941       11.261       10.748       91.299      285.056        9.748      332.290        0.862      857.600
01/23/2021  19:49:00      -66.472       69.377      -42.771      403.386       56.572      197.525   162720.325     3200.435    39016.182       10.796       10.247       96.082      276.441        8.278      332.321        0.913      857.608
01/23/2021  19:50:00      -73.162       42.982      -22.806      324.945       52.177      155.942   105589.094     2722.435    24317.922        7.015        6.631       84.853      218.726        6.644      332.255        0.803      857.603
01/23/2021  19:51:00     -114.583       46.251       -9.911      252.962       47.953      125.039    63989.535     2299.477    15634.696        4.863        4.096      123.565      168.479        1.859      332.196        0.702      857.601
01/23/2021  19:52:00     -107.397       49.757      -31.168      325.161       51.746      152.453   105729.518     2677.685    23241.998        7.329        6.582      118.363      216.484        3.345      332.309        0.891      857.588
01/23/2021  19:53:00     -109.125       41.369      -34.029      183.473       52.281       96.272    33662.513     2733.351     9268.246        3.021        2.283      116.703      120.025        1.058      332.232        0.760      857.578
01/23/2021  19:54:00      -24.488       51.244      -49.766      459.523       58.353      222.883   211161.470     3405.042    49676.683       13.492       13.212       56.794      313.752       30.518      332.414        1.067      857.572
01/23/2021  19:55:00      -41.462       66.588      -37.332      406.765       61.058      189.337   165457.400     3728.053    35848.437       10.625       10.252       78.442      271.788       12.005      332.333        0.932      857.569
01/23/2021  19:56:00     -103.985       77.141      -25.706      268.864       52.615      131.993    72287.818     2768.334    17422.281        5.493        4.624      129.474      182.064        1.977      332.219        0.741      857.567
01/23/2021  19:57:00      -49.581       17.524      -17.055      258.251       72.767      130.107    66693.650     5295.065    16927.933        4.597        4.446       52.587      170.170       10.472      332.197        0.705      857.574
01/23/2021  19:58:00       16.191       67.847      -40.978      478.972       68.948      224.156   229414.257     4753.787    50246.047       14.542       14.221       69.752      323.925       21.566      332.340        0.947      857.584
01/23/2021  19:59:00      -31.271       38.167      -33.202      449.649       54.558      203.336   202184.523     2976.554    41345.594       12.497       12.325       49.342      296.450       36.097      332.281        0.847      857.601
01/23/2021  20:00:00     -121.417       71.672      -31.987      232.042       55.920      114.321    53843.657     3127.066    13069.245        4.546        3.502      140.993      155.429        1.215      332.089        0.527      857.606
01/23/2021  20:01:00      -62.359       62.593      -33.690      341.766       60.445      158.324   116803.980     3653.615    25066.476        7.720        7.276       88.355      226.988        6.600      332.151        0.630      857.605
01/23/2021  20:02:00      -55.427       39.228      -50.391      404.478       57.672      191.407   163602.201     3326.081    36636.551       10.532       10.178       67.905      273.777       16.255      332.180        0.680      857.599
01/23/2021  20:03:00       14.064       20.774      -31.551      374.483       61.623      176.234   140237.247     3797.428    31058.480        8.832        8.755       25.087      249.408       98.839      332.105        0.555      857.591
01/23/2021  20:04:00      -24.862       26.930       -9.647      315.780       56.203      147.910    99716.748     3158.806    21877.315        6.307        6.238       36.652      207.198       31.958      332.042        0.449      857.581
01/23/2021  20:05:00       78.384       34.324      -52.835      587.793       55.435      285.479   345501.004     3073.007    81498.535       22.000       21.504       85.570      405.860       22.496      332.428        1.095      857.570
01/23/2021  20:06:00      -30.198       39.793      -34.002      403.184       52.848      193.352   162557.243     2792.868    37385.069       10.315       10.137       49.954      274.801       30.262      332.170        0.664      857.556
01/23/2021  20:07:00      -44.763       48.907      -41.242      400.293       43.991      194.798   160234.257     1935.199    37946.386       10.306       10.006       66.299      276.004       17.331      332.135        0.605      857.542
01/23/2021  20:08:00      -13.846       43.487      -39.946      466.864       46.736      227.462   217962.285     2184.263    51739.086       13.773       13.594       45.638      322.609       49.968      332.206        0.725      857.541
01/23/2021  20:09:00      -18.320       38.056      -18.967      332.311       52.391      163.155   110430.483     2744.797    26619.692        7.094        6.990       42.236      226.165       28.674      332.197        0.707      857.539
01/23/2021  20:10:00      -86.335       35.393       -2.819      192.502       50.286       92.512    37056.838     2528.655     8558.380        2.842        2.407       93.308      122.082        1.712      331.986        0.355      857.540
01/23/2021  20:11:00      -91.129       34.474      -10.360      164.188       45.328       85.328    26957.618     2054.623     7280.861        2.294        1.815       97.432      107.949        1.228      331.961        0.314      857.537
01/23/2021  20:12:00      -43.432       52.383      -38.212      373.350       45.093      180.374   139390.511     2033.349    32534.836        8.999        8.698       68.046      255.829       14.135      332.115        0.572      857.545
01/23/2021  20:13:00      -77.316       39.660      -36.258      352.372       45.085      171.551   124166.171     2032.633    29429.633        8.221        7.781       86.894      242.883        7.813      332.068        0.495      857.545
01/23/2021  20:14:00     -105.684       49.847      -13.726      179.998       48.753       84.142    32399.415     2376.846     7079.801        2.784        2.093      116.850      114.838        0.966      331.944        0.287      857.553
01/23/2021  20:15:00      -72.214       50.543      -26.986      297.214       45.026      146.288    88335.950     2027.303    21400.309        6.011        5.588       88.144      203.927        5.353      331.988        0.360      857.560
01/23/2021  20:16:00      -23.404       53.012      -26.781      367.759       48.309      178.244   135246.770     2333.784    31770.750        8.668        8.468       57.948      251.020       18.765      332.071        0.500      857.569
01/23/2021  20:17:00      -42.436       46.574      -38.253      374.315       42.696      182.116   140111.594     1822.987    33166.418        9.023        8.755       63.007      257.860       16.749      332.118        0.579      857.566
01/23/2021  20:18:00      -33.084       63.058      -36.302      364.209       50.304      174.655   132648.283     2530.445    30504.199        8.600        8.284       71.210      248.486       12.176      332.108        0.561      857.570
01/23/2021  20:19:00       -2.966       53.586      -41.045      455.651       51.171      216.445   207617.981     2618.482    46848.649       13.077       12.854       53.668      310.721       33.521      332.182        0.686      857.571
01/23/2021  20:20:00      -37.674       46.404      -49.607      402.561       46.238      195.680   162054.977     2137.922    38290.756       10.421       10.124       59.772      277.857       21.609      332.105        0.557      857.565
01/23/2021  20:21:00      -92.538       44.218      -19.727      181.630       42.361       88.951    32989.588     1794.473     7912.356        2.679        2.135      102.560      119.779        1.364      331.843        0.121      857.572
01/23/2021  20:22:00      -15.719       47.524      -45.036      471.878       44.180      228.148   222668.760     1951.898    52051.685       14.055       13.834       50.056      326.166       42.458      332.052        0.473      857.577
01/23/2021  20:23:00        4.266       34.331      -45.848      500.089       40.590      237.541   250089.463     1647.567    56425.758       15.566       15.408       34.595      342.404       97.962      332.062        0.489      857.570
01/23/2021  20:24:00      -55.328       47.399      -22.981      305.218       32.963      143.473    93157.948     1086.535    20584.537        6.031        5.741       72.855      206.627        8.044      331.855        0.142      857.563
01/23/2021  20:25:00      -14.355       57.303      -43.341      475.966       41.638      228.776   226543.769     1733.697    52338.526       14.293       14.031       59.074      327.887       30.808      332.141        0.618      857.563
01/23/2021  20:26:00      -20.220       50.226      -29.326      440.712       43.386      209.049   194227.245     1882.354    43701.362       12.175       11.991       54.143      300.045       30.710      332.043        0.455      857.560
01/23/2021  20:27:00      -16.068       34.075      -30.688      403.320       34.401      188.561   162667.359     1183.460    35555.334       10.084        9.970       37.674      271.476       51.926      331.983        0.355      857.557
01/23/2021  20:28:00      -32.386       31.936      -33.799      400.392       39.575      193.059   160313.389     1566.177    37271.921       10.114        9.958       45.483      275.601       36.716      332.048        0.463      857.557
01/23/2021  20:29:00      -57.897       26.565      -34.618      361.039       36.740      174.183   130348.868     1349.810    30339.735        8.361        8.102       63.700      248.524       15.221      331.991        0.369      857.567
01/23/2021  20:30:00      -44.954       19.549      -29.826      376.094       44.124      184.741   141446.806     1946.918    34129.078        9.037        8.876       49.020      260.023       28.137      331.966        0.329      857.568
01/23/2021  20:31:00      -55.979       17.345      -13.391      217.892       42.213      106.554    47476.984     1781.950    11353.846        3.210        3.031       58.605      147.432        6.329      331.828        0.096      857.586
01/23/2021  20:32:00      -15.836       13.045      -35.529      368.789       34.011      177.918   136005.333     1156.734    31654.796        8.521        8.441       20.517      254.466      153.830      331.930        0.268      857.595
01/23/2021  20:33:00      -28.207       29.646      -29.237      340.134       43.967      163.037   115691.098     1933.139    26581.052        7.334        7.210       40.921      230.081       31.613      331.879        0.184      857.605
01/23/2021  20:34:00      -18.665       18.769      -47.454      412.397       29.467      198.239   170071.115      868.311    39298.750       10.655       10.512       26.470      283.741      114.907      331.933        0.272      857.614
01/23/2021  20:35:00       -4.429       12.888      -18.660      325.703       38.998      158.320   106082.659     1520.864    25065.205        6.657        6.633       13.628      222.174      265.796      331.853        0.141      857.619
01/23/2021  20:36:00      -68.967       22.213       -7.745      168.427       39.014       82.457    28367.522     1522.114     6799.085        2.099        1.834       72.456      111.641        2.374      331.679       -0.149      857.615
01/23/2021  20:37:00       14.253       17.611      -34.640      468.338       36.500      224.845   219340.854     1332.215    50555.136       13.641       13.561       22.656      322.767      202.957      331.953        0.308      857.616
01/23/2021  20:38:00       22.471       12.395      -37.436      426.712       37.167      203.731   182083.452     1381.372    41506.250       11.347       11.249       25.663      292.019      129.486      331.966        0.328      857.620
01/23/2021  20:39:00       73.257       16.003      -32.624      435.859       40.618      207.447   189972.823     1649.817    43034.221       12.062       11.733       74.984      298.047       15.799      331.961        0.319      857.631
01/23/2021  20:40:00       27.711       -5.450        6.290      149.675       40.227       74.971    22402.665     1618.175     5620.670        1.523        1.482       28.242       99.822       12.493      331.687       -0.137      857.647
01/23/2021  20:41:00       61.084        7.248      -44.232      491.638       36.656      233.175   241708.212     1343.662    54370.476       15.152       14.871       61.513      336.614       29.945      331.993        0.375      857.665
01/23/2021  20:42:00      -31.148       14.964      -19.819      297.771       27.230      143.267    88667.640      741.462    20525.537        5.574        5.497       34.556      203.616       34.720      331.775        0.011      857.676
01/23/2021  20:43:00       36.346       -1.901       -4.049      293.879       34.225      141.252    86364.611     1171.354    19952.097        5.439        5.374       36.396      201.207       30.562      331.839        0.117      857.690
01/23/2021  20:44:00       67.095        9.753      -21.444      359.517       36.262      174.346   129252.170     1314.904    30396.431        8.298        8.048       67.801      248.162       13.397      332.001        0.384      857.704
01/23/2021  20:45:00       92.704       -2.232      -41.772      510.261       31.383      245.714   260366.144      984.904    60375.571       16.597       16.086       92.731      352.664       14.464      332.258        0.812      857.716
01/23/2021  20:46:00      -30.202       24.336        0.896       29.150       37.213       23.003      849.709     1384.796      529.123        0.213        0.138       38.786       27.233        0.493      331.868        0.160      857.724
01/23/2021  20:47:00        5.795       23.027      -23.974      336.661       37.216      157.804   113340.886     1385.066    24902.021        7.035        6.981       23.745      228.316       92.456      332.134        0.603      857.730
01/23/2021  20:48:00       -7.203       19.463      -39.699      463.991       35.183      219.959   215287.650     1237.870    48382.074       13.340       13.245       20.753      317.615      234.239      332.172        0.670      857.727
01/23/2021  20:49:00      -64.268       24.516      -28.685      334.960       29.556      159.077   112198.070      873.562    25305.396        7.194        6.919       68.785      229.300       11.113      331.959        0.314      857.725
01/23/2021  20:50:00      -74.383       29.285      -27.509      329.192       29.014      159.173   108367.449      841.817    25335.922        7.082        6.727       79.940      227.541        8.102      331.835        0.112      857.726
01/23/2021  20:51:00      -77.044       25.663      -15.018      288.754       40.507      138.885    83378.947     1640.792    19288.919        5.554        5.215       81.206      196.653        5.864      331.759       -0.016      857.731
01/23/2021  20:52:00      -89.103       36.675       -8.523      257.189       33.023      120.713    66146.320     1090.540    14571.594        4.557        4.090       96.355      172.652        3.211      331.701       -0.113      857.740
01/23/2021  20:53:00      -35.005       10.861      -12.056      249.532       42.459      121.419    62266.197     1802.799    14742.691        4.013        3.941       36.651      168.646       21.173      331.706       -0.103      857.741
01/23/2021  20:54:00      -10.276      -11.511      -15.907      357.899       39.498      174.020   128091.791     1560.058    30282.909        8.018        7.997       15.431      246.141      254.437      331.827        0.098      857.746
01/23/2021  20:55:00      -76.239       30.776      -12.005      250.384       33.992      121.151    62692.062     1155.423    14677.563        4.270        3.926       82.217      170.551        4.303      331.571       -0.325      857.758
01/23/2021  20:56:00      -51.889        0.127      -16.302      288.596       47.981      138.012    83287.883     2302.142    19047.273        5.378        5.232       51.889      193.337       13.883      331.688       -0.132      857.764
01/23/2021  20:57:00      -43.536       30.219        4.854      183.738       40.620       87.485    33759.645     1649.983     7653.547        2.294        2.153       52.996      116.458        4.829      331.578       -0.315      857.780
01/23/2021  20:58:00       27.753       16.522      -24.709      448.676       41.796      218.501   201310.579     1746.898    47742.523       12.617       12.540       32.299      310.971       92.696      331.846        0.132      857.780
01/23/2021  20:59:00      -22.527        6.665      -13.820      288.072       39.672      142.564    82985.680     1573.881    20324.631        5.279        5.244       23.492      199.108       71.834      331.704       -0.105      857.782
01/23/2021  21:00:00       19.283       15.598      -36.573      518.363       33.994      247.217   268699.895     1155.613    61116.377       16.639       16.549       24.802      356.174      206.229      331.948        0.302      857.755
01/23/2021  21:01:00       42.267        4.322      -34.413      463.104       31.121      224.227   214465.591      968.500    50277.583       13.429       13.286       42.487      320.524       56.912      331.930        0.271      857.762
01/23/2021  21:02:00       73.057        4.718      -32.738      480.195       39.686      226.996   230587.237     1574.983    51527.273       14.500       14.184       73.209      327.156       19.970      331.997        0.381      857.789
01/23/2021  21:03:00       41.156        6.416      -20.117      393.144       32.318      187.765   154562.124     1044.422    35255.566        9.646        9.543       41.653      270.054       42.035      331.876        0.181      857.813
01/23/2021  21:04:00       12.940        5.686      -16.829      352.970       27.239      165.489   124587.622      741.937    27386.507        7.657        7.636       14.134      238.762      285.363      331.852        0.138      857.844
01/23/2021  21:05:00       22.248        1.685      -54.460      548.486       29.719      263.016   300836.746      883.229    69177.272       18.710       18.545       22.311      378.899      288.401      332.104        0.562      857.871
01/23/2021  21:06:00       16.204       11.648      -38.629      518.519       41.383      249.384   268862.092     1712.519    62192.140       16.726       16.638       19.957      357.874      321.578      332.148        0.633      857.882
01/23/2021  21:07:00      -55.014       11.038      -29.132      376.696       33.514      181.591   141899.854     1123.197    32975.327        8.996        8.800       56.111      259.646       21.413      331.857        0.147      857.900
01/23/2021  21:08:00        7.950       15.508      -44.025      507.812       96.690      249.602   257872.718     9348.886    62300.994       16.581       16.476       17.427      347.213      396.978      331.992        0.374      857.909
01/23/2021  21:09:00     -104.374       43.892       -6.391      205.497       33.082       97.708    42228.851     1094.442     9546.819        3.285        2.644      113.227      137.281        1.470      331.502       -0.441      857.916
01/23/2021  21:10:00      -14.418       37.345      -27.595      470.787       35.712      224.364   221640.624     1275.334    50339.090       13.775       13.663       40.032      322.230       64.793      331.684       -0.135      857.928
01/23/2021  21:11:00        7.151       13.771      -31.317      410.811       36.643      195.715   168765.965     1342.736    38304.488       10.477       10.421       15.517      281.029      328.000      331.688       -0.131      857.935
01/23/2021  21:12:00       81.865       15.774      -23.901      460.239       37.752      221.435   211820.181     1425.180    49033.439       13.485       13.114       83.371      316.973       14.455      331.744       -0.036      857.940
01/23/2021  21:13:00      109.424       -9.693      -52.871      547.955       37.299      262.506   300254.703     1391.207    68909.231       19.263       18.528      109.853      377.812       11.828      331.955        0.314      857.944
01/23/2021  21:14:00      200.786      -11.124     -106.526      751.348       36.436      357.724   564524.277     1327.583   127966.191       37.266       34.691      201.094      517.570        6.624      332.415        1.081      857.956
01/23/2021  21:15:00      114.095      -25.913      -61.431      534.208       38.367      250.444   285378.330     1472.063    62722.304       18.344       17.479      117.001      364.290        9.694      332.115        0.579      857.965
01/23/2021  21:16:00       34.629       11.063      -10.315      261.460       32.455      126.125    68361.244     1053.296    15907.559        4.336        4.266       36.354      179.677       24.428      331.702       -0.109      857.974
01/23/2021  21:17:00       66.275       20.246      -39.847      473.955       35.651      226.954   224633.426     1270.997    51507.977       14.184       13.871       69.299      326.296       22.170      331.844        0.130      857.973
01/23/2021  21:18:00      -17.095       37.837      -13.577      244.472       39.227      115.229    59766.531     1538.747    13277.815        3.823        3.729       41.519      165.094       15.811      331.587       -0.301      857.980
01/23/2021  21:19:00       80.569       25.111      -65.397      548.863       33.805      257.696   301250.090     1142.798    66407.291       19.002       18.440       84.392      375.113       19.757      331.909        0.238      857.984
01/23/2021  21:20:00      113.207       13.274      -56.994      542.445       29.362      260.204   294247.081      862.139    67706.300       18.945       18.141      113.982      374.777       10.811      331.976        0.347      857.988
01/23/2021  21:21:00       21.131       21.102      -40.487      427.699       27.718      204.442   182926.279      768.306    41796.629       11.396       11.275       29.863      294.593       97.315      331.687       -0.130      857.989
01/23/2021  21:22:00       23.410       15.557      -44.381      427.535       30.804      202.652   182786.124      948.881    41067.738       11.373       11.240       28.108      292.979      108.643      331.773        0.010      857.993
01/23/2021  21:23:00       20.829       11.958      -36.752      436.541       35.580      210.905   190568.087     1265.941    44480.962       11.907       11.816       24.018      301.347      157.426      331.770        0.007      858.002
01/23/2021  21:24:00       23.732       12.333      -23.959      387.581       39.512      183.210   150218.710     1561.220    33565.839        9.328        9.267       26.745      263.269       96.900      331.679       -0.145      858.009
01/23/2021  21:25:00       64.127       -0.237      -49.883      497.220       34.509      238.777   247227.270     1190.896    57014.524       15.595       15.272       64.127      342.557       28.535      331.819        0.088      858.008
01/23/2021  21:26:00       32.145       14.530      -37.683      447.157       39.711      210.331   199949.814     1576.966    44239.181       12.416       12.288       35.277      304.524       74.520      331.716       -0.084      858.005
01/23/2021  21:27:00       -7.585        8.309      -11.180      238.766       27.869      112.961    57009.075      776.702    12760.202        3.538        3.527       11.250      161.491      206.041      331.554       -0.354      858.008
01/23/2021  21:28:00       19.885        5.537      -17.256      338.946       40.021      163.383   114884.333     1601.656    26694.001        7.192        7.159       20.641      232.663      127.052      331.665       -0.170      858.003
01/23/2021  21:29:00       42.257        2.668      -34.328      460.068       30.194      219.249   211662.624      911.678    48070.136       13.175       13.032       42.341      316.367       55.829      331.827        0.101      858.007
01/23/2021  21:30:00      109.892       -3.185      -48.873      532.392       35.446      246.869   283441.109     1256.445    60944.417       17.999       17.282      109.938      360.515       10.754      331.944        0.295      858.000
01/23/2021  21:31:00       11.751        7.772      -13.985      272.430       45.469      131.890    74218.148     2067.428    17394.942        4.702        4.684       14.089      186.510      175.245      331.603       -0.275      858.007
01/23/2021  21:32:00        6.508       -7.913       -8.538      230.012       28.953      111.409    52905.518      838.254    12411.897        3.315        3.308       10.246      157.602      236.615      331.713       -0.091      858.022
01/23/2021  21:33:00       13.385        4.291      -22.806      331.842       32.833      159.299   110119.240     1077.993    25376.158        6.862        6.829       14.056      228.346      263.919      331.853        0.140      858.035
01/23/2021  21:34:00      152.217        2.299      -64.405      646.227       38.345      308.848   417608.892     1470.358    95387.230       27.078       25.723      152.234      445.439        8.562      332.344        0.960      858.045
01/23/2021  21:35:00       92.605        5.323      -40.063      519.997       37.956      248.388   270396.743     1440.680    61696.673       17.180       16.677       92.758      358.010       14.897      332.130        0.603      858.054
01/23/2021  21:36:00        8.202       20.239       -3.236      244.486       39.557      120.016    59773.288     1564.755    14403.877        3.810        3.787       21.838      167.914       59.122      331.882        0.185      858.058
01/23/2021  21:37:00       17.984       15.456      -19.975      393.175       44.066      188.005   154586.476     1941.832    35345.785        9.638        9.594       23.713      268.617      128.316      331.989        0.365      858.061
01/23/2021  21:38:00      -38.030       21.685        2.591      176.207       37.241       84.044    31049.016     1386.869     7063.474        2.070        1.975       43.778      116.109        7.034      331.869        0.164      858.049
01/23/2021  21:39:00      -40.407       23.256       -2.769      251.263       48.846      124.002    63133.201     2385.932    15376.377        4.152        4.045       46.621      171.236       13.490      331.891        0.201      858.049
01/23/2021  21:40:00       10.789       21.568      -46.616      571.374       39.210      272.011   326468.350     1537.453    73989.784       20.229       20.100       24.116      392.145      264.403      332.131        0.605      858.050
01/23/2021  21:41:00      -11.746       16.222      -31.941      434.039       39.975      208.983   188389.903     1598.016    43674.061       11.749       11.683       20.028      297.610      220.813      332.000        0.384      858.065
01/23/2021  21:42:00      -42.482       30.418      -11.640      289.794       40.383      144.470    83980.307     1630.825    20871.452        5.465        5.324       52.249      200.037       14.658      331.796        0.046      858.079
01/23/2021  21:43:00       41.561      154.099      -21.955      299.095       88.212      141.873    89457.703     7781.362    20128.055        7.164        5.868      159.605      201.096        1.587      332.232        0.763      858.098
01/23/2021  21:44:00      196.341       90.784      -61.399      629.169       63.486      297.646   395853.612     4030.475    88593.382       26.942       24.424      216.313      429.662        3.945      332.652        1.466      858.110
01/23/2021  21:45:00       64.934      135.315       -5.733      315.280       63.835      144.465    99401.496     4074.847    20870.264        7.343        6.217      150.088      206.933        1.901      332.304        0.882      858.113
01/23/2021  21:46:00       91.409       73.194      -11.301      310.754       47.080      150.427    96567.829     2216.520    22628.230        6.760        6.071      117.103      212.712        3.300      332.148        0.625      858.119
01/23/2021  21:47:00      128.660      104.210      -27.004      403.741       69.075      192.877   163007.095     4771.404    37201.406       11.652       10.249      165.569      275.391        2.767      332.243        0.784      858.126
01/23/2021  21:48:00       80.929       94.973       -3.537       42.155       58.482       32.535     1777.054     3420.129     1058.542        1.092        0.313      124.777       31.391        0.063      331.952        0.299      858.123
01/23/2021  21:49:00       91.757       96.502        0.654       53.547       59.772       36.119     2867.321     3572.740     1304.572        1.274        0.387      133.161       31.681        0.057      331.941        0.279      858.119
01/23/2021  21:50:00      110.708       77.433      -11.535      290.249       52.465      135.727    84244.513     2752.538    18421.716        6.188        5.271      135.101      193.925        2.060      332.092        0.532      858.116
01/23/2021  21:51:00      140.604       31.796      -31.261      487.988       53.270      232.062   238132.349     2837.671    53852.590       15.823       14.741      144.155      332.938        5.334      332.283        0.854      858.104
01/23/2021  21:52:00      140.303       91.529      -25.474      384.451       57.011      186.538   147802.423     3250.264    34796.523       10.724        9.292      167.518      263.213        2.469      332.227        0.758      858.104
01/23/2021  21:53:00       78.059       47.593      -11.272      357.006       53.710      170.911   127453.080     2884.796    29210.486        8.398        7.977       91.424      242.945        7.061      332.270        0.829      858.101
01/23/2021  21:54:00       62.185       94.045      -17.158      394.218       63.102      188.816   155407.589     3981.877    35651.355       10.398        9.752      112.745      268.587        5.675      332.324        0.918      858.096
01/23/2021  21:55:00       66.194       95.590      -11.095      322.690       55.150      157.835   104128.967     3041.511    24911.942        7.283        6.604      116.272      220.699        3.603      332.267        0.822      858.077
01/23/2021  21:56:00       74.762       31.185      -22.531      370.584       50.524      178.060   137332.658     2552.717    31705.524        8.929        8.580       81.005      252.392        9.708      332.319        0.908      858.071
01/23/2021  21:57:00       26.966       15.141      -14.164      343.898       57.657      161.271   118265.970     3324.312    26008.275        7.435        7.380       30.926      230.921       55.753      332.277        0.841      858.057
01/23/2021  21:58:00       43.062       43.305      -26.210      384.322       46.383      188.513   147703.340     2151.355    35537.021        9.486        9.270       61.070      266.221       19.003      332.330        0.928      858.054
01/23/2021  21:59:00      -22.347      138.341      -34.643      438.233       85.994      206.358   192048.111     7394.960    42583.524       13.138       12.101      140.134      295.686        4.452      332.451        1.126      858.048
01/23/2021  22:00:00     -113.530       47.606      -26.960      283.466       74.317      133.692    80353.143     5522.950    17873.608        5.979        5.187      123.107      185.865        2.279      332.255        0.801      858.047
01/23/2021  22:01:00       37.674       85.892      -15.498      360.649       57.848      172.264   130067.842     3346.371    29674.978        8.603        8.154       93.791      244.224        6.780      332.372        0.997      858.051
01/23/2021  22:02:00       -1.554       71.895       -4.848      325.071       59.775      153.403   105670.976     3573.047    23532.519        6.896        6.639       71.912      218.361        9.220      332.334        0.932      858.059
01/23/2021  22:03:00       27.879       78.689      -34.801      464.876       67.794      224.290   216109.454     4595.980    50305.811       13.954       13.551       83.482      318.899       14.592      332.498        1.206      858.054
01/23/2021  22:04:00      -61.180      104.261       -1.462      187.342       62.134       91.635    35097.098     3860.624     8397.009        3.097        2.368      120.885      118.832        0.966      332.247        0.786      858.057
01/23/2021  22:05:00      -42.605      105.264      -27.348      352.299       69.519      171.460   124114.737     4832.858    29398.449        8.596        7.917      113.559      239.705        4.456      332.341        0.944      858.053
01/23/2021  22:06:00      -50.651       82.742      -10.005      246.304       59.376      118.056    60665.518     3525.548    13937.264        4.380        3.906       97.014      160.514        2.738      332.238        0.773      858.049
01/23/2021  22:07:00       -5.592       44.195       -9.431      343.573       51.173      160.176   118042.735     2618.630    25656.360        7.416        7.316       44.547      228.264       26.256      332.301        0.878      858.043
01/23/2021  22:08:00       -4.709       25.765      -22.330      362.696       50.259      177.005   131548.381     2525.920    31330.797        8.326        8.270       26.192      248.487       90.006      332.362        0.980      858.032
01/23/2021  22:09:00       17.423       13.139      -40.592      418.932       65.735      203.745   175503.840     4321.125    41511.843       11.168       11.067       21.822      288.530      174.823      332.405        1.052      858.030
01/23/2021  22:10:00      -12.706       16.049      -29.960      475.792       51.928      226.825   226377.862     2696.569    51449.674       14.086       14.026       20.470      319.898      244.230      332.464        1.151      858.027
01/23/2021  22:11:00       14.880        0.475       -3.258      271.921       46.851      132.818    73941.209     2194.978    17640.748        4.699        4.689       14.888      183.299      151.581      332.253        0.798      858.039
01/23/2021  22:12:00      -47.863       30.076      -15.498      328.387       63.575      156.406   107837.987     4041.810    24462.968        6.986        6.817       56.529      218.097       14.886      332.285        0.852      858.043
01/23/2021  22:13:00        0.994       48.853      -51.890      531.047       49.203      251.086   282011.225     2420.892    63044.065       17.620       17.374       48.863      362.649       55.081      332.470        1.162      858.046
01/23/2021  22:14:00      -11.707       20.534      -28.152      381.586       57.268      182.423   145607.575     3279.636    33278.326        9.172        9.108       23.637      258.718      119.801      332.341        0.946      858.038
01/23/2021  22:15:00       18.189       67.778      -41.722      459.115       54.762      215.923   210786.778     2998.914    46622.754       13.348       13.020       70.176      311.048       19.646      332.462        1.147      858.047
01/23/2021  22:16:00      -22.419       79.122      -28.562      323.842       61.205      156.064   104873.460     3746.014    24356.019        7.025        6.649       82.237      218.012        7.028      332.411        1.058      858.056
01/23/2021  22:17:00      -70.504       34.810       -0.873       46.026       50.069       30.748     2118.357     2506.914      945.444        0.588        0.279       78.629       33.069        0.177      332.178        0.672      858.061
01/23/2021  22:18:00       13.900       29.212      -28.213      448.304       54.201      211.486   200976.688     2937.737    44726.465       12.519       12.432       32.350      303.370       87.941      332.420        1.078      858.056
01/23/2021  22:19:00       -3.640       49.619       -9.990      345.380       58.887      163.642   119287.135     3467.654    26778.552        7.602        7.477       49.753      232.465       21.832      332.323        0.915      858.049
01/23/2021  22:20:00      -20.265       27.238       -8.591      327.070       60.720      156.928   106974.654     3686.863    24626.262        6.823        6.764       33.949      220.244       42.087      332.295        0.868      858.056
01/23/2021  22:21:00       28.172       55.979      -18.497      383.744       57.091      182.113   147259.437     3259.331    33165.169        9.394        9.184       62.668      260.451       17.273      332.388        1.024      858.052
01/23/2021  22:22:00       -0.607       34.539      -19.599      362.702       51.328      177.769   131552.611     2634.523    31601.864        8.365        8.289       34.545      249.471       52.153      332.369        0.992      858.051
01/23/2021  22:23:00      -27.807       23.300      -17.233      312.272       44.247      149.675    97513.519     1957.768    22402.725        6.172        6.094       36.278      210.728       33.741      332.294        0.867      858.048
01/23/2021  22:24:00        6.916       34.737      -18.538      356.081       63.200      177.454   126793.801     3994.281    31489.866        8.190        8.114       35.419      243.530       47.275      332.326        0.920      858.042
01/23/2021  22:25:00      -17.299       41.743      -48.367      434.351       71.480      208.553   188660.727     5109.420    43494.407       12.077       11.863       45.185      296.886       43.170      332.355        0.971      858.049
01/23/2021  22:26:00       19.033       37.634      -18.083      346.743       52.726      168.173   120230.827     2780.005    28282.017        7.667        7.565       42.173      235.629       31.217      332.315        0.902      858.047
01/23/2021  22:27:00       44.777       27.277      -16.531      375.561       49.675      179.923   141046.301     2467.571    32372.306        8.942        8.794       52.432      253.548       23.385      332.364        0.982      858.045
01/23/2021  22:28:00       95.452       15.653      -56.284      573.080       59.457      268.448   328421.130     3535.099    72064.312       20.819       20.201       96.726      389.322       16.200      332.602        1.383      858.040
01/23/2021  22:29:00       60.998       59.804      -15.687      449.659       64.520      210.047   202193.289     4162.842    44119.944       12.896       12.524       85.424      302.809       12.565      332.537        1.270      858.033
01/23/2021  22:30:00       -9.445       61.432       -8.817      245.594       54.192      123.271    60316.350     2936.724    15195.741        4.118        3.922       62.154      165.626        7.101      332.302        0.878      858.019
01/23/2021  22:31:00       82.994       50.750      -37.172      557.025       59.005      270.947   310277.250     3481.560    73412.092       19.893       19.359       97.281      383.840       15.569      332.720        1.576      858.014
01/23/2021  22:32:00       63.880       63.547      -31.985      507.105       48.769      238.877   257155.301     2378.445    57062.301       16.280       15.830       90.105      344.300       14.601      332.701        1.544      858.000
01/23/2021  22:33:00      -32.068      117.233      -38.812      394.381       61.507      191.001   155536.574     3783.120    36481.475       10.600        9.790      121.540      266.634        4.813      332.611        1.391      857.991
01/23/2021  22:34:00      -16.843       90.650      -12.063      382.265       61.582      184.443   146126.871     3792.333    34019.383        9.625        9.197       92.202      256.641        7.748      332.575        1.331      857.977
01/23/2021  22:35:00      -24.115      139.305      -52.835      480.233       96.087      230.929   230624.214     9232.703    53328.200       15.792       14.659      141.377      326.177        5.323      332.857        1.799      857.963
01/23/2021  22:36:00       -1.359      151.287      -51.487      496.753       81.524      230.051   246763.779     6646.089    52923.244       16.587       15.317      151.293      331.109        4.790      332.793        1.693      857.946
01/23/2021  22:37:00       -3.534      105.322      -28.614      409.461       80.234      199.573   167658.352     6437.465    39829.280       11.288       10.696      105.381      281.392        7.130      332.671        1.489      857.930
01/23/2021  22:38:00      -13.632      122.977      -13.392      318.837       68.037      152.778   101656.796     4629.086    23341.143        7.253        6.481      123.730      213.329        2.973      332.606        1.383      857.931
01/23/2021  22:39:00      -38.575       94.175        1.446      147.350       56.170       82.598    21711.948     3155.115     6822.495        2.102        1.584      101.769       93.867        0.851      332.490        1.187      857.924
01/23/2021  22:40:00       15.569      145.057      -28.832      388.296       74.017      181.866   150773.548     5478.539    33075.244       10.568        9.466      145.890      260.371        3.185      332.676        1.498      857.924
01/23/2021  22:41:00        8.477       85.131      -15.001      377.970       68.174      181.389   142861.296     4647.705    32901.806        9.394        9.021       85.552      255.474        8.917      332.731        1.588      857.918
01/23/2021  22:42:00       46.888       88.915      -39.567      448.827       77.940      213.589   201445.966     6074.720    45620.231       13.235       12.657      100.520      305.079        9.211      332.725        1.580      857.921
01/23/2021  22:43:00       92.737       36.047      -53.068      529.838       66.534      254.430   280728.685     4426.754    64734.820       18.123       17.495       99.496      363.969       13.382      332.887        1.849      857.920
01/23/2021  22:44:00       90.708       55.946      -27.926      450.349       56.238      220.052   202813.998     3162.677    48422.663       13.321       12.720      106.573      311.875        8.564      332.775        1.663      857.911
01/23/2021  22:45:00       34.940      119.369       -6.107      278.847       69.304      137.326    77755.628     4802.975    18858.323        5.844        5.071      124.377      188.461        2.296      332.600        1.370      857.910
01/23/2021  22:46:00       33.864       67.569       -8.333      244.315       48.801      114.114    59689.867     2381.567    13022.088        4.042        3.755       75.580      162.914        4.646      332.563        1.309      857.915
01/23/2021  22:47:00       45.555       35.120        1.294      210.241       44.219      101.657    44201.313     1955.307    10334.123        2.989        2.825       57.521      141.229        6.028      332.463        1.143      857.918
01/23/2021  22:48:00       62.772       30.622      -13.584      381.151       40.795      185.253   145276.060     1664.208    34318.549        9.312        9.063       69.843      263.591       14.244      332.625        1.413      857.919
01/23/2021  22:49:00       72.565       -3.841      -14.403      291.741       50.141      140.216    85112.988     2514.163    19660.645        5.637        5.364       72.666      198.409        7.455      332.558        1.301      857.913
01/23/2021  22:50:00      167.956      -11.513      -63.772      579.986       47.527      280.921   336384.321     2258.826    78916.678       22.490       20.878      168.351      402.047        5.703      332.890        1.859      857.914
01/23/2021  22:51:00       53.343       30.286       -7.665      238.174       47.257      116.512    56726.778     2233.199    13575.034        3.816        3.627       61.341      162.081        6.982      332.383        1.012      857.913
01/23/2021  22:52:00      112.335      -18.555      -27.714      377.686       51.761      187.831   142647.043     2679.250    35280.326        9.713        9.030      113.857      262.304        5.308      332.552        1.293      857.911
01/23/2021  22:53:00       82.657       23.924      -24.108      380.898       58.274      179.977   145083.323     3395.846    32391.606        9.439        9.044       86.050      258.960        9.057      332.477        1.172      857.919
01/23/2021  22:54:00      105.481      -75.685      -38.287      260.962       42.379      126.627    68101.231     1795.943    16034.490        5.211        4.297      129.825      177.472        1.869      332.403        1.045      857.920
01/23/2021  22:55:00      189.589      -38.011      -84.763      670.868       44.927      318.069   450064.541     2018.453   101167.573       29.880       27.663      193.362      460.067        5.661      333.018        2.074      857.927
01/23/2021  22:56:00      107.738      -37.691      -47.403      484.462       45.033      233.261   234703.589     2027.939    54410.676       15.315       14.557      114.140      333.390        8.532      332.656        1.467      857.936
01/23/2021  22:57:00      114.461       -9.953      -32.373      456.639       55.689      214.700   208519.021     3101.240    46095.911       13.593       12.886      114.893      310.349        7.297      332.543        1.281      857.955
01/23/2021  22:58:00       89.692        9.872      -15.115      394.857       49.837      192.321   155912.119     2483.735    36987.184       10.184        9.769       90.234      272.417        9.114      332.486        1.184      857.969
01/23/2021  22:59:00       36.819       39.386       -5.618      300.152       45.028      140.120    90091.215     2027.553    19633.701        5.732        5.588       53.916      200.894       13.884      332.329        0.922      857.987
01/23/2021  23:00:00      144.708       23.964      -63.030      614.766       44.721      285.441   377937.151     1999.979    81476.440       24.335       23.071      146.678      417.246        8.092      332.687        1.524      858.005
01/23/2021  23:01:00      109.664       17.363      -43.408      549.112       43.677      264.473   301524.222     1907.667    69946.055       19.372       18.669      111.030      379.526       11.684      332.482        1.185      858.015
01/23/2021  23:02:00       58.121       29.770      -16.510      432.616       48.383      201.612   187156.281     2340.963    40647.300       11.729       11.507       65.302      292.791       20.103      332.330        0.928      858.016
01/23/2021  23:03:00       50.669       -9.132      -23.828      405.092       38.885      193.736   164099.843     1512.069    37533.693       10.314       10.157       51.486      278.106       29.178      332.407        1.055      858.000
01/23/2021  23:04:00       30.634       21.460       -8.244      264.151       51.029      129.786    69775.978     2603.947    16844.329        4.533        4.461       37.403      180.201       23.212      332.155        0.636      857.997
01/23/2021  23:05:00       43.802       10.061       -9.265      270.550       46.899      131.550    73197.088     2199.541    17305.436        4.738        4.635       44.943      184.620       16.875      332.048        0.460      857.990
01/23/2021  23:06:00       79.187       15.944      -28.030      476.952       48.587      231.496   227482.929     2360.713    53590.560       14.531       14.172       80.776      329.464       16.636      332.191        0.700      857.981
01/23/2021  23:07:00      136.444       -2.539      -72.869      658.704       37.448      309.399   433891.294     1402.357    95727.625       27.736       26.551      136.468      450.035       10.875      332.464        1.159      857.973
01/23/2021  23:08:00      102.044       -1.051      -34.286      437.016       48.309      210.619   190982.898     2333.760    44360.430       12.458       11.884      102.049      300.763        8.686      332.206        0.724      857.964
01/23/2021  23:09:00       26.423       10.419      -10.337      251.135       53.127      123.975    63068.583     2822.444    15369.794        4.107        4.063       28.403      171.717       36.550      332.010        0.396      857.957
01/23/2021  23:10:00       38.772       38.926        3.246      234.021       52.589      112.505    54765.974     2765.627    12657.423        3.659        3.509       54.941      155.243        7.984      331.960        0.313      857.948
01/23/2021  23:11:00       26.965       24.134       -4.613      259.030       45.846      126.715    67096.705     2101.848    16056.568        4.328        4.263       36.188      177.283       23.999      331.892        0.203      857.943
01/23/2021  23:12:00       10.142        8.651       -1.177      262.045       45.105      121.669    68667.611     2034.483    14803.462        4.282        4.275       13.331      174.477      171.311      331.932        0.269      857.945
01/23/2021  23:13:00      112.545       31.709      -43.818      560.908       40.017      268.959   314617.688     1601.377    72338.807       20.199       19.428      116.926      386.893       10.949      332.211        0.737      857.955
01/23/2021  23:14:00       63.358       13.333       -9.746      355.182       47.851      168.467   126154.155     2289.681    28381.165        8.052        7.841       64.746      240.482       13.795      332.057        0.476      857.975
01/23/2021  23:15:00      112.667       24.042      -23.000      486.371       45.951      237.744   236556.271     2111.496    56522.041       15.443       14.759      115.204      337.784        8.597      332.267        0.826      857.988
01/23/2021  23:16:00      114.639       -8.708      -37.589      437.598       41.473      211.930   191492.389     1720.021    44914.424       12.633       11.906      114.969      302.505        6.923      332.289        0.861      857.993
01/23/2021  23:17:00      175.777      -29.653      -68.828      600.508       42.126      285.035   360610.014     1774.602    81244.714       23.998       22.181      178.260      412.012        5.342      332.593        1.369      857.984
01/23/2021  23:18:00       93.905       13.478      -47.363      521.793       44.692      252.962   272268.307     1997.405    63989.529       17.468       16.913       94.867      361.162       14.494      332.437        1.107      857.976
01/23/2021  23:19:00      104.698       36.132      -42.275      455.355       43.761      218.730   207348.541     1914.992    47842.894       13.553       12.855      110.758      313.176        7.995      332.280        0.845      857.980
01/23/2021  23:20:00       27.501       17.289       -8.557      354.846       49.215      172.901   125915.849     2422.133    29894.700        7.965        7.912       32.484      243.566       56.221      332.153        0.634      857.983
01/23/2021  23:21:00       20.502       25.757      -16.900      400.048       53.515      191.483   160038.336     2863.845    36665.760       10.043        9.978       32.921      274.065       69.304      332.214        0.736      857.978
01/23/2021  23:22:00       90.497      -19.858      -17.722      444.102       64.427      212.162   197226.483     4150.778    45012.509       12.759       12.319       92.650      303.214       10.711      332.555        1.299      857.961
01/23/2021  23:23:00       47.956       23.094       -8.682      316.244       48.067      155.208   100010.154     2310.418    24089.476        6.463        6.321       53.227      217.849       16.751      332.189        0.694      857.962
01/23/2021  23:24:00       83.966       44.360      -10.320      367.672       51.472      177.549   135182.453     2649.349    31523.530        8.920        8.468       94.964      252.301        7.059      332.065        0.488      857.964
01/23/2021  23:25:00      135.545       22.745      -38.497      503.206       50.593      241.089   253216.293     2559.658    58124.057       16.707       15.695      137.440      346.196        6.345      332.195        0.708      857.961
01/23/2021  23:26:00      115.517       33.185      -33.443      498.316       56.223      237.818   248319.138     3160.998    56557.533       16.174       15.402      120.189      341.204        8.059      332.246        0.791      857.949
01/23/2021  23:27:00       47.707       51.589      -13.116      227.022       53.596      109.627    51539.144     2872.560    12018.082        3.576        3.321       70.267      152.445        4.707      331.981        0.349      857.938
01/23/2021  23:28:00       82.206        5.692      -15.498      386.747       51.994      185.753   149573.428     2703.356    34504.016        9.687        9.339       82.402      264.688       10.318      332.204        0.719      857.934
01/23/2021  23:29:00      131.422        6.084      -23.750      406.193       42.527      193.855   164992.633     1808.580    37579.921       11.108       10.219      131.563      277.820        4.459      332.167        0.658      857.928
01/23/2021  23:30:00      180.505       51.472      -27.796      440.429       61.682      214.758   193977.835     3804.718    46120.886       13.990       12.195      187.700      303.506        2.615      332.201        0.716      857.921
01/23/2021  23:31:00       96.911       12.131      -20.172      290.466       58.061      138.375    84370.742     3371.044    19147.684        5.840        5.344       97.668      194.714        3.975      332.185        0.686      857.928
01/23/2021  23:32:00      152.252        6.422      -35.125      453.243       48.685      216.256   205428.795     2370.266    46766.781       13.946       12.728      152.387      310.307        4.147      332.273        0.836      857.931
01/23/2021  23:33:00      140.779       23.502      -21.402      485.224       53.934      233.909   235442.699     2908.908    54713.634       15.689       14.653      142.728      333.715        5.467      332.250        0.797      857.942
01/23/2021  23:34:00      219.285       -0.627      -49.909      513.824       49.267      244.191   264015.185     2427.261    59629.101       18.826       16.304      219.286      351.609        2.571      332.275        0.840      857.942
01/23/2021  23:35:00      107.202       10.621      -17.998      355.208       46.706      175.741   126172.490     2181.424    30884.957        8.555        7.962      107.727      246.178        5.222      332.064        0.489      857.933
01/23/2021  23:36:00      138.252       12.501      -46.495      518.787       44.239      249.539   269139.583     1957.055    62269.491       17.733       16.668      138.816      357.572        6.635      332.214        0.739      857.922
01/23/2021  23:37:00       65.041        3.563       -6.886      297.326       47.936      142.942    88402.929     2297.849    20432.458        5.769        5.557       65.138      201.873        9.605      332.067        0.493      857.911
01/23/2021  23:38:00       62.382       44.658        2.892      177.137       42.800       88.326    31377.545     1831.858     7801.422        2.344        2.051       76.719      120.038        2.448      331.873        0.170      857.905
01/23/2021  23:39:00       34.050       51.833        2.384      206.485       42.988      101.388    42636.190     1847.941    10279.621        2.930        2.738       62.017      140.474        5.131      331.823        0.088      857.892
01/23/2021  23:40:00       74.500       60.335      -19.323      412.318       41.663      197.139   170006.104     1735.813    38863.882       11.004       10.530       95.868      282.826        8.704      332.015        0.412      857.883
01/23/2021  23:41:00      104.890       35.887      -14.794      381.556       48.651      183.029   145585.308     2366.924    33499.734        9.694        9.073      110.860      260.777        5.533      332.075        0.509      857.865
01/23/2021  23:42:00       79.031       42.733       -0.194      194.598       50.267       90.732    37868.499     2526.787     8232.344        2.834        2.431       89.844      125.967        1.966      331.947        0.291      857.850
01/23/2021  23:43:00       63.091        1.325        6.645      146.183       45.183       73.121    21369.567     2041.543     5346.645        1.639        1.438       63.105       94.697        2.252      332.021        0.413      857.831
01/23/2021  23:44:00       82.114        4.926        1.899      190.810       50.509       94.311    36408.352     2551.195     8894.642        2.730        2.393       82.262      127.341        2.396      332.027        0.425      857.820
01/23/2021  23:45:00      160.812       19.167      -44.041      498.424       40.918      238.052   248426.739     1674.305    56668.570       16.740       15.338      161.950      342.725        4.478      332.245        0.789      857.807
01/23/2021  23:46:00       97.838       48.639      -13.354      269.359       48.597      132.896    72554.450     2361.637    17661.220        5.233        4.629      109.261      184.288        2.845      331.976        0.339      857.794
01/23/2021  23:47:00      105.556       47.542      -16.473      357.104       43.580      171.899   127523.190     1899.250    29549.429        8.629        7.949      115.768      245.304        4.490      332.054        0.471      857.795
01/23/2021  23:48:00       57.932       15.938       -5.923      304.791       63.983      138.453    92897.766     4093.837    19169.226        5.988        5.808       60.084      201.308       11.225      332.055        0.471      857.789
01/23/2021  23:49:00       11.225      -30.322      -23.574      263.731       43.896      121.513    69554.114     1926.833    14765.488        4.391        4.312       32.333      175.260       29.381      332.143        0.617      857.790
01/23/2021  23:50:00       39.748       26.352      -17.003      368.393       49.971      179.723   135713.054     2497.146    32300.246        8.650        8.526       47.690      253.918       28.349      332.216        0.739      857.791
01/23/2021  23:51:00      -17.505       48.470       13.108      150.111       52.279       78.420    22533.319     2733.113     6149.711        1.712        1.571       51.534       99.291        3.712      331.969        0.328      857.791
01/23/2021  23:52:00       -1.293       18.099        7.546      224.827       46.449      103.954    50547.116     2157.510    10806.390        3.194        3.176       18.146      146.631       65.299      332.046        0.455      857.789
01/23/2021  23:53:00       -6.198       11.356        0.436      234.467       47.954      121.170    54974.555     2299.548    14682.190        3.605        3.598       12.937      159.155      151.350      332.103        0.551      857.788
01/23/2021  23:54:00        5.382       -1.854        0.695      293.549       54.611      146.779    86171.166     2982.398    21544.015        5.534        5.535        5.693      200.861     1244.924      332.110        0.561      857.769
01/23/2021  23:55:00       61.663       14.490      -25.273      489.037       56.193      225.902   239157.268     3157.611    51031.493       14.894       14.667       63.343      329.822       27.112      332.185        0.692      857.753
01/23/2021  23:56:00      -31.563       30.265      -18.545      335.627       45.964      163.047   112645.359     2112.723    26584.199        7.177        7.067       43.729      230.388       27.758      332.005        0.390      857.741
01/23/2021  23:57:00       -4.634       29.383      -11.194      368.192       51.623      171.835   135565.087     2664.920    29527.428        8.435        8.388       29.747      247.073       68.988      332.091        0.533      857.721
01/23/2021  23:58:00       37.073       25.956      -30.331      458.629       51.510      225.647   210340.781     2653.312    50916.516       13.338       13.196       45.256      317.963       49.363      332.223        0.752      857.708
01/23/2021  23:59:00      -22.530       27.648      -12.785      374.571       44.949      177.361   140303.469     2020.451    31456.755        8.757        8.689       35.666      253.870       50.666      331.989        0.366      857.691
01/24/2021  00:00:00       -4.679       23.648       -1.120      305.393       46.726      146.884    93264.679     2183.312    21574.946        5.878        5.851       24.106      206.402       73.313      332.047        0.458      857.683
01/24/2021  00:01:00      -45.195       17.257      -10.299      368.635       38.893      175.917   135892.101     1512.692    30946.749        8.536        8.418       48.378      250.773       26.870      332.023        0.423      857.674
01/24/2021  00:02:00      -30.036       31.652       -1.917      239.197       53.527      119.372    57215.098     2865.123    14249.660        3.810        3.716       43.635      163.102       13.971      331.978        0.343      857.663
01/24/2021  00:03:00       15.717       15.630        9.102      172.529       49.644       90.067    29766.106     2464.501     8112.141        2.045        2.017       22.165      115.388       27.100      331.952        0.300      857.657
01/24/2021  00:04:00       43.330       11.543      -14.508      410.610       59.008      190.625   168600.181     3481.922    36337.858       10.528       10.421       44.841      274.495       37.473      332.077        0.509      857.641
01/24/2021  00:05:00      -87.594       24.180       -5.410      254.487       43.857      118.799    64763.855     1923.478    14113.176        4.453        4.040       90.870      168.185        3.426      331.774        0.008      857.630
01/24/2021  00:06:00      -59.367       45.711       -5.333      305.954       45.753      150.103    93608.085     2093.325    22530.823        6.191        5.912       74.927      210.072        7.861      331.842        0.122      857.617
01/24/2021  00:07:00      -37.418        9.252       -3.694      254.489       40.766      119.567    64764.720     1661.880    14296.310        4.109        4.036       38.545      170.036       19.460      331.911        0.236      857.613
01/24/2021  00:08:00       57.470       -2.977      -28.980      441.086       46.443      211.904   194556.611     2156.975    44903.339       12.283       12.081       57.547      302.673       27.663      332.259        0.812      857.610
01/24/2021  00:09:00       39.052       21.200      -17.253      356.875       48.988      172.626   127359.683     2399.868    29799.822        8.088        7.978       44.435      244.809       30.353      332.266        0.820      857.608
01/24/2021  00:10:00       28.792       13.559      -21.194      400.080       45.101      193.425   160064.149     2034.086    37413.388       10.044        9.976       31.825      275.352       74.859      332.104        0.555      857.610
01/24/2021  00:11:00       -1.344       -0.324       -6.390      225.772       37.779      111.100    50973.198     1427.223    12343.177        3.238        3.237        1.383      153.193    12277.409      331.994        0.371      857.615
01/24/2021  00:12:00       51.703       24.688      -17.483      336.796       47.525      163.426   113431.710     2258.672    26708.196        7.296        7.120       57.294      231.150       16.277      332.131        0.597      857.622
01/24/2021  00:13:00       15.370       24.299       -2.644      153.343       46.357       78.697    23514.155     2148.962     6193.273        1.634        1.593       28.752      102.839       12.793      331.963        0.318      857.630
01/24/2021  00:14:00       65.002      -13.851      -28.385      429.808       46.947      207.775   184734.887     2204.056    43170.549       11.762       11.505       66.461      296.431       19.893      332.203        0.719      857.629
01/24/2021  00:15:00       39.093        1.697      -26.464      350.433       50.709      168.437   122803.010     2571.373    28370.993        7.796        7.687       39.130      239.544       37.476      332.126        0.590      857.631
01/24/2021  00:16:00       57.553        3.722      -14.838      378.763       45.392      182.748   143461.201     2060.479    33396.866        9.119        8.946       57.673      259.981       20.321      332.180        0.680      857.621
01/24/2021  00:17:00       68.368       13.333      -13.862      378.115       48.010      180.497   142970.771     2304.974    32579.077        9.141        8.893       69.656      257.607       13.677      332.185        0.687      857.618
01/24/2021  00:18:00       54.503       43.433       -2.738      291.176       54.688      143.002    84783.673     2990.738    20449.552        5.652        5.411       69.692      198.627        8.123      332.064        0.486      857.620
01/24/2021  00:19:00       41.152       21.463        0.798      244.908       45.099      118.081    59979.718     2033.962    13943.193        3.904        3.798       46.413      165.297       12.684      332.029        0.426      857.622
01/24/2021  00:20:00       37.491       32.675       -5.686      264.838       44.620      127.187    70139.218     1990.927    16176.581        4.539        4.415       49.731      178.925       12.945      332.001        0.381      857.616
01/24/2021  00:21:00       47.107       34.179        1.007      334.774       44.997      157.780   112073.929     2024.750    24894.530        7.116        6.950       58.200      225.720       15.042      332.000        0.382      857.614
01/24/2021  00:22:00       27.960       39.568       12.981      232.089       48.045      114.348    53865.310     2308.329    13075.472        3.587        3.462       48.450      158.015       10.637      331.945        0.289      857.614
01/24/2021  00:23:00       43.300        2.718        5.138      320.007       43.283      154.646   102404.244     1873.391    23915.379        6.502        6.410       43.385      219.457       25.587      332.082        0.516      857.594
01/24/2021  00:24:00       27.201       51.166        8.685      262.824       40.710      128.392    69076.286     1657.328    16484.575        4.531        4.361       57.947      180.676        9.722      332.013        0.403      857.576
01/24/2021  00:25:00      -21.350       51.149       -3.550      152.083       41.769       65.987    23129.327     1744.610     4354.280        1.615        1.461       55.426       94.421        2.902      331.873        0.169      857.573
01/24/2021  00:26:00      -51.774       28.730       -0.696       29.974       44.262       23.264      898.466     1959.110      541.221        0.345        0.170       59.211       30.318        0.262      331.942        0.282      857.567
01/24/2021  00:27:00       25.991       -0.291       -0.517      258.848       37.705      125.423    67002.091     1421.693    15730.978        4.240        4.208       25.993      177.410       46.586      332.142        0.616      857.563
01/24/2021  00:28:00       15.639      -10.645        3.290      197.308       42.499       96.729    38930.376     1806.195     9356.445        2.522        2.505       18.918      132.265       48.879      332.128        0.591      857.552
01/24/2021  00:29:00       33.976       -9.262      -15.725      317.449       44.380      151.940   100773.679     1969.547    23085.677        6.363        6.291       35.216      216.318       37.732      332.097        0.541      857.539
01/24/2021  00:30:00       28.622        5.251       -8.409      255.307       48.795      126.396    65181.439     2380.915    15975.850        4.221        4.177       29.100      175.677       36.445      332.124        0.587      857.527
01/24/2021  00:31:00       20.108       30.294        2.073      249.518       43.001      121.723    62259.187     1849.089    14816.387        4.011        3.946       36.360      170.353       21.951      332.079        0.512      857.522
01/24/2021  00:32:00       80.233       46.165      -26.843      442.325       45.331      212.034   195651.040     2054.941    44958.600       12.593       12.133       92.566      304.175       10.798      332.187        0.691      857.516
01/24/2021  00:33:00        1.791       43.807        4.838      153.800       38.413       76.479    23654.379     1475.532     5849.051        1.646        1.549       43.844      104.041        5.631      331.876        0.174      857.519
01/24/2021  00:34:00       80.919       45.364      -23.866      402.711       44.758      191.873   162175.853     2003.276    36815.117       10.504       10.050       92.768      275.282        8.806      332.083        0.522      857.511
01/24/2021  00:35:00       41.463       59.527        1.956      223.696       48.861      108.560    50040.008     2387.400    11785.288        3.473        3.211       72.544      150.193        4.286      331.969        0.330      857.508
01/24/2021  00:36:00       77.556       51.884       -8.810      349.317       40.065      167.451   122022.348     1605.206    28039.960        8.019        7.583       93.311      239.573        6.592      332.034        0.436      857.506
01/24/2021  00:37:00       69.774       15.165       -4.988      361.708       51.753      172.303   130832.501     2678.388    29688.387        8.413        8.160       71.403      247.042       11.970      332.122        0.583      857.502
01/24/2021  00:38:00      103.266        6.085       -8.964      306.379       52.103      148.072    93868.155     2714.746    21925.246        6.462        5.925      103.445      208.166        4.050      332.002        0.385      857.494
01/24/2021  00:39:00       84.610        2.855       -8.432      324.265       47.066      156.995   105147.683     2215.246    24647.282        6.960        6.601       84.658      222.700        6.920      332.010        0.397      857.480
01/24/2021  00:40:00      143.569        3.119      -49.186      478.879       55.334      232.682   229325.275     3061.863    54140.985       15.472       14.326      143.603      331.274        5.322      332.194        0.705      857.464
01/24/2021  00:41:00       59.129       -3.974      -13.970      253.286       46.144      122.585    64153.875     2129.255    15027.078        4.249        4.066       59.262      171.853        8.409      331.988        0.360      857.447
01/24/2021  00:42:00      121.197        2.503      -29.123      451.258       45.157      219.304   203633.793     2039.135    48094.440       13.460       12.688      121.223      312.306        6.637      332.218        0.746      857.436
01/24/2021  00:43:00       91.831        5.363      -17.616      378.905       39.915      182.003   143568.727     1593.236    33124.975        9.349        8.914       91.988      260.039        7.991      332.172        0.665      857.417
01/24/2021  00:44:00       36.383      -11.926       -7.188      221.285       45.299      109.393    48967.101     2052.001    11966.779        3.224        3.149       38.288      150.769       15.506      332.069        0.496      857.405
01/24/2021  00:45:00       14.726      -19.853       -5.683      165.356       47.919       82.267    27342.492     2296.210     6767.924        1.852        1.820       24.719      110.633       20.032      332.113        0.565      857.392
01/24/2021  00:46:00       68.602      -14.817      -14.563      327.587       49.459      157.680   107313.349     2446.154    24863.058        6.985        6.731       70.184      223.798       10.168      332.130        0.596      857.383
01/24/2021  00:47:00       53.519       29.655        7.831       36.591       51.379       30.203     1338.887     2639.842      912.217        0.435        0.245       61.186       37.344        0.373      331.850        0.132      857.374
01/24/2021  00:48:00       85.585       10.455      -17.445      355.685       50.716      172.118   126511.931     2572.157    29624.484        8.319        7.935       86.221      244.481        8.040      332.064        0.485      857.374
01/24/2021  00:49:00       84.021       42.789        1.753      243.946       57.011      121.989    59509.573     3250.223    14881.211        4.325        3.882       94.290      166.290        3.110      331.977        0.342      857.373
01/24/2021  00:50:00      108.731       21.703      -17.176      333.381       43.767      159.988   111142.804     1915.547    25596.252        7.559        6.933      110.876      228.337        4.241      331.996        0.376      857.369
01/24/2021  00:51:00      142.590       40.850      -25.402      414.404       52.562      200.120   171731.009     2762.729    40048.189       11.855       10.727      148.326      284.095        3.669      332.128        0.596      857.365
01/24/2021  00:52:00      163.820       51.696      -35.500      439.266       46.532      213.136   192954.392     2165.217    45426.938       13.561       12.027      171.783      303.010        3.111      332.139        0.613      857.360
01/24/2021  00:53:00      146.951       62.647      -30.860      457.641       51.076      218.353   209434.842     2608.711    47677.986       14.304       12.986      159.748      312.552        3.828      332.138        0.612      857.359
01/24/2021  00:54:00      157.863       75.200      -22.985      461.881       50.151      222.918   213334.033     2515.144    49692.335       14.827       13.277      174.859      317.596        3.299      332.128        0.597      857.358
01/24/2021  00:55:00      119.769       73.282       -6.106      344.823       54.269      168.179   118902.734     2945.113    28284.344        8.491        7.507      140.410      236.191        2.830      332.002        0.385      857.352
01/24/2021  00:56:00      134.047       52.077      -14.255      360.901       49.139      175.021   130249.825     2414.631    30632.500        9.206        8.165      143.808      247.387        2.959      331.981        0.351      857.341
01/24/2021  00:57:00      121.089       57.477       -5.870      291.607       51.225      143.426    85034.681     2623.991    20571.121        6.309        5.411      134.038      199.821        2.222      331.937        0.277      857.329
01/24/2021  00:58:00      124.330       44.693      -22.495      408.603       45.387      196.789   166956.789     2060.022    38725.950       11.281       10.387      132.119      280.968        4.523      332.016        0.411      857.320
01/24/2021  00:59:00      136.712       41.822      -19.437      386.329       45.699      186.747   149249.817     2088.358    34874.381       10.348        9.311      142.966      265.606        3.452      332.009        0.398      857.317
01/24/2021  01:00:00      108.763       51.835      -14.219      301.470       53.216      146.291    90884.180     2831.972    21401.121        6.489        5.756      120.484      206.089        2.926      331.953        0.304      857.316
01/24/2021  01:01:00       81.434       52.990        4.781      222.455       54.252      109.515    49486.052     2943.294    11993.525        3.693        3.221       97.157      149.394        2.364      331.891        0.200      857.318
01/24/2021  01:02:00      151.850       64.342      -34.046      502.216       47.311      240.401   252220.846     2238.351    57792.856       17.024       15.613      164.919      345.137        4.380      332.146        0.630      857.307
01/24/2021  01:03:00       98.078       68.300      -16.666      401.519       47.942      194.797   161217.537     2298.413    37945.976       10.797       10.073      119.516      277.308        5.384      331.990        0.367      857.294
01/24/2021  01:04:00      128.949       81.831      -30.565      480.052       43.066      229.521   230450.076     1854.652    52680.114       15.456       14.249      152.723      329.568        4.657      332.100        0.551      857.291
01/24/2021  01:05:00      114.491       79.473      -26.628      435.449       49.618      206.763   189615.740     2461.929    42750.877       12.743       11.741      139.370      296.794        4.535      332.080        0.516      857.285
01/24/2021  01:06:00      155.946       65.311      -37.004      519.655       55.569      254.968   270040.806     3087.957    65008.436       18.397       16.907      169.070      360.962        4.558      332.182        0.687      857.291
01/24/2021  01:07:00      131.266       29.691      -31.115      449.127       50.477      214.981   201714.920     2547.905    46216.656       13.473       12.524      134.582      307.902        5.234      332.071        0.503      857.302
01/24/2021  01:08:00      129.031       53.390      -16.859      316.136       42.686      148.458    99942.228     1822.105    22039.839        7.177        6.190      139.640      213.491        2.337      331.942        0.286      857.312
01/24/2021  01:09:00      153.019       64.437      -31.087      437.839       50.861      210.500   191703.149     2586.844    44310.379       13.352       11.930      166.033      300.724        3.281      332.053        0.472      857.318
01/24/2021  01:10:00      145.981       59.066      -36.024      499.894       45.393      238.090   249894.487     2060.537    56687.016       16.730       15.432      157.477      343.091        4.747      332.123        0.590      857.324
01/24/2021  01:11:00      127.174       77.998      -27.392      459.084       54.057      217.421   210758.070     2922.150    47271.752       14.193       13.048      149.188      312.517        4.388      332.099        0.548      857.322
01/24/2021  01:12:00       80.388       81.782       -6.187      314.156       53.495      152.080    98693.734     2861.755    23128.233        6.891        6.234      114.675      214.015        3.483      331.941        0.285      857.326
01/24/2021  01:13:00      119.177       89.569      -28.141      459.908       50.762      221.900   211515.317     2576.805    49239.772       14.312       13.167      149.084      316.527        4.508      332.118        0.579      857.331
01/24/2021  01:14:00      107.785       66.656      -13.917      365.330       52.778      179.546   133466.081     2785.551    32236.893        9.234        8.424      126.731      252.166        3.959      332.035        0.440      857.339
01/24/2021  01:15:00      175.172       63.414      -49.483      563.828       42.539      270.510   317901.514     1809.582    73175.820       21.494       19.644      186.297      388.705        4.353      332.128        0.600      857.337
01/24/2021  01:16:00      121.107       59.880      -23.649      461.524       54.113      222.965   213004.246     2928.247    49713.562       14.217       13.282      135.102      317.830        5.534      331.988        0.364      857.341
01/24/2021  01:17:00       80.824       49.248       -4.082      287.585       37.105      138.582    82705.402     1376.786    19204.854        5.611        5.164       94.646      196.630        4.316      331.788        0.032      857.337
01/24/2021  01:18:00       46.728       77.507       -8.176      318.486       47.785      153.610   101433.421     2283.403    23596.185        6.776        6.366       90.504      217.913        5.797      331.904        0.223      857.335
01/24/2021  01:19:00       41.161       82.430       -7.997      351.449       48.050      169.999   123516.291     2308.792    28899.654        8.161        7.736       92.136      241.326        6.860      332.016        0.409      857.330
01/24/2021  01:20:00       57.720       28.094      -39.719      490.556       42.491      233.081   240645.466     1805.503    54326.543       15.118       14.839       64.194      336.095       27.411      332.150        0.634      857.335
01/24/2021  01:21:00       19.323       10.799        4.482      210.084       49.158      102.944    44135.289     2416.504    10597.531        2.882        2.857       22.136      142.338       41.349      331.890        0.199      857.334
01/24/2021  01:22:00       90.436       26.008      -20.495      479.305       46.307      225.474   229733.031     2144.355    50838.315       14.594       14.136       94.102      326.228       12.018      332.122        0.588      857.335
01/24/2021  01:23:00       17.148       27.680      -10.143      363.346       49.652      175.359   132020.461     2465.351    30750.889        8.317        8.262       32.562      247.791       57.910      331.973        0.338      857.336
01/24/2021  01:24:00      -46.451       15.396       -8.863      222.918       39.858      108.007    49692.236     1588.665    11665.574        3.270        3.147       48.936      150.735        9.488      331.850        0.133      857.336
01/24/2021  01:25:00       88.840       11.502      -36.134      521.756       48.455      248.796   272229.835     2347.869    61899.452       17.283       16.824       89.581      357.994       15.970      332.177        0.680      857.338
01/24/2021  01:26:00       42.608       -9.105      -17.065      357.970       39.475      175.081   128142.209     1558.287    30653.273        8.124        8.018       43.570      247.627       32.301      331.990        0.368      857.350
01/24/2021  01:27:00       35.703      -11.156      -23.177      346.990       40.953      164.979   120402.295     1677.166    27218.147        7.559        7.465       37.405      236.610       40.013      331.986        0.358      857.363
01/24/2021  01:28:00       38.777       15.265        1.725      247.233       43.357      123.133    61124.124     1879.801    15161.696        3.994        3.908       41.674      170.234       16.687      331.959        0.314      857.372
01/24/2021  01:29:00       47.439        9.793      -20.909      408.188       44.519      196.343   166617.788     1981.972    38550.684       10.492       10.358       48.439      280.261       33.476      332.026        0.427      857.376
01/24/2021  01:30:00       24.252       10.413       -5.833      324.659       41.942      156.457   105403.361     1759.152    24478.888        6.616        6.582       26.393      221.111       70.183      331.946        0.293      857.378
01/24/2021  01:31:00       -6.071       32.846      -13.611      314.785       47.288      153.959    99089.618     2236.117    23703.459        6.314        6.251       33.403      214.872       41.381      331.843        0.123      857.370
01/24/2021  01:32:00      -26.744       54.754      -47.754      446.045       40.923      214.920   198956.033     1674.695    46190.792       12.636       12.341       60.937      306.783       25.346      331.937        0.282      857.354
01/24/2021  01:33:00      -60.213       97.550      -41.544      430.586       46.925      208.373   185403.926     2201.939    43419.319       12.290       11.551      114.637      297.012        6.713      331.846        0.132      857.336
01/24/2021  01:34:00      -72.770       98.606      -21.072      295.511       36.766      141.182    87326.882     1351.720    19932.223        6.201        5.431      122.551      200.961        2.689      331.636       -0.219      857.317
01/24/2021  01:35:00       13.771       90.027      -55.514      509.457       36.593      244.413   259546.515     1339.038    59737.617       16.593       16.031       91.074      350.794       14.836      331.936        0.282      857.308
01/24/2021  01:36:00       -1.419       73.275      -19.091      332.506       55.007      158.805   110560.216     3025.754    25218.989        7.224        6.940       73.289      226.534        9.554      331.780        0.019      857.310
01/24/2021  01:37:00      161.879       74.717      -89.336      696.974       42.675      332.395   485773.113     1821.121   110486.702       31.880       29.904      178.291      480.210        7.254      332.203        0.730      857.310
01/24/2021  01:38:00       38.878       49.063      -30.124      384.253       40.847      183.242   147650.653     1668.514    33577.529        9.382        9.145       62.600      262.226       17.547      331.766       -0.002      857.328
01/24/2021  01:39:00      127.883       -1.353      -37.754      541.830       42.507      254.103   293579.911     1806.810    64568.519       18.879       17.998      127.890      369.193        8.334      332.004        0.395      857.337
01/24/2021  01:40:00       92.482      -39.221      -47.194      433.318       42.564      200.256   187764.843     1811.719    40102.336       12.095       11.484      100.455      292.311        8.467      331.926        0.262      857.345
01/24/2021  01:41:00      115.363       -7.878      -51.627      559.785       46.339      268.114   313359.146     2147.307    71885.270       20.163       19.370      115.632      385.303       11.103      332.203        0.723      857.346
01/24/2021  01:42:00       36.661       -0.847      -20.495      356.497       44.777      172.229   127089.944     2005.002    29662.946        8.023        7.938       36.670      245.007       44.640      331.857        0.149      857.346
01/24/2021  01:43:00       97.749       -8.632      -57.193      607.154       40.532      281.354   368635.478     1642.809    79159.944       23.107       22.472       98.129      411.694       17.602      332.108        0.570      857.350
01/24/2021  01:44:00       81.200       15.106      -44.355      478.046       32.945      231.846   228527.576     1085.365    53752.741       14.602       14.168       82.593      331.182       16.079      331.923        0.259      857.346
01/24/2021  01:45:00       41.444      -19.723      -38.133      452.768       32.463      215.811   204998.539     1053.850    46574.573       12.804       12.631       45.897      310.598       45.796      332.011        0.403      857.346
01/24/2021  01:46:00       26.300       -0.300      -56.613      574.556       43.466      272.767   330114.065     1889.301    74401.776       20.507       20.320       26.302      394.089      224.499      332.189        0.701      857.346
01/24/2021  01:47:00       21.698        6.813      -31.081      448.610       34.712      218.162   201251.162     1204.930    47594.680       12.572       12.503       22.743      310.723      186.661      331.995        0.377      857.355
01/24/2021  01:48:00       56.971      -20.785      -22.202      404.041       44.317      193.610   163249.471     1964.033    37484.760       10.339       10.135       60.644      277.812       20.986      331.988        0.364      857.372
01/24/2021  01:49:00      107.303      -17.766      -51.190      527.802       33.380      249.474   278575.227     1114.201    62237.195       17.812       17.096      108.764      361.218       11.030      332.112        0.572      857.382
01/24/2021  01:50:00       86.569       -2.344      -59.097      551.001       25.189      265.187   303601.791      634.468    70324.200       19.270       18.728       86.601      381.483       19.405      332.158        0.649      857.387
01/24/2021  01:51:00       73.634        2.890      -42.202      501.159       32.726      241.360   251160.819     1071.011    58254.713       15.878       15.524       73.691      346.563       22.118      332.012        0.406      857.380
01/24/2021  01:52:00      127.092        3.013      -53.805      598.884       24.500      285.593   358661.876      600.271    81563.347       22.985       22.041      127.128      412.895       10.549      332.150        0.639      857.374
01/24/2021  01:53:00      109.923        4.233      -48.107      578.111       29.740      276.221   334212.339      884.477    76298.006       21.282       20.570      110.005      398.328       13.112      332.054        0.479      857.369
01/24/2021  01:54:00      -29.161       23.862      -24.334      378.027       31.040      181.515   142904.637      963.451    32947.740        8.938        8.841       37.680      259.113       47.288      331.669       -0.163      857.362
01/24/2021  01:55:00       26.489       27.150      -65.238      556.984       31.507      261.888   310231.629      992.702    68585.530       19.267       18.990       37.931      380.389      100.568      331.810        0.075      857.352
01/24/2021  01:56:00       12.537       35.380      -61.748      527.951      167.167      262.057   278732.308    27944.973    68673.818       19.021       18.768       37.536      345.618       84.781      331.823        0.098      857.336
01/24/2021  01:57:00       38.997       49.737      -63.051      549.053       31.023      262.864   301459.431      962.447    69097.530       18.967       18.576       63.202      379.050       35.970      331.855        0.150      857.319
01/24/2021  01:58:00       45.028       38.220      -66.449      595.186       32.305      286.484   354246.839     1043.619    82072.948       22.254       21.868       59.062      411.755       48.603      331.868        0.174      857.316
01/24/2021  01:59:00       64.540       30.784      -67.332      614.587       31.640      289.716   377717.471     1001.073    83935.222       23.605       23.133       71.506      420.781       34.628      331.903        0.232      857.308
01/24/2021  02:00:00       38.302       15.661      -58.180      542.350       23.183      257.865   294144.000      537.445    66494.113       18.306       18.059       41.381      372.793       81.160      331.741       -0.040      857.295
01/24/2021  02:01:00       19.705       14.667      -27.601      392.898       33.778      195.237   154368.560     1140.947    38117.665        9.746        9.681       24.565      273.430      123.899      331.614       -0.252      857.288
01/24/2021  02:02:00       53.363        3.423      -32.589      491.850       25.162      234.516   241916.480      633.134    54997.540       15.067       14.877       53.472      338.393       40.048      331.659       -0.174      857.280
01/24/2021  02:03:00       48.623       14.506      -42.581      515.068       27.955      247.462   265295.436      781.479    61237.596       16.578       16.366       50.741      355.648       49.128      331.782        0.029      857.263
01/24/2021  02:04:00       53.583       -0.360      -25.004      412.693       28.009      197.844   170315.857      784.490    39142.313       10.683       10.512       53.585      284.332       28.156      331.673       -0.153      857.254
01/24/2021  02:05:00       71.511      -18.528      -39.611      468.743       20.507      225.191   219720.056      420.550    50711.077       13.888       13.543       73.873      324.164       19.256      331.700       -0.109      857.237
01/24/2021  02:06:00       93.075       19.844      -40.058      468.200       29.761      225.461   219211.277      885.735    50832.577       14.074       13.546       95.167      324.166       11.603      331.555       -0.346      857.234
01/24/2021  02:07:00      145.651       53.391      -62.336      591.853       24.202      282.179   350290.314      585.756    79625.096       22.913       21.525      155.129      408.187        6.924      331.489       -0.450      857.216
01/24/2021  02:08:00      100.105       39.256      -37.266      448.767       85.488      218.086   201391.789     7308.212    47561.293       13.455       12.813      107.527      304.500        8.019      331.309       -0.752      857.195
01/24/2021  02:09:00      121.721       29.851      -53.421      592.336       17.194      283.126   350862.360      295.618    80160.094       22.485       21.566      125.328      409.157       10.658      331.519       -0.402      857.170
01/24/2021  02:10:00      135.099       23.485      -61.767      646.599       18.600      309.504   418090.176      345.954    95792.806       26.832       25.711      137.125      446.944       10.624      331.680       -0.135      857.154
01/24/2021  02:11:00       73.701       23.043      -44.124      507.004       19.850      241.206   257053.258      394.013    58180.291       16.170       15.781       77.220      349.211       20.451      331.521       -0.403      857.131
01/24/2021  02:12:00       72.098        5.699      -54.338      540.733       13.529      256.292   292392.431      183.028    65685.619       18.315       17.913       72.323      371.980       26.454      331.599       -0.274      857.108
01/24/2021  02:13:00      108.640        5.621      -52.295      533.846       28.059      256.570   284991.483      787.284    65828.303       18.301       17.580      108.785      369.499       11.537      331.580       -0.303      857.083
01/24/2021  02:14:00      104.964      -24.859      -54.319      526.520       18.000      250.601   277223.700      323.988    62800.945       17.739       17.017      107.867      362.678       11.305      331.617       -0.242      857.064
01/24/2021  02:15:00       73.662       -3.533      -30.992      415.521       19.206      198.690   172657.298      368.853    39477.598       10.941       10.625       73.746      286.745       15.119      331.446       -0.528      857.056
01/24/2021  02:16:00       22.802        0.942      -11.529      324.483       21.769      156.361   105289.186      473.888    24448.853        6.541        6.511       22.822      224.469       96.741      331.410       -0.588      857.037
01/24/2021  02:17:00      181.614       20.170      -98.080      735.913       16.645      350.921   541567.863      277.068   123145.601       35.386       33.250      182.730      507.840        7.724      331.994        0.386      857.022
01/24/2021  02:18:00       44.950       -0.799      -27.960      382.632       18.681      182.648   146407.026      348.964    33360.327        9.142        9.006       44.957      263.698       34.405      331.266       -0.824      857.020
01/24/2021  02:19:00      102.939       -7.404      -52.202      528.728       19.327      253.432   279553.367      373.517    64227.646       17.869       17.208      103.205      365.543       12.545      331.577       -0.308      857.013
01/24/2021  02:20:00       62.918      -19.471      -30.425      372.936       18.848      178.764   139081.389      355.248    31956.482        8.829        8.570       65.862      257.549       15.292      331.370       -0.652      857.008
01/24/2021  02:21:00       72.063       -6.362      -40.260      451.552       12.212      216.342   203899.212      149.145    46803.814       12.880       12.543       72.344      312.334       18.640      331.397       -0.607      857.004
01/24/2021  02:22:00       36.247        1.424       -9.923      267.489       12.852      128.745    71550.585      165.186    16575.338        4.483        4.415       36.275      184.996       26.008      331.232       -0.884      857.002
01/24/2021  02:23:00       76.588       -4.363      -54.198      548.708       15.810      262.448   301080.849      249.967    68878.802       18.944       18.510       76.712      378.435       24.336      331.505       -0.427      857.005
01/24/2021  02:24:00      119.396       -8.023      -80.979      643.101       32.759      305.058   413578.461     1073.122    93060.535       26.419       25.386      119.665      441.305       13.600      331.704       -0.096      857.016
01/24/2021  02:25:00       98.341       12.150      -63.837      643.467       28.648      302.436   414050.343      820.712    91467.282       26.001       25.317       99.089      439.598       19.682      331.385       -0.619      857.011
01/24/2021  02:26:00      -43.148       12.649      -40.055      434.230       29.577      207.684   188555.276      874.820    43132.825       11.804       11.628       44.964      298.214       43.988      331.042       -1.192      857.014
01/24/2021  02:27:00      -31.964       25.041      -52.420      517.185       35.298      247.329   267479.828     1245.947    61171.418       16.708       16.495       40.605      354.560       76.248      331.065       -1.150      857.016
01/24/2021  02:28:00       30.097       15.336      -70.874      654.267       38.191      312.463   428065.149     1458.535    97633.069       26.655       26.358       33.779      449.625      177.174      331.126       -1.046      857.023
01/24/2021  02:29:00     -147.874       27.474      -23.914      380.932       42.709      181.482   145109.217     1824.035    32935.870       10.149        8.993      150.405      257.512        2.931      330.596       -1.928      857.034
01/24/2021  02:30:00        2.133       10.789      -64.833      609.458       38.505      297.663   371439.127     1482.606    88603.067       23.283       23.076       10.997      421.021     1465.630      330.879       -1.455      857.049
01/24/2021  02:31:00      -37.907        4.696      -32.191      451.844       59.457      216.087   204162.847     3535.078    46693.495       12.839       12.720       38.197      308.470       65.217      330.557       -1.987      857.049
01/24/2021  02:32:00       70.990       -8.655      -70.965      615.060       40.021      290.231   378298.543     1601.669    84234.076       23.704       23.207       71.515      418.815       34.296      330.838       -1.521      857.049
01/24/2021  02:33:00       45.398       -0.234      -41.485      500.513       33.380      240.536   250513.483     1114.214    57857.443       15.657       15.474       45.398      342.957       57.069      330.632       -1.862      857.055
01/24/2021  02:34:00      -10.400        2.942      -19.317      279.108       42.471      133.271    77901.142     1803.805    17761.212        4.896        4.873       10.808      190.984      312.257      330.405       -2.241      857.044
01/24/2021  02:35:00      -35.948        8.282      -28.702      361.112       31.817      167.979   130402.152     1012.295    28217.079        8.087        7.982       36.890      243.704       43.643      330.390       -2.263      857.022
01/24/2021  02:36:00       48.636       15.716      -47.419      513.777       26.970      242.806   263967.174      727.369    58954.987       16.419       16.182       51.112      351.075       47.179      330.710       -1.735      857.004
01/24/2021  02:37:00       34.993       24.190      -63.890      501.333       94.150      241.757   251334.595     8864.303    58446.371       16.220       15.932       42.540      337.495       62.942      330.736       -1.694      856.983
01/24/2021  02:38:00      132.144       13.953     -110.046      701.667       37.385      341.924   492336.573     1397.660   116912.055       32.008       30.532      132.879      487.609       13.466      331.134       -1.031      856.964
01/24/2021  02:39:00       15.009       14.848      -38.432      449.303       27.394      215.179   201873.239      750.452    46302.028       12.537       12.446       21.113      309.702      215.181      330.706       -1.744      856.947
01/24/2021  02:40:00       29.029       36.440      -56.038      508.523       20.161      246.228   258595.475      406.449    60628.172       16.240       15.982       46.589      352.695       57.310      330.822       -1.550      856.937
01/24/2021  02:41:00      146.915       20.588     -110.315      761.730       22.547      364.480   580231.866      508.389   132845.663       37.373       35.679      148.350      525.481       12.547      331.263       -0.815      856.918
01/24/2021  02:42:00       23.713        7.452      -39.691      446.568      163.365      227.629   199423.111    26688.272    51815.065       14.000       13.896       24.857      289.816      135.944      330.784       -1.613      856.909
01/24/2021  02:43:00      133.166       23.355      -93.655      686.824       21.198      329.458   471727.869      449.372   108542.253       30.376       29.036      135.199      475.240       12.356      331.252       -0.838      856.891
01/24/2021  02:44:00       64.161       23.170      -66.390      556.765       19.448      265.282   309986.867      378.233    70374.573       19.482       19.037       68.216      383.517       31.608      330.962       -1.317      856.883
01/24/2021  02:45:00       85.208        1.876      -68.360      604.707       14.539      288.989   365670.428      211.397    83514.906       23.057       22.470       85.229      417.349       23.979      330.988       -1.273      856.872
01/24/2021  02:46:00       96.445       15.744      -88.424      692.507       13.965      328.732   479565.255      195.014   108065.005       30.247       29.391       97.721      476.773       23.804      331.104       -1.079      856.856
01/24/2021  02:47:00       52.100       -3.837      -47.195      481.666       20.774      230.030   232001.803      431.547    52913.844       14.509       14.267       52.241      332.401       40.486      330.785       -1.610      856.846
01/24/2021  02:48:00       59.255      -10.109      -33.958      452.123       10.407      216.899   204415.398      108.310    47045.254       12.811       12.578       60.111      312.975       27.109      330.705       -1.743      856.839
01/24/2021  02:49:00      181.524      -11.800      -95.649      728.852       16.519      349.283   531224.939      272.885   121998.633       34.773       32.675      181.907      503.906        7.674      331.211       -0.902      856.832
01/24/2021  02:50:00       21.462        3.502      -20.748      349.365       15.024      167.313   122055.889      225.709    27993.802        7.556        7.514       21.746      240.537      122.351      330.644       -1.846      856.811
01/24/2021  02:51:00       81.968        9.240      -45.740      562.152       14.699      267.270   316014.725      216.065    71433.432       19.820       19.383       82.487      387.199       22.034      330.843       -1.514      856.794
01/24/2021  02:52:00       48.198        3.846      -37.204      440.395       17.650      210.322   193947.958      311.529    44235.344       12.106       11.925       48.351      303.891       39.503      330.631       -1.867      856.776
01/24/2021  02:53:00       61.644        2.845      -38.974      473.995       15.946      226.094   224671.520      254.263    51118.616       14.063       13.802       61.709      327.127       28.102      330.714       -1.728      856.757
01/24/2021  02:54:00       68.034       14.474      -49.096      475.967        9.328      227.042   226544.949       87.004    51548.287       14.265       13.909       69.557      328.453       22.298      330.823       -1.549      856.741
01/24/2021  02:55:00      103.638        2.355      -61.485      540.054       10.615      258.354   291658.502      112.688    66746.645       18.645       17.926      103.665      373.338       12.970      330.972       -1.302      856.726
01/24/2021  02:56:00       86.098       -8.443      -63.125      569.098      164.572      280.105   323872.295    27083.980    78458.592       22.035       21.471       86.511      374.872       18.777      330.975       -1.295      856.719
01/24/2021  02:57:00       24.124       -9.984      -27.352      388.276       17.599      186.019   150758.228      309.711    34602.955        9.351        9.284       26.109      267.447      104.932      330.650       -1.835      856.705
01/24/2021  02:58:00       22.902       -9.154      -26.501      418.741       21.633      201.439   175344.340      467.990    40577.711       10.880       10.820       24.663      289.118      137.420      330.586       -1.941      856.683
01/24/2021  02:59:00      136.141        7.533      -64.646      619.934       18.641      298.403   384318.001      347.499    89044.366       24.814       23.685      136.349      429.457        9.921      330.774       -1.624      856.664
01/24/2021  03:00:00      139.476       13.175      -97.800      685.770       25.031      326.861   470280.267      626.567   106838.364       30.335       28.887      140.097      472.862       11.392      331.004       -1.245      856.648
01/24/2021  03:01:00       55.624       23.307      -62.921      559.156       25.522      266.620   312655.135      651.368    71086.370       19.591       19.220       60.309      385.440       40.845      330.682       -1.778      856.638
01/24/2021  03:02:00       85.530        7.249      -56.677      568.708       25.064      271.591   323429.060      628.224    73761.899       20.412       19.891       85.837      391.700       20.824      330.660       -1.815      856.627
01/24/2021  03:03:00       44.187        9.542      -52.481      512.138       22.602      247.205   262285.630      510.834    61110.373       16.428       16.195       45.205      354.604       61.533      330.558       -1.984      856.615
01/24/2021  03:04:00      121.459        0.677      -63.995      602.262       18.115      287.406   362719.475      328.142    82602.287       23.215       22.282      121.461      415.781       11.718      330.688       -1.767      856.602
01/24/2021  03:05:00       10.698       -0.014      -32.279      391.396       18.243      187.567   153190.844      332.808    35181.403        9.489        9.435       10.698      269.515      634.726      330.411       -2.228      856.586
01/24/2021  03:06:00       51.807        1.432      -49.564      484.054       23.945      234.176   234308.106      573.358    54838.316       14.737       14.486       51.826      334.196       41.581      330.524       -2.041      856.582
01/24/2021  03:07:00      110.645       -2.201      -75.877      594.921      122.125      288.321   353931.119    14914.497    83128.993       23.489       22.599      110.667      401.416       13.157      330.694       -1.757      856.593
01/24/2021  03:08:00       48.317       -5.379      -49.358      491.470       35.443      232.762   241542.588     1256.208    54177.991       15.083       14.849       48.615      337.615       48.228      330.479       -2.114      856.602
01/24/2021  03:09:00       46.002       23.736      -47.415      484.821       30.890      231.924   235051.169      954.210    53788.863       14.730       14.490       51.764      333.972       41.625      330.388       -2.264      856.605
01/24/2021  03:10:00       30.534       10.592      -25.466      381.454       31.906      182.457   145506.874     1018.010    33290.695        9.072        8.991       32.319      262.225       65.832      330.204       -2.566      856.604
01/24/2021  03:11:00      126.591      -31.509      -43.437      525.062       31.242      249.958   275689.837      976.046    62478.914       17.895       16.957      130.454      361.582        7.682      330.538       -2.017      856.605
01/24/2021  03:12:00       75.290      -16.789      -23.771      402.457       41.060      188.975   161971.615     1685.924    35711.698       10.290        9.968       77.139      274.719       12.683      330.349       -2.330      856.602
01/24/2021  03:13:00       47.136       10.670      -18.494      419.597       24.767      196.689   176061.971      613.407    38686.547       10.897       10.768       48.329      285.482       34.894      330.187       -2.595      856.606
01/24/2021  03:14:00      -79.157       -0.571      -28.040      362.110       24.514      170.819   131123.677      600.949    29179.010        8.394        8.045       79.159      246.275        9.679      330.132       -2.687      856.622
01/24/2021  03:15:00       26.405      -19.536      -39.265      495.386       26.465      231.331   245407.479      700.392    53514.145       15.106       14.981       32.846      335.956      104.618      330.292       -2.421      856.623
01/24/2021  03:16:00       54.513      -12.800      -74.290      609.863       51.570      287.847   371932.791     2659.464    82855.712       23.295       22.872       55.995      417.008       55.461      330.498       -2.078      856.607
01/24/2021  03:17:00       31.472       12.303      -76.972      638.220       25.870      304.491   407324.893      669.233    92714.979       25.378       25.035       33.792      439.966      169.519      330.509       -2.061      856.601
01/24/2021  03:18:00       49.191       12.460      -65.443      566.825       18.546      269.566   321290.376      343.958    72666.002       20.049       19.715       50.745      389.493       58.914      330.453       -2.155      856.575
01/24/2021  03:19:00       28.212       22.048      -68.304      562.938       30.565      268.221   316898.853      934.237    71942.557       19.778       19.489       35.805      387.783      117.297      330.472       -2.123      856.554
01/24/2021  03:20:00       24.262       34.427      -70.211      577.243       20.632      275.792   333208.923      425.699    76061.172       20.811       20.485       42.117      398.161       89.373      330.486       -2.099      856.557
01/24/2021  03:21:00       78.785        6.030      -70.114      591.859       24.034      278.822   350297.658      577.612    77741.753       21.980       21.431       79.016      405.148       26.291      330.565       -1.970      856.551
01/24/2021  03:22:00       68.549       -1.514      -53.290      555.630       30.243      263.697   308725.172      914.632    69536.005       19.328       18.959       68.566      381.392       30.941      330.381       -2.272      856.540
01/24/2021  03:23:00       14.761       29.242      -37.024      427.862       21.520      204.534   183065.598      463.105    41834.184       11.385       11.268       32.757      294.648       80.911      330.184       -2.599      856.540
01/24/2021  03:24:00        7.254       14.555      -36.933      486.664       27.648      232.376   236842.060      764.392    53998.424       14.655       14.580       16.263      335.643      425.952      330.139       -2.669      856.529
01/24/2021  03:25:00       71.514       22.615      -74.629      615.304       14.600      294.446   378598.722      213.154    86698.345       23.825       23.276       75.005      425.284       32.150      330.403       -2.234      856.523
01/24/2021  03:26:00       37.302       15.645      -73.380      614.135       14.399      292.444   377161.453      207.342    85523.208       23.486       23.145       40.450      423.400      109.561      330.352       -2.318      856.505
01/24/2021  03:27:00       25.300       27.665      -64.881      547.264       22.079      260.379   299498.289      487.495    67796.971       18.662       18.389       37.490      376.413      100.810      330.370       -2.291      856.500
01/24/2021  03:28:00       -7.172       34.696      -64.965      557.528       33.933      266.043   310836.980     1151.463    70778.748       19.404       19.138       35.430      384.076      117.518      330.288       -2.424      856.486
01/24/2021  03:29:00       92.461       57.767     -121.485      770.919       20.960      366.513   594316.459      439.303   134331.726       37.771       36.454      109.023      530.898       23.713      330.653       -1.817      856.474
01/24/2021  03:30:00       42.228       32.721      -82.900      665.913       24.741      318.164   443440.243      612.130   101228.019       27.739       27.264       53.421      459.391       73.950      330.365       -2.294      856.466
01/24/2021  03:31:00       59.865        1.663      -76.179      542.833       28.528      262.425   294667.726      813.831    68866.627       18.679       18.217       59.888      375.827       39.382      330.373       -2.286      856.455
01/24/2021  03:32:00       76.525        5.039      -57.970      550.408       28.688      260.145   302948.966      822.980    67675.528       19.026       18.572       76.691      375.175       23.932      330.276       -2.445      856.447
01/24/2021  03:33:00       67.586        4.028      -61.449      560.061       28.952      266.769   313668.630      838.193    71165.460       19.693       19.284       67.705      385.148       32.360      330.237       -2.509      856.445
01/24/2021  03:34:00       83.142      -23.151      -67.734      583.187       53.836      277.632   340107.555     2898.285    77079.266       21.597       21.004       86.305      401.163       21.606      330.232       -2.515      856.440
01/24/2021  03:35:00       67.720        4.288      -19.876      420.546       40.228      200.815   176858.677     1618.306    40326.736       11.185       10.940       67.855      289.535       18.207      330.019       -2.870      856.428
01/24/2021  03:36:00      107.980        5.362      -49.688      516.204      121.575      251.336   266467.043    14780.598    63169.726       17.921       17.221      108.113      345.346       10.204      330.207       -2.559      856.413
01/24/2021  03:37:00       90.357       10.051      -45.453      471.160       16.914      226.196   221991.558      286.095    51164.854       14.183       13.672       90.914      325.704       12.835      330.209       -2.558      856.400
01/24/2021  03:38:00      120.339       32.832      -86.455      666.543       25.036      317.923   444279.959      626.803   101074.916       28.439       27.299      124.737      459.611       13.577      330.570       -1.959      856.383
01/24/2021  03:39:00       66.948       16.803      -51.442      496.222       15.826      237.729   246235.913      250.455    56515.224       15.514       15.150       69.024      342.794       24.664      330.263       -2.467      856.374
01/24/2021  03:40:00      153.209       52.736      -70.362      650.728       32.835      308.409   423447.080     1078.167    95115.823       27.531       25.982      162.031      447.420        7.625      330.797       -1.587      856.374
01/24/2021  03:41:00      209.930       72.357      -94.555      721.384       28.555      344.362   520394.198      815.385   118584.896       34.889       31.990      222.050      498.017        5.030      331.125       -1.044      856.372
01/24/2021  03:42:00      197.752       50.681     -106.816      738.201       35.384      353.233   544941.153     1252.028   124773.573       36.188       33.548      204.143      509.950        6.240      331.061       -1.148      856.380
01/24/2021  03:43:00      184.150        8.192     -114.741      755.678       12.575      360.179   571048.634      158.129   129728.753       37.389       35.047      184.332      521.425        8.002      330.818       -1.547      856.384
01/24/2021  03:44:00      113.279        5.472      -85.208      642.992      177.790      347.994   413438.585    31609.149   121099.732       29.301       28.307      113.411      453.248       15.972      330.581       -1.936      856.380
01/24/2021  03:45:00       88.245       11.936      -62.097      574.189       14.471      274.069   329693.009      209.416    75113.548       20.831       20.251       89.048      396.455       19.821      330.362       -2.302      856.376
01/24/2021  03:46:00      178.099       -8.483      -98.796      721.057       11.110      344.383   519922.648      123.439   118599.489       33.996       31.932      178.300      498.032        7.802      330.606       -1.895      856.366
01/24/2021  03:47:00      113.093        1.911      -50.689      571.113       19.545      272.720   326170.077      381.997    74376.172       20.806       20.046      113.109      394.452       12.162      330.409       -2.226      856.356
01/24/2021  03:48:00       69.745      -15.962      -52.271      501.461       17.357      240.752   251463.470      301.280    57961.580       15.872       15.486       71.548      346.823       23.497      330.492       -2.092      856.349
01/24/2021  03:49:00       66.543       -8.539      -32.408      468.325       15.977      225.843   219328.372      255.249    51005.189       13.801       13.529       67.089      324.652       23.417      330.361       -2.309      856.343
01/24/2021  03:50:00      107.072      -30.585      -53.678      568.732       27.174      269.729   323456.234      738.400    72753.559       20.603       19.847      111.354      390.325       12.287      330.676       -1.788      856.337
01/24/2021  03:51:00      110.440      -13.295      -66.896      627.153       25.192      298.975   393320.435      634.648    89386.329       24.999       24.167      111.237      432.349       15.107      330.776       -1.621      856.332
01/24/2021  03:52:00      145.288       -5.316      -74.773      640.930       15.054      305.399   410790.924      226.627    93268.346       26.540       25.214      145.386      441.881        9.238      330.798       -1.585      856.335
01/24/2021  03:53:00       89.150       -6.555      -58.884      575.836       22.892      273.804   331586.963      524.050    74968.506       20.918       20.354       89.391      396.307       19.655      330.701       -1.747      856.333
01/24/2021  03:54:00      166.375      -13.166     -111.262      774.547       25.730      372.590   599922.823      662.011   138822.954       38.966       36.970      166.896      536.088       10.318      330.933       -1.357      856.336
01/24/2021  03:55:00       36.718       -2.833      -40.580      529.377       36.941      251.638   280240.212     1364.640    63321.921       17.389       17.246       36.827      362.725       97.013      330.387       -2.264      856.336
01/24/2021  03:56:00       55.921      -14.307      -36.596      493.125       39.870      235.686   243172.169     1589.654    55547.716       15.243       15.015       57.722      338.101       34.309      330.299       -2.410      856.334
01/24/2021  03:57:00       77.554      -17.933      -63.382      597.489       44.589      289.565   356993.230     1988.197    83847.835       22.650       22.141       79.601      412.037       26.794      330.444       -2.169      856.328
01/24/2021  03:58:00       87.168      -19.522      -52.206      525.056       27.932      252.311   275683.566      780.173    63660.912       17.534       17.006       89.327      361.355       16.364      330.225       -2.529      856.316
01/24/2021  03:59:00       80.492       -6.575      -43.618      568.217       28.465      271.149   322871.033      810.281    73521.818       20.273       19.860       80.760      390.737       23.409      330.321       -2.369      856.302
01/24/2021  04:00:00       37.555        4.252      -44.221      518.905       23.211      247.808   269262.902      538.743    61408.636       16.723       16.561       37.795      356.813       89.127      330.207       -2.560      856.284
01/24/2021  04:01:00        5.011      -12.469      -27.683      413.584       24.677      199.545   171051.440      608.936    39818.058       10.617       10.574       13.438      285.888      452.629      330.080       -2.770      856.266
01/24/2021  04:02:00       -1.712        5.403      -11.663      260.746       22.185      126.643    67988.412      492.189    16038.335        4.233        4.226        5.668      179.501     1003.095      329.955       -2.980      856.246
01/24/2021  04:03:00       96.841       23.544      -91.173      744.516       35.563      355.381   554304.171     1264.750   126295.595       34.991       34.093       99.662      512.617       26.456      330.531       -2.017      856.230
01/24/2021  04:04:00       37.230       -1.314      -56.651      515.716      141.001      253.316   265963.416    19881.352    64168.835       17.723       17.501       37.253      341.841       84.201      330.207       -2.559      856.222
01/24/2021  04:05:00      148.474       25.358     -128.093      804.646       24.309      385.115   647455.418      590.949   148313.617       41.756       39.818      150.624      556.189       13.635      330.647       -1.825      856.217
01/24/2021  04:06:00       62.041       11.775      -78.325      648.989       19.329      307.749   421187.290      373.622    94709.626       26.309       25.814       63.149      446.012       49.884      330.323       -2.363      856.209
01/24/2021  04:07:00       32.950       15.530      -80.260      625.175       20.773      296.012   390843.608      431.501    87623.253       24.323       23.945       36.426      429.624      139.105      330.379       -2.273      856.207
01/24/2021  04:08:00      188.942       19.188     -162.791      894.225       26.010      423.595   799638.407      676.530   179432.660       52.095       48.987      189.914      614.776       10.479      330.960       -1.305      856.197
01/24/2021  04:09:00       75.610        8.987      -79.338      614.232       27.020      295.122   377280.416      730.073    87097.041       23.850       23.255       76.142      424.030       31.013      330.323       -2.365      856.192
01/24/2021  04:10:00       69.161        9.859      -48.947      532.143       23.897      254.890   283175.768      571.059    64968.806       17.792       17.436       69.860      367.085       27.611      330.142       -2.664      856.184
01/24/2021  04:11:00       34.602       10.269      -59.345      523.728       99.966      279.529   274291.480     9993.284    78136.363       18.354       18.121       36.093      376.800      108.985      330.123       -2.693      856.173
01/24/2021  04:12:00       55.860       -2.805      -56.323      545.729       35.923      262.340   297819.674     1290.486    68822.110       18.704       18.397       55.931      377.754       45.616      330.211       -2.551      856.164
01/24/2021  04:13:00      150.130      -20.097      -79.586      661.327       11.787      314.769   437353.276      138.945    99079.764       28.281       26.829      151.469      455.947        9.061      330.564       -1.967      856.153
01/24/2021  04:14:00      146.429        4.176      -76.184      617.878       14.615      294.626   381772.711      213.606    86804.453       24.793       23.440      146.489      426.297        8.469      330.625       -1.870      856.144
01/24/2021  04:15:00       84.652       -0.311      -58.349      570.257       17.980      272.954   325193.130      323.293    74503.625       20.521       20.001       84.653      393.862       21.647      330.408       -2.227      856.131
01/24/2021  04:16:00      106.921        2.503      -71.670      658.070       20.777      309.331   433056.328      431.695    95685.450       27.276       26.459      106.950      450.387       17.734      330.490       -2.090      856.110
01/24/2021  04:17:00       87.519       -3.559      -51.364      592.783       16.140      282.039   351391.939      260.490    79546.184       22.066       21.560       87.591      408.368       21.736      330.325       -2.362      856.083
01/24/2021  04:18:00       -0.744       11.117      -25.202      353.198       15.452      167.978   124748.963      238.774    28216.539        7.695        7.660       11.142      242.380      473.221      330.063       -2.799      856.063
01/24/2021  04:19:00       79.419        8.390      -70.608      613.423        9.148      292.472   376288.103       83.687    85539.749       23.654       23.096       79.861      423.333       28.099      330.400       -2.239      856.030
01/24/2021  04:20:00       98.957       15.021      -85.723      652.826       10.950      311.819   426181.672      119.911    97231.162       27.034       26.177      100.090      450.870       20.292      330.495       -2.081      856.000
01/24/2021  04:21:00       72.915        8.592      -66.230      647.173       12.953      307.423   418832.246      167.791    94509.065       26.154       25.675       73.419      445.432       36.808      330.362       -2.299      855.972
01/24/2021  04:22:00      120.140      -16.573      -57.732      608.836       14.690      291.610   370681.009      215.787    85036.568       23.689       22.797      121.278      421.131       12.058      330.549       -1.994      855.955
01/24/2021  04:23:00      117.994       -0.366      -56.587      541.973       11.307      259.335   293734.308      127.847    67254.472       18.904       18.056      117.995      374.662       10.082      330.368       -2.293      855.949
01/24/2021  04:24:00      155.695       -5.367      -75.044      633.315       13.241      302.784   401088.339      175.323    91678.006       26.131       24.647      155.788      437.728        7.895      330.541       -2.006      855.949
01/24/2021  04:25:00       74.427       10.859      -59.103      547.610        8.725      263.176   299876.360       76.124    69261.549       18.910       18.461       75.215      379.393       25.443      330.375       -2.284      855.948
01/24/2021  04:26:00       64.757       21.222      -52.147      534.642       10.322      254.415   285842.194      106.533    64727.101       17.894       17.534       68.146      368.574       29.253      330.337       -2.344      855.939
01/24/2021  04:27:00      104.257       22.921      -71.044      634.023       10.728      301.798   401984.617      115.079    91082.236       25.471       24.659      106.747      437.148       16.770      330.496       -2.081      855.928
01/24/2021  04:28:00      161.890       31.046      -77.671      625.885        8.815      299.614   391732.048       77.701    89768.431       25.729       24.079      164.840      432.840        6.895      330.729       -1.698      855.918
01/24/2021  04:29:00      157.312       23.886      -76.012      669.245        9.838      319.151   447888.962       96.778   101857.286       29.035       27.492      159.115      461.966        8.429      330.747       -1.668      855.917
01/24/2021  04:30:00      172.680       24.982      -80.177      648.268       11.968      308.676   420251.002      143.234    95281.024       27.616       25.784      174.478      446.980        6.563      330.801       -1.580      855.911
01/24/2021  04:31:00      196.829       26.534      -78.860      645.094        9.072      307.929   416146.739       82.295    94820.545       27.825       25.552      198.609      445.494        5.031      330.896       -1.423      855.898
01/24/2021  04:32:00      142.353       20.326      -56.997      568.253      123.318      276.193   322911.699    15207.235    76282.585       21.907       20.720      143.797      382.335        7.070      330.798       -1.588      855.882
01/24/2021  04:33:00      167.552       42.001      -75.520      641.105       22.307      305.204   411016.071      497.580    93149.277       26.999       25.233      172.736      442.085        6.550      330.899       -1.418      855.861
01/24/2021  04:34:00      245.009       54.639     -106.253      722.358       20.306      345.244   521801.728      412.323   119193.303       35.772       32.070      251.028      499.115        3.953      331.237       -0.860      855.843
01/24/2021  04:35:00      307.541       70.171     -144.574      873.593       27.882      416.053   763164.013      777.387   173099.774       52.853       46.852      315.445      602.556        3.649      331.451       -0.499      855.820
01/24/2021  04:36:00      228.298       41.569     -100.488      721.329       25.359      343.676   520315.266      643.065   118112.897       35.137       31.954      232.052      497.466        4.596      331.059       -1.151      855.805
01/24/2021  04:37:00      221.537       11.151     -113.003      753.584       28.225      358.787   567889.188      796.670   128727.889       37.954       34.871      221.818      519.699        5.489      330.880       -1.445      855.806
01/24/2021  04:38:00      148.808      -15.340      -82.708      594.168       23.917      282.104   353035.483      572.007    79582.769       23.111       21.660      149.596      408.968        7.474      330.413       -2.218      855.796
01/24/2021  04:39:00       78.615        1.015      -29.465      470.221       38.954      225.547   221108.045     1517.417    50871.400       14.021       13.675       78.622      325.283       17.117      330.070       -2.785      855.784
01/24/2021  04:40:00      173.625       -1.314      -81.295      677.002       11.979      323.763   458331.195      143.507   104822.501       29.991       28.165      173.630      467.868        7.261      330.376       -2.275      855.775
01/24/2021  04:41:00      123.205        3.600      -55.185      538.891        5.483      256.692   290403.672       30.067    65890.765       18.720       17.816      123.258      371.767        9.097      330.077       -2.772      855.759
01/24/2021  04:42:00      202.326        3.999      -91.347      679.281       13.400      323.567   461423.058      179.563   104695.623       30.767       28.315      202.365      468.696        5.364      330.381       -2.266      855.755
01/24/2021  04:43:00      153.031        0.562      -71.469      622.346        5.623      297.354   387314.334       31.622    88419.375       25.204       23.788      153.032      430.073        7.898      330.331       -2.351      855.745
01/24/2021  04:44:00      150.510       -2.521      -73.161      602.698        6.439      287.256   363244.452       41.458    82516.133       23.681       22.290      150.531      415.959        7.636      330.450       -2.157      855.736
01/24/2021  04:45:00      125.503        1.755      -58.906      562.364        2.067      268.198   316253.118        4.272    71930.029       20.362       19.409      125.515      388.251        9.568      330.339       -2.340      855.719
01/24/2021  04:46:00      164.510        3.356      -76.259      637.926        7.930      304.851   406949.573       62.884    92934.191       26.631       24.997      164.545      440.856        7.178      330.397       -2.243      855.693
01/24/2021  04:47:00      200.337       21.184      -91.214      701.538        5.512      334.410   492155.613       30.387   111829.809       32.633       30.201      201.454      484.224        5.778      330.389       -2.253      855.680
01/24/2021  04:48:00      131.330        7.935      -61.295      584.146      135.448      284.229   341226.297    18346.261    80786.092       23.062       22.018      131.569      391.816        8.869      330.211       -2.549      855.657
01/24/2021  04:49:00      128.489       15.862      -54.120      514.196       12.727      245.151   264397.864      161.974    60098.831       17.210       16.233      129.464      354.882        7.514      330.176       -2.611      855.628
01/24/2021  04:50:00      127.342        9.210      -58.800      569.068        7.117      270.458   323838.738       50.656    73147.488       20.831       19.852      127.674      392.109        9.432      330.263       -2.463      855.600
01/24/2021  04:51:00       53.303        2.674      -27.582      370.990        8.380      176.552   137633.543       70.220    31170.654        8.621        8.444       53.370      255.781       22.969      330.004       -2.898      855.571
01/24/2021  04:52:00      105.160        8.438      -49.838      538.614       13.602      256.713   290105.106      185.011    65901.730       18.483       17.810      105.498      371.606       12.407      330.215       -2.544      855.545
01/24/2021  04:53:00      108.460       21.559      -54.411      546.539        9.336      261.899   298704.975       87.163    68591.169       19.121       18.369      110.582      378.162       11.695      330.260       -2.471      855.529
01/24/2021  04:54:00      166.632        8.540      -74.503      655.383        8.761      312.696   429526.995       76.750    97778.975       28.027       26.369      166.851      452.575        7.357      330.371       -2.284      855.511
01/24/2021  04:55:00      149.286       21.359      -73.290      632.016        3.291      301.405   399444.431       10.828    90844.794       25.910       24.515      150.806      436.348        8.372      330.365       -2.296      855.497
01/24/2021  04:56:00       50.871       16.133      -24.787      358.051        7.460      170.106   128200.199       55.648    28936.008        8.029        7.860       53.368      246.656       21.361      330.029       -2.856      855.474
01/24/2021  04:57:00       65.964       19.337      -33.964      436.048        7.205      207.305   190137.960       51.907    42975.468       11.947       11.658       68.739      300.451       19.104      330.083       -2.764      855.449
01/24/2021  04:58:00       81.403       19.744      -47.766      489.662        8.038      233.568   239769.355       64.608    54554.234       15.178       14.719       83.763      337.937       16.277      330.202       -2.571      855.424
01/24/2021  04:59:00       29.254       -9.929      -26.229      357.138       13.899      170.668   127547.548      193.169    29127.530        7.922        7.843       30.893      246.348       63.589      330.014       -2.881      855.409
01/24/2021  05:00:00      110.765       -6.051      -69.208      628.872      101.591      303.138   395480.562    10320.678    91892.583       25.729       24.885      110.930      428.422       14.916      330.340       -2.336      855.395
01/24/2021  05:01:00      107.330        8.670      -62.671      606.041        7.996      289.435   367286.090       63.942    83772.725       23.323       22.556      107.680      418.471       15.103      330.277       -2.440      855.378
01/24/2021  05:02:00      101.367       14.450      -57.898      564.741       10.104      270.154   318932.351      102.097    72983.315       20.284       19.601      102.391      390.428       14.540      330.188       -2.589      855.362
01/24/2021  05:03:00       84.377       10.203      -49.575      465.520        4.897      222.776   216708.409       23.984    49629.076       13.796       13.318       84.992      321.925       14.347      330.118       -2.708      855.353
01/24/2021  05:04:00      138.523       16.968      -81.050      638.372        5.877      304.036   407518.835       34.544    92437.838       26.291       25.000      139.559      440.393        9.958      330.366       -2.294      855.340
01/24/2021  05:05:00       50.376       10.120      -38.514      469.390       11.025      224.108   220326.681      121.552    50224.313       13.734       13.534       51.382      324.081       39.781      329.977       -2.937      855.332
01/24/2021  05:06:00       87.460        4.165      -58.405      544.422       10.833      260.275   296394.932      117.349    67743.068       18.759       18.213       87.559      375.945       18.435      329.987       -2.919      855.336
01/24/2021  05:07:00       99.432        5.653      -76.606      626.758       20.455      298.661   392825.688      418.422    89198.511       24.901       24.122       99.593      431.638       18.784      330.063       -2.791      855.335
01/24/2021  05:08:00       50.343       -9.555      -64.466      548.658       30.265      262.164   301025.594      915.981    68730.084       18.865       18.534       51.242      377.786       54.355      329.920       -3.028      855.338
01/24/2021  05:09:00       51.012        7.618      -67.843      629.231       42.276      293.099   395931.901     1787.301    85907.202       24.534       24.181       51.578      426.586       68.405      329.947       -2.982      855.338
01/24/2021  05:10:00      -53.010       33.105      -39.193      434.737       33.117      207.524   188995.914     1096.745    43066.372       11.925       11.658       62.498      297.461       22.653      329.550       -3.637      855.335
01/24/2021  05:11:00       46.293       19.975      -57.912      597.727       44.583      283.922   357277.560     1987.674    80611.712       22.279       21.994       50.419      408.830       65.751      329.694       -3.396      855.328
01/24/2021  05:12:00      -43.728       30.999      -21.179      394.339       36.333      189.469   155503.616     1320.056    35898.455        9.798        9.636       53.601      270.589       25.484      329.314       -4.025      855.327
01/24/2021  05:13:00       64.173       19.740      -66.698      657.324       31.595      314.104   432075.100      998.264    98661.365       27.023       26.587       67.141      452.684       45.459      329.726       -3.341      855.324
01/24/2021  05:14:00       40.276        1.197      -66.114      610.301       32.056      293.081   372467.505     1027.561    85896.233       23.259       22.970       40.293      421.342      109.346      329.716       -3.359      855.322
01/24/2021  05:15:00       67.971        7.378     -105.407      762.662      138.612      368.771   581653.190    19213.333   135991.846       37.616       36.843       68.371      518.659       57.548      330.052       -2.801      855.328
01/24/2021  05:16:00       10.971       33.919      -67.728      593.322       25.290      283.358   352031.247      639.577    80291.964       21.932       21.648       35.649      409.149      131.723      329.643       -3.479      855.329
01/24/2021  05:17:00        2.832        8.419      -48.134      539.670       32.412      257.263   291244.188     1050.565    66184.414       18.036       17.924        8.883      370.872     1743.205      329.564       -3.611      855.323
01/24/2021  05:18:00       33.641       29.141      -64.143      624.953       41.847      300.925   390566.738     1751.200    90556.035       24.438       24.144       44.508      430.756       93.669      329.712       -3.366      855.320
01/24/2021  05:19:00      -20.969       31.073      -56.339      559.312       29.867      269.337   312830.153      892.044    72542.518       19.534       19.313       37.487      385.866      105.955      329.553       -3.627      855.322
01/24/2021  05:20:00      121.682       28.749     -104.668      789.007       36.244      375.020   622532.397     1313.653   140640.129       39.537       38.224      125.032      542.293       18.812      329.922       -3.013      855.328
01/24/2021  05:21:00       58.018       19.343      -77.514      667.297       34.066      320.648   445285.469     1160.505   102814.914       27.939       27.463       61.158      460.785       56.767      329.713       -3.362      855.329
01/24/2021  05:22:00       67.881       23.447      -68.946      631.446       23.596      302.961   398724.047      556.771    91785.258       25.038       24.553       71.816      435.670       36.802      329.634       -3.494      855.321
01/24/2021  05:23:00       10.206        0.325      -51.463      543.327       24.482      259.819   295204.317      599.393    67506.013       18.295       18.165       10.211      374.469     1344.837      329.550       -3.632      855.306
01/24/2021  05:24:00       35.461        5.295      -62.022      571.107       20.631      273.202   326163.105      425.641    74639.155       20.310       20.061       35.854      393.705      120.574      329.683       -3.415      855.300
01/24/2021  05:25:00       24.950       30.083      -69.126      591.401       26.129      284.217   349754.741      682.750    80779.548       21.867       21.561       39.083      409.044      109.539      329.660       -3.452      855.293
01/24/2021  05:26:00       40.389       17.465      -62.166      603.312       33.571      282.602   363985.882     1127.028    79863.790       22.529       22.249       44.004      411.087       87.275      329.586       -3.571      855.293
01/24/2021  05:27:00       57.578       34.425      -70.137      685.294       29.937      324.788   469627.980      896.222   105487.530       29.259       28.801       67.084      469.900       49.065      329.784       -3.245      855.290
01/24/2021  05:28:00       81.692       20.921     -109.828      737.622       33.077      352.340   544086.565     1094.061   124143.603       34.410       33.466       84.328      508.878       36.415      329.936       -2.993      855.291
01/24/2021  05:29:00       87.974       47.312     -116.739      767.834       34.401      366.569   589569.294     1183.423   134372.631       37.421       36.256       99.889      529.578       28.108      330.051       -2.803      855.287
01/24/2021  05:30:00       21.188       36.148      -65.374      586.791       33.783      278.367   344323.579     1141.294    77488.405       21.440       21.148       41.900      402.020       92.058      329.752       -3.303      855.298
01/24/2021  05:31:00      139.806       22.226     -112.430      759.126       51.588      363.314   576272.110     2661.300   131997.281       37.166       35.547      141.561      523.374       13.669      330.133       -2.670      855.310
01/24/2021  05:32:00      150.421       -9.268     -144.794      815.380       39.392      385.524   664845.353     1551.759   148628.616       42.918       40.751      150.707      559.301       13.773      330.294       -2.401      855.311
01/24/2021  05:33:00       55.015        5.051      -84.320      606.172      124.602      294.183   367444.764    15525.689    86543.708       23.974       23.476       55.247      406.216       54.063      329.817       -3.192      855.317
01/24/2021  05:34:00       22.370       -7.267     -101.559      615.518      208.236      369.844   378861.807    43362.305   136784.850       28.482       27.950       23.520      455.695      375.366      329.925       -3.010      855.307
01/24/2021  05:35:00       63.726       21.631      -94.896      706.155       45.590      336.925   498654.520     2078.416   113518.604       31.376       30.713       67.297      486.057       52.165      329.898       -3.057      855.296
01/24/2021  05:36:00       90.375       13.667     -109.713      703.402       41.559      336.200   494774.552     1727.113   113030.454       31.483       30.477       91.403      484.820       28.135      329.910       -3.037      855.283
01/24/2021  05:37:00       98.705       -9.945      -81.731      629.719      100.362      301.773   396546.363    10072.560    91067.193       25.700       24.884       99.205      426.870       18.515      329.790       -3.238      855.280
01/24/2021  05:38:00       92.189       -6.626      -62.546      590.477       31.730      281.905   348663.466     1006.779    79470.687       22.071       21.457       92.427      406.906       19.382      329.721       -3.351      855.274
01/24/2021  05:39:00      127.551        6.460      -93.265      713.815       22.337      342.369   509531.761      498.931   117216.750       32.599       31.362      127.715      492.363       14.862      329.913       -3.031      855.269
01/24/2021  05:40:00      150.503       25.085      -87.827      716.422      227.565      334.380   513260.826    51785.949   111810.137       35.378       33.843      152.579      451.963        8.774      330.035       -2.830      855.265
01/24/2021  05:41:00       47.244        6.445      -55.623      578.462       75.256      275.274   334618.645     5663.475    75775.666       21.062       20.803       47.682      392.782       67.858      329.750       -3.305      855.246
01/24/2021  05:42:00       34.230       25.868      -76.268      596.074       28.253      284.197   355303.701      798.209    80768.145       22.217       21.844       42.905      410.160       91.389      329.767       -3.277      855.235
01/24/2021  05:43:00       75.265       16.588      -92.377      676.876       25.394      323.455   458161.449      644.855   104623.375       28.883       28.171       77.071      465.820       36.530      329.958       -2.960      855.237
01/24/2021  05:44:00       99.349        8.356     -106.870      722.218       27.099      342.522   521598.515      734.380   117321.496       33.037       31.983       99.700      495.751       24.725      330.044       -2.816      855.226
01/24/2021  05:45:00      101.786       -1.003      -84.973      685.308       35.797      326.883   469646.906     1281.433   106852.684       29.756       28.889      101.791      470.800       21.392      329.852       -3.132      855.238
01/24/2021  05:46:00       47.271        8.953      -74.952      608.968       22.210      286.246   370841.618      493.294    81936.680       23.050       22.664       48.111      416.412       74.912      329.723       -3.349      855.252
01/24/2021  05:47:00       88.058        1.433      -85.715      647.817       24.224      305.577   419666.620      586.786    93377.085       26.426       25.682       88.070      443.419       25.350      329.834       -3.163      855.249
01/24/2021  05:48:00       70.483        6.747      -80.270      638.936       21.371      304.721   408238.712      456.707    92854.752       25.640       25.078       70.805      440.331       38.675      329.772       -3.268      855.257
01/24/2021  05:49:00      166.275        4.620     -127.548      799.503       30.501      381.336   639205.422      930.331   145416.788       41.457       39.278      166.340      550.785       10.964      330.200       -2.557      855.274
01/24/2021  05:50:00      114.764       32.503     -110.209      717.492       27.693      339.467   514794.332      766.889   115237.644       32.845       31.540      119.278      492.868       17.074      330.042       -2.822      855.281
01/24/2021  05:51:00      110.822       17.566     -123.164      724.036       22.990      345.344   524227.446      528.522   119262.462       33.575       32.201      112.206      499.114       19.786      330.048       -2.810      855.289
01/24/2021  05:52:00      -11.605       23.879      -65.035      525.431       21.294      250.146   276077.799      453.419    62573.138       17.195       16.955       26.549      361.071      184.958      329.642       -3.484      855.293
01/24/2021  05:53:00      127.782       17.027     -109.032      749.636       30.446      354.098   561954.439      926.948   125385.392       35.824       34.413      128.912      512.953       15.833      330.018       -2.858      855.287
01/24/2021  05:54:00      172.468       27.678     -144.274      833.375       21.836      399.715   694514.337      476.807   159771.869       45.287       42.738      174.675      576.338       10.887      330.266       -2.447      855.276
01/24/2021  05:55:00      185.710       25.097     -131.629      827.426       29.892      396.542   684633.106      893.514   157245.349       44.743       42.139      187.398      571.550        9.302      330.229       -2.508      855.262
01/24/2021  05:56:00      210.247       14.826     -148.156      866.110       35.918      414.534   750146.974     1290.095   171838.519       49.463       46.164      210.769      598.101        8.053      330.377       -2.263      855.251
01/24/2021  05:57:00      192.103       10.152     -118.041      796.152       31.828      377.581   633858.112     1012.992   142567.568       41.402       38.872      192.371      546.771        8.078      330.097       -2.726      855.246
01/24/2021  05:58:00      185.018      -23.075     -106.911      730.247      190.252      358.470   533261.385    36195.931   128500.859       37.193       34.898      186.452      486.610        6.811      329.962       -2.951      855.251
01/24/2021  05:59:00      109.913      -12.839      -66.987      612.441       40.457      287.775   375083.500     1636.765    82814.501       23.804       22.977      110.660      418.262       14.286      329.687       -3.408      855.258
01/24/2021  06:00:00      230.584      -20.515     -137.558      839.118       38.329      397.371   704119.016     1469.088   157903.359       46.781       43.175      231.495      574.901        6.167      330.146       -2.643      855.267
01/24/2021  06:01:00       15.257       42.529      -70.954      633.937       23.885      302.422   401876.431      570.515    91458.857       25.038       24.695       45.183      436.858       93.482      329.619       -3.516      855.273
01/24/2021  06:02:00       66.831      -13.205      -72.969      630.271       33.919      303.943   397241.267     1150.519    92381.075       25.027       24.539       68.123      436.390       41.036      329.672       -3.430      855.279
01/24/2021  06:03:00      109.422       14.073      -82.281      681.053      104.130      325.984   463832.969    10842.962   106265.374       29.982       29.047      110.323      461.587       17.505      329.771       -3.266      855.269
01/24/2021  06:04:00      172.314       12.114     -128.456      796.770       21.713      379.548   634843.061      471.441   144056.820       41.269       38.969      172.739      548.680       10.089      330.129       -2.675      855.265
01/24/2021  06:05:00       91.206       -0.691      -63.026      594.750       19.794      282.370   353728.096      391.803    79733.085       22.298       21.693       91.208      408.701       20.079      329.731       -3.336      855.259
01/24/2021  06:06:00      212.658       -4.756     -100.099      765.888       19.566      364.442   586585.015      382.827   132818.233       38.737       35.989      212.712      527.509        6.150      330.087       -2.744      855.261
01/24/2021  06:07:00       12.114        3.019      -45.479      525.276       60.061      251.219   275915.178     3607.327    63110.769       17.236       17.132       12.484      358.613      825.156      329.556       -3.624      855.267
01/24/2021  06:08:00       96.300       -6.733      -66.537      637.426       29.489      303.671   406312.181      869.606    92216.359       25.646       24.970       96.535      438.941       20.675      329.710       -3.367      855.280
01/24/2021  06:09:00       77.101        4.884      -62.617      599.868       29.202      288.068   359841.521      852.784    82983.291       22.669       22.184       77.256      413.426       28.637      329.607       -3.538      855.294
01/24/2021  06:10:00       46.450        6.182      -79.901      653.388       32.247      310.591   426916.481     1039.858    96466.978       26.639       26.221       46.859      448.096       91.443      329.646       -3.473      855.309
01/24/2021  06:11:00       79.852        0.325      -72.560      669.932       36.001      323.130   448808.648     1296.067   104413.012       28.296       27.726       79.853      462.939       33.610      329.735       -3.326      855.324
01/24/2021  06:12:00      -37.632        1.449      -21.678      360.946       91.978      171.820   130282.274     8459.972    29522.018        8.504        8.413       37.660      233.988       38.603      329.320       -4.016      855.323
01/24/2021  06:13:00       26.084        2.730      -66.971      621.697       38.663      291.437   386506.962     1494.827    84935.532       23.895       23.647       26.227      423.072      260.222      329.547       -3.636      855.313
01/24/2021  06:14:00      110.624       19.792      -85.743      718.577       36.654      339.203   516352.197     1343.541   115058.455       32.623       31.638      112.381      492.150       19.178      329.673       -3.426      855.305
01/24/2021  06:15:00       12.788       -5.929      -65.394      597.087       36.484      284.144   356512.634     1331.105    80737.734       22.143       21.929       14.096      409.975      845.879      329.551       -3.632      855.291
01/24/2021  06:16:00       10.426        0.059      -65.693      591.705       32.585      280.402   350115.351     1061.807    78625.460       21.702       21.490       10.427      405.751     1514.373      329.578       -3.586      855.271
01/24/2021  06:17:00       47.929       36.288      -94.337      708.501       24.244      336.122   501973.802      587.750   112977.717       31.390       30.777       60.117      486.996       65.623      329.772       -3.263      855.257
01/24/2021  06:18:00       61.954      -23.900      -67.696      605.734       36.075      287.534   366913.900     1301.378    82676.027       22.984       22.545       66.404      415.160       39.088      329.644       -3.477      855.239
01/24/2021  06:19:00      139.294      -23.487     -101.663      780.245      115.399      369.210   608782.649    13316.912   136315.967       39.419       37.921      141.261      527.677       13.954      329.981       -2.917      855.224
01/24/2021  06:20:00      126.903        8.151      -75.685      680.874       34.349      324.364   463589.080     1179.823   105211.836       29.582       28.499      127.164      467.444       13.512      329.766       -3.274      855.213
01/24/2021  06:21:00        9.593      -35.870      -51.555      545.910       28.916      253.811   298017.763      836.145    64420.069       18.358       18.164       37.131      369.377       98.964      329.495       -3.723      855.196
01/24/2021  06:22:00       99.375      -11.286      -87.947      700.127       25.323      334.046   490177.913      641.275   111586.760       30.994       30.120      100.014      482.158       23.241      329.763       -3.279      855.191
01/24/2021  06:23:00      -11.741        1.984      -41.005      491.590       27.683      234.191   241661.196      766.349    54845.652       14.948       14.864       11.907      337.337      802.596      329.401       -3.881      855.196
01/24/2021  06:24:00      186.510      -19.498     -118.053      824.529       25.536      392.797   679847.618      652.086   154289.480       44.177       41.739      187.527      567.682        9.164      329.989       -2.901      855.209
01/24/2021  06:25:00      111.324        2.618     -108.273      790.288       20.892      376.826   624555.298      436.493   141998.177       39.539       38.349      111.355      545.143       23.966      329.959       -2.954      855.220
01/24/2021  06:26:00        9.897       26.801      -68.196      614.286       35.732      292.816   377347.622     1276.749    85741.027       23.482       23.218       28.570      423.498      219.730      329.590       -3.566      855.221
01/24/2021  06:27:00      160.083        7.276     -126.951      845.388       25.642      402.228   714680.069      657.495   161787.306       45.927       43.856      160.249      582.021       13.191      330.087       -2.740      855.213
01/24/2021  06:28:00        4.561        6.410      -62.509      579.540      105.583      280.453   335866.570    11147.726    78653.824       21.473       21.283        7.867      392.697     2491.588      329.628       -3.503      855.199
01/24/2021  06:29:00       86.056       12.633      -89.222      692.378       26.531      332.525   479387.448      703.914   110572.826       30.297       29.533       86.978      479.237       30.358      329.788       -3.237      855.189
01/24/2021  06:30:00       96.359       10.695     -103.370      722.737      127.176      348.814   522348.664    16173.679   121671.339       34.000       33.010       96.951      490.472       25.593      329.856       -3.124      855.177
01/24/2021  06:31:00      172.971       18.918     -117.508      788.331       13.012      375.818   621466.139      169.303   141239.428       40.332       38.144      174.003      544.048        9.776      330.038       -2.823      855.167
01/24/2021  06:32:00       33.362        8.717      -39.434      480.586       13.267      228.447   230962.562      176.013    52188.179       14.297       14.166       34.482      331.077       92.185      329.452       -3.795      855.153
01/24/2021  06:33:00      133.950      -15.201      -74.978      668.438       10.441      319.585   446809.189      109.019   102134.837       28.631       27.453      134.809      461.916       11.740      329.915       -3.031      855.135
01/24/2021  06:34:00      120.653      -43.117      -51.057      578.461       20.166      276.553   334617.457      406.686    76481.413       21.518       20.575      128.126      399.549        9.725      329.816       -3.198      855.128
01/24/2021  06:35:00      131.824        6.949      -79.506      713.287      160.154      344.987   508778.788    25649.419   119015.859       33.845       32.672      132.007      477.744       13.098      330.017       -2.862      855.109
01/24/2021  06:36:00      130.362        0.554      -84.230      652.800       11.589      312.717   426147.759      134.316    97791.923       27.397       26.204      130.363      451.615       12.001      329.871       -3.103      855.099
01/24/2021  06:37:00      148.442        0.232      -74.378      648.310        9.500      310.577   420306.139       90.254    96458.277       27.210       25.843      148.442      448.487        9.128      329.732       -3.333      855.090
01/24/2021  06:38:00      179.749        3.029      -85.077      674.644        7.773      322.503   455143.947       60.427   104008.303       29.927       27.961      179.775      466.142        6.723      329.772       -3.265      855.087
01/24/2021  06:39:00      185.228       17.222      -98.135      750.009       85.685      360.385   562513.215     7341.838   129877.356       37.184       34.987      186.027      514.678        7.655      329.769       -3.265      855.077
01/24/2021  06:40:00      250.942       -6.266     -114.633      789.826       16.576      375.562   623824.858      274.748   141046.759       42.048       38.257      251.021      544.398        4.703      329.922       -3.013      855.080
01/24/2021  06:41:00      331.768        2.607     -150.146      882.418       26.187      418.702   778662.159      685.774   175311.508       54.344       47.733      331.778      607.386        3.351      330.097       -2.721      855.081
01/24/2021  06:42:00      200.303       36.576      -83.376      683.843       17.585      326.483   467640.771      309.219   106591.327       31.135       28.727      203.615      472.192        5.378      329.545       -3.636      855.074
01/24/2021  06:43:00      171.829       29.726      -85.456      671.547      168.611      327.778   450974.721    28429.623   107438.442       31.215       29.342      174.381      447.967        6.599      329.531       -3.658      855.075
01/24/2021  06:44:00      235.291       35.765     -129.913      842.959       10.848      400.152   710580.303      117.674   160121.398       47.198       43.541      237.994      580.495        5.949      329.803       -3.205      855.076
01/24/2021  06:45:00      124.284       42.114      -66.774      644.610      136.331      314.135   415522.687    18586.062    98680.752       27.712       26.639      131.225      435.158       10.997      329.443       -3.805      855.078
01/24/2021  06:46:00       98.978       12.876      -90.968      678.475       16.762      324.697   460328.555      280.969   105427.960       29.202       28.302       99.812      468.706       22.051      329.478       -3.747      855.067
01/24/2021  06:47:00      112.347       10.086      -92.551      688.857       28.446      328.730   474524.034      809.163   108063.329       30.222       29.170      112.799      475.446       17.766      329.501       -3.707      855.065
01/24/2021  06:48:00       87.278       -0.227      -67.507      595.699       84.483      285.450   354857.487     7137.357    81481.623       22.773       22.174       87.278      405.941       21.633      329.412       -3.856      855.061
01/24/2021  06:49:00      137.828       20.636      -92.919      703.115      105.731      336.563   494370.835    11179.108   113274.510       32.331       30.941      139.364      477.242       11.727      329.637       -3.483      855.069
01/24/2021  06:50:00      126.404       35.132     -108.015      756.549      163.666      368.384   572366.347    26786.436   135706.428       38.171       36.743      131.196      509.615       15.088      329.650       -3.461      855.079
01/24/2021  06:51:00       48.931       45.250      -59.531      552.336       14.995      264.300   305074.870      224.837    69854.387       19.149       18.758       66.647      381.629       32.789      329.186       -4.227      855.096
01/24/2021  06:52:00      171.434        5.005     -100.071      749.365      113.156      362.066   561548.408    12804.343   131091.891       37.229       35.272      171.507      512.166        8.918      329.658       -3.446      855.100
01/24/2021  06:53:00      160.805       32.666      -81.320      626.391      126.378      303.269   392365.319    15971.442    91971.814       26.682       25.015      164.089      423.423        6.659      329.572       -3.595      855.100
01/24/2021  06:54:00      241.352       31.529      -99.681      719.404      142.534      349.480   517541.957    20315.945   122136.161       36.445       33.000      243.403      486.869        4.001      329.788       -3.235      855.082
01/24/2021  06:55:00      143.328       -0.982      -64.411      617.525       22.817      295.604   381337.009      520.606    87381.585       24.687       23.462      143.331      426.908        8.871      329.401       -3.873      855.068
01/24/2021  06:56:00      170.810        5.368      -83.112      662.891       75.466      317.542   439424.835     5695.061   100832.766       29.092       27.298      170.895      454.630        7.077      329.438       -3.811      855.059
01/24/2021  06:57:00      257.686      -17.805     -133.784      821.347       14.412      391.199   674610.108      207.717   153036.582       45.605       41.393      258.301      566.470        4.810      330.033       -2.830      855.061
01/24/2021  06:58:00      173.257      -17.632      -86.163      647.868       19.652      307.819   419733.546      386.198    94752.795       27.620       25.744      174.152      446.346        6.569      329.644       -3.475      855.074
01/24/2021  06:59:00      227.197        9.034     -127.469      843.973      171.255      381.294   712290.416    29328.106   145384.860       47.729       44.350      227.376      551.675        5.887      329.919       -3.014      855.082
01/24/2021  07:00:00      181.539       29.724     -122.775      843.832       12.633      401.412   712052.436      159.590   161131.745       46.094       43.667      183.957      581.679        9.999      329.748       -3.296      855.087
01/24/2021  07:01:00       74.790       32.153     -101.787      663.392       20.528      315.538   440089.186      421.418    99564.315       27.842       27.004       81.408      457.167       31.536      329.473       -3.756      855.085
01/24/2021  07:02:00       36.892       17.954      -82.336      620.642       84.192      296.026   385196.848     7088.306    87631.443       24.409       23.996       41.029      422.522      106.053      329.336       -3.981      855.076
01/24/2021  07:03:00       84.456       30.365      -99.403      697.927       96.919      354.664   487102.149     9393.251   125786.240       31.997       31.114       89.749      491.359       29.974      329.381       -3.899      855.061
01/24/2021  07:04:00      161.056       36.562      -97.634      735.751      115.696      351.781   541329.823    13385.661   123749.802       35.749       33.923      165.154      499.225        9.137      329.338       -3.972      855.038
01/24/2021  07:05:00      180.273       21.353     -115.954      836.558       62.473      400.032   699828.615     3902.828   160025.859       45.489       43.188      181.533      575.948       10.066      329.675       -3.415      855.020
01/24/2021  07:06:00      139.193       11.999     -104.105      761.813       14.471      364.384   580358.810      209.418   132775.495       37.170       35.667      139.710      526.262       14.189      329.539       -3.642      855.011
01/24/2021  07:07:00      148.389       11.367     -112.789      805.623       22.121      382.552   649028.648      489.345   146345.752       41.520       39.793      148.824      554.464       13.880      329.588       -3.559      855.012
01/24/2021  07:08:00       89.699        7.848      -86.155      655.336      113.177      313.863   429465.808    12808.968    98510.186       27.804       27.039       90.042      443.043       24.210      329.378       -3.909      855.003
01/24/2021  07:09:00      124.059       14.749      -96.851      742.368       15.909      353.793   551110.656      253.092   125169.687       35.062       33.827      124.932      511.982       16.794      329.384       -3.897      854.993
01/24/2021  07:10:00      100.085       25.452     -105.607      759.612      132.985      366.427   577010.051    17684.896   134268.633       37.523       36.448      103.270      515.376       24.906      329.380       -3.901      854.990
01/24/2021  07:11:00      204.128       -5.265     -122.586      834.425       26.792      393.901   696265.636      717.803   155157.852       45.425       42.607      204.196      572.003        7.847      329.635       -3.480      855.012
01/24/2021  07:12:00      176.578       -9.040      -93.342      712.326       23.306      342.026   507408.621      543.175   116981.638       33.232       31.247      176.809      492.771        7.767      329.441       -3.805      855.026
01/24/2021  07:13:00      172.756        1.166      -93.097      786.285      169.794      382.537   618243.363    28830.062   146334.403       41.579       39.670      172.759      528.974        9.375      329.571       -3.587      855.022
01/24/2021  07:14:00      199.172       24.830     -119.285      805.523       21.064      385.924   648867.229      443.713   148937.219       42.621       39.912      200.713      557.019        7.702      329.535       -3.646      855.014
01/24/2021  07:15:00       99.915       14.429      -91.132      691.418       20.118      325.879   478058.672      404.727   106197.229       30.145       29.233      100.951      473.713       22.020      329.333       -3.982      855.004
01/24/2021  07:16:00      119.507       21.274     -101.016      698.455       15.167      331.634   487839.392      230.031   109981.352       31.137       29.903      121.386      480.940       15.698      329.452       -3.788      855.000
01/24/2021  07:17:00       46.847       29.172      -51.759      505.998       11.145      242.309   256034.267      124.218    58713.530       16.023       15.744       55.187      349.872       40.192      329.195       -4.215      854.993
01/24/2021  07:18:00      166.041       11.313      -89.156      723.538      136.987      351.672   523507.049    18765.421   123673.467       35.065       33.297      166.426      491.587        8.725      329.672       -3.424      854.987
01/24/2021  07:19:00      203.635       26.718     -112.244      776.261      110.347      371.628   602581.028    12176.532   138107.392       40.366       37.643      205.380      529.099        6.637      329.822       -3.178      854.979
01/24/2021  07:20:00      199.977        2.896     -132.221      874.972      173.029      422.716   765576.671    29938.925   178689.063       51.563       48.710      199.998      589.889        8.699      329.895       -3.052      854.971
01/24/2021  07:21:00      117.022       16.979      -95.626      749.638       83.944      358.666   561956.739     7046.515   128641.479       36.024       34.882      118.247      513.630       18.868      329.439       -3.807      854.968
01/24/2021  07:22:00      155.785        5.293     -105.957      720.570       75.200      346.277   519220.978     5655.046   119908.049       34.002       32.239      155.875      495.264       10.095      329.436       -3.812      854.960
01/24/2021  07:23:00      189.369       -7.194      -95.619      714.510       22.483      340.482   510523.979      505.464   115927.806       33.587       31.348      189.505      492.634        6.758      329.517       -3.680      854.954
01/24/2021  07:24:00      263.427      -14.247     -121.430      833.742       98.005      399.723   695126.499     9605.066   159778.292       47.424       43.225      263.812      571.199        4.688      329.929       -2.998      854.947
01/24/2021  07:25:00      181.001       18.603     -125.372      812.584      111.678      389.306   660293.068    12471.943   151558.906       43.640       41.216      181.955      554.449        9.285      329.909       -3.032      854.941
01/24/2021  07:26:00       67.920       18.537      -64.221      591.809       90.515      285.764   350237.787     8192.945    81660.952       22.449       22.005       70.404      403.786       32.893      329.480       -3.744      854.931
01/24/2021  07:27:00       79.088       -1.896      -65.144      566.111      225.289      288.027   320481.938    50755.259    82959.739       23.225       22.710       79.111      355.872       20.235      329.495       -3.721      854.931
01/24/2021  07:28:00      117.262        3.504      -72.933      663.331       15.110      317.750   440007.747      228.319   100964.837       28.003       27.060      117.315      458.186       15.254      329.581       -3.579      854.923
01/24/2021  07:29:00       84.688       10.039      -65.182      587.725       18.402      282.222   345420.652      338.625    79649.310       21.837       21.270       85.281      406.724       22.746      329.363       -3.938      854.912
01/24/2021  07:30:00      206.824       -2.001     -111.499      768.536       88.512      366.233   590647.648     7834.323   134126.881       39.375       36.630      206.834      525.168        6.447      329.801       -3.213      854.898
01/24/2021  07:31:00      173.253       18.885      -94.238      722.461      143.763      353.269   521949.981    20667.805   124798.675       35.319       33.371      174.279      490.229        7.912      329.661       -3.444      854.887
01/24/2021  07:32:00      200.920       12.945     -141.623      871.716       19.596      416.984   759888.799      384.011   173876.039       49.717       46.707      201.336      602.585        8.958      329.751       -3.288      854.886
01/24/2021  07:33:00      120.118       14.141      -82.572      650.307       28.399      309.384   422899.794      806.489    95718.638       27.033       25.971      120.947      447.291       13.677      329.325       -3.997      854.893
01/24/2021  07:34:00      229.534       16.700     -103.779      755.715       17.871      360.924   571105.746      319.358   130266.179       38.256       35.085      230.141      521.860        5.142      329.531       -3.656      854.897
01/24/2021  07:35:00      249.173        6.190     -135.842      863.780       24.925      410.804   746116.428      621.249   168759.998       49.784       45.775      249.250      593.988        5.679      329.733       -3.318      854.912
01/24/2021  07:36:00      108.585        6.451     -101.340      705.512       32.079      335.317   497747.090     1029.045   112437.500       31.653       30.561      108.777      484.901       19.872      329.350       -3.952      854.910
01/24/2021  07:37:00       17.433       18.700      -76.357      611.321       24.902      290.740   373713.229      620.123    84529.910       23.258       22.943       25.566      420.746      270.839      329.134       -4.311      854.901
01/24/2021  07:38:00       59.543       -2.252      -59.836      582.453       36.782      279.411   339251.779     1352.907    78070.713       21.281       20.934       59.585      401.050       45.302      329.246       -4.128      854.889
01/24/2021  07:39:00      124.153       -8.711      -23.346      540.320       31.694      261.949   291945.766     1004.500    68617.291       18.872       18.078      124.458      375.618        9.108      329.238       -4.144      854.882
01/24/2021  07:40:00      135.049      -21.270      -96.440      648.726       41.640      308.013   420844.832     1733.918    94872.236       27.261       25.873      136.713      445.903       10.638      329.418       -3.845      854.879
01/24/2021  07:41:00       90.417      -19.276      -66.512      617.677       32.880      292.100   381524.510     1081.083    85322.646       24.035       23.396       92.449      423.399       20.975      329.307       -4.029      854.879
01/24/2021  07:42:00       58.371      -12.820      -50.266      477.641      167.997      238.821   228140.790    28223.083    57035.582       15.968       15.670       59.762      308.973       26.730      329.165       -4.265      854.878
01/24/2021  07:43:00      161.591       11.734      -77.670      630.525       31.040      301.727   397562.319      963.472    91039.053       26.082       24.478      162.016      435.358        7.221      329.331       -3.989      854.881
01/24/2021  07:44:00      248.753        5.300     -163.850      923.302       22.577      438.487   852486.950      509.719   192270.999       56.679       52.263      248.809      634.326        6.500      329.866       -3.097      854.876
01/24/2021  07:45:00      138.910       30.926      -99.691      746.221       25.664      356.261   556845.904      658.615   126922.166       35.716       34.221      142.311      515.048       13.098      329.332       -3.981      854.854
01/24/2021  07:46:00       38.948       14.565      -62.716      566.382      122.563      305.261   320788.750    15021.612    93184.450       21.724       21.450       41.582      405.603       95.145      329.143       -4.296      854.842
01/24/2021  07:47:00       68.841       42.177      -81.952      660.107       22.391      315.614   435741.731      501.363    99612.154       27.443       26.793       80.734      455.871       31.884      329.292       -4.050      854.824
01/24/2021  07:48:00       10.529       37.706      -50.738      514.884       26.422      244.174   265105.958      698.131    59620.709       16.470       16.271       39.148      353.432       81.505      329.055       -4.442      854.815
01/24/2021  07:49:00        0.385       25.674      -27.067      443.747       27.698      208.458   196911.011      767.161    43454.903       12.121       12.057       25.677      302.438      138.737      328.918       -4.671      854.802
01/24/2021  07:50:00        3.087       11.759      -54.806      520.275       21.550      248.342   270685.914      464.381    61673.761       16.792       16.641       12.157      357.933      866.853      329.142       -4.300      854.802
01/24/2021  07:51:00       47.124       14.314      -72.350      659.672       27.010      314.331   435166.988      729.533    98804.023       27.107       26.735       49.250      453.459       84.774      329.418       -3.843      854.813
01/24/2021  07:52:00       28.583       14.039      -68.716      619.907       24.415      294.906   384284.304      596.101    86969.584       23.869       23.592       31.844      426.268      179.184      329.350       -3.957      854.830
01/24/2021  07:53:00       58.101       10.421      -58.625      551.538       26.729      266.585   304194.530      714.419    71067.341       19.137       18.799       59.029      382.368       41.960      329.351       -3.959      854.825
01/24/2021  07:54:00      235.292       -1.455     -125.328      868.518       25.869      414.852   754323.424      669.182   172102.100       49.889       46.355      235.296      599.492        6.491      330.000       -2.881      854.818
01/24/2021  07:55:00      161.430       -9.145      -85.621      703.150       33.749      331.062   494419.876     1138.996   109602.336       31.919       30.258      161.688      481.203        8.857      329.923       -3.017      854.800
01/24/2021  07:56:00      306.497      -14.435     -164.629      921.624       25.710      440.442   849390.431      660.992   193988.936       58.242       52.202      306.837      636.575        4.304      330.413       -2.201      854.788
01/24/2021  07:57:00      268.497        9.488     -117.987      860.333       45.254      414.891   740172.729     2047.961   172134.379       50.004       45.718      268.664      596.229        4.925      330.324       -2.350      854.780
01/24/2021  07:58:00      121.307       15.825      -58.985      606.409       38.534      292.454   367732.149     1484.859    85529.279       23.650       22.737      122.335      419.628       11.766      329.878       -3.095      854.778
01/24/2021  07:59:00      160.100       17.176      -69.723      688.554       47.326      324.220   474106.750     2239.704   105118.717       30.600       29.073      161.019      470.629        8.543      329.931       -3.004      854.778
01/24/2021  08:00:00      137.414       21.985      -56.028      623.823       48.083      299.039   389155.695     2311.948    89424.252       25.160       24.045      139.161      430.020        9.549      329.901       -3.056      854.776
01/24/2021  08:01:00      145.746       22.980      -66.026      654.304       94.095      318.740   428113.961     8853.853   101595.003       28.223       26.928      147.547      449.197        9.269      329.967       -2.945      854.774
01/24/2021  08:02:00      169.984       41.259      -50.358      660.186       55.027      307.613   435844.916     3027.977    94625.840       28.320       26.675      174.919      448.313        6.569      330.044       -2.821      854.764
01/24/2021  08:03:00      165.967       42.434      -54.551      618.620       50.122      296.847   382690.333     2512.226    88118.322       25.272       23.666      171.305      426.461        6.198      330.032       -2.843      854.758
01/24/2021  08:04:00       78.991       35.183      -16.192      397.506       43.295      193.130   158010.744     1874.450    37299.265       10.242        9.859       86.473      274.753       10.096      329.790       -3.247      854.756
01/24/2021  08:05:00       41.345       51.035       -8.038      376.858       49.696      182.182   142021.672     2469.702    33190.315        9.099        8.884       65.681      258.559       15.497      329.709       -3.378      854.743
01/24/2021  08:06:00      101.395       45.801      -28.152      504.248       52.783      245.521   254266.356     2786.076    60280.657       16.518       15.867      111.259      349.535        9.870      329.986       -2.921      854.729
01/24/2021  08:07:00      164.420       49.679      -75.102      713.132       55.597      337.616   508557.832     3090.987   113984.485       33.026       31.282      171.761      488.579        8.091      330.239       -2.497      854.732
01/24/2021  08:08:00      130.166        7.486      -54.045      609.234       36.892      293.544   371166.063     1360.985    86168.203       23.921       22.935      130.381      421.573       10.455      330.141       -2.664      854.741
01/24/2021  08:09:00       81.697       12.609      -40.189      496.228       43.957      239.757   246242.684     1932.185    57483.529       15.699       15.283       82.665      342.671       17.184      330.018       -2.869      854.747
01/24/2021  08:10:00        6.761       49.871      -17.369      446.904       57.779      215.748   199722.965     3338.469    46547.187       12.617       12.480       50.328      306.963       37.201      329.755       -3.301      854.742
01/24/2021  08:11:00       86.533       49.453      -51.923      612.549       59.624      296.543   375216.507     3555.057    87937.956       23.957       23.335       99.667      423.118       18.023      330.105       -2.723      854.727
01/24/2021  08:12:00      112.725        9.065      -59.194      599.201       52.193      289.153   359041.802     2724.065    83609.306       23.074       22.269      113.089      414.270       13.419      330.206       -2.556      854.708
01/24/2021  08:13:00      103.594      -41.521      -66.344      620.632       38.794      295.906   385184.078     1504.985    87560.292       24.545       23.712      111.605      427.110       14.646      330.224       -2.528      854.686
01/24/2021  08:14:00       40.768       -8.190      -24.971      380.593       40.809      183.177   144850.945     1665.350    33553.655        9.117        9.003       41.582      261.944       39.683      330.102       -2.735      854.670
01/24/2021  08:15:00      118.901        4.223      -66.404      587.349       38.523      279.533   344978.909     1484.031    78138.636       22.149       21.230      118.976      403.680       11.512      330.261       -2.467      854.665
01/24/2021  08:16:00        9.854      -30.380       -9.000      274.750       42.440      133.785    75487.355     1801.146    17898.377        4.812        4.759       31.938      187.094       34.316      330.076       -2.779      854.663
01/24/2021  08:17:00       70.471      -12.341      -51.545      552.605       38.207      266.297   305372.661     1459.798    70914.209       19.268       18.887       71.543      381.459       28.429      330.345       -2.331      854.656
01/24/2021  08:18:00       41.740       -8.980      -49.423      514.402       55.507      249.948   264609.243     3081.040    62473.821       16.714       16.508       42.695      356.173       69.594      330.323       -2.370      854.646
01/24/2021  08:19:00      -24.090       -0.059      -13.089      383.772       50.916      186.796   147280.969     2592.402    34892.586        9.272        9.238       24.091      262.376      118.620      330.089       -2.757      854.634
01/24/2021  08:20:00       -5.492       -3.647      -26.595      388.848       40.306      185.743   151202.388     1624.584    34500.599        9.400        9.366        6.593      265.752     1624.908      330.012       -2.881      854.624
01/24/2021  08:21:00        6.111       27.507      -11.275      417.581       37.449      201.303   174373.762     1402.431    40522.992       10.856       10.815       28.177      286.999      103.743      330.062       -2.800      854.625
01/24/2021  08:22:00       34.386      -10.621      -23.633      381.180       26.686      181.506   145298.422      712.121    32944.354        9.037        8.948       35.989      260.619       52.441      330.286       -2.434      854.634
01/24/2021  08:23:00      -20.216       -7.137      -13.429      336.339       28.292      155.524   113123.745      800.457    24187.703        6.935        6.906       21.439      227.022      112.130      329.971       -2.952      854.633
01/24/2021  08:24:00       29.257       -2.049      -16.318      325.798       20.562      155.458   106144.611      422.777    24167.341        6.590        6.537       29.328      224.193       58.434      330.265       -2.469      854.624
01/24/2021  08:25:00       65.410      -24.753      -46.368      510.550       20.973      244.025   260661.220      439.849    59548.274       16.378       16.032       69.937      352.565       25.414      330.538       -2.016      854.611
01/24/2021  08:26:00       26.640      -37.076      -14.974      225.628       43.032      106.921    50907.927     1851.771    11432.071        3.324        3.210       45.654      153.457       11.298      330.466       -2.141      854.606
01/24/2021  08:27:00       38.906      -12.288      -32.479      400.203       27.601      192.306   160162.099      761.791    36981.549       10.027        9.895       40.800      276.718       45.999      330.420       -2.214      854.595
01/24/2021  08:28:00       35.730      -37.760      -17.113      342.855       30.374      161.987   117549.670      922.579    26239.942        7.382        7.236       51.985      234.433       20.337      330.650       -1.838      854.577
01/24/2021  08:29:00       59.127      -63.762      -54.026      383.469       28.604      181.582   147048.568      818.187    32972.144        9.562        9.042       86.958      262.861        9.138      330.604       -1.912      854.557
01/24/2021  08:30:00        4.645      -28.210      -10.751      357.907       28.914      171.706   128097.506      836.013    29483.066        7.964        7.921       28.590      246.797       74.519      330.573       -1.962      854.531
01/24/2021  08:31:00       12.500      -22.327       -2.966      153.488       32.426       76.208    23558.708     1051.422     5807.637        1.553        1.521       25.588      102.948       16.187      330.637       -1.863      854.509
01/24/2021  08:32:00       81.784      -83.111      -17.349      283.202       47.049      137.381    80203.115     2213.628    18873.551        5.757        5.065      116.603      194.934        2.795      330.575       -1.961      854.494
01/24/2021  08:33:00       77.145     -119.519      -24.057      173.652       27.703       85.155    30154.980      767.429     7251.333        2.949        1.909      142.254      118.819        0.698      330.375       -2.291      854.478
01/24/2021  08:34:00       71.875      -96.169       -7.788       41.167       48.986       27.017     1694.757     2399.633      729.922        0.965        0.241      120.061       18.294        0.023      330.350       -2.334      854.462
01/24/2021  08:35:00       69.167      -96.114      -19.698       25.093       25.370       16.636      629.677      643.624      276.761        0.798        0.078      118.414       12.375        0.011      330.359       -2.318      854.443
01/24/2021  08:36:00       97.107      -92.735      -34.004      213.614       30.825      100.160    45631.070      950.208    10031.965        3.789        2.831      134.274      144.885        1.164      330.566       -1.978      854.423
01/24/2021  08:37:00       81.370     -102.151      -22.176       37.183       38.790       23.805     1382.586     1504.687      566.655        1.050        0.173      130.598       22.494        0.030      330.562       -1.986      854.404
01/24/2021  08:38:00       98.301     -120.935      -30.082       32.510       45.139       16.309     1056.889     2037.546      265.983        1.428        0.168      155.847       11.662        0.006      330.363       -2.312      854.394
01/24/2021  08:39:00       84.583     -112.966      -23.205      163.662       57.124       78.512    26785.149     3263.184     6164.133        2.833        1.811      141.123      108.896        0.595      330.642       -1.854      854.381
01/24/2021  08:40:00      109.227     -159.495      -35.706      215.546       44.334      104.592    46459.925     1965.529    10939.555        4.899        2.968      193.311      146.818        0.577      330.505       -2.080      854.367
01/24/2021  08:41:00      127.126      -64.651      -27.526       48.763       53.821       28.910     2377.788     2896.697      835.799        1.360        0.306      142.621       24.849        0.030      330.462       -2.150      854.356
01/24/2021  08:42:00      115.162      -64.980      -32.799      208.055       43.519       98.995    43286.845     1893.876     9800.088        3.676        2.749      132.230      140.677        1.132      330.666       -1.815      854.342
01/24/2021  08:43:00       36.437      -31.960       -5.959       41.066       63.229       40.492     1686.445     3997.903     1639.577        0.485        0.366       48.468       26.818        0.306      330.947       -1.354      854.333
01/24/2021  08:44:00      -15.501      -75.898      -26.320       74.211       40.123       35.251     5507.347     1609.824     1242.614        0.752        0.418       77.465       32.931        0.181      330.759       -1.663      854.330
01/24/2021  08:45:00      -39.384      -65.711      -25.262       54.615       49.481       31.680     2982.822     2448.362     1003.642        0.647        0.322       76.610       27.508        0.129      330.789       -1.613      854.335
01/24/2021  08:46:00       20.473      -11.711      -12.582      159.420       42.446       75.461    25414.666     1801.681     5694.423        1.681        1.646       23.586      104.342       19.571      330.824       -1.554      854.332
01/24/2021  08:47:00       51.229     -121.307      -29.228       36.464       41.435       23.813     1329.640     1716.829      567.072        1.090        0.181      131.681       15.234        0.013      330.647       -1.846      854.325
01/24/2021  08:48:00       44.102      -56.008      -14.901      197.458       59.977       94.925    38989.650     3597.295     9010.788        2.844        2.580       71.288      133.766        3.521      330.880       -1.463      854.308
01/24/2021  08:49:00       10.176      -55.609      -10.425       37.533       34.819       21.862     1408.700     1212.382      477.953        0.320        0.155       56.532        9.087        0.026      330.923       -1.394      854.304
01/24/2021  08:50:00      -20.429      -16.860      -13.216       31.489       40.852       21.187      991.541     1668.855      448.897        0.199        0.155       26.488       17.017        0.413      330.945       -1.357      854.294
01/24/2021  08:51:00       37.634      -17.467      -10.929       46.259       51.078       26.102     2139.910     2608.923      681.291        0.363        0.272       41.490       18.497        0.199      330.884       -1.458      854.281
01/24/2021  08:52:00       47.837      -64.497      -21.438       45.505       57.684       24.513     2070.723     3327.396      600.907        0.645        0.300       80.301       31.402        0.153      330.539       -2.024      854.275
01/24/2021  08:53:00      -10.465        0.754      -11.237      174.818       27.043       84.851    30561.495      731.307     7199.614        1.936        1.925       10.492      120.744      132.443      330.777       -1.632      854.270
01/24/2021  08:54:00       10.941        9.583       -2.250       76.209       22.899       34.184     5807.793      524.387     1168.575        0.386        0.375       14.544       47.059       10.469      330.769       -1.647      854.277
01/24/2021  08:55:00       38.036      -35.534      -16.977       48.695       72.925       20.419     2371.174     5318.118      416.936        0.555        0.405       52.052       18.032        0.120      330.670       -1.807      854.296
01/24/2021  08:56:00       38.971        1.622      -19.234      161.451       45.813       75.338    26066.270     2098.803     5675.751        1.786        1.692       39.004      107.589        7.609      330.905       -1.423      854.314
01/24/2021  08:57:00        2.908       51.165      -11.371      172.766       24.838       84.198    29847.946      616.910     7089.291        2.015        1.878       51.248      119.311        5.420      330.757       -1.663      854.321
01/24/2021  08:58:00       14.612       36.957      -17.567       21.673       19.766       17.418      469.706      390.698      303.400        0.153        0.058       39.741       10.474        0.069      330.877       -1.469      854.327
01/24/2021  08:59:00       30.377      -28.665      -18.961       26.808       47.617       20.433      718.688     2267.411      417.507        0.275        0.170       41.767       13.456        0.104      330.868       -1.483      854.329
01/24/2021  09:00:00       51.147       15.417      -29.729      230.966       54.797      108.127    53345.348     3002.711    11691.362        3.587        3.402       53.420      155.343        8.456      330.923       -1.391      854.308
01/24/2021  09:01:00       45.131       -9.997      -26.850       49.729       42.460       19.716     2473.009     1802.816      388.707        0.376        0.233       46.224       14.132        0.093      330.944       -1.360      854.287
01/24/2021  09:02:00       68.145      -81.110      -20.073       40.476       42.384       26.000     1638.286     1796.395      675.980        0.787        0.206      105.937       17.499        0.027      330.753       -1.672      854.278
01/24/2021  09:03:00       17.944      -48.527      -12.708       44.404       65.848       32.154     1971.737     4336.018     1033.895        0.509        0.367       51.739       23.935        0.214      330.883       -1.458      854.260
01/24/2021  09:04:00       44.366      -30.497      -15.462       45.491       54.095       31.807     2069.393     2926.267     1011.664        0.457        0.300       53.837       23.703        0.194      331.092       -1.116      854.259
01/24/2021  09:05:00       -7.391      -57.599      -19.643       44.781       34.444       22.827     2005.354     1186.379      521.083        0.373        0.186       58.071       23.981        0.171      330.911       -1.413      854.258
01/24/2021  09:06:00        7.322       -3.648       -1.617      120.294       42.713       62.895    14470.668     1824.440     3955.844        1.016        1.013        8.181       79.899       95.385      331.007       -1.256      854.255
01/24/2021  09:07:00      -33.259      -27.450      -16.809       29.281       30.911       20.987      857.379      955.504      440.470        0.220        0.113       43.123       13.352        0.096      330.971       -1.315      854.255
01/24/2021  09:08:00       30.374      -51.393      -21.672      248.976       36.057      118.389    61989.154     1300.074    14015.960        4.065        3.865       59.698      170.295        8.137      331.119       -1.068      854.252
01/24/2021  09:09:00       58.307      -75.500      -16.326       52.911       58.341       27.807     2799.533     3403.674      773.227        0.817        0.349       95.394       26.436        0.077      330.749       -1.680      854.249
01/24/2021  09:10:00       71.976      -67.172      -19.934       36.814       39.232       19.575     1355.244     1539.168      383.190        0.668        0.164       98.451       14.038        0.020      330.701       -1.758      854.236
01/24/2021  09:11:00       35.597      -28.215      -17.374      177.817       49.929       83.629    31618.713     2492.878     6993.863        2.173        2.055       45.423      119.503        6.922      330.994       -1.277      854.231
01/24/2021  09:12:00       40.686      -38.426      -18.519       44.984       42.055       25.907     2023.567     1768.612      671.168        0.397        0.223       55.964       17.260        0.095      331.017       -1.240      854.227
01/24/2021  09:13:00       53.036      -45.645      -18.458      194.191       62.842       91.253    37710.067     3949.063     8327.134        2.760        2.499       69.973      131.338        3.523      330.768       -1.646      854.229
01/24/2021  09:14:00       63.027       15.612      -25.865      164.156       60.935       81.598    26947.275     3713.049     6658.185        2.109        1.866       64.932      113.037        3.031      331.048       -1.188      854.219
01/24/2021  09:15:00       71.157       31.086      -13.838       41.914       54.269       26.053     1756.790     2945.098      678.777        0.580        0.269       77.651       22.474        0.084      330.851       -1.513      854.214
01/24/2021  09:16:00       33.029       10.819       -8.403      205.378       35.060      102.976    42180.241     1229.213    10604.065        2.763        2.701       34.755      142.123       16.722      331.185       -0.961      854.206
01/24/2021  09:17:00       29.520       -8.024       -3.964       47.974       53.880       35.979     2301.463     2903.038     1294.485        0.372        0.325       30.591       27.320        0.798      331.105       -1.093      854.199
01/24/2021  09:18:00       58.679       12.052      -13.094      229.014       63.358      111.758    52447.243     4014.176    12489.867        3.634        3.448       59.904      155.018        6.697      331.001       -1.264      854.205
01/24/2021  09:19:00       43.737       -3.899       -4.899      250.306       36.162      117.604    62653.342     1307.699    13830.730        3.986        3.890       43.910      168.896       14.795      331.139       -1.036      854.215
01/24/2021  09:20:00       92.121        1.398       -5.948      170.526       25.532       80.715    29079.038      651.881     6514.844        2.238        1.812       92.131      115.878        1.582      330.805       -1.586      854.228
01/24/2021  09:21:00       46.969       10.002        1.865       40.451       35.728       20.559     1636.268     1276.483      422.660        0.282        0.167       48.023       13.270        0.076      330.890       -1.447      854.230
01/24/2021  09:22:00        2.487       14.580       -3.880      162.058       21.213       78.814    26262.790      449.991     6211.574        1.657        1.646       14.791      111.699       57.033      331.162       -0.999      854.237
01/24/2021  09:23:00       17.056        7.697      -16.636      280.636       17.651      134.670    78756.691      311.568    18136.042        4.889        4.860       18.712      192.313      105.622      331.286       -0.794      854.215
01/24/2021  09:24:00      -17.404        9.380       -6.844       27.154       35.011       14.318      737.345     1225.765      205.013        0.130        0.108       19.771       14.656        0.550      331.187       -0.961      854.203
01/24/2021  09:25:00       24.809      -22.353       -9.015      248.689       30.070      120.718    61846.304      904.219    14572.891        3.924        3.866       33.394      170.512       26.072      331.574       -0.322      854.176
01/24/2021  09:26:00       22.576      -13.288       -3.256       36.951       45.643       29.370     1365.409     2083.264      862.590        0.250        0.216       26.197       18.322        0.489      331.442       -0.540      854.163
01/24/2021  09:27:00       93.448       -7.197      -41.332      302.920       58.742      147.104    91760.330     3450.677    21639.451        6.365        5.843       93.725      208.815        4.964      331.306       -0.761      854.156
01/24/2021  09:28:00       52.952       11.041       -3.918       53.390       51.650       31.314     2850.446     2667.713      980.595        0.472        0.325       54.091       28.121        0.270      331.157       -1.010      854.148
01/24/2021  09:29:00       71.926       38.445       -8.514      162.766       44.304       78.097    26492.830     1962.851     6099.148        2.063        1.728       81.556      107.825        1.748      331.069       -1.153      854.142
01/24/2021  09:30:00       74.582       15.270      -14.487       53.032       59.284       33.096     2812.369     3514.604     1095.321        0.671        0.371       76.129       26.428        0.121      331.051       -1.183      854.141
01/24/2021  09:31:00       88.823      -16.251      -21.333      232.778       65.013      112.783    54185.700     4226.753    12720.051        3.986        3.557       90.297      159.044        3.102      331.370       -0.658      854.142
01/24/2021  09:32:00      101.055      -19.691      -19.844       55.848       48.590       31.646     3119.045     2360.957     1001.479        0.874        0.324      102.956       30.057        0.085      331.028       -1.221      854.147
01/24/2021  09:33:00       95.777        3.231      -34.685      296.928       53.598      141.809    88166.045     2872.761    20109.763        6.074        5.557       95.832      202.319        4.457      331.133       -1.046      854.149
01/24/2021  09:34:00       35.976      -32.935      -21.508      291.317       44.116      136.911    84865.831     1946.231    18744.570        5.418        5.278       48.775      197.968       16.474      331.432       -0.553      854.141
01/24/2021  09:35:00       56.823      -55.260      -36.169      165.102       42.825       77.891    27258.781     1833.965     6067.074        2.137        1.758       79.262      108.779        1.883      331.403       -0.602      854.119
01/24/2021  09:36:00       71.531      -37.278      -25.747      240.221       65.547      113.883    57706.319     4296.390    12969.328        4.105        3.749       80.662      161.694        4.018      331.505       -0.434      854.096
01/24/2021  09:37:00       81.871        9.315      -20.042      242.925       60.318      115.796    59012.314     3638.299    13408.680        4.161        3.803       82.399      164.420        3.982      331.270       -0.820      854.086
01/24/2021  09:38:00       77.783        4.731       -9.216       63.316       45.664       33.893     4008.892     2085.158     1148.708        0.670        0.362       77.927       33.128        0.181      331.056       -1.174      854.080
01/24/2021  09:39:00       73.518        7.584      -12.313       74.271       46.462       44.533     5516.116     2158.672     1983.189        0.763        0.483       73.908       43.273        0.343      331.152       -1.016      854.071
01/24/2021  09:40:00      123.730        2.210      -32.914      270.770       56.557      126.249    73316.608     3198.718    15938.742        5.441        4.623      123.750      179.550        2.105      331.169       -0.987      854.058
01/24/2021  09:41:00      165.368       13.187      -25.694      158.810       50.305       80.133    25220.648     2530.573     6421.364        3.117        1.709      165.893      107.496        0.420      330.952       -1.345      854.052
01/24/2021  09:42:00      128.995      -11.574      -16.564      198.455       42.785       95.834    39384.575     1830.559     9184.111        3.371        2.520      129.513      135.424        1.093      331.060       -1.167      854.044
01/24/2021  09:43:00       73.370      -18.344       -7.907      204.032       44.126       98.691    41629.198     1947.125     9739.935        2.954        2.666       75.629      139.721        3.413      331.260       -0.839      854.042
01/24/2021  09:44:00       74.699       18.240      -19.423       42.020       36.928       22.103     1765.715     1363.671      488.555        0.495        0.181       76.894       15.883        0.043      331.242       -0.869      854.035
01/24/2021  09:45:00       66.028       21.975      -13.514       32.349       39.057       22.669     1046.433     1525.431      513.892        0.405        0.154       69.589       19.145        0.076      331.239       -0.874      854.041
01/24/2021  09:46:00       81.956      -27.620      -36.838      221.194       52.228      106.332    48926.703     2727.750    11306.517        3.589        3.148       86.485      150.201        3.016      331.375       -0.650      854.042
01/24/2021  09:47:00       52.056       10.006       -7.936       30.829       26.963       16.630      950.400      726.988      276.561        0.241        0.098       53.009        9.239        0.030      331.143       -1.032      854.039
01/24/2021  09:48:00       39.402       24.899       -4.912       23.514       23.046       14.952      552.924      531.113      223.560        0.175        0.065       46.610       13.056        0.078      331.257       -0.845      854.031
01/24/2021  09:49:00       23.527       13.319       -9.191      198.526       28.718       97.914    39412.703      824.736     9587.143        2.531        2.491       27.035      137.755       25.963      331.549       -0.362      854.019
01/24/2021  09:50:00       82.958      -67.292      -37.058      337.451       51.389      161.377   113873.434     2640.796    26042.577        7.764        7.128      106.819      231.821        4.710      331.728       -0.065      854.005
01/24/2021  09:51:00       68.678      -68.873      -28.594       23.100       33.309       13.958      533.588     1109.499      194.832        0.606        0.092       97.263       10.929        0.013      331.348       -0.695      853.991
01/24/2021  09:52:00       70.537      -81.695      -24.462      213.083       28.282      105.178    45404.568      799.884    11062.461        3.475        2.863      107.934      147.695        1.872      331.545       -0.370      853.976
01/24/2021  09:53:00       67.072     -122.678      -10.935       35.594       36.544       24.119     1266.934     1335.462      581.739        1.143        0.159      139.816       10.391        0.006      331.523       -0.407      853.963
01/24/2021  09:54:00       55.677      -79.954      -23.307      180.391       36.758       84.344    32540.896     1351.181     7113.879        2.551        2.050       97.430      120.361        1.526      331.728       -0.069      853.951
01/24/2021  09:55:00       59.127      -88.633      -15.536       40.796       41.423       24.499     1664.321     1715.848      600.196        0.779        0.199      106.545       22.560        0.045      331.584       -0.305      853.940
01/24/2021  09:56:00       65.270      -75.798      -32.125      196.410       48.636       92.450    38576.846     2365.482     8546.912        3.025        2.474      100.027      133.694        1.786      331.490       -0.459      853.930
01/24/2021  09:57:00      105.369     -143.707      -36.506      274.993       43.927      132.962    75621.150     1929.582    17678.826        6.414        4.761      178.197      189.976        1.137      331.410       -0.591      853.904
01/24/2021  09:58:00       80.839      -96.889      -31.565       34.312       52.811       17.022     1177.326     2789.020      289.736        1.059        0.213      126.184       10.686        0.007      331.348       -0.695      853.878
01/24/2021  09:59:00       80.700      -76.850      -23.886       27.411       44.687       15.623      751.376     1996.929      244.064        0.799        0.150      111.438        8.043        0.005      331.356       -0.682      853.861
01/24/2021  10:00:00       53.434      -27.426      -12.329      163.576       44.506       79.169    26757.055     1980.791     6267.794        1.937        1.750       60.062      110.681        3.396      331.624       -0.240      853.860
01/24/2021  10:01:00       36.605      -57.223      -13.779      162.477       56.528       82.136    26398.794     3195.396     6746.363        2.056        1.817       67.929      109.662        2.606      331.766       -0.005      853.850
01/24/2021  10:02:00       14.197      -53.242      -29.215      179.329       34.870       83.022    32158.860     1215.933     6892.699        2.207        2.013       55.103      117.202        4.524      331.716       -0.089      853.846
01/24/2021  10:03:00       37.116      -32.734      -17.925       29.623       42.537       22.549      877.533     1809.377      508.445        0.298        0.160       49.488       14.275        0.083      331.778        0.012      853.836
01/24/2021  10:04:00       13.910      -41.238      -23.368      244.022       49.262      120.193    59546.568     2426.709    14446.375        3.941        3.821       43.521      167.954       14.893      331.905        0.225      853.813
01/24/2021  10:05:00       74.166      -64.697      -25.870       20.961       37.951       15.110      439.344     1440.275      228.301        0.623        0.105       98.419       10.575        0.012      331.493       -0.454      853.810
01/24/2021  10:06:00       56.581      -24.576      -11.612      191.869       62.592       97.182    36813.569     3917.733     9444.321        2.705        2.509       61.688      133.029        4.650      331.796        0.044      853.806
01/24/2021  10:07:00       48.900      -11.220       -2.315       38.218       43.026       27.088     1460.626     1851.265      733.777        0.328        0.202       50.170       18.356        0.134      331.715       -0.089      853.808
01/24/2021  10:08:00      103.494       -8.933       -7.169       34.856       36.054       26.893     1214.938     1299.883      723.242        0.704        0.162      103.879       18.094        0.030      331.685       -0.140      853.817
01/24/2021  10:09:00      107.663       41.681      -15.591       29.497       34.294       18.314      870.096     1176.111      335.401        0.798        0.119      115.450       10.958        0.009      331.552       -0.359      853.804
01/24/2021  10:10:00       36.960       10.732       -1.184       32.680       53.853       31.910     1067.971     2900.102     1018.263        0.323        0.249       38.486       27.693        0.518      331.889        0.196      853.793
01/24/2021  10:11:00       52.475       16.247       -2.564       43.993       40.579       30.973     1935.399     1646.659      959.307        0.378        0.227       54.932       25.322        0.212      331.923        0.251      853.784
01/24/2021  10:12:00      118.477       21.847      -14.945      295.033       57.105      140.817    87044.205     3261.035    19829.356        6.241        5.507      120.474      200.279        2.764      331.797        0.048      853.766
01/24/2021  10:13:00      121.810       66.271      -12.518       34.969       40.616       25.553     1222.858     1649.633      652.960        1.146        0.176      138.671       14.028        0.010      331.516       -0.418      853.746
01/24/2021  10:14:00       67.885       35.256      -21.427      155.602       52.578       74.016    24212.054     2764.448     5478.334        1.938        1.623       76.494      102.563        1.798      331.771        0.002      853.738
01/24/2021  10:15:00      115.125       -1.569      -27.998      183.442       62.208       90.354    33650.977     3869.890     8163.760        2.985        2.284      115.136      122.348        1.129      331.805        0.058      853.733
01/24/2021  10:16:00       28.239       -8.192        2.284       61.605       57.791       39.888     3795.133     3339.847     1591.068        0.480        0.436       29.403       29.518        1.008      331.933        0.269      853.740
01/24/2021  10:17:00       79.396       22.011       -9.258       53.916       48.638       30.296     2906.953     2365.615      917.842        0.653        0.310       82.390       22.674        0.076      331.729       -0.068      853.745
01/24/2021  10:18:00       30.431      -44.337      -13.381       28.734       41.905       24.937      825.661     1756.070      621.846        0.314        0.160       53.776       17.699        0.108      332.081        0.512      853.740
01/24/2021  10:19:00       40.853      -38.320      -16.543       40.849       48.425       26.817     1668.676     2344.977      719.159        0.407        0.237       56.012       15.896        0.081      332.103        0.548      853.736
01/24/2021  10:20:00       85.423       -3.198       -0.326       50.193       32.762       26.129     2519.371     1073.372      682.716        0.579        0.214       85.483       26.107        0.093      331.748       -0.037      853.734
01/24/2021  10:21:00       42.994       34.314       -4.522       35.777       41.927       16.398     1279.988     1757.884      268.881        0.318        0.165       55.009       13.549        0.061      331.782        0.019      853.732
01/24/2021  10:22:00        4.906      -11.153       -7.426       92.452       41.092       47.726     8547.304     1688.555     2277.762        0.636        0.626       12.185       62.062       25.944      332.096        0.537      853.723
01/24/2021  10:23:00       29.335       12.827       -0.047      184.035       44.205       89.734    33868.790     1954.062     8052.223        2.244        2.194       32.017      125.776       15.433      332.163        0.648      853.706
01/24/2021  10:24:00       45.482        2.511        2.498       67.324       43.949       33.541     4532.582     1931.553     1125.016        0.483        0.379       45.551       34.205        0.564      332.001        0.380      853.700
01/24/2021  10:25:00       11.848        5.415        3.790       33.144       35.616       24.264     1098.515     1268.519      588.732        0.157        0.148       13.027       14.192        1.187      332.044        0.451      853.703
01/24/2021  10:26:00       14.176      -11.398      -10.576       38.639       32.673       18.621     1492.942     1067.503      346.751        0.167        0.145       18.190       12.863        0.500      332.125        0.584      853.700
01/24/2021  10:27:00       14.101        2.892      -16.096       32.843       36.362       21.809     1078.635     1322.181      475.646        0.167        0.144       14.395        8.048        0.313      332.229        0.756      853.688
01/24/2021  10:28:00      118.230     -121.942      -30.064       54.749       67.223       35.966     2997.408     4518.978     1293.522        1.928        0.440      169.847       38.127        0.050      331.840        0.114      853.653
01/24/2021  10:29:00       91.097     -130.821      -36.788       34.677       35.408       18.804     1202.481     1253.713      353.597        1.479        0.140      159.414       15.505        0.009      331.690       -0.132      853.633
01/24/2021  10:30:00      120.264     -106.569      -35.857       25.231       29.164       16.951      636.605      850.523      287.331        1.444        0.089      160.687       15.473        0.009      331.700       -0.116      853.617
01/24/2021  10:31:00      104.001      -78.169      -28.821      242.658       42.023      118.853    58883.017     1765.949    14125.939        4.625        3.739      130.102      167.414        1.656      331.941        0.283      853.615
01/24/2021  10:32:00       72.751     -103.281      -31.345       58.264       56.779       27.579     3394.642     3223.855      760.603        1.216        0.369      126.331       10.825        0.007      332.160        0.642      853.612
01/24/2021  10:33:00       64.355     -124.243      -32.825      126.736       48.381       61.445    16062.000     2340.681     3775.429        2.141        1.109      139.921       84.276        0.363      331.803        0.054      853.590
01/24/2021  10:34:00       93.166      -37.544      -26.558      138.850       44.653       68.508    19279.192     1993.885     4693.337        1.837        1.298      100.446       93.355        0.864      331.790        0.032      853.566
01/24/2021  10:35:00        8.456       -9.033      -15.710       27.255       26.114       17.503      742.861      681.944      306.348        0.107        0.087       12.373       10.409        0.708      332.325        0.913      853.524
01/24/2021  10:36:00        2.137      -36.451       -6.506       29.459       22.287       15.677      867.839      496.695      245.770        0.149        0.081       36.513        9.286        0.065      332.395        1.029      853.495
01/24/2021  10:37:00       18.328      -65.421      -21.596       67.599       45.878       28.093     4569.566     2104.765      789.201        0.627        0.373       67.940       19.781        0.085      332.306        0.882      853.475
01/24/2021  10:38:00       92.129     -100.458      -26.009       19.310       29.706       13.447      372.870      882.461      180.822        1.035        0.072      136.306        9.387        0.005      331.694       -0.126      853.467
01/24/2021  10:39:00       73.368      -48.598       -6.484       24.775       20.259       20.490      613.784      410.431      419.822        0.462        0.072       88.004       18.100        0.042      331.817        0.076      853.455
01/24/2021  10:40:00       48.951      -16.305      -13.043       22.001       20.710       13.576      484.035      428.884      184.295        0.196        0.055       51.595       10.648        0.043      331.856        0.141      853.445
01/24/2021  10:41:00       43.243      -22.244      -18.227       29.971       46.279       29.044      898.253     2141.751      843.568        0.329        0.194       48.629       23.934        0.242      332.217        0.736      853.430
01/24/2021  10:42:00       75.860      -33.320      -19.480       37.066       45.883       24.027     1373.920     2105.276      577.308        0.565        0.203       82.855       14.972        0.033      332.097        0.538      853.413
01/24/2021  10:43:00       66.626       63.740      -14.791       43.272       39.554       27.703     1872.470     1564.524      767.461        0.646        0.210       92.206       18.344        0.040      332.132        0.597      853.385
01/24/2021  10:44:00       40.756       48.517        5.946       41.779       38.646       19.677     1745.463     1493.544      387.190        0.384        0.181       63.363       14.731        0.054      332.202        0.711      853.350
01/24/2021  10:45:00       11.897        6.827       19.104       38.920       34.617       31.074     1514.766     1198.359      965.563        0.212        0.184       13.717       25.761        3.527      332.665        1.474      853.315
01/24/2021  10:46:00       43.089       -0.442      -16.172       61.205       48.100       39.282     3745.994     2313.635     1543.085        0.486        0.380       43.092       31.029        0.518      332.458        1.134      853.289
01/24/2021  10:47:00       93.774      -19.363      -18.291       29.836       33.960       23.925      890.177     1153.274      572.424        0.606        0.131       95.752       13.523        0.020      332.163        0.647      853.269
01/24/2021  10:48:00       80.926       19.543      -16.509       65.466       51.739       29.125     4285.835     2676.909      848.239        0.751        0.391       83.252       23.929        0.083      332.327        0.917      853.248
01/24/2021  10:49:00       61.852      -30.422       -8.885       58.692       17.671       16.320     3444.699      312.266      266.357        0.443        0.201       68.929       14.026        0.041      332.074        0.500      853.229
01/24/2021  10:50:00       43.241       26.743       -4.241       50.412       40.047       26.205     2541.386     1603.787      686.720        0.372        0.242       50.843       32.757        0.415      332.682        1.503      853.201
01/24/2021  10:51:00      121.944       78.453      -22.603       35.522       37.651       23.302     1261.805     1417.618      542.962        1.238        0.161      145.001       18.783        0.017      332.298        0.871      853.185
01/24/2021  10:52:00      118.326       62.450      -17.480       41.904       41.394       25.618     1755.929     1713.465      656.266        1.117        0.206      133.795       17.751        0.018      332.314        0.897      853.173
01/24/2021  10:53:00       39.393       88.754        9.504       47.339       39.258       40.699     2240.953     1541.152     1656.368        0.748        0.272       97.103       36.696        0.143      332.399        1.038      853.166
01/24/2021  10:54:00       36.722       48.742       -4.666       35.887       33.053       26.010     1287.911     1092.519      676.521        0.340        0.153       61.027       16.837        0.076      332.457        1.133      853.150
01/24/2021  10:55:00       52.163       59.539       -6.676       39.788       28.167       17.837     1583.060      793.387      318.175        0.450        0.135       79.158       13.440        0.029      332.431        1.090      853.145
01/24/2021  10:56:00       59.447       27.577      -14.560       55.947       83.573       37.628     3130.095     6984.489     1415.877        0.802        0.577       65.532       38.873        0.352      332.604        1.374      853.138
01/24/2021  10:57:00      112.634      -59.205      -33.646       83.928       74.331       47.351     7043.987     5525.083     2242.090        1.606        0.741      127.246       57.090        0.201      332.432        1.091      853.128
01/24/2021  10:58:00      104.956      -40.243      -22.836       67.358       73.724       40.194     4537.104     5435.278     1615.531        1.237        0.579      112.407       27.423        0.060      332.398        1.036      853.128
01/24/2021  10:59:00       24.191      -18.437      -10.507       47.439       37.724       24.370     2250.451     1423.077      593.908        0.265        0.213       30.416       21.883        0.518      332.253        0.795      853.145
01/24/2021  11:00:00      -14.561        6.783        8.449       35.246       39.391       24.057     1242.280     1551.665      578.733        0.185        0.169       16.063       15.875        0.977      332.469        1.152      853.146
01/24/2021  11:01:00      -54.056      -47.314      -13.138       29.606       22.586       17.412      876.541      510.131      303.184        0.351        0.084       71.837       12.374        0.030      332.266        0.816      853.128
01/24/2021  11:02:00       -6.576      -17.102        3.063       27.649       23.141       20.379      764.450      535.514      415.301        0.103        0.086       18.323       16.865        0.847      332.609        1.383      853.115
01/24/2021  11:03:00        2.323       42.806       -2.458       33.269       29.163       19.556     1106.832      850.457      382.422        0.209        0.117       42.869       10.381        0.059      332.873        1.819      853.102
01/24/2021  11:04:00       -4.934        3.182       -5.053       27.992       28.112       17.657      783.558      790.260      311.754        0.097        0.094        5.871       13.737        5.475      332.890        1.847      853.091
01/24/2021  11:05:00      -10.316       21.328       -5.809       22.860       35.038       15.480      522.567     1227.641      239.623        0.129        0.099       23.692       12.761        0.290      332.912        1.882      853.093
01/24/2021  11:06:00       28.678       46.866        1.171       60.417       31.979       25.498     3650.219     1022.663      650.124        0.417        0.266       54.944       10.825        0.039      332.815        1.723      853.078
01/24/2021  11:07:00       40.281       42.613       -2.058       35.508       41.741       23.722     1260.826     1742.320      562.713        0.350        0.178       58.638       22.623        0.149      333.003        2.035      853.054
01/24/2021  11:08:00       83.595       47.278      -13.832       50.428       50.873       28.339     2542.990     2588.021      803.105        0.767        0.297       96.038       30.384        0.100      332.737        1.596      853.037
01/24/2021  11:09:00       64.751       68.388      -10.811       36.695       21.179       24.713     1346.506      448.562      610.733        0.570        0.120       94.178       12.657        0.018      332.693        1.521      853.025
01/24/2021  11:10:00       56.009       79.198      -16.328       22.571       27.929       15.400      509.472      780.029      237.153        0.560        0.076       97.002       12.591        0.017      332.318        0.904      853.014
01/24/2021  11:11:00       46.009       35.201       -4.521       35.872       21.751       17.121     1286.772      473.110      293.120        0.271        0.103       57.930       12.292        0.045      332.355        0.965      852.991
01/24/2021  11:12:00       39.163       43.355       -8.156       30.318       41.087       25.723      919.163     1688.120      661.689        0.337        0.163       58.424       21.845        0.140      332.734        1.588      852.947
01/24/2021  11:13:00       28.984        5.398       -7.198       39.715       23.026       20.771     1577.245      530.212      431.448        0.173        0.127       29.483        9.014        0.093      332.631        1.419      852.927
01/24/2021  11:14:00        1.285       37.363        4.291       39.681       23.756       19.614     1574.591      564.354      384.697        0.197        0.126       37.385       11.173        0.089      332.726        1.577      852.919
01/24/2021  11:15:00       14.373      -48.499      -13.390       45.106       53.815       21.931     2034.553     2896.077      480.954        0.407        0.271       50.584       21.363        0.178      332.965        1.971      852.890
01/24/2021  11:16:00       32.785      -65.569      -12.211       45.863       59.188       21.287     2103.375     3503.200      453.128        0.579        0.303       73.308       26.939        0.135      332.752        1.618      852.865
01/24/2021  11:17:00       -7.183       21.847        0.899       38.562       37.550       26.872     1487.042     1409.965      722.086        0.207        0.181       22.998       17.009        0.547      333.008        2.040      852.854
01/24/2021  11:18:00       61.904      -51.932      -22.757       72.199       61.972       31.129     5212.657     3840.497      968.993        0.853        0.501       80.802       29.722        0.135      332.912        1.883      852.846
01/24/2021  11:19:00       33.936      -19.708      -11.595       33.603       55.735       30.303     1129.155     3106.438      918.282        0.341        0.258       39.244       30.400        0.600      332.789        1.678      852.858
01/24/2021  11:20:00       39.791       59.368       -1.502       24.406       29.601       21.382      595.663      876.214      457.186        0.352        0.096       71.469       15.110        0.045      332.796        1.692      852.849
01/24/2021  11:21:00       68.207       39.141        1.511       60.995       46.118       26.652     3720.425     2126.883      710.310        0.637        0.328       78.640       19.514        0.062      333.047        2.106      852.817
01/24/2021  11:22:00       42.161      -64.962      -26.376       43.614       72.778       24.015     1902.177     5296.669      576.724        0.723        0.389       77.444       23.647        0.093      332.949        1.944      852.793
01/24/2021  11:23:00       62.088       79.412       -8.827       64.144       46.402       26.487     4114.442     2153.155      701.586        0.860        0.348      100.802       29.936        0.088      332.883        1.835      852.780
01/24/2021  11:24:00       54.856       32.044        5.882       65.715       86.520       37.742     4318.466     7485.720     1424.481        0.865        0.661       63.529       35.228        0.307      333.049        2.110      852.769
01/24/2021  11:25:00      109.432       22.567      -23.594       46.720       51.369       20.725     2182.712     2638.770      429.517        0.915        0.263      111.735       13.929        0.016      332.693        1.522      852.749
01/24/2021  11:26:00       77.684       44.827      -12.053       27.036       36.414       21.230      730.930     1325.957      450.712        0.535        0.125       89.689       11.201        0.016      332.609        1.382      852.726
01/24/2021  11:27:00       71.712       -4.097      -10.220       39.945       59.741       28.472     1595.572     3568.995      810.636        0.562        0.299       71.829       22.469        0.098      333.270        2.474      852.680
01/24/2021  11:28:00       74.523       44.864       -1.600       50.048       49.829       32.390     2504.761     2482.947     1049.122        0.680        0.302       86.985       26.959        0.096      333.151        2.278      852.627
01/24/2021  11:29:00       88.372      -13.465      -13.889       80.047       89.310       37.106     6407.453     7976.188     1376.834        1.197        0.788       89.392       25.722        0.083      333.212        2.379      852.568
01/24/2021  11:30:00       98.403       43.288      -12.555       52.261       53.484       24.468     2731.259     2860.524      598.706        0.895        0.310      107.504       20.091        0.035      332.732        1.585      852.526
01/24/2021  11:31:00       93.223       44.822       -3.845       45.637       53.918       24.563     2082.733     2907.157      603.348        0.815        0.280      103.439       19.031        0.034      332.969        1.977      852.495
01/24/2021  11:32:00       85.824      -26.060       -7.650       61.308       56.918       35.777     3758.675     3239.661     1279.997        0.819        0.414       89.693       28.517        0.101      333.126        2.236      852.475
01/24/2021  11:33:00       63.397      -20.404        7.175       91.377       52.753       39.510     8349.808     2782.874     1561.017        0.859        0.635       66.600       43.681        0.430      333.206        2.369      852.458
01/24/2021  11:34:00       67.279      -76.821      -20.869       67.235       62.606       24.889     4520.549     3919.478      619.474        0.996        0.453      102.117       25.576        0.063      333.198        2.357      852.454
01/24/2021  11:35:00       11.147       -4.856       -6.388       54.915       55.691       29.857     3015.646     3101.527      891.454        0.360        0.350       12.159       26.696        4.821      333.500        2.856      852.437
01/24/2021  11:36:00       18.361      -24.466      -12.860       59.289       36.287       26.436     3515.142     1316.742      698.842        0.331        0.277       30.589       27.322        0.798      333.565        2.962      852.408
01/24/2021  11:37:00       74.734     -126.573      -34.505       40.049       59.350       23.707     1603.951     3522.436      562.006        1.424        0.284      146.990       21.403        0.021      333.096        2.187      852.386
01/24/2021  11:38:00       74.169     -117.339      -26.078       68.204       82.796       33.721     4651.727     6855.247     1137.103        1.629        0.632      138.814       39.072        0.079      333.204        2.366      852.364
01/24/2021  11:39:00       97.974      -43.392      -22.018       60.409       78.906       28.777     3649.236     6226.226      828.095        1.133        0.535      107.153       23.651        0.049      333.289        2.506      852.338
01/24/2021  11:40:00       91.598        8.124       -6.523       74.625       51.312       34.549     5568.883     2632.949     1193.663        0.895        0.470       91.957       18.840        0.042      333.475        2.813      852.311
01/24/2021  11:41:00       55.411      -10.346      -13.163       65.252       63.539       38.686     4257.854     4037.252     1496.600        0.657        0.490       56.369       31.274        0.308      333.688        3.168      852.292
01/24/2021  11:42:00      133.606       28.178      -20.032       59.713       70.769       45.365     3565.615     5008.269     2057.952        1.484        0.532      136.545       17.919        0.017      333.386        2.666      852.271
01/24/2021  11:43:00      153.468       72.938      -16.660       43.916       43.848       22.218     1928.587     1922.614      493.652        1.675        0.217      169.918        9.536        0.003      333.133        2.248      852.241
01/24/2021  11:44:00      146.792       -0.710       -9.462       66.858       55.477       35.549     4470.032     3077.643     1263.767        1.522        0.441      146.794       28.286        0.037      333.524        2.895      852.214
01/24/2021  11:45:00      159.630       53.253      -21.743       61.884       63.308       36.989     3829.682     4007.956     1368.211        1.900        0.460      168.278       36.034        0.046      333.313        2.545      852.196
01/24/2021  11:46:00      119.518       60.189      -24.356       54.624       33.094       25.508     2983.759     1095.201      650.637        1.161        0.236      133.819       26.632        0.040      333.492        2.843      852.175
01/24/2021  11:47:00      118.805       80.956      -19.627       57.793       57.154       34.923     3340.078     3266.537     1219.649        1.444        0.391      143.765       29.723        0.043      333.722        3.222      852.169
01/24/2021  11:48:00      122.946       75.985      -21.981       56.701       43.752       36.163     3215.024     1914.274     1307.744        1.390        0.322      144.532       32.387        0.050      333.644        3.094      852.158
01/24/2021  11:49:00      125.096       96.148      -26.861       63.856       28.323       31.894     4077.640      802.171     1017.240        1.575        0.295      157.776       27.639        0.031      333.629        3.069      852.147
01/24/2021  11:50:00      131.003       76.896      -16.768       44.482       37.447       24.346     1978.625     1402.244      592.718        1.366        0.199      151.904       21.948        0.021      333.382        2.660      852.143
01/24/2021  11:51:00      140.333      109.624      -19.089       63.938       44.587       29.225     4088.025     1987.992      854.084        1.950        0.347      178.076       31.641        0.032      333.391        2.674      852.129
01/24/2021  11:52:00      136.474       77.549      -19.397       70.336       89.399       38.444     4947.207     7992.124     1477.906        1.971        0.721      156.968       35.587        0.051      333.671        3.137      852.124
01/24/2021  11:53:00       44.096       96.719      -16.284       55.004       58.681       36.205     3025.480     3443.485     1310.789        0.967        0.389      106.297       34.777        0.107      333.730        3.237      852.124
01/24/2021  11:54:00       74.771      -58.430      -16.635       84.277       59.699       38.485     7102.654     3564.020     1481.096        1.071        0.607       94.893       43.449        0.210      333.964        3.626      852.074
01/24/2021  11:55:00       60.530      -43.799       -7.444       78.830       83.324       51.208     6214.131     6942.880     2622.260        1.071        0.789       74.715       47.412        0.403      334.235        4.074      852.019
01/24/2021  11:56:00       77.190       -8.045        2.639       73.942       70.178       45.032     5467.352     4924.917     2027.876        0.922        0.621       77.608       36.824        0.225      334.235        4.074      851.985
01/24/2021  11:57:00       79.353       71.282       -0.095       47.667       31.609       27.931     2272.121      999.104      780.138        0.771        0.203      106.668       25.549        0.057      333.772        3.306      851.980
01/24/2021  11:58:00       85.557      -40.572      -24.242       81.263       97.197       41.118     6603.700     9447.349     1690.661        1.364        0.887       94.689       47.446        0.251      334.114        3.873      851.947
01/24/2021  11:59:00      164.676      -57.546      -13.874      121.013       71.765       65.756    14644.043     5150.176     4323.841        2.736        1.206      174.441       72.754        0.174      333.877        3.478      851.884
01/24/2021  12:00:00      133.897       -2.678      -22.870      110.037      101.766       50.751    12108.239    10356.395     2575.619        2.174        1.252      133.924       61.473        0.211      333.963        3.619      851.859
01/24/2021  12:01:00       84.755        9.453      -22.191       94.611       80.060       43.899     8951.148     6409.544     1927.128        1.252        0.864       85.281       44.798        0.276      334.345        4.256      851.841
01/24/2021  12:02:00      149.404      -67.919      -35.058      106.432       79.846       48.837    11327.799     6375.384     2385.096        2.412        1.004      164.117       38.188        0.054      334.421        4.381      851.823
01/24/2021  12:03:00      117.489     -187.291      -47.121       68.530       62.119       44.073     4696.389     3858.785     1942.471        3.080        0.525      221.092       40.287        0.033      333.975        3.638      851.820
01/24/2021  12:04:00      192.695       -4.735      -32.391       83.361       83.572       47.156     6949.117     6984.210     2223.726        2.718        0.808      192.753       40.678        0.045      333.954        3.606      851.833
01/24/2021  12:05:00      155.460      -43.731      -19.528      101.690       70.913       52.303    10340.954     5028.717     2735.582        2.228        0.905      161.494       50.605        0.098      333.754        3.276      851.799
01/24/2021  12:06:00      178.117     -124.145      -33.638       72.538       80.678       39.151     5261.737     6508.960     1532.797        3.078        0.665      217.112       38.212        0.031      333.590        3.001      851.759
01/24/2021  12:07:00       67.274     -111.489      -27.584       63.868       62.709       33.045     4079.157     3932.411     1091.980        1.341        0.455      130.214       41.704        0.103      333.903        3.522      851.729
01/24/2021  12:08:00      107.192     -112.607      -27.871       88.011       78.424       41.770     7745.982     6150.361     1744.738        2.029        0.782      155.469       41.358        0.071      334.170        3.964      851.731
01/24/2021  12:09:00      149.293     -117.136      -43.983       61.915      106.404       39.560     3833.522    11321.886     1565.005        2.733        0.836      189.761       23.782        0.016      333.908        3.529      851.729
01/24/2021  12:10:00       97.125      -25.391      -19.341      102.140       54.228       30.176    10432.547     2940.692      910.566        1.236        0.714      100.390       18.003        0.032      334.032        3.737      851.730
01/24/2021  12:11:00      -14.130      -46.536      -12.751       73.656       69.630       37.898     5425.170     4848.303     1436.230        0.712        0.585       48.634       35.810        0.542      334.655        4.772      851.709
01/24/2021  12:12:00      101.614      -26.153      -34.006       72.153       79.033       35.900     5206.038     6246.276     1288.781        1.245        0.637      104.926       30.590        0.085      334.294        4.172      851.661
01/24/2021  12:13:00      106.547      -51.813      -11.946       86.248       70.121       45.907     7438.799     4916.956     2107.457        1.432        0.723      118.478       50.841        0.184      334.122        3.885      851.635
01/24/2021  12:14:00       99.381        3.159      -27.031       97.984      100.723       56.399     9600.845    10145.056     3180.855        1.677        1.146       99.431       52.067        0.274      334.200        4.015      851.622
01/24/2021  12:15:00       94.969      -27.615      -14.096       91.392       65.467       51.528     8352.494     4285.949     2655.130        1.263        0.765       98.903       45.425        0.211      334.368        4.295      851.593
01/24/2021  12:16:00       67.159       -9.730        6.524      104.871       94.270       62.007    10997.979     8886.869     3844.919        1.418        1.186       67.860       57.314        0.713      334.260        4.114      851.555
01/24/2021  12:17:00       30.519      -24.017      -18.588       78.871       87.433       43.394     6220.620     7644.516     1883.010        0.880        0.787       38.835       52.157        1.804      334.470        4.464      851.573
01/24/2021  12:18:00       52.094      -37.668      -12.526       60.323       66.479       41.751     3638.827     4419.514     1743.184        0.704        0.490       64.286       37.790        0.346      334.769        4.961      851.563
01/24/2021  12:19:00      109.835     -196.153      -34.955      108.251      109.784       46.159    11718.232    12052.477     2130.628        3.883        1.295      224.810       61.860        0.076      334.178        3.976      851.546
01/24/2021  12:20:00      165.948     -209.700      -60.350       54.696      103.488       28.416     2991.599    10709.744      807.471        4.483        0.725      267.418       21.693        0.007      334.081        3.814      851.526
01/24/2021  12:21:00      145.760     -144.542      -44.207       52.938       54.510       29.390     2802.453     2971.388      863.800        2.536        0.332      205.276       32.333        0.025      333.872        3.469      851.534
01/24/2021  12:22:00      149.293     -234.086      -47.217       47.365       44.298       28.777     2243.437     1962.315      828.136        4.217        0.252      277.641       28.999        0.011      333.903        3.517      851.536
01/24/2021  12:23:00      183.137     -212.057      -56.384       57.953       95.477       28.317     3358.554     9115.951      801.880        4.748        0.664      280.191       26.782        0.009      333.881        3.484      851.510
01/24/2021  12:24:00       99.753     -220.778      -36.085       51.829       51.388       36.350     2686.213     2640.745     1321.342        3.332        0.332      242.267       29.388        0.015      334.003        3.685      851.502
01/24/2021  12:25:00      127.701     -237.999      -48.411       61.522       83.599       35.557     3785.014     6988.816     1264.275        4.366        0.602      270.094       34.832        0.017      334.045        3.755      851.493
01/24/2021  12:26:00      145.930     -188.853      -53.344       57.627       53.481       32.125     3320.873     2860.185     1032.030        3.351        0.361      238.665       33.003        0.019      334.039        3.744      851.488
01/24/2021  12:27:00       92.039      -58.339      -33.385       50.897       71.001       26.731     2590.537     5041.114      714.566        1.067        0.417      108.971       28.257        0.067      334.076        3.810      851.473
01/24/2021  12:28:00       67.557      -96.678      -26.069       56.451       76.641       36.616     3186.689     5873.842     1340.732        1.249        0.520      117.943       40.302        0.117      334.318        4.212      851.442
01/24/2021  12:29:00       49.288      -46.328      -19.677       60.125       61.917       33.561     3615.000     3833.732     1126.330        0.677        0.429       67.644       32.385        0.229      334.645        4.755      851.427
01/24/2021  12:30:00       75.728     -114.489      -26.687       47.904       36.344       31.109     2294.788     1320.915      967.794        1.207        0.229      137.267       31.148        0.051      334.402        4.351      851.411
01/24/2021  12:31:00       64.632      -83.876      -28.278       70.673       58.679       38.674     4994.704     3443.172     1495.640        1.097        0.497      105.889       42.260        0.159      334.641        4.747      851.380
01/24/2021  12:32:00       36.804      -53.486       -4.288       38.674       49.577       28.435     1495.684     2457.863      808.547        0.450        0.238       64.925       16.608        0.065      334.785        4.988      851.360
01/24/2021  12:33:00       53.515      -49.525      -15.668       50.568       48.451       32.186     2557.089     2347.498     1035.970        0.575        0.297       72.914       33.484        0.211      334.755        4.937      851.341
01/24/2021  12:34:00       55.960      -72.252      -17.821       49.739       56.306       27.462     2474.014     3170.404      754.138        0.753        0.320       91.388       28.061        0.094      334.389        4.328      851.310
01/24/2021  12:35:00       87.742      -36.462      -21.550       63.299       89.543       29.372     4006.791     8017.905      862.713        1.119        0.644       95.016       23.194        0.060      334.864        5.119      851.270
01/24/2021  12:36:00       30.102      -50.041       -6.442       77.004       88.498       45.601     5929.604     7831.809     2079.468        0.964        0.792       58.397       37.055        0.403      335.054        5.432      851.249
01/24/2021  12:37:00       66.108      -58.492      -22.722       56.173       92.338       35.674     3155.434     8526.316     1272.652        1.063        0.648       88.270       33.418        0.143      334.685        4.820      851.237
01/24/2021  12:38:00       36.631      -18.460       -3.544       40.839       19.757       22.387     1667.820      390.357      501.161        0.213        0.128       41.019       10.289        0.063      334.471        4.465      851.244
01/24/2021  12:39:00       -2.178       -1.845       -1.618       50.573       40.960       26.508     2557.634     1677.761      702.660        0.247        0.247        2.854       26.770       87.973      334.956        5.271      851.215
01/24/2021  12:40:00      -11.953      -89.667      -32.358       62.740       43.918       26.845     3936.298     1928.806      720.659        0.791        0.329       90.460       20.201        0.050      334.840        5.079      851.193
01/24/2021  12:41:00      -17.817       -5.731       -3.060       42.300       32.440       23.703     1789.267     1052.339      561.819        0.188        0.170       18.716       20.739        1.228      334.748        4.924      851.175
01/24/2021  12:42:00     -197.725      -53.592      -13.809      136.950       78.427       49.280    18755.432     6150.831     2428.538        3.474        1.367      204.859       49.762        0.059      334.675        4.801      851.150
01/24/2021  12:43:00     -138.642      -42.053       -9.176      101.188      106.400       55.871    10239.041    11320.934     3121.525        2.287        1.234      144.880       61.952        0.183      334.654        4.766      851.119
01/24/2021  12:44:00      -56.058       -8.654        0.020       76.883       52.783       34.883     5911.028     2786.072     1216.854        0.656        0.496       56.722       22.608        0.159      334.890        5.161      851.075
01/24/2021  12:45:00      -22.050      -63.894       -4.418       70.646       52.529       31.741     4990.887     2759.340     1007.519        0.667        0.438       67.592       18.828        0.078      335.020        5.378      851.048
01/24/2021  12:46:00      -20.776       -7.855      -22.649       68.144       54.968       35.067     4643.598     3021.532     1229.712        0.495        0.445       22.211       28.059        1.596      334.868        5.124      851.047
01/24/2021  12:47:00     -139.187     -112.467      -29.463       87.562       45.322       31.079     7667.083     2054.046      965.882        2.179        0.534      178.947       31.869        0.032      334.738        4.908      851.051
01/24/2021  12:48:00     -143.823      -75.185      -11.248       64.887       60.268       40.073     4210.332     3632.215     1605.866        1.795        0.472      162.290       27.710        0.029      334.709        4.859      851.070
01/24/2021  12:49:00      -69.051     -118.014      -21.481       96.899      114.298       47.578     9389.364    13063.938     2263.712        2.193        1.236      136.730       36.927        0.073      334.727        4.889      851.089
01/24/2021  12:50:00       27.450     -193.969      -58.727      116.395      109.436       67.354    13547.770    11976.159     4536.586        3.594        1.503      195.902       45.130        0.053      334.865        5.116      851.063
01/24/2021  12:51:00      -45.157      -59.952      -18.449       81.401       74.331       38.880     6626.074     5525.123     1511.637        0.982        0.683       75.056       17.187        0.052      334.969        5.293      851.035
01/24/2021  12:52:00      -48.959       16.271       -9.883       51.511       28.881       24.865     2653.374      834.108      618.248        0.343        0.205       51.592       16.860        0.107      334.944        5.252      850.969
01/24/2021  12:53:00      -80.387      -62.069      -17.048       71.862       75.684       39.593     5164.080     5728.104     1567.628        1.153        0.623      101.561       38.405        0.143      334.970        5.293      850.958
01/24/2021  12:54:00      -45.282      -46.823        2.797      102.652       72.492       49.863    10537.416     5255.058     2486.307        1.126        0.914       65.137       34.345        0.278      334.983        5.316      850.980
01/24/2021  12:55:00     -126.546     -124.192       -4.251      128.324      111.844       59.877    16467.074    12509.074     3585.234        3.200        1.628      177.307       54.091        0.093      334.846        5.086      850.988
01/24/2021  12:56:00     -232.746      -45.324       -2.104      143.311       94.620       62.532    20538.108     8952.862     3910.213        4.481        1.670      237.118       65.166        0.076      334.801        5.011      850.991
01/24/2021  12:57:00     -166.172      -90.324       -7.639      104.322      116.269       62.111    10883.105    13518.392     3857.725        3.204        1.413      189.134       26.398        0.019      334.724        4.884      851.005
01/24/2021  12:58:00      -12.061     -104.605      -30.649      124.659       93.995       49.011    15539.831     8835.110     2402.083        1.940        1.339      105.298       49.118        0.218      334.735        4.902      850.948
01/24/2021  12:59:00      -44.967     -165.010      -34.579       99.345       79.684       44.570     9869.401     6349.475     1986.453        2.432        0.910      171.027       29.379        0.030      334.914        5.198      850.898
01/24/2021  13:00:00      -27.275      -79.081      -22.142       68.885       63.622       37.400     4745.138     4047.742     1398.761        0.884        0.510       83.652       28.547        0.116      335.062        5.447      850.955
01/24/2021  13:01:00      -36.637      -57.580      -27.886       57.308       73.767       35.294     3284.222     5441.577     1245.672        0.770        0.499       68.248       24.818        0.132      335.036        5.403      850.952
01/24/2021  13:02:00     -205.602      -68.115      -12.019      133.809       85.878       53.613    17904.780     7374.964     2874.390        3.760        1.408      216.591       40.382        0.035      334.730        4.894      850.946
01/24/2021  13:03:00     -246.417     -118.055      -26.398      151.560      129.715       72.370    22970.483    16825.931     5237.401        6.018        2.252      273.236       74.918        0.075      334.873        5.132      850.988
01/24/2021  13:04:00     -311.325     -175.675      -19.638      219.459      221.612       90.104    48162.150    49111.754     8118.653       11.676        5.270      357.470       66.906        0.035      334.975        5.300      850.972
01/24/2021  13:05:00     -341.553      -35.861      -10.783      270.192      136.911       92.757    73003.855    18744.497     8603.922       10.918        5.018      343.430      108.676        0.100      335.109        5.523      850.943
01/24/2021  13:06:00     -281.894     -142.836      -38.978      147.026      172.901       81.336    21616.732    29894.916     6615.503        7.974        2.906      316.017       72.346        0.052      335.073        5.461      850.909
01/24/2021  13:07:00     -401.500     -126.818      -43.749      150.974      156.927       73.493    22793.107    24626.051     5401.272       11.600        2.641      421.053       66.911        0.025      335.107        5.520      850.875
01/24/2021  13:08:00     -401.095      -96.958      -25.226      195.633      141.446       99.619    38272.366    20006.891     9923.858       11.954        3.410      412.648      101.954        0.061      335.256        5.767      850.853
01/24/2021  13:09:00     -388.278      -42.024      -20.011      158.721      125.218       75.909    25192.276    15679.489     5762.174        9.977        2.332      390.546       69.979        0.032      335.220        5.706      850.877
01/24/2021  13:10:00     -470.814      -96.365      -27.595      171.751      124.861       93.053    29498.342    15590.166     8658.930       14.272        2.687      480.575       89.862        0.035      335.198        5.671      850.836
01/24/2021  13:11:00     -447.944      -32.961      -32.844      224.873      143.576       77.883    50568.073    20614.129     6065.777       14.002        3.862      449.155       85.825        0.037      335.108        5.521      850.809
01/24/2021  13:12:00     -230.989       -0.583       -0.190      127.865      142.147       72.403    16349.369    20205.761     5242.212        4.757        2.090      230.990       61.896        0.072      335.321        5.873      850.806
01/24/2021  13:13:00     -221.878       -6.863      -10.888      131.381      124.843       58.574    17260.943    15585.689     3430.886        4.283        1.814      221.984       48.982        0.049      335.352        5.925      850.798
01/24/2021  13:14:00     -524.669     -136.326      -55.345      248.136      160.775       94.755    61571.660    25848.589     8978.490       19.664        4.820      542.091      100.368        0.034      335.099        5.506      850.770
01/24/2021  13:15:00     -542.499     -102.580      -23.614      233.010      155.712      102.654    54293.548    24246.258    10537.932       19.721        4.454      552.112      102.971        0.035      335.095        5.498      850.745
01/24/2021  13:16:00     -186.662      -19.215        5.657      154.437       93.580       61.477    23850.800     8757.264     3779.451        3.581        1.819      187.648       64.770        0.119      335.234        5.731      850.749
01/24/2021  13:17:00     -309.218      -52.802        5.124      247.887      128.204       89.018    61448.014    16436.280     7924.177        9.210        4.290      313.694       93.185        0.088      335.136        5.567      850.723
01/24/2021  13:18:00     -236.727      -76.117      -10.897      209.287      137.513       86.151    43801.223    18909.765     7421.911        6.603        3.507      248.664       85.674        0.119      335.190        5.657      850.706
01/24/2021  13:19:00     -407.585      -81.633      -27.044      248.335      155.726       99.333    61670.151    24250.526     9867.038       13.463        4.789      415.679      114.703        0.076      335.070        5.458      850.689
01/24/2021  13:20:00     -317.204       -8.644        0.003      187.888      142.308       82.630    35301.904    20251.517     6827.711        8.152        3.119      317.322       73.597        0.054      335.076        5.468      850.694
01/24/2021  13:21:00     -343.385      -33.498       -3.100      206.065      137.869       93.587    42462.629    19007.873     8758.490        9.462        3.511      345.015      100.059        0.084      335.069        5.457      850.671
01/24/2021  13:22:00     -358.602        0.605      -23.231      245.749      106.343       78.250    60392.638    11308.847     6123.070       10.346        3.891      358.602       87.372        0.059      335.108        5.522      850.683
01/24/2021  13:23:00     -288.287      -30.800        2.010      169.453      166.816       83.432    28714.373    27827.642     6960.882        7.377        3.175      289.927       63.319        0.048      335.123        5.545      850.670
01/24/2021  13:24:00     -428.541      -51.850      -10.664      229.620      122.370       91.380    52725.379    14974.502     8350.348       13.123        3.803      431.666       86.294        0.040      335.067        5.452      850.660
01/24/2021  13:25:00     -278.344      -47.014        0.293      316.000      149.967      129.490    99856.058    22490.021    16767.582       10.937        6.956      282.287      115.000        0.166      335.090        5.491      850.663
01/24/2021  13:26:00     -388.607      -66.513      -42.937      292.230      173.902      116.136    85398.305    30241.902    13487.682       14.318        6.456      394.258      120.002        0.093      335.022        5.379      850.658
01/24/2021  13:27:00     -533.051       31.560      -22.265      269.952      173.690      112.842    72874.152    30168.348    12733.213       20.068        5.789      533.984      119.382        0.050      334.961        5.276      850.626
01/24/2021  13:28:00     -362.844      -47.006      -37.512      203.799      144.372       94.563    41533.922    20843.290     8942.234       10.328        3.566      365.876      106.658        0.085      335.050        5.426      850.642
01/24/2021  13:29:00     -480.177     -126.561      -31.985      305.663      198.015      108.757    93430.166    39210.101    11827.980       19.601        7.223      496.576      147.686        0.088      334.987        5.320      850.626
01/24/2021  13:30:00     -427.585        7.027        1.364      206.065      146.213       80.160    42462.583    21378.263     6425.575       12.656        3.513      427.643       85.073        0.040      334.945        5.251      850.628
01/24/2021  13:31:00     -429.858      -95.038      -12.285      237.539      158.310       99.374    56424.621    25062.192     9875.288       14.264        4.568      440.239       96.207        0.048      334.968        5.289      850.623
01/24/2021  13:32:00     -381.455      -89.761      -36.863      224.422      154.684       90.543    50365.428    23927.115     8198.103       11.869        4.125      391.873       81.460        0.043      334.934        5.230      850.602
01/24/2021  13:33:00     -459.742      -21.060      -13.581      263.247      168.514      103.586    69299.154    28397.109    10730.081       16.019        5.421      460.225      120.734        0.069      335.007        5.354      850.616
01/24/2021  13:34:00     -522.299      -39.370      -11.478      377.491      174.043      114.031   142499.196    30291.027    13002.969       23.010        9.290      523.781      127.159        0.059      334.878        5.138      850.579
01/24/2021  13:35:00     -501.592        5.713      -29.088      267.434      162.326       97.310    71521.191    26349.630     9469.176       17.988        5.367      501.625      116.195        0.054      334.890        5.158      850.597
01/24/2021  13:36:00     -375.153       61.381      -17.031      190.400      145.697       94.410    36252.027    21227.605     8913.167       10.558        3.320      380.141       97.889        0.066      334.962        5.280      850.580
01/24/2021  13:37:00     -389.949     -113.113      -24.407      206.016      163.921       93.414    42442.410    26869.942     8726.224       12.173        3.902      406.023       96.739        0.057      334.952        5.262      850.561
01/24/2021  13:38:00     -395.522      108.049       11.593      244.973      172.723      102.761    60011.698    29833.099    10559.736       13.430        5.020      410.015      106.699        0.068      334.991        5.325      850.558
01/24/2021  13:39:00     -563.352      -40.797        1.714      272.379      148.736      106.683    74190.080    22122.520    11381.197       21.334        5.385      564.827      103.669        0.034      334.953        5.263      850.566
01/24/2021  13:40:00     -386.666       13.658       -6.704      260.078      178.849       94.746    67640.558    31986.906     8976.778       12.915        5.430      386.907      107.882        0.078      334.888        5.154      850.545
01/24/2021  13:41:00     -342.715       33.888       -0.493      190.377      164.983      100.821    36243.328    27219.274    10164.832        9.610        3.681      344.386      100.586        0.085      334.886        5.153      850.556
01/24/2021  13:42:00     -391.534       54.338       -0.542      210.964      153.237       93.869    44505.875    23481.605     8811.308       11.651        3.840      395.286      111.021        0.079      334.836        5.069      850.528
01/24/2021  13:43:00     -503.716      -29.844      -19.350      251.150      203.230      108.906    63076.092    41302.332    11860.500       18.559        5.812      504.600      106.468        0.045      334.813        5.030      850.513
01/24/2021  13:44:00     -639.706       10.824       -6.609      200.794      141.742       99.721    40318.039    20090.827     9944.238       23.985        3.518      639.798       95.528        0.022      334.816        5.035      850.495
01/24/2021  13:45:00     -319.833       45.796      -15.730      266.622      178.862      109.980    71087.540    31991.589    12095.533       10.988        5.759      323.095      108.482        0.113      334.943        5.247      850.504
01/24/2021  13:46:00     -395.783      -84.612       -4.573      243.040      202.269      122.004    59068.304    40912.665    14884.960       13.932        5.743      404.726      121.909        0.091      334.894        5.164      850.480
01/24/2021  13:47:00     -515.903       68.332       -9.534      251.891      181.611      102.991    63448.967    32982.524    10607.116       18.895        5.352      520.409       86.293        0.027      334.863        5.114      850.513
01/24/2021  13:48:00     -545.609       80.281      -26.700      198.690      178.420       99.577    39477.908    31833.696     9915.666       19.302        4.061      551.483       89.326        0.026      334.812        5.029      850.488
01/24/2021  13:49:00     -576.095       83.815      -15.138      264.593      196.001      109.258    70009.435    38416.453    11937.361       22.973        6.018      582.160      108.853        0.035      334.815        5.033      850.474
01/24/2021  13:50:00     -472.617       -3.989      -13.600      240.229      164.660      101.424    57710.028    27112.830    10286.826       15.932        4.755      472.634      105.549        0.050      334.804        5.016      850.485
01/24/2021  13:51:00     -479.548      154.815       16.219      242.226      198.312      112.945    58673.461    39327.488    12756.683       18.245        5.538      503.918      109.631        0.047      334.760        4.943      850.489
01/24/2021  13:52:00     -304.456      107.793      -19.149      215.345      164.882       88.888    46373.490    27185.925     7901.164        9.305        4.073      322.975       85.898        0.071      334.852        5.097      850.505
01/24/2021  13:53:00     -390.064       31.479      -15.695      218.336      174.348      100.217    47670.514    30397.065    10043.462       12.073        4.406      391.333      111.151        0.081      334.818        5.038      850.502
01/24/2021  13:54:00     -254.934       -8.574       16.785      177.287      144.380       84.234    31430.539    20845.646     7095.332        6.235        2.969      255.079       64.990        0.065      334.902        5.180      850.531
01/24/2021  13:55:00     -450.712     -107.269      -35.726      310.528      183.835      106.246    96427.626    33795.487    11288.219       17.869        7.076      463.301      121.624        0.069      334.759        4.940      850.541
01/24/2021  13:56:00     -322.588      -17.005       -1.476      272.161      161.470      107.170    74071.846    26072.528    11485.338       10.797        5.581      323.036      127.021        0.155      334.730        4.893      850.555
01/24/2021  13:57:00     -533.585      -48.112      -16.758      313.530      187.598      128.683    98300.757    35192.937    16559.430       21.865        7.503      535.750      134.353        0.063      334.646        4.752      850.562
01/24/2021  13:58:00     -359.389      -64.898      -13.701      256.195      153.803      104.424    65635.804    23655.295    10904.337       11.686        5.010      365.202      114.491        0.098      334.685        4.818      850.569
01/24/2021  13:59:00     -486.503      -93.768      -10.211      205.714      128.658       92.361    42318.325    16552.907     8530.490       15.648        3.370      495.457       98.238        0.039      334.649        4.758      850.552
01/24/2021  14:00:00     -429.905      -61.823       -4.683      227.565      124.437      101.011    51785.698    15484.680    10203.317       13.305        3.874      434.328      112.597        0.067      334.688        4.821      850.579
01/24/2021  14:01:00     -135.221       25.997        0.709      153.298      104.176       77.353    23500.134    10852.701     5983.552        2.964        2.017      137.697       82.054        0.355      334.748        4.922      850.574
01/24/2021  14:02:00     -124.414      -19.545      -14.235      183.018      129.011       91.853    33495.451    16643.919     8436.919        3.731        2.929      125.940       64.563        0.263      334.809        5.026      850.568
01/24/2021  14:03:00     -140.574      -28.074       25.581      217.284      159.927      127.265    47212.179    25576.778    16196.300        5.508        4.449      143.350      125.158        0.762      334.733        4.896      850.555
01/24/2021  14:04:00     -269.094       13.144        3.696      248.070      146.092      109.740    61538.526    21342.874    12042.866        8.374        4.746      269.415      109.072        0.164      334.662        4.779      850.575
01/24/2021  14:05:00     -285.806      124.096       24.657      261.225      141.332       86.513    68238.247    19974.686     7484.432        9.667        4.785      311.585       85.838        0.076      334.718        4.872      850.582
01/24/2021  14:06:00     -337.548       72.729        2.152      242.070      147.662       79.661    58597.876    21803.959     6345.910       10.297        4.337      345.294       61.912        0.032      334.701        4.846      850.573
01/24/2021  14:07:00     -554.577       85.755        9.976      290.902      166.366      113.639    84623.984    27677.560    12913.753       22.008        6.261      561.168      104.202        0.034      334.575        4.635      850.535
01/24/2021  14:08:00     -294.901       37.074        2.169      205.898      102.283       73.303    42393.874    10461.798     5373.352        7.327        2.911      297.222       79.250        0.071      334.692        4.830      850.542
01/24/2021  14:09:00     -346.264      -24.087       -7.300      257.911      132.408       79.249    66518.201    17531.855     6280.360       10.541        4.517      347.101       88.916        0.066      334.695        4.833      850.534
01/24/2021  14:10:00     -160.286       49.615        0.615      242.372      174.073       80.397    58744.126    30301.311     6463.708        6.181        4.775      167.789       57.214        0.116      334.735        4.900      850.511
01/24/2021  14:11:00     -457.848       71.958        9.292      245.886      175.461      105.550    60459.919    30786.545    11140.712       15.862        5.119      463.468       85.692        0.034      334.686        4.819      850.526
01/24/2021  14:12:00     -293.885      -23.834       -3.845      240.647      144.913       73.589    57910.816    20999.917     5415.374        8.562        4.216      294.850       67.699        0.053      334.643        4.748      850.505
01/24/2021  14:13:00     -353.140       40.979       -3.407      225.411      161.855       89.475    50809.960    26197.116     8005.862       10.569        4.251      355.510       98.222        0.076      334.621        4.710      850.475
01/24/2021  14:14:00     -406.429       96.451        0.928      248.665      189.638       96.519    61834.089    35962.503     9316.013       14.078        5.356      417.716       90.174        0.047      334.619        4.708      850.471
01/24/2021  14:15:00     -363.316      156.674       18.645      222.364      132.996       94.483    49445.874    17688.006     8927.000       11.646        3.803      395.658       94.749        0.057      334.676        4.802      850.450
01/24/2021  14:16:00     -419.382      109.348       14.104      219.391      127.506       92.833    48132.337    16257.690     8618.015       13.051        3.650      433.404      102.280        0.056      334.577        4.639      850.441
01/24/2021  14:17:00     -379.694       38.358      -28.595      151.184      181.993       74.606    22856.732    33121.466     5566.121       10.399        3.077      381.626       63.797        0.028      334.631        4.727      850.429
01/24/2021  14:18:00     -308.014       56.146      -15.147      160.631      151.746       87.194    25802.387    23026.795     7602.779        7.733        2.822      313.090       83.556        0.071      334.652        4.763      850.440
01/24/2021  14:19:00     -408.616       99.220       -2.817      202.624      142.437       96.472    41056.627    20288.272     9306.927       12.372        3.533      420.489       96.440        0.053      334.652        4.762      850.423
01/24/2021  14:20:00     -248.669       26.765       -2.076      168.311      119.588       71.603    28328.615    14301.173     5127.039        5.515        2.388      250.106       53.892        0.046      334.675        4.800      850.414
01/24/2021  14:21:00     -393.300       62.416       19.280      290.830      162.489       94.184    84581.971    26402.605     8870.703       13.938        5.993      398.221      110.789        0.077      334.674        4.800      850.396
01/24/2021  14:22:00     -336.929       87.268       23.341      208.305      146.588       91.117    43391.179    21488.137     8302.294        9.742        3.659      348.047       99.779        0.082      334.586        4.653      850.350
01/24/2021  14:23:00     -289.275       37.778       24.769      321.409      161.622      110.240   103304.016    26121.658    12152.953       11.362        7.079      291.731      115.213        0.156      334.592        4.663      850.345
01/24/2021  14:24:00     -324.327       33.859        4.050      354.616      156.988      109.473   125752.240    24645.095    11984.288       13.433        8.119      326.090      112.141        0.118      334.610        4.693      850.319
01/24/2021  14:25:00     -392.859       55.837       -1.240      234.899      173.805      104.651    55177.351    30208.012    10951.926       12.688        4.817      396.807      105.641        0.071      334.456        4.436      850.357
01/24/2021  14:26:00     -434.470      159.279       -6.891      246.204      210.227      106.003    60616.328    44195.191    11236.645       16.509        5.802      462.746      110.434        0.057      334.431        4.395      850.351
01/24/2021  14:27:00     -388.772       32.018       19.942      294.508      178.847      120.822    86735.029    31986.341    14598.005       14.291        6.666      390.089      123.097        0.100      334.356        4.272      850.325
01/24/2021  14:28:00     -403.394       91.212        3.161      263.156      160.496       96.815    69251.234    25758.984     9373.178       13.770        5.219      413.577      112.859        0.074      334.299        4.177      850.337
01/24/2021  14:29:00     -407.623       44.358       16.040      275.795      198.020      108.414    76062.770    39211.951    11753.629       14.768        6.351      410.030      124.411        0.092      334.294        4.168      850.310
01/24/2021  14:30:00     -529.766       96.213       -1.141      277.206      177.459      111.011    76843.221    31491.532    12323.512       20.526        6.033      538.432       99.621        0.034      334.250        4.096      850.284
01/24/2021  14:31:00     -325.347       55.361       16.988      301.500      182.454       99.657    90902.339    33289.280     9931.418       12.163        6.706      330.023       86.985        0.069      334.308        4.192      850.315
01/24/2021  14:32:00     -567.094       75.147      -11.843      284.457      204.375      115.794    80915.604    41769.068    13408.186       23.171        6.805      572.052      114.410        0.040      334.191        3.997      850.306
01/24/2021  14:33:00     -436.238      123.327       14.008      300.358      169.267       96.991    90215.111    28651.313     9407.168       16.696        6.414      453.336      121.147        0.071      334.238        4.075      850.366
01/24/2021  14:34:00     -251.879       49.158       12.823      145.135      123.441       87.593    21064.141    15237.625     7672.512        5.499        2.199      256.632       69.540        0.073      334.274        4.135      850.363
01/24/2021  14:35:00     -287.783       84.227        4.080      387.590      160.959       99.675   150226.320    25907.907     9935.092       13.796        9.303      299.855      109.851        0.134      334.268        4.126      850.374
01/24/2021  14:36:00     -526.593       79.877        4.751      283.480      200.308      121.483    80360.875    40123.391    14758.225       20.944        6.762      532.616      133.891        0.063      334.096        3.840      850.414
01/24/2021  14:37:00     -529.087      153.102       26.429      281.690      228.589      114.611    79349.067    52252.823    13135.793       22.437        7.237      550.793      103.165        0.035      334.031        3.731      850.387
01/24/2021  14:38:00     -444.177       56.036        1.455      246.940      172.661      104.991    60979.327    29811.946    11023.062       15.110        5.091      447.698      113.790        0.065      334.046        3.755      850.392
01/24/2021  14:39:00     -498.029      154.511       -3.984      280.421      157.272      102.868    78635.772    24734.489    10581.789       19.291        5.698      521.446      119.477        0.052      333.897        3.511      850.373
01/24/2021  14:40:00     -241.710        7.285        2.885      336.759      151.734      100.908   113406.652    23023.223    10182.334       10.252        7.331      241.820      100.337        0.172      334.028        3.728      850.336
01/24/2021  14:41:00     -388.170       78.523      -24.949      219.119      144.781       97.326    48013.028    20961.483     9472.401       11.794        3.922      396.032       92.963        0.055      333.879        3.480      850.292
01/24/2021  14:42:00     -294.221      101.633        0.891      198.593      147.966       92.066    39439.121    21894.037     8476.210        8.334        3.490      311.280       85.593        0.076      333.967        3.627      850.285
01/24/2021  14:43:00     -356.082       60.124      -10.197      213.039      175.207       77.013    45385.818    30697.580     5930.990       10.625        4.101      361.123       87.624        0.059      333.857        3.443      850.280
01/24/2021  14:44:00     -229.400       -4.470        2.370      285.173      200.195      111.382    81323.910    40078.172    12405.850        9.320        6.690      229.444      109.025        0.226      333.898        3.513      850.282
01/24/2021  14:45:00     -399.978       93.806       -3.538      200.520      174.469       98.749    40208.101    30439.360     9751.449       12.458        4.020      410.831      101.506        0.061      333.850        3.431      850.328
01/24/2021  14:46:00     -302.527       84.099       15.564      207.395      167.377      107.083    43012.872    28015.140    11466.860        9.065        4.125      313.999       95.868        0.093      333.833        3.405      850.283
01/24/2021  14:47:00     -374.199       55.677      -14.227      275.523      209.681      112.668    75912.862    43966.323    12694.075       13.792        6.629      378.318      110.888        0.086      333.882        3.485      850.189
01/24/2021  14:48:00     -500.517      173.509      -23.521      236.939      234.229      110.530    56140.137    54863.149    12216.927       20.217        6.161      529.739      126.158        0.057      333.899        3.512      850.142
01/24/2021  14:49:00     -405.725       55.825       -6.091      267.002      197.151       92.839    71290.154    38868.704     8619.169       14.325        5.939      409.547       96.423        0.055      333.997        3.676      850.130
01/24/2021  14:50:00     -500.443      132.092        9.292      320.689      181.568      114.707   102841.672    32966.983    13157.596       20.844        7.448      517.582      107.949        0.043      333.980        3.647      850.138
01/24/2021  14:51:00     -391.946       75.801       -7.461      199.930      145.322       88.520    39971.836    21118.381     7835.841       11.416        3.446      399.208       81.556        0.042      334.023        3.720      850.150
01/24/2021  14:52:00     -135.441       -5.607        9.444      156.993      162.789       82.756    24646.845    26500.263     6848.478        3.822        2.900      135.557       65.734        0.235      334.127        3.892      850.104
01/24/2021  14:53:00     -375.477       41.998       11.718      283.488      155.589      117.471    80365.565    24207.986    13799.342       13.060        5.919      377.819      101.156        0.072      334.095        3.838      850.126
01/24/2021  14:54:00     -571.311      -14.016       -1.772      337.944      221.744      128.805   114206.343    49170.559    16590.815       25.324        8.998      571.483      133.175        0.054      333.996        3.674      850.149
01/24/2021  14:55:00     -346.551       36.395        2.781      186.908      132.774       86.739    34934.599    17628.906     7523.622        9.075        3.004      348.457       81.681        0.055      334.046        3.757      850.178
01/24/2021  14:56:00     -267.879       79.780       -4.942      142.879      121.929       63.853    20414.494    14866.625     4077.142        5.874        1.968      279.507       60.033        0.046      334.109        3.861      850.166
01/24/2021  14:57:00     -385.925       80.053       -0.547      200.936      178.787       91.361    40375.463    31964.873     8346.831       11.800        4.034      394.141      101.774        0.067      334.066        3.791      850.197
01/24/2021  14:58:00     -237.678       56.612      -12.701      154.971      116.795       69.151    24016.153    13641.123     4781.868        5.114        2.122      244.328       64.755        0.070      334.079        3.811      850.182
01/24/2021  14:59:00     -500.084      125.413      -40.078      244.013      215.402       93.964    59542.392    46397.810     8829.246       19.107        5.738      515.570       79.215        0.024      334.018        3.711      850.157
01/24/2021  15:00:00     -522.628      140.956       -5.947      288.631      158.998      110.244    83307.916    25280.245    12153.824       20.687        6.037      541.303      109.405        0.041      333.989        3.664      850.127
01/24/2021  15:01:00     -431.519       79.162      -14.117      168.645      145.491       83.888    28441.234    21167.496     7037.115       12.465        2.832      438.720       77.898        0.032      334.024        3.721      850.167
01/24/2021  15:02:00     -230.457       47.431       14.963      156.182      133.563       75.623    24392.884    17839.012     5718.896        5.176        2.398      235.288       75.149        0.102      334.049        3.762      850.163
01/24/2021  15:03:00     -242.354       53.812       -6.803      181.450      108.604       74.187    32924.254    11794.825     5503.775        5.594        2.511      248.256       59.431        0.057      334.044        3.754      850.153
01/24/2021  15:04:00     -411.306       54.319        2.632      231.849      128.856       87.545    53754.112    16603.800     7664.175       12.506        3.901      414.877      102.187        0.061      333.980        3.648      850.142
01/24/2021  15:05:00     -322.574      100.917        3.873      144.514      119.131       75.479    20884.333    14192.196     5697.066        7.750        2.039      337.991       64.541        0.036      333.992        3.669      850.143
01/24/2021  15:06:00     -386.364       94.194        7.777      170.105      121.763       66.812    28935.598    14826.197     4463.811       10.321        2.411      397.680       58.333        0.022      333.997        3.676      850.138
01/24/2021  15:07:00     -288.703       -2.496       -5.775      231.893      126.229       85.325    53774.224    15933.785     7280.366        8.017        3.849      288.714      109.986        0.145      334.085        3.821      850.118
01/24/2021  15:08:00     -431.319      -23.506      -19.560      178.700      150.498       89.244    31933.835    22649.776     7964.469       12.475        3.127      431.959       84.874        0.039      334.051        3.766      850.128
01/24/2021  15:09:00     -355.998      -22.001      -17.176      260.004      177.257       94.188    67602.211    31419.988     8871.398       11.768        5.395      356.677      111.951        0.099      334.060        3.779      850.112
01/24/2021  15:10:00     -295.161        5.207       -8.377      238.667      143.874       99.258    56961.835    20699.664     9852.085        8.735        4.376      295.207      104.596        0.126      334.087        3.825      850.123
01/24/2021  15:11:00     -448.775      144.347        4.822      307.180      151.328      106.929    94359.295    22900.251    11433.806       17.545        6.435      471.419      113.872        0.058      334.047        3.760      850.137
01/24/2021  15:12:00     -411.827       80.670        6.974      176.581      181.089       91.810    31180.750    32793.057     8429.044       12.426        3.620      419.654       75.393        0.032      334.027        3.726      850.154
01/24/2021  15:13:00     -441.098      106.865       -6.661      197.124      156.088       89.795    38857.999    24363.370     8063.220       13.864        3.564      453.859       77.702        0.029      334.055        3.771      850.157
01/24/2021  15:14:00     -464.794       92.381       12.128      221.801      135.319       82.701    49195.825    18311.343     6839.403       14.951        3.717      473.886       82.216        0.030      334.010        3.698      850.170
01/24/2021  15:15:00     -393.030       82.219      -14.679      156.782      118.609       60.729    24580.676    14068.024     3688.001       10.188        2.117      401.538       46.755        0.014      334.069        3.793      850.170
01/24/2021  15:16:00     -151.408      -19.470       -4.593      142.813      105.893       55.361    20395.417    11213.309     3064.793        2.899        1.734      152.654       55.801        0.134      334.097        3.842      850.141
01/24/2021  15:17:00     -178.855        7.652        2.175      247.107      109.122       71.075    61061.958    11907.535     5051.685        5.502        3.901      179.019       71.390        0.159      334.106        3.859      850.131
01/24/2021  15:18:00     -484.425      124.077       13.986      231.420      166.897       96.517    53555.171    27854.547     9315.543       17.047        4.536      500.063       83.439        0.028      333.992        3.668      850.107
01/24/2021  15:19:00     -435.503       93.952       13.591      230.488      175.930      101.619    53124.559    30951.335    10326.503       14.652        4.720      445.522       95.601        0.046      333.991        3.667      850.112
01/24/2021  15:20:00     -380.181       65.022       -6.417      209.379      148.998       95.509    43839.734    22200.411     9121.901       11.197        3.758      385.701       97.830        0.064      334.017        3.708      850.128
01/24/2021  15:21:00     -108.741       19.315        6.064      191.349      136.399       88.666    36614.327    18604.770     7861.677        3.764        3.154      110.443       86.493        0.613      334.048        3.763      850.093
01/24/2021  15:22:00     -324.664       42.573       -4.341      244.987      154.012      115.878    60018.748    23719.551    13427.646       10.218        4.858      327.443       59.163        0.033      334.016        3.708      850.072
01/24/2021  15:23:00     -265.455       40.322      -14.469      322.159      210.791      131.593   103786.368    44432.652    17316.678       11.888        8.277      268.499       60.836        0.051      334.025        3.723      850.048
01/24/2021  15:24:00     -332.485       86.388      -15.379      247.088      198.425      106.881    61052.370    39372.580    11423.446       11.502        5.592      343.524      107.234        0.097      333.975        3.640      850.028
01/24/2021  15:25:00     -310.629      -26.031      -29.597      303.305      151.766      119.872    91994.087    23033.067    14369.275       11.369        6.470      311.718       64.030        0.042      333.987        3.662      850.024
01/24/2021  15:26:00     -200.954      -28.195      -13.422      277.212      122.352      133.383    76846.725    14969.977    17790.919        7.546        5.480      202.922      139.948        0.476      334.067        3.794      850.018
01/24/2021  15:27:00     -351.950       82.611       -6.336      217.934      195.435       99.620    47495.186    38194.657     9924.232       11.315        4.781      361.516       92.656        0.066      333.918        3.545      849.962
01/24/2021  15:28:00     -527.422      -63.503      -12.332      222.022      168.548      101.242    49293.551    28408.390    10249.846       18.514        4.398      531.231      105.220        0.039      333.928        3.560      849.931
01/24/2021  15:29:00     -288.003      -19.531       15.207      300.807      142.672      116.226    90484.760    20355.407    13508.555       10.393        6.217      288.664      113.772        0.155      333.965        3.623      849.961
01/24/2021  15:30:00     -261.646       -3.560       -4.819      205.011      151.665      106.204    42029.650    23002.273    11279.221        7.239        3.816      261.670      101.626        0.151      333.954        3.604      849.955
01/24/2021  15:31:00     -253.367      -13.345      -13.395      219.665      138.039       84.537    48252.708    19054.758     7146.493        6.949        3.723      253.718       79.822        0.099      334.000        3.681      849.945
01/24/2021  15:32:00     -354.450       75.854       -9.024      212.237      113.443      113.790    45044.653    12869.208    12948.123       10.115        3.543      362.476       64.415        0.032      333.977        3.644      849.941
01/24/2021  15:33:00     -415.973       83.801        4.336      204.469      153.815       86.599    41807.566    23659.014     7499.344       12.650        3.648      424.330       73.245        0.030      333.937        3.576      849.925
01/24/2021  15:34:00     -507.574       25.747      -20.175      261.447      190.849      126.373    68354.282    36423.413    15970.169       18.970        6.037      508.227       74.351        0.021      333.962        3.618      849.880
01/24/2021  15:35:00     -168.551       -6.609      -14.326      270.896      140.817      108.526    73384.795    19829.536    11777.893        6.680        5.250      168.680       78.661        0.217      334.037        3.743      849.872
01/24/2021  15:36:00     -232.222       78.379      -18.817      180.214      139.436       68.793    32477.099    19442.430     4732.529        5.853        2.833      245.093       59.043        0.058      334.002        3.686      849.854
01/24/2021  15:37:00     -256.130       16.935       -7.512      162.594      108.813       73.691    26436.833    11840.217     5430.332        5.482        2.185      256.689       48.000        0.035      334.005        3.689      849.845
01/24/2021  15:38:00     -334.608       -0.325      -17.344      237.407      150.679      113.698    56362.083    22704.300    12927.227       10.211        4.600      334.608       42.689        0.016      334.041        3.749      849.834
01/24/2021  15:39:00     -268.693       18.341       17.259      215.408      155.447      100.658    46400.510    24163.833    10131.953        7.675        4.035      269.318       96.070        0.127      334.022        3.717      849.827
01/24/2021  15:40:00     -318.909      -87.313      -13.801      327.080      202.700      150.223   106981.199    41087.191    22566.862       14.004        8.532      330.646       76.997        0.054      334.059        3.780      849.818
01/24/2021  15:41:00     -140.644      -37.652        1.998      252.130      168.627      117.009    63569.761    28435.227    13691.174        6.343        5.285      145.596      117.049        0.646      334.039        3.746      849.811
01/24/2021  15:42:00     -264.903      -59.574      -13.799      259.708      132.416      109.011    67448.208    17533.890    11883.415        8.537        4.843      271.519       92.945        0.117      334.097        3.843      849.791
01/24/2021  15:43:00     -275.930      -33.925        2.254      180.067      137.382       77.023    32424.172    18873.937     5932.490        6.725        2.862      278.007       72.640        0.068      334.064        3.787      849.797
01/24/2021  15:44:00     -239.039      -16.547      -11.157      212.654      124.108      114.259    45221.749    15402.695    13055.133        6.559        3.684      239.611       90.381        0.142      334.141        3.915      849.822
01/24/2021  15:45:00     -134.411       -8.458       22.618      204.308      128.848       88.493    41741.593    16601.769     7831.076        4.240        3.309      134.677       96.090        0.509      334.077        3.810      849.806
01/24/2021  15:46:00     -217.173       53.581        2.711      180.677      119.500       62.007    32644.081    14280.181     3844.870        5.039        2.538      223.685       66.201        0.088      334.097        3.844      849.793
01/24/2021  15:47:00     -374.715       53.398       -5.482      264.938      186.864       98.907    70192.355    34918.097     9782.666       12.907        5.745      378.501       90.371        0.057      334.079        3.811      849.820
01/24/2021  15:48:00     -188.390      -31.220      -19.515      134.245      121.224       64.261    18021.771    14695.249     4129.415        3.684        1.842      190.959       65.107        0.116      334.107        3.858      849.834
01/24/2021  15:49:00     -309.693      -25.062      -19.295      306.620      127.490      118.423    94015.538    16253.713    14024.081       11.057        6.215      310.706       43.520        0.020      334.079        3.814      849.814
01/24/2021  15:50:00     -189.901      -32.198       -3.081      289.930      145.164      118.231    84059.123    21072.656    13978.544        7.808        5.956      192.611       95.724        0.247      334.096        3.842      849.833
01/24/2021  15:51:00     -187.917       18.491       -1.942      224.261      118.443       84.012    50293.108    14028.677     7057.955        5.350        3.569      188.825       88.260        0.218      334.043        3.754      849.846
01/24/2021  15:52:00     -130.831        1.197        2.142      178.402      122.195       86.859    31827.246    14931.574     7544.406        3.570        2.715      130.836       94.032        0.517      334.022        3.718      849.872
01/24/2021  15:53:00     -356.282        9.968       -6.769      203.100      140.737       87.285    41249.493    19806.953     7618.730        9.786        3.434      356.422       82.688        0.054      333.940        3.581      849.876
01/24/2021  15:54:00     -207.081      -43.331       10.341      186.544      121.751       90.940    34798.718    14823.191     8270.111        5.137        2.895      211.566       84.984        0.161      333.969        3.631      849.880
01/24/2021  15:55:00     -159.206       42.818       -8.311      270.402      106.403      114.486    73117.380    11321.583    13107.025        6.238        4.877      164.863      139.342        0.714      334.012        3.704      849.857
01/24/2021  15:56:00     -342.541       40.228      -23.492      179.619      135.503       73.129    32262.991    18360.979     5347.901        8.773        2.799      344.895       55.993        0.026      333.957        3.610      849.856
01/24/2021  15:57:00     -226.021       58.822       24.622      197.643      111.061       67.914    39062.881    12334.438     4612.345        5.557        2.800      233.550       77.846        0.111      333.982        3.651      849.852
01/24/2021  15:58:00     -143.346       77.729       10.269      190.527       91.860       68.108    36300.452     8438.174     4638.740        3.803        2.469      163.064       65.573        0.162      333.989        3.663      849.852
01/24/2021  15:59:00     -271.978       64.397      -13.322      256.378      134.127      126.301    65729.610    17990.017    15951.936        8.896        4.984      279.498      115.454        0.171      333.960        3.616      849.847
01/24/2021  16:00:00     -318.412       95.518       19.311      257.500      150.641      100.529    66306.266    22692.737    10106.055       10.497        4.955      332.430       99.638        0.090      333.889        3.498      849.848
01/24/2021  16:01:00     -512.210       48.501       -6.931      275.841      187.825      109.013    76088.048    35278.073    11883.829       19.398        6.162      514.502      111.184        0.047      333.848        3.429      849.845
01/24/2021  16:02:00     -422.278       47.622       -4.190      262.296      167.042      124.424    68799.365    27902.873    15481.322       14.637        5.609      424.954       37.797        0.008      333.891        3.500      849.844
01/24/2021  16:03:00     -183.314        3.346       13.885      201.757      163.576       84.592    40705.732    26757.128     7155.752        5.420        3.731      183.345       74.486        0.165      333.893        3.505      849.855
01/24/2021  16:04:00     -326.291       84.662       -6.030      238.963      146.749       82.493    57103.095    21535.274     6805.071        9.954        4.272      337.096       67.468        0.040      333.885        3.492      849.862
01/24/2021  16:05:00     -274.022      108.276       -8.810      227.728      156.529       86.957    51859.880    24501.395     7561.549        8.539        4.196      294.638       94.531        0.103      333.843        3.420      849.867
01/24/2021  16:06:00     -169.828      -43.725        5.378      218.273       87.502       82.526    47643.027     7656.681     6810.480        4.643        3.106      175.366       62.385        0.127      333.931        3.568      849.874
01/24/2021  16:07:00     -248.373      -81.082        0.116      173.006      124.749       84.655    29931.049    15562.316     7166.412        6.045        2.633      261.272       94.998        0.132      333.860        3.448      849.854
01/24/2021  16:08:00     -216.509      -79.777       -3.758      170.568       98.949       73.502    29093.341     9790.934     5402.491        4.876        2.214      230.739       85.303        0.137      333.840        3.415      849.832
01/24/2021  16:09:00     -238.771       59.854       -9.307      130.732      167.767       68.200    17090.857    28145.819     4651.180        5.527        2.494      246.158       60.337        0.060      333.844        3.421      849.814
01/24/2021  16:10:00     -281.994       37.859      -24.726      222.259      126.048       71.955    49398.866    15888.076     5177.537        7.600        3.523      284.524       82.723        0.085      333.815        3.374      849.797
01/24/2021  16:11:00     -303.185       17.126        6.904      236.710      158.328       99.840    56031.818    25067.903     9968.041        9.164        4.553      303.668       96.561        0.101      333.778        3.311      849.752
01/24/2021  16:12:00     -314.242       43.097        1.195      307.158      178.892       98.314    94346.208    32002.398     9665.620       11.828        6.801      317.184      106.692        0.113      333.795        3.341      849.769
01/24/2021  16:13:00     -388.809      108.215        0.287      165.577      134.028       87.231    27415.621    17963.410     7609.203       10.792        2.649      403.588       78.570        0.038      333.774        3.306      849.779
01/24/2021  16:14:00     -412.419       68.137      -21.432      213.399      134.357      111.138    45539.162    18051.745    12351.668       12.555        3.797      418.010       17.234        0.002      333.782        3.319      849.787
01/24/2021  16:15:00     -376.580       75.049        7.787      204.507      129.135       77.025    41823.310    16675.944     5932.785       10.595        3.222      383.985       79.206        0.043      333.760        3.281      849.778
01/24/2021  16:16:00     -340.103       85.593      -15.243      154.210      131.177       81.631    23780.577    17207.362     6663.643        8.543        2.383      350.708       70.987        0.041      333.772        3.303      849.768
01/24/2021  16:17:00     -314.840       14.540      -14.989      207.380      120.247       88.478    43006.438    14459.361     7828.375        8.241        3.265      315.175      101.675        0.104      333.778        3.314      849.769
01/24/2021  16:18:00     -197.836       34.563      -15.679      303.906      144.403      149.011    92358.820    20852.227    22204.326        8.797        6.771      200.832      168.485        0.704      333.901        3.520      849.750
01/24/2021  16:19:00     -419.474       43.286        3.767      214.293      157.229       87.243    45921.369    24720.867     7611.386       12.803        3.913      421.701       93.223        0.049      333.770        3.300      849.731
01/24/2021  16:20:00     -200.384       16.731       17.097      202.900      110.817       73.678    41168.526    12280.403     5428.403        4.979        2.944      201.081       88.499        0.194      333.816        3.376      849.741
01/24/2021  16:21:00     -329.536       62.344       -6.420      207.187      167.967      104.602    42926.340    28212.807    10941.530        9.728        4.104      335.382       90.126        0.072      333.846        3.426      849.755
01/24/2021  16:22:00     -378.692      117.737        6.645      199.845      122.475       76.192    39938.125    15000.084     5805.176       10.902        3.037      396.572       73.501        0.034      333.786        3.326      849.755
01/24/2021  16:23:00     -433.252       44.067      -15.104      295.412      110.186      129.562    87268.413    12140.924    16786.263       15.301        5.810      435.488      145.494        0.112      333.845        3.425      849.748
01/24/2021  16:24:00     -298.912      -19.339       -2.028      283.250      142.843       96.199    80230.538    20404.158     9254.262        9.978        5.494      299.537       96.190        0.103      333.771        3.300      849.751
01/24/2021  16:25:00     -294.242      123.669      -20.661      264.195      152.082      103.951    69799.191    23128.909    10805.899       10.299        5.187      319.175       91.509        0.082      333.782        3.319      849.735
01/24/2021  16:26:00     -204.305       -8.436       -3.496      223.242      156.433       89.533    49836.857    24471.295     8016.246        6.206        4.116      204.479       68.311        0.112      333.733        3.238      849.708
01/24/2021  16:27:00     -394.479       67.946        7.549      237.136      138.854       83.798    56233.363    19280.499     7022.034       12.139        4.127      400.287       87.201        0.047      333.701        3.184      849.721
01/24/2021  16:28:00     -429.528      105.161       12.209      223.345      137.471       88.248    49882.814    18898.204     7787.706       13.612        3.828      442.214       95.121        0.046      333.682        3.155      849.738
01/24/2021  16:29:00     -334.753       80.700      -14.462      185.021      148.846       81.437    34232.780    22155.075     6632.030        9.089        3.151      344.343       43.873        0.016      333.691        3.167      849.736
01/24/2021  16:30:00     -414.736        0.504       -8.280      278.437      128.605      105.853    77527.207    16539.254    11204.832       13.865        5.264      414.736       95.440        0.053      333.720        3.216      849.731
01/24/2021  16:31:00     -291.885       27.091      -31.370      334.064      126.619      156.614   111598.581    16032.270    24528.071       11.950        7.608      293.139      181.876        0.385      333.805        3.359      849.728
01/24/2021  16:32:00     -293.243       48.011       -8.231      160.283       92.910       59.514    25690.692     8632.222     3541.906        6.311        1.893      297.147       47.806        0.026      333.729        3.231      849.725
01/24/2021  16:33:00     -191.031       26.403        7.496      181.420       91.560       57.252    32913.052     8383.286     3277.833        4.090        2.229      192.847       61.773        0.103      333.748        3.263      849.712
01/24/2021  16:34:00     -321.136       85.172       -0.638      190.589      113.870       83.928    36324.268    12966.440     7043.835        8.335        2.817      332.239       82.209        0.061      333.712        3.204      849.686
01/24/2021  16:35:00     -283.081       40.936       -6.382      154.877      122.388       71.867    23986.898    14978.729     5164.870        6.298        2.207      286.025       59.894        0.044      333.723        3.221      849.672
01/24/2021  16:36:00     -353.750       26.331        9.424      180.754      145.050       76.959    32672.183    21039.634     5922.734        9.276        2.982      354.729       72.682        0.042      333.708        3.196      849.678
01/24/2021  16:37:00     -364.915       52.783        1.997      169.096      129.918       81.959    28593.412    16878.753     6717.299        9.406        2.609      368.713       74.544        0.041      333.703        3.188      849.699
01/24/2021  16:38:00     -255.871       36.942      -16.857      140.332       96.073       66.939    19693.170     9229.938     4480.817        5.025        1.670      258.524       31.310        0.015      333.694        3.173      849.694
01/24/2021  16:39:00      -67.427       32.320      -13.885      275.951       86.582      118.315    76148.802     7496.479    13998.484        5.169        4.882       74.773      146.314        3.829      333.875        3.476      849.674
01/24/2021  16:40:00      -90.367       21.582       -7.688      108.960      101.204       55.317    11872.363    10242.173     3059.964        1.693        1.259       92.909       43.437        0.219      333.763        3.289      849.669
01/24/2021  16:41:00     -302.733        3.392        1.512      232.073      139.326       84.515    53857.915    19411.681     7142.737        8.602        4.021      302.752       85.131        0.079      333.667        3.129      849.640
01/24/2021  16:42:00     -480.135      115.871      -18.258      167.709      126.998       86.694    28126.285    16128.582     7515.794       14.802        2.589      493.919       56.408        0.013      333.625        3.057      849.643
01/24/2021  16:43:00     -326.889       88.596       -6.015      255.780      152.027      107.127    65423.336    23112.124    11476.200       10.736        5.001      338.682      106.071        0.098      333.694        3.174      849.652
01/24/2021  16:44:00     -228.388       60.630      -17.972      285.708      108.563      133.615    81628.805    11785.876    17853.042        8.369        5.563      236.299      155.676        0.434      333.755        3.277      849.665
01/24/2021  16:45:00     -268.021       83.201       -9.009      326.773      148.854      115.028   106780.656    22157.365    13231.345       11.047        7.108      280.638       56.934        0.041      333.634        3.075      849.674
01/24/2021  16:46:00     -389.287       99.750      -12.808      227.542      145.893      117.532    51775.307    21284.734    13813.664       12.425        4.344      401.864      107.056        0.071      333.603        3.023      849.689
01/24/2021  16:47:00     -191.641       20.120       -5.809      190.507      101.136       76.640    36293.107    10228.407     5873.702        4.477        2.620      192.694       82.004        0.181      333.590        3.003      849.655
01/24/2021  16:48:00      -16.387        8.360        6.211      120.818       66.342       53.278    14596.908     4401.295     2838.531        1.110        1.092       18.396       47.407        6.641      333.633        3.076      849.639
01/24/2021  16:49:00     -151.235       81.839      -14.889      126.223      110.253       58.004    15932.251    12155.705     3364.474        3.062        1.573      171.959       48.602        0.080      333.611        3.039      849.640
01/24/2021  16:50:00     -137.290       38.434       10.478      132.353      123.516       71.776    17517.333    15256.257     5151.755        2.917        1.896      142.568       55.589        0.152      333.627        3.064      849.618
01/24/2021  16:51:00     -125.244       11.260       26.582      180.289      130.571       81.004    32503.988    17048.912     6561.608        3.630        2.806      125.749       80.850        0.413      333.582        2.989      849.613
01/24/2021  16:52:00      -75.472       41.711      -26.860      396.380      105.371      186.064   157117.098    11103.046    34619.994       10.545       10.142       86.231      251.500        8.506      333.775        3.314      849.619
01/24/2021  16:53:00     -208.720       18.658       -9.633      263.724      109.420      105.442    69550.252    11972.756    11118.003        6.830        4.632      209.552       87.604        0.175      333.587        2.999      849.631
01/24/2021  16:54:00     -154.851       87.687       -7.618      291.647      129.029      134.015    85058.080    16648.483    17960.027        7.567        5.983      177.954      149.228        0.703      333.616        3.047      849.650
01/24/2021  16:55:00     -207.244       -3.600       -4.385      305.932      157.509      122.596    93594.402    24809.123    15029.686        8.818        6.672      207.275      101.587        0.240      333.515        2.879      849.638
01/24/2021  16:56:00      -93.900      -11.929        0.061      273.262      135.000      131.702    74672.056    18224.952    17345.505        5.958        5.512       94.654      125.822        1.767      333.539        2.919      849.639
01/24/2021  16:57:00     -158.040       14.779      -23.004      345.097       94.481      149.384   119092.129     8926.579    22315.624        8.800        7.517      158.730      183.341        1.334      333.606        3.031      849.631
01/24/2021  16:58:00      -77.331       24.201       11.679      246.074      162.410      113.016    60552.412    26376.985    12772.577        5.318        4.985       81.030      116.863        2.080      333.554        2.943      849.634
01/24/2021  16:59:00     -189.005       62.233      -27.756      177.435      128.839       80.201    31483.317    16599.613     6432.162        4.743        2.726      198.987       83.491        0.176      333.468        2.799      849.612
01/24/2021  17:00:00     -184.320      -15.162        5.635      245.066      119.576      108.739    60057.486    14298.487    11824.135        6.019        4.309      184.942       94.826        0.263      333.520        2.886      849.592
01/24/2021  17:01:00     -321.562      136.229      -26.541      353.487      115.030      158.498   124952.841    13231.842    25121.651       14.295        8.165      349.228      192.407        0.304      333.535        2.914      849.595
01/24/2021  17:02:00     -122.934       55.049      -46.696      375.066      104.741      172.788   140674.480    10970.732    29855.767       10.087        9.075      134.697      243.991        3.281      333.635        3.081      849.572
01/24/2021  17:03:00     -131.157       28.070      -25.405      120.461      112.322       58.855    14510.794    12616.160     3463.861        2.461        1.530      134.127       51.403        0.147      333.491        2.840      849.574
01/24/2021  17:04:00     -168.367       68.148        6.094      316.646      106.521      129.475   100264.891    11346.717    16763.803        8.067        6.419      181.636      147.707        0.661      333.552        2.940      849.593
01/24/2021  17:05:00     -377.102      141.566       -2.420      161.770      159.980       68.528    26169.428    25593.456     4696.144       10.934        2.823      402.799       66.120        0.027      333.422        2.722      849.594
01/24/2021  17:06:00     -379.480      118.144       10.230      286.094      144.709      125.837    81849.851    20940.592    15835.036       13.832        5.931      397.445      110.406        0.077      333.465        2.797      849.642
01/24/2021  17:07:00     -159.862       45.951       12.628      248.258      118.190      114.754    61631.868    13968.814    13168.486        5.828        4.438      166.335      119.685        0.518      333.485        2.829      849.675
01/24/2021  17:08:00     -161.023       31.258       11.863      142.479       73.932       56.038    20300.323     5465.874     3140.227        2.797        1.445      164.029       56.319        0.118      333.438        2.752      849.674
01/24/2021  17:09:00       14.556      -17.829      -26.597      240.401       71.325      122.791    57792.413     5087.243    15077.661        3.958        3.898       23.017      163.879       50.695      333.613        3.045      849.643
01/24/2021  17:10:00      -22.293       60.864       13.113       81.869       49.600       37.664     6702.533     2460.159     1418.548        0.748        0.529       64.818       33.336        0.264      333.490        2.840      849.624
01/24/2021  17:11:00      -34.644       56.081      -14.367      233.730       47.889      115.145    54629.552     2293.374    13258.362        3.735        3.509       65.919      154.437        5.489      333.547        2.934      849.596
01/24/2021  17:12:00     -129.098       37.404        6.825      115.267       92.330       56.946    13286.549     8524.875     3242.831        2.158        1.253      134.408       48.034        0.128      333.490        2.839      849.593
01/24/2021  17:13:00     -131.525      -14.538       12.608      125.602       66.800       52.263    15775.875     4462.274     2731.442        2.031        1.148      132.327       43.525        0.108      333.471        2.805      849.604
01/24/2021  17:14:00     -191.593       45.285      -30.452      281.339       78.229      133.110    79151.729     6119.849    17718.382        7.132        5.149      196.872      173.975        0.781      333.565        2.962      849.605
01/24/2021  17:15:00     -204.750       68.264        2.581      193.985       90.937       77.681    37630.279     8269.450     6034.283        4.925        2.597      215.830       59.748        0.077      333.508        2.867      849.615
01/24/2021  17:16:00     -186.161       70.919      -20.900      339.915      126.428      150.695   115542.259    15983.915    22708.942        9.714        7.712      199.212      171.956        0.745      333.554        2.946      849.617
01/24/2021  17:17:00      -73.651       27.140        1.569      260.829       83.131      118.411    68031.724     6910.789    14021.175        4.754        4.448       78.492      136.020        3.003      333.602        3.024      849.631
01/24/2021  17:18:00     -168.874       10.498        2.978      313.365       93.032      146.270    98197.893     8654.961    21394.943        7.841        6.412      169.200      168.365        0.990      333.606        3.031      849.663
01/24/2021  17:19:00      -91.347      -29.632       -2.029      252.039      133.758      110.102    63523.708    17891.280    12122.411        5.136        4.677       96.033      135.057        1.978      333.667        3.131      849.676
01/24/2021  17:20:00      -54.215      -35.692      -18.562      202.990      101.532       96.743    41205.114    10308.842     9359.118        3.270        3.044       64.909      128.137        3.897      333.613        3.044      849.680
01/24/2021  17:21:00       50.188       10.553       -6.839      272.976       41.849      126.029    74516.025     1751.297    15883.390        4.739        4.608       51.285      182.501       12.663      333.739        3.253      849.661
01/24/2021  17:22:00      -29.565       62.231       -0.832      155.579       38.670       72.518    24204.683     1495.392     5258.885        1.785        1.548       68.897       98.179        2.031      333.740        3.252      849.654
01/24/2021  17:23:00      -33.879       59.093       -2.262       23.105       31.761       18.133      533.822     1008.730      328.800        0.326        0.094       68.116       19.050        0.078      333.616        3.049      849.663
01/24/2021  17:24:00       26.044       41.588       -5.200      181.816       57.319       88.090    33057.073     3285.496     7759.783        2.326        2.205       49.069      122.176        6.199      333.642        3.092      849.670
01/24/2021  17:25:00       11.611        1.651      -19.047      260.461       40.534      124.936    67840.031     1642.998    15608.890        4.278        4.255       11.727      178.649      232.057      333.686        3.167      849.696
01/24/2021  17:26:00       13.019       -7.262      -13.450       27.623       31.123       17.789      763.030      968.625      316.454        0.123        0.102       14.907       15.240        1.045      333.626        3.066      849.739
01/24/2021  17:27:00      -42.720       15.031      -13.260      219.913       47.865       95.613    48361.581     2291.076     9141.900        3.100        2.990       45.287      126.129        7.757      333.611        3.040      849.776
01/24/2021  17:28:00      -73.620       12.873        4.341      103.503       90.482       52.887    10712.856     8187.026     2797.033        1.365        1.085       74.737       38.534        0.266      333.571        2.972      849.768
01/24/2021  17:29:00     -163.872       -7.513      -17.679      234.053       75.063      100.819    54780.585     5634.510    10164.474        4.889        3.529      164.044      125.385        0.584      333.620        3.054      849.780
01/24/2021  17:30:00     -163.559       16.829       -4.624      186.383       74.326       66.969    34738.479     5524.384     4484.786        3.589        2.237      164.423       26.690        0.026      333.565        2.961      849.760
01/24/2021  17:31:00     -319.688       68.938        4.164      270.883      127.904      129.237    73377.341    16359.414    16702.265       10.668        5.322      327.037      117.785        0.130      333.593        3.009      849.752
01/24/2021  17:32:00     -286.787       76.224        5.405      174.649      156.482       70.224    30502.198    24486.493     4931.356        7.399        2.996      296.743       82.854        0.078      333.513        2.875      849.797
01/24/2021  17:33:00     -160.083       63.018       -1.671      246.699       77.858       97.400    60860.202     6061.946     9486.677        5.299        3.820      172.040       81.358        0.224      333.590        3.003      849.843
01/24/2021  17:34:00      151.131      132.464      -26.820      210.638       93.836       96.976    44368.477     8805.211     9404.387        5.183        3.129      200.966      135.671        0.456      333.649        3.100      849.795
01/24/2021  17:35:00       65.542       54.908       -4.279      250.519       77.354      126.126    62759.851     5983.708    15907.779        4.597        4.233       85.502      170.047        3.955      333.721        3.223      849.749
01/24/2021  17:36:00       48.552      185.368      -16.365      179.141       66.034       88.211    32091.599     4360.521     7781.153        4.060        2.212      191.621      121.049        0.399      333.662        3.123      849.779
01/24/2021  17:37:00      -81.955       67.119       -6.439      100.711       40.256       28.070    10142.737     1620.584      787.915        1.190        0.628      105.932       35.932        0.115      333.654        3.111      849.782
01/24/2021  17:38:00     -119.097       75.082      -27.514      198.042       51.043       94.409    39220.547     2605.355     8913.026        3.565        2.537      140.788      122.318        0.755      333.564        2.960      849.792
01/24/2021  17:39:00      -10.663       59.444        5.484      152.992       52.073       75.304    23406.459     2711.616     5670.694        1.773        1.589       60.392      100.408        2.764      333.575        2.980      849.765
01/24/2021  17:40:00      -34.704      -20.530       -7.314       34.161       38.679       21.799     1166.983     1496.103      475.179        0.241        0.157       40.322       13.941        0.120      333.640        3.088      849.772
01/24/2021  17:41:00      -51.021      -56.143       -8.881       64.034       43.178       27.461     4100.374     1864.372      754.086        0.627        0.336       75.863       22.281        0.086      333.610        3.038      849.788
01/24/2021  17:42:00       13.965      -78.685      -22.048      166.164       58.209       79.236    27610.587     3388.248     6278.293        2.207        1.864       79.915      107.312        1.803      333.771        3.306      849.783
01/24/2021  17:43:00      -75.218     -148.613      -23.545       71.514       64.925       28.462     5114.269     4215.233      810.058        1.922        0.507      166.564       27.401        0.027      333.637        3.081      849.771
01/24/2021  17:44:00      -88.966      -58.509      -12.079      202.967       53.595       97.987    41195.595     2872.414     9601.400        3.257        2.683      106.481      134.597        1.598      333.669        3.136      849.775
01/24/2021  17:45:00      -16.386      -75.500       -6.378      277.690       52.699      133.182    77112.006     2777.209    17737.420        5.180        4.881       77.258      186.566        5.832      333.847        3.432      849.752
01/24/2021  17:46:00       31.977       -5.157       14.179       58.723       56.485       33.744     3448.394     3190.565     1138.681        0.451        0.389       32.390       28.002        0.747      333.752        3.272      849.753
01/24/2021  17:47:00       67.426       25.378      -22.853      188.781       68.335       96.486    35638.205     4669.657     9309.532        2.765        2.481       72.044      127.777        3.146      333.781        3.323      849.757
01/24/2021  17:48:00       96.908        4.263      -12.127      189.610       59.695       95.192    35951.900     3563.435     9061.486        2.906        2.429       97.002      129.183        1.774      333.833        3.408      849.770
01/24/2021  17:49:00      147.552       -8.917      -14.431      191.383       56.206       89.843    36627.535     3159.148     8071.850        3.495        2.393      147.821      127.575        0.745      333.685        3.164      849.772
01/24/2021  17:50:00       85.669        8.374      -32.102      264.430       52.179      126.724    69923.145     2722.636    16058.978        4.855        4.435       86.077      180.902        4.417      333.851        3.440      849.769
01/24/2021  17:51:00      205.303       64.902      -28.566      273.826       54.770      130.584    74980.451     2999.738    17052.297        7.108        4.752      215.317      179.194        0.693      333.693        3.174      849.784
01/24/2021  17:52:00      105.648       20.744      -16.122      199.679       57.192      100.126    39871.539     3270.927    10025.170        3.250        2.658      107.665      137.097        1.621      333.695        3.179      849.786
01/24/2021  17:53:00       50.865        6.831       -4.090       47.623       60.112       32.659     2267.997     3613.409     1066.632        0.480        0.347       51.322       22.232        0.188      333.736        3.247      849.781
01/24/2021  17:54:00       82.777       -7.443      -12.326      147.788       71.491       74.477    21841.318     5110.918     5546.807        1.977        1.625       83.111       96.846        1.358      333.684        3.161      849.772
01/24/2021  17:55:00       58.848      -79.169      -10.096      136.461       44.903       66.275    18621.625     2016.305     4392.438        1.743        1.252       98.645       90.616        0.844      333.723        3.225      849.774
01/24/2021  17:56:00       28.740      -61.990       -6.525       28.459       41.420       17.421      809.915     1715.643      303.480        0.377        0.141       68.328       16.524        0.058      333.589        3.004      849.772
01/24/2021  17:57:00       24.783       14.239        2.202       39.836       34.401       21.588     1586.899     1183.398      466.039        0.203        0.162       28.583       19.534        0.467      333.657        3.114      849.784
01/24/2021  17:58:00       11.234        0.761        4.843       42.801       28.110       20.219     1831.894      790.194      408.815        0.159        0.152       11.259       15.017        1.779      333.611        3.040      849.795
01/24/2021  17:59:00      -75.753        9.565      -12.164       47.248       40.948       20.521     2232.377     1676.745      421.095        0.515        0.217       76.354       20.764        0.074      333.654        3.111      849.801
01/24/2021  18:00:00      -81.334      -36.400       -4.535       65.904       58.916       36.143     4343.279     3471.078     1306.317        0.854        0.456       89.108       32.838        0.136      333.603        3.025      849.799
01/24/2021  18:01:00      -26.990      -59.298      -22.257      178.925       26.073       84.768    32013.993      679.814     7185.572        2.230        1.994       65.152      120.713        3.433      333.504        2.862      849.792
01/24/2021  18:02:00      -41.842        5.846       -6.680       34.343       26.558       20.333     1179.466      705.313      413.449        0.206        0.115       42.249       17.234        0.166      333.646        3.098      849.771
01/24/2021  18:03:00      -24.490        6.729       11.901       30.162       26.044       19.251      909.729      678.274      370.583        0.137        0.098       25.397       15.066        0.352      333.670        3.136      849.763
01/24/2021  18:04:00      -62.803       23.814       -0.006       27.168       35.310       19.557      738.078     1246.786      382.476        0.344        0.118       67.167       19.670        0.086      333.538        2.917      849.762
01/24/2021  18:05:00      -85.602       21.782       -7.756       24.315       24.235       15.906      591.222      587.327      252.999        0.465        0.072       88.330       15.507        0.031      333.568        2.967      849.768
01/24/2021  18:06:00      -48.233       36.332       -2.683       26.599       19.956       14.156      707.494      398.225      200.395        0.248        0.065       60.386       10.897        0.033      333.564        2.960      849.763
01/24/2021  18:07:00        8.103       60.920       -5.188      147.470       30.241       70.629    21747.347      914.530     4988.414        1.572        1.383       61.456       99.984        2.647      333.603        3.027      849.773
01/24/2021  18:08:00       28.447       39.843        3.884       26.776       26.365       20.824      716.950      695.115      433.647        0.213        0.092       48.956        8.234        0.028      333.529        2.903      849.780
01/24/2021  18:09:00       40.278       31.911        4.288       26.747       27.700       15.230      715.422      767.284      231.959        0.219        0.086       51.387        8.033        0.024      333.477        2.817      849.781
01/24/2021  18:10:00       14.141       -1.429        7.042       24.305       34.590       16.684      590.717     1196.497      278.355        0.116        0.103       14.213        8.670        0.372      333.599        3.020      849.780
01/24/2021  18:11:00       25.212        1.234      -20.594       56.881       64.029       27.035     3235.404     4099.683      730.879        0.456        0.403       25.242       33.386        1.749      333.598        3.018      849.778
01/24/2021  18:12:00      -32.972       51.563       -5.782       58.406       62.932       34.093     3411.301     3960.444     1162.317        0.615        0.427       61.203       18.398        0.090      333.540        2.921      849.780
01/24/2021  18:13:00      -31.290      -22.597       -1.436       41.820       35.697       17.408     1748.947     1274.273      303.045        0.241        0.166       38.596       15.129        0.154      333.573        2.977      849.772
01/24/2021  18:14:00      -26.047       17.322        2.883       59.176       32.720       23.039     3501.801     1070.623      530.806        0.304        0.255       31.281       10.482        0.112      333.550        2.939      849.779
01/24/2021  18:15:00      -22.698       -5.860        8.771       61.663       42.978       27.362     3802.266     1847.088      748.682        0.351        0.320       23.442       24.126        1.059      333.530        2.905      849.776
01/24/2021  18:16:00       -1.655      -38.849       -9.882       40.340       50.537       28.519     1627.340     2553.974      813.361        0.330        0.250       38.884       28.576        0.540      333.530        2.906      849.780
01/24/2021  18:17:00      -37.481      -27.604      -11.881      178.952       28.476       86.215    32023.797      810.867     7433.019        2.128        2.013       46.549      119.562        6.597      333.616        3.050      849.782
01/24/2021  18:18:00      -42.901      -29.234       -6.303      171.836       34.868       81.927    29527.636     1215.804     6712.052        2.009        1.873       51.915      112.803        4.721      333.615        3.048      849.777
01/24/2021  18:19:00        9.706      -40.035       -5.587       28.482       33.649       27.477      811.229     1132.243      755.009        0.221        0.135       41.195       24.770        0.362      333.586        3.000      849.772
01/24/2021  18:20:00      -53.350        4.500      -17.325       36.399       30.232       19.144     1324.919      913.988      366.487        0.289        0.130       53.539       10.732        0.040      333.556        2.948      849.765
01/24/2021  18:21:00      -33.245       18.985        3.340       28.586       21.955       20.651      817.147      482.044      426.474        0.160        0.086       38.284       15.176        0.157      333.613        3.043      849.769
01/24/2021  18:22:00       -2.961       30.503        2.967       23.470       22.355       14.918      550.833      499.756      222.550        0.111        0.064       30.646       11.728        0.146      333.531        2.908      849.769
01/24/2021  18:23:00      -10.715       60.371        1.494       25.656       18.106       15.159      658.216      327.828      229.803        0.249        0.061       61.315        6.566        0.011      333.539        2.920      849.757
01/24/2021  18:24:00       25.509       11.143      -14.975       32.168       33.187       12.460     1034.789     1101.409      155.260        0.164        0.115       27.837        9.864        0.126      333.585        2.997      849.748
01/24/2021  18:25:00      -71.721       -3.960        5.055       61.924       41.056       23.807     3834.574     1685.565      566.758        0.563        0.304       71.830       18.677        0.068      333.631        3.072      849.749
01/24/2021  18:26:00      -25.692      -23.733        3.836      169.363       49.757       84.602    28683.810     2475.794     7157.422        1.977        1.916       34.976      103.561        8.767      333.650        3.106      849.748
01/24/2021  18:27:00     -280.701      -72.426      -20.012       95.793       75.927       53.253     9176.270     5764.909     2835.836        5.110        0.889      289.894       45.874        0.025      333.361        2.623      849.761
01/24/2021  18:28:00     -256.023      -58.312      -25.029      101.230       78.414       54.328    10247.554     6148.801     2951.482        4.446        0.967      262.580       51.403        0.038      333.280        2.488      849.759
01/24/2021  18:29:00     -258.896      -32.360      -22.339       59.063       63.969       45.013     3488.398     4092.072     2026.148        3.909        0.480      260.910       25.773        0.010      333.271        2.473      849.775
01/24/2021  18:30:00     -174.515      -23.971      -15.782      209.793       63.082       98.089    44013.009     3979.302     9621.468        4.443        2.881      176.154      113.753        0.417      333.277        2.485      849.772
01/24/2021  18:31:00     -186.730      -69.091      -12.018       87.780       73.713       42.663     7705.270     5433.595     1820.120        2.737        0.748      199.102       41.834        0.044      333.084        2.162      849.761
01/24/2021  18:32:00       -3.157       13.789        1.725       93.903       69.095       53.299     8817.706     4774.118     2840.745        0.831        0.822       14.146       44.978       10.110      333.125        2.235      849.744
01/24/2021  18:33:00      -40.367        6.069       -6.282       79.153       80.083       48.745     6265.216     6413.257     2376.078        0.838        0.753       40.821       40.446        0.982      333.082        2.164      849.741
01/24/2021  18:34:00      -51.621        9.463        7.330       81.955       41.937       37.551     6716.569     1758.746     1410.069        0.634        0.494       52.481       33.091        0.398      333.048        2.107      849.741
01/24/2021  18:35:00      -85.026       21.189      -13.981      207.288       52.228       93.193    42968.131     2727.721     8684.874        3.112        2.719       87.626      117.573        1.800      332.976        1.988      849.732
01/24/2021  18:36:00      -10.066       27.200        3.060       41.859       44.022       25.285     1752.213     1937.961      639.325        0.259        0.216       29.003       15.670        0.292      333.013        2.051      849.717
01/24/2021  18:37:00      -29.594       40.301       -1.047      182.325       52.141       99.409    33242.400     2718.731     9882.238        2.416        2.292       50.000      124.260        6.176      333.007        2.042      849.712
01/24/2021  18:38:00      -41.470       10.423        1.879       69.912       62.681       55.345     4887.655     3928.921     3063.115        0.685        0.594       42.760       41.443        0.939      332.949        1.943      849.705
01/24/2021  18:39:00     -118.238       17.843        1.815       97.436       56.701       45.849     9493.767     3214.975     2102.099        1.455        0.741      119.577       46.903        0.154      332.908        1.877      849.704
01/24/2021  18:40:00      -56.695       16.242        6.973      139.903       70.179       70.710    19572.798     4925.023     4999.857        1.651        1.475       58.976       80.386        1.858      332.905        1.873      849.698
01/24/2021  18:41:00      -36.463       17.088      -12.994      277.721       64.512      124.287    77128.723     4161.839    15447.317        4.924        4.837       40.268      178.179       19.579      333.036        2.090      849.697
01/24/2021  18:42:00       -2.904       31.454      -15.302      262.152       63.283      128.076    68723.653     4004.787    16403.461        4.516        4.457       31.588      178.317       31.867      333.040        2.097      849.693
01/24/2021  18:43:00      -37.086        9.668        3.532       67.970       57.974       37.435     4619.949     3361.017     1401.405        0.543        0.469       38.326       38.970        1.034      332.974        1.985      849.688
01/24/2021  18:44:00       29.402       26.478        2.615       43.023       69.110       31.557     1850.977     4776.174      995.848        0.460        0.381       39.568       27.490        0.483      332.969        1.978      849.681
01/24/2021  18:45:00      -97.449       58.769       -9.738      189.487       52.049       90.584    35905.197     2709.110     8205.407        2.992        2.341      113.799      121.419        1.138      332.912        1.884      849.675
01/24/2021  18:46:00      -46.791      102.417      -11.219      247.274       48.242      115.671    61144.584     2327.300    13379.725        4.481        3.843      112.599      163.923        2.119      332.926        1.908      849.668
01/24/2021  18:47:00      -69.952       90.720      -13.675       71.426       55.170       39.495     5101.713     3043.711     1559.831        1.151        0.485      114.557       26.360        0.053      332.863        1.802      849.653
01/24/2021  18:48:00      -21.789       55.404       -3.998      198.388       38.332       98.994    39357.989     1469.338     9799.796        2.708        2.531       59.535      133.858        5.055      332.979        1.996      849.640
01/24/2021  18:49:00      -49.461       71.764       -4.830       31.000       43.629       24.971      960.981     1903.455      623.554        0.555        0.174       87.158       23.133        0.070      332.899        1.863      849.629
01/24/2021  18:50:00      -24.019      104.192       -8.710       32.142       39.147       29.706     1033.114     1532.484      882.458        0.748        0.172      106.924        9.080        0.007      332.795        1.690      849.607
01/24/2021  18:51:00        5.581       62.266       -4.747      182.445       40.479       90.018    33286.035     1638.551     8103.200        2.347        2.151       62.515      124.554        3.970      332.984        2.005      849.593
01/24/2021  18:52:00       17.690       23.685       -7.287      262.419       58.289      127.261    68863.632     3397.647    16195.441        4.467        4.423       29.562      179.410       36.832      332.991        2.017      849.587
01/24/2021  18:53:00       -1.237       24.753        3.641      187.847       50.887       88.637    35286.402     2589.537     7856.517        2.317        2.287       24.784      121.917       24.199      333.009        2.044      849.587
01/24/2021  18:54:00        8.623       80.438       -4.335       24.970       43.064       22.661      623.493     1854.466      513.526        0.478        0.150       80.899       17.668        0.048      332.821        1.734      849.556
01/24/2021  18:55:00       18.516       50.386        5.818      197.504       35.990       97.134    39007.976     1295.290     9434.955        2.632        2.487       53.680      133.583        6.193      332.912        1.885      849.546
01/24/2021  18:56:00       31.123       38.591       10.840      149.097       32.586       72.718    22229.884     1061.818     5287.887        1.557        1.429       49.577      100.157        4.081      332.916        1.892      849.540
01/24/2021  18:57:00       65.445       88.525      -13.177      220.769       49.611      108.409    48738.845     2461.245    11752.535        3.761        3.148      110.090      152.252        1.913      332.958        1.962      849.525
01/24/2021  18:58:00       77.275       85.769       -5.975       31.761       44.322       26.684     1008.782     1964.462      712.036        0.852        0.184      115.446       18.769        0.026      332.872        1.816      849.517
01/24/2021  18:59:00       61.769       59.427       -6.663       31.143       34.786       20.495      969.893     1210.073      420.034        0.500        0.130       85.714       14.859        0.030      332.880        1.831      849.509
01/24/2021  19:00:00       69.445       73.437       -7.009      250.234       36.908      119.338    62616.908     1362.185    14241.510        4.423        3.911      101.073      170.101        2.832      332.965        1.973      849.503
01/24/2021  19:01:00       55.063       66.328       -0.323      193.341       48.741       93.670    37380.629     2375.666     8774.158        2.797        2.427       86.205      129.952        2.272      332.987        2.007      849.503
01/24/2021  19:02:00       86.151       91.367      -14.185      266.647       41.290      126.821    71100.628     1704.826    16083.574        5.241        4.444      125.578      180.163        2.058      332.991        2.017      849.502
01/24/2021  19:03:00       84.791       37.948       -3.538      153.937       51.696       76.188    23696.634     2672.464     5804.684        2.040        1.609       92.895      103.895        1.251      332.938        1.926      849.498
01/24/2021  19:04:00       83.981       30.058      -13.590      161.199       48.863       76.712    25985.157     2387.569     5884.807        2.119        1.713       89.198      105.560        1.401      332.980        1.996      849.494
01/24/2021  19:05:00       98.513       46.528       -0.249      175.432       57.936       82.157    30776.218     3356.637     6749.738        2.637        2.044      108.948      111.259        1.043      332.912        1.883      849.485
01/24/2021  19:06:00      158.907       90.726      -34.003      343.619       55.714      160.289   118073.901     3104.026    25692.444        9.072        7.344      182.983      230.599        1.588      332.985        2.008      849.468
01/24/2021  19:07:00      101.801       29.138      -20.236      188.511       57.678       84.539    35536.229     3326.797     7146.888        2.881        2.300      105.889      118.223        1.247      332.981        1.998      849.462
01/24/2021  19:08:00      146.435       77.016       -8.402       48.454       41.976       26.022     2347.833     1761.978      677.154        1.612        0.239      165.453       10.550        0.004      332.713        1.554      849.466
01/24/2021  19:09:00       83.305       57.110       -1.216       35.346       42.455       25.707     1249.370     1802.454      660.865        0.696        0.186      101.001       19.771        0.038      332.736        1.591      849.476
01/24/2021  19:10:00      105.843       49.831      -12.467      152.233       38.503       74.694    23175.008     1482.483     5579.263        2.203        1.512      116.987       99.662        0.726      332.829        1.747      849.483
01/24/2021  19:11:00       95.059       41.112      -18.684      204.377       38.561       99.007    41770.084     1486.973     9802.390        3.206        2.653      103.569      138.127        1.779      332.936        1.924      849.476
01/24/2021  19:12:00      156.781       28.625      -18.427      262.877       59.311      126.608    69104.439     3517.787    16029.586        5.718        4.433      159.373      177.780        1.244      332.896        1.858      849.467
01/24/2021  19:13:00      175.303       63.569      -19.306      287.114       57.478      129.845    82434.220     3303.713    16859.742        6.885        5.130      186.473      188.141        1.018      332.853        1.787      849.463
01/24/2021  19:14:00      149.166       53.191      -17.208      245.814       54.315      119.619    60424.510     2950.132    14308.631        5.151        3.884      158.366      167.110        1.113      332.806        1.710      849.451
01/24/2021  19:15:00      113.295       53.527      -11.140      197.629       70.202       99.761    39057.285     4928.345     9952.199        3.487        2.697      125.304      133.377        1.133      332.790        1.683      849.442
01/24/2021  19:16:00       55.705       19.180      -11.296      167.902       76.905       77.291    28191.133     5914.395     5973.923        2.183        2.004       58.915      104.459        3.144      332.941        1.932      849.425
01/24/2021  19:17:00      122.604       43.150      -25.003      304.121       59.388      151.996    92489.721     3526.958    23102.838        6.829        5.956      129.975      208.346        2.569      332.863        1.806      849.408
01/24/2021  19:18:00      124.998       33.608      -11.505      215.034       66.350      103.444    46239.546     4402.277    10700.627        3.910        3.067      129.437      142.909        1.219      332.719        1.565      849.389
01/24/2021  19:19:00      177.034       18.562       -1.349      245.110       77.581      122.825    60078.701     6018.761    15086.068        5.642        4.059      178.005      165.486        0.864      332.663        1.474      849.382
01/24/2021  19:20:00      140.363       20.172        0.353       50.452       73.380       39.553     2545.440     5384.648     1564.418        1.480        0.475      141.805       19.507        0.019      332.527        1.247      849.382
01/24/2021  19:21:00      155.256       40.572      -34.248      400.224       65.299      191.512   160178.945     4264.021    36676.943       11.398       10.056      160.469      273.282        2.900      332.884        1.843      849.383
01/24/2021  19:22:00      179.720       70.189      -14.808      233.769       58.073      111.968    54647.922     3372.417    12536.729        5.399        3.528      192.940      155.029        0.646      332.553        1.292      849.391
01/24/2021  19:23:00      167.500       49.610        6.632      177.798       56.625       86.626    31612.284     3206.401     7504.023        3.643        2.116      174.692      111.127        0.405      332.532        1.255      849.387
01/24/2021  19:24:00      197.172       63.182      -20.006      258.899       63.793      129.803    67028.478     4069.483    16848.889        6.559        4.397      207.047      175.589        0.719      332.621        1.402      849.384
01/24/2021  19:25:00      137.464       65.894       -4.670      246.338       63.221      121.775    60682.434     3996.934    14829.084        5.137        3.975      152.441      166.404        1.192      332.659        1.468      849.383
01/24/2021  19:26:00      186.715       84.439      -16.141      186.641       55.263       93.628    34834.908     3054.038     8766.132        4.444        2.333      204.920      124.396        0.369      332.599        1.366      849.372
01/24/2021  19:27:00      191.287       57.178      -13.660      174.699       56.396       86.823    30519.579     3180.560     7538.293        4.063        2.062      199.650      116.732        0.342      332.578        1.331      849.361
01/24/2021  19:28:00      154.352       52.494       -5.419       69.969       59.775       35.090     4895.592     3573.028     1231.296        1.815        0.485      163.034       22.482        0.019      332.538        1.265      849.352
01/24/2021  19:29:00      143.044       32.513       -7.282      168.017       58.515       81.350    28229.820     3424.002     6617.770        2.991        1.914      146.693      103.982        0.502      332.641        1.437      849.344
01/24/2021  19:30:00      196.038       68.084      -32.394      387.277       72.040      187.317   149983.820     5189.752    35087.578       11.715        9.513      207.524      263.767        1.615      332.790        1.686      849.339
01/24/2021  19:31:00       96.467       27.856       -2.699      154.065       66.719       75.739    23736.110     4451.417     5736.454        2.200        1.696      100.408       98.819        0.969      332.731        1.585      849.343
01/24/2021  19:32:00      177.772       65.067      -10.448      302.190       72.373      142.215    91319.045     5237.838    20225.113        7.634        5.839      189.306      201.828        1.137      332.694        1.524      849.344
01/24/2021  19:33:00      228.674       32.602      -14.298      395.511       68.599      189.659   156428.718     4705.764    35970.716       12.529        9.855      230.986      265.445        1.321      332.696        1.530      849.339
01/24/2021  19:34:00      223.458       11.200      -30.904      348.326       75.273      151.119   121331.271     5666.038    22836.891       10.039        7.492      223.738      219.718        0.964      332.637        1.430      849.333
01/24/2021  19:35:00      135.298       61.827       -1.345       87.774       75.080       47.030     7704.293     5636.990     2211.779        1.884        0.778      148.755       39.530        0.071      332.608        1.381      849.320
01/24/2021  19:36:00      142.468       46.215       -8.677      151.419       68.514       76.506    22927.859     4694.204     5853.102        2.798        1.674      149.776       93.814        0.392      332.684        1.507      849.306
01/24/2021  19:37:00      240.562       54.332       -9.308      163.601       71.429       81.359    26765.436     5102.067     6619.338        4.969        1.924      246.621      103.828        0.177      332.482        1.168      849.284
01/24/2021  19:38:00      202.734       31.726      -20.130      405.303       77.660      190.444   164270.223     6031.046    36268.758       12.450       10.329      205.201      272.910        1.769      332.687        1.514      849.280
01/24/2021  19:39:00      150.970       44.510       -2.510      229.497       80.799      106.711    52668.795     6528.558    11387.175        4.767        3.529      157.395      148.202        0.887      332.647        1.445      849.278
01/24/2021  19:40:00      169.727       41.046      -14.368      307.026       73.025      145.489    94265.241     5332.687    21166.941        7.571        6.038      174.619      206.626        1.400      332.628        1.415      849.267
01/24/2021  19:41:00      219.509       95.800      -15.521      281.824       73.110      135.961    79424.861     5345.141    18485.439        8.041        5.163      239.504      188.458        0.619      332.538        1.266      849.259
01/24/2021  19:42:00      149.503       12.584      -11.129      222.112       73.663       96.937    49333.941     5426.178     9396.764        4.338        3.208      150.031      133.297        0.789      332.555        1.293      849.248
01/24/2021  19:43:00      122.399        4.040       -3.240      222.981       90.262      112.936    49720.708     8147.148    12754.510        4.280        3.531      122.466      144.237        1.387      332.669        1.481      849.240
01/24/2021  19:44:00      184.688       69.164      -12.761      150.339       91.690       78.144    22601.696     8406.992     6106.529        3.808        1.856      197.214       87.351        0.196      332.451        1.120      849.253
01/24/2021  19:45:00      310.854       71.820      -23.226      246.832       84.759      107.432    60925.994     7184.015    11541.653        9.097        3.983      319.043      151.874        0.227      332.377        0.998      849.244
01/24/2021  19:46:00      251.991       45.816       -4.698      237.505       87.716      117.561    56408.441     7694.107    13820.568        7.176        3.896      256.122      158.300        0.382      332.334        0.928      849.238
01/24/2021  19:47:00      212.746       99.298      -24.038      212.164       67.003      104.406    45013.750     4489.449    10900.510        5.804        3.020      234.779      135.969        0.335      332.445        1.109      849.229
01/24/2021  19:48:00      153.726       31.528        5.095      198.705       69.301       93.205    39483.597     4802.677     8687.261        3.880        2.649      156.926      126.272        0.647      332.425        1.080      849.216
01/24/2021  19:49:00      198.179       40.376       -6.330      279.799       89.592      134.719    78287.745     8026.670    18149.119        7.268        5.223      202.250      186.212        0.848      332.410        1.054      849.198
01/24/2021  19:50:00      194.707       37.412       -4.729      298.535       85.292      139.856    89123.010     7274.722    19559.745        7.762        5.798      198.268      196.431        0.982      332.487        1.182      849.203
01/24/2021  19:51:00      165.677       87.428      -10.981      191.501       71.045       94.998    36672.652     5047.398     9024.659        4.297        2.537      187.330      123.627        0.436      332.361        0.973      849.199
01/24/2021  19:52:00      135.019        1.246      -16.633      319.505       75.756      149.338   102083.304     5739.044    22301.859        7.429        6.506      135.024      211.589        2.456      332.591        1.355      849.197
01/24/2021  19:53:00      153.055       81.562      -12.286      293.622       79.785      140.052    86213.617     6365.655    19614.449        7.119        5.610      173.430      194.181        1.254      332.493        1.194      849.207
01/24/2021  19:54:00      182.905       86.896      -13.427      183.838       72.175       85.549    33796.531     5209.159     7318.654        4.375        2.316      202.497      115.450        0.325      332.338        0.934      849.222
01/24/2021  19:55:00      183.812       99.067       -9.220      178.062       57.111       87.326    31705.901     3261.690     7625.856        4.313        2.130      208.809      114.648        0.301      332.263        0.811      849.237
01/24/2021  19:56:00      176.349       67.934        8.285       89.605       65.861       39.200     8029.011     4337.693     1536.603        2.484        0.695      188.982       17.867        0.009      332.262        0.808      849.240
01/24/2021  19:57:00      173.609       54.271      -22.138      378.199       73.806      181.519   143034.390     5447.366    32948.989       10.746        9.072      181.894      257.277        2.001      332.551        1.292      849.237
01/24/2021  19:58:00      146.048       47.062       -7.223      213.805       73.010      104.824    45712.679     5330.432    10987.995        4.280        3.102      153.443      139.738        0.829      332.328        0.921      849.235
01/24/2021  19:59:00      170.440       81.083      -23.836      256.370       88.501      128.975    65725.522     7832.496    16634.650        6.317        4.510      188.744      175.256        0.862      332.429        1.089      849.239
01/24/2021  20:00:00      149.674       66.925       -3.239      237.763       61.314      118.506    56531.301     3759.413    14043.695        5.060        3.717      163.955      159.435        0.946      332.398        1.035      849.244
01/24/2021  20:01:00       76.691       52.564       -2.416      217.805       71.396      104.073    47438.976     5097.423    10831.235        3.600        3.168       92.976      144.416        2.413      332.442        1.109      849.258
01/24/2021  20:02:00       79.535       47.397       -1.477      218.552       68.065      108.877    47764.928     4632.898    11854.279        3.640        3.213       92.586      143.470        2.401      332.558        1.300      849.273
01/24/2021  20:03:00      207.879       78.397      -23.402      309.021       54.723      152.995    95493.956     2994.601    23407.606        8.588        6.095      222.170      212.969        0.919      332.387        1.018      849.284
01/24/2021  20:04:00      130.980       76.064      -20.940      270.336       79.494      130.297    73081.817     6319.264    16977.287        5.986        4.819      151.464      181.543        1.437      332.414        1.065      849.290
01/24/2021  20:05:00      145.434        9.387      -12.140      244.225       75.101      116.369    59645.731     5640.216    13541.803        5.009        3.941      145.737      157.207        1.164      332.622        1.406      849.288
01/24/2021  20:06:00      113.595       20.971      -16.505      231.937       84.886      118.692    53794.583     7205.595    14087.849        4.434        3.754      115.514      153.842        1.774      332.569        1.318      849.285
01/24/2021  20:07:00      201.459       20.800      -10.436      301.170       60.608      145.283    90703.580     3673.277    21107.231        7.828        5.774      202.530      202.845        1.003      332.488        1.185      849.286
01/24/2021  20:08:00      176.235       58.734      -13.982      255.426       65.928      122.329    65242.490     4346.479    14964.410        5.961        4.228      185.764      170.233        0.840      332.451        1.124      849.290
01/24/2021  20:09:00      112.077       71.721        4.253       56.182       75.510       39.262     3156.424     5701.797     1541.528        1.406        0.520      133.060       34.405        0.067      332.336        0.932      849.297
01/24/2021  20:10:00      174.975       24.709      -28.147      360.997       60.120      171.442   130319.164     3614.366    29392.299        9.764        8.166      176.711      244.109        1.908      332.546        1.284      849.308
01/24/2021  20:11:00      210.610       61.510      -10.892      299.947       53.974      148.230    89968.454     2913.214    21972.218        8.153        5.743      219.409      205.882        0.881      332.386        1.016      849.308
01/24/2021  20:12:00      201.330       75.689       -6.533      258.120       64.501      115.829    66626.177     4160.381    13416.397        6.524        4.210      215.088      165.068        0.589      332.398        1.035      849.305
01/24/2021  20:13:00      154.281      103.980       -2.423      174.124       63.998       87.530    30319.312     4095.764     7661.447        3.834        2.104      186.050      114.286        0.377      332.319        0.905      849.312
01/24/2021  20:14:00      163.383       67.407      -11.700      269.797       61.374      131.104    72790.520     3766.774    17188.216        6.254        4.687      176.742      182.394        1.065      332.355        0.966      849.319
01/24/2021  20:15:00      135.069       89.614       -4.983      195.056       59.827       97.701    38046.927     3579.240     9545.437        3.872        2.559      162.093      130.250        0.646      332.292        0.860      849.322
01/24/2021  20:16:00      186.899       76.014      -22.110      315.220       58.387      151.253    99363.883     3409.098    22877.320        8.340        6.283      201.766      212.780        1.112      332.382        1.011      849.303
01/24/2021  20:17:00      127.817       60.316      -10.066      216.460       61.433       96.675    46854.772     3773.986     9346.094        4.001        2.999      141.334      136.892        0.938      332.384        1.013      849.296
01/24/2021  20:18:00      149.535       81.838       -7.191      270.827       58.389      133.683    73347.219     3409.279    17871.182        6.185        4.731      170.465      183.555        1.159      332.376        0.999      849.272
01/24/2021  20:19:00      219.086       89.688      -24.613      467.639       57.963      221.555   218685.951     3359.669    49086.682       16.383       13.557      236.733      318.644        1.812      332.540        1.274      849.243
01/24/2021  20:20:00      158.781       80.844        3.232      199.246       59.416       90.101    39698.782     3530.249     8118.115        4.154        2.567      178.178      122.956        0.476      332.334        0.929      849.230
01/24/2021  20:21:00       76.813       44.445       -0.989      164.842       58.280       81.461    27172.861     3396.611     6635.853        2.253        1.860       88.744      107.550        1.469      332.518        1.234      849.207
01/24/2021  20:22:00       64.869        2.935       -6.897      292.124       75.673      140.251    85336.279     5726.414    19670.425        5.748        5.537       64.935      194.985        9.017      332.660        1.470      849.191
01/24/2021  20:23:00       96.518       23.690       -7.106      315.227       78.248      154.555    99368.174     6122.772    23887.162        6.963        6.469       99.383      215.508        4.702      332.614        1.394      849.193
01/24/2021  20:24:00      103.781       43.411        2.846      246.633       67.158      114.429    60827.753     4510.200    13094.022        4.553        3.922      112.495      160.174        2.027      332.491        1.189      849.190
01/24/2021  20:25:00      136.592       46.817        2.183      218.120       67.265      101.747    47576.400     4524.577    10352.423        4.164        3.123      144.393      136.252        0.890      332.390        1.022      849.185
01/24/2021  20:26:00      207.747       73.670      -22.271      375.203       61.836      173.381   140777.523     3823.655    30060.879       11.184        8.733      220.423      249.746        1.284      332.398        1.039      849.170
01/24/2021  20:27:00      196.389       62.723      -41.224      487.099       67.209      225.406   237265.659     4517.091    50808.042       16.833       14.630      206.162      327.854        2.529      332.596        1.367      849.160
01/24/2021  20:28:00      139.362       50.461        0.193      253.484       76.911      118.942    64253.910     5915.257    14147.121        5.312        4.216      148.217      165.897        1.253      332.396        1.033      849.150
01/24/2021  20:29:00      187.551       85.928       -8.156      248.986       62.934      120.035    61993.860     3960.642    14408.459        6.148        4.018      206.298      164.513        0.636      332.249        0.791      849.138
01/24/2021  20:30:00      267.026       87.541      -32.914      409.090       65.883      188.558   167354.957     4340.581    35554.230       14.361       10.362      281.009      274.333        0.953      332.404        1.048      849.129
01/24/2021  20:31:00      144.468       72.853       -4.383      216.865       74.142      109.356    47030.540     5497.040    11958.714        4.533        3.224      161.798      144.886        0.802      332.284        0.847      849.124
01/24/2021  20:32:00      143.828       65.390      -14.411      427.420       74.709      189.815   182687.605     5581.369    36029.912       12.469       11.215      157.995      280.673        3.156      332.500        1.208      849.121
01/24/2021  20:33:00      117.193       20.854        2.000      229.438       74.002      108.515    52641.847     5476.343    11775.554        4.202        3.495      119.034      149.163        1.570      332.386        1.017      849.120
01/24/2021  20:34:00       75.713       28.824       -4.924      298.248       64.796      148.508    88952.028     4198.497    22054.761        6.087        5.760       81.014      204.448        6.369      332.468        1.153      849.116
01/24/2021  20:35:00      177.865       31.500      -49.074      515.385       66.133      246.215   265621.773     4373.583    60621.718       18.276       16.531      180.633      352.647        3.811      332.736        1.599      849.120
01/24/2021  20:36:00       60.048       30.455       -4.185      213.717       73.366      101.481    45675.019     5382.613    10298.355        3.294        3.068       67.330      138.487        4.231      332.476        1.167      849.121
01/24/2021  20:37:00      125.016       69.528       -5.935      233.844       60.363      115.940    54682.881     3643.632    13442.178        4.612        3.588      143.049      157.753        1.216      332.446        1.115      849.105
01/24/2021  20:38:00      170.868       54.261      -34.369      443.609       60.387      204.603   196788.955     3646.532    41862.485       13.776       12.115      179.277      297.673        2.757      332.621        1.409      849.102
01/24/2021  20:39:00      102.416       26.773       -1.660      174.222       56.440       84.907    30353.346     3185.440     7209.226        2.597        2.037      105.857      110.342        1.087      332.447        1.116      849.087
01/24/2021  20:40:00      109.398       13.735      -25.574      327.067       60.105      162.315   106972.897     3612.646    26346.012        7.484        6.847      110.257      225.825        4.195      332.704        1.543      849.067
01/24/2021  20:41:00       93.534       15.874       -4.197      244.405       72.756      121.031    59733.634     5293.414    14648.420        4.433        3.984       94.872      161.234        2.888      332.530        1.254      849.047
01/24/2021  20:42:00      116.453       26.478      -28.641      366.692       71.959      180.696   134462.899     5178.153    32651.183        9.365        8.615      119.425      252.553        4.472      332.642        1.441      849.046
01/24/2021  20:43:00      119.929       17.306       11.260       56.597       61.891       40.917     3203.207     3830.515     1674.192        1.176        0.435      121.171       27.971        0.053      332.430        1.086      849.057
01/24/2021  20:44:00      116.949        6.744      -11.867      309.995       76.586      154.142    96096.761     5865.400    23759.624        6.977        6.286      117.143      213.102        3.309      332.618        1.400      849.057
01/24/2021  20:45:00      154.652       26.294      -33.091      399.255       73.036      193.305   159404.527     5334.202    37366.956       11.386       10.105      156.871      274.181        3.055      332.551        1.291      849.068
01/24/2021  20:46:00       89.672        8.637      -23.987      189.116       73.134       98.420    35764.684     5348.639     9686.589        2.973        2.540       90.087      128.649        2.039      332.553        1.290      849.068
01/24/2021  20:47:00      120.942       16.955      -19.897      387.907       68.293      180.943   150471.541     4663.902    32740.265       10.155        9.394      122.125      261.091        4.571      332.816        1.730      849.075
01/24/2021  20:48:00       66.616       29.632      -10.963      176.184       70.100       92.357    31040.871     4914.044     8529.767        2.495        2.224       72.909      118.426        2.638      332.485        1.179      849.080
01/24/2021  20:49:00       92.402      -32.919      -24.824      293.309       81.874      140.141    86029.889     6703.341    19639.503        6.128        5.619       98.091      198.115        4.079      332.493        1.193      849.079
01/24/2021  20:50:00       97.474      -61.447      -11.493      301.180       71.760      145.352    90709.309     5149.540    21127.232        6.517        5.849      115.226      203.555        3.121      332.520        1.239      849.069
01/24/2021  20:51:00       42.931      -18.511      -17.169      268.149       68.876      131.274    71903.913     4743.866    17232.796        4.816        4.694       46.751      181.044       14.996      332.564        1.311      849.057
01/24/2021  20:52:00      112.096       41.073      -11.509      302.702       56.675      146.156    91628.625     3212.048    21361.515        6.527        5.810      119.383      204.704        2.940      332.506        1.216      849.047
01/24/2021  20:53:00      236.004       91.678      -16.122      391.275       62.635      188.663   153096.269     3923.149    35593.612       12.845        9.631      253.185      267.259        1.114      332.415        1.066      849.042
01/24/2021  20:54:00      196.598       94.965      -22.316      388.659       61.642      188.962   151055.888     3799.758    35706.623       11.932        9.528      218.332      266.167        1.486      332.400        1.043      849.041
01/24/2021  20:55:00      236.995       87.178      -18.095      343.112       56.419      165.890   117725.696     3183.079    27519.402       10.623        7.421      252.521      233.774        0.857      332.330        0.924      849.038
01/24/2021  20:56:00      204.412       71.428      -11.526      262.674       49.813      127.970    68997.878     2481.383    16376.424        6.742        4.393      216.533      178.772        0.682      332.236        0.770      849.033
01/24/2021  20:57:00      227.113       65.860      -23.870      371.270       60.391      183.405   137841.437     3647.031    33637.321       11.577        8.756      236.469      256.016        1.172      332.375        0.999      849.024
01/24/2021  20:58:00      200.090       50.262      -13.354      312.180       60.530      142.565    97456.152     3663.823    20324.767        8.207        6.072      206.306      202.819        0.966      332.370        0.989      849.019
01/24/2021  20:59:00      154.708       83.894      -17.276      268.226       67.015      127.507    71945.285     4491.067    16258.081        6.196        4.635      175.990      177.873        1.022      332.440        1.105      849.009
01/24/2021  21:00:00      137.969       44.665      -25.818      432.929       74.278      205.560   187427.181     5517.233    42254.890       12.840       11.760      145.018      292.727        4.075      332.692        1.527      848.964
01/24/2021  21:01:00      239.840       64.386      -46.888      509.679       62.798      242.154   259773.092     3943.614    58638.653       19.304       16.118      248.332      347.818        1.962      332.648        1.455      848.952
01/24/2021  21:02:00      123.635       56.998       -2.193      162.037       70.196       72.363    26256.119     4927.476     5236.354        2.747        1.821      136.141       97.099        0.509      332.350        0.957      848.959
01/24/2021  21:03:00      159.222       51.186       10.351      169.302       67.322       85.642    28663.220     4532.309     7334.617        3.430        2.027      167.248      109.162        0.426      332.269        0.820      848.953
01/24/2021  21:04:00      129.610       43.380       -3.285      266.440       56.426      128.859    70990.084     3183.876    16604.723        5.472        4.539      136.677      178.411        1.704      332.384        1.013      848.952
01/24/2021  21:05:00      111.968       70.524       -8.348      347.912       56.471      169.157   121042.479     3188.966    28613.992        8.518        7.642      132.327      238.021        3.235      332.459        1.139      848.952
01/24/2021  21:06:00       91.682       63.691       -5.133      229.172       52.493      107.532    52519.888     2755.502    11563.236        3.965        3.342      111.634      150.810        1.825      332.317        0.903      848.939
01/24/2021  21:07:00      110.743       55.298        4.161      186.440       52.200       91.210    34759.995     2724.810     8319.305        3.056        2.290      123.782      123.078        0.989      332.297        0.868      848.923
01/24/2021  21:08:00      150.228       76.253      -28.652      412.062       54.319      197.047   169795.325     2950.504    38827.491       12.034       10.579      168.473      281.941        2.801      332.460        1.141      848.900
01/24/2021  21:09:00       75.885       88.299        5.871      249.718       58.896      121.785    62359.255     3468.696    14831.641        4.711        4.033      116.427      168.635        2.098      332.292        0.861      848.893
01/24/2021  21:10:00      132.297      113.508      -18.588      285.135       60.152      140.432    81302.157     3618.254    19721.255        6.766        5.232      174.318      195.375        1.256      332.292        0.863      848.880
01/24/2021  21:11:00      150.539       51.226      -27.882      346.529       52.824      166.004   120082.407     2790.324    27557.226        8.822        7.521      159.016      236.180        2.206      332.514        1.229      848.878
01/24/2021  21:12:00       71.582       36.062       -6.791      356.136       44.621      168.898   126832.725     1991.053    28526.563        8.188        7.868       80.153      242.341        9.141      332.409        1.056      848.868
01/24/2021  21:13:00       68.077       48.649       -5.933      272.675       63.934      133.731    74351.590     4087.533    17884.011        5.166        4.816       83.673      186.040        4.944      332.379        1.005      848.859
01/24/2021  21:14:00      111.349       37.051      -10.622      372.227       56.665      170.941   138552.672     3210.932    29220.888        9.240        8.549      117.352      246.929        4.428      332.553        1.296      848.846
01/24/2021  21:15:00      103.330       50.131       -1.815      229.121       49.719      112.677    52496.638     2471.974    12696.069        4.041        3.383      114.849      153.633        1.789      332.333        0.930      848.836
01/24/2021  21:16:00       73.767       57.321        4.911       40.125       61.464       35.827     1610.033     3777.810     1283.590        0.771        0.334       93.420       43.991        0.222      332.353        0.960      848.823
01/24/2021  21:17:00       93.074       71.145       -1.755      163.820       54.007       74.963    26836.858     2916.755     5619.402        2.454        1.769      117.151      101.636        0.753      332.341        0.941      848.802
01/24/2021  21:18:00      124.113       80.230       -4.523      179.170       64.822       81.400    32101.864     4201.844     6625.968        3.239        2.146      147.786      107.502        0.529      332.439        1.103      848.785
01/24/2021  21:19:00      120.483       47.732      -15.225      274.998       54.448      131.841    75623.800     2964.570    17382.077        5.648        4.799      129.593      184.085        2.018      332.408        1.054      848.774
01/24/2021  21:20:00      133.558       60.175       -5.508      258.620       57.075      128.717    66884.265     3257.512    16567.962        5.408        4.335      146.488      176.728        1.455      332.327        0.920      848.772
01/24/2021  21:21:00      172.362       67.546      -36.687      504.419       59.832      237.958   254438.907     3579.908    56623.786       17.506       15.732      185.125      342.786        3.429      332.609        1.390      848.776
01/24/2021  21:22:00      159.525       58.465      -12.907      364.120       53.309      164.643   132583.681     2841.799    27107.423        9.575        8.127      169.901      240.361        2.001      332.370        0.992      848.775
01/24/2021  21:23:00      122.471       59.428       -5.665      330.721       66.150      156.243   109376.112     4375.871    24411.808        7.833        6.908      136.128      220.854        2.632      332.392        1.028      848.770
01/24/2021  21:24:00      108.249       57.780        0.637      145.944       60.233       74.513    21299.773     3628.063     5552.242        2.276        1.524      122.704       93.254        0.578      332.268        0.820      848.760
01/24/2021  21:25:00      183.727       86.286      -30.023      469.050       67.716      222.173   220007.454     4585.507    49360.727       15.797       13.698      202.980      319.221        2.473      332.477        1.173      848.750
01/24/2021  21:26:00      141.038       76.533      -20.574      358.944       53.935      174.565   128840.495     2908.946    30473.057        9.416        8.111      160.466      245.989        2.350      332.389        1.023      848.736
01/24/2021  21:27:00       73.056       60.458       -0.564      150.136       64.910       78.382    22540.756     4213.271     6143.796        2.094        1.645       94.828       98.827        1.086      332.368        0.986      848.722
01/24/2021  21:28:00      149.898       78.733      -27.858      376.109       54.786      171.044   141458.191     3001.493    29256.052       10.154        8.686      169.317      249.591        2.173      332.390        1.026      848.706
01/24/2021  21:29:00      178.594      102.821       -9.585      327.839       58.369      155.950   107478.129     3406.963    24320.489        8.885        6.760      206.077      220.555        1.145      332.307        0.888      848.680
01/24/2021  21:30:00      189.532       83.141      -21.245      380.434       67.249      180.463   144730.192     4522.484    32566.729       11.251        9.091      206.965      257.637        1.550      332.338        0.939      848.660
01/24/2021  21:31:00      131.546       97.880        8.663      157.798       70.767       82.848    24900.304     5007.961     6863.763        3.186        1.839      163.966      103.431        0.398      332.244        0.779      848.646
01/24/2021  21:32:00      119.790      107.828       -0.625      229.226       59.380      111.068    52544.482     3526.007    12336.048        4.718        3.420      161.173      150.881        0.876      332.262        0.810      848.634
01/24/2021  21:33:00      129.103       59.844       -0.236      294.982       69.529      140.612    87014.293     4834.320    19771.702        6.591        5.581      142.299      197.378        1.924      332.386        1.017      848.625
01/24/2021  21:34:00      124.953       81.404       -7.727      315.245       54.805      151.374    99379.515     3003.578    22913.945        7.377        6.265      149.130      213.020        2.040      332.299        0.875      848.630
01/24/2021  21:35:00      131.756       83.935        5.885       42.359       55.768       31.333     1794.264     3110.031      981.729        1.516        0.294      156.220       37.658        0.058      332.131        0.594      848.631
01/24/2021  21:36:00      170.225      105.178      -12.487      268.005       53.785      129.444    71826.904     2892.846    16755.768        6.582        4.574      200.097      180.071        0.810      332.235        0.769      848.618
01/24/2021  21:37:00      170.142       96.439      -23.018      301.995       50.398      142.636    91200.708     2539.998    20345.086        7.641        5.704      195.573      202.368        1.071      332.400        1.040      848.600
01/24/2021  21:38:00      164.190       71.676      -12.674      324.538       70.482      158.276   105324.904     4967.748    25051.257        8.377        6.767      179.153      218.953        1.494      332.397        1.035      848.601
01/24/2021  21:39:00      139.763       81.959       -2.324      206.557       51.711       95.646    42665.784     2674.034     9148.161        4.036        2.724      162.021      133.989        0.684      332.181        0.677      848.610
01/24/2021  21:40:00      179.687       48.834      -18.716      411.665       57.102      193.723   169467.869     3260.663    37528.575       12.259       10.513      186.205      278.039        2.230      332.461        1.143      848.622
01/24/2021  21:41:00      148.785       72.509      -29.177      475.566       56.816      224.384   226162.703     3228.020    50348.235       15.393       13.987      165.513      322.870        3.805      332.480        1.178      848.632
01/24/2021  21:42:00      152.693       68.055       -7.328      254.401       57.979      127.207    64719.993     3361.561    16181.597        5.611        4.213      167.173      173.992        1.083      332.258        0.806      848.621
01/24/2021  21:43:00      141.644       36.289      -14.191      305.264       52.799      141.542    93185.963     2787.741    20034.165        6.877        5.800      146.219      203.026        1.928      332.379        1.006      848.609
01/24/2021  21:44:00      133.253       63.008        4.251       34.503       51.985       29.974     1190.446     2702.406      898.422        1.327        0.240      147.399       34.889        0.056      332.158        0.637      848.595
01/24/2021  21:45:00      122.871       72.908       -5.278      214.491       57.800      106.138    46006.437     3340.845    11265.212        4.051        3.031      142.874      143.701        1.012      332.328        0.920      848.586
01/24/2021  21:46:00      122.799       91.883       -1.687       47.499       53.436       32.166     2256.173     2855.436     1034.629        1.483        0.307      153.369       34.301        0.050      332.196        0.702      848.594
01/24/2021  21:47:00      118.738       60.301       -6.067      285.825       59.765      138.822    81695.961     3571.824    19271.684        6.113        5.227      133.172      193.489        2.111      332.474        1.163      848.601
01/24/2021  21:48:00      159.868       56.849       -2.912      280.039       58.503      138.707    78421.811     3422.551    19239.568        6.492        5.054      169.675      190.794        1.264      332.351        0.959      848.599
01/24/2021  21:49:00      126.374       53.017        1.566       44.462       49.991       31.061     1976.896     2499.058      964.778        1.211        0.272      137.045       37.005        0.073      332.214        0.733      848.603
01/24/2021  21:50:00       96.182       81.922      -12.868      309.730       58.797      149.837    95932.368     3457.063    22451.140        6.896        6.092      126.341      210.287        2.770      332.332        0.928      848.606
01/24/2021  21:51:00       60.435       59.733       -6.802      263.563       39.055      126.468    69465.584     1525.318    15994.084        4.711        4.349       84.972      179.046        4.440      332.257        0.805      848.613
01/24/2021  21:52:00       83.857       60.446        1.147      311.179       55.554      149.713    96832.470     3086.301    22414.112        6.648        6.117      103.372      209.610        4.112      332.396        1.036      848.618
01/24/2021  21:53:00      117.037       46.367       -8.236      296.807       52.541      133.388    88094.164     2760.609    17792.283        6.226        5.432      125.888      193.244        2.356      332.382        1.010      848.604
01/24/2021  21:54:00      144.149       52.336        5.185      246.560       58.590      121.415    60791.744     3432.735    14741.708        5.124        3.948      153.355      164.980        1.157      332.278        0.838      848.577
01/24/2021  21:55:00      129.941       80.494       -7.379      171.710       63.307       85.186    29484.445     4007.818     7256.732        3.208        2.037      152.853      111.157        0.529      332.288        0.852      848.550
01/24/2021  21:56:00      115.608       50.284      -22.210      267.463       55.672      125.505    71536.666     3099.330    15751.597        5.337        4.519      126.071      176.132        1.952      332.408        1.052      848.533
01/24/2021  21:57:00       68.363       80.403        4.191      304.901       61.933      149.626    92964.827     3835.738    22387.990        6.515        5.959      105.537      208.358        3.898      332.381        1.009      848.532
01/24/2021  21:58:00       85.479       86.601       -4.861      317.814       58.367      158.819   101005.655     3406.730    25223.586        7.221        6.482      121.681      219.824        3.264      332.393        1.030      848.534
01/24/2021  21:59:00      143.144       99.906      -23.317      417.599       61.959      199.899   174388.968     3838.943    39959.483       12.455       10.909      174.560      284.379        2.654      332.464        1.149      848.540
01/24/2021  22:00:00      108.130       86.256      -10.954      217.047       50.765      107.420    47109.234     2577.065    11539.072        4.023        3.061      138.320      146.302        1.119      332.253        0.795      848.544
01/24/2021  22:01:00      107.176       56.444       -2.216      281.253       54.225      138.885    79103.402     2940.380    19289.171        5.798        5.067      121.130      192.746        2.532      332.291        0.860      848.539
01/24/2021  22:02:00       83.606       71.566        4.461      140.791       59.150       73.109    19821.986     3498.712     5344.959        2.039        1.433      110.053       91.925        0.698      332.245        0.781      848.536
01/24/2021  22:03:00       89.545       89.239        4.963       34.928       46.440       29.997     1219.989     2156.668      899.798        1.014        0.214      126.420       34.098        0.073      332.158        0.639      848.519
01/24/2021  22:04:00      123.492       92.170      -13.798      314.555       52.321      148.388    98944.961     2737.450    22019.133        7.379        6.185      154.096      211.196        1.878      332.253        0.798      848.509
01/24/2021  22:05:00       98.282       74.501      -19.350      231.060       47.380      111.734    53388.561     2244.879    12484.513        4.184        3.406      123.328      155.102        1.582      332.217        0.737      848.506
01/24/2021  22:06:00      101.282       72.803       -9.008      269.560       57.781      134.070    72662.413     3338.634    17974.632        5.479        4.699      124.734      184.618        2.191      332.325        0.917      848.500
01/24/2021  22:07:00       84.458       65.645        2.147       88.028       54.309       48.975     7748.916     2949.511     2398.531        1.227        0.655      106.969       52.535        0.241      332.205        0.715      848.477
01/24/2021  22:08:00      129.347       46.885       -1.221      259.019       58.154      123.620    67090.691     3381.887    15281.974        5.232        4.288      137.582      172.028        1.563      332.317        0.904      848.453
01/24/2021  22:09:00      171.229       51.210      -12.138      294.847       57.895      145.589    86934.650     3351.846    21196.164        7.176        5.574      178.722      200.979        1.265      332.278        0.837      848.443
01/24/2021  22:10:00      126.264       79.856       -5.328      179.056       50.789       90.034    32061.186     2579.560     8106.111        3.254        2.137      149.397      119.331        0.638      332.158        0.640      848.439
01/24/2021  22:11:00      180.701       79.049      -16.587      408.774       61.805      197.768   167096.554     3819.801    39112.233       12.456       10.501      197.235      279.229        2.004      332.355        0.968      848.433
01/24/2021  22:12:00       94.861       62.164        8.025      145.653       52.237       73.206    21214.902     2728.741     5359.046        2.111        1.465      113.415       92.450        0.664      332.138        0.606      848.434
01/24/2021  22:13:00      125.979       64.248      -17.618      445.233       48.152      206.146   198232.763     2318.645    42496.251       13.163       12.152      141.416      300.111        4.504      332.346        0.956      848.426
01/24/2021  22:14:00       44.362       79.604        4.648       51.621       50.862       29.690     2664.708     2586.958      881.507        0.723        0.307       91.130       30.443        0.112      332.178        0.673      848.431
01/24/2021  22:15:00       88.408       72.290       -5.034      231.756       52.274      115.979    53710.789     2732.587    13451.234        4.147        3.495      114.201      158.673        1.930      332.197        0.704      848.438
01/24/2021  22:16:00      100.095       53.029        0.285      274.071       48.471      135.339    75115.079     2349.430    18316.553        5.429        4.789      113.275      187.909        2.752      332.212        0.731      848.426
01/24/2021  22:17:00       65.728       72.032        8.940      206.848       56.950       96.902    42785.899     3243.323     9390.014        3.249        2.771       97.513      135.297        1.925      332.201        0.712      848.422
01/24/2021  22:18:00       83.570       75.196       11.905       59.764       56.404       35.279     3571.767     3181.373     1244.607        1.039        0.400      112.421       38.435        0.117      332.099        0.539      848.407
01/24/2021  22:19:00       29.613       91.597        1.813      170.126       54.868       85.816    28942.904     3010.460     7364.410        2.429        1.966       96.265      115.244        1.433      332.289        0.857      848.383
01/24/2021  22:20:00      158.942       53.213      -34.153      498.807       48.502      231.644   248808.775     2352.489    53659.157       16.698       15.241      167.614      337.423        4.053      332.519        1.242      848.380
01/24/2021  22:21:00      118.297       57.649      -17.374      354.805       49.859      168.720   125886.493     2485.921    28466.571        8.720        7.842      131.596      240.237        3.333      332.318        0.907      848.363
01/24/2021  22:22:00       65.733       49.941       -0.203      202.002       51.510      101.548    40804.990     2653.279    10311.917        3.028        2.689       82.553      136.616        2.739      332.221        0.743      848.345
01/24/2021  22:23:00       95.759       71.280      -12.680      306.251       50.773      151.556    93789.911     2577.893    22969.176        6.685        5.967      119.376      210.608        3.113      332.301        0.878      848.322
01/24/2021  22:24:00      116.023       80.442      -23.342      419.994       56.310      202.747   176395.061     3170.796    41106.422       12.053       11.034      141.182      288.821        4.185      332.373        0.999      848.299
01/24/2021  22:25:00       23.225      103.093        4.259      220.248       51.826      107.888    48509.328     2685.948    11639.729        3.700        3.142      105.677      148.346        1.971      332.333        0.929      848.310
01/24/2021  22:26:00       17.690       89.109       -0.742      219.573       48.205      100.404    48212.311     2323.747    10080.894        3.442        3.031       90.848      142.854        2.473      332.303        0.880      848.324
01/24/2021  22:27:00       37.597       71.771      -15.651      384.736       48.702      176.419   148021.809     2371.918    31123.518        9.413        9.076       81.022      257.558       10.105      332.421        1.078      848.339
01/24/2021  22:28:00       24.207       62.944       -5.197      273.988       50.471      134.156    75069.693     2547.295    17997.931        5.007        4.781       67.438      186.823        7.674      332.353        0.962      848.350
01/24/2021  22:29:00       21.090       99.964        5.856      183.592       53.392       91.710    33706.084     2850.747     8410.655        2.771        2.248      102.165      122.405        1.435      332.272        0.827      848.367
01/24/2021  22:30:00       47.435       61.241      -12.665      312.030       50.926      149.213    97362.623     2593.439    22264.555        6.416        6.111       77.464      212.526        7.527      332.256        0.802      848.360
01/24/2021  22:31:00       79.729       74.233      -10.863      318.534       48.914      153.073   101463.654     2392.578    23431.236        6.961        6.364      108.937      217.188        3.975      332.288        0.857      848.351
01/24/2021  22:32:00       82.812       71.116       -2.953      289.532       59.639      142.312    83828.700     3556.802    20252.832        5.976        5.382      109.158      197.487        3.273      332.270        0.826      848.336
01/24/2021  22:33:00       90.971       87.152        2.721      215.280       52.410      105.620    46345.508     2746.798    11155.484        3.805        3.012      125.980      143.644        1.300      332.205        0.718      848.303
01/24/2021  22:34:00      145.855       96.490      -19.807      364.193       49.347      174.019   132636.314     2435.135    30282.551        9.813        8.268      174.883      247.989        2.011      332.276        0.838      848.295
01/24/2021  22:35:00       76.126      103.429      -20.826      356.487       47.736      172.584   127082.833     2278.720    29785.394        8.800        7.957      128.424      245.258        3.647      332.377        1.003      848.297
01/24/2021  22:36:00       52.364      132.905      -20.425      292.572       50.371      138.537    85598.375     2537.235    19192.478        6.405        5.366      142.849      196.808        1.898      332.286        0.854      848.317
01/24/2021  22:37:00       26.563      105.174        7.241      246.799       57.759      123.812    60909.748     3336.089    15329.396        4.568        3.979      108.477      169.585        2.444      332.365        0.982      848.317
01/24/2021  22:38:00       88.990       62.517      -16.505      400.867       47.425      191.533   160694.315     2249.177    36684.760       10.582        9.981      108.755      273.480        6.323      332.437        1.103      848.321
01/24/2021  22:39:00       34.987       66.363        2.147      214.905       49.917      105.954    46184.001     2491.710    11226.251        3.275        2.995       75.021      142.296        3.598      332.325        0.917      848.306
01/24/2021  22:40:00       73.735       48.818        0.665      293.188       55.234      144.606    85959.221     3050.775    20910.944        5.885        5.496       88.431      201.048        5.169      332.337        0.938      848.291
01/24/2021  22:41:00      120.456       63.340        5.372      184.286       56.038       90.911    33961.421     3140.233     8264.843        3.195        2.268      136.094      121.121        0.792      332.144        0.618      848.260
01/24/2021  22:42:00      142.698       88.177      -13.470      247.938       59.571      123.676    61473.173     3548.649    15295.782        5.430        4.016      167.744      168.007        1.003      332.242        0.780      848.233
01/24/2021  22:43:00      119.297       88.963      -13.365      243.653       54.433      117.670    59366.878     2962.903    13846.169        4.923        3.809      148.816      162.785        1.197      332.252        0.795      848.212
01/24/2021  22:44:00      163.277       79.364      -21.404      298.558       48.991      141.608    89137.147     2400.098    20052.734        7.248        5.579      181.543      201.554        1.233      332.240        0.776      848.193
01/24/2021  22:45:00      102.388       77.697       -0.857      190.163       54.395       91.584    36161.993     2958.814     8387.609        3.200        2.375      128.531      124.210        0.934      332.118        0.572      848.187
01/24/2021  22:46:00       62.497       72.892       -0.316      233.053       59.356      114.530    54313.715     3523.157    13117.100        4.007        3.548       96.017      157.690        2.697      332.248        0.790      848.201
01/24/2021  22:47:00       43.938       93.983       -9.554      218.323       54.113      107.440    47664.911     2928.247    11543.450        3.648        3.107      103.747      147.953        2.034      332.255        0.801      848.218
01/24/2021  22:48:00       39.210       75.881      -10.936      320.094       58.453      154.952   102460.188     3416.766    24010.227        6.862        6.494       85.413      217.378        6.477      332.406        1.052      848.226
01/24/2021  22:49:00       37.751      102.488       -3.893      205.719       62.015       99.148    42320.226     3845.921     9830.375        3.396        2.800      109.220      136.613        1.565      332.294        0.864      848.230
01/24/2021  22:50:00      100.680       92.538      -19.270      440.878       59.180      211.016   194373.790     3502.228    44527.795       13.068       12.120      136.747      301.956        4.876      332.417        1.071      848.227
01/24/2021  22:51:00      106.344       93.135      -26.168      364.316       50.594      173.264   132725.815     2559.756    30020.584        9.295        8.265      141.361      248.389        3.087      332.277        0.839      848.223
01/24/2021  22:52:00      128.098      102.785      -15.700      321.804       48.509      153.567   103557.562     2353.076    23582.917        7.833        6.475      164.238      218.054        1.763      332.231        0.761      848.212
01/24/2021  22:53:00      122.535       66.337      -10.305      265.559       53.619      129.691    70521.484     2875.038    16819.659        5.485        4.511      139.339      181.034        1.688      332.240        0.775      848.196
01/24/2021  22:54:00      135.644       77.357       -7.642      262.655       59.914      131.776    68987.501     3589.688    17365.024        5.717        4.497      156.152      179.438        1.320      332.279        0.840      848.187
01/24/2021  22:55:00      156.392      102.800      -15.592      262.963       53.642      132.088    69149.310     2877.502    17447.301        6.235        4.474      187.154      180.858        0.934      332.210        0.725      848.163
01/24/2021  22:56:00       91.456       83.027       -7.220      156.165       51.176       77.757    24387.544     2619.030     6046.221        2.417        1.653      123.522      101.924        0.681      332.139        0.607      848.151
01/24/2021  22:57:00       87.257       75.389       -3.978      135.005       48.222       69.802    18226.394     2325.349     4872.325        1.936        1.271      115.314       87.791        0.580      332.096        0.534      848.148
01/24/2021  22:58:00      111.820       35.759      -15.729      378.230       52.983      184.164   143058.311     2807.162    33916.381        9.687        8.989      117.398      260.121        4.909      332.393        1.031      848.143
01/24/2021  22:59:00      114.253       38.625      -16.077      345.792       43.756      167.044   119572.015     1914.575    27903.801        8.207        7.470      120.606      237.015        3.862      332.262        0.815      848.137
01/24/2021  23:00:00      113.171       64.964       -3.888      317.923       47.834      153.253   101075.240     2288.070    23486.622        7.192        6.342      130.492      215.640        2.731      332.208        0.724      848.145
01/24/2021  23:01:00       81.833       73.509       -5.853      348.411       51.244      167.826   121389.886     2625.922    28165.468        8.213        7.609      110.001      237.453        4.660      332.289        0.858      848.147
01/24/2021  23:02:00       51.777       52.404        3.449       30.492       52.145       30.140      929.780     2719.111      908.448        0.500        0.228       73.669       39.545        0.288      332.097        0.539      848.147
01/24/2021  23:03:00       77.716       59.317       -1.140      300.872       54.180      147.627    90523.782     2935.460    21793.602        6.238        5.763       97.766      205.974        4.439      332.242        0.782      848.144
01/24/2021  23:04:00       87.183       57.908       -7.626      304.342       50.071      149.221    92624.119     2507.119    22266.780        6.418        5.870      104.662      209.090        3.991      332.196        0.704      848.140
01/24/2021  23:05:00       63.511       65.226        4.382      171.098       51.688       87.937    29274.465     2671.626     7732.839        2.398        1.984       91.039      115.523        1.610      332.111        0.563      848.145
01/24/2021  23:06:00       91.618       66.218       -7.368      188.496       45.266       92.810    35530.822     2048.990     8613.764        2.950        2.310      113.043      126.737        1.257      332.014        0.402      848.142
01/24/2021  23:07:00       75.406       46.616        6.211       33.617       55.452       29.863     1130.136     3074.965      891.806        0.650        0.255       88.652       38.990        0.193      332.040        0.444      848.138
01/24/2021  23:08:00       77.419       46.790        0.950      166.279       40.782       78.694    27648.844     1663.164     6192.766        2.184        1.775       90.460      107.510        1.412      332.032        0.432      848.124
01/24/2021  23:09:00      102.904       35.426       -1.071      259.509       50.643      127.636    67344.996     2564.732    16291.020        4.901        4.310      108.831      176.098        2.618      332.144        0.618      848.109
01/24/2021  23:10:00       76.477       73.103        6.002       35.282       43.652       29.319     1244.795     1905.524      859.607        0.762        0.200      105.796       29.623        0.078      332.027        0.423      848.094
01/24/2021  23:11:00      138.235       63.500      -26.390      299.942       54.976      145.247    89965.142     3022.325    21096.687        6.894        5.704      152.123      205.352        1.822      332.107        0.557      848.083
01/24/2021  23:12:00      122.504       49.968       -3.014      234.836       47.846      115.292    55147.860     2289.208    13292.280        4.411        3.536      132.303      159.551        1.454      332.022        0.416      848.065
01/24/2021  23:13:00      139.488       65.514      -18.826      399.750       52.810      189.376   159799.858     2788.850    35863.303       11.124        9.923      154.107      271.920        3.113      332.071        0.501      848.057
01/24/2021  23:14:00      104.472       62.675       -2.114      234.974       48.048      111.867    55212.963     2308.646    12514.146        4.243        3.502      121.830      156.485        1.650      331.876        0.175      848.049
01/24/2021  23:15:00       87.110       36.316       -3.407      163.803       43.324       81.734    26831.321     1876.961     6680.522        2.215        1.769       94.377      110.003        1.359      331.798        0.047      848.046
01/24/2021  23:16:00       81.921       36.332        6.782       32.567       45.984       28.956     1060.631     2114.554      838.454        0.604        0.201       89.616       35.863        0.160      331.870        0.164      848.034
01/24/2021  23:17:00       28.573       43.958        7.289       31.935       54.373       28.355     1019.827     2956.433      804.030        0.379        0.239       52.428       34.473        0.432      331.894        0.204      848.021
01/24/2021  23:18:00       78.599       65.612        7.945       78.207       48.222       44.550     6116.294     2325.379     1984.689        1.048        0.521      102.385       46.197        0.204      331.771        0.001      848.012
01/24/2021  23:19:00      130.941       58.575      -11.652      342.300       58.333      168.251   117169.438     3402.754    28308.235        8.476        7.444      143.445      235.647        2.699      332.003        0.387      848.006
01/24/2021  23:20:00       75.396       51.960       -1.487      231.955       51.807      110.538    53803.137     2683.963    12218.609        3.853        3.435       91.567      152.955        2.790      331.985        0.356      848.001
01/24/2021  23:21:00      113.891       71.736        0.484      318.416       57.994      154.032   101388.545     3363.265    23725.823        7.327        6.424      134.600      216.120        2.578      331.957        0.311      848.002
01/24/2021  23:22:00      116.556       65.207       -6.968      294.967       52.330      144.462    87005.749     2738.411    20869.138        6.423        5.531      133.556      201.783        2.283      331.857        0.144      848.004
01/24/2021  23:23:00       83.264       69.020        2.668      176.641       52.693       90.183    31202.178     2776.601     8132.924        2.690        2.106      108.151      118.770        1.206      331.809        0.063      848.001
01/24/2021  23:24:00       69.235       60.045        2.807      296.082       53.194      142.595    87664.424     2829.605    20333.221        5.959        5.541       91.646      200.544        4.788      331.848        0.131      847.992
01/24/2021  23:25:00       85.181       85.866       -1.281      213.538       51.846      106.879    45598.306     2687.971    11423.068        3.716        2.985      120.950      144.937        1.436      331.799        0.050      847.981
01/24/2021  23:26:00       92.329       61.216      -12.737      299.508       44.138      144.790    89704.965     1948.134    20964.287        6.250        5.631      110.779      204.942        3.423      331.819        0.083      847.982
01/24/2021  23:27:00       55.582       89.222        1.327      320.968       50.854      155.373   103020.196     2586.148    24140.751        7.037        6.487      105.119      219.419        4.357      331.971        0.333      847.978
01/24/2021  23:28:00       63.254       74.568        0.798      165.019       49.466       80.164    27231.370     2446.902     6426.296        2.283        1.805       97.783      109.068        1.244      331.721       -0.081      847.972
01/24/2021  23:29:00      122.115       59.281      -32.816      461.597       47.962      222.901   213071.358     2300.396    49684.968       14.222       13.253      135.743      318.303        5.499      331.952        0.307      847.964
01/24/2021  23:30:00       65.437       69.137        0.619       34.941       43.588       28.121     1220.839     1899.940      790.778        0.649        0.196       95.194       29.594        0.097      331.646       -0.204      847.950
01/24/2021  23:31:00      103.958       70.929       -8.748      313.051       53.808      147.218    98001.032     2895.292    21673.181        6.922        6.128      125.850      209.898        2.782      331.810        0.069      847.935
01/24/2021  23:32:00      191.481       54.992      -53.640      520.821       58.458      254.051   271254.161     3417.290    64542.004       19.082       16.961      199.221      361.411        3.291      332.150        0.634      847.921
01/24/2021  23:33:00      273.946       45.139      -78.150      618.530       45.804      295.886   382579.181     2098.032    87548.354       27.761       23.611      277.640      425.977        2.354      332.230        0.769      847.917
01/24/2021  23:34:00      275.134       42.229      -89.369      720.514       43.070      349.156   519139.800     1854.985   121910.113       36.406       32.145      278.356      500.033        3.227      332.359        0.988      847.911
01/24/2021  23:35:00      132.442       42.082      -26.815      448.796       49.071      216.336   201417.816     2407.966    46801.457       13.528       12.531      138.967      308.428        4.926      332.077        0.512      847.904
01/24/2021  23:36:00      257.430       45.473      -87.275      750.492       47.860      360.253   563237.880     2290.558   129782.186       38.549       34.766      261.415      518.190        3.929      332.475        1.177      847.892
01/24/2021  23:37:00      245.858       71.805      -58.286      646.054       56.457      309.922   417386.271     3187.343    96051.510       29.271       25.831      256.129      444.526        3.012      332.252        0.808      847.887
01/24/2021  23:38:00      234.759       71.054      -65.811      615.180       51.423      284.822   378445.976     2644.368    81123.638       26.326       23.111      245.276      416.538        2.884      332.239        0.786      847.879
01/24/2021  23:39:00      228.605       91.192      -64.224      589.931       47.348      276.998   348018.236     2241.875    76727.777       24.576       21.349      246.122      402.116        2.669      332.182        0.688      847.858
01/24/2021  23:40:00      214.530       73.601      -57.744      578.559       48.322      275.933   334730.948     2335.051    76138.914       23.391       20.660      226.805      397.267        3.068      332.212        0.738      847.841
01/24/2021  23:41:00      173.960       73.848      -31.590      477.214       48.327      228.594   227732.818     2335.514    52255.159       15.946       14.116      188.986      328.041        3.013      332.006        0.398      847.816
01/24/2021  23:42:00      203.831       75.884      -37.984      444.458       50.912      213.595   197543.129     2592.048    45622.629       14.720       12.288      217.499      305.059        1.967      331.968        0.333      847.794
01/24/2021  23:43:00      564.722       67.400     -213.055     1067.047       52.680      514.311  1138588.518     2775.163   264515.658       88.708       70.294      568.730      739.348        1.690      333.499        2.893      847.772
01/24/2021  23:44:00      456.707       67.741     -168.717      968.171       53.292      462.796   937355.080     2840.084   214180.555       69.778       57.719      461.703      667.918        2.093      333.138        2.290      847.761
01/24/2021  23:45:00      350.514       75.193     -118.973      823.595       54.431      393.433   678308.059     2962.756   154789.875       48.920       41.803      358.489      567.266        2.504      332.693        1.543      847.758
01/24/2021  23:46:00      370.352       74.921     -118.551      790.338       58.808      375.487   624633.510     3458.407   140990.163       46.280       38.454      377.854      542.587        2.062      332.695        1.546      847.754
01/24/2021  23:47:00      224.598       73.372      -51.982      536.310       50.432      259.250   287628.558     2543.385    67210.444       20.789       17.869      236.279      370.069        2.453      332.171        0.670      847.748
01/24/2021  23:48:00      237.847       68.208      -71.180      652.009       44.211      319.137   425115.450     1954.602   101848.309       29.750       26.446      247.434      454.358        3.372      332.214        0.743      847.739
01/24/2021  23:49:00      261.858       83.508      -72.084      690.344       44.662      334.430   476574.615     1994.687   111843.340       33.546       29.521      274.851      478.427        3.030      332.476        1.178      847.735
01/24/2021  23:50:00      680.257       75.500     -282.970     1123.599       49.519      531.049  1262473.593     2452.166   282013.206      104.744       77.347      684.434      771.336        1.270      333.991        3.712      847.729
01/24/2021  23:51:00      296.390       93.227      -69.153      676.520       75.570      307.400   457679.543     5710.815    94495.005       32.950       27.894      310.706      451.850        2.115      332.706        1.557      847.716
01/24/2021  23:52:00      304.367       79.346      -96.883      730.621       55.538      351.234   533806.714     3084.512   123365.391       38.416       33.013      314.539      503.722        2.565      332.479        1.184      847.705
01/24/2021  23:53:00      209.471       66.918      -60.133      721.054       53.244      335.050   519919.336     2834.883   112258.204       34.337       31.751      219.900      489.588        4.957      332.457        1.150      847.680
01/24/2021  23:54:00      235.177       44.171      -71.630      691.287       44.294      322.018   477877.425     1961.976   103695.449       32.285       29.177      239.289      470.205        3.861      332.351        0.970      847.654
01/24/2021  23:55:00      130.944       56.777        5.002      423.216       49.761      206.161   179111.558     2476.130    42502.243       12.220       11.204      142.724      292.172        4.191      331.980        0.352      847.628
01/24/2021  23:56:00      258.246       63.276      -60.085      656.394       60.759      312.269   430853.441     3691.614    97511.939       30.308       26.603      265.885      449.777        2.862      332.383        1.026      847.613
01/24/2021  23:57:00      390.212       51.786     -148.482      891.555       53.601      431.285   794870.192     2873.099   186006.648       58.018       49.187      393.633      618.440        2.468      332.906        1.901      847.604
01/24/2021  23:58:00      162.247      105.593      -23.423      459.421       47.319      222.368   211067.619     2239.080    49447.672       15.034       13.138      193.582      316.104        2.666      331.937        0.281      847.602
01/24/2021  23:59:00      229.570       67.982      -82.483      682.467       38.499      324.383   465761.800     1482.156   105224.358       31.819       28.623      239.424      469.081        3.838      332.242        0.793      847.607
01/25/2021  00:00:00      208.306       38.994      -64.029      666.175       42.048      308.550   443789.142     1768.006    95203.318       29.478       27.038      211.924      451.576        4.540      332.268        0.837      847.597
01/25/2021  00:01:00      544.066       34.902     -218.080     1029.468       43.925      486.403  1059803.630     1929.410   236588.000       82.130       64.916      545.185      706.539        1.680      333.543        2.962      847.586
01/25/2021  00:02:00      290.876       52.137      -83.090      680.913       45.100      325.763   463642.697     2033.983   106121.333       33.290       28.590      295.511      468.853        2.517      332.296        0.882      847.555
01/25/2021  00:03:00      209.827       53.533      -41.979      552.235       55.151      264.185   304963.913     3041.676    69793.789       21.315       18.890      216.549      378.765        3.059      332.193        0.708      847.522
01/25/2021  00:04:00      282.741       50.778      -66.755      630.138       58.611      300.884   397073.297     3435.194    90531.303       28.891       24.552      287.264      433.081        2.273      332.175        0.679      847.488
01/25/2021  00:05:00      272.093      104.332      -45.114      588.356       63.653      273.101   346162.212     4051.763    74584.224       25.579       21.240      291.410      396.689        1.853      332.036        0.450      847.461
01/25/2021  00:06:00      311.455       87.225      -92.610      701.717       51.079      339.735   492407.044     2609.023   115419.668       36.169       30.522      323.438      485.569        2.254      332.246        0.799      847.450
01/25/2021  00:07:00      374.325       77.112     -114.885      826.189       63.958      387.488   682589.051     4090.584   150146.671       49.787       41.841      382.185      563.081        2.171      332.461        1.161      847.456
01/25/2021  00:08:00      286.015       64.071      -74.359      613.236       62.602      294.344   376058.024     3919.019    86638.629       27.893       23.331      293.103      421.624        2.069      332.112        0.575      847.454
01/25/2021  00:09:00      186.881       49.455      -46.363      519.189       57.291      247.424   269557.540     3282.301    61218.604       18.672       16.703      193.314      355.656        3.385      331.943        0.294      847.449
01/25/2021  00:10:00      182.763       65.104      -21.460      360.745       46.733      173.656   130136.913     2183.950    30156.461       10.026        8.124      194.012      246.309        1.612      331.671       -0.162      847.441
01/25/2021  00:11:00      242.228       90.901      -27.612      505.201       56.349      241.646   255228.492     3175.193    58392.767       19.218       15.840      258.722      345.961        1.788      331.790        0.039      847.417
01/25/2021  00:12:00      154.299       33.188      -19.271      429.016       50.483      201.732   184054.408     2548.509    40695.837       12.624       11.365      157.828      289.900        3.374      331.786        0.032      847.394
01/25/2021  00:13:00      170.777       55.499      -25.525      433.110       54.435      209.976   187583.976     2963.140    44089.738       13.372       11.732      179.568      297.622        2.747      331.730       -0.061      847.361
01/25/2021  00:14:00      148.628       47.521      -12.541      400.250       60.528      192.784   160199.918     3663.692    37165.762       11.273       10.051      156.041      274.572        3.096      331.663       -0.173      847.345
01/25/2021  00:15:00      119.438       61.626      -14.153      344.500       46.773      154.686   118680.020     2187.732    23927.874        8.150        7.240      134.400      227.004        2.853      331.606       -0.265      847.347
01/25/2021  00:16:00      136.765       84.241       -5.339      343.880       59.703      166.905   118253.371     3564.432    27857.381        8.772        7.484      160.627      234.107        2.124      331.601       -0.275      847.346
01/25/2021  00:17:00      203.016       74.098      -38.973      485.213       49.705      231.257   235432.089     2470.572    53479.853       16.974       14.569      216.116      331.996        2.360      331.750       -0.025      847.349
01/25/2021  00:18:00      201.192       87.011      -63.538      568.416       48.915      267.948   323096.965     2392.663    71796.092       22.460       19.864      219.201      388.297        3.138      331.910        0.241      847.346
01/25/2021  00:19:00      173.275       85.930      -28.630      385.835       48.886      185.209   148868.445     2389.841    34302.322       11.186        9.278      193.412      262.526        1.842      331.687       -0.133      847.320
01/25/2021  00:20:00      174.462       95.488       -5.617      277.469       54.763      127.536    76989.301     2999.027    16265.515        6.790        4.813      198.884      180.905        0.827      331.526       -0.400      847.302
01/25/2021  00:21:00      147.917       49.828      -12.640      353.930       59.104      166.537   125266.547     3493.293    27734.620        9.048        7.825      156.084      238.153        2.328      331.671       -0.158      847.284
01/25/2021  00:22:00      177.297       81.467      -17.784      421.024       52.173      198.618   177261.456     2721.983    39449.127       12.886       10.972      195.118      285.654        2.143      331.673       -0.155      847.271
01/25/2021  00:23:00      155.874       54.837      -23.354      447.103       53.775      212.908   199900.686     2891.778    45329.631       13.793       12.406      165.239      303.903        3.383      331.786        0.034      847.257
01/25/2021  00:24:00      191.693       98.638      -37.999      449.397       58.857      216.978   201957.983     3464.204    47079.503       15.016       12.625      215.583      306.919        2.027      331.719       -0.080      847.256
01/25/2021  00:25:00      163.562       89.898       -7.505      326.500       54.846      161.392   106602.560     3008.119    26047.447        8.525        6.783      186.639      224.155        1.442      331.558       -0.347      847.262
01/25/2021  00:26:00      115.745       90.613      -10.670      237.433       49.976      113.292    56374.594     2497.636    12835.014        4.670        3.585      146.996      157.475        1.148      331.529       -0.396      847.264
01/25/2021  00:27:00      149.640       84.541      -26.151      311.023       46.041      148.207    96735.288     2119.768    21965.341        7.550        6.041      171.870      210.397        1.499      331.645       -0.203      847.270
01/25/2021  00:28:00      146.223       44.222      -11.928      359.719       77.796      174.231   129397.558     6052.165    30356.384        9.461        8.290      152.764      243.846        2.548      331.814        0.076      847.265
01/25/2021  00:29:00      160.623       52.162       -8.830      213.591       50.501      104.013    45620.920     2550.356    10818.794        4.378        2.950      168.880      142.825        0.715      331.533       -0.391      847.251
01/25/2021  00:30:00      157.066       54.049      -12.133      354.050       58.702      169.663   125351.743     3445.938    28785.371        9.263        7.879      166.105      240.931        2.104      331.626       -0.234      847.233
01/25/2021  00:31:00      192.557       73.148       -3.906      236.387       55.553      115.739    55878.861     3086.182    13395.472        5.739        3.618      205.982      158.672        0.593      331.504       -0.437      847.202
01/25/2021  00:32:00      209.141       87.578       -4.139      223.158       63.741      112.656    49799.395     4062.932    12691.423        5.898        3.328      226.738      149.191        0.433      331.463       -0.507      847.179
01/25/2021  00:33:00      198.980      102.085        3.437      173.188       81.406       84.291    29994.019     6626.965     7104.951        4.687        2.186      223.639      104.686        0.219      331.445       -0.535      847.160
01/25/2021  00:34:00      219.390      103.628      -25.481      425.539       62.373      201.616   181083.241     3890.433    40649.075       14.252       11.281      242.633      288.438        1.413      331.634       -0.219      847.151
01/25/2021  00:35:00      158.764      109.468       -5.749      253.173       62.840      124.616    64096.660     3948.928    15529.145        6.038        4.179      192.845      167.292        0.753      331.458       -0.513      847.156
01/25/2021  00:36:00      103.388       88.264      -24.429      373.763       45.425      175.074   139698.649     2063.436    30650.963        9.571        8.621      135.939      253.066        3.466      331.617       -0.249      847.179
01/25/2021  00:37:00       69.843       83.598        5.445      266.488       53.546      131.441    71015.883     2867.200    17276.834        5.151        4.558      108.934      181.772        2.784      331.577       -0.315      847.197
01/25/2021  00:38:00       93.135       60.180      -21.053      387.292       44.706      188.009   149994.711     1998.585    35347.353       10.000        9.367      110.886      267.197        5.806      331.591       -0.292      847.211
01/25/2021  00:39:00       86.084       57.629       -3.773      286.428       51.983      136.554    82041.117     2702.281    18646.874        5.705        5.170      103.594      193.885        3.503      331.588       -0.296      847.213
01/25/2021  00:40:00      192.193      105.153      -55.518      533.903       55.195      258.791   285052.059     3046.501    66972.954       20.300       17.754      219.078      369.198        2.840      331.788        0.038      847.209
01/25/2021  00:41:00       75.003       72.860       -1.301      162.224       46.979       82.037    26316.659     2207.070     6730.008        2.309        1.763      104.565      109.235        1.091      331.421       -0.574      847.195
01/25/2021  00:42:00       79.269       27.989       -9.467      272.933       45.976      130.661    74492.354     2113.818    17072.361        5.040        4.684       84.066      185.796        4.885      331.562       -0.341      847.185
01/25/2021  00:43:00       86.027       26.927        8.127      206.559       45.935       98.248    42666.721     2110.026     9652.594        3.130        2.721       90.143      136.850        2.305      331.517       -0.414      847.169
01/25/2021  00:44:00      128.320       33.017       -0.842      260.804       47.500      125.291    68018.601     2256.237    15697.766        5.175        4.299      132.500      175.671        1.758      331.529       -0.396      847.162
01/25/2021  00:45:00      144.380       71.830      -30.337      351.101       43.100      169.531   123271.630     1857.624    28740.606        9.036        7.693      161.261      240.957        2.233      331.644       -0.205      847.143
01/25/2021  00:46:00      141.470       56.468      -35.798      505.929       58.373      242.195   255963.813     3407.421    58658.257       17.119       15.901      152.323      347.527        5.205      331.858        0.153      847.133
01/25/2021  00:47:00      134.857       75.464      -13.138      300.457       46.497      145.662    90274.450     2161.994    21217.531        6.883        5.683      154.536      205.104        1.762      331.516       -0.416      847.115
01/25/2021  00:48:00      105.412       62.378       -4.232      253.715       46.931      120.699    64371.321     2202.565    14568.369        4.806        4.057      122.485      170.373        1.935      331.448       -0.529      847.093
01/25/2021  00:49:00       85.811       55.435        4.782      128.363       50.536       65.014    16476.954     2553.936     4226.830        1.685        1.163      102.159       82.487        0.652      331.429       -0.563      847.065
01/25/2021  00:50:00      154.383       68.269      -13.336      367.569       56.999      179.007   135107.303     3248.835    32043.391        9.950        8.520      168.804      251.773        2.225      331.615       -0.251      847.040
01/25/2021  00:51:00      202.717      101.100      -25.018      450.163       57.276      216.577   202646.916     3280.491    46905.477       15.233       12.642      226.529      308.230        1.851      331.718       -0.080      847.017
01/25/2021  00:52:00      111.402      100.235      -11.638      167.330       54.105       81.602    27999.464     2927.307     6658.937        3.008        1.879      149.858      106.806        0.508      331.390       -0.626      847.002
01/25/2021  00:53:00      164.697       88.009      -27.946      512.664       56.908      248.210   262823.996     3238.484    61608.272       18.159       16.384      186.737      353.303        3.580      331.708       -0.094      847.004
01/25/2021  00:54:00      170.377       79.366      -48.153      522.231       45.457      248.586   272725.617     2066.383    61795.177       18.705       16.829      187.955      358.442        3.637      331.731       -0.054      847.029
01/25/2021  00:55:00      106.308       69.486      -19.442      357.054       43.331      173.271   127487.392     1877.570    30022.944        8.791        7.969      127.003      246.444        3.765      331.535       -0.382      847.059
01/25/2021  00:56:00       35.049       45.919       13.821       35.872       47.676       26.510     1286.810     2272.968      702.792        0.389        0.213       57.766       32.443        0.315      331.396       -0.617      847.079
01/25/2021  00:57:00       83.232       64.354       -2.146      223.632       47.685      108.653    50011.067     2273.839    11805.471        3.757        3.205      105.209      151.122        2.063      331.447       -0.530      847.079
01/25/2021  00:58:00      124.440       83.884      -25.126      380.022       44.936      182.951   144416.544     2019.236    33471.084       10.149        8.995      150.073      260.439        3.012      331.561       -0.339      847.063
01/25/2021  00:59:00      121.609       69.116        8.241      195.063       54.736       93.109    38049.720     2995.988     8669.335        3.466        2.486      139.878      126.931        0.823      331.426       -0.565      847.028
01/25/2021  01:00:00      101.529       86.319        7.797      145.759       57.810       72.529    21245.571     3341.959     5260.517        2.383        1.492      133.263       91.468        0.471      331.435       -0.551      846.977
01/25/2021  01:01:00      150.068       83.647      -10.567      304.262       51.313      150.043    92575.390     2633.026    22513.020        7.365        5.886      171.805      208.453        1.472      331.487       -0.463      846.931
01/25/2021  01:02:00      117.804       84.874       11.934       60.031       50.568       35.178     3603.770     2557.093     1237.466        1.431        0.370      145.194       29.850        0.042      331.345       -0.699      846.905
01/25/2021  01:03:00      139.419      102.005      -18.724      336.911       56.931      156.608   113508.898     3241.135    24526.042        8.570        7.064      172.750      223.273        1.670      331.490       -0.457      846.903
01/25/2021  01:04:00       71.722      104.037       -1.584       48.074       56.855       30.840     2311.119     3232.487      951.088        1.123        0.325      126.364       30.831        0.060      331.409       -0.594      846.912
01/25/2021  01:05:00       81.956       94.570       -4.212       32.809       47.879       29.951     1076.417     2292.378      897.055        0.997        0.213      125.141       33.646        0.072      331.350       -0.689      846.932
01/25/2021  01:06:00      100.637       70.780      -16.923      319.895       56.495      153.854   102333.039     3191.679    23671.105        7.228        6.460      123.035      217.816        3.134      331.521       -0.406      846.951
01/25/2021  01:07:00       42.818       51.627       -6.268      276.993       35.045      121.887    76725.085     1228.179    14856.370        4.865        4.640       67.072      180.754        7.263      331.496       -0.450      846.964
01/25/2021  01:08:00       44.913      119.457      -16.488      241.806       51.141      119.011    58470.081     2615.396    14163.574        4.589        3.762      127.621      165.246        1.677      331.541       -0.376      846.973
01/25/2021  01:09:00       60.495       52.392      -13.495      391.222       51.438      188.759   153054.921     2645.888    35629.845        9.892        9.567       80.028      268.351       11.244      331.659       -0.178      846.978
01/25/2021  01:10:00       29.859       73.547        7.423      160.048       49.941       77.097    25615.297     2494.056     5944.011        2.020        1.703       79.377      104.406        1.730      331.490       -0.462      846.980
01/25/2021  01:11:00       73.190       76.340       -5.635      356.549       53.584      169.754   127126.914     2871.261    28816.343        8.498        7.941      105.757      242.507        5.258      331.567       -0.331      846.957
01/25/2021  01:12:00      126.150       72.835      -13.612      407.847       49.111      199.243   166339.407     2411.857    39697.755       11.488       10.422      145.667      280.817        3.716      331.637       -0.214      846.937
01/25/2021  01:13:00      148.038      104.215      -30.466      433.877       51.609      206.473   188249.101     2663.536    42631.228       13.357       11.677      181.042      295.527        2.665      331.622       -0.238      846.905
01/25/2021  01:14:00      117.227       88.439       -7.751      169.501       58.373       81.481    28730.731     3407.448     6639.139        3.019        1.939      146.845      102.632        0.488      331.418       -0.580      846.875
01/25/2021  01:15:00       99.340       69.437       -5.157      244.510       66.745      118.270    59784.991     4454.938    13987.689        4.646        3.911      121.202      161.611        1.778      331.423       -0.570      846.847
01/25/2021  01:16:00      117.961      104.967      -17.716      278.245       64.075      132.199    77420.437     4105.567    17476.601        6.210        4.950      157.901      186.125        1.389      331.485       -0.466      846.846
01/25/2021  01:17:00      119.142       82.647      -16.576      370.571       58.079      177.761   137322.837     3373.148    31599.135        9.676        8.615      145.001      252.207        3.025      331.535       -0.383      846.863
01/25/2021  01:18:00       89.920       61.521      -10.888      326.310       50.546      159.915   106477.937     2554.933    25572.763        7.327        6.730      108.952      225.075        4.268      331.474       -0.482      846.886
01/25/2021  01:19:00       70.257       29.247      -10.485      320.108       46.786      153.475   102469.349     2188.889    23554.601        6.703        6.411       76.102      219.046        8.285      331.461       -0.503      846.903
01/25/2021  01:20:00      102.340       32.794       -8.449      322.351       54.371      156.191   103910.136     2956.175    24395.605        7.141        6.563      107.466      220.350        4.204      331.572       -0.323      846.915
01/25/2021  01:21:00       72.257       48.682       -0.235      195.305       53.088       98.127    38143.915     2818.330     9628.960        2.908        2.530       87.127      132.262        2.304      331.438       -0.545      846.929
01/25/2021  01:22:00       86.738       61.305      -15.319      381.413       47.362      186.130   145476.182     2243.194    34644.435        9.690        9.118      106.215      263.546        6.157      331.673       -0.157      846.933
01/25/2021  01:23:00       91.894       94.208      -23.119      435.463       47.942      208.187   189628.445     2298.413    43341.666       12.651       11.763      131.605      298.874        5.157      331.720       -0.076      846.934
01/25/2021  01:24:00       83.508      102.992       -9.995      332.146       49.223      159.265   110321.070     2422.871    25365.402        7.787        6.905      132.593      227.041        2.932      331.547       -0.365      846.930
01/25/2021  01:25:00       99.521      112.199      -14.703      376.086       56.442      178.862   141440.304     3185.664    31991.511        9.963        8.831      149.977      256.327        2.921      331.580       -0.308      846.916
01/25/2021  01:26:00       73.649       94.953        1.378      177.168       53.448       88.279    31388.486     2856.692     7793.113        2.823        2.102      120.167      117.849        0.962      331.460       -0.508      846.895
01/25/2021  01:27:00       67.082      113.313       -2.190      203.939       46.465      105.803    41591.175     2158.978    11194.192        3.613        2.747      131.681      141.164        1.149      331.490       -0.459      846.868
01/25/2021  01:28:00      187.789      121.877      -33.521      443.664       51.223      204.553   196838.075     2623.794    41841.809       14.622       12.065      223.872      296.989        1.760      331.573       -0.320      846.846
01/25/2021  01:29:00       80.888       70.681       -2.909      226.355       52.458      111.629    51236.773     2751.830    12461.053        3.898        3.322      107.419      152.363        2.012      331.473       -0.489      846.822
01/25/2021  01:30:00      113.664       70.936      -10.227      303.567       52.477      145.383    92153.099     2753.802    21136.157        6.702        5.802      133.983      206.143        2.367      331.491       -0.455      846.809
01/25/2021  01:31:00      167.520      119.044      -25.520      357.823       55.743      173.930   128037.378     3107.330    30251.649       10.211        8.070      205.510      245.576        1.428      331.501       -0.440      846.805
01/25/2021  01:32:00      140.616      117.445      -20.053      283.043       62.352      139.618    80113.150     3887.789    19493.216        6.871        5.175      183.211      192.437        1.103      331.518       -0.413      846.806
01/25/2021  01:33:00       89.602       61.490      -10.374      243.618       46.840      120.202    59349.573     2193.993    14448.558        4.394        3.800      108.671      166.578        2.350      331.498       -0.446      846.809
01/25/2021  01:34:00      136.521       95.845       -4.872      227.926       55.247      109.555    51950.277     3052.231    12002.318        4.741        3.350      166.806      149.330        0.801      331.404       -0.602      846.814
01/25/2021  01:35:00      101.216       68.287      -10.985      284.366       41.239      139.979    80864.194     1700.631    19594.105        5.857        5.108      122.097      195.047        2.552      331.443       -0.536      846.827
01/25/2021  01:36:00       90.175       57.652        0.776       36.333       54.966       25.689     1320.100     3021.286      659.934        0.823        0.250      107.029       27.002        0.064      331.345       -0.699      846.836
01/25/2021  01:37:00      101.169       83.134       -3.476      265.991       56.006      130.144    70750.993     3136.683    16937.578        5.397        4.541      130.944      179.479        1.879      331.439       -0.543      846.846
01/25/2021  01:38:00       55.981       38.076       -9.098      309.915       40.111      148.983    96047.007     1608.854    22196.048        6.223        5.993       67.703      212.395        9.842      331.464       -0.500      846.856
01/25/2021  01:39:00       23.381      110.756        4.894       40.370       53.011       26.764     1629.726     2810.217      716.333        0.900        0.258      113.197       21.854        0.037      331.422       -0.573      846.848
01/25/2021  01:40:00      113.330       31.686      -25.424      441.990       44.567      212.604   195355.126     1986.226    45200.644       12.847       12.127      117.676      304.010        6.674      331.703       -0.104      846.837
01/25/2021  01:41:00       91.528       79.056      -30.786      478.893       61.890      230.294   229338.726     3830.421    53035.219       15.083       14.310      120.943      330.057        7.448      331.736       -0.048      846.830
01/25/2021  01:42:00       50.782      117.447       -9.043      219.029       48.742      108.573    47973.555     2375.771    11788.023        3.928        3.107      127.956      148.629        1.349      331.590       -0.297      846.824
01/25/2021  01:43:00       76.765       53.158      -12.293      351.720       42.146      169.218   123707.279     1776.304    28634.731        8.146        7.706       93.374      241.238        6.675      331.598       -0.280      846.820
01/25/2021  01:44:00       63.159       78.047        1.924      145.703       46.456       71.217    21229.453     2158.172     5071.884        1.927        1.423      100.401       96.127        0.917      331.460       -0.510      846.827
01/25/2021  01:45:00       74.705       56.724       -7.954      319.381       42.917      152.667   102003.942     1841.868    23307.161        6.798        6.358       93.800      217.637        5.383      331.531       -0.391      846.824
01/25/2021  01:46:00       32.644       40.382        0.978      196.044       37.523       92.439    38433.311     1407.968     8545.001        2.553        2.419       51.927      130.929        6.358      331.490       -0.459      846.827
01/25/2021  01:47:00       63.350       40.273        0.166      184.194       46.783       89.718    33927.462     2188.611     8049.235        2.489        2.208       75.068      123.497        2.706      331.498       -0.447      846.837
01/25/2021  01:48:00       99.569       50.951      -12.309      306.133       46.828      146.894    93717.672     2192.821    21577.868        6.505        5.874      111.848      208.504        3.475      331.567       -0.331      846.850
01/25/2021  01:49:00      142.802       45.029      -22.704      434.476       48.798      208.493   188769.158     2381.267    43469.248       12.873       11.731      149.733      297.811        3.956      331.720       -0.076      846.856
01/25/2021  01:50:00      163.862       42.898      -38.487      465.033       53.673      222.735   216255.698     2880.772    49610.915       14.940       13.437      169.384      318.881        3.544      331.757       -0.015      846.856
01/25/2021  01:51:00      113.114       79.762      -19.425      347.214       47.598      165.912   120557.400     2265.560    27526.749        8.491        7.517      138.408      235.730        2.901      331.559       -0.344      846.850
01/25/2021  01:52:00       79.035       29.231      -19.570      248.509       68.814      120.447    61756.789     4735.420    14507.562        4.422        4.050       84.267      166.983        3.927      331.673       -0.157      846.844
01/25/2021  01:53:00      113.282       25.058       -9.080      293.842       45.654      140.806    86343.144     2084.272    19826.235        6.088        5.413      116.020      199.214        2.948      331.560       -0.345      846.826
01/25/2021  01:54:00      129.259       70.411       -9.705      328.694       52.807      160.683   108039.628     2788.566    25819.040        7.917        6.832      147.192      225.352        2.344      331.539       -0.378      846.817
01/25/2021  01:55:00       75.510       74.956       -3.682      178.795       48.060       87.604    31967.822     2309.727     7674.531        2.663        2.098      106.396      117.425        1.218      331.472       -0.491      846.812
01/25/2021  01:56:00       88.433       37.249        2.606       35.016       45.665       27.593     1226.105     2085.296      761.368        0.664        0.204       95.957       32.218        0.113      331.360       -0.675      846.795
01/25/2021  01:57:00       73.746       68.006        6.357      187.565       50.956       89.418    35180.694     2596.488     7995.638        2.793        2.289      100.316      121.366        1.464      331.462       -0.507      846.783
01/25/2021  01:58:00       67.508       81.290      -10.120      341.049       48.277      160.603   116314.504     2330.662    25793.411        7.782        7.222      105.667      230.956        4.777      331.604       -0.271      846.772
01/25/2021  01:59:00      101.814       96.254      -16.442      379.109       54.497      185.762   143723.384     2969.908    34507.686       10.051        9.060      140.110      260.993        3.470      331.697       -0.116      846.766
01/25/2021  02:00:00       87.897       54.993      -14.695      352.778       47.577      171.623   124452.498     2263.603    29454.422        8.354        7.809      103.683      242.470        5.469      331.628       -0.232      846.754
01/25/2021  02:01:00       88.574       80.465       -6.567      252.331       51.655      120.230    63670.967     2668.219    14455.287        4.756        4.040      119.666      168.506        1.983      331.479       -0.478      846.754
01/25/2021  02:02:00       82.848       89.271      -13.708      319.734       50.486      154.832   102230.139     2548.884    23972.840        7.186        6.438      121.791      218.731        3.225      331.573       -0.323      846.747
01/25/2021  02:03:00       54.786       73.370       -2.970      310.724       48.213      152.511    96549.712     2324.525    23259.491        6.524        6.107       91.568      214.365        5.481      331.659       -0.179      846.740
01/25/2021  02:04:00      140.994       80.345      -26.213      423.591       44.174      206.735   179429.749     1951.344    42739.557       12.552       11.206      162.279      293.066        3.261      331.637       -0.214      846.736
01/25/2021  02:05:00       82.968       64.097       -3.492      235.996       59.670      118.371    55693.950     3560.451    14011.613        4.212        3.663      104.843      158.214        2.277      331.514       -0.420      846.733
01/25/2021  02:06:00      131.133       86.513       -6.934      252.816       51.837      122.507    63915.909     2687.090    15007.875        5.315        4.081      157.100      168.443        1.150      331.472       -0.488      846.734
01/25/2021  02:07:00       90.696      122.364      -30.578      415.401       61.578      197.103   172558.044     3791.880    38849.451       11.962       10.760      152.311      282.998        3.452      331.710       -0.094      846.727
01/25/2021  02:08:00       58.941       89.068       -6.813      257.955       50.104      122.811    66540.877     2510.451    15082.424        4.778        4.207      106.804      173.988        2.654      331.556       -0.351      846.722
01/25/2021  02:09:00       91.753      128.547      -24.892      383.347       53.977      186.260   146954.980     2913.473    34692.716       10.502        9.228      157.934      264.756        2.810      331.715       -0.087      846.721
01/25/2021  02:10:00      112.771      116.593      -19.774      399.337       67.618      190.467   159469.777     4572.201    36277.723       11.347       10.016      162.207      271.478        2.801      331.644       -0.203      846.717
01/25/2021  02:11:00      119.810       65.418      -13.714      423.420       52.009      205.359   179284.684     2704.893    42172.411       12.144       11.208      136.507      290.829        4.539      331.667       -0.163      846.716
01/25/2021  02:12:00       85.956      154.341      -23.193      361.106       75.671      169.224   130397.598     5726.123    28636.814        9.822        8.238      176.662      243.717        1.903      331.659       -0.181      846.715
01/25/2021  02:13:00      129.801      147.039      -26.264      424.882       61.196      199.755   180524.689     3744.899    39901.885       13.162       11.209      196.134      287.108        2.143      331.740       -0.046      846.715
01/25/2021  02:14:00       87.080      105.774       -8.963      333.060       51.059      163.295   110928.911     2607.039    26665.180        7.950        7.010      137.008      228.761        2.788      331.624       -0.238      846.709
01/25/2021  02:15:00      127.776      104.516      -29.667      393.743       50.622      190.987   155033.219     2562.613    36476.223       11.106        9.704      165.076      271.549        2.706      331.640       -0.208      846.699
01/25/2021  02:16:00      122.530       79.163       -9.562      284.299       49.397      139.213    80826.198     2440.061    19380.140        6.199        5.132      145.878      193.379        1.757      331.531       -0.392      846.692
01/25/2021  02:17:00       82.220       79.619        1.314       42.908       47.322       31.079     1841.120     2239.383      965.916        0.907        0.252      114.453       25.820        0.051      331.407       -0.597      846.687
01/25/2021  02:18:00      135.436       70.100      -12.911      318.302       49.227      151.525   101316.080     2423.300    22959.724        7.503        6.335      152.502      213.140        1.953      331.551       -0.358      846.687
01/25/2021  02:19:00      205.150       96.320      -50.690      560.019       48.826      267.388   313620.961     2383.943    71496.382       22.064       19.375      226.636      383.925        2.870      331.824        0.099      846.687
01/25/2021  02:20:00      148.783      100.449      -36.813      477.914       58.233      232.143   228401.405     3391.074    53890.196       15.957       14.284      179.518      330.290        3.385      331.738       -0.046      846.688
01/25/2021  02:21:00      149.601       88.663      -37.541      493.741       70.351      240.607   243780.491     4949.329    57891.791       16.907       15.331      173.901      342.459        3.878      331.773        0.012      846.683
01/25/2021  02:22:00      138.486       63.047      -28.261      476.716       46.399      229.356   227258.546     2152.853    52604.291       15.292       14.101      152.162      328.520        4.661      331.722       -0.071      846.670
01/25/2021  02:23:00       67.244       72.542       -8.736      207.536       39.984       96.701    43071.238     1598.732     9351.023        3.193        2.701       98.914      138.196        1.952      331.531       -0.394      846.656
01/25/2021  02:24:00       62.093       49.522        9.753      145.666       47.495       73.009    21218.640     2255.739     5330.309        1.760        1.440       79.423       96.176        1.466      331.436       -0.550      846.643
01/25/2021  02:25:00      167.189       54.071      -43.627      581.738       66.674      277.656   338418.537     4445.411    77092.749       22.628       20.998      175.715      399.945        5.181      331.848        0.139      846.626
01/25/2021  02:26:00      110.873      117.470      -17.569      280.378       63.335      133.741    78612.041     4011.323    17886.784        6.343        5.026      161.530      187.282        1.344      331.526       -0.400      846.620
01/25/2021  02:27:00      148.707       26.601      -47.428      583.180       52.395      272.829   340099.489     2745.273    74435.840       22.109       20.864      151.067      396.314        6.882      331.920        0.257      846.619
01/25/2021  02:28:00       92.423       49.370      -14.956      306.368       52.270      145.976    93861.401     2732.202    21309.084        6.453        5.895      104.783      207.285        3.913      331.613       -0.256      846.622
01/25/2021  02:29:00       65.964       88.572      -14.527      391.611       49.740      187.934   153358.823     2474.028    35319.239       10.174        9.558      110.437      268.422        5.908      331.619       -0.245      846.634
01/25/2021  02:30:00      122.862       91.739      -16.928      446.386       53.992      217.028   199260.837     2915.181    47101.183       13.649       12.464      153.334      306.721        4.001      331.719       -0.077      846.646
01/25/2021  02:31:00       61.971      105.961        5.924      163.519       62.708       84.448    26738.451     3932.284     7131.419        2.644        1.890      122.752      107.550        0.768      331.547       -0.368      846.654
01/25/2021  02:32:00      113.296      131.049      -41.897      476.286       46.579      230.268   226848.730     2169.586    53023.414       15.684       14.102      173.234      328.322        3.592      331.800        0.055      846.657
01/25/2021  02:33:00      124.072       64.515      -13.465      331.797       45.979      157.660   110089.171     2114.069    24856.707        7.837        6.853      139.843      224.979        2.588      331.563       -0.337      846.650
01/25/2021  02:34:00      122.667       65.730      -42.487      570.486       45.050      271.111   325453.957     2029.514    73500.983       21.099       20.049      139.167      391.105        7.898      331.935        0.282      846.646
01/25/2021  02:35:00      118.662      139.124      -34.164      446.725       85.060      206.924   199563.296     7235.185    42817.683       14.206       12.481      182.856      302.237        2.732      331.771        0.007      846.638
01/25/2021  02:36:00      104.082      114.806      -28.801      427.338       56.923      202.899   182618.106     3240.250    41168.053       12.589       11.351      154.962      292.188        3.555      331.781        0.024      846.626
01/25/2021  02:37:00      167.550      122.570      -71.715      607.684       46.942      290.608   369279.349     2203.546    84453.050       25.199       22.797      207.597      418.313        4.060      332.031        0.441      846.620
01/25/2021  02:38:00       63.326      113.923      -23.018      342.450       41.642      164.702   117271.750     1734.048    27126.896        8.179        7.307      130.340      235.416        3.262      331.750       -0.028      846.617
01/25/2021  02:39:00       62.743       61.735       -7.303      310.570       42.145      149.027    96453.449     1776.225    22208.968        6.409        6.022       88.022      211.970        5.799      331.630       -0.227      846.607
01/25/2021  02:40:00      163.129      124.420      -71.018      646.130       44.058      311.153   417483.552     1941.067    96816.212       28.158       25.812      205.162      446.769        4.742      332.132        0.609      846.603
01/25/2021  02:41:00       51.355      115.836      -34.902      452.431       39.330      218.789   204693.988     1546.869    47868.771       13.564       12.705      126.710      313.011        6.102      331.820        0.089      846.594
01/25/2021  02:42:00       42.379      106.852      -35.498      451.212       51.429      213.773   203592.471     2644.953    45698.949       13.315       12.597      114.949      308.369        7.197      331.824        0.095      846.587
01/25/2021  02:43:00       22.117      145.069        0.857      143.603       64.362       73.310    20621.892     4142.464     5374.342        2.583        1.507      146.746       97.035        0.437      331.606       -0.271      846.580
01/25/2021  02:44:00       77.629      145.475       -9.796      313.072       74.320      145.038    98014.137     5523.524    21036.123        7.590        6.229      164.892      208.193        1.594      331.635       -0.221      846.576
01/25/2021  02:45:00      126.395      213.019      -42.077      418.214       44.916      201.292   174902.986     2017.418    40518.440       14.023       10.872      247.694      287.681        1.349      331.732       -0.061      846.583
01/25/2021  02:46:00      110.934      213.148      -46.177      469.828       63.424      225.164   220737.992     4022.545    50699.002       16.761       13.773      240.288      322.077        1.797      331.788        0.033      846.578
01/25/2021  02:47:00      139.982      119.111      -53.991      532.675       51.954      251.410   283742.614     2699.194    63206.997       19.310       17.482      183.800      364.036        3.923      331.946        0.300      846.573
01/25/2021  02:48:00      109.071      181.579      -30.210      378.552       53.016      181.290   143301.318     2810.731    32866.071       11.234        8.949      211.820      259.462        1.500      331.713       -0.090      846.565
01/25/2021  02:49:00      150.441      215.731      -53.434      486.831       52.052      231.883   237004.262     2709.441    53769.864       18.269       14.674      263.006      333.453        1.607      331.841        0.123      846.564
01/25/2021  02:50:00      138.149      144.305      -67.705      585.881       54.927      280.464   343256.739     3017.002    78660.162       23.462       21.247      199.772      402.989        4.069      332.059        0.486      846.553
01/25/2021  02:51:00       57.455      169.910      -26.204      310.358       64.217      153.400    96322.306     4123.836    23531.542        7.839        6.199      179.362      212.717        1.407      331.720       -0.081      846.555
01/25/2021  02:52:00      138.274      145.809      -42.507      497.407       56.015      244.090   247413.851     3137.640    59580.084       17.609       15.507      200.948      345.533        2.957      331.906        0.233      846.551
01/25/2021  02:53:00      143.100      135.416      -51.911      558.227       52.147      264.267   311617.387     2719.314    69836.914       21.276       19.209      197.015      382.515        3.770      331.966        0.334      846.542
01/25/2021  02:54:00      109.594      144.095      -38.422      495.368       46.646      237.592   245389.832     2175.808    56450.077       16.907       15.201      181.037      340.674        3.541      331.911        0.238      846.534
01/25/2021  02:55:00      142.686      171.879      -62.005      580.338       49.641      277.023   336791.648     2464.267    76741.652       23.478       20.800      223.387      398.889        3.189      331.992        0.375      846.523
01/25/2021  02:56:00       87.984      191.304      -23.623      306.124       47.636      145.126    93712.092     2269.217    21061.478        8.094        5.852      210.567      207.321        0.969      331.691       -0.130      846.515
01/25/2021  02:57:00       98.064      121.334      -20.612      377.405       56.994      181.782   142434.713     3248.366    33044.597       10.171        8.936      156.008      257.740        2.729      331.752       -0.026      846.511
01/25/2021  02:58:00      135.708      144.581      -44.803      514.469       63.448      248.059   264678.606     4025.591    61533.095       18.571       16.512      198.293      354.363        3.194      331.943        0.293      846.513
01/25/2021  02:59:00       95.132      170.563      -30.315      436.560       65.252      208.445   190584.291     4257.772    43449.251       13.863       11.915      195.299      298.275        2.333      331.779        0.019      846.504
01/25/2021  03:00:00      113.269      172.233      -35.201      403.932       56.661      191.850   163160.911     3210.447    36806.430       12.341       10.159      206.141      275.216        1.782      331.762       -0.008      846.506
01/25/2021  03:01:00       67.520      159.880      -29.533      386.708       51.632      188.486   149542.948     2665.817    35527.160       10.932        9.387      173.553      267.483        2.375      331.774        0.010      846.504
01/25/2021  03:02:00      165.520      123.751      -48.179      531.673       67.015      254.024   282676.182     4491.076    64528.186       19.829       17.585      206.667      363.024        3.086      331.942        0.291      846.513
01/25/2021  03:03:00       92.506       87.542      -32.390      464.123       55.959      225.285   215410.364     3131.367    50753.364       14.323       13.465      127.361      320.903        6.349      331.885        0.196      846.513
01/25/2021  03:04:00       78.345      132.793      -22.757      402.013       61.951      187.138   161614.101     3837.941    35020.664       11.234       10.024      154.181      269.725        3.060      331.823        0.093      846.512
01/25/2021  03:05:00       48.112      132.835      -27.006      339.477       51.933      160.659   115244.594     2697.009    25811.337        8.219        7.188      141.279      229.272        2.634      331.802        0.056      846.510
01/25/2021  03:06:00      141.554      172.899      -58.608      503.159       43.857      240.261   253169.422     1923.399    57725.215       18.303       15.641      223.454      345.772        2.394      331.877        0.183      846.509
01/25/2021  03:07:00      126.129      111.911      -44.120      519.418       50.433      239.826   269795.144     2543.517    57516.455       18.005       16.493      168.620      350.045        4.310      332.025        0.428      846.503
01/25/2021  03:08:00      147.908      147.028      -58.758      578.525       41.834      277.844   334691.727     1750.063    77197.281       23.021       20.682      208.552      399.497        3.669      332.044        0.461      846.505
01/25/2021  03:09:00      121.354      141.323      -30.656      415.370       78.002      199.575   172532.492     6084.257    39829.986       12.700       10.922      186.276      284.775        2.337      331.835        0.113      846.496
01/25/2021  03:10:00       90.170      106.516      -23.707      448.898       56.090      211.062   201509.172     3146.144    44547.256       13.457       12.460      139.557      305.964        4.807      331.920        0.254      846.497
01/25/2021  03:11:00       96.022       99.510      -19.816      405.445       56.965      191.953   164385.842     3245.062    36846.033       11.195       10.224      138.284      276.155        3.988      331.918        0.248      846.502
01/25/2021  03:12:00       89.566      125.775      -26.661      388.492       50.223      182.711   150925.807     2522.387    33383.161       10.565        9.342      154.407      263.734        2.917      331.862        0.157      846.502
01/25/2021  03:13:00       69.570       83.840      -16.420      381.804       58.759      181.892   145774.648     3452.616    33084.768        9.719        9.116      108.946      260.218        5.705      331.812        0.073      846.491
01/25/2021  03:14:00       56.058      121.928      -15.124      322.043       48.450      156.339   103711.964     2347.410    24441.972        7.434        6.525      134.197      220.501        2.700      331.754       -0.024      846.486
01/25/2021  03:15:00       67.108      141.773      -18.035      382.227       61.245      176.672   146097.633     3750.983    31212.936       10.296        9.053      156.853      255.918        2.662      331.793        0.042      846.476
01/25/2021  03:16:00      157.297      129.514      -61.801      638.826       55.709      309.569   408098.332     3103.520    95833.217       27.608       25.352      203.756      441.895        4.703      332.114        0.581      846.466
01/25/2021  03:17:00      110.107       85.640      -43.541      551.698       44.776      254.452   304370.334     2004.891    64745.733       19.616       18.556      139.491      372.552        7.133      331.989        0.370      846.465
01/25/2021  03:18:00      214.361      106.021      -87.976      735.049       51.771      352.483   540296.972     2680.279   124244.001       36.594       33.361      239.146      507.613        4.505      332.378        1.021      846.459
01/25/2021  03:19:00       84.688      130.457      -18.840      400.583       51.014      192.554   160467.060     2602.458    37076.982       11.230       10.007      155.535      274.433        3.113      331.895        0.211      846.454
01/25/2021  03:20:00      181.248      117.037      -69.990      627.409       54.246      299.186   393642.310     2942.636    89512.165       26.867       24.305      215.751      431.285        3.996      332.219        0.752      846.456
01/25/2021  03:21:00      130.020      124.485      -61.850      598.774       42.513      288.031   358529.923     1807.394    82962.099       23.967       22.165      180.005      413.851        5.286      332.089        0.537      846.451
01/25/2021  03:22:00      129.800      168.560      -40.940      489.320       78.227      234.530   239433.757     6119.459    55004.513       17.369       15.028      212.746      335.446        2.486      331.944        0.292      846.449
01/25/2021  03:23:00       41.728      158.009      -23.302      332.292       57.169      157.734   110418.206     3268.285    24880.095        8.288        6.928      163.426      223.389        1.868      331.737       -0.052      846.449
01/25/2021  03:24:00      136.765      183.486      -60.348      539.693       57.084      259.034   291268.154     3258.572    67098.643       20.874       18.081      228.848      371.157        2.630      331.918        0.253      846.445
01/25/2021  03:25:00      101.701      131.218      -30.530      488.854       51.922      232.165   238977.792     2695.895    53900.372       16.197       14.779      166.016      333.222        4.029      331.882        0.191      846.431
01/25/2021  03:26:00       91.044      177.882      -54.265      545.855       49.166      259.024   297958.102     2417.255    67093.306       20.510       18.373      199.827      373.522        3.494      331.928        0.268      846.420
01/25/2021  03:27:00       43.818      134.818      -11.858      305.299       51.347      144.484    93207.696     2636.473    20875.605        6.845        5.836      141.760      204.067        2.072      331.731       -0.062      846.401
01/25/2021  03:28:00       83.766      181.822      -42.636      460.725       58.119      220.725   212267.474     3377.824    48719.601       15.307       13.218      200.190      315.585        2.485      331.895        0.211      846.387
01/25/2021  03:29:00      128.705      188.209      -61.778      625.148       56.069      294.327   390809.754     3143.732    86628.139       26.809       24.029      228.008      426.339        3.496      332.114        0.578      846.371
01/25/2021  03:30:00      186.427      188.223      -96.418      690.657       63.986      330.182   477006.803     4094.224   109019.946       33.468       29.506      264.920      475.336        3.219      332.261        0.823      846.360
01/25/2021  03:31:00       21.446      122.664      -27.711      456.015       69.112      213.001   207949.850     4776.452    45369.339       13.713       12.905      124.524      308.192        6.125      331.838        0.119      846.356
01/25/2021  03:32:00       -7.541      101.315        5.118      215.583       60.581      101.263    46475.993     3670.068    10254.180        3.536        3.020      101.595      141.202        1.932      331.660       -0.181      846.354
01/25/2021  03:33:00      -28.672      161.551       -7.852      272.202       59.001      128.184    74093.995     3481.101    16431.038        6.047        4.700      164.076      182.148        1.232      331.690       -0.130      846.353
01/25/2021  03:34:00       55.526      128.011      -25.396      358.615       69.252      168.674   128604.487     4795.788    28450.991        9.095        8.093      139.535      240.714        2.976      331.785        0.027      846.348
01/25/2021  03:35:00       93.933      107.357      -47.330      595.055       48.305      284.011   354090.354     2333.327    80662.337       22.975       21.854      142.650      409.022        8.221      332.014        0.412      846.348
01/25/2021  03:36:00      150.226      110.599      -88.100      715.057       53.849      339.991   511306.703     2899.722   115593.990       33.605       31.490      186.547      490.851        6.923      332.328        0.936      846.352
01/25/2021  03:37:00       22.135      124.231      -36.969      497.108       48.754      238.761   247116.223     2376.959    57007.049       16.183       15.325      126.188      342.195        7.354      331.945        0.296      846.350
01/25/2021  03:38:00       22.506       77.027      -12.017      344.169       52.198      169.097   118452.210     2724.673    28593.771        7.815        7.489       80.248      235.578        8.618      331.766       -0.004      846.353
01/25/2021  03:39:00      135.015      144.982      -72.168      686.269       53.517      328.038   470964.817     2864.044   107609.065       31.283       29.072      198.114      471.818        5.672      332.269        0.837      846.354
01/25/2021  03:40:00      202.946      159.890     -118.846      767.918       59.452      364.559   589698.330     3534.508   132903.558       40.335       36.307      258.364      527.239        4.164      332.432        1.110      846.353
01/25/2021  03:41:00       99.676      162.854      -63.036      627.764       59.201      297.572   394087.405     3504.725    88549.203       26.319       24.307      190.937      429.672        5.064      332.017        0.419      846.350
01/25/2021  03:42:00       10.605       94.278       -0.540      196.644       52.240       97.040    38668.772     2729.036     9416.726        2.990        2.541       94.873      132.384        1.947      331.610       -0.263      846.346
01/25/2021  03:43:00       30.521       67.305      -17.600      401.229       46.306      195.405   160984.940     2144.218    38183.129       10.350       10.066       73.902      276.490       13.997      331.836        0.114      846.348
01/25/2021  03:44:00       55.639      110.021      -47.292      561.518       62.863      269.082   315302.581     3951.703    72404.986       20.447       19.583      123.289      386.623        9.834      331.897        0.219      846.347
01/25/2021  03:45:00       31.769      160.525      -44.382      507.491       44.252      243.526   257547.006     1958.229    59304.926       17.371       15.941      163.638      347.566        4.511      331.884        0.196      846.349
01/25/2021  03:46:00       90.172      152.644      -71.226      654.137       53.154      308.201   427895.257     2825.393    94988.152       28.100       26.285      177.289      447.453        6.370      332.078        0.519      846.344
01/25/2021  03:47:00      103.234      143.728      -71.483      652.765       56.749      305.836   426102.198     3220.400    93535.467       27.953       26.143      176.960      444.286        6.303      332.176        0.683      846.334
01/25/2021  03:48:00       43.717      145.003      -36.213      452.330       56.479      215.583   204602.275     3189.898    46475.909       13.921       12.713      151.450      310.118        4.193      331.758       -0.013      846.329
01/25/2021  03:49:00       89.632      151.185      -45.814      522.401       56.504      249.285   272903.221     3192.690    62143.142       18.554       16.912      175.757      358.048        4.150      331.933        0.276      846.325
01/25/2021  03:50:00        3.763      117.891      -34.866      448.915       54.393      215.044   201524.811     2958.640    46243.988       13.288       12.536      117.951      307.532        6.798      331.859        0.154      846.321
01/25/2021  03:51:00       13.199      182.054      -27.446      383.101       54.800      183.438   146766.303     3003.079    33649.320       10.871        9.171      182.532      261.207        2.048      331.648       -0.197      846.318
01/25/2021  03:52:00      -19.302      147.937      -35.970      381.911       67.271      180.063   145856.020     4525.322    32422.820       10.314        9.140      149.191      258.623        3.005      331.638       -0.214      846.305
01/25/2021  03:53:00       48.250      230.767      -65.783      570.305       69.948      271.489   325247.670     4892.736    73706.265       23.179       20.192      235.757      390.631        2.745      331.896        0.212      846.318
01/25/2021  03:54:00       96.223      178.869      -67.119      704.888       56.519      338.486   496866.664     3194.391   114572.571       33.007       30.732      203.108      485.960        5.725      332.043        0.465      846.318
01/25/2021  03:55:00       86.726      128.160      -65.187      633.345       58.719      303.879   401125.732     3447.896    92342.234       26.245       24.846      154.746      436.352        7.951      332.067        0.502      846.315
01/25/2021  03:56:00       30.287      137.832      -39.669      533.930       80.365      250.338   285080.892     6458.571    62669.158       18.778       17.710      141.120      361.848        6.575      331.819        0.088      846.314
01/25/2021  03:57:00      -15.243      149.504      -24.811      392.775       50.544      191.238   154271.831     2554.718    36572.004       10.826        9.670      150.279      270.136        3.231      331.624       -0.234      846.311
01/25/2021  03:58:00       63.056       96.273      -62.078      594.244       65.109      289.005   353126.321     4239.179    83523.847       22.890       22.044      115.085      411.995       12.816      331.886        0.203      846.310
01/25/2021  03:59:00       31.178      158.684      -39.063      459.356       58.089      217.070   211007.871     3374.319    47119.545       14.454       13.075      161.718      313.340        3.754      331.707       -0.099      846.308
01/25/2021  04:00:00      207.430      160.280     -113.529      770.207       47.222      364.478   593219.573     2229.939   132844.221       40.480       36.415      262.139      527.557        4.050      332.226        0.771      846.307
01/25/2021  04:01:00       18.525       94.299      -13.027      383.469       36.219      183.747   147048.562     1311.784    33762.853        9.573        9.106       96.101      263.537        7.520      331.661       -0.175      846.304
01/25/2021  04:02:00        3.918      147.233      -18.387      358.723       59.070      170.874   128681.857     3489.237    29198.088        9.167        8.068      147.285      242.348        2.707      331.629       -0.231      846.297
01/25/2021  04:03:00      108.526      112.879      -61.800      574.666       53.429      271.168   330241.331     2854.685    73531.835       21.740       20.331      156.587      391.893        6.264      331.941        0.292      846.292
01/25/2021  04:04:00      102.128      128.202      -40.427      492.396       49.246      234.254   242454.071     2425.211    54874.772       16.407       14.988      163.908      337.275        4.234      331.836        0.115      846.287
01/25/2021  04:05:00       49.765      159.984      -28.030      387.162       44.907      186.474   149894.609     2016.664    34772.639       10.773        9.334      167.545      266.334        2.527      331.647       -0.199      846.280
01/25/2021  04:06:00       25.870      116.594      -26.002      440.589       58.616      212.701   194118.577     3435.822    45241.674       12.882       12.140      119.429      303.847        6.473      331.732       -0.057      846.280
01/25/2021  04:07:00       51.795      167.097      -59.431      559.328       67.622      259.019   312847.646     4572.795    67090.780       20.924       19.226      174.940      378.580        4.683      331.794        0.048      846.287
01/25/2021  04:08:00      167.340      111.274     -104.240      792.525       59.545      378.384   628096.661     3545.621   143174.686       41.287       38.741      200.959      545.542        7.370      332.192        0.717      846.289
01/25/2021  04:09:00       91.142      109.969      -72.109      634.052       48.574      301.573   402022.271     2359.480    90946.345       26.036       24.766      142.828      435.176        9.283      331.972        0.346      846.298
01/25/2021  04:10:00       -9.223      142.909      -12.899      295.730       69.146      142.390    87456.208     4781.172    20274.882        6.657        5.626      143.206      201.228        1.974      331.459       -0.510      846.305
01/25/2021  04:11:00       58.709      141.139      -51.000      531.280       68.745      254.525   282258.360     4725.931    64782.976       18.879       17.588      152.862      365.738        5.725      331.749       -0.025      846.301
01/25/2021  04:12:00       33.675      141.650      -39.912      487.277       81.327      231.271   237438.713     6614.160    53486.503       16.010       14.877      145.598      333.177        5.236      331.640       -0.206      846.306
01/25/2021  04:13:00       43.832       75.426      -48.918      545.509       46.962      255.900   297580.474     2205.433    65484.781       18.756       18.264       87.237      370.920       18.078      331.816        0.086      846.305
01/25/2021  04:14:00       40.333      126.364      -33.635      431.903       46.023      207.379   186540.299     2118.090    43005.988       12.515       11.583      132.644      297.619        5.034      331.619       -0.242      846.314
01/25/2021  04:15:00       31.701      130.713      -15.886      326.052       86.151      161.589   106309.605     7421.937    26111.077        7.906        6.992      134.502      223.526        2.762      331.612       -0.256      846.312
01/25/2021  04:16:00      107.724      209.788      -76.636      632.348       75.527      302.134   399863.422     5704.360    91285.127       27.907       24.843      235.829      435.233        3.406      331.975        0.346      846.316
01/25/2021  04:17:00      113.331      151.092      -76.270      662.674       62.910      328.195   439137.394     3957.701   107712.019       29.604       27.540      188.872      462.738        6.003      332.037        0.453      846.322
01/25/2021  04:18:00      172.397      195.421     -117.034      766.877       97.578      365.383   588099.770     9521.493   133504.727       40.621       36.556      260.596      522.677        4.023      332.234        0.780      846.336
01/25/2021  04:19:00      184.814      293.457      -99.706      761.363      144.826      354.204   579674.268    20974.680   125460.745       42.801       36.305      346.805      513.053        2.189      331.953        0.317      846.334
01/25/2021  04:20:00      -69.370      288.230      -19.849      367.827      142.526      179.582   135297.031    20313.777    32249.705       13.803        9.393      296.460      241.074        0.661      331.179       -0.971      846.342
01/25/2021  04:21:00       31.018      223.585      -23.477      463.139      122.855      227.133   214497.286    15093.471    51589.243       16.628       14.059      225.726      311.862        1.909      331.287       -0.791      846.322
01/25/2021  04:22:00      150.876      353.418      -85.703      635.739      101.752      299.958   404164.202    10353.396    89974.577       32.965       25.225      384.276      431.287        1.260      331.408       -0.587      846.307
01/25/2021  04:23:00       -3.505      243.397      -34.417      440.434      145.765      201.552   193982.217    21247.398    40623.166       15.809       12.793      243.422      281.769        1.340      331.083       -1.127      846.296
01/25/2021  04:24:00        7.270      299.996      -56.576      521.042      124.702      240.414   271485.016    15550.584    57798.893       21.897       17.242      300.084      344.078        1.315      331.185       -0.955      846.303
01/25/2021  04:25:00       37.340      263.664      -85.171      667.650      136.612      307.901   445756.811    18662.760    94802.973       31.858       27.961      266.295      446.845        2.816      331.406       -0.588      846.310
01/25/2021  04:26:00      -76.787      278.971      -63.545      505.612      108.765      236.755   255643.707    11829.755    56052.749       20.558       16.176      289.346      339.869        1.380      331.100       -1.097      846.321
01/25/2021  04:27:00      198.165      248.133     -150.965      902.426      122.079      433.053   814372.456    14903.393   187535.212       57.002       50.841      317.552      622.905        3.848      331.876        0.199      846.321
01/25/2021  04:28:00       -5.936      322.822      -57.291      520.040      123.837      251.050   270441.281    15335.490    63026.233       22.810       17.440      322.877      353.280        1.197      331.102       -1.095      846.319
01/25/2021  04:29:00      208.228      252.329     -130.100      811.857      129.031      384.175   659111.731    16649.127   147590.451       47.349       41.168      327.153      552.636        2.853      331.712       -0.076      846.319
01/25/2021  04:30:00      -55.755      366.288      -81.723      581.122      133.736      272.630   337702.780    17885.292    74327.143       28.685       21.496      370.507      388.214        1.098      331.116       -1.068      846.336
01/25/2021  04:31:00       32.866      313.266     -100.487      745.303      136.613      352.750   555476.497    18662.976   124432.544       40.380       34.929      314.986      502.238        2.542      331.391       -0.609      846.351
01/25/2021  04:32:00      179.037      300.450     -171.551      910.266      117.600      440.661   828583.635    13829.840   194182.375       59.397       51.830      349.749      624.400        3.187      332.021        0.437      846.348
01/25/2021  04:33:00       12.834      375.137      -95.637      682.515      111.826      324.373   465826.046    12505.106   105217.865       36.667       29.177      375.356      460.347        1.504      331.361       -0.662      846.354
01/25/2021  04:34:00     -112.451      319.845      -21.257      312.297      154.636      149.887    97529.307    23912.382    22466.171       12.962        7.195      339.036      191.347        0.319      330.895       -1.441      846.359
01/25/2021  04:35:00       29.920      295.167      -82.304      621.014      112.892      296.156   385658.636    12744.703    87708.267       29.035       24.306      296.680      421.091        2.015      331.301       -0.764      846.348
01/25/2021  04:36:00      -64.560      239.449      -31.251      340.999      106.197      165.295   116280.194    11277.787    27322.349       10.865        7.744      248.000      228.315        0.848      330.992       -1.277      846.337
01/25/2021  04:37:00       44.550      275.073      -62.856      579.404      138.142      270.015   335709.262    19083.334    72908.000       25.456       21.385      278.657      391.070        1.970      331.214       -0.908      846.332
01/25/2021  04:38:00       16.580      409.651      -68.753      498.701      155.614      243.151   248703.113    24215.575    59122.348       25.236       16.602      409.986      333.685        0.662      331.108       -1.084      846.334
01/25/2021  04:39:00       48.799      244.134      -60.094      558.057      122.679      260.113   311427.461    15050.079    67658.601       22.978       19.707      248.963      370.973        2.220      331.250       -0.848      846.314
01/25/2021  04:40:00      -51.706      393.161      -42.147      379.822      143.924      175.968   144265.050    20713.993    30964.897       17.744        9.797      396.546      234.089        0.348      330.953       -1.344      846.308
01/25/2021  04:41:00      -12.210      407.237      -39.900      377.267      116.167      182.385   142330.125    13494.839    33264.444       17.830        9.454      407.420      245.226        0.362      330.969       -1.318      846.307
01/25/2021  04:42:00       -6.979      382.093      -47.545      398.160      168.602      188.298   158531.299    28426.662    35455.969       18.531       11.121      382.157      255.239        0.446      330.982       -1.295      846.303
01/25/2021  04:43:00       62.158      309.142      -83.035      655.592      156.003      302.227   429800.350    24336.940    91340.890       32.579       27.274      315.329      434.626        1.900      331.284       -0.791      846.307
01/25/2021  04:44:00      -88.165      411.422      -52.271      449.805      142.779      223.688   202324.229    20385.863    50036.108       22.620       13.637      420.762      289.512        0.473      330.996       -1.270      846.308
01/25/2021  04:45:00       41.608      230.406      -40.934      520.288      157.019      245.496   270699.301    24654.849    60268.261       20.598       17.781      234.133      343.109        2.148      331.118       -1.068      846.312
01/25/2021  04:46:00      -54.139      325.137      -53.034      484.415      108.600      221.853   234658.313    11793.962    49218.790       20.350       14.784      329.613      316.850        0.924      331.044       -1.191      846.293
01/25/2021  04:47:00       38.065      371.087      -50.845      539.564      147.368      261.011   291129.580    21717.278    68126.556       26.127       19.049      373.034      361.451        0.939      331.093       -1.108      846.286
01/25/2021  04:48:00       -0.984      294.214      -43.065      494.123      145.619      221.930   244157.845    21204.792    49252.715       20.145       15.731      294.216      318.138        1.169      331.044       -1.191      846.278
01/25/2021  04:49:00      -56.773      470.760      -40.810      275.522      132.481      125.467    75912.340    17551.213    15741.998       16.783        5.460      474.171      165.048        0.121      330.774       -1.638      846.273
01/25/2021  04:50:00      -23.340      268.523      -42.107      432.439      114.492      205.326   187003.792    13108.328    42158.746       15.829       12.114      269.535      285.332        1.121      330.992       -1.278      846.273
01/25/2021  04:51:00      -29.482      368.553      -44.405      368.785      178.490      179.479   136002.546    31858.518    32212.785       16.933       10.004      369.730      233.708        0.400      330.864       -1.490      846.278
01/25/2021  04:52:00      -54.772      362.550      -38.540      376.310      126.873      190.212   141609.020    16096.700    36180.695       16.486        9.694      366.664      253.490        0.478      330.869       -1.482      846.292
01/25/2021  04:53:00       -6.707      358.624      -64.371      573.468      172.893      268.311   328865.083    29892.158    71990.599       28.168       21.537      358.687      377.375        1.107      331.064       -1.155      846.286
01/25/2021  04:54:00     -102.613      305.059      -36.306      383.725      105.859      181.350   147244.702    11206.066    32887.875       14.808        9.567      321.855      250.167        0.604      330.900       -1.431      846.293
01/25/2021  04:55:00     -112.036      422.484      -60.291      474.083      131.155      225.688   224754.961    17201.728    50935.174       24.372       14.645      437.087      316.117        0.523      330.901       -1.426      846.297
01/25/2021  04:56:00      -83.195      337.239      -46.027      422.998      129.421      198.188   178926.991    16749.829    39278.395       17.881       11.748      347.350      273.487        0.620      330.880       -1.462      846.303
01/25/2021  04:57:00      -57.532      343.281      -55.315      482.786       93.243      228.464   233082.222     8694.245    52195.772       20.903       14.699      348.068      323.880        0.866      330.924       -1.390      846.309
01/25/2021  04:58:00      -32.712      354.728      -45.731      502.343      174.887      255.537   252348.280    30585.589    65298.974       23.854       17.412      356.233      342.185        0.923      330.967       -1.315      846.320
01/25/2021  04:59:00     -165.926      386.466      -43.452      320.215      152.327      162.148   102537.681    23203.478    26292.091       16.537        7.602      420.580      209.907        0.249      330.767       -1.649      846.327
01/25/2021  05:00:00      -68.085      400.220      -26.066      339.886      137.453      169.948   115522.586    18893.396    28882.424       16.436        8.165      405.970      217.246        0.286      330.791       -1.611      846.317
01/25/2021  05:01:00      -34.406      425.313      -68.932      511.859      163.451      231.307   262000.072    26716.321    53503.116       26.445       17.111      426.702      327.291        0.588      330.968       -1.316      846.319
01/25/2021  05:02:00     -105.015      333.125      -34.459      411.210      140.182      180.084   169093.867    19651.010    32430.247       17.213       11.059      349.286      255.715        0.536      330.857       -1.499      846.331
01/25/2021  05:03:00      -36.735      328.003      -46.972      535.431      118.269      253.814   286686.466    13987.580    64421.475       23.804       18.255      330.053      356.504        1.167      331.080       -1.130      846.338
01/25/2021  05:04:00      -19.732      378.684      -49.980      423.607      142.351      202.496   179443.104    20263.876    41004.648       19.345       12.036      379.198      276.778        0.533      330.979       -1.300      846.347
01/25/2021  05:05:00        2.597      357.366      -53.689      457.247      142.031      211.908   209075.202    20172.902    44904.938       20.232       13.708      357.376      295.531        0.684      331.073       -1.142      846.337
01/25/2021  05:06:00       58.828      283.739      -64.447      569.697      152.462      263.902   324555.093    23244.808    69644.388       25.269       20.872      289.774      376.685        1.690      331.287       -0.786      846.348
01/25/2021  05:07:00       17.934      328.915      -69.138      544.159      127.455      271.673   296108.687    16244.739    73806.488       24.964       19.308      329.404      372.409        1.278      331.273       -0.812      846.365
01/25/2021  05:08:00      -11.790      186.157      -25.922      376.185      136.786      180.251   141514.828    18710.484    32490.386       11.405        9.636      186.530      250.154        1.799      331.121       -1.065      846.372
01/25/2021  05:09:00      -26.723      440.648      -67.598      521.932      166.256      251.697   272413.442    27640.908    63351.191       28.135       18.170      441.457      347.168        0.618      331.236       -0.874      846.358
01/25/2021  05:10:00      -29.467      446.985      -63.810      423.055      163.172      199.736   178975.301    26625.062    39894.576       22.506       12.275      447.955      274.977        0.377      331.094       -1.109      846.388
01/25/2021  05:11:00       32.580      389.700      -77.256      596.426      173.132      271.015   355724.569    29974.708    73449.296       30.892       22.957      391.059      389.154        0.990      331.333       -0.714      846.426
01/25/2021  05:12:00       93.024      506.280      -80.220      625.360      146.108      296.665   391075.568    21347.559    88010.368       38.581       25.022      514.755      417.744        0.659      331.328       -0.718      846.433
01/25/2021  05:13:00      -76.000      399.575      -55.890      420.338      137.025      193.024   176683.638    18775.732    37258.405       20.059       11.636      406.738      272.340        0.448      331.087       -1.121      846.451
01/25/2021  05:14:00       82.654      334.887      -82.687      630.200      177.818      291.171   397152.408    31619.128    84780.416       31.957       25.678      344.936      417.515        1.465      331.348       -0.684      846.466
01/25/2021  05:15:00       18.563      294.447      -61.093      512.648      109.027      240.899   262808.017    11886.946    58032.506       21.168       16.636      295.032      341.079        1.337      331.190       -0.949      846.481
01/25/2021  05:16:00       40.773      318.946      -67.168      529.776      137.222      243.664   280662.674    18829.927    59372.000       23.331       17.943      321.542      348.769        1.177      331.211       -0.914      846.499
01/25/2021  05:17:00       20.736      297.182      -53.388      517.267      118.029      242.214   267565.178    13930.753    58667.828       21.581       17.008      297.905      347.211        1.358      331.186       -0.956      846.519
01/25/2021  05:18:00       75.714      254.815      -66.522      535.553      106.082      255.430   286817.191    11253.395    65244.407       21.912       18.166      265.826      364.467        1.880      331.274       -0.808      846.516
01/25/2021  05:19:00       98.262      284.000      -78.081      608.004      113.527      287.747   369669.452    12888.280    82798.613       28.078       23.268      300.518      413.957        1.897      331.423       -0.562      846.507
01/25/2021  05:20:00       40.780      369.643      -53.247      489.672      130.505      235.588   239778.561    17031.626    55501.750       22.666       15.616      371.885      331.674        0.795      331.198       -0.936      846.512
01/25/2021  05:21:00       37.400      371.303      -57.668      432.614      148.290      205.211   187154.741    21990.008    42111.757       19.687       12.563      373.182      283.357        0.577      331.129       -1.051      846.527
01/25/2021  05:22:00       23.115      418.026      -85.408      533.411      162.089      253.847   284527.482    26272.693    64438.116       27.882       18.762      418.664      360.423        0.741      331.280       -0.800      846.556
01/25/2021  05:23:00       23.764      326.794      -55.414      540.928      144.261      252.563   292603.021    20811.281    63788.007       24.374       18.860      327.657      359.452        1.203      331.267       -0.821      846.580
01/25/2021  05:24:00       10.940      204.084      -81.020      652.047      111.928      306.758   425165.721    12527.784    94100.560       28.995       26.590      204.377      439.870        4.632      331.519       -0.402      846.583
01/25/2021  05:25:00       -0.473      271.588      -47.540      440.025      118.612      218.270   193621.663    14068.772    47641.870       16.562       12.767      271.588      295.777        1.186      331.167       -0.990      846.602
01/25/2021  05:26:00      111.880      346.094      -81.329      562.370      130.592      268.180   316259.981    17054.255    71920.553       27.199       20.262      363.728      381.933        1.103      331.354       -0.678      846.598
01/25/2021  05:27:00       16.135      356.550      -52.317      477.720      101.259      230.274   228216.085    10253.364    53026.185       21.075       14.575      356.915      318.211        0.795      331.164       -0.994      846.587
01/25/2021  05:28:00       75.060      316.352      -67.881      497.612       97.523      235.520   247617.838     9510.639    55469.748       21.139       15.630      325.135      335.291        1.063      331.265       -0.827      846.581
01/25/2021  05:29:00       23.587      236.734      -54.563      461.770       97.866      216.106   213231.425     9577.730    46701.938       16.449       13.476      237.906      307.738        1.673      331.276       -0.810      846.560
01/25/2021  05:30:00       55.947      316.851      -65.294      567.154      116.777      268.583   321663.276    13636.910    72136.741       25.752       20.372      321.752      382.084        1.410      331.310       -0.749      846.557
01/25/2021  05:31:00      -53.133      328.635      -28.564      382.659      111.571      167.212   146428.010    12448.170    27959.858       14.920        9.342      332.902      231.946        0.485      331.100       -1.103      846.566
01/25/2021  05:32:00        7.794      333.896      -48.946      487.916      117.916      226.406   238061.586    13904.091    51259.869       20.852       15.161      333.987      320.206        0.919      331.233       -0.880      846.562
01/25/2021  05:33:00       35.522      367.003      -71.055      590.708      120.869      272.173   348936.385    14609.297    74077.871       28.922       21.881      368.718      392.303        1.132      331.351       -0.682      846.583
01/25/2021  05:34:00      -12.341      319.000      -46.445      474.328      130.638      220.778   224987.095    17066.258    48742.752       19.737       14.540      319.238      312.652        0.959      331.275       -0.813      846.620
01/25/2021  05:35:00      -26.670      346.847      -33.375      292.496      134.197      135.009    85554.184    18008.858    18227.462       12.193        6.090      347.871      181.021        0.271      331.050       -1.185      846.637
01/25/2021  05:36:00      -65.906      251.146      -46.934      390.822       97.551      182.454   152742.189     9516.125    33289.349       13.254        9.777      259.649      252.677        0.947      331.119       -1.069      846.633
01/25/2021  05:37:00      132.691      190.482      -69.319      644.008       86.335      303.178   414746.463     7453.744    91916.947       28.630       25.706      232.142      435.705        3.523      331.524       -0.394      846.616
01/25/2021  05:38:00      -14.756      259.466      -25.677      288.583      105.681      139.331    83280.043    11168.400    19413.211        9.101        5.693      259.885      188.580        0.527      331.046       -1.192      846.597
01/25/2021  05:39:00       62.514      368.644      -63.840      521.625      135.286      236.486   272093.089    18302.293    55925.394       24.503       17.316      373.907      341.327        0.833      331.296       -0.775      846.621
01/25/2021  05:40:00       92.330      366.968      -73.020      574.180      109.500      279.821   329682.458    11990.167    78299.943       28.416       20.999      378.405      389.051        1.057      331.398       -0.605      846.656
01/25/2021  05:41:00      -14.947      297.668      -32.718      313.461      133.735      145.741    98257.561    17885.067    21240.569       11.361        6.869      298.043      196.515        0.435      331.131       -1.052      846.668
01/25/2021  05:42:00      -20.786      328.649      -75.710      580.270      121.419      272.923   336713.790    14742.605    74486.926       26.997       21.297      329.306      388.556        1.392      331.385       -0.626      846.693
01/25/2021  05:43:00      -17.155      381.607      -53.443      435.623      168.319      199.769   189767.631    28331.344    39907.818       20.334       12.900      381.993      284.459        0.555      331.202       -0.931      846.705
01/25/2021  05:44:00      -38.247      293.645      -46.501      481.748      107.368      226.415   232080.830    11527.808    51263.718       19.230       14.744      296.126      321.241        1.177      331.270       -0.820      846.735
01/25/2021  05:45:00       35.008      266.294      -55.479      509.660       98.988      246.423   259753.059     9798.555    60724.423       20.267       16.514      268.586      344.686        1.647      331.357       -0.675      846.759
01/25/2021  05:46:00       26.432      217.747      -61.092      537.740      112.568      258.099   289164.673    12671.658    66614.998       21.007       18.423      219.346      364.257        2.758      331.417       -0.576      846.782
01/25/2021  05:47:00       67.730      271.188      -63.147      611.612      105.896      293.433   374069.528    11213.943    86102.785       27.665       23.569      279.518      417.601        2.232      331.488       -0.456      846.798
01/25/2021  05:48:00      -19.605      199.296      -22.957      247.782      114.387      112.066    61395.772    13084.496    12558.890        6.382        4.352      200.258      149.917        0.560      331.165       -0.996      846.804
01/25/2021  05:49:00       65.142      192.090      -52.237      545.264      130.560      251.477   297312.903    17045.934    63240.632       21.065       18.880      202.835      362.942        3.202      331.393       -0.613      846.806
01/25/2021  05:50:00       55.780      298.771      -54.988      549.571      105.896      255.020   302028.676    11213.861    65035.419       23.676       18.914      303.933      367.408        1.461      331.361       -0.667      846.816
01/25/2021  05:51:00       11.601      371.488      -39.956      415.013      147.460      193.129   172236.034    21744.420    37298.753       18.546       11.564      371.669      273.601        0.542      331.189       -0.954      846.832
01/25/2021  05:52:00       92.291      200.128      -68.845      620.988      129.393      300.607   385626.447    16742.573    90364.792       27.292       24.637      220.383      426.900        3.752      331.538       -0.371      846.866
01/25/2021  05:53:00       77.146      218.265      -87.784      656.392      151.777      314.041   430850.547    23036.229    98622.024       30.678       27.625      231.497      446.952        3.728      331.593       -0.278      846.911
01/25/2021  05:54:00        5.231      152.507      -12.806      239.923       64.746      116.005    57563.243     4191.994    13457.236        4.932        3.761      152.596      151.318        0.983      331.174       -0.982      846.914
01/25/2021  05:55:00       68.054      174.692      -33.142      472.979      118.521      222.358   223709.404    14047.169    49442.858       16.166       14.360      187.479      313.363        2.794      331.343       -0.698      846.896
01/25/2021  05:56:00       20.272      130.376      -47.286      496.668      105.867      235.728   246678.631    11207.899    55567.651       16.648       15.673      131.943      333.589        6.392      331.325       -0.726      846.900
01/25/2021  05:57:00       -9.319      438.007      -74.901      508.133      133.758      244.494   258198.765    17891.114    59777.489       26.663       16.793      438.106      341.559        0.608      331.311       -0.751      846.929
01/25/2021  05:58:00      -75.690      369.411      -62.821      540.386      137.605      255.938   292016.493    18935.208    65504.019       26.122       18.823      377.086      358.049        0.902      331.338       -0.704      846.957
01/25/2021  05:59:00      -57.759      395.039      -68.323      539.198      133.485      247.859   290734.261    17818.164    61434.292       26.694       18.499      399.239      354.582        0.789      331.318       -0.737      846.968
01/25/2021  06:00:00      -47.020      267.045      -50.314      501.474      105.767      235.160   251475.921    11186.622    55300.095       19.694       15.898      271.153      332.712        1.506      331.317       -0.741      846.977
01/25/2021  06:01:00       70.749      206.832      -35.829      489.699       97.428      237.606   239805.436     9492.308    56456.560       17.734       15.288      218.597      334.207        2.337      331.362       -0.667      846.991
01/25/2021  06:02:00      -60.195      250.702      -33.656      433.617      133.950      209.348   188023.416    17942.480    43826.526       15.865       12.490      257.827      285.270        1.224      331.258       -0.840      847.024
01/25/2021  06:03:00        4.539      324.165      -61.571      501.275       90.133      237.991   251276.689     8123.929    56639.616       21.240       15.802      324.197      339.337        1.096      331.317       -0.741      847.046
01/25/2021  06:04:00       66.878      346.684      -49.685      422.175       93.757      197.263   178231.948     8790.283    38912.588       17.648       11.297      353.075      278.571        0.622      331.238       -0.874      847.038
01/25/2021  06:05:00       67.945      180.115      -60.811      533.171      116.242      251.401   284271.589    13512.140    63202.364       20.079       18.049      192.504      361.523        3.527      331.444       -0.529      847.042
01/25/2021  06:06:00       16.324      223.825      -62.297      529.473       93.272      247.084   280341.848     8699.669    61050.525       20.209       17.505      224.419      351.969        2.460      331.434       -0.549      847.058
01/25/2021  06:07:00      -28.997      302.421      -64.176      539.068      125.218      248.276   290594.411    15679.547    61641.213       23.209       18.396      303.808      354.602        1.362      331.391       -0.619      847.097
01/25/2021  06:08:00       21.582      368.100      -68.735      528.824      136.780      247.142   279654.756    18708.807    61079.017       24.999       17.972      368.732      352.400        0.913      331.353       -0.680      847.123
01/25/2021  06:09:00      -20.738      258.779      -47.468      476.631      110.684      229.849   227176.724    12251.054    52830.386       18.089       14.613      259.608      318.487        1.505      331.336       -0.712      847.151
01/25/2021  06:10:00       26.938      244.756      -35.937      496.658      118.521      231.845   246669.506    14047.344    53751.999       18.813       15.723      246.234      329.093        1.786      331.321       -0.735      847.182
01/25/2021  06:11:00       57.801      339.234      -67.311      573.561      148.892      272.342   328972.187    22168.821    74169.982       27.404       21.266      344.123      383.849        1.244      331.394       -0.611      847.166
01/25/2021  06:12:00       69.715      211.249      -60.957      555.522      103.635      266.307   308604.564    10740.238    70919.291       22.165       19.513      222.455      378.647        2.897      331.403       -0.597      847.162
01/25/2021  06:13:00       44.242      325.756      -53.755      389.780      135.879      186.180   151928.682    18463.182    34663.010       15.797       10.253      328.747      257.936        0.616      331.215       -0.911      847.161
01/25/2021  06:14:00       28.027      326.755      -74.263      506.564      158.398      227.689   256607.225    25089.868    51842.295       22.323       16.677      327.955      325.388        0.984      331.283       -0.798      847.180
01/25/2021  06:15:00       30.955      325.437      -50.608      503.725      124.663      245.920   253739.268    15540.797    60476.796       21.952       16.488      326.906      342.310        1.096      331.284       -0.795      847.193
01/25/2021  06:16:00       26.090      234.595      -38.849      403.224      150.622      195.582   162589.524    22687.093    38252.187       14.033       11.176      236.041      270.574        1.314      331.176       -0.976      847.201
01/25/2021  06:17:00       51.266      251.650      -61.489      597.008      143.464      274.891   356418.053    20581.938    75565.117       26.105       22.628      256.819      391.056        2.319      331.414       -0.578      847.207
01/25/2021  06:18:00       15.869      147.179      -47.794      507.001      113.732      235.153   257050.229    12934.930    55296.716       17.467       16.264      148.032      329.276        4.948      331.223       -0.893      847.223
01/25/2021  06:19:00       14.861      239.524      -41.830      450.566       90.235      214.867   203009.271     8142.366    46167.737       15.828       12.866      239.985      300.989        1.573      331.195       -0.941      847.232
01/25/2021  06:20:00      132.982      256.925      -86.580      677.226      100.356      323.513   458634.652    10071.421   104660.940       33.215       28.668      289.300      463.085        2.562      331.524       -0.392      847.224
01/25/2021  06:21:00      115.776      444.807      -80.941      558.204      149.858      259.978   311591.750    22457.276    67588.459       30.964       20.082      459.627      371.834        0.654      331.302       -0.763      847.238
01/25/2021  06:22:00       27.532      289.202      -47.217      503.303      147.745      229.910   253313.530    21828.654    52858.747       20.724       16.400      290.509      325.694        1.257      331.245       -0.860      847.256
01/25/2021  06:23:00      -12.057      274.783      -34.169      366.931      107.789      174.028   134638.609    11618.451    30285.667       12.664        8.827      275.047      242.948        0.780      331.079       -1.137      847.289
01/25/2021  06:24:00       39.345      306.866      -38.577      436.075      136.427      208.793   190161.780    18612.285    43594.361       17.473       12.618      309.378      294.259        0.905      331.145       -1.027      847.293
01/25/2021  06:25:00       24.839      319.065      -56.457      458.326      175.189      209.630   210063.073    30691.055    43944.901       19.509       14.235      320.030      300.577        0.882      331.140       -1.034      847.302
01/25/2021  06:26:00       20.096      175.214      -58.096      543.034      117.949      249.403   294885.776    13912.066    62201.897       20.266       18.550      176.362      357.333        4.105      331.312       -0.746      847.322
01/25/2021  06:27:00      -74.084      460.264      -62.634      441.002      170.134      207.817   194483.018    28945.568    43187.968       24.388       13.331      466.189      274.889        0.348      331.094       -1.110      847.318
01/25/2021  06:28:00       37.369      380.713      -82.957      568.826      116.076      278.493   323562.534    13473.630    77558.610       28.382       20.730      382.542      387.022        1.024      331.341       -0.699      847.330
01/25/2021  06:29:00      -78.336      339.614      -41.013      457.638      138.552      206.611   209432.631    19196.762    42687.982       19.718       13.566      348.532      288.325        0.684      331.094       -1.110      847.329
01/25/2021  06:30:00      -44.539      345.641      -86.278      637.841      155.068      293.745   406840.866    24045.934    86285.968       32.292       25.859      348.499      410.951        1.391      331.316       -0.738      847.314
01/25/2021  06:31:00       18.795      270.926      -72.286      540.938      155.544      230.309   292613.885    24193.973    53042.317       22.434       18.493      271.577      330.710        1.483      331.131       -1.046      847.317
01/25/2021  06:32:00       88.406      213.833      -78.919      619.189      196.744      301.199   383394.416    38708.086    90720.970       28.618       25.641      231.388      406.702        3.089      331.403       -0.594      847.338
01/25/2021  06:33:00      -11.284      225.960      -33.960      480.166       98.861      231.929   230559.093     9773.542    53791.169       17.317       14.706      226.242      319.496        1.994      331.162       -0.995      847.353
01/25/2021  06:34:00      -10.777      233.036      -52.351      526.243      128.449      245.846   276931.258    16499.027    60440.288       20.544       17.694      233.285      348.200        2.228      331.177       -0.970      847.374
01/25/2021  06:35:00       15.204      378.903      -80.248      540.271      119.337      261.384   291893.212    14241.238    68321.340       26.227       18.723      379.208      361.498        0.909      331.227       -0.887      847.386
01/25/2021  06:36:00      -44.709      320.096      -50.438      404.686      102.535      198.047   163770.621    10513.404    39222.780       16.021       10.675      323.203      270.864        0.702      330.994       -1.276      847.408
01/25/2021  06:37:00       63.338      289.691      -70.168      623.222      128.349      297.617   388406.116    16473.435    88575.590       29.305       24.673      296.534      422.576        2.031      331.286       -0.787      847.411
01/25/2021  06:38:00      -54.028      290.504      -68.727      529.176      143.689      260.857   280027.343    20646.511    68046.427       23.030       18.436      295.486      359.656        1.482      331.136       -1.038      847.426
01/25/2021  06:39:00     -165.167      366.320      -53.895      370.533      151.609      171.126   137294.933    22985.141    29284.242       17.693        9.478      401.834      225.439        0.315      330.898       -1.433      847.426
01/25/2021  06:40:00      -28.952      443.117      -82.331      529.353      172.254      244.600   280215.041    29671.425    59828.927       28.676       18.486      444.062      343.299        0.598      331.086       -1.120      847.432
01/25/2021  06:41:00      -81.636      420.588      -76.497      520.703      177.578      239.691   271131.234    31533.819    57451.745       27.469       18.006      428.438      338.449        0.624      331.027       -1.216      847.457
01/25/2021  06:42:00       30.032      272.502      -62.666      613.597      104.313      284.749   376500.968    10881.192    81082.226       27.367       23.423      274.152      404.781        2.180      331.173       -0.973      847.485
01/25/2021  06:43:00      -93.431      196.597      -44.944      366.001      124.711      176.237   133956.811    15552.941    31059.380       11.495        9.028      217.669      238.488        1.200      330.931       -1.380      847.491
01/25/2021  06:44:00      -17.344      227.943      -80.787      577.310      136.327      268.573   333287.338    18584.961    72131.199       24.130       21.200      228.602      383.353        2.812      331.163       -0.990      847.488
01/25/2021  06:45:00      -72.865      389.060      -77.824      549.654      116.731      256.089   302119.795    13626.069    65581.688       27.195       19.066      395.824      364.093        0.846      331.104       -1.091      847.507
01/25/2021  06:46:00     -134.294      384.289      -48.410      417.668      139.031      192.912   174446.640    19329.726    37214.969       19.947       11.550      407.079      251.107        0.381      330.891       -1.446      847.517
01/25/2021  06:47:00      -61.782      265.274      -56.620      517.373      148.773      247.210   267674.520    22133.547    61112.857       21.408       17.546      272.373      345.047        1.605      331.064       -1.156      847.516
01/25/2021  06:48:00        7.408      222.323      -68.044      570.758       94.050      250.894   325764.417     8845.427    62947.839       22.575       19.878      222.447      366.999        2.722      331.124       -1.055      847.532
01/25/2021  06:49:00       43.413      114.277      -93.034      698.639       89.582      331.678   488096.719     8024.866   110010.172       31.473       30.307      122.246      475.482       15.129      331.372       -0.641      847.532
01/25/2021  06:50:00       87.355      239.585      -89.318      623.701       74.639      287.601   389002.564     5570.921    82714.500       27.505       23.864      255.013      416.601        2.669      331.255       -0.839      847.542
01/25/2021  06:51:00       31.654      348.980      -86.036      662.860      173.243      310.275   439383.910    30013.123    96270.687       34.781       28.283      350.413      442.192        1.592      331.218       -0.897      847.552
01/25/2021  06:52:00      -51.748      417.709      -62.665      463.795      105.988      219.231   215105.531    11233.516    48062.037       22.768       13.720      420.902      308.670        0.538      330.877       -1.466      847.567
01/25/2021  06:53:00      -10.763      277.779      -77.405      559.343      104.709      258.918   312865.013    10964.053    67038.460       23.698       19.543      277.987      370.955        1.781      331.025       -1.218      847.595
01/25/2021  06:54:00      -16.916      228.491      -55.705      511.308       88.857      244.205   261435.840     7895.506    59635.841       19.221       16.448      229.116      347.325        2.298      331.056       -1.170      847.611
01/25/2021  06:55:00       60.011      265.767      -73.200      543.626       86.003      266.957   295528.699     7396.443    71265.875       22.681       18.710      272.458      375.336        1.898      331.029       -1.213      847.625
01/25/2021  06:56:00       46.246      231.764      -74.092      579.541       88.902      267.414   335867.698     7903.622    71510.319       23.822       20.764      236.333      388.457        2.702      331.035       -1.200      847.633
01/25/2021  06:57:00       77.433      269.147      -62.965      579.554      185.752      272.677   335882.512    34503.779    74352.934       26.347       22.237      280.064      388.615        1.925      331.012       -1.239      847.646
01/25/2021  06:58:00       17.413      272.306      -95.986      619.280       94.683      287.328   383507.983     8964.850    82557.353       27.924       23.752      272.862      415.804        2.322      331.075       -1.135      847.658
01/25/2021  06:59:00      -22.907      178.193      -56.660      487.200       87.990      227.204   237363.446     7742.297    51621.492       16.604       14.836      179.659      323.514        3.243      330.938       -1.365      847.671
01/25/2021  07:00:00      -48.990      199.060      -28.326      328.895       84.509      156.548   108171.621     7141.727    24507.319        9.129        6.991      205.000      212.071        1.070      330.688       -1.779      847.686
01/25/2021  07:01:00      121.268      227.507      -81.524      645.871       97.032      312.360   417149.056     9415.284    97568.510       29.851       26.207      257.809      445.986        2.993      331.087       -1.112      847.695
01/25/2021  07:02:00      126.359      179.336     -133.070      757.775      119.596      350.300   574222.847    14303.105   122710.099       38.838       35.562      219.381      509.563        5.395      331.317       -0.728      847.710
01/25/2021  07:03:00      106.788      315.356      -97.410      702.725      155.319      325.161   493823.121    24123.931   105729.811       37.188       31.184      332.946      465.007        1.951      331.090       -1.105      847.718
01/25/2021  07:04:00        3.669      356.529     -100.740      677.758       86.423      314.762   459355.839     7468.869    99074.958       35.146       28.295      356.548      455.142        1.630      331.008       -1.241      847.731
01/25/2021  07:05:00       -8.484      321.399      -89.947      628.391      219.177      301.155   394874.677    48038.654    90694.162       32.242       26.680      321.511      406.590        1.599      330.952       -1.335      847.749
01/25/2021  07:06:00        8.266      274.370      -43.635      466.163      139.686      223.880   217307.927    19512.266    50122.384       18.204       14.347      274.494      310.934        1.283      330.677       -1.793      847.758
01/25/2021  07:07:00       52.892      352.890      -86.154      620.875      167.854      299.065   385485.158    28175.010    89439.830       31.882       25.155      356.832      421.606        1.396      330.904       -1.416      847.780
01/25/2021  07:08:00     -105.319      427.686      -68.799      508.843      131.900      240.168   258921.081    17397.508    57680.881       26.630       16.700      440.462      336.148        0.582      330.674       -1.796      847.797
01/25/2021  07:09:00       53.063      237.274      -81.614      611.330       73.486      282.714   373723.876     5400.144    79927.446       26.231       22.953      243.135      410.501        2.851      330.919       -1.392      847.816
01/25/2021  07:10:00       86.540      221.409      -84.579      647.142      151.009      313.098   418792.746    22803.640    98030.437       30.153       26.981      237.721      446.539        3.528      330.949       -1.338      847.840
01/25/2021  07:11:00       74.649      234.845      -75.750      605.218      117.885      290.458   366288.272    13896.801    84365.902       26.541       23.228      246.424      412.301        2.799      330.891       -1.437      847.861
01/25/2021  07:12:00       61.169      185.951      -72.234      603.849       77.535      285.916   364633.330     6011.648    81747.709       24.787       22.620      195.754      411.029        4.409      330.790       -1.601      847.876
01/25/2021  07:13:00       54.285      317.303      -83.284      630.814      105.825      299.421   397926.304    11199.034    89652.885       30.456       24.939      321.913      428.564        1.772      330.815       -1.561      847.882
01/25/2021  07:14:00      -29.155      268.530      -95.469      566.310       94.926      276.298   320706.564     9010.860    76340.356       24.398       20.303      270.108      387.800        2.061      330.730       -1.705      847.896
01/25/2021  07:15:00       16.649      179.758      -62.057      516.094       62.913      248.192   266352.756     3957.986    61599.042       18.410       16.595      180.527      351.497        3.791      330.699       -1.754      847.897
01/25/2021  07:16:00      106.897      202.403      -90.205      637.093       74.455      299.578   405887.509     5543.592    89746.681       28.075       25.059      228.897      432.524        3.571      330.847       -1.506      847.920
01/25/2021  07:17:00      -10.659      301.542      -54.003      520.309       98.343      249.218   270721.010     9671.248    62109.541       21.816       17.125      301.730      348.428        1.333      330.630       -1.868      847.928
01/25/2021  07:18:00       69.806      267.605     -101.003      690.653      123.235      328.125   477001.602    15186.952   107665.791       34.314       29.993      276.560      466.980        2.851      330.958       -1.324      847.938
01/25/2021  07:19:00       34.648      287.896     -128.942      712.751      231.813      369.004   508014.064    53737.057   136164.018       39.917       34.896      289.973      494.713        2.911      331.022       -1.214      847.939
01/25/2021  07:20:00      -34.951      240.828      -66.509      490.844      116.709      230.123   240927.631    13621.019    52956.384       18.551       15.375      243.351      324.160        1.774      330.617       -1.892      847.941
01/25/2021  07:21:00       25.275      208.770      -71.804      564.561      142.675      267.922   318728.996    20356.196    71781.967       23.003       20.543      210.294      378.575        3.241      330.705       -1.742      847.945
01/25/2021  07:22:00       -1.988      294.375     -108.441      724.453      137.436      338.619   524832.839    18888.608   114662.586       37.826       32.919      294.382      484.840        2.713      330.889       -1.437      847.955
01/25/2021  07:23:00        1.955      352.401      -78.003      590.236      121.486      280.290   348379.124    14758.743    78562.442       28.589       22.085      352.407      398.055        1.276      330.695       -1.759      847.953
01/25/2021  07:24:00        4.404      303.207      -65.778      533.166      111.148      258.995   284265.863    12353.933    67078.440       22.991       18.185      303.239      360.177        1.411      330.644       -1.844      847.954
01/25/2021  07:25:00      -15.180      295.149      -75.234      589.398      128.594      276.153   347389.483    16536.487    76260.566       26.650       22.009      295.540      392.289        1.762      330.668       -1.804      847.972
01/25/2021  07:26:00       66.127      163.612      -86.775      664.342       82.462      308.294   441350.714     6799.962    95045.415       29.082       27.160      176.470      446.932        6.414      330.788       -1.602      847.983
01/25/2021  07:27:00       93.737       88.796      -99.935      684.463       81.767      322.783   468488.980     6685.771   104189.060       30.289       28.968      129.117      461.383       12.769      330.953       -1.329      847.999
01/25/2021  07:28:00       40.079      212.779      -96.129      638.348      130.972      301.009   407488.368    17153.605    90606.312       28.557       25.762      216.520      429.858        3.941      330.729       -1.702      848.007
01/25/2021  07:29:00      108.994      218.815     -112.165      759.178       79.840      360.129   576351.000     6374.347   129693.188       39.223       35.621      244.458      518.365        4.496      330.963       -1.309      848.024
01/25/2021  07:30:00       56.054      304.207      -87.202      615.428      132.605      292.101   378751.875    17584.138    85323.165       29.237       24.083      309.329      417.689        1.823      330.703       -1.745      848.031
01/25/2021  07:31:00      116.561      304.654      -96.382      686.415       86.556      332.732   471165.699     7491.918   110710.743       35.240       29.468      326.191      472.502        2.098      330.865       -1.476      848.043
01/25/2021  07:32:00      -13.298      303.809     -114.756      692.489      135.321      334.747   479540.997    18311.775   112055.458       35.765       30.495      304.100      470.200        2.391      330.839       -1.521      848.054
01/25/2021  07:33:00       22.663      140.658     -111.992      710.853      135.228      332.883   505312.438    18286.613   110811.016       33.349       31.721      142.472      468.606       10.818      330.895       -1.425      848.058
01/25/2021  07:34:00       79.747       79.727      -92.474      709.183      120.916      331.967   502940.685    14620.614   110201.843       32.438       31.388      112.765      470.059       17.376      330.934       -1.360      848.070
01/25/2021  07:35:00      -35.198      171.648      -66.205      588.609      114.972      276.451   346460.048    13218.658    76424.927       23.550       21.805      175.220      379.957        4.702      330.652       -1.828      848.077
01/25/2021  07:36:00      -66.017      147.975      -75.353      594.308      108.068      284.143   353202.484    11678.756    80737.168       23.868       22.281      162.033      399.721        6.086      330.646       -1.841      848.085
01/25/2021  07:37:00      120.976      151.825      -78.098      698.731       81.909      335.438   488225.434     6709.139   112518.516       32.549       30.373      194.129      479.455        6.100      330.948       -1.337      848.077
01/25/2021  07:38:00      296.517       52.791     -182.198      903.848       72.425      447.063   816941.986     5245.347   199865.396       57.276       51.103      301.180      630.642        4.384      331.539       -0.352      848.102
01/25/2021  07:39:00      105.271      162.284      -80.648      635.882      148.604      300.378   404346.014    22083.050    90226.800       28.018       25.833      193.438      431.050        4.966      330.823       -1.547      848.111
01/25/2021  07:40:00      139.610      141.092     -144.334      815.163      144.611      386.874   664491.045    20912.326   149671.300       44.748       41.754      198.489      555.934        7.845      331.184       -0.943      848.114
01/25/2021  07:41:00      101.324      160.744     -155.601      857.024      126.597      396.353   734490.546    16026.838   157095.614       48.377       45.381      190.014      575.556        9.175      331.221       -0.883      848.128
01/25/2021  07:42:00      -42.477      215.249      -79.733      587.519      144.985      281.840   345178.784    21020.603    79433.872       24.997       22.282      219.401      395.052        3.242      330.690       -1.766      848.126
01/25/2021  07:43:00      108.229       70.460      -94.450      695.910      133.177      325.484   484290.712    17736.153   105939.526       31.665       30.398      129.143      464.184       12.919      330.922       -1.380      848.122
01/25/2021  07:44:00      -45.727      145.859      -74.509      582.521      156.100      262.905   339331.051    24367.201    69118.779       23.077       21.641      152.859      374.630        6.007      330.666       -1.808      848.156
01/25/2021  07:45:00      -66.822      156.878      -53.241      555.678      111.843      266.098   308778.580    12508.883    70807.986       21.192       19.605      170.517      365.857        4.603      330.632       -1.864      848.159
01/25/2021  07:46:00      -15.549      102.955      -39.455      488.528       71.996      228.122   238659.308     5183.411    52039.694       15.408       14.794      104.122      326.735        9.847      330.562       -1.978      848.172
01/25/2021  07:47:00      -16.659       89.469      -89.049      568.093      190.065      284.737   322729.614    36124.663    81074.884       22.798       21.996       91.006      369.476       16.483      330.709       -1.735      848.182
01/25/2021  07:48:00        1.864      106.407      -93.885      691.645      124.055      326.780   478372.677    15389.693   106785.187       31.022       30.027      106.423      460.805       18.748      330.845       -1.507      848.190
01/25/2021  07:49:00      137.662       91.036     -103.865      712.317       76.460      340.473   507395.757     5846.195   115922.070       33.346       31.458      165.041      485.443        8.652      331.002       -1.246      848.201
01/25/2021  07:50:00      116.502       87.497      -66.824      603.240       68.591      292.143   363898.176     4704.702    85347.742       23.972       22.698      145.700      415.962        8.151      330.838       -1.521      848.197
01/25/2021  07:51:00       65.937       82.502      -82.257      638.699      115.517      304.617   407935.971    13344.292    92791.445       26.589       25.704      105.614      435.714       17.020      330.852       -1.496      848.208
01/25/2021  07:52:00       77.580      203.760      -81.535      670.969      136.282      308.249   450199.131    18572.729    95017.269       30.887       28.189      218.029      440.959        4.090      330.843       -1.512      848.227
01/25/2021  07:53:00       96.689       45.314      -67.519      635.389      112.697      308.100   403719.789    12700.518    94925.720       26.354       25.567      106.780      430.063       16.221      330.840       -1.517      848.232
01/25/2021  07:54:00       27.322      133.919      -39.977      500.193       90.229      244.265   250192.550     8141.285    59665.410       16.907       15.900      136.678      330.530        5.848      330.601       -1.915      848.237
01/25/2021  07:55:00      -11.245       89.921      -60.197      545.988       77.596      261.535   298102.945     6021.069    68400.573       19.210       18.626       90.621      356.554       15.481      330.656       -1.825      848.256
01/25/2021  07:56:00       90.068       97.528      -55.059      553.059      149.352      274.250   305874.266    22305.989    75212.905       21.194       20.170      132.755      367.614        7.668      330.741       -1.683      848.271
01/25/2021  07:57:00       40.606      114.674      -84.540      667.490       74.864      320.374   445543.217     5604.570   102639.390       28.775       27.689      121.651      458.129       14.182      330.835       -1.523      848.299
01/25/2021  07:58:00       74.554       49.941      -71.279      601.042       68.474      280.682   361251.443     4688.721    78782.256       22.883       22.236       89.735      403.592       20.228      330.807       -1.574      848.304
01/25/2021  07:59:00      -52.950      169.230      -52.354      462.246       92.754      214.045   213671.411     8603.382    45815.132       15.108       13.404      177.320      307.739        3.012      330.548       -2.005      848.320
01/25/2021  08:00:00       -8.457      140.683      -61.453      588.208      114.975      277.334   345989.114    13219.282    76914.124       22.979       21.806      140.937      389.842        7.651      330.720       -1.720      848.335
01/25/2021  08:01:00       32.381      149.159      -56.556      490.843       97.608      235.936   240926.700     9527.393    55665.692       16.624       15.306      152.633      330.479        4.688      330.626       -1.874      848.342
01/25/2021  08:02:00       20.152      121.928      -69.952      594.651       53.565      279.090   353610.288     2869.262    77890.992       22.718       21.719      123.582      402.598       10.613      330.700       -1.747      848.361
01/25/2021  08:03:00        7.138      116.014      -55.209      542.816      118.095      263.759   294649.355    13946.370    69568.887       19.728       18.908      116.233      365.764        9.902      330.644       -1.843      848.370
01/25/2021  08:04:00      -40.531      150.766      -85.846      613.170       70.005      287.770   375977.199     4900.687    82811.567       24.762       23.184      156.119      413.661        7.021      330.688       -1.771      848.377
01/25/2021  08:05:00        8.639      124.530      -64.297      636.324       82.006      310.729   404908.397     6724.990    96552.456       26.384       25.409      124.829      435.940       12.196      330.716       -1.720      848.379
01/25/2021  08:06:00      125.947       -1.594      -82.856      695.140      114.298      332.535   483219.061    13063.996   110579.710       31.467       30.343      125.957      473.469       14.130      330.924       -1.377      848.374
01/25/2021  08:07:00       77.586      141.814      -68.520      583.238       91.867      286.311   340166.308     8439.581    81974.004       23.061       21.529      161.650      403.517        6.231      330.708       -1.737      848.385
01/25/2021  08:08:00       19.417       49.079      -50.347      442.950       66.132      216.507   196204.516     4373.439    46875.456       12.633       12.373       52.780      304.337       33.248      330.604       -1.911      848.395
01/25/2021  08:09:00        8.591       31.766      -59.815      565.731       65.082      274.331   320051.613     4235.637    75257.291       20.202       19.977       32.907      387.800      138.880      330.685       -1.775      848.412
01/25/2021  08:10:00      206.342       79.461     -110.616      836.000       98.854      395.426   698896.242     9772.029   156361.660       46.289       43.251      221.113      569.744        6.639      331.203       -0.911      848.435
01/25/2021  08:11:00       -6.489       55.052      -63.955      574.259      114.624      284.808   329772.953    13138.570    81115.562       21.550       21.201       55.433      397.244       51.354      330.678       -1.785      848.442
01/25/2021  08:12:00       50.359       50.710      -63.397      629.044       83.036      297.318   395695.821     6895.052    88397.813       24.995       24.549       71.467      424.783       35.328      330.770       -1.632      848.453
01/25/2021  08:13:00       33.931       35.153      -47.494      520.446      100.500      243.608   270863.787    10100.338    59345.007       17.240       17.015       48.857      346.577       50.320      330.639       -1.850      848.462
01/25/2021  08:14:00      -69.763       71.466      -81.883      691.789      153.556      311.291   478572.067    23579.374    96901.949       30.774       29.953       99.871      446.376       19.977      330.760       -1.649      848.467
01/25/2021  08:15:00       17.554       37.577      -61.988      583.502       51.110      274.233   340474.959     2612.271    75203.963       21.184       20.915       41.475      393.465       90.001      330.681       -1.781      848.465
01/25/2021  08:16:00        6.704      142.913      -76.701      573.154      150.578      281.151   328505.388    22673.768    79045.604       22.820       21.511      143.070      390.428        7.447      330.646       -1.840      848.469
01/25/2021  08:17:00     -124.233       33.963      -91.842      645.099       99.680      307.094   416152.883     9936.194    94306.926       27.260       26.020      128.792      434.859       11.400      330.750       -1.667      848.461
01/25/2021  08:18:00       88.746       74.608      -91.454      705.620       91.537      338.735   497899.530     8379.044   114741.130       32.128       31.051      115.941      483.920       17.421      330.900       -1.415      848.472
01/25/2021  08:19:00       55.543       31.178      -74.244      685.147       65.272      319.475   469425.890     4260.479   102064.065       29.254       28.788       63.695      463.510       52.955      330.865       -1.472      848.482
01/25/2021  08:20:00     -105.709       45.532      -58.104      529.609       74.856      251.442   280486.059     5603.478    63223.325       18.289       17.466      115.098      352.836        9.397      330.630       -1.868      848.504
01/25/2021  08:21:00       44.978       36.243      -33.934      417.655       75.391      195.570   174435.750     5683.824    38247.682       11.138       10.918       57.763      268.871       21.667      330.506       -2.073      848.492
01/25/2021  08:22:00       11.069       74.756      -95.335      597.289      109.578      294.751   356754.675    12007.345    86877.976       23.512       22.782       75.571      408.136       29.167      330.711       -1.731      848.500
01/25/2021  08:23:00     -112.978      103.607      -46.929      413.378      114.384      201.304   170881.585    13083.678    40523.244       12.505       11.224      153.292      279.018        3.313      330.465       -2.141      848.506
01/25/2021  08:24:00       89.906        6.390      -85.330      685.270       66.428      338.047   469594.395     4412.624   114275.692       30.172       29.414       90.132      474.951       27.767      330.918       -1.387      848.504
01/25/2021  08:25:00      112.111       31.817      -65.818      610.348       51.640      294.706   372524.176     2666.674    86851.644       23.988       23.102      116.539      420.292       13.007      330.841       -1.515      848.506
01/25/2021  08:26:00      123.965      -13.688      -73.402      599.829       53.642      283.148   359794.584     2877.463    80172.854       23.180       22.142      124.719      407.001       10.649      330.850       -1.503      848.517
01/25/2021  08:27:00      -81.778       96.134      -36.455      332.360       79.986      160.662   110463.307     6397.824    25812.438        7.993        7.134      126.211      222.061        3.096      330.365       -2.307      848.533
01/25/2021  08:28:00      -67.660       87.829      -46.044      375.950       94.079      175.656   141338.737     8850.934    30854.958        9.769        9.052      110.868      247.040        4.965      330.453       -2.161      848.537
01/25/2021  08:29:00      -26.857        9.505      -64.928      521.683      157.923      258.534   272153.499    24939.662    66839.601       18.440       18.197       28.489      344.973      146.627      330.615       -1.891      848.549
01/25/2021  08:30:00        0.518       66.948      -78.048      636.959       93.283      295.733   405717.278     8701.752    87458.202       25.612       25.094       66.950      428.484       40.960      330.785       -1.608      848.550
01/25/2021  08:31:00      -76.390       16.601      -51.937      541.434       96.112      250.739   293150.350     9237.580    62870.275       18.696       18.263       78.173      350.665       20.122      330.623       -1.878      848.553
01/25/2021  08:32:00     -174.797      113.617      -16.271      127.183       98.723       55.416    16175.489     9746.323     3070.968        3.635        1.450      208.478       52.659        0.064      330.215       -2.556      848.557
01/25/2021  08:33:00      -90.020      104.552      -74.010      542.782       79.278      255.684   294611.956     6285.010    65374.264       19.531       18.314      137.967      367.001        7.076      330.569       -1.968      848.573
01/25/2021  08:34:00      -88.883       75.754      -63.465      440.768       89.161      210.728   194276.803     7949.711    44406.201       13.210       12.332      116.786      296.617        6.451      330.464       -2.143      848.570
01/25/2021  08:35:00       88.913       85.920      -72.882      621.890       95.252      301.648   386747.357     9072.901    90991.524       25.360       24.341      123.644      424.930       11.811      330.779       -1.617      848.577
01/25/2021  08:36:00       30.626       28.032      -96.093      663.360       82.792      321.989   440047.024     6854.484   103677.103       28.065       27.529       41.518      451.873      118.456      330.833       -1.527      848.572
01/25/2021  08:37:00      108.304       60.756     -134.968      831.504       70.816      392.668   691399.578     5014.970   154188.063       44.194       42.530      124.182      567.614       20.893      331.141       -1.014      848.563
01/25/2021  08:38:00      -16.123       54.132      -73.963      619.970       99.202      293.468   384362.676     9840.993    86123.214       24.439       24.016       56.482      419.558       55.178      330.757       -1.657      848.571
01/25/2021  08:39:00      -27.393       41.332      -61.485      473.407       62.688      220.357   224114.545     3929.825    48557.272       14.136       13.830       49.585      313.981       40.096      330.556       -1.989      848.562
01/25/2021  08:40:00       83.150        4.003      -24.396      474.614       68.341      233.422   225258.205     4670.498    54485.654       14.591       14.221       83.247      328.367       15.559      330.607       -1.905      848.553
01/25/2021  08:41:00      148.464       -5.273      -69.822      633.594       61.583      305.479   401440.856     3792.415    93317.540       26.264       24.928      148.558      436.767        8.644      330.842       -1.514      848.555
01/25/2021  08:42:00     -114.487       36.556      -30.736      394.369       64.611      189.976   155527.218     4174.601    36090.872       10.555        9.790      120.181      262.614        4.775      330.379       -2.283      848.568
01/25/2021  08:43:00       21.222       46.900      -35.954      458.234       83.869      215.139   209978.405     7033.964    46284.928       13.356       13.165       51.478      302.350       34.496      330.540       -2.016      848.573
01/25/2021  08:44:00      -60.779      162.256      -84.757      564.513      107.691      270.002   318675.015    11597.263    72901.317       22.010       20.159      173.265      385.980        4.963      330.657       -1.823      848.582
01/25/2021  08:45:00      -70.123       24.580      -64.456      544.189       74.530      254.655   296141.647     5554.656    64849.374       18.803       18.327       74.306      364.204       24.023      330.650       -1.835      848.580
01/25/2021  08:46:00      -33.267       36.409      -51.938      535.603       68.539      250.524   286870.245     4697.533    62762.442       17.965       17.717       49.318      357.882       52.658      330.552       -1.994      848.575
01/25/2021  08:47:00       29.534       82.143      -66.043      559.698       55.684      272.100   313261.622     3100.670    74038.335       20.111       19.520       87.291      385.902       19.544      330.655       -1.823      848.570
01/25/2021  08:48:00      -79.935       83.172      -48.733      417.434       86.439      199.595   174250.769     7471.770    39838.325       11.858       11.078      115.356      282.577        6.001      330.436       -2.188      848.570
01/25/2021  08:49:00     -136.686       15.747      -88.120      622.138      100.941      296.348   387055.199    10189.129    87821.921       25.578       24.253      137.590      413.624        9.037      330.661       -1.813      848.564
01/25/2021  08:50:00       -2.295       83.477      -58.133      529.211      106.351      246.451   280064.233    11310.503    60738.265       18.115       17.606       83.509      354.408       18.011      330.630       -1.867      848.581
01/25/2021  08:51:00       48.860       71.176      -36.629      542.558      112.398      266.837   294369.339    12633.408    71201.793       19.342       18.910       86.333      369.250       18.293      330.691       -1.765      848.583
01/25/2021  08:52:00       21.449       43.230      -27.018      451.792       82.385      218.708   204115.992     6787.252    47833.272       13.084       12.937       48.259      305.568       40.092      330.594       -1.926      848.588
01/25/2021  08:53:00      -81.535       42.238      -43.443      415.949       74.883      206.861   173013.204     5607.408    42791.386       11.582       11.071       91.826      275.983        9.033      330.502       -2.080      848.590
01/25/2021  08:54:00      -75.594       38.044      -38.935      509.804       63.686      246.841   259900.151     4055.927    60930.505       16.671       16.244       84.627      340.786       16.216      330.584       -1.943      848.599
01/25/2021  08:55:00       26.430       -5.607      -44.468      512.003       91.857      255.277   262147.228     8437.641    65166.591       16.916       16.788       27.019      343.586      161.714      330.614       -1.893      848.608
01/25/2021  08:56:00        8.013       26.231      -54.971      496.930      191.906      244.748   246939.790    36827.856    59901.554       17.365       17.183       27.428      303.359      122.327      330.662       -1.815      848.616
01/25/2021  08:57:00       27.915      141.514      -66.046      538.007      101.757      268.755   289451.857    10354.393    72229.231       19.852       18.602      144.241      373.227        6.695      330.692       -1.763      848.624
01/25/2021  08:58:00       56.798       42.716      -41.511      571.115       63.700      269.625   326172.496     4057.690    72697.679       20.476       20.146       71.068      385.898       29.485      330.768       -1.638      848.647
01/25/2021  08:59:00        4.450       41.593      -43.248      513.676       77.144      235.967   263862.878     5951.120    55680.494       16.449       16.275       41.830      340.470       66.250      330.727       -1.708      848.662
01/25/2021  09:00:00       28.078      105.520      -50.090      472.216      105.164      230.246   222987.924    11059.484    53013.134       15.068       14.353      109.192      320.591        8.620      330.637       -1.857      848.674
01/25/2021  09:01:00     -141.913       -6.211      -33.236      329.981       78.796      160.412   108887.564     6208.888    25731.946        8.103        7.041      142.048      217.583        2.346      330.487       -2.106      848.692
01/25/2021  09:02:00        7.283       90.613      -49.731      539.816      102.968      256.089   291401.667    10602.317    65581.503       18.908       18.379       90.905      360.829       15.755      330.728       -1.706      848.712
01/25/2021  09:03:00     -198.071      189.961      -63.540      427.415      124.941      196.426   182683.318    15610.230    38583.033       15.807       11.844      274.440      269.009        0.961      330.451       -2.167      848.720
01/25/2021  09:04:00      -56.273       94.297      -56.438      504.179       98.155      244.482   254196.223     9634.396    59771.530       16.935       16.180      109.811      342.113        9.706      330.660       -1.818      848.735
01/25/2021  09:05:00      -37.390      150.177      -52.378      484.464      125.597      226.287   234704.942    15774.489    51205.941       16.413       15.084      154.762      321.944        4.327      330.646       -1.843      848.751
01/25/2021  09:06:00     -134.482       47.962      -28.482      374.033      114.187      173.572   139900.671    13038.657    30127.148       10.209        9.153      142.779      225.546        2.495      330.507       -2.074      848.760
01/25/2021  09:07:00      -59.587      125.037      -38.243      259.711       96.525      122.283    67450.049     9317.091    14953.162        5.616        4.586      138.510      155.418        1.259      330.426       -2.208      848.779
01/25/2021  09:08:00      -68.674      131.061      -28.550      385.902       99.282      191.555   148920.437     9856.838    36693.195       10.905        9.774      147.963      253.485        2.935      330.570       -1.971      848.774
01/25/2021  09:09:00       30.573       69.759       -5.814      396.101       77.025      193.633   156896.354     5932.821    37493.783       10.304       10.016       76.165      264.392       12.050      330.603       -1.915      848.782
01/25/2021  09:10:00       29.488      123.430      -56.515      503.728      132.418      240.575   253741.785    17534.494    57876.217       17.416       16.458      126.904      338.211        7.103      330.740       -1.687      848.799
01/25/2021  09:11:00      -47.508      142.448      -50.457      467.769      148.437      232.766   218807.787    22033.568    54180.235       15.999       14.751      150.162      303.907        4.096      330.692       -1.769      848.800
01/25/2021  09:12:00     -133.614       72.673      -46.394      450.985       85.920      222.768   203387.452     7382.328    49625.496       14.278       13.020      152.099      303.619        3.985      330.565       -1.977      848.824
01/25/2021  09:13:00        0.062      172.614      -57.366      544.641      113.308      262.633   296634.253    12838.717    68976.263       20.569       18.922      172.614      368.767        4.564      330.713       -1.730      848.831
01/25/2021  09:14:00      -90.948       29.929      -38.247      376.385       98.236      172.217   141665.360     9650.393    29658.757        9.576        9.049       95.746      225.546        5.549      330.504       -2.080      848.845
01/25/2021  09:15:00      -21.374       12.542      -37.134      426.254      125.807      197.048   181692.808    15827.449    38827.974       11.912       11.817       24.783      267.235      116.277      330.599       -1.922      848.861
01/25/2021  09:16:00      113.215       61.667      -27.286      549.425      115.959      264.160   301867.760    13446.459    69780.588       20.115       19.255      128.920      374.100        8.420      330.809       -1.570      848.879
01/25/2021  09:17:00      -13.713       61.010      -26.146      410.564       89.616      199.875   168562.591     8030.982    39949.925       11.052       10.827       62.532      268.422       18.426      330.615       -1.895      848.898
01/25/2021  09:18:00       18.713       25.131       -5.922      354.066       69.823      176.831   125362.810     4875.247    31269.173        8.123        8.075       31.332      241.274       59.297      330.608       -1.906      848.916
01/25/2021  09:19:00       -3.765       46.514      -14.279      389.188       64.522      186.311   151466.996     4163.028    34711.923        9.632        9.517       46.667      260.398       31.136      330.637       -1.857      848.920
01/25/2021  09:20:00       63.333       36.818      -26.797      446.846       61.790      210.588   199671.343     3818.033    44347.411       12.691       12.392       73.257      300.728       16.852      330.725       -1.713      848.930
01/25/2021  09:21:00      -54.338       33.172       -9.725      257.500      105.008      126.225    66306.353    11026.699    15932.856        4.869        4.663       63.663      170.313        7.157      330.459       -2.153      848.930
01/25/2021  09:22:00       65.893      -20.131      -20.802      478.924       70.667      226.869   229367.906     4993.813    51469.576       14.544       14.292       68.899      324.221       22.144      330.787       -1.609      848.923
01/25/2021  09:23:00      -88.215       29.968      -33.159      393.488       82.955      179.478   154833.055     6881.528    32212.181       10.181        9.696       93.167      248.593        7.120      330.524       -2.045      848.922
01/25/2021  09:24:00      -42.479      149.818      -22.617      379.091      126.716      182.338   143710.035    16057.015    33247.302       10.885        9.651      155.724      250.049        2.578      330.481       -2.116      848.948
01/25/2021  09:25:00      -85.423      162.890      -46.032      404.253       90.914      198.554   163420.233     8265.388    39423.701       12.348       10.555      183.930      274.741        2.231      330.543       -2.013      848.957
01/25/2021  09:26:00      -79.179       53.305      -13.593      317.844       96.403      141.294   101024.834     9293.503    19963.882        6.976        6.514       95.451      184.660        3.743      330.424       -2.210      848.956
01/25/2021  09:27:00     -263.966       56.152      -18.213      227.577      101.170      118.993    51791.385    10235.289    14159.347        7.466        3.809      269.873      111.914        0.172      330.266       -2.473      848.947
01/25/2021  09:28:00     -109.477        0.819      -10.153      302.618       68.825      153.669    91577.932     4736.887    23614.070        6.598        5.996      109.480      202.856        3.433      330.481       -2.118      848.951
01/25/2021  09:29:00      -26.237      140.946      -41.211      366.713       86.024      178.630   134478.077     7400.163    31908.588        9.798        8.689      143.367      243.984        2.896      330.481       -2.117      848.969
01/25/2021  09:30:00     -128.802      179.010      -49.833      418.976      101.495      196.876   175540.704    10301.254    38760.074       13.781       11.230      220.532      258.740        1.377      330.407       -2.238      848.981
01/25/2021  09:31:00     -140.925      169.508      -43.623      374.617       97.906      174.702   140338.178     9585.506    30520.963       11.543        9.022      220.438      233.006        1.117      330.382       -2.280      848.991
01/25/2021  09:32:00     -120.274      146.425      -53.307      468.364       87.547      215.020   219364.661     7664.396    46233.394       15.595       13.663      189.489      305.650        2.602      330.481       -2.114      848.996
01/25/2021  09:33:00     -152.220      166.506      -33.984      284.953      110.379      128.597    81197.967    12183.581    16537.123        8.096        5.496      225.600      167.165        0.549      330.329       -2.369      849.002
01/25/2021  09:34:00      -10.530      101.258      -49.483      464.627       89.171      223.537   215878.428     7951.516    49968.673       14.325       13.690      101.804      313.537        9.485      330.638       -1.856      849.002
01/25/2021  09:35:00     -121.404      135.698      -27.649      290.429       60.119      141.792    84349.287     3614.332    20105.032        7.097        5.403      182.080      182.299        1.002      330.387       -2.271      849.010
01/25/2021  09:36:00        5.095       84.254      -52.699      475.580      130.656      225.062   226175.927    17071.052    50653.049       15.184       14.695       84.408      306.146       13.155      330.521       -2.048      848.995
01/25/2021  09:37:00      -69.720       78.803      -31.215      432.138      114.015      212.094   186742.900    12999.451    44983.660       12.833       12.236      105.218      290.881        7.643      330.522       -2.047      849.009
01/25/2021  09:38:00      -31.425      107.691       -5.641      323.986       86.371      153.053   104967.091     7460.026    23425.217        7.421        6.793      112.183      209.687        3.494      330.453       -2.163      849.019
01/25/2021  09:39:00     -101.212       21.909      -12.951      390.020       86.148      176.603   152115.384     7421.400    31188.699       10.077        9.536      103.556      240.864        5.410      330.459       -2.153      849.024
01/25/2021  09:40:00     -110.990      163.348      -52.356      495.358       76.652      239.865   245379.998     5875.549    57535.070       17.520       15.440      197.488      333.753        2.856      330.561       -1.982      849.030
01/25/2021  09:41:00     -110.871      176.049      -32.693      367.397       77.857      166.434   134980.883     6061.755    27700.219       10.651        8.437      208.052      236.368        1.291      330.388       -2.269      849.040
01/25/2021  09:42:00      -95.479      149.691      -47.923      418.660       89.731      210.076   175275.872     8051.711    44131.865       13.059       11.373      177.549      287.186        2.616      330.476       -2.123      849.044
01/25/2021  09:43:00      -20.734      110.872      -45.599      414.748       84.601      201.521   172015.717     7157.304    40610.606       11.725       10.989      112.794      281.730        6.239      330.569       -1.969      849.085
01/25/2021  09:44:00      -60.949      184.079      -32.538      396.937      103.436      193.554   157558.828    10698.960    37463.282       12.215       10.286      193.907      264.042        1.854      330.514       -2.063      849.126
01/25/2021  09:45:00     -187.705      160.353      -52.246      366.124      134.651      172.185   134046.928    18130.885    29647.829       12.271        9.091      246.873      222.913        0.815      330.398       -2.254      849.139
01/25/2021  09:46:00      -71.417      115.070      -30.766      364.870      126.938      182.573   133130.254    16113.361    33332.851       10.089        9.129      135.431      231.336        2.918      330.434       -2.193      849.169
01/25/2021  09:47:00       69.768       49.252      -58.127      576.209       68.565      287.305   332017.279     4701.188    82543.890       21.488       20.963       85.401      397.141       21.626      330.758       -1.652      849.192
01/25/2021  09:48:00      -17.384      124.784      -49.607      515.684      112.789      237.350   265930.213    12721.434    56335.194       17.659       16.749      125.989      337.724        7.186      330.646       -1.843      849.204
01/25/2021  09:49:00      -23.702      130.375      -51.484      515.412       89.494      241.870   265649.904     8009.231    58500.904       17.611       16.608      132.512      341.769        6.652      330.640       -1.851      849.229
01/25/2021  09:50:00      -62.757      109.854      -39.604      381.835      101.667      174.404   145798.297    10336.162    30416.859       10.202        9.328      126.516      244.772        3.743      330.520       -2.052      849.261
01/25/2021  09:51:00     -149.630      141.775      -59.567      417.123      111.933      207.523   173991.984    12528.892    43065.598       13.776       11.479      206.129      280.498        1.852      330.493       -2.096      849.279
01/25/2021  09:52:00       12.500      108.031      -41.622      537.109      165.407      246.069   288486.061    27359.348    60549.890       19.490       18.820      108.752      345.327       10.083      330.666       -1.807      849.298
01/25/2021  09:53:00     -107.273       71.513      -37.602      453.388       94.927      217.370   205561.081     9011.229    47249.777       13.987       13.091      128.924      295.043        5.237      330.530       -2.034      849.323
01/25/2021  09:54:00     -136.663       81.245      -30.291      332.215       88.752      159.225   110366.698     7876.963    25352.628        8.486        7.180      158.989      204.914        1.661      330.380       -2.282      849.357
01/25/2021  09:55:00       -9.081       40.189      -25.497      429.810      101.451      212.618   184736.350    10292.385    45206.363       12.124       12.012       41.202      286.157       48.236      330.539       -2.018      849.367
01/25/2021  09:56:00      -34.413       46.318      -17.378      274.137      129.182      127.191    75151.225    16687.993    16177.626        5.580        5.401       57.703      165.227        8.199      330.438       -2.188      849.371
01/25/2021  09:57:00       33.147       69.262      -25.905      445.932       76.362      202.790   198855.267     5831.155    41123.760       12.614       12.291       76.785      292.305       14.492      330.632       -1.865      849.377
01/25/2021  09:58:00       -4.983       52.803      -46.697      355.372      144.352      167.333   126289.278    20837.608    28000.325        9.002        8.756       53.037      212.216       16.010      330.454       -2.160      849.381
01/25/2021  09:59:00      -37.437       61.955       -1.423      319.532       90.369      151.684   102100.771     8166.503    23008.003        6.923        6.664       72.388      195.936        7.327      330.434       -2.194      849.390
01/25/2021  10:00:00     -126.358      152.446      -22.430      243.742      151.227      119.569    59410.399    22869.737    14296.664        6.812        4.829      198.005      138.808        0.491      330.343       -2.346      849.392
01/25/2021  10:01:00     -134.499      144.702      -44.023      303.647      102.794      151.783    92201.260    10566.655    23038.128        8.336        6.290      197.557      184.554        0.873      330.321       -2.380      849.421
01/25/2021  10:02:00      -19.793       60.466      -28.243      380.672       94.023      184.677   144911.410     8840.416    34105.421        9.631        9.393       63.623      245.290       14.864      330.477       -2.122      849.415
01/25/2021  10:03:00     -150.541      232.788      -45.162      400.430      104.982      188.891   160343.859    11021.177    35679.919       14.292       10.352      277.223      264.228        0.908      330.416       -2.223      849.425
01/25/2021  10:04:00     -120.740      159.320      -25.818       75.765      104.505       48.874     5740.299    10921.227     2388.691        2.983        0.953      199.903       29.382        0.022      330.267       -2.472      849.434
01/25/2021  10:05:00     -238.071       59.039      -40.035      257.564       76.836      118.681    66339.140     5903.732    14085.080        7.403        4.316      245.283      145.068        0.350      330.305       -2.410      849.437
01/25/2021  10:06:00      -27.238       66.008      -34.337      418.093       99.788      197.910   174802.092     9957.548    39168.361       11.506       11.196       71.407      276.848       15.031      330.597       -1.923      849.453
01/25/2021  10:07:00      -71.431       76.708      -33.152      338.708       88.066      163.206   114723.267     7755.676    26636.150        8.057        7.456      104.816      227.308        4.703      330.493       -2.095      849.468
01/25/2021  10:08:00     -170.774       48.337      -37.190      485.722      122.449      213.458   235925.818    14993.795    45564.468       16.462       14.824      177.483      294.304        2.750      330.482       -2.114      849.465
01/25/2021  10:09:00     -195.734      132.072      -46.000      380.663      164.957      178.855   144904.379    27210.954    31989.001       13.094       10.205      236.125      235.165        0.992      330.363       -2.310      849.497
01/25/2021  10:10:00      -71.849      116.751      -20.619      244.732      107.181      106.745    59893.982    11487.728    11394.474        5.098        4.139      137.088      120.648        0.775      330.369       -2.302      849.491
01/25/2021  10:11:00       -2.780       62.546       -4.568      265.752       81.351      120.895    70624.306     6618.048    14615.546        4.788        4.593       62.607      169.399        7.321      330.446       -2.175      849.504
01/25/2021  10:12:00       48.446      102.117      -55.929      561.886       82.169      266.335   315716.099     6751.798    70934.107       20.457       19.670      113.026      378.974       11.242      330.750       -1.668      849.501
01/25/2021  10:13:00     -107.506      121.901      -27.256      273.427       72.024      129.338    74762.577     5187.498    16728.270        6.190        4.834      162.534      175.037        1.160      330.441       -2.182      849.511
01/25/2021  10:14:00     -107.653      146.607      -48.186      405.223      123.894      200.141   164205.844    15349.667    40056.245       12.746       10.981      181.887      271.758        2.232      330.512       -2.064      849.512
01/25/2021  10:15:00      -10.296      167.742      -38.146      429.472      107.049      206.425   184445.918    11459.535    42611.229       13.406       11.926      168.058      290.289        2.984      330.518       -2.054      849.520
01/25/2021  10:16:00     -248.449       69.219      -26.235      323.185       97.562      139.686   104448.861     9518.303    19512.189       10.031        6.674      257.911      182.869        0.503      330.399       -2.253      849.528
01/25/2021  10:17:00        1.176      140.142        0.262      260.170       80.480      133.267    67688.237     6477.074    17759.985        5.576        4.596      140.147      165.284        1.391      330.443       -2.180      849.536
01/25/2021  10:18:00      -71.919      178.639      -32.895      384.990      103.390      178.773   148217.578    10689.560    31959.901       11.448        9.543      192.573      244.538        1.613      330.513       -2.063      849.541
01/25/2021  10:19:00     -131.179      232.609      -16.185      167.267       76.403       79.005    27978.269     5837.467     6241.839        5.581        2.003      267.049       82.044        0.094      330.270       -2.468      849.547
01/25/2021  10:20:00     -111.539      162.698      -29.024      399.030       92.578      191.629   159225.133     8570.664    36721.661       12.209       10.226      197.260      261.126        1.752      330.484       -2.112      849.529
01/25/2021  10:21:00      -77.007      206.680      -59.449      518.720      108.629      245.700   269069.925    11800.334    60368.493       19.664       17.062      220.560      343.375        2.424      330.626       -1.875      849.527
01/25/2021  10:22:00      -69.963      146.127      -27.301      325.098       93.836      148.673   105688.421     8805.234    22103.737        8.177        6.830      162.012      205.194        1.604      330.443       -2.181      849.517
01/25/2021  10:23:00      -75.663      139.970      -33.482      341.330      113.590      168.822   116506.202    12902.740    28500.978        9.214        7.895      159.111      221.848        1.944      330.423       -2.211      849.520
01/25/2021  10:24:00     -111.471      182.682       -9.508      241.361      133.734      111.623    58255.209    17884.892    12459.724        6.723        4.430      214.006      137.750        0.414      330.387       -2.273      849.525
01/25/2021  10:25:00     -153.821      196.051      -28.375      309.527      154.989      132.549    95807.108    24021.596    17569.301       10.012        6.870      249.193      157.163        0.398      330.344       -2.344      849.535
01/25/2021  10:26:00     -108.557      184.054      -49.758      432.994      103.058      197.313   187483.457    10620.896    38932.570       14.254       11.852      213.683      274.757        1.653      330.439       -2.184      849.529
01/25/2021  10:27:00      -16.669      123.419      -42.426      567.642      129.166      265.509   322217.233    16683.766    70494.816       21.327       20.470      124.539      379.085        9.265      330.693       -1.762      849.524
01/25/2021  10:28:00      -83.336      124.033      -39.392      403.793      121.995      187.801   163048.448    14882.844    35269.272       11.850       10.660      149.430      252.426        2.854      330.522       -2.050      849.524
01/25/2021  10:29:00     -146.755      200.972      -22.686      253.123      112.326      130.322    64071.281    12617.203    16983.781        7.804        4.684      248.851      158.370        0.405      330.323       -2.379      849.516
01/25/2021  10:30:00     -166.368      167.744      -28.985      325.640      132.312      144.790   106041.250    17506.339    20964.089       10.055        7.226      236.254      188.503        0.637      330.374       -2.295      849.504
01/25/2021  10:31:00        1.394      105.184      -56.747      492.618      105.746      228.263   242672.323    11182.245    52103.977       16.005       15.298      105.193      318.962        9.194      330.663       -1.814      849.495
01/25/2021  10:32:00       -2.675      152.892      -37.990      469.893       77.590      230.469   220799.088     6020.255    53115.893       15.232       13.997      152.915      319.915        4.377      330.573       -1.961      849.490
01/25/2021  10:33:00      -33.927      113.043      -14.198      226.054       80.821      126.254    51100.637     6531.986    15940.148        4.384        3.679      118.025      148.441        1.582      330.478       -2.123      849.489
01/25/2021  10:34:00      -91.802      139.180      -31.298      307.468       96.542      158.232    94536.343     9320.347    25037.304        7.881        6.445      166.729      203.335        1.487      330.439       -2.187      849.485
01/25/2021  10:35:00      -96.382      169.538      -42.681      411.384      189.570      206.997   169236.521    35936.802    42847.551       14.388       12.401      195.020      267.085        1.876      330.480       -2.119      849.476
01/25/2021  10:36:00      -31.508      120.675      -40.978      451.136      125.312      212.752   203523.413    15703.121    45263.282       14.081       13.224      124.721      295.180        5.601      330.510       -2.067      849.473
01/25/2021  10:37:00       40.222       79.437       -6.947      331.443      110.942      161.481   109854.463    12308.019    26075.980        7.808        7.412       89.040      214.711        5.815      330.552       -1.999      849.468
01/25/2021  10:38:00       -3.635      216.378      -31.106      368.641       88.812      179.551   135896.099     7887.599    32238.428       11.187        8.801      216.409      250.374        1.339      330.537       -2.025      849.483
01/25/2021  10:39:00       -8.379       84.822      -40.288      479.741      101.364      234.825   230151.176    10274.594    55142.838       15.217       14.778       85.235      316.814       13.816      330.751       -1.668      849.481
01/25/2021  10:40:00      -67.606      137.376      -27.894      325.401      103.399      152.307   105885.923    10691.364    23197.308        8.197        6.989      153.110      203.179        1.761      330.469       -2.136      849.478
01/25/2021  10:41:00      -73.807       52.760      -24.890      418.812       88.968      199.101   175403.263     7915.346    39641.250       11.586       11.148       90.726      276.073        9.259      330.633       -1.864      849.486
01/25/2021  10:42:00       17.612      219.038      -40.377      406.858       79.057      193.784   165533.066     6250.049    37552.249       12.958       10.467      219.745      272.916        1.542      330.496       -2.092      849.495
01/25/2021  10:43:00       30.227      169.367      -28.131      429.327       77.869      211.054   184321.422     6063.592    44543.648       13.261       11.746      172.043      291.097        2.863      330.748       -1.677      849.485
01/25/2021  10:44:00       15.032      128.136      -33.953      442.568       98.568      212.989   195866.690     9715.630    45364.312       13.432       12.547      129.015      297.596        5.321      330.689       -1.773      849.495
01/25/2021  10:45:00      -82.356      232.193      -23.719      324.934      111.830      153.780   105582.301    12505.983    23648.268       10.147        7.087      246.365      209.322        0.722      330.399       -2.253      849.493
01/25/2021  10:46:00      -71.517      211.743      -17.224      238.199       67.292      115.379    56738.759     4528.224    13312.375        6.240        3.729      223.495      150.526        0.454      330.442       -2.185      849.474
01/25/2021  10:47:00      -15.986      119.989      -78.575      535.689      127.802      269.511   286962.265    16333.244    72636.062       19.830       18.797      121.049      363.556        9.020      330.727       -1.708      849.462
01/25/2021  10:48:00      -35.311      218.513      -12.576      281.466      151.329      136.227    79223.123    22900.505    18557.832        8.489        6.034      221.348      183.584        0.688      330.485       -2.113      849.466
01/25/2021  10:49:00      -33.934      145.545      -23.863      372.619       84.189      168.781   138845.246     7087.731    28486.881        9.862        8.721      149.449      237.201        2.519      330.565       -1.977      849.455
01/25/2021  10:50:00       -0.409      194.278      -23.571      333.138       81.455      153.903   110980.661     6634.930    23686.196        8.977        7.065      194.278      218.442        1.264      330.569       -1.973      849.461
01/25/2021  10:51:00        8.816      130.475      -24.471      405.887       83.343      190.378   164744.488     6946.119    36243.655       11.277       10.397      130.773      269.006        4.231      330.744       -1.683      849.445
01/25/2021  10:52:00       -8.978       99.125       -8.930      289.351       66.997      145.007    83724.196     4488.538    21027.107        5.959        5.462       99.531      190.363        3.658      330.618       -1.890      849.436
01/25/2021  10:53:00      -55.761      130.001      -50.173      448.518      119.177      212.812   201168.187    14203.165    45288.973       14.154       13.033      141.455      297.585        4.426      330.678       -1.791      849.440
01/25/2021  10:54:00       -1.535      126.514      -39.506      351.672       88.327      161.277   123673.275     7801.667    26010.174        8.749        7.874      126.523      228.308        3.256      330.631       -1.870      849.436
01/25/2021  10:55:00       -9.326      282.178      -35.826      406.117       81.654      189.341   164930.756     6667.298    35850.086       14.418       10.372      282.332      268.672        0.906      330.588       -1.942      849.443
01/25/2021  10:56:00      -65.421      179.572      -31.839      424.897       96.851      197.154   180537.151     9380.190    38869.785       13.311       11.439      191.118      275.788        2.082      330.698       -1.758      849.437
01/25/2021  10:57:00       12.915      225.505      -41.526      402.707      127.613      189.954   162172.901    16285.143    36082.455       13.360       10.727      225.874      269.440        1.423      330.607       -1.908      849.432
01/25/2021  10:58:00       -3.588      138.278      -23.410      342.510       93.515      173.003   117313.256     8745.130    29929.928        8.780        7.799      138.325      229.643        2.756      330.659       -1.825      849.433
01/25/2021  10:59:00        4.291      184.058      -37.825      501.046       90.269      237.812   251047.222     8148.472    56554.370       17.547       15.788      184.108      334.571        3.302      330.807       -1.577      849.423
01/25/2021  11:00:00     -113.770      272.074      -26.496      277.635      129.601      121.237    77080.967    16796.347    14698.341        9.810        5.429      294.903      162.121        0.302      330.443       -2.182      849.427
01/25/2021  11:01:00      -88.489      329.384      -47.412      457.923      119.150      214.262   209693.730    14196.758    45908.409       19.413       13.490      341.064      298.930        0.768      330.561       -1.983      849.423
01/25/2021  11:02:00      -28.433      251.660      -23.547      359.184       93.191      176.155   129013.168     8684.473    31030.534       11.668        8.436      253.261      240.084        0.899      330.546       -2.010      849.414
01/25/2021  11:03:00      -56.727      238.549      -26.861      243.020       90.087      118.632    59058.826     8115.657    14073.494        7.103        4.062      245.201      158.660        0.419      330.474       -2.133      849.419
01/25/2021  11:04:00      -97.401      188.052      -13.921      203.575      100.152      103.816    41442.635    10030.497    10777.723        5.363        3.113      211.780      114.270        0.291      330.452       -2.167      849.416
01/25/2021  11:05:00     -107.263      166.067      -20.202      232.334      117.189      111.736    53978.874    13733.296    12484.882        5.983        4.010      197.696      137.847        0.486      330.525       -2.047      849.413
01/25/2021  11:06:00        3.218      233.183      -53.654      423.175      113.819      211.971   179076.946    12954.764    44931.909       14.706       11.848      233.205      289.256        1.538      330.714       -1.733      849.410
01/25/2021  11:07:00       31.367       95.384      -29.800      276.880      113.103      138.630    76662.604    12792.184    19218.386        5.980        5.434      100.409      184.030        3.359      330.650       -1.839      849.404
01/25/2021  11:08:00        4.979      169.458      -40.210      477.604      116.511      242.088   228105.486    13574.793    58606.656       16.526       15.014      169.531      331.140        3.815      330.821       -1.554      849.415
01/25/2021  11:09:00     -146.319      231.392      -41.163      256.712      120.958      126.111    65901.119    14630.854    15904.014        8.652        4.822      273.773      145.441        0.282      330.495       -2.097      849.417
01/25/2021  11:10:00      -43.406      171.514      -67.639      576.392      113.591      281.849   332227.283    12902.831    79438.944       23.013       21.228      176.921      388.221        4.815      330.876       -1.463      849.419
01/25/2021  11:11:00     -123.702      220.793      -40.024      311.417      193.794      156.934    96980.328    37556.109    24628.432       11.238        7.958      253.085      191.877        0.575      330.603       -1.918      849.415
01/25/2021  11:12:00      -33.272      118.392      -11.902      244.374      103.611      148.367    59718.617    10735.158    22012.903        5.385        4.623      122.979      155.657        1.602      330.702       -1.756      849.419
01/25/2021  11:13:00      -29.371       99.102       -8.976      205.362      100.664      109.856    42173.634    10133.209    12068.344        3.756        3.219      103.363      121.570        1.383      330.668       -1.810      849.431
01/25/2021  11:14:00      -41.160      111.286      -34.952      394.730      114.759      182.737   155811.758    13169.680    33392.698       10.879       10.119      118.654      245.434        4.279      330.694       -1.767      849.422
01/25/2021  11:15:00       15.263      279.423      -35.214      421.276      105.226      204.126   177473.362    11072.523    41667.361       15.483       11.511      279.839      287.175        1.053      330.746       -1.680      849.432
01/25/2021  11:16:00      -43.161      111.382      -39.600      358.344      118.932      173.627   128410.157    14144.773    30146.288        9.423        8.635      119.452      233.832        3.832      330.813       -1.572      849.421
01/25/2021  11:17:00      -84.337      215.163      -37.959      320.743      117.668      153.995   102876.037    13845.709    23714.599        9.761        7.022      231.101      206.572        0.799      330.603       -1.919      849.405
01/25/2021  11:18:00      -60.453      197.266       -6.548      171.599       84.629       92.156    29446.210     7162.109     8492.782        4.385        2.255      206.321       99.466        0.232      330.594       -1.935      849.385
01/25/2021  11:19:00      -48.808      129.817      -19.550      321.275      123.041      144.769   103217.937    15139.058    20958.169        7.944        6.966      138.689      182.620        1.734      330.713       -1.738      849.375
01/25/2021  11:20:00      -47.068      149.595      -20.693      312.447       80.325      154.057    97623.126     6452.033    23733.636        7.639        6.390      156.825      196.168        1.565      330.814       -1.571      849.359
01/25/2021  11:21:00      -12.074      171.659      -20.538      341.181       89.994      162.295   116404.357     8098.835    26339.750        9.041        7.542      172.083      225.313        1.714      330.727       -1.714      849.349
01/25/2021  11:22:00     -107.719      272.862      -28.313      249.368      140.293      118.090    62184.455    19682.191    13945.167        9.131        4.791      293.354      148.790        0.257      330.566       -1.981      849.336
01/25/2021  11:23:00      -96.798      335.542      -18.302      101.730      145.249       66.214    10348.928    21097.379     4384.335        7.905        1.792      349.225       44.776        0.016      330.477       -2.129      849.325
01/25/2021  11:24:00     -116.265      177.672      -21.662      266.175      130.149      122.664    70849.171    16938.876    15046.577        7.417        5.142      212.332      161.257        0.577      330.654       -1.834      849.316
01/25/2021  11:25:00     -104.907      252.764      -34.907      323.120      102.781      158.263   104406.492    10564.011    25047.186       10.804        7.001      273.670      207.114        0.573      330.676       -1.799      849.316
01/25/2021  11:26:00      -82.256      220.211      -38.863      317.375       94.521      146.789   100726.625     8934.180    21546.937        9.396        6.560      235.072      207.283        0.778      330.635       -1.865      849.293
01/25/2021  11:27:00      -60.882      228.992      -30.014      388.920       99.707      179.328   151259.051     9941.388    32158.709       12.516        9.668      236.947      253.512        1.145      330.734       -1.700      849.282
01/25/2021  11:28:00     -106.118      321.828      -21.621      185.648      113.003       95.796    34465.278    12769.641     9176.954        8.584        2.821      338.872       98.728        0.085      330.554       -2.003      849.267
01/25/2021  11:29:00     -136.328      249.156      -10.310      213.372      132.342       93.681    45527.768    17514.422     8776.111        7.628        3.591      284.014      101.794        0.128      330.551       -2.006      849.264
01/25/2021  11:30:00     -190.009      311.896      -42.006      308.983      118.532      148.545    95470.689    14049.771    22065.487       13.334        6.579      365.215      184.304        0.255      330.579       -1.958      849.254
01/25/2021  11:31:00      -29.525      276.497      -34.399      325.258      111.650      154.715   105792.746    12465.776    23936.673       11.032        7.110      278.069      211.118        0.576      330.678       -1.796      849.238
01/25/2021  11:32:00      -59.749      287.619      -33.753      392.754      134.007      189.448   154255.633    17957.993    35890.462       14.772       10.405      293.760      258.584        0.775      330.727       -1.714      849.230
01/25/2021  11:33:00      -61.507      130.561       -6.093      292.087      108.186      142.266    85315.016    11704.226    20239.579        6.904        5.863      144.323      190.136        1.736      330.840       -1.529      849.204
01/25/2021  11:34:00      -75.886      260.692      -27.311      302.026      108.115      143.670    91219.846    11688.931    20641.191        9.898        6.177      271.513      194.036        0.511      330.726       -1.718      849.190
01/25/2021  11:35:00      -51.842      252.632      -13.335      302.473      172.200      142.197    91489.761    29652.922    20219.848       10.399        7.068      257.896      189.367        0.539      330.720       -1.726      849.167
01/25/2021  11:36:00      -51.314      356.396      -76.354      488.620      116.323      235.340   238749.455    13531.074    55385.109       22.151       15.383      360.071      329.410        0.837      330.825       -1.550      849.152
01/25/2021  11:37:00     -143.778      295.661      -34.502      328.994      109.610      149.177   108236.815    12014.451    22253.644       12.586        7.125      328.767      199.654        0.369      330.705       -1.751      849.142
01/25/2021  11:38:00      -75.525      366.810      -16.809      183.585      130.761      100.434    33703.440    17098.337    10087.072       10.070        3.044      374.504       95.109        0.064      330.543       -2.020      849.112
01/25/2021  11:39:00      -20.021      235.885      -54.058      428.122      132.106      208.625   183288.375    17452.056    43524.430       15.156       12.213      236.733      286.897        1.469      330.904       -1.420      849.091
01/25/2021  11:40:00     -152.256      281.791      -56.958      375.906      165.371      183.902   141305.428    27347.517    33819.945       15.411       10.124      320.294      239.307        0.558      330.697       -1.763      849.095
01/25/2021  11:41:00      -46.683      272.965      -24.772      234.144      146.388      120.859    54823.625    21429.406    14606.873        8.406        4.543      276.928      150.305        0.295      330.690       -1.777      849.073
01/25/2021  11:42:00      -60.952      255.481      -45.425      370.218      122.120      178.054   137061.453    14913.215    31703.103       12.732        9.184      262.651      238.853        0.827      330.805       -1.586      849.063
01/25/2021  11:43:00     -103.578      260.146      -27.333      305.438      157.065      150.664    93292.467    24669.523    22699.571       10.988        7.033      280.008      186.702        0.445      330.765       -1.654      849.053
01/25/2021  11:44:00      -65.723      311.444      -35.794      334.639      127.945      150.432   111983.222    16369.940    22629.640       12.676        7.549      318.303      201.459        0.401      330.716       -1.735      849.042
01/25/2021  11:45:00     -182.729      370.270      -48.949      306.535      127.580      146.386    93963.885    16276.681    21428.889       15.225        6.583      412.904      193.386        0.219      330.664       -1.819      849.030
01/25/2021  11:46:00     -105.554      364.969      -44.404      368.852      138.278      185.830   136051.731    19120.821    34532.765       16.797        9.485      379.926      240.610        0.401      330.732       -1.705      849.005
01/25/2021  11:47:00     -112.804      256.154      -49.543      275.675      134.230      133.031    75996.542    18017.655    17697.215        9.623        5.586      279.892      168.263        0.361      330.692       -1.773      848.989
01/25/2021  11:48:00      -73.477      203.295      -20.482      219.889       98.621      111.678    48351.130     9726.064    12471.934        5.883        3.527      216.166      143.157        0.439      330.874       -1.476      848.977
01/25/2021  11:49:00      -65.205      221.433      -24.169      182.056      104.975       92.289    33144.212    11019.713     8517.258        5.326        2.634      230.833      109.189        0.224      330.753       -1.675      848.975
01/25/2021  11:50:00      -79.442      188.483      -22.302      149.924       93.881       65.344    22477.316     8813.642     4269.866        3.894        1.778      204.540       62.284        0.093      330.830       -1.549      848.963
01/25/2021  11:51:00      -42.892      219.690      -55.083      495.406      148.950      230.400   245427.323    22186.140    53084.017       18.685       16.035      223.838      326.574        2.129      331.074       -1.140      848.966
01/25/2021  11:52:00     -182.806      293.097      -42.620      286.669      135.438      139.860    82179.306    18343.326    19560.755       12.059        6.004      345.433      171.295        0.246      330.741       -1.694      848.960
01/25/2021  11:53:00      -30.743      315.641       -9.428      125.097      174.422       75.400    15649.366    30423.163     5685.105        7.620        2.588      317.134       70.578        0.050      330.586       -1.949      848.952
01/25/2021  11:54:00       55.481      322.517      -47.024      412.233      114.387      204.345   169935.830    13084.355    41757.029       16.699       11.239      327.254      280.317        0.734      330.879       -1.462      848.950
01/25/2021  11:55:00      -33.712      217.842      -31.853      343.896      109.703      162.803   118264.608    12034.754    26504.830       10.317        7.840      220.435      212.158        0.926      330.804       -1.587      848.941
01/25/2021  11:56:00       12.922      268.652      -37.436      274.375       88.020      133.097    75281.443     7747.491    17714.894        8.722        5.037      268.963      180.852        0.452      330.744       -1.688      848.933
01/25/2021  11:57:00      -82.383      260.935      -17.951      286.743       92.368      141.059    82221.766     8531.794    19897.698        9.290        5.533      273.631      179.085        0.428      330.767       -1.650      848.927
01/25/2021  11:58:00      -41.180      255.337      -24.263      245.452      124.941      123.073    60246.787    15610.280    15146.916        7.922        4.550      258.637      158.151        0.374      330.807       -1.584      848.919
01/25/2021  11:59:00      -25.676      248.029      -23.958      189.757       91.031       93.303    36007.780     8286.664     8705.426        5.786        2.650      249.355      114.119        0.209      330.822       -1.562      848.915
01/25/2021  12:00:00      -19.533      286.683      -27.195      244.364      118.809      112.911    59713.870    14115.573    12748.915        8.492        4.329      287.348      147.018        0.262      330.782       -1.627      848.908
01/25/2021  12:01:00        8.024      306.565      -19.245      122.713      162.804       60.305    15058.407    26505.064     3636.697        6.980        2.260      306.670       49.852        0.026      330.732       -1.709      848.892
01/25/2021  12:02:00      -77.294      223.682      -40.699      368.450      124.539      178.899   135755.694    15510.068    32004.740       12.043        9.164      236.660      239.336        1.023      330.993       -1.278      848.890
01/25/2021  12:03:00       -3.558      268.502      -50.736      380.262      133.334      173.619   144598.870    17777.919    30143.654       13.356        9.626      268.526      244.218        0.827      330.857       -1.500      848.883
01/25/2021  12:04:00        0.878      260.390       -3.459      260.643      110.530      120.792    67934.625    12216.980    14590.822        8.126        4.737      260.392      154.236        0.351      330.842       -1.526      848.853
01/25/2021  12:05:00     -106.625      207.458      -18.557      243.939      118.563      118.791    59506.136    14057.235    14111.377        7.119        4.384      233.255      145.199        0.387      330.880       -1.465      848.856
01/25/2021  12:06:00      -41.794      319.295      -27.099      267.745      128.758      127.796    71687.407    16578.497    16331.895       10.449        5.230      322.018      152.036        0.223      330.707       -1.749      848.860
01/25/2021  12:07:00       -0.657      344.418      -35.456      376.562      133.690      177.844   141798.960    17872.929    31628.375       15.555        9.565      344.419      244.913        0.506      330.812       -1.574      848.847
01/25/2021  12:08:00      -78.803      325.642      -12.760      257.524      103.528      134.144    66318.529    10718.039    17994.579       10.370        4.752      335.041      162.354        0.235      330.760       -1.662      848.841
01/25/2021  12:09:00      -80.365      321.849      -25.031      212.533      159.507      111.850    45170.288    25442.550    12510.469        9.688        4.156      331.731      129.691        0.153      330.693       -1.773      848.836
01/25/2021  12:10:00      -73.625      304.758      -34.335      250.832      106.295      126.878    62916.814    11298.559    16098.018        9.488        4.516      313.526      168.309        0.288      330.730       -1.711      848.833
01/25/2021  12:11:00      -42.589      241.251      -29.947      318.592      132.841      161.039   101500.587    17646.635    25933.419       10.297        7.254      244.981      208.560        0.725      330.879       -1.464      848.819
01/25/2021  12:12:00      -70.867      280.343      -27.515      328.691      130.291      150.364   108038.092    16975.867    22609.184       11.597        7.381      289.161      202.280        0.489      330.803       -1.591      848.801
01/25/2021  12:13:00      -43.443      315.185      -42.308      358.789       77.112      168.217   128729.281     5946.186    28297.042       13.296        8.149      318.164      231.298        0.528      330.846       -1.520      848.784
01/25/2021  12:14:00       -6.270      273.704      -34.337      435.827      123.715      199.941   189945.024    15305.436    39976.427       16.063       12.261      273.776      282.818        1.067      330.967       -1.320      848.768
01/25/2021  12:15:00       20.495      218.350      -35.479      398.544       88.259      182.906   158837.468     7789.619    33454.444       12.468       10.004      219.310      261.932        1.426      331.031       -1.214      848.759
01/25/2021  12:16:00      -47.598      147.477      -23.872      357.202       92.099      172.964   127592.992     8482.183    29916.389        9.525        8.300      154.968      238.104        2.361      331.129       -1.053      848.759
01/25/2021  12:17:00      -24.266      220.234      -20.893      344.174      128.983      166.679   118455.526    16636.591    27781.867       10.617        8.144      221.567      227.652        1.056      331.028       -1.220      848.747
01/25/2021  12:18:00       12.125      212.023      -19.324      306.149      106.440      151.320    93726.971    11329.380    22897.890        8.669        6.398      212.369      206.556        0.946      331.090       -1.117      848.750
01/25/2021  12:19:00      -83.256      234.428      -21.947      204.701      135.972       96.606    41902.543    18488.494     9332.668        6.603        3.486      248.774      113.318        0.207      330.887       -1.454      848.727
01/25/2021  12:20:00      -14.918      212.572      -46.181      418.542       64.587      195.076   175177.324     4171.431    38054.836       13.243       10.870      213.095      280.572        1.734      331.178       -0.973      848.720
01/25/2021  12:21:00       63.177      263.759      -34.594      368.931      131.264      178.953   136110.325    17230.174    32024.045       13.002        9.268      271.220      245.289        0.818      331.042       -1.196      848.716
01/25/2021  12:22:00       89.095      215.874      -41.586      437.209      139.370      204.639   191151.282    19423.955    41877.138       15.431       12.623      233.537      292.938        1.573      331.149       -1.018      848.703
01/25/2021  12:23:00      -24.577      171.772      -11.063      199.424      105.577      103.168    39769.969    11146.497    10643.580        4.588        3.078      173.521      127.904        0.543      330.976       -1.307      848.701
01/25/2021  12:24:00      -63.321      300.768      -35.143      365.665      101.637      158.510   133711.219    10330.180    25125.503       13.240        8.458      307.361      219.486        0.510      330.904       -1.423      848.693
01/25/2021  12:25:00       30.001      315.525      -30.170      291.798      112.926      144.146    85146.215    12752.172    20777.984       11.000        5.934      316.948      191.101        0.364      330.815       -1.572      848.666
01/25/2021  12:26:00       19.991      270.786       -9.333       76.255      143.797       66.119     5814.795    20677.591     4371.778        5.233        1.543      271.523       66.955        0.061      330.848       -1.518      848.635
01/25/2021  12:27:00      -15.850      200.684      -29.053      338.948       69.975      156.383   114885.710     4896.530    24455.676        9.277        7.212      201.309      218.827        1.182      331.202       -0.934      848.632
01/25/2021  12:28:00      -32.419      362.489      -38.312      235.488      140.992      106.197    55454.691    19878.631    11277.850       11.025        4.331      363.936      127.349        0.122      330.778       -1.635      848.629
01/25/2021  12:29:00      -66.263      360.572      -32.814      205.982      117.732       91.880    42428.486    13860.748     8442.017       10.009        3.237      366.611      110.188        0.090      330.790       -1.615      848.614
01/25/2021  12:30:00      -41.737      222.580      -24.605      197.170      102.840       89.179    38876.120    10576.091     7952.944        5.463        2.870      226.459      103.486        0.209      330.892       -1.448      848.611
01/25/2021  12:31:00      -48.765      227.314      -17.150      105.067      108.689       56.789    11039.132    11813.233     3224.982        4.020        1.304      232.486       42.280        0.033      330.947       -1.356      848.596
01/25/2021  12:32:00       33.886      297.373      -25.735      206.346       89.692      101.515    42578.481     8044.616    10305.227        7.557        3.046      299.297      128.570        0.185      330.912       -1.414      848.606
01/25/2021  12:33:00       19.368      315.672      -25.501      271.186      102.129      131.613    73541.925    10430.358    17322.050       10.096        5.065      316.266      169.272        0.286      330.943       -1.361      848.605
01/25/2021  12:34:00       -5.345      289.655      -33.165      251.901      119.973      128.331    63453.985    14393.562    16468.923        8.965        4.716      289.704      167.112        0.333      330.993       -1.279      848.593
01/25/2021  12:35:00      -53.537      306.904      -34.240      245.096      128.244      126.047    60071.982    16446.588    15887.931        9.530        4.620      311.539      158.650        0.259      330.881       -1.465      848.610
01/25/2021  12:36:00       29.806      359.069      -27.307      200.140      104.605      105.780    40055.940    10942.132    11189.337        9.636        3.109      360.304      128.953        0.128      330.857       -1.504      848.599
01/25/2021  12:37:00      -37.153      334.242      -27.420      223.432      129.604      113.153    49921.941    16797.314    12803.616        9.667        3.976      336.301      136.547        0.165      330.902       -1.430      848.594
01/25/2021  12:38:00        4.047      204.777       -4.053      184.240      108.929       86.843    33944.196    11865.421     7541.693        4.765        2.668      204.817      111.957        0.299      330.897       -1.438      848.596
01/25/2021  12:39:00      -48.446      316.949      -41.893      259.660      145.942      133.474    67423.231    21299.154    17815.358       10.553        5.327      320.631      163.014        0.258      330.816       -1.571      848.603
01/25/2021  12:40:00      -21.726      435.496      -39.276      252.043      113.318      120.205    63525.885    12840.963    14449.150       14.122        4.541      436.038      136.182        0.098      330.743       -1.690      848.596
01/25/2021  12:41:00      -10.598      279.844      -44.237      389.992      103.152      186.431   152093.950    10640.373    34756.530       13.889        9.875      280.045      259.052        0.856      330.975       -1.306      848.594
01/25/2021  12:42:00       -9.483      373.797      -39.752      330.560      125.401      158.686   109270.078    15725.379    25181.191       14.575        7.509      373.917      213.841        0.327      330.851       -1.511      848.597
01/25/2021  12:43:00       50.006      291.210      -34.400      342.774      113.100      166.273   117493.848    12791.709    27646.808       12.318        7.897      295.472      227.314        0.592      330.948       -1.353      848.588
01/25/2021  12:44:00      -60.527      202.946      -12.322      220.160      131.123      104.288    48470.255    17193.223    10875.900        6.075        3.827      211.780      128.968        0.371      330.908       -1.420      848.586
01/25/2021  12:45:00      -18.764      157.670      -11.201      197.292       98.427       99.472    38924.259     9687.852     9894.767        4.191        2.925      158.782      117.293        0.546      330.993       -1.280      848.577
01/25/2021  12:46:00      -15.936      277.537      -32.083      295.628      158.631      144.515    87395.965    25163.825    20884.574       10.585        6.672      277.994      193.168        0.483      331.024       -1.227      848.576
01/25/2021  12:47:00       18.955      362.776      -43.774      339.555      139.177      158.810   115297.636    19370.346    25220.603       14.685        7.994      363.270      217.853        0.360      330.994       -1.277      848.554
01/25/2021  12:48:00       71.008      281.802      -30.395      340.247      142.610      164.887   115768.000    20337.680    27187.810       12.430        8.165      290.611      228.355        0.617      331.011       -1.247      848.561
01/25/2021  12:49:00      -59.561      326.944      -50.990      391.583      147.743      171.736   153336.949    21827.875    29493.282       15.881       10.233      332.325      235.133        0.501      330.915       -1.407      848.564
01/25/2021  12:50:00      -69.454      401.615      -23.420      107.346      120.904       65.222    11523.093    14617.752     4253.859        9.852        1.520      407.576       56.703        0.019      330.710       -1.746      848.554
01/25/2021  12:51:00        4.243      347.697      -19.889      228.009      117.373       97.237    51988.059    13776.364     9455.054        9.825        3.761      347.723      119.785        0.119      330.780       -1.632      848.531
01/25/2021  12:52:00      -90.761      327.247      -20.450      250.217      135.945      127.593    62608.780    18481.078    16279.965       10.654        4.868      339.600      156.852        0.213      330.839       -1.532      848.530
01/25/2021  12:53:00       34.570      391.252      -44.260      343.552      116.817      163.918   118027.657    13646.208    26868.958       15.735        7.927      392.777      221.058        0.317      330.883       -1.458      848.516
01/25/2021  12:54:00       -4.922      253.169      -22.459      238.808      100.048      121.632    57029.039    10009.556    14794.380        7.321        4.092      253.216      151.529        0.358      330.968       -1.321      848.519
01/25/2021  12:55:00        2.431      345.217      -37.413      361.511      155.786      179.694   130690.136    24269.410    32290.009       15.387        9.362      345.225      236.896        0.471      330.959       -1.333      848.519
01/25/2021  12:56:00      -55.924      227.293      -17.125      173.376      120.375       91.110    30059.368    14490.078     8300.983        5.396        2.643      234.071      105.176        0.202      330.901       -1.431      848.503
01/25/2021  12:57:00      -67.207      347.036      -63.789      477.376      154.277      223.811   227887.579    23801.307    50091.571       21.534       15.089      353.484      316.461        0.801      331.135       -1.040      848.485
01/25/2021  12:58:00      -35.806      241.336       -2.684       99.660       78.180       56.249     9932.103     6112.073     3163.956        3.937        0.960      243.978       34.008        0.019      331.007       -1.259      848.471
01/25/2021  12:59:00      -33.944      253.214      -34.269      315.083      105.361      149.077    99277.227    11101.012    22223.887        9.949        6.630      255.479      206.562        0.654      331.110       -1.087      848.462
01/25/2021  13:00:00       12.561      241.391      -28.175      227.272      144.316      105.351    51652.511    20827.017    11098.875        7.138        4.179      241.718      134.230        0.308      330.965       -1.327      848.430
01/25/2021  13:01:00      -25.211      174.182      -19.477      266.920      135.619      123.745    71246.197    18392.606    15312.883        6.813        5.248      175.997      158.133        0.807      331.205       -0.930      848.411
01/25/2021  13:02:00     -116.678      464.921      -46.318      304.714      131.086      142.411    92850.853    17183.579    20280.957       18.108        6.516      479.338      189.823        0.157      330.843       -1.524      848.419
01/25/2021  13:03:00        0.878      386.717      -64.714      434.866      130.240      205.925   189108.859    16962.412    42405.044       20.105       12.424      386.718      283.810        0.539      330.966       -1.320      848.429
01/25/2021  13:04:00      -46.238      253.102      -32.217      343.612      130.421      165.920   118069.232    17009.696    27529.490       11.489        8.130      257.290      222.379        0.747      331.074       -1.144      848.418
01/25/2021  13:05:00       23.804      182.572      -29.330      349.220       89.331      172.300   121954.833     7980.004    29687.125        9.716        7.981      184.117      239.266        1.689      331.205       -0.928      848.420
01/25/2021  13:06:00      -20.461      202.351      -19.740      200.327      186.481      106.270    40130.865    34775.210    11293.341        6.396        4.310      203.383      120.328        0.350      331.168       -0.991      848.429
01/25/2021  13:07:00     -114.845      344.911      -64.827      472.241      138.012      219.926   223011.621    19047.420    48367.524       21.333       14.521      363.529      303.415        0.697      331.087       -1.122      848.438
01/25/2021  13:08:00      -71.376      303.551      -49.818      386.657      107.548      188.055   149503.821    11566.622    35364.610       14.803        9.822      311.829      256.852        0.678      331.062       -1.164      848.445
01/25/2021  13:09:00      -26.567      392.098      -40.559      368.692      128.481      176.833   135933.594    16507.269    31269.787       16.986        9.186      392.997      239.510        0.371      331.046       -1.192      848.443
01/25/2021  13:10:00      -68.568      414.140      -50.533      343.715      153.773      165.656   118140.302    23646.210    27441.932       17.396        8.461      419.778      216.018        0.265      330.936       -1.371      848.463
01/25/2021  13:11:00      -67.509      364.473      -15.370      117.269      165.273       63.255    13752.132    27315.163     4001.171        9.134        2.253      370.672       75.036        0.041      330.814       -1.575      848.487
01/25/2021  13:12:00       49.650      387.333      -60.134      435.461      129.271      197.502   189626.034    16710.946    39006.937       20.067       12.267      390.502      280.137        0.515      331.029       -1.218      848.497
01/25/2021  13:13:00      -41.827      437.385      -27.382      155.082      144.165       90.856    24050.292    20783.548     8254.823       12.344        2.654      439.380       82.747        0.035      330.806       -1.587      848.503
01/25/2021  13:14:00      -61.213      330.357      -43.443      362.567      110.906      173.402   131455.031    12300.242    30068.296       14.426        8.691      335.980      228.504        0.463      330.940       -1.366      848.527
01/25/2021  13:15:00      -16.482      299.979      -29.605      189.689      110.167       94.518    35981.860    12136.729     8933.582        7.408        2.853      300.431      104.163        0.120      330.927       -1.388      848.529
01/25/2021  13:16:00       14.324      338.437      -33.058      312.597      141.624      153.800    97717.064    20057.426    23654.580       12.860        7.071      338.740      196.656        0.337      331.057       -1.174      848.525
01/25/2021  13:17:00       14.027      305.332      -18.122      185.768      130.358       93.761    34509.917    16993.212     8791.161        7.701        3.015      305.654      115.557        0.143      331.014       -1.246      848.535
01/25/2021  13:18:00        1.957      316.679      -29.589      347.083       99.134      160.655   120466.621     9827.635    25810.151       12.860        7.805      316.685      227.054        0.514      331.054       -1.179      848.545
01/25/2021  13:19:00      -31.864      326.946      -25.356      214.121      117.184      103.694    45848.013    13732.108    10752.415        8.943        3.517      328.495      121.013        0.136      330.932       -1.381      848.556
01/25/2021  13:20:00      -49.803      319.417      -27.847      140.624      142.547       63.635    19775.181    20319.764     4049.458        7.470        2.207      323.277       45.512        0.020      330.975       -1.313      848.551
01/25/2021  13:21:00        4.571      286.043      -22.208      285.401      134.903      142.833    81453.578    18198.895    20401.243       10.117        6.003      286.080      185.149        0.419      331.014       -1.245      848.551
01/25/2021  13:22:00      -22.541      263.596      -34.079      277.201       68.180      131.888    76840.212     4648.513    17394.550        8.500        4.944      264.558      182.045        0.473      331.197       -0.944      848.558
01/25/2021  13:23:00       18.665      273.037      -20.028      269.941      135.754      127.929    72867.881    18429.152    16365.895        9.146        5.383      273.674      174.593        0.407      331.180       -0.973      848.552
01/25/2021  13:24:00      -15.729      156.874      -17.094      263.763      133.571      125.599    69570.900    17841.176    15775.042        6.415        5.159      157.661      165.279        1.099      331.270       -0.823      848.554
01/25/2021  13:25:00       27.746      198.276      -33.456      321.245       85.872      157.459   103198.177     7374.048    24793.461        8.825        6.768      200.207      212.909        1.131      331.248       -0.859      848.565
01/25/2021  13:26:00       44.788      352.713      -39.659      390.604      154.050      185.326   152571.251    23731.463    34345.680       16.927       10.532      355.546      250.672        0.497      331.146       -1.025      848.580
01/25/2021  13:27:00       12.549      287.296      -20.717      315.929      128.923      148.656    99811.436    16621.034    22098.673       11.080        6.927      287.570      204.543        0.506      331.007       -1.255      848.577
01/25/2021  13:28:00       25.766      315.362      -22.354      178.121       88.165       94.014    31726.958     7772.997     8838.553        7.447        2.417      316.413      116.886        0.136      330.863       -1.495      848.572
01/25/2021  13:29:00       82.620      287.854      -43.697      369.629      129.078      177.071   136625.655    16661.032    31354.095       13.808        9.232      299.476      249.393        0.693      331.121       -1.066      848.591
01/25/2021  13:30:00       79.286      334.507      -46.879      310.659      164.080      147.660    96509.199    26922.332    21803.548       13.278        7.262      343.775      200.093        0.339      330.959       -1.334      848.601
01/25/2021  13:31:00      115.040      450.649      -50.971      327.752      155.679      163.972   107421.573    24236.009    26886.701       18.870        7.927      465.100      210.456        0.205      330.722       -1.723      848.612
01/25/2021  13:32:00       97.371      308.426      -44.494      429.146      135.284      204.011   184166.194    18301.894    41620.364       17.529       12.204      323.431      279.594        0.747      330.895       -1.437      848.622
01/25/2021  13:33:00      100.768      333.510      -56.625      379.582      150.589      180.916   144082.457    22677.160    32730.750       16.200        9.975      348.401      252.149        0.524      330.846       -1.518      848.631
01/25/2021  13:34:00       35.425      252.913      -39.289      402.778      134.440      196.590   162230.212    18074.021    38647.478       14.281       10.948      255.382      271.415        1.130      331.011       -1.247      848.642
01/25/2021  13:35:00      -33.792      322.060      -25.034      107.706       99.973       50.360    11600.600     9994.697     2536.106        6.481        1.207      323.828       45.324        0.020      330.670       -1.812      848.641
01/25/2021  13:36:00       55.916      208.655      -37.625      446.004       97.592      215.101   198919.376     9524.197    46268.579       15.134       12.736      216.017      301.114        1.943      331.040       -1.197      848.644
01/25/2021  13:37:00       45.196      393.183      -70.464      450.539      132.169      215.582   202985.279    17468.622    46475.553       21.421       13.346      395.772      298.806        0.570      330.833       -1.538      848.634
01/25/2021  13:38:00       -5.261      238.694      -22.592      279.529       97.504      133.080    78136.405     9507.109    17710.347        8.141        5.268      238.752      182.054        0.581      330.958       -1.335      848.635
01/25/2021  13:39:00      119.650      299.059      -51.668      450.718      157.833      218.318   203146.513    24911.268    47662.565       19.101       13.786      322.106      305.872        0.902      330.947       -1.350      848.629
01/25/2021  13:40:00      103.002      373.890      -33.216      101.367      121.666       72.427    10275.309    14802.598     5245.638        9.091        1.516      387.818       73.129        0.036      330.588       -1.947      848.611
01/25/2021  13:41:00       67.456      305.640      -29.637      316.304      105.616      152.602   100048.218    11154.743    23287.301       11.664        6.725      312.996      207.931        0.441      330.813       -1.574      848.618
01/25/2021  13:42:00       97.046      324.890      -36.276      275.610      111.989      137.912    75960.754    12541.555    19019.784       11.188        5.376      339.075      186.246        0.302      330.727       -1.714      848.626
01/25/2021  13:43:00       13.899      312.264      -31.963      218.448       95.107      106.739    47719.496     9045.292    11393.234        8.343        3.408      312.574      134.204        0.184      330.716       -1.734      848.641
01/25/2021  13:44:00       87.655      292.746      -38.937      267.403      134.169      128.639    71504.375    18001.439    16548.043       10.045        5.303      305.587      168.459        0.304      330.900       -1.433      848.652
01/25/2021  13:45:00      108.475      310.947      -28.795      288.662      158.356      122.986    83325.634    25076.766    15125.657       11.638        6.176      329.324      160.188        0.237      330.792       -1.609      848.628
01/25/2021  13:46:00       94.374      358.149      -38.619      321.674      107.893      148.224   103474.158    11640.979    21970.236       13.785        6.854      370.374      201.473        0.296      330.747       -1.683      848.630
01/25/2021  13:47:00       96.927      337.664      -34.816      297.431      186.614      148.302    88464.911    34824.779    21993.615       13.492        7.264      351.300      196.748        0.314      330.695       -1.767      848.618
01/25/2021  13:48:00       87.997      286.541      -26.385      225.192      141.084      116.530    50711.553    19904.751    13579.270        8.735        4.210      299.748      149.582        0.249      330.845       -1.523      848.615
01/25/2021  13:49:00       60.902      277.206      -29.124      283.095       84.756      129.715    80142.855     7183.505    16826.029        9.275        5.208      283.817      183.184        0.417      330.956       -1.340      848.618
01/25/2021  13:50:00       48.240      375.744      -42.965      406.820       83.455      187.892   165502.120     6964.804    35303.492       17.652       10.389      378.828      267.649        0.499      330.962       -1.328      848.638
01/25/2021  13:51:00        3.743      339.763      -22.779      114.332      149.011       66.079    13071.757    22204.221     4366.423        7.780        1.982      339.784       68.734        0.041      330.677       -1.800      848.647
01/25/2021  13:52:00       73.714      299.860      -11.685      285.542      129.833      140.996    81534.216    16856.590    19879.894       10.685        5.914      308.787      183.501        0.353      330.877       -1.469      848.630
01/25/2021  13:53:00      120.437      402.120      -65.523      465.574       96.502      217.267   216759.112     9312.675    47205.060       22.683       13.664      419.769      307.334        0.536      330.943       -1.359      848.632
01/25/2021  13:54:00       90.358      342.916      -30.254       84.356       90.529       63.042     7115.867     8195.431     3974.291        7.297        0.964      354.620       56.685        0.026      330.734       -1.708      848.641
01/25/2021  13:55:00      137.729      291.752      -34.615      376.752      132.656      192.482   141942.425    17597.706    37049.138       15.090        9.829      322.627      261.588        0.657      331.038       -1.203      848.634
01/25/2021  13:56:00      182.324      437.424      -61.751      484.982      127.629      232.390   235207.913    16289.229    54005.122       26.688       15.275      473.900      327.644        0.478      331.012       -1.243      848.653
01/25/2021  13:57:00      119.951      388.497      -58.660      435.643      169.070      206.131   189784.890    28584.661    42489.806       21.475       13.043      406.593      284.631        0.490      330.898       -1.431      848.669
01/25/2021  13:58:00      150.481      229.895      -51.472      492.117      151.584      236.613   242178.925    22977.710    55985.729       19.957       16.057      274.765      333.564        1.474      331.052       -1.176      848.683
01/25/2021  13:59:00      112.900      305.492      -38.282      426.641      119.896      207.651   182022.953    14375.134    43118.942       17.348       11.976      325.686      288.161        0.783      331.036       -1.205      848.672
01/25/2021  14:00:00      161.168      402.097      -61.327      470.316      123.498      222.182   221196.767    15251.648    49364.717       23.855       14.291      433.194      316.832        0.535      330.926       -1.384      848.687
01/25/2021  14:01:00       95.487      328.867      -41.114      433.209      116.314      210.658   187670.253    13529.042    44376.999       18.222       12.279      342.449      293.090        0.733      330.825       -1.551      848.699
01/25/2021  14:02:00        2.702      306.084      -28.600      439.242      144.742      213.216   192933.600    20950.348    45460.959       17.687       12.967      306.096      293.296        0.918      330.845       -1.518      848.713
01/25/2021  14:03:00       24.237      404.094      -36.270      290.225      174.516      147.271    84230.534    30455.682    21688.785       15.076        6.819      404.821      189.076        0.218      330.636       -1.865      848.714
01/25/2021  14:04:00       84.610      400.138      -59.010      404.640      158.109      188.751   163733.740    24998.401    35626.993       19.751       11.218      408.986      257.711        0.397      330.791       -1.609      848.693
01/25/2021  14:05:00      -44.274      450.568      -27.617      305.908      143.601      149.733    93579.569    20621.281    22419.892       17.115        6.831      452.738      184.952        0.167      330.620       -1.890      848.708
01/25/2021  14:06:00        8.520      442.305      -42.272      293.323      126.818      130.441    86038.429    16082.905    17014.968       15.829        5.957      442.388      177.761        0.161      330.631       -1.873      848.727
01/25/2021  14:07:00      156.708      486.002      -51.172      220.398      160.705      113.290    48575.256    25825.956    12834.514       17.529        4.362      510.642      142.026        0.077      330.537       -2.030      848.725
01/25/2021  14:08:00      181.399      454.413      -71.684      429.359      134.073      210.922   184349.124    17975.456    44488.281       24.562       12.341      489.282      294.521        0.362      330.820       -1.561      848.721
01/25/2021  14:09:00       36.925      296.924      -44.988      342.552      139.254      164.393   117341.611    19391.739    27024.975       12.762        8.188      299.212      227.218        0.577      330.949       -1.350      848.739
01/25/2021  14:10:00       -6.826      355.083      -46.162      372.098      118.793      178.020   138456.609    14111.806    31691.263       15.622        9.213      355.148      246.807        0.483      330.754       -1.670      848.748
01/25/2021  14:11:00      186.952      383.532      -67.814      490.101      142.345      229.973   240198.808    20261.982    52887.360       24.993       15.667      426.670      329.159        0.595      330.925       -1.384      848.735
01/25/2021  14:12:00      126.849      364.621      -47.584      330.908      121.969      161.510   109500.345    14876.427    26085.629       15.085        7.523      386.056      221.565        0.329      330.846       -1.520      848.732
01/25/2021  14:13:00       41.965      377.131      -38.839      416.452      157.966      199.359   173432.352    24953.399    39744.077       19.176       11.906      379.459      273.824        0.521      330.881       -1.461      848.761
01/25/2021  14:14:00       -9.754      371.478      -25.149      221.117      134.327      105.621    48892.706    18043.756    11155.739       10.839        3.905      371.606      127.628        0.118      330.638       -1.863      848.779
01/25/2021  14:15:00       68.391      343.607      -35.092      255.377      121.982      127.647    65217.501    14879.730    16293.722       11.016        4.820      350.347      165.621        0.223      330.690       -1.777      848.770
01/25/2021  14:16:00        4.679      327.020      -50.168      487.266      163.443      227.846   237428.290    26713.684    51913.848       21.270       15.803      327.054      322.351        0.971      331.029       -1.215      848.766
01/25/2021  14:17:00       69.063      482.708      -66.937      439.009      140.072      202.239   192729.028    19620.032    40900.435       24.770       12.662      487.624      283.452        0.338      330.827       -1.548      848.784
01/25/2021  14:18:00      -73.533      306.548      -49.843      391.995      106.189      184.595   153659.740    11276.071    34075.242       15.039        9.951      315.244      248.670        0.622      330.858       -1.498      848.776
01/25/2021  14:19:00       -5.371      275.425      -38.237      342.273       87.458      167.847   117151.077     7648.979    28172.661       11.513        7.649      275.477      228.412        0.687      330.855       -1.504      848.782
01/25/2021  14:20:00      107.800      328.079      -42.224      301.445      161.018      144.058    90869.035    25926.691    20752.845       12.926        6.877      345.335      198.639        0.331      330.869       -1.482      848.795
01/25/2021  14:21:00       23.423      307.244      -38.290      317.851       93.773      151.146   101029.358     8793.290    22845.020       11.451        6.633      308.136      208.374        0.457      330.788       -1.616      848.781
01/25/2021  14:22:00      -17.522      252.264      -23.585      346.867       95.655      160.777   120316.428     9149.871    25849.147       10.987        7.766      252.871      228.329        0.815      331.014       -1.244      848.785
01/25/2021  14:23:00      139.393      419.524      -48.424      310.118      134.871      160.690    96173.401    18190.166    25821.371       16.895        7.009      442.075      208.636        0.223      330.809       -1.580      848.789
01/25/2021  14:24:00       68.288      374.287      -54.767      332.845      113.188      162.255   110785.641    12811.454    26326.548       14.881        7.496      380.465      209.259        0.303      330.824       -1.556      848.790
01/25/2021  14:25:00      105.975      341.332      -58.580      463.464      127.041      210.105   214799.250    16139.374    44143.986       20.307       13.754      357.405      301.879        0.713      330.927       -1.382      848.793
01/25/2021  14:26:00      174.507      377.766      -86.891      544.124      137.548      264.011   296071.007    18919.387    69701.711       28.262       19.235      416.125      368.185        0.783      331.061       -1.160      848.778
01/25/2021  14:27:00      113.180      405.693      -69.843      470.941      144.206      220.021   221785.119    20795.397    48409.394       23.657       14.549      421.185      309.192        0.539      331.000       -1.262      848.767
01/25/2021  14:28:00      155.329      399.339      -48.360      380.514      130.863      184.703   144790.553    17125.072    34115.142       19.094        9.802      428.484      255.598        0.356      330.898       -1.434      848.765
01/25/2021  14:29:00       70.681      338.470      -20.408       91.403      107.971       69.131     8354.544    11657.823     4779.066        7.238        1.240      345.771       65.279        0.036      330.758       -1.668      848.778
01/25/2021  14:30:00      -48.078      321.558      -41.764      301.925       98.638      142.375    91158.796     9729.377    20270.606       11.428        6.058      325.133      188.846        0.337      330.860       -1.498      848.776
01/25/2021  14:31:00       65.872      239.681      -38.982      400.387       85.650      191.315   160309.458     7335.950    36601.485       13.373       10.212      248.568      266.763        1.152      331.104       -1.094      848.779
01/25/2021  14:32:00       29.748      238.618      -29.459      381.948       98.053      184.740   145883.974     9614.324    34128.868       12.412        9.481      240.466      257.165        1.144      331.110       -1.085      848.783
01/25/2021  14:33:00       55.619      364.882      -61.210      474.403      122.482      227.465   225058.391    15001.935    51740.140       21.583       14.590      369.097      318.189        0.743      331.029       -1.216      848.783
01/25/2021  14:34:00       43.332      216.060      -44.309      473.714       96.048      222.774   224404.535     9225.240    49628.223       16.683       14.163      220.363      317.741        2.079      331.212       -0.913      848.782
01/25/2021  14:35:00      -15.500      384.060      -37.006      344.754      112.717      158.501   118855.395    12705.055    25122.410       15.286        7.834      384.373      219.017        0.325      330.897       -1.436      848.803
01/25/2021  14:36:00       15.248      339.768      -33.755      269.480      171.547      130.907    72619.520    29428.486    17136.727       11.797        5.959      340.110      169.111        0.247      330.817       -1.566      848.820
01/25/2021  14:37:00      100.312      356.787      -68.316      501.740      128.304      240.941   251743.497    16462.000    58052.420       23.407       16.313      370.620      337.843        0.831      331.036       -1.201      848.832
01/25/2021  14:38:00      -20.564      394.285      -22.658      308.233      144.307      151.427    95007.877    20824.461    22930.017       14.755        6.938      394.821      192.031        0.237      330.711       -1.741      848.859
01/25/2021  14:39:00      113.274      354.405      -31.650      354.907      140.776      169.762   125959.039    19817.849    28819.289       15.698        8.730      372.067      231.797        0.388      330.818       -1.565      848.837
01/25/2021  14:40:00       89.025      258.777      -20.057      115.038      124.515       70.178    13233.672    15503.893     4924.934        5.447        1.683      273.662       59.625        0.047      330.802       -1.595      848.808
01/25/2021  14:41:00       52.195      428.667      -53.181      360.573      151.121      170.787   130013.115    22837.522    29168.174       18.562        9.101      431.833      228.756        0.281      330.885       -1.455      848.823
01/25/2021  14:42:00       10.432      369.254      -40.888      366.322      124.294      178.669   134192.141    15448.911    31922.448       15.981        9.078      369.401      241.353        0.427      330.934       -1.375      848.828
01/25/2021  14:43:00      173.666      402.313      -67.543      441.656      147.708      206.756   195059.910    21817.735    42748.229       22.805       12.981      438.196      293.077        0.447      330.918       -1.397      848.827
01/25/2021  14:44:00      155.831      394.479      -61.513      493.731      126.326      230.838   243770.262    15958.252    53286.339       24.828       15.651      424.143      328.995        0.602      331.031       -1.212      848.822
01/25/2021  14:45:00       63.582      415.200      -31.777      354.339      175.445      173.803   125556.318    30781.060    30207.545       18.195        9.327      420.040      233.350        0.309      330.854       -1.506      848.818
01/25/2021  14:46:00      100.741      307.979      -42.698      311.268      145.567      163.730    96888.041    21189.731    26807.603       12.582        7.244      324.037      212.834        0.431      330.946       -1.355      848.818
01/25/2021  14:47:00       95.009      294.788      -28.021      270.116      106.035      130.020    72962.621    11243.492    16905.182        9.889        5.056      309.721      179.463        0.336      331.005       -1.260      848.813
01/25/2021  14:48:00       56.782      348.592      -30.490      266.305      136.266      131.935    70918.461    18568.497    17406.890       11.626        5.345      353.186      174.782        0.245      331.021       -1.234      848.808
01/25/2021  14:49:00      -15.978      244.208      -38.435      381.809      181.092      182.421   145777.819    32794.473    33277.431       13.656       10.592      244.731      250.398        1.047      331.123       -1.063      848.813
01/25/2021  14:50:00        1.689      494.990      -52.505      414.052      151.670      195.632   171439.416    23003.786    38271.837       24.019       11.636      494.992      264.346        0.285      330.813       -1.572      848.812
01/25/2021  14:51:00       27.250      396.030      -37.311      311.182      121.242      165.417    96833.931    14699.589    27362.804       14.891        6.945      396.967      209.517        0.279      330.841       -1.527      848.830
01/25/2021  14:52:00     -109.003      262.337      -13.088       98.138      103.253       52.013     9631.056    10661.098     2705.329        5.193        1.150      284.082       32.671        0.013      330.794       -1.608      848.840
01/25/2021  14:53:00       92.047      199.076      -26.483      384.620       96.555      179.762   147932.679     9322.882    32314.475       11.915        9.479      219.326      246.837        1.267      331.098       -1.103      848.822
01/25/2021  14:54:00       95.241      287.459      -20.468      205.150      124.776      111.061    42086.584    15569.175    12334.488        8.104        3.500      302.826      134.111        0.196      330.894       -1.443      848.807
01/25/2021  14:55:00      114.347      406.474      -48.140      333.607      137.575      170.762   111293.401    18926.766    29159.823       16.996        7.969      422.252      223.245        0.280      330.917       -1.402      848.803
01/25/2021  14:56:00      142.469      381.387      -46.404      343.961      170.909      160.705   118309.420    29210.039    25826.080       17.059        8.667      407.129      224.025        0.303      330.912       -1.411      848.775
01/25/2021  14:57:00      184.446      332.307      -54.577      468.294      123.353      224.579   219299.709    15215.921    50435.688       21.613       14.248      380.064      317.104        0.696      331.143       -1.027      848.755
01/25/2021  14:58:00      -24.179      337.035      -43.215      342.178      163.156      165.117   117086.080    26619.971    27263.502       14.347        8.548      337.901      223.269        0.437      331.025       -1.225      848.767
01/25/2021  14:59:00      -37.395      484.438      -71.513      464.731      196.584      225.561   215975.348    38645.191    50877.771       27.328       15.275      485.879      300.784        0.383      331.011       -1.245      848.805
01/25/2021  15:00:00       84.438      455.858      -63.132      322.158      157.059      149.372   103785.975    24667.417    22312.081       18.481        7.538      463.612      199.541        0.185      330.711       -1.743      848.834
01/25/2021  15:01:00        8.179      372.136      -39.498      279.475      117.918      136.316    78106.547    13904.657    18582.001       12.533        5.530      372.226      174.796        0.221      330.774       -1.639      848.841
01/25/2021  15:02:00      -46.996      392.308      -44.093      313.322      125.474      148.034    98170.820    15743.660    21914.030       14.691        6.791      395.113      206.792        0.274      330.762       -1.657      848.850
01/25/2021  15:03:00       26.171      248.524      -39.229      339.207       84.968      168.852   115061.346     7219.566    28510.841       10.736        7.540      249.898      228.745        0.838      330.889       -1.448      848.829
01/25/2021  15:04:00      -15.447      205.445      -38.039      358.733       88.065      161.150   128689.072     7755.403    25969.181       10.312        8.121      206.025      229.128        1.237      330.993       -1.277      848.831
01/25/2021  15:05:00       58.111      203.008      -19.473      368.015      131.646      172.627   135434.910    17330.672    29800.107       11.373        9.128      211.161      240.681        1.299      331.128       -1.053      848.820
01/25/2021  15:06:00       43.908      393.462      -37.868      274.742      193.673      129.535    75483.111    37509.146    16779.370       14.394        6.489      395.904      169.305        0.183      330.931       -1.380      848.842
01/25/2021  15:07:00       11.857      370.142      -38.579      374.699      115.278      183.781   140399.423    13289.117    33775.463       16.301        9.373      370.332      246.518        0.443      330.869       -1.482      848.871
01/25/2021  15:08:00      -24.729      277.529      -40.982      193.745      108.483       97.694    37537.244    11768.559     9544.035        6.907        2.942      278.629      108.614        0.152      330.869       -1.484      848.879
01/25/2021  15:09:00       61.642      260.096      -64.599      602.071       90.958      291.192   362489.473     8273.278    84792.545       26.549       22.778      267.301      408.345        2.334      331.236       -0.871      848.870
01/25/2021  15:10:00      161.441      221.746      -50.697      515.259      131.070      243.780   265491.633    17179.313    59428.445       20.988       17.105      274.289      344.067        1.574      331.265       -0.825      848.855
01/25/2021  15:11:00      118.990      387.912      -62.348      347.784      126.373      166.574   120953.841    15970.115    27747.057       16.656        8.234      405.751      229.748        0.321      330.931       -1.378      848.855
01/25/2021  15:12:00       95.293      255.491      -33.361      310.439       80.877      144.143    96372.389     6541.170    20777.062        9.955        6.185      272.684      197.495        0.525      331.027       -1.224      848.864
01/25/2021  15:13:00      202.511      294.543      -49.173      488.947      147.966      236.937   239068.981    21893.887    56139.219       22.357       15.855      357.444      330.796        0.856      331.117       -1.069      848.855
01/25/2021  15:14:00      118.109      336.577      -21.822      215.745      154.544      112.727    46545.874    23883.780    12707.478       10.541        4.157      356.698      126.625        0.126      330.724       -1.721      848.837
01/25/2021  15:15:00      146.618      521.800      -76.674      473.073      115.997      228.996   223797.841    13455.396    52439.163       29.461       14.485      542.007      319.946        0.348      330.935       -1.369      848.831
01/25/2021  15:16:00      133.054      435.017      -58.559      425.235      108.571      200.295   180824.750    11787.641    40118.028       22.150       11.637      454.910      279.505        0.378      330.886       -1.451      848.822
01/25/2021  15:17:00       54.773      499.340      -53.491      420.340      136.764      187.263   176685.937    18704.271    35067.512       24.278       11.523      502.335      265.779        0.280      330.866       -1.484      848.848
01/25/2021  15:18:00      137.766      412.718      -61.661      403.445      204.378      194.653   162767.499    41770.374    37889.937       21.772       12.121      435.104      271.514        0.389      330.899       -1.430      848.871
01/25/2021  15:19:00      159.270      343.951      -78.302      535.235       96.797      254.595   286476.562     9369.638    64818.831       25.515       18.033      379.038      362.622        0.915      331.105       -1.088      848.875
01/25/2021  15:20:00      131.333      199.988      -41.266      495.397      116.256      239.301   245417.820    13515.431    57265.079       18.751       15.810      239.257      338.052        1.996      331.237       -0.871      848.877
01/25/2021  15:21:00       84.790      390.172      -54.618      382.468      126.505      189.872   146281.579    16003.445    36051.531       18.033        9.917      399.278      256.447        0.413      330.888       -1.449      848.884
01/25/2021  15:22:00       44.699      206.975       -2.050      331.879      122.924      154.009   110143.641    15110.296    23718.738        9.687        7.449      211.746      211.205        0.995      330.906       -1.420      848.879
01/25/2021  15:23:00      186.452      472.958      -64.438      363.262      156.554      173.968   131959.191    24509.210    30264.780       22.463        9.337      508.383      240.280        0.223      330.704       -1.751      848.881
01/25/2021  15:24:00      144.002      476.839      -60.887      206.200      137.060      107.741    42518.596    18785.362    11608.138       16.235        3.646      498.109      130.369        0.069      330.592       -1.938      848.872
01/25/2021  15:25:00      160.245      276.465      -47.732      385.465      108.826      187.529   148583.127    11843.107    35167.293       14.995        9.780      319.549      262.044        0.672      330.949       -1.349      848.872
01/25/2021  15:26:00      126.889      216.390      -37.459      347.122      146.429      165.850   120493.679    21441.346    27506.159       11.685        8.472      250.849      229.151        0.834      330.840       -1.528      848.869
01/25/2021  15:27:00      126.881      461.310      -51.564      364.462      131.791      177.107   132832.188    17368.972    31366.746       20.653        9.078      478.440      239.735        0.251      330.723       -1.721      848.869
01/25/2021  15:28:00      158.520      413.147      -60.003      460.964      196.594      217.373   212487.950    38649.027    47251.228       24.884       14.919      442.514      306.524        0.480      330.812       -1.572      848.875
01/25/2021  15:29:00       74.752      353.927      -25.063      100.905      127.668       70.982    10181.747    16299.097     5038.456        8.149        1.576      361.735       69.811        0.037      330.588       -1.947      848.886
01/25/2021  15:30:00      165.988      253.206      -44.493      456.373      142.777      219.909   208276.762    20385.303    48359.771       18.527       13.851      302.763      309.094        1.042      330.925       -1.387      848.893
01/25/2021  15:31:00      176.647      405.176      -58.145      346.900      219.610      184.470   120339.413    48228.589    34029.065       20.063       10.130      442.009      204.169        0.213      330.733       -1.704      848.886
01/25/2021  15:32:00      153.450      479.430      -61.798      423.853      131.231      197.345   179651.597    17221.539    38944.878       24.647       11.791      503.389      280.221        0.310      330.759       -1.660      848.892
01/25/2021  15:33:00      122.831      353.855      -27.908      185.278      122.516      100.431    34328.020    15010.248    10086.430       10.024        2.971      374.568      118.333        0.100      330.667       -1.816      848.901
01/25/2021  15:34:00       52.558      320.066      -24.956      273.412      163.712      140.330    74753.903    26801.774    19692.587       11.351        6.062      324.353      178.359        0.302      330.761       -1.660      848.906
01/25/2021  15:35:00      109.831      410.818      -46.601      279.644      141.908      141.920    78200.498    20137.915    20141.280       15.072        5.924      425.246      187.822        0.195      330.637       -1.863      848.923
01/25/2021  15:36:00      169.599      433.866      -61.108      315.461      100.622      153.658    99515.443    10124.741    23610.740       17.697        6.663      465.836      212.853        0.209      330.693       -1.771      848.929
01/25/2021  15:37:00       69.443      225.159      -24.450      391.535      113.001      197.249   153299.906    12769.333    38907.249       13.050       10.249      235.625      265.751        1.272      330.858       -1.498      848.937
01/25/2021  15:38:00      136.808      276.482      -61.395      451.095       84.751      217.792   203486.954     7182.756    47433.434       17.846       12.905      308.478      307.419        0.993      330.991       -1.276      848.942
01/25/2021  15:39:00      146.960      382.920      -66.302      371.387      139.727      176.622   137928.499    19523.660    31195.293       18.059        9.432      410.152      247.458        0.364      330.793       -1.606      848.953
01/25/2021  15:40:00       98.341      220.171      -22.442      369.706      141.939      173.739   136682.786    20146.647    30185.299       12.279        9.351      241.135      243.942        1.023      330.888       -1.450      848.966
01/25/2021  15:41:00      168.416      350.117      -76.820      597.996      144.040      278.937   357599.152    20747.634    77805.863       30.640       22.808      388.517      400.039        1.060      331.038       -1.196      848.961
01/25/2021  15:42:00      171.329      399.507      -55.254      340.925      171.957      169.740   116229.972    29569.338    28811.529       18.327        8.731      434.694      233.458        0.288      330.708       -1.745      848.946
01/25/2021  15:43:00      131.064      320.915      -54.734      459.610      109.110      221.538   211241.314    11905.051    49079.022       19.763       13.611      346.647      308.536        0.792      330.936       -1.368      848.955
01/25/2021  15:44:00      147.448      279.257      -62.633      565.074       87.579      268.367   319308.111     7670.109    72021.001       25.124       19.950      315.793      384.320        1.481      331.078       -1.132      848.983
01/25/2021  15:45:00      106.611      289.053      -56.320      401.046       99.825      201.562   160838.248     9964.934    40627.351       15.471       10.572      308.087      276.065        0.803      330.848       -1.515      848.992
01/25/2021  15:46:00       97.069      260.229      -44.915      397.846       90.937      187.441   158281.189     8269.544    35134.243       14.038       10.084      277.744      268.321        0.933      330.886       -1.452      848.972
01/25/2021  15:47:00      133.472      243.743      -56.411      536.569      105.332      255.261   287906.194    11094.871    65157.958       22.220       18.208      277.894      363.258        1.709      331.139       -1.032      848.986
01/25/2021  15:48:00       52.985      338.814      -41.746      415.176      124.786      207.236   172370.998    15571.501    42946.859       17.507       11.544      342.932      282.993        0.681      330.928       -1.384      848.985
01/25/2021  15:49:00       60.830      396.307      -49.759      370.869      124.298      166.493   137543.640    15450.010    27719.998       17.193        9.036      400.948      233.573        0.339      330.826       -1.552      848.989
01/25/2021  15:50:00      121.925      409.661      -60.860      458.847      139.233      221.062   210540.635    19385.760    48868.375       23.253       13.940      427.421      307.434        0.517      330.976       -1.303      848.994
01/25/2021  15:51:00      -30.675      439.283      -55.020      431.922      143.177      193.288   186556.426    20499.636    37360.163       22.062       12.221      440.352      275.805        0.392      330.868       -1.481      849.014
01/25/2021  15:52:00      179.944      364.381      -81.482      546.647       92.862      257.010   298822.790     8623.260    66054.084       27.257       18.675      406.391      370.453        0.831      331.067       -1.150      849.034
01/25/2021  15:53:00      109.490      241.594      -48.110      418.768       78.875      198.061   175366.997     6221.325    39228.214       14.670       11.041      265.246      283.916        1.146      331.013       -1.243      849.035
01/25/2021  15:54:00       90.863      279.111      -44.007      380.172      112.823      192.219   144530.905    12729.073    36948.191       14.111        9.710      293.528      262.301        0.799      330.983       -1.292      849.029
01/25/2021  15:55:00      141.991      308.621      -53.031      414.097      150.546      197.552   171476.201    22664.003    39026.988       17.564       11.658      339.718      274.663        0.654      330.954       -1.339      849.025
01/25/2021  15:56:00      101.068      401.611      -65.303      483.404      147.066      233.508   233679.875    21628.438    54526.120       24.273       15.492      414.133      326.586        0.622      330.923       -1.389      849.027
01/25/2021  15:57:00      298.831      265.551      -91.978      593.664      106.319      286.651   352437.077    11303.811    82169.019       30.700       22.295      399.771      404.810        1.025      331.088       -1.113      849.013
01/25/2021  15:58:00       75.901      321.942      -31.727      368.577      193.739      171.327   135849.121    37534.608    29352.975       15.653       10.137      330.768      234.759        0.504      330.830       -1.545      849.012
01/25/2021  15:59:00      106.790      349.111      -63.926      532.242      115.735      249.598   283281.213    13394.480    62299.117       24.809       17.949      365.079      355.639        0.949      331.030       -1.213      849.017
01/25/2021  16:00:00       90.967      428.913      -44.968      456.234      152.365      222.581   208149.070    23215.088    49542.171       23.752       14.045      438.454      305.353        0.485      330.912       -1.408      849.030
01/25/2021  16:01:00      -28.742      442.046      -46.540      403.278      140.299      182.666   162632.915    19683.838    33366.976       20.699       10.784      442.979      253.356        0.327      330.789       -1.612      849.053
01/25/2021  16:02:00      151.646      359.647      -89.116      624.444      131.870      292.035   389930.900    17389.606    85284.270       32.634       24.630      390.311      420.888        1.163      331.125       -1.052      849.066
01/25/2021  16:03:00       64.534      355.382      -51.381      451.714       90.369      206.220   204045.385     8166.529    42526.706       19.387       12.737      361.194      299.192        0.686      330.855       -1.502      849.076
01/25/2021  16:04:00       89.390      266.831      -56.188      479.203      100.231      229.925   229635.694    10046.211    52865.279       18.738       14.627      281.406      325.769        1.340      330.998       -1.267      849.088
01/25/2021  16:05:00      149.268      255.110      -50.975      470.956      131.454      227.856   221799.318    17280.260    51918.378       19.042       14.550      295.571      316.632        1.148      330.974       -1.304      849.084
01/25/2021  16:06:00       94.338      391.784      -59.277      459.856       95.915      217.608   211467.958     9199.721    47353.079       21.691       13.401      402.982      309.944        0.592      330.900       -1.428      849.081
01/25/2021  16:07:00      214.728      249.205      -68.088      512.936      126.587      245.585   263103.678    16024.157    60311.852       22.607       16.972      328.954      349.372        1.128      331.006       -1.252      849.081
01/25/2021  16:08:00      124.198      265.738      -31.087      346.239      112.628      162.920   119881.100    12685.160    26542.939       12.302        7.955      293.329      225.564        0.591      330.813       -1.574      849.079
01/25/2021  16:09:00      213.269      344.071      -83.628      537.311      101.953      257.735   288703.417    10394.338    66427.399       26.812       18.276      404.807      366.769        0.821      330.999       -1.263      849.093
01/25/2021  16:10:00      192.255      339.876      -68.072      526.810      185.718      250.614   277528.662    34491.080    62807.336       26.589       18.741      390.484      344.600        0.779      330.992       -1.274      849.096
01/25/2021  16:11:00      233.417      280.645      -86.376      560.501      116.364      256.365   314161.807    13540.624    65722.996       26.698       19.671      365.028      371.797        1.037      331.054       -1.171      849.094
01/25/2021  16:12:00      244.186      258.857      -55.711      484.243       93.509      236.300   234490.835     8743.843    55837.917       21.434       14.954      355.857      326.345        0.841      330.926       -1.383      849.092
01/25/2021  16:13:00      253.724      268.146      -74.051      508.883      112.451      239.880   258961.784    12645.285    57542.243       23.538       16.457      369.159      339.968        0.848      330.977       -1.299      849.102
01/25/2021  16:14:00      128.834      328.939      -39.826      392.553      136.729      190.629   154097.941    18694.907    36339.468       16.771       10.457      353.269      265.805        0.566      330.752       -1.672      849.113
01/25/2021  16:15:00      202.254      201.102      -62.293      587.477       91.272      275.845   345129.749     8330.547    76090.236       25.730       21.478      285.217      398.609        1.953      331.061       -1.159      849.113
01/25/2021  16:16:00      269.921      176.319      -86.713      601.990       81.865      280.637   362391.455     6701.805    78757.309       27.956       22.393      322.406      405.930        1.585      331.110       -1.078      849.114
01/25/2021  16:17:00      139.651      113.033      -11.689      199.635       81.987      101.826    39853.988     6721.874    10368.611        4.467        2.847      179.663      125.093        0.485      330.745       -1.687      849.122
01/25/2021  16:18:00      302.483      194.631      -91.319      605.602      131.434      284.366   366753.815    17274.896    80864.288       30.120       23.245      359.690      409.862        1.298      331.108       -1.080      849.131
01/25/2021  16:19:00      210.775      185.648      -73.674      578.086      127.763      278.225   334182.885    16323.327    77409.235       25.602       21.396      280.875      397.820        2.006      331.142       -1.025      849.135
01/25/2021  16:20:00      261.641      156.070      -67.513      602.115       73.587      295.147   362542.716     5415.031    87111.540       27.612       22.753      304.654      414.539        1.851      331.187       -0.948      849.139
01/25/2021  16:21:00      254.848      268.257      -78.441      586.906      120.502      277.580   344458.867    14520.655    77050.455       28.945       21.801      370.013      397.371        1.153      331.067       -1.148      849.152
01/25/2021  16:22:00      122.226      293.928      -34.095      301.163      146.772      147.189    90698.876    21542.104    21664.486       11.817        6.695      318.329      196.154        0.380      330.719       -1.727      849.165
01/25/2021  16:23:00      263.795      275.235      -85.994      648.814       86.362      301.997   420960.045     7458.356    91202.121       33.607       25.981      381.238      437.670        1.318      331.109       -1.078      849.178
01/25/2021  16:24:00      168.012      207.909      -60.774      510.279       99.509      242.973   260384.555     9902.106    59036.120       20.216       16.466      267.310      346.257        1.678      331.003       -1.254      849.200
01/25/2021  16:25:00      153.813      227.333      -61.530      532.914       79.033      257.457   283997.402     6246.253    66284.097       21.775       17.826      274.479      366.150        1.780      331.119       -1.066      849.215
01/25/2021  16:26:00      230.290      185.507      -57.891      527.697      101.022      243.663   278464.061    10205.530    59371.421       21.935       17.402      295.713      353.412        1.428      331.000       -1.261      849.211
01/25/2021  16:27:00      173.684      290.938      -75.229      481.244      181.814      243.367   231595.453    33056.481    59227.569       22.210       16.194      338.837      311.194        0.843      330.939       -1.363      849.203
01/25/2021  16:28:00      215.898      192.685      -52.990      539.388      108.485      251.456   290939.186    11768.934    63230.285       22.616       18.297      289.378      360.282        1.550      331.017       -1.232      849.188
01/25/2021  16:29:00      234.006      357.228      -91.578      575.204      111.775      274.212   330859.909    12493.660    75192.236       30.456       20.927      427.049      391.740        0.841      331.016       -1.232      849.191
01/25/2021  16:30:00      137.293      291.790      -62.187      448.594      106.181      218.817   201236.411    11274.463    47880.767       18.407       13.020      322.477      301.475        0.874      330.821       -1.558      849.183
01/25/2021  16:31:00      233.843      396.697      -82.506      606.219      136.497      288.905   367501.453    18631.491    83465.893       34.413       23.480      460.490      405.563        0.776      330.999       -1.258      849.188
01/25/2021  16:32:00      184.778      461.182      -76.199      518.327      126.687      245.415   268663.240    16049.579    60228.469       29.872       17.247      496.822      346.163        0.485      330.834       -1.534      849.209
01/25/2021  16:33:00      134.277      304.545      -83.282      604.904      158.551      289.510   365908.267    25138.577    83815.892       29.618       23.743      332.833      413.315        1.542      331.058       -1.162      849.216
01/25/2021  16:34:00      101.997      350.117      -50.601      386.973      111.947      190.832   149748.480    12532.107    36416.829       16.708        9.935      364.671      264.934        0.528      330.695       -1.765      849.226
01/25/2021  16:35:00      186.222      277.853      -52.758      496.207      101.420      238.227   246221.153    10286.001    56752.207       21.389       15.663      334.486      335.793        1.008      330.853       -1.503      849.230
01/25/2021  16:36:00      129.907      242.666      -53.463      467.012       93.558      227.078   218100.585     8753.085    51564.373       17.846       13.921      275.250      320.694        1.357      330.833       -1.537      849.234
01/25/2021  16:37:00      204.930      306.616      -93.192      656.190      122.105      316.641   430585.417    14909.528   100261.256       34.511       27.288      368.795      448.892        1.482      331.075       -1.130      849.248
01/25/2021  16:38:00      202.683      366.291      -78.953      516.395      137.120      239.605   266664.090    18801.847    57410.380       26.211       17.144      418.629      343.762        0.674      330.829       -1.542      849.287
01/25/2021  16:39:00       67.259      338.810      -42.802      406.464      107.381      200.574   165212.713    11530.654    40229.911       16.901       10.849      345.422      278.769        0.651      330.694       -1.766      849.300
01/25/2021  16:40:00      151.449      307.814     -100.191      735.526      146.081      349.067   540998.581    21339.623   121847.599       40.581       34.209      343.055      500.826        2.131      331.234       -0.866      849.330
01/25/2021  16:41:00       66.701      265.087      -31.914      413.715       83.465      199.816   171159.826     6966.439    39926.256       14.685       10.903      273.350      280.673        1.054      330.719       -1.726      849.340
01/25/2021  16:42:00      103.689      343.503      -56.913      409.724      108.347      202.886   167873.706    11739.000    41162.604       17.633       11.039      358.811      283.399        0.624      330.688       -1.777      849.355
01/25/2021  16:43:00      100.049      208.331      -78.742      612.285       88.012      291.233   374892.589     7746.199    84816.428       26.343       23.373      231.110      416.592        3.249      331.057       -1.163      849.352
01/25/2021  16:44:00       86.925      382.804      -94.493      649.330      127.182      311.864   421629.013    16175.293    97259.354       34.893       26.753      392.549      441.821        1.267      331.019       -1.225      849.367
01/25/2021  16:45:00       82.458      286.083      -61.998      521.071      103.250      244.686   271515.481    10660.598    59871.181       21.719       17.102      297.729      351.036        1.390      330.798       -1.594      849.376
01/25/2021  16:46:00      223.601      316.310      -92.320      645.721      131.308      307.495   416955.049    17241.793    94553.263       34.355       26.438      387.362      440.411        1.293      331.042       -1.187      849.371
01/25/2021  16:47:00      196.817      265.225      -50.380      529.482      125.359      254.948   280351.586    15714.931    64998.479       23.626       18.053      330.274      357.564        1.172      330.759       -1.655      849.369
01/25/2021  16:48:00      151.988      414.480      -63.827      469.837      134.318      221.992   220747.187    18041.207    49280.483       24.346       14.403      441.468      317.186        0.516      330.667       -1.810      849.375
01/25/2021  16:49:00      131.817      354.435      -73.902      532.280      111.259      254.847   283322.134    12378.489    64947.217       25.448       18.032      378.154      362.687        0.920      330.746       -1.677      849.397
01/25/2021  16:50:00       50.002      314.737      -43.908      404.628       93.725      189.655   163723.480     8784.304    35969.045       15.594       10.424      318.684      270.131        0.719      330.569       -1.971      849.410
01/25/2021  16:51:00       59.779      205.550      -53.224      478.274       97.411      225.449   228745.827     9488.834    50827.374       16.880       14.453      214.066      322.147        2.265      330.825       -1.550      849.425
01/25/2021  16:52:00       51.191      213.530      -61.764      519.060      139.153      253.987   269423.443    19363.434    64509.584       20.259       17.665      219.580      346.756        2.494      330.931       -1.374      849.427
01/25/2021  16:53:00      102.105      176.016      -71.297      605.177       76.801      291.759   366239.282     5898.413    85123.462       25.178       22.863      203.487      416.680        4.193      330.999       -1.257      849.431
01/25/2021  16:54:00      110.192      273.127      -59.203      496.199       92.922      249.364   246213.034     8634.510    62182.397       20.357       15.851      294.518      346.868        1.387      330.725       -1.714      849.432
01/25/2021  16:55:00      109.136      230.590      -54.540      468.331       71.829      226.057   219333.789     5159.375    51101.948       17.177       13.780      255.113      318.822        1.562      330.735       -1.699      849.431
01/25/2021  16:56:00      269.864      243.729      -99.695      685.424      109.683      327.310   469805.496    12030.423   107131.875       36.544       29.448      363.635      469.962        1.670      331.101       -1.089      849.439
01/25/2021  16:57:00      236.765      243.785      -95.139      673.365       70.768      315.116   453420.859     5008.177    99298.270       34.101       27.886      339.836      458.545        1.821      331.066       -1.147      849.440
01/25/2021  16:58:00      193.280      244.215      -67.881      556.846      101.483      263.151   310077.634    10298.831    69248.540       24.553       19.481      311.445      380.342        1.491      330.888       -1.443      849.445
01/25/2021  16:59:00      296.141      262.112     -128.417      729.994       73.744      345.429   532891.635     5438.141   119321.524       41.513       32.883      395.477      500.467        1.601      331.254       -0.833      849.456
01/25/2021  17:00:00      163.062      172.834      -76.247      610.103       50.718      290.967   372226.026     2572.341    84662.058       26.077       22.973      237.615      419.647        3.119      330.975       -1.296      849.457
01/25/2021  17:01:00      282.111       85.699     -105.351      758.546       41.496      359.979   575392.542     1721.886   129584.823       40.221       35.335      294.840      521.194        3.125      331.303       -0.748      849.458
01/25/2021  17:02:00      192.644      149.223      -71.605      634.499       78.886      304.470   402589.561     6222.967    92701.801       28.290       25.076      243.678      437.258        3.220      330.961       -1.319      849.458
01/25/2021  17:03:00      315.348      193.993      -99.793      650.711       83.897      305.646   423424.894     7038.736    93419.312       33.535       26.194      370.239      442.117        1.426      330.991       -1.270      849.463
01/25/2021  17:04:00      320.345      294.079     -123.289      625.678      101.797      305.008   391473.044    10362.532    93029.783       34.948       24.743      434.860      432.975        0.991      330.914       -1.398      849.465
01/25/2021  17:05:00      215.610      245.868      -69.177      614.935      103.590      292.716   378144.784    10730.893    85682.896       29.304       23.728      327.015      420.267        1.652      330.880       -1.454      849.464
01/25/2021  17:06:00      106.728      247.261      -47.719      450.450       87.782      214.687   202905.050     7705.688    46090.532       16.570       12.835      269.312      304.465        1.278      330.615       -1.895      849.465
01/25/2021  17:07:00      131.118      324.892      -62.881      465.127       83.109      219.920   216343.561     6907.090    48364.678       19.910       13.581      350.352      315.175        0.809      330.595       -1.928      849.461
01/25/2021  17:08:00      179.476      229.809      -80.733      613.126       80.364      292.647   375923.025     6458.387    85642.303       27.968       23.401      291.589      420.293        2.078      330.921       -1.385      849.468
01/25/2021  17:09:00      212.850      284.102      -82.128      620.505      152.996      297.119   385026.204    23407.906    88279.901       31.463       24.836      354.992      424.899        1.433      330.879       -1.455      849.472
01/25/2021  17:10:00      236.241      367.186      -92.863      521.071      138.146      255.420   271514.620    19084.358    65239.247       27.747       17.792      436.618      356.222        0.666      330.667       -1.809      849.470
01/25/2021  17:11:00      182.607      269.370      -72.918      587.690      116.494      281.779   345379.393    13570.765    79399.642       27.469       21.917      325.431      399.206        1.505      330.705       -1.743      849.480
01/25/2021  17:12:00      143.172      171.914      -52.929      521.334       82.712      253.195   271789.483     6841.285    64107.516       19.772       17.137      223.725      356.364        2.537      330.678       -1.789      849.477
01/25/2021  17:13:00      185.515      252.050      -80.953      563.029       97.974      270.968   317001.142     9598.825    73423.830       25.218       20.001      312.962      387.372        1.532      330.736       -1.692      849.473
01/25/2021  17:14:00      188.851      338.663      -79.640      574.019      152.581      267.115   329497.287    23280.942    71350.619       29.032       21.206      387.759      386.852        0.995      330.633       -1.862      849.475
01/25/2021  17:15:00      172.581      363.897      -89.182      573.787       91.091      269.727   329231.252     8297.583    72752.537       29.013       20.514      402.747      389.004        0.933      330.597       -1.921      849.470
01/25/2021  17:16:00      165.137      260.518      -67.460      517.938       86.462      245.597   268259.834     7475.738    60317.855       21.780       16.803      308.448      353.707        1.315      330.600       -1.916      849.478
01/25/2021  17:17:00      200.607      261.931      -99.141      622.372      216.749      310.621   387347.382    46980.059    96485.326       32.463       26.541      329.926      405.369        1.510      330.800       -1.585      849.487
01/25/2021  17:18:00      172.037      372.150      -61.326      496.676      127.880      236.504   246686.999    16353.237    55934.183       24.534       15.949      409.991      338.207        0.680      330.432       -2.194      849.501
01/25/2021  17:19:00      128.759      326.651      -66.465      548.782      106.197      259.348   301162.038    11277.884    67261.558       25.362       18.985      351.112      371.485        1.119      330.491       -2.095      849.510
01/25/2021  17:20:00      197.531      444.010      -75.342      508.569      136.980      244.157   258642.936    18763.655    59612.757       28.936       16.851      485.966      342.293        0.496      330.421       -2.210      849.505
01/25/2021  17:21:00      156.858      431.577      -73.946      476.617      100.445      230.864   227163.456    10089.255    53298.155       25.338       14.528      459.199      327.004        0.507      330.315       -2.385      849.494
01/25/2021  17:22:00      191.873      263.529     -112.335      744.237      229.006      356.581   553889.245    52443.758   127149.764       42.602       36.674      325.980      482.140        2.188      330.916       -1.388      849.500
01/25/2021  17:23:00      200.106      333.865      -76.641      524.069       93.490      248.514   274648.794     8740.378    61759.134       25.119       17.257      389.240      355.674        0.835      330.458       -2.151      849.499
01/25/2021  17:24:00       90.743      181.075      -58.555      565.310       57.537      270.646   319575.032     3310.511    73249.331       22.021       19.807      202.540      387.488        3.660      330.590       -1.932      849.509
01/25/2021  17:25:00      249.448      240.331     -105.122      701.748       98.368      332.245   492449.707     9676.285   110386.810       37.164       30.626      346.386      480.189        1.922      330.798       -1.584      849.519
01/25/2021  17:26:00      134.387      184.862      -61.045      542.605       96.278      260.747   294420.121     9269.383    67988.855       21.374       18.584      228.548      372.715        2.660      330.460       -2.145      849.523
01/25/2021  17:27:00      211.078      261.799     -115.099      737.492       84.170      341.728   543894.997     7084.542   116778.203       39.690       33.388      336.292      497.900        2.192      330.832       -1.529      849.523
01/25/2021  17:28:00      141.914      275.862      -66.509      629.014       92.050      300.026   395658.202     8473.147    90015.547       29.730       24.707      310.225      427.443        1.898      330.527       -2.034      849.509
01/25/2021  17:29:00      147.691      277.705      -63.886      547.787      137.328      259.162   300070.958    18858.858    67164.968       24.447       19.305      314.536      372.865        1.405      330.464       -2.138      849.510
01/25/2021  17:30:00      145.676      252.478      -85.293      577.367      129.484      269.012   333352.161    16766.120    72367.602       25.727       21.124      291.490      387.945        1.771      330.676       -1.791      849.512
01/25/2021  17:31:00      276.616      183.804     -130.475      779.491       57.730      375.605   607606.836     3332.735   141079.293       43.951       37.601      332.115      538.849        2.632      331.097       -1.088      849.511
01/25/2021  17:32:00      211.296      258.416     -116.437      691.647      152.049      327.615   478374.892    23118.811   107331.409       36.677       30.441      333.803      472.246        2.001      330.833       -1.526      849.523
01/25/2021  17:33:00      170.746      243.627      -96.849      707.550       68.287      330.901   500626.735     4663.170   109495.676       35.621       30.739      297.504      480.984        2.614      330.753       -1.659      849.519
01/25/2021  17:34:00       39.508      234.837      -50.983      471.848       77.997      223.955   222640.307     6083.478    50155.882       16.903       13.944      238.137      321.247        1.820      330.356       -2.320      849.522
01/25/2021  17:35:00      226.613      237.918     -116.455      721.590       87.452      339.785   520692.340     7647.927   115453.779       38.252       32.190      328.570      491.857        2.241      330.846       -1.505      849.529
01/25/2021  17:36:00       79.682      229.070      -46.407      491.368      103.873      239.137   241442.042    10789.562    57186.688       18.513       15.471      242.533      338.198        1.944      330.396       -2.253      849.533
01/25/2021  17:37:00      169.284      267.375      -77.223      654.672       97.573      309.351   428595.206     9520.537    95698.254       31.985       26.691      316.459      444.909        1.977      330.550       -1.993      849.546
01/25/2021  17:38:00      218.092      343.869     -103.395      662.801       92.568      310.666   439305.142     8568.815    96513.274       36.033       27.219      407.198      450.412        1.224      330.603       -1.908      849.558
01/25/2021  17:39:00      151.183      298.645      -91.083      644.063       95.697      308.196   414816.687     9157.834    94984.653       31.954       25.948      334.732      440.354        1.731      330.563       -1.974      849.575
01/25/2021  17:40:00      211.645      223.015     -112.353      725.540      128.598      343.209   526408.983    16537.544   117792.658       38.380       33.037      307.456      495.258        2.595      330.759       -1.647      849.593
01/25/2021  17:41:00      232.557      279.898     -106.234      675.469       98.968      320.885   456257.734     9794.657   102966.913       35.624       28.451      363.903      462.272        1.614      330.748       -1.670      849.597
01/25/2021  17:42:00      189.396      247.474      -70.558      553.399      104.072      257.683   306250.623    10830.959    66400.531       24.271       19.174      311.632      375.464        1.452      330.426       -2.201      849.603
01/25/2021  17:43:00      249.205      197.766     -101.168      712.820       59.618      332.773   508111.848     3554.285   110737.691       36.679       31.120      318.142      485.522        2.329      330.752       -1.660      849.604
01/25/2021  17:44:00      173.381      135.202      -72.148      619.616       86.275      294.119   383924.420     7443.291    86505.742       26.561       23.894      219.865      423.330        3.707      330.536       -2.017      849.614
01/25/2021  17:45:00      287.847      242.148     -111.428      711.483      144.745      342.806   506208.704    20951.018   117516.121       39.916       32.234      376.154      482.763        1.647      330.752       -1.659      849.631
01/25/2021  17:46:00      171.290      197.231      -87.431      678.679       80.788      325.905   460605.421     6526.684   106214.388       32.449       28.667      261.228      467.161        3.198      330.659       -1.814      849.632
01/25/2021  17:47:00      189.409      242.137      -89.213      632.901       56.112      298.468   400563.802     3148.580    89083.410       29.752       24.640      307.418      432.407        1.978      330.563       -1.975      849.645
01/25/2021  17:48:00      285.748      186.527     -119.501      719.762       72.299      340.578   518057.706     5227.192   115993.062       38.486       31.964      341.239      492.015        2.079      330.667       -1.798      849.655
01/25/2021  17:49:00      222.033      229.492     -100.648      609.457      149.391      296.178   371437.909    22317.739    87721.202       29.668       24.074      319.320      406.837        1.623      330.503       -2.074      849.660
01/25/2021  17:50:00      193.668      122.395      -72.882      625.411       84.399      302.589   391139.297     7123.246    91559.830       27.371       24.491      229.102      432.789        3.569      330.569       -1.962      849.678
01/25/2021  17:51:00      157.864      262.248      -70.519      599.402      109.789      282.727   359282.318    12053.575    79934.473       27.487       22.564      306.096      407.444        1.772      330.451       -2.158      849.708
01/25/2021  17:52:00      129.816      139.589      -68.402      576.680       62.257      272.593   332559.667     3875.971    74307.158       22.579       20.537      190.623      394.070        4.274      330.564       -1.972      849.735
01/25/2021  17:53:00      223.980      164.721     -105.196      715.081       73.645      341.950   511340.501     5423.554   116929.545       36.089       31.685      278.029      492.904        3.143      330.741       -1.676      849.752
01/25/2021  17:54:00      284.090      304.206     -120.872      682.554       87.332      323.080   465879.437     7626.850   104380.883       38.275       28.894      416.231      466.972        1.259      330.545       -2.001      849.756
01/25/2021  17:55:00      125.616      227.274      -80.831      600.716      144.318      285.681   360859.617    20827.693    81613.552       26.853       23.165      259.679      401.096        2.386      330.491       -2.094      849.751
01/25/2021  17:56:00      221.785      255.292     -100.532      680.424       87.049      318.974   462976.483     7577.530   101744.634       34.826       28.615      338.175      463.528        1.879      330.544       -2.003      849.747
01/25/2021  17:57:00      190.756      175.525      -89.169      643.364       54.459      309.104   413917.417     2965.779    95545.474       29.368       25.621      259.224      443.635        2.929      330.576       -1.951      849.737
01/25/2021  17:58:00      158.490      283.539      -50.094      377.475      153.726      190.181   142487.125    23631.681    36168.712       15.511       10.114      324.829      246.230        0.575      330.121       -2.706      849.743
01/25/2021  17:59:00      141.708      213.488      -68.486      581.632       78.070      273.223   338295.234     6094.903    74651.028       24.460       20.952      256.239      395.683        2.385      330.438       -2.182      849.746
01/25/2021  18:00:00      203.762       96.626      -96.876      763.533       57.832      361.092   582983.360     3344.512   130387.435       38.832       35.836      225.511      523.712        5.393      330.895       -1.420      849.743
01/25/2021  18:01:00       50.635      108.547      -82.946      599.112       58.070      287.612   358934.990     3372.117    82720.693       23.303       22.251      119.776      411.933       11.828      330.547       -1.999      849.756
01/25/2021  18:02:00      167.393      152.682     -108.048      763.534       60.626      357.389   582983.489     3675.453   127726.682       38.854       35.719      226.566      520.911        5.286      330.819       -1.545      849.755
01/25/2021  18:03:00       76.414      110.469      -74.596      574.506       61.157      273.635   330057.693     3740.230    74876.315       21.605       20.434      134.322      394.621        8.631      330.443       -2.169      849.764
01/25/2021  18:04:00      229.071      117.330     -120.314      790.007       50.645      376.540   624111.390     2564.936   141782.578       42.442       38.423      257.371      544.354        4.473      330.849       -1.494      849.779
01/25/2021  18:05:00      186.347       53.503      -76.497      674.824       38.868      320.250   455387.944     1510.704   102560.206       30.133       27.973      193.875      463.537        5.716      330.584       -1.932      849.788
01/25/2021  18:06:00      119.339       90.513      -94.752      683.973       40.960      316.649   467819.131     1677.735   100266.465       30.046       28.488      149.781      463.382        9.571      330.740       -1.680      849.796
01/25/2021  18:07:00      176.818       63.615      -68.953      671.019       59.917      319.050   450266.440     3589.990   101792.886       29.774       27.782      187.913      461.587        6.034      330.704       -1.738      849.816
01/25/2021  18:08:00      167.985      172.465      -89.779      645.080      133.313      309.490   416127.924    17772.314    95784.160       29.774       26.484      240.755      442.821        3.383      330.546       -2.002      849.816
01/25/2021  18:09:00      102.788      193.266      -48.265      499.136      101.563      243.864   249136.789    10315.029    59469.626       18.452       15.946      218.900      344.921        2.483      330.310       -2.393      849.821
01/25/2021  18:10:00      228.441        9.462      -93.064      745.414       34.072      354.858   555641.991     1160.903   125924.492       37.169       34.136      228.637      513.605        5.046      330.810       -1.560      849.818
01/25/2021  18:11:00      124.905       11.417      -50.687      616.801       37.572      294.946   380443.680     1411.654    86993.056       24.347       23.442      125.426      425.015       11.482      330.561       -1.975      849.822
01/25/2021  18:12:00       47.660       38.889      -91.325      572.112       50.054      277.597   327312.597     2505.413    77060.368       20.941       20.344       61.512      393.921       41.010      330.491       -2.092      849.838
01/25/2021  18:13:00       70.201      160.699      -93.737      644.338      193.470      313.131   415170.910    37430.643    98050.839       29.498       27.533      175.363      420.147        5.740      330.550       -1.995      849.847
01/25/2021  18:14:00       21.438      106.816      -67.524      571.891      146.081      278.043   327059.005    21339.585    77307.764       22.098       21.285      108.946      380.195       12.178      330.488       -2.096      849.854
01/25/2021  18:15:00      243.697       79.964     -157.662      874.432       26.645      417.654   764631.687      709.967   174434.591       51.501       46.989      256.481      602.366        5.516      331.136       -1.018      849.866
01/25/2021  18:16:00      105.331       87.103      -74.547      644.289       72.982      303.233   415108.630     5326.359    91950.263       26.820       25.619      136.681      440.004       10.363      330.543       -2.003      849.872
01/25/2021  18:17:00      191.676        8.947      -77.140      668.804       36.218      320.839   447298.967     1311.735   102937.837       29.704       27.577      191.885      461.500        5.784      330.729       -1.696      849.865
01/25/2021  18:18:00      170.608       56.302      -82.942      702.234       31.962      336.105   493133.270     1021.573   112966.605       32.301       30.356      179.658      484.969        7.287      330.758       -1.648      849.870
01/25/2021  18:19:00      136.155       78.412      -71.575      662.336       46.047      313.581   438688.862     2120.338    98332.778       28.436       26.957      157.120      452.804        8.305      330.730       -1.696      849.881
01/25/2021  18:20:00      140.091       72.435     -128.396      831.633       52.826      398.927   691613.080     2790.580   159142.438       44.727       42.677      157.709      574.068       13.250      330.865       -1.465      849.882
01/25/2021  18:21:00       64.920       25.336      -91.610      666.970      134.714      313.056   444848.994    18147.985    98004.299       28.700       28.050       69.688      440.548       39.964      330.667       -1.799      849.875
01/25/2021  18:22:00       82.692       79.116     -117.375      798.206       47.355      388.213   637132.054     2242.463   150709.070       40.831       39.504      114.443      552.557       23.312      330.754       -1.650      849.871
01/25/2021  18:23:00       -2.883       30.258      -63.705      582.290       40.173      278.789   339062.211     1613.862    77723.028       21.160       20.920       30.395      399.717      172.944      330.363       -2.303      849.872
01/25/2021  18:24:00      163.247       12.712      -97.556      706.075       45.332      338.377   498542.365     2054.967   114498.796       32.558       30.755      163.741      486.219        8.818      330.687       -1.763      849.880
01/25/2021  18:25:00       -1.909      148.728      -71.351      550.693      126.977      264.919   303262.447    16123.241    70181.895       20.831       19.478      148.740      371.457        6.237      330.359       -2.310      849.880
01/25/2021  18:26:00       35.505      150.570     -103.358      688.237      101.229      329.987   473669.853    10247.210   108891.581       31.358       29.640      154.699      473.588        9.372      330.644       -1.838      849.869
01/25/2021  18:27:00        1.984       40.000      -65.878      572.021       59.863      268.916   327207.953     3583.557    72315.551       20.444       20.155       40.049      388.146       93.932      330.384       -2.267      849.863
01/25/2021  18:28:00      266.705       16.729     -108.983      795.477       35.495      380.673   632783.973     1259.903   144912.167       43.096       38.948      267.229      549.242        4.224      331.017       -1.218      849.857
01/25/2021  18:29:00      251.237       47.837     -142.008      898.576       82.428      420.178   807439.314     6794.378   176549.409       53.797       49.539      255.751      611.971        5.726      331.135       -1.019      849.860
01/25/2021  18:30:00      143.049       83.597      -81.475      648.641       40.576      310.550   420735.059     1646.413    96441.112       27.634       25.941      165.685      446.309        7.256      330.712       -1.726      849.855
01/25/2021  18:31:00      114.735       20.355      -80.506      683.242       35.550      322.661   466819.503     1263.835   104110.131       29.600       28.610      116.526      466.737       16.043      330.684       -1.772      849.848
01/25/2021  18:32:00       74.391       -1.369      -82.393      683.171       45.907      324.902   466723.077     2107.476   105561.138       29.324       28.720       74.403      467.399       39.463      330.672       -1.790      849.844
01/25/2021  18:33:00       50.170      116.633      -67.944      629.124       62.840      293.423   395796.575     3948.814    86097.143       25.318       24.292      126.966      427.347       11.329      330.552       -1.990      849.849
01/25/2021  18:34:00      -27.368        9.052      -41.190      484.616       50.307      225.305   234852.837     2530.839    50762.191       14.527       14.407       28.826      323.182      125.694      330.308       -2.396      849.837
01/25/2021  18:35:00       94.553        3.159      -69.490      593.128      105.979      285.291   351800.306    11231.470    81390.748       22.901       22.221       94.606      400.738       17.943      330.587       -1.933      849.846
01/25/2021  18:36:00      -32.163       20.473      -64.915      529.664      158.774      260.021   280543.450    25209.050    67611.142       18.944       18.668       38.126      343.902       81.364      330.395       -2.252      849.855
01/25/2021  18:37:00       40.136       69.957      -59.983      551.592       57.476      259.196   304253.764     3303.463    67182.773       19.234       18.737       80.653      373.049       21.394      330.400       -2.241      849.843
01/25/2021  18:38:00      102.462      122.375      -75.766      605.999       47.984      287.223   367234.347     2302.433    82497.219       24.153       22.602      159.606      415.757        6.785      330.613       -1.889      849.825
01/25/2021  18:39:00       70.757       25.169      -49.750      512.124       70.613      239.729   262270.894     4986.264    57470.105       16.635       16.236       75.100      348.512       21.535      330.499       -2.080      849.804
01/25/2021  18:40:00       32.087       37.806      -77.892      650.579       39.108      309.990   423252.705     1529.438    96093.744       26.459       26.044       49.587      447.213       81.338      330.559       -1.977      849.802
01/25/2021  18:41:00      110.287       18.619      -71.819      611.715       41.004      292.507   374195.700     1681.304    85560.499       23.945       23.072      111.848      421.537       14.204      330.672       -1.792      849.786
01/25/2021  18:42:00      170.058       13.778      -98.284      656.611       48.177      315.244   431138.627     2321.052    99379.079       28.569       26.642      170.615      451.328        6.998      330.781       -1.611      849.777
01/25/2021  18:43:00        3.815      102.307      -35.496      446.346       65.004      218.528   199224.970     4225.466    47754.524       13.142       12.560      102.378      305.431        8.901      330.353       -2.322      849.783
01/25/2021  18:44:00       46.671       18.411      -75.121      590.359       54.685      284.251   348523.863     2990.495    80798.627       22.015       21.616       50.171      405.739       65.401      330.611       -1.894      849.779
01/25/2021  18:45:00      -59.250       85.046      -59.559      552.722       68.640      265.572   305501.230     4711.445    70528.241       19.743       19.037      103.650      375.219       13.105      330.413       -2.223      849.790
01/25/2021  18:46:00      115.171       89.288      -97.333      677.143       51.450      329.411   458522.972     2647.150   108511.402       30.007       28.484      145.728      469.327       10.372      330.781       -1.612      849.794
01/25/2021  18:47:00      148.612       85.155     -103.743      691.800       78.407      330.113   478586.719     6147.676   108974.521       31.678       29.685      171.280      476.122        7.727      330.872       -1.461      849.796
01/25/2021  18:48:00       89.753       38.898      -38.559      478.031       76.827      229.146   228513.462     5902.402    52507.910       14.893       14.346       97.819      328.899       11.305      330.557       -1.986      849.790
01/25/2021  18:49:00       79.111      149.916      -78.765      604.455       54.584      290.572   365365.484     2979.378    84432.086       24.376       22.639      169.509      416.240        6.030      330.729       -1.699      849.786
01/25/2021  18:50:00       97.648      105.236      -98.810      699.805       49.113      335.846   489727.237     2412.053   112792.830       31.752       30.247      143.561      482.421       11.292      330.817       -1.552      849.786
01/25/2021  18:51:00       97.935       64.574      -90.830      719.818       50.208      341.859   518138.212     2520.823   116867.562       32.963       31.876      117.308      493.704       17.712      330.780       -1.610      849.783
01/25/2021  18:52:00      178.756       62.928      -94.558      725.539       36.627      350.356   526406.591     1341.551   122749.531       34.754       32.525      189.509      502.912        7.042      330.957       -1.320      849.778
01/25/2021  18:53:00       75.972      105.334      -62.088      575.678       61.599      281.262   331405.520     3794.478    79108.339       21.743       20.715      129.873      399.609        9.468      330.620       -1.878      849.772
01/25/2021  18:54:00       74.708       81.301      -79.335      622.746      148.595      305.278   387812.686    22080.403    93194.651       26.068       25.154      110.413      419.744       14.452      330.742       -1.677      849.765
01/25/2021  18:55:00      143.329      136.426      -90.468      724.001       77.694      344.743   524176.986     6036.379   118847.858       34.806       32.453      197.877      498.242        6.340      330.839       -1.514      849.761
01/25/2021  18:56:00       19.518      130.929      -68.417      602.491       63.629      281.585   362995.037     4048.672    79290.118       23.417       22.317      132.376      403.826        9.306      330.629       -1.866      849.772
01/25/2021  18:57:00      164.009      119.775      -81.796      698.040       60.805      333.466   487260.329     3697.198   111199.295       32.492       30.108      203.088      481.154        5.613      330.796       -1.585      849.768
01/25/2021  18:58:00       76.620      132.154      -86.841      678.134       55.930      319.736   459865.929     3128.128   102230.966       29.793       28.261      152.759      462.439        9.164      330.782       -1.609      849.783
01/25/2021  18:59:00      159.433      230.835     -122.197      796.787       60.708      378.348   634869.602     3685.475   143147.411       43.750       39.085      280.542      545.788        3.785      330.959       -1.316      849.780
01/25/2021  19:00:00       72.816      118.821      -81.034      636.785       95.148      305.649   405495.117     9053.164    93421.151       26.687       25.398      139.358      438.759        9.913      330.697       -1.751      849.772
01/25/2021  19:01:00       68.650      111.410      -64.590      579.052       68.255      276.603   335301.508     4658.741    76508.970       21.879       20.823      130.863      398.226        9.260      330.628       -1.866      849.769
01/25/2021  19:02:00       52.109      158.721      -85.012      653.167       78.962      311.901   426627.684     6234.921    97282.091       28.252       26.507      167.056      449.067        7.226      330.673       -1.792      849.764
01/25/2021  19:03:00      176.296      112.195     -105.545      786.721       96.494      375.014   618930.030     9311.109   140635.862       41.168       38.444      208.969      541.559        6.716      331.039       -1.184      849.757
01/25/2021  19:04:00       74.094      113.769      -98.183      712.810       86.835      342.364   508097.763     7540.367   117213.158       33.033       31.643      135.770      490.811       13.068      330.800       -1.579      849.747
01/25/2021  19:05:00       15.138       82.309     -102.926      708.006       89.287      332.224   501273.114     7972.105   110373.086       31.848       30.981       83.690      478.744       32.724      330.812       -1.561      849.737
01/25/2021  19:06:00       75.084       76.160      -83.779      616.601       51.016      294.567   380197.173     2602.643    86769.810       24.391       23.478      106.948      419.738       15.403      330.643       -1.841      849.731
01/25/2021  19:07:00      188.331       59.167      -93.347      750.504       69.465      355.421   563256.047     4825.390   126323.784       37.090       34.720      197.407      513.601        6.769      330.964       -1.307      849.722
01/25/2021  19:08:00      100.605       57.465      -83.731      654.353       56.448      303.855   428178.114     3186.341    92327.833       27.195       26.185      115.860      442.807       14.607      330.751       -1.661      849.718
01/25/2021  19:09:00      151.980      125.608     -119.484      757.657       78.653      362.424   574044.601     6186.363   131350.811       38.222       35.579      197.168      522.377        7.019      330.900       -1.413      849.719
01/25/2021  19:10:00       89.716       71.960     -118.207      726.208      183.890      356.431   527377.524    33815.634   127043.338       35.757       34.412      115.010      487.643       17.978      330.871       -1.459      849.710
01/25/2021  19:11:00       45.401      193.161      -83.651      624.075       97.492      298.163   389469.365     9504.766    88900.892       26.702       24.394      198.425      427.482        4.641      330.560       -1.978      849.711
01/25/2021  19:12:00      -35.229       89.640      -79.357      554.394      140.763      271.951   307353.107    19814.213    73957.479       20.826       20.056       96.314      367.771       14.581      330.450       -2.159      849.711
01/25/2021  19:13:00       81.441       66.833     -121.365      732.445       59.240      346.374   536475.256     3509.382   119975.151       34.275       32.998      105.353      499.752       22.502      330.770       -1.626      849.716
01/25/2021  19:14:00      100.390      169.301      -96.727      706.935       97.191      341.925   499757.582     9446.081   116912.406       33.697       31.306      196.828      488.581        6.162      330.695       -1.752      849.722
01/25/2021  19:15:00       25.026       76.484      -70.108      581.472       81.383      281.910   338109.744     6623.176    79473.187       21.771       21.210       80.474      399.158       24.602      330.527       -2.033      849.713
01/25/2021  19:16:00       39.887      181.748      -67.050      569.807       70.847      271.847   324679.541     5019.249    73900.792       22.127       20.180      186.074      390.121        4.396      330.494       -2.089      849.702
01/25/2021  19:17:00       -4.879       71.662      -61.310      505.192       75.351      241.438   255219.071     5677.745    58292.411       16.399       15.959       71.828      334.786       21.725      330.410       -2.227      849.695
01/25/2021  19:18:00       70.907      209.427      -94.350      676.656      102.246      322.479   457862.838    10454.186   103992.737       31.493       28.615      221.105      462.577        4.377      330.642       -1.842      849.683
01/25/2021  19:19:00      135.882      200.429     -110.819      747.666       65.535      357.606   559004.994     4294.861   127881.873       38.090       34.559      242.148      514.692        4.518      330.728       -1.698      849.678
01/25/2021  19:20:00      110.095      183.621     -102.539      703.859       65.668      333.299   495417.301     4312.316   111088.497       33.345       30.541      214.097      481.753        5.063      330.704       -1.739      849.664
01/25/2021  19:21:00       47.440      188.618      -61.961      585.767       61.638      281.796   343122.699     3799.193    79408.848       23.391       21.317      194.492      401.288        4.257      330.424       -2.204      849.659
01/25/2021  19:22:00      160.243      206.514     -130.517      811.300       94.311      380.916   658207.396     8894.579   145097.302       44.860       40.610      261.392      551.468        4.451      330.867       -1.466      849.650
01/25/2021  19:23:00       34.565       77.721      -77.805      617.344       59.058      297.908   381113.706     3487.851    88748.905       24.322       23.668       85.060      424.540       24.911      330.481       -2.106      849.636
01/25/2021  19:24:00       92.665      116.437      -85.999      668.685       61.363      321.557   447139.382     3765.434   103398.789       29.180       27.715      148.810      460.502        9.576      330.637       -1.848      849.630
01/25/2021  19:25:00      -17.516      211.794      -99.210      613.629      129.907      298.454   376540.770    16875.896    89074.675       26.864       24.125      212.517      416.608        3.843      330.396       -2.248      849.625
01/25/2021  19:26:00       41.942      166.144      -65.200      611.708       80.892      297.374   374187.062     6543.585    88431.553       25.129       23.458      171.356      419.614        5.997      330.427       -2.198      849.631
01/25/2021  19:27:00      100.294       76.566      -93.699      670.889       61.728      312.344   450092.570     3810.292    97559.080       28.796       27.573      126.180      452.951       12.886      330.617       -1.881      849.634
01/25/2021  19:28:00      231.055       68.069     -148.422      890.882       68.724      419.556   793670.525     4723.033   176026.950       52.703       48.721      240.873      609.577        6.404      331.145       -1.002      849.640
01/25/2021  19:29:00       12.033      177.991      -95.156      681.353       79.927      318.554   464242.292     6388.308   101476.845       30.637       28.605      178.397      461.220        6.684      330.547       -2.000      849.656
01/25/2021  19:30:00      196.971      137.325     -120.625      822.648       59.917      395.007   676749.218     3589.989   156030.803       45.411       41.819      240.117      564.534        5.528      330.974       -1.288      849.664
01/25/2021  19:31:00       68.104      130.837      -90.775      658.689       56.413      320.172   433871.024     3182.442   102510.428       28.467       26.978      147.501      454.545        9.497      330.583       -1.939      849.672
01/25/2021  19:32:00      134.890      164.866     -119.842      747.079       65.644      359.252   558126.699     4309.141   129061.819       37.547       34.575      213.017      514.823        5.841      330.779       -1.613      849.677
01/25/2021  19:33:00       29.035      103.767      -60.089      570.797       46.956      273.145   325809.610     2204.894    74607.985       20.884       20.131      107.752      391.056       13.171      330.379       -2.276      849.677
01/25/2021  19:34:00       38.928      160.247      -66.367      608.333       87.241      291.213   370068.455     7611.059    84804.868       24.694       23.124      164.908      415.903        6.361      330.369       -2.292      849.686
01/25/2021  19:35:00      121.927      137.846      -84.645      714.138       73.049      335.768   509993.080     5336.093   112739.971       33.442       31.403      184.032      485.932        6.972      330.660       -1.811      849.694
01/25/2021  19:36:00       76.630      166.911      -72.337      630.167      120.953      293.875   397110.526    14629.727    86362.240       26.843       24.905      183.661      425.044        5.356      330.527       -2.033      849.695
01/25/2021  19:37:00       32.445      233.950      -99.311      646.459       76.764      307.591   417909.838     5892.771    94612.289       29.192       25.921      236.190      440.828        3.484      330.507       -2.066      849.710
01/25/2021  19:38:00       52.880      131.989      -94.953      693.781       66.286      325.467   481331.504     4393.862   105928.994       31.032       29.583      142.188      470.605       10.954      330.592       -1.922      849.720
01/25/2021  19:39:00       -1.064      229.101      -55.880      463.766      117.386      229.814   215078.478    13779.569    52814.273       16.858       14.084      229.104      309.257        1.822      330.191       -2.590      849.723
01/25/2021  19:40:00       -9.865      204.084      -46.233      452.547       78.851      214.222   204798.745     6217.554    45890.956       15.034       12.845      204.323      306.624        2.252      330.195       -2.584      849.716
01/25/2021  19:41:00       73.654      260.742      -99.611      701.937       82.947      338.926   492715.504     6880.173   114870.923       34.877       30.723      270.945      484.349        3.196      330.603       -1.905      849.719
01/25/2021  19:42:00       39.742      201.041      -93.032      646.113       71.536      310.280   417461.468     5117.404    96273.645       28.464       25.943      204.932      439.327        4.596      330.484       -2.104      849.720
01/25/2021  19:43:00      -33.660      168.036      -53.565      500.941       70.983      235.161   250942.028     5038.545    55300.668       17.169       15.564      171.374      335.264        3.827      330.258       -2.479      849.713
01/25/2021  19:44:00       89.232      175.550     -105.362      738.939       88.020      352.744   546030.155     7747.597   124428.171       36.390       33.910      196.927      506.139        6.606      330.641       -1.840      849.723
01/25/2021  19:45:00       -4.521      171.377      -72.046      572.608       87.892      276.627   327879.977     7725.030    76522.609       22.327       20.606      171.437      393.016        5.255      330.369       -2.293      849.725
01/25/2021  19:46:00       11.966      233.519      -95.867      646.478       77.002      310.701   417933.800     5929.292    96534.889       29.202       26.020      233.825      443.632        3.600      330.519       -2.046      849.738
01/25/2021  19:47:00       65.734      267.930     -104.836      701.696      173.752      338.844   492377.762    30189.907   114815.553       36.211       31.869      275.876      467.512        2.872      330.596       -1.918      849.742
01/25/2021  19:48:00      205.819      222.012     -161.387      867.854      120.507      408.314   753170.333    14521.961   166720.351       52.585       46.721      302.739      591.827        3.822      330.993       -1.255      849.753
01/25/2021  19:49:00      -16.646      223.786      -41.009      407.274       91.365      187.767   165872.394     8347.612    35256.492       13.071       10.474      224.404      272.472        1.474      330.152       -2.656      849.760
01/25/2021  19:50:00       44.821      231.123      -74.685      591.731       80.276      276.185   350145.642     6444.261    76278.229       24.684       21.643      235.429      400.192        2.889      330.360       -2.308      849.786
01/25/2021  19:51:00      165.635      163.420     -133.955      835.234       67.036      393.839   697615.528     4493.831   155109.033       46.447       42.861      232.682      570.445        6.010      330.936       -1.350      849.805
01/25/2021  19:52:00      147.618      245.668     -103.628      722.223       73.130      338.379   521606.422     5347.955   114500.520       36.703       32.073      286.607      491.923        2.946      330.584       -1.936      849.822
01/25/2021  19:53:00       16.680      239.224      -80.767      567.500       85.279      269.678   322056.767     7272.492    72725.987       23.296       20.103      239.805      386.503        2.598      330.389       -2.263      849.833
01/25/2021  19:54:00       18.168      184.931      -63.238      569.248       92.836      263.628   324042.951     8618.462    69499.809       22.026       20.108      185.822      383.629        4.262      330.334       -2.352      849.839
01/25/2021  19:55:00       45.607      211.859      -81.873      608.298       55.451      287.949   370026.546     3074.789    82914.358       25.474       22.801      216.712      415.400        3.674      330.440       -2.178      849.853
01/25/2021  19:56:00       47.149      219.231      -54.756      497.036       64.421      236.823   247044.820     4150.025    56084.943       18.022       15.364      224.243      339.806        2.296      330.284       -2.436      849.865
01/25/2021  19:57:00       52.855      129.142      -68.022      585.101       77.383      278.795   342343.337     5988.076    77726.588       22.499       21.303      139.540      400.561        8.240      330.427       -2.197      849.883
01/25/2021  19:58:00       20.189      151.633      -62.976      522.499       58.462      248.167   273005.215     3417.802    61586.904       18.262       16.900      152.971      351.262        5.273      330.315       -2.382      849.909
01/25/2021  19:59:00       51.428      178.119      -81.198      629.007       62.827      297.854   395649.558     3947.205    88716.784       26.454       24.416      185.395      429.739        5.373      330.433       -2.186      849.927
01/25/2021  20:00:00      129.903       94.288      -83.567      674.034       43.301      315.243   454321.182     1874.937    99378.436       29.404       27.779      160.515      457.675        8.130      330.670       -1.793      849.940
01/25/2021  20:01:00       94.414       96.634      -72.288      616.039      164.013      300.721   379504.271    26900.202    90433.141       26.005       24.842      135.101      407.459        9.096      330.637       -1.849      849.940
01/25/2021  20:02:00       34.108       78.593      -68.050      579.002      175.996      269.419   335242.765    30974.589    72586.381       22.529       21.940       85.675      358.764       17.535      330.439       -2.176      849.933
01/25/2021  20:03:00       68.332      164.498      -69.616      570.336      112.843      268.843   325282.601    12733.525    72276.334       22.335       20.515      178.126      386.211        4.701      330.415       -2.218      849.928
01/25/2021  20:04:00       -3.807      156.298      -59.676      535.973       74.760      252.467   287266.575     5589.085    63739.691       19.222       17.830      156.344      362.040        5.362      330.342       -2.338      849.919
01/25/2021  20:05:00       87.864      169.112     -133.656      744.755      211.125      398.826   554660.429    44573.581   159062.007       40.608       37.915      190.575      520.363        7.456      330.735       -1.680      849.917
01/25/2021  20:06:00       29.223      140.042      -54.299      489.685       47.800      233.373   239791.147     2284.810    54462.788       15.991       14.827      143.059      335.513        5.500      330.339       -2.345      849.919
01/25/2021  20:07:00      167.173      108.894      -90.827      695.167       80.368      327.957   483257.405     6459.041   107555.646       32.253       29.864      199.511      474.684        5.661      330.627       -1.864      849.924
01/25/2021  20:08:00       42.275      134.017      -59.474      538.416       70.273      254.700   289891.837     4938.342    64872.270       19.142       17.985      140.527      367.781        6.850      330.383       -2.272      849.935
01/25/2021  20:09:00      240.106      117.532     -140.266      847.818       72.425      405.744   718795.736     5245.339   164628.418       48.971       44.433      267.329      584.891        4.787      331.037       -1.183      849.936
01/25/2021  20:10:00      117.975      100.886     -100.608      698.900       60.873      336.672   488461.499     3705.526   113347.809       31.974       30.276      155.230      482.464        9.660      330.655       -1.818      849.936
01/25/2021  20:11:00      224.065      110.549     -110.000      804.300       55.738      378.499   646898.269     3106.690   143261.369       43.373       39.663      249.852      549.710        4.841      330.893       -1.420      849.931
01/25/2021  20:12:00       81.658       86.504      -75.318      520.183      167.015      254.182   270590.195    27894.066    64608.408       19.138       18.155      118.958      341.815        8.256      330.429       -2.194      849.938
01/25/2021  20:13:00      177.188       81.617      -91.924      720.876       42.629      343.810   519661.974     1817.263   118205.536       34.296       31.984      195.081      496.361        6.474      330.789       -1.595      849.942
01/25/2021  20:14:00      123.731      162.193      -75.844      608.181       68.085      290.631   369883.774     4635.600    84466.504       25.308       22.949      204.000      418.428        4.207      330.490       -2.092      849.942
01/25/2021  20:15:00      114.204       76.687      -89.866      690.996       47.038      329.463   477475.590     2212.588   108546.060       30.749       29.412      137.562      474.338       11.890      330.720       -1.710      849.947
01/25/2021  20:16:00       77.397       88.254     -120.532      752.527      150.428      360.727   566296.593    22628.634   130123.652       37.352       35.952      117.384      505.557       18.549      330.709       -1.725      849.947
01/25/2021  20:17:00      224.134       42.865     -112.660      738.022       38.782      354.899   544676.526     1504.076   125953.298       36.831       33.607      228.196      510.985        5.014      330.812       -1.556      849.951
01/25/2021  20:18:00      142.129       81.231      -74.919      642.582       40.917      308.810   412911.847     1674.220    95363.438       27.107       25.497      163.705      444.036        7.357      330.619       -1.878      849.954
01/25/2021  20:19:00      271.752      156.824     -131.301      805.981       84.313      381.407   649604.988     7108.754   145471.463       45.876       40.109      313.756      551.145        3.086      330.922       -1.374      849.968
01/25/2021  20:20:00      107.620      105.906      -77.397      637.744       65.386      306.252   406717.035     4275.365    93790.052       26.668       25.239      150.991      439.170        8.460      330.600       -1.909      849.986
01/25/2021  20:21:00      164.661      112.040     -110.704      713.121       32.673      338.443   508542.258     1067.535   114543.408       33.790       31.208      199.164      490.214        6.058      330.716       -1.717      849.999
01/25/2021  20:22:00      218.658       32.838     -120.582      803.116       32.531      381.176   644995.435     1058.265   145295.081       42.722       39.567      221.110      551.424        6.219      330.911       -1.391      850.011
01/25/2021  20:23:00      182.012       35.010      -84.048      698.025       31.528      333.115   487238.565      994.005   110965.780       32.018       29.960      185.349      481.101        6.737      330.689       -1.762      850.023
01/25/2021  20:24:00       88.498      119.692      -73.538      607.514       45.289      289.041   369072.826     2051.090    83544.701       24.102       22.733      148.855      417.529        7.868      330.438       -2.178      850.027
01/25/2021  20:25:00      133.122      107.904     -101.744      706.724       48.825      334.778   499458.871     2383.897   112076.038       32.668       30.696      171.361      484.654        7.999      330.645       -1.833      850.029
01/25/2021  20:26:00      142.111       83.007      -66.750      596.623       35.793      282.454   355958.448     1281.174    79780.301       23.419       21.851      164.578      409.063        6.178      330.534       -2.021      850.033
01/25/2021  20:27:00      217.281       98.273      -94.393      714.129       41.661      338.948   509980.448     1735.609   114885.785       34.606       31.330      238.471      490.188        4.225      330.719       -1.712      850.030
01/25/2021  20:28:00      179.191       55.544      -87.735      710.477       40.195      338.410   504777.231     1615.667   114521.259       33.177       31.046      187.602      489.534        6.809      330.738       -1.679      850.033
01/25/2021  20:29:00      210.821       46.509      -80.706      649.229       88.111      310.870   421498.817     7763.468    96640.189       28.940       26.295      215.890      443.039        4.211      330.628       -1.864      850.035
01/25/2021  20:30:00       88.278      128.425      -42.307      481.744       52.943      231.283   232077.658     2802.971    53491.756       15.716       14.419      155.839      329.650        4.475      330.320       -2.376      850.040
01/25/2021  20:31:00      182.063      139.645      -89.739      674.767       47.308      319.382   455310.121     2238.032   102005.086       31.001       27.978      229.451      462.127        4.056      330.579       -1.943      850.042
01/25/2021  20:32:00      192.707       91.242     -115.358      781.918       48.096      372.009   611395.043     2313.206   138390.465       40.527       37.605      213.216      538.208        6.372      330.844       -1.502      850.045
01/25/2021  20:33:00      173.086       72.729      -72.245      595.655       51.796      288.082   354804.933     2682.826    82991.433       24.038       22.024      187.745      412.761        4.833      330.442       -2.172      850.042
01/25/2021  20:34:00      149.595      187.636     -105.152      712.576       77.806      337.088   507764.150     6053.760   113628.572       34.791       31.372      239.971      487.884        4.133      330.619       -1.874      850.044
01/25/2021  20:35:00      218.585      125.635      -96.827      749.663       56.127      357.543   561994.650     3150.266   127837.288       38.281       34.649      252.118      516.342        4.194      330.719       -1.710      850.045
01/25/2021  20:36:00      148.310      114.948      -62.596      521.042       56.867      249.185   271485.009     3233.841    62093.055       18.790       16.841      187.641      357.653        3.633      330.301       -2.405      850.046
01/25/2021  20:37:00      147.051      145.886      -71.140      608.720       73.753      291.371   370539.644     5439.533    84897.228       25.432       23.044      207.140      417.988        4.072      330.453       -2.153      850.053
01/25/2021  20:38:00      270.777      194.057     -121.293      799.128      128.446      381.456   638606.291    16498.395   145508.436       46.298       40.031      333.134      541.950        2.647      330.832       -1.523      850.058
01/25/2021  20:39:00      117.458      131.210      -55.955      550.154       46.120      258.909   302669.390     2127.075    67033.700       20.291       18.592      176.104      375.092        4.537      330.381       -2.272      850.065
01/25/2021  20:40:00      114.817      179.658      -72.884      600.147       56.144      291.508   360176.628     3152.170    84976.776       24.944       22.415      213.213      415.907        3.805      330.492       -2.088      850.061
01/25/2021  20:41:00      177.264      179.414      -86.446      672.679       61.675      325.087   452496.400     3803.854   105681.275       31.641       28.099      252.214      465.069        3.400      330.555       -1.983      850.064
01/25/2021  20:42:00      246.635      144.973      -97.652      712.221       75.537      337.960   507258.348     5705.828   114217.149       35.915       31.359      286.088      488.281        2.913      330.670       -1.792      850.063
01/25/2021  20:43:00      173.704       85.855      -97.109      692.945       43.613      329.348   480172.952     1902.095   108469.776       31.863       29.527      193.764      475.959        6.034      330.660       -1.808      850.072
01/25/2021  20:44:00      122.885      137.766      -68.932      614.522       47.051      295.520   377637.749     2213.799    87331.822       25.291       23.359      184.608      424.213        5.280      330.437       -2.178      850.078
01/25/2021  20:45:00       43.454       64.750      -63.434      539.395       63.514      258.043   290946.855     4033.972    66586.392       18.576       18.078       77.980      368.187       22.293      330.363       -2.303      850.085
01/25/2021  20:46:00      210.579       53.725     -121.049      788.024       42.287      376.967   620981.184     1788.169   142104.048       41.322       38.244      217.325      543.878        6.263      330.823       -1.537      850.096
01/25/2021  20:47:00      132.667       64.607      -86.598      628.112       41.693      306.293   394524.375     1738.346    93815.471       25.957       24.504      147.562      436.703        8.758      330.557       -1.981      850.119
01/25/2021  20:48:00      165.739       99.048     -102.547      745.422       99.844      348.254   555653.855     9968.773   121281.052       36.720       34.345      193.080      507.520        6.909      330.712       -1.723      850.136
01/25/2021  20:49:00      198.325       99.852     -124.614      798.410      196.947      386.414   637458.626    38788.070   149316.064       44.502       41.278      222.043      531.129        5.722      330.926       -1.366      850.157
01/25/2021  20:50:00      155.542       98.747      -95.756      677.877       47.635      325.589   459517.520     2269.134   106007.930       30.533       28.390      184.240      468.465        6.465      330.660       -1.810      850.168
01/25/2021  20:51:00      170.516      176.694     -103.221      716.920       92.007      339.147   513974.529     8465.284   115020.777       35.407       31.873      245.553      491.567        4.008      330.638       -1.847      850.182
01/25/2021  20:52:00       91.494      150.755      -72.195      612.778       56.289      289.820   375497.413     3168.465    83995.754       24.939       23.133      176.347      419.502        5.659      330.445       -2.165      850.189
01/25/2021  20:53:00      204.214      101.888     -106.324      734.392       33.652      347.391   539331.766     1132.471   120680.530       36.213       33.057      228.220      503.893        4.875      330.733       -1.688      850.187
01/25/2021  20:54:00      170.741       64.930     -101.403      718.752       54.481      342.969   516604.109     2968.148   117627.691       34.029       31.860      182.670      495.738        7.365      330.727       -1.698      850.199
01/25/2021  20:55:00      186.776       30.845      -90.324      687.064       34.809      328.236   472056.437     1211.693   107738.957       31.238       29.050      189.306      473.790        6.264      330.742       -1.676      850.198
01/25/2021  20:56:00       70.367       85.596      -57.330      588.700       33.422      277.420   346567.176     1117.036    76962.043       22.001       21.232      110.807      401.665       13.140      330.464       -2.136      850.206
01/25/2021  20:57:00       95.474       25.117      -85.076      633.686       52.057      299.837   401557.801     2709.890    89902.269       25.547       24.708       98.723      433.119       19.248      330.535       -2.016      850.207
01/25/2021  20:58:00       84.070      167.126      -77.630      582.201      137.226      274.308   338957.736    18831.033    75244.859       23.694       21.652      187.080      395.993        4.480      330.375       -2.283      850.213
01/25/2021  20:59:00      146.704      174.316     -106.443      752.119       46.127      359.201   565683.353     2127.684   129025.423       37.989       34.842      227.834      518.642        5.182      330.653       -1.818      850.219
01/25/2021  21:00:00      105.206      179.055      -58.715      561.060       55.827      266.503   314788.004     3116.599    71023.597       21.767       19.446      207.675      384.001        3.419      330.330       -2.359      850.202
01/25/2021  21:01:00      128.487      122.537      -74.446      617.932       61.610      294.788   381839.510     3795.769    86900.161       25.470       23.627      177.551      424.936        5.728      330.435       -2.182      850.202
01/25/2021  21:02:00      144.283       67.985      -87.071      678.041       34.000      324.474   459740.077     1156.015   105283.052       29.948       28.309      159.498      468.081        8.613      330.739       -1.679      850.224
01/25/2021  21:03:00       73.278      113.732      -63.533      611.633       72.970      291.082   374094.717     5324.674    84728.702       24.314       23.207      135.294      418.779        9.581      330.413       -2.217      850.233
01/25/2021  21:04:00      119.291      102.685      -85.896      648.729       44.764      309.791   420849.646     2003.818    95970.422       27.538       25.941      157.399      447.391        8.079      330.554       -1.986      850.238
01/25/2021  21:05:00       90.243       93.175      -84.188      666.531       40.821      317.714   444263.219     1666.361   100942.465       28.528       27.344      129.713      457.972       12.466      330.557       -1.978      850.255
01/25/2021  21:06:00      132.058      100.455      -67.588      604.948       48.353      288.658   365961.962     2338.051    83323.669       24.176       22.581      165.924      416.884        6.313      330.444       -2.168      850.261
01/25/2021  21:07:00       61.037       46.546      -46.855      513.042       56.486      244.281   263211.980     3190.651    59672.969       16.701       16.304       76.760      351.921       21.020      330.411       -2.224      850.268
01/25/2021  21:08:00      105.069       68.358      -76.061      623.105       57.792      294.469   388259.363     3339.862    86712.201       24.980       23.916      125.349      425.745       11.536      330.582       -1.941      850.271
01/25/2021  21:09:00       89.710       80.565      -61.722      587.688       46.131      281.643   345377.610     2128.035    79322.631       22.250       21.341      120.576      405.160       11.291      330.415       -2.215      850.260
01/25/2021  21:10:00       75.379        5.213      -61.090      525.268       44.246      246.292   275906.275     1957.666    60659.978       17.391       16.926       75.559      356.154       22.218      330.375       -2.284      850.255
01/25/2021  21:11:00      159.079       21.223      -84.518      625.858       56.123      296.851   391697.932     3149.749    88120.240       25.783       24.148      160.488      429.934        7.177      330.538       -2.012      850.254
01/25/2021  21:12:00      174.918      115.173     -100.258      756.387       48.992      358.974   572120.582     2400.221   128862.137       37.850       35.169      209.430      520.084        6.167      330.747       -1.661      850.252
01/25/2021  21:13:00       85.502      101.794      -90.449      634.306       51.989      297.014   402343.512     2702.851    88217.048       25.945       24.663      132.938      431.509       10.536      330.571       -1.957      850.260
01/25/2021  21:14:00       73.734      105.920      -58.320      590.111       45.494      279.902   348230.509     2069.733    78345.276       22.426       21.432      129.058      405.293        9.862      330.405       -2.231      850.263
01/25/2021  21:15:00       39.839       87.508      -49.495      526.713       67.312      247.685   277427.088     4530.955    61347.672       17.743       17.165       96.150      358.910       13.934      330.333       -2.353      850.273
01/25/2021  21:16:00      147.813      117.615      -86.849      669.691       74.778      317.107   448485.435     5591.676   100556.693       29.881       27.732      188.897      458.639        5.895      330.562       -1.972      850.273
01/25/2021  21:17:00       96.268       75.971      -74.080      592.500       41.668      283.390   351056.727     1736.209    80309.691       22.672       21.655      122.634      408.866       11.116      330.445       -2.166      850.286
01/25/2021  21:18:00       53.945       65.532      -73.926      626.602       37.211      297.346   392630.326     1384.680    88414.639       24.745       24.121       84.879      427.776       25.400      330.418       -2.208      850.294
01/25/2021  21:19:00      126.290       35.696      -51.949      650.348       54.167      309.174   422953.010     2934.109    95588.532       27.059       26.074      131.238      445.774       11.537      330.581       -1.940      850.299
01/25/2021  21:20:00      127.208      -18.373      -46.160      555.987       26.126      268.247   309121.822      682.566    71956.385       20.012       19.088      128.528      385.213        8.983      330.373       -2.285      850.296
01/25/2021  21:21:00      108.491        8.950      -66.490      576.582       20.335      272.107   332447.355      413.500    74042.405       21.150       20.345      108.859      395.243       13.182      330.461       -2.142      850.296
01/25/2021  21:22:00       87.307        4.931      -74.780      630.955       35.739      300.832   398103.712     1277.252    90499.926       25.145       24.494       87.447      432.227       24.431      330.546       -1.999      850.303
01/25/2021  21:23:00      108.359       64.458      -61.685      600.763       32.330      285.822   360916.171     1045.200    81694.468       23.159       22.183      126.081      413.018       10.731      330.498       -2.079      850.302
01/25/2021  21:24:00       74.246       44.352      -68.742      616.214       28.076      294.569   379720.276      788.281    86771.051       23.964       23.364       86.484      424.567       24.100      330.463       -2.135      850.301
01/25/2021  21:25:00        3.885       48.748      -42.526      461.402       33.303      220.369   212891.946     1109.094    48562.708       13.333       13.128       48.903      316.301       41.835      330.130       -2.687      850.311
01/25/2021  21:26:00      128.712        7.158      -68.840      630.986       42.913      308.369   398143.137     1841.523    95091.259       25.811       24.754      128.910      439.610       11.629      330.468       -2.127      850.315
01/25/2021  21:27:00      113.733       22.970      -80.941      644.611       32.598      309.768   415523.909     1062.626    95956.339       26.617       25.627      116.029      444.620       14.684      330.541       -2.007      850.319
01/25/2021  21:28:00       95.006       77.363      -67.596      604.203       39.828      288.823   365060.891     1586.233    83418.763       23.473       22.503      122.520      417.187       11.594      330.467       -2.128      850.340
01/25/2021  21:29:00      246.730       95.142     -129.939      802.037       50.944      385.722   643263.438     2595.306   148781.081       44.056       39.732      264.439      555.270        4.409      330.969       -1.296      850.360
01/25/2021  21:30:00      212.040       52.851      -84.512      737.457       34.389      352.718   543842.338     1182.626   124410.074       36.202       33.472      218.528      508.521        5.415      330.736       -1.683      850.367
01/25/2021  21:31:00       85.989       93.101      -37.812      414.846       26.907      200.617   172097.497      724.004    40246.992       11.523       10.653      126.735      287.161        5.134      330.204       -2.567      850.382
01/25/2021  21:32:00      177.631       86.134     -106.192      766.536       33.682      364.688   587577.824     1134.470   132997.082       38.583       36.085      197.413      527.742        7.146      330.771       -1.623      850.400
01/25/2021  21:33:00       50.840       83.681      -57.889      519.922       39.589      249.812   270319.204     1567.328    62406.096       17.355       16.715       97.914      358.938       13.438      330.355       -2.316      850.415
01/25/2021  21:34:00       13.362      151.217      -36.459      440.012       64.797      210.881   193610.313     4198.633    44470.988       13.328       12.114      151.806      300.784        3.926      330.131       -2.686      850.441
01/25/2021  21:35:00      156.917      119.163      -87.629      688.054       28.214      331.308   473418.470      796.031   109764.744       31.512       29.199      197.035      476.295        5.843      330.610       -1.890      850.463
01/25/2021  21:36:00      153.108      128.120      -99.767      709.982       52.387      342.796   504074.196     2744.358   117509.358       33.694       31.216      199.642      491.843        6.069      330.614       -1.883      850.480
01/25/2021  21:37:00       43.986       91.141      -44.089      412.905       67.316      195.529   170490.811     4531.393    38231.655       11.267       10.663      101.200      280.726        7.695      330.280       -2.443      850.493
01/25/2021  21:38:00      139.606      163.591      -90.407      674.649       30.393      324.073   455150.866      923.753   105023.330       30.764       28.055      215.062      466.244        4.700      330.693       -1.757      850.511
01/25/2021  21:39:00      140.856      143.419      -84.718      700.005       43.279      331.060   490006.642     1873.105   109600.517       32.441       30.074      201.020      479.608        5.692      330.643       -1.836      850.529
01/25/2021  21:40:00       84.964      162.986      -64.344      584.180       68.472      277.333   341266.187     4688.483    76913.344       23.031       21.143      183.803      401.125        4.763      330.507       -2.067      850.533
01/25/2021  21:41:00       88.812      154.646      -93.215      691.792       62.568      330.403   478576.252     3914.803   109166.152       31.595       29.583      178.334      473.938        7.063      330.671       -1.792      850.548
01/25/2021  21:42:00      113.588       90.801      -90.284      701.689       73.323      330.411   492367.077     5376.282   109171.145       31.797       30.346      145.420      475.723       10.702      330.653       -1.821      850.557
01/25/2021  21:43:00       91.106      136.228      -77.003      584.043       63.737      280.943   341105.735     4062.437    78928.868       22.835       21.205      163.886      402.162        6.022      330.574       -1.955      850.556
01/25/2021  21:44:00      117.253       38.596      -90.659      651.225       29.929      308.008   424094.102      895.769    94869.189       27.155       25.993      123.442      446.852       13.104      330.739       -1.681      850.559
01/25/2021  21:45:00      113.410       70.068      -86.468      672.631       87.617      317.112   452432.510     7676.790   100560.036       29.284       28.033      133.310      458.549       11.832      330.629       -1.860      850.565
01/25/2021  21:46:00      193.320       50.150     -138.421      845.510       51.727      402.702   714887.713     2675.723   162168.709       46.920       43.987      199.719      580.626        8.452      330.974       -1.286      850.568
01/25/2021  21:47:00       70.257       47.117      -68.518      616.023       53.566      291.334   379484.678     2869.302    84875.308       23.944       23.361       84.594      420.654       24.727      330.491       -2.089      850.577
01/25/2021  21:48:00       95.385      122.818      -86.767      708.375       42.928      335.678   501795.302     1842.778   112679.960       32.388       30.816      155.507      483.463        9.666      330.703       -1.738      850.587
01/25/2021  21:49:00        7.625      136.381      -47.828      424.701       50.765      205.345   180371.079     2577.044    42166.415       12.298       11.256      136.594      291.505        4.554      330.330       -2.359      850.600
01/25/2021  21:50:00       72.909       73.873      -88.294      671.384       55.407      320.382   450756.810     3069.971   102644.715       28.740       27.824      103.793      459.153       19.570      330.633       -1.854      850.613
01/25/2021  21:51:00       58.120       69.303      -88.735      646.398       59.377      316.422   417830.948     3525.591   100122.618       26.866       26.074       90.448      447.236       24.450      330.639       -1.846      850.614
01/25/2021  21:52:00       98.522       83.711      -89.706      663.700       55.175      316.150   440497.374     3044.231    99951.059       28.401       27.175      129.283      455.930       12.437      330.649       -1.829      850.617
01/25/2021  21:53:00      -34.682       95.393      -64.762      514.545       49.282      243.547   264756.117     2428.722    59315.096       17.043       16.325      101.502      351.775       12.011      330.326       -2.365      850.631
01/25/2021  21:54:00       31.174      103.979      -61.482      533.418       47.057      252.212   284535.261     2214.375    63611.073       18.289       17.518      108.551      363.426       11.209      330.430       -2.195      850.627
01/25/2021  21:55:00       95.325      118.196      -62.869      573.143       44.205      271.194   328492.686     1954.044    73546.118       21.542       20.200      151.845      392.620        6.686      330.532       -2.024      850.623
01/25/2021  21:56:00       57.820      114.987      -77.691      645.479       51.607      305.157   416642.883     2663.328    93120.800       26.740       25.621      128.706      441.004       11.741      330.526       -2.031      850.620
01/25/2021  21:57:00       10.081      100.800      -82.300      627.682       76.003      298.480   393984.630     5776.504    89090.249       25.284       24.443      101.302      424.219       17.536      330.501       -2.075      850.621
01/25/2021  21:58:00      100.604       51.683      -79.008      644.351       42.968      312.822   415188.674     1846.211    97857.348       26.685       25.745      113.103      447.262       15.638      330.616       -1.884      850.618
01/25/2021  21:59:00      125.671       21.151     -104.446      739.424       50.072      348.506   546747.527     2507.188   121456.403       34.879       33.536      127.438      504.243       15.656      330.832       -1.524      850.619
01/25/2021  22:00:00       97.995       52.197      -71.256      576.540       60.238      280.984   332398.634     3628.661    78952.122       21.610       20.749      111.030      399.845       12.969      330.483       -2.105      850.614
01/25/2021  22:01:00      110.344       45.047      -66.329      598.517       70.257      284.680   358222.725     4936.063    81042.652       23.131       22.210      119.185      410.043       11.836      330.583       -1.940      850.611
01/25/2021  22:02:00       10.200       69.313      -62.963      554.741       58.277      259.295   307737.066     3396.218    67233.705       19.354       18.918       70.059      370.094       27.906      330.439       -2.179      850.619
01/25/2021  22:03:00       93.234      119.943      -56.461      530.237       60.375      249.340   281151.764     3645.156    62170.500       18.654       17.348      151.918      361.201        5.653      330.458       -2.147      850.631
01/25/2021  22:04:00       25.258       87.349      -59.552      485.927       37.333      233.120   236125.220     1393.743    54345.022       15.178       14.593       90.928      333.544       13.456      330.394       -2.254      850.633
01/25/2021  22:05:00      123.872      127.478      -80.751      648.915       55.440      308.241   421090.505     3073.632    95012.363       27.853       25.959      177.749      445.211        6.274      330.596       -1.916      850.643
01/25/2021  22:06:00      127.625      188.490      -70.379      562.827       44.645      268.509   316774.552     1993.206    72097.222       22.373       19.543      227.633      386.549        2.884      330.392       -2.256      850.650
01/25/2021  22:07:00       32.981      106.504      -27.819      424.113       55.233      203.408   179871.583     3050.646    41374.871       11.870       11.215      111.493      291.315        6.827      330.339       -2.345      850.669
01/25/2021  22:08:00      115.891      125.086      -87.307      682.124       55.596      320.475   465293.740     3090.921   102704.045       30.377       28.554      170.521      465.721        7.459      330.649       -1.827      850.690
01/25/2021  22:09:00       84.115       74.553      -70.316      662.572       58.164      313.722   439002.149     3383.098    98421.792       27.908       27.040      112.398      452.208       16.187      330.565       -1.967      850.707
01/25/2021  22:10:00       61.290      141.871      -44.298      506.707       63.413      240.672   256752.231     4021.272    57923.042       17.220       15.935      154.544      347.265        5.049      330.393       -2.254      850.717
01/25/2021  22:11:00      170.313       69.251      -90.597      721.625       34.991      342.989   520742.644     1224.391   117641.228       34.067       31.980      183.854      496.667        7.298      330.820       -1.545      850.734
01/25/2021  22:12:00       83.655      122.984      -74.908      614.267       42.584      294.802   377324.163     1813.395    86908.136       24.679       23.302      148.739      423.537        8.108      330.591       -1.927      850.751
01/25/2021  22:13:00      129.939       65.047      -78.762      677.716       32.821      323.913   459298.347     1077.225   104919.322       29.619       28.265      145.311      467.085       10.332      330.635       -1.850      850.768
01/25/2021  22:14:00       83.093       58.535      -63.349      609.137       31.327      290.873   371047.350      981.353    84607.227       23.539       22.832      101.641      419.993       17.075      330.540       -2.009      850.793
01/25/2021  22:15:00      105.310       47.384      -77.562      567.834      115.187      272.020   322435.337    13268.116    73995.031       21.444       20.485      115.479      377.458       10.684      330.497       -2.081      850.809
01/25/2021  22:16:00        1.297       87.850      -46.038      429.355       45.385      203.149   184345.814     2059.840    41269.450       11.871       11.384       87.860      290.633       10.942      330.338       -2.348      850.830
01/25/2021  22:17:00      194.368       55.148     -134.743      767.574       38.579      372.499   589170.576     1488.312   138755.606       39.404       36.471      202.040      533.336        6.968      330.893       -1.421      850.849
01/25/2021  22:18:00       47.988      102.871      -64.511      570.492       53.655      270.074   325460.622     2878.874    72940.204       20.908       20.064      113.514      389.484       11.773      330.476       -2.117      850.867
01/25/2021  22:19:00       11.491       43.209      -63.204      529.577       59.421      249.528   280451.608     3530.871    62264.195       17.605       17.312       44.711      360.690       65.080      330.441       -2.175      850.869
01/25/2021  22:20:00       49.271       45.468      -77.164      661.882      161.606      319.045   438087.374    26116.463   101789.787       28.810       28.300       67.044      439.967       43.064      330.609       -1.894      850.874
01/25/2021  22:21:00      195.907       38.416     -105.568      760.321       39.610      367.619   578087.445     1568.913   135143.905       38.275       35.740      199.638      527.299        6.976      330.915       -1.387      850.872
01/25/2021  22:22:00      108.009       46.798      -82.472      655.767       53.117      312.604   430029.777     2821.389    97721.429       27.550       26.529      117.712      449.417       14.577      330.631       -1.857      850.882
01/25/2021  22:23:00      -17.080       46.046      -50.212      511.294       38.867      241.965   261421.577     1510.652    58547.237       16.314       16.074       49.112      348.200       50.268      330.313       -2.385      850.887
01/25/2021  22:24:00      -38.576       54.713      -42.326      455.133       50.510      211.609   207146.226     2551.286    44778.234       13.032       12.724       66.945      307.646       21.119      330.278       -2.445      850.889
01/25/2021  22:25:00      127.613       56.008     -124.833      815.651       46.664      385.295   665287.060     2177.553   148452.522       42.529       40.796      139.363      559.376       16.111      330.917       -1.382      850.896
01/25/2021  22:26:00       71.520       87.292      -76.205      603.491       44.122      288.463   364200.989     1946.751    83210.661       23.385       22.468      112.850      413.614       13.434      330.502       -2.072      850.904
01/25/2021  22:27:00       26.167       69.330      -59.259      564.512       51.348      272.531   318673.462     2636.576    74272.982       20.221       19.779       74.104      388.735       27.519      330.419       -2.210      850.917
01/25/2021  22:28:00       17.852       65.904      -50.490      512.862       35.300      243.570   263027.167     1246.108    59326.369       16.534       16.180       68.279      351.591       26.515      330.376       -2.281      850.916
01/25/2021  22:29:00      110.276       37.323      -90.563      696.645       41.182      330.992   485314.269     1695.931   109555.524       30.904       29.828      116.421      478.396       16.886      330.710       -1.727      850.918
01/25/2021  22:30:00      120.402       32.959      -88.221      661.236       41.177      319.921   437232.583     1695.562   102349.723       28.221       27.064      124.832      458.140       13.469      330.680       -1.778      850.914
01/25/2021  22:31:00      144.620       99.884      -73.139      584.328       53.820      278.716   341439.046     2896.612    77682.438       22.904       21.101      175.761      402.459        5.243      330.551       -1.994      850.916
01/25/2021  22:32:00      109.100       87.750      -58.830      602.053       53.909      288.052   362468.065     2906.174    82974.094       23.561       22.417      140.010      415.602        8.811      330.469       -2.126      850.927
01/25/2021  22:33:00      116.377       97.977      -73.758      665.437       41.483      313.366   442806.912     1720.802    98198.232       28.554       27.136      152.129      455.308        8.958      330.595       -1.916      850.943
01/25/2021  22:34:00       82.308       92.790      -60.883      547.720       29.461      260.401   299996.806      867.946    67808.907       19.380       18.434      124.035      376.282        9.203      330.389       -2.259      850.961
01/25/2021  22:35:00      113.252      105.548      -71.672      631.297       43.153      300.396   398536.367     1862.167    90237.595       25.976       24.532      154.811      433.835        7.853      330.595       -1.919      850.975
01/25/2021  22:36:00      141.521      103.064      -70.489      648.349       56.256      305.079   420356.419     3164.750    93073.079       27.599       25.830      175.073      442.904        6.400      330.549       -1.993      850.987
01/25/2021  22:37:00       99.571       84.000      -82.497      582.443       58.178      280.088   339239.963     3384.698    78449.405       22.233       21.054      130.270      402.378        9.541      330.519       -2.045      850.984
01/25/2021  22:38:00      111.687       98.922      -91.258      669.411       57.364      321.984   448111.596     3290.633   103673.781       29.271       27.754      149.197      463.011        9.631      330.616       -1.882      850.996
01/25/2021  22:39:00       86.555      114.726      -80.433      632.753       55.965      301.675   400376.019     3132.134    91007.609       26.071       24.726      143.714      435.808        9.196      330.548       -1.994      851.004
01/25/2021  22:40:00      151.213      105.850     -129.468      760.711       57.766      360.557   578681.496     3336.895   130001.332       38.127       35.601      184.579      521.841        7.993      330.806       -1.565      851.024
01/25/2021  22:41:00      127.854      111.009      -81.500      654.654       40.605      310.950   428571.316     1648.726    96689.749       28.100       26.345      169.321      449.670        7.053      330.578       -1.946      851.038
01/25/2021  22:42:00      127.899      183.644      -84.641      697.819       82.378      333.202   486950.772     6786.055   111023.364       33.088       30.238      223.793      480.351        4.607      330.583       -1.934      851.038
01/25/2021  22:43:00      195.140       76.116     -141.313      856.024       66.657      412.358   732777.291     4443.169   170039.023       48.536       45.363      209.460      591.048        7.962      331.041       -1.174      851.048
01/25/2021  22:44:00       94.003      152.555      -79.171      603.290       66.040      283.541   363958.750     4361.262    80395.337       24.345       22.436      179.192      410.413        5.246      330.445       -2.166      851.058
01/25/2021  22:45:00       25.526       91.768      -60.812      518.791       53.035      246.752   269144.600     2812.734    60886.622       17.274       16.642       95.252      354.726       13.869      330.316       -2.381      851.059
01/25/2021  22:46:00       43.598      131.058      -66.932      543.852       63.147      252.066   295775.144     3987.502    63537.515       19.335       18.165      138.120      368.247        7.108      330.347       -2.330      851.063
01/25/2021  22:47:00       55.913      170.015      -72.536      568.244       69.233      270.129   322901.097     4793.275    72969.873       21.889       20.033      178.973      389.538        4.737      330.308       -2.394      851.064
01/25/2021  22:48:00       36.992      164.216      -45.672      489.822       48.878      230.716   239925.833     2389.013    53229.846       16.292       14.777      168.331      333.648        3.929      330.198       -2.576      851.067
01/25/2021  22:49:00      109.099      162.174      -88.675      656.043       49.989      310.968   430392.822     2498.876    96700.900       28.772       26.480      195.456      450.408        5.310      330.529       -2.027      851.072
01/25/2021  22:50:00      164.489       84.359      -99.072      762.634       43.965      362.979   581610.087     1932.939   131754.030       37.949       35.765      184.860      524.859        8.061      330.710       -1.725      851.081
01/25/2021  22:51:00      132.069       81.429      -96.958      702.146       43.055      328.766   493009.571     1853.718   108087.186       31.808       30.148      155.154      477.299        9.464      330.581       -1.939      851.080
01/25/2021  22:52:00      174.474      163.358     -117.470      760.862       54.472      361.103   578910.470     2967.172   130395.134       39.145       35.614      239.013      522.440        4.778      330.682       -1.771      851.098
01/25/2021  22:53:00      177.552      142.520     -125.033      813.924       63.013      388.342   662472.656     3970.595   150809.804       44.219       40.863      227.677      561.172        6.075      330.755       -1.649      851.101
01/25/2021  22:54:00       38.324      115.860      -48.855      521.406       54.655      249.993   271863.904     2987.140    62496.522       17.724       16.867      122.034      358.893        8.649      330.210       -2.554      851.100
01/25/2021  22:55:00      104.588      153.798     -100.386      702.833       63.974      326.697   493973.579     4092.626   106730.835       32.460       30.240      185.990      476.980        6.577      330.552       -1.986      851.100
01/25/2021  22:56:00       44.566      181.846      -43.553      510.657       89.913      244.089   260770.214     8084.324    59579.424       18.262       16.422      187.227      350.158        3.498      330.141       -2.670      851.115
01/25/2021  22:57:00       38.044      201.205      -57.483      515.140       50.940      240.978   265368.759     2594.855    58070.516       18.557       16.302      204.770      349.929        2.920      330.149       -2.657      851.124
01/25/2021  22:58:00       94.765      144.688     -105.832      691.187       57.965      330.861   477740.061     3359.945   109469.185       31.572       29.528      172.960      475.766        7.567      330.446       -2.160      851.138
01/25/2021  22:59:00       10.870      192.922      -66.945      564.033       73.076      270.370   318132.697     5340.093    73099.854       21.911       19.829      193.228      387.606        4.024      330.182       -2.602      851.160
01/25/2021  23:00:00        4.581      204.604      -47.116      466.439       53.584      222.518   217565.213     2871.237    49514.255       15.697       13.498      204.655      318.468        2.422      330.038       -2.841      851.171
01/25/2021  23:01:00       81.813      235.702      -83.991      595.066       58.288      285.641   354103.129     3397.472    81590.816       25.410       21.955      249.497      410.189        2.703      330.214       -2.549      851.195
01/25/2021  23:02:00       25.576      152.160      -82.617      607.780       47.505      289.049   369396.622     2256.745    83549.218       24.282       22.760      154.294      415.911        7.266      330.242       -2.500      851.196
01/25/2021  23:03:00      203.121      208.878     -131.260      807.462       80.864      383.130   651994.077     6538.934   146788.376       45.355       40.266      291.356      554.537        3.623      330.639       -1.840      851.189
01/25/2021  23:04:00      133.500      119.031      -80.802      729.317       41.243      348.929   531903.404     1700.988   121751.247       34.680       32.768      178.860      502.496        7.893      330.561       -1.970      851.187
01/25/2021  23:05:00      108.177      225.235      -99.501      713.430       53.635      343.948   508982.183     2876.758   118299.899       35.111       31.508      249.866      493.245        3.897      330.421       -2.202      851.184
01/25/2021  23:06:00       33.070      159.301      -60.715      482.758       51.016      230.628   233055.504     2602.642    53189.355       15.944       14.442      162.697      331.736        4.157      330.144       -2.663      851.192
01/25/2021  23:07:00      165.282      104.645      -91.130      717.519       59.221      342.031   514833.797     3507.123   116984.940       34.082       31.766      195.624      493.505        6.364      330.536       -2.012      851.193
01/25/2021  23:08:00       74.025      136.683      -72.762      592.027       74.939      280.109   350495.447     5615.830    78460.859       23.192       21.729      155.442      404.493        6.772      330.301       -2.403      851.195
01/25/2021  23:09:00       67.046      146.248      -81.966      608.817       73.626      291.326   370657.766     5420.813    84870.740       24.668       23.047      160.884      417.635        6.739      330.325       -2.362      851.210
01/25/2021  23:10:00      109.473      171.950      -94.304      657.718       74.743      308.984   432592.655     5586.555    95471.146       29.193       26.683      203.840      447.953        4.829      330.343       -2.334      851.213
01/25/2021  23:11:00       71.125      169.630      -70.167      611.610       59.776      294.623   374066.429     3573.124    86802.593       25.150       23.222      183.938      421.259        5.245      330.268       -2.458      851.223
01/25/2021  23:12:00       65.296      218.206      -63.210      550.023       48.375      264.359   302525.215     2340.107    69885.836       21.523       18.738      227.766      379.103        2.770      330.083       -2.763      851.242
01/25/2021  23:13:00      158.879       74.924     -105.473      761.378       66.692      359.304   579696.983     4447.767   129099.472       37.746       35.662      175.659      521.067        8.799      330.613       -1.880      851.247
01/25/2021  23:14:00      153.228      103.196      -88.762      666.850       63.955      316.847   444689.357     4090.230   100392.263       29.547       27.459      184.739      458.835        6.169      330.435       -2.179      851.249
01/25/2021  23:15:00      106.224       64.952      -70.222      628.404       52.243      298.683   394892.173     2729.338    89211.541       25.353       24.342      124.508      432.091       12.043      330.358       -2.308      851.255
01/25/2021  23:16:00      106.527       45.737      -68.056      637.399       38.785      304.925   406278.063     1504.310    92979.317       25.931       25.038      115.931      438.992       14.339      330.309       -2.387      851.259
01/25/2021  23:17:00       69.998       51.125      -69.979      641.705       55.869      304.161   411784.947     3121.400    92514.168       25.981       25.371       86.680      439.890       25.754      330.224       -2.526      851.273
01/25/2021  23:18:00      296.473       29.209     -151.164      894.874       23.740      427.204   800798.897      563.583   182502.939       54.752       49.193      297.908      617.753        4.300      330.879       -1.437      851.279
01/25/2021  23:19:00      351.364       25.415     -168.465      958.371       23.869      460.140   918475.460      569.711   211728.983       64.139       56.539      352.282      663.179        3.544      331.152       -0.986      851.288
01/25/2021  23:20:00      109.618       16.643      -75.397      614.725       36.744      295.378   377886.879     1350.115    87248.173       24.213       23.324      110.874      423.891       14.617      330.287       -2.423      851.302
01/25/2021  23:21:00      126.878       67.270      -75.235      665.736       52.362      315.482   443204.852     2741.736    99528.698       28.577       27.274      143.608      457.629       10.155      330.367       -2.290      851.310
01/25/2021  23:22:00       95.759       67.638      -89.692      697.079       40.301      333.847   485919.506     1624.208   111454.088       31.027       29.950      117.237      480.872       16.824      330.371       -2.283      851.316
01/25/2021  23:23:00      124.330       63.562      -71.302      633.204       36.770      304.852   400947.636     1352.064    92934.947       25.980       24.762      139.635      436.977        9.793      330.334       -2.346      851.314
01/25/2021  23:24:00      276.011       66.083     -118.539      847.131       40.899      408.578   717630.688     1672.741   166935.795       49.023       44.312      283.812      587.173        4.280      330.773       -1.616      851.326
01/25/2021  23:25:00      118.979       30.825     -107.042      739.612       50.522      355.273   547026.294     2552.468   126218.856       35.104       33.790      122.907      510.628       17.261      330.482       -2.099      851.338
01/25/2021  23:26:00      223.255       22.894     -103.561      780.162       30.285      372.386   608652.018      917.189   138671.223       40.451       37.412      224.426      536.766        5.720      330.607       -1.891      851.339
01/25/2021  23:27:00      206.724        1.927      -96.041      761.621       46.995      361.451   580065.944     2208.565   130646.716       38.229       35.646      206.733      522.874        6.397      330.490       -2.084      851.353
01/25/2021  23:28:00      124.780      -16.167      -96.675      666.783       39.265      323.178   444599.618     1541.736   104444.040       28.776       27.529      125.823      462.177       13.493      330.362       -2.298      851.359
01/25/2021  23:29:00      318.137        1.260     -153.070      891.481       29.025      427.116   794738.355      842.425   182427.654       55.111       48.900      318.140      616.308        3.753      330.867       -1.457      851.360
01/25/2021  23:30:00      323.104       -2.806     -148.953      887.763       33.507      424.846   788123.058     1122.693   180494.243       54.796       48.487      323.116      613.338        3.603      330.973       -1.284      851.374
01/25/2021  23:31:00      133.207       25.051      -74.967      627.887       27.716      298.947   394242.027      768.179    89369.607       25.408       24.219      135.542      432.729       10.193      330.240       -2.501      851.370
01/25/2021  23:32:00      117.210       26.734      -60.291      575.006       19.408      273.456   330632.264      376.674    74778.432       21.185       20.289      120.220      395.813       10.840      330.187       -2.589      851.375
01/25/2021  23:33:00      127.085      -21.003      -68.243      582.047       97.363      279.378   338778.869     9479.542    78052.216       22.369       21.316      128.809      394.876        9.398      330.271       -2.451      851.374
01/25/2021  23:34:00      277.239      -25.290     -114.759      803.293       24.701      386.136   645279.315      610.130   149101.281       44.266       39.750      278.390      556.371        3.994      330.786       -1.596      851.374
01/25/2021  23:35:00      166.440        0.462      -97.591      621.274       20.155      296.076   385980.781      406.226    87661.248       25.554       23.702      166.441      428.526        6.629      330.383       -2.267      851.377
01/25/2021  23:36:00      257.117      -20.784     -137.613      818.760       30.884      387.590   670367.671      953.839   150225.888       45.334       41.077      257.956      562.053        4.747      330.775       -1.612      851.383
01/25/2021  23:37:00      315.152       44.893     -141.617      853.838       41.907      407.803   729039.624     1756.210   166303.145       50.906       44.855      318.334      589.767        3.432      330.880       -1.440      851.385
01/25/2021  23:38:00      215.461      115.818     -110.044      760.714       46.162      359.564   578686.531     2130.968   129286.209       39.087       35.505      244.616      522.286        4.559      330.608       -1.891      851.385
01/25/2021  23:39:00      198.459       93.540      -93.767      753.767       48.929      357.767   568165.292     2393.999   127996.952       37.759       34.928      219.398      518.092        5.576      330.511       -2.049      851.384
01/25/2021  23:40:00      157.645       70.457      -74.324      645.201       33.307      305.509   416283.815     1109.342    93335.686       27.293       25.536      172.674      442.918        6.580      330.299       -2.403      851.385
01/25/2021  23:41:00      163.925      101.998      -81.407      648.865       36.293      308.662   421025.953     1317.184    95272.159       28.065       25.881      193.068      446.832        5.356      330.307       -2.390      851.389
01/25/2021  23:42:00       28.218       74.069      -36.850      417.812       27.338      197.705   174566.579      747.393    39087.180       11.097       10.720       79.262      285.770       12.999      330.071       -2.787      851.392
01/25/2021  23:43:00       85.606       33.613      -55.601      566.050       39.325      269.050   320412.302     1546.443    72387.994       20.287       19.717       91.969      387.690       17.770      330.177       -2.606      851.392
01/25/2021  23:44:00      297.758       99.715     -157.986      889.689       38.073      422.010   791545.954     1449.578   178092.367       54.712       48.554      314.011      611.922        3.798      330.906       -1.395      851.397
01/25/2021  23:45:00      235.607       55.582     -121.903      806.296       20.120      386.259   650113.117      404.796   149196.255       43.642       39.986      242.074      557.659        5.307      330.754       -1.649      851.388
01/25/2021  23:46:00      139.045       26.724      -83.021      644.030       22.221      309.909   414774.289      493.776    96043.375       26.902       25.566      141.590      445.904        9.918      330.380       -2.271      851.385
01/25/2021  23:47:00      249.860       27.937     -143.434      874.626       16.963      415.607   764970.218      287.730   172728.830       51.068       46.899      251.417      602.203        5.737      330.845       -1.495      851.381
01/25/2021  23:48:00      111.100       46.111      -75.279      666.007       36.386      316.413   443564.751     1323.927   100117.501       28.245       27.250      120.289      458.281       14.515      330.353       -2.313      851.385
01/25/2021  23:49:00       39.700       17.340      -70.435      533.769       31.172      255.613   284909.466      971.674    65338.156       17.895       17.561       43.322      368.451       72.335      330.161       -2.636      851.382
01/25/2021  23:50:00      113.271       23.721      -87.574      678.842       23.703      325.795   460826.149      561.838   106142.480       29.418       28.377      115.728      469.480       16.457      330.364       -2.295      851.376
01/25/2021  23:51:00      185.498       -5.246     -104.968      746.190       13.625      355.568   556800.090      185.637   126428.844       36.429       34.171      185.572      514.672        7.692      330.527       -2.025      851.368
01/25/2021  23:52:00      137.677        8.358     -104.284      690.240       14.626      330.721   476430.755      213.915   109376.311       30.784       29.301      137.931      477.440       11.982      330.400       -2.237      851.370
01/25/2021  23:53:00      111.182        3.817      -99.817      695.571       21.706      331.094   483819.388      471.131   109623.113       30.800       29.696      111.248      479.543       18.581      330.393       -2.247      851.376
01/25/2021  23:54:00      153.931        4.287      -92.226      730.081       17.971      351.924   533017.950      322.941   123850.196       34.456       32.860      153.991      505.979       10.796      330.520       -2.035      851.372
01/25/2021  23:55:00       90.828       11.644      -81.210      624.363       17.302      299.485   389828.623      299.351    89691.018       24.730       23.991       91.572      431.641       22.219      330.308       -2.389      851.376
01/25/2021  23:56:00       57.491       26.271      -75.881      588.398      119.237      282.871   346212.418    14217.503    80015.897       22.501       22.022       63.209      395.228       39.096      330.297       -2.410      851.380
01/25/2021  23:57:00      175.111       37.614     -107.292      729.120       18.988      343.116   531615.364      360.531   117728.909       34.651       32.485      179.106      499.823        7.788      330.587       -1.928      851.387
01/25/2021  23:58:00      176.833       21.308      -84.527      676.560       18.793      323.353   457733.740      353.169   104556.921       30.064       28.132      178.113      467.239        6.882      330.471       -2.119      851.395
01/25/2021  23:59:00      167.213       -2.916      -74.966      649.745       14.547      307.521   422169.144      211.620    94568.945       27.516       25.847      167.238      446.582        7.131      330.385       -2.263      851.404
01/26/2021  00:00:00      165.123       26.370      -76.874      653.982       19.873      313.053   427692.380      394.932    98001.933       27.987       26.304      167.216      452.049        7.308      330.380       -2.270      851.416
01/26/2021  00:01:00      249.069       41.710     -119.166      816.102       16.152      390.180   666021.738      260.897   152240.181       44.807       40.926      252.538      564.083        4.989      330.669       -1.787      851.424
01/26/2021  00:02:00      259.755       40.911     -123.271      801.239       15.620      380.664   641983.722      243.981   144905.239       43.557       39.357      262.957      551.931        4.406      330.770       -1.624      851.430
01/26/2021  00:03:00      184.656       39.710      -98.175      739.666       22.205      353.917   547106.435      493.070   125257.587       35.894       33.643      188.878      511.194        7.325      330.462       -2.130      851.443
01/26/2021  00:04:00      131.961       11.635      -88.628      669.408       22.335      322.271   448106.968      498.837   103858.291       28.882       27.623      132.473      463.498       12.242      330.422       -2.199      851.459
01/26/2021  00:05:00       98.317       48.402      -68.691      588.926       44.793      279.692   346833.777     2006.419    78227.375       22.181       21.353      109.586      405.444       13.688      330.226       -2.525      851.470
01/26/2021  00:06:00      178.513      112.756     -105.353      711.982       33.324      339.868   506918.460     1110.506   115509.977       33.948       31.177      211.142      491.317        5.415      330.494       -2.081      851.481
01/26/2021  00:07:00      182.192       86.106      -99.671      720.564       32.296      344.340   519212.113     1043.060   118570.143       34.455       31.941      201.515      497.517        6.095      330.512       -2.051      851.490
01/26/2021  00:08:00      158.561       44.664      -84.604      704.177       28.764      336.246   495864.689      827.354   113061.371       32.189       30.488      164.731      485.894        8.700      330.427       -2.189      851.493
01/26/2021  00:09:00      108.794       11.438      -74.144      605.932       22.739      286.744   367153.243      517.062    82221.858       23.358       22.495      109.394      416.117       14.469      330.299       -2.406      851.498
01/26/2021  00:10:00      204.172       30.107     -101.454      717.730       20.331      345.455   515136.790      413.358   119338.987       34.375       31.744      206.380      497.566        5.813      330.536       -2.013      851.507
01/26/2021  00:11:00      137.962       46.199      -58.675      583.075       15.063      278.552   339976.852      226.886    77591.232       22.111       20.890      145.492      402.575        7.656      330.200       -2.569      851.526
01/26/2021  00:12:00      210.289       36.261     -103.903      755.365       18.803      361.568   570576.435      353.562   130731.243       37.885       35.083      213.392      522.265        5.990      330.554       -1.980      851.534
01/26/2021  00:13:00      164.795       47.864      -87.328      670.112       14.281      318.874   449049.810      203.938   101680.322       29.389       27.547      171.605      461.941        7.246      330.407       -2.224      851.538
01/26/2021  00:14:00      197.593       51.021      -95.272      723.944       31.362      348.379   524094.878      983.588   121367.626       34.845       32.322      204.074      501.480        6.039      330.403       -2.229      851.544
01/26/2021  00:15:00      133.991       41.657      -68.097      614.517       25.914      295.307   377631.183      671.559    87206.349       24.482       23.275      140.317      425.420        9.192      330.217       -2.537      851.551
01/26/2021  00:16:00      223.405       68.888     -108.512      748.524       36.231      356.423   560288.368     1312.714   127037.443       37.739       34.432      233.784      516.152        4.874      330.442       -2.164      851.565
01/26/2021  00:17:00      279.464       73.806     -149.098      865.707       23.295      411.506   749448.118      542.654   169337.369       51.236       45.966      289.046      596.527        4.259      330.798       -1.572      851.571
01/26/2021  00:18:00      218.143       61.018     -126.352      802.165       39.563      383.933   643468.134     1565.214   147404.918       42.968       39.622      226.516      554.325        5.989      330.605       -1.893      851.577
01/26/2021  00:19:00      210.942       59.495     -111.197      754.445       24.309      359.338   569186.715      590.944   129123.649       37.950       34.945      219.172      520.192        5.633      330.481       -2.099      851.590
01/26/2021  00:20:00      152.936       59.026      -94.048      718.611       32.534      342.173   516402.281     1058.474   117082.332       33.500       31.727      163.932      494.840        9.112      330.352       -2.311      851.600
01/26/2021  00:21:00      135.175       93.883      -93.781      711.854       45.177      336.344   506735.478     2041.004   113127.136       32.876       31.095      164.579      488.673        8.816      330.329       -2.351      851.605
01/26/2021  00:22:00      145.849      104.071      -91.676      696.568       29.333      332.492   485207.381      860.423   110551.023       31.844       29.831      179.172      480.569        7.194      330.263       -2.458      851.616
01/26/2021  00:23:00      217.290       88.453     -121.725      798.940       41.618      380.752   638305.692     1732.035   144971.812       42.727       39.250      234.603      550.887        5.514      330.589       -1.920      851.628
01/26/2021  00:24:00      218.604       86.304     -120.058      815.239       44.577      387.565   664615.273     1987.096   150206.868       44.306       40.840      235.023      561.428        5.706      330.576       -1.941      851.645
01/26/2021  00:25:00      178.543       36.131     -135.222      825.983       37.137      393.078   682248.612     1379.137   154510.398       44.462       41.907      182.163      568.246        9.731      330.644       -1.828      851.656
01/26/2021  00:26:00      220.786       10.674     -150.744      850.371       21.700      405.521   723130.536      470.886   164447.372       47.963       44.402      221.044      585.771        7.023      330.687       -1.757      851.666
01/26/2021  00:27:00      114.678        9.301      -91.934      668.900       36.835      318.428   447426.771     1356.823   101396.169       28.582       27.509      115.054      459.752       15.968      330.289       -2.418      851.676
01/26/2021  00:28:00       89.298        9.285      -76.311      635.759       46.660      305.459   404189.704     2177.127    93305.144       25.667       24.984       89.779      437.190       23.713      330.205       -2.559      851.671
01/26/2021  00:29:00      105.302       11.002      -87.596      695.683       29.157      332.283   483974.393      850.158   110411.743       30.693       29.762      105.875      479.220       20.487      330.270       -2.448      851.672
01/26/2021  00:30:00      198.210       25.801     -133.343      842.999       21.579      401.079   710647.542      465.646   160864.032       46.467       43.599      199.882      580.754        8.442      330.565       -1.956      851.665
01/26/2021  00:31:00      193.869        9.909     -120.422      755.217       18.615      359.997   570352.957      346.509   129597.715       37.609       35.015      194.123      520.527        7.190      330.523       -2.031      851.663
01/26/2021  00:32:00      256.424       27.897     -130.346      850.412       15.835      404.891   723201.032      250.748   163936.944       48.527       44.369      257.937      586.428        5.169      330.774       -1.614      851.654
01/26/2021  00:33:00       84.659       29.964      -96.575      693.007       24.357      333.005   480258.941      593.246   110892.358       30.444       29.587       89.805      479.494       28.508      330.345       -2.326      851.648
01/26/2021  00:34:00       51.330       52.601      -98.551      691.681      102.625      331.224   478422.018    10531.838   109709.062       30.676       29.933       73.496      470.303       40.947      330.322       -2.364      851.646
01/26/2021  00:35:00       97.394       38.772      -88.066      670.882       49.591      320.523   450082.175     2459.314   102735.313       28.689       27.764      104.828      460.323       19.283      330.350       -2.319      851.646
01/26/2021  00:36:00      108.569       44.245     -124.606      805.466       42.744      380.782   648775.419     1827.078   144995.274       41.226       39.780      117.239      552.977       22.247      330.619       -1.870      851.634
01/26/2021  00:37:00      239.222       -9.726     -147.403      860.301       33.423      407.909   740117.684     1117.124   166390.080       49.314       45.381      239.420      590.464        6.082      330.889       -1.425      851.629
01/26/2021  00:38:00       66.277       29.793      -91.388      687.721       31.310      328.186   472959.923      980.324   107705.969       29.752       29.082       72.665      472.443       42.271      330.374       -2.277      851.637
01/26/2021  00:39:00       22.814       34.184      -56.967      519.509       23.167      245.574   269889.848      536.688    60306.796       16.776       16.537       41.098      356.158       75.101      330.087       -2.755      851.642
01/26/2021  00:40:00       82.216       13.748      -75.623      621.355       32.781      300.426   386082.455     1074.562    90255.852       24.494       23.871       83.358      430.814       26.711      330.301       -2.401      851.645
01/26/2021  00:41:00      254.135      -11.939     -122.130      794.012       26.776      377.168   630454.956      716.941   142255.620       42.637       38.671      254.415      546.246        4.610      330.818       -1.546      851.638
01/26/2021  00:42:00      146.664       33.901      -99.652      713.400       27.583      340.788   508939.580      760.820   116136.410       32.908       31.292      150.531      492.137       10.689      330.570       -1.956      851.644
01/26/2021  00:43:00       63.152       36.114      -63.358      522.628       27.586      249.591   273140.142      760.993    62295.492       17.268       16.810       72.749      360.401       24.543      330.260       -2.472      851.641
01/26/2021  00:44:00      117.218       30.460      -55.299      549.977       27.079      259.888   302474.839      733.246    67541.737       19.416       18.537      121.111      377.407        9.711      330.307       -2.393      851.660
01/26/2021  00:45:00      191.664       27.391     -119.406      806.957       22.985      387.577   651179.769      528.299   150215.860       42.666       40.096      193.612      558.661        8.326      330.833       -1.519      851.677
01/26/2021  00:46:00      198.748       43.427     -121.156      788.311       21.578      375.765   621434.459      465.615   141199.395       40.942       38.155      203.437      543.895        7.148      330.790       -1.591      851.683
01/26/2021  00:47:00       36.664       34.386      -62.244      537.510      195.258      270.615   288916.889    38125.664    73232.511       20.325       20.014       50.265      346.140       47.420      330.450       -2.161      851.691
01/26/2021  00:48:00      119.806       36.734      -70.315      586.287       21.808      280.929   343732.142      475.609    78921.245       22.180       21.156      125.311      405.203       10.456      330.350       -2.322      851.695
01/26/2021  00:49:00      273.807       22.594     -121.719      806.267       19.635      384.366   650066.830      385.535   147737.126       44.407       39.909      274.737      556.413        4.102      330.503       -2.063      851.694
01/26/2021  00:50:00      296.424       25.383     -134.230      850.511       20.007      405.741   723369.672      400.293   164625.811       49.727       44.420      297.509      587.096        3.894      330.615       -1.874      851.696
01/26/2021  00:51:00      336.596       23.023     -144.070      868.081       14.448      413.983   753564.083      208.745   171382.309       52.967       46.258      337.383      599.178        3.154      330.727       -1.690      851.705
01/26/2021  00:52:00      257.954       53.162     -105.396      725.360       23.595      345.111   526146.490      556.742   119101.718       36.300       32.290      263.375      499.944        3.603      330.313       -2.377      851.707
01/26/2021  00:53:00      224.441       48.501      -91.027      652.210        8.032      310.537   425377.321       64.511    96433.369       29.133       26.094      229.622      449.766        3.837      330.223       -2.527      851.707
01/26/2021  00:54:00      153.605       19.560      -69.497      617.697       18.298      296.296   381549.731      334.829    87791.612       24.914       23.484      154.845      427.305        7.615      330.099       -2.733      851.714
01/26/2021  00:55:00      232.134       48.653     -107.221      741.994       28.481      354.015   550555.594      811.179   125326.656       37.208       33.835      237.178      512.244        4.664      330.422       -2.198      851.724
01/26/2021  00:56:00      222.135       57.359     -103.796      722.445       21.953      344.007   521926.588      481.936   118340.947       35.194       32.037      229.421      498.278        4.717      330.402       -2.229      851.737
01/26/2021  00:57:00       83.801       41.287      -42.681      490.317       20.608      234.083   240410.923      424.683    54794.779       15.303       14.782       93.419      338.406       13.122      330.014       -2.877      851.735
01/26/2021  00:58:00      162.135       10.527      -86.132      655.639        9.316      311.737   429862.052       86.781    97179.918       28.036       26.356      162.477      451.888        7.735      330.339       -2.335      851.727
01/26/2021  00:59:00      168.763       23.599      -70.919      672.763        7.195      320.351   452609.700       51.765   102624.977       29.456       27.764      170.405      464.069        7.416      330.330       -2.351      851.722
01/26/2021  01:00:00      328.980       30.318     -154.795      870.107       13.523      415.212   757086.232      182.881   172401.119       53.120       46.484      330.374      600.820        3.307      330.814       -1.546      851.724
01/26/2021  01:01:00      301.428       44.188     -128.908      840.918       18.878      400.696   707143.835      356.370   160557.056       48.856       43.403      304.649      580.149        3.626      330.625       -1.859      851.725
01/26/2021  01:02:00      181.051       43.961      -89.437      701.944       18.638      335.651   492725.754      347.368   112661.343       32.410       30.287      186.312      484.919        6.774      330.404       -2.227      851.732
01/26/2021  01:03:00      244.922       19.665     -138.107      851.344       14.820      404.359   724787.442      219.644   163505.812       48.379       44.426      245.710      586.365        5.695      330.888       -1.426      851.740
01/26/2021  01:04:00      249.853       11.833     -143.134      880.521       15.141      419.533   775317.836      229.258   176007.907       51.711       47.578      250.133      607.219        5.893      330.940       -1.341      851.756
01/26/2021  01:05:00       69.483        8.504      -72.232      614.477       13.900      292.313   377581.403      193.220    85446.633       23.657       23.161       70.001      423.414       36.587      330.418       -2.208      851.772
01/26/2021  01:06:00      159.581       10.355     -109.360      750.363       18.047      359.073   563045.365      325.693   128933.523       36.477       34.615      159.917      518.531       10.514      330.708       -1.727      851.787
01/26/2021  01:07:00       79.922       13.242      -65.663      637.786       19.110      302.851   406770.725      365.176    91718.564       25.476       24.943       81.012      438.731       29.329      330.426       -2.195      851.794
01/26/2021  01:08:00      136.975       31.291      -99.877      713.449       14.022      338.981   509009.740      196.625   114907.880       32.678       31.206      140.504      491.472       12.235      330.590       -1.922      851.787
01/26/2021  01:09:00      204.242        7.516     -114.442      777.396       28.460      371.483   604343.856      809.974   137999.446       39.885       37.158      204.380      537.130        6.907      330.780       -1.607      851.779
01/26/2021  01:10:00      225.188       -5.261     -121.580      796.957       24.088      378.958   635140.102      580.226   143609.381       42.226       38.966      225.249      549.027        5.941      330.878       -1.445      851.761
01/26/2021  01:11:00      261.711       44.179     -136.441      859.921       18.716      411.930   739464.249      350.287   169686.003       49.909       45.475      265.414      594.803        5.022      330.964       -1.300      851.750
01/26/2021  01:12:00      250.993       22.988     -119.409      791.869       13.393      378.737   627056.399      179.364   143441.572       42.406       38.534      252.044      547.311        4.715      330.763       -1.634      851.741
01/26/2021  01:13:00      465.043       31.339     -200.078     1000.835       21.066      476.736  1001670.143      443.781   227277.030       74.307       61.470      466.098      690.442        2.194      331.148       -0.988      851.733
01/26/2021  01:14:00      271.347       40.808     -113.292      801.917       30.095      385.118   643071.675      905.729   148315.507       44.005       39.615      274.399      555.045        4.092      330.451       -2.146      851.729
01/26/2021  01:15:00      343.671       34.981     -149.287      889.122       18.587      423.411   790537.260      345.488   179276.596       55.569       48.508      345.447      613.321        3.152      330.743       -1.662      851.719
01/26/2021  01:16:00      252.716       21.149     -121.178      774.923       14.453      369.093   600505.270      208.890   136229.810       40.782       36.847      253.599      534.511        4.442      330.526       -2.024      851.720
01/26/2021  01:17:00      398.075       40.978     -194.294      983.702       16.438      469.733   967670.300      270.205   220648.967       69.299       59.429      400.178      679.487        2.883      331.124       -1.031      851.734
01/26/2021  01:18:00      211.009       43.123      -95.746      730.258       23.577      349.039   533276.299      555.856   121827.897       35.547       32.783      215.370      504.489        5.487      330.373       -2.278      851.740
01/26/2021  01:19:00      280.853       44.064     -115.804      787.024       18.766      374.368   619406.133      352.177   140151.275       42.691       37.995      284.289      542.428        3.641      330.334       -2.338      851.752
01/26/2021  01:20:00      178.727       34.734      -75.440      679.938       22.237      325.210   462316.106      494.495   105761.245       30.359       28.429      182.071      469.916        6.661      330.132       -2.675      851.770
01/26/2021  01:21:00      319.222       25.703     -140.275      900.234       28.381      429.713   810420.460      805.471   184653.483       55.885       49.794      320.255      621.555        3.767      330.692       -1.742      851.789
01/26/2021  01:22:00      360.333       28.602     -158.826      917.395       19.545      440.212   841613.240      382.008   193787.041       59.561       51.789      361.466      635.058        3.087      330.777       -1.604      851.808
01/26/2021  01:23:00      369.740       32.325     -170.137      949.021       34.851      453.592   900640.307     1214.621   205746.109       63.692       55.380      371.150      655.722        3.121      330.815       -1.538      851.833
01/26/2021  01:24:00      338.563       68.018     -148.366      897.698       29.761      428.041   805862.211      885.734   183219.447       56.541       49.498      345.328      619.339        3.217      330.792       -1.579      851.855
01/26/2021  01:25:00      219.716       75.385     -106.963      785.856       29.247      373.018   617569.090      855.366   139142.800       41.132       37.878      232.289      540.612        5.416      330.486       -2.089      851.870
01/26/2021  01:26:00      206.811      104.275     -121.460      779.656       35.379      369.233   607863.753     1251.676   136333.074       40.676       37.272      231.612      535.861        5.353      330.610       -1.887      851.886
01/26/2021  01:27:00      137.358       57.355      -83.770      677.688       34.857      322.690   459261.573     1214.976   104129.046       29.677       28.230      148.852      466.912        9.839      330.415       -2.211      851.896
01/26/2021  01:28:00      143.861       36.097      -86.869      657.478      174.542      361.726   432277.003    30464.833   130845.343       31.144       29.679      148.321      470.993       10.084      330.416       -2.206      851.897
01/26/2021  01:29:00      147.008       24.376     -102.718      716.809       26.701      342.208   513815.425      712.918   117106.103       33.206       31.582      149.015      494.587       11.016      330.468       -2.123      851.907
01/26/2021  01:30:00      154.912       35.824      -75.594      643.675      160.929      313.122   414317.815    25897.996    98045.621       28.451       26.913      159.000      428.453        7.261      330.380       -2.270      851.900
01/26/2021  01:31:00      125.903       55.430      -76.576      648.164       23.195      310.489   420116.070      538.015    96403.156       27.081       25.853      137.565      447.639       10.589      330.390       -2.254      851.899
01/26/2021  01:32:00      234.288       40.200      -93.805      733.097       20.187      350.799   537430.992      407.531   123059.707       36.296       33.045      237.712      506.640        4.543      330.434       -2.177      851.883
01/26/2021  01:33:00      296.919       88.376     -123.469      752.522       54.902      358.710   566288.673     3014.279   128672.689       40.445       34.899      309.792      518.766        2.804      330.614       -1.881      851.868
01/26/2021  01:34:00      271.915      123.579     -113.938      801.953       33.796      382.449   643128.008     1142.200   146266.953       44.620       39.527      298.680      553.035        3.428      330.517       -2.036      851.854
01/26/2021  01:35:00      143.951       72.786      -57.492      529.479       51.986      252.777   280347.879     2702.575    63896.267       18.806       17.347      161.306      365.185        5.125      329.998       -2.900      851.841
01/26/2021  01:36:00      284.529       94.048     -103.644      761.196       51.451      360.662   579419.678     2647.248   130077.183       40.619       35.607      299.670      523.088        3.047      330.361       -2.296      851.824
01/26/2021  01:37:00      373.310       51.920     -151.226      888.833       31.545      424.638   790023.285      995.097   180317.252       56.792       48.567      376.903      613.390        2.649      330.723       -1.694      851.807
01/26/2021  01:38:00      297.529       46.963     -126.629      849.412       31.687      403.772   721501.516     1004.073   163032.178       49.596       44.277      301.212      584.800        3.769      330.590       -1.915      851.804
01/26/2021  01:39:00      151.240       87.917      -78.800      662.391       50.865      318.586   438761.890     2587.238   101496.856       28.971       27.142      174.937      458.124        6.858      330.293       -2.412      851.799
01/26/2021  01:40:00      215.645       90.247      -85.604      696.503       54.351      333.017   485115.949     2954.024   110900.629       33.034       29.949      233.768      480.466        4.224      330.355       -2.310      851.803
01/26/2021  01:41:00      163.491      111.179      -78.657      644.525       56.519      303.254   415412.825     3194.385    91962.893       27.781       25.529      197.711      441.239        4.981      330.245       -2.492      851.812
01/26/2021  01:42:00      224.299      112.285     -113.966      794.980       30.397      378.618   631993.605      923.982   143351.414       42.592       38.813      250.834      547.645        4.767      330.557       -1.973      851.823
01/26/2021  01:43:00      204.137      112.696      -98.530      690.350       45.901      328.043   476582.803     2106.870   107612.509       32.506       29.315      233.179      475.001        4.150      330.511       -2.054      851.837
01/26/2021  01:44:00      314.598      166.473     -150.194      848.269       66.094      398.790   719559.592     4368.402   159033.248       51.591       44.148      355.929      580.761        2.662      330.818       -1.544      851.851
01/26/2021  01:45:00      227.120      209.583     -101.026      667.081       31.803      316.369   444997.396     1011.453   100089.276       32.579       27.305      309.044      458.627        2.202      330.195       -2.575      851.867
01/26/2021  01:46:00      222.240      158.575     -102.743      763.256       49.232      363.062   582559.265     2423.773   131814.290       40.079       35.840      273.014      524.797        3.695      330.405       -2.224      851.878
01/26/2021  01:47:00      120.908      160.956      -71.611      568.595       36.270      268.904   323300.045     1315.536    72309.327       22.120       19.846      201.310      390.100        3.755      330.046       -2.822      851.873
01/26/2021  01:48:00      147.164       98.694      -79.627      617.886       44.546      295.304   381782.530     1984.309    87204.201       25.425       23.549      177.194      425.568        5.768      330.249       -2.487      851.877
01/26/2021  01:49:00      218.676      147.307     -107.460      758.141       39.289      358.427   574777.896     1543.598   128469.724       39.278       35.240      263.664      520.332        3.895      330.310       -2.380      851.873
01/26/2021  01:50:00      176.024      175.812     -102.584      715.199       43.267      341.462   511509.858     1872.007   116596.005       35.106       31.499      248.786      493.095        3.928      330.284       -2.425      851.880
01/26/2021  01:51:00       95.350      143.081      -76.299      596.528       41.964      281.080   355846.066     1760.968    79006.133       23.591       21.831      171.941      408.379        5.641      330.094       -2.741      851.881
01/26/2021  01:52:00       71.141      162.404      -69.344      613.855       51.355      284.807   376818.407     2637.377    81115.065       24.831       23.029      177.303      416.207        5.510      330.121       -2.696      851.880
01/26/2021  01:53:00      148.618      163.982     -107.939      744.178       26.958      355.029   553801.608      726.709   126045.298       37.045       34.029      221.309      513.337        5.380      330.329       -2.350      851.876
01/26/2021  01:54:00      123.275      133.446      -87.104      683.909       53.695      328.769   467731.069     2883.099   108089.323       30.952       28.935      181.672      472.876        6.775      330.315       -2.376      851.885
01/26/2021  01:55:00      169.459      104.386      -68.983      596.121       42.403      286.136   355359.701     1798.030    81874.001       24.161       21.952      199.030      411.808        4.281      330.143       -2.661      851.894
01/26/2021  01:56:00      223.149      107.940     -132.154      778.055      121.122      371.448   605369.895    14670.552   137973.920       41.830       37.901      247.884      528.809        4.551      330.671       -1.787      851.908
01/26/2021  01:57:00      234.931      140.658     -114.980      741.738       37.829      353.701   550174.594     1431.056   125104.305       38.231       33.835      273.820      511.370        3.488      330.425       -2.192      851.916
01/26/2021  01:58:00      253.869       75.150     -135.660      836.558       51.731      398.107   699829.947     2676.110   158488.942       47.457       43.050      264.759      575.598        4.726      330.762       -1.633      851.936
01/26/2021  01:59:00      247.959       94.905     -130.862      796.597       27.537      376.895   634566.947      758.272   142049.894       43.233       38.869      265.501      547.331        4.250      330.588       -1.922      851.944
01/26/2021  02:00:00      205.927       73.846     -109.806      783.386       36.970      369.824   613694.343     1366.815   136769.687       40.571       37.592      218.767      537.372        6.034      330.480       -2.098      851.952
01/26/2021  02:01:00      218.686      105.043     -130.868      799.860       21.067      379.980   639776.005      443.822   144384.784       43.013       39.230      242.606      550.872        5.156      330.489       -2.084      851.971
01/26/2021  02:02:00      222.378       87.906     -123.501      793.810       36.048      376.848   630133.748     1299.462   142014.488       42.277       38.672      239.122      546.122        5.216      330.602       -1.900      851.992
01/26/2021  02:03:00      127.711       51.305     -111.631      754.104      183.706      367.255   568673.530    33747.862   134876.580       38.419       36.865      137.631      504.988       13.463      330.415       -2.208      852.005
01/26/2021  02:04:00       70.205        8.974      -65.592      588.545       34.196      276.805   346385.657     1169.370    76620.854       21.666       21.209       70.776      402.597       32.357      330.089       -2.749      852.018
01/26/2021  02:05:00      271.809       50.586     -146.419      876.071       40.609      420.037   767499.693     1649.077   176430.881       52.153       47.279      276.477      605.999        4.804      330.713       -1.711      852.027
01/26/2021  02:06:00      192.575      111.037     -105.353      745.923       37.606      356.980   556401.196     1414.211   127434.970       37.274       34.263      222.293      515.405        5.376      330.439       -2.168      852.043
01/26/2021  02:07:00      178.132      140.599     -118.107      784.879       29.322      372.994   616034.691      859.800   139124.488       41.057       37.801      226.934      540.606        5.675      330.436       -2.171      852.056
01/26/2021  02:08:00      356.246       78.743     -167.603      915.649       37.878      440.032   838413.988     1434.731   193628.118       59.712       51.674      364.844      634.067        3.020      330.844       -1.494      852.061
01/26/2021  02:09:00      125.354       36.538      -73.091      656.720       25.890      310.241   431280.824      670.280    96249.709       27.518       26.410      130.571      450.352       11.896      330.245       -2.491      852.075
01/26/2021  02:10:00      104.110       37.854     -108.595      686.487       28.430      325.194   471264.896      808.244   105751.327       30.082       28.891      110.778      470.853       18.066      330.276       -2.438      852.079
01/26/2021  02:11:00       30.800       17.164      -85.538      556.722      162.223      311.331   309939.544    26316.247    96926.798       22.078       21.659       35.260      399.852      128.601      330.020       -2.859      852.087
01/26/2021  02:12:00      250.814       50.291     -160.348      910.033       18.095      436.542   828159.978      327.412   190568.694       55.489       50.953      255.806      629.693        6.059      330.695       -1.740      852.085
01/26/2021  02:13:00      252.704       18.441     -142.641      806.105       31.083      388.649   649805.029      966.166   151047.956       44.301       40.091      253.376      558.509        4.859      330.645       -1.828      852.083
01/26/2021  02:14:00      206.404       17.737     -111.253      786.608       26.050      375.915   618752.855      678.600   141312.023       40.786       38.037      207.165      543.108        6.873      330.462       -2.129      852.086
01/26/2021  02:15:00      235.326       24.685     -116.759      778.626       21.644      370.773   606259.022      468.461   137472.856       40.675       37.210      236.617      536.923        5.149      330.548       -1.986      852.085
01/26/2021  02:16:00      113.774       75.495      -69.689      600.268       42.966      286.864   360322.161     1846.089    82291.055       23.389       22.223      136.543      414.521        9.216      330.158       -2.636      852.083
01/26/2021  02:17:00      143.046       73.594      -65.171      608.436       25.786      288.681   370194.701      664.919    83336.474       24.206       22.710      160.867      418.160        6.757      330.252       -2.482      852.076
01/26/2021  02:18:00      214.070       87.516      -96.977      733.521       35.055      351.611   538052.824     1228.831   123629.944       36.276       33.146      231.268      506.958        4.805      330.438       -2.171      852.071
01/26/2021  02:19:00      257.997      101.879     -109.942      757.337       35.755      361.084   573559.883     1278.405   130381.750       39.698       35.261      277.384      521.819        3.539      330.557       -1.977      852.062
01/26/2021  02:20:00      235.148       79.541      -89.164      731.398       36.812      346.295   534943.707     1355.136   119920.342       36.276       32.811      248.236      502.426        4.097      330.390       -2.250      852.047
01/26/2021  02:21:00      208.972      125.315      -93.371      675.777       37.144      319.360   456674.962     1379.661   101990.916       31.395       28.002      243.666      463.448        3.618      330.217       -2.535      852.051
01/26/2021  02:22:00      108.157      145.901      -60.081      521.443       43.807      248.072   271902.831     1919.090    61539.816       18.591       16.768      181.618      358.514        3.897      329.969       -2.950      852.050
01/26/2021  02:23:00      266.972      137.870     -146.311      868.587       37.850      412.288   754443.257     1432.598   169981.344       51.857       46.293      300.469      597.381        3.953      330.659       -1.802      852.050
01/26/2021  02:24:00      198.569      101.864     -106.188      757.645       43.597      361.908   574025.479     1900.656   130977.353       38.384       35.345      223.172      522.730        5.486      330.349       -2.315      852.050
01/26/2021  02:25:00      212.351      128.040     -126.637      724.002      129.391      367.154   524178.753    16742.090   134802.286       37.648       33.786      247.966      506.663        4.175      330.403       -2.228      852.056
01/26/2021  02:26:00      276.044      104.487     -158.939      861.272       44.532      408.782   741790.085     1983.056   167102.608       51.143       45.544      295.158      591.619        4.018      330.705       -1.727      852.063
01/26/2021  02:27:00      289.329      173.606     -141.546      818.392       54.620      387.200   669765.393     2983.396   149924.080       47.811       41.134      337.417      561.893        2.773      330.540       -2.000      852.069
01/26/2021  02:28:00      225.910      158.564     -116.467      802.461       45.918      383.145   643943.214     2108.430   146799.716       44.113       39.643      276.004      553.233        4.018      330.427       -2.185      852.084
01/26/2021  02:29:00      148.163      192.973     -119.282      761.366       54.800      359.790   579677.994     3003.083   129448.578       39.262       35.606      243.292      521.136        4.588      330.330       -2.349      852.088
01/26/2021  02:30:00      154.678      143.907     -103.644      734.759       37.184      350.766   539870.148     1382.683   123036.755       35.969       33.214      211.269      506.851        5.756      330.325       -2.355      852.095
01/26/2021  02:31:00      118.023      105.182      -75.751      633.988       42.650      302.226   401940.941     1819.060    91340.458       26.281       24.755      158.090      436.336        7.618      330.270       -2.451      852.098
01/26/2021  02:32:00       93.994      110.172      -85.696      642.310       57.056      305.385   412561.540     3255.402    93259.891       26.859       25.454      144.820      441.242        9.283      330.206       -2.556      852.091
01/26/2021  02:33:00       41.484      170.070      -74.101      598.421       63.018      282.381   358107.255     3971.293    79739.136       23.888       22.091      175.056      408.537        5.446      329.974       -2.939      852.087
01/26/2021  02:34:00      171.414      148.021     -113.209      786.526       56.666      377.987   618622.487     3211.021   142873.862       41.424       38.235      226.480      542.883        5.746      330.472       -2.114      852.076
01/26/2021  02:35:00      129.936      201.741     -101.642      732.497       64.793      343.325   536552.234     4198.153   117872.007       36.313       32.931      239.965      497.491        4.298      330.318       -2.372      852.068
01/26/2021  02:36:00      206.279      123.374     -115.788      772.370       50.600      367.958   596556.092     2560.374   135393.246       40.269       36.725      240.359      531.630        4.892      330.415       -2.208      852.065
01/26/2021  02:37:00      162.458      203.715     -118.316      713.643      187.358      346.536   509286.372    35103.121   120087.098       37.304       33.224      260.562      470.635        3.262      330.237       -2.502      852.062
01/26/2021  02:38:00      100.647      217.414     -100.594      706.731       52.648      334.653   499468.518     2771.779   111992.936       34.074       30.712      239.580      484.836        4.095      330.083       -2.756      852.053
01/26/2021  02:39:00      110.022      220.420      -98.521      677.888       45.080      318.842   459532.642     2032.200   101660.421       31.669       28.161      246.353      463.845        3.545      329.962       -2.958      852.044
01/26/2021  02:40:00      228.368      166.152     -146.347      871.542       68.664      414.703   759585.759     4714.707   171978.648       51.852       46.814      282.416      600.103        4.515      330.418       -2.197      852.033
01/26/2021  02:41:00      254.436      211.629     -147.196      870.676       70.177      406.255   758076.551     4924.838   165042.753       52.942       46.402      330.945      592.324        3.203      330.410       -2.212      852.023
01/26/2021  02:42:00      182.589      174.596     -141.376      816.673       79.535      396.105   666954.351     6325.740   156899.480       45.682       41.509      252.631      566.490        5.028      330.220       -2.528      852.012
01/26/2021  02:43:00      299.032       65.632     -179.951      934.747      210.989      453.236   873752.469    44516.407   205422.717       62.466       56.185      306.150      623.710        4.150      330.697       -1.735      852.011
01/26/2021  02:44:00      235.995      115.565     -118.603      777.261       50.381      370.698   604134.104     2538.273   137416.682       41.345       37.204      262.772      534.873        4.143      330.237       -2.499      852.007
01/26/2021  02:45:00      408.747      196.780     -183.294      937.517       73.406      445.626   878938.334     5388.513   198582.740       66.092       54.145      453.648      644.926        2.021      330.623       -1.858      851.996
01/26/2021  02:46:00      278.552      181.455     -125.636      812.012       64.359      385.341   659364.065     4142.035   148487.502       46.898       40.600      332.441      558.097        2.818      330.162       -2.621      852.002
01/26/2021  02:47:00      189.815      224.545      -89.124      655.597       63.072      313.770   429806.962     3978.130    98451.744       31.320       26.612      294.024      450.496        2.348      329.765       -3.279      851.996
01/26/2021  02:48:00      424.257      212.438     -189.059      927.969       61.276      439.863   861125.895     3754.799   193479.470       65.939       52.918      474.473      637.447        1.805      330.633       -1.842      851.977
01/26/2021  02:49:00      310.447      201.780     -141.033      829.441       60.662      397.128   687972.520     3679.839   157710.627       50.299       42.468      370.260      572.952        2.395      330.264       -2.455      851.966
01/26/2021  02:50:00      263.951      188.010     -128.608      795.831       61.926      373.757   633346.335     3834.799   139694.055       44.905       38.844      324.065      543.527        2.813      330.174       -2.604      851.962
01/26/2021  02:51:00      300.505      188.354     -150.484      873.653       64.299      415.372   763269.693     4134.335   172534.269       54.398       46.997      354.656      601.165        2.873      330.382       -2.257      851.971
01/26/2021  02:52:00      290.978      178.837     -139.747      825.223       72.092      388.712   680993.779     5197.267   151097.106       48.656       41.864      341.542      565.483        2.741      330.252       -2.473      851.974
01/26/2021  02:53:00      390.134      202.339     -179.915      956.036       52.645      450.615   914004.583     2771.491   203053.610       67.243       55.991      439.484      655.424        2.224      330.589       -1.914      851.980
01/26/2021  02:54:00      358.121      252.971     -163.025      875.118       59.041      412.744   765830.646     3485.860   170357.753       57.905       46.984      438.457      599.829        1.872      330.353       -2.305      851.985
01/26/2021  02:55:00      240.672      211.409     -135.509      824.645       76.673      389.515   680040.111     5878.720   151721.927       47.913       41.882      320.339      564.581        3.106      330.305       -2.386      852.000
01/26/2021  02:56:00      152.496      238.941      -95.382      694.868       59.167      326.641   482840.976     3500.728   106694.496       34.111       29.652      283.457      474.757        2.805      329.950       -2.975      852.009
01/26/2021  02:57:00      340.834      260.661     -179.820      966.347       92.019      460.036   933827.242     8467.420   211633.554       68.494       57.696      429.083      665.169        2.403      330.627       -1.851      852.010
01/26/2021  02:58:00      204.568      253.062     -121.379      754.482       71.868      354.888   569243.754     5165.062   125945.235       41.034       35.018      325.405      515.414        2.509      330.160       -2.629      852.010
01/26/2021  02:59:00      304.531      196.654     -158.862      902.378       64.902      428.769   814285.906     4212.245   183843.135       57.928       50.117      362.508      619.258        2.918      330.578       -1.934      852.017
01/26/2021  03:00:00      250.785      226.549     -149.634      855.301       99.323      402.975   731539.224     9864.996   162388.561       52.001       45.190      337.961      581.929        2.965      330.405       -2.222      852.029
01/26/2021  03:01:00      160.176      220.756     -130.757      773.396      236.506      379.125   598142.090    55935.318   143735.447       44.448       39.891      272.745      508.623        3.478      330.174       -2.603      852.043
01/26/2021  03:02:00      112.537      192.864      -96.683      652.335       99.992      304.952   425540.711     9998.367    92995.860       29.376       26.427      223.297      439.791        3.879      329.986       -2.919      852.047
01/26/2021  03:03:00      229.345      201.270     -150.830      870.109       35.549      409.437   757089.573     1263.751   167639.028       52.072       46.300      305.137      595.112        3.804      330.457       -2.135      852.064
01/26/2021  03:04:00      195.084      231.247     -136.523      780.817       42.991      366.854   609674.826     1848.265   134582.014       42.798       37.305      302.544      533.923        3.114      330.200       -2.563      852.071
01/26/2021  03:05:00      152.379      170.949     -107.360      753.786       65.922      357.694   568193.609     4345.758   127945.073       38.208       35.024      229.004      517.762        5.112      330.171       -2.609      852.080
01/26/2021  03:06:00      165.265      161.589     -116.584      778.535       65.305      361.940   606116.290     4264.718   131000.634       40.404       37.069      231.135      529.317        5.244      330.189       -2.580      852.087
01/26/2021  03:07:00      202.383      177.824     -137.493      800.298       52.169      381.694   640476.533     2721.653   145690.191       44.002       39.444      269.407      551.288        4.187      330.311       -2.379      852.092
01/26/2021  03:08:00      117.440      154.319      -97.984      711.374       57.634      342.459   506052.583     3321.646   117278.338       33.680       31.333      193.924      491.734        6.430      330.001       -2.890      852.095
01/26/2021  03:09:00      221.589      160.180     -134.641      825.944       71.855      393.597   682183.897     5163.210   154918.544       46.740       42.113      273.422      568.657        4.325      330.316       -2.368      852.090
01/26/2021  03:10:00      228.932      163.911     -142.924      848.892       56.867      402.891   720616.914     3233.853   162321.147       49.275       44.309      281.561      583.507        4.295      330.429       -2.181      852.087
01/26/2021  03:11:00      167.545      129.747     -113.428      770.696       45.086      366.174   593971.802     2032.766   134083.091       39.377       36.504      211.909      530.221        6.261      330.192       -2.572      852.085
01/26/2021  03:12:00      207.846      183.276     -134.108      822.844       34.802      389.648   677072.847     1211.188   151825.602       46.226       41.505      277.110      565.194        4.160      330.276       -2.433      852.087
01/26/2021  03:13:00      243.145      196.510     -152.577      856.437       52.155      400.939   733484.620     2720.142   160752.082       50.879       44.848      312.627      584.801        3.499      330.347       -2.316      852.090
01/26/2021  03:14:00      146.176      226.896     -107.098      726.422       66.574      339.785   527688.371     4432.075   115453.685       36.581       32.379      269.906      495.291        3.367      330.036       -2.833      852.096
01/26/2021  03:15:00      218.188      262.049     -119.626      773.429       64.077      364.228   598192.986     4105.884   132662.049       43.262       36.748      340.992      528.304        2.400      330.174       -2.607      852.101
01/26/2021  03:16:00      337.840      228.799     -158.719      889.669       83.624      422.001   791510.717     6992.945   178084.425       58.393       48.829      408.025      610.716        2.240      330.596       -1.905      852.093
01/26/2021  03:17:00      408.544      142.087     -209.625      972.671       47.030      461.604   946088.917     2211.821   213077.951       69.596       58.069      432.547      668.906        2.391      331.095       -1.079      852.085
01/26/2021  03:18:00      213.034      114.610     -120.573      825.948       98.898      387.838   682190.566     9780.883   150418.104       45.754       42.119      241.907      564.040        5.437      330.558       -1.970      852.089
01/26/2021  03:19:00      149.492      198.953      -97.670      659.366       43.516      310.759   434763.494     1893.603    96571.267       30.223       26.661      248.858      451.257        3.288      330.041       -2.828      852.088
01/26/2021  03:20:00      234.467      195.757     -124.579      739.237       69.490      353.125   546470.739     4828.875   124697.204       39.226       33.800      305.444      507.928        2.765      330.233       -2.509      852.084
01/26/2021  03:21:00      165.175      204.729     -107.909      738.212       59.696      348.797   544957.323     3563.572   121659.446       37.537       33.509      263.053      504.792        3.682      330.155       -2.636      852.078
01/26/2021  03:22:00      280.928      207.722     -141.542      845.910       50.167      397.343   715563.086     2516.756   157881.376       50.884       43.798      349.384      578.357        2.740      330.255       -2.467      852.066
01/26/2021  03:23:00      243.376      208.370     -110.996      720.507       53.202      339.457   519129.678     2830.472   115231.072       37.595       31.860      320.390      493.496        2.373      330.024       -2.853      852.049
01/26/2021  03:24:00      287.074      140.561     -132.410      811.046       63.731      383.077   657795.937     4061.638   146747.715       46.398       40.430      319.639      556.302        3.029      330.358       -2.299      852.032
01/26/2021  03:25:00      420.893      176.749     -192.390      983.836       68.177      466.660   967933.997     4648.166   217771.360       71.763       59.518      456.498      676.204        2.194      330.842       -1.495      852.022
01/26/2021  03:26:00      261.315      236.075     -141.329      861.578       58.006      407.566   742316.807     3364.744   166109.669       52.769       45.590      352.160      590.362        2.810      330.272       -2.439      852.024
01/26/2021  03:27:00      287.522      214.274     -142.179      857.452       44.144      402.321   735223.395     1948.689   161862.423       52.373       44.952      358.584      585.453        2.666      330.308       -2.380      852.037
01/26/2021  03:28:00      203.075      212.943     -113.765      761.381       68.189      362.859   579700.301     4649.739   131666.450       40.762       35.801      294.252      523.702        3.168      330.003       -2.886      852.057
01/26/2021  03:29:00      278.737      201.912     -156.528      903.740       41.521      427.110   816746.282     1723.956   182423.174       57.172       50.045      344.184      620.518        3.250      330.265       -2.446      852.070
01/26/2021  03:30:00      284.044      176.985     -146.879      863.295       48.207      407.343   745278.151     2323.898   165927.921       52.336       45.676      334.671      591.796        3.127      330.171       -2.602      852.069
01/26/2021  03:31:00      370.987      131.399     -169.217      942.308       48.626      448.903   887945.080     2364.506   201513.947       63.744       54.591      393.569      648.954        2.719      330.514       -2.033      852.072
01/26/2021  03:32:00      238.427      109.642     -103.293      703.847       40.807      333.778   495400.449     1665.222   111407.740       34.388       30.424      262.429      483.551        3.395      330.013       -2.869      852.076
01/26/2021  03:33:00      440.075       31.755     -185.654      940.987       41.555      446.208   885456.813     1726.804   199101.150       65.749       54.314      441.219      647.512        2.154      330.525       -2.017      852.071
01/26/2021  03:34:00      500.912       68.237     -206.537      978.951       47.364      463.542   958345.969     2243.354   214871.316       73.659       58.773      505.539      672.554        1.770      330.569       -1.941      852.083
01/26/2021  03:35:00      532.943      117.490     -223.202     1045.440       42.441      496.126  1092944.451     1801.254   246141.212       84.398       67.044      545.740      719.647        1.739      330.661       -1.786      852.102
01/26/2021  03:36:00      440.013       54.914     -170.562      908.858       30.477      431.683   826023.710      928.837   186350.299       61.930       50.665      443.426      625.863        1.992      330.242       -2.483      852.130
01/26/2021  03:37:00      479.741       54.873     -212.206      963.121       32.553      460.208   927602.436     1059.713   211791.353       70.908       57.023      482.869      665.140        1.897      330.574       -1.935      852.163
01/26/2021  03:38:00      404.777       32.099     -175.273      969.993       30.583      464.080   940887.211      935.320   215370.002       67.615       57.860      406.048      670.337        2.725      330.417       -2.191      852.179
01/26/2021  03:39:00      379.397       26.396     -163.138      883.342       21.004      420.618   780293.644      441.149   176919.350       56.425       47.883      380.314      609.194        2.566      330.227       -2.507      852.171
01/26/2021  03:40:00      255.218      -13.182     -120.771      771.165      154.774      370.499   594695.009    23954.875   137269.169       41.775       37.796      255.558      520.627        4.150      329.991       -2.902      852.157
01/26/2021  03:41:00      367.676       26.082     -144.707      857.375       61.051      406.658   735092.297     3727.175   165370.639       53.031       45.210      368.600      589.568        2.558      330.186       -2.578      852.150
01/26/2021  03:42:00      575.471       59.815     -232.412     1048.456       33.674      498.992  1099260.366     1133.921   248993.228       86.879       67.469      578.571      722.750        1.560      330.747       -1.645      852.157
01/26/2021  03:43:00      312.384       20.545     -132.139      774.607       48.299      367.800   600015.601     2332.784   135277.201       42.639       36.881      313.059      532.887        2.897      330.075       -2.764      852.160
01/26/2021  03:44:00      470.337       57.508     -178.823      934.437       42.206      447.965   873172.589     1781.312   200672.494       66.584       53.781      473.840      646.149        1.860      330.497       -2.062      852.159
01/26/2021  03:45:00      452.677       43.814     -179.689      908.815       50.179      433.194   825945.174     2517.970   187656.895       62.740       50.806      454.792      626.579        1.898      330.384       -2.248      852.145
01/26/2021  03:46:00      365.523        5.777     -150.949      919.363       40.998      440.043   845229.229     1680.858   193637.906       59.827       52.027      365.568      635.408        3.021      330.417       -2.195      852.130
01/26/2021  03:47:00      493.596       11.105     -212.475     1046.584       43.363      498.629  1095338.459     1880.333   248631.231       81.709       67.293      493.721      721.766        2.137      330.837       -1.496      852.110
01/26/2021  03:48:00      485.189      -40.985     -211.074      962.538       51.110      457.048   926480.213     2612.272   208893.231       70.957       56.899      486.917      662.446        1.851      330.643       -1.821      852.093
01/26/2021  03:49:00      384.317       -4.624     -147.512      858.604       55.831      411.761   737200.453     3117.103   169547.237       53.948       45.493      384.345      593.131        2.382      330.316       -2.363      852.083
01/26/2021  03:50:00      492.666        7.858     -196.815      963.506       35.452      457.886   928344.643     1256.832   209659.843       71.015       56.963      492.729      663.689        1.814      330.609       -1.878      852.098
01/26/2021  03:51:00      412.169        5.271     -168.419      911.134       33.631      434.963   830164.260     1131.074   189192.734       60.917       51.024      412.202      628.816        2.327      330.578       -1.931      852.120
01/26/2021  03:52:00      419.259      -11.664     -197.195      971.498       85.988      465.825   943809.307     7394.006   216993.079       69.126       58.410      419.421      669.337        2.547      330.722       -1.691      852.130
01/26/2021  03:53:00      339.714      -19.493     -156.607      846.953       53.448      401.020   717329.655     2856.717   160816.849       51.047       44.050      340.273      581.766        2.923      330.420       -2.194      852.133
01/26/2021  03:54:00      415.042      -31.189     -194.061      936.024       59.655      449.091   876140.656     3558.678   201682.923       64.591       54.069      416.212      647.599        2.421      330.657       -1.800      852.143
01/26/2021  03:55:00      426.711        2.537     -196.222      960.789       38.893      458.238   923114.568     1512.689   209981.795       67.736       56.730      426.719      662.812        2.413      330.748       -1.649      852.159
01/26/2021  03:56:00      301.791       -3.410     -105.543      770.712       40.648      370.939   593996.321     1652.234   137596.108       41.758       36.662      301.810      533.800        3.128      330.148       -2.644      852.163
01/26/2021  03:57:00      392.623        0.856     -160.598      905.455       39.799      434.006   819847.865     1583.971   188361.386       59.466       50.490      392.624      625.980        2.542      330.472       -2.106      852.155
01/26/2021  03:58:00      398.362       -2.827     -173.294      900.199       44.441      424.020   810358.362     1975.009   179793.365       59.021       49.606      398.372      616.793        2.397      330.503       -2.055      852.137
01/26/2021  03:59:00      371.195        6.040     -162.540      909.937       35.037      429.613   827985.301     1227.583   184567.268       58.879       50.689      371.244      624.498        2.830      330.617       -1.870      852.129
01/26/2021  04:00:00      326.318        3.975     -130.619      859.789       37.839      413.052   739237.066     1431.799   170612.325       51.723       45.564      326.342      595.208        3.327      330.343       -2.319      852.160
01/26/2021  04:01:00      277.595       45.340      -89.041      622.096       21.444      296.414   387003.147      459.835    87861.311       28.108       23.766      281.273      428.778        2.324      329.800       -3.221      852.183
01/26/2021  04:02:00      392.152       46.702     -149.981      844.971       19.056      403.494   713976.398      363.136   162807.523       52.761       43.857      394.923      583.458        2.183      330.278       -2.427      852.168
01/26/2021  04:03:00      489.279       63.047     -202.198      990.248       23.862      472.085   980591.991      569.415   222863.788       74.388       60.201      493.325      683.267        1.918      330.756       -1.633      852.137
01/26/2021  04:04:00      460.994       58.397     -186.153      954.804       76.837      455.972   911650.622     5903.851   207910.173       68.778       56.273      464.678      656.795        1.998      330.639       -1.829      852.122
01/26/2021  04:05:00      415.308       43.439     -168.005      911.073       16.892      432.650   830054.776      285.341   187186.024       60.984       50.876      417.573      627.585        2.259      330.404       -2.217      852.147
01/26/2021  04:06:00      419.061       32.736     -165.462      890.362       23.942      423.057   792745.315      573.220   178977.326       58.797       48.615      420.337      613.410        2.130      330.476       -2.100      852.210
01/26/2021  04:07:00      369.575        8.743     -167.753      874.618      149.376      417.835   764956.634    22313.212   174586.324       56.313       48.093      369.678      591.605        2.561      330.534       -2.005      852.252
01/26/2021  04:08:00      397.190       42.706     -161.408      920.908       33.607      437.950   848071.608     1129.398   191800.313       61.310       52.050      399.479      634.647        2.524      330.558       -1.962      852.249
01/26/2021  04:09:00      370.959       37.740     -157.342      904.370       16.469      431.654   817885.715      271.219   186325.435       58.392       50.224      372.874      624.529        2.805      330.439       -2.157      852.206
01/26/2021  04:10:00      264.902       21.377     -115.588      755.065       21.852      358.336   570122.760      477.524   128404.582       39.135       34.950      265.763      519.914        3.827      330.100       -2.722      852.155
01/26/2021  04:11:00      230.081      -29.079     -118.727      721.091      118.248      346.367   519972.122    13982.493   119970.245       36.076       32.696      231.911      489.553        4.456      330.046       -2.813      852.139
01/26/2021  04:12:00      175.298      -19.548      -97.556      706.796       10.846      337.889   499560.756      117.638   114169.129       32.711       30.692      176.385      488.473        7.669      330.064       -2.785      852.167
01/26/2021  04:13:00      269.556      -35.125     -137.857      819.654       23.129      393.487   671832.851      534.961   154832.020       45.987       41.360      271.835      567.506        4.358      330.440       -2.163      852.213
01/26/2021  04:14:00      460.919      -41.092     -215.018     1025.067       26.698      485.587  1050762.679      712.779   235794.422       77.355       64.363      462.747      705.152        2.322      331.077       -1.105      852.252
01/26/2021  04:15:00      290.920      -15.198     -130.875      794.540       23.259      379.117   631294.114      541.004   143729.935       43.861       38.778      291.317      548.496        3.545      330.248       -2.480      852.261
01/26/2021  04:16:00      281.488       -0.773     -123.188      762.721       29.585      361.580   581743.042      875.255   130740.204       40.373       35.668      281.489      524.639        3.474      330.215       -2.537      852.244
01/26/2021  04:17:00      375.434        7.264     -159.306      914.142       36.538      436.028   835655.894     1334.995   190120.819       59.653       51.356      375.504      630.760        2.822      330.579       -1.930      852.215
01/26/2021  04:18:00      397.660       -3.752     -169.973      918.239       20.838      437.684   843163.570      434.206   191567.712       61.088       51.758      397.677      633.586        2.538      330.609       -1.881      852.193
01/26/2021  04:19:00      226.511      -11.305      -79.710      655.980       21.240      312.192   430309.456      451.135    97463.801       29.289       26.411      226.793      452.161        3.975      329.856       -3.128      852.191
01/26/2021  04:20:00      166.713       -5.308      -61.900      562.346       24.494      268.950   316232.907      599.955    72333.939       21.033       19.458      166.798      388.324        5.420      329.708       -3.374      852.197
01/26/2021  04:21:00      255.154       -6.907      -98.199      711.304       22.204      338.133   505953.864      493.030   114333.634       34.765       31.039      255.247      489.995        3.685      329.975       -2.931      852.211
01/26/2021  04:22:00      215.430       -6.318      -95.657      654.574       35.719      312.121   428466.703     1275.825    97419.235       29.127       26.358      215.522      451.096        4.381      329.973       -2.936      852.229
01/26/2021  04:23:00      242.378      -15.827      -93.596      608.475       37.131      288.954   370242.166     1378.725    83494.326       26.134       22.756      242.894      418.562        2.970      329.997       -2.900      852.258
01/26/2021  04:24:00      329.329        2.623     -134.876      819.245       48.982      388.939   671162.437     2399.220   151273.821       47.557       41.242      329.340      563.905        2.932      330.355       -2.302      852.286
01/26/2021  04:25:00      297.965       -6.004     -105.989      760.178       20.956      361.123   577871.002      439.157   130409.740       40.424       35.436      298.026      523.191        3.082      330.143       -2.652      852.283
01/26/2021  04:26:00      280.130      -68.316     -115.416      715.407       45.012      339.951   511807.429     2026.106   115566.798       36.279       31.470      288.340      492.258        2.915      330.160       -2.628      852.270
01/26/2021  04:27:00      273.447      -57.773     -120.491      768.466       43.216      363.490   590539.630     1867.607   132124.736       40.842       36.227      279.483      527.749        3.566      330.250       -2.477      852.257
01/26/2021  04:28:00      279.185      -89.713     -112.147      743.721       33.297      355.401   553121.210     1108.666   126309.569       38.941       34.027      293.245      513.274        3.064      330.255       -2.470      852.265
01/26/2021  04:29:00      425.664      -69.818     -181.036      925.248      132.669      450.646   856083.058    17601.183   203082.202       64.757       53.838      431.352      637.123        2.182      330.771       -1.613      852.289
01/26/2021  04:30:00      282.396      -37.477     -130.206      789.544       30.026      378.767   623380.334      901.532   143464.595       43.276       38.387      284.872      546.398        3.679      330.391       -2.245      852.311
01/26/2021  04:31:00      363.822      -68.302     -154.493      875.847       35.887      418.577   767108.657     1287.897   175207.119       55.205       47.180      370.178      604.942        2.671      330.597       -1.902      852.322
01/26/2021  04:32:00      312.751      -33.816     -119.673      748.717       38.640      355.700   560577.080     1493.049   126522.220       40.079       34.430      314.574      515.274        2.683      330.247       -2.484      852.345
01/26/2021  04:33:00      423.815      -22.826     -206.540      940.843       44.584      445.896   885185.234     1987.689   198823.031       65.417       54.300      424.429      646.950        2.323      330.981       -1.267      852.376
01/26/2021  04:34:00      321.568       -1.843     -134.311      820.084       29.451      393.715   672538.092      867.352   155011.453       47.476       41.421      321.573      567.420        3.114      330.476       -2.104      852.415
01/26/2021  04:35:00      281.856      -15.081     -110.493      761.197       93.896      362.414   579421.049     8816.399   131344.136       40.558       35.979      282.259      519.016        3.381      330.157       -2.631      852.428
01/26/2021  04:36:00      367.450       -2.125     -151.328      866.818       27.866      413.713   751372.833      776.528   171158.627       54.041       46.165      367.456      598.373        2.652      330.480       -2.096      852.407
01/26/2021  04:37:00      271.351       -5.062     -115.705      727.516       32.003      345.850   529279.236     1024.175   119612.487       36.834       32.496      271.398      500.924        3.407      330.099       -2.728      852.355
01/26/2021  04:38:00      262.172      -10.596     -103.004      683.218       24.069      325.787   466787.518      579.295   106137.005       32.636       28.675      262.386      471.229        3.225      329.967       -2.943      852.321
01/26/2021  04:39:00      230.664      -11.938      -87.052      652.007       21.009      312.068   425113.208      441.367    97386.493       29.182       26.147      230.973      450.542        3.805      329.849       -3.139      852.337
01/26/2021  04:40:00      225.531      -15.460      -91.074      655.794       25.034      313.886   430065.943      626.707    98524.674       29.419       26.461      226.060      453.254        4.020      329.878       -3.092      852.392
01/26/2021  04:41:00      199.184       -7.073      -83.770      666.362       31.814      317.199   444038.961     1012.100   100615.039       29.609       27.283      199.310      459.098        5.306      330.004       -2.885      852.453
01/26/2021  04:42:00      205.413      -20.970      -88.192      621.958       39.166      298.065   386832.077     1534.013    88842.495       26.371       23.860      206.480      429.543        4.328      329.948       -2.979      852.470
01/26/2021  04:43:00      247.973       -3.399      -90.084      695.693       46.259      329.869   483988.354     2139.879   108813.877       33.215       29.747      247.997      478.040        3.716      330.041       -2.823      852.468
01/26/2021  04:44:00      221.574       22.470      -94.033      686.929       43.644      329.729   471871.312     1904.810   108721.480       32.034       29.125      222.711      475.161        4.552      329.864       -3.113      852.465
01/26/2021  04:45:00      297.048        9.482     -113.469      773.277      182.148      401.376   597957.138    33177.934   161103.090       44.655       39.612      297.200      539.972        3.301      330.042       -2.815      852.465
01/26/2021  04:46:00      309.937       16.117     -103.625      758.114      118.571      364.806   574736.227    14059.200   133083.333       41.431       36.094      310.356      516.692        2.772      329.873       -3.095      852.461
01/26/2021  04:47:00      246.677       15.086      -84.938      668.178       26.035      318.534   446461.527      677.810   101463.971       30.833       27.430      247.138      460.371        3.470      329.789       -3.238      852.448
01/26/2021  04:48:00      197.652      -19.794      -82.089      662.439      191.645      324.941   438825.608    36727.800   105586.920       31.354       29.057      198.641      436.622        4.831      329.812       -3.198      852.438
01/26/2021  04:49:00      169.807        5.771      -59.126      611.346       29.497      290.818   373743.405      870.050    84575.254       24.568       22.959      169.905      420.897        6.137      329.699       -3.389      852.436
01/26/2021  04:50:00      244.639       19.719      -88.360      648.517       29.387      311.154   420573.868      863.578    96816.546       29.303       25.913      245.432      448.742        3.343      329.760       -3.285      852.450
01/26/2021  04:51:00      137.005       41.854      -32.980      438.368       20.704      208.358   192166.249      428.653    43413.204       12.876       11.800      143.255      301.903        4.441      329.327       -4.002      852.451
01/26/2021  04:52:00      351.363       52.472     -143.533      837.942        9.760      399.030   702147.331       95.248   159224.643       50.396       43.073      355.259      578.009        2.647      330.078       -2.753      852.442
01/26/2021  04:53:00      265.644       39.812     -114.268      768.331       17.367      364.986   590332.840      301.602   133214.711       40.437       36.192      268.611      529.356        3.884      329.884       -3.077      852.433
01/26/2021  04:54:00      201.689       32.271      -79.016      670.983       10.673      319.271   450217.521      113.902   101933.887       30.000       27.613      204.255      462.643        5.130      329.572       -3.592      852.431
01/26/2021  04:55:00      224.487       30.081      -95.496      672.284      161.246      358.180   451965.635    26000.378   128292.801       33.321       30.313      226.493      475.705        4.411      329.686       -3.402      852.447
01/26/2021  04:56:00      179.199       20.284      -63.386      575.262        9.902      273.966   330926.040       98.043    75057.206       22.122       20.304      180.344      396.810        4.841      329.495       -3.722      852.463
01/26/2021  04:57:00      253.540       14.157     -113.491      808.667      165.245      390.712   653941.815    27305.921   152656.151       45.545       41.695      253.935      544.908        4.605      330.010       -2.868      852.483
01/26/2021  04:58:00      184.672        3.290      -78.108      648.077       13.939      309.861   420003.884      194.305    96013.639       27.810       25.811      184.701      447.841        5.879      329.582       -3.576      852.491
01/26/2021  04:59:00      217.706        1.789      -96.680      694.868      114.892      355.605   482841.762    13200.096   126454.997       33.949       31.125      217.713      489.133        5.048      329.806       -3.206      852.496
01/26/2021  05:00:00      265.224      -17.587     -122.844      797.412       18.019      380.620   635865.798      324.689   144871.584       43.323       39.053      265.807      550.686        4.292      329.965       -2.942      852.505
01/26/2021  05:01:00      242.270      -12.108     -113.571      762.458       34.134      361.927   581341.722     1165.110   130990.955       39.246       35.675      242.572      524.784        4.680      329.953       -2.966      852.513
01/26/2021  05:02:00      288.173       15.831     -121.519      833.316       39.875      399.475   694415.028     1590.003   159580.422       47.664       42.779      288.607      576.503        3.990      330.010       -2.866      852.527
01/26/2021  05:03:00      146.869       -2.051      -53.300      581.899      101.016      280.967   338605.994    10204.188    78942.367       22.599       21.388      146.883      395.424        7.247      329.431       -3.824      852.548
01/26/2021  05:04:00      234.678        2.009      -88.434      717.987      103.721      347.028   515504.850    10757.977   120428.417       35.466       32.335      234.686      491.378        4.384      329.660       -3.447      852.569
01/26/2021  05:05:00      278.817       17.129     -122.025      778.376       72.544      370.119   605868.688     5262.603   136987.955       42.036       37.406      279.343      533.463        3.647      329.861       -3.115      852.581
01/26/2021  05:06:00      346.448        6.228     -141.891      887.665       41.271      421.450   787948.494     1703.274   177619.713       55.353       48.364      346.504      611.064        3.110      330.036       -2.821      852.585
01/26/2021  05:07:00      328.676       14.086     -137.339      865.153       22.223      412.667   748490.290      493.874   170293.856       52.298       45.964      328.977      597.095        3.294      330.033       -2.828      852.577
01/26/2021  05:08:00      333.985       27.605     -137.068      836.544       64.726      399.983   699805.865     4189.517   159986.056       49.735       43.199      335.124      575.740        2.952      329.946       -2.971      852.584
01/26/2021  05:09:00      188.324       27.846      -78.824      630.909       24.053      300.332   398045.989      578.563    90199.266       26.553       24.441      190.372      434.986        5.221      329.445       -3.802      852.598
01/26/2021  05:10:00       90.857        3.295      -63.911      601.214       99.104      292.350   361457.858     9821.665    85468.429       23.445       22.837       90.916      410.678       20.404      329.343       -3.970      852.616
01/26/2021  05:11:00      266.368       24.943     -151.778      888.946       18.336      423.735   790225.659      336.221   179551.478       53.215       48.506      267.533      613.410        5.257      329.891       -3.059      852.630
01/26/2021  05:12:00      213.767       22.206     -137.988      848.714       83.133      407.757   720315.094     6911.050   166265.715       47.917       44.675      214.918      583.990        7.384      329.822       -3.174      852.643
01/26/2021  05:13:00      141.241       11.713     -104.806      713.669       16.587      341.242   509323.886      275.113   116445.918       32.842       31.302      141.726      492.734       12.087      329.545       -3.634      852.656
01/26/2021  05:14:00      121.627        0.115      -89.703      669.275       18.950      316.745   447929.553      359.117   100327.118       28.561       27.431      121.627      459.747       14.288      329.420       -3.841      852.671
01/26/2021  05:15:00       80.523       10.017      -65.846      564.038      118.140      273.993   318139.312    13956.986    75072.059       20.896       20.358       81.144      380.000       21.931      329.335       -3.983      852.687
01/26/2021  05:16:00      197.730       -7.301     -110.607      846.766      165.413      408.041   717012.964    27361.380   166497.626       48.093       45.544      197.865      570.648        8.318      329.856       -3.118      852.696
01/26/2021  05:17:00       47.672       40.138      -75.059      661.165       36.205      311.483   437138.828     1310.809    97021.869       27.238       26.774       62.319      451.870       52.576      329.052       -4.442      852.689
01/26/2021  05:18:00       65.421       18.452      -83.146      685.180       33.022      327.275   469471.693     1090.470   107109.178       29.448       28.884       67.973      471.760       48.169      329.052       -4.442      852.679
01/26/2021  05:19:00       52.213       34.618      -93.724      721.293      150.112      351.711   520263.042    22533.666   123700.338       33.946       33.325       62.647      488.775       60.872      329.153       -4.275      852.678
01/26/2021  05:20:00      137.401       61.698     -129.516      800.836      148.069      391.428   641337.501    21924.501   153215.861       42.779       40.824      150.618      546.867       13.183      329.299       -4.031      852.684
01/26/2021  05:21:00      120.597       48.825     -100.644      731.134       64.761      345.608   534557.568     4193.971   119444.588       34.249       32.910      130.106      499.092       14.715      329.244       -4.126      852.698
01/26/2021  05:22:00      263.921       42.703     -154.299      896.001      215.811      432.850   802818.396    46574.592   187358.999       56.580       51.838      267.353      596.482        4.978      329.696       -3.377      852.712
01/26/2021  05:23:00      231.728       70.890     -128.934      848.068      149.053      409.644   719219.133    22216.829   167808.106       49.210       45.462      242.328      576.478        5.659      329.651       -3.454      852.741
01/26/2021  05:24:00      300.180       62.204     -154.974      908.575       78.289      434.490   825509.016     6129.097   188781.688       56.899       51.021      306.557      624.994        4.157      329.935       -2.985      852.772
01/26/2021  05:25:00      173.612       28.364      -99.173      731.124      109.986      354.077   534542.470    12096.999   125370.585       35.625       33.601      175.914      499.418        8.060      329.399       -3.870      852.820
01/26/2021  05:26:00      234.650        3.293     -127.233      841.371      158.712      405.614   707904.635    25189.349   164522.567       48.424       44.881      234.673      568.953        5.878      329.646       -3.462      852.864
01/26/2021  05:27:00      324.352      -22.592     -166.795      989.539      217.326      481.140   979187.055    47230.461   231495.684       69.546       62.896      325.138      664.676        4.179      330.075       -2.751      852.906
01/26/2021  05:28:00      247.168       -7.008     -149.949      863.511      176.348      415.515   745652.083    31098.455   172652.506       51.631       47.470      247.267      580.703        5.515      329.639       -3.471      852.939
01/26/2021  05:29:00      299.542        1.449     -157.579      950.126       45.911      455.653   902738.524     2107.803   207619.915       61.327       55.623      299.545      656.797        4.808      329.584       -3.558      852.958
01/26/2021  05:30:00      217.037       -3.218     -135.295      853.111      269.482      424.752   727797.868    72620.565   180414.033       52.292       49.042      217.061      561.016        6.680      329.396       -3.867      852.948
01/26/2021  05:31:00      184.573      -17.811      -88.635      708.442       95.370      341.084   501889.849     9095.407   116338.279       33.465       31.366      185.431      485.311        6.850      329.053       -4.439      852.926
01/26/2021  05:32:00      246.499      -20.897     -118.045      792.034       10.696      378.323   627317.101      114.409   143128.188       42.268       38.528      247.383      547.193        4.893      329.311       -4.012      852.909
01/26/2021  05:33:00      255.784       -6.519     -139.456      859.522      286.060      427.725   738777.317    81830.471   182948.898       54.402       50.178      255.867      559.469        4.781      329.572       -3.580      852.893
01/26/2021  05:34:00      150.043       16.527      -68.564      600.729      201.179      298.944   360874.984    40473.070    89367.620       25.900       24.536      150.950      391.035        6.711      328.933       -4.639      852.886
01/26/2021  05:35:00      306.896       17.356     -139.013      857.864      148.277      415.502   735930.929    21986.170   172641.594       52.199       46.528      307.386      584.448        3.615      329.582       -3.565      852.863
01/26/2021  05:36:00      249.176        4.349     -112.306      759.565        6.757      362.203   576938.513       45.659   131190.846       39.130       35.409      249.214      524.353        4.427      329.157       -4.266      852.849
01/26/2021  05:37:00      260.179       -4.229     -127.760      839.589      198.150      385.808   704910.327    39263.433   148847.756       48.834       44.651      260.213      546.561        4.412      329.519       -3.668      852.849
01/26/2021  05:38:00      372.334      -17.186     -174.311      932.688        8.549      444.815   869906.200       73.077   197860.728       61.835       53.392      372.731      643.916        2.984      329.857       -3.112      852.860
01/26/2021  05:39:00      262.944       11.627     -129.705      838.106      184.215      407.721   702421.311    33935.157   166236.717       49.415       45.130      263.201      564.202        4.595      329.588       -3.555      852.885
01/26/2021  05:40:00      226.445       30.165     -123.635      798.531      175.123      385.094   637652.194    30668.162   148297.419       44.187       40.831      228.446      535.231        5.489      329.317       -4.002      852.914
01/26/2021  05:41:00      179.357        5.093      -84.728      734.874      244.271      366.710   540039.298    59668.186   134476.392       38.662       36.709      179.429      479.381        7.138      329.131       -4.309      852.944
01/26/2021  05:42:00      262.191       17.318     -144.802      904.145      199.138      436.303   817477.428    39655.789   190360.650       56.853       52.375      262.762      605.854        5.316      329.528       -3.652      852.974
01/26/2021  05:43:00      215.414       -5.952     -107.426      766.626      136.525      369.421   587715.399    18638.952   136471.922       40.024       37.141      215.497      519.590        5.814      329.131       -4.307      852.988
01/26/2021  05:44:00      280.979        2.986     -126.217      872.700      262.260      392.385   761605.934    68780.125   153965.625       53.941       49.218      280.995      546.127        3.777      329.340       -3.956      853.001
01/26/2021  05:45:00      250.650       58.829     -123.356      778.960      260.401      395.277   606778.877    67808.585   156243.828       45.599       41.542      257.461      513.092        3.972      329.056       -4.429      853.032
01/26/2021  05:46:00      346.666       41.900     -144.585      874.585      282.778      413.218   764898.147    79963.187   170748.758       57.901       50.781      349.189      555.250        2.528      329.099       -4.351      853.062
01/26/2021  05:47:00      274.620       34.885      -96.507      687.452      243.145      345.365   472589.631    59119.322   119276.903       36.833       32.549      276.827      445.475        2.590      328.841       -4.784      853.092
01/26/2021  05:48:00      500.957       55.144     -214.786     1004.591       25.283      476.258  1009203.554      639.210   226821.283       76.813       61.833      503.983      691.167        1.881      329.671       -3.410      853.111
01/26/2021  05:49:00      323.667       54.508     -122.245      838.043      319.479      424.188   702316.221   102066.836   179935.497       55.329       49.216      328.225      538.454        2.691      329.208       -4.176      853.135
01/26/2021  05:50:00      339.703       61.898     -156.565      923.651      248.388      448.164   853131.817    61696.744   200850.789       62.947       55.784      345.296      610.004        3.121      329.286       -4.045      853.149
01/26/2021  05:51:00      375.438       -3.074     -148.111      995.496      368.235      502.012   991011.300   135597.121   252015.920       77.047       68.931      375.450      635.838        2.868      329.542       -3.621      853.164
01/26/2021  05:52:00      281.465       16.688     -141.181      838.284      337.838      447.710   702720.388   114134.260   200443.902       55.815       50.865      281.960      547.260        3.767      329.092       -4.363      853.186
01/26/2021  05:53:00      292.995       63.606     -170.991      909.682      361.500      441.957   827521.291   130681.997   195326.055       63.608       57.676      299.820      558.959        3.476      329.330       -3.970      853.220
01/26/2021  05:54:00      347.972       20.647     -152.728      959.413      425.414      494.990   920473.776   180977.384   245014.685       74.536       67.323      348.584      601.912        2.982      329.371       -3.902      853.239
01/26/2021  05:55:00      365.974       52.074     -165.946      899.675      229.501      433.297   809415.199    52670.566   187746.632       60.679       52.492      369.660      594.578        2.587      329.082       -4.382      853.256
01/26/2021  05:56:00      349.537       28.848     -146.228      867.847      229.716      420.593   753158.911    52769.505   176898.758       56.340       49.141      350.725      572.123        2.661      329.052       -4.432      853.270
01/26/2021  05:57:00      360.641      -24.597     -132.095      935.679      465.661      475.124   875494.745   216840.033   225742.379       73.281       65.904      361.479      545.573        2.278      329.335       -3.952      853.262
01/26/2021  05:58:00      284.909       84.223     -126.666      871.362      319.872      428.535   759272.072   102318.301   183642.079       57.455       52.262      297.097      553.919        3.476      328.989       -4.532      853.259
01/26/2021  05:59:00      408.149      101.582     -205.175      987.819      512.495      537.895   975786.904   262650.629   289331.496       87.306       76.388      420.600      615.157        2.139      329.579       -3.555      853.266
01/26/2021  06:00:00      293.519       40.068     -163.934     1125.222      398.940      523.636  1266124.826   159153.351   274194.491       90.669       84.974      296.241      687.625        5.388      329.721       -3.319      853.269
01/26/2021  06:01:00      349.183        5.740     -136.510      910.216      447.096      482.725   828493.536   199894.708   233023.376       70.073       63.071      349.230      550.579        2.486      329.273       -4.065      853.274
01/26/2021  06:02:00      364.948       38.796     -162.875      933.315      336.551      465.104   871076.315   113266.291   216321.291       68.068       60.033      367.005      598.212        2.657      329.179       -4.219      853.288
01/26/2021  06:03:00      340.627       58.901     -167.993      932.791      419.691      492.205   870099.432   176140.187   242265.410       71.783       64.425      345.682      589.974        2.913      329.209       -4.167      853.309
01/26/2021  06:04:00      280.352       40.978     -156.961      947.165      351.496      483.317   897121.071   123549.089   233595.510       67.932       62.713      283.331      617.682        4.753      329.391       -3.869      853.332
01/26/2021  06:05:00      350.976        5.580     -167.261      988.075      536.720      556.876   976293.128   288068.732   310110.420       86.250       78.724      351.021      603.099        2.952      329.767       -3.241      853.370
01/26/2021  06:06:00      313.222       73.204     -162.925     1010.693      388.095      510.020  1021499.658   150617.460   260120.770       78.082       71.612      321.663      647.310        4.050      329.274       -4.054      853.404
01/26/2021  06:07:00      350.910       88.107     -161.684      924.266      431.009      500.719   854267.420   185768.877   250719.532       72.362       64.538      361.802      587.847        2.640      329.292       -4.031      853.439
01/26/2021  06:08:00      350.555       96.144     -180.161      993.059      461.789      526.668   986166.927   213249.032   277378.834       82.038       73.840      363.500      629.680        3.001      329.472       -3.729      853.469
01/26/2021  06:09:00      380.278       91.272     -192.143     1067.238      435.260      517.501  1138996.346   189451.271   267807.231       89.272       79.813      391.078      651.819        2.778      329.507       -3.673      853.490
01/26/2021  06:10:00      439.565       21.850     -190.720     1027.652      310.608      509.925  1056069.557    96477.615   260023.969       82.101       70.629      440.107      677.554        2.370      329.470       -3.737      853.496
01/26/2021  06:11:00      357.132       36.563     -148.944      881.528      389.393      472.730   777090.767   151626.776   223473.371       65.138       57.610      358.999      571.340        2.533      329.248       -4.100      853.497
01/26/2021  06:12:00      458.964       -3.102     -166.839     1093.756      385.969      560.168  1196302.095   148972.015   313787.815       94.842       82.953      458.974      717.833        2.446      329.706       -3.345      853.502
01/26/2021  06:13:00      386.446      -32.310     -122.503     1004.772      433.836      506.757  1009565.863   188213.840   256802.495       80.968       72.729      387.794      621.207        2.566      329.516       -3.660      853.509
01/26/2021  06:14:00      300.589       53.173     -146.396     1048.729      431.868      534.434  1099833.308   186510.351   285619.424       84.295       78.598      305.256      664.681        4.741      329.590       -3.540      853.514
01/26/2021  06:15:00      410.964       23.174     -173.703      993.626      585.089      569.974   987292.853   342328.581   324870.129       92.670       82.725      411.617      612.935        2.217      329.776       -3.226      853.503
01/26/2021  06:16:00      256.002       20.704     -126.044      860.874      372.440      443.325   741104.743   138711.579   196537.062       57.887       53.818      256.838      542.743        4.466      329.057       -4.422      853.483
01/26/2021  06:17:00      250.157       31.814     -161.954      831.264      306.459      432.719   690999.441    93916.978   187245.431       53.079       48.608      252.172      548.414        4.730      329.141       -4.286      853.456
01/26/2021  06:18:00      442.937      -18.113     -245.185     1154.101      612.161      632.523  1331948.595   374740.787   400084.990      118.125      105.339      443.308      717.449        2.619      330.687       -1.729      853.426
01/26/2021  06:19:00      398.702       -7.318     -165.172     1010.658      393.557      521.843  1021430.448   154887.142   272320.561       81.716       72.432      398.769      656.118        2.707      329.650       -3.441      853.406
01/26/2021  06:20:00      420.148      -18.927     -149.715     1045.065      644.901      591.811  1092161.343   415897.181   350239.718      102.840       92.915      420.574      618.509        2.163      330.036       -2.800      853.407
01/26/2021  06:21:00      413.526       25.421     -216.558     1070.893      527.268      569.309  1146812.643   278011.287   324112.248       98.338       87.447      414.307      669.005        2.607      329.944       -2.954      853.430
01/26/2021  06:22:00      251.524      -24.322      -98.751      816.164      401.217      434.731   666124.428   160975.298   188990.839       54.463       50.805      252.697      498.329        3.889      328.904       -4.672      853.462
01/26/2021  06:23:00      434.599      -62.249     -163.460     1097.473      405.686      549.004  1204446.929   164581.379   301405.525       94.459       83.522      439.034      701.433        2.553      329.658       -3.424      853.495
01/26/2021  06:24:00      265.225        6.696     -123.968      944.956      235.165      461.386   892941.715    55302.444   212877.351       62.319       58.056      265.310      631.658        5.668      329.060       -4.413      853.523
01/26/2021  06:25:00      266.323      106.224     -177.951     1062.843      615.618      584.112  1129634.561   378986.063   341186.493       98.145       92.490      286.725      619.447        4.667      329.894       -3.035      853.553
01/26/2021  06:26:00      398.981      -22.391     -150.937     1063.598      476.099      579.602  1131241.342   226670.281   335938.662       93.780       84.693      399.609      695.488        3.029      329.951       -2.935      853.584
01/26/2021  06:27:00      284.119       58.016     -175.945     1086.119      584.954      596.028  1179654.190   342170.677   355249.201       99.566       93.854      289.982      673.955        5.402      329.714       -3.330      853.615
01/26/2021  06:28:00      368.845       42.566     -176.689     1195.821      519.279      585.670  1429987.635   269650.265   343009.030      110.542      102.132      371.293      719.430        3.754      329.790       -3.196      853.632
01/26/2021  06:29:00      436.874      -35.060     -179.481     1082.694      484.363      593.560  1172226.115   234607.764   352313.606       99.135       87.957      438.278      712.210        2.641      329.551       -3.592      853.646
01/26/2021  06:30:00      287.702       15.986     -154.671     1024.230      524.694      571.950  1049047.980   275304.276   327127.129       87.887       82.574      288.146      656.943        5.198      329.594       -3.527      853.663
01/26/2021  06:31:00      249.647       35.341     -166.213     1034.155      417.925      524.219  1069475.991   174661.207   274805.731       80.475       75.947      252.136      655.691        6.763      329.223       -4.141      853.670
01/26/2021  06:32:00      232.584      -15.529     -169.024      926.989      492.011      554.821   859308.394   242075.019   307826.455       74.576       70.460      233.102      602.612        6.683      329.143       -4.267      853.677
01/26/2021  06:33:00      305.096       -7.383     -164.604     1049.649      540.627      568.399  1101762.268   292277.883   323077.318       91.831       85.856      305.186      655.888        4.619      329.370       -3.897      853.683
01/26/2021  06:34:00      178.410       75.603     -179.842     1039.159      507.575      541.886  1079851.520   257632.588   293639.900       85.016       81.556      193.768      628.576       10.523      329.116       -4.315      853.692
01/26/2021  06:35:00      257.407        7.179     -140.165      939.908      338.370      489.578   883426.269   114494.594   239686.176       66.152       61.880      257.507      620.177        5.800      328.730       -4.950      853.696
01/26/2021  06:36:00      347.871      -17.234     -141.883      970.276      454.143      527.082   941435.560   206246.060   277814.939       78.317       71.275      348.297      619.880        3.167      328.960       -4.570      853.695
01/26/2021  06:37:00      236.950       70.555     -175.442     1127.853      444.170      551.369  1272051.868   197286.654   304007.601       93.225       88.667      247.231      697.961        7.970      329.284       -4.027      853.686
01/26/2021  06:38:00      339.455       49.715     -188.549     1003.025      445.979      516.464  1006059.097   198897.291   266734.617       81.215       73.585      343.076      619.329        3.259      329.279       -4.050      853.683
01/26/2021  06:39:00      431.358       38.549     -206.892     1096.054      490.260      609.144  1201334.273   240354.941   371056.659      102.116       90.637      433.077      728.204        2.827      329.991       -2.867      853.681
01/26/2021  06:40:00      188.883       18.735     -125.723      954.616      580.501      478.025   911291.617   336980.837   228507.554       76.399       73.839      189.810      563.126        8.802      329.270       -4.061      853.691
01/26/2021  06:41:00      225.311       99.064     -126.773     1240.723      667.571      652.744  1539392.743   445650.609   426074.216      124.337      120.556      246.128      721.210        8.586      330.118       -2.650      853.709
01/26/2021  06:42:00      420.573       27.420     -177.955     1082.738      537.144      556.945  1172322.408   288523.399   310187.917       98.979       88.552      421.466      642.999        2.328      329.539       -3.612      853.716
01/26/2021  06:43:00      501.253       38.409     -280.103     1266.285      542.503      657.416  1603478.089   294309.441   432195.164      133.008      116.499      502.722      804.975        2.564      330.103       -2.677      853.723
01/26/2021  06:44:00      385.666      -97.402     -119.899     1089.039      592.720      619.479  1186006.634   351316.884   383753.677      104.643       96.054      397.775      698.749        3.086      329.736       -3.290      853.727
01/26/2021  06:45:00      181.512       66.389     -120.120     1153.523      819.544      657.004  1330614.918   671652.358   431653.776      124.233      121.696      193.272      658.547       11.610      330.018       -2.824      853.729
01/26/2021  06:46:00      268.646        2.049     -130.071     1027.294      589.387      545.922  1055333.266   347376.914   298030.953       89.455       85.037      268.654      604.010        5.055      329.316       -3.984      853.730
01/26/2021  06:47:00      274.641      -35.584     -145.386     1038.676      540.953      557.039  1078848.769   292629.901   310292.085       88.943       84.089      276.937      627.520        5.134      329.532       -3.634      853.745
01/26/2021  06:48:00      297.053       42.440     -200.061     1070.195      631.015      567.398  1145317.379   398179.640   321941.036       99.736       93.272      300.070      604.428        4.057      329.636       -3.453      853.757
01/26/2021  06:49:00      276.669      -19.622     -132.162     1117.035      536.341      592.395  1247767.910   287661.313   350931.940       98.998       94.318      277.364      699.551        6.361      329.678       -3.384      853.766
01/26/2021  06:50:00      323.169      -15.857     -186.788     1202.433      593.733      646.733  1445844.255   352518.337   418264.187      117.763      110.831      323.558      754.597        5.439      329.870       -3.064      853.782
01/26/2021  06:51:00      379.220      -12.748     -194.890     1133.157      622.580      622.319  1284043.930   387605.634   387281.160      112.001      102.947      379.435      696.368        3.368      329.649       -3.433      853.796
01/26/2021  06:52:00      352.152       74.185     -250.451     1121.024      766.418      637.477  1256694.859   587396.867   406377.005      122.087      112.523      359.881      634.933        3.113      329.918       -2.983      853.814
01/26/2021  06:53:00      307.851       21.090     -181.134     1020.370      562.501      551.401  1041154.502   316406.996   304043.125       89.446       83.080      308.572      604.493        3.838      329.479       -3.710      853.829
01/26/2021  06:54:00      390.921       37.074     -215.597     1185.242      668.934      664.163  1404798.793   447472.410   441112.051      124.654      114.669      392.675      734.109        3.495      329.995       -2.856      853.859
01/26/2021  06:55:00      295.457       91.640     -201.855     1141.441      634.097      610.442  1302888.657   402078.718   372638.927      110.658      103.880      309.343      675.994        4.775      329.710       -3.328      853.878
01/26/2021  06:56:00      379.948       18.401     -205.034     1162.841      548.598      623.093  1352200.077   300959.247   388244.419      111.364      102.070      380.393      740.057        3.785      329.775       -3.224      853.878
01/26/2021  06:57:00      370.723      -33.523     -162.318     1160.877      597.957      624.506  1347636.071   357552.937   390007.855      112.960      104.760      372.236      723.590        3.779      329.576       -3.551      853.885
01/26/2021  06:58:00      304.059        1.549     -183.319     1177.606      516.789      592.982  1386756.846   267070.706   351628.160      106.533      100.273      304.063      721.884        5.636      329.685       -3.367      853.895
01/26/2021  06:59:00      275.676      115.719     -237.213     1295.033      737.414      707.614  1677109.336   543779.182   500717.113      143.305      136.080      298.978      787.684        6.941      330.306       -2.334      853.914
01/26/2021  07:00:00      354.713       54.122     -220.272     1191.617      673.442      676.139  1419950.819   453523.845   457164.536      125.345      116.532      358.818      753.375        4.408      329.827       -3.128      853.922
01/26/2021  07:01:00      355.793       37.471     -200.097     1103.256      643.508      626.313  1217174.310   414102.916   392267.450      109.536      101.177      357.761      689.766        3.717      329.694       -3.354      853.933
01/26/2021  07:02:00      351.406      143.113     -295.951     1146.251      682.781      644.931  1313891.766   466189.580   415935.801      121.331      109.801      379.431      698.495        3.389      330.039       -2.777      853.936
01/26/2021  07:03:00      286.384       21.401     -174.543     1171.866      652.407      596.270  1373269.693   425634.608   355537.978      113.323      107.722      287.182      671.283        5.464      329.780       -3.213      853.951
01/26/2021  07:04:00      287.362       80.408     -193.486     1179.557      689.202      608.320  1391353.607   474998.891   370053.578      118.096      111.820      298.400      648.595        4.724      329.603       -3.498      853.958
01/26/2021  07:05:00      233.802       72.506     -221.369     1150.344      579.250      593.694  1323290.728   335530.831   352472.608      105.968      100.565      244.786      680.244        7.722      329.244       -4.093      853.966
01/26/2021  07:06:00      277.062       17.546     -124.278     1154.607      795.347      645.581  1333116.294   632576.706   416774.183      123.698      119.123      277.617      637.676        5.276      329.462       -3.731      853.966
01/26/2021  07:07:00      363.511       50.807     -239.714     1217.277      629.234      642.244  1481762.355   395935.559   412477.155      124.069      114.509      367.044      738.416        4.047      329.576       -3.548      853.968
01/26/2021  07:08:00      292.043       25.236     -170.518     1188.374      673.843      612.977  1412232.836   454063.955   375740.633      117.804      112.102      293.132      685.170        5.463      329.639       -3.434      853.966
01/26/2021  07:09:00      252.366       -4.225      -85.167     1021.393      668.450      586.673  1043244.348   446825.977   344185.502       95.222       91.713      252.401      586.015        5.391      329.100       -4.334      853.966
01/26/2021  07:10:00      343.744      -61.271     -125.838     1026.494      707.380      597.452  1053689.049   500386.661   356948.543      102.398       95.551      349.162      621.683        3.170      329.258       -4.068      853.972
01/26/2021  07:11:00      325.569       27.755     -137.097     1237.705      788.924      663.128  1531914.082   622400.646   439738.582      135.925      129.703      326.750      652.921        3.993      329.939       -2.936      853.978
01/26/2021  07:12:00      374.581        4.966     -196.660     1212.285      732.823      660.366  1469635.356   537029.943   436083.905      131.036      122.137      374.614      710.364        3.596      329.985       -2.869      853.974
01/26/2021  07:13:00      305.693       75.626     -183.344     1112.110      769.875      640.329  1236789.286   592706.811   410020.793      118.567      111.976      314.909      647.734        4.231      329.784       -3.195      853.970
01/26/2021  07:14:00      149.176       22.271      -65.674     1019.477      739.579      596.602  1039332.450   546976.676   355934.206       98.423       97.112      150.829      588.967       15.248      329.432       -3.789      853.957
01/26/2021  07:15:00      287.202       13.217     -159.088     1054.423      566.043      563.278  1111807.799   320404.152   317282.383       92.835       87.475      287.506      641.460        4.978      329.358       -3.916      853.949
01/26/2021  07:16:00      222.649       79.550     -191.729     1103.831      846.303      665.632  1218443.525   716229.225   443065.310      123.469      118.887      236.434      684.658        8.385      330.280       -2.394      853.938
01/26/2021  07:17:00      375.680       42.423     -207.758     1074.598      623.478      589.873  1154760.511   388725.362   347949.655      103.837       94.572      378.068      637.399        2.842      329.986       -2.883      853.922
01/26/2021  07:18:00      257.636       62.579     -118.273     1180.771      866.545      676.104  1394221.099   750900.698   457116.147      134.270      130.112      265.127      677.324        6.527      330.146       -2.612      853.910
01/26/2021  07:19:00      191.757      112.528     -116.501      933.427      543.596      522.715   871286.012   295496.920   273231.260       75.120       72.001      222.336      547.634        6.067      329.017       -4.475      853.905
01/26/2021  07:20:00      309.822       60.873     -161.989     1074.214      741.668      623.856  1153934.813   550072.116   389196.105      110.912      104.660      315.745      651.852        4.262      329.830       -3.134      853.911
01/26/2021  07:21:00      411.485      -26.660     -122.579     1094.542      770.050      618.138  1198022.005   592976.309   382094.150      117.861      108.655      412.347      617.496        2.243      329.918       -2.990      853.925
01/26/2021  07:22:00      370.446       87.792     -215.139     1228.930      650.768      623.002  1510269.814   423498.354   388131.552      125.606      116.095      380.707      699.361        3.375      330.221       -2.481      853.935
01/26/2021  07:23:00      446.835      -19.073     -167.021     1246.158      685.308      694.658  1552908.851   469646.500   482549.416      136.598      125.255      447.241      780.680        3.047      330.362       -2.252      853.933
01/26/2021  07:24:00      481.788       32.547     -186.113     1119.821      701.765      663.980  1253999.309   492474.266   440869.205      122.711      109.367      482.886      719.650        2.221      329.960       -2.916      853.932
01/26/2021  07:25:00      320.488       89.964     -161.115     1109.328      584.405      584.692  1230609.506   341529.299   341865.144      102.498       95.700      332.876      665.570        3.998      329.695       -3.356      853.938
01/26/2021  07:26:00      476.947       43.699     -225.069     1226.688      748.761      676.363  1504762.429   560643.493   457467.224      140.091      126.144      478.944      731.736        2.334      330.354       -2.266      853.951
01/26/2021  07:27:00      344.541      -42.787      -97.139     1082.092      726.998      649.126  1170923.382   528526.255   421364.485      112.494      106.041      347.188      683.400        3.875      329.827       -3.140      853.965
01/26/2021  07:28:00      296.432      161.525     -237.284     1189.855      704.623      637.234  1415755.344   496492.988   406067.214      124.380      115.916      337.583      697.241        4.266      330.353       -2.266      853.970
01/26/2021  07:29:00      402.520      151.471     -270.659     1208.327      691.886      665.006  1460053.673   478705.624   442232.564      131.909      119.050      430.076      734.638        2.918      330.223       -2.477      853.957
01/26/2021  07:30:00      680.303        4.881     -267.010     1231.903      507.764      677.144  1517584.349   257824.375   458523.647      138.356      111.697      680.320      824.613        1.469      330.354       -2.267      853.953
01/26/2021  07:31:00      562.526       46.242     -233.819     1255.222      716.954      689.992  1575581.767   514023.414   476088.445      146.893      128.285      564.424      752.495        1.777      330.667       -1.750      853.945
01/26/2021  07:32:00      596.324       -4.295     -265.833     1259.182      692.375      673.486  1585540.002   479383.388   453584.050      147.186      125.925      596.339      763.275        1.638      330.610       -1.844      853.934
01/26/2021  07:33:00      560.308      -39.811     -242.108     1230.590      555.340      647.678  1514351.694   308402.576   419487.170      130.772      112.112      561.721      779.810        1.927      330.261       -2.421      853.928
01/26/2021  07:34:00      436.915      -32.456     -193.846     1136.316      408.594      577.589  1291215.014   166948.766   333609.261      101.026       89.589      438.119      740.122        2.854      329.884       -3.054      853.916
01/26/2021  07:35:00      369.650       23.633     -191.060     1075.667      499.602      573.839  1157059.686   249602.619   329291.279       95.446       86.798      370.405      684.944        3.419      329.314       -3.982      853.893
01/26/2021  07:36:00      248.832       80.818     -180.966     1032.406      485.712      532.062  1065862.080   235915.710   283090.171       84.270       79.243      261.628      635.582        5.902      328.760       -4.895      853.884
01/26/2021  07:37:00      252.429       71.795     -163.407      956.354      337.112      473.907   914612.545   113644.670   224587.947       67.394       62.642      262.440      613.922        5.472      328.447       -5.412      853.871
01/26/2021  07:38:00      337.234      -24.320     -116.352      986.254      709.005      590.981   972696.611   502688.104   349258.594       97.586       91.232      338.109      615.942        3.319      329.407       -3.832      853.850
01/26/2021  07:39:00      809.501        8.435     -355.409     1404.678      346.286      667.750  1973120.622   119914.132   445890.453      165.977      126.946      809.545      927.095        1.311      330.828       -1.478      853.849
01/26/2021  07:40:00      737.803        7.808     -320.734     1285.926      378.611      642.102  1653606.641   143346.380   412294.884      142.779      110.462      737.845      855.026        1.343      330.468       -2.084      853.854
01/26/2021  07:41:00      553.400      -14.363     -240.858     1204.650      205.283      584.900  1451180.983    42141.141   342107.784      109.956       91.771      553.586      821.986        2.205      329.983       -2.887      853.867
01/26/2021  07:42:00      513.593       30.795     -226.375     1122.547      374.072      569.680  1260111.000   139929.818   324535.225      101.991       86.229      514.515      741.855        2.079      329.753       -3.263      853.878
01/26/2021  07:43:00      372.301       39.743     -155.569      945.434      148.010      452.794   893845.575    21906.889   205022.108       64.234       56.039      374.416      642.849        2.948      328.899       -4.678      853.876
01/26/2021  07:44:00      546.991       77.291     -223.767     1107.947      392.155      528.288  1227546.239   153785.926   279087.966      100.747       83.021      552.425      693.436        1.576      329.668       -3.395      853.877
01/26/2021  07:45:00      590.499       61.423     -259.328     1113.644      172.665      534.377  1240202.420    29813.051   285559.196       98.731       77.779      593.685      758.217        1.631      329.575       -3.562      853.887
01/26/2021  07:46:00      506.122       29.741     -216.628     1042.584      145.719      501.267  1086981.399    21233.885   251268.883       83.144       67.974      506.995      712.584        1.975      329.269       -4.066      853.886
01/26/2021  07:47:00      550.905       57.761     -250.584     1162.137      191.863      552.533  1350561.685    36811.511   305292.711      103.079       84.633      553.925      785.206        2.009      329.661       -3.419      853.886
01/26/2021  07:48:00      501.683       38.345     -197.932      991.530      182.241      482.811   983130.863    33211.829   233106.373       77.062       62.472      503.146      676.186        1.806      329.055       -4.418      853.886
01/26/2021  07:49:00      444.536       20.275     -181.130      982.302       71.157      470.906   964916.687     5063.339   221752.504       71.102       59.587      444.998      677.782        2.320      329.138       -4.286      853.899
01/26/2021  07:50:00      345.575       49.742     -142.772      780.248       87.049      371.002   608786.998     7577.492   137642.832       44.798       37.700      349.136      533.296        2.333      328.516       -5.311      853.920
01/26/2021  07:51:00      404.795       43.622     -164.181      873.631      248.612      430.062   763230.534    61807.709   184952.956       60.114       50.500      407.138      577.515        2.012      328.777       -4.877      853.936
01/26/2021  07:52:00      425.166       25.983     -188.473      982.018      161.933      473.050   964359.407    26222.176   223776.353       71.540       60.718      425.959      668.806        2.465      329.278       -4.057      853.948
01/26/2021  07:53:00      435.988       16.537     -164.543      958.803       57.518      449.987   919302.421     3308.357   202488.641       67.103       56.255      436.302      655.719        2.259      329.040       -4.445      853.944
01/26/2021  07:54:00      349.420       21.105     -173.446      939.554       46.848      447.434   882762.488     2194.697   200196.978       61.866       54.258      350.057      646.956        3.416      329.213       -4.163      853.922
01/26/2021  07:55:00      399.721      -10.938     -162.074      870.891      145.123      427.603   758451.227    21060.575   182843.951       57.405       48.118      399.870      598.522        2.240      329.207       -4.178      853.893
01/26/2021  07:56:00      280.434       -3.284      -99.587      747.747       46.140      358.686   559124.934     2128.883   128655.428       38.909       34.495      280.453      516.926        3.397      328.561       -5.240      853.876
01/26/2021  07:57:00      301.103       -1.342     -132.128      829.080       51.404      396.057   687373.848     2642.342   156861.104       47.732       42.344      301.106      571.814        3.606      328.807       -4.834      853.872
01/26/2021  07:58:00      238.210       -7.289      -99.564      708.296      114.890      342.168   501683.196    13199.763   117079.077       34.920       31.598      238.322      482.831        4.105      328.560       -5.242      853.878
01/26/2021  07:59:00      323.702        9.285     -129.114      825.166       47.472      397.232   680899.470     2253.603   157793.384       48.106       42.047      323.836      571.418        3.114      328.917       -4.655      853.875
01/26/2021  08:00:00      310.890        6.743     -132.445      868.225      201.610      417.694   753814.371    40646.573   174468.500       54.138       48.446      310.964      578.273        3.458      329.065       -4.411      853.874
01/26/2021  08:01:00      518.662       39.127     -212.237      978.901       48.856      467.222   958247.447     2386.898   218296.811       74.701       58.947      520.136      675.517        1.687      329.229       -4.137      853.855
01/26/2021  08:02:00      399.763       16.595     -156.188      859.944       49.821      405.163   739503.806     2482.114   164157.053       54.511       45.307      400.107      589.444        2.170      328.862       -4.743      853.838
01/26/2021  08:03:00      634.298       40.891     -250.918     1077.432       37.121      515.804  1160859.146     1377.996   266054.197       94.733       71.415      635.615      744.762        1.373      329.458       -3.753      853.835
01/26/2021  08:04:00      489.415       40.738     -207.839      991.871       47.140      471.793   983808.199     2222.221   222588.178       74.624       60.431      491.108      682.484        1.931      329.308       -4.006      853.830
01/26/2021  08:05:00      512.639       58.895     -200.829      982.982       44.999      467.901   966253.470     2024.933   218930.972       74.666       59.360      516.011      677.504        1.724      329.289       -4.036      853.826
01/26/2021  08:06:00      392.628       48.150     -142.689      861.727      150.799      417.617   742573.709    22740.298   174404.336       55.808       46.986      395.569      587.289        2.204      328.816       -4.816      853.830
01/26/2021  08:07:00      405.380       52.615     -154.379      825.972       25.474      392.199   682229.273      648.947   153819.979       51.363       41.835      408.780      568.711        1.936      328.618       -5.143      853.836
01/26/2021  08:08:00      394.602        4.029     -152.394      881.735       48.446      416.964   777456.476     2347.062   173858.777       56.610       47.683      394.622      605.176        2.352      328.807       -4.831      853.857
01/26/2021  08:09:00      293.726       10.363     -126.991      821.469       37.473      389.857   674810.941     1404.209   151988.758       46.518       41.410      293.909      565.048        3.696      328.747       -4.933      853.874
01/26/2021  08:10:00      399.915       16.019     -152.285      851.302       45.266      406.216   724715.391     2049.012   165011.432       53.739       44.589      400.236      587.297        2.153      329.025       -4.477      853.878
01/26/2021  08:11:00      401.269       43.668     -153.057      806.881       40.416      385.953   651057.175     1633.492   148959.938       49.383       40.083      403.638      557.398        1.907      328.825       -4.805      853.871
01/26/2021  08:12:00      379.362       75.731     -149.666      838.055       69.936      398.976   702336.373     4891.000   159182.202       51.905       43.320      386.847      575.122        2.210      328.613       -5.151      853.860
01/26/2021  08:13:00      329.441        4.422     -129.091      771.295       69.463      368.238   594895.738     4825.119   135599.270       43.011       36.766      329.471      531.922        2.607      328.711       -4.994      853.848
01/26/2021  08:14:00      313.542        7.107     -138.465      836.782       58.246      403.007   700203.492     3392.572   162414.632       49.159       43.301      313.623      579.334        3.412      328.983       -4.547      853.853
01/26/2021  08:15:00      354.583       19.273     -152.777      815.234       54.490      389.338   664605.946     2969.166   151583.689       48.413       40.958      355.106      562.222        2.507      329.033       -4.466      853.856
01/26/2021  08:16:00      272.862       -3.774     -104.544      739.985       43.305      349.399   547577.990     1875.322   122079.596       37.832       33.577      272.888      507.119        3.453      328.577       -5.214      853.863
01/26/2021  08:17:00      312.765       -3.242     -119.134      853.802       35.972      408.816   728978.340     1293.972   167130.183       50.452       44.870      312.782      589.743        3.555      328.983       -4.544      853.861
01/26/2021  08:18:00      375.500        4.540     -162.780      911.515       50.766      436.127   830858.695     2577.212   190206.672       59.536       51.182      375.528      629.520        2.810      329.185       -4.210      853.855
01/26/2021  08:19:00      383.716       -6.697     -142.601      881.510       39.265      419.915   777059.417     1541.710   176328.554       56.107       47.746      383.774      607.237        2.504      328.983       -4.544      853.851
01/26/2021  08:20:00      296.552       11.886     -134.853      824.327       43.261      393.315   679515.373     1871.557   154696.833       47.100       41.804      296.790      568.675        3.671      329.076       -4.394      853.846
01/26/2021  08:21:00      248.692       22.935      -95.408      686.859       44.965      325.214   471775.840     2021.851   105764.141       32.540       28.978      249.748      471.401        3.563      328.615       -5.155      853.838
01/26/2021  08:22:00      427.940       25.808     -162.693      894.442      144.266      426.550   800026.716    20812.789   181945.248       60.631       50.139      428.718      606.004        1.998      328.931       -4.627      853.818
01/26/2021  08:23:00      330.357       47.779     -131.450      791.325       41.977      378.283   626195.594     1762.087   143098.383       44.972       38.553      333.795      546.224        2.678      328.754       -4.922      853.816
01/26/2021  08:24:00      282.276       34.133     -106.247      702.295       77.220      332.484   493217.998     5962.980   110545.866       35.080       30.486      284.332      481.950        2.873      328.635       -5.122      853.827
01/26/2021  08:25:00      351.918       57.202     -131.056      787.481       30.902      377.603   620125.844      954.948   142584.059       45.382       38.183      356.536      544.502        2.332      328.714       -4.988      853.859
01/26/2021  08:26:00      338.329       40.719     -131.977      816.916       46.401      387.816   667351.512     2153.015   150401.636       47.655       40.995      340.770      561.768        2.718      328.838       -4.783      853.889
01/26/2021  08:27:00      293.936       15.249     -114.095      769.719       36.178      366.120   592467.668     1308.860   134043.942       41.358       36.391      294.332      529.672        3.238      328.955       -4.595      853.903
01/26/2021  08:28:00      298.680       29.995     -130.475      810.906       51.722      391.616   657568.285     2675.137   153363.196       46.020       40.680      300.182      562.242        3.508      329.172       -4.239      853.911
01/26/2021  08:29:00      243.340       19.661      -79.897      668.279       47.167      322.852   446596.179     2224.760   104233.592       30.940       27.653      244.133      462.778        3.593      328.682       -5.046      853.924
01/26/2021  08:30:00      235.351       63.859      -82.075      652.773       51.272      311.490   426113.173     2628.798    97025.788       29.587       26.288      243.861      449.164        3.393      328.824       -4.813      853.942
01/26/2021  08:31:00      291.663       70.185     -106.796      758.868       48.658      368.679   575880.402     2367.576   135924.481       40.763       35.709      299.989      527.232        3.089      328.896       -4.692      853.975
01/26/2021  08:32:00      311.440       30.526     -132.692      900.827      171.132      459.320   811488.715    29286.195   210975.213       58.342       52.588      312.933      629.286        4.044      329.290       -4.036      854.003
01/26/2021  08:33:00      254.449       49.576      -90.604      776.079       41.148      371.777   602299.234     1693.123   138218.013       40.865       37.111      259.234      536.237        4.279      329.087       -4.380      854.029
01/26/2021  08:34:00      214.570       74.332      -79.080      664.046       40.420      320.686   440956.715     1633.794   102839.620       30.151       27.272      227.080      459.942        4.103      328.799       -4.857      854.051
01/26/2021  08:35:00      145.493       71.298      -40.566      500.236       46.172      236.767   250236.458     2131.843    56058.491       16.810       15.421      162.024      341.866        4.452      328.390       -5.529      854.068
01/26/2021  08:36:00      263.370       64.062     -122.930      837.572       40.063      398.744   701526.701     1605.022   158996.900       47.517       43.106      271.049      576.747        4.528      329.093       -4.366      854.080
01/26/2021  08:37:00      232.113       65.419     -110.056      814.823       44.615      391.066   663935.848     1990.516   152932.691       44.439       40.943      241.156      562.720        5.445      329.129       -4.308      854.088
01/26/2021  08:38:00      134.812       30.224      -43.875      550.507       42.325      261.814   303057.417     1791.413    68546.726       19.713       18.670      138.158      378.096        7.489      328.817       -4.831      854.095
01/26/2021  08:39:00      201.974       53.616      -68.348      722.202       51.984      343.768   521576.327     2702.319   118176.284       34.526       32.123      208.969      496.616        5.648      329.122       -4.324      854.109
01/26/2021  08:40:00      212.295       63.525      -66.325      656.219       55.556      317.771   430623.458     3086.470   100978.326       29.398       26.734      221.596      453.991        4.197      328.783       -4.882      854.123
01/26/2021  08:41:00      211.737       58.595      -66.314      687.485       53.069      328.111   472636.066     2816.353   107656.529       31.776       29.155      219.695      473.036        4.636      329.013       -4.504      854.134
01/26/2021  08:42:00      169.853       48.566      -42.057      627.647       42.425      298.493   393940.765     1799.909    89097.953       25.881       24.242      176.660      430.873        5.949      328.924       -4.654      854.147
01/26/2021  08:43:00      144.215       71.381      -31.588      490.712       48.492      233.690   240798.461     2351.433    54610.805       16.226       14.888      160.914      335.594        4.350      328.605       -5.178      854.166
01/26/2021  08:44:00      110.211       66.037      -15.208      417.064       47.126      199.867   173942.648     2220.895    39946.659       11.638       10.806      128.481      285.474        4.937      328.601       -5.187      854.166
01/26/2021  08:45:00      134.982       80.500      -38.392      525.648       46.855      248.680   276305.826     2195.422    61841.727       18.319       17.017      157.163      359.468        5.231      328.807       -4.848      854.162
01/26/2021  08:46:00      100.377       53.604      -10.938      431.263       43.151      202.629   185987.538     1862.039    41058.641       12.094       11.445      113.794      293.167        6.637      328.807       -4.850      854.172
01/26/2021  08:47:00       81.142       25.005       -9.579      224.486       52.162      109.057    50393.838     2720.849    11893.532        3.614        3.250       84.907      152.277        3.216      328.611       -5.175      854.186
01/26/2021  08:48:00      170.641       57.315      -47.537      544.453       46.195      263.537   296428.777     2134.015    69451.928       20.126       18.401      180.010      376.697        4.379      328.749       -4.942      854.203
01/26/2021  08:49:00      141.364       25.154      -23.032      399.924       48.322      188.578   159939.605     2335.012    35561.822       10.945        9.892      143.584      271.021        3.563      328.716       -5.000      854.212
01/26/2021  08:50:00      111.747       62.775      -20.549      347.774       49.217      168.408   120946.749     2422.318    28361.290        8.426        7.587      128.172      237.928        3.446      328.572       -5.237      854.213
01/26/2021  08:51:00      173.087       66.514      -52.992      569.378       48.307      275.564   324190.839     2333.580    75935.583       21.974       20.123      185.427      393.179        4.496      329.025       -4.490      854.210
01/26/2021  08:52:00      177.289       81.857      -44.278      539.159       48.757      256.308   290692.006     2377.223    65693.923       19.935       17.938      195.274      369.587        3.582      328.777       -4.895      854.216
01/26/2021  08:53:00       92.184       89.646      -19.595      382.497       50.112      178.869   146303.759     2511.177    31994.210        9.883        9.040      128.586      258.550        4.043      328.753       -4.940      854.235
01/26/2021  08:54:00       74.830       69.945      -15.936      359.446       40.909      174.749   129201.723     1673.512    30537.049        8.604        8.071      102.430      247.644        5.845      328.660       -5.092      854.248
01/26/2021  08:55:00       23.999       89.345       18.543       43.651       50.984       32.342     1905.424     2599.323     1045.975        0.723        0.278       92.512       25.234        0.074      328.652       -5.111      854.246
01/26/2021  08:56:00      190.253       48.114      -62.496      559.519       56.824      268.533   313061.332     3228.913    72110.119       21.532       19.420      196.243      385.319        3.855      328.972       -4.577      854.252
01/26/2021  08:57:00      107.388       53.342      -17.606      308.138       56.064      149.374    94948.998     3143.166    22312.665        6.752        6.020      119.906      211.315        3.106      328.760       -4.930      854.256
01/26/2021  08:58:00      112.017       71.238      -20.161      215.953       42.820      101.114    46635.545     1833.578    10224.138        3.835        2.935      132.750      142.780        1.157      328.510       -5.341      854.271
01/26/2021  08:59:00      101.749       50.084      -29.580      331.085       37.749      157.882   109617.119     1424.961    24926.643        7.482        6.798      113.408      226.159        3.977      328.639       -5.127      854.294
01/26/2021  09:00:00       98.486       44.843      -23.166      368.105       52.965      177.178   135500.982     2805.302    31392.038        9.094        8.485      108.215      252.669        5.452      329.031       -4.487      854.319
01/26/2021  09:01:00       78.478       44.774       -5.582      254.258       36.245      124.764    64647.260     1313.690    15565.978        4.484        4.076       90.352      173.934        3.706      328.832       -4.815      854.350
01/26/2021  09:02:00       83.240       36.725      -16.913      250.195       40.691      121.377    62597.552     1655.728    14732.278        4.376        3.949       90.981      171.043        3.534      328.747       -4.954      854.385
01/26/2021  09:03:00       51.379       61.568      -12.241      186.266       34.880       88.743    34694.955     1216.609     7875.399        2.517        2.189       80.190      123.813        2.384      328.805       -4.860      854.381
01/26/2021  09:04:00       34.877       51.357       -8.457      250.499       37.920      120.867    62749.603     1437.910    14608.769        4.134        3.940       62.080      171.074        7.594      328.888       -4.723      854.377
01/26/2021  09:05:00      105.433       51.909      -36.250      403.268       38.460      191.714   162624.762     1479.203    36754.086       10.795       10.043      117.519      275.926        5.513      328.855       -4.773      854.357
01/26/2021  09:06:00       50.740       54.516       -7.343      215.286       31.851      104.371    46347.863     1014.514    10893.405        3.192        2.913       74.475      147.201        3.907      328.854       -4.778      854.332
01/26/2021  09:07:00       33.510       -7.515       -8.170       32.792       52.981       27.490     1075.311     2807.010      755.692        0.294        0.232       34.342       23.032        0.450      329.323       -4.015      854.313
01/26/2021  09:08:00      131.304       59.719      -33.670      395.570       35.844      187.126   156475.694     1284.765    35016.013       10.732        9.639      144.247      270.897        3.527      329.083       -4.401      854.310
01/26/2021  09:09:00      126.388       51.355      -35.218      326.999       44.080      155.575   106928.238     1943.079    24203.491        7.643        6.654      136.423      223.818        2.692      328.880       -4.736      854.328
01/26/2021  09:10:00       84.279       -6.291      -24.936      374.844       44.012      180.553   140507.754     1937.062    32599.213        9.137        8.752       84.514      258.386        9.347      329.352       -3.961      854.339
01/26/2021  09:11:00       30.203      -16.430       -8.020      190.616       47.243       88.413    36334.542     2231.856     7816.902        2.380        2.319       34.383      127.692       13.792      329.242       -4.145      854.357
01/26/2021  09:12:00       44.185       62.173       -7.603      234.064       46.604      115.987    54786.181     2171.950    13452.875        3.813        3.521       76.275      162.332        4.529      329.295       -4.059      854.376
01/26/2021  09:13:00       58.918       60.789       -0.973      265.917       33.023      128.529    70711.791     1090.490    16519.638        4.773        4.416       84.656      183.124        4.679      329.155       -4.286      854.387
01/26/2021  09:14:00      124.955       85.458      -30.695      160.773       22.684       80.041    25847.991      514.567     6406.553        2.831        1.638      151.383      111.000        0.538      328.841       -4.801      854.398
01/26/2021  09:15:00       72.152       17.231      -13.396      147.920       55.534       68.801    21880.425     3084.074     4733.598        1.768        1.485       74.181       96.869        1.705      329.225       -4.175      854.411
01/26/2021  09:16:00       73.480       -0.129      -17.061      200.665       43.431       94.562    40266.426     1886.217     8942.007        2.838        2.555       73.480      132.591        3.256      329.137       -4.316      854.407
01/26/2021  09:17:00      103.697       22.804      -20.012      168.001       56.488       81.402    28224.449     3190.839     6626.361        2.485        1.902      106.175      110.055        1.074      329.117       -4.350      854.407
01/26/2021  09:18:00       86.507       10.679      -39.848      223.843       71.014      107.135    50105.521     5043.036    11477.843        3.789        3.331       87.164      150.728        2.990      329.401       -3.886      854.405
01/26/2021  09:19:00      126.507       94.280      -38.508      274.545       38.167      135.384    75375.011     1456.716    18328.816        6.075        4.758      157.774      191.149        1.468      329.101       -4.374      854.396
01/26/2021  09:20:00       99.756       54.967      -25.957      175.255       17.470       84.304    30714.224      305.188     7107.207        2.588        1.906      113.897      120.713        1.123      328.822       -4.832      854.393
01/26/2021  09:21:00      104.265       52.379      -33.493      245.088       10.838      117.095    60068.256      117.455    13711.279        4.430        3.695      116.682      168.964        2.097      328.860       -4.769      854.383
01/26/2021  09:22:00       43.559        8.911      -12.400      128.547       55.923       62.384    16524.393     3127.361     3891.751        1.283        1.177       44.461       87.496        3.873      329.150       -4.298      854.384
01/26/2021  09:23:00      107.534      -46.315      -28.148       63.000       55.445       37.735     3969.058     3074.095     1423.908        1.148        0.423      117.084       29.180        0.062      329.360       -3.953      854.380
01/26/2021  09:24:00      112.969      -36.504      -44.886      213.662       69.516      111.576    45651.398     4832.425    12449.205        3.951        3.147      118.721      147.720        1.548      329.481       -3.755      854.379
01/26/2021  09:25:00      146.436      -21.937      -44.278      183.793       52.046       97.850    33779.794     2708.812     9574.620        3.496        2.303      148.070      129.036        0.759      329.233       -4.160      854.377
01/26/2021  09:26:00       91.834      -17.216      -31.115      233.053       58.001      116.042    54313.764     3364.085    13465.837        4.041        3.557       93.433      158.767        2.887      329.486       -3.746      854.378
01/26/2021  09:27:00      134.404      -17.891       -6.232       55.045       48.063       30.939     3029.975     2310.062      957.200        1.236        0.315      135.589       26.828        0.039      329.111       -4.361      854.374
01/26/2021  09:28:00       55.372       12.286       -0.766       54.431       58.025       32.768     2962.686     3366.905     1073.746        0.531        0.370       56.719       24.125        0.181      329.462       -3.788      854.379
01/26/2021  09:29:00      111.269        7.322       -9.818       59.439       59.875       30.177     3532.967     3584.991      910.667        1.028        0.401      111.510       17.722        0.025      329.260       -4.118      854.395
01/26/2021  09:30:00       76.628      -22.993      -25.730      211.536      101.022      107.060    44747.658    10205.521    11461.887        3.672        3.321       80.004      146.216        3.340      329.573       -3.604      854.429
01/26/2021  09:31:00      118.765      -13.569      -35.427      201.689       60.642       97.152    40678.483     3677.431     9438.603        3.466        2.690      119.538      136.249        1.299      329.506       -3.715      854.450
01/26/2021  09:32:00      125.648      -54.371      -45.576      304.407       67.949      144.343    92663.746     4617.084    20834.975        6.944        5.906      136.908      206.207        2.269      329.451       -3.803      854.469
01/26/2021  09:33:00      167.055      -50.000      -42.351      292.593       54.759      148.339    85610.911     2998.521    22004.434        7.138        5.531      174.377      203.893        1.367      329.375       -3.927      854.479
01/26/2021  09:34:00      112.159      -96.393      -38.580      242.559       72.078      110.805    58834.818     5195.211    12277.823        4.982        3.815      147.889      158.922        1.155      329.361       -3.951      854.486
01/26/2021  09:35:00       27.099      -57.582       -5.389       66.435       72.917       38.327     4413.663     5316.883     1468.976        0.764        0.560       63.640       40.599        0.407      329.441       -3.821      854.501
01/26/2021  09:36:00       87.603      -78.537      -33.232       84.952       63.226       26.060     7216.823     3997.501      679.124        1.342        0.595      117.654       31.224        0.070      329.361       -3.953      854.497
01/26/2021  09:37:00       71.614      -29.290      -24.029      198.644       84.392       98.427    39459.394     7122.022     9687.881        3.140        2.813       77.372      135.413        3.063      329.708       -3.383      854.483
01/26/2021  09:38:00       51.677        2.979      -18.579       63.366       84.525       33.717     4015.270     7144.482     1136.853        0.766        0.615       51.762       21.607        0.174      329.437       -3.827      854.463
01/26/2021  09:39:00       51.098       -6.202      -13.627      201.827       79.249       93.576    40734.297     6280.342     8756.407        2.929        2.789       51.473      128.950        6.276      329.603       -3.556      854.461
01/26/2021  09:40:00       96.272      -86.791      -19.599       75.292       69.788       51.867     5668.953     4870.392     2690.237        1.520        0.661      129.619       45.686        0.124      329.351       -3.970      854.468
01/26/2021  09:41:00       70.839     -109.547      -27.681      203.979       73.485       98.414    41607.501     5400.035     9685.239        3.723        2.835      130.455      137.624        1.113      329.476       -3.764      854.470
01/26/2021  09:42:00       72.844       16.695       -5.526      162.612       63.166       74.269    26442.588     3989.922     5515.864        2.077        1.797       74.733      103.953        1.935      329.779       -3.267      854.474
01/26/2021  09:43:00      120.688      -32.060      -23.116      235.421       70.950      118.612    55422.929     5033.837    14068.773        4.531        3.726      124.873      161.381        1.670      329.659       -3.464      854.468
01/26/2021  09:44:00       99.603      -42.909      -29.686       72.137       75.611       36.752     5203.714     5717.039     1350.711        1.245        0.614      108.452       16.916        0.024      329.381       -3.920      854.458
01/26/2021  09:45:00      102.939      -12.908      -13.773       81.083       60.194       36.169     6574.436     3623.274     1308.204        1.123        0.575      103.745       27.686        0.071      329.501       -3.723      854.468
01/26/2021  09:46:00       65.662       14.696      -20.429       49.643       56.920       30.105     2464.415     3239.900      906.319        0.578        0.331       67.286       13.893        0.043      329.686       -3.421      854.488
01/26/2021  09:47:00      133.355      -48.588      -29.691       63.649       83.457       44.693     4051.249     6965.029     1997.446        1.702        0.651      141.930       35.377        0.062      329.456       -3.798      854.507
01/26/2021  09:48:00      128.579      -15.378      -17.980      218.003       63.463      109.180    47525.102     4027.573    11920.183        4.027        3.174      129.495      145.718        1.266      329.556       -3.633      854.527
01/26/2021  09:49:00       98.404      -37.966      -29.941       56.526       59.287       34.269     3195.187     3514.950     1174.363        0.995        0.394      105.474       27.061        0.066      329.491       -3.740      854.540
01/26/2021  09:50:00      138.695       67.718       -9.395       62.753       69.664       30.839     3937.959     4853.055      951.028        1.682        0.487      154.344       22.617        0.021      329.243       -4.146      854.549
01/26/2021  09:51:00      115.678       62.228       -2.408       66.114       67.835       41.136     4371.123     4601.560     1692.186        1.396        0.533      131.353       28.822        0.048      329.600       -3.562      854.565
01/26/2021  09:52:00       92.130        6.299      -11.952       72.289       81.164       46.965     5225.663     6587.633     2205.675        1.134        0.701       92.345       42.884        0.216      329.856       -3.143      854.575
01/26/2021  09:53:00      105.806      -43.724      -12.720       52.717      100.491       36.178     2779.065    10098.351     1308.866        1.372        0.709      114.484       38.576        0.114      329.603       -3.558      854.591
01/26/2021  09:54:00      179.423       -7.285      -26.624      181.260       58.589       87.076    32855.305     3432.695     7582.231        3.840        2.194      179.571      118.451        0.435      329.472       -3.771      854.582
01/26/2021  09:55:00      110.900       40.690      -16.721       64.829       79.269       36.907     4202.828     6283.555     1362.137        1.304        0.592      118.129       34.082        0.083      329.529       -3.679      854.592
01/26/2021  09:56:00       89.833       42.776      -28.706      246.892       42.216      117.362    60955.625     1782.205    13773.740        4.360        3.826       99.497      167.775        2.843      329.882       -3.098      854.593
01/26/2021  09:57:00       64.573        8.649       -8.428      157.541       63.545       81.821    24819.141     4037.960     6694.641        1.993        1.778       65.150      105.475        2.621      330.012       -2.888      854.597
01/26/2021  09:58:00      123.963       36.356       -8.686       53.405       64.216       39.412     2852.064     4123.632     1553.338        1.264        0.426      129.184       30.491        0.056      329.463       -3.785      854.618
01/26/2021  09:59:00       55.374      -60.188      -19.025      239.337       93.893      113.675    57281.987     8815.969    12921.997        4.302        3.951       81.786      159.270        3.792      329.787       -3.254      854.621
01/26/2021  10:00:00       82.055      -29.484      -23.122       61.569      109.477       53.169     3790.734    11985.112     2826.894        1.337        0.930       87.192       37.517        0.185      329.929       -3.024      854.613
01/26/2021  10:01:00       98.398       62.506      -37.231       60.814      101.861       46.395     3698.333    10375.656     2152.465        1.560        0.811      116.573       38.913        0.111      329.565       -3.621      854.612
01/26/2021  10:02:00       83.788       -0.902       -5.580       72.825       71.072       54.279     5303.515     5051.229     2946.263        1.017        0.665       83.793       42.419        0.256      329.889       -3.088      854.606
01/26/2021  10:03:00      137.531      -45.700      -43.753      350.230       69.747      165.276   122660.860     4864.615    27316.315        8.885        7.742      144.925      238.351        2.705      329.934       -3.011      854.618
01/26/2021  10:04:00      143.657      -40.390      -27.332       88.233       60.569       42.521     7785.022     3668.621     1808.047        1.814        0.663      149.227       31.870        0.046      329.627       -3.520      854.611
01/26/2021  10:05:00      133.379      -69.242      -30.935       64.131       54.671       37.315     4112.759     2988.917     1392.439        1.602        0.425      150.281       33.359        0.049      329.703       -3.395      854.607
01/26/2021  10:06:00       89.034       -3.400       -0.154       92.231       72.383       56.387     8506.630     5239.304     3179.479        1.243        0.846       89.099       55.351        0.386      329.470       -3.775      854.610
01/26/2021  10:07:00       65.176        3.223       -8.866      184.423       55.299       96.422    34011.830     3058.028     9297.176        2.534        2.318       65.255      127.756        3.833      329.970       -2.955      854.605
01/26/2021  10:08:00      133.173      -25.203      -46.181       73.885       79.341       46.248     5458.994     6295.005     2138.863        1.719        0.695      135.537       30.173        0.050      329.938       -3.010      854.592
01/26/2021  10:09:00      116.498      -60.628      -30.199       73.144       60.115       42.278     5350.099     3613.780     1787.451        1.445        0.538      131.331       40.902        0.097      329.803       -3.232      854.588
01/26/2021  10:10:00       97.227      -32.284      -26.962       44.400       67.315       24.333     1971.373     4531.358      592.093        0.916        0.355      102.446       20.955        0.042      329.653       -3.475      854.571
01/26/2021  10:11:00      108.341       54.335       -5.357       74.358       59.847       39.828     5529.131     3581.614     1586.269        1.271        0.535      121.203       29.786        0.060      329.827       -3.191      854.557
01/26/2021  10:12:00      106.124        0.029      -15.780       98.133       78.104       30.241     9630.148     6100.205      914.517        1.407        0.832      106.124       22.675        0.046      329.775       -3.278      854.543
01/26/2021  10:13:00        4.123      -65.870      -17.280       83.967       72.515       33.316     7050.536     5258.495     1109.986        0.903        0.671       65.999       47.616        0.521      330.058       -2.813      854.546
01/26/2021  10:14:00      104.503      -72.029      -26.193       65.678       90.734       42.385     4313.642     8232.652     1796.509        1.557        0.717      126.921       32.737        0.067      329.912       -3.052      854.534
01/26/2021  10:15:00      174.718      -29.824      -28.559      320.057       84.356      153.373   102436.221     7115.921    23523.126        8.262        6.654      177.245      215.241        1.475      329.722       -3.361      854.516
01/26/2021  10:16:00      133.367        7.420      -29.167       94.005       71.594       56.589     8836.907     5125.713     3202.323        1.792        0.858      133.574       53.968        0.163      329.630       -3.514      854.512
01/26/2021  10:17:00      122.903       30.090      -17.559       78.382       73.350       35.962     6143.671     5380.219     1293.254        1.457        0.641      126.533       37.763        0.089      329.709       -3.383      854.504
01/26/2021  10:18:00       82.699        3.657      -13.391       75.005       80.289       51.580     5625.699     6446.380     2660.511        1.088        0.737       82.780       38.806        0.220      330.141       -2.677      854.488
01/26/2021  10:19:00      115.766     -115.460      -36.367       56.931       69.616       41.563     3241.096     4846.338     1727.499        1.893        0.491      163.502       22.189        0.018      330.020       -2.876      854.478
01/26/2021  10:20:00       64.948       -4.882      -21.607       57.976       75.271       33.538     3361.253     5665.735     1124.800        0.743        0.508       65.131       27.672        0.181      329.961       -2.971      854.466
01/26/2021  10:21:00      122.372       17.322      -15.082       60.206       67.418       38.852     3624.780     4545.172     1509.441        1.259        0.484      123.592       28.095        0.052      329.849       -3.154      854.446
01/26/2021  10:22:00      104.310      -34.962      -23.441       85.088       70.737       49.736     7239.884     5003.722     2473.642        1.368        0.736      110.013       50.114        0.208      329.755       -3.309      854.413
01/26/2021  10:23:00      133.881        6.643      -11.068      112.538       87.129       51.994    12664.878     7591.389     2703.392        2.052        1.148      134.046       45.225        0.114      329.795       -3.244      854.403
01/26/2021  10:24:00      181.361        6.944       -7.872      113.758       74.414       53.277    12940.912     5537.458     2838.462        2.715        1.066      181.494       52.001        0.082      329.598       -3.566      854.389
01/26/2021  10:25:00      102.595      -14.224      -11.419       82.239       66.557       37.955     6763.173     4429.882     1440.591        1.174        0.632      103.576       16.470        0.025      330.073       -2.788      854.407
01/26/2021  10:26:00      134.791       10.163      -18.116       59.559       56.189       36.521     3547.292     3157.161     1333.796        1.332        0.402      135.174       24.041        0.032      329.882       -3.101      854.421
01/26/2021  10:27:00      101.926       29.332       -0.922      198.408       47.969       95.875    39365.660     2300.984     9192.091        3.104        2.543      106.063      133.095        1.575      330.108       -2.729      854.448
01/26/2021  10:28:00       39.282        0.334       -8.944      198.837       55.991       88.727    39536.099     3134.985     7872.568        2.607        2.527       39.283      124.526       10.049      330.095       -2.751      854.460
01/26/2021  10:29:00       69.239      -53.229      -16.619       70.344       72.744       38.483     4948.244     5291.720     1480.945        0.981        0.586       87.335       20.478        0.055      330.050       -2.827      854.468
01/26/2021  10:30:00      117.697       -4.438      -17.107       62.225       50.939       32.429     3871.921     2594.775     1051.641        1.084        0.376      117.781       24.933        0.045      330.086       -2.766      854.468
01/26/2021  10:31:00      120.358       -2.118      -16.664       76.658       74.763       42.688     5876.425     5589.541     1822.264        1.403        0.664      120.376       37.351        0.096      329.861       -3.136      854.474
01/26/2021  10:32:00       81.348        8.325      -16.430       68.742       74.196       34.913     4725.491     5504.994     1218.912        0.920        0.572       81.773       30.479        0.139      330.214       -2.557      854.475
01/26/2021  10:33:00      153.515       24.797      -18.019       75.515       66.339       34.798     5702.463     4400.848     1210.891        1.791        0.566      155.505       29.565        0.036      329.893       -3.083      854.483
01/26/2021  10:34:00      158.320       52.074      -13.992       61.037       55.120       33.072     3725.570     3038.167     1093.789        1.791        0.393      166.664       24.220        0.021      329.737       -3.337      854.480
01/26/2021  10:35:00      116.875       35.431       -4.190       93.729       89.562       47.790     8785.202     8021.405     2283.885        1.701        0.955      122.128       53.722        0.193      330.054       -2.818      854.469
01/26/2021  10:36:00      159.519       52.618      -11.636       94.178       90.124       44.431     8869.576     8122.398     1974.124        2.365        0.948      167.973       35.261        0.044      329.944       -3.001      854.468
01/26/2021  10:37:00      179.068       82.268      -23.592       82.630       57.889       32.515     6827.765     3351.082     1057.204        2.531        0.562      197.062       31.875        0.026      329.733       -3.348      854.471
01/26/2021  10:38:00      179.611       19.763       -1.522      112.676       71.160       48.535    12695.946     5063.725     2355.657        2.638        1.006      180.695       54.853        0.092      329.789       -3.255      854.478
01/26/2021  10:39:00      118.860      -48.343       -8.297      101.253       81.214       65.540    10252.249     6595.785     4295.519        1.883        1.057      128.315       65.701        0.262      329.751       -3.315      854.479
01/26/2021  10:40:00       90.269      -85.723      -27.445       76.657      104.051       45.621     5876.367    10826.638     2081.295        1.751        0.939      124.487       38.308        0.095      330.103       -2.741      854.486
01/26/2021  10:41:00       94.997      -43.900      -16.684       60.671       83.998       41.658     3680.921     7055.740     1735.374        1.185        0.624      104.650       36.213        0.120      330.100       -2.744      854.496
01/26/2021  10:42:00       76.693      -22.751      -23.951       61.023       53.941       37.587     3723.858     2909.648     1412.814        0.751        0.402       79.997       33.014        0.170      330.299       -2.416      854.499
01/26/2021  10:43:00       68.030      -26.567      -18.565       50.140       75.697       41.757     2514.050     5730.076     1743.680        0.783        0.499       73.033       28.808        0.156      330.284       -2.442      854.503
01/26/2021  10:44:00      111.782      -10.466      -30.710       82.088       80.793       51.674     6738.402     6527.551     2670.160        1.474        0.797      112.271       44.139        0.155      330.188       -2.599      854.508
01/26/2021  10:45:00      158.743      -45.942      -31.795       74.877       69.156       44.034     5606.546     4782.522     1938.957        2.032        0.616      165.258       44.608        0.073      329.880       -3.105      854.523
01/26/2021  10:46:00       81.272      -27.199       -8.101       65.140       64.494       39.034     4243.235     4159.449     1523.655        0.867        0.496       85.702       33.434        0.152      330.106       -2.734      854.520
01/26/2021  10:47:00       99.420      -12.164      -15.674       73.707       71.988       38.675     5432.762     5182.308     1495.786        1.119        0.606      100.161       35.590        0.126      330.210       -2.561      854.509
01/26/2021  10:48:00      122.508      -50.088      -38.096      178.855       71.522       87.958    31989.249     5115.464     7736.632        3.190        2.242      132.352      120.924        0.835      330.225       -2.537      854.496
01/26/2021  10:49:00       82.628      -14.751       -8.721      202.754       68.400       98.820    41109.242     4678.492     9765.479        3.133        2.778       83.934      137.268        2.675      330.292       -2.428      854.473
01/26/2021  10:50:00       98.119       -5.224       -2.799       78.489       80.790       44.649     6160.588     6527.059     1993.534        1.217        0.734       98.258       39.074        0.158      330.317       -2.388      854.444
01/26/2021  10:51:00      123.315        6.810      -29.830       89.889       63.595       45.059     8079.982     4044.382     2030.316        1.515        0.708      123.502       45.284        0.134      330.056       -2.816      854.429
01/26/2021  10:52:00      115.307        7.557      -13.610       73.025       80.768       47.779     5332.671     6523.530     2282.861        1.384        0.707      115.555       39.185        0.115      330.221       -2.546      854.416
01/26/2021  10:53:00      162.718      -93.072      -45.169       78.815       82.725       43.638     6211.736     6843.480     1904.272        2.607        0.748      187.455       53.070        0.080      330.012       -2.889      854.383
01/26/2021  10:54:00      135.939      -17.873      -14.218       99.212       79.922       54.036     9842.954     6387.572     2919.850        1.907        0.958      137.109       50.532        0.136      330.222       -2.545      854.352
01/26/2021  10:55:00      106.130      -18.433      -15.770       75.490       92.567       41.043     5698.687     8568.597     1684.532        1.390        0.798      107.719       14.579        0.018      330.620       -1.891      854.324
01/26/2021  10:56:00      108.468       -1.801      -27.428       70.363       82.819       47.838     4950.890     6859.006     2288.464        1.331        0.705      108.483       38.220        0.124      330.562       -1.986      854.319
01/26/2021  10:57:00       57.874      -40.136       -1.641       53.887       51.582       36.293     2903.854     2660.743     1317.178        0.592        0.344       70.429       33.473        0.226      330.558       -1.993      854.310
01/26/2021  10:58:00      130.750     -154.301      -39.195       58.376      104.016       37.270     3407.706    10819.316     1389.061        2.903        0.781      202.249       30.448        0.023      330.144       -2.675      854.278
01/26/2021  10:59:00       85.985      -91.775      -21.924       47.001       79.453       32.737     2209.089     6312.712     1071.695        1.294        0.480      125.762       24.103        0.037      330.803       -1.591      854.258
01/26/2021  11:00:00      114.762     -148.586      -19.809      100.929       82.928       43.090    10186.600     6877.115     1856.739        2.728        0.946      187.745       38.831        0.043      330.471       -2.137      854.245
01/26/2021  11:01:00      170.282     -186.537      -49.960       46.727       43.407       26.456     2183.422     1884.208      699.932        3.553        0.238      252.570       26.547        0.011      329.795       -3.248      854.240
01/26/2021  11:02:00      141.233     -120.145      -42.594       52.194       77.640       35.359     2724.219     6027.983     1250.256        2.310        0.500      185.423       34.958        0.036      330.002       -2.906      854.235
01/26/2021  11:03:00      139.153     -140.655      -38.610       65.973      119.582       33.686     4352.488    14299.789     1134.755        3.021        0.989      197.857       27.766        0.020      330.176       -2.621      854.239
01/26/2021  11:04:00      146.702        0.763      -17.558       79.643       69.545       49.852     6343.000     4836.550     2485.217        1.774        0.683      146.704       36.372        0.061      330.281       -2.447      854.239
01/26/2021  11:05:00       80.082        7.088      -13.874       70.359       40.756       25.115     4950.445     1661.017      630.745        0.695        0.362       80.395       27.495        0.117      330.335       -2.358      854.246
01/26/2021  11:06:00       69.173        3.763      -11.073       53.028       70.906       37.025     2812.002     5027.689     1370.847        0.706        0.461       69.275       35.595        0.264      330.522       -2.052      854.249
01/26/2021  11:07:00      112.998     -111.116      -35.538       86.820       77.663       47.665     7537.679     6031.476     2271.926        2.111        0.792      158.478       54.167        0.117      330.294       -2.428      854.237
01/26/2021  11:08:00       99.250     -140.496      -42.451       40.720       51.065       28.163     1658.123     2607.683      793.145        1.822        0.253      172.016       18.541        0.012      330.343       -2.347      854.225
01/26/2021  11:09:00       94.281      -59.940      -26.069       61.777       75.729       40.434     3816.446     5734.943     1634.869        1.217        0.559      111.721       40.585        0.132      330.346       -2.340      854.203
01/26/2021  11:10:00       96.624      -19.641      -19.680       73.350       88.194       43.857     5380.244     7778.197     1923.441        1.259        0.754       98.600       40.215        0.166      330.468       -2.142      854.170
01/26/2021  11:11:00       81.776       -6.417       -9.872       71.718       76.292       52.639     5143.517     5820.532     2770.873        1.028        0.687       82.028       40.989        0.250      330.515       -2.062      854.143
01/26/2021  11:12:00      121.046        5.552      -25.617       71.663       93.528       46.528     5135.620     8747.572     2164.839        1.569        0.802      121.173       39.048        0.104      330.474       -2.131      854.115
01/26/2021  11:13:00       91.828       22.193       -0.014       78.588       86.693       50.038     6176.133     7515.673     2503.793        1.256        0.810       94.472       29.554        0.098      330.669       -1.811      854.089
01/26/2021  11:14:00      180.007       40.819      -17.999      118.934      103.514       37.202    14145.221    10715.102     1383.971        3.031        1.312      184.577       45.732        0.061      330.454       -2.164      854.083
01/26/2021  11:15:00       44.923      -10.989      -14.246       63.305       86.381       53.193     4007.476     7461.762     2829.545        0.832        0.715       46.248       35.608        0.593      330.795       -1.603      854.086
01/26/2021  11:16:00       60.695      -19.437       -7.793       96.059      102.780       54.282     9227.386    10563.677     2946.554        1.343        1.137       63.731       55.984        0.772      330.630       -1.874      854.092
01/26/2021  11:17:00      108.660      -55.573      -10.000      111.020       53.258       44.887    12325.390     2836.370     2014.877        1.608        0.859      122.047       39.644        0.106      330.488       -2.109      854.101
01/26/2021  11:18:00      116.273      -27.407      -11.892       93.636       52.540       41.097     8767.788     2760.450     1688.934        1.381        0.661      119.460       43.817        0.135      330.313       -2.395      854.090
01/26/2021  11:19:00      139.187      -40.404       -7.086       79.502       59.085       36.971     6320.492     3491.058     1366.860        1.611        0.559      144.933       35.046        0.058      330.202       -2.576      854.061
01/26/2021  11:20:00       75.666      -60.280      -24.854       83.795       79.570       47.042     7021.595     6331.441     2212.936        1.277        0.778       96.742       40.864        0.178      330.750       -1.678      854.045
01/26/2021  11:21:00      102.913      -24.448      -33.056      238.576       87.150      114.731    56918.407     7595.149    13163.298        4.496        3.884      105.777      156.351        2.185      330.742       -1.690      854.028
01/26/2021  11:22:00      156.610      -62.152      -35.651       58.981       47.736       31.428     3478.735     2278.754      987.720        1.820        0.337      168.492       28.559        0.029      330.108       -2.732      854.044
01/26/2021  11:23:00      137.810       -4.150      -18.376       72.647       65.705       32.627     5277.630     4317.168     1064.520        1.500        0.533      137.873       28.778        0.044      330.281       -2.448      854.031
01/26/2021  11:24:00      115.862      -66.191      -16.449       72.589       64.665       32.085     5269.136     4181.519     1029.438        1.428        0.524      133.436       15.837        0.014      330.350       -2.334      854.005
01/26/2021  11:25:00      139.781     -143.584      -41.037       71.034       55.927       27.225     5045.888     3127.797      741.196        2.538        0.446      200.388       24.434        0.015      330.348       -2.339      853.996
01/26/2021  11:26:00      128.388     -149.588      -32.285       61.078       54.533       28.572     3730.561     2973.827      816.352        2.371        0.376      197.129       27.565        0.020      330.323       -2.380      853.980
01/26/2021  11:27:00      155.666     -133.717      -35.950       56.236       64.502       38.064     3162.473     4160.484     1448.867        2.609        0.439      205.212       32.038        0.024      330.319       -2.386      853.965
01/26/2021  11:28:00       86.797       17.806      -24.116       86.531       97.246       32.973     7487.681     9456.698     1087.218        1.323        0.902       88.604       13.358        0.023      330.799       -1.598      853.943
01/26/2021  11:29:00      104.504       26.120       -8.827       71.106       85.767       44.902     5056.116     7355.967     2016.200        1.305        0.721      107.719       33.250        0.095      330.879       -1.466      853.927
01/26/2021  11:30:00      223.873       80.051      -27.388       65.729       60.356       39.349     4320.312     3642.843     1548.342        3.339        0.476      237.755       23.430        0.010      330.489       -2.109      853.913
01/26/2021  11:31:00       56.937        0.879      -13.873       50.886       48.976       30.613     2589.358     2398.649      937.143        0.468        0.296       56.944       19.730        0.120      330.714       -1.736      853.920
01/26/2021  11:32:00      133.781      -21.895       -3.850       85.887       80.254       45.264     7376.532     6440.687     2048.837        1.713        0.793      135.561       37.932        0.078      330.757       -1.667      853.925
01/26/2021  11:33:00       97.030       -5.915      -27.256      183.338       72.232       82.480    33612.985     5217.416     6802.962        2.790        2.282       97.211      113.828        1.371      330.779       -1.629      853.918
01/26/2021  11:34:00      134.751      -78.335      -21.075       83.344       71.481       49.581     6946.237     5109.565     2458.306        1.962        0.726      155.866       50.368        0.104      330.740       -1.695      853.917
01/26/2021  11:35:00      174.886       12.292       -9.792       81.587       59.581       35.420     6656.384     3549.935     1254.585        2.114        0.573      175.317       33.244        0.036      330.535       -2.033      853.911
01/26/2021  11:36:00       74.989       -0.463        7.904       82.023       60.398       45.972     6727.842     3647.867     2113.411        0.908        0.624       74.991       49.103        0.429      330.838       -1.532      853.891
01/26/2021  11:37:00       46.786     -103.355      -26.885       88.977      110.588       39.319     7916.899    12229.724     1545.948        1.764        1.085      113.451       46.063        0.165      330.950       -1.350      853.872
01/26/2021  11:38:00      145.840      -94.666      -38.569       29.727       59.754       25.367      883.693     3570.545      643.462        1.841        0.255      173.870       26.037        0.022      330.478       -2.125      853.863
01/26/2021  11:39:00       26.583       -4.141       -3.360       53.274       43.927       25.029     2838.108     1929.582      626.454        0.306        0.270       26.904        7.224        0.072      331.016       -1.241      853.829
01/26/2021  11:40:00      -40.093      -35.714       -3.928       37.898       41.450       23.266     1436.236     1718.088      541.321        0.330        0.185       53.693       12.041        0.050      331.255       -0.847      853.809
01/26/2021  11:41:00      137.424     -147.029      -39.583       63.940       54.453       35.709     4088.381     2965.139     1275.102        2.520        0.416      201.253       29.909        0.022      330.707       -1.750      853.791
01/26/2021  11:42:00       61.298      -83.534      -21.762       73.588       82.553       26.031     5415.253     6815.077      677.603        1.206        0.645      103.611       14.350        0.019      330.855       -1.506      853.792
01/26/2021  11:43:00      113.422       -8.131      -10.650       72.870       91.417       44.111     5309.969     8357.013     1945.814        1.432        0.781      113.713       40.508        0.127      330.861       -1.496      853.767
01/26/2021  11:44:00       75.869       19.628       -3.589       69.499       68.661       42.349     4830.131     4714.381     1793.428        0.874        0.567       78.367       31.239        0.159      331.225       -0.898      853.733
01/26/2021  11:45:00      114.593      -19.461      -10.688       79.449       67.771       43.176     6312.095     4592.921     1864.140        1.319        0.638      116.234       42.411        0.133      331.037       -1.207      853.709
01/26/2021  11:46:00       71.959      -15.858      -13.875       58.874       81.173       40.210     3466.192     6588.978     1616.849        0.864        0.584       73.686       29.532        0.161      331.386       -0.632      853.693
01/26/2021  11:47:00      190.203       66.583      -20.780       81.412      102.211       46.499     6627.921    10447.091     2162.120        3.014        0.962      201.521       38.166        0.036      330.814       -1.574      853.670
01/26/2021  11:48:00      195.592        7.560      -12.754      103.157       70.737       46.573    10641.406     5003.674     2169.041        2.814        0.891      195.738       46.152        0.056      330.686       -1.785      853.648
01/26/2021  11:49:00      122.719      -87.794      -34.757       65.451      140.382       43.692     4283.855    19707.217     1908.997        2.493        1.295      150.889       35.053        0.054      330.872       -1.480      853.625
01/26/2021  11:50:00      151.673       74.752      -12.297       88.553       85.354       43.720     7841.579     7285.234     1911.410        2.289        0.852      169.093       42.277        0.063      330.807       -1.586      853.610
01/26/2021  11:51:00       81.473       18.722       -1.240       83.387       71.302       41.019     6953.463     5083.908     1682.587        1.035        0.686       83.596       26.662        0.102      331.109       -1.087      853.586
01/26/2021  11:52:00       98.193      -41.935      -18.337       98.008       89.051       54.816     9605.558     7930.087     3004.821        1.613        1.027      106.773       53.001        0.246      330.905       -1.422      853.572
01/26/2021  11:53:00      128.383      -16.875      -29.567       87.297       98.309       39.845     7620.754     9664.729     1587.635        1.825        0.944      129.487       21.148        0.027      330.878       -1.468      853.548
01/26/2021  11:54:00      117.119       21.125       -7.535      113.106       95.695       40.238    12792.862     9157.533     1619.109        1.889        1.178      119.009       32.079        0.073      331.063       -1.165      853.529
01/26/2021  11:55:00      155.068       27.860      -17.469       87.444       66.672       43.559     7646.538     4445.137     1897.352        1.956        0.699      157.551       41.333        0.069      331.002       -1.265      853.507
01/26/2021  11:56:00      142.307       52.322       -4.170       92.009       90.026       44.633     8465.579     8104.663     1992.079        2.078        0.928      151.621       47.382        0.098      331.212       -0.921      853.499
01/26/2021  11:57:00      107.515       -8.588      -11.924      104.478      104.602       51.976    10915.736    10941.664     2701.545        1.816        1.228      107.858       59.580        0.305      331.219       -0.908      853.476
01/26/2021  11:58:00       65.447       13.231      -15.007       66.305       86.271       38.248     4396.348     7442.753     1462.899        0.899        0.665       66.771       20.128        0.091      331.608       -0.267      853.453
01/26/2021  11:59:00      116.851       33.254        3.738       72.020       81.256       45.928     5186.844     6602.537     2109.354        1.433        0.695      121.490       39.516        0.106      331.182       -0.969      853.441
01/26/2021  12:00:00      108.398        1.275       -2.895       81.612       63.688       42.452     6660.499     4056.136     1802.145        1.214        0.626      108.406       40.508        0.140      331.099       -1.105      853.416
01/26/2021  12:01:00       93.152        2.221       -8.528       93.111       68.723       52.083     8669.666     4722.854     2712.615        1.243        0.805       93.179       41.714        0.200      331.088       -1.123      853.393
01/26/2021  12:02:00       66.640       -7.761      -22.615       67.237       76.271       28.976     4520.838     5817.217      839.630        0.809        0.559       67.090       23.110        0.119      331.258       -0.842      853.374
01/26/2021  12:03:00       71.549      -35.220       -9.025       89.129       69.668       53.124     7944.027     4853.642     2822.153        1.103        0.781       79.748       47.120        0.349      331.262       -0.835      853.341
01/26/2021  12:04:00       89.781      -19.238       -1.652       66.487       56.109       39.852     4420.585     3148.209     1588.190        0.879        0.458       91.819       35.583        0.150      331.013       -1.245      853.323
01/26/2021  12:05:00       93.229       -8.672      -20.928       71.180      102.741       40.179     5066.624    10555.779     1614.367        1.322        0.862       93.631       20.072        0.046      331.300       -0.774      853.310
01/26/2021  12:06:00       52.245       33.683       -1.223       68.712       80.885       34.402     4721.282     6542.363     1183.464        0.815        0.622       62.162       30.261        0.237      331.305       -0.765      853.275
01/26/2021  12:07:00       92.191      -51.775      -13.283       75.383      107.464       55.793     5682.631    11548.422     3112.901        1.585        1.017      105.735       40.194        0.145      331.538       -0.382      853.240
01/26/2021  12:08:00      106.070      -34.949       -6.460      114.578       92.357       73.478    13128.171     8529.849     5399.077        1.978        1.353      111.679       64.386        0.332      331.375       -0.652      853.196
01/26/2021  12:09:00      113.560        4.056      -17.522      115.459       86.393       60.225    13330.685     7463.831     3627.087        1.882        1.221      113.633       54.350        0.229      331.462       -0.507      853.164
01/26/2021  12:10:00       95.201       19.693      -18.738       72.463       80.512       39.611     5250.927     6482.108     1569.056        1.155        0.665       97.216       28.778        0.088      331.344       -0.701      853.158
01/26/2021  12:11:00      141.983      -95.517      -29.976       87.592       87.595       47.781     7672.321     7672.916     2283.010        2.390        0.881      171.121       49.731        0.084      331.407       -0.600      853.138
01/26/2021  12:12:00      132.888      -40.869      -11.276      115.829       88.453       56.577    13416.355     7823.982     3200.977        2.194        1.222      139.031       52.885        0.145      331.320       -0.742      853.123
01/26/2021  12:13:00      127.758      -54.646      -32.312       65.392      114.033       44.088     4276.132    13003.455     1943.731        1.978        0.961      138.955       41.989        0.091      331.561       -0.347      853.117
01/26/2021  12:14:00      130.432      -25.809      -17.469       79.158       76.671       51.316     6266.036     5878.414     2633.343        1.638        0.739      132.961       38.042        0.082      331.579       -0.314      853.103
01/26/2021  12:15:00      204.325       25.316      -25.086       66.390       88.013       39.084     4407.623     7746.236     1527.537        2.835        0.684      205.887       28.676        0.019      331.139       -1.040      853.082
01/26/2021  12:16:00       77.791       14.959       -0.594       87.276       64.482       49.318     7617.122     4157.871     2432.275        1.024        0.710       79.216       49.468        0.390      331.555       -0.354      853.064
01/26/2021  12:17:00      102.043       25.459      -14.534       67.075       74.055       43.248     4498.999     5484.080     1870.429        1.156        0.593      105.171       27.208        0.067      331.519       -0.414      853.062
01/26/2021  12:18:00      116.027       14.078      -26.031       73.359      100.184       39.090     5381.484    10036.923     1528.044        1.564        0.847      116.878       29.155        0.062      331.584       -0.307      853.073
01/26/2021  12:19:00      173.161       46.912      -16.147      110.611       75.395       47.064    12234.727     5684.444     2215.021        2.629        1.007      179.403       48.280        0.072      331.339       -0.712      853.080
01/26/2021  12:20:00      177.034       71.776      -20.580       87.833       72.449       35.925     7714.628     5248.822     1290.638        2.558        0.713      191.031       30.567        0.026      331.174       -0.984      853.077
01/26/2021  12:21:00      134.463     -100.702      -22.086       67.177       73.972       46.584     4512.777     5471.786     2170.086        2.043        0.608      167.992       44.646        0.071      331.253       -0.852      853.060
01/26/2021  12:22:00       70.782      -78.042      -27.363       93.871       78.612       47.115     8811.672     6179.835     2219.802        1.453        0.861      105.359       46.080        0.191      331.541       -0.378      853.044
01/26/2021  12:23:00      135.315     -156.329      -29.832       69.678       94.630       52.279     4855.026     8954.759     2733.062        3.009        0.827      206.758       52.395        0.064      331.546       -0.372      853.034
01/26/2021  12:24:00      131.809     -134.483      -33.445       78.183      104.824       49.713     6112.632    10988.151     2471.393        2.807        0.979      188.306       58.374        0.096      331.305       -0.767      853.025
01/26/2021  12:25:00       39.481     -117.373      -32.620       76.501       61.423       33.994     5852.415     3772.815     1155.590        1.359        0.539      123.836       25.683        0.043      331.723       -0.079      852.989
01/26/2021  12:26:00       93.524      -22.780      -10.154       58.540       70.126       41.694     3426.939     4917.610     1738.400        0.972        0.504       96.258       34.930        0.132      331.582       -0.311      852.964
01/26/2021  12:27:00      127.219      -14.973      -27.174       65.965       93.237       41.311     4351.428     8693.160     1706.571        1.595        0.738      128.097       29.807        0.054      331.721       -0.080      852.950
01/26/2021  12:28:00      203.335       16.879      -18.885      118.896       80.908       49.652    14136.218     6546.065     2465.280        3.256        1.157      204.034       31.652        0.024      331.417       -0.584      852.935
01/26/2021  12:29:00       68.315       22.838       -9.707       68.487       72.362       42.096     4690.476     5236.329     1772.055        0.849        0.585       72.031       26.363        0.134      331.849        0.129      852.944
01/26/2021  12:30:00       46.804      -10.514       -5.309       65.489       72.105       53.493     4288.849     5199.121     2861.543        0.734        0.617       47.971       35.379        0.544      332.129        0.591      852.957
01/26/2021  12:31:00       98.151        7.260       -9.652       98.179       77.647       62.536     9639.176     6029.023     3910.770        1.467        0.979       98.419       54.198        0.303      331.663       -0.178      852.959
01/26/2021  12:32:00       93.257      -57.202      -13.188       79.000       92.312       47.590     6241.007     8521.499     2264.763        1.458        0.851      109.403       40.860        0.139      331.792        0.036      852.967
01/26/2021  12:33:00      117.504       14.972      -20.960       80.251       88.022       41.052     6440.289     7747.875     1685.282        1.517        0.794      118.454       32.646        0.076      331.759       -0.020      852.956
01/26/2021  12:34:00      163.058       23.879      -23.441      117.115      104.172       46.554    13715.975    10851.836     2167.262        2.722        1.337      164.797       39.313        0.057      331.716       -0.092      852.934
01/26/2021  12:35:00      190.266       42.782       -8.145      114.201       76.455       51.746    13041.912     5845.306     2677.680        2.983        1.078      195.017       59.595        0.093      331.681       -0.151      852.936
01/26/2021  12:36:00      188.106      -24.539       -2.057       99.380       85.350       59.969     9876.368     7284.556     3596.223        2.837        1.038      189.700       50.698        0.071      331.696       -0.126      852.931
01/26/2021  12:37:00      140.142      -15.987      -17.819       68.050       99.984       43.665     4630.754     9996.753     1906.589        1.837        0.827      141.050       34.941        0.061      331.990        0.360      852.921
01/26/2021  12:38:00      126.583      -80.049       -7.953       92.862       92.406       59.249     8623.334     8538.959     3510.443        2.158        1.034      149.770       53.935        0.130      331.800        0.047      852.901
01/26/2021  12:39:00      130.299      -33.444      -14.808       92.474       81.020       61.104     8551.499     6564.249     3733.685        1.858        0.942      134.523       34.790        0.067      331.845        0.121      852.885
01/26/2021  12:40:00      117.098      -44.514      -22.726      106.972      106.728       65.506    11442.997    11390.870     4291.035        2.166        1.356      125.274       68.441        0.298      331.597       -0.287      852.871
01/26/2021  12:41:00      101.614        0.446      -15.357      105.311       96.232       61.304    11090.358     9260.616     3758.210        1.733        1.205      101.615       58.264        0.329      331.528       -0.400      852.856
01/26/2021  12:42:00      165.725       54.284      -10.198      108.410       95.144       47.405    11752.651     9052.294     2247.227        2.678        1.153      174.389       52.417        0.090      331.594       -0.292      852.864
01/26/2021  12:43:00       48.721       -2.997      -16.048       54.750       78.770       39.690     2997.509     6204.723     1575.304        0.671        0.539       48.814       22.552        0.213      331.939        0.278      852.867
01/26/2021  12:44:00      106.847      -15.135      -13.349       65.778       77.546       42.669     4326.708     6013.308     1820.680        1.199        0.608      107.913       33.310        0.095      331.870        0.165      852.843
01/26/2021  12:45:00      172.395       62.294      -10.753       57.129       59.922       40.385     3263.677     3590.621     1630.973        2.110        0.424      183.305       29.744        0.026      331.626       -0.238      852.827
01/26/2021  12:46:00      255.863       75.610      -22.970       72.090       59.662       40.882     5196.974     3559.556     1671.349        4.107        0.521      266.801       25.046        0.009      331.492       -0.462      852.803
01/26/2021  12:47:00      132.291       59.783      -13.705       63.727       55.863       30.978     4061.184     3120.628      959.638        1.470        0.407      145.172       22.370        0.024      331.601       -0.279      852.798
01/26/2021  12:48:00       77.717      -46.951      -11.987       72.049       85.554       46.474     5191.108     7319.498     2159.815        1.153        0.734       90.798       44.526        0.240      332.030        0.428      852.803
01/26/2021  12:49:00      138.843      -11.502      -15.391       91.792       89.181       56.526     8425.704     7953.211     3195.163        1.961        0.979      139.318       51.708        0.138      331.904        0.220      852.796
01/26/2021  12:50:00      230.537       55.552      -14.246      124.130       91.745       54.334    15408.257     8417.068     2952.173        4.160        1.339      237.136       50.654        0.046      331.630       -0.233      852.782
01/26/2021  12:51:00      209.311       44.956      -10.750      124.572       84.011       44.633    15518.157     7057.850     1992.088        3.525        1.228      214.084       37.960        0.031      331.649       -0.201      852.775
01/26/2021  12:52:00      154.093      -40.175      -21.841      112.989      109.919       66.370    12766.419    12082.144     4404.915        2.754        1.463      159.244       61.532        0.149      331.619       -0.250      852.759
01/26/2021  12:53:00       81.732        4.726       -7.952       87.970       85.918       59.326     7738.757     7381.965     3519.614        1.270        0.932       81.869       52.392        0.410      331.697       -0.122      852.755
01/26/2021  12:54:00      122.117       13.739      -10.017       95.831       64.814       46.029     9183.598     4200.892     2118.681        1.535        0.775      122.887       48.438        0.155      331.633       -0.228      852.760
01/26/2021  12:55:00      130.606       35.900       -8.949       85.606       78.560       39.870     7328.443     6171.746     1589.649        1.676        0.754      135.450       42.363        0.098      331.700       -0.116      852.763
01/26/2021  12:56:00       65.464      -36.061       -9.831       85.061       80.249       40.916     7235.452     6439.841     1674.147        1.051        0.767       74.739       38.355        0.263      331.755       -0.025      852.746
01/26/2021  12:57:00      138.156       82.742      -19.256       80.749       94.553       32.825     6520.399     8940.331     1077.477        2.142        0.827      161.039       30.642        0.036      331.513       -0.426      852.748
01/26/2021  12:58:00      126.727       81.260      -11.730       73.863       43.314       28.267     5455.770     1876.125      799.025        1.546        0.407      150.542       34.197        0.052      331.467       -0.500      852.738
01/26/2021  12:59:00      130.682       23.879       -6.333       85.336       79.133       46.331     7282.258     6261.962     2146.561        1.669        0.785      132.846       51.122        0.148      331.951        0.297      852.713
01/26/2021  13:00:00       83.933       11.644      -32.504       89.573       87.362       46.727     8023.312     7632.165     2183.431        1.303        0.892       84.737       46.271        0.298      332.156        0.635      852.682
01/26/2021  13:01:00      120.636      -39.468      -18.165       94.496       79.387       56.840     8929.444     6302.350     3230.758        1.745        0.923      126.928       47.987        0.143      331.649       -0.199      852.674
01/26/2021  13:02:00      106.919      -10.844      -22.153       66.709       51.730       34.203     4450.050     2676.026     1169.865        1.017        0.415      107.467       25.055        0.054      331.721       -0.081      852.687
01/26/2021  13:03:00       97.068     -104.049      -16.680       58.479       75.993       30.799     3419.834     5774.965      948.561        1.533        0.507      142.297       34.235        0.058      331.687       -0.138      852.691
01/26/2021  13:04:00      135.088     -111.207      -37.273       56.979       76.115       39.788     3246.555     5793.552     1583.080        2.131        0.531      174.973       28.674        0.027      331.812        0.068      852.703
01/26/2021  13:05:00      146.521      -31.672      -18.890       67.149       63.256       43.913     4508.923     4001.295     1928.336        1.663        0.522      149.905       35.996        0.058      331.855        0.139      852.711
01/26/2021  13:06:00       76.139       -4.175      -20.636       59.373       70.591       36.409     3525.111     4983.043     1325.643        0.804        0.492       76.254       30.828        0.163      332.033        0.432      852.715
01/26/2021  13:07:00      111.841       -7.414       -8.337       76.881       79.034       40.496     5910.752     6246.305     1639.962        1.321        0.690      112.087       39.494        0.124      331.950        0.295      852.685
01/26/2021  13:08:00      110.846      -60.053      -22.535       85.704       76.168       49.673     7345.236     5801.609     2467.422        1.600        0.781      126.068       47.401        0.141      331.860        0.146      852.664
01/26/2021  13:09:00      112.019       69.532      -14.585       55.296       62.770       33.703     3057.645     3940.013     1135.919        1.286        0.407      131.844       19.808        0.023      331.933        0.268      852.663
01/26/2021  13:10:00      168.922       21.095      -17.168       77.093       66.539       35.747     5943.283     4427.391     1277.824        2.046        0.582      170.234       25.715        0.023      331.792        0.034      852.655
01/26/2021  13:11:00      181.816       23.500      -10.728       62.661       47.918       30.043     3926.362     2296.148      902.609        2.042        0.356      183.328       25.051        0.019      331.691       -0.133      852.654
01/26/2021  13:12:00      112.781       16.651      -12.972       78.902       95.383       36.099     6225.456     9098.003     1303.134        1.489        0.831      114.004       24.879        0.048      331.775        0.007      852.646
01/26/2021  13:13:00       65.599       -4.746      -12.129       65.483       57.645       36.215     4288.016     3322.931     1311.536        0.670        0.446       65.770       28.900        0.193      331.861        0.150      852.637
01/26/2021  13:14:00       42.925      -17.011       13.194       59.904       53.540       46.941     3588.446     2866.550     2203.411        0.548        0.433       46.173       42.433        0.845      332.166        0.651      852.631
01/26/2021  13:15:00       93.341       -3.990      -12.359       75.392       56.882       44.161     5683.886     3235.574     1950.222        0.987        0.543       93.426       32.623        0.122      332.089        0.524      852.620
01/26/2021  13:16:00      111.910      -79.404      -25.837       61.372       55.085       34.632     3766.474     3034.348     1199.359        1.375        0.400      137.218       31.799        0.054      331.643       -0.210      852.628
01/26/2021  13:17:00       96.261      -79.355      -21.639       77.635       80.043       44.784     6027.231     6406.862     2005.591        1.523        0.722      124.753       36.679        0.086      332.014        0.402      852.616
01/26/2021  13:18:00       72.940      -24.557      -18.732       93.144       87.168       36.804     8675.856     7598.255     1354.543        1.195        0.881       76.963       36.729        0.228      332.014        0.402      852.606
01/26/2021  13:19:00       73.784      -39.062      -19.752       67.356       70.485       38.895     4536.769     4968.163     1512.828        0.919        0.551       83.486       34.239        0.168      332.346        0.948      852.622
01/26/2021  13:20:00       45.444      -31.664       -5.009       67.275       74.299       46.542     4525.884     5520.365     2166.190        0.765        0.611       55.387       25.978        0.220      332.163        0.646      852.635
01/26/2021  13:21:00      117.102       -9.965      -18.469       83.491       73.537       49.761     6970.720     5407.685     2476.172        1.450        0.743      117.526       42.832        0.133      332.033        0.433      852.641
01/26/2021  13:22:00       94.356      -14.839      -18.662       61.719       70.490       32.587     3809.290     4968.863     1061.908        0.965        0.492       95.515       22.758        0.057      332.075        0.503      852.648
01/26/2021  13:23:00      126.479       52.033       -5.471       78.633       74.283       37.213     6183.073     5517.944     1384.829        1.591        0.654      136.764       25.045        0.034      331.897        0.206      852.641
01/26/2021  13:24:00      158.332       56.262      -23.936       81.191       85.694       33.182     6592.042     7343.402     1101.050        2.192        0.752      168.031       27.507        0.027      331.805        0.055      852.639
01/26/2021  13:25:00      119.021       11.089      -10.577       77.569       64.813       43.008     6016.955     4200.748     1849.715        1.323        0.603      119.537       45.297        0.144      332.003        0.382      852.637
01/26/2021  13:26:00      112.637       42.582      -13.624       76.518       39.739       22.664     5854.968     1579.195      513.668        1.132        0.397      120.417       12.091        0.010      331.890        0.198      852.647
01/26/2021  13:27:00       82.165        1.164      -22.168       73.056       82.543       41.810     5337.179     6813.417     1748.039        1.057        0.695       82.173       34.438        0.176      332.267        0.818      852.635
01/26/2021  13:28:00      131.077       -8.973      -13.204       77.494       79.515       46.024     6005.289     6322.703     2118.221        1.594        0.722      131.383       39.931        0.092      332.105        0.552      852.619
01/26/2021  13:29:00      139.640      -58.266      -27.535       85.531       76.118       44.133     7315.538     5793.885     1947.716        1.935        0.753      151.309       44.004        0.085      331.824        0.087      852.605
01/26/2021  13:30:00      115.604      -11.455      -21.780       79.867       78.952       44.458     6378.706     6233.473     1976.474        1.428        0.729      116.170       41.653        0.129      332.060        0.475      852.584
01/26/2021  13:31:00       83.133      -22.779        2.727       73.993       65.427       53.542     5475.006     4280.635     2866.704        1.003        0.631       86.198       42.727        0.246      332.044        0.451      852.589
01/26/2021  13:32:00       29.538      -83.212      -15.121       72.185       83.044       38.173     5210.723     6896.308     1457.175        1.079        0.678       88.299       28.476        0.104      332.192        0.697      852.619
01/26/2021  13:33:00      111.249       61.145      -10.896       93.019       34.024       24.963     8652.477     1157.650      623.135        1.333        0.522      126.945       13.055        0.011      331.870        0.164      852.638
01/26/2021  13:34:00       92.984       43.826       -6.040       62.748       56.109       21.203     3937.298     3148.177      449.567        0.907        0.377      102.795       19.522        0.036      331.746       -0.039      852.642
01/26/2021  13:35:00       54.673       71.024        4.479       39.282       30.065       25.704     1543.106      903.927      660.709        0.558        0.155       89.630       20.852        0.054      331.758       -0.021      852.652
01/26/2021  13:36:00       19.622       13.788      -14.487       17.951       36.693       21.522      322.253     1346.405      463.193        0.146        0.107       23.982       17.890        0.556      331.798        0.046      852.647
01/26/2021  13:37:00       39.984       14.384      -19.234       40.437       51.056       20.298     1635.133     2606.703      411.992        0.341        0.233       42.493       16.290        0.147      331.846        0.125      852.638
01/26/2021  13:38:00       41.944        9.307      -20.019       35.626       51.234       26.540     1269.204     2624.952      704.398        0.342        0.230       42.964       19.518        0.206      332.119        0.574      852.622
01/26/2021  13:39:00       63.567       35.369       -3.676       56.062       50.678       28.205     3142.896     2568.257      795.496        0.590        0.325       72.745       19.235        0.070      332.222        0.746      852.618
01/26/2021  13:40:00      104.186       65.113       -3.558       70.102       66.040       35.661     4914.343     4361.326     1271.674        1.282        0.527      122.859       37.338        0.092      331.977        0.341      852.628
01/26/2021  13:41:00      105.907      103.557       -6.455       52.037       43.132       32.080     2707.898     1860.410     1029.149        1.379        0.280      148.123       26.869        0.033      331.689       -0.134      852.647
01/26/2021  13:42:00       89.139       66.709      -20.689       20.009       20.480       11.265      400.351      419.450      126.902        0.689        0.047      111.337        7.470        0.005      331.618       -0.249      852.648
01/26/2021  13:43:00      165.398       62.864        2.358       78.663       65.904       42.110     6187.843     4343.296     1773.221        2.181        0.615      176.942       28.070        0.025      331.942        0.280      852.643
01/26/2021  13:44:00      198.594       74.453      -21.442       74.236       64.201       37.714     5511.004     4121.797     1422.340        2.825        0.553      212.091       36.701        0.030      331.864        0.151      852.651
01/26/2021  13:45:00      123.919       39.917      -15.987       52.685       66.472       30.154     2775.729     4418.548      909.263        1.265        0.405      130.189       18.990        0.021      331.892        0.200      852.641
01/26/2021  13:46:00       97.062       43.258       -9.752       43.052       40.983       22.351     1853.499     1679.575      499.565        0.771        0.202      106.265       13.796        0.017      332.106        0.554      852.624
01/26/2021  13:47:00       58.289       53.661       -0.316       48.353       41.489       24.786     2337.990     1721.298      614.352        0.547        0.234       79.228       15.049        0.036      331.967        0.324      852.605
01/26/2021  13:48:00       74.895       80.719      -12.959       34.750       28.141       22.467     1207.576      791.923      504.758        0.740        0.125      110.113       15.438        0.020      331.846        0.125      852.602
01/26/2021  13:49:00       73.438       33.009      -11.662       69.743       71.392       41.869     4864.127     5096.826     1753.013        0.916        0.586       80.516       37.982        0.223      332.150        0.625      852.594
01/26/2021  13:50:00       68.375      -40.156      -15.079       80.830       84.518       53.674     6533.530     7143.241     2880.879        1.153        0.828       79.295       47.026        0.352      332.395        1.028      852.589
01/26/2021  13:51:00      114.780        6.319      -12.812       82.284       70.922       50.059     6770.666     5029.947     2505.938        1.384        0.715      114.954       46.730        0.165      332.154        0.631      852.589
01/26/2021  13:52:00      100.661      -37.844      -13.447       73.094       66.935       49.046     5342.735     4480.338     2405.505        1.198        0.611      107.540       49.067        0.208      331.958        0.309      852.602
01/26/2021  13:53:00       71.648      -10.673       -4.590       83.739       59.052       46.625     7012.146     3487.144     2173.860        0.897        0.634       72.438       47.218        0.425      332.049        0.459      852.630
01/26/2021  13:54:00       84.362      -13.700      -31.578       59.426       73.302       34.706     3531.408     5373.225     1204.498        0.920        0.505       85.467       26.866        0.099      332.415        1.063      852.609
01/26/2021  13:55:00      179.603       42.545      -17.810       79.273       56.322       35.948     6284.278     3172.208     1292.272        2.256        0.537      184.573       23.166        0.016      331.952        0.298      852.603
01/26/2021  13:56:00       93.022       26.979       -1.015       73.222       60.839       28.617     5361.478     3701.403      818.930        0.963        0.494       96.855       25.141        0.067      332.079        0.507      852.612
01/26/2021  13:57:00      139.035      -47.591      -24.955       68.738       56.025       32.384     4724.879     3138.804     1048.727        1.556        0.446      146.954       35.439        0.058      331.815        0.073      852.607
01/26/2021  13:58:00       70.370       44.753       -5.094       31.131       35.351       21.308      969.138     1249.708      454.045        0.483        0.134       83.396       15.564        0.035      331.763       -0.012      852.622
01/26/2021  13:59:00       63.779       13.628       -8.299       71.847       83.793       35.942     5161.957     7021.344     1291.817        0.890        0.674       65.219       26.013        0.159      332.117        0.571      852.614
01/26/2021  14:00:00      104.546       15.711      -14.502       73.964       72.128       48.759     5470.600     5202.518     2377.396        1.222        0.653      105.719       36.807        0.121      332.098        0.540      852.606
01/26/2021  14:01:00      102.213      -17.330        3.647      105.719       78.560       59.697    11176.524     6171.605     3563.742        1.583        1.046      103.671       59.735        0.332      332.032        0.429      852.586
01/26/2021  14:02:00      111.304      -41.629      -11.089      101.307       88.387       63.481    10263.037     7812.227     4029.796        1.817        1.105      118.835       65.041        0.300      332.141        0.610      852.573
01/26/2021  14:03:00       85.725     -130.953      -21.765       82.681       73.677       48.418     6836.193     5428.281     2344.347        1.979        0.730      156.517       47.660        0.093      332.258        0.801      852.579
01/26/2021  14:04:00      112.654      -87.672       -9.155      110.005       96.221       57.283    12100.993     9258.417     3281.285        2.255        1.232      142.750       71.806        0.253      332.262        0.807      852.578
01/26/2021  14:05:00      112.823        0.016      -22.129       79.869       68.957       40.007     6379.037     4755.097     1600.576        1.297        0.637      112.823       33.099        0.086      332.291        0.858      852.576
01/26/2021  14:06:00       78.364      -32.799      -14.080       85.079       94.334       59.872     7238.411     8898.985     3584.669        1.356        0.986       84.952       49.953        0.346      332.389        1.018      852.559
01/26/2021  14:07:00       42.224       -9.929      -14.148       74.701       76.994       43.845     5580.241     5928.058     1922.349        0.775        0.672       43.376       35.891        0.685      332.200        0.707      852.566
01/26/2021  14:08:00       38.976       43.905      -13.683       70.064       58.530       29.251     4908.956     3425.786      855.632        0.641        0.460       58.710       19.931        0.115      332.257        0.803      852.569
01/26/2021  14:09:00       67.720       24.110       -7.931       65.566       48.905       25.833     4298.920     2391.654      667.344        0.629        0.368       71.884       25.360        0.124      332.177        0.670      852.574
01/26/2021  14:10:00      127.145       11.539      -18.450      114.609       69.272       50.354    13135.181     4798.553     2535.487        1.855        1.023      127.668       56.116        0.193      332.159        0.639      852.580
01/26/2021  14:11:00       78.236       66.961       -7.829       41.960       72.938       25.307     1760.631     5319.974      640.462        0.919        0.386      102.979       22.741        0.049      332.315        0.898      852.584
01/26/2021  14:12:00       41.062       -1.938      -15.399       83.094       87.551       33.166     6904.649     7665.105     1100.014        0.879        0.783       41.108       31.727        0.596      332.533        1.258      852.572
01/26/2021  14:13:00      104.280       11.769      -15.588      117.576       62.143       32.214    13824.080     3861.716     1037.713        1.499        0.936      104.942       35.526        0.115      332.250        0.790      852.570
01/26/2021  14:14:00      115.386       38.373       -8.606       41.079       55.755       25.680     1687.469     3108.617      659.483        1.016        0.273      121.600       14.582        0.014      332.081        0.513      852.576
01/26/2021  14:15:00      133.328       21.748      -17.461       53.465       42.754       29.081     2858.476     1827.910      845.696        1.204        0.277      135.090       22.555        0.028      332.059        0.475      852.571
01/26/2021  14:16:00        8.779      -33.256       -8.106       53.331       48.370       39.126     2844.147     2339.628     1530.876        0.398        0.336       34.396       35.512        1.066      332.519        1.233      852.577
01/26/2021  14:17:00       83.175      -59.274      -10.773       71.888       56.665       41.039     5167.940     3210.920     1684.162        1.030        0.503      102.134       36.715        0.129      332.238        0.770      852.581
01/26/2021  14:18:00      104.511      -33.897      -14.991       75.078       60.112       37.120     5636.651     3613.505     1377.858        1.146        0.531      109.871       25.516        0.054      332.363        0.977      852.557
01/26/2021  14:19:00      187.048       32.589      -15.034       87.798       71.455       41.493     7708.417     5105.862     1721.645        2.540        0.727      189.866       46.774        0.061      332.124        0.580      852.517
01/26/2021  14:20:00      227.641       90.868      -23.230       46.251       50.012       33.221     2139.148     2501.243     1103.645        3.318        0.287      245.107       13.631        0.003      331.958        0.304      852.505
01/26/2021  14:21:00      149.087       65.188      -16.125       43.741       38.634       30.337     1913.244     1492.567      920.311        1.553        0.216      162.716       23.941        0.022      331.982        0.348      852.515
01/26/2021  14:22:00      124.118       76.301      -12.658       44.937       43.697       20.985     2019.348     1909.450      440.369        1.288        0.218      145.695       12.123        0.007      331.958        0.308      852.519
01/26/2021  14:23:00      112.909       90.774      -15.032       58.909       44.640       25.936     3470.306     1992.765      672.670        1.367        0.307      144.874       20.872        0.021      331.917        0.241      852.514
01/26/2021  14:24:00       97.470       57.372       -3.163       57.644       29.976       20.612     3322.780      898.559      424.872        0.872        0.232      113.102       19.562        0.030      331.963        0.317      852.507
01/26/2021  14:25:00        3.921       95.136       -0.321       65.600       78.414       33.324     4303.317     6148.682     1110.479        1.031        0.578       95.217       38.267        0.162      332.292        0.861      852.504
01/26/2021  14:26:00      114.665      165.922      -21.875       61.044       47.615       35.200     3726.393     2267.155     1239.057        2.419        0.362      201.688       34.402        0.029      332.078        0.505      852.489
01/26/2021  14:27:00      189.561       73.990      -17.600       82.665       74.070       46.569     6833.554     5486.336     2168.659        2.810        0.724      203.489       32.939        0.026      332.108        0.554      852.425
01/26/2021  14:28:00      277.654       83.830      -14.580       84.018       64.851       56.912     7059.012     4205.670     3238.976        4.941        0.725      290.033       38.824        0.018      331.932        0.261      852.426
01/26/2021  14:29:00       77.504       71.907      -10.267       77.411       53.014       35.080     5992.418     2810.475     1230.599        1.066        0.502      105.724       32.787        0.096      332.196        0.701      852.459
01/26/2021  14:30:00       84.170       55.741       -8.482       54.198       59.472       33.598     2937.391     3536.890     1128.814        0.893        0.380      100.954       33.385        0.109      332.237        0.769      852.459
01/26/2021  14:31:00      126.790       81.217      -13.306       87.292       59.145       35.428     7619.946     3498.161     1255.120        1.761        0.619      150.572       35.148        0.054      331.988        0.358      852.438
01/26/2021  14:32:00      118.040      144.369      -15.309       67.396       54.621       40.226     4542.231     2983.483     1618.109        2.208        0.457      186.483       35.317        0.036      331.925        0.253      852.416
01/26/2021  14:33:00      125.219       94.909      -15.497      124.462       31.805       59.188    15490.692     1011.538     3503.244        2.246        1.000      157.122       79.723        0.257      331.958        0.308      852.412
01/26/2021  14:34:00      137.811       29.585      -22.915       57.596       65.146       32.957     3317.259     4243.937     1086.166        1.452        0.432      140.951       20.746        0.022      332.209        0.723      852.412
01/26/2021  14:35:00       97.018       25.729      -17.767       65.209       48.290       25.113     4252.180     2331.918      630.669        0.880        0.361      100.372       14.172        0.020      332.206        0.717      852.424
01/26/2021  14:36:00       74.403       49.928       -3.489      128.012       50.353       60.733    16387.110     2535.437     3688.475        1.532        1.131       89.603       81.445        0.826      332.241        0.776      852.467
01/26/2021  14:37:00       83.918       46.734       -7.894       64.195       50.131       29.640     4121.062     2513.155      878.555        0.840        0.376       96.054       28.029        0.085      332.042        0.447      852.480
01/26/2021  14:38:00       83.028      -26.422       -0.728       53.213       62.361       29.890     2831.596     3888.869      893.389        0.760        0.381       87.131       20.384        0.055      332.326        0.917      852.489
01/26/2021  14:39:00       94.656       46.129       -8.536       57.199       62.887       31.264     3271.671     3954.712      977.448        0.968        0.410      105.298       27.960        0.071      332.307        0.885      852.501
01/26/2021  14:40:00      152.421       79.279      -18.969       58.042       55.267       31.849     3368.864     3054.425     1014.376        1.866        0.372      171.806       25.171        0.021      332.112        0.562      852.491
01/26/2021  14:41:00      128.093       22.744       -7.031       78.699       54.279       46.795     6193.468     2946.245     2189.739        1.415        0.566      130.096       44.778        0.118      332.229        0.755      852.474
01/26/2021  14:42:00      108.283       -9.582       -3.097       91.163       66.533       57.229     8310.784     4426.654     3275.165        1.392        0.801      108.706       48.230        0.197      332.438        1.100      852.470
01/26/2021  14:43:00      134.587      -14.365        0.245       92.918       61.717       48.748     8633.703     3809.022     2376.322        1.657        0.741      135.352       44.336        0.107      332.359        0.968      852.444
01/26/2021  14:44:00       94.728       -8.596      -38.084      174.244       81.929       86.209    30361.084     6712.328     7431.957        2.749        2.225       95.117      114.827        1.457      332.546        1.280      852.440
01/26/2021  14:45:00       71.918      -19.700      -11.344       58.258       97.834       34.615     3393.965     9571.581     1198.198        0.992        0.708       74.567       44.072        0.349      332.376        0.999      852.435
01/26/2021  14:46:00      137.256       50.250      -13.930      155.990       50.525       76.633    24332.917     2552.784     5872.589        2.715        1.638      146.165      103.622        0.503      332.345        0.947      852.419
01/26/2021  14:47:00       50.968        3.045      -15.548       49.473       65.015       27.320     2447.582     4226.951      746.387        0.513        0.371       51.059       19.357        0.144      332.550        1.285      852.404
01/26/2021  14:48:00      128.992      -42.753      -44.814       79.902      100.126       50.540     6384.378    10025.212     2554.300        1.972        0.948      135.893       26.622        0.038      332.451        1.123      852.373
01/26/2021  14:49:00      190.962        8.604      -21.056      122.076       77.097       50.365    14902.502     5943.875     2536.668        3.018        1.169      191.156       12.870        0.005      332.302        0.874      852.343
01/26/2021  14:50:00      139.077      -48.975      -34.442      198.382       84.488       97.217    39355.531     7138.246     9451.197        3.942        2.797      147.448      127.782        0.751      332.340        0.940      852.337
01/26/2021  14:51:00      209.421        8.733      -19.691       98.217       67.436       44.025     9646.638     4547.619     1938.174        3.022        0.807      209.603       26.678        0.016      332.041        0.444      852.327
01/26/2021  14:52:00      201.848       69.957      -10.263      212.981       63.669      104.993    45361.018     4053.758    11023.502        5.308        3.022      213.627      144.886        0.460      332.054        0.465      852.319
01/26/2021  14:53:00      185.035       70.355       -4.353       75.926       60.963       39.368     5764.726     3716.537     1549.818        2.512        0.552      197.959       37.360        0.036      331.985        0.351      852.305
01/26/2021  14:54:00       93.179       51.972      -11.296       82.336       67.398       35.195     6779.295     4542.511     1238.682        1.203        0.628      106.693       18.241        0.029      332.136        0.602      852.310
01/26/2021  14:55:00      158.700      -31.958      -31.963       78.304       84.639       40.606     6131.469     7163.746     1648.884        2.108        0.747      161.886       35.483        0.048      332.268        0.818      852.307
01/26/2021  14:56:00      121.129       -7.962       -5.658      159.894       63.804       84.098    25566.111     4070.975     7072.549        2.573        1.835      121.390      104.829        0.746      332.156        0.634      852.300
01/26/2021  14:57:00       89.538      -22.807      -11.132       50.764       65.343       34.703     2576.959     4269.748     1204.312        0.835        0.403       92.397       27.674        0.090      332.226        0.752      852.289
01/26/2021  14:58:00       61.381      -32.174      -11.845       52.147       79.446       28.163     2719.278     6311.744      793.136        0.738        0.491       69.302       26.363        0.145      332.374        0.996      852.269
01/26/2021  14:59:00      113.738       12.729       -1.610       85.014       53.261       30.798     7227.298     2836.714      948.516        1.205        0.551      114.448       29.904        0.068      332.258        0.803      852.255
01/26/2021  15:00:00      168.541       -9.431      -11.956       68.957       58.312       33.965     4755.130     3400.320     1153.645        1.897        0.465      168.805       15.844        0.009      332.030        0.427      852.245
01/26/2021  15:01:00       61.428       21.657       -3.794       61.398       67.622       31.632     3769.741     4572.729     1000.591        0.680        0.467       65.134       29.057        0.199      332.251        0.793      852.239
01/26/2021  15:02:00       85.432        7.367       -4.904      173.067       47.807       73.736    29952.131     2285.501     5436.960        2.252        1.884       85.749      104.521        1.486      332.301        0.875      852.239
01/26/2021  15:03:00       27.180       -6.911       -9.344       52.422       40.131       24.304     2748.069     1610.536      590.676        0.291        0.247       28.045       10.842        0.149      332.305        0.880      852.253
01/26/2021  15:04:00       21.897       26.115        2.511       33.845       29.858       20.597     1145.482      891.480      424.243        0.181        0.123       34.081       16.152        0.225      332.225        0.749      852.239
01/26/2021  15:05:00       65.080       59.024        2.517       40.121       50.107       26.144     1609.712     2510.759      683.497        0.626        0.240       87.859       21.230        0.058      332.249        0.788      852.212
01/26/2021  15:06:00       85.643       23.772      -18.128       57.165       55.262       28.686     3267.837     3053.905      822.910        0.769        0.357       88.881       17.693        0.040      332.389        1.021      852.200
01/26/2021  15:07:00       47.086      -62.214      -25.976       65.587       62.476       29.665     4301.633     3903.193      880.033        0.792        0.454       78.024       25.790        0.109      332.403        1.042      852.186
01/26/2021  15:08:00       10.516      -61.521      -10.167      191.320       31.082       89.203    36603.197      966.091     7957.182        2.475        2.276       62.413      126.616        4.115      332.500        1.204      852.198
01/26/2021  15:09:00       96.327       39.911       -8.378       60.677       27.486       25.352     3681.746      755.501      642.714        0.801        0.254      104.267       26.302        0.064      332.284        0.847      852.207
01/26/2021  15:10:00      130.602        2.324       -7.772       57.344       50.660       27.772     3288.351     2566.474      771.265        1.187        0.331      130.623       22.961        0.031      332.328        0.920      852.203
01/26/2021  15:11:00       91.113       34.722       -3.842       72.820       41.820       21.572     5302.715     1748.910      465.372        0.852        0.376       97.504       20.456        0.044      332.465        1.146      852.189
01/26/2021  15:12:00       57.562      -47.283       -1.503       55.886       58.867       33.312     3123.286     3465.377     1109.686        0.662        0.385       74.492       34.396        0.213      332.587        1.347      852.176
01/26/2021  15:13:00       87.151        4.663      -31.513      261.737       67.077      126.815    68506.288     4499.361    16082.164        4.883        4.454       87.275      179.229        4.217      332.730        1.586      852.163
01/26/2021  15:14:00       97.006       10.709       -4.859       51.790       48.581       26.877     2682.215     2360.092      722.353        0.766        0.288       97.595       19.695        0.041      332.322        0.908      852.140
01/26/2021  15:15:00      102.302       38.313       -3.223       54.031       47.691       30.901     2919.354     2274.464      954.856        0.905        0.307      109.241       27.838        0.065      332.309        0.887      852.119
01/26/2021  15:16:00       68.767       46.048      -15.441       32.587       50.485       27.542     1061.921     2548.691      758.540        0.573        0.218       82.760       18.463        0.050      332.352        0.960      852.104
01/26/2021  15:17:00       58.282       51.676      -11.971       25.990       14.097       12.433      675.469      198.721      154.580        0.362        0.051       77.892        7.287        0.009      332.127        0.587      852.095
01/26/2021  15:18:00      179.511       76.106      -16.881      139.185       37.339       69.742    19372.433     1394.212     4864.010        3.196        1.282      194.978       92.466        0.225      332.180        0.675      852.074
01/26/2021  15:19:00       95.424       42.398       -9.609      187.211       78.778       90.978    35047.817     6205.951     8276.975        3.025        2.477      104.419      123.228        1.393      332.482        1.175      852.054
01/26/2021  15:20:00      111.646      -39.689      -23.118      190.254       72.787       95.264    36196.444     5298.009     9075.219        3.256        2.528      118.490      130.312        1.210      332.649        1.449      852.035
01/26/2021  15:21:00      135.269       35.184      -19.823      224.013       47.471      108.425    50181.815     2253.534    11756.027        4.205        3.210      139.770      152.143        1.185      332.442        1.109      852.018
01/26/2021  15:22:00       80.983       36.787       -7.379       51.375       35.910       20.239     2639.350     1289.520      409.636        0.615        0.217       88.946       18.287        0.042      332.377        1.000      852.044
01/26/2021  15:23:00      102.838       62.799      -11.438      194.701       38.420       91.606    37908.577     1476.100     8391.667        3.120        2.389      120.496      129.366        1.153      332.460        1.139      852.075
01/26/2021  15:24:00      104.017       52.818      -21.197      167.806       46.649       83.639    28158.948     2176.153     6995.536        2.569        1.867      116.659      115.200        0.975      332.417        1.066      852.097
01/26/2021  15:25:00       26.216       -9.337      -20.115       31.907       57.747       24.616     1018.039     3334.758      605.925        0.307        0.248       27.829        6.612        0.056      332.650        1.452      852.106
01/26/2021  15:26:00       24.185       19.788        6.810       35.075       56.546       26.473     1230.239     3197.492      700.797        0.307        0.256       31.248       25.386        0.660      332.776        1.659      852.110
01/26/2021  15:27:00      -43.953      -37.090       -1.863       34.643       29.184       20.610     1200.118      851.716      424.779        0.289        0.124       57.511       11.563        0.040      332.800        1.698      852.117
01/26/2021  15:28:00      -10.100      -19.063       -1.339       32.437       27.141       19.485     1052.152      736.637      379.676        0.132        0.108       21.573        8.278        0.147      332.951        1.948      852.124
01/26/2021  15:29:00      119.244      -17.336       -2.211       75.822       77.439       42.413     5749.031     5996.835     1798.860        1.403        0.677      120.498       38.533        0.102      332.554        1.291      852.137
01/26/2021  15:30:00       55.079      -15.579       -7.740       89.680       74.308       50.564     8042.582     5521.701     2556.731        0.973        0.806       57.240       30.741        0.288      332.596        1.360      852.132
01/26/2021  15:31:00       76.472        4.148      -16.619      123.264       54.999       60.274    15193.960     3024.865     3632.963        1.399        1.093       76.584       73.292        0.916      332.548        1.281      852.123
01/26/2021  15:32:00       95.579      -10.897        1.882       73.722       58.450       43.833     5434.984     3416.348     1921.293        1.001        0.539       96.198       34.732        0.130      332.506        1.214      852.123
01/26/2021  15:33:00       57.380      -11.939       -1.857       61.414       56.399       49.168     3771.732     3180.858     2417.447        0.640        0.469       58.609       41.468        0.501      332.702        1.538      852.119
01/26/2021  15:34:00      128.188       29.197       -9.616       68.981       46.606       32.638     4758.391     2172.103     1065.242        1.268        0.400      131.471       14.128        0.012      332.417        1.065      852.133
01/26/2021  15:35:00      158.218       45.217       -6.589       46.670       58.842       31.820     2178.086     3462.399     1012.530        1.689        0.333      164.553       25.530        0.024      332.307        0.885      852.148
01/26/2021  15:36:00       97.998        1.238      -17.221       67.874       66.169       46.624     4606.923     4378.309     2173.789        1.053        0.558       98.006       40.634        0.172      332.670        1.483      852.128
01/26/2021  15:37:00      115.037      -11.650      -29.573       65.154       60.545       38.603     4245.091     3665.689     1490.178        1.182        0.470      115.626       33.174        0.082      332.642        1.437      852.124
01/26/2021  15:38:00       60.922      -55.788      -10.755       42.707       59.119       32.899     1823.859     3495.025     1082.316        0.667        0.320       82.606       26.278        0.101      332.740        1.599      852.120
01/26/2021  15:39:00       22.023      -52.105        4.237       29.945       36.875       26.953      896.680     1359.775      726.477        0.310        0.149       56.568       18.826        0.111      332.667        1.479      852.106
01/26/2021  15:40:00       62.764       38.718       -3.654       27.325       32.550       21.030      746.654     1059.472      442.255        0.385        0.112       73.746        8.955        0.015      332.545        1.277      852.098
01/26/2021  15:41:00       31.699      -51.370       -6.717       44.877       57.766       41.640     2013.950     3336.967     1733.904        0.539        0.354       60.363       25.789        0.183      332.787        1.676      852.085
01/26/2021  15:42:00       16.142       15.363       -0.605       32.099       36.637       19.558     1030.338     1342.245      382.508        0.163        0.138       22.285       11.374        0.261      332.824        1.738      852.088
01/26/2021  15:43:00       99.598       47.630      -15.523      154.866       19.762       74.002    23983.630      390.548     5476.312        2.113        1.493      110.401      105.540        0.914      332.483        1.176      852.090
01/26/2021  15:44:00        5.272       27.544       -2.578       28.641       35.516        9.143      820.284     1261.422       83.599        0.148        0.108       28.044        9.332        0.111      332.482        1.174      852.081
01/26/2021  15:45:00       24.958       42.300      -11.300       22.017       37.882       15.813      484.760     1435.060      250.036        0.235        0.108       49.114       19.819        0.163      332.479        1.168      852.089
01/26/2021  15:46:00       32.552       32.528       -1.664       23.001       30.591       12.894      529.030      935.805      166.243        0.188        0.082       46.018       14.240        0.096      332.509        1.218      852.126
01/26/2021  15:47:00      108.487       54.387       -6.798       50.665       23.407       17.561     2566.955      547.897      308.381        0.910        0.171      121.357       14.002        0.013      332.428        1.085      852.143
01/26/2021  15:48:00      159.170       50.769      -18.176      174.326       25.819       85.246    30389.654      666.598     7266.894        3.327        1.916      167.071      120.906        0.524      332.472        1.157      852.129
01/26/2021  15:49:00      164.972      101.397      -18.964       40.596       59.921       28.205     1647.997     3590.513      795.513        2.194        0.302      193.642       18.583        0.009      332.448        1.115      852.090
01/26/2021  15:50:00      108.339      108.188      -21.462       58.420       43.629       26.598     3412.938     1903.468      707.479        1.496        0.301      153.107       23.532        0.024      332.475        1.161      852.059
01/26/2021  15:51:00       21.874       97.320       -4.425       40.234       33.535       20.188     1618.802     1124.587      407.572        0.656        0.158       99.748       13.388        0.018      332.503        1.210      852.053
01/26/2021  15:52:00        6.285       78.804       -4.206       21.762       45.038       23.706      473.583     2028.443      561.977        0.466        0.153       79.054       14.416        0.033      332.557        1.297      852.061
01/26/2021  15:53:00        4.839       37.953       -3.337       20.472       19.526       16.990      419.084      381.258      288.664        0.128        0.054       38.260       14.298        0.140      332.674        1.491      852.071
01/26/2021  15:54:00       11.173       14.922      -11.004       17.680       30.956       11.682      312.584      958.244      136.460        0.094        0.070       18.642       13.300        0.509      332.773        1.653      852.083
01/26/2021  15:55:00       31.928      -21.927      -17.004      161.131       55.859       77.997    25963.264     3120.202     6083.605        1.847        1.758       38.732      109.315        7.966      332.870        1.815      852.089
01/26/2021  15:56:00       40.809        9.389       -6.744      181.083       45.717       90.740    32790.971     2090.038     8233.718        2.245        2.156       41.875      123.881        8.752      332.800        1.699      852.099
01/26/2021  15:57:00      115.293      -27.175       -8.295      179.840       46.230       96.351    32342.497     2137.209     9283.526        2.892        2.188      118.452      124.703        1.108      332.631        1.419      852.102
01/26/2021  15:58:00       84.037      -33.446      -16.392       73.845       66.209       45.861     5453.118     4383.663     2103.196        1.019        0.597       90.448       37.356        0.171      332.642        1.436      852.112
01/26/2021  15:59:00       86.688       -6.712      -13.657       75.992       79.112       45.975     5774.847     6258.785     2113.733        1.094        0.707       86.948       40.991        0.222      332.680        1.499      852.110
01/26/2021  16:00:00      143.448       22.034      -16.573       76.032       79.015       39.621     5780.883     6243.449     1569.836        1.746        0.680      145.130       37.657        0.067      332.725        1.574      852.101
01/26/2021  16:01:00      108.100       33.861      -17.095       79.163       67.903       34.978     6266.837     4610.814     1223.441        1.261        0.605      113.279       31.910        0.079      332.618        1.398      852.076
01/26/2021  16:02:00      132.391       32.609      -13.497       69.188       61.907       32.808     4786.990     3832.426     1076.337        1.423        0.485      136.348       23.331        0.029      332.550        1.285      852.060
01/26/2021  16:03:00      109.932       22.509      -12.842       49.300       43.442       26.171     2430.526     1887.167      684.916        0.888        0.250      112.213       20.101        0.032      332.573        1.323      852.053
01/26/2021  16:04:00       98.451       19.549      -11.884       65.250       37.963       33.903     4257.586     1441.214     1149.393        0.853        0.342      100.373       36.031        0.129      332.571        1.320      852.045
01/26/2021  16:05:00       96.551       61.724       -8.737       47.564       25.102       15.904     2262.364      630.120      252.946        0.818        0.157      114.595       18.730        0.027      332.466        1.146      852.037
01/26/2021  16:06:00      -15.061       21.688       -6.551       28.690       22.706       12.905      823.108      515.566      166.540        0.112        0.075       26.405       11.307        0.183      332.573        1.322      852.019
01/26/2021  16:07:00      -36.475      -12.552       -4.537       42.415       49.092       23.877     1798.993     2410.027      570.133        0.314        0.239       38.575       21.495        0.311      332.843        1.770      851.996
01/26/2021  16:08:00      -29.916      -15.682        1.086       44.922       28.512       19.270     2017.996      812.941      371.337        0.217        0.160       33.777       11.427        0.114      332.804        1.705      851.973
01/26/2021  16:09:00      -90.321      -17.551        8.495       66.055       52.432       39.948     4363.246     2749.117     1595.863        0.862        0.435       92.011       36.772        0.160      332.782        1.668      851.942
01/26/2021  16:10:00     -106.138      -97.214       -5.098       46.069       67.008       40.156     2122.375     4490.123     1612.528        1.448        0.411      143.930       28.007        0.038      332.659        1.466      851.918
01/26/2021  16:11:00      -61.752      -80.303      -19.803      282.686       55.925      136.239    79911.546     3127.588    18560.958        5.610        5.080      101.301      192.066        3.595      332.773        1.655      851.884
01/26/2021  16:12:00      -58.567       -9.937       -5.145       42.364       60.803       21.923     1794.747     3697.005      480.603        0.476        0.299       59.404       20.737        0.122      332.718        1.562      851.851
01/26/2021  16:13:00      -75.926       69.845       -4.332       60.185       34.630       26.371     3622.238     1199.218      695.446        0.809        0.276      103.165       26.688        0.067      332.647        1.445      851.827
01/26/2021  16:14:00      -76.013       66.269       -8.169       25.026       30.896       15.930      626.301      954.588      253.750        0.604        0.092      100.844        9.730        0.009      332.543        1.273      851.830
01/26/2021  16:15:00      -82.335       40.676      -16.755       70.433       27.076       32.743     4960.866      733.118     1072.071        0.774        0.338       91.835       38.721        0.178      332.654        1.457      851.815
01/26/2021  16:16:00      -96.244        3.581       -9.903      242.375       83.751      111.197    58745.549     7014.231    12364.841        4.373        3.906       96.310      151.178        2.464      332.643        1.441      851.796
01/26/2021  16:17:00     -196.074       38.884        2.201      103.659       58.820       40.184    10745.187     3459.749     1614.753        2.789        0.791      199.892       38.192        0.037      332.564        1.307      851.784
01/26/2021  16:18:00     -134.383        3.044       10.532       93.826       67.867       47.034     8803.396     4605.991     2212.155        1.690        0.781      134.417       43.801        0.106      332.701        1.534      851.765
01/26/2021  16:19:00      -98.771       12.700        2.449       50.159       30.959       30.162     2515.893      958.473      909.744        0.715        0.219       99.584       23.850        0.057      332.655        1.458      851.778
01/26/2021  16:20:00      -75.325       -0.165       -4.467       52.568       34.532       20.987     2763.344     1192.455      440.465        0.504        0.220       75.325       10.832        0.021      332.655        1.458      851.779
01/26/2021  16:21:00      -31.992      -33.972      -11.283      121.796       34.922       56.233    14834.284     1219.568     3162.145        1.076        0.961       46.665       77.099        2.730      332.775        1.658      851.785
01/26/2021  16:22:00      -51.900      -70.713      -19.666       43.231       27.239       16.823     1868.961      741.954      283.026        0.549        0.145       87.715       10.249        0.014      332.822        1.735      851.781
01/26/2021  16:23:00      -69.759      -27.404       -9.892       25.652       28.871       19.159      658.030      833.544      367.064        0.379        0.093       74.949       15.396        0.042      332.710        1.550      851.764
01/26/2021  16:24:00      -20.219      -55.265       -9.184       38.275       42.800       22.307     1464.989     1831.833      497.593        0.367        0.190       58.847        9.920        0.028      332.939        1.928      851.738
01/26/2021  16:25:00      -14.557      -14.996       -9.448       26.111       24.895       16.600      681.781      619.768      275.564        0.105        0.079       20.900       10.367        0.246      332.847        1.778      851.721
01/26/2021  16:26:00      -29.514      -43.258      -28.210       60.287       43.124       31.866     3634.487     1859.709     1015.426        0.502        0.325       52.367       26.229        0.251      332.708        1.547      851.728
01/26/2021  16:27:00      -11.768      -25.974       -5.206       54.602       41.502       26.724     2981.398     1722.404      714.153        0.313        0.271       28.515       26.521        0.865      332.792        1.686      851.754
01/26/2021  16:28:00       41.168      -62.265      -21.428      139.241       48.465       65.901    19387.928     2348.818     4342.903        1.605        1.304       74.644       92.369        1.531      332.850        1.781      851.779
01/26/2021  16:29:00        3.149       -7.444        2.319       32.365       31.796       27.762     1047.482     1010.981      770.746        0.145        0.141        8.082       20.967        6.730      332.809        1.713      851.798
01/26/2021  16:30:00      -15.634       33.717       -5.706      123.505       36.085       61.980    15253.492     1302.109     3841.522        1.090        1.020       37.165       84.536        5.174      332.855        1.791      851.804
01/26/2021  16:31:00        2.012       12.072       -9.319       19.321       13.942       14.159      373.296      194.385      200.469        0.050        0.038       12.239        5.177        0.179      332.810        1.715      851.785
01/26/2021  16:32:00       -1.844       -5.364       -1.098       26.655       23.875       20.438      710.468      570.031      417.701        0.087        0.085        5.672       21.473       14.333      332.796        1.692      851.765
01/26/2021  16:33:00      -13.390       -2.813       -1.432      167.532       27.178       78.422    28066.927      738.619     6150.002        1.756        1.748       13.682      109.956       64.584      332.861        1.799      851.737
01/26/2021  16:34:00        1.825      -20.920       -8.881      156.646       27.482       77.668    24538.085      755.241     6032.374        1.592        1.566       21.000      108.083       26.490      332.840        1.766      851.706
01/26/2021  16:35:00      -21.232      -15.926       -2.486       21.992       35.589       15.758      483.635     1266.567      248.300        0.135        0.100       26.542       14.317        0.291      332.853        1.787      851.682
01/26/2021  16:36:00       -6.260        7.724        8.724       11.246       23.011       13.696      126.482      529.506      187.569        0.051        0.042        9.942        6.906        0.483      332.915        1.888      851.655
01/26/2021  16:37:00       -1.126      -32.444      -22.496      175.773       21.627       85.189    30896.173      467.719     7257.152        2.008        1.931       32.463      120.457       13.768      332.854        1.789      851.632
01/26/2021  16:38:00      -38.554      -19.075       -9.765       30.068       45.584       18.595      904.057     2077.945      345.788        0.264        0.166       43.015       19.732        0.210      332.721        1.568      851.627
01/26/2021  16:39:00       30.305       60.001       -3.156       25.424       22.054       15.491      646.382      486.358      239.975        0.295        0.069       67.220       15.193        0.051      332.666        1.477      851.644
01/26/2021  16:40:00       79.094       63.108       -9.702       29.800       18.114       14.067      888.043      328.117      197.893        0.587        0.071      101.186       11.134        0.012      332.573        1.324      851.646
01/26/2021  16:41:00      128.233       62.484      -16.828       20.119       17.552       11.931      404.792      308.076      142.339        1.074        0.043      142.646        8.547        0.004      332.520        1.235      851.636
01/26/2021  16:42:00       88.137       60.812      -11.774      163.683       28.436       77.138    26792.043      808.592     5950.279        2.257        1.678      107.081      110.874        1.072      332.575        1.327      851.628
01/26/2021  16:43:00       37.918       52.698       -7.672       33.996       29.700       13.048     1155.711      882.076      170.258        0.324        0.110       64.922       11.607        0.032      332.578        1.332      851.629
01/26/2021  16:44:00        9.298       29.354        3.595       28.193       12.958       10.657      794.839      167.921      113.562        0.102        0.054       30.792       10.753        0.122      332.515        1.226      851.640
01/26/2021  16:45:00       -7.699       35.816       -4.313       13.282       10.529        6.338      176.422      110.861       40.173        0.084        0.016       36.634        5.285        0.021      332.515        1.226      851.657
01/26/2021  16:46:00      -19.779       50.501       -4.447       87.431       31.914       46.145     7644.102     1018.526     2129.318        0.687        0.540       54.236       58.023        1.145      332.592        1.356      851.650
01/26/2021  16:47:00      -86.847       57.555      -12.418       29.809       27.545       20.420      888.588      758.734      416.985        0.654        0.103      104.187       19.657        0.036      332.649        1.451      851.640
01/26/2021  16:48:00      -20.761       35.481       -1.308       34.270       24.090       15.145     1174.418      580.339      229.362        0.184        0.099       41.109       14.945        0.132      332.626        1.412      851.631
01/26/2021  16:49:00       49.168       16.351       -4.805       53.176       33.996       20.957     2827.653     1155.735      439.175        0.356        0.221       51.815       17.199        0.110      332.583        1.339      851.613
01/26/2021  16:50:00       96.515       22.128       -7.897      179.150       29.701       85.968    32094.747      882.158     7390.497        2.511        2.018       99.019      121.821        1.514      332.551        1.288      851.610
01/26/2021  16:51:00       99.020       28.141       -7.423      186.149       24.033       89.929    34651.501      577.579     8087.289        2.697        2.166      102.941      127.652        1.538      332.541        1.272      851.607
01/26/2021  16:52:00      123.690       38.028      -21.613      220.710       23.538      104.060    48712.880      554.035    10828.405        3.864        3.005      129.403      150.273        1.349      332.613        1.391      851.601
01/26/2021  16:53:00       48.325        3.218       -5.296       34.707       33.606       18.805     1204.593     1129.374      353.610        0.253        0.134       48.432       20.002        0.171      332.593        1.356      851.590
01/26/2021  16:54:00       98.253       48.026      -24.673      215.145       30.826      103.048    46287.258      950.260    10618.903        3.520        2.893      109.363      147.314        1.814      332.592        1.355      851.561
01/26/2021  16:55:00      107.331       59.362      -20.489      154.322       34.076       74.591    23815.304     1161.155     5563.858        2.300        1.527      122.653      104.829        0.730      332.582        1.339      851.528
01/26/2021  16:56:00       65.567       33.098       -8.350       36.956       38.781       20.308     1365.755     1503.940      412.399        0.437        0.164       73.448       11.305        0.024      332.570        1.318      851.502
01/26/2021  16:57:00       59.924       52.793       -3.290       32.707       26.145       20.126     1069.743      683.558      405.069        0.427        0.108       79.862        9.517        0.014      332.478        1.167      851.493
01/26/2021  16:58:00       59.046       32.713       -7.560       23.733       30.364       11.530      563.242      921.958      132.943        0.312        0.081       67.502       10.221        0.023      332.521        1.240      851.476
01/26/2021  16:59:00       42.032       48.433       -4.189       21.888       30.406       16.213      479.087      924.510      262.864        0.290        0.083       64.129        7.548        0.014      332.518        1.232      851.462
01/26/2021  17:00:00       37.556       50.945        0.331      214.318       28.289      104.499    45932.109      800.264    10919.987        3.082        2.883       63.292      148.215        5.484      332.564        1.311      851.454
01/26/2021  17:01:00       28.319       92.039       -1.296       23.749       28.524       16.257      564.016      813.623      264.297        0.546        0.082       96.297       12.231        0.016      332.572        1.321      851.459
01/26/2021  17:02:00       27.374       84.831       -5.663      146.994       38.864       72.182    21607.166     1510.448     5210.279        1.815        1.416       89.138       99.961        1.258      332.658        1.465      851.461
01/26/2021  17:03:00       61.889       74.077       -9.525      231.381       33.264      110.586    53537.050     1106.509    12229.174        3.813        3.344       96.528      158.135        2.684      332.536        1.264      851.448
01/26/2021  17:04:00      128.994       95.904      -22.870      209.939       30.553       98.316    44074.578      933.514     9666.073        4.051        2.734      160.738      141.222        0.772      332.493        1.192      851.413
01/26/2021  17:05:00       85.067       77.323       -9.437      119.215       33.101       58.094    14212.125     1095.680     3374.868        1.599        0.934      114.957       78.389        0.465      332.441        1.104      851.406
01/26/2021  17:06:00       76.450       58.131      -11.485      280.446       31.119      133.782    78649.965      968.418    17897.524        5.341        4.876       96.041      191.958        3.995      332.544        1.278      851.423
01/26/2021  17:07:00       31.337       46.245        1.021       21.444       30.260       17.925      459.856      915.647      321.293        0.241        0.085       55.863       23.139        0.172      332.469        1.152      851.433
01/26/2021  17:08:00       61.057       43.075       -7.701      171.243       39.082       83.733    29324.052     1527.374     7011.170        2.174        1.893       74.722      116.231        2.420      332.493        1.193      851.428
01/26/2021  17:09:00       85.931       60.597       -1.492      198.655       41.334       93.676    39463.761     1708.479     8775.233        3.049        2.497      105.148      130.784        1.547      332.512        1.224      851.425
01/26/2021  17:10:00       35.751       45.034        9.943       38.368       33.909       24.429     1472.098     1149.800      596.774        0.331        0.161       57.499       19.755        0.118      332.419        1.070      851.411
01/26/2021  17:11:00       98.213       67.037       -9.929      251.090       40.391      123.699    63046.061     1631.413    15301.455        4.709        3.999      118.911      172.233        2.098      332.567        1.316      851.412
01/26/2021  17:12:00       64.086       53.535       -4.994      179.926       37.688       87.675    32373.311     1420.401     7686.964        2.423        2.074       83.504      121.764        2.126      332.525        1.244      851.414
01/26/2021  17:13:00      -21.755       59.205       17.003       27.200       39.585       21.118      739.859     1566.952      445.966        0.351        0.138       63.076       25.060        0.158      332.462        1.140      851.407
01/26/2021  17:14:00       26.467       52.684       17.155      250.215       38.618      122.592    62607.724     1491.370    15028.805        4.143        3.956       58.958      172.085        8.519      332.548        1.285      851.405
01/26/2021  17:15:00       34.269       50.315        1.294      270.030       38.363      129.131    72916.174     1471.745    16674.692        4.737        4.553       60.877      183.680        9.104      332.572        1.323      851.398
01/26/2021  17:16:00       18.907       67.018        0.715      140.903       37.296       70.419    19853.584     1390.990     4958.866        1.552        1.310       69.634       94.816        1.854      332.502        1.206      851.388
01/26/2021  17:17:00       36.777       56.261        6.596      207.610       43.903      101.630    43102.065     1927.492    10328.632        2.995        2.768       67.215      139.874        4.331      332.523        1.241      851.376
01/26/2021  17:18:00       36.939       68.991       -1.393      188.186       39.113       92.419    35413.970     1529.843     8541.289        2.580        2.274       78.258      127.496        2.654      332.515        1.228      851.386
01/26/2021  17:19:00       46.765       60.797        7.648       28.006       39.304       23.953      784.353     1544.803      573.725        0.442        0.145       76.702       24.605        0.103      332.394        1.028      851.397
01/26/2021  17:20:00       57.575       87.773       -3.160      220.546       45.027      108.353    48640.579     2027.405    11740.427        3.671        3.120      104.971      149.371        2.025      332.555        1.296      851.396
01/26/2021  17:21:00       72.348       64.701       -4.112      273.291       44.707      134.200    74688.171     1998.687    18009.686        5.205        4.735       97.059      188.421        3.769      332.479        1.169      851.378
01/26/2021  17:22:00       93.354       62.040       -5.619       41.273       40.132       26.358     1703.428     1610.576      694.750        0.830        0.200      112.089       26.604        0.056      332.424        1.077      851.345
01/26/2021  17:23:00      181.845       85.151      -34.483      415.916       44.806      186.467   172986.465     2007.570    34770.125       12.559       10.488      200.795      275.887        1.888      332.521        1.244      851.313
01/26/2021  17:24:00       97.851       52.233      -14.576      358.276       47.337      171.775   128361.572     2240.759    29506.772        8.628        8.005      110.920      244.105        4.843      332.456        1.135      851.310
01/26/2021  17:25:00       61.196       84.803       -2.480      290.372       47.688      133.231    84315.652     2274.152    17750.369        5.762        5.217      104.578      192.907        3.403      332.558        1.302      851.303
01/26/2021  17:26:00       95.626       92.552      -15.933      299.296       51.887      145.433    89578.268     2692.231    21150.684        6.567        5.671      133.080      204.442        2.360      332.472        1.159      851.261
01/26/2021  17:27:00       81.318       94.350      -10.232      178.543       37.055       87.226    31877.658     1373.058     7608.375        2.823        2.043      124.557      120.443        0.935      332.390        1.024      851.240
01/26/2021  17:28:00       30.802       59.689        3.511       42.544       42.261       24.328     1810.032     1785.956      591.828        0.435        0.209       67.168       22.256        0.110      332.437        1.100      851.247
01/26/2021  17:29:00       55.618       55.571       -8.679      325.901       53.322      154.877   106211.729     2843.207    23986.974        6.962        6.652       78.623      220.028        7.832      332.575        1.331      851.241
01/26/2021  17:30:00       13.304       47.012       13.020      124.728       46.013       63.499    15557.081     2117.184     4032.101        1.213        1.085       48.858       81.610        2.790      332.305        0.882      851.216
01/26/2021  17:31:00       42.277       68.665      -10.659      256.970       46.178      124.185    66033.470     2132.378    15421.904        4.508        4.179       80.636      174.329        4.674      332.380        1.007      851.181
01/26/2021  17:32:00       33.472       68.545        6.356       38.001       48.250       29.391     1444.053     2328.084      863.848        0.525        0.232       76.281       21.877        0.082      332.260        0.807      851.131
01/26/2021  17:33:00       35.900       24.456        9.994      180.246       45.154       89.467    32488.719     2038.885     8004.298        2.225        2.127       43.438      120.975        7.756      332.395        1.031      851.083
01/26/2021  17:34:00       74.570       38.828      -27.857      361.182       48.309      176.182   130452.521     2333.713    31040.075        8.580        8.191       84.073      249.000        8.772      332.516        1.234      851.075
01/26/2021  17:35:00        6.882        9.319        5.173      165.544       46.681       80.858    27404.797     2179.079     6538.039        1.813        1.806       11.585      110.433       90.871      332.425        1.078      851.064
01/26/2021  17:36:00       22.605       51.947       -1.297      301.299       47.101      142.876    90780.956     2218.531    20413.674        5.829        5.671       56.652      203.564       12.912      332.509        1.220      851.067
01/26/2021  17:37:00       16.215       22.804       -7.136      282.174       43.519      133.998    79621.920     1893.865    17955.335        5.013        4.974       27.982      191.473       46.824      332.542        1.275      851.073
01/26/2021  17:38:00       15.207       54.490      -12.522      359.974       48.742      175.151   129581.303     2375.746    30677.907        8.296        8.132       56.572      247.721       19.174      332.567        1.317      851.090
01/26/2021  17:39:00      -42.582       67.466        9.695       31.282       51.342       29.802      978.539     2635.993      888.168        0.548        0.225       79.780       40.690        0.260      332.388        1.016      851.088
01/26/2021  17:40:00       -9.895       48.755       -4.563      264.567       40.406      127.272    69995.825     1632.626    16198.132        4.514        4.391       49.749      179.791       13.061      332.493        1.193      851.077
01/26/2021  17:41:00       25.215       51.954        0.140      232.786       51.618      114.578    54189.544     2664.402    13128.058        3.664        3.499       57.750      158.228        7.507      332.345        0.948      851.050
01/26/2021  17:42:00       45.667       36.473       -1.466      268.051       49.553      131.082    71851.416     2455.491    17182.613        4.743        4.574       58.444      184.200        9.934      332.299        0.873      851.018
01/26/2021  17:43:00       54.954       73.851      -10.761      333.666       44.876      153.385   111333.181     2013.817    23526.875        7.270        6.844       92.054      223.456        5.893      332.455        1.132      851.021
01/26/2021  17:44:00       12.368       20.665       10.450       90.710       43.140       49.097     8228.214     1861.092     2410.533        0.659        0.625       24.083       57.746        5.749      332.265        0.817      851.051
01/26/2021  17:45:00       21.698      -15.950      -12.411      306.913       47.956      147.815    94195.829     2299.782    21849.138        5.959        5.917       26.930      208.878       60.161      332.555        1.298      851.085
01/26/2021  17:46:00      -13.153      -13.180        0.470       29.815       44.370       25.886      888.915     1968.725      670.096        0.194        0.176       18.620       35.478        3.630      332.404        1.045      851.108
01/26/2021  17:47:00       28.785      -11.152       -6.966      239.748       43.892      116.830    57479.186     1926.541    13649.296        3.701        3.653       30.870      162.988       27.877      332.526        1.246      851.099
01/26/2021  17:48:00       43.286       40.473       -1.961      278.189       51.274      136.774    77389.213     2629.017    18707.233        5.110        4.936       59.260      190.940       10.382      332.431        1.091      851.049
01/26/2021  17:49:00       73.668       70.599       -4.022      233.582       38.589      110.806    54560.403     1489.125    12277.887        3.936        3.416      102.036      157.529        2.384      332.155        0.635      851.001
01/26/2021  17:50:00      129.776       44.832      -16.916      418.143       49.116      198.248   174843.179     2412.361    39302.119       11.780       10.828      137.302      284.922        4.306      332.269        0.829      850.986
01/26/2021  17:51:00      114.121       44.705        1.319      280.562       54.676      139.041    78715.261     2989.454    19332.277        5.801        5.052      122.565      192.955        2.478      332.148        0.624      850.988
01/26/2021  17:52:00       86.810       32.622       -1.629      219.638       45.509      107.282    48241.039     2071.083    11509.469        3.520        3.091       92.737      149.474        2.598      332.094        0.535      850.973
01/26/2021  17:53:00      112.535       17.488       -8.545      324.188       51.584      148.680   105097.744     2660.889    22105.601        7.143        6.493      113.886      215.758        3.589      332.306        0.886      850.957
01/26/2021  17:54:00       85.067       33.530      -38.558      395.387       63.045      192.290   156330.612     3974.659    36975.598       10.352        9.864       91.436      272.705        8.895      332.620        1.407      850.914
01/26/2021  17:55:00      139.764       38.543      -24.301      372.140       68.115      177.836   138488.173     4639.717    31625.569        9.814        8.738      144.981      253.261        3.052      332.537        1.267      850.890
01/26/2021  17:56:00      148.837       21.289      -43.515      495.187       71.488      233.183   245210.293     5110.572    54374.313       16.453       15.235      150.352      336.647        5.013      332.638        1.438      850.887
01/26/2021  17:57:00      144.051       58.430      -25.954      311.512       50.579      146.510    97039.798     2558.191    21465.313        7.292        6.053      155.450      210.421        1.832      332.189        0.693      850.887
01/26/2021  17:58:00       90.943       32.123      -10.914      272.561       51.229      134.227    74289.662     2624.419    18016.844        5.216        4.747       96.450      187.474        3.778      332.204        0.716      850.886
01/26/2021  17:59:00       59.691       10.980        3.664      199.978       58.374       99.933    39991.015     3407.466     9986.689        2.853        2.669       60.692      136.118        5.030      332.189        0.691      850.892
01/26/2021  18:00:00      139.628       20.619      -20.377      413.287       55.089      196.709   170806.435     3034.768    38694.303       11.639       10.627      141.142      281.689        3.983      332.477        1.171      850.884
01/26/2021  18:01:00      112.725       28.720      -16.443      264.222       49.597      120.779    69813.343     2459.885    14587.456        5.031        4.343      116.326      173.821        2.233      332.383        1.011      850.890
01/26/2021  18:02:00      179.768       27.365      -38.386      483.656       58.966      229.870   233923.197     3477.001    52840.181       16.233       14.512      181.839      330.615        3.306      332.595        1.369      850.906
01/26/2021  18:03:00       95.637       54.769      -22.708      378.378       47.417      183.765   143169.734     2248.355    33769.582        9.589        8.959      110.209      260.770        5.599      332.405        1.051      850.912
01/26/2021  18:04:00       55.307       -6.772       -7.512      273.874       50.965      130.093    75007.182     2597.390    16924.244        4.882        4.726       55.720      185.021       11.026      332.344        0.948      850.934
01/26/2021  18:05:00      107.383      -60.917      -15.360      298.737       66.545      145.912    89243.555     4428.278    21290.204        6.520        5.748      123.458      204.670        2.748      332.567        1.317      850.924
01/26/2021  18:06:00      156.771      -79.936      -47.103      385.567       61.751      183.633   148662.022     3813.142    33721.164       10.965        9.310      175.974      263.991        2.251      332.691        1.524      850.917
01/26/2021  18:07:00       95.601        6.396      -35.688      338.567       52.461      163.585   114627.939     2752.175    26759.948        7.727        7.207       95.814      231.571        5.841      332.723        1.575      850.934
01/26/2021  18:08:00       53.788       14.427      -16.920      253.543       57.010      114.171    64284.205     3250.093    13035.041        4.196        4.028       55.689      165.947        8.880      332.377        1.003      850.941
01/26/2021  18:09:00       32.285      -50.635      -18.129      272.268       60.191      130.558    74129.911     3622.989    17045.471        4.935        4.740       60.052      182.587        9.245      332.350        0.959      850.932
01/26/2021  18:10:00      -37.342      -18.818        9.169       38.060       51.026       30.804     1448.592     2603.688      948.912        0.342        0.250       41.816       35.931        0.738      332.324        0.913      850.916
01/26/2021  18:11:00       13.063      -10.415      -13.262      360.284       42.665      171.780   129804.532     1820.310    29508.473        8.076        8.057       16.707      245.657      216.202      332.520        1.240      850.913
01/26/2021  18:12:00       -8.363        1.247       -9.998      321.317       44.669      155.072   103244.415     1995.298    24047.321        6.470        6.464        8.455      218.455      667.513      332.418        1.072      850.884
01/26/2021  18:13:00        2.442       -8.328      -28.934      451.388       41.388      213.814   203751.218     1712.938    45716.464       12.599       12.559        8.678      307.953     1259.220      332.567        1.322      850.871
01/26/2021  18:14:00       12.802        0.588        0.380      221.375       45.229      106.614    49006.732     2045.625    11366.622        3.128        3.121       12.815      149.137      135.430      332.384        1.013      850.876
01/26/2021  18:15:00       -7.249       -5.248      -16.936      319.959       42.136      153.279   102373.950     1775.454    23494.484        6.398        6.382        8.949      216.633      585.966      332.424        1.081      850.877
01/26/2021  18:16:00       14.943      -26.840       -3.049      312.810       40.458      150.812    97850.193     1636.825    22744.352        6.157        6.112       30.720      212.638       47.912      332.485        1.182      850.831
01/26/2021  18:17:00       55.293       -3.938      -15.346      414.062       40.512      201.224   171447.182     1641.242    40490.961       10.840       10.679       55.433      285.696       26.563      332.580        1.341      850.797
01/26/2021  18:18:00        6.576        5.120        6.714      308.169       41.395      152.455    94967.907     1713.543    23242.423        5.999        5.996        8.334      212.149      648.009      332.407        1.053      850.805
01/26/2021  18:19:00      -71.983      -32.370      -19.925      348.293       44.199      165.730   121308.296     1953.513    27466.402        7.864        7.536       78.926      233.871        8.780      332.469        1.155      850.814
01/26/2021  18:20:00       19.726      -32.977      -30.022      487.861       60.879      237.074   238008.111     3706.280    56204.271       15.008       14.896       38.427      336.067       76.487      332.758        1.637      850.786
01/26/2021  18:21:00      -84.895     -120.488      -12.035      323.152      113.385      174.523   104427.016    12856.144    30458.260        8.477        7.387      147.392      214.660        2.121      332.581        1.339      850.787
01/26/2021  18:22:00        0.368      -75.165      -17.776      414.134      138.816      197.919   171506.727    19269.957    39172.013       11.791       11.497       75.166      265.668       12.492      332.714        1.559      850.752
01/26/2021  18:23:00      -58.767     -157.945      -68.464      412.075      118.866      187.198   169805.758    14129.111    35043.195       12.599       10.949      168.523      260.516        2.390      332.843        1.771      850.779
01/26/2021  18:24:00        7.489     -191.088      -51.006      414.180      156.266      201.789   171545.290    24418.992    40718.850       13.788       11.834      191.235      274.355        2.058      332.895        1.859      850.765
01/26/2021  18:25:00     -124.055     -117.152      -17.549      291.913      130.001      130.792    85213.026    16900.263    17106.673        7.430        5.961      170.629      177.149        1.078      332.762        1.635      850.776
01/26/2021  18:26:00     -199.664      -66.566      -20.881      274.334       86.540      131.103    75259.186     7489.097    17188.023        7.231        4.997      210.468      156.166        0.551      332.454        1.124      850.734
01/26/2021  18:27:00     -179.912      -25.446      -27.215      297.819       62.812      148.697    88696.251     3945.303    22110.766        7.423        5.738      181.702      198.977        1.199      332.467        1.149      850.729
01/26/2021  18:28:00     -111.248      -11.334      -17.742      305.341       65.123      143.049    93232.845     4240.971    20463.040        6.535        5.897      111.824      192.830        2.974      332.424        1.079      850.709
01/26/2021  18:29:00      -69.470      -42.844      -28.269      351.174       73.503      169.058   123323.517     5402.739    28580.761        8.235        7.865       81.619      235.899        8.353      332.517        1.234      850.707
01/26/2021  18:30:00      -22.997      -57.550      -40.516      434.367       66.697      205.549   188674.374     4448.519    42250.233       12.038       11.769       61.974      294.472       22.577      332.663        1.478      850.731
01/26/2021  18:31:00       15.097        3.905       -1.327      258.251       53.842      123.843    66693.731     2898.928    15337.009        4.257        4.246       15.594      171.878      121.490      332.490        1.190      850.705
01/26/2021  18:32:00       40.687      -24.261      -11.159      237.672       65.801      115.946    56488.195     4329.754    13443.435        3.830        3.713       47.371      158.926       11.255      332.629        1.417      850.705
01/26/2021  18:33:00       30.389      -13.159       -1.749      341.003       60.074      164.077   116283.127     3608.945    26921.099        7.393        7.341       33.116      232.761       49.402      332.735        1.596      850.694
01/26/2021  18:34:00       13.973      -12.908      -24.359      378.335       57.827      179.154   143137.064     3343.909    32096.318        8.973        8.929       19.022      255.089      179.830      332.724        1.579      850.686
01/26/2021  18:35:00      -13.704      -49.270      -13.243      401.247       53.965      192.616   160999.341     2912.202    37100.952       10.186       10.051       51.141      269.951       27.863      332.677        1.500      850.691
01/26/2021  18:36:00       16.638      -44.394      -24.847      327.156       73.467      158.040   107031.035     5397.362    24976.589        7.011        6.870       47.409      220.933       21.717      332.721        1.572      850.726
01/26/2021  18:37:00       52.075      -87.845      -18.202      315.802       70.431      151.512    99730.984     4960.561    22955.992        6.918        6.382      102.120      210.230        4.238      332.798        1.699      850.728
01/26/2021  18:38:00       31.599     -142.203      -57.931      486.188      133.626      234.444   236378.994    17856.031    54963.965       16.682       15.460      145.671      328.654        5.090      332.901        1.871      850.762
01/26/2021  18:39:00      113.518     -228.346      -54.309      386.348      128.710      198.429   149265.073    16566.154    39374.176       13.655       10.260      255.006      261.882        1.055      332.754        1.624      850.737
01/26/2021  18:40:00      -16.133      -55.975      -34.887      284.700       94.524      126.993    81054.112     8934.763    16127.292        5.534        5.306       58.254      178.506        9.390      332.622        1.407      850.720
01/26/2021  18:41:00       -8.657      -46.166        2.008      185.076       59.274       96.332    34253.001     3513.453     9279.890        2.462        2.352       46.971      120.926        6.628      332.549        1.285      850.710
01/26/2021  18:42:00       34.803      -37.185      -29.987      401.271       65.877      190.805   161018.677     4339.799    36406.387       10.259       10.088       50.931      270.259       28.157      332.697        1.533      850.799
01/26/2021  18:43:00      -39.537      -38.553       -8.749      105.500       79.509       51.222    11130.255     6321.727     2623.691        1.160        1.004       55.222       45.260        0.672      332.572        1.322      850.822
01/26/2021  18:44:00      -19.730     -155.235      -13.110      233.331      145.052      110.927    54443.145    21040.089    12304.783        5.620        4.389      156.484      135.955        0.755      332.538        1.266      850.793
01/26/2021  18:45:00      104.792     -105.767      -62.902      480.884      106.660      237.458   231249.126    11376.302    56386.178       16.251       14.951      148.889      329.035        4.884      332.786        1.682      850.781
01/26/2021  18:46:00      -45.211     -220.973      -59.659      386.787      133.208      180.866   149603.974    17744.311    32712.587       12.720       10.003      225.550      250.307        1.232      332.598        1.366      850.788
01/26/2021  18:47:00       12.939      -84.145      -26.555      356.066       88.401      174.760   126783.081     7814.818    30541.085        8.651        8.257       85.134      238.370        7.840      332.615        1.395      850.813
01/26/2021  18:48:00      123.618     -188.810      -40.571      350.200      152.453      164.829   122639.868    23241.928    27168.507       11.278        8.653      225.678      226.377        1.006      332.531        1.255      850.828
01/26/2021  18:49:00       88.829     -196.954      -50.758      322.131      104.047      160.421   103768.095    10825.804    25734.894        9.476        7.016      216.059      214.830        0.989      332.533        1.258      850.811
01/26/2021  18:50:00       87.029     -136.790      -23.353      226.332       88.290      101.504    51226.145     7795.203    10302.984        4.806        3.466      162.128      133.111        0.674      332.400        1.035      850.826
01/26/2021  18:51:00       28.235      -24.387      -17.212      267.825       96.236      124.390    71730.404     9261.367    15472.856        4.906        4.823       37.309      172.967       21.493      332.460        1.139      850.821
01/26/2021  18:52:00       25.194      -57.363      -18.352      259.046      113.990      128.627    67104.624    12993.719    16544.945        5.043        4.832       62.652      171.388        7.483      332.364        0.978      850.812
01/26/2021  18:53:00       58.339     -143.570      -29.287      321.477      117.812      146.567   103347.451    13879.723    21481.744        8.176        6.935      154.970      204.221        1.737      332.402        1.042      850.796
01/26/2021  18:54:00       73.029     -148.444      -51.063      415.309      104.598      199.360   172481.237    10940.658    39744.219       12.652       11.158      165.436      274.669        2.757      332.517        1.237      850.801
01/26/2021  18:55:00       23.698     -239.794      -52.283      449.892      144.761      219.627   202402.993    20955.652    48235.911       16.614       13.580      240.962      297.939        1.529      332.574        1.331      850.800
01/26/2021  18:56:00        6.048     -203.293      -48.793      252.825      121.759      120.477    63920.572    14825.243    14514.814        6.848        4.663      203.383      133.036        0.428      332.220        0.740      850.802
01/26/2021  18:57:00      -11.740     -214.492      -32.090      315.798      146.640      158.557    99728.550    21503.292    25140.303        9.674        7.319      214.813      196.623        0.838      332.378        1.002      850.830
01/26/2021  18:58:00       56.534     -302.395      -69.384      505.071      186.990      227.510   255096.732    34965.293    51760.911       22.056       17.091      307.634      314.525        1.045      332.535        1.265      850.785
01/26/2021  18:59:00       90.048     -141.570      -33.477      228.847      119.470      111.072    52371.020    14273.103    12336.895        5.411        3.949      167.782      146.472        0.762      332.355        0.962      850.780
01/26/2021  19:00:00       32.565     -108.647      -41.869      406.099       95.817      192.207   164916.545     9180.898    36943.547       11.278       10.552      113.423      271.999        5.751      332.553        1.295      850.771
01/26/2021  19:01:00     -112.290     -149.376      -35.120      241.270      132.444      120.662    58211.420    17541.483    14559.199        6.321        4.516      186.875      149.569        0.641      332.247        0.785      850.764
01/26/2021  19:02:00      101.516      -84.250      -34.099      461.367      102.701      222.083   212859.127    10547.454    49320.786       14.559       13.636      131.923      313.146        5.634      332.530        1.258      850.713
01/26/2021  19:03:00      100.464     -129.496      -45.155      446.161       95.397      207.592   199059.443     9100.658    43094.296       14.003       12.563      163.897      294.760        3.234      332.390        1.024      850.631
01/26/2021  19:04:00       29.666      -49.447      -25.183      283.109       80.564      145.503    80150.703     6490.487    21171.062        5.586        5.391       57.663      193.140       11.219      332.275        0.834      850.648
01/26/2021  19:05:00       19.923     -297.652      -40.473      328.626      159.612      159.647   107995.370    25475.895    25487.116       12.476        7.948      298.318      199.242        0.446      332.372        0.991      850.677
01/26/2021  19:06:00       77.553     -211.380      -62.732      333.423      109.629      164.055   111171.116    12018.501    26913.968       10.233        7.505      225.158      220.012        0.955      332.328        0.919      850.646
01/26/2021  19:07:00       26.579     -219.805      -61.217      500.296      109.268      235.535   250295.765    11939.465    55476.930       18.517       15.886      221.406      331.921        2.247      332.520        1.241      850.598
01/26/2021  19:08:00       33.808     -158.825      -45.749      339.717       90.536      153.888   115407.647     8196.778    23681.382        8.784        7.364      162.383      215.002        1.753      332.324        0.914      850.561
01/26/2021  19:09:00       20.479     -103.823      -52.737      429.085       73.995      204.189   184113.715     5475.299    41693.185       12.258       11.564      105.824      288.694        7.442      332.410        1.059      850.551
01/26/2021  19:10:00       60.073     -104.201      -33.644      261.725      111.805      127.369    68499.950    12500.350    16222.755        5.639        4.861      120.277      166.676        1.920      332.350        0.955      850.537
01/26/2021  19:11:00        6.289     -115.105      -23.443      349.208       83.227      167.373   121946.568     6926.651    28013.732        8.533        7.844      115.277      235.152        4.161      332.347        0.953      850.469
01/26/2021  19:12:00       11.731     -110.108      -26.897      219.913       96.392      109.398    48361.845     9291.500    11967.894        4.129        3.481      110.731      139.924        1.597      332.253        0.796      850.500
01/26/2021  19:13:00      130.689     -128.097      -47.835      408.883       90.856      197.298   167185.405     8254.804    38926.455       12.503       10.718      182.999      277.819        2.305      332.411        1.059      850.531
01/26/2021  19:14:00       89.416     -146.033      -52.684      404.650       80.584      190.914   163741.992     6493.852    36447.968       11.935       10.334      171.233      269.413        2.475      332.391        1.026      850.505
01/26/2021  19:15:00        0.368      -35.610      -29.855      381.976       77.105      177.976   145905.973     5945.150    31675.484        9.280        9.176       35.612      254.809       51.197      332.333        0.933      850.555
01/26/2021  19:16:00      -51.401     -188.738      -35.139      377.552      167.499      174.881   142545.262    28055.906    30583.256       12.030       10.059      195.612      243.464        1.549      332.330        0.923      850.544
01/26/2021  19:17:00      115.617      -84.863      -48.660      429.396      128.995      204.445   184380.684    16639.836    41797.791       13.283       12.141      143.419      287.606        4.021      332.349        0.957      850.539
01/26/2021  19:18:00       22.643     -198.984      -31.424      210.735      112.654      115.307    44409.424    12690.932    13295.654        5.573        3.520      200.268      130.027        0.422      332.252        0.793      850.535
01/26/2021  19:19:00      154.203     -308.558      -31.620      367.010      190.495      180.232   134696.194    36288.188    32483.579       16.168       10.173      344.944      248.574        0.519      332.234        0.766      850.537
01/26/2021  19:20:00      121.000     -144.055      -54.868      413.979      128.331      200.273   171378.686    16468.743    40109.188       13.313       11.398      188.130      277.222        2.171      332.392        1.028      850.494
01/26/2021  19:21:00      189.519     -174.717      -75.465      458.433       78.068      214.796   210160.369     6094.680    46137.293       16.721       13.120      257.767      308.431        1.432      332.270        0.828      850.449
01/26/2021  19:22:00       85.021     -127.498      -27.847      329.032       89.402      159.998   108261.949     7992.648    25599.491        8.303        7.093      153.246      217.939        2.023      332.332        0.928      850.469
01/26/2021  19:23:00      -23.947      -34.073      -11.173      335.541       82.200      163.423   112587.985     6756.813    26707.045        7.392        7.303       41.646      225.010       29.191      332.241        0.778      850.450
01/26/2021  19:24:00      156.171     -221.105      -43.754      250.570      110.983      122.788    62785.320    12317.161    15076.827        8.267        4.509      270.697      162.933        0.362      332.184        0.680      850.353
01/26/2021  19:25:00      150.059     -281.023      -31.277      266.398      106.526      129.592    70967.932    11347.735    16794.158       10.077        4.955      318.577      174.824        0.301      332.141        0.609      850.325
01/26/2021  19:26:00      124.833     -209.966      -48.458      279.330      115.547      124.031    78025.202    13351.146    15383.641        8.437        5.338      244.273      171.895        0.495      332.068        0.490      850.362
01/26/2021  19:27:00       40.707      -82.939      -24.536      258.440       80.802      132.373    66791.401     6529.018    17522.516        4.997        4.542       92.390      173.216        3.515      332.251        0.794      850.330
01/26/2021  19:28:00      155.081     -129.761      -36.809      454.006      108.180      222.871   206120.997    11702.917    49671.536       15.481       13.375      202.208      309.835        2.348      332.471        1.160      850.242
01/26/2021  19:29:00      154.721     -107.154      -41.515      394.166       81.461      192.761   155366.576     6635.848    37156.748       11.811        9.958      188.203      270.510        2.066      332.294        0.867      850.249
01/26/2021  19:30:00       36.889      -72.151      -19.198      294.280      127.387      143.066    86600.543    16227.455    20467.904        6.509        6.165       81.034      192.166        5.624      332.186        0.686      850.244
01/26/2021  19:31:00       58.861      -24.121        8.060      159.100       65.383       87.361    25312.668     4274.916     7632.004        2.066        1.861       63.612      110.430        3.014      332.051        0.463      850.253
01/26/2021  19:32:00       40.604      -56.602      -35.793      400.225       71.276      192.019   160180.067     5080.255    36871.412       10.409       10.107       69.660      268.388       14.844      332.380        1.011      850.277
01/26/2021  19:33:00      114.670      -20.992      -29.143      306.426      106.872      155.634    93897.076    11421.707    24222.060        7.196        6.477      116.576      213.352        3.349      332.321        0.910      850.148
01/26/2021  19:34:00      128.754      -48.631      -42.355      259.556       78.088      134.285    67369.572     6097.748    18032.402        5.610        4.575      137.632      181.090        1.731      332.082        0.517      850.050
01/26/2021  19:35:00       41.929      -10.854      -22.863      249.284       70.434      119.299    62142.336     4960.949    14232.360        4.185        4.067       43.311      166.052       14.699      332.237        0.771      850.107
01/26/2021  19:36:00       63.071      -80.604      -17.549      195.652       47.952       96.709    38279.626     2299.352     9352.588        3.035        2.497      102.347      131.846        1.660      332.086        0.521      850.192
01/26/2021  19:37:00      141.139      -16.044      -34.547      307.747       77.067      155.821    94708.272     5939.366    24280.125        7.312        6.246      142.047      213.065        2.250      332.168        0.658      850.142
01/26/2021  19:38:00      142.328      -48.418      -31.034      392.493       79.637      189.000   154051.020     6342.100    35721.065       10.980        9.806      150.338      267.903        3.176      332.231        0.763      849.983
01/26/2021  19:39:00      132.433      -26.500      -52.406      493.274       64.078      236.283   243318.896     4105.962    55829.541       16.206       15.163      135.058      338.166        6.269      332.399        1.044      849.977
01/26/2021  19:40:00       46.794      -15.321      -20.412      339.526       45.488      166.801   115277.833     2069.131    27822.427        7.397        7.258       49.238      233.952       22.576      332.227        0.757      850.132
01/26/2021  19:41:00        2.126      -24.178      -21.536      366.608       46.916      179.488   134401.454     2201.121    32215.803        8.490        8.441       24.271      250.523      106.540      332.235        0.771      850.111
01/26/2021  19:42:00       18.749      -55.495      -15.874      219.708       53.626      109.434    48271.403     2875.735    11975.872        3.339        3.156       58.577      146.763        6.277      332.246        0.786      850.033
01/26/2021  19:43:00      111.447     -201.973      -44.236      234.466      105.475      108.880    54974.380    11124.963    11854.846        6.655        3.898      230.680      138.091        0.358      332.099        0.540      849.990
01/26/2021  19:44:00      146.764     -153.728      -47.919      338.316      126.073      160.622   114457.491    15894.457    25799.487       10.178        7.808      212.537      221.459        1.086      332.250        0.791      849.960
01/26/2021  19:45:00      172.436      -83.892      -70.658      322.615      133.618      167.428   104080.211    17853.686    28032.003        9.583        7.498      191.760      215.885        1.267      332.160        0.643      849.867
01/26/2021  19:46:00      201.632     -289.820      -66.147      220.689      162.617      112.995    48703.709    26444.422    12767.916       10.845        4.396      353.059      138.471        0.154      332.026        0.418      849.739
01/26/2021  19:47:00       65.335     -123.443      -22.732      360.331       98.497      160.210   129838.268     9701.612    25667.159        9.258        8.260      139.667      226.190        2.623      332.194        0.700      849.792
01/26/2021  19:48:00      -83.740     -216.114      -52.463      343.624      157.820      165.804   118077.505    24907.089    27490.869       11.344        8.524      231.771      217.889        0.884      332.201        0.710      849.955
01/26/2021  19:49:00       64.340      -35.294      -36.688      383.317       76.692      184.669   146931.863     5881.592    34102.771        9.678        9.346       73.384      259.255       12.481      332.313        0.900      849.852
01/26/2021  19:50:00      108.657      -46.607      -30.449      304.660       92.904      148.870    92817.457     8631.189    22162.397        6.923        6.181      118.231      207.551        3.082      332.234        0.766      849.667
01/26/2021  19:51:00       10.100      -67.688      -33.980      306.595       70.084      145.389    94000.200     4911.774    21137.873        6.292        6.002       68.437      201.515        8.670      332.189        0.693      849.777
01/26/2021  19:52:00       94.708      -56.216      -25.408      344.820       89.702      159.148   118901.050     8046.440    25327.931        8.249        7.614      110.135      226.940        4.246      332.222        0.748      849.753
01/26/2021  19:53:00      105.974      -90.312      -28.024      351.971       94.092      168.614   123883.350     8853.361    28430.614        9.064        8.058      139.236      236.305        2.880      332.140        0.610      849.625
01/26/2021  19:54:00       20.125      -47.505      -18.920      279.539       78.253      138.891    78142.049     6123.473    19290.720        5.327        5.178       51.592      187.853       13.258      332.101        0.547      849.740
01/26/2021  19:55:00        0.769     -133.824      -36.722      329.066       88.242      155.350   108284.177     7786.569    24133.699        7.970        7.010      133.826      213.876        2.554      332.257        0.805      849.712
01/26/2021  19:56:00      163.872     -102.806      -51.748      389.627      106.719      182.214   151809.484    11388.871    33201.940       11.821        9.820      193.451      262.243        1.838      332.094        0.536      849.520
01/26/2021  19:57:00       22.580     -113.323      -31.719      298.629       78.933      147.434    89179.298     6230.449    21736.898        6.573        5.857      115.551      200.055        2.997      332.142        0.615      849.612
01/26/2021  19:58:00      -13.440      -99.338      -16.581      188.154       76.465       96.021    35402.003     5846.867     9219.980        3.039        2.523      100.243      116.865        1.359      332.222        0.746      849.694
01/26/2021  19:59:00       55.073      -60.397      -33.770      318.883       53.796      151.594   101686.324     2893.974    22980.703        6.766        6.378       81.736      213.855        6.846      332.210        0.728      849.578
01/26/2021  20:00:00       13.430      -76.899      -28.378      415.554       84.925      201.610   172684.856     7212.234    40646.600       11.368       11.027       78.063      284.743       13.305      332.369        0.993      849.547
01/26/2021  20:01:00       81.894      -41.563      -50.928      435.722      104.206      199.846   189853.765    10858.962    39938.398       12.579       12.033       91.838      291.142       10.050      332.320        0.911      849.524
01/26/2021  20:02:00      -87.637      -79.766      -12.916      257.310      123.598      132.784    66208.580    15276.421    17631.655        5.664        4.956      118.503      169.363        2.043      331.999        0.377      849.498
01/26/2021  20:03:00        1.916     -127.225      -27.908      261.392      116.109      127.065    68325.978    13481.185    16145.544        5.744        4.898      127.239      173.211        1.853      332.306        0.884      849.594
01/26/2021  20:04:00       36.537       24.554      -15.544      391.649       65.470      183.927   153389.294     4286.318    33829.016        9.680        9.575       44.021      260.345       34.977      332.200        0.714      849.636
01/26/2021  20:05:00      141.350      -89.989      -40.973      395.260      119.910      182.469   156230.802    14378.441    33294.945       11.679       10.195      167.564      262.281        2.450      332.216        0.738      849.560
01/26/2021  20:06:00       61.034      -34.440      -24.771      256.900       92.193      127.008    65997.474     8499.618    16130.960        4.806        4.531       70.080      169.994        5.884      332.087        0.524      849.442
01/26/2021  20:07:00       81.652       -3.325      -11.439      501.557       45.554      229.007   251559.219     2075.160    52443.999       15.638       15.304       81.719      335.307       16.836      332.325        0.922      849.435
01/26/2021  20:08:00      -35.764      -27.598       -6.053      292.708       76.497      145.002    85678.249     5851.813    21025.634        5.729        5.628       45.174      192.853       18.225      332.022        0.416      849.508
01/26/2021  20:09:00        2.996      -31.856      -19.368      214.833       54.351      105.450    46153.216     2954.042    11119.701        3.080        3.011       31.997      144.251       20.325      332.063        0.483      849.487
01/26/2021  20:10:00      -10.640       24.425       -9.033      299.241       47.688      140.684    89545.452     2274.178    19791.877        5.618        5.581       26.642      198.533       55.531      331.948        0.295      849.375
01/26/2021  20:11:00       10.043       12.232      -18.645      383.574       53.215      182.454   147128.695     2831.833    33289.451        9.189        9.162       15.826      260.546      271.026      332.084        0.522      849.363
01/26/2021  20:12:00     -140.288      -15.674        4.484      199.978       71.161       99.665    39991.161     5063.945     9933.119        3.746        2.749      141.161      112.620        0.637      331.926        0.255      849.472
01/26/2021  20:13:00      -52.857      -52.902      -13.051       76.396       68.572       38.745     5836.373     4702.112     1501.163        0.890        0.602       74.783       35.439        0.225      332.047        0.455      849.476
01/26/2021  20:14:00      103.946      -38.988      -51.012      315.535       85.464      153.243    99562.454     7304.042    23483.342        7.261        6.517      111.017      215.661        3.774      332.230        0.761      849.394
01/26/2021  20:15:00      126.591     -128.555      -37.614      302.441       89.256      144.644    91470.397     7966.613    20921.991        7.714        6.018      180.420      201.391        1.246      332.063        0.483      849.313
01/26/2021  20:16:00       74.697      -18.087      -49.068      488.340       82.747      233.431   238475.886     6847.032    54490.067       15.400       14.991       76.855      334.870       18.985      332.381        1.013      849.366
01/26/2021  20:17:00       62.437      -63.999      -25.931      409.310       79.515      198.442   167534.284     6322.652    39379.154       11.091       10.662       89.410      276.104        9.536      332.430        1.094      849.378
01/26/2021  20:18:00       11.118      -49.821      -21.298      232.850       77.741      113.890    54219.270     6043.600    12970.934        3.813        3.662       51.046      155.039        9.225      332.204        0.717      849.399
01/26/2021  20:19:00       85.153     -169.157      -52.386      435.308      101.236      205.277   189492.830    10248.755    42138.799       14.019       12.094      189.381      289.829        2.342      332.443        1.113      849.367
01/26/2021  20:20:00      163.728     -136.846      -44.980      395.225       68.143      190.570   156203.009     4643.516    36316.946       12.232        9.858      213.386      270.783        1.610      332.421        1.077      849.328
01/26/2021  20:21:00       70.229      -94.245      -25.607      283.161       78.719      138.561    80180.325     6196.736    19199.049        6.000        5.279      117.534      187.167        2.536      332.271        0.827      849.227
01/26/2021  20:22:00      105.620      -36.994      -46.315      512.878       68.543      247.108   263043.541     4698.177    61062.525       17.167       16.440      111.912      352.865        9.942      332.552        1.298      849.233
01/26/2021  20:23:00      129.790     -110.561      -27.743      379.694       69.601      185.748   144167.167     4844.340    34502.408       10.664        9.176      170.497      260.767        2.339      332.469        1.155      849.315
01/26/2021  20:24:00       77.709      -50.524      -37.839      358.212       96.849      170.824   128315.513     9379.641    29180.949        8.841        8.344       92.689      240.022        6.706      332.239        0.777      849.280
01/26/2021  20:25:00      171.725     -209.315      -40.520      349.455      132.455      170.727   122118.800    17544.348    29147.724       12.184        8.441      270.744      238.763        0.778      332.222        0.746      849.194
01/26/2021  20:26:00       25.446       19.441      -29.967      364.485      110.340      170.009   132849.352    12175.022    28902.922        8.789        8.696       32.022      242.980       57.576      332.194        0.702      849.155
01/26/2021  20:27:00       29.300        9.423       -3.961      296.086       66.000      142.484    87666.829     4355.996    20301.716        5.662        5.616       30.778      199.971       42.215      332.281        0.844      849.146
01/26/2021  20:28:00      -30.022       14.249       -9.704      332.021       67.636      161.831   110237.722     4574.639    26189.181        7.107        7.050       33.232      222.539       44.844      332.246        0.788      849.202
01/26/2021  20:29:00       43.947      -73.725      -30.034      250.875       65.333      125.150    62938.395     4268.345    15662.549        4.555        4.143       85.830      169.846        3.916      332.413        1.061      849.203
01/26/2021  20:30:00       87.360      -91.824      -33.462      394.321       88.429      182.529   155488.908     7819.714    33316.777       10.686        9.831      126.741      259.827        4.203      332.459        1.141      849.121
01/26/2021  20:31:00       27.905      -54.943      -34.611      326.343       55.133      151.631   106499.922     3039.599    22992.036        6.874        6.627       61.624      217.604       12.469      332.421        1.075      849.105
01/26/2021  20:32:00      -21.252     -173.648      -33.395      338.899      141.822      162.616   114852.440    20113.456    26444.067        9.653        8.070      174.943      215.883        1.523      332.560        1.304      849.164
01/26/2021  20:33:00       26.183      -19.028      -31.325      160.252       95.642       78.379    25680.675     9147.406     6143.330        2.149        2.049       32.367      103.083       10.143      332.353        0.962      849.114
01/26/2021  20:34:00       -3.297     -145.289      -30.451      340.295      117.307      165.952   115800.471    13760.844    27540.031        8.954        7.855      145.326      224.431        2.385      332.527        1.250      849.047
01/26/2021  20:35:00      122.668      -92.053      -24.890      371.092       70.696      180.655   137709.569     4997.888    32636.209        9.970        8.767      153.366      254.442        2.752      332.450        1.124      849.057
01/26/2021  20:36:00       80.929       18.442       -2.868      239.434       46.814      116.782    57328.845     2191.556    13638.146        4.001        3.658       83.004      163.205        3.866      332.286        0.853      849.122
01/26/2021  20:37:00       64.067      -40.377      -11.536      325.737       58.412      137.224   106104.467     3411.960    18830.486        6.708        6.417       75.729      202.964        7.183      332.320        0.910      849.122
01/26/2021  20:38:00       63.784      -52.381      -39.439      396.678       82.119      193.139   157353.250     6743.560    37302.601       10.484       10.070       82.536      271.628       10.831      332.405        1.051      849.087
01/26/2021  20:39:00      111.569     -114.140      -36.124      153.266      137.110       82.493    23490.432    18799.037     6805.044        3.793        2.455      159.611       99.557        0.389      332.272        0.826      849.037
01/26/2021  20:40:00      117.408      -85.829      -23.986      335.822       77.409      163.039   112776.687     5992.130    26581.746        8.351        7.268      145.434      226.451        2.424      332.481        1.174      849.024
01/26/2021  20:41:00       97.717      -31.992      -25.337      421.655       55.223      204.550   177792.594     3049.564    41840.769       11.690       11.134      102.821      290.041        7.957      332.638        1.436      849.066
01/26/2021  20:42:00       90.866      -57.440      -31.324      354.905       77.152      167.778   125957.264     5952.446    28149.587        8.626        8.003      107.499      238.436        4.920      332.555        1.297      849.068
01/26/2021  20:43:00      160.790     -107.770      -40.913      364.259       98.226      181.421   132684.446     9648.270    32913.678       10.716        8.762      193.566      251.342        1.686      332.475        1.163      848.960
01/26/2021  20:44:00      148.791      -87.395      -42.934      393.473       58.301      187.433   154821.388     3399.028    35131.298       11.244        9.668      172.559      268.333        2.418      332.422        1.079      848.893
01/26/2021  20:45:00      164.100      -26.779      -54.329      567.725       65.391      266.494   322311.683     4276.013    71018.800       21.402       19.880      166.270      385.457        5.374      332.565        1.321      848.950
01/26/2021  20:46:00       92.671      -76.712      -24.129      317.986       60.936      157.853   101115.023     3713.181    24917.452        7.237        6.487      120.302      219.627        3.333      332.353        0.964      848.960
01/26/2021  20:47:00      127.051     -189.201      -23.805      273.570       98.080      138.023    74840.471     9619.602    19050.289        7.799        5.176      227.901      187.131        0.674      332.370        0.989      848.917
01/26/2021  20:48:00      134.618     -183.314      -43.904      306.561       87.975      142.294    93979.401     7739.580    20247.534        8.778        6.098      227.433      199.150        0.767      332.470        1.153      848.893
01/26/2021  20:49:00      223.449     -294.868      -64.212      349.414       64.974      171.003   122090.477     4221.617    29241.991       14.824        7.778      369.968      238.813        0.417      332.415        1.064      848.999
01/26/2021  20:50:00      133.568     -148.045      -70.914      411.514       93.340      191.607   169344.153     8712.394    36713.323       12.973       10.738      199.393      267.289        1.797      332.446        1.117      849.058
01/26/2021  20:51:00      247.931     -207.515      -71.713      460.193      144.484      223.683   211777.525    20875.759    50034.111       19.612       14.134      323.314      316.556        0.959      332.545        1.281      848.965
01/26/2021  20:52:00      181.645     -151.628      -48.701      399.703      170.005      187.671   159762.886    28901.560    35220.584       14.107       11.194      236.614      261.804        1.224      332.449        1.121      848.844
01/26/2021  20:53:00      136.113     -204.039      -37.286      122.751      148.153       67.561    15067.744    21949.429     4564.551        5.156        2.079      245.272       59.745        0.059      332.217        0.734      848.898
01/26/2021  20:54:00       45.619      -90.262      -10.688      286.374      116.953      128.996    82010.221    13678.033    16640.024        6.131        5.616      101.135      176.729        3.054      332.429        1.087      848.974
01/26/2021  20:55:00       95.916      -14.160      -47.033      331.369       83.028      160.726   109805.176     6893.690    25832.756        7.704        7.127       96.955      224.532        5.363      332.543        1.277      848.906
01/26/2021  20:56:00      268.129     -303.542      -84.503      334.865      122.533      167.981   112134.813    15014.268    28217.532       16.324        7.768      405.007      226.311        0.312      332.367        0.985      848.750
01/26/2021  20:57:00      176.863     -273.449      -54.071      146.691      127.378       68.219    21518.160    16225.194     4653.820        7.568        2.120      325.661       56.359        0.030      332.215        0.731      848.720
01/26/2021  20:58:00       34.009      -36.368      -36.174      359.896      102.862      175.862   129525.132    10580.653    30927.501        8.737        8.552       49.792      246.443       24.497      332.431        1.093      848.833
01/26/2021  20:59:00      120.048       25.031      -47.091      529.035       61.424      249.263   279878.510     3772.890    62132.088       18.145       17.289      122.630      359.303        8.585      332.625        1.419      848.779
01/26/2021  21:00:00      153.583     -159.689      -51.648      334.813      122.216      157.438   112099.882    14936.770    24786.647       10.176        7.591      221.559      219.260        0.979      332.470        1.154      848.648
01/26/2021  21:01:00      207.610     -304.522      -71.253      427.752      130.136      203.848   182971.499    16935.306    41554.099       19.114       12.073      368.559      281.274        0.582      332.501        1.207      848.717
01/26/2021  21:02:00       33.496     -123.428      -43.380      380.303      110.256      176.935   144630.014    12156.294    31305.930       10.313        9.405      127.892      245.497        3.685      332.527        1.252      848.800
01/26/2021  21:03:00      175.168     -175.872      -72.201      352.054      205.759      162.247   123941.712    42336.881    26323.954       12.967        9.630      248.224      227.476        0.840      332.407        1.051      848.683
01/26/2021  21:04:00      116.482     -161.282      -71.712      446.201      118.454      203.140   199095.033    14031.446    41266.009       14.950       12.720      198.947      290.363        2.130      332.498        1.202      848.591
01/26/2021  21:05:00        1.924      -92.526      -14.660      276.387       72.621      135.431    76389.857     5273.806    18341.516        5.437        5.000       92.546      184.493        3.974      332.498        1.203      848.752
01/26/2021  21:06:00       68.406      -70.061      -33.511      367.388      102.186      164.469   134973.897    10442.005    27050.008        9.155        8.623       97.918      238.400        5.928      332.733        1.591      848.906
01/26/2021  21:07:00      131.984     -100.637      -60.610      455.984       82.045      220.641   207921.284     6731.397    48682.557       14.722       13.167      165.975      311.677        3.526      332.878        1.834      848.885
01/26/2021  21:08:00      185.617     -169.361      -66.087      388.244      133.630      183.296   150733.587    17856.915    33597.425       13.480       10.109      251.271      257.955        1.054      332.570        1.322      848.811
01/26/2021  21:09:00      168.746     -243.455      -83.975      362.192      199.937      179.476   131183.343    39974.686    32211.608       14.904       10.168      296.219      241.753        0.666      332.482        1.174      848.647
01/26/2021  21:10:00       68.817      -59.463      -16.343      323.185       81.543      157.109   104448.640     6649.193    24683.194        7.213        6.789       90.948      218.483        5.771      332.576        1.331      848.536
01/26/2021  21:11:00       95.544      -69.615      -36.481      358.691       89.788      166.770   128659.214     8061.924    27812.247        8.988        8.227      118.215      232.311        3.862      332.519        1.238      848.635
01/26/2021  21:12:00       42.617     -117.229      -41.601      368.461       86.896      178.807   135763.630     7550.989    31972.084        9.625        8.764      124.735      247.542        3.938      332.705        1.545      848.742
01/26/2021  21:13:00       -4.206     -119.775      -11.333      305.177      119.872      145.417    93132.956    14369.398    21146.108        7.154        6.432      119.849      196.576        2.690      332.592        1.356      848.723
01/26/2021  21:14:00       14.978     -126.489      -33.853      314.891      121.976      136.163    99156.253    14878.069    18540.412        7.494        6.629      127.373      180.732        2.013      332.556        1.296      848.691
01/26/2021  21:15:00       38.737     -130.205      -36.874      281.969       84.578      124.669    79506.329     7153.447    15542.295        6.099        5.110      135.845      175.253        1.664      332.597        1.364      848.708
01/26/2021  21:16:00       63.560      -52.234      -59.648      469.197       94.713      229.708   220146.018     8970.616    52765.789       14.604       14.094       82.269      324.376       15.546      332.771        1.656      848.742
01/26/2021  21:17:00      -62.990     -182.629      -44.312      472.819      171.241      220.961   223557.525    29323.486    48823.841       17.043       15.085      193.187      300.352        2.417      332.733        1.593      848.749
01/26/2021  21:18:00      -50.291     -161.816      -28.535      365.590      143.384      181.672   133655.814    20558.853    33004.622       10.833        9.361      169.451      242.304        2.045      332.689        1.518      848.645
01/26/2021  21:19:00      -16.270      -10.246       -9.764      363.538       65.198      167.220   132159.741     4250.738    27962.378        8.238        8.219       19.227      236.923      151.837      332.549        1.287      848.648
01/26/2021  21:20:00       39.867     -101.059      -11.842      330.805      117.133      160.922   109431.942    13720.179    25895.951        8.046        7.452      108.639      217.930        4.024      332.714        1.558      848.671
01/26/2021  21:21:00       14.455      -81.400      -41.530      361.897       56.793      170.088   130969.408     3225.447    28930.002        8.581        8.156       82.674      240.830        8.486      332.710        1.554      848.625
01/26/2021  21:22:00       52.198       -5.713      -33.932      348.859       60.230      170.187   121702.609     3627.654    28963.512        7.907        7.715       52.510      238.697       20.664      332.725        1.578      848.606
01/26/2021  21:23:00      111.513     -217.324      -44.594      315.695      112.911      139.982    99663.622    12748.933    19595.049        9.680        6.600      244.264      197.456        0.653      332.641        1.435      848.639
01/26/2021  21:24:00       88.225     -121.486      -69.894      412.072      101.434      195.836   169803.193    10288.787    38351.625       12.289       10.922      150.141      277.334        3.412      332.677        1.499      848.574
01/26/2021  21:25:00       46.768      -82.786      -21.968      301.839       84.763      148.278    91106.612     7184.845    21986.511        6.488        6.014       95.083      204.678        4.634      332.641        1.438      848.568
01/26/2021  21:26:00      123.904     -190.562      -32.595      233.795       91.427      112.506    54660.222     8358.945    12657.618        6.419        3.784      227.302      148.993        0.430      332.540        1.267      848.553
01/26/2021  21:27:00      191.994     -178.345      -53.311      398.628       71.756      193.934   158903.957     5148.891    37610.261       13.654       10.083      262.047      273.885        1.092      332.567        1.316      848.519
01/26/2021  21:28:00       41.588      -91.498      -21.947      166.942       65.807       84.111    27869.782     4330.601     7074.726        2.492        1.964      100.506      107.959        1.154      332.519        1.235      848.443
01/26/2021  21:29:00      -20.022      -68.373       -7.254      213.771       73.917       89.620    45698.254     5463.774     8031.797        3.215        2.960       71.244      123.964        3.028      332.603        1.372      848.504
01/26/2021  21:30:00      -13.445      -73.283      -37.821      307.310       58.306      150.701    94439.707     3399.603    22710.919        6.374        6.028       74.507      209.605        7.914      332.696        1.530      848.580
01/26/2021  21:31:00       60.816      -33.773      -12.961      223.005       74.112      108.741    49731.159     5492.598    11824.609        3.601        3.352       69.565      148.577        4.562      332.597        1.364      848.513
01/26/2021  21:32:00       92.267      -97.852      -17.758      340.898      120.062      155.599   116211.466    14414.991    24211.122        8.659        7.742      134.492      222.996        2.749      332.579        1.336      848.450
01/26/2021  21:33:00       39.656       -1.507        1.177      276.453       52.423      136.407    76426.366     2748.131    18606.916        4.966        4.889       39.684      189.536       22.811      332.581        1.339      848.497
01/26/2021  21:34:00      -15.803       26.099       -7.305      290.448       59.715      140.829    84359.873     3565.846    19832.722        5.435        5.388       30.511      198.160       42.182      332.560        1.305      848.454
01/26/2021  21:35:00       96.390      -67.574      -40.841      368.619       64.996      180.802   135879.644     4224.423    32689.229        9.412        8.640      117.717      252.896        4.615      332.719        1.568      848.354
01/26/2021  21:36:00       36.467      -25.041      -28.551      441.604       52.911      207.281   195013.835     2799.611    42965.320       12.172       12.039       44.237      297.905       45.352      332.897        1.864      848.381
01/26/2021  21:37:00       -9.324       -0.893       -4.685      243.034       55.578      116.653    59065.523     3088.952    13608.004        3.792        3.788        9.366      161.696      298.033      332.465        1.147      848.360
01/26/2021  21:38:00       68.778      -29.589      -34.588      406.390       61.596      194.595   165152.768     3794.032    37867.271       10.676       10.341       74.873      277.944       13.781      332.732        1.591      848.284
01/26/2021  21:39:00       66.213      -74.700      -33.347      211.871       77.973      111.106    44889.441     6079.862    12344.551        3.718        3.166       99.821      146.332        2.149      332.694        1.525      848.244
01/26/2021  21:40:00       46.527      -62.448      -37.768      415.839       61.114      197.921   172922.074     3734.883    39172.851       11.161       10.791       77.875      280.112       12.938      332.828        1.751      848.300
01/26/2021  21:41:00       59.756     -115.350      -17.966      269.358       85.035      132.150    72553.771     7230.884    17463.512        5.720        4.862      129.909      177.365        1.864      332.941        1.932      848.359
01/26/2021  21:42:00      115.298     -107.755      -65.459      447.917      104.583      214.629   200629.463    10937.511    46065.809       14.336       12.882      157.812      304.738        3.729      332.979        1.999      848.324
01/26/2021  21:43:00       59.476      -40.455      -19.482      323.800       91.114      149.762   104846.255     8301.682    22428.679        7.054        6.779       71.930      215.393        8.967      332.846        1.776      848.268
01/26/2021  21:44:00       19.987      -90.482      -44.125      321.427       58.569      147.220   103315.251     3430.321    21673.809        6.945        6.421       92.663      208.102        5.044      332.781        1.671      848.246
01/26/2021  21:45:00       -2.218      -40.929      -25.798      346.233       50.901      163.243   119876.973     2590.929    26648.205        7.570        7.456       40.989      233.594       32.478      332.911        1.887      848.316
01/26/2021  21:46:00      -53.664      -54.131       -0.429       57.251       56.835       32.110     3277.663     3230.191     1031.022        0.667        0.377       76.224       41.736        0.300      332.774        1.654      848.398
01/26/2021  21:47:00      -40.245      -63.774       -9.166      206.945       96.133       97.836    42826.354     9241.503     9571.821        3.369        3.082       75.411      126.349        2.807      332.874        1.819      848.373
01/26/2021  21:48:00      -12.943     -167.702      -23.787       95.245      113.310       50.458     9071.677    12839.140     2546.031        2.665        1.223      168.201       53.479        0.101      332.981        1.995      848.347
01/26/2021  21:49:00       79.608     -197.002      -42.455      282.641      132.874      142.718    79886.165    17655.389    20368.492        8.240        5.896      212.479      190.180        0.801      333.059        2.128      848.385
01/26/2021  21:50:00       83.926     -168.777      -21.591      279.819      102.649      135.053    78298.416    10536.907    18239.239        7.151        5.354      188.492      181.053        0.923      333.121        2.229      848.407
01/26/2021  21:51:00       88.539     -157.769      -47.364      361.335       67.954      172.081   130563.210     4617.805    29611.923        9.985        8.240      180.915      242.562        1.798      333.319        2.560      848.321
01/26/2021  21:52:00       56.119     -151.922      -26.651      332.138       95.051      159.529   110315.952     9034.662    25449.514        8.584        7.240      161.956      219.974        1.845      333.112        2.214      848.389
01/26/2021  21:53:00       -2.125     -129.737      -21.097       99.210       58.574       43.619     9842.595     3430.946     1902.622        1.623        0.759      129.755       44.529        0.118      333.013        2.050      848.473
01/26/2021  21:54:00      -81.250     -100.536       -1.734      185.314       97.669      100.160    34341.136     9539.204    10032.075        3.530        2.696      129.264      112.832        0.762      333.098        2.190      848.413
01/26/2021  21:55:00      135.319     -121.926      -51.899      192.768      115.671       92.624    37159.677    13379.760     8579.163        4.748        2.956      182.146      122.436        0.452      333.061        2.128      848.223
01/26/2021  21:56:00       32.557     -109.453      -28.375      346.496      106.703      162.074   120059.716    11385.472    26268.100        8.575        7.886      114.193      229.998        4.057      333.153        2.284      848.284
01/26/2021  21:57:00      -20.404      -22.798       -4.662      276.466       95.429      132.133    76433.671     9106.777    17459.190        5.196        5.150       30.595      180.852       34.942      333.071        2.149      848.381
01/26/2021  21:58:00       55.117      -41.881      -28.018      247.424       54.892      122.753    61218.846     3013.089    15068.236        4.242        3.965       69.224      168.242        5.907      333.206        2.371      848.306
01/26/2021  21:59:00        5.961       17.246       -5.035      156.682       46.923       71.965    24549.098     2201.766     5178.903        1.614        1.596       18.247       98.824       29.331      333.054        2.119      848.199
01/26/2021  22:00:00       92.537       38.157      -29.229      375.945       58.110      176.131   141334.804     3376.719    31022.124        9.327        8.787      100.095      253.845        6.432      333.132        2.252      848.222
01/26/2021  22:01:00        5.339       53.599        6.052      198.119       48.142       95.685    39251.206     2317.616     9155.589        2.682        2.536       53.864      132.866        6.085      332.923        1.902      848.327
01/26/2021  22:02:00       39.095       51.921      -12.220      232.099       31.908      107.355    53869.836     1018.149    11525.190        3.538        3.321       64.994      154.614        5.659      333.056        2.125      848.375
01/26/2021  22:03:00       66.003       82.311      -20.106      391.798       41.505      182.353   153505.433     1722.637    33252.692        9.997        9.424      105.506      264.999        6.309      333.128        2.247      848.322
01/26/2021  22:04:00       20.259       36.827      -16.507      353.592       39.711      169.998   125027.555     1576.926    28899.216        7.874        7.775       42.031      243.470       33.554      333.078        2.162      848.307
01/26/2021  22:05:00        7.753       -9.687        3.764      159.830       39.462       79.733    25545.548     1557.236     6357.370        1.681        1.673       12.407      109.029       77.222      332.988        2.010      848.336
01/26/2021  22:06:00      -31.984       13.465       -3.650      205.115       39.595       99.405    42072.051     1567.774     9881.374        2.736        2.676       34.703      137.870       15.783      332.974        1.988      848.317
01/26/2021  22:07:00      -56.365        8.039      -13.537      281.007       46.184      136.480    78964.702     2132.945    18626.799        5.155        4.986       56.936      191.450       11.307      333.027        2.076      848.282
01/26/2021  22:08:00      -10.545        2.251        0.690      235.723       45.838      110.678    55565.445     2101.087    12249.627        3.500        3.496       10.783      156.140      209.687      332.973        1.988      848.198
01/26/2021  22:09:00        1.715      -35.851      -18.252      264.124       38.590      126.097    69761.523     1489.160    15900.554        4.437        4.358       35.892      177.639       24.496      333.007        2.043      848.180
01/26/2021  22:10:00        2.496        2.506      -32.439      328.400       41.555      155.263   107846.547     1726.791    24106.569        6.734        6.684        3.537      223.645     3998.616      333.075        2.156      848.257
01/26/2021  22:11:00     -121.753       40.525      -25.138      199.891       52.136      100.026    39956.288     2718.134    10005.124        3.488        2.634      128.320      134.507        1.099      332.913        1.885      848.277
01/26/2021  22:12:00     -121.673       29.558      -21.404      267.862       49.470      126.563    71749.947     2447.291    16018.101        5.316        4.511      125.212      171.416        1.874      332.858        1.796      848.204
01/26/2021  22:13:00      -91.569       10.026      -15.761      214.086       47.601      102.769    45832.983     2265.859    10561.568        3.368        2.933       92.116      120.738        1.718      332.802        1.702      848.148
01/26/2021  22:14:00       -1.316        5.913       -3.503       40.439       45.598       28.679     1635.343     2079.194      822.477        0.229        0.227        6.057       24.965       16.987      332.808        1.713      848.256
01/26/2021  22:15:00       -1.251        2.399      -20.098      216.434       34.132      103.019    46843.832     1165.024    10612.978        2.950        2.931        2.706      144.852     2866.050      332.805        1.706      848.281
01/26/2021  22:16:00      -42.061       59.619      -27.305      288.906       45.899      139.584    83466.509     2106.683    19483.631        5.554        5.253       72.963      192.329        6.948      332.774        1.658      848.166
01/26/2021  22:17:00        5.462       29.159        4.270      281.692       51.221      132.580    79350.619     2623.563    17577.468        5.020        4.978       29.667      185.968       39.296      332.923        1.903      848.061
01/26/2021  22:18:00      -65.457      -70.456      -10.122       80.554       56.005       33.260     6488.889     3136.544     1106.243        1.004        0.537       96.170       23.464        0.060      332.804        1.706      848.079
01/26/2021  22:19:00      -63.995      -51.870      -20.276      304.785       52.077      143.857    92894.067     2712.023    20694.902        6.172        5.815       82.376      202.317        6.032      332.903        1.871      848.138
01/26/2021  22:20:00      -52.503        8.176      -16.262      287.740       61.883      127.322    82794.117     3829.547    16210.883        5.294        5.142       53.136      177.991       11.221      332.736        1.595      848.131
01/26/2021  22:21:00      -66.685       17.495       -4.792      149.044       55.010       76.433    22214.032     3026.060     5841.933        1.792        1.554       68.942       89.552        1.687      332.604        1.375      848.109
01/26/2021  22:22:00      -47.328        6.293        1.404      200.018       54.715       96.769    40007.049     2993.725     9364.217        2.731        2.618       47.744      125.638        6.925      332.625        1.410      848.062
01/26/2021  22:23:00       72.588      -42.982      -34.805      343.521       70.883      167.289   118006.815     5024.348    27985.588        7.964        7.551       84.359      237.183        7.905      333.076        2.160      848.079
01/26/2021  22:24:00       18.150       26.509       15.033       35.721       46.522       25.805     1276.002     2164.340      665.872        0.268        0.205       32.127       25.053        0.608      332.885        1.839      848.112
01/26/2021  22:25:00      -13.834       -3.730       -5.114      143.962       40.568       66.322    20725.092     1645.729     4398.657        1.349        1.338       14.328       83.232       33.744      332.871        1.817      848.038
01/26/2021  22:26:00       36.985      -34.950       -5.804      182.395       34.567       88.915    33268.081     1194.881     7905.822        2.249        2.118       50.886      123.786        5.918      333.131        2.247      848.012
01/26/2021  22:27:00      -38.269      -18.999        4.895       70.052       57.460       30.565     4907.336     3301.623      934.223        0.549        0.457       42.725       39.903        0.872      333.055        2.121      848.005
01/26/2021  22:28:00      119.639     -277.263      -21.764       90.309      115.129       59.929     8155.766    13254.772     3591.522        5.833        1.250      301.974       46.076        0.023      333.483        2.825      848.009
01/26/2021  22:29:00      181.428     -218.494      -42.068      218.044      123.344      114.359    47543.097    15213.725    13078.005        7.911        3.792      283.999      139.935        0.243      333.527        2.899      848.023
01/26/2021  22:30:00      113.059      -94.855      -14.496      133.313      112.455       60.898    17772.297    12646.024     3708.548        2.805        1.706      147.580       63.438        0.185      333.504        2.861      848.007
01/26/2021  22:31:00      259.462     -374.841      -69.648      224.319      228.768      112.977    50319.168    52334.955    12763.694       16.402        5.771      455.880      125.940        0.076      333.612        3.039      847.903
01/26/2021  22:32:00      194.704     -295.468      -53.500      245.231      193.241      128.438    60138.374    37342.276    16496.196       12.100        5.699      353.852      157.025        0.197      333.671        3.137      847.873
01/26/2021  22:33:00      112.107     -282.232      -58.586      143.438      208.412       68.987    20574.562    43435.684     4759.244        8.220        3.438      303.682       62.765        0.043      333.642        3.086      847.929
01/26/2021  22:34:00      182.581     -191.152      -48.583      255.423      173.643      133.331    65240.768    30151.835    17777.101        9.268        5.658      264.339      163.415        0.382      333.674        3.142      847.879
01/26/2021  22:35:00      197.216     -230.895      -84.521      257.374      232.044      112.675    66241.269    53844.246    12695.604       11.604        6.639      303.656      140.549        0.214      333.632        3.073      847.863
01/26/2021  22:36:00      348.929     -409.272     -109.886      226.967      195.666      109.921    51513.978    38285.271    12082.578       20.158        5.094      537.824      122.122        0.052      333.616        3.044      847.857
01/26/2021  22:37:00      192.552     -324.465      -68.489      251.187      195.612      106.094    63094.944    38264.129    11255.987       12.981        5.631      377.298      134.500        0.127      333.628        3.066      847.937
01/26/2021  22:38:00      164.681     -240.428      -76.464      290.214      198.984      148.170    84224.233    39594.502    21954.410       11.824        7.289      291.419      174.542        0.359      333.678        3.149      847.891
01/26/2021  22:39:00      222.905     -329.258      -81.278      241.606      179.397      114.628    58373.502    32183.184    13139.531       13.418        5.185      397.615      130.906        0.108      333.622        3.056      847.867
01/26/2021  22:40:00      264.939     -360.625     -101.825      310.026      192.279      149.701    96116.357    36971.030    22410.498       18.302        7.775      447.485      196.978        0.194      333.684        3.160      847.817
01/26/2021  22:41:00      303.447     -359.686      -91.735      241.605      179.099      140.301    58373.032    32076.434    19684.323       16.998        5.507      470.589      158.656        0.114      333.603        3.024      847.812
01/26/2021  22:42:00      252.830     -437.427      -75.283      242.310      196.358      118.057    58714.282    38556.427    13937.560       18.605        5.560      505.238      145.184        0.083      333.632        3.071      847.855
01/26/2021  22:43:00      165.331     -357.553      -57.564      124.494      132.084       72.504    15498.720    17446.156     5256.897        9.834        1.910      393.927       72.060        0.033      333.604        3.023      847.908
01/26/2021  22:44:00      223.203     -289.362      -54.375      179.014      120.258       98.505    32045.989    14462.094     9703.172        9.635        2.811      365.445      116.839        0.102      333.617        3.048      847.915
01/26/2021  22:45:00      272.370     -248.590      -72.268      264.717      166.131      133.983    70075.316    27599.615    17951.362       12.839        5.781      368.758      176.574        0.229      333.612        3.039      847.882
01/26/2021  22:46:00      197.570     -261.799      -67.077      134.118      127.100       60.337    17987.768    16154.395     3640.561        7.492        1.889      327.983       63.164        0.037      333.526        2.895      847.951
01/26/2021  22:47:00      312.277     -414.582      -82.013      290.744      197.023      139.961    84532.233    38818.225    19588.945       20.950        7.147      519.033      173.717        0.112      333.613        3.041      847.983
01/26/2021  22:48:00      362.308     -525.719     -107.392      358.766      242.847      144.656   128712.684    58974.783    20925.364       31.385       10.431      638.473      192.816        0.091      333.596        3.013      847.926
01/26/2021  22:49:00      320.720     -525.911      -89.738      189.028      224.886       83.148    35731.668    50573.743     6913.577       24.034        4.661      615.990       88.509        0.021      333.495        2.844      847.908
01/26/2021  22:50:00      341.462     -486.307     -108.921      404.895      188.984      186.488   163939.752    35715.041    34777.627       29.964       11.722      594.214      255.060        0.184      333.664        3.129      847.949
01/26/2021  22:51:00      310.891     -373.704      -70.597      248.683      159.724      126.693    61843.045    25511.603    16051.075       17.233        5.170      486.115      157.282        0.105      333.515        2.879      847.990
01/26/2021  22:52:00      295.417     -427.460      -97.698      158.466      204.696       77.733    25111.552    41900.602     6042.430       17.628        3.653      519.609       74.353        0.020      333.437        2.749      847.993
01/26/2021  22:53:00      234.925     -340.028      -84.330      189.888      200.639       98.730    36057.633    40256.046     9747.672       13.197        4.303      413.290      110.926        0.072      333.431        2.740      848.019
01/26/2021  22:54:00      177.230     -411.874      -60.892      205.000      236.883      116.233    42024.927    56113.358    13510.032       15.818        5.582      448.387      123.003        0.075      333.458        2.784      848.054
01/26/2021  22:55:00      221.253     -361.965      -73.668      244.277      228.608       94.610    59671.190    52261.813     8950.975       15.311        6.044      424.230      130.927        0.095      333.345        2.597      848.045
01/26/2021  22:56:00      112.610     -214.050      -44.876      328.744      189.089      152.488   108072.909    35754.651    23252.709       11.376        8.354      241.864      199.930        0.683      333.529        2.904      848.104
01/26/2021  22:57:00      306.604     -313.591     -100.395      273.027      164.142      127.056    74544.009    26942.476    16143.328       16.000        5.881      438.572      171.255        0.152      333.371        2.641      848.115
01/26/2021  22:58:00      291.051     -309.259      -86.464      238.718      167.225      130.012    56986.439    27964.241    16903.083       14.482        5.093      424.678      155.390        0.134      333.320        2.555      848.106
01/26/2021  22:59:00      266.490     -440.328      -66.546      309.836      202.064      148.621    95998.229    40829.682    22088.269       21.409        7.946      514.690      193.418        0.141      333.305        2.531      848.139
01/26/2021  23:00:00      149.202     -269.190      -50.787      223.489      161.906      114.673    49947.341    26213.639    13149.905        9.329        4.466      307.773      125.882        0.167      333.244        2.430      848.242
01/26/2021  23:01:00       72.440     -124.739      -28.901       98.415      131.771       65.224     9685.588    17363.579     4254.114        2.647        1.565      144.248       52.994        0.135      333.190        2.341      848.202
01/26/2021  23:02:00      185.253     -251.605      -49.732      235.694      261.948      112.502    55551.487    68616.637    12656.795       11.843        6.841      312.448      110.427        0.125      333.005        2.033      848.231
01/26/2021  23:03:00      223.776     -316.545      -56.806      329.833      251.503      177.987   108790.067    63253.959    31679.382       17.857       10.186      387.656      202.297        0.272      332.932        1.915      848.171
01/26/2021  23:04:00      143.015     -309.066      -54.430      311.052      168.849      153.490    96753.072    28510.123    23559.100       13.385        7.441      340.551      206.112        0.366      332.967        1.974      848.207
01/26/2021  23:05:00      226.551     -304.769      -51.905      120.463      155.567       72.788    14511.403    24201.045     5298.126        9.545        2.201      379.749       64.009        0.028      332.780        1.662      848.220
01/26/2021  23:06:00      148.614     -261.934      -57.548      215.519      176.411      127.108    46448.578    31120.767    16156.467        9.385        4.686      301.157      135.519        0.202      332.864        1.803      848.244
01/26/2021  23:07:00      102.705     -305.800      -74.541      292.225      184.127      147.802    85395.167    33902.745    21845.512       12.535        7.057      322.586      186.022        0.333      332.895        1.853      848.205
01/26/2021  23:08:00      343.896     -433.703      -95.003      223.620      148.381      109.510    50005.799    22016.935    11992.454       19.968        4.201      553.501      124.269        0.050      332.706        1.540      848.179
01/26/2021  23:09:00      201.274     -305.527      -58.042      252.166      172.052      114.984    63587.448    29601.720    13221.338       12.180        5.321      365.866      157.310        0.185      332.820        1.729      848.247
01/26/2021  23:10:00      145.114     -163.772      -57.543      121.619      174.322       66.971    14791.151    30388.256     4485.123        5.042        2.483      218.813       58.453        0.071      332.790        1.678      848.295
01/26/2021  23:11:00      228.383     -213.563      -60.652      265.394      223.004      117.404    70433.969    49730.757    13783.759       11.767        6.697      312.679      158.398        0.257      332.719        1.562      848.259
01/26/2021  23:12:00      405.182     -650.298     -112.343      268.511      233.950      130.646    72098.304    54732.805    17068.266       37.176        7.195      766.199      155.186        0.041      332.531        1.252      848.206
01/26/2021  23:13:00      354.372     -530.411     -144.230      386.383      296.936      157.295   149291.564    88171.055    24741.777       34.490       13.110      637.899      205.388        0.104      332.423        1.074      848.165
01/26/2021  23:14:00      291.518     -442.564     -104.470      195.023      264.804       97.095    38033.885    70121.208     9427.474       20.465        5.879      529.949       82.463        0.024      332.395        1.027      848.214
01/26/2021  23:15:00      185.496     -358.357      -78.955      214.265      190.843       96.707    45909.384    36421.107     9352.192       13.035        4.584      403.520      100.644        0.062      332.476        1.161      848.235
01/26/2021  23:16:00      227.209     -249.086      -64.589      201.991      159.592      111.406    40800.543    25469.450    12411.257        9.824        3.934      337.146      123.297        0.134      332.398        1.032      848.258
01/26/2021  23:17:00      410.462     -446.755     -126.514      366.460      284.811      161.312   134292.818    81117.588    26021.445       31.270       12.072      606.687      219.631        0.131      332.391        1.023      848.216
01/26/2021  23:18:00      302.608     -394.760     -104.467      169.223      225.092       99.839    28636.426    50666.493     9967.743       17.378        4.464      497.401       87.814        0.031      332.220        0.740      848.201
01/26/2021  23:19:00      256.806     -340.933      -61.430      156.043      214.488       75.556    24349.441    46005.027     5708.711       13.099        3.803      426.831       80.026        0.035      332.260        0.804      848.206
01/26/2021  23:20:00      387.218     -495.179     -122.126      395.343      264.032      186.129   156296.359    69713.155    34644.004       33.530       13.033      628.602      257.411        0.168      332.358        0.971      848.169
01/26/2021  23:21:00      361.822     -576.403      -98.827      205.086      194.368       93.810    42060.311    37779.103     8800.248       28.076        4.432      680.555       93.088        0.019      332.098        0.537      848.128
01/26/2021  23:22:00      330.158     -504.444     -101.180      222.296      195.907      108.517    49415.362    38379.700    11775.959       23.662        4.979      602.883      121.512        0.041      332.122        0.578      848.155
01/26/2021  23:23:00      324.124     -567.315     -103.844      217.718      259.935      103.427    47401.295    67566.430    10697.235       28.165        6.283      653.378      124.219        0.036      332.055        0.466      848.155
01/26/2021  23:24:00      403.334     -481.386     -127.131      382.306      155.905      180.307   146157.669    24306.394    32510.531       30.673       10.149      628.021      250.991        0.160      332.165        0.652      848.137
01/26/2021  23:25:00      323.841     -275.077      -87.183      327.651      200.740      142.178   107355.144    40296.599    20214.709       17.797        8.393      424.900      198.744        0.219      332.093        0.530      848.116
01/26/2021  23:26:00      237.766     -264.285      -68.072      129.970      185.097       73.716    16892.316    34260.803     5434.024        9.379        2.829      355.498       77.284        0.047      331.978        0.338      848.101
01/26/2021  23:27:00      191.362     -285.392      -41.118      267.306      182.365      137.467    71452.679    33256.943    18897.103       12.166        6.180      343.611      179.216        0.272      332.080        0.510      848.102
01/26/2021  23:28:00      341.674     -437.492     -111.507      382.086      168.735      188.126   145989.488    28471.552    35391.308       26.517       10.493      555.104      248.463        0.200      332.100        0.543      848.042
01/26/2021  23:29:00      344.973     -560.661     -105.891      296.144      231.090      141.652    87701.038    53402.688    20065.168       30.283        8.058      658.291      185.378        0.079      331.988        0.357      848.023
01/26/2021  23:30:00      342.324     -441.564      -89.900      245.527      164.563      127.489    60283.565    27081.087    16253.404       21.191        5.181      558.717      164.984        0.087      331.951        0.296      848.009
01/26/2021  23:31:00      341.240     -340.145      -91.966      374.244      173.368      181.666   140058.357    30056.481    33002.386       22.181       10.156      481.812      245.684        0.260      332.106        0.554      848.001
01/26/2021  23:32:00      293.727     -410.956      -82.547      228.354      290.229      130.580    52145.643    84233.151    17051.109       20.767        7.671      505.134      140.631        0.078      331.974        0.333      847.977
01/26/2021  23:33:00      263.268     -352.180      -52.882      132.033      197.316       76.743    17432.836    38933.709     5889.485       12.918        3.113      439.706       67.760        0.024      331.927        0.254      848.000
01/26/2021  23:34:00      215.657     -282.076      -63.813      259.260      208.522      122.390    67215.503    43481.532    14979.385       12.788        6.284      355.070      153.337        0.186      331.989        0.358      847.956
01/26/2021  23:35:00      318.463     -324.688      -99.027      444.654      249.325      215.391   197717.119    62162.840    46393.207       26.140       15.314      454.798      295.770        0.423      332.174        0.667      847.975
01/26/2021  23:36:00      427.363     -276.337     -107.544      489.409      190.169      223.849   239521.358    36164.232    50108.264       29.811       16.290      508.921      314.638        0.382      332.221        0.746      848.024
01/26/2021  23:37:00      315.262     -442.958      -93.348      359.058      228.533      162.157   128922.856    52227.196    26294.873       25.584       10.372      543.693      223.691        0.169      332.075        0.502      848.039
01/26/2021  23:38:00      246.439     -382.364      -77.582      292.561      155.163      145.541    85591.707    24075.479    21182.063       17.187        6.542      454.900      194.155        0.182      332.038        0.438      848.040
01/26/2021  23:39:00      345.683     -482.111     -100.873      360.869      193.544      175.053   130226.439    37459.388    30643.509       28.017        9.916      593.235      238.231        0.161      332.057        0.473      847.999
01/26/2021  23:40:00      276.186     -203.581      -92.816      223.286      170.569      104.683    49856.562    29093.753    10958.621       10.810        4.495      343.109      125.036        0.133      332.007        0.386      848.004
01/26/2021  23:41:00      320.392     -453.415      -97.105      576.424      191.949      270.626   332264.266    36844.610    73238.436       37.991       22.117      555.190      387.193        0.486      332.290        0.863      848.017
01/26/2021  23:42:00      248.229     -372.502      -71.833      260.298      162.385      122.088    67755.134    26368.791    14905.371       15.726        5.451      447.633      165.224        0.136      331.965        0.319      848.028
01/26/2021  23:43:00      224.008     -456.615      -61.903       98.355      122.458       56.379     9673.763    14995.869     3178.605       14.517        1.392      508.603       46.064        0.008      331.915        0.234      848.047
01/26/2021  23:44:00      334.375     -377.083      -98.721      318.002      208.460      161.777   101125.164    43455.540    26171.827       21.721        8.538      503.983      217.591        0.186      332.036        0.437      848.038
01/26/2021  23:45:00      195.846      -20.113      -65.933      511.689      122.514      245.175   261825.540    15009.738    60110.890       18.995       16.847      196.876      346.837        3.104      332.332        0.934      848.012
01/26/2021  23:46:00      169.256     -117.149      -49.179      395.657      197.922      193.547   156544.470    39173.203    37460.337       13.893       11.659      205.843      269.506        1.714      332.239        0.775      848.038
01/26/2021  23:47:00      203.741     -112.694      -44.653      500.240      115.961      240.700   250239.695    13446.914    57936.630       18.884       16.081      232.831      340.692        2.141      332.393        1.032      848.063
01/26/2021  23:48:00      247.970     -130.482      -53.194      494.638      104.343      224.850   244667.231    10887.387    50557.334       19.366       15.306      280.205      319.697        1.302      332.220        0.746      848.001
01/26/2021  23:49:00      192.586     -147.490      -54.450      255.837      158.701      131.380    65452.769    25186.132    17260.833        8.483        5.395      242.575      165.922        0.468      332.032        0.429      847.963
01/26/2021  23:50:00      282.686     -414.249      -81.916      396.583      300.425      183.985   157277.865    90255.342    33850.579       26.974       14.069      501.511      259.381        0.267      332.080        0.511      847.909
01/26/2021  23:51:00      215.237     -106.627      -64.204      392.776      161.533      182.646   154272.698    26092.891    33359.539       13.773       10.686      240.200      248.419        1.070      332.162        0.647      847.918
01/26/2021  23:52:00      226.609     -139.344      -50.929      423.979      134.679      210.284   179758.528    18138.550    44219.171       15.769       12.106      266.024      288.802        1.179      332.173        0.666      847.900
01/26/2021  23:53:00      222.165     -257.579      -70.277      400.042       91.009      195.856   160033.851     8282.573    38359.416       16.361       10.334      340.153      273.494        0.646      332.117        0.573      847.954
01/26/2021  23:54:00      142.039     -243.570      -42.890      165.757      119.434       88.174    27475.225    14264.511     7774.680        6.542        2.476      281.960      105.001        0.139      331.955        0.300      848.007
01/26/2021  23:55:00      274.158     -312.578      -75.106      321.561      118.463      156.692   103401.612    14033.366    24552.332       16.022        7.099      415.774      217.042        0.273      331.974        0.336      848.014
01/26/2021  23:56:00      248.033     -170.576      -69.178      305.573      195.979      146.292    93375.098    38407.932    21401.471       12.426        7.659      301.026      200.513        0.444      331.979        0.344      847.912
01/26/2021  23:57:00      273.819     -411.516     -104.516      423.554      220.162      197.100   179398.245    48471.382    38848.281       26.092       13.336      494.290      281.172        0.324      332.126        0.588      847.894
01/26/2021  23:58:00      333.897     -179.665      -63.950      376.452      100.721      174.296   141716.228    10144.690    30379.056       16.501        9.112      379.166      244.505        0.416      332.162        0.646      847.893
01/26/2021  23:59:00      159.654      -56.918      -50.280      236.291      136.397      112.467    55833.204    18604.180    12648.728        5.915        4.354      169.496      148.917        0.772      332.144        0.614      847.877
01/27/2021  00:00:00      248.767     -265.300      -57.992      305.727      162.788      148.969    93469.100    26500.068    22191.638       13.887        7.108      363.688      203.830        0.314      332.049        0.458      847.896
01/27/2021  00:01:00      258.739      -27.220      -32.679      421.289      119.550      210.035   177484.688    14292.261    44114.800       15.227       11.795      260.167      290.819        1.250      332.241        0.779      847.843
01/27/2021  00:02:00      125.582      -11.748      -33.177      404.282      126.081      211.719   163443.706    15896.355    44825.072       12.054       11.208      126.131      279.558        4.913      332.212        0.733      847.772
01/27/2021  00:03:00      266.332     -122.635      -44.712      311.075      117.869      155.960    96767.589    13893.055    24323.436       11.145        6.749      293.210      202.494        0.477      332.094        0.533      847.760
01/27/2021  00:04:00      238.320     -201.883      -60.312      366.268      151.155      169.404   134151.962    22847.909    28697.557       14.340        9.285      312.335      230.337        0.544      332.200        0.709      847.777
01/27/2021  00:05:00      229.699     -189.319      -78.137      501.170      164.748      238.651   251171.607    27141.848    56954.396       21.492       16.763      297.664      338.680        1.295      332.422        1.080      847.788
01/27/2021  00:06:00      205.874     -162.499      -60.700      463.129      117.552      224.279   214488.828    13818.475    50301.091       17.548       13.930      262.278      317.440        1.465      332.340        0.945      847.819
01/27/2021  00:07:00      235.777     -337.642      -86.557      404.653      184.594      195.564   163744.089    34075.075    38245.386       20.652       11.803      411.816      271.589        0.435      332.256        0.803      847.827
01/27/2021  00:08:00      367.449     -343.720     -120.116      615.928      118.591      299.213   379367.459    14063.851    89528.316       37.517       24.148      503.153      424.406        0.711      332.629        1.426      847.840
01/27/2021  00:09:00      302.870     -167.168      -70.808      426.369      139.698      207.973   181790.519    19515.575    43252.677       18.457       12.228      345.942      289.339        0.700      332.371        0.995      847.849
01/27/2021  00:10:00      326.420     -263.271     -107.103      556.921      176.121      264.262   310160.864    31018.758    69834.593       29.909       20.551      419.358      373.312        0.792      332.543        1.281      847.799
01/27/2021  00:11:00      341.320     -269.826     -114.232      616.262      141.787      295.586   379778.811    20103.637    87371.250       34.470       24.363      435.092      420.704        0.935      332.708        1.557      847.729
01/27/2021  00:12:00      261.334     -296.651      -85.264      463.725      118.791      221.127   215040.798    14111.390    48897.145       22.075       13.902      395.345      312.574        0.625      332.469        1.155      847.704
01/27/2021  00:13:00      347.767     -428.694     -100.121      381.882      115.067      181.889   145833.948    13240.379    33083.670       25.341        9.608      552.015      256.367        0.216      332.372        0.992      847.697
01/27/2021  00:14:00      292.951     -176.296      -82.907      556.036      161.773      254.997   309175.821    26170.463    65023.617       26.198       20.018      341.907      364.682        1.138      332.613        1.395      847.708
01/27/2021  00:15:00      294.002     -371.431      -98.365      370.369      188.738      175.978   137173.065    35621.876    30968.103       21.887       10.188      473.707      248.931        0.276      332.334        0.930      847.701
01/27/2021  00:16:00      358.822     -289.934      -90.582      468.029      122.239      232.531   219051.182    14942.353    54070.693       25.448       14.403      461.319      319.968        0.481      332.469        1.157      847.681
01/27/2021  00:17:00      359.809     -202.111      -92.892      450.707      195.482      218.955   203137.210    38213.374    47941.508       23.405       14.465      412.688      306.341        0.551      332.479        1.170      847.676
01/27/2021  00:18:00      306.667     -361.441      -93.664      436.728      138.645      200.665   190731.688    19222.557    40266.456       24.179       12.511      474.009      286.668        0.366      332.414        1.063      847.651
01/27/2021  00:19:00      219.973     -269.116      -73.006      434.111      172.012      207.615   188452.463    29588.097    43104.080       19.359       13.057      347.580      289.530        0.694      332.428        1.087      847.641
01/27/2021  00:20:00      304.126     -390.231     -110.496      510.086      179.396      243.131   260187.741    32182.949    59112.478       30.416       17.574      494.745      345.850        0.489      332.560        1.308      847.654
01/27/2021  00:21:00      287.055     -345.647      -82.246      361.012      164.009      173.967   130329.469    26898.797    30264.495       19.803        9.375      449.302      238.448        0.282      332.417        1.067      847.657
01/27/2021  00:22:00      344.663     -255.041     -101.492      538.145      126.722      258.916   289600.178    16058.542    67037.744       28.334       18.635      428.764      368.826        0.740      332.624        1.414      847.636
01/27/2021  00:23:00      326.661     -291.160     -124.900      641.751      199.134      307.076   411844.763    39654.338    94295.612       37.632       27.290      437.586      439.994        1.011      332.839        1.774      847.587
01/27/2021  00:24:00      383.302     -327.041     -120.158      560.472      149.825      261.345   314129.183    22447.407    68301.201       33.651       20.244      503.861      377.589        0.562      332.657        1.470      847.574
01/27/2021  00:25:00      263.683     -309.472      -54.553      312.443      136.582      151.675    97620.467    18654.674    23005.302       15.375        6.964      406.573      205.692        0.256      332.274        0.830      847.600
01/27/2021  00:26:00      296.360     -415.772      -98.655      350.135      136.003      167.885   122594.600    18496.711    28185.528       21.982        8.464      510.583      236.759        0.215      332.343        0.944      847.586
01/27/2021  00:27:00      405.967     -390.464     -123.605      554.015      144.044      266.876   306933.040    20748.669    71222.607       36.564       19.945      563.268      378.165        0.451      332.647        1.452      847.623
01/27/2021  00:28:00      360.300     -255.482     -113.803      587.217      193.579      282.355   344823.613    37472.821    79724.454       33.493       23.101      441.687      403.563        0.835      332.655        1.469      847.594
01/27/2021  00:29:00      224.127     -144.880      -74.729      548.378      108.092      265.250   300718.150    11683.952    70357.496       22.970       19.138      266.877      374.915        1.974      332.705        1.549      847.589
01/27/2021  00:30:00      275.752     -212.072      -99.324      586.981      117.580      276.903   344546.739    13825.086    76675.185       28.287       21.752      347.871      397.794        1.308      332.805        1.715      847.594
01/27/2021  00:31:00      179.597     -115.810      -87.384      527.885      110.833      240.302   278662.609    12284.007    57744.897       20.092       17.435      213.699      349.159        2.670      332.656        1.468      847.637
01/27/2021  00:32:00      287.269     -318.151      -91.824      480.516      155.888      227.853   230895.727    24301.201    51916.822       24.958       15.356      428.653      320.105        0.558      332.581        1.340      847.638
01/27/2021  00:33:00      315.304     -383.068      -88.641      335.886      154.575      158.666   112819.073    23893.580    25174.992       20.792        8.094      496.142      212.924        0.184      332.436        1.097      847.544
01/27/2021  00:34:00      329.527     -189.383      -78.980      489.988      147.448      240.597   240088.665    21741.004    57887.087       23.514       15.986      380.071      334.450        0.774      332.566        1.318      847.553
01/27/2021  00:35:00      262.983     -408.600      -79.957      230.547      112.026      111.619    53151.725    12549.767    12458.896       16.032        3.908      485.915      146.303        0.091      332.325        0.912      847.565
01/27/2021  00:36:00      414.375     -377.587     -136.183      632.814      174.512      300.120   400452.945    30454.416    90072.312       42.679       26.049      560.605      427.584        0.582      332.840        1.776      847.573
01/27/2021  00:37:00      264.375     -201.072     -103.732      516.799      140.377      244.004   267080.783    19705.794    59538.069       23.363       17.316      332.151      346.641        1.089      332.649        1.456      847.587
01/27/2021  00:38:00      275.928     -228.080      -71.240      333.315      120.333      161.531   111098.730    14479.948    26092.405       14.242        7.584      357.990      226.530        0.400      332.311        0.891      847.569
01/27/2021  00:39:00      275.428     -307.890      -97.293      537.933      171.998      250.508   289371.942    29583.211    62754.173       28.083       19.085      413.106      361.170        0.764      332.535        1.268      847.584
01/27/2021  00:40:00      131.645     -135.989      -49.724      276.902      122.854      130.664    76674.537    15092.999    17073.000        7.355        5.442      189.270      181.475        0.919      332.295        0.865      847.590
01/27/2021  00:41:00      157.146     -138.668      -58.656      316.632      113.411      156.015   100256.023    12862.115    24340.716        9.238        6.873      209.580      214.292        1.045      332.207        0.719      847.624
01/27/2021  00:42:00       63.724     -171.877      -15.858      201.463       86.452       87.211    40587.496     7473.986     7605.683        4.475        2.783      183.310      122.440        0.446      332.125        0.581      847.623
01/27/2021  00:43:00      182.124     -180.113      -54.065      173.441      100.921       78.826    30081.725    10185.039     6213.523        5.750        2.324      256.144      109.078        0.181      332.070        0.493      847.581
01/27/2021  00:44:00      116.085     -145.202      -67.081      449.366      103.337      214.348   201929.636    10678.538    45945.278       14.875       12.928      185.901      304.387        2.681      332.299        0.876      847.605
01/27/2021  00:45:00      102.733      -48.709      -55.411      357.410       70.729      173.827   127742.145     5002.570    30215.993        8.944        8.148      113.696      245.432        4.660      332.241        0.779      847.672
01/27/2021  00:46:00      107.206     -151.538      -31.854      318.892      108.985      152.068   101692.288    11877.672    23124.738        8.605        6.835      185.626      212.961        1.316      332.189        0.690      847.675
01/27/2021  00:47:00      222.002     -127.820      -70.165      491.102      112.317      236.222   241181.076    12615.082    55800.718       19.001       15.480      256.170      336.058        1.721      332.273        0.835      847.614
01/27/2021  00:48:00      122.266     -160.506      -61.855      348.520      112.345      166.787   121465.994    12621.480    27817.806       10.319        8.095      201.770      233.216        1.336      332.137        0.605      847.536
01/27/2021  00:49:00      130.876     -109.521      -91.162      551.351      106.631      257.683   303988.464    11370.172    66400.415       20.952       19.088      170.656      368.718        4.668      332.376        1.007      847.482
01/27/2021  00:50:00      524.960     -217.048     -202.744      895.354       95.811      423.633   801657.993     9179.816   179465.308       67.685       49.515      568.061      614.438        1.170      333.138        2.281      847.489
01/27/2021  00:51:00      890.576     -278.439     -376.098     1231.752      121.130      571.377  1517214.185    14672.456   326471.871      143.487       92.918      933.088      836.457        0.804      334.534        4.619      847.475
01/27/2021  00:52:00      907.690     -234.866     -434.456     1297.844      149.889      613.639  1684398.073    22466.802   376552.219      157.521      104.171      937.584      889.279        0.900      335.205        5.740      847.494
01/27/2021  00:53:00     1001.229     -337.774     -411.020     1215.992      137.597      566.935  1478637.642    18933.056   321414.961      155.188       90.949     1056.670      827.250        0.613      334.799        5.060      847.448
01/27/2021  00:54:00      803.846     -322.467     -338.371     1067.127      190.939      493.014  1138759.725    36457.698   243063.182      114.119       70.914      866.114      722.102        0.695      334.000        3.721      847.360
01/27/2021  00:55:00      675.099     -197.706     -283.833     1084.115      155.471      518.163  1175306.143    24171.176   268493.027      102.139       73.399      703.453      746.024        1.125      333.864        3.498      847.431
01/27/2021  00:56:00      817.216     -192.540     -338.530     1216.648      111.927      572.792  1480232.815    12527.591   328090.712      131.981       91.043      839.592      832.637        0.984      334.461        4.496      847.482
01/27/2021  00:57:00      525.975     -125.226     -223.143     1014.171       74.199      482.408  1028543.829     5505.491   232717.893       80.419       63.338      540.677      698.039        1.667      333.635        3.114      847.487
01/27/2021  00:58:00      233.058      -67.259      -30.429      443.786      133.876      223.200   196946.443    17922.730    49818.344       16.217       13.234      242.569      307.331        1.605      332.361        0.978      847.454
01/27/2021  00:59:00      229.395     -135.419      -53.448      480.304      127.571      216.191   230691.622    16274.239    46738.663       18.370       14.685      266.384      312.790        1.379      332.265        0.820      847.395
01/27/2021  01:00:00      148.545     -170.362      -43.013      356.838      108.895      174.265   127333.002    11858.160    30368.268       11.121        8.478      226.028      238.395        1.112      331.968        0.329      847.422
01/27/2021  01:01:00       96.516      -78.979      -29.560      330.002      107.276      154.946   108901.212    11508.211    24008.152        8.039        7.221      124.711      216.489        3.013      331.921        0.251      847.486
01/27/2021  01:02:00       91.283      -50.818      -23.466      290.708       89.087      143.065    84510.982     7936.553    20467.553        6.217        5.646      104.475      194.462        3.465      331.970        0.330      847.519
01/27/2021  01:03:00      161.943     -109.987      -43.563      301.289      100.067      147.580    90774.857    10013.372    21779.848        8.137        6.128      195.761      202.505        1.070      331.821        0.085      847.517
01/27/2021  01:04:00      149.844     -131.466      -27.559      384.574      110.439      186.577   147896.965    12196.734    34811.149       11.766        9.745      199.340      259.873        1.700      331.990        0.363      847.485
01/27/2021  01:05:00      244.825     -241.468      -84.555      486.970      143.351      219.087   237139.478    20549.642    47999.092       21.548       15.284      343.869      306.931        0.797      332.078        0.510      847.465
01/27/2021  01:06:00      210.198     -153.183      -54.992      482.484      147.598      231.538   232790.749    21785.260    53609.692       18.937       15.409      260.093      326.694        1.578      332.107        0.562      847.532
01/27/2021  01:07:00      320.170     -190.099      -82.469      501.470      118.246      230.949   251472.435    13982.083    53337.361       23.205       15.940      372.352      333.257        0.801      332.075        0.507      847.457
01/27/2021  01:08:00       57.321     -111.518      -47.379      432.764       96.450      216.573   187284.814     9302.615    46903.872       13.068       12.175      125.387      296.728        5.600      332.144        0.622      847.455
01/27/2021  01:09:00      161.078     -202.054      -63.453      459.735       92.562      216.588   211356.075     8567.747    46910.176       16.876       13.342      258.403      311.169        1.450      332.075        0.507      847.564
01/27/2021  01:10:00      264.165     -170.247     -105.630      697.167       55.826      330.260   486041.165     3116.542   109071.527       35.395       29.911      314.272      478.155        2.315      332.295        0.879      847.496
01/27/2021  01:11:00      177.129     -214.148      -55.254      422.231       78.531      198.469   178279.196     6167.189    39389.768       15.201       11.192      277.910      286.106        1.060      331.884        0.190      847.547
01/27/2021  01:12:00      165.964      -89.242      -62.014      423.840      112.940      201.103   179639.933    12755.378    40442.569       13.605       11.642      188.436      287.113        2.322      331.861        0.153      847.574
01/27/2021  01:13:00      130.590     -156.763      -61.287      534.051      100.742      259.395   285210.798    10149.001    67285.890       20.394       18.132      204.030      365.368        3.207      332.210        0.734      847.637
01/27/2021  01:14:00      145.348      -78.143      -78.912      602.965      219.999      300.431   363567.369    48399.562    90258.841       26.773       25.111      165.022      386.235        5.478      332.222        0.758      847.645
01/27/2021  01:15:00      101.498      -18.883      -49.868      526.575      160.726      260.263   277281.352    25832.887    67737.052       19.192       18.543      103.239      347.821       11.351      332.260        0.817      847.609
01/27/2021  01:16:00      162.386      -40.500      -54.393      576.406       64.341      280.419   332243.315     4139.788    78634.816       22.290       20.751      167.361      398.580        5.672      332.199        0.718      847.601
01/27/2021  01:17:00      215.826     -137.629      -52.531      498.902       93.004      243.083   248902.731     8649.748    59089.477       19.239       15.832      255.973      340.421        1.769      332.003        0.390      847.658
01/27/2021  01:18:00      182.303      -59.543      -73.733      613.552       71.867      284.633   376446.251     5164.838    81015.879       25.232       23.131      191.781      407.625        4.518      332.142        0.624      847.696
01/27/2021  01:19:00      114.593     -121.382      -28.330      381.834      134.819      185.703   145797.013    18176.233    34485.444       11.352        9.923      166.928      250.444        2.251      331.925        0.257      847.704
01/27/2021  01:20:00      213.484     -327.368      -98.256      579.953      112.528      283.517   336345.696    12662.525    80382.081       29.580       21.470      390.827      391.661        1.004      332.199        0.714      847.745
01/27/2021  01:21:00      243.539     -165.441     -101.551      636.761      101.746      300.077   405464.660    10352.169    90046.115       30.132       25.293      294.418      430.824        2.141      332.187        0.698      847.739
01/27/2021  01:22:00      257.701     -190.925      -89.805      584.269      125.256      278.195   341370.669    15688.966    77392.192       27.260       21.723      320.722      397.678        1.537      331.963        0.325      847.717
01/27/2021  01:23:00      227.954      -50.377     -107.186      673.846      109.204      313.451   454068.134    11925.471    98251.218       31.500       28.212      233.454      456.574        3.825      332.103        0.564      847.699
01/27/2021  01:24:00      215.726     -116.179      -72.393      558.791       99.254      267.169   312247.801     9851.312    71379.093       22.929       19.674      245.021      382.625        2.439      331.959        0.321      847.743
01/27/2021  01:25:00      135.744      -93.964      -64.768      577.483       54.954      272.492   333487.146     3019.928    74252.015       22.102       20.538      165.093      393.838        5.691      332.048        0.470      847.847
01/27/2021  01:26:00       67.172     -109.585      -48.170      455.208       83.864      220.286   207214.352     7033.181    48526.069       14.075       13.139      128.534      310.590        5.839      331.948        0.298      847.865
01/27/2021  01:27:00      211.311      -29.989     -100.872      778.012       74.989      373.257   605303.324     5623.392   139321.104       40.283       37.512      213.428      537.528        6.343      332.125        0.605      847.838
01/27/2021  01:28:00      -10.686      -76.698      -28.078      497.674      108.812      244.371   247679.805    11839.990    59717.330       16.294       15.962       77.438      343.138       19.635      331.719       -0.077      847.771
01/27/2021  01:29:00      142.007      -89.003      -51.692      584.181      115.233      283.443   341267.804    13278.698    80339.857       23.273       21.744      167.593      401.969        5.753      331.788        0.040      847.708
01/27/2021  01:30:00       39.572      -19.550      -19.855      563.557       61.940      264.232   317596.983     3836.540    69818.496       19.671       19.563       44.138      382.968       75.283      331.735       -0.048      847.669
01/27/2021  01:31:00       81.200      -10.761      -36.864      531.019       96.421      251.725   281981.075     9296.989    63365.511       18.128       17.732       81.910      360.309       19.350      331.775        0.017      847.688
01/27/2021  01:32:00      125.876      -87.541      -48.139      605.895       97.883      290.174   367108.855     9581.060    84200.934       24.326       23.045      153.324      415.914        7.358      331.828        0.108      847.691
01/27/2021  01:33:00       60.352     -154.774       -2.735      330.758      128.039      151.963   109400.888    16393.950    23092.713        8.822        7.444      166.124      211.139        1.615      331.009       -1.251      847.662
01/27/2021  01:34:00      -62.676      -31.045        7.558      509.314       84.812      241.565   259401.100     7193.121    58353.542       16.488       16.247       69.943      346.226       24.504      331.402       -0.600      847.703
01/27/2021  01:35:00       62.230      -44.060       -1.692      520.131      119.200      248.929   270536.112    14208.758    61965.816       17.619       17.336       76.248      351.691       21.275      331.321       -0.731      847.680
01/27/2021  01:36:00      221.548      -76.872      -29.967      560.057      152.688      254.211   313664.013    23313.629    64623.419       22.866       20.080      234.505      365.451        2.429      330.904       -1.416      847.623
01/27/2021  01:37:00      212.904     -174.837      -41.326      520.320      152.035      250.276   270732.846    23114.588    62637.851       21.697       17.824      275.493      351.855        1.631      330.362       -2.307      847.566
01/27/2021  01:38:00      188.115     -183.219      -62.602      594.020      120.312      266.899   352859.633    14474.893    71234.865       25.563       21.928      262.596      387.514        2.178      330.426       -2.202      847.524
01/27/2021  01:39:00      311.481     -231.701      -43.349      522.351      119.921      251.383   272850.981    14381.051    63193.659       25.143       17.521      388.208      352.574        0.825      330.180       -2.606      847.476
01/27/2021  01:40:00      226.733     -177.088      -59.115      548.267      120.135      266.029   300596.313    14432.357    70771.220       23.595       19.290      287.694      374.326        1.693      330.417       -2.216      847.555
01/27/2021  01:41:00      172.512      -41.655      -19.269      468.865      101.611      232.426   219834.249    10324.878    54021.842       15.796       14.209      177.469      319.205        3.235      330.071       -2.785      847.591
01/27/2021  01:42:00      300.635      -52.839      -34.586      546.468      118.434      261.005   298627.741    14026.529    68123.383       23.749       19.039      305.243      370.233        1.471      330.187       -2.593      847.559
01/27/2021  01:43:00       91.234       20.345      -42.028       21.448       16.343       17.453      460.037      267.095      304.624        0.577        0.052       93.475       14.205        0.023      330.103       -2.735      847.580
01/27/2021  01:44:00     1219.984      -69.695     -502.569     1241.897      101.044      504.225  1542307.498    10209.911   254242.857      177.594       90.338     1221.973      792.484        0.421      333.696        3.222      847.526
01/27/2021  01:45:00      883.450     -129.058     -358.832     1209.678       61.579      502.292  1463321.927     3791.963   252297.005      132.233       85.971      892.827      778.463        0.760      332.631        1.460      847.497
01/27/2021  01:46:00     2807.613     -226.443    -1302.765     1215.030      153.039      577.090  1476298.932    23421.039   333032.594      573.162       91.638     2816.730      836.378        0.088      338.892       11.894      847.500
01/27/2021  01:47:00     2596.019      -27.448    -1170.670     1423.138       71.611      647.046  2025321.588     5128.158   418668.578      527.937      122.456     2596.164      958.096        0.136      337.964       10.345      847.430
01/27/2021  01:48:00     3486.000       19.000    -1558.000        0.000        0.000        0.000        0.000        0.000        0.000      728.996        0.000     3486.052        0.000        0.000      340.420       14.420      847.430
01/27/2021  01:49:00     3486.000       19.000    -1558.000        0.000        0.000        0.000        0.000        0.000        0.000      728.996        0.000     3486.052        0.000        0.000      340.420       14.420      847.430
01/27/2021  01:50:00     3486.000       19.000    -1558.000        0.000        0.000        0.000        0.000        0.000        0.000      728.996        0.000     3486.052        0.000        0.000      340.420       14.420      847.430
01/27/2021  01:51:00     2559.817      -54.985    -1153.000     1507.824      120.447      659.339  2273533.781    14507.599   434727.265      530.342      136.138     2560.407      998.479        0.152      337.263        9.181      847.471
01/27/2021  01:52:00      -37.996       58.632       29.037       64.638      138.990       48.945     4178.062    19318.282     2395.660        1.580        1.295       69.867       86.602        1.536      329.499       -3.734      847.622
01/27/2021  01:53:00      -67.000      121.000       51.000        0.000        0.000        0.000        0.000        0.000        0.000        1.087        0.000      138.311        0.000        0.000      329.620       -3.540      847.630
01/27/2021  01:54:00       70.991      -68.406      -25.625      195.901      268.893      108.781    38377.125    72303.278    11833.405        6.642        6.126       98.585      190.201        3.722      329.295       -4.071      847.550
01/27/2021  01:55:00      349.000     -450.000     -180.000        0.000        0.000        0.000        0.000        0.000        0.000       17.835        0.000      569.474        0.000        0.000      328.640       -5.140      847.390
01/27/2021  01:56:00      349.000     -450.000     -180.000        0.000        0.000        0.000        0.000        0.000        0.000       17.835        0.000      569.474        0.000        0.000      328.640       -5.140      847.390
01/27/2021  01:57:00      349.000     -450.000     -180.000        0.000        0.000        0.000        0.000        0.000        0.000       17.835        0.000      569.474        0.000        0.000      328.640       -5.140      847.390
01/27/2021  01:58:00      349.000     -450.000     -180.000        0.000        0.000        0.000        0.000        0.000        0.000       17.835        0.000      569.474        0.000        0.000      328.640       -5.140      847.390
01/27/2021  01:59:00      349.000     -450.000     -180.000        0.000        0.000        0.000        0.000        0.000        0.000       17.835        0.000      569.474        0.000        0.000      328.640       -5.140      847.390
01/27/2021  02:00:00      349.000     -450.000     -180.000        0.000        0.000        0.000        0.000        0.000        0.000       17.835        0.000      569.474        0.000        0.000      328.640       -5.140      847.390
01/27/2021  02:01:00      349.000     -450.000     -180.000        0.000        0.000        0.000        0.000        0.000        0.000       17.835        0.000      569.474        0.000        0.000      328.640       -5.140      847.390
01/27/2021  02:02:00      808.861     -236.902     -396.524     1216.534      133.074      535.746  1479955.081    17708.612   287023.409      132.582       89.234      842.840      807.147        0.917      331.405       -0.557      847.600
01/27/2021  02:03:00      179.000     -144.000     -126.000        0.000        0.000        0.000        0.000        0.000        0.000        3.433        0.000      229.732        0.000        0.000      329.680       -3.430      847.680
01/27/2021  02:04:00      374.993     -229.004     -208.499     1008.022      120.065      455.240  1016108.698    14415.587   207243.594       73.692       61.888      439.389      677.250        2.376      331.159       -0.974      847.604
01/27/2021  02:05:00      886.525     -157.524     -421.050     1302.157       85.148      616.615  1695612.520     7250.173   380213.781      153.516      104.154      900.411      895.028        0.988      332.889        1.908      847.613
01/27/2021  02:06:00      946.310     -156.627     -458.432     1262.603       76.872      624.651  1594166.430     5909.233   390188.665      155.985       99.513      959.185      886.670        0.855      332.333        0.978      847.640
01/27/2021  02:07:00     1137.169     -234.292     -529.700     1310.843      139.276      617.910  1718310.188    19397.812   381812.622      187.367      105.976     1161.054      896.685        0.596      332.725        1.634      847.674
01/27/2021  02:08:00     3306.747     -241.702    -1450.568      236.283      108.220       77.046    55829.833    11711.535     5936.107      658.530        3.674     3315.569      136.799        0.002      339.138       12.262      847.629
01/27/2021  02:09:00     3493.000     -158.000    -1513.000        0.000        0.000        0.000        0.000        0.000        0.000      725.759        0.000     3496.572        0.000        0.000      339.320       12.560      847.620
01/27/2021  02:10:00     2223.377      -92.634     -959.453     1558.977      108.246      710.863  2430410.349    11717.180   505326.816      440.944      147.373     2225.306     1052.024        0.223      335.903        6.895      847.645
01/27/2021  02:11:00      576.786      -50.807     -261.382     1223.786       98.182      576.703  1497651.309     9639.658   332586.820      112.138       91.994      579.019      837.695        2.093      331.658       -0.132      847.679
01/27/2021  02:12:00      593.383       16.473     -226.355     1385.993       87.292      652.418  1920977.863     7619.848   425649.546      137.846      117.712      593.611      947.859        2.550      331.370       -0.594      847.736
01/27/2021  02:13:00      620.159       18.510     -232.253     1280.116       80.601      622.984  1638696.916     6496.592   388109.662      123.570      101.665      620.435      890.001        2.058      330.686       -1.728      847.702
01/27/2021  02:14:00      975.473       10.959     -400.433     1466.116      116.438      711.500  2149496.349    13557.716   506232.845      189.015      133.464      975.535     1018.962        1.091      332.023        0.499      847.696
01/27/2021  02:15:00      675.489      -58.675     -250.695      932.781       84.691      430.708   870079.507     7172.566   185509.491       79.247       53.138      678.032      630.928        0.866      328.829       -4.792      847.592
01/27/2021  02:16:00      723.000     -118.000     -249.000        0.000        0.000        0.000        0.000        0.000        0.000       29.933        0.000      732.566        0.000        0.000      327.840       -6.440      847.580
01/27/2021  02:17:00      594.588      -23.753     -185.383      107.277       78.736       53.147    11508.459     6199.322     2824.566       20.450        1.027      595.062       84.081        0.020      327.416       -7.129      847.639
01/27/2021  02:18:00     1098.419       -4.278     -443.012     1053.217       82.136      536.020  1109266.353     6746.246   287317.371      140.280       70.166     1098.428      752.362        0.469      329.873       -3.064      847.678
01/27/2021  02:19:00     2967.000     -150.000    -1394.000        0.000        0.000        0.000        0.000        0.000        0.000      538.441        0.000     2970.789        0.000        0.000      338.540       11.250      847.670
01/27/2021  02:20:00     2967.000     -150.000    -1394.000        0.000        0.000        0.000        0.000        0.000        0.000      538.441        0.000     2970.789        0.000        0.000      338.540       11.250      847.670
01/27/2021  02:21:00     2967.000     -150.000    -1394.000        0.000        0.000        0.000        0.000        0.000        0.000      538.441        0.000     2970.789        0.000        0.000      338.540       11.250      847.670
01/27/2021  02:22:00     2967.000     -150.000    -1394.000        0.000        0.000        0.000        0.000        0.000        0.000      538.441        0.000     2970.789        0.000        0.000      338.540       11.250      847.670
01/27/2021  02:23:00     2967.000     -150.000    -1394.000        0.000        0.000        0.000        0.000        0.000        0.000      538.441        0.000     2970.789        0.000        0.000      338.540       11.250      847.670
01/27/2021  02:24:00     2967.000     -150.000    -1394.000        0.000        0.000        0.000        0.000        0.000        0.000      538.441        0.000     2970.789        0.000        0.000      338.540       11.250      847.670
01/27/2021  02:25:00     2967.000     -150.000    -1394.000        0.000        0.000        0.000        0.000        0.000        0.000      538.441        0.000     2970.789        0.000        0.000      338.540       11.250      847.670
01/27/2021  02:26:00     2967.000     -150.000    -1394.000        0.000        0.000        0.000        0.000        0.000        0.000      538.441        0.000     2970.789        0.000        0.000      338.540       11.250      847.670
01/27/2021  02:27:00     2967.000     -150.000    -1394.000        0.000        0.000        0.000        0.000        0.000        0.000      538.441        0.000     2970.789        0.000        0.000      338.540       11.250      847.670
01/27/2021  02:28:00     2967.000     -150.000    -1394.000        0.000        0.000        0.000        0.000        0.000        0.000      538.441        0.000     2970.789        0.000        0.000      338.540       11.250      847.670
01/27/2021  02:29:00     2967.000     -150.000    -1394.000        0.000        0.000        0.000        0.000        0.000        0.000      538.441        0.000     2970.789        0.000        0.000      338.540       11.250      847.670
01/27/2021  02:30:00     2967.000     -150.000    -1394.000        0.000        0.000        0.000        0.000        0.000        0.000      538.441        0.000     2970.789        0.000        0.000      338.540       11.250      847.670
01/27/2021  02:31:00     2967.000     -150.000    -1394.000        0.000        0.000        0.000        0.000        0.000        0.000      538.441        0.000     2970.789        0.000        0.000      338.540       11.250      847.670
01/27/2021  02:32:00     2967.000     -150.000    -1394.000        0.000        0.000        0.000        0.000        0.000        0.000      538.441        0.000     2970.789        0.000        0.000      338.540       11.250      847.670
01/27/2021  02:33:00     2967.000     -150.000    -1394.000        0.000        0.000        0.000        0.000        0.000        0.000      538.441        0.000     2970.789        0.000        0.000      338.540       11.250      847.670
01/27/2021  02:34:00     2967.000     -150.000    -1394.000        0.000        0.000        0.000        0.000        0.000        0.000      538.441        0.000     2970.789        0.000        0.000      338.540       11.250      847.670
01/27/2021  02:35:00     2967.000     -150.000    -1394.000        0.000        0.000        0.000        0.000        0.000        0.000      538.441        0.000     2970.789        0.000        0.000      338.540       11.250      847.670
01/27/2021  02:36:00     2967.000     -150.000    -1394.000        0.000        0.000        0.000        0.000        0.000        0.000      538.441        0.000     2970.789        0.000        0.000      338.540       11.250      847.670
01/27/2021  02:37:00     2967.000     -150.000    -1394.000        0.000        0.000        0.000        0.000        0.000        0.000      538.441        0.000     2970.789        0.000        0.000      338.540       11.250      847.670
01/27/2021  02:38:00     2967.000     -150.000    -1394.000        0.000        0.000        0.000        0.000        0.000        0.000      538.441        0.000     2970.789        0.000        0.000      338.540       11.250      847.670
01/27/2021  02:39:00     2967.000     -150.000    -1394.000        0.000        0.000        0.000        0.000        0.000        0.000      538.441        0.000     2970.789        0.000        0.000      338.540       11.250      847.670
01/27/2021  02:40:00     2967.000     -150.000    -1394.000        0.000        0.000        0.000        0.000        0.000        0.000      538.441        0.000     2970.789        0.000        0.000      338.540       11.250      847.670
01/27/2021  02:41:00     2967.000     -150.000    -1394.000        0.000        0.000        0.000        0.000        0.000        0.000      538.441        0.000     2970.789        0.000        0.000      338.540       11.250      847.670
01/27/2021  02:42:00     2967.000     -150.000    -1394.000        0.000        0.000        0.000        0.000        0.000        0.000      538.441        0.000     2970.789        0.000        0.000      338.540       11.250      847.670
01/27/2021  02:43:00     2967.000     -150.000    -1394.000        0.000        0.000        0.000        0.000        0.000        0.000      538.441        0.000     2970.789        0.000        0.000      338.540       11.250      847.670
01/27/2021  02:44:00     2967.000     -150.000    -1394.000        0.000        0.000        0.000        0.000        0.000        0.000      538.441        0.000     2970.789        0.000        0.000      338.540       11.250      847.670
01/27/2021  02:45:00     2967.000     -150.000    -1394.000        0.000        0.000        0.000        0.000        0.000        0.000      538.441        0.000     2970.789        0.000        0.000      338.540       11.250      847.670
01/27/2021  02:46:00     2967.000     -150.000    -1394.000        0.000        0.000        0.000        0.000        0.000        0.000      538.441        0.000     2970.789        0.000        0.000      338.540       11.250      847.670
01/27/2021  02:47:00     2967.000     -150.000    -1394.000        0.000        0.000        0.000        0.000        0.000        0.000      538.441        0.000     2970.789        0.000        0.000      338.540       11.250      847.670
01/27/2021  02:48:00     2967.000     -150.000    -1394.000        0.000        0.000        0.000        0.000        0.000        0.000      538.441        0.000     2970.789        0.000        0.000      338.540       11.250      847.670
01/27/2021  02:49:00     2967.000     -150.000    -1394.000        0.000        0.000        0.000        0.000        0.000        0.000      538.441        0.000     2970.789        0.000        0.000      338.540       11.250      847.670
01/27/2021  02:50:00     2967.000     -150.000    -1394.000        0.000        0.000        0.000        0.000        0.000        0.000      538.441        0.000     2970.789        0.000        0.000      338.540       11.250      847.670
01/27/2021  02:51:00     2967.000     -150.000    -1394.000        0.000        0.000        0.000        0.000        0.000        0.000      538.441        0.000     2970.789        0.000        0.000      338.540       11.250      847.670
01/27/2021  02:52:00     2967.000     -150.000    -1394.000        0.000        0.000        0.000        0.000        0.000        0.000      538.441        0.000     2970.789        0.000        0.000      338.540       11.250      847.670
01/27/2021  02:53:00     2967.000     -150.000    -1394.000        0.000        0.000        0.000        0.000        0.000        0.000      538.441        0.000     2970.789        0.000        0.000      338.540       11.250      847.670
01/27/2021  02:54:00     2967.000     -150.000    -1394.000        0.000        0.000        0.000        0.000        0.000        0.000      538.441        0.000     2970.789        0.000        0.000      338.540       11.250      847.670
01/27/2021  02:55:00     2967.000     -150.000    -1394.000        0.000        0.000        0.000        0.000        0.000        0.000      538.441        0.000     2970.789        0.000        0.000      338.540       11.250      847.670
01/27/2021  02:56:00     2967.000     -150.000    -1394.000        0.000        0.000        0.000        0.000        0.000        0.000      538.441        0.000     2970.789        0.000        0.000      338.540       11.250      847.670
01/27/2021  02:57:00     2967.000     -150.000    -1394.000        0.000        0.000        0.000        0.000        0.000        0.000      538.441        0.000     2970.789        0.000        0.000      338.540       11.250      847.670
01/27/2021  02:58:00     2967.000     -150.000    -1394.000        0.000        0.000        0.000        0.000        0.000        0.000      538.441        0.000     2970.789        0.000        0.000      338.540       11.250      847.670
01/27/2021  02:59:00     2967.000     -150.000    -1394.000        0.000        0.000        0.000        0.000        0.000        0.000      538.441        0.000     2970.789        0.000        0.000      338.540       11.250      847.670
01/27/2021  03:00:00     2967.000     -150.000    -1394.000        0.000        0.000        0.000        0.000        0.000        0.000      538.441        0.000     2970.789        0.000        0.000      338.540       11.250      847.670
01/27/2021  03:01:00     2967.000     -150.000    -1394.000        0.000        0.000        0.000        0.000        0.000        0.000      538.441        0.000     2970.789        0.000        0.000      338.540       11.250      847.670
01/27/2021  03:02:00     2967.000     -150.000    -1394.000        0.000        0.000        0.000        0.000        0.000        0.000      538.441        0.000     2970.789        0.000        0.000      338.540       11.250      847.670
01/27/2021  03:03:00     2967.000     -150.000    -1394.000        0.000        0.000        0.000        0.000        0.000        0.000      538.441        0.000     2970.789        0.000        0.000      338.540       11.250      847.670
01/27/2021  03:04:00     2967.000     -150.000    -1394.000        0.000        0.000        0.000        0.000        0.000        0.000      538.441        0.000     2970.789        0.000        0.000      338.540       11.250      847.670
01/27/2021  03:05:00     2967.000     -150.000    -1394.000        0.000        0.000        0.000        0.000        0.000        0.000      538.441        0.000     2970.789        0.000        0.000      338.540       11.250      847.670
01/27/2021  03:06:00     2967.000     -150.000    -1394.000        0.000        0.000        0.000        0.000        0.000        0.000      538.441        0.000     2970.789        0.000        0.000      338.540       11.250      847.670
01/27/2021  03:07:00     2967.000     -150.000    -1394.000        0.000        0.000        0.000        0.000        0.000        0.000      538.441        0.000     2970.789        0.000        0.000      338.540       11.250      847.670
01/27/2021  03:08:00     2967.000     -150.000    -1394.000        0.000        0.000        0.000        0.000        0.000        0.000      538.441        0.000     2970.789        0.000        0.000      338.540       11.250      847.670
01/27/2021  03:09:00     2967.000     -150.000    -1394.000        0.000        0.000        0.000        0.000        0.000        0.000      538.441        0.000     2970.789        0.000        0.000      338.540       11.250      847.670
01/27/2021  03:10:00     2967.000     -150.000    -1394.000        0.000        0.000        0.000        0.000        0.000        0.000      538.441        0.000     2970.789        0.000        0.000      338.540       11.250      847.670
01/27/2021  03:11:00     2967.000     -150.000    -1394.000        0.000        0.000        0.000        0.000        0.000        0.000      538.441        0.000     2970.789        0.000        0.000      338.540       11.250      847.670
01/27/2021  03:12:00     2967.000     -150.000    -1394.000        0.000        0.000        0.000        0.000        0.000        0.000      538.441        0.000     2970.789        0.000        0.000      338.540       11.250      847.670
01/27/2021  03:13:00     2967.000     -150.000    -1394.000        0.000        0.000        0.000        0.000        0.000        0.000      538.441        0.000     2970.789        0.000        0.000      338.540       11.250      847.670
01/27/2021  03:14:00     2967.000     -150.000    -1394.000        0.000        0.000        0.000        0.000        0.000        0.000      538.441        0.000     2970.789        0.000        0.000      338.540       11.250      847.670
01/27/2021  03:15:00     2967.000     -150.000    -1394.000        0.000        0.000        0.000        0.000        0.000        0.000      538.441        0.000     2970.789        0.000        0.000      338.540       11.250      847.670
01/27/2021  03:16:00     2967.000     -150.000    -1394.000        0.000        0.000        0.000        0.000        0.000        0.000      538.441        0.000     2970.789        0.000        0.000      338.540       11.250      847.670
01/27/2021  03:17:00     2967.000     -150.000    -1394.000        0.000        0.000        0.000        0.000        0.000        0.000      538.441        0.000     2970.789        0.000        0.000      338.540       11.250      847.670
01/27/2021  03:18:00     2967.000     -150.000    -1394.000        0.000        0.000        0.000        0.000        0.000        0.000      538.441        0.000     2970.789        0.000        0.000      338.540       11.250      847.670
01/27/2021  03:19:00     2967.000     -150.000    -1394.000        0.000        0.000        0.000        0.000        0.000        0.000      538.441        0.000     2970.789        0.000        0.000      338.540       11.250      847.670
01/27/2021  03:20:00     2967.000     -150.000    -1394.000        0.000        0.000        0.000        0.000        0.000        0.000      538.441        0.000     2970.789        0.000        0.000      338.540       11.250      847.670
01/27/2021  03:21:00     2967.000     -150.000    -1394.000        0.000        0.000        0.000        0.000        0.000        0.000      538.441        0.000     2970.789        0.000        0.000      338.540       11.250      847.670
01/27/2021  03:22:00     2967.000     -150.000    -1394.000        0.000        0.000        0.000        0.000        0.000        0.000      538.441        0.000     2970.789        0.000        0.000      338.540       11.250      847.670
01/27/2021  03:23:00     2967.000     -150.000    -1394.000        0.000        0.000        0.000        0.000        0.000        0.000      538.441        0.000     2970.789        0.000        0.000      338.540       11.250      847.670
01/27/2021  03:24:00     2967.000     -150.000    -1394.000        0.000        0.000        0.000        0.000        0.000        0.000      538.441        0.000     2970.789        0.000        0.000      338.540       11.250      847.670
01/27/2021  03:25:00     2967.000     -150.000    -1394.000        0.000        0.000        0.000        0.000        0.000        0.000      538.441        0.000     2970.789        0.000        0.000      338.540       11.250      847.670
01/27/2021  03:26:00     2967.000     -150.000    -1394.000        0.000        0.000        0.000        0.000        0.000        0.000      538.441        0.000     2970.789        0.000        0.000      338.540       11.250      847.670
01/27/2021  03:27:00     2967.000     -150.000    -1394.000        0.000        0.000        0.000        0.000        0.000        0.000      538.441        0.000     2970.789        0.000        0.000      338.540       11.250      847.670
01/27/2021  03:28:00     2967.000     -150.000    -1394.000        0.000        0.000        0.000        0.000        0.000        0.000      538.441        0.000     2970.789        0.000        0.000      338.540       11.250      847.670
01/27/2021  03:29:00     2967.000     -150.000    -1394.000        0.000        0.000        0.000        0.000        0.000        0.000      538.441        0.000     2970.789        0.000        0.000      338.540       11.250      847.670
01/27/2021  03:30:00     2967.000     -150.000    -1394.000        0.000        0.000        0.000        0.000        0.000        0.000      538.441        0.000     2970.789        0.000        0.000      338.540       11.250      847.670
01/27/2021  03:31:00     2967.000     -150.000    -1394.000        0.000        0.000        0.000        0.000        0.000        0.000      538.441        0.000     2970.789        0.000        0.000      338.540       11.250      847.670
01/27/2021  03:32:00     2967.000     -150.000    -1394.000        0.000        0.000        0.000        0.000        0.000        0.000      538.441        0.000     2970.789        0.000        0.000      338.540       11.250      847.670
01/27/2021  03:33:00     2967.000     -150.000    -1394.000        0.000        0.000        0.000        0.000        0.000        0.000      538.441        0.000     2970.789        0.000        0.000      338.540       11.250      847.670
01/27/2021  03:34:00     2967.000     -150.000    -1394.000        0.000        0.000        0.000        0.000        0.000        0.000      538.441        0.000     2970.789        0.000        0.000      338.540       11.250      847.670
01/27/2021  03:35:00     2967.000     -150.000    -1394.000        0.000        0.000        0.000        0.000        0.000        0.000      538.441        0.000     2970.789        0.000        0.000      338.540       11.250      847.670
01/27/2021  03:36:00     2967.000     -150.000    -1394.000        0.000        0.000        0.000        0.000        0.000        0.000      538.441        0.000     2970.789        0.000        0.000      338.540       11.250      847.670
01/27/2021  03:37:00     2967.000     -150.000    -1394.000        0.000        0.000        0.000        0.000        0.000        0.000      538.441        0.000     2970.789        0.000        0.000      338.540       11.250      847.670
01/27/2021  03:38:00     2967.000     -150.000    -1394.000        0.000        0.000        0.000        0.000        0.000        0.000      538.441        0.000     2970.789        0.000        0.000      338.540       11.250      847.670
01/27/2021  03:39:00     2967.000     -150.000    -1394.000        0.000        0.000        0.000        0.000        0.000        0.000      538.441        0.000     2970.789        0.000        0.000      338.540       11.250      847.670
01/27/2021  03:40:00     2967.000     -150.000    -1394.000        0.000        0.000        0.000        0.000        0.000        0.000      538.441        0.000     2970.789        0.000        0.000      338.540       11.250      847.670
01/27/2021  03:41:00     2967.000     -150.000    -1394.000        0.000        0.000        0.000        0.000        0.000        0.000      538.441        0.000     2970.789        0.000        0.000      338.540       11.250      847.670
01/27/2021  03:42:00     2967.000     -150.000    -1394.000        0.000        0.000        0.000        0.000        0.000        0.000      538.441        0.000     2970.789        0.000        0.000      338.540       11.250      847.670
01/27/2021  03:43:00     2967.000     -150.000    -1394.000        0.000        0.000        0.000        0.000        0.000        0.000      538.441        0.000     2970.789        0.000        0.000      338.540       11.250      847.670
01/27/2021  03:44:00     2967.000     -150.000    -1394.000        0.000        0.000        0.000        0.000        0.000        0.000      538.441        0.000     2970.789        0.000        0.000      338.540       11.250      847.670
01/27/2021  03:45:00     2967.000     -150.000    -1394.000        0.000        0.000        0.000        0.000        0.000        0.000      538.441        0.000     2970.789        0.000        0.000      338.540       11.250      847.670
01/27/2021  03:46:00     2967.000     -150.000    -1394.000        0.000        0.000        0.000        0.000        0.000        0.000      538.441        0.000     2970.789        0.000        0.000      338.540       11.250      847.670
01/27/2021  03:47:00     2967.000     -150.000    -1394.000        0.000        0.000        0.000        0.000        0.000        0.000      538.441        0.000     2970.789        0.000        0.000      338.540       11.250      847.670
01/27/2021  03:48:00     2967.000     -150.000    -1394.000        0.000        0.000        0.000        0.000        0.000        0.000      538.441        0.000     2970.789        0.000        0.000      338.540       11.250      847.670
01/27/2021  03:49:00     2967.000     -150.000    -1394.000        0.000        0.000        0.000        0.000        0.000        0.000      538.441        0.000     2970.789        0.000        0.000      338.540       11.250      847.670
01/27/2021  03:50:00     2967.000     -150.000    -1394.000        0.000        0.000        0.000        0.000        0.000        0.000      538.441        0.000     2970.789        0.000        0.000      338.540       11.250      847.670
01/27/2021  03:51:00     2967.000     -150.000    -1394.000        0.000        0.000        0.000        0.000        0.000        0.000      538.441        0.000     2970.789        0.000        0.000      338.540       11.250      847.670
01/27/2021  03:52:00     2967.000     -150.000    -1394.000        0.000        0.000        0.000        0.000        0.000        0.000      538.441        0.000     2970.789        0.000        0.000      338.540       11.250      847.670
01/27/2021  03:53:00     2967.000     -150.000    -1394.000        0.000        0.000        0.000        0.000        0.000        0.000      538.441        0.000     2970.789        0.000        0.000      338.540       11.250      847.670
01/27/2021  03:54:00     2967.000     -150.000    -1394.000        0.000        0.000        0.000        0.000        0.000        0.000      538.441        0.000     2970.789        0.000        0.000      338.540       11.250      847.670
01/27/2021  03:55:00     2967.000     -150.000    -1394.000        0.000        0.000        0.000        0.000        0.000        0.000      538.441        0.000     2970.789        0.000        0.000      338.540       11.250      847.670
01/27/2021  03:56:00     2967.000     -150.000    -1394.000        0.000        0.000        0.000        0.000        0.000        0.000      538.441        0.000     2970.789        0.000        0.000      338.540       11.250      847.670
01/27/2021  03:57:00     2967.000     -150.000    -1394.000        0.000        0.000        0.000        0.000        0.000        0.000      538.441        0.000     2970.789        0.000        0.000      338.540       11.250      847.670
01/27/2021  03:58:00     2967.000     -150.000    -1394.000        0.000        0.000        0.000        0.000        0.000        0.000      538.441        0.000     2970.789        0.000        0.000      338.540       11.250      847.670
01/27/2021  03:59:00     2967.000     -150.000    -1394.000        0.000        0.000        0.000        0.000        0.000        0.000      538.441        0.000     2970.789        0.000        0.000      338.540       11.250      847.670
01/27/2021  04:00:00     2967.000     -150.000    -1394.000        0.000        0.000        0.000        0.000        0.000        0.000      538.441        0.000     2970.789        0.000        0.000      338.540       11.250      847.670
01/27/2021  04:01:00     2967.000     -150.000    -1394.000        0.000        0.000        0.000        0.000        0.000        0.000      538.441        0.000     2970.789        0.000        0.000      338.540       11.250      847.670
01/27/2021  04:02:00     2967.000     -150.000    -1394.000        0.000        0.000        0.000        0.000        0.000        0.000      538.441        0.000     2970.789        0.000        0.000      338.540       11.250      847.670
01/27/2021  04:03:00     2967.000     -150.000    -1394.000        0.000        0.000        0.000        0.000        0.000        0.000      538.441        0.000     2970.789        0.000        0.000      338.540       11.250      847.670
01/27/2021  04:04:00     2967.000     -150.000    -1394.000        0.000        0.000        0.000        0.000        0.000        0.000      538.441        0.000     2970.789        0.000        0.000      338.540       11.250      847.670
01/27/2021  04:05:00     2967.000     -150.000    -1394.000        0.000        0.000        0.000        0.000        0.000        0.000      538.441        0.000     2970.789        0.000        0.000      338.540       11.250      847.670
01/27/2021  04:06:00     2967.000     -150.000    -1394.000        0.000        0.000        0.000        0.000        0.000        0.000      538.441        0.000     2970.789        0.000        0.000      338.540       11.250      847.670
01/27/2021  04:07:00     2967.000     -150.000    -1394.000        0.000        0.000        0.000        0.000        0.000        0.000      538.441        0.000     2970.789        0.000        0.000      338.540       11.250      847.670
01/27/2021  04:08:00     2967.000     -150.000    -1394.000        0.000        0.000        0.000        0.000        0.000        0.000      538.441        0.000     2970.789        0.000        0.000      338.540       11.250      847.670
01/27/2021  04:09:00     2967.000     -150.000    -1394.000        0.000        0.000        0.000        0.000        0.000        0.000      538.441        0.000     2970.789        0.000        0.000      338.540       11.250      847.670
01/27/2021  04:10:00     2967.000     -150.000    -1394.000        0.000        0.000        0.000        0.000        0.000        0.000      538.441        0.000     2970.789        0.000        0.000      338.540       11.250      847.670
01/27/2021  04:11:00     2967.000     -150.000    -1394.000        0.000        0.000        0.000        0.000        0.000        0.000      538.441        0.000     2970.789        0.000        0.000      338.540       11.250      847.670
01/27/2021  04:12:00     2967.000     -150.000    -1394.000        0.000        0.000        0.000        0.000        0.000        0.000      538.441        0.000     2970.789        0.000        0.000      338.540       11.250      847.670
01/27/2021  04:13:00     2967.000     -150.000    -1394.000        0.000        0.000        0.000        0.000        0.000        0.000      538.441        0.000     2970.789        0.000        0.000      338.540       11.250      847.670
01/27/2021  04:14:00     2967.000     -150.000    -1394.000        0.000        0.000        0.000        0.000        0.000        0.000      538.441        0.000     2970.789        0.000        0.000      338.540       11.250      847.670
01/27/2021  04:15:00     2967.000     -150.000    -1394.000        0.000        0.000        0.000        0.000        0.000        0.000      538.441        0.000     2970.789        0.000        0.000      338.540       11.250      847.670
01/27/2021  04:16:00     2967.000     -150.000    -1394.000        0.000        0.000        0.000        0.000        0.000        0.000      538.441        0.000     2970.789        0.000        0.000      338.540       11.250      847.670
01/27/2021  04:17:00     2967.000     -150.000    -1394.000        0.000        0.000        0.000        0.000        0.000        0.000      538.441        0.000     2970.789        0.000        0.000      338.540       11.250      847.670
01/27/2021  04:18:00     2967.000     -150.000    -1394.000        0.000        0.000        0.000        0.000        0.000        0.000      538.441        0.000     2970.789        0.000        0.000      338.540       11.250      847.670
01/27/2021  04:19:00     2967.000     -150.000    -1394.000        0.000        0.000        0.000        0.000        0.000        0.000      538.441        0.000     2970.789        0.000        0.000      338.540       11.250      847.670
01/27/2021  04:20:00     2967.000     -150.000    -1394.000        0.000        0.000        0.000        0.000        0.000        0.000      538.441        0.000     2970.789        0.000        0.000      338.540       11.250      847.670
01/27/2021  04:21:00     2967.000     -150.000    -1394.000        0.000        0.000        0.000        0.000        0.000        0.000      538.441        0.000     2970.789        0.000        0.000      338.540       11.250      847.670
01/27/2021  04:22:00     2967.000     -150.000    -1394.000        0.000        0.000        0.000        0.000        0.000        0.000      538.441        0.000     2970.789        0.000        0.000      338.540       11.250      847.670
01/27/2021  04:23:00     2967.000     -150.000    -1394.000        0.000        0.000        0.000        0.000        0.000        0.000      538.441        0.000     2970.789        0.000        0.000      338.540       11.250      847.670
01/27/2021  04:24:00     2967.000     -150.000    -1394.000        0.000        0.000        0.000        0.000        0.000        0.000      538.441        0.000     2970.789        0.000        0.000      338.540       11.250      847.670
01/27/2021  04:25:00     2967.000     -150.000    -1394.000        0.000        0.000        0.000        0.000        0.000        0.000      538.441        0.000     2970.789        0.000        0.000      338.540       11.250      847.670
01/27/2021  04:26:00     2967.000     -150.000    -1394.000        0.000        0.000        0.000        0.000        0.000        0.000      538.441        0.000     2970.789        0.000        0.000      338.540       11.250      847.670
01/27/2021  04:27:00     2967.000     -150.000    -1394.000        0.000        0.000        0.000        0.000        0.000        0.000      538.441        0.000     2970.789        0.000        0.000      338.540       11.250      847.670
01/27/2021  04:28:00     2967.000     -150.000    -1394.000        0.000        0.000        0.000        0.000        0.000        0.000      538.441        0.000     2970.789        0.000        0.000      338.540       11.250      847.670
01/27/2021  04:29:00     1478.839     -147.521     -687.099     1501.224        2.500      713.107  2253674.279        6.252   508520.919      272.100      138.110     1486.178     1034.474        0.485      334.396        4.374      847.675
01/27/2021  04:30:00      435.200     -120.434      -96.438      917.993      176.364      396.122   842710.723    31104.399   156912.319       62.177       51.536      451.556      583.398        1.669      330.786       -1.596      847.593
01/27/2021  04:31:00      583.418     -205.933     -141.363     1018.147      132.438      493.953  1036622.779    17539.793   243989.399       85.021       64.908      618.697      704.197        1.295      330.716       -1.700      847.472
01/27/2021  04:32:00      601.238     -205.169     -200.981      998.060      146.290      506.347   996124.573    21400.881   256386.905       85.868       63.696      635.280      705.721        1.234      330.847       -1.480      847.467
01/27/2021  04:33:00     1505.538      -92.172     -679.619     1487.074      163.157      710.513  2211390.420    26620.224   504828.258      273.940      137.142     1508.357     1026.641        0.463      334.741        4.989      847.576
01/27/2021  04:34:00     1354.332     -221.005     -604.379     1573.259      100.663      754.413  2475144.978    10133.112   569138.613      265.079      152.721     1372.246     1087.615        0.628      334.342        4.334      847.672
01/27/2021  04:35:00      433.284     -136.244     -195.757     1007.826      121.177      482.906  1015713.585    14683.901   233198.561       75.385       63.180      454.200      694.722        2.340      331.392       -0.590      847.738
01/27/2021  04:36:00      553.323     -253.106     -179.261      973.126      236.198      466.637   946973.275    55789.570   217750.504       81.119       61.026      608.465      666.864        1.201      331.634       -0.195      847.717
01/27/2021  04:37:00      421.952     -138.615     -148.222      813.553      120.177      397.980   661868.789    14442.468   158388.380       52.679       41.735      444.137      564.894        1.618      331.667       -0.148      847.686
01/27/2021  04:38:00      249.472      -50.712      -93.174      700.613       88.544      339.182   490857.881     7840.064   115044.432       34.349       30.687      254.574      484.790        3.626      331.612       -0.245      847.709
01/27/2021  04:39:00      926.965     -239.470     -402.705     1251.438      176.843      604.654  1566097.589    31273.552   365606.847      152.049       98.149      957.398      867.497        0.821      333.884        3.545      847.728
01/27/2021  04:40:00      499.952     -152.300     -167.441      864.477      159.926      417.819   747321.292    25576.482   174572.862       62.414       47.374      522.634      596.466        1.302      331.994        0.390      847.663
01/27/2021  04:41:00     1387.648     -275.648     -604.305     1489.729      146.381      720.015  2219291.969    21427.530   518421.495      256.241      137.957     1414.762     1033.058        0.533      335.196        5.752      847.580
01/27/2021  04:42:00      561.937     -409.334     -213.176      885.588      182.846      433.370   784265.852    33432.681   187809.905       76.694       50.275      695.218      615.317        0.783      332.008        0.415      847.549
01/27/2021  04:43:00      546.305     -246.683     -242.234      964.046      184.461      492.931   929385.466    34025.763   242981.122       81.195       60.320      599.418      686.652        1.312      332.502        1.243      847.566
01/27/2021  04:44:00      295.467     -113.647     -131.763      697.294      207.631      308.773   486218.897    43110.696    95340.637       37.101       31.234      316.570      459.883        2.110      331.574       -0.316      847.599
01/27/2021  04:45:00      444.195     -159.999     -175.597      898.602      100.340      429.883   807484.999    10068.095   184799.647       62.785       50.118      472.133      619.590        1.722      332.268        0.848      847.574
01/27/2021  04:46:00      289.270      -98.758     -126.193      796.313       95.230      376.299   634114.838     9068.668   141601.197       44.690       39.239      305.664      544.503        3.173      331.800        0.070      847.627
01/27/2021  04:47:00      160.203     -141.082      -63.726      412.984      122.168      194.883   170555.801    14924.979    37979.388       13.650       11.173      213.469      279.756        1.717      331.193       -0.945      847.697
01/27/2021  04:48:00      265.682     -129.888     -110.044      652.268      101.368      307.705   425453.392    10275.544    94682.548       31.488       26.521      295.733      443.254        2.247      331.637       -0.206      847.677
01/27/2021  04:49:00      325.438     -215.791      -93.021      529.037      140.884      240.956   279879.988    19848.166    58059.987       25.938       17.889      390.481      349.512        0.801      331.418       -0.573      847.609
01/27/2021  04:50:00       46.475      -48.159      -27.091      341.478      129.035      159.835   116607.115    16650.112    25547.110        8.197        7.940       66.927      224.834       11.285      331.523       -0.406      847.549
01/27/2021  04:51:00      147.184      -75.294      -52.829      502.960      109.014      241.383   252969.217    11884.111    58265.719       17.655       16.156      165.325      343.868        4.326      331.759       -0.011      847.486
01/27/2021  04:52:00      248.349     -249.352      -80.417      587.616      143.809      278.223   345292.939    20681.078    77408.250       28.675       22.169      351.929      399.671        1.290      332.412        1.067      847.447
01/27/2021  04:53:00      246.185     -109.126      -75.095      506.933      106.943      239.080   256980.627    11436.911    57159.073       20.180       16.279      269.287      343.469        1.627      332.441        1.111      847.380
01/27/2021  04:54:00      234.314     -198.921      -63.166      455.689      121.944      218.666   207652.297    14870.219    47814.829       18.434       13.517      307.364      309.759        1.016      332.450        1.124      847.373
01/27/2021  04:55:00      198.317     -179.872      -76.655      515.111      116.736      243.398   265339.015    13627.281    59242.689       20.781       16.910      267.738      351.111        1.720      332.601        1.376      847.419
01/27/2021  04:56:00      246.242     -255.288      -69.924      418.660      136.663      201.054   175276.519    18676.823    40422.703       18.249       11.719      354.693      285.102        0.646      332.578        1.335      847.436
01/27/2021  04:57:00      179.762      -96.371      -33.709      374.172      168.627      184.634   140004.735    28435.070    34089.549       12.259       10.126      203.964      255.472        1.569      332.553        1.292      847.419
01/27/2021  04:58:00       52.391      -67.159       -0.170      163.714       97.808       81.694    26802.210     9566.499     6673.853        2.514        2.152       85.177      101.250        1.413      332.578        1.333      847.408
01/27/2021  04:59:00      625.489     -107.915     -238.270     1080.022      115.385      495.882  1166448.134    13313.758   245898.940       94.238       71.283      634.730      727.566        1.314      334.377        4.349      847.396
01/27/2021  05:00:00      181.036     -159.076      -40.861      268.208       94.619      128.319    71935.704     8952.773    16465.809        7.853        4.868      240.996      178.495        0.549      332.689        1.514      847.433
01/27/2021  05:01:00       91.545     -136.945      -26.357      228.396      143.201      102.087    52164.711    20506.423    10421.818        5.544        4.155      164.725      137.988        0.702      332.685        1.507      847.450
01/27/2021  05:02:00       89.697     -119.943      -38.528      392.892       94.404      185.975   154364.079     8912.092    34586.564       11.085        9.893      149.773      267.414        3.188      332.896        1.860      847.510
01/27/2021  05:03:00       54.021      -17.332      -16.970      205.856      140.563      114.889    42376.584    19757.970    13199.394        3.940        3.767       56.734      126.387        4.963      332.758        1.633      847.565
01/27/2021  05:04:00      128.559      -66.448      -35.829      388.148       70.525      188.266   150659.025     4973.738    35444.079       10.661        9.554      144.715      267.803        3.425      332.947        1.946      847.554
01/27/2021  05:05:00      133.884     -161.474      -42.841      248.654       65.768      122.247    61828.880     4325.374    14944.278        6.345        4.055      209.759      170.132        0.658      332.779        1.661      847.560
01/27/2021  05:06:00      120.123      -57.648      -25.454      163.172       64.061       78.829    26625.238     4103.873     6213.942        2.766        1.847      133.240      106.732        0.642      332.806        1.708      847.556
01/27/2021  05:07:00      -26.107      -67.577      -19.848       68.915       53.064       28.957     4749.279     2815.761      838.527        0.702        0.420       72.445       21.761        0.090      332.869        1.812      847.542
01/27/2021  05:08:00       19.010      -16.898      -12.289      229.235       49.307      112.583    52548.675     2431.141    12674.883        3.421        3.383       25.435      157.858       38.519      332.980        1.998      847.598
01/27/2021  05:09:00       25.378        8.307      -27.088      208.547       48.649       96.267    43491.694     2366.758     9267.285        2.827        2.756       26.702      138.181       26.779      332.898        1.863      847.637
01/27/2021  05:10:00        3.089     -119.691      -46.118      366.458       99.539      171.205   134291.142     9907.936    29311.317        9.495        8.676      119.731      241.839        4.080      333.041        2.098      847.563
01/27/2021  05:11:00      -22.352      -69.695      -24.168      257.801       85.290      126.306    66461.101     7274.349    15953.209        4.780        4.484       73.191      173.297        5.606      333.056        2.124      847.583
01/27/2021  05:12:00       50.537      -25.911      -26.891      276.786       89.229      127.485    76610.496     7961.867    16252.352        5.236        5.041       56.792      183.067       10.391      333.110        2.212      847.702
01/27/2021  05:13:00      116.023     -197.903      -47.268      408.141      135.158      190.984   166578.861    18267.790    36474.922       13.804       11.066      229.406      269.692        1.382      333.245        2.436      847.623
01/27/2021  05:14:00        9.222      -98.094      -23.232      292.503       83.700      137.703    85558.054     7005.669    18962.064        6.086        5.576       98.527      192.177        3.804      333.173        2.316      847.597
01/27/2021  05:15:00      -12.338     -173.882      -29.391      238.662       81.566      117.166    56959.484     6652.955    13727.949        5.428        3.867      174.319      157.377        0.815      333.267        2.470      847.561
01/27/2021  05:16:00       59.983      -85.197      -27.626      320.529       90.777      149.331   102738.915     8240.412    22299.646        7.242        6.664      104.194      215.485        4.277      333.187        2.340      847.564
01/27/2021  05:17:00       15.510      -29.676      -11.598      344.585       50.061      162.087   118738.887     2506.124    26272.172        7.435        7.376       33.485      233.815       48.757      333.266        2.471      847.661
01/27/2021  05:18:00      -22.036      -32.596      -13.337      290.232       73.413      133.486    84234.606     5389.430    17818.477        5.456        5.372       39.346      191.352       23.652      333.139        2.261      847.692
01/27/2021  05:19:00       69.109      -59.156      -26.232      227.978      109.747      104.560    51973.840    12044.351    10932.747        4.194        3.748       90.970      150.914        2.752      333.054        2.117      847.767
01/27/2021  05:20:00       70.504     -106.312      -32.945      241.567      140.159      116.162    58354.744    19644.644    13493.666        5.441        4.575      127.565      162.518        1.623      333.081        2.163      847.806
01/27/2021  05:21:00       14.444     -232.211      -39.251      226.232      107.945      103.766    51181.126    11652.083    10767.482        6.462        3.680      232.660      133.978        0.332      333.184        2.331      847.827
01/27/2021  05:22:00      102.104     -230.713      -53.580      311.625      118.360      150.231    97109.902    14009.111    22569.229       10.008        6.684      252.297      200.769        0.633      333.283        2.496      847.795
01/27/2021  05:23:00      -16.724     -162.664      -26.651      268.216       84.032      132.597    71939.912     7061.438    17581.975        6.200        4.829      163.521      178.377        1.190      333.245        2.434      847.746
01/27/2021  05:24:00       52.675     -126.461      -52.016      396.951       95.552      180.259   157569.782     9130.255    32493.327       11.029        9.960      136.993      261.642        3.648      333.270        2.477      847.746
01/27/2021  05:25:00       53.319     -101.150      -35.167      294.106      108.326      143.528    86498.577    11734.481    20600.269        6.655        5.942      114.343      200.752        3.082      333.363        2.630      847.706
01/27/2021  05:26:00       87.706     -108.434      -22.852      203.373       65.274       96.395    41360.748     4260.685     9291.972        3.743        2.746      139.464      134.976        0.937      333.104        2.201      847.735
01/27/2021  05:27:00       45.562     -233.625      -45.602      282.682      127.456      124.338    79908.937    16244.963    15459.841        8.515        5.581      238.026      168.724        0.502      333.263        2.462      847.744
01/27/2021  05:28:00       28.526     -293.049      -42.731      285.249      120.672      125.015    81367.103    14561.819    15628.783       10.001        5.578      294.434      175.169        0.354      333.304        2.530      847.735
01/27/2021  05:29:00       10.388     -100.054      -29.036      298.989       95.932      139.890    89394.211     9202.948    19569.120        6.454        5.908      100.592      197.129        3.840      333.247        2.439      847.732
01/27/2021  05:30:00      -60.655      -77.258       -4.138      267.151      110.478      122.837    71369.869    12205.401    15088.998        5.414        4.933       98.223      163.784        2.780      333.169        2.309      847.806
01/27/2021  05:31:00     -114.467      -36.228       -7.624      291.491       72.319      127.781    84967.219     5230.075    16328.015        6.048        5.326      120.063      176.238        2.155      333.123        2.233      847.829
01/27/2021  05:32:00       12.446      -42.876      -31.796      438.478       78.417      206.733   192262.819     6149.297    42738.595       12.202       12.058       44.646      297.464       44.392      333.292        2.518      847.852
01/27/2021  05:33:00      106.122     -108.378      -41.744      393.609      101.757      178.688   154928.014    10354.553    31929.259       11.094        9.861      151.683      259.058        2.917      333.312        2.550      847.899
01/27/2021  05:34:00      -29.543      -80.032       -1.827      200.485       71.785       90.608    40194.237     5153.063     8209.821        3.041        2.678       85.310      124.545        2.131      333.105        2.204      847.914
01/27/2021  05:35:00       13.256       -3.621      -14.648      321.719       45.299      158.793   103503.275     2051.995    25215.157        6.556        6.539       13.742      222.949      263.230      333.107        2.209      847.930
01/27/2021  05:36:00      -29.819        5.746        1.991      234.884       36.420      113.801    55170.701     1326.397    12950.778        3.517        3.472       30.367      156.894       26.693      333.057        2.123      847.958
01/27/2021  05:37:00      -21.668      -90.257      -12.319      285.025      101.431      136.270    81239.394    10288.313    18569.464        5.941        5.505       92.821      191.520        4.257      333.200        2.362      847.930
01/27/2021  05:38:00       67.819      -76.297      -23.570      258.664      116.150      120.571    66907.182    13490.859    14537.484        5.294        4.747      102.081      170.443        2.788      333.082        2.165      847.897
01/27/2021  05:39:00       90.337      -69.573      -51.153      275.766      124.778      131.502    76046.760    15569.644    17292.853        6.224        5.445      114.023      183.077        2.578      333.061        2.129      847.841
01/27/2021  05:40:00      -36.636      -28.712       -1.528       92.231       58.781       32.250     8506.577     3455.242     1040.034        0.758        0.650       46.547       27.880        0.359      332.962        1.964      847.887
01/27/2021  05:41:00       -5.405      -49.955      -15.793      285.710       47.066      134.094    81629.943     2215.230    17981.251        5.228        5.091       50.247      192.613       14.695      333.175        2.322      848.004
01/27/2021  05:42:00       46.000     -149.713      -41.937      385.074      141.159      182.614   148282.144    19925.779    33347.972       11.388       10.078      156.621      258.339        2.721      333.276        2.488      848.000
01/27/2021  05:43:00      -41.144     -201.350      -42.997      321.020      137.502      148.934   103054.086    18906.718    22181.320        9.408        7.207      205.511      209.966        1.044      333.300        2.526      847.906
01/27/2021  05:44:00      139.908     -248.947      -38.529      282.787      162.041      141.674    79968.710    26257.204    20071.533       10.464        6.315      285.568      195.290        0.468      333.133        2.250      847.948
01/27/2021  05:45:00       14.922     -160.614      -29.832      296.117      111.305      133.729    87685.457    12388.815    17883.317        7.241        5.898      161.305      186.973        1.344      333.279        2.491      848.096
01/27/2021  05:46:00      134.509     -204.584      -60.885      486.696      121.632      229.530   236873.408    14794.458    52683.822       18.394       15.218      244.842      329.948        1.816      333.475        2.819      848.229
01/27/2021  05:47:00       51.117      -28.791      -26.980      397.410       82.238      192.038   157934.661     6763.158    36878.441       10.283       10.079       58.667      270.555       21.268      333.322        2.566      848.247
01/27/2021  05:48:00      104.680     -101.480      -42.103      251.739       65.286      119.574    63372.352     4262.304    14297.854        5.246        4.097      145.794      170.421        1.366      333.136        2.255      848.275
01/27/2021  05:49:00       68.779      -48.548      -25.046      257.096       71.283      118.594    66098.169     5081.211    14064.504        4.646        4.262       84.187      169.042        4.032      333.191        2.346      848.326
01/27/2021  05:50:00      -30.413      -80.835      -16.133      296.165       60.217      141.224    87713.847     3626.037    19944.247        5.948        5.564       86.367      197.246        5.216      333.272        2.480      848.358
01/27/2021  05:51:00       19.454      -14.182      -12.964      236.264       41.801      111.079    55820.602     1747.314    12338.462        3.531        3.495       24.074      159.942       44.139      333.323        2.564      848.374
01/27/2021  05:52:00      -41.582     -127.034      -37.622      378.947      121.785      182.399   143600.792    14831.526    33269.531       10.545        9.585      133.666      255.572        3.656      333.326        2.570      848.406
01/27/2021  05:53:00      -20.946     -150.925      -26.784      310.568      116.489      135.714    96452.720    13569.777    18418.379        7.616        6.422      152.372      191.700        1.583      333.237        2.421      848.391
01/27/2021  05:54:00      -77.490     -148.360      -55.595      306.250      130.515      134.211    93789.315    17034.250    18012.460        7.994        6.442      167.378      187.544        1.255      333.228        2.405      848.413
01/27/2021  05:55:00       73.916     -189.629      -45.490      301.192      176.167      123.829    90716.742    31034.984    15333.595        9.026        6.854      203.526      179.160        0.775      333.162        2.296      848.419
01/27/2021  05:56:00       42.416     -161.113      -38.806      281.514      134.998      129.219    79250.062    18224.524    16697.431        7.169        5.709      166.602      175.009        1.103      333.212        2.378      848.403
01/27/2021  05:57:00      -34.087     -263.791      -58.756      482.641      128.539      237.950   232942.645    16522.263    56620.311       19.008       15.304      265.984      325.478        1.497      333.371        2.645      848.491
01/27/2021  05:58:00      -21.389      -33.714      -28.311      418.890      101.838      201.812   175468.905    10370.984    40728.256       11.443       11.328       39.927      285.740       51.217      333.259        2.462      848.540
01/27/2021  05:59:00      119.609     -151.759      -69.797      471.824      128.031      219.085   222618.126    16391.955    47998.021       16.455       14.350      193.228      316.906        2.690      333.398        2.693      848.551
01/27/2021  06:00:00      -59.919      -42.260       -6.318      264.134       90.669      115.462    69766.958     8220.939    13331.572        4.835        4.566       73.323      149.954        4.183      333.043        2.099      848.554
01/27/2021  06:01:00       61.672       -6.903      -27.956      339.058       43.611      162.304   114960.481     1901.885    26342.698        7.389        7.160       62.057      230.405       13.785      333.238        2.426      848.628
01/27/2021  06:02:00      -10.793       -2.134      -20.603      438.193       84.391      199.166   192013.413     7121.795    39667.109       11.962       11.940       11.002      282.776      660.617      333.190        2.346      848.691
01/27/2021  06:03:00      -50.524     -254.336      -38.664      278.727      153.192      121.047    77688.921    23467.859    14652.300        9.225        5.790      259.306      152.066        0.344      333.069        2.141      848.748
01/27/2021  06:04:00      -18.625      -28.303      -38.714      357.140       88.518      163.765   127549.149     7835.389    26818.819        8.239        8.110       33.882      237.069       48.958      333.166        2.306      848.736
01/27/2021  06:05:00       16.792      -40.230      -27.338      449.652       55.378      204.740   202187.143     3066.761    41918.467       12.486       12.359       43.594      296.745       46.335      333.200        2.364      848.795
01/27/2021  06:06:00      -20.722     -214.159      -53.143      380.436      166.357      181.433   144731.196    27674.539    32917.905       12.718       10.266      215.160      249.245        1.342      333.223        2.399      848.819
01/27/2021  06:07:00       98.249      -87.787      -73.436      510.049      142.190      238.767   260150.105    20218.008    57009.452       17.999       16.869      131.755      341.462        6.717      333.412        2.717      848.773
01/27/2021  06:08:00        6.980      -76.762      -14.240      212.473       99.687       99.230    45144.680     9937.527     9846.507        3.552        3.246       77.079      138.777        3.242      333.057        2.122      848.846
01/27/2021  06:09:00      -33.902      -68.103       -2.653      207.392       66.734       88.969    43011.368     4453.405     7915.544        3.058        2.769       76.074      116.390        2.341      333.134        2.250      849.011
01/27/2021  06:10:00      -58.536      -74.742      -15.753      300.654       93.402      140.184    90392.558     8723.931    19651.646        6.399        5.938       94.936      185.233        3.807      333.108        2.207      849.043
01/27/2021  06:11:00     -203.332     -109.533      -18.243      327.068      154.395      158.915   106973.633    23837.869    25253.956       10.484        7.803      230.957      197.066        0.728      333.035        2.086      849.023
01/27/2021  06:12:00     -156.331      -63.698      -10.433      271.069      105.834      111.353    73478.224    11200.804    12399.540        6.282        4.854      168.810      138.015        0.668      332.987        2.005      849.089
01/27/2021  06:13:00      -84.798     -105.308      -16.380      378.318      120.577      163.802   143124.760    14538.843    26831.232       10.148        9.225      135.205      232.157        2.948      333.105        2.203      849.165
01/27/2021  06:14:00     -107.089      -76.718       -9.944       99.940       83.246       52.288     9988.042     6929.979     2734.084        1.855        0.983      131.733       42.432        0.104      332.926        1.905      849.248
01/27/2021  06:15:00     -109.769      -37.044      -10.544       69.739       73.473       31.079     4863.486     5398.241      965.896        1.238        0.561      115.851       15.629        0.018      332.981        1.996      849.325
01/27/2021  06:16:00     -115.091      -14.322       -3.559      144.044       53.023       73.007    20748.653     2811.399     5330.034        2.117        1.445      115.979       86.495        0.556      332.913        1.885      849.410
01/27/2021  06:17:00     -197.943      -85.560       -7.112      170.887      112.312       48.271    29202.244    12614.079     2330.130        4.534        2.207      215.643       52.425        0.059      332.885        1.837      849.498
01/27/2021  06:18:00     -213.180      -74.419       -2.694      203.886       93.521       84.679    41569.372     8746.157     7170.498        5.423        2.874      225.796       84.077        0.139      332.876        1.822      849.467
01/27/2021  06:19:00     -117.826      -37.491        5.861      210.903       74.672       94.466    44480.080     5575.884     8923.764        3.714        2.949      123.647      112.303        0.825      332.938        1.926      849.498
01/27/2021  06:20:00      -89.034      -29.909      -17.056      241.783       75.820      109.741    58458.779     5748.631    12043.101        4.267        3.813       93.924      149.752        2.542      332.915        1.890      849.476
01/27/2021  06:21:00     -149.980       -0.136       -4.582       74.587       66.717       43.884     5563.291     4451.135     1925.812        1.722        0.597      149.980       35.167        0.055      332.842        1.769      849.491
01/27/2021  06:22:00      -50.150      -73.487      -33.226      316.405       78.761      148.117   100112.405     6203.327    21938.754        6.861        6.413       88.968      208.837        5.510      332.988        2.012      849.523
01/27/2021  06:23:00      -35.013      -29.372      -19.084      235.946       83.776      113.803    55670.291     7018.350    12951.098        3.903        3.782       45.701      155.696       11.607      332.961        1.966      849.524
01/27/2021  06:24:00       12.509      -86.890      -44.077      402.022       63.812      187.000   161621.772     4071.931    34969.118       10.511       10.033       87.786      268.861        9.380      333.252        2.449      849.572
01/27/2021  06:25:00      -88.074      -27.945      -22.309      334.566       65.399      157.849   111934.726     4277.011    24916.429        7.505        7.056       92.401      222.855        5.817      333.061        2.133      849.587
01/27/2021  06:26:00     -112.801      -71.084      -26.298      301.710       81.557      141.522    91029.168     6651.545    20028.491        6.806        5.885      133.330      198.896        2.225      332.969        1.979      849.535
01/27/2021  06:27:00     -103.598     -113.197      -15.712       95.263      102.694       60.726     9074.974    10546.120     3687.670        2.355        1.165      153.447       49.577        0.104      332.951        1.945      849.446
01/27/2021  06:28:00       54.419      -95.609      -31.065      199.486       75.413       93.475    39794.848     5687.170     8737.633        3.363        2.711      110.012      133.508        1.473      333.052        2.115      849.473
01/27/2021  06:29:00      -19.569       53.656       -5.345      220.540       44.771      109.809    48637.732     2004.418    12058.090        3.298        3.135       57.113      152.522        7.132      333.025        2.071      849.449
01/27/2021  06:30:00       47.050      -52.391      -20.946      401.187       58.191      189.770   160950.866     3386.143    36012.558       10.283       10.017       70.416      269.577       14.656      333.081        2.167      849.470
01/27/2021  06:31:00      -44.802      -45.659       -6.864      171.800       51.936       86.052    29515.394     2697.377     7404.923        2.187        1.981       63.969      117.578        3.378      332.955        1.956      849.539
01/27/2021  06:32:00      -33.003      -33.503      -12.718      282.720       72.390      135.630    79930.768     5240.384    18395.502        5.295        5.178       47.028      187.499       15.896      333.032        2.084      849.543
01/27/2021  06:33:00       64.247      -27.057      -36.119      270.738       67.846      128.982    73298.800     4603.084    16636.246        5.033        4.727       69.712      182.574        6.859      333.068        2.144      849.490
01/27/2021  06:34:00       14.591     -130.507      -44.936      233.492       75.254      105.030    54518.570     5663.157    11031.356        4.522        3.561      131.320      139.900        1.135      333.004        2.035      849.454
01/27/2021  06:35:00        9.262      -80.138       -9.311       65.471       66.562       38.243     4286.400     4430.562     1462.528        0.838        0.509       80.671       40.732        0.255      333.039        2.093      849.468
01/27/2021  06:36:00       38.586      -85.556      -24.718      279.149      102.512      125.686    77924.303    10508.758    15797.077        5.680        5.212       93.855      174.052        3.439      333.034        2.086      849.542
01/27/2021  06:37:00       65.187      -65.622      -11.430      162.544       72.441       74.097    26420.713     5247.695     5490.439        2.291        1.858       92.497       98.290        1.129      332.989        2.010      849.592
01/27/2021  06:38:00      -39.665      -74.712      -18.740      237.581       54.652      117.581    56444.773     2986.831    13825.331        4.037        3.663       84.588      162.168        3.675      333.195        2.354      849.605
01/27/2021  06:39:00      -25.511       -3.182       -4.910      240.648       47.468      116.034    57911.516     2253.230    13463.927        3.714        3.681       25.709      162.372       39.889      333.085        2.171      849.636
01/27/2021  06:40:00      -33.213      -25.097      -10.202      215.474       54.945      102.368    46429.174     3018.965    10479.199        3.087        2.996       41.629      142.554       11.726      333.093        2.184      849.723
01/27/2021  06:41:00      -53.794      -60.309      -10.249      162.644       73.845       81.491    26453.160     5453.032     6640.820        2.258        1.927       80.814      103.639        1.645      333.108        2.207      849.785
01/27/2021  06:42:00      -21.099      -79.364      -21.818      171.947       81.513       83.740    29565.751     6644.363     7012.399        2.521        2.161       82.121      109.639        1.782      333.097        2.188      849.807
01/27/2021  06:43:00       46.652      -98.407      -13.885      167.868      104.437       86.474    28179.551    10907.083     7477.823        2.930        2.328      108.905      109.103        1.004      333.205        2.366      849.859
01/27/2021  06:44:00       67.200     -111.521      -26.633      255.100      111.329      121.071    65075.822    12394.083    14658.185        5.488        4.606      130.202      163.322        1.573      333.189        2.342      849.848
01/27/2021  06:45:00       93.048      -32.045      -47.232      356.412       94.258      176.128   127029.543     8884.526    31020.986        8.939        8.347       98.412      243.602        6.127      333.078        2.162      849.771
01/27/2021  06:46:00       90.743     -157.767      -21.981      252.702       78.618      120.246    63858.165     6180.868    14459.065        5.904        4.225      182.002      161.938        0.792      333.179        2.324      849.770
01/27/2021  06:47:00       39.815     -142.036      -10.526       91.472       81.473       38.185     8367.113     6637.858     1458.065        1.916        0.823      147.511       24.255        0.027      333.070        2.143      849.793
01/27/2021  06:48:00      -18.984     -136.159      -11.614       80.434       83.932       42.199     6469.702     7044.605     1780.795        1.716        0.765      137.476       36.468        0.070      333.469        2.802      849.859
01/27/2021  06:49:00      110.580      -39.323      -39.772      285.294      105.799      142.107    81392.399    11193.458    20194.276        6.404        5.639      117.364      195.358        2.771      333.292        2.513      849.834
01/27/2021  06:50:00      112.684     -149.234      -24.914       79.483       83.393       40.968     6317.604     6954.405     1678.360        2.527        0.748      186.999       49.686        0.071      333.087        2.168      849.832
01/27/2021  06:51:00      -41.746      -72.822       -2.898      188.197       73.273       83.932    35417.940     5368.955     7044.555        2.743        2.392       83.939      110.797        1.742      333.331        2.575      849.907
01/27/2021  06:52:00      166.398     -146.602      -69.791      397.976      103.049      185.880   158384.592    10619.111    34551.405       12.876       10.178      221.766      264.743        1.425      333.207        2.372      849.965
01/27/2021  06:53:00      182.353     -281.078      -58.480      265.556      115.720      128.850    70520.123    13391.037    16602.384       10.807        5.026      335.048      175.716        0.275      333.191        2.344      850.052
01/27/2021  06:54:00      255.599     -204.166      -72.051      375.298       67.405      181.032   140848.538     4543.412    32772.439       14.515        8.908      327.131      255.340        0.609      333.225        2.400      850.081
01/27/2021  06:55:00      160.470     -142.450      -41.559      181.875       67.323       84.710    33078.616     4532.348     7175.835        4.627        2.239      214.575      115.974        0.292      333.089        2.174      850.064
01/27/2021  06:56:00      129.303     -166.866      -27.176      258.165       70.941      126.160    66649.195     5032.605    15916.333        6.643        4.380      211.101      173.124        0.673      333.178        2.322      850.062
01/27/2021  06:57:00      137.577     -135.839      -53.957      290.058      148.105      138.240    84133.855    21935.155    19110.415        8.271        6.259      193.338      184.838        0.914      333.180        2.327      850.060
01/27/2021  06:58:00       80.126     -108.827      -39.383      401.413      109.646      187.487   161132.256    12022.250    35151.235       11.402       10.415      135.143      262.985        3.787      333.404        2.701      850.058
01/27/2021  06:59:00       31.294     -117.617      -45.551      307.706      127.424      142.351    94683.071    16236.867    20263.725        7.401        6.559      121.709      194.379        2.551      333.368        2.637      850.017
01/27/2021  07:00:00       28.978     -178.203      -24.799      129.171      105.169       52.142    16685.159    11060.577     2718.809        3.183        1.523      180.544       47.044        0.068      333.318        2.554      850.040
01/27/2021  07:01:00      137.234      -68.527      -43.911      281.225      116.462      143.736    79087.386    13563.317    20660.071        6.936        5.666      153.392      191.508        1.559      333.240        2.427      850.053
01/27/2021  07:02:00       95.165     -268.483      -75.783      387.330      149.519      180.604   150024.511    22355.862    32617.880       14.590       10.250      284.850      246.273        0.747      333.230        2.410      850.038
01/27/2021  07:03:00      273.347     -420.023     -100.537      354.298      192.809      173.155   125526.953    37175.184    29982.798       22.692        9.634      501.137      230.143        0.211      333.077        2.156      850.026
01/27/2021  07:04:00      198.509     -320.308      -62.942      418.745      170.368      211.459   175347.755    29025.207    44715.038       19.747       12.454      376.833      286.686        0.579      333.254        2.453      850.113
01/27/2021  07:05:00       10.337     -210.963      -41.267      216.268      179.476      108.311    46771.693    32211.524    11731.286        6.850        4.536      211.216      130.464        0.382      333.178        2.322      850.202
01/27/2021  07:06:00      -70.390     -314.209      -16.218      281.674      143.951      132.633    79340.089    20722.009    17591.599       11.078        5.883      321.998      164.080        0.260      333.236        2.419      850.254
01/27/2021  07:07:00       47.778     -256.397      -40.154      244.661      163.715      132.964    59859.127    26802.473    17679.475        8.697        5.217      260.811      160.172        0.377      333.282        2.494      850.267
01/27/2021  07:08:00      157.256     -188.595      -60.833      230.377      175.338      103.822    53073.496    30743.251    10778.995        7.928        4.730      245.555      135.659        0.305      333.044        2.101      850.191
01/27/2021  07:09:00        2.977     -277.055      -62.935      500.286      133.289      223.100   250286.099    17766.074    49773.415       19.921       15.891      277.071      315.424        1.296      333.487        2.841      850.212
01/27/2021  07:10:00       46.400     -150.762      -54.142      104.555      135.550       70.616    10931.655    18373.853     4986.671        3.105        1.715      157.741       64.629        0.168      333.029        2.075      850.256
01/27/2021  07:11:00      -94.237     -194.180      -18.705      221.120      127.987      111.469    48894.042    16380.594    12425.415        6.230        3.885      215.839      123.320        0.326      333.132        2.246      850.354
01/27/2021  07:12:00       53.104     -230.145      -18.522      114.651      101.931       79.845    13144.746    10389.852     6375.219        4.301        1.495      236.192       57.669        0.060      333.148        2.268      850.455
01/27/2021  07:13:00       40.544     -132.207      -16.519      147.503       77.574       80.600    21757.031     6017.700     6496.285        2.683        1.714      138.284       85.519        0.382      333.135        2.252      850.542
01/27/2021  07:14:00       89.579      -93.167      -26.137      411.397       87.009      200.340   169247.110     7570.646    40136.043       11.713       10.848      129.246      279.116        4.664      333.292        2.518      850.484
01/27/2021  07:15:00       71.431      -87.548      -11.132      167.226      112.350       96.739    27964.575    12622.441     9358.349        3.141        2.497      112.991      109.492        0.939      333.193        2.346      850.368
01/27/2021  07:16:00      138.161     -148.448      -37.937      312.887       75.199      150.295    97898.436     5654.849    22588.687        8.433        6.307      202.794      210.021        1.073      333.110        2.211      850.332
01/27/2021  07:17:00       26.190      -49.402      -11.791      265.074       96.269      130.296    70264.041     9267.786    16976.923        4.987        4.825       55.915      175.738        9.878      333.235        2.419      850.376
01/27/2021  07:18:00      122.063     -137.322      -22.271       72.528      112.360       47.436     5260.318    12624.794     2250.151        2.719        1.007      183.730       34.351        0.035      333.052        2.113      850.370
01/27/2021  07:19:00      200.410     -157.610      -55.538      280.958       93.386      134.105    78937.208     8721.006    17984.165        8.685        5.282      254.961      179.870        0.498      333.030        2.078      850.388
01/27/2021  07:20:00       87.287     -170.044      -30.421       58.389       96.853       35.446     3409.328     9380.519     1256.429        2.575        0.702      191.139       23.556        0.015      332.893        1.852      850.463
01/27/2021  07:21:00      152.947      -86.169      -50.371      450.378       92.563      224.680   202840.181     8567.854    50480.977       14.757       13.094      175.550      311.962        3.158      333.329        2.579      850.526
01/27/2021  07:22:00       53.348      -58.612      -21.230      255.381       75.655      121.874    65219.495     5723.639    14853.256        4.625        4.290       79.255      164.156        4.290      333.126        2.239      850.567
01/27/2021  07:23:00        2.582      -86.459      -28.689      241.048      101.019      129.479    58103.992    10204.769    16764.784        4.667        4.254       86.497      157.950        3.335      333.208        2.373      850.608
01/27/2021  07:24:00      -10.546     -150.130      -21.419      412.655      101.336      191.659   170283.955    10268.912    36733.002       12.016       10.864      150.500      274.134        3.318      333.328        2.573      850.596
01/27/2021  07:25:00       30.535     -102.416      -38.988      379.578       88.867      188.132   144079.452     7897.342    35393.779       10.012        9.369      106.871      259.617        5.901      333.489        2.841      850.594
01/27/2021  07:26:00      106.067       -3.155      -43.845      522.773       69.211      248.281   273291.530     4790.224    61643.211       17.639       16.986      106.114      352.707       11.048      333.699        3.193      850.594
01/27/2021  07:27:00       64.837      -39.525       -3.467      165.100       70.775       87.680    27257.966     5009.036     7687.750        2.286        1.998       75.935       92.027        1.469      333.288        2.506      850.599
01/27/2021  07:28:00      127.285       -9.526      -38.725       95.802      121.870       61.780     9177.987    14852.418     3816.781        2.281        1.392      127.641       50.615        0.157      333.068        2.137      850.517
01/27/2021  07:29:00      171.245      -92.023      -59.654      454.728      131.460      223.324   206777.763    17281.632    49873.757       15.759       13.697      194.404      313.128        2.594      333.414        2.722      850.432
01/27/2021  07:30:00      101.737      -10.939      -30.550       50.400      109.062       49.058     2540.167    11894.477     2406.673        1.412        0.842      102.323       34.392        0.113      333.143        2.265      850.493
01/27/2021  07:31:00      279.809     -101.979     -111.318      707.616      105.052      359.052   500720.852    11035.968   128918.200       37.076       32.034      297.813      497.207        2.787      334.104        3.867      850.512
01/27/2021  07:32:00       59.368     -134.653      -19.069      125.110      136.035       61.801    15652.480    18505.567     3819.364        2.999        1.899      147.159       43.422        0.087      332.955        1.953      850.558
01/27/2021  07:33:00       97.150      -40.261      -12.621       57.374      100.370       64.503     3291.816    10074.055     4160.656        1.437        0.876      105.163       61.028        0.337      333.007        2.042      850.580
01/27/2021  07:34:00      129.422     -127.289       23.771       70.510       94.012       53.455     4971.620     8838.312     2857.441        2.509        0.833      181.528       55.295        0.093      333.267        2.468      850.629
01/27/2021  07:35:00      208.841     -107.036      -24.451      424.884      158.715      219.154   180526.128    25190.523    48028.431       15.466       12.687      234.673      299.422        1.628      333.564        2.966      850.656
01/27/2021  07:36:00      483.341        8.284     -176.161      925.213      162.145      467.412   856018.419    26290.945   218473.605       68.255       55.039      483.412      651.828        1.818      334.730        4.918      850.656
01/27/2021  07:37:00       92.544      -44.180      -24.510       60.354       91.496       58.775     3642.561     8371.494     3454.547        1.329        0.773      102.549       66.732        0.423      333.268        2.472      850.695
01/27/2021  07:38:00       54.196      -72.331       38.042       76.933       87.992       50.425     5918.681     7742.671     2542.727        1.291        0.810       90.382       65.023        0.518      333.410        2.708      850.710
01/27/2021  07:39:00       92.836       99.505       24.704       64.692       78.177       56.589     4185.090     6111.655     3202.329        1.631        0.675      136.088       59.237        0.189      333.121        2.229      850.665
01/27/2021  07:40:00       51.677       38.477       30.115       64.399       76.898       57.280     4147.281     5913.357     3280.951        0.920        0.667       64.428       64.799        1.012      333.010        2.046      850.612
01/27/2021  07:41:00      -22.449       44.725        6.532       60.545       99.218       52.169     3665.705     9844.198     2721.588        0.939        0.812       50.043       65.718        1.725      333.000        2.031      850.605
01/27/2021  07:42:00      -38.552        1.564      -19.625       52.878       85.955       58.165     2796.063     7388.180     3383.189        0.772        0.678       38.583       66.464        2.967      333.157        2.287      850.614
01/27/2021  07:43:00       -5.813       79.752        1.118       55.569      132.867       54.563     3087.875    17653.610     2977.083        1.505        1.186       79.963       72.944        0.832      333.379        2.653      850.606
01/27/2021  07:44:00      -27.291       32.330       16.377       61.073       50.733       57.658     3729.935     2573.788     3324.487        0.584        0.481       42.308       57.897        1.873      333.029        2.082      850.633
01/27/2021  07:45:00      -67.997       42.602        0.075       49.934       65.397       39.085     2493.448     4276.708     1527.621        0.737        0.415       80.240       45.352        0.319      332.899        1.863      850.645
01/27/2021  07:46:00      -14.223       18.789       25.940       73.917       98.491       70.201     5463.795     9700.419     4928.157        1.066        1.005       23.565       79.215       11.300      333.221        2.393      850.654
01/27/2021  07:47:00     -103.185       15.590      -10.194       89.656      154.247       61.027     8038.260    23791.990     3724.329        2.327        1.778      104.356       67.855        0.423      333.243        2.433      850.646
01/27/2021  07:48:00      -55.133        4.668        4.258      113.248      104.882       60.014    12825.044    11000.145     3601.719        1.525        1.371       55.330       74.882        1.832      333.245        2.431      850.644
01/27/2021  07:49:00     -105.010      -62.537      -20.932       68.100       90.879       43.251     4637.550     8259.060     1870.689        1.507        0.738      122.221       54.527        0.199      333.316        2.553      850.706
01/27/2021  07:50:00       -0.920      -40.103       18.519       48.605       90.993       50.420     2362.458     8279.789     2542.224        0.757        0.659       40.113       50.180        1.565      333.373        2.646      850.782
01/27/2021  07:51:00       87.750     -102.328      -18.973      346.979      117.348      187.182   120394.129    13770.604    35037.175        9.383        8.460      134.800      242.698        3.242      333.494        2.849      850.849
01/27/2021  07:52:00       -5.018      -17.551      -19.022      312.772       88.114      153.789    97826.511     7764.160    23651.153        6.494        6.462       18.254      207.129      128.754      333.623        3.063      850.849
01/27/2021  07:53:00       10.170     -105.939      -16.860      320.797       93.658      142.321   102910.540     8771.752    20255.352        7.175        6.597      106.426      200.224        3.539      333.503        2.863      850.842
01/27/2021  07:54:00       43.629      -95.909      -40.760      283.662       75.028      141.980    80464.237     5629.133    20158.212        5.949        5.313      105.366      191.456        3.302      333.445        2.767      850.857
01/27/2021  07:55:00       80.868     -108.623      -15.891      218.275       64.107      105.450    47644.025     4109.755    11119.748        4.072        3.144      135.420      141.973        1.099      333.286        2.503      850.909
01/27/2021  07:56:00       31.213      -39.996      -14.729      189.785       64.255       92.845    36018.282     4128.669     8620.109        2.577        2.438       50.734      126.835        6.250      333.122        2.231      850.962
01/27/2021  07:57:00       82.074      -80.418      -20.677      180.096       81.998       84.789    32434.529     6723.602     7189.204        2.998        2.317      114.905      115.899        1.017      333.079        2.160      851.002
01/27/2021  07:58:00      -50.988      -23.146      -17.189       76.510       77.341       30.579     5853.851     5981.696      935.060        0.810        0.639       55.995       38.018        0.461      333.109        2.209      851.052
01/27/2021  07:59:00      103.128      -48.675      -26.967      261.008       70.757      128.542    68125.429     5006.489    16522.937        5.167        4.483      114.037      177.647        2.427      333.166        2.306      851.077
01/27/2021  08:00:00      158.223     -172.626      -38.249      190.579       82.808       91.935    36320.169     6857.115     8452.008        5.395        2.581      234.168      127.047        0.294      333.097        2.187      851.064
01/27/2021  08:01:00      160.560     -101.423      -48.919      330.570       67.154      158.541   109276.291     4509.671    25135.265        8.866        6.946      189.911      226.574        1.423      333.169        2.310      851.058
01/27/2021  08:02:00      131.205     -105.133      -40.681      168.415       72.207       79.702    28363.505     5213.869     6352.401        3.492        1.996      168.130      111.003        0.436      333.053        2.115      851.071
01/27/2021  08:03:00      135.435     -118.319      -37.858      278.140       61.613      128.548    77361.682     3796.213    16524.508        6.571        4.884      179.839      183.496        1.041      333.243        2.431      851.079
01/27/2021  08:04:00      -17.274        4.939        1.209      222.794       48.659      103.864    49637.129     2367.721    10787.776        3.155        3.140       17.967      145.244       65.352      333.311        2.544      851.091
01/27/2021  08:05:00      -34.293      -34.675        1.138       35.744       58.193       31.022     1277.647     3386.459      962.390        0.400        0.281       48.769       26.509        0.295      333.282        2.494      851.049
01/27/2021  08:06:00      -57.141       18.541      -12.668      293.385       55.920      135.343    86074.741     3127.096    18317.811        5.562        5.376       60.074      193.636       10.390      333.237        2.422      851.031
01/27/2021  08:07:00      -28.819      -24.704       -9.130      192.291       40.460       95.265    36975.678     1637.027     9075.389        2.460        2.384       37.959      129.069       11.562      333.188        2.340      851.063
01/27/2021  08:08:00      -18.865       43.375      -11.841      293.415       35.723      138.472    86092.397     1276.158    19174.375        5.444        5.327       47.300      199.089       17.716      333.141        2.265      851.080
01/27/2021  08:09:00      -53.981       52.950       -7.969      226.909       31.293      109.044    51487.821      979.242    11890.696        3.506        3.218       75.615      154.446        4.172      333.085        2.171      851.075
01/27/2021  08:10:00      -82.243       26.848      -14.155      195.912       39.433       94.796    38381.565     1554.963     8986.369        2.829        2.446       86.514      132.043        2.329      333.082        2.163      851.055
01/27/2021  08:11:00      -87.204       13.616        9.382       66.614       50.764       30.490     4437.448     2576.938      929.616        0.791        0.397       88.260       36.074        0.167      332.999        2.026      851.070
01/27/2021  08:12:00      -56.151       11.084        4.556      219.425       58.020      100.355    48147.511     3366.290    10071.052        3.243        3.079       57.234      134.699        5.539      333.109        2.211      851.117
01/27/2021  08:13:00     -173.115       82.116        5.499      210.811       71.729       93.828    44441.073     5145.039     8803.708        4.755        2.919      191.603      117.730        0.378      332.996        2.021      851.150
01/27/2021  08:14:00     -200.339       93.740      -13.892      201.546       60.475       96.871    40620.750     3657.224     9384.016        5.138        2.683      221.185      119.134        0.290      332.781        1.665      851.126
01/27/2021  08:15:00       39.853        3.863      -13.504      341.736       46.722      165.976   116783.335     2182.924    27548.009        7.412        7.326       40.040      231.812       33.519      332.945        1.942      851.072
01/27/2021  08:16:00       40.413      -20.121        1.250      189.479       53.891       94.985    35902.478     2904.279     9022.058        2.492        2.391       45.145      128.210        8.065      332.930        1.915      851.046
01/27/2021  08:17:00      -84.230       17.463      -22.619      208.706       65.169       79.046    43558.349     4246.974     6248.324        3.097        2.703       86.021      104.070        1.464      332.827        1.742      851.077
01/27/2021  08:18:00      -89.296       30.691       -9.199       94.708       70.850       45.784     8969.614     5019.748     2096.171        1.254        0.804       94.423       24.156        0.065      332.847        1.776      851.126
01/27/2021  08:19:00      -61.040       43.006      -11.119       81.083       55.283       38.087     6574.519     3056.242     1450.621        0.839        0.554       74.669       32.068        0.184      332.933        1.918      851.137
01/27/2021  08:20:00       51.439       27.911       -3.229      337.329       47.728      157.134   113790.533     2277.919    24691.079        7.207        7.038       58.523      224.757       14.749      333.085        2.173      851.176
01/27/2021  08:21:00      -68.574       -7.347       12.981      102.409       56.285       40.017    10487.643     3168.045     1601.392        1.009        0.763       68.967       31.739        0.212      332.846        1.774      851.214
01/27/2021  08:22:00     -146.234       80.259       -2.089      215.770       58.450      100.562    46556.529     3416.401    10112.695        4.394        3.004      166.811      136.093        0.666      332.839        1.763      851.231
01/27/2021  08:23:00     -179.707       48.208        9.046       59.928       68.824       36.443     3591.338     4736.746     1328.107        2.218        0.483      186.061       30.191        0.026      332.814        1.719      851.233
01/27/2021  08:24:00      -46.372       17.624        2.588      185.287       74.472       90.969    34331.275     5546.034     8275.342        2.530        2.408       49.608      112.202        5.116      333.000        2.031      851.235
01/27/2021  08:25:00      -37.215       -4.177       12.874       87.243       68.173       39.920     7611.302     4647.528     1593.630        0.771        0.693       37.449       39.308        1.102      332.979        1.994      851.244
01/27/2021  08:26:00      -95.023       24.443       11.106       85.394       77.541       47.270     7292.068     6012.548     2234.481        1.264        0.777       98.116       45.772        0.218      332.980        1.994      851.273
01/27/2021  08:27:00     -170.774       23.232      -10.445      249.144       73.988      115.119    62072.695     5474.250    13252.316        5.529        4.040      172.348      140.109        0.661      333.029        2.075      851.284
01/27/2021  08:28:00     -243.554       91.515      -15.302      281.878      105.497      128.962    79455.395    11129.647    16631.102        8.755        5.361      260.179      164.304        0.399      333.037        2.087      851.343
01/27/2021  08:29:00     -177.538       60.836        6.397      139.420       77.057       42.691    19437.952     5937.819     1822.507        3.122        1.360      187.672       39.849        0.045      332.920        1.893      851.338
01/27/2021  08:30:00     -203.630       47.986        4.278       91.001       64.682       40.894     8281.214     4183.788     1672.354        2.896        0.707      209.208       31.797        0.023      332.928        1.907      851.312
01/27/2021  08:31:00     -157.469       53.425      -17.594      310.216       68.573      144.284    96234.211     4702.272    20817.766        7.483        6.088      166.285      199.923        1.446      333.037        2.091      851.267
01/27/2021  08:32:00      -37.927       -3.660       -9.527      290.202       58.111      131.158    84216.956     3376.884    17202.437        5.315        5.240       38.103      182.680       22.986      333.011        2.050      851.289
01/27/2021  08:33:00     -109.496       29.591       -9.012      204.211       52.089       97.433    41702.314     2713.275     9493.120        3.342        2.695      113.424      128.384        1.281      332.919        1.896      851.357
01/27/2021  08:34:00     -141.809       43.768       -0.664      213.513       46.452      105.049    45587.664     2157.763    11035.390        4.039        2.939      148.410      141.099        0.904      332.943        1.935      851.416
01/27/2021  08:35:00     -164.367       38.216       -8.592      238.330       45.472      111.008    56801.101     2067.663    12322.875        4.986        3.560      168.751      150.856        0.799      332.988        2.008      851.437
01/27/2021  08:36:00     -123.841        3.520       -6.649      255.274       64.708      124.351    65164.775     4187.178    15463.196        5.009        4.241      123.891      162.962        1.730      332.955        1.956      851.423
01/27/2021  08:37:00      -78.814       46.055      -13.539      329.621       52.947      156.317   108650.171     2803.391    24435.151        7.217        6.794       91.284      217.548        5.680      333.012        2.051      851.402
01/27/2021  08:38:00      -73.921       25.168      -20.789      306.705       50.691      148.693    94068.131     2569.609    22109.731        6.261        5.937       78.088      209.874        7.223      333.054        2.122      851.392
01/27/2021  08:39:00      -78.663        2.256      -20.616      278.322       52.287      135.542    77463.329     2733.974    18371.593        5.257        4.928       78.695      184.658        5.506      333.023        2.068      851.445
01/27/2021  08:40:00     -144.157       22.321      -18.693      221.979       59.448      107.601    49274.466     3534.121    11577.902        4.299        3.219      145.875      140.687        0.930      332.989        2.012      851.505
01/27/2021  08:41:00      -95.151       17.683        0.361      279.062       50.771      131.574    77875.417     2577.718    17311.642        5.354        4.888       96.780      183.153        3.581      333.118        2.224      851.541
01/27/2021  08:42:00     -123.357       19.633        5.534       62.173       42.400       31.571     3865.472     1797.741      996.727        1.115        0.333      124.910       25.160        0.041      332.971        1.980      851.543
01/27/2021  08:43:00     -100.718       16.223        0.982      167.268       53.613       71.757    27978.686     2874.366     5149.087        2.320        1.800      102.017       85.654        0.705      333.053        2.115      851.494
01/27/2021  08:44:00     -108.592       44.188        0.013      242.984       54.156      121.811    59041.117     2932.925    14837.903        4.526        3.841      117.238      163.610        1.948      333.152        2.279      851.425
01/27/2021  08:45:00     -127.360       15.553       -1.393      174.874       50.778       84.983    30580.972     2578.451     7222.120        2.841        2.019      128.306      112.105        0.763      333.097        2.191      851.420
01/27/2021  08:46:00     -162.755       19.207      -22.467      343.186       72.343      164.670   117776.518     5233.553    27116.325        8.871        7.506      163.885      228.161        1.938      333.199        2.360      851.476
01/27/2021  08:47:00     -112.831       23.544      -11.761      231.141       66.244      109.162    53426.352     4388.228    11916.366        4.156        3.487      115.261      148.789        1.666      333.076        2.154      851.529
01/27/2021  08:48:00     -159.820       38.998        4.224       43.438       39.429       24.408     1886.900     1554.612      595.768        1.556        0.202      164.509       27.005        0.027      333.019        2.060      851.568
01/27/2021  08:49:00     -107.721       19.234       -7.125      205.347       42.811       99.958    42167.445     1832.821     9991.588        3.300        2.700      109.425      139.422        1.623      333.142        2.266      851.578
01/27/2021  08:50:00     -151.252        0.039       -0.507       64.523       52.021       30.745     4163.184     2706.213      945.264        1.534        0.391      151.252       24.294        0.026      333.206        2.369      851.601
01/27/2021  08:51:00     -149.505      -18.734      -13.146      276.694       58.449      133.121    76559.811     3416.246    17721.163        6.027        4.885      150.674      184.244        1.495      333.366        2.635      851.626
01/27/2021  08:52:00      -60.769        8.752       -4.108      197.195       50.670       99.782    38885.911     2567.420     9956.444        2.759        2.570       61.397      125.413        4.173      333.304        2.533      851.676
01/27/2021  08:53:00      -73.392      -15.093       -4.549      276.531       56.273      133.629    76469.356     3166.665    17856.838        5.154        4.875       74.928      182.256        5.917      333.292        2.514      851.676
01/27/2021  08:54:00      -15.547       28.753       10.375      239.662       66.264      118.633    57437.955     4390.944    14073.816        3.852        3.795       32.687      158.141       23.406      333.230        2.410      851.652
01/27/2021  08:55:00     -176.274       31.669       -7.955      192.893       61.873       89.527    37207.771     3828.308     8015.067        4.058        2.453      179.096      114.911        0.412      333.134        2.249      851.602
01/27/2021  08:56:00     -190.268       57.368       -4.224       44.826       49.776       34.088     2009.326     2477.648     1162.000        2.258        0.282      198.728       31.388        0.025      333.046        2.103      851.574
01/27/2021  08:57:00     -113.131       16.270      -19.137      211.695       67.407       89.966    44814.858     4543.743     8093.802        3.543        2.873      114.295      120.668        1.115      333.107        2.207      851.577
01/27/2021  08:58:00      -88.463       15.218      -12.485      214.689       56.358      101.710    46091.279     3176.267    10344.979        3.390        2.981       89.762      128.344        2.044      333.088        2.175      851.601
01/27/2021  08:59:00     -130.158       -0.826        3.708       84.856       65.495       40.714     7200.487     4289.600     1657.670        1.505        0.657      130.160       32.574        0.063      333.032        2.080      851.622
01/27/2021  09:00:00     -152.227       26.489      -23.672      321.714       60.387      155.901   103499.579     3646.534    24305.181        7.791        6.573      154.515      211.965        1.882      333.246        2.436      851.612
01/27/2021  09:01:00     -146.121      -19.279      -22.520      224.664       81.300      106.824    50473.848     6609.710    11411.315        4.535        3.425      147.387      137.013        0.864      333.148        2.272      851.620
01/27/2021  09:02:00     -217.503       83.752      -16.904      160.752       53.746       74.595    25841.271     2888.681     5564.412        4.444        1.715      233.071       75.081        0.104      333.152        2.276      851.659
01/27/2021  09:03:00     -191.856       66.610        7.749       81.242       81.658       56.726     6600.287     6668.004     3217.854        2.889        0.824      203.090       39.845        0.038      333.116        2.218      851.595
01/27/2021  09:04:00     -170.942       51.511       -2.107      141.676       65.462       46.292    20072.019     4285.234     2142.966        2.918        1.325      178.535       26.245        0.022      333.213        2.380      851.474
01/27/2021  09:05:00     -243.553       46.699        2.645      233.039       84.889      115.054    54307.234     7206.214    13237.351        6.811        3.738      247.990      139.108        0.315      333.110        2.210      851.437
01/27/2021  09:06:00     -158.977       46.594        0.929      116.026       65.726       47.064    13462.147     4319.911     2215.013        2.372        1.000      165.665       45.046        0.074      333.135        2.249      851.496
01/27/2021  09:07:00     -166.515       14.661       17.498      118.751       94.701       56.753    14101.854     8968.227     3220.944        2.726        1.315      167.159       47.049        0.079      333.105        2.199      851.600
01/27/2021  09:08:00     -215.672       43.221       12.617      115.489       76.348       43.015    13337.709     5828.963     1850.318        3.477        1.051      219.960       45.422        0.043      333.070        2.141      851.631
01/27/2021  09:09:00     -194.716       -6.955        0.247      131.322       82.178       63.075    17245.340     6753.210     3978.471        3.296        1.399      194.840       60.729        0.097      333.131        2.242      851.547
01/27/2021  09:10:00      -88.927       34.703       -7.281      113.384       85.598       67.911    12855.919     7327.094     4611.931        1.697        1.240       95.459       64.911        0.462      333.131        2.245      851.501
01/27/2021  09:11:00     -171.611       15.044      -11.007      267.809       50.060      121.408    71721.712     2506.003    14739.962        5.936        4.448      172.269      163.392        0.900      333.160        2.295      851.632
01/27/2021  09:12:00     -121.093        2.517      -12.669      210.995       51.298       92.332    44518.807     2631.486     8525.200        3.524        2.784      121.119      123.934        1.047      333.142        2.263      851.746
01/27/2021  09:13:00     -157.263       54.482        1.574      178.301       73.787       91.741    31791.092     5444.516     8416.397        3.667        2.283      166.433      107.806        0.420      333.151        2.278      851.733
01/27/2021  09:14:00     -107.595       33.556        0.384       65.955       61.417       34.202     4350.049     3772.104     1169.745        1.100        0.465      112.706       32.249        0.082      333.157        2.286      851.654
01/27/2021  09:15:00     -179.403        4.143       -5.699      213.810       53.792       95.501    45714.631     2893.539     9120.513        4.497        2.886      179.451      127.501        0.505      333.260        2.459      851.615
01/27/2021  09:16:00     -188.280      -20.402       -8.647      103.039       71.160       42.093    10616.964     5063.791     1771.820        2.669        0.873      189.382       41.613        0.048      333.182        2.326      851.628
01/27/2021  09:17:00     -113.161       56.013       -6.708       85.531       78.759       46.153     7315.589     6203.012     2130.089        1.581        0.782      126.265       37.900        0.090      333.222        2.393      851.678
01/27/2021  09:18:00      -83.864       27.560       -2.125      308.305       68.023      147.136    95052.050     4627.130    21648.960        6.454        6.066       88.276      199.528        5.109      333.322        2.562      851.729
01/27/2021  09:19:00     -205.725       79.437       10.283      109.213       64.855       50.577    11927.412     4206.147     2558.053        3.371        0.935      220.529       51.313        0.054      333.099        2.189      851.787
01/27/2021  09:20:00     -234.674       25.469      -10.703      106.272       72.004       40.767    11293.679     5184.553     1661.963        3.698        0.907      236.052       33.646        0.020      333.120        2.224      851.825
01/27/2021  09:21:00     -151.546        7.279        3.857       95.565       77.185       47.368     9132.652     5957.506     2243.720        2.018        0.867      151.720       45.681        0.091      333.195        2.349      851.788
01/27/2021  09:22:00     -232.442      -63.913      -11.802      190.260       80.668       87.532    36198.958     6507.282     7661.778        5.430        2.518      241.069      103.961        0.186      333.271        2.474      851.740
01/27/2021  09:23:00     -171.931      -24.864       -3.484       72.021       51.283       43.221     5187.083     2629.933     1868.046        1.994        0.484      173.720       38.977        0.050      333.213        2.379      851.698
01/27/2021  09:24:00      -89.405      -18.715        3.555       57.395       55.567       24.915     3294.200     3087.663      620.766        0.768        0.350       91.342       23.673        0.067      333.274        2.482      851.718
01/27/2021  09:25:00      -49.126        1.971       -4.824      236.102       60.367      107.918    55744.221     3644.190    11646.268        3.672        3.552       49.165      148.717        9.150      333.307        2.537      851.804
01/27/2021  09:26:00     -150.207       -8.097        0.331      138.791       96.190       57.411    19262.831     9252.595     3296.049        2.721        1.591      150.425       60.858        0.164      333.330        2.573      851.852
01/27/2021  09:27:00     -137.649      -11.828        2.894      100.524       81.360       40.693    10105.081     6619.463     1655.940        1.873        0.919      138.157       35.864        0.067      333.345        2.597      851.899
01/27/2021  09:28:00      -64.461      -24.110      -12.013      164.731       33.246       81.241    27136.245     1105.308     6600.114        1.985        1.742       68.822      107.524        2.441      333.517        2.885      851.951
01/27/2021  09:29:00     -102.736      -17.659       -4.006       83.698       78.729       44.348     7005.400     6198.288     1966.782        1.302        0.759      104.242       29.762        0.082      333.453        2.778      851.976
01/27/2021  09:30:00      -93.297      -87.586       -4.687       55.273       64.867       31.417     3055.127     4207.664      987.000        1.232        0.412      127.967       23.834        0.035      333.482        2.825      852.003
01/27/2021  09:31:00      -86.756      -62.719      -15.217       58.836       41.918       36.452     3461.694     1757.091     1328.719        0.912        0.327      107.053       21.093        0.039      333.511        2.873      852.054
01/27/2021  09:32:00     -171.953       29.605        2.263       98.280       68.111       41.488     9658.875     4639.046     1721.226        2.323        0.801      174.482       40.762        0.055      333.410        2.704      852.117
01/27/2021  09:33:00     -138.938      -61.513      -34.450      168.024       48.796       75.682    28232.141     2381.090     5727.769        3.030        1.817      151.946      101.751        0.448      333.516        2.880      852.208
01/27/2021  09:34:00       -2.702      -40.872        9.058      218.538       33.592      103.726    47758.731     1128.451    10759.168        3.069        2.982       40.961      144.311       12.413      333.718        3.219      852.188
01/27/2021  09:35:00       57.546      -10.936      -23.765       50.219       69.761       40.410     2521.915     4866.644     1632.998        0.651        0.451       58.576       26.149        0.199      333.777        3.313      852.117
01/27/2021  09:36:00       -6.449      -43.303      -34.349       72.206       67.665       24.621     5213.647     4578.519      606.176        0.675        0.520       43.781       20.326        0.216      333.697        3.182      852.142
01/27/2021  09:37:00       56.120       -3.479      -18.903       48.879       57.487       23.761     2389.173     3304.789      564.604        0.489        0.313       56.228       14.204        0.064      333.812        3.373      852.160
01/27/2021  09:38:00       51.591      -79.206      -13.383       44.853       46.127       30.775     2011.816     2127.672      947.097        0.710        0.254       94.526       22.655        0.057      333.747        3.265      852.132
01/27/2021  09:39:00      -17.776      -37.729       -6.543       44.613       40.365       19.750     1990.322     1629.367      390.065        0.290        0.200       41.707       21.418        0.264      333.817        3.381      852.122
01/27/2021  09:40:00       27.108      -33.343      -10.505       67.692      106.710       41.810     4582.231    11386.975     1748.111        0.983        0.886       42.972       41.404        0.928      333.806        3.362      852.102
01/27/2021  09:41:00      -18.726     -117.700      -28.651      153.746       60.406       38.095    23637.917     3648.847     1451.194        2.188        1.437      119.180       33.429        0.079      333.749        3.265      852.124
01/27/2021  09:42:00      -39.892      -20.315      -17.579       61.115       46.263       39.423     3735.036     2140.278     1554.185        0.487        0.371       44.767       25.463        0.324      333.824        3.391      852.188
01/27/2021  09:43:00      -35.417      -30.006        5.995       36.848       43.716       45.902     1357.751     1911.075     2106.979        0.378        0.269       46.419       32.515        0.491      333.896        3.511      852.221
01/27/2021  09:44:00      -27.016      -13.299      -10.255       49.372       38.018       21.985     2437.548     1445.353      483.340        0.269        0.218       30.112       16.063        0.285      333.874        3.475      852.222
01/27/2021  09:45:00      -28.976      -34.910      -14.744       39.121       46.303       17.772     1530.473     2143.996      315.847        0.313        0.200       45.369       16.692        0.135      333.852        3.437      852.201
01/27/2021  09:46:00      -12.209        1.571        3.606       21.931       25.517       14.165      480.986      651.127      200.652        0.075        0.067       12.310       11.829        0.923      334.015        3.710      852.187
01/27/2021  09:47:00      -62.522       25.697        2.624       45.944       24.208       21.576     2110.812      586.035      465.533        0.387        0.158       67.597       12.435        0.034      333.779        3.317      852.195
01/27/2021  09:48:00     -154.808      -40.196       -5.356       69.413       69.595       31.593     4818.174     4843.525      998.146        1.813        0.533      159.941       27.080        0.029      333.722        3.221      852.231
01/27/2021  09:49:00      -33.206      -24.186       -7.109       46.253       53.794       26.141     2139.369     2893.784      683.378        0.373        0.286       41.081       19.406        0.223      333.744        3.260      852.247
01/27/2021  09:50:00      -75.145       69.616       -3.487       46.940       57.924       30.780     2203.399     3355.196      947.438        0.850        0.325      102.436       27.516        0.072      333.782        3.321      852.255
01/27/2021  09:51:00      -29.997      -26.317       -5.865       42.131       29.870       26.934     1775.028      892.208      725.421        0.251        0.170       39.905       10.274        0.066      333.891        3.503      852.275
01/27/2021  09:52:00      -81.346      -19.082       -1.205       45.970       42.910       21.752     2113.276     1841.272      473.141        0.570        0.221       83.554       23.124        0.077      333.874        3.477      852.294
01/27/2021  09:53:00      -97.543       16.817      -10.667       45.648       49.764       27.160     2083.753     2476.443      737.684        0.760        0.265       98.982       15.701        0.025      333.764        3.293      852.307
01/27/2021  09:54:00      -85.494      -22.663      -18.695       54.398       25.202       23.421     2959.152      635.135      548.535        0.616        0.207       88.447       21.869        0.061      333.745        3.261      852.316
01/27/2021  09:55:00      -30.585      -12.569       -9.573       30.250       18.652       16.969      915.083      347.900      287.941        0.137        0.078       33.067       10.553        0.102      333.867        3.463      852.321
01/27/2021  09:56:00       -4.511      -16.936        3.487       27.057       27.469       18.742      732.074      754.534      351.252        0.108        0.092       17.527        5.652        0.104      333.960        3.617      852.328
01/27/2021  09:57:00      -36.153       -1.475       -7.375       29.489       14.243       17.602      869.588      202.877      309.846        0.137        0.069       36.183       14.987        0.172      333.842        3.422      852.329
01/27/2021  09:58:00      -28.690        0.679       -7.652       17.526       14.199       11.894      307.155      201.619      141.478        0.077        0.033       28.698        9.987        0.121      333.784        3.326      852.334
01/27/2021  09:59:00      -14.028       19.170       -5.586       36.342       13.590       15.633     1320.754      184.677      244.391        0.117        0.087       23.754       17.233        0.526      333.758        3.282      852.417
01/27/2021  10:00:00       37.039       62.022       -4.247       29.630       31.897       16.109      877.937     1017.390      259.514        0.370        0.108       72.240       17.858        0.061      333.801        3.353      852.444
01/27/2021  10:01:00       78.333       46.347      -11.036       32.514       17.301       14.642     1057.179      299.339      214.390        0.499        0.079       91.018       15.283        0.028      333.814        3.374      852.438
01/27/2021  10:02:00      123.707       61.202      -15.099       43.535       41.683       22.328     1895.283     1737.454      498.521        1.170        0.207      138.019       13.178        0.009      333.846        3.428      852.399
01/27/2021  10:03:00       62.693       19.957      -16.641       55.823       55.870       30.514     3116.227     3121.441      931.104        0.589        0.358       65.793       25.530        0.151      333.930        3.568      852.394
01/27/2021  10:04:00       63.213        7.072      -19.123       37.530       47.772       30.173     1408.485     2282.131      910.431        0.451        0.230       63.608       21.476        0.114      333.792        3.340      852.417
01/27/2021  10:05:00       39.289        3.869      -18.337       54.844       45.904       30.300     3007.901     2107.218      918.062        0.396        0.302       39.479       27.324        0.479      333.760        3.284      852.440
01/27/2021  10:06:00       52.859      -10.312       -9.825       52.211       44.043       30.175     2725.960     1939.807      910.537        0.429        0.279       53.856       28.903        0.288      333.766        3.295      852.493
01/27/2021  10:07:00       63.293      -17.371        6.157       59.089       28.469       33.404     3491.503      810.470     1115.825        0.488        0.271       65.633       36.008        0.301      333.761        3.289      852.537
01/27/2021  10:08:00       71.754        7.884       -8.739       37.877       39.682       20.089     1434.651     1574.670      403.569        0.435        0.171       72.186       13.228        0.034      333.758        3.284      852.529
01/27/2021  10:09:00       97.314       20.118       -1.944       40.751       44.286       23.965     1660.663     1961.213      574.332        0.704        0.210       99.371        8.227        0.007      333.559        2.953      852.469
01/27/2021  10:10:00       61.381       63.389       -4.412       39.650       22.976       18.860     1572.156      527.910      355.700        0.513        0.123       88.237       16.221        0.034      333.503        2.860      852.421
01/27/2021  10:11:00       78.871       54.866      -10.066       33.511       26.054       20.357     1122.974      678.813      414.400        0.577        0.111       96.077       15.054        0.025      333.583        2.993      852.444
01/27/2021  10:12:00       21.747      -24.309       -3.264       29.394       35.764       20.608      864.004     1279.066      424.680        0.182        0.128       32.617       11.674        0.128      333.755        3.278      852.532
01/27/2021  10:13:00        6.356       -0.792        1.054       27.921       24.059       20.993      779.578      578.848      440.717        0.092        0.090        6.405       16.161        6.365      333.860        3.452      852.601
01/27/2021  10:14:00       54.923       -5.543      -16.588       26.295       29.297       19.301      691.441      858.320      372.531        0.262        0.096       55.202       12.120        0.048      333.743        3.257      852.586
01/27/2021  10:15:00      145.037       21.887      -10.686       34.442       28.567       22.809     1186.279      816.068      520.270        1.208        0.126      146.679       13.762        0.009      333.546        2.932      852.507
01/27/2021  10:16:00       46.264      -13.219       -5.024       45.722       40.751       25.140     2090.487     1660.625      632.030        0.336        0.219       48.116       10.357        0.046      333.729        3.235      852.520
01/27/2021  10:17:00      -34.646       -9.816       -7.397       35.049       36.600       15.304     1228.434     1339.534      234.210        0.208        0.140       36.010       17.284        0.230      333.704        3.194      852.622
01/27/2021  10:18:00        8.513       11.977        7.893       29.947       23.981       18.760      896.824      575.101      351.926        0.105        0.091       14.694       15.415        1.101      333.758        3.284      852.630
01/27/2021  10:19:00       26.154       18.875       -4.556       28.716       28.610       18.140      824.585      818.548      329.074        0.152        0.099       32.254       17.978        0.311      333.803        3.356      852.579
01/27/2021  10:20:00       29.380        3.573       -2.956       33.615       32.633       19.174     1129.950     1064.939      367.651        0.172        0.128       29.596       14.711        0.247      333.878        3.483      852.538
01/27/2021  10:21:00       28.810      -19.350       -7.146       36.342       38.524       27.134     1320.741     1484.125      736.251        0.240        0.177       34.705       13.447        0.150      333.935        3.576      852.558
01/27/2021  10:22:00       36.118      -38.528      -22.772      206.498       30.798       95.074    42641.431      948.526     9039.120        2.796        2.631       52.810      137.160        6.746      334.030        3.737      852.608
01/27/2021  10:23:00       87.252      -30.195       -1.451       59.150       44.744       28.932     3498.666     2002.008      837.044        0.743        0.317       92.329       19.067        0.043      333.874        3.475      852.634
01/27/2021  10:24:00       45.985      -34.956       13.750       61.819       45.121       39.506     3821.607     2035.868     1560.735        0.547        0.371       57.763       34.858        0.364      333.975        3.643      852.622
01/27/2021  10:25:00       93.751       -3.164       -0.869       96.622       77.068       50.572     9335.892     5939.422     2557.512        1.331        0.892       93.804       41.657        0.197      333.853        3.439      852.572
01/27/2021  10:26:00       88.881       -0.532      -12.826       72.833       62.480       55.914     5304.609     3903.761     3126.416        1.020        0.617       88.882       45.788        0.265      333.826        3.396      852.550
01/27/2021  10:27:00       92.539      -31.484      -23.733       53.642       57.902       33.105     2877.446     3352.598     1095.949        0.872        0.366       97.748       22.915        0.055      333.895        3.511      852.570
01/27/2021  10:28:00       82.980       10.111      -14.170       56.719       58.381       29.475     3216.998     3408.336      868.750        0.734        0.375       83.593       28.232        0.114      333.941        3.586      852.583
01/27/2021  10:29:00       73.584       43.930       -0.579       61.896       44.614       27.149     3831.159     1990.440      737.087        0.695        0.328       85.700       29.226        0.116      333.839        3.417      852.605
01/27/2021  10:30:00       51.208      -13.645      -11.814       38.398       47.799       21.889     1474.396     2284.727      479.116        0.359        0.212       52.995       20.239        0.146      333.989        3.665      852.641
01/27/2021  10:31:00       76.441      -23.304      -13.877       27.690       37.231       23.802      766.741     1386.168      566.524        0.465        0.136       79.914       19.361        0.059      333.962        3.620      852.678
01/27/2021  10:32:00       72.210       20.798       -9.966       26.949       60.108       22.381      726.241     3612.969      500.888        0.529        0.242       75.145       11.952        0.025      333.880        3.485      852.694
01/27/2021  10:33:00       41.179       29.139      -16.365       24.645       11.379       17.421      607.370      129.474      303.488        0.193        0.052       50.446       10.891        0.047      333.864        3.458      852.690
01/27/2021  10:34:00       50.055       41.075       -5.594       33.206       33.660       16.925     1102.659     1132.975      286.469        0.337        0.126       64.751       17.486        0.073      333.887        3.497      852.682
01/27/2021  10:35:00       77.228       38.245       -1.998       56.590       48.363       23.747     3202.406     2338.981      563.920        0.677        0.305       86.179       27.381        0.101      333.887        3.498      852.695
01/27/2021  10:36:00       75.277       52.885       -3.940       40.093       41.603       26.219     1607.428     1730.813      687.425        0.625        0.201       91.997       20.545        0.050      333.902        3.523      852.739
01/27/2021  10:37:00      118.062       72.573       -6.004       37.289       32.291       28.595     1390.440     1042.707      817.656        1.125        0.163      138.584       20.520        0.022      333.786        3.328      852.761
01/27/2021  10:38:00       53.252       55.446       -0.139       32.869       19.103       16.706     1080.383      364.929      279.095        0.382        0.086       76.877        7.830        0.010      333.843        3.424      852.780
01/27/2021  10:39:00       89.294       49.630      -11.261       25.359       31.550       18.135      643.098      995.413      328.879        0.626        0.098      102.160       11.217        0.012      333.850        3.435      852.800
01/27/2021  10:40:00       53.904       34.472        0.838       34.365       34.031       19.482     1180.948     1158.106      379.546        0.341        0.136       63.984       15.727        0.060      333.857        3.447      852.802
01/27/2021  10:41:00       40.456       19.203       -2.555       29.847       24.730       16.150      890.816      611.588      260.823        0.189        0.088       44.782       13.660        0.093      333.950        3.600      852.800
01/27/2021  10:42:00       36.112        1.261       -2.504       29.517       28.645       15.922      871.252      820.540      253.505        0.163        0.097       36.134       15.076        0.174      334.013        3.706      852.810
01/27/2021  10:43:00       85.041       11.783       -9.186       27.497       20.889       13.618      756.090      436.357      185.444        0.442        0.069       85.854        9.658        0.013      333.910        3.534      852.823
01/27/2021  10:44:00       77.147       16.703      -10.371       41.493       30.480       19.744     1721.651      929.051      389.845        0.469        0.152       78.934       14.928        0.036      333.943        3.590      852.806
01/27/2021  10:45:00       84.900       -0.350       -7.078       23.311       31.664       17.819      543.388     1002.619      317.500        0.456        0.093       84.901       12.736        0.023      333.900        3.520      852.819
01/27/2021  10:46:00       67.764       31.733      -10.912       13.880       13.387        9.782      192.642      179.213       95.693        0.309        0.023       74.826        6.179        0.007      333.856        3.447      852.826
01/27/2021  10:47:00       55.287       11.492       -4.608       32.176       32.732       15.659     1035.297     1071.386      245.190        0.278        0.118       56.469       17.401        0.095      334.058        3.781      852.850
01/27/2021  10:48:00      122.664       52.209      -15.316       38.702       37.026       19.216     1497.849     1370.927      369.255        1.062        0.162      133.313       11.725        0.008      334.154        3.939      852.885
01/27/2021  10:49:00      103.441       44.021      -12.690       42.402       41.804       21.791     1797.954     1747.547      474.861        0.841        0.201      112.419       15.844        0.020      334.135        3.909      852.914
01/27/2021  10:50:00      107.926       32.676      -21.447       47.857       45.209       25.073     2290.305     2043.846      628.646        0.907        0.248      112.764       19.850        0.031      334.088        3.830      852.922
01/27/2021  10:51:00      137.782       44.261       -8.287       49.863       43.585       30.097     2486.294     1899.649      905.842        1.315        0.265      144.716       18.514        0.016      334.010        3.701      852.920
01/27/2021  10:52:00      162.752       21.151       -4.325       51.342       41.186       30.365     2635.950     1696.326      922.025        1.610        0.263      164.121       25.387        0.024      334.065        3.790      852.911
01/27/2021  10:53:00      145.801       45.051       -8.068       40.124       38.312       26.522     1609.912     1467.826      703.392        1.357        0.189      152.603       24.148        0.025      334.027        3.729      852.881
01/27/2021  10:54:00       96.238       36.307       -7.256       57.553       51.298       27.925     3312.318     2631.491      779.833        0.868        0.336      102.859       31.968        0.097      334.062        3.787      852.850
01/27/2021  10:55:00      121.042       83.549      -15.430       49.380       33.562       24.967     2438.350     1126.413      623.332        1.303        0.209      147.077       25.664        0.030      334.037        3.744      852.820
01/27/2021  10:56:00      171.913      112.464      -13.496       62.834       29.768       32.268     3948.121      886.159     1041.195        2.413        0.294      205.431       29.514        0.021      334.011        3.702      852.798
01/27/2021  10:57:00      196.140      105.649      -16.010       59.245       35.993       29.187     3509.913     1295.482      851.863        2.777        0.283      222.783       29.641        0.018      334.025        3.724      852.793
01/27/2021  10:58:00      118.841       84.653      -18.162       50.755       37.578       26.462     2576.044     1412.072      700.212        1.315        0.234      145.908       20.646        0.020      334.069        3.799      852.802
01/27/2021  10:59:00      208.613      106.179      -11.149       44.632       40.488       27.934     1991.981     1639.299      780.288        2.966        0.221      234.079       22.288        0.009      334.064        3.786      852.822
01/27/2021  11:00:00      167.774       79.990      -17.129       59.874       48.586       33.134     3584.904     2360.637     1097.843        2.094        0.352      185.867       27.113        0.021      334.093        3.835      852.848
01/27/2021  11:01:00      172.315      104.132      -12.479       52.673       33.818       34.714     2774.434     1143.676     1205.080        2.291        0.256      201.336       26.847        0.018      334.119        3.879      852.866
01/27/2021  11:02:00      134.838       73.724      -13.633       37.132       29.352       25.376     1378.810      861.535      643.955        1.334        0.144      153.676       24.398        0.025      334.090        3.834      852.888
01/27/2021  11:03:00      104.024       74.069      -14.264       46.958       39.006       26.214     2205.040     1521.457      687.153        1.046        0.221      127.700       27.047        0.045      334.092        3.836      852.878
01/27/2021  11:04:00       55.511        8.232      -12.509       53.335       30.194       31.935     2844.652      911.686     1019.868        0.404        0.239       56.118       34.671        0.382      334.251        4.100      852.849
01/27/2021  11:05:00      178.715       67.363      -22.855       90.099       52.983       34.646     8117.759     2807.202     1200.336        2.456        0.606      190.989       34.416        0.032      334.035        3.740      852.822
01/27/2021  11:06:00      159.551       83.488      -11.937       68.676       45.951       34.703     4716.448     2111.482     1204.293        2.030        0.402      180.074       34.663        0.037      334.075        3.807      852.756
01/27/2021  11:07:00      206.644       93.887      -20.176       58.686       47.123       33.587     3444.068     2220.598     1128.059        2.936        0.340      226.973       27.332        0.015      334.021        3.715      852.701
01/27/2021  11:08:00      195.513      121.356      -20.224       76.555       43.103       35.058     5860.635     1857.833     1229.096        3.115        0.447      230.115       13.605        0.003      334.010        3.697      852.682
01/27/2021  11:09:00      178.289      143.630      -20.079       83.556       49.308       37.982     6981.637     2431.324     1442.619        3.184        0.543      228.947       30.823        0.018      334.033        3.737      852.643
01/27/2021  11:10:00      231.890       17.679      -15.880       97.561       79.442       45.982     9518.243     6311.042     2114.323        3.614        0.897      232.563       50.540        0.047      334.043        3.753      852.663
01/27/2021  11:11:00      163.595       31.942      -18.314       83.000       77.916       41.954     6889.071     6070.916     1760.141        2.142        0.736      166.684       38.626        0.054      334.055        3.774      852.762
01/27/2021  11:12:00      136.037      -27.092       -7.016      127.831       87.006       58.272    16340.684     7570.041     3395.656        2.329        1.365      138.709       60.609        0.191      334.108        3.861      852.843
01/27/2021  11:13:00      215.442      -40.850      -14.647       83.884       89.214       48.411     7036.540     7959.112     2343.611        3.282        0.867      219.281       49.700        0.051      334.057        3.775      852.943
01/27/2021  11:14:00      148.784      -35.700      -20.718       73.055       74.045       36.987     5337.085     5482.614     1368.039        1.801        0.609      153.007       40.287        0.069      334.105        3.857      852.975
01/27/2021  11:15:00      161.175      -33.592      -26.959       68.736       70.956       35.345     4724.583     5034.692     1249.255        1.942        0.550      164.639       30.598        0.035      334.086        3.826      852.966
01/27/2021  11:16:00      203.530       -3.237      -21.475       93.623       72.450       51.218     8765.176     5248.960     2623.261        2.926        0.832      203.556       43.677        0.046      334.114        3.871      852.958
01/27/2021  11:17:00      168.129      -35.022      -15.538       84.980       70.469       48.006     7221.528     4965.872     2304.563        2.211        0.725      171.738       40.470        0.056      334.055        3.773      852.961
01/27/2021  11:18:00       94.447      -43.548       -6.733       76.540       66.909       49.042     5858.382     4476.782     2405.118        1.180        0.637      104.004       36.574        0.124      334.186        3.992      852.961
01/27/2021  11:19:00       61.618      -92.479      -13.425       80.686      109.116       49.959     6510.194    11906.359     2495.857        1.672        1.046      111.127       54.727        0.243      334.277        4.142      852.939
01/27/2021  11:20:00      152.008     -162.783      -45.442       93.033      143.696       58.639     8655.202    20648.415     3438.516        4.220        1.637      222.721       57.645        0.067      334.150        3.928      852.900
01/27/2021  11:21:00      284.924     -356.857      -73.110      121.046      170.855       68.143    14652.226    29191.299     4643.507       13.117        2.424      456.650       79.702        0.030      334.178        3.976      852.808
01/27/2021  11:22:00      220.888     -238.789      -66.363       78.549      119.147       48.788     6169.922    14196.022     2380.221        6.648        1.137      325.287       39.327        0.015      334.208        4.026      852.701
01/27/2021  11:23:00      150.550     -133.877      -42.197      121.565      108.325       53.893    14778.097    11734.226     2904.456        3.589        1.471      201.466       51.222        0.065      334.214        4.036      852.609
01/27/2021  11:24:00      152.435     -143.081      -45.308      127.580      188.945       65.515    16276.688    35700.097     4292.216        5.100        2.813      209.066       85.746        0.168      334.202        4.017      852.555
01/27/2021  11:25:00       42.122      -50.451      -10.756       97.532       92.753       42.915     9512.574     8603.042     1841.717        1.219        0.998       65.723       37.455        0.325      334.326        4.223      852.559
01/27/2021  11:26:00      166.268      -45.808      -21.037       99.820       89.499       61.719     9964.016     8010.055     3809.229        2.598        1.089      172.462       48.016        0.078      334.300        4.180      852.545
01/27/2021  11:27:00      130.063     -195.416      -39.424      116.611      151.665       64.151    13598.210    23002.346     4115.346        4.868        2.036      234.742       50.525        0.046      334.316        4.204      852.553
01/27/2021  11:28:00      126.740     -115.137      -31.591       92.778      135.901       46.940     8607.711    18469.029     2203.330        2.979        1.464      171.229       49.266        0.083      334.290        4.164      852.522
01/27/2021  11:29:00       58.066      -74.832      -19.136       71.872       62.729       40.348     5165.582     3934.906     1627.930        1.003        0.536       94.718       47.248        0.249      334.440        4.414      852.452
01/27/2021  11:30:00      135.969     -274.341      -43.675       74.616      131.311       47.076     5567.566    17242.456     2216.168        6.034        1.251      306.187       36.785        0.014      334.274        4.135      852.370
01/27/2021  11:31:00      191.987     -133.118      -49.280       87.664      113.434       53.286     7685.055    12867.193     2839.395        4.019        1.170      233.622       49.771        0.045      334.306        4.188      852.282
01/27/2021  11:32:00      137.917     -204.776      -38.880       83.422       89.788       44.627     6959.264     8061.926     1991.613        3.974        0.851      246.890       43.432        0.031      334.346        4.255      852.271
01/27/2021  11:33:00      167.910     -158.470      -40.065      104.351      131.514       59.456    10889.175    17296.012     3534.989        4.331        1.586      230.882       53.828        0.054      334.409        4.360      852.263
01/27/2021  11:34:00      174.139     -298.755      -58.498       90.048      101.138       52.863     8108.613    10228.872     2794.460        7.206        1.057      345.802       49.480        0.020      334.296        4.171      852.272
01/27/2021  11:35:00      166.124     -247.822      -48.572       71.576      107.855       46.711     5123.117    11632.634     2181.912        5.515        0.947      298.350       47.392        0.025      334.347        4.257      852.312
01/27/2021  11:36:00      191.522     -199.833      -46.416       91.848      137.871       54.603     8436.019    19008.524     2981.522        5.459        1.521      276.792       44.928        0.026      334.371        4.296      852.297
01/27/2021  11:37:00      207.984      -75.786      -20.121      141.424      144.916       84.199    20000.795    21000.696     7089.451        4.874        2.405      221.362       74.100        0.112      334.412        4.365      852.232
01/27/2021  11:38:00      169.321      -12.576      -20.069      122.496      106.379       76.394    15005.224    11316.419     5836.091        3.069        1.608      169.787       49.882        0.086      334.479        4.475      852.198
01/27/2021  11:39:00      182.808      -32.354      -26.763      159.788      123.534       66.996    25532.340    15260.563     4488.414        4.022        2.264      185.649       63.360        0.116      334.480        4.477      852.186
01/27/2021  11:40:00      119.160     -175.334      -41.878      104.045      149.393       48.102    10825.372    22318.217     2313.789        4.107        1.773      211.993       41.159        0.038      334.517        4.539      852.205
01/27/2021  11:41:00      124.372     -221.632      -28.860       96.160       70.919       52.618     9246.651     5029.468     2768.657        4.123        0.852      254.144       57.571        0.051      334.453        4.430      852.226
01/27/2021  11:42:00       98.498     -240.842      -43.390       84.121       80.898       51.504     7076.419     6544.464     2652.619        4.293        0.814      260.205       41.371        0.025      334.490        4.494      852.205
01/27/2021  11:43:00       31.512     -155.453      -18.155       96.999       60.944       47.099     9408.736     3714.202     2218.332        2.041        0.767      158.615       56.229        0.126      334.554        4.601      852.197
01/27/2021  11:44:00       24.462      -14.329       -9.468       96.855       51.951       35.525     9380.904     2698.918     1262.019        0.711        0.667       28.349       33.795        1.421      334.651        4.764      852.216
01/27/2021  11:45:00       86.583      -98.725      -11.617       98.237       65.340       41.315     9650.474     4269.256     1706.922        1.650        0.781      131.313       45.169        0.118      334.588        4.658      852.256
01/27/2021  11:46:00      101.625     -115.140      -27.251       67.945       65.969       41.972     4616.472     4351.975     1761.633        1.753        0.537      153.574       45.222        0.087      334.611        4.696      852.281
01/27/2021  11:47:00       98.587     -122.497      -38.154       51.337       54.532       29.354     2635.472     2973.780      861.672        1.632        0.324      157.241       28.085        0.032      334.654        4.767      852.307
01/27/2021  11:48:00       54.381     -134.812      -10.567       54.403       53.681       35.287     2959.656     2881.599     1245.137        1.416        0.354      145.367       37.375        0.066      334.597        4.672      852.316
01/27/2021  11:49:00      129.052     -201.418      -33.494       74.237       65.285       45.201     5511.156     4262.162     2043.088        3.508        0.591      239.214       40.890        0.029      334.610        4.691      852.301
01/27/2021  11:50:00      123.076     -197.587      -50.343       88.098      104.238       42.375     7761.297    10865.660     1795.628        3.857        1.021      232.784       50.372        0.047      334.645        4.750      852.284
01/27/2021  11:51:00      120.987     -167.053      -32.889       67.741       67.836       41.762     4588.803     4601.786     1744.075        2.728        0.547      206.263       37.743        0.033      334.622        4.713      852.290
01/27/2021  11:52:00      181.926     -254.859      -54.298      102.087      112.688       50.341    10421.748    12698.586     2534.238        6.332        1.283      313.130       48.334        0.024      334.591        4.659      852.312
01/27/2021  11:53:00      156.094     -226.507      -53.177      115.976      137.596       66.427    13450.374    18932.661     4412.603        5.764        1.840      275.083       57.093        0.043      334.598        4.671      852.351
01/27/2021  11:54:00      130.198     -258.975      -43.713       87.850       91.099       52.359     7717.702     8298.944     2741.510        5.234        0.938      289.861       51.320        0.031      334.616        4.702      852.353
01/27/2021  11:55:00       69.751      -73.502      -25.285       67.765       84.706       36.653     4592.067     7175.063     1343.410        1.201        0.656      101.330       39.825        0.154      334.720        4.877      852.330
01/27/2021  11:56:00      117.621     -149.565      -32.398       78.171       86.233       55.244     6110.628     7436.090     3051.954        2.692        0.830      190.274       46.646        0.060      334.691        4.827      852.339
01/27/2021  11:57:00       70.963     -138.409      -26.845       82.081       83.717       41.445     6737.322     7008.487     1717.688        2.019        0.773      155.541       49.237        0.100      334.721        4.878      852.374
01/27/2021  11:58:00       99.470     -178.281      -36.842       62.495       51.790       35.718     3905.640     2682.220     1275.797        2.545        0.393      204.153       28.572        0.020      334.712        4.863      852.414
01/27/2021  11:59:00      124.500     -141.115      -38.405       77.299       59.603       34.873     5975.181     3552.573     1216.101        2.381        0.537      188.186       31.531        0.028      334.738        4.906      852.442
01/27/2021  12:00:00      102.175     -129.819      -32.217       59.849       82.888       38.119     3581.954     6870.357     1453.046        2.012        0.595      165.205       33.803        0.042      334.713        4.866      852.430
01/27/2021  12:01:00      205.515     -187.924      -47.505       82.073       97.061       42.603     6736.027     9420.868     1815.057        4.889        0.899      278.481       35.835        0.017      334.644        4.748      852.375
01/27/2021  12:02:00      140.057     -151.404      -36.836       92.560       78.892       48.336     8567.420     6223.928     2336.378        3.051        0.856      206.250       57.446        0.078      334.752        4.929      852.319
01/27/2021  12:03:00      116.624     -109.670      -21.405       93.574       98.887       56.447     8756.181     9778.736     3186.222        2.390        1.086      160.090       68.836        0.185      334.750        4.926      852.289
01/27/2021  12:04:00      165.205     -161.442      -46.390       63.268       92.766       35.761     4002.885     8605.487     1278.856        3.469        0.694      230.989       37.133        0.026      334.742        4.911      852.266
01/27/2021  12:05:00       77.748      -62.337      -13.643       68.100       88.732       44.429     4637.552     7873.376     1973.918        1.230        0.724       99.653       38.742        0.151      334.876        5.136      852.229
01/27/2021  12:06:00      137.950      -67.457      -13.433      118.506       85.247       61.927    14043.597     7267.108     3834.909        2.445        1.257      153.560       70.756        0.212      334.810        5.026      852.196
01/27/2021  12:07:00       53.006      -31.250      -18.444       66.468       60.690       43.691     4417.933     3683.289     1908.944        0.707        0.501       61.532       39.019        0.402      334.928        5.225      852.188
01/27/2021  12:08:00      125.525      -16.871      -12.081       97.021       88.128       51.086     9413.031     7766.507     2609.812        1.798        0.989      126.653       49.785        0.155      334.850        5.092      852.205
01/27/2021  12:09:00       18.903      -89.258      -23.220       63.913       70.998       33.313     4084.893     5040.765     1109.725        0.955        0.512       91.238       36.642        0.161      334.915        5.204      852.240
01/27/2021  12:10:00      109.794     -214.489      -33.285       55.314       52.302       33.425     3059.603     2735.493     1117.231        3.304        0.346      240.957       34.160        0.020      334.804        5.014      852.280
01/27/2021  12:11:00      149.304     -275.885      -44.736       69.978       85.287       43.984     4896.898     7273.797     1934.556        5.725        0.705      313.694       43.012        0.019      334.768        4.955      852.248
01/27/2021  12:12:00      159.008     -240.065      -38.568      104.352      109.118       53.835    10889.383    11906.816     2898.162        5.504        1.285      287.950       66.307        0.053      334.760        4.942      852.247
01/27/2021  12:13:00      142.091     -189.955      -41.572       85.400      171.893       49.600     7293.096    29547.202     2460.197        4.864        1.965      237.219       66.873        0.079      334.791        4.993      852.263
01/27/2021  12:14:00      143.485     -212.955      -44.283       72.733       73.771       37.941     5290.023     5442.168     1439.539        4.003        0.609      256.783       33.591        0.017      334.772        4.962      852.282
01/27/2021  12:15:00       26.231      -50.895      -18.826      101.070       63.966       49.740    10215.211     4091.688     2474.085        1.020        0.839       57.257       40.458        0.499      334.874        5.135      852.311
01/27/2021  12:16:00       46.376      -63.570      -23.850       73.085       50.423       30.980     5341.397     2542.490      959.765        0.780        0.442       78.688       42.655        0.294      335.010        5.363      852.328
01/27/2021  12:17:00      160.222     -116.612      -41.307       70.892       76.564       39.188     5025.672     5862.080     1535.678        2.670        0.621      198.165       42.289        0.046      334.755        4.935      852.333
01/27/2021  12:18:00       -3.749      -18.086      -16.051       87.336       55.930       40.586     7627.532     3128.191     1647.236        0.650        0.620       18.471       32.975        3.187      334.922        5.215      852.274
01/27/2021  12:19:00      153.729     -303.523      -50.174       93.501      166.767       46.778     8742.446    27811.116     2188.193        7.850        1.937      340.234       74.039        0.047      334.779        4.974      852.217
01/27/2021  12:20:00      152.298     -167.164      -41.150      145.768      129.553       67.409    21248.324    16783.955     4544.013        4.769        2.129      226.138       88.634        0.154      334.770        4.958      852.162
01/27/2021  12:21:00      180.886     -129.462      -48.712       89.017      121.875       48.447     7924.008    14853.419     2347.133        3.848        1.256      222.442       39.326        0.031      334.815        5.034      852.177
01/27/2021  12:22:00      146.427     -142.513      -35.923      160.996      130.275       70.507    25919.575    16971.684     4971.212        4.544        2.393      204.330       85.498        0.175      334.889        5.157      852.148
01/27/2021  12:23:00      258.994     -352.638      -66.905      138.012      180.363       77.842    19047.410    32530.781     6059.343       12.676        2.882      437.529       70.883        0.026      334.801        5.009      852.150
01/27/2021  12:24:00      213.026     -190.904      -58.696       89.073       90.603       51.901     7933.928     8208.927     2693.747        5.205        0.942      286.050       49.876        0.030      334.808        5.022      852.169
01/27/2021  12:25:00       87.124      -84.590      -23.374       77.453       77.725       43.134     5998.995     6041.133     1860.538        1.459        0.695      121.433       43.414        0.128      334.948        5.258      852.181
01/27/2021  12:26:00      155.416      -55.460      -36.675      108.687      131.180       70.176    11812.885    17208.114     4924.625        3.125        1.697      165.015       67.687        0.168      334.893        5.165      852.184
01/27/2021  12:27:00      119.496     -126.152      -37.113       66.420       79.725       35.424     4411.595     6356.146     1254.875        2.179        0.601      173.763       40.264        0.054      334.824        5.050      852.209
01/27/2021  12:28:00        4.478      -49.590      -14.504       64.670       56.532       33.343     4182.203     3195.859     1111.755        0.559        0.424       49.792       23.971        0.232      334.998        5.342      852.193
01/27/2021  12:29:00       69.448     -211.012      -22.718       70.992      119.578       43.835     5039.800    14298.850     1921.542        3.556        1.063      222.147       33.581        0.023      334.930        5.226      852.172
01/27/2021  12:30:00       75.326     -104.013      -33.782       71.035       74.442       35.563     5046.031     5541.614     1264.757        1.474        0.593      128.424       29.137        0.051      334.951        5.263      852.208
01/27/2021  12:31:00      143.006     -157.664      -51.682       70.186       52.481       35.389     4926.069     2754.211     1252.384        2.845        0.447      212.858       35.187        0.027      334.854        5.099      852.249
01/27/2021  12:32:00       92.676      -94.058      -27.881       57.739       72.848       36.616     3333.813     5306.831     1340.723        1.410        0.499      132.044       32.087        0.059      334.954        5.267      852.265
01/27/2021  12:33:00      127.782     -130.916      -39.647       73.941       67.441       42.525     5467.343     4548.232     1808.370        2.343        0.591      182.941       44.549        0.059      334.943        5.247      852.270
01/27/2021  12:34:00      -42.095      -20.445      -12.113       58.771       48.876       29.472     3454.034     2388.817      868.593        0.452        0.336       46.797       16.838        0.129      335.024        5.384      852.273
01/27/2021  12:35:00       -8.746       20.460       -5.687       58.294       28.973       23.824     3398.176      839.409      567.588        0.267        0.240       22.251       25.026        1.265      334.953        5.265      852.257
01/27/2021  12:36:00        6.676      -23.166      -11.212       62.772       47.590       34.615     3940.263     2264.763     1198.223        0.405        0.370       24.109       36.970        2.351      335.174        5.633      852.230
01/27/2021  12:37:00      141.893     -152.526      -47.070       76.437       90.454       43.643     5842.666     8181.924     1904.746        3.077        0.796      208.321       48.758        0.055      334.957        5.270      852.189
01/27/2021  12:38:00      117.330     -123.969      -45.595      133.626      113.691       70.085    17855.802    12925.681     4911.960        3.345        1.785      170.689       63.564        0.139      334.869        5.124      852.146
01/27/2021  12:39:00       47.336     -126.107      -22.269       67.356      100.115       47.362     4536.805    10023.057     2243.135        1.772        0.840      134.698       42.945        0.102      335.076        5.471      852.184
01/27/2021  12:40:00      231.367     -142.989      -66.163      123.920      122.053       67.442    15356.106    14896.852     4548.373        5.657        1.740      271.987       66.596        0.060      334.811        5.026      852.138
01/27/2021  12:41:00       48.053     -108.345      -29.754       82.682      109.479       64.181     6836.292    11985.628     4119.218        1.893        1.147      118.523       47.075        0.158      334.918        5.206      852.112
01/27/2021  12:42:00      129.839     -151.562      -58.550      101.229      115.695       46.529    10247.210    13385.338     2164.978        3.452        1.290      199.573       45.542        0.052      334.939        5.240      852.142
01/27/2021  12:43:00      103.000     -158.575      -47.172      103.136      133.976       48.958    10636.969    17949.651     2396.879        3.448        1.549      189.090       68.095        0.130      334.899        5.174      852.151
01/27/2021  12:44:00      -17.574     -103.985       -5.315       78.238       78.213       42.358     6121.217     6117.245     1794.234        1.259        0.702      105.459       41.613        0.156      335.085        5.484      852.170
01/27/2021  12:45:00       28.424     -109.986      -29.458      121.740       75.578       37.121    14820.678     5712.038     1377.987        1.784        1.096      113.600       47.611        0.176      335.083        5.479      852.203
01/27/2021  12:46:00      122.240     -122.578      -34.263       77.198       58.203       34.266     5959.572     3387.620     1174.163        2.083        0.526      173.113       41.710        0.058      334.937        5.238      852.186
01/27/2021  12:47:00       41.843       -9.859      -10.275       58.031       43.299       30.901     3367.606     1874.835      954.893        0.407        0.310       42.989       33.652        0.613      335.167        5.622      852.162
01/27/2021  12:48:00       26.927      -60.101      -17.291       67.862       49.711       42.979     4605.206     2471.184     1847.157        0.678        0.446       65.857       37.158        0.318      335.164        5.616      852.162
01/27/2021  12:49:00        7.651      -49.137      -17.051       58.883       31.365       32.120     3467.162      983.732     1031.672        0.412        0.274       49.729       31.683        0.406      335.094        5.503      852.137
01/27/2021  12:50:00       96.633     -147.030      -37.124       59.197       57.135       33.320     3504.285     3264.356     1110.219        2.010        0.394      175.942       29.301        0.028      335.027        5.387      852.093
01/27/2021  12:51:00       81.614      -75.438      -30.894       58.494       64.230       32.572     3421.526     4125.484     1060.920        1.096        0.430      111.138       22.337        0.040      335.004        5.351      852.042
01/27/2021  12:52:00      107.393      -91.812      -34.458       85.347       99.726       47.205     7284.164     9945.328     2228.288        2.030        0.973      141.289       51.908        0.135      335.023        5.382      852.036
01/27/2021  12:53:00      182.723     -223.442      -62.727       82.947      103.762       47.027     6880.283    10766.593     2211.581        5.355        0.993      288.642       47.697        0.027      334.880        5.141      852.015
01/27/2021  12:54:00      230.968     -215.233      -63.242       74.558       99.346       45.736     5558.891     9869.621     2091.781        6.059        0.876      315.708       52.365        0.028      334.917        5.203      851.991
01/27/2021  12:55:00      155.359     -160.379      -35.972       96.534      125.637       69.203     9318.772    15784.633     4789.025        4.052        1.495      223.288       70.594        0.100      334.923        5.212      851.943
01/27/2021  12:56:00      154.003      -91.934      -37.894      113.558       94.800       46.323    12895.332     8986.960     2145.790        2.881        1.201      179.357       66.815        0.139      334.928        5.222      851.875
01/27/2021  12:57:00      -31.971      -54.113       -8.312       84.730       89.716       42.579     7179.247     8048.885     1812.969        1.053        0.852       62.852       41.725        0.441      335.027        5.390      851.831
01/27/2021  12:58:00       98.220      -57.757      -22.143      110.341       91.038       54.144    12175.216     8287.966     2931.544        1.843        1.170      113.943       59.610        0.274      335.053        5.432      851.805
01/27/2021  12:59:00       97.951      -92.896      -26.376       82.133      117.446       47.462     6745.854    13793.457     2252.647        2.085        1.140      134.997       43.882        0.106      334.950        5.261      851.742
01/27/2021  13:00:00      125.691     -128.122      -33.260       65.755       96.647       42.357     4323.718     9340.637     1794.077        2.439        0.773      179.481       38.448        0.046      334.994        5.332      851.744
01/27/2021  13:01:00      206.545      -79.898      -20.146      148.370       87.998       56.992    22013.538     7743.657     3248.132        4.122        1.650      221.460       63.838        0.083      334.969        5.290      851.757
01/27/2021  13:02:00      124.662       -6.310       -7.956       88.843       72.322       48.098     7893.117     5230.540     2313.403        1.554        0.772      124.822       44.695        0.128      334.978        5.306      851.795
01/27/2021  13:03:00       71.667      -67.040      -29.754       66.463       60.778       40.542     4417.386     3694.017     1643.647        1.013        0.488       98.135       43.650        0.198      335.095        5.502      851.847
01/27/2021  13:04:00      143.868     -214.701      -44.763      105.207       73.005       48.745    11068.444     5329.715     2376.066        4.378        0.939      258.447       63.319        0.060      334.940        5.241      851.866
01/27/2021  13:05:00      142.178      -93.884      -37.982      111.119       84.928       43.329    12347.371     7212.839     1877.436        2.595        1.072      170.379       54.111        0.101      334.896        5.169      851.848
01/27/2021  13:06:00        9.023      -89.993      -32.373      105.197       69.116       50.266    11066.490     4777.027     2526.632        1.380        0.919       90.444       42.040        0.216      335.020        5.377      851.858
01/27/2021  13:07:00       47.791     -176.154      -42.313      124.281       70.563       47.364    15445.852     4979.118     2243.353        2.888        1.133      182.522       43.544        0.057      335.131        5.558      851.885
01/27/2021  13:08:00       33.242      -86.869      -19.398       79.653       72.047       35.256     6344.533     5190.810     1242.970        1.090        0.639       93.013       32.546        0.122      335.135        5.568      851.841
01/27/2021  13:09:00      178.425     -129.666      -41.048       73.846       73.234       35.432     5453.187     5363.159     1255.426        3.120        0.604      220.564       39.722        0.032      334.966        5.287      851.724
01/27/2021  13:10:00      112.382     -131.136      -37.767       56.820       69.789       28.020     3228.464     4870.467      785.103        2.007        0.444      172.703       35.110        0.041      334.907        5.188      851.660
01/27/2021  13:11:00       83.904      -90.239      -33.735      166.605      130.239       66.222    27757.096    16962.312     4385.403        3.270        2.455      123.219       72.147        0.343      334.932        5.230      851.645
01/27/2021  13:12:00      139.140     -171.348      -48.255      116.245      136.224       65.396    13512.880    18556.966     4276.655        4.369        1.817      220.726       48.213        0.048      334.857        5.103      851.580
01/27/2021  13:13:00       63.043     -164.970      -45.848       89.438       86.945       41.521     7999.072     7559.406     1723.969        2.528        0.864      176.605       47.264        0.072      334.897        5.171      851.597
01/27/2021  13:14:00       31.121     -120.039      -33.790       72.508       58.500       37.818     5257.401     3422.294     1430.201        1.331        0.505      124.007       38.231        0.095      334.961        5.279      851.604
01/27/2021  13:15:00      133.958     -235.644      -47.934       56.419       67.625       38.195     3183.057     4573.174     1458.896        4.249        0.461      271.059       36.363        0.018      334.829        5.056      851.650
01/27/2021  13:16:00       32.835      -56.284      -19.907       75.361       71.952       37.772     5679.330     5177.036     1426.727        0.846        0.614       65.162       46.827        0.516      335.016        5.369      851.699
01/27/2021  13:17:00        6.652      -78.661      -32.645       56.731       46.932       30.785     3218.445     2202.594      947.710        0.683        0.318       78.942       23.690        0.090      334.984        5.318      851.727
01/27/2021  13:18:00       10.657      -54.426      -11.749       72.514       77.033       31.577     5258.322     5934.089      997.111        0.770        0.609       55.460       39.416        0.505      335.049        5.425      851.724
01/27/2021  13:19:00       63.618     -153.487      -34.925       94.557       62.451       42.301     8940.956     3900.068     1789.379        2.172        0.732      166.149       20.584        0.015      334.938        5.240      851.702
01/27/2021  13:20:00      -88.319     -246.768      -23.740       80.345      117.566       53.628     6455.392    13821.741     2875.909        4.620        1.158      262.097       36.288        0.019      334.896        5.169      851.668
01/27/2021  13:21:00      -49.264      -57.649      -22.242       55.099       44.386       29.823     3035.869     1970.152      889.435        0.607        0.295       75.832       20.057        0.070      334.803        5.017      851.625
01/27/2021  13:22:00       81.720     -177.429      -44.542      108.565      132.249       43.863    11786.437    17489.751     1923.996        3.566        1.560      195.344       53.055        0.074      334.747        4.921      851.563
01/27/2021  13:23:00       57.951      -10.193      -18.370      121.246      105.771       67.722    14700.620    11187.500     4586.289        1.713        1.524       58.840       62.266        1.120      334.689        4.826      851.443
01/27/2021  13:24:00       71.088     -158.606      -33.127      156.650      115.032       43.154    24539.080    13232.265     1862.230        3.546        1.982      173.809       62.200        0.128      334.746        4.920      851.372
01/27/2021  13:25:00       21.658     -128.670      -25.037       80.544       96.462       46.180     6487.308     9304.866     2132.592        1.778        0.896      130.480       44.505        0.116      334.691        4.828      851.384
01/27/2021  13:26:00       54.705     -115.334      -39.945       91.194       88.112       42.861     8316.283     7763.724     1837.039        1.790        0.896      127.650       30.206        0.056      334.650        4.761      851.439
01/27/2021  13:27:00       60.806     -128.622      -37.459      126.334      125.134       58.555    15960.221    15658.407     3428.740        2.834        1.752      142.271       70.483        0.245      334.587        4.655      851.505
01/27/2021  13:28:00       81.235     -125.213      -41.309       82.671       95.497       40.105     6834.483     9119.620     1608.427        2.077        0.878      149.257       32.408        0.047      334.580        4.646      851.573
01/27/2021  13:29:00       -7.306      -68.574      -29.393       72.995       50.044       38.693     5328.231     2504.431     1497.183        0.747        0.466       68.962       30.272        0.193      334.742        4.915      851.663
01/27/2021  13:30:00       17.265     -146.275      -22.096      121.631       98.269       46.882    14794.213     9656.738     2197.946        2.441        1.332      147.291       30.516        0.043      334.659        4.775      851.703
01/27/2021  13:31:00       92.708     -205.729      -33.112       96.665       97.353       58.343     9344.139     9477.645     3403.890        3.712        1.111      225.653       50.170        0.049      334.531        4.561      851.693
01/27/2021  13:32:00       99.944     -164.534      -47.582       87.123      132.288       55.919     7590.357    17500.056     3126.883        3.376        1.411      192.510       54.913        0.081      334.510        4.528      851.659
01/27/2021  13:33:00      -10.087     -178.194      -39.015      163.180       81.555       52.055    26627.840     6651.156     2709.730        3.468        1.799      178.480       33.161        0.035      334.538        4.574      851.690
01/27/2021  13:34:00      -47.927      -84.770      -20.131       75.991       84.273       41.971     5774.611     7101.885     1761.543        1.226        0.732       97.380       13.391        0.019      334.586        4.654      851.704
01/27/2021  13:35:00      -43.734      -51.319      -14.448       71.730       55.430       37.974     5145.254     3072.467     1442.050        0.721        0.483       67.426       32.852        0.237      334.694        4.836      851.689
01/27/2021  13:36:00       23.777     -101.489      -21.956       99.980       89.048       45.070     9996.048     7929.484     2031.263        1.565        0.998      104.237       34.490        0.109      334.616        4.705      851.681
01/27/2021  13:37:00       -9.729     -233.456      -36.560      127.765      131.311       61.381    16323.917    17242.677     3767.649        4.663        1.867      233.659       52.293        0.050      334.608        4.691      851.688
01/27/2021  13:38:00       69.246     -301.537      -45.414      142.319      135.128       94.416    20254.781    18259.680     8914.293        7.260        2.371      309.386       80.868        0.068      334.610        4.693      851.624
01/27/2021  13:39:00       37.526     -236.905      -51.612      140.583      100.648       69.451    19763.442    10130.069     4823.408        4.745        1.736      239.859       60.608        0.064      334.646        4.752      851.576
01/27/2021  13:40:00      -58.949     -107.536      -21.350       72.228       90.934       42.073     5216.894     8268.937     1770.139        1.537        0.763      122.634       34.432        0.079      334.582        4.648      851.490
01/27/2021  13:41:00      -71.246      -52.870      -27.535       50.099       57.970       35.434     2509.898     3360.553     1255.578        0.788        0.356       88.720       26.104        0.087      334.644        4.751      851.437
01/27/2021  13:42:00      -31.293      -31.086      -23.364       44.261       44.341       33.371     1959.034     1966.132     1113.601        0.376        0.252       44.109       25.664        0.339      334.647        4.758      851.409
01/27/2021  13:43:00      -72.686      -43.024      -20.066      101.055       66.008       43.954    10212.056     4357.031     1931.976        1.202        0.825       84.465       39.152        0.215      334.443        4.419      851.401
01/27/2021  13:44:00     -106.164      -45.505       -5.945       75.828       66.109       39.496     5749.854     4370.446     1559.897        1.253        0.584      115.505       35.019        0.092      334.358        4.277      851.350
01/27/2021  13:45:00      -62.097      -24.174        4.499       65.754       34.315       32.690     4323.588     1177.543     1068.629        0.551        0.328       66.637       28.685        0.185      334.426        4.391      851.303
01/27/2021  13:46:00      -74.376      -12.915        0.152       49.914       45.520       31.758     2491.452     2072.086     1008.577        0.563        0.279       75.489       19.856        0.069      334.354        4.272      851.282
01/27/2021  13:47:00     -131.212       33.341       -3.853       68.411       47.960       34.562     4679.997     2300.130     1194.507        1.326        0.409      135.382       24.833        0.034      334.324        4.221      851.293
01/27/2021  13:48:00     -175.009       -2.112      -10.671       90.743       49.806       34.141     8234.313     2480.634     1165.622        2.131        0.594      175.022       19.496        0.012      334.295        4.173      851.293
01/27/2021  13:49:00     -153.849      -35.655       -6.512       74.938       39.956       29.258     5615.635     1596.467      856.043        1.652        0.403      157.926       28.730        0.033      334.281        4.148      851.283
01/27/2021  13:50:00      -45.801      -27.289       -4.146       76.006       34.871       26.518     5776.942     1215.996      703.228        0.528        0.385       53.314        5.167        0.009      334.440        4.415      851.290
01/27/2021  13:51:00      -65.457        9.612      -21.638       86.457       31.676       26.468     7474.886     1003.368      700.535        0.701        0.459       66.159       12.779        0.037      334.510        4.529      851.325
01/27/2021  13:52:00     -119.251      -20.043      -18.612       79.983       47.445       36.618     6397.334     2251.001     1340.892        1.248        0.499      120.924       28.879        0.057      334.392        4.335      851.345
01/27/2021  13:53:00      -74.593      -14.856       -2.084      101.245       55.819       39.294    10250.503     3115.743     1543.999        1.035        0.746       76.058       28.983        0.145      334.381        4.316      851.353
01/27/2021  13:54:00     -103.890        9.018       -6.355       81.375       55.877       41.086     6621.963     3122.217     1688.064        1.117        0.572      104.281       26.584        0.065      334.368        4.295      851.378
01/27/2021  13:55:00     -123.421        5.222        1.344      128.192       56.743       40.263    16433.296     3219.805     1621.098        1.826        1.064      123.531       44.940        0.132      334.382        4.318      851.430
01/27/2021  13:56:00     -219.862       17.283       -1.341       71.093       46.194       39.729     5054.280     2133.869     1578.363        2.870        0.438      220.540       34.007        0.024      334.306        4.188      851.468
01/27/2021  13:57:00      -93.435        2.171       -3.784      100.264       43.720       34.389    10052.817     1911.427     1182.586        1.095        0.657       93.461       38.544        0.170      334.399        4.347      851.470
01/27/2021  13:58:00     -155.458       42.251       -4.591       64.392       51.969       30.723     4146.289     2700.817      943.913        1.688        0.390      161.097       23.942        0.022      334.410        4.364      851.455
01/27/2021  13:59:00      -64.568       20.531       -2.937       57.517       33.288       28.950     3308.226     1108.063      838.086        0.493        0.263       67.754       22.508        0.110      334.443        4.419      851.457
01/27/2021  14:00:00      -28.790       -0.839       -2.695       48.361       46.425       32.347     2338.804     2155.257     1046.340        0.319        0.277       28.802       22.008        0.584      334.437        4.410      851.495
01/27/2021  14:01:00      -70.975        6.642        1.376       79.803       62.164       37.005     6368.458     3864.375     1369.336        0.834        0.580       71.285       34.454        0.234      334.436        4.409      851.547
01/27/2021  14:02:00     -127.133       -8.222        1.387       87.859       50.619       38.163     7719.209     2562.317     1456.406        1.398        0.587      127.398       32.588        0.065      334.407        4.359      851.590
01/27/2021  14:03:00     -187.751       35.105      -17.109       58.074       36.107       29.257     3372.544     1303.694      855.985        2.115        0.277      191.005       25.040        0.017      334.362        4.283      851.587
01/27/2021  14:04:00      -55.122       12.841       -4.760       69.053       38.503       23.975     4768.297     1482.468      574.781        0.502        0.341       56.598       25.344        0.201      334.531        4.566      851.536
01/27/2021  14:05:00      -58.900      -42.760      -13.228       43.915       22.449       22.778     1928.510      503.958      518.824        0.421        0.148       72.785       14.175        0.038      334.456        4.440      851.462
01/27/2021  14:06:00      -41.237      -31.129       -4.265       29.499       31.417       18.759      870.184      987.054      351.887        0.245        0.110       51.668       16.453        0.101      334.506        4.523      851.389
01/27/2021  14:07:00        2.291       -0.031       -4.532       33.472       20.792       22.797     1120.357      432.309      519.695        0.105        0.104        2.291       10.369       20.480      334.629        4.727      851.339
01/27/2021  14:08:00      -34.957      -12.086       -0.872       44.941       27.177       15.887     2019.729      738.610      252.404        0.219        0.151       36.987       13.611        0.135      334.541        4.581      851.335
01/27/2021  14:09:00      -71.654       -8.398        2.077       54.739       29.311       23.199     2996.360      859.125      538.204        0.480        0.220       72.144       27.767        0.148      334.471        4.467      851.365
01/27/2021  14:10:00      -18.594       -9.101      -10.013       32.685       24.583       16.668     1068.329      604.339      277.806        0.124        0.098       20.702        9.566        0.213      334.536        4.573      851.392
01/27/2021  14:11:00      -33.219       -4.409       -4.242       34.207       16.246       16.601     1170.104      263.937      275.608        0.142        0.085       33.511        9.947        0.088      334.514        4.538      851.395
01/27/2021  14:12:00      -24.726       -1.839      -13.894       27.305       22.011       17.919      745.541      484.496      321.100        0.118        0.078       24.795       19.625        0.626      334.552        4.600      851.394
01/27/2021  14:13:00      -90.606      -21.752      -10.500       32.244       25.050       19.449     1039.686      627.517      378.251        0.542        0.102       93.180        5.138        0.003      334.442        4.417      851.399
01/27/2021  14:14:00      -63.758      -20.217        3.726       35.819       27.611       24.469     1283.024      762.381      598.732        0.357        0.132       66.887       19.581        0.086      334.433        4.403      851.400
01/27/2021  14:15:00      -21.881        6.986       -5.852       30.743       11.975       14.896      945.119      143.391      221.881        0.094        0.066       22.969       10.735        0.218      334.404        4.355      851.391
01/27/2021  14:16:00      -36.639       -6.615       -1.979       35.197       30.659       22.026     1238.855      939.980      485.131        0.203        0.133       37.232       11.750        0.100      334.458        4.445      851.395
01/27/2021  14:17:00      -42.988       -0.983       -8.855       29.464        8.334       20.019      868.098       69.454      400.766        0.163        0.067       43.000        9.645        0.050      334.365        4.291      851.404
01/27/2021  14:18:00       -4.952       -0.438       -0.197       23.696        5.823       16.082      561.518       33.906      258.624        0.044        0.043        4.972       14.585        8.605      334.549        4.595      851.407
01/27/2021  14:19:00       36.886       34.328      -12.292       55.604       27.338       25.874     3091.841      747.357      669.465        0.360        0.225       50.388       23.241        0.213      334.467        4.459      851.396
01/27/2021  14:20:00      146.935       61.585      -19.164       38.324       21.878       16.753     1468.756      478.642      280.648        1.399        0.111      159.319       18.494        0.013      334.284        4.156      851.373
01/27/2021  14:21:00      138.665       23.662      -15.098       45.793       43.982       25.678     2097.016     1934.402      659.376        1.235        0.235      140.670       19.003        0.018      334.396        4.340      851.362
01/27/2021  14:22:00      112.401       18.835       -3.017       45.980       47.336       27.229     2114.197     2240.739      741.419        0.905        0.255      113.968       23.535        0.043      334.387        4.326      851.389
01/27/2021  14:23:00       55.851       12.409      -11.393       44.544       48.206       22.730     1984.130     2323.814      516.656        0.411        0.241       57.213       18.644        0.106      334.446        4.423      851.437
01/27/2021  14:24:00       50.717       28.246      -26.086       36.340       46.432       21.216     1320.603     2155.960      450.115        0.399        0.196       58.052       14.441        0.062      334.433        4.403      851.469
01/27/2021  14:25:00       93.469       12.821      -18.108       54.528       69.524       24.908     2973.300     4833.623      620.420        0.883        0.421       94.344       29.715        0.099      334.407        4.361      851.478
01/27/2021  14:26:00      111.115       23.527       -7.983       40.821       43.594       29.491     1666.334     1900.413      869.704        0.870        0.222      113.578       24.171        0.045      334.397        4.343      851.498
01/27/2021  14:27:00       52.212       25.276       -8.910       51.479       48.205       28.235     2650.095     2323.692      797.228        0.461        0.289       58.009       28.025        0.233      334.420        4.381      851.519
01/27/2021  14:28:00       51.509       75.623      -14.415       35.789       21.070       24.651     1280.875      443.939      607.662        0.546        0.117       91.498       18.394        0.040      334.314        4.205      851.528
01/27/2021  14:29:00       51.624       41.227       -6.397       28.705       14.231       15.026      823.975      202.520      225.780        0.283        0.063       66.065       14.462        0.048      334.318        4.212      851.513
01/27/2021  14:30:00       79.813       52.203       -8.409       27.049       15.809       17.493      731.662      249.926      306.006        0.523        0.064       95.370       14.197        0.022      334.336        4.242      851.489
01/27/2021  14:31:00       91.694       43.194      -15.596       25.676       16.755       14.210      659.235      280.718      201.911        0.583        0.057      101.358       13.450        0.018      334.307        4.191      851.455
01/27/2021  14:32:00       95.834       39.448      -12.278       13.922       14.322        8.765      193.832      205.129       76.818        0.568        0.024      103.636        5.620        0.003      334.348        4.261      851.424
01/27/2021  14:33:00       90.258       44.180      -12.077       27.898       20.400       17.041      778.278      416.166      290.389        0.586        0.074      100.491       15.940        0.025      334.337        4.243      851.401
01/27/2021  14:34:00       53.806       41.811       -6.538       41.632       39.943       22.647     1733.255     1595.417      512.904        0.426        0.192       68.141       12.673        0.035      334.455        4.439      851.389
01/27/2021  14:35:00       43.380       39.117      -16.722       34.125       44.881       21.341     1164.523     2014.340      455.439        0.366        0.182       58.412       11.759        0.041      334.436        4.409      851.408
01/27/2021  14:36:00       65.067       24.692      -13.464       51.938       74.523       33.310     2697.575     5553.743     1109.532        0.719        0.468       69.595       28.938        0.173      334.453        4.436      851.421
01/27/2021  14:37:00       53.927       15.831      -21.151       54.166       69.637       28.148     2934.000     4849.374      792.294        0.609        0.429       56.203       26.160        0.217      334.424        4.388      851.446
01/27/2021  14:38:00       77.739        4.504      -23.835       41.177       51.576       27.854     1695.511     2660.084      775.869        0.588        0.257       77.869       14.394        0.034      334.396        4.342      851.523
01/27/2021  14:39:00      119.056       53.857      -14.042       38.735       34.623       26.714     1500.374     1198.771      713.640        1.034        0.171      130.671       26.049        0.040      334.221        4.051      851.612
01/27/2021  14:40:00       72.804       57.096      -13.516       62.296       55.987       26.462     3880.836     3134.543      700.263        0.823        0.386       92.522       25.844        0.078      334.278        4.146      851.680
01/27/2021  14:41:00       23.894      -32.959      -13.694       44.799       69.422       34.526     2006.910     4819.436     1192.034        0.493        0.401       40.709       28.742        0.499      334.368        4.294      851.718
01/27/2021  14:42:00       36.654      -21.917      -18.086       38.094       75.809       34.070     1451.182     5747.076     1160.768        0.525        0.418       42.706       23.468        0.302      334.403        4.352      851.728
01/27/2021  14:43:00       50.808      -62.538      -20.736       38.438       51.133       32.460     1477.469     2614.548     1053.638        0.603        0.257       80.576       24.047        0.089      334.476        4.473      851.718
01/27/2021  14:44:00       70.162      -47.550      -22.528       73.488       50.817       36.578     5400.445     2582.373     1337.929        0.850        0.466       84.757       37.340        0.194      334.496        4.507      851.724
01/27/2021  14:45:00       91.737      -37.974      -22.489       74.534       82.395       46.745     5555.288     6788.987     2185.096        1.244        0.726       99.286       37.160        0.140      334.529        4.560      851.761
01/27/2021  14:46:00       79.927      -18.488      -42.975       61.806       75.470       36.442     3820.042     5695.708     1328.040        0.971        0.542       82.038       33.396        0.166      334.483        4.485      851.771
01/27/2021  14:47:00       82.469       -2.415      -20.473       53.165       71.454       28.273     2826.526     5105.642      799.338        0.798        0.437       82.504       24.485        0.088      334.449        4.429      851.754
01/27/2021  14:48:00       98.159      -34.756      -15.727       65.707       52.056       37.588     4317.422     2709.828     1412.876        0.976        0.422      104.130       26.447        0.065      334.530        4.561      851.729
01/27/2021  14:49:00      127.579      -73.913      -24.594       94.733       92.646       48.361     8974.398     8583.362     2338.834        2.112        0.995      147.443       52.110        0.125      334.427        4.391      851.742
01/27/2021  14:50:00       91.558     -140.014      -31.083       47.027       83.074       31.379     2211.567     6901.357      984.617        1.952        0.505      167.292       24.267        0.021      334.471        4.463      851.795
01/27/2021  14:51:00      214.761     -375.647      -59.329      115.098      117.216       51.808    13247.539    13739.605     2684.034       11.021        1.484      432.704       47.582        0.012      334.319        4.211      851.880
01/27/2021  14:52:00      358.380     -530.095      -96.080      138.734      309.128       94.215    19247.056    95560.116     8876.553       27.115        6.184      639.872       91.382        0.020      333.787        3.328      851.880
01/27/2021  14:53:00      268.715     -313.438      -83.145      166.751      235.298       96.689    27805.989    55365.157     9348.680       13.492        4.626      412.858      117.613        0.081      333.840        3.415      852.006
01/27/2021  14:54:00      191.138     -263.223      -61.220      146.517      184.726       88.999    21467.141    34123.809     7920.757        8.653        3.176      325.300       89.774        0.076      333.782        3.320      852.098
01/27/2021  14:55:00       37.924     -127.220      -30.224      142.524      152.654       61.851    20313.051    23303.188     3825.514        3.298        2.372      132.752       62.947        0.225      333.879        3.480      852.140
01/27/2021  14:56:00       17.863     -111.117      -21.820      138.324      103.673       49.522    19133.554    10748.137     2452.384        2.273        1.617      112.543       52.672        0.219      333.863        3.455      852.127
01/27/2021  14:57:00      127.117     -294.784      -47.378      111.440      142.965       59.034    12418.967    20438.952     3485.023        7.081        1.817      321.024       51.636        0.026      333.518        2.882      852.059
01/27/2021  14:58:00       72.818     -203.424      -64.278      151.195      178.883       71.832    22859.900    31999.141     5159.904        5.540        3.001      216.064       47.531        0.048      333.497        2.847      852.003
01/27/2021  14:59:00       98.591     -290.099      -50.986      107.684      102.712       61.097    11595.863    10549.679     3732.811        6.117        1.294      306.395       55.903        0.033      333.449        2.767      852.046
01/27/2021  15:00:00       72.530     -252.854      -30.946       92.144      133.379       51.012     8490.472    17789.928     2602.242        4.951        1.444      263.051       61.006        0.054      333.483        2.824      852.107
01/27/2021  15:01:00      154.914     -389.082      -52.413       87.693      146.746       55.386     7690.094    21534.290     3067.559       10.520        1.615      418.788       29.291        0.005      333.229        2.404      852.095
01/27/2021  15:02:00      159.684     -337.176      -52.107       77.841      118.798       48.769     6059.213    14112.980     2378.426        8.222        1.128      373.078       33.903        0.008      333.209        2.370      852.035
01/27/2021  15:03:00      140.759     -234.119      -49.635       83.144      125.161       44.621     6912.909    15665.269     1991.043        5.082        1.228      273.175       41.981        0.024      333.128        2.238      851.952
01/27/2021  15:04:00      143.742     -342.275      -43.285       60.674       91.276       48.182     3681.282     8331.325     2321.543        7.701        0.717      371.233       48.735        0.017      332.979        1.991      851.945
01/27/2021  15:05:00      125.223     -224.492      -50.044       92.457       99.897       50.425     8548.234     9979.371     2542.721        4.482        1.054      257.055       58.381        0.052      333.032        2.079      851.992
01/27/2021  15:06:00       56.769     -112.400      -14.543       52.752       72.556       38.916     2782.817     5264.409     1514.458        1.281        0.478      125.923       34.728        0.076      333.123        2.230      852.033
01/27/2021  15:07:00      165.647     -192.979      -37.886       88.252      106.612       48.787     7788.478    11366.140     2380.186        4.382        1.077      254.322       50.951        0.040      332.905        1.869      851.966
01/27/2021  15:08:00       86.255     -169.261      -27.097       81.449       91.180       45.575     6633.970     8313.776     2077.097        2.692        0.851      189.971       43.093        0.051      332.896        1.854      851.968
01/27/2021  15:09:00      112.826     -186.737      -45.495       96.825       98.261       42.446     9375.125     9655.311     1801.633        3.525        1.042      218.176       30.786        0.020      332.887        1.840      851.993
01/27/2021  15:10:00       80.861     -101.387      -28.997       89.583      107.792       46.509     8025.138    11619.020     2163.094        1.973        1.090      129.684       59.223        0.209      332.819        1.728      852.038
01/27/2021  15:11:00       67.528     -135.431      -27.321       71.737       63.660       34.168     5146.176     4052.648     1167.422        1.700        0.518      151.333       24.331        0.026      332.821        1.732      852.058
01/27/2021  15:12:00      100.509     -141.438      -30.150       69.271       68.265       29.097     4798.484     4660.051      846.660        2.066        0.515      173.513       21.153        0.015      332.880        1.829      852.063
01/27/2021  15:13:00      124.570     -185.344      -27.077      157.257       94.454       76.444    24729.649     8921.571     5843.634        4.504        1.975      223.316       97.884        0.192      332.786        1.672      852.061
01/27/2021  15:14:00       93.964     -126.909      -18.955       64.565       74.875       45.551     4168.702     5606.269     2074.858        1.857        0.592      157.909       37.332        0.056      332.710        1.548      852.077
01/27/2021  15:15:00      351.142      -87.799     -161.267      819.568       91.179      400.375   671692.407     8313.639   160299.883       49.850       42.015      361.952      569.645        2.477      334.038        3.766      852.127
01/27/2021  15:16:00      204.113     -131.412      -85.506      362.583       86.120      172.417   131466.083     7416.664    29727.741       11.739        8.431      242.758      247.551        1.040      333.187        2.336      852.130
01/27/2021  15:17:00      182.291     -187.157      -60.274      382.968      101.955      176.610   146664.111    10394.733    31190.987       13.003        9.412      261.262      256.615        0.965      333.103        2.200      852.139
01/27/2021  15:18:00      193.820     -141.738      -38.223      220.243       98.040      111.509    48507.085     9611.800    12434.193        6.482        3.528      240.116      144.551        0.362      332.829        1.744      852.131
01/27/2021  15:19:00      110.419     -189.514      -29.449       70.515       78.034       36.980     4972.385     6089.298     1367.522        3.070        0.621      219.335       29.607        0.018      332.704        1.537      852.119
01/27/2021  15:20:00      147.135     -210.372      -36.507       73.502       76.189       47.445     5402.504     5804.827     2250.995        4.035        0.673      256.720       48.309        0.035      332.430        1.084      852.133
01/27/2021  15:21:00      170.628     -203.191      -62.529      127.424      114.289       63.768    16236.866    13061.973     4066.390        5.383        1.668      265.331       91.194        0.118      332.090        0.523      852.149
01/27/2021  15:22:00      107.491     -126.555      -49.157       99.329      108.286       49.571     9866.186    11725.867     2457.272        2.701        1.202      166.043       62.572        0.142      331.678       -0.153      852.159
01/27/2021  15:23:00       99.435      -93.037      -28.881      229.447       93.886      113.132    52646.093     8814.593    12798.753        4.680        3.713      136.173      152.159        1.249      332.230        0.759      852.174
01/27/2021  15:24:00       50.475      -73.075      -13.604       97.367       77.540       59.221     9480.243     6012.515     3507.077        1.353        0.950       88.813       66.099        0.554      331.072       -1.150      852.193
01/27/2021  15:25:00      167.000     -129.000      -75.000        0.000        0.000        0.000        0.000        0.000        0.000        2.508        0.000      211.021        0.000        0.000      330.320       -2.390      852.200
01/27/2021  15:26:00      167.000     -129.000      -75.000        0.000        0.000        0.000        0.000        0.000        0.000        2.508        0.000      211.021        0.000        0.000      330.320       -2.390      852.200
01/27/2021  15:27:00      167.000     -129.000      -75.000        0.000        0.000        0.000        0.000        0.000        0.000        2.508        0.000      211.021        0.000        0.000      330.320       -2.390      852.200
01/27/2021  15:28:00      167.000     -129.000      -75.000        0.000        0.000        0.000        0.000        0.000        0.000        2.508        0.000      211.021        0.000        0.000      330.320       -2.390      852.200
01/27/2021  15:29:00      167.000     -129.000      -75.000        0.000        0.000        0.000        0.000        0.000        0.000        2.508        0.000      211.021        0.000        0.000      330.320       -2.390      852.200
01/27/2021  15:30:00      167.000     -129.000      -75.000        0.000        0.000        0.000        0.000        0.000        0.000        2.508        0.000      211.021        0.000        0.000      330.320       -2.390      852.200
01/27/2021  15:31:00      167.000     -129.000      -75.000        0.000        0.000        0.000        0.000        0.000        0.000        2.508        0.000      211.021        0.000        0.000      330.320       -2.390      852.200
01/27/2021  15:32:00      167.000     -129.000      -75.000        0.000        0.000        0.000        0.000        0.000        0.000        2.508        0.000      211.021        0.000        0.000      330.320       -2.390      852.200
01/27/2021  15:33:00      167.000     -129.000      -75.000        0.000        0.000        0.000        0.000        0.000        0.000        2.508        0.000      211.021        0.000        0.000      330.320       -2.390      852.200
01/27/2021  15:34:00      167.000     -129.000      -75.000        0.000        0.000        0.000        0.000        0.000        0.000        2.508        0.000      211.021        0.000        0.000      330.320       -2.390      852.200
01/27/2021  15:35:00      167.000     -129.000      -75.000        0.000        0.000        0.000        0.000        0.000        0.000        2.508        0.000      211.021        0.000        0.000      330.320       -2.390      852.200
01/27/2021  15:36:00      167.000     -129.000      -75.000        0.000        0.000        0.000        0.000        0.000        0.000        2.508        0.000      211.021        0.000        0.000      330.320       -2.390      852.200
01/27/2021  15:37:00      167.000     -129.000      -75.000        0.000        0.000        0.000        0.000        0.000        0.000        2.508        0.000      211.021        0.000        0.000      330.320       -2.390      852.200
01/27/2021  15:38:00      167.000     -129.000      -75.000        0.000        0.000        0.000        0.000        0.000        0.000        2.508        0.000      211.021        0.000        0.000      330.320       -2.390      852.200
01/27/2021  15:39:00      167.000     -129.000      -75.000        0.000        0.000        0.000        0.000        0.000        0.000        2.508        0.000      211.021        0.000        0.000      330.320       -2.390      852.200
01/27/2021  15:40:00      167.000     -129.000      -75.000        0.000        0.000        0.000        0.000        0.000        0.000        2.508        0.000      211.021        0.000        0.000      330.320       -2.390      852.200
01/27/2021  15:41:00      167.000     -129.000      -75.000        0.000        0.000        0.000        0.000        0.000        0.000        2.508        0.000      211.021        0.000        0.000      330.320       -2.390      852.200
01/27/2021  15:42:00      167.000     -129.000      -75.000        0.000        0.000        0.000        0.000        0.000        0.000        2.508        0.000      211.021        0.000        0.000      330.320       -2.390      852.200
01/27/2021  15:43:00      167.000     -129.000      -75.000        0.000        0.000        0.000        0.000        0.000        0.000        2.508        0.000      211.021        0.000        0.000      330.320       -2.390      852.200
01/27/2021  15:44:00      167.000     -129.000      -75.000        0.000        0.000        0.000        0.000        0.000        0.000        2.508        0.000      211.021        0.000        0.000      330.320       -2.390      852.200
01/27/2021  15:45:00      167.000     -129.000      -75.000        0.000        0.000        0.000        0.000        0.000        0.000        2.508        0.000      211.021        0.000        0.000      330.320       -2.390      852.200
01/27/2021  15:46:00      167.000     -129.000      -75.000        0.000        0.000        0.000        0.000        0.000        0.000        2.508        0.000      211.021        0.000        0.000      330.320       -2.390      852.200
01/27/2021  15:47:00      167.000     -129.000      -75.000        0.000        0.000        0.000        0.000        0.000        0.000        2.508        0.000      211.021        0.000        0.000      330.320       -2.390      852.200
01/27/2021  15:48:00      167.000     -129.000      -75.000        0.000        0.000        0.000        0.000        0.000        0.000        2.508        0.000      211.021        0.000        0.000      330.320       -2.390      852.200
01/27/2021  15:49:00      167.000     -129.000      -75.000        0.000        0.000        0.000        0.000        0.000        0.000        2.508        0.000      211.021        0.000        0.000      330.320       -2.390      852.200
01/27/2021  15:50:00      167.000     -129.000      -75.000        0.000        0.000        0.000        0.000        0.000        0.000        2.508        0.000      211.021        0.000        0.000      330.320       -2.390      852.200
01/27/2021  15:51:00      167.000     -129.000      -75.000        0.000        0.000        0.000        0.000        0.000        0.000        2.508        0.000      211.021        0.000        0.000      330.320       -2.390      852.200
01/27/2021  15:52:00      167.000     -129.000      -75.000        0.000        0.000        0.000        0.000        0.000        0.000        2.508        0.000      211.021        0.000        0.000      330.320       -2.390      852.200
01/27/2021  15:53:00      167.000     -129.000      -75.000        0.000        0.000        0.000        0.000        0.000        0.000        2.508        0.000      211.021        0.000        0.000      330.320       -2.390      852.200
01/27/2021  15:54:00      167.000     -129.000      -75.000        0.000        0.000        0.000        0.000        0.000        0.000        2.508        0.000      211.021        0.000        0.000      330.320       -2.390      852.200
01/27/2021  15:55:00      167.000     -129.000      -75.000        0.000        0.000        0.000        0.000        0.000        0.000        2.508        0.000      211.021        0.000        0.000      330.320       -2.390      852.200
01/27/2021  15:56:00      167.000     -129.000      -75.000        0.000        0.000        0.000        0.000        0.000        0.000        2.508        0.000      211.021        0.000        0.000      330.320       -2.390      852.200
01/27/2021  15:57:00      167.000     -129.000      -75.000        0.000        0.000        0.000        0.000        0.000        0.000        2.508        0.000      211.021        0.000        0.000      330.320       -2.390      852.200
01/27/2021  15:58:00      167.000     -129.000      -75.000        0.000        0.000        0.000        0.000        0.000        0.000        2.508        0.000      211.021        0.000        0.000      330.320       -2.390      852.200
01/27/2021  15:59:00      167.000     -129.000      -75.000        0.000        0.000        0.000        0.000        0.000        0.000        2.508        0.000      211.021        0.000        0.000      330.320       -2.390      852.200
01/27/2021  16:00:00      114.520     -121.456      -70.736      118.511       17.036        9.629    14044.775      290.222       92.717        2.365        0.721      166.932       33.948        0.041      330.179       -2.618      852.211
01/27/2021  16:01:00      234.486     -118.935      -97.305      647.973      112.479      301.537   419869.257    12651.571    90924.630       30.092       26.172      262.924      438.110        2.777      330.622       -1.874      852.243
01/27/2021  16:02:00       84.541     -287.299      -24.953      215.347      175.837      106.246    46374.528    30918.570    11288.151        8.943        4.429      299.480      136.361        0.207      330.342       -2.348      852.223
01/27/2021  16:03:00       89.345     -134.087      -48.436      311.830      169.901      153.658    97237.671    28866.465    23610.799        8.898        7.486      161.127      206.178        1.637      331.075       -1.143      852.223
01/27/2021  16:04:00       24.374     -154.944       -4.440      311.631      131.388      147.799    97113.689    17262.816    21844.477        8.039        6.811      156.849      205.147        1.711      331.444       -0.537      852.199
01/27/2021  16:05:00       79.624     -139.243       -6.604      280.153      103.671      138.168    78485.682    10747.589    19090.533        6.702        5.416      160.401      190.032        1.404      331.781        0.017      852.163
01/27/2021  16:06:00      209.916     -207.854      -57.938      244.549      126.906      123.855    59804.390    16105.085    15340.033        9.092        4.562      295.411      158.353        0.287      332.731        1.581      852.108
01/27/2021  16:07:00      189.337     -190.237      -62.843      349.542      107.183      166.096   122179.533    11488.131    27587.952       11.859        8.063      268.400      235.054        0.767      333.066        2.138      852.082
01/27/2021  16:08:00      184.410     -229.019      -44.825      218.174      126.625      106.328    47600.050    16033.840    11305.736        8.169        3.747      294.035      138.579        0.222      332.868        1.808      852.062
01/27/2021  16:09:00      234.473     -188.117      -70.087      353.129      114.697      172.038   124699.994    13155.513    29597.210       13.133        8.373      300.609      242.353        0.650      333.042        2.098      852.049
01/27/2021  16:10:00      211.334     -113.573      -65.076      411.969       83.845      196.113   169718.240     7029.933    38460.308       13.846       10.760      239.919      277.411        1.337      333.108        2.210      852.037
01/27/2021  16:11:00      328.564     -223.986     -110.418      562.556      123.978      266.592   316468.715    15370.466    71071.068       28.653       20.146      397.649      382.232        0.924      333.264        2.473      851.987
01/27/2021  16:12:00      139.537     -141.444      -58.595      215.325      108.753      112.976    46364.763    11827.154    12763.666        5.692        3.548      198.688      150.314        0.572      332.962        1.964      851.945
01/27/2021  16:13:00      146.376     -263.308      -54.491      306.722       92.171      145.906    94078.117     8495.572    21288.582       10.877        6.193      301.260      207.577        0.475      333.017        2.056      851.925
01/27/2021  16:14:00      146.939     -195.849      -53.207      369.664       56.751      177.880   136651.247     3220.669    31641.470       11.711        8.576      244.843      253.944        1.076      333.078        2.160      851.980
01/27/2021  16:15:00      133.332     -126.697      -36.365      232.886       67.208      107.977    54235.806     4516.854    11658.967        5.277        3.521      183.928      154.300        0.704      332.899        1.864      851.999
01/27/2021  16:16:00      124.978     -169.938      -29.302       61.041       73.639       31.382     3725.968     5422.640      984.821        2.774        0.507      210.946       25.064        0.014      332.843        1.766      851.994
01/27/2021  16:17:00      106.448      -68.823      -25.587      224.535       53.620      108.223    50415.995     2875.057    11712.240        4.085        3.250      126.758      150.443        1.409      333.058        2.126      851.960
01/27/2021  16:18:00       63.032      -48.085      -28.267      184.381       72.638       91.481    33996.282     5276.345     8368.844        2.735        2.382       79.279      126.597        2.550      333.086        2.170      851.923
01/27/2021  16:19:00       97.832     -114.420      -19.840       79.766      144.073       43.436     6362.538    20756.996     1886.683        2.603        1.450      150.542       54.505        0.131      333.042        2.097      851.913
01/27/2021  16:20:00      186.835     -221.934      -59.846      229.093       73.508      107.068    52483.410     5403.466    11463.557        7.853        3.468      290.107      153.931        0.282      332.898        1.857      851.911
01/27/2021  16:21:00      159.032     -169.545      -43.726      259.901       75.663      128.492    67548.324     5724.905    16510.248        7.285        4.489      232.458      177.977        0.586      332.965        1.970      851.910
01/27/2021  16:22:00      124.670     -200.712      -29.790       65.215       85.708       34.309     4253.023     7345.878     1177.079        3.474        0.639      236.279       32.535        0.019      332.893        1.849      851.934
01/27/2021  16:23:00      198.907     -278.178      -58.567      168.288       98.088       79.884    28320.813     9621.212     6381.496        8.234        2.216      341.975      107.646        0.099      332.927        1.905      851.959
01/27/2021  16:24:00      174.199     -218.607      -35.219      231.571      114.555      109.754    53625.331    13122.806    12045.998        7.907        3.940      279.525      148.060        0.281      332.977        1.989      851.987
01/27/2021  16:25:00      227.972     -316.898      -77.010      206.076      126.684       96.877    42467.187    16048.745     9385.194       11.310        3.395      390.379      128.907        0.109      332.945        1.936      852.045
01/27/2021  16:26:00      157.141     -199.791      -44.457       58.205       77.782       37.571     3387.781     6050.017     1411.601        3.872        0.542      254.185       36.701        0.021      332.895        1.853      852.099
01/27/2021  16:27:00      186.356     -236.692      -67.814      329.690       91.609      161.158   108695.780     8392.256    25971.798       11.917        7.153      301.250      228.573        0.576      333.118        2.224      852.159
01/27/2021  16:28:00      191.100     -203.331      -54.513       58.189       62.467       36.100     3385.993     3902.076     1303.223        4.471        0.430      279.039       27.037        0.009      332.868        1.806      852.172
01/27/2021  16:29:00      131.587     -209.280      -53.115      318.612       69.532      146.461   101513.725     4834.693    21450.887        9.584        6.390      247.211      210.618        0.726      333.047        2.107      852.209
01/27/2021  16:30:00      153.435     -117.216      -53.016      270.721      140.399      137.171    73289.890    19711.821    18815.858        7.593        5.591      193.085      179.807        0.867      333.039        2.092      852.187
01/27/2021  16:31:00      168.067     -183.975      -60.895      284.509      112.699      142.639    80945.108    12700.954    20345.893        8.987        5.700      249.186      193.595        0.604      332.990        2.014      852.150
01/27/2021  16:32:00       68.495      -62.906      -30.062      166.933       68.489       89.932    27866.713     4690.758     8087.675        2.509        2.032       92.998      114.082        1.505      332.963        1.968      852.088
01/27/2021  16:33:00      123.908     -114.880      -27.508       54.244       67.189       35.421     2942.455     4514.406     1254.665        1.901        0.436      168.969       39.801        0.055      332.888        1.843      852.029
01/27/2021  16:34:00      136.408     -206.529      -43.426      299.179       78.377      143.628    89507.888     6142.901    20629.083        8.969        5.814      247.510      203.512        0.676      333.029        2.077      852.025
01/27/2021  16:35:00       76.343     -128.460      -33.036      174.897       52.845       87.267    30588.861     2792.545     7615.610        3.220        2.050      149.433      116.946        0.612      332.978        1.994      852.086
01/27/2021  16:36:00       -6.389      -43.498      -27.648      322.794       59.102      157.893   104196.198     3493.049    24930.084        6.763        6.631       43.965      221.293       25.335      333.230        2.413      852.161
01/27/2021  16:37:00       81.711      -73.735      -20.639      170.336       43.845       83.362    29014.292     1922.403     6949.172        2.520        1.894      110.062      115.040        1.093      333.051        2.115      852.165
01/27/2021  16:38:00       13.543      -45.768      -15.097      178.977       48.649       86.978    32032.910     2366.687     7565.155        2.223        2.098       47.729      119.029        6.219      333.141        2.261      852.136
01/27/2021  16:39:00       63.213      -85.937      -32.826      250.176       61.768      122.542    62587.803     3815.265    15016.634        4.692        4.071      106.682      169.931        2.537      333.082        2.167      852.142
01/27/2021  16:40:00       37.539      -54.602       -6.529      181.301       99.616       88.956    32870.082     9923.311     7913.133        2.756        2.535       66.261      122.425        3.414      333.088        2.176      852.184
01/27/2021  16:41:00      -12.939      -21.911      -20.730       35.203       61.822       23.669     1239.219     3821.980      560.216        0.335        0.281       25.446       26.777        1.107      333.003        2.034      852.233
01/27/2021  16:42:00       97.871     -103.214      -35.486      262.353       79.455      129.075    68829.342     6313.029    16660.295        5.663        4.590      142.239      177.879        1.564      333.036        2.088      852.276
01/27/2021  16:43:00      -57.547      -23.733      -16.710      213.224       38.428      103.124    45464.399     1476.736    10634.492        3.085        2.879       62.249      142.902        5.270      333.100        2.196      852.310
01/27/2021  16:44:00        1.569      -13.510        2.703      166.238       27.232       81.187    27635.182      741.594     6591.375        1.757        1.748       13.601      113.271       69.355      332.997        2.025      852.321
01/27/2021  16:45:00        1.875      -52.128      -28.996      136.127       43.708       61.647    18530.552     1910.430     3800.391        1.390        1.212       52.162       85.850        2.709      333.043        2.098      852.325
01/27/2021  16:46:00       78.027      -26.134      -24.432       73.966       72.406       32.332     5470.981     5242.589     1045.328        0.956        0.588       82.287       38.616        0.220      333.061        2.128      852.340
01/27/2021  16:47:00       27.628      -44.909      -26.549      181.520       56.430       87.525    32949.332     3184.339     7660.567        2.363        2.190       52.727      119.260        5.116      333.055        2.122      852.321
01/27/2021  16:48:00      -10.223     -107.236      -10.850      216.405       87.654      104.623    46831.267     7683.213    10945.954        3.858        3.273      107.722      132.221        1.507      333.123        2.232      852.279
01/27/2021  16:49:00      -23.533      -59.569      -20.231       86.645       70.410       42.190     7507.289     4957.516     1780.012        0.938        0.712       64.049       27.021        0.178      333.116        2.221      852.243
01/27/2021  16:50:00       74.678     -100.905      -20.245       85.394       69.955       35.510     7292.145     4893.771     1260.964        1.480        0.672      125.533       37.539        0.089      332.993        2.015      852.198
01/27/2021  16:51:00       78.443      -75.017      -24.675       78.183       95.999       50.239     6112.613     9215.892     2524.001        1.512        0.893      108.540       38.238        0.124      332.953        1.948      852.142
01/27/2021  16:52:00      -13.423      -33.227      -15.612      216.375       75.198      102.899    46818.207     5654.689    10588.102        3.228        3.153       35.836      142.475       15.807      333.058        2.123      852.140
01/27/2021  16:53:00       -6.620      -59.684      -17.086      196.564       82.735       93.383    38637.387     6845.014     8720.299        2.904        2.710       60.050      129.092        4.621      333.202        2.364      852.134
01/27/2021  16:54:00      -33.518      -43.547      -18.433      179.198       78.232       80.797    32111.771     6120.229     6528.186        2.405        2.238       54.952      110.547        4.047      333.219        2.390      852.151
01/27/2021  16:55:00       -1.606      -89.558      -20.142       65.016       77.105       41.370     4227.080     5945.225     1711.438        1.015        0.594       89.573       30.980        0.120      333.142        2.265      852.139
01/27/2021  16:56:00       45.020     -180.085      -37.987       73.489       81.354       37.991     5400.564     6618.525     1443.295        2.468        0.673      185.627       29.760        0.026      333.150        2.275      852.135
01/27/2021  16:57:00      -73.071     -106.442      -22.131      165.241       54.540       81.043    27304.546     2974.621     6567.905        2.700        1.842      129.109      108.452        0.706      333.242        2.429      852.180
01/27/2021  16:58:00      -11.922      -76.080      -19.254      230.427       75.449      109.242    53096.715     5692.561    11933.886        3.850        3.536       77.009      149.414        3.764      333.229        2.408      852.225
01/27/2021  16:59:00      -39.081      -36.328       -3.208      137.108       72.927       66.930    18798.662     5318.300     4479.658        1.572        1.430       53.357       74.293        1.939      333.230        2.408      852.252
01/27/2021  17:00:00      -53.908      -76.951      -10.667       42.009       54.728       25.745     1764.725     2995.187      662.795        0.718        0.271       93.955       10.264        0.012      333.203        2.362      852.258
01/27/2021  17:01:00      -57.543       -2.859        0.147       39.404       48.333       26.243     1552.694     2336.086      688.682        0.395        0.229       57.614       19.356        0.113      333.217        2.387      852.253
01/27/2021  17:02:00      -53.215     -102.600      -14.818       88.369      106.463       41.783     7809.063    11334.329     1745.785        1.723        1.044      115.580       33.362        0.083      333.169        2.306      852.230
01/27/2021  17:03:00      -40.817     -191.652      -23.281      130.611       90.303       46.127    17059.359     8154.676     2127.737        3.313        1.367      195.950       51.260        0.068      333.245        2.432      852.215
01/27/2021  17:04:00       23.144      -78.737      -25.063       81.170       60.782       27.498     6588.540     3694.406      756.155        0.920        0.552       82.068       29.885        0.133      333.223        2.398      852.186
01/27/2021  17:05:00       23.529      -95.377      -15.410       54.433       55.789       33.202     2962.984     3112.417     1102.349        0.853        0.359       98.236       19.950        0.041      333.361        2.625      852.160
01/27/2021  17:06:00      133.487     -205.250      -28.807      213.602      107.177      106.464    45625.700    11486.909    11334.527        6.460        3.422      244.840      143.477        0.343      333.184        2.332      852.109
01/27/2021  17:07:00      -17.207     -169.189      -17.427      121.776       77.416       47.875    14829.466     5993.300     2292.055        2.616        1.156      170.061       39.226        0.053      333.258        2.454      852.066
01/27/2021  17:08:00       58.428      -54.410      -31.082       53.583       82.961       34.235     2871.104     6882.520     1172.013        0.913        0.546       79.839       39.154        0.241      333.156        2.284      852.046
01/27/2021  17:09:00       40.362      -76.203      -13.920       60.566       50.374       26.435     3668.269     2537.557      698.811        0.727        0.345       86.232       23.225        0.073      333.211        2.378      851.995
01/27/2021  17:10:00      139.217     -236.549      -34.224       94.479      109.127       57.570     8926.246    11908.739     3314.305        5.032        1.207      274.476       52.635        0.037      333.113        2.213      851.983
01/27/2021  17:11:00      187.906     -234.954      -42.219      109.198      163.331       63.679    11924.301    26676.996     4054.993        6.747        2.133      300.852       59.744        0.039      333.041        2.095      851.939
01/27/2021  17:12:00        0.433     -129.166      -14.529       92.507       79.540       50.354     8557.581     6326.548     2535.535        1.715        0.871      129.167       31.003        0.058      333.271        2.476      851.955
01/27/2021  17:13:00       42.487     -107.659      -29.529       95.926       59.789       30.467     9201.711     3574.756      928.220        1.398        0.685      115.740       27.000        0.054      333.246        2.436      851.972
01/27/2021  17:14:00       78.598     -107.871      -51.101       48.841       88.537       32.120     2385.436     7838.815     1031.700        1.584        0.563      133.469       18.526        0.019      333.147        2.272      851.983
01/27/2021  17:15:00       80.015      -89.022      -38.898       99.249      123.783       63.728     9850.417    15322.241     4061.322        2.253        1.462      119.697       53.255        0.198      333.084        2.165      851.975
01/27/2021  17:16:00       91.189     -223.134      -29.097       73.111      100.545       50.386     5345.220    10109.293     2538.722        3.847        0.900      241.048       26.705        0.012      333.104        2.197      851.955
01/27/2021  17:17:00      138.125     -182.606      -24.988       86.559      105.529       44.559     7492.393    11136.324     1985.545        3.683        1.031      228.962       50.144        0.048      333.082        2.162      851.938
01/27/2021  17:18:00      188.051     -155.516      -57.728       96.242      135.237       60.573     9262.602    18289.065     3669.114        4.704        1.561      244.026       50.556        0.043      332.963        1.964      851.907
01/27/2021  17:19:00       73.606     -125.141      -41.163      129.892      126.197       50.260    16871.851    15925.692     2526.039        2.904        1.766      145.183       54.768        0.142      333.032        2.080      851.906
01/27/2021  17:20:00      151.097     -239.404      -41.779      103.988       82.251       53.051    10813.519     6765.267     2814.436        5.114        1.020      283.098       61.167        0.047      333.043        2.097      851.878
01/27/2021  17:21:00      183.129     -150.229      -53.247      135.346      116.261       65.437    18318.621    13516.562     4281.938        4.752        1.806      236.864       80.757        0.116      333.007        2.037      851.867
01/27/2021  17:22:00      197.839     -275.137      -43.426       85.850      133.199       54.339     7370.158    17742.022     2952.686        7.239        1.403      338.882       55.194        0.027      332.930        1.909      851.860
01/27/2021  17:23:00      172.031     -216.533      -53.971      201.162      117.185       89.705    40466.293    13732.416     8047.017        7.081        3.112      276.553      126.521        0.209      332.962        1.965      851.871
01/27/2021  17:24:00      153.837     -170.664      -41.986       95.624      119.426       42.044     9143.962    14262.595     1767.684        3.986        1.259      229.766       44.260        0.037      332.912        1.881      851.861
01/27/2021  17:25:00      127.767     -188.115      -39.479       75.182       94.862       36.647     5652.266     8998.823     1342.976        3.463        0.800      227.402       43.845        0.037      332.970        1.975      851.864
01/27/2021  17:26:00      196.607     -219.585      -63.920      129.974       63.653       63.622    16893.299     4051.693     4047.809        5.797        1.250      294.740       84.840        0.083      332.972        1.978      851.847
01/27/2021  17:27:00      268.904     -292.240      -93.189      323.720       86.307      148.453   104794.373     7448.821    22038.219       15.031        6.714      397.132      216.308        0.297      333.264        2.463      851.848
01/27/2021  17:28:00      452.124     -270.314     -172.648      724.427       78.813      342.235   524794.538     6211.505   117125.016       47.759       32.407      526.769      496.312        0.888      333.923        3.571      851.854
01/27/2021  17:29:00      196.499     -164.407      -50.046      266.530      108.609      132.939    71038.143    11796.008    17672.779        8.431        5.025      256.206      179.456        0.491      333.094        2.184      851.878
01/27/2021  17:30:00      522.434     -230.158     -220.413      907.242       90.603      425.509   823088.097     8208.850   181057.800       69.323       50.618      570.885      620.200        1.180      334.681        4.839      851.879
01/27/2021  17:31:00      398.648     -106.773     -153.622      763.912       77.568      367.017   583562.149     6016.730   134701.274       45.896       36.214      412.699      527.694        1.635      333.903        3.541      851.861
01/27/2021  17:32:00      398.315     -100.109     -161.833      813.931      125.938      375.747   662484.426    15860.390   141185.952       50.704       40.977      410.703      550.336        1.796      333.906        3.548      851.843
01/27/2021  17:33:00      238.098     -226.852      -74.917      459.459      131.267      215.962   211103.028    17231.091    46639.670       19.432       13.749      328.865      309.358        0.885      333.435        2.754      851.804
01/27/2021  17:34:00      180.192     -256.900      -52.336      322.682       92.202      155.820   104123.934     8501.158    24279.999       11.903        6.845      313.794      219.516        0.489      332.971        1.983      851.780
01/27/2021  17:35:00      150.327     -177.900      -46.710       65.659       68.398       28.362     4311.152     4678.224      804.378        3.311        0.490      232.909       27.027        0.013      332.833        1.750      851.741
01/27/2021  17:36:00       47.083      -87.149      -39.949      147.769       56.088       70.832    21835.611     3145.824     5017.160        2.070        1.500       99.054       97.635        0.972      332.940        1.930      851.707
01/27/2021  17:37:00      101.435      -59.312      -33.238      201.114       78.295       97.229    40446.850     6130.035     9453.523        3.546        2.802      117.503      135.811        1.336      332.894        1.854      851.692
01/27/2021  17:38:00      101.410      -64.598      -36.899      216.709       84.609      108.979    46962.785     7158.632    11876.345        4.089        3.300      120.237      150.431        1.565      333.005        2.038      851.687
01/27/2021  17:39:00       74.634     -176.885      -17.076       56.194       76.301       42.156     3157.729     5821.917     1777.129        2.395        0.538      191.986       40.917        0.045      332.831        1.747      851.686
01/27/2021  17:40:00      110.872     -152.954      -32.578      146.524       65.260       75.040    21469.420     4258.885     5631.057        3.405        1.568      188.912       95.405        0.255      332.790        1.680      851.668
01/27/2021  17:41:00      134.760     -155.616      -29.377      201.529       99.135      104.916    40614.134     9827.763    11007.459        5.233        3.072      205.856      133.174        0.419      332.781        1.665      851.651
01/27/2021  17:42:00       98.791       30.223       -1.393      172.478      105.620       87.059    29748.541    11155.488     7579.237        2.957        2.424      103.311      105.330        1.039      332.916        1.890      851.632
01/27/2021  17:43:00       85.140      -81.653       -6.807      161.626       57.184       82.650    26122.899     3270.052     6831.070        2.509        1.811      117.966      104.801        0.789      332.919        1.896      851.641
01/27/2021  17:44:00       45.620      -14.994      -21.762      168.958       74.124       79.478    28546.739     5494.425     6316.702        2.156        2.018       48.021      102.829        4.585      332.952        1.951      851.657
01/27/2021  17:45:00       67.204      -37.049      -12.457      234.476       44.246      114.244    54979.005     1957.743    13051.664        3.800        3.499       76.740      160.872        4.395      333.089        2.177      851.695
01/27/2021  17:46:00       68.202      -97.125      -19.271      169.240       60.916       84.693    28642.199     3710.810     7172.985        2.698        1.976      118.679      116.111        0.957      332.944        1.938      851.734
01/27/2021  17:47:00      137.651      -74.127      -21.032       87.307       59.551       40.533     7622.494     3546.380     1642.918        1.885        0.641      156.341       25.356        0.026      332.845        1.770      851.753
01/27/2021  17:48:00      163.253      -15.783      -23.718      176.297       67.513       91.891    31080.458     4558.058     8444.019        3.576        2.204      164.014      120.985        0.544      332.967        1.975      851.757
01/27/2021  17:49:00       98.768       15.254        2.069      215.464       80.247      111.145    46424.754     6439.584    12353.308        3.759        3.261       99.939      146.613        2.152      333.033        2.083      851.763
01/27/2021  17:50:00      141.234       -3.760      -11.934      283.347       73.128      134.731    80285.250     5347.667    18152.458        6.192        5.189      141.284      187.958        1.770      332.969        1.978      851.726
01/27/2021  17:51:00       95.193      -11.860      -24.002      293.229       71.594      140.420    85983.404     5125.659    19717.813        6.028        5.541       95.929      199.158        4.310      333.037        2.093      851.705
01/27/2021  17:52:00      173.086      -67.859      -44.823      313.729       57.344      149.865    98425.664     3288.282    22459.525        8.035        6.209      185.913      213.064        1.313      333.051        2.116      851.682
01/27/2021  17:53:00       69.015       -9.917        1.902       52.436       68.207       41.099     2749.560     4652.258     1689.091        0.698        0.455       69.724       33.166        0.226      333.007        2.039      851.659
01/27/2021  17:54:00      173.754      -43.297      -15.095       77.620       74.885       42.153     6024.833     5607.703     1776.904        2.285        0.670      179.067       24.692        0.019      332.827        1.742      851.650
01/27/2021  17:55:00      163.226      -52.530      -43.865      236.957       95.809      113.561    56148.851     9179.290    12896.157        5.476        3.911      171.471      156.376        0.832      332.864        1.804      851.649
01/27/2021  17:56:00      589.630      -44.001     -259.215     1027.519       85.493      503.190  1055794.700     7309.072   253199.908       86.629       65.815      591.269      717.121        1.471      334.743        4.955      851.676
01/27/2021  17:57:00      482.987      -16.675     -222.415      892.067       59.518      423.809   795782.641     3542.404   179613.771       63.080       48.947      483.274      613.598        1.612      334.365        4.320      851.737
01/27/2021  17:58:00      313.882        0.954     -119.006      757.181       62.899      352.402   573322.590     3956.290   124186.895       40.694       35.073      313.883      514.270        2.684      333.753        3.294      851.784
01/27/2021  17:59:00       62.279      -15.197       -8.740       70.476       70.619       41.517     4966.884     4986.975     1723.632        0.793        0.584       64.106       42.081        0.431      332.877        1.825      851.816
01/27/2021  18:00:00       95.161       10.455       -4.669      202.741       88.118      101.005    41103.931     7764.695    10201.942        3.412        2.954       95.734      135.358        1.999      332.898        1.861      851.819
01/27/2021  18:01:00      183.846      -30.357      -45.164      438.730       84.680      206.207   192483.702     7170.627    42521.484       13.942       12.109      186.335      296.101        2.525      332.893        1.858      851.811
01/27/2021  18:02:00       73.574      -16.549        5.222       87.097       68.840       54.699     7585.809     4738.931     2991.965        1.051        0.766       75.413       52.479        0.484      332.773        1.653      851.812
01/27/2021  18:03:00       78.892      -35.838       -9.426      160.797       70.525       83.376    25855.734     4973.764     6951.487        2.268        1.889       86.651      107.764        1.547      332.934        1.919      851.821
01/27/2021  18:04:00      112.585      -28.408       -8.914      206.474       64.877       97.779    42631.428     4208.984     9560.678        3.497        2.820      116.114      135.251        1.357      332.844        1.771      851.844
01/27/2021  18:05:00      109.455      -16.928      -28.259      320.432       59.018      153.066   102676.770     3483.134    23429.344        7.130        6.479      110.756      216.530        3.822      331.962        0.319      851.858
01/27/2021  18:06:00      260.217       -5.120      -77.536      662.779       84.605      315.826   439275.497     7158.032    99745.770       30.986       27.309      260.267      454.879        3.055      332.367        0.993      851.853
01/27/2021  18:07:00       83.171       -7.831       -5.172      137.022       75.093       68.347    18775.127     5638.987     4671.355        1.804        1.454       83.539       87.185        1.089      332.230        0.758      851.854
01/27/2021  18:08:00      133.745      -54.990      -29.805      273.685       67.531      134.348    74903.353     4560.474    18049.413        5.964        4.876      144.608      188.090        1.692      332.418        1.070      851.884
01/27/2021  18:09:00      122.313        1.854       -8.433      165.702       73.719       91.531    27457.138     5434.508     8377.833        2.814        2.063      122.327      112.910        0.852      331.570       -0.330      851.900
01/27/2021  18:10:00      105.394      136.125       41.197      208.379       54.357      103.381    43421.981     2954.716    10687.647        4.419        2.853      172.156      145.634        0.716      331.392       -0.629      851.899
01/27/2021  18:11:00       91.000      155.000       55.000        0.000        0.000        0.000        0.000        0.000        0.000        1.767        0.000      179.739        0.000        0.000      331.320       -0.750      851.900
01/27/2021  18:12:00       91.000      155.000       55.000        0.000        0.000        0.000        0.000        0.000        0.000        1.767        0.000      179.739        0.000        0.000      331.320       -0.750      851.900
01/27/2021  18:13:00       91.000      155.000       55.000        0.000        0.000        0.000        0.000        0.000        0.000        1.767        0.000      179.739        0.000        0.000      331.320       -0.750      851.900
01/27/2021  18:14:00       91.000      155.000       55.000        0.000        0.000        0.000        0.000        0.000        0.000        1.767        0.000      179.739        0.000        0.000      331.320       -0.750      851.900
01/27/2021  18:15:00       91.000      155.000       55.000        0.000        0.000        0.000        0.000        0.000        0.000        1.767        0.000      179.739        0.000        0.000      331.320       -0.750      851.900
01/27/2021  18:16:00       91.000      155.000       55.000        0.000        0.000        0.000        0.000        0.000        0.000        1.767        0.000      179.739        0.000        0.000      331.320       -0.750      851.900
01/27/2021  18:17:00       91.000      155.000       55.000        0.000        0.000        0.000        0.000        0.000        0.000        1.767        0.000      179.739        0.000        0.000      331.320       -0.750      851.900
01/27/2021  18:18:00       91.000      155.000       55.000        0.000        0.000        0.000        0.000        0.000        0.000        1.767        0.000      179.739        0.000        0.000      331.320       -0.750      851.900
01/27/2021  18:19:00       91.000      155.000       55.000        0.000        0.000        0.000        0.000        0.000        0.000        1.767        0.000      179.739        0.000        0.000      331.320       -0.750      851.900
01/27/2021  18:20:00       91.000      155.000       55.000        0.000        0.000        0.000        0.000        0.000        0.000        1.767        0.000      179.739        0.000        0.000      331.320       -0.750      851.900
01/27/2021  18:21:00       91.000      155.000       55.000        0.000        0.000        0.000        0.000        0.000        0.000        1.767        0.000      179.739        0.000        0.000      331.320       -0.750      851.900
01/27/2021  18:22:00       91.000      155.000       55.000        0.000        0.000        0.000        0.000        0.000        0.000        1.767        0.000      179.739        0.000        0.000      331.320       -0.750      851.900
01/27/2021  18:23:00       91.000      155.000       55.000        0.000        0.000        0.000        0.000        0.000        0.000        1.767        0.000      179.739        0.000        0.000      331.320       -0.750      851.900
01/27/2021  18:24:00       91.000      155.000       55.000        0.000        0.000        0.000        0.000        0.000        0.000        1.767        0.000      179.739        0.000        0.000      331.320       -0.750      851.900
01/27/2021  18:25:00       91.000      155.000       55.000        0.000        0.000        0.000        0.000        0.000        0.000        1.767        0.000      179.739        0.000        0.000      331.320       -0.750      851.900
01/27/2021  18:26:00       91.000      155.000       55.000        0.000        0.000        0.000        0.000        0.000        0.000        1.767        0.000      179.739        0.000        0.000      331.320       -0.750      851.900
01/27/2021  18:27:00       91.000      155.000       55.000        0.000        0.000        0.000        0.000        0.000        0.000        1.767        0.000      179.739        0.000        0.000      331.320       -0.750      851.900
01/27/2021  18:28:00       91.000      155.000       55.000        0.000        0.000        0.000        0.000        0.000        0.000        1.767        0.000      179.739        0.000        0.000      331.320       -0.750      851.900
01/27/2021  18:29:00       91.000      155.000       55.000        0.000        0.000        0.000        0.000        0.000        0.000        1.767        0.000      179.739        0.000        0.000      331.320       -0.750      851.900
01/27/2021  18:30:00       91.000      155.000       55.000        0.000        0.000        0.000        0.000        0.000        0.000        1.767        0.000      179.739        0.000        0.000      331.320       -0.750      851.900
01/27/2021  18:31:00       91.000      155.000       55.000        0.000        0.000        0.000        0.000        0.000        0.000        1.767        0.000      179.739        0.000        0.000      331.320       -0.750      851.900
01/27/2021  18:32:00       91.000      155.000       55.000        0.000        0.000        0.000        0.000        0.000        0.000        1.767        0.000      179.739        0.000        0.000      331.320       -0.750      851.900
01/27/2021  18:33:00       91.000      155.000       55.000        0.000        0.000        0.000        0.000        0.000        0.000        1.767        0.000      179.739        0.000        0.000      331.320       -0.750      851.900
01/27/2021  18:34:00       91.000      155.000       55.000        0.000        0.000        0.000        0.000        0.000        0.000        1.767        0.000      179.739        0.000        0.000      331.320       -0.750      851.900
01/27/2021  18:35:00       91.000      155.000       55.000        0.000        0.000        0.000        0.000        0.000        0.000        1.767        0.000      179.739        0.000        0.000      331.320       -0.750      851.900
01/27/2021  18:36:00       91.000      155.000       55.000        0.000        0.000        0.000        0.000        0.000        0.000        1.767        0.000      179.739        0.000        0.000      331.320       -0.750      851.900
01/27/2021  18:37:00       91.000      155.000       55.000        0.000        0.000        0.000        0.000        0.000        0.000        1.767        0.000      179.739        0.000        0.000      331.320       -0.750      851.900
01/27/2021  18:38:00       91.000      155.000       55.000        0.000        0.000        0.000        0.000        0.000        0.000        1.767        0.000      179.739        0.000        0.000      331.320       -0.750      851.900
01/27/2021  18:39:00       91.000      155.000       55.000        0.000        0.000        0.000        0.000        0.000        0.000        1.767        0.000      179.739        0.000        0.000      331.320       -0.750      851.900
01/27/2021  18:40:00       91.000      155.000       55.000        0.000        0.000        0.000        0.000        0.000        0.000        1.767        0.000      179.739        0.000        0.000      331.320       -0.750      851.900
01/27/2021  18:41:00       91.000      155.000       55.000        0.000        0.000        0.000        0.000        0.000        0.000        1.767        0.000      179.739        0.000        0.000      331.320       -0.750      851.900
01/27/2021  18:42:00       91.000      155.000       55.000        0.000        0.000        0.000        0.000        0.000        0.000        1.767        0.000      179.739        0.000        0.000      331.320       -0.750      851.900
01/27/2021  18:43:00       91.000      155.000       55.000        0.000        0.000        0.000        0.000        0.000        0.000        1.767        0.000      179.739        0.000        0.000      331.320       -0.750      851.900
01/27/2021  18:44:00       91.000      155.000       55.000        0.000        0.000        0.000        0.000        0.000        0.000        1.767        0.000      179.739        0.000        0.000      331.320       -0.750      851.900
01/27/2021  18:45:00       91.000      155.000       55.000        0.000        0.000        0.000        0.000        0.000        0.000        1.767        0.000      179.739        0.000        0.000      331.320       -0.750      851.900
01/27/2021  18:46:00       91.000      155.000       55.000        0.000        0.000        0.000        0.000        0.000        0.000        1.767        0.000      179.739        0.000        0.000      331.320       -0.750      851.900
01/27/2021  18:47:00       91.000      155.000       55.000        0.000        0.000        0.000        0.000        0.000        0.000        1.767        0.000      179.739        0.000        0.000      331.320       -0.750      851.900
01/27/2021  18:48:00       91.000      155.000       55.000        0.000        0.000        0.000        0.000        0.000        0.000        1.767        0.000      179.739        0.000        0.000      331.320       -0.750      851.900
01/27/2021  18:49:00       91.000      155.000       55.000        0.000        0.000        0.000        0.000        0.000        0.000        1.767        0.000      179.739        0.000        0.000      331.320       -0.750      851.900
01/27/2021  18:50:00       91.000      155.000       55.000        0.000        0.000        0.000        0.000        0.000        0.000        1.767        0.000      179.739        0.000        0.000      331.320       -0.750      851.900
01/27/2021  18:51:00       91.000      155.000       55.000        0.000        0.000        0.000        0.000        0.000        0.000        1.767        0.000      179.739        0.000        0.000      331.320       -0.750      851.900
01/27/2021  18:52:00       91.000      155.000       55.000        0.000        0.000        0.000        0.000        0.000        0.000        1.767        0.000      179.739        0.000        0.000      331.320       -0.750      851.900
01/27/2021  18:53:00       91.000      155.000       55.000        0.000        0.000        0.000        0.000        0.000        0.000        1.767        0.000      179.739        0.000        0.000      331.320       -0.750      851.900
01/27/2021  18:54:00       91.000      155.000       55.000        0.000        0.000        0.000        0.000        0.000        0.000        1.767        0.000      179.739        0.000        0.000      331.320       -0.750      851.900
01/27/2021  18:55:00       91.000      155.000       55.000        0.000        0.000        0.000        0.000        0.000        0.000        1.767        0.000      179.739        0.000        0.000      331.320       -0.750      851.900
01/27/2021  18:56:00       91.000      155.000       55.000        0.000        0.000        0.000        0.000        0.000        0.000        1.767        0.000      179.739        0.000        0.000      331.320       -0.750      851.900
01/27/2021  18:57:00       91.000      155.000       55.000        0.000        0.000        0.000        0.000        0.000        0.000        1.767        0.000      179.739        0.000        0.000      331.320       -0.750      851.900
01/27/2021  18:58:00       91.000      155.000       55.000        0.000        0.000        0.000        0.000        0.000        0.000        1.767        0.000      179.739        0.000        0.000      331.320       -0.750      851.900
01/27/2021  18:59:00       91.000      155.000       55.000        0.000        0.000        0.000        0.000        0.000        0.000        1.767        0.000      179.739        0.000        0.000      331.320       -0.750      851.900
01/27/2021  19:00:00       91.000      155.000       55.000        0.000        0.000        0.000        0.000        0.000        0.000        1.767        0.000      179.739        0.000        0.000      331.320       -0.750      851.900
01/27/2021  19:01:00       91.000      155.000       55.000        0.000        0.000        0.000        0.000        0.000        0.000        1.767        0.000      179.739        0.000        0.000      331.320       -0.750      851.900
01/27/2021  19:02:00       91.000      155.000       55.000        0.000        0.000        0.000        0.000        0.000        0.000        1.767        0.000      179.739        0.000        0.000      331.320       -0.750      851.900
01/27/2021  19:03:00       91.000      155.000       55.000        0.000        0.000        0.000        0.000        0.000        0.000        1.767        0.000      179.739        0.000        0.000      331.320       -0.750      851.900
01/27/2021  19:04:00       91.000      155.000       55.000        0.000        0.000        0.000        0.000        0.000        0.000        1.767        0.000      179.739        0.000        0.000      331.320       -0.750      851.900
01/27/2021  19:05:00       91.000      155.000       55.000        0.000        0.000        0.000        0.000        0.000        0.000        1.767        0.000      179.739        0.000        0.000      331.320       -0.750      851.900
01/27/2021  19:06:00       91.000      155.000       55.000        0.000        0.000        0.000        0.000        0.000        0.000        1.767        0.000      179.739        0.000        0.000      331.320       -0.750      851.900
01/27/2021  19:07:00       91.000      155.000       55.000        0.000        0.000        0.000        0.000        0.000        0.000        1.767        0.000      179.739        0.000        0.000      331.320       -0.750      851.900
01/27/2021  19:08:00       91.000      155.000       55.000        0.000        0.000        0.000        0.000        0.000        0.000        1.767        0.000      179.739        0.000        0.000      331.320       -0.750      851.900
01/27/2021  19:09:00       91.000      155.000       55.000        0.000        0.000        0.000        0.000        0.000        0.000        1.767        0.000      179.739        0.000        0.000      331.320       -0.750      851.900
01/27/2021  19:10:00       91.000      155.000       55.000        0.000        0.000        0.000        0.000        0.000        0.000        1.767        0.000      179.739        0.000        0.000      331.320       -0.750      851.900
01/27/2021  19:11:00       91.000      155.000       55.000        0.000        0.000        0.000        0.000        0.000        0.000        1.767        0.000      179.739        0.000        0.000      331.320       -0.750      851.900
01/27/2021  19:12:00       91.000      155.000       55.000        0.000        0.000        0.000        0.000        0.000        0.000        1.767        0.000      179.739        0.000        0.000      331.320       -0.750      851.900
01/27/2021  19:13:00       91.000      155.000       55.000        0.000        0.000        0.000        0.000        0.000        0.000        1.767        0.000      179.739        0.000        0.000      331.320       -0.750      851.900
01/27/2021  19:14:00       91.000      155.000       55.000        0.000        0.000        0.000        0.000        0.000        0.000        1.767        0.000      179.739        0.000        0.000      331.320       -0.750      851.900
01/27/2021  19:15:00       91.000      155.000       55.000        0.000        0.000        0.000        0.000        0.000        0.000        1.767        0.000      179.739        0.000        0.000      331.320       -0.750      851.900
01/27/2021  19:16:00       91.000      155.000       55.000        0.000        0.000        0.000        0.000        0.000        0.000        1.767        0.000      179.739        0.000        0.000      331.320       -0.750      851.900
01/27/2021  19:17:00       91.000      155.000       55.000        0.000        0.000        0.000        0.000        0.000        0.000        1.767        0.000      179.739        0.000        0.000      331.320       -0.750      851.900
01/27/2021  19:18:00       91.000      155.000       55.000        0.000        0.000        0.000        0.000        0.000        0.000        1.767        0.000      179.739        0.000        0.000      331.320       -0.750      851.900
01/27/2021  19:19:00       91.000      155.000       55.000        0.000        0.000        0.000        0.000        0.000        0.000        1.767        0.000      179.739        0.000        0.000      331.320       -0.750      851.900
01/27/2021  19:20:00       91.000      155.000       55.000        0.000        0.000        0.000        0.000        0.000        0.000        1.767        0.000      179.739        0.000        0.000      331.320       -0.750      851.900
01/27/2021  19:21:00       91.000      155.000       55.000        0.000        0.000        0.000        0.000        0.000        0.000        1.767        0.000      179.739        0.000        0.000      331.320       -0.750      851.900
01/27/2021  19:22:00       91.000      155.000       55.000        0.000        0.000        0.000        0.000        0.000        0.000        1.767        0.000      179.739        0.000        0.000      331.320       -0.750      851.900
01/27/2021  19:23:00       91.000      155.000       55.000        0.000        0.000        0.000        0.000        0.000        0.000        1.767        0.000      179.739        0.000        0.000      331.320       -0.750      851.900
01/27/2021  19:24:00       91.000      155.000       55.000        0.000        0.000        0.000        0.000        0.000        0.000        1.767        0.000      179.739        0.000        0.000      331.320       -0.750      851.900
01/27/2021  19:25:00       91.000      155.000       55.000        0.000        0.000        0.000        0.000        0.000        0.000        1.767        0.000      179.739        0.000        0.000      331.320       -0.750      851.900
01/27/2021  19:26:00       91.000      155.000       55.000        0.000        0.000        0.000        0.000        0.000        0.000        1.767        0.000      179.739        0.000        0.000      331.320       -0.750      851.900
01/27/2021  19:27:00       91.000      155.000       55.000        0.000        0.000        0.000        0.000        0.000        0.000        1.767        0.000      179.739        0.000        0.000      331.320       -0.750      851.900
01/27/2021  19:28:00       91.000      155.000       55.000        0.000        0.000        0.000        0.000        0.000        0.000        1.767        0.000      179.739        0.000        0.000      331.320       -0.750      851.900
01/27/2021  19:29:00       91.000      155.000       55.000        0.000        0.000        0.000        0.000        0.000        0.000        1.767        0.000      179.739        0.000        0.000      331.320       -0.750      851.900
01/27/2021  19:30:00       91.000      155.000       55.000        0.000        0.000        0.000        0.000        0.000        0.000        1.767        0.000      179.739        0.000        0.000      331.320       -0.750      851.900
01/27/2021  19:31:00       91.000      155.000       55.000        0.000        0.000        0.000        0.000        0.000        0.000        1.767        0.000      179.739        0.000        0.000      331.320       -0.750      851.900
01/27/2021  19:32:00       91.000      155.000       55.000        0.000        0.000        0.000        0.000        0.000        0.000        1.767        0.000      179.739        0.000        0.000      331.320       -0.750      851.900
01/27/2021  19:33:00       91.000      155.000       55.000        0.000        0.000        0.000        0.000        0.000        0.000        1.767        0.000      179.739        0.000        0.000      331.320       -0.750      851.900
01/27/2021  19:34:00       91.000      155.000       55.000        0.000        0.000        0.000        0.000        0.000        0.000        1.767        0.000      179.739        0.000        0.000      331.320       -0.750      851.900
01/27/2021  19:35:00       91.000      155.000       55.000        0.000        0.000        0.000        0.000        0.000        0.000        1.767        0.000      179.739        0.000        0.000      331.320       -0.750      851.900
01/27/2021  19:36:00       91.000      155.000       55.000        0.000        0.000        0.000        0.000        0.000        0.000        1.767        0.000      179.739        0.000        0.000      331.320       -0.750      851.900
01/27/2021  19:37:00       91.000      155.000       55.000        0.000        0.000        0.000        0.000        0.000        0.000        1.767        0.000      179.739        0.000        0.000      331.320       -0.750      851.900
01/27/2021  19:38:00       91.000      155.000       55.000        0.000        0.000        0.000        0.000        0.000        0.000        1.767        0.000      179.739        0.000        0.000      331.320       -0.750      851.900
01/27/2021  19:39:00       91.000      155.000       55.000        0.000        0.000        0.000        0.000        0.000        0.000        1.767        0.000      179.739        0.000        0.000      331.320       -0.750      851.900
01/27/2021  19:40:00       91.000      155.000       55.000        0.000        0.000        0.000        0.000        0.000        0.000        1.767        0.000      179.739        0.000        0.000      331.320       -0.750      851.900
01/27/2021  19:41:00       91.000      155.000       55.000        0.000        0.000        0.000        0.000        0.000        0.000        1.767        0.000      179.739        0.000        0.000      331.320       -0.750      851.900
01/27/2021  19:42:00       91.000      155.000       55.000        0.000        0.000        0.000        0.000        0.000        0.000        1.767        0.000      179.739        0.000        0.000      331.320       -0.750      851.900
01/27/2021  19:43:00       91.000      155.000       55.000        0.000        0.000        0.000        0.000        0.000        0.000        1.767        0.000      179.739        0.000        0.000      331.320       -0.750      851.900
01/27/2021  19:44:00       91.000      155.000       55.000        0.000        0.000        0.000        0.000        0.000        0.000        1.767        0.000      179.739        0.000        0.000      331.320       -0.750      851.900
01/27/2021  19:45:00       91.000      155.000       55.000        0.000        0.000        0.000        0.000        0.000        0.000        1.767        0.000      179.739        0.000        0.000      331.320       -0.750      851.900
01/27/2021  19:46:00       91.000      155.000       55.000        0.000        0.000        0.000        0.000        0.000        0.000        1.767        0.000      179.739        0.000        0.000      331.320       -0.750      851.900
01/27/2021  19:47:00       91.000      155.000       55.000        0.000        0.000        0.000        0.000        0.000        0.000        1.767        0.000      179.739        0.000        0.000      331.320       -0.750      851.900
01/27/2021  19:48:00       91.000      155.000       55.000        0.000        0.000        0.000        0.000        0.000        0.000        1.767        0.000      179.739        0.000        0.000      331.320       -0.750      851.900
01/27/2021  19:49:00       91.000      155.000       55.000        0.000        0.000        0.000        0.000        0.000        0.000        1.767        0.000      179.739        0.000        0.000      331.320       -0.750      851.900
01/27/2021  19:50:00       91.000      155.000       55.000        0.000        0.000        0.000        0.000        0.000        0.000        1.767        0.000      179.739        0.000        0.000      331.320       -0.750      851.900
01/27/2021  19:51:00       91.000      155.000       55.000        0.000        0.000        0.000        0.000        0.000        0.000        1.767        0.000      179.739        0.000        0.000      331.320       -0.750      851.900
01/27/2021  19:52:00       91.000      155.000       55.000        0.000        0.000        0.000        0.000        0.000        0.000        1.767        0.000      179.739        0.000        0.000      331.320       -0.750      851.900
01/27/2021  19:53:00       91.000      155.000       55.000        0.000        0.000        0.000        0.000        0.000        0.000        1.767        0.000      179.739        0.000        0.000      331.320       -0.750      851.900
01/27/2021  19:54:00       91.000      155.000       55.000        0.000        0.000        0.000        0.000        0.000        0.000        1.767        0.000      179.739        0.000        0.000      331.320       -0.750      851.900
01/27/2021  19:55:00       91.000      155.000       55.000        0.000        0.000        0.000        0.000        0.000        0.000        1.767        0.000      179.739        0.000        0.000      331.320       -0.750      851.900
01/27/2021  19:56:00       91.000      155.000       55.000        0.000        0.000        0.000        0.000        0.000        0.000        1.767        0.000      179.739        0.000        0.000      331.320       -0.750      851.900
01/27/2021  19:57:00       91.000      155.000       55.000        0.000        0.000        0.000        0.000        0.000        0.000        1.767        0.000      179.739        0.000        0.000      331.320       -0.750      851.900
01/27/2021  19:58:00       91.000      155.000       55.000        0.000        0.000        0.000        0.000        0.000        0.000        1.767        0.000      179.739        0.000        0.000      331.320       -0.750      851.900
01/27/2021  19:59:00       91.000      155.000       55.000        0.000        0.000        0.000        0.000        0.000        0.000        1.767        0.000      179.739        0.000        0.000      331.320       -0.750      851.900
01/27/2021  20:00:00       91.000      155.000       55.000        0.000        0.000        0.000        0.000        0.000        0.000        1.767        0.000      179.739        0.000        0.000      331.320       -0.750      851.900
01/27/2021  20:01:00       91.000      155.000       55.000        0.000        0.000        0.000        0.000        0.000        0.000        1.767        0.000      179.739        0.000        0.000      331.320       -0.750      851.900
01/27/2021  20:02:00       91.000      155.000       55.000        0.000        0.000        0.000        0.000        0.000        0.000        1.767        0.000      179.739        0.000        0.000      331.320       -0.750      851.900
01/27/2021  20:03:00       91.000      155.000       55.000        0.000        0.000        0.000        0.000        0.000        0.000        1.767        0.000      179.739        0.000        0.000      331.320       -0.750      851.900
01/27/2021  20:04:00       91.000      155.000       55.000        0.000        0.000        0.000        0.000        0.000        0.000        1.767        0.000      179.739        0.000        0.000      331.320       -0.750      851.900
01/27/2021  20:05:00       91.000      155.000       55.000        0.000        0.000        0.000        0.000        0.000        0.000        1.767        0.000      179.739        0.000        0.000      331.320       -0.750      851.900
01/27/2021  20:06:00       91.000      155.000       55.000        0.000        0.000        0.000        0.000        0.000        0.000        1.767        0.000      179.739        0.000        0.000      331.320       -0.750      851.900
01/27/2021  20:07:00       91.000      155.000       55.000        0.000        0.000        0.000        0.000        0.000        0.000        1.767        0.000      179.739        0.000        0.000      331.320       -0.750      851.900
01/27/2021  20:08:00       91.000      155.000       55.000        0.000        0.000        0.000        0.000        0.000        0.000        1.767        0.000      179.739        0.000        0.000      331.320       -0.750      851.900
01/27/2021  20:09:00       91.000      155.000       55.000        0.000        0.000        0.000        0.000        0.000        0.000        1.767        0.000      179.739        0.000        0.000      331.320       -0.750      851.900
01/27/2021  20:10:00       91.000      155.000       55.000        0.000        0.000        0.000        0.000        0.000        0.000        1.767        0.000      179.739        0.000        0.000      331.320       -0.750      851.900
01/27/2021  20:11:00       91.000      155.000       55.000        0.000        0.000        0.000        0.000        0.000        0.000        1.767        0.000      179.739        0.000        0.000      331.320       -0.750      851.900
01/27/2021  20:12:00       91.000      155.000       55.000        0.000        0.000        0.000        0.000        0.000        0.000        1.767        0.000      179.739        0.000        0.000      331.320       -0.750      851.900
01/27/2021  20:13:00       91.000      155.000       55.000        0.000        0.000        0.000        0.000        0.000        0.000        1.767        0.000      179.739        0.000        0.000      331.320       -0.750      851.900
01/27/2021  20:14:00       91.000      155.000       55.000        0.000        0.000        0.000        0.000        0.000        0.000        1.767        0.000      179.739        0.000        0.000      331.320       -0.750      851.900
01/27/2021  20:15:00       91.000      155.000       55.000        0.000        0.000        0.000        0.000        0.000        0.000        1.767        0.000      179.739        0.000        0.000      331.320       -0.750      851.900
01/27/2021  20:16:00       91.000      155.000       55.000        0.000        0.000        0.000        0.000        0.000        0.000        1.767        0.000      179.739        0.000        0.000      331.320       -0.750      851.900
01/27/2021  20:17:00       91.000      155.000       55.000        0.000        0.000        0.000        0.000        0.000        0.000        1.767        0.000      179.739        0.000        0.000      331.320       -0.750      851.900
01/27/2021  20:18:00       91.000      155.000       55.000        0.000        0.000        0.000        0.000        0.000        0.000        1.767        0.000      179.739        0.000        0.000      331.320       -0.750      851.900
01/27/2021  20:19:00       91.000      155.000       55.000        0.000        0.000        0.000        0.000        0.000        0.000        1.767        0.000      179.739        0.000        0.000      331.320       -0.750      851.900
01/27/2021  20:20:00       91.000      155.000       55.000        0.000        0.000        0.000        0.000        0.000        0.000        1.767        0.000      179.739        0.000        0.000      331.320       -0.750      851.900
01/27/2021  20:21:00       91.000      155.000       55.000        0.000        0.000        0.000        0.000        0.000        0.000        1.767        0.000      179.739        0.000        0.000      331.320       -0.750      851.900
01/27/2021  20:22:00       91.000      155.000       55.000        0.000        0.000        0.000        0.000        0.000        0.000        1.767        0.000      179.739        0.000        0.000      331.320       -0.750      851.900
01/27/2021  20:23:00       91.000      155.000       55.000        0.000        0.000        0.000        0.000        0.000        0.000        1.767        0.000      179.739        0.000        0.000      331.320       -0.750      851.900
01/27/2021  20:24:00       91.000      155.000       55.000        0.000        0.000        0.000        0.000        0.000        0.000        1.767        0.000      179.739        0.000        0.000      331.320       -0.750      851.900
01/27/2021  20:25:00       91.000      155.000       55.000        0.000        0.000        0.000        0.000        0.000        0.000        1.767        0.000      179.739        0.000        0.000      331.320       -0.750      851.900
01/27/2021  20:26:00       91.000      155.000       55.000        0.000        0.000        0.000        0.000        0.000        0.000        1.767        0.000      179.739        0.000        0.000      331.320       -0.750      851.900
01/27/2021  20:27:00       91.000      155.000       55.000        0.000        0.000        0.000        0.000        0.000        0.000        1.767        0.000      179.739        0.000        0.000      331.320       -0.750      851.900
01/27/2021  20:28:00       91.000      155.000       55.000        0.000        0.000        0.000        0.000        0.000        0.000        1.767        0.000      179.739        0.000        0.000      331.320       -0.750      851.900
01/27/2021  20:29:00       91.000      155.000       55.000        0.000        0.000        0.000        0.000        0.000        0.000        1.767        0.000      179.739        0.000        0.000      331.320       -0.750      851.900
01/27/2021  20:30:00       91.000      155.000       55.000        0.000        0.000        0.000        0.000        0.000        0.000        1.767        0.000      179.739        0.000        0.000      331.320       -0.750      851.900
01/27/2021  20:31:00       91.000      155.000       55.000        0.000        0.000        0.000        0.000        0.000        0.000        1.767        0.000      179.739        0.000        0.000      331.320       -0.750      851.900
01/27/2021  20:32:00       91.000      155.000       55.000        0.000        0.000        0.000        0.000        0.000        0.000        1.767        0.000      179.739        0.000        0.000      331.320       -0.750      851.900
01/27/2021  20:33:00       91.000      155.000       55.000        0.000        0.000        0.000        0.000        0.000        0.000        1.767        0.000      179.739        0.000        0.000      331.320       -0.750      851.900
01/27/2021  20:34:00       91.000      155.000       55.000        0.000        0.000        0.000        0.000        0.000        0.000        1.767        0.000      179.739        0.000        0.000      331.320       -0.750      851.900
01/27/2021  20:35:00       91.000      155.000       55.000        0.000        0.000        0.000        0.000        0.000        0.000        1.767        0.000      179.739        0.000        0.000      331.320       -0.750      851.900
01/27/2021  20:36:00       91.000      155.000       55.000        0.000        0.000        0.000        0.000        0.000        0.000        1.767        0.000      179.739        0.000        0.000      331.320       -0.750      851.900
01/27/2021  20:37:00       91.000      155.000       55.000        0.000        0.000        0.000        0.000        0.000        0.000        1.767        0.000      179.739        0.000        0.000      331.320       -0.750      851.900
01/27/2021  20:38:00       91.000      155.000       55.000        0.000        0.000        0.000        0.000        0.000        0.000        1.767        0.000      179.739        0.000        0.000      331.320       -0.750      851.900
01/27/2021  20:39:00       91.000      155.000       55.000        0.000        0.000        0.000        0.000        0.000        0.000        1.767        0.000      179.739        0.000        0.000      331.320       -0.750      851.900
01/27/2021  20:40:00       91.000      155.000       55.000        0.000        0.000        0.000        0.000        0.000        0.000        1.767        0.000      179.739        0.000        0.000      331.320       -0.750      851.900
01/27/2021  20:41:00       91.000      155.000       55.000        0.000        0.000        0.000        0.000        0.000        0.000        1.767        0.000      179.739        0.000        0.000      331.320       -0.750      851.900
01/27/2021  20:42:00       91.000      155.000       55.000        0.000        0.000        0.000        0.000        0.000        0.000        1.767        0.000      179.739        0.000        0.000      331.320       -0.750      851.900
01/27/2021  20:43:00       91.000      155.000       55.000        0.000        0.000        0.000        0.000        0.000        0.000        1.767        0.000      179.739        0.000        0.000      331.320       -0.750      851.900
01/27/2021  20:44:00       91.000      155.000       55.000        0.000        0.000        0.000        0.000        0.000        0.000        1.767        0.000      179.739        0.000        0.000      331.320       -0.750      851.900
01/27/2021  20:45:00       91.000      155.000       55.000        0.000        0.000        0.000        0.000        0.000        0.000        1.767        0.000      179.739        0.000        0.000      331.320       -0.750      851.900
01/27/2021  20:46:00       91.000      155.000       55.000        0.000        0.000        0.000        0.000        0.000        0.000        1.767        0.000      179.739        0.000        0.000      331.320       -0.750      851.900
01/27/2021  20:47:00       91.000      155.000       55.000        0.000        0.000        0.000        0.000        0.000        0.000        1.767        0.000      179.739        0.000        0.000      331.320       -0.750      851.900
01/27/2021  20:48:00       91.000      155.000       55.000        0.000        0.000        0.000        0.000        0.000        0.000        1.767        0.000      179.739        0.000        0.000      331.320       -0.750      851.900
01/27/2021  20:49:00       91.000      155.000       55.000        0.000        0.000        0.000        0.000        0.000        0.000        1.767        0.000      179.739        0.000        0.000      331.320       -0.750      851.900
01/27/2021  20:50:00       91.000      155.000       55.000        0.000        0.000        0.000        0.000        0.000        0.000        1.767        0.000      179.739        0.000        0.000      331.320       -0.750      851.900
01/27/2021  20:51:00       91.000      155.000       55.000        0.000        0.000        0.000        0.000        0.000        0.000        1.767        0.000      179.739        0.000        0.000      331.320       -0.750      851.900
01/27/2021  20:52:00       91.000      155.000       55.000        0.000        0.000        0.000        0.000        0.000        0.000        1.767        0.000      179.739        0.000        0.000      331.320       -0.750      851.900
01/27/2021  20:53:00       91.000      155.000       55.000        0.000        0.000        0.000        0.000        0.000        0.000        1.767        0.000      179.739        0.000        0.000      331.320       -0.750      851.900
01/27/2021  20:54:00       91.000      155.000       55.000        0.000        0.000        0.000        0.000        0.000        0.000        1.767        0.000      179.739        0.000        0.000      331.320       -0.750      851.900
01/27/2021  20:55:00       91.000      155.000       55.000        0.000        0.000        0.000        0.000        0.000        0.000        1.767        0.000      179.739        0.000        0.000      331.320       -0.750      851.900
01/27/2021  20:56:00       91.000      155.000       55.000        0.000        0.000        0.000        0.000        0.000        0.000        1.767        0.000      179.739        0.000        0.000      331.320       -0.750      851.900
01/27/2021  20:57:00       91.000      155.000       55.000        0.000        0.000        0.000        0.000        0.000        0.000        1.767        0.000      179.739        0.000        0.000      331.320       -0.750      851.900
01/27/2021  20:58:00       91.000      155.000       55.000        0.000        0.000        0.000        0.000        0.000        0.000        1.767        0.000      179.739        0.000        0.000      331.320       -0.750      851.900
01/27/2021  20:59:00       91.000      155.000       55.000        0.000        0.000        0.000        0.000        0.000        0.000        1.767        0.000      179.739        0.000        0.000      331.320       -0.750      851.900
01/27/2021  21:00:00       91.000      155.000       55.000        0.000        0.000        0.000        0.000        0.000        0.000        1.767        0.000      179.739        0.000        0.000      331.320       -0.750      851.900
01/27/2021  21:01:00       91.000      155.000       55.000        0.000        0.000        0.000        0.000        0.000        0.000        1.767        0.000      179.739        0.000        0.000      331.320       -0.750      851.900
01/27/2021  21:02:00       91.000      155.000       55.000        0.000        0.000        0.000        0.000        0.000        0.000        1.767        0.000      179.739        0.000        0.000      331.320       -0.750      851.900
01/27/2021  21:03:00       91.000      155.000       55.000        0.000        0.000        0.000        0.000        0.000        0.000        1.767        0.000      179.739        0.000        0.000      331.320       -0.750      851.900
01/27/2021  21:04:00       91.000      155.000       55.000        0.000        0.000        0.000        0.000        0.000        0.000        1.767        0.000      179.739        0.000        0.000      331.320       -0.750      851.900
01/27/2021  21:05:00       91.000      155.000       55.000        0.000        0.000        0.000        0.000        0.000        0.000        1.767        0.000      179.739        0.000        0.000      331.320       -0.750      851.900
01/27/2021  21:06:00       91.000      155.000       55.000        0.000        0.000        0.000        0.000        0.000        0.000        1.767        0.000      179.739        0.000        0.000      331.320       -0.750      851.900
01/27/2021  21:07:00       91.000      155.000       55.000        0.000        0.000        0.000        0.000        0.000        0.000        1.767        0.000      179.739        0.000        0.000      331.320       -0.750      851.900
01/27/2021  21:08:00       91.000      155.000       55.000        0.000        0.000        0.000        0.000        0.000        0.000        1.767        0.000      179.739        0.000        0.000      331.320       -0.750      851.900
01/27/2021  21:09:00       91.000      155.000       55.000        0.000        0.000        0.000        0.000        0.000        0.000        1.767        0.000      179.739        0.000        0.000      331.320       -0.750      851.900
01/27/2021  21:10:00       91.000      155.000       55.000        0.000        0.000        0.000        0.000        0.000        0.000        1.767        0.000      179.739        0.000        0.000      331.320       -0.750      851.900
01/27/2021  21:11:00       91.000      155.000       55.000        0.000        0.000        0.000        0.000        0.000        0.000        1.767        0.000      179.739        0.000        0.000      331.320       -0.750      851.900
01/27/2021  21:12:00       91.000      155.000       55.000        0.000        0.000        0.000        0.000        0.000        0.000        1.767        0.000      179.739        0.000        0.000      331.320       -0.750      851.900
01/27/2021  21:13:00       91.000      155.000       55.000        0.000        0.000        0.000        0.000        0.000        0.000        1.767        0.000      179.739        0.000        0.000      331.320       -0.750      851.900
01/27/2021  21:14:00       91.000      155.000       55.000        0.000        0.000        0.000        0.000        0.000        0.000        1.767        0.000      179.739        0.000        0.000      331.320       -0.750      851.900
01/27/2021  21:15:00       91.000      155.000       55.000        0.000        0.000        0.000        0.000        0.000        0.000        1.767        0.000      179.739        0.000        0.000      331.320       -0.750      851.900
01/27/2021  21:16:00       91.000      155.000       55.000        0.000        0.000        0.000        0.000        0.000        0.000        1.767        0.000      179.739        0.000        0.000      331.320       -0.750      851.900
01/27/2021  21:17:00       91.000      155.000       55.000        0.000        0.000        0.000        0.000        0.000        0.000        1.767        0.000      179.739        0.000        0.000      331.320       -0.750      851.900
01/27/2021  21:18:00       91.000      155.000       55.000        0.000        0.000        0.000        0.000        0.000        0.000        1.767        0.000      179.739        0.000        0.000      331.320       -0.750      851.900
01/27/2021  21:19:00       91.000      155.000       55.000        0.000        0.000        0.000        0.000        0.000        0.000        1.767        0.000      179.739        0.000        0.000      331.320       -0.750      851.900
01/27/2021  21:20:00       91.000      155.000       55.000        0.000        0.000        0.000        0.000        0.000        0.000        1.767        0.000      179.739        0.000        0.000      331.320       -0.750      851.900
01/27/2021  21:21:00       91.000      155.000       55.000        0.000        0.000        0.000        0.000        0.000        0.000        1.767        0.000      179.739        0.000        0.000      331.320       -0.750      851.900
01/27/2021  21:22:00       91.000      155.000       55.000        0.000        0.000        0.000        0.000        0.000        0.000        1.767        0.000      179.739        0.000        0.000      331.320       -0.750      851.900
01/27/2021  21:23:00       91.000      155.000       55.000        0.000        0.000        0.000        0.000        0.000        0.000        1.767        0.000      179.739        0.000        0.000      331.320       -0.750      851.900
01/27/2021  21:24:00       91.000      155.000       55.000        0.000        0.000        0.000        0.000        0.000        0.000        1.767        0.000      179.739        0.000        0.000      331.320       -0.750      851.900
01/27/2021  21:25:00       91.000      155.000       55.000        0.000        0.000        0.000        0.000        0.000        0.000        1.767        0.000      179.739        0.000        0.000      331.320       -0.750      851.900
01/27/2021  21:26:00       91.000      155.000       55.000        0.000        0.000        0.000        0.000        0.000        0.000        1.767        0.000      179.739        0.000        0.000      331.320       -0.750      851.900
01/27/2021  21:27:00       91.000      155.000       55.000        0.000        0.000        0.000        0.000        0.000        0.000        1.767        0.000      179.739        0.000        0.000      331.320       -0.750      851.900
01/27/2021  21:28:00       91.000      155.000       55.000        0.000        0.000        0.000        0.000        0.000        0.000        1.767        0.000      179.739        0.000        0.000      331.320       -0.750      851.900
01/27/2021  21:29:00       91.000      155.000       55.000        0.000        0.000        0.000        0.000        0.000        0.000        1.767        0.000      179.739        0.000        0.000      331.320       -0.750      851.900
01/27/2021  21:30:00       91.000      155.000       55.000        0.000        0.000        0.000        0.000        0.000        0.000        1.767        0.000      179.739        0.000        0.000      331.320       -0.750      851.900
01/27/2021  21:31:00       91.000      155.000       55.000        0.000        0.000        0.000        0.000        0.000        0.000        1.767        0.000      179.739        0.000        0.000      331.320       -0.750      851.900
01/27/2021  21:32:00       91.000      155.000       55.000        0.000        0.000        0.000        0.000        0.000        0.000        1.767        0.000      179.739        0.000        0.000      331.320       -0.750      851.900
01/27/2021  21:33:00       91.000      155.000       55.000        0.000        0.000        0.000        0.000        0.000        0.000        1.767        0.000      179.739        0.000        0.000      331.320       -0.750      851.900
01/27/2021  21:34:00       91.000      155.000       55.000        0.000        0.000        0.000        0.000        0.000        0.000        1.767        0.000      179.739        0.000        0.000      331.320       -0.750      851.900
01/27/2021  21:35:00       91.000      155.000       55.000        0.000        0.000        0.000        0.000        0.000        0.000        1.767        0.000      179.739        0.000        0.000      331.320       -0.750      851.900
01/27/2021  21:36:00       91.000      155.000       55.000        0.000        0.000        0.000        0.000        0.000        0.000        1.767        0.000      179.739        0.000        0.000      331.320       -0.750      851.900
01/27/2021  21:37:00       91.000      155.000       55.000        0.000        0.000        0.000        0.000        0.000        0.000        1.767        0.000      179.739        0.000        0.000      331.320       -0.750      851.900
01/27/2021  21:38:00       91.000      155.000       55.000        0.000        0.000        0.000        0.000        0.000        0.000        1.767        0.000      179.739        0.000        0.000      331.320       -0.750      851.900
01/27/2021  21:39:00       91.000      155.000       55.000        0.000        0.000        0.000        0.000        0.000        0.000        1.767        0.000      179.739        0.000        0.000      331.320       -0.750      851.900
01/27/2021  21:40:00       91.000      155.000       55.000        0.000        0.000        0.000        0.000        0.000        0.000        1.767        0.000      179.739        0.000        0.000      331.320       -0.750      851.900
01/27/2021  21:41:00       91.000      155.000       55.000        0.000        0.000        0.000        0.000        0.000        0.000        1.767        0.000      179.739        0.000        0.000      331.320       -0.750      851.900
01/27/2021  21:42:00       91.000      155.000       55.000        0.000        0.000        0.000        0.000        0.000        0.000        1.767        0.000      179.739        0.000        0.000      331.320       -0.750      851.900
01/27/2021  21:43:00       91.000      155.000       55.000        0.000        0.000        0.000        0.000        0.000        0.000        1.767        0.000      179.739        0.000        0.000      331.320       -0.750      851.900
01/27/2021  21:44:00       91.000      155.000       55.000        0.000        0.000        0.000        0.000        0.000        0.000        1.767        0.000      179.739        0.000        0.000      331.320       -0.750      851.900
01/27/2021  21:45:00       91.000      155.000       55.000        0.000        0.000        0.000        0.000        0.000        0.000        1.767        0.000      179.739        0.000        0.000      331.320       -0.750      851.900
01/27/2021  21:46:00       91.000      155.000       55.000        0.000        0.000        0.000        0.000        0.000        0.000        1.767        0.000      179.739        0.000        0.000      331.320       -0.750      851.900
01/27/2021  21:47:00       91.000      155.000       55.000        0.000        0.000        0.000        0.000        0.000        0.000        1.767        0.000      179.739        0.000        0.000      331.320       -0.750      851.900
01/27/2021  21:48:00       91.000      155.000       55.000        0.000        0.000        0.000        0.000        0.000        0.000        1.767        0.000      179.739        0.000        0.000      331.320       -0.750      851.900
01/27/2021  21:49:00       91.000      155.000       55.000        0.000        0.000        0.000        0.000        0.000        0.000        1.767        0.000      179.739        0.000        0.000      331.320       -0.750      851.900
01/27/2021  21:50:00       91.000      155.000       55.000        0.000        0.000        0.000        0.000        0.000        0.000        1.767        0.000      179.739        0.000        0.000      331.320       -0.750      851.900
01/27/2021  21:51:00       91.000      155.000       55.000        0.000        0.000        0.000        0.000        0.000        0.000        1.767        0.000      179.739        0.000        0.000      331.320       -0.750      851.900
01/27/2021  21:52:00       91.000      155.000       55.000        0.000        0.000        0.000        0.000        0.000        0.000        1.767        0.000      179.739        0.000        0.000      331.320       -0.750      851.900
01/27/2021  21:53:00       91.000      155.000       55.000        0.000        0.000        0.000        0.000        0.000        0.000        1.767        0.000      179.739        0.000        0.000      331.320       -0.750      851.900
01/27/2021  21:54:00       91.000      155.000       55.000        0.000        0.000        0.000        0.000        0.000        0.000        1.767        0.000      179.739        0.000        0.000      331.320       -0.750      851.900
01/27/2021  21:55:00       91.000      155.000       55.000        0.000        0.000        0.000        0.000        0.000        0.000        1.767        0.000      179.739        0.000        0.000      331.320       -0.750      851.900
01/27/2021  21:56:00       91.000      155.000       55.000        0.000        0.000        0.000        0.000        0.000        0.000        1.767        0.000      179.739        0.000        0.000      331.320       -0.750      851.900
01/27/2021  21:57:00       91.000      155.000       55.000        0.000        0.000        0.000        0.000        0.000        0.000        1.767        0.000      179.739        0.000        0.000      331.320       -0.750      851.900
01/27/2021  21:58:00       91.000      155.000       55.000        0.000        0.000        0.000        0.000        0.000        0.000        1.767        0.000      179.739        0.000        0.000      331.320       -0.750      851.900
01/27/2021  21:59:00       91.000      155.000       55.000        0.000        0.000        0.000        0.000        0.000        0.000        1.767        0.000      179.739        0.000        0.000      331.320       -0.750      851.900
01/27/2021  22:00:00       91.000      155.000       55.000        0.000        0.000        0.000        0.000        0.000        0.000        1.767        0.000      179.739        0.000        0.000      331.320       -0.750      851.900
01/27/2021  22:01:00       91.000      155.000       55.000        0.000        0.000        0.000        0.000        0.000        0.000        1.767        0.000      179.739        0.000        0.000      331.320       -0.750      851.900
01/27/2021  22:02:00       91.000      155.000       55.000        0.000        0.000        0.000        0.000        0.000        0.000        1.767        0.000      179.739        0.000        0.000      331.320       -0.750      851.900
01/27/2021  22:03:00       91.000      155.000       55.000        0.000        0.000        0.000        0.000        0.000        0.000        1.767        0.000      179.739        0.000        0.000      331.320       -0.750      851.900
01/27/2021  22:04:00       91.000      155.000       55.000        0.000        0.000        0.000        0.000        0.000        0.000        1.767        0.000      179.739        0.000        0.000      331.320       -0.750      851.900
01/27/2021  22:05:00       91.000      155.000       55.000        0.000        0.000        0.000        0.000        0.000        0.000        1.767        0.000      179.739        0.000        0.000      331.320       -0.750      851.900
01/27/2021  22:06:00       91.000      155.000       55.000        0.000        0.000        0.000        0.000        0.000        0.000        1.767        0.000      179.739        0.000        0.000      331.320       -0.750      851.900
01/27/2021  22:07:00       91.000      155.000       55.000        0.000        0.000        0.000        0.000        0.000        0.000        1.767        0.000      179.739        0.000        0.000      331.320       -0.750      851.900
01/27/2021  22:08:00       91.000      155.000       55.000        0.000        0.000        0.000        0.000        0.000        0.000        1.767        0.000      179.739        0.000        0.000      331.320       -0.750      851.900
01/27/2021  22:09:00       91.000      155.000       55.000        0.000        0.000        0.000        0.000        0.000        0.000        1.767        0.000      179.739        0.000        0.000      331.320       -0.750      851.900
01/27/2021  22:10:00       91.000      155.000       55.000        0.000        0.000        0.000        0.000        0.000        0.000        1.767        0.000      179.739        0.000        0.000      331.320       -0.750      851.900
01/27/2021  22:11:00       91.000      155.000       55.000        0.000        0.000        0.000        0.000        0.000        0.000        1.767        0.000      179.739        0.000        0.000      331.320       -0.750      851.900
01/27/2021  22:12:00       91.000      155.000       55.000        0.000        0.000        0.000        0.000        0.000        0.000        1.767        0.000      179.739        0.000        0.000      331.320       -0.750      851.900
01/27/2021  22:13:00       91.000      155.000       55.000        0.000        0.000        0.000        0.000        0.000        0.000        1.767        0.000      179.739        0.000        0.000      331.320       -0.750      851.900
01/27/2021  22:14:00       91.000      155.000       55.000        0.000        0.000        0.000        0.000        0.000        0.000        1.767        0.000      179.739        0.000        0.000      331.320       -0.750      851.900
01/27/2021  22:15:00       91.000      155.000       55.000        0.000        0.000        0.000        0.000        0.000        0.000        1.767        0.000      179.739        0.000        0.000      331.320       -0.750      851.900
01/27/2021  22:16:00       91.000      155.000       55.000        0.000        0.000        0.000        0.000        0.000        0.000        1.767        0.000      179.739        0.000        0.000      331.320       -0.750      851.900
01/27/2021  22:17:00       91.000      155.000       55.000        0.000        0.000        0.000        0.000        0.000        0.000        1.767        0.000      179.739        0.000        0.000      331.320       -0.750      851.900
01/27/2021  22:18:00       91.000      155.000       55.000        0.000        0.000        0.000        0.000        0.000        0.000        1.767        0.000      179.739        0.000        0.000      331.320       -0.750      851.900
01/27/2021  22:19:00       91.000      155.000       55.000        0.000        0.000        0.000        0.000        0.000        0.000        1.767        0.000      179.739        0.000        0.000      331.320       -0.750      851.900
01/27/2021  22:20:00       91.000      155.000       55.000        0.000        0.000        0.000        0.000        0.000        0.000        1.767        0.000      179.739        0.000        0.000      331.320       -0.750      851.900
01/27/2021  22:21:00       91.000      155.000       55.000        0.000        0.000        0.000        0.000        0.000        0.000        1.767        0.000      179.739        0.000        0.000      331.320       -0.750      851.900
01/27/2021  22:22:00       91.000      155.000       55.000        0.000        0.000        0.000        0.000        0.000        0.000        1.767        0.000      179.739        0.000        0.000      331.320       -0.750      851.900
01/27/2021  22:23:00       91.000      155.000       55.000        0.000        0.000        0.000        0.000        0.000        0.000        1.767        0.000      179.739        0.000        0.000      331.320       -0.750      851.900
01/27/2021  22:24:00       91.000      155.000       55.000        0.000        0.000        0.000        0.000        0.000        0.000        1.767        0.000      179.739        0.000        0.000      331.320       -0.750      851.900
01/27/2021  22:25:00       91.000      155.000       55.000        0.000        0.000        0.000        0.000        0.000        0.000        1.767        0.000      179.739        0.000        0.000      331.320       -0.750      851.900
01/27/2021  22:26:00       91.000      155.000       55.000        0.000        0.000        0.000        0.000        0.000        0.000        1.767        0.000      179.739        0.000        0.000      331.320       -0.750      851.900
01/27/2021  22:27:00       91.000      155.000       55.000        0.000        0.000        0.000        0.000        0.000        0.000        1.767        0.000      179.739        0.000        0.000      331.320       -0.750      851.900
01/27/2021  22:28:00       91.000      155.000       55.000        0.000        0.000        0.000        0.000        0.000        0.000        1.767        0.000      179.739        0.000        0.000      331.320       -0.750      851.900
01/27/2021  22:29:00       91.000      155.000       55.000        0.000        0.000        0.000        0.000        0.000        0.000        1.767        0.000      179.739        0.000        0.000      331.320       -0.750      851.900
01/27/2021  22:30:00       91.000      155.000       55.000        0.000        0.000        0.000        0.000        0.000        0.000        1.767        0.000      179.739        0.000        0.000      331.320       -0.750      851.900
01/27/2021  22:31:00       91.000      155.000       55.000        0.000        0.000        0.000        0.000        0.000        0.000        1.767        0.000      179.739        0.000        0.000      331.320       -0.750      851.900
01/27/2021  22:32:00       91.000      155.000       55.000        0.000        0.000        0.000        0.000        0.000        0.000        1.767        0.000      179.739        0.000        0.000      331.320       -0.750      851.900
01/27/2021  22:33:00       91.000      155.000       55.000        0.000        0.000        0.000        0.000        0.000        0.000        1.767        0.000      179.739        0.000        0.000      331.320       -0.750      851.900
01/27/2021  22:34:00       91.000      155.000       55.000        0.000        0.000        0.000        0.000        0.000        0.000        1.767        0.000      179.739        0.000        0.000      331.320       -0.750      851.900
01/27/2021  22:35:00       91.000      155.000       55.000        0.000        0.000        0.000        0.000        0.000        0.000        1.767        0.000      179.739        0.000        0.000      331.320       -0.750      851.900
01/27/2021  22:36:00       91.000      155.000       55.000        0.000        0.000        0.000        0.000        0.000        0.000        1.767        0.000      179.739        0.000        0.000      331.320       -0.750      851.900
01/27/2021  22:37:00       91.000      155.000       55.000        0.000        0.000        0.000        0.000        0.000        0.000        1.767        0.000      179.739        0.000        0.000      331.320       -0.750      851.900
01/27/2021  22:38:00       91.000      155.000       55.000        0.000        0.000        0.000        0.000        0.000        0.000        1.767        0.000      179.739        0.000        0.000      331.320       -0.750      851.900
01/27/2021  22:39:00       91.000      155.000       55.000        0.000        0.000        0.000        0.000        0.000        0.000        1.767        0.000      179.739        0.000        0.000      331.320       -0.750      851.900
01/27/2021  22:40:00       91.000      155.000       55.000        0.000        0.000        0.000        0.000        0.000        0.000        1.767        0.000      179.739        0.000        0.000      331.320       -0.750      851.900
01/27/2021  22:41:00       91.000      155.000       55.000        0.000        0.000        0.000        0.000        0.000        0.000        1.767        0.000      179.739        0.000        0.000      331.320       -0.750      851.900
01/27/2021  22:42:00       91.000      155.000       55.000        0.000        0.000        0.000        0.000        0.000        0.000        1.767        0.000      179.739        0.000        0.000      331.320       -0.750      851.900
01/27/2021  22:43:00       91.000      155.000       55.000        0.000        0.000        0.000        0.000        0.000        0.000        1.767        0.000      179.739        0.000        0.000      331.320       -0.750      851.900
01/27/2021  22:44:00       91.000      155.000       55.000        0.000        0.000        0.000        0.000        0.000        0.000        1.767        0.000      179.739        0.000        0.000      331.320       -0.750      851.900
01/27/2021  22:45:00       91.000      155.000       55.000        0.000        0.000        0.000        0.000        0.000        0.000        1.767        0.000      179.739        0.000        0.000      331.320       -0.750      851.900
01/27/2021  22:46:00       91.000      155.000       55.000        0.000        0.000        0.000        0.000        0.000        0.000        1.767        0.000      179.739        0.000        0.000      331.320       -0.750      851.900
01/27/2021  22:47:00       91.000      155.000       55.000        0.000        0.000        0.000        0.000        0.000        0.000        1.767        0.000      179.739        0.000        0.000      331.320       -0.750      851.900
01/27/2021  22:48:00       91.000      155.000       55.000        0.000        0.000        0.000        0.000        0.000        0.000        1.767        0.000      179.739        0.000        0.000      331.320       -0.750      851.900
01/27/2021  22:49:00       91.000      155.000       55.000        0.000        0.000        0.000        0.000        0.000        0.000        1.767        0.000      179.739        0.000        0.000      331.320       -0.750      851.900
01/27/2021  22:50:00       91.000      155.000       55.000        0.000        0.000        0.000        0.000        0.000        0.000        1.767        0.000      179.739        0.000        0.000      331.320       -0.750      851.900
01/27/2021  22:51:00       91.000      155.000       55.000        0.000        0.000        0.000        0.000        0.000        0.000        1.767        0.000      179.739        0.000        0.000      331.320       -0.750      851.900
01/27/2021  22:52:00       91.000      155.000       55.000        0.000        0.000        0.000        0.000        0.000        0.000        1.767        0.000      179.739        0.000        0.000      331.320       -0.750      851.900
01/27/2021  22:53:00       91.000      155.000       55.000        0.000        0.000        0.000        0.000        0.000        0.000        1.767        0.000      179.739        0.000        0.000      331.320       -0.750      851.900
01/27/2021  22:54:00       91.000      155.000       55.000        0.000        0.000        0.000        0.000        0.000        0.000        1.767        0.000      179.739        0.000        0.000      331.320       -0.750      851.900
01/27/2021  22:55:00       91.000      155.000       55.000        0.000        0.000        0.000        0.000        0.000        0.000        1.767        0.000      179.739        0.000        0.000      331.320       -0.750      851.900
01/27/2021  22:56:00       91.000      155.000       55.000        0.000        0.000        0.000        0.000        0.000        0.000        1.767        0.000      179.739        0.000        0.000      331.320       -0.750      851.900
01/27/2021  22:57:00       91.000      155.000       55.000        0.000        0.000        0.000        0.000        0.000        0.000        1.767        0.000      179.739        0.000        0.000      331.320       -0.750      851.900
01/27/2021  22:58:00       91.000      155.000       55.000        0.000        0.000        0.000        0.000        0.000        0.000        1.767        0.000      179.739        0.000        0.000      331.320       -0.750      851.900
01/27/2021  22:59:00       91.000      155.000       55.000        0.000        0.000        0.000        0.000        0.000        0.000        1.767        0.000      179.739        0.000        0.000      331.320       -0.750      851.900
01/27/2021  23:00:00       91.000      155.000       55.000        0.000        0.000        0.000        0.000        0.000        0.000        1.767        0.000      179.739        0.000        0.000      331.320       -0.750      851.900
01/27/2021  23:01:00       91.000      155.000       55.000        0.000        0.000        0.000        0.000        0.000        0.000        1.767        0.000      179.739        0.000        0.000      331.320       -0.750      851.900
01/27/2021  23:02:00       91.000      155.000       55.000        0.000        0.000        0.000        0.000        0.000        0.000        1.767        0.000      179.739        0.000        0.000      331.320       -0.750      851.900
01/27/2021  23:03:00       91.000      155.000       55.000        0.000        0.000        0.000        0.000        0.000        0.000        1.767        0.000      179.739        0.000        0.000      331.320       -0.750      851.900
01/27/2021  23:04:00       91.000      155.000       55.000        0.000        0.000        0.000        0.000        0.000        0.000        1.767        0.000      179.739        0.000        0.000      331.320       -0.750      851.900
01/27/2021  23:05:00       91.000      155.000       55.000        0.000        0.000        0.000        0.000        0.000        0.000        1.767        0.000      179.739        0.000        0.000      331.320       -0.750      851.900
01/27/2021  23:06:00       91.000      155.000       55.000        0.000        0.000        0.000        0.000        0.000        0.000        1.767        0.000      179.739        0.000        0.000      331.320       -0.750      851.900
01/27/2021  23:07:00       91.000      155.000       55.000        0.000        0.000        0.000        0.000        0.000        0.000        1.767        0.000      179.739        0.000        0.000      331.320       -0.750      851.900
01/27/2021  23:08:00       91.000      155.000       55.000        0.000        0.000        0.000        0.000        0.000        0.000        1.767        0.000      179.739        0.000        0.000      331.320       -0.750      851.900
01/27/2021  23:09:00       91.000      155.000       55.000        0.000        0.000        0.000        0.000        0.000        0.000        1.767        0.000      179.739        0.000        0.000      331.320       -0.750      851.900
01/27/2021  23:10:00       91.000      155.000       55.000        0.000        0.000        0.000        0.000        0.000        0.000        1.767        0.000      179.739        0.000        0.000      331.320       -0.750      851.900
01/27/2021  23:11:00       91.000      155.000       55.000        0.000        0.000        0.000        0.000        0.000        0.000        1.767        0.000      179.739        0.000        0.000      331.320       -0.750      851.900
01/27/2021  23:12:00       91.000      155.000       55.000        0.000        0.000        0.000        0.000        0.000        0.000        1.767        0.000      179.739        0.000        0.000      331.320       -0.750      851.900
01/27/2021  23:13:00       91.000      155.000       55.000        0.000        0.000        0.000        0.000        0.000        0.000        1.767        0.000      179.739        0.000        0.000      331.320       -0.750      851.900
01/27/2021  23:14:00       91.000      155.000       55.000        0.000        0.000        0.000        0.000        0.000        0.000        1.767        0.000      179.739        0.000        0.000      331.320       -0.750      851.900
01/27/2021  23:15:00       91.000      155.000       55.000        0.000        0.000        0.000        0.000        0.000        0.000        1.767        0.000      179.739        0.000        0.000      331.320       -0.750      851.900
01/27/2021  23:16:00       91.000      155.000       55.000        0.000        0.000        0.000        0.000        0.000        0.000        1.767        0.000      179.739        0.000        0.000      331.320       -0.750      851.900
01/27/2021  23:17:00       91.000      155.000       55.000        0.000        0.000        0.000        0.000        0.000        0.000        1.767        0.000      179.739        0.000        0.000      331.320       -0.750      851.900
01/27/2021  23:18:00       91.000      155.000       55.000        0.000        0.000        0.000        0.000        0.000        0.000        1.767        0.000      179.739        0.000        0.000      331.320       -0.750      851.900
01/27/2021  23:19:00       91.000      155.000       55.000        0.000        0.000        0.000        0.000        0.000        0.000        1.767        0.000      179.739        0.000        0.000      331.320       -0.750      851.900
01/27/2021  23:20:00       91.000      155.000       55.000        0.000        0.000        0.000        0.000        0.000        0.000        1.767        0.000      179.739        0.000        0.000      331.320       -0.750      851.900
01/27/2021  23:21:00       91.000      155.000       55.000        0.000        0.000        0.000        0.000        0.000        0.000        1.767        0.000      179.739        0.000        0.000      331.320       -0.750      851.900
01/27/2021  23:22:00       91.000      155.000       55.000        0.000        0.000        0.000        0.000        0.000        0.000        1.767        0.000      179.739        0.000        0.000      331.320       -0.750      851.900
01/27/2021  23:23:00       91.000      155.000       55.000        0.000        0.000        0.000        0.000        0.000        0.000        1.767        0.000      179.739        0.000        0.000      331.320       -0.750      851.900
01/27/2021  23:24:00       91.000      155.000       55.000        0.000        0.000        0.000        0.000        0.000        0.000        1.767        0.000      179.739        0.000        0.000      331.320       -0.750      851.900
01/27/2021  23:25:00       91.000      155.000       55.000        0.000        0.000        0.000        0.000        0.000        0.000        1.767        0.000      179.739        0.000        0.000      331.320       -0.750      851.900
01/27/2021  23:26:00       91.000      155.000       55.000        0.000        0.000        0.000        0.000        0.000        0.000        1.767        0.000      179.739        0.000        0.000      331.320       -0.750      851.900
01/27/2021  23:27:00       91.000      155.000       55.000        0.000        0.000        0.000        0.000        0.000        0.000        1.767        0.000      179.739        0.000        0.000      331.320       -0.750      851.900
01/27/2021  23:28:00       91.000      155.000       55.000        0.000        0.000        0.000        0.000        0.000        0.000        1.767        0.000      179.739        0.000        0.000      331.320       -0.750      851.900
01/27/2021  23:29:00       91.000      155.000       55.000        0.000        0.000        0.000        0.000        0.000        0.000        1.767        0.000      179.739        0.000        0.000      331.320       -0.750      851.900
01/27/2021  23:30:00       91.000      155.000       55.000        0.000        0.000        0.000        0.000        0.000        0.000        1.767        0.000      179.739        0.000        0.000      331.320       -0.750      851.900
01/27/2021  23:31:00       91.000      155.000       55.000        0.000        0.000        0.000        0.000        0.000        0.000        1.767        0.000      179.739        0.000        0.000      331.320       -0.750      851.900
01/27/2021  23:32:00       91.000      155.000       55.000        0.000        0.000        0.000        0.000        0.000        0.000        1.767        0.000      179.739        0.000        0.000      331.320       -0.750      851.900
01/27/2021  23:33:00       91.000      155.000       55.000        0.000        0.000        0.000        0.000        0.000        0.000        1.767        0.000      179.739        0.000        0.000      331.320       -0.750      851.900
01/27/2021  23:34:00       91.000      155.000       55.000        0.000        0.000        0.000        0.000        0.000        0.000        1.767        0.000      179.739        0.000        0.000      331.320       -0.750      851.900
01/27/2021  23:35:00       91.000      155.000       55.000        0.000        0.000        0.000        0.000        0.000        0.000        1.767        0.000      179.739        0.000        0.000      331.320       -0.750      851.900
01/27/2021  23:36:00       91.000      155.000       55.000        0.000        0.000        0.000        0.000        0.000        0.000        1.767        0.000      179.739        0.000        0.000      331.320       -0.750      851.900
01/27/2021  23:37:00       91.000      155.000       55.000        0.000        0.000        0.000        0.000        0.000        0.000        1.767        0.000      179.739        0.000        0.000      331.320       -0.750      851.900
01/27/2021  23:38:00       91.000      155.000       55.000        0.000        0.000        0.000        0.000        0.000        0.000        1.767        0.000      179.739        0.000        0.000      331.320       -0.750      851.900
01/27/2021  23:39:00       91.000      155.000       55.000        0.000        0.000        0.000        0.000        0.000        0.000        1.767        0.000      179.739        0.000        0.000      331.320       -0.750      851.900
01/27/2021  23:40:00       91.000      155.000       55.000        0.000        0.000        0.000        0.000        0.000        0.000        1.767        0.000      179.739        0.000        0.000      331.320       -0.750      851.900
01/27/2021  23:41:00       91.000      155.000       55.000        0.000        0.000        0.000        0.000        0.000        0.000        1.767        0.000      179.739        0.000        0.000      331.320       -0.750      851.900
01/27/2021  23:42:00       91.000      155.000       55.000        0.000        0.000        0.000        0.000        0.000        0.000        1.767        0.000      179.739        0.000        0.000      331.320       -0.750      851.900
01/27/2021  23:43:00       91.000      155.000       55.000        0.000        0.000        0.000        0.000        0.000        0.000        1.767        0.000      179.739        0.000        0.000      331.320       -0.750      851.900
01/27/2021  23:44:00       91.000      155.000       55.000        0.000        0.000        0.000        0.000        0.000        0.000        1.767        0.000      179.739        0.000        0.000      331.320       -0.750      851.900
01/27/2021  23:45:00       91.000      155.000       55.000        0.000        0.000        0.000        0.000        0.000        0.000        1.767        0.000      179.739        0.000        0.000      331.320       -0.750      851.900
01/27/2021  23:46:00       91.000      155.000       55.000        0.000        0.000        0.000        0.000        0.000        0.000        1.767        0.000      179.739        0.000        0.000      331.320       -0.750      851.900
01/27/2021  23:47:00       91.000      155.000       55.000        0.000        0.000        0.000        0.000        0.000        0.000        1.767        0.000      179.739        0.000        0.000      331.320       -0.750      851.900
01/27/2021  23:48:00       91.000      155.000       55.000        0.000        0.000        0.000        0.000        0.000        0.000        1.767        0.000      179.739        0.000        0.000      331.320       -0.750      851.900
01/27/2021  23:49:00       91.000      155.000       55.000        0.000        0.000        0.000        0.000        0.000        0.000        1.767        0.000      179.739        0.000        0.000      331.320       -0.750      851.900
01/27/2021  23:50:00       91.000      155.000       55.000        0.000        0.000        0.000        0.000        0.000        0.000        1.767        0.000      179.739        0.000        0.000      331.320       -0.750      851.900
01/27/2021  23:51:00       91.000      155.000       55.000        0.000        0.000        0.000        0.000        0.000        0.000        1.767        0.000      179.739        0.000        0.000      331.320       -0.750      851.900
01/27/2021  23:52:00       91.000      155.000       55.000        0.000        0.000        0.000        0.000        0.000        0.000        1.767        0.000      179.739        0.000        0.000      331.320       -0.750      851.900
01/27/2021  23:53:00       91.000      155.000       55.000        0.000        0.000        0.000        0.000        0.000        0.000        1.767        0.000      179.739        0.000        0.000      331.320       -0.750      851.900
01/27/2021  23:54:00       91.000      155.000       55.000        0.000        0.000        0.000        0.000        0.000        0.000        1.767        0.000      179.739        0.000        0.000      331.320       -0.750      851.900
01/27/2021  23:55:00       91.000      155.000       55.000        0.000        0.000        0.000        0.000        0.000        0.000        1.767        0.000      179.739        0.000        0.000      331.320       -0.750      851.900
01/27/2021  23:56:00       91.000      155.000       55.000        0.000        0.000        0.000        0.000        0.000        0.000        1.767        0.000      179.739        0.000        0.000      331.320       -0.750      851.900
01/27/2021  23:57:00       91.000      155.000       55.000        0.000        0.000        0.000        0.000        0.000        0.000        1.767        0.000      179.739        0.000        0.000      331.320       -0.750      851.900
01/27/2021  23:58:00       91.000      155.000       55.000        0.000        0.000        0.000        0.000        0.000        0.000        1.767        0.000      179.739        0.000        0.000      331.320       -0.750      851.900
01/27/2021  23:59:00       91.000      155.000       55.000        0.000        0.000        0.000        0.000        0.000        0.000        1.767        0.000      179.739        0.000        0.000      331.320       -0.750      851.900
01/28/2021  00:00:00       91.000      155.000       55.000        0.000        0.000        0.000        0.000        0.000        0.000        1.767        0.000      179.739        0.000        0.000      331.320       -0.750      851.900
01/28/2021  00:01:00       91.000      155.000       55.000        0.000        0.000        0.000        0.000        0.000        0.000        1.767        0.000      179.739        0.000        0.000      331.320       -0.750      851.900
01/28/2021  00:02:00       91.000      155.000       55.000        0.000        0.000        0.000        0.000        0.000        0.000        1.767        0.000      179.739        0.000        0.000      331.320       -0.750      851.900
01/28/2021  00:03:00       91.000      155.000       55.000        0.000        0.000        0.000        0.000        0.000        0.000        1.767        0.000      179.739        0.000        0.000      331.320       -0.750      851.900
01/28/2021  00:04:00       91.000      155.000       55.000        0.000        0.000        0.000        0.000        0.000        0.000        1.767        0.000      179.739        0.000        0.000      331.320       -0.750      851.900
01/28/2021  00:05:00       91.000      155.000       55.000        0.000        0.000        0.000        0.000        0.000        0.000        1.767        0.000      179.739        0.000        0.000      331.320       -0.750      851.900
01/28/2021  00:06:00       91.000      155.000       55.000        0.000        0.000        0.000        0.000        0.000        0.000        1.767        0.000      179.739        0.000        0.000      331.320       -0.750      851.900
01/28/2021  00:07:00       91.000      155.000       55.000        0.000        0.000        0.000        0.000        0.000        0.000        1.767        0.000      179.739        0.000        0.000      331.320       -0.750      851.900
01/28/2021  00:08:00       91.000      155.000       55.000        0.000        0.000        0.000        0.000        0.000        0.000        1.767        0.000      179.739        0.000        0.000      331.320       -0.750      851.900
01/28/2021  00:09:00       91.000      155.000       55.000        0.000        0.000        0.000        0.000        0.000        0.000        1.767        0.000      179.739        0.000        0.000      331.320       -0.750      851.900
01/28/2021  00:10:00       91.000      155.000       55.000        0.000        0.000        0.000        0.000        0.000        0.000        1.767        0.000      179.739        0.000        0.000      331.320       -0.750      851.900
01/28/2021  00:11:00       91.000      155.000       55.000        0.000        0.000        0.000        0.000        0.000        0.000        1.767        0.000      179.739        0.000        0.000      331.320       -0.750      851.900
01/28/2021  00:12:00       91.000      155.000       55.000        0.000        0.000        0.000        0.000        0.000        0.000        1.767        0.000      179.739        0.000        0.000      331.320       -0.750      851.900
01/28/2021  00:13:00       91.000      155.000       55.000        0.000        0.000        0.000        0.000        0.000        0.000        1.767        0.000      179.739        0.000        0.000      331.320       -0.750      851.900
01/28/2021  00:14:00       91.000      155.000       55.000        0.000        0.000        0.000        0.000        0.000        0.000        1.767        0.000      179.739        0.000        0.000      331.320       -0.750      851.900
01/28/2021  00:15:00       91.000      155.000       55.000        0.000        0.000        0.000        0.000        0.000        0.000        1.767        0.000      179.739        0.000        0.000      331.320       -0.750      851.900
01/28/2021  00:16:00       91.000      155.000       55.000        0.000        0.000        0.000        0.000        0.000        0.000        1.767        0.000      179.739        0.000        0.000      331.320       -0.750      851.900
01/28/2021  00:17:00       91.000      155.000       55.000        0.000        0.000        0.000        0.000        0.000        0.000        1.767        0.000      179.739        0.000        0.000      331.320       -0.750      851.900
01/28/2021  00:18:00       91.000      155.000       55.000        0.000        0.000        0.000        0.000        0.000        0.000        1.767        0.000      179.739        0.000        0.000      331.320       -0.750      851.900
01/28/2021  00:19:00       91.000      155.000       55.000        0.000        0.000        0.000        0.000        0.000        0.000        1.767        0.000      179.739        0.000        0.000      331.320       -0.750      851.900
01/28/2021  00:20:00       91.000      155.000       55.000        0.000        0.000        0.000        0.000        0.000        0.000        1.767        0.000      179.739        0.000        0.000      331.320       -0.750      851.900
01/28/2021  00:21:00       91.000      155.000       55.000        0.000        0.000        0.000        0.000        0.000        0.000        1.767        0.000      179.739        0.000        0.000      331.320       -0.750      851.900
01/28/2021  00:22:00       91.000      155.000       55.000        0.000        0.000        0.000        0.000        0.000        0.000        1.767        0.000      179.739        0.000        0.000      331.320       -0.750      851.900
01/28/2021  00:23:00       91.000      155.000       55.000        0.000        0.000        0.000        0.000        0.000        0.000        1.767        0.000      179.739        0.000        0.000      331.320       -0.750      851.900
01/28/2021  00:24:00       91.000      155.000       55.000        0.000        0.000        0.000        0.000        0.000        0.000        1.767        0.000      179.739        0.000        0.000      331.320       -0.750      851.900
01/28/2021  00:25:00       91.000      155.000       55.000        0.000        0.000        0.000        0.000        0.000        0.000        1.767        0.000      179.739        0.000        0.000      331.320       -0.750      851.900
01/28/2021  00:26:00       91.000      155.000       55.000        0.000        0.000        0.000        0.000        0.000        0.000        1.767        0.000      179.739        0.000        0.000      331.320       -0.750      851.900
01/28/2021  00:27:00       91.000      155.000       55.000        0.000        0.000        0.000        0.000        0.000        0.000        1.767        0.000      179.739        0.000        0.000      331.320       -0.750      851.900
01/28/2021  00:28:00       91.000      155.000       55.000        0.000        0.000        0.000        0.000        0.000        0.000        1.767        0.000      179.739        0.000        0.000      331.320       -0.750      851.900
01/28/2021  00:29:00       91.000      155.000       55.000        0.000        0.000        0.000        0.000        0.000        0.000        1.767        0.000      179.739        0.000        0.000      331.320       -0.750      851.900
01/28/2021  00:30:00       91.000      155.000       55.000        0.000        0.000        0.000        0.000        0.000        0.000        1.767        0.000      179.739        0.000        0.000      331.320       -0.750      851.900
01/28/2021  00:31:00       91.000      155.000       55.000        0.000        0.000        0.000        0.000        0.000        0.000        1.767        0.000      179.739        0.000        0.000      331.320       -0.750      851.900
01/28/2021  00:32:00       91.000      155.000       55.000        0.000        0.000        0.000        0.000        0.000        0.000        1.767        0.000      179.739        0.000        0.000      331.320       -0.750      851.900
01/28/2021  00:33:00       91.000      155.000       55.000        0.000        0.000        0.000        0.000        0.000        0.000        1.767        0.000      179.739        0.000        0.000      331.320       -0.750      851.900
01/28/2021  00:34:00       91.000      155.000       55.000        0.000        0.000        0.000        0.000        0.000        0.000        1.767        0.000      179.739        0.000        0.000      331.320       -0.750      851.900
01/28/2021  00:35:00       91.000      155.000       55.000        0.000        0.000        0.000        0.000        0.000        0.000        1.767        0.000      179.739        0.000        0.000      331.320       -0.750      851.900
01/28/2021  00:36:00       91.000      155.000       55.000        0.000        0.000        0.000        0.000        0.000        0.000        1.767        0.000      179.739        0.000        0.000      331.320       -0.750      851.900
01/28/2021  00:37:00       91.000      155.000       55.000        0.000        0.000        0.000        0.000        0.000        0.000        1.767        0.000      179.739        0.000        0.000      331.320       -0.750      851.900
01/28/2021  00:38:00       91.000      155.000       55.000        0.000        0.000        0.000        0.000        0.000        0.000        1.767        0.000      179.739        0.000        0.000      331.320       -0.750      851.900
01/28/2021  00:39:00       91.000      155.000       55.000        0.000        0.000        0.000        0.000        0.000        0.000        1.767        0.000      179.739        0.000        0.000      331.320       -0.750      851.900
01/28/2021  00:40:00       91.000      155.000       55.000        0.000        0.000        0.000        0.000        0.000        0.000        1.767        0.000      179.739        0.000        0.000      331.320       -0.750      851.900
01/28/2021  00:41:00       91.000      155.000       55.000        0.000        0.000        0.000        0.000        0.000        0.000        1.767        0.000      179.739        0.000        0.000      331.320       -0.750      851.900
01/28/2021  00:42:00       91.000      155.000       55.000        0.000        0.000        0.000        0.000        0.000        0.000        1.767        0.000      179.739        0.000        0.000      331.320       -0.750      851.900
01/28/2021  00:43:00       91.000      155.000       55.000        0.000        0.000        0.000        0.000        0.000        0.000        1.767        0.000      179.739        0.000        0.000      331.320       -0.750      851.900
01/28/2021  00:44:00       91.000      155.000       55.000        0.000        0.000        0.000        0.000        0.000        0.000        1.767        0.000      179.739        0.000        0.000      331.320       -0.750      851.900
01/28/2021  00:45:00       91.000      155.000       55.000        0.000        0.000        0.000        0.000        0.000        0.000        1.767        0.000      179.739        0.000        0.000      331.320       -0.750      851.900
01/28/2021  00:46:00       91.000      155.000       55.000        0.000        0.000        0.000        0.000        0.000        0.000        1.767        0.000      179.739        0.000        0.000      331.320       -0.750      851.900
01/28/2021  00:47:00       91.000      155.000       55.000        0.000        0.000        0.000        0.000        0.000        0.000        1.767        0.000      179.739        0.000        0.000      331.320       -0.750      851.900
01/28/2021  00:48:00       91.000      155.000       55.000        0.000        0.000        0.000        0.000        0.000        0.000        1.767        0.000      179.739        0.000        0.000      331.320       -0.750      851.900
01/28/2021  00:49:00       91.000      155.000       55.000        0.000        0.000        0.000        0.000        0.000        0.000        1.767        0.000      179.739        0.000        0.000      331.320       -0.750      851.900
01/28/2021  00:50:00       91.000      155.000       55.000        0.000        0.000        0.000        0.000        0.000        0.000        1.767        0.000      179.739        0.000        0.000      331.320       -0.750      851.900
01/28/2021  00:51:00       91.000      155.000       55.000        0.000        0.000        0.000        0.000        0.000        0.000        1.767        0.000      179.739        0.000        0.000      331.320       -0.750      851.900
01/28/2021  00:52:00       91.000      155.000       55.000        0.000        0.000        0.000        0.000        0.000        0.000        1.767        0.000      179.739        0.000        0.000      331.320       -0.750      851.900
01/28/2021  00:53:00       91.000      155.000       55.000        0.000        0.000        0.000        0.000        0.000        0.000        1.767        0.000      179.739        0.000        0.000      331.320       -0.750      851.900
01/28/2021  00:54:00       91.000      155.000       55.000        0.000        0.000        0.000        0.000        0.000        0.000        1.767        0.000      179.739        0.000        0.000      331.320       -0.750      851.900
01/28/2021  00:55:00       91.000      155.000       55.000        0.000        0.000        0.000        0.000        0.000        0.000        1.767        0.000      179.739        0.000        0.000      331.320       -0.750      851.900
01/28/2021  00:56:00       91.000      155.000       55.000        0.000        0.000        0.000        0.000        0.000        0.000        1.767        0.000      179.739        0.000        0.000      331.320       -0.750      851.900
01/28/2021  00:57:00       91.000      155.000       55.000        0.000        0.000        0.000        0.000        0.000        0.000        1.767        0.000      179.739        0.000        0.000      331.320       -0.750      851.900
01/28/2021  00:58:00       91.000      155.000       55.000        0.000        0.000        0.000        0.000        0.000        0.000        1.767        0.000      179.739        0.000        0.000      331.320       -0.750      851.900
01/28/2021  00:59:00       91.000      155.000       55.000        0.000        0.000        0.000        0.000        0.000        0.000        1.767        0.000      179.739        0.000        0.000      331.320       -0.750      851.900
01/28/2021  01:00:00       91.000      155.000       55.000        0.000        0.000        0.000        0.000        0.000        0.000        1.767        0.000      179.739        0.000        0.000      331.320       -0.750      851.900
01/28/2021  01:01:00       91.000      155.000       55.000        0.000        0.000        0.000        0.000        0.000        0.000        1.767        0.000      179.739        0.000        0.000      331.320       -0.750      851.900
01/28/2021  01:02:00       91.000      155.000       55.000        0.000        0.000        0.000        0.000        0.000        0.000        1.767        0.000      179.739        0.000        0.000      331.320       -0.750      851.900
01/28/2021  01:03:00       91.000      155.000       55.000        0.000        0.000        0.000        0.000        0.000        0.000        1.767        0.000      179.739        0.000        0.000      331.320       -0.750      851.900
01/28/2021  01:04:00       91.000      155.000       55.000        0.000        0.000        0.000        0.000        0.000        0.000        1.767        0.000      179.739        0.000        0.000      331.320       -0.750      851.900
01/28/2021  01:05:00       91.000      155.000       55.000        0.000        0.000        0.000        0.000        0.000        0.000        1.767        0.000      179.739        0.000        0.000      331.320       -0.750      851.900
01/28/2021  01:06:00       91.000      155.000       55.000        0.000        0.000        0.000        0.000        0.000        0.000        1.767        0.000      179.739        0.000        0.000      331.320       -0.750      851.900
01/28/2021  01:07:00       91.000      155.000       55.000        0.000        0.000        0.000        0.000        0.000        0.000        1.767        0.000      179.739        0.000        0.000      331.320       -0.750      851.900
01/28/2021  01:08:00       91.000      155.000       55.000        0.000        0.000        0.000        0.000        0.000        0.000        1.767        0.000      179.739        0.000        0.000      331.320       -0.750      851.900
01/28/2021  01:09:00       91.000      155.000       55.000        0.000        0.000        0.000        0.000        0.000        0.000        1.767        0.000      179.739        0.000        0.000      331.320       -0.750      851.900
01/28/2021  01:10:00       91.000      155.000       55.000        0.000        0.000        0.000        0.000        0.000        0.000        1.767        0.000      179.739        0.000        0.000      331.320       -0.750      851.900
01/28/2021  01:11:00       91.000      155.000       55.000        0.000        0.000        0.000        0.000        0.000        0.000        1.767        0.000      179.739        0.000        0.000      331.320       -0.750      851.900
01/28/2021  01:12:00       91.000      155.000       55.000        0.000        0.000        0.000        0.000        0.000        0.000        1.767        0.000      179.739        0.000        0.000      331.320       -0.750      851.900
01/28/2021  01:13:00       91.000      155.000       55.000        0.000        0.000        0.000        0.000        0.000        0.000        1.767        0.000      179.739        0.000        0.000      331.320       -0.750      851.900
01/28/2021  01:14:00       91.000      155.000       55.000        0.000        0.000        0.000        0.000        0.000        0.000        1.767        0.000      179.739        0.000        0.000      331.320       -0.750      851.900
01/28/2021  01:15:00       91.000      155.000       55.000        0.000        0.000        0.000        0.000        0.000        0.000        1.767        0.000      179.739        0.000        0.000      331.320       -0.750      851.900
01/28/2021  01:16:00       91.000      155.000       55.000        0.000        0.000        0.000        0.000        0.000        0.000        1.767        0.000      179.739        0.000        0.000      331.320       -0.750      851.900
01/28/2021  01:17:00       91.000      155.000       55.000        0.000        0.000        0.000        0.000        0.000        0.000        1.767        0.000      179.739        0.000        0.000      331.320       -0.750      851.900
01/28/2021  01:18:00       91.000      155.000       55.000        0.000        0.000        0.000        0.000        0.000        0.000        1.767        0.000      179.739        0.000        0.000      331.320       -0.750      851.900
01/28/2021  01:19:00       91.000      155.000       55.000        0.000        0.000        0.000        0.000        0.000        0.000        1.767        0.000      179.739        0.000        0.000      331.320       -0.750      851.900
01/28/2021  01:20:00       91.000      155.000       55.000        0.000        0.000        0.000        0.000        0.000        0.000        1.767        0.000      179.739        0.000        0.000      331.320       -0.750      851.900
01/28/2021  01:21:00       91.000      155.000       55.000        0.000        0.000        0.000        0.000        0.000        0.000        1.767        0.000      179.739        0.000        0.000      331.320       -0.750      851.900
01/28/2021  01:22:00       91.000      155.000       55.000        0.000        0.000        0.000        0.000        0.000        0.000        1.767        0.000      179.739        0.000        0.000      331.320       -0.750      851.900
01/28/2021  01:23:00       91.000      155.000       55.000        0.000        0.000        0.000        0.000        0.000        0.000        1.767        0.000      179.739        0.000        0.000      331.320       -0.750      851.900
01/28/2021  01:24:00       91.000      155.000       55.000        0.000        0.000        0.000        0.000        0.000        0.000        1.767        0.000      179.739        0.000        0.000      331.320       -0.750      851.900
01/28/2021  01:25:00       91.000      155.000       55.000        0.000        0.000        0.000        0.000        0.000        0.000        1.767        0.000      179.739        0.000        0.000      331.320       -0.750      851.900
01/28/2021  01:26:00       91.000      155.000       55.000        0.000        0.000        0.000        0.000        0.000        0.000        1.767        0.000      179.739        0.000        0.000      331.320       -0.750      851.900
01/28/2021  01:27:00       91.000      155.000       55.000        0.000        0.000        0.000        0.000        0.000        0.000        1.767        0.000      179.739        0.000        0.000      331.320       -0.750      851.900
01/28/2021  01:28:00       91.000      155.000       55.000        0.000        0.000        0.000        0.000        0.000        0.000        1.767        0.000      179.739        0.000        0.000      331.320       -0.750      851.900
01/28/2021  01:29:00       91.000      155.000       55.000        0.000        0.000        0.000        0.000        0.000        0.000        1.767        0.000      179.739        0.000        0.000      331.320       -0.750      851.900
01/28/2021  01:30:00       91.000      155.000       55.000        0.000        0.000        0.000        0.000        0.000        0.000        1.767        0.000      179.739        0.000        0.000      331.320       -0.750      851.900
01/28/2021  01:31:00       91.000      155.000       55.000        0.000        0.000        0.000        0.000        0.000        0.000        1.767        0.000      179.739        0.000        0.000      331.320       -0.750      851.900
01/28/2021  01:32:00       91.000      155.000       55.000        0.000        0.000        0.000        0.000        0.000        0.000        1.767        0.000      179.739        0.000        0.000      331.320       -0.750      851.900
01/28/2021  01:33:00       91.000      155.000       55.000        0.000        0.000        0.000        0.000        0.000        0.000        1.767        0.000      179.739        0.000        0.000      331.320       -0.750      851.900
01/28/2021  01:34:00       91.000      155.000       55.000        0.000        0.000        0.000        0.000        0.000        0.000        1.767        0.000      179.739        0.000        0.000      331.320       -0.750      851.900
01/28/2021  01:35:00       91.000      155.000       55.000        0.000        0.000        0.000        0.000        0.000        0.000        1.767        0.000      179.739        0.000        0.000      331.320       -0.750      851.900
01/28/2021  01:36:00       91.000      155.000       55.000        0.000        0.000        0.000        0.000        0.000        0.000        1.767        0.000      179.739        0.000        0.000      331.320       -0.750      851.900
01/28/2021  01:37:00       51.748       40.898       12.379      216.922       82.090      101.314    47054.945     6738.795    10264.592        3.427        3.203       65.958      142.951        4.697      331.960        0.312      851.003
01/28/2021  01:38:00       27.672      -33.771        0.201       39.455       43.730       22.458     1556.713     1912.346      504.340        0.294        0.199       43.660       14.251        0.107      332.254        0.797      850.760
01/28/2021  01:39:00      148.469     -107.642      -15.271      363.775       82.539      180.609   132332.115     6812.638    32619.469       10.278        8.588      183.384      248.257        1.833      332.402        1.045      850.774
01/28/2021  01:40:00      245.100     -112.190      -66.288      613.406       51.222      296.178   376266.640     2623.728    87721.419       27.174       23.331      269.557      423.835        2.472      332.761        1.645      850.783
01/28/2021  01:41:00       68.770      -69.839      -15.060      147.649       69.658       72.826    21800.335     4852.268     5303.583        2.089        1.598       98.014       99.998        1.041      332.422        1.075      850.790
01/28/2021  01:42:00       90.634        2.346        0.252      223.502       75.739      105.543    49953.121     5736.453    11139.283        3.751        3.341       90.665      145.352        2.570      332.841        1.767      850.758
01/28/2021  01:43:00       75.635      -42.456      -29.760      385.199       61.534      184.949   148378.109     3786.414    34206.042        9.735        9.319       86.736      265.874        9.396      332.843        1.774      850.711
01/28/2021  01:44:00       63.865     -139.816       -2.147       25.761       33.562       18.291      663.631     1126.382      334.551        1.288        0.106      153.712        6.924        0.002      332.479        1.169      850.671
01/28/2021  01:45:00       49.617      -89.793       -9.539       66.494       75.527       32.621     4421.499     5704.373     1064.127        1.090        0.559      102.590       26.784        0.068      332.506        1.213      850.663
01/28/2021  01:46:00       54.085      -10.622      -24.373       49.710      112.855       51.510     2471.049    12736.338     2653.320        1.074        0.893       55.118       66.204        1.443      332.537        1.265      850.663
01/28/2021  01:47:00       25.349        4.152       -1.895       53.565       66.688       43.662     2869.189     4447.319     1906.387        0.494        0.461       25.687       33.944        1.746      332.617        1.396      850.656
01/28/2021  01:48:00      120.777      -63.896      -42.399      351.250       74.893      175.789   123376.516     5609.019    30901.918        9.015        7.994      136.637      245.017        3.216      332.960        1.966      850.663
01/28/2021  01:49:00      102.551      -53.947       -7.803       63.585       70.470       41.918     4043.038     4966.050     1757.115        1.212        0.538      115.875       27.956        0.058      332.772        1.651      850.689
01/28/2021  01:50:00       63.244      -79.349      -11.570       55.311       73.657       37.369     3059.352     5425.405     1396.444        1.015        0.494      101.470       29.865        0.087      332.767        1.642      850.713
01/28/2021  01:51:00      151.984     -187.383      -36.175      174.660       83.483       84.114    30506.111     6969.367     7075.104        5.203        2.228      241.271      117.044        0.235      332.646        1.443      850.714
01/28/2021  01:52:00       93.546      -80.396      -22.677       58.200       91.971       34.100     3387.274     8458.669     1162.801        1.437        0.650      123.346       35.787        0.084      332.635        1.425      850.680
01/28/2021  01:53:00       22.427       11.722       -5.848       46.760       46.134       30.659     2186.483     2128.337      939.979        0.296        0.263       25.305       26.480        1.095      332.641        1.435      850.669
01/28/2021  01:54:00       99.671      -50.576      -15.908       61.670       68.307       36.256     3803.152     4665.822     1314.524        1.126        0.489      111.769       21.053        0.035      332.644        1.442      850.665
01/28/2021  01:55:00       79.620      -75.260      -30.759      142.945       72.434       73.705    20433.243     5246.691     5432.496        2.202        1.556      109.560       91.007        0.690      332.739        1.598      850.659
01/28/2021  01:56:00       78.599     -106.499      -14.534      251.447       64.263      127.280    63225.574     4129.711    16200.074        5.063        4.178      132.363      172.957        1.707      332.759        1.632      850.665
01/28/2021  01:57:00      133.488     -189.886      -18.253       43.647       87.544       32.557     1905.023     7664.003     1059.977        3.242        0.531      232.112       18.511        0.006      332.687        1.507      850.685
01/28/2021  01:58:00       82.824     -202.678      -21.884       48.892       73.569       39.913     2390.400     5412.426     1593.031        2.890        0.470      218.948       23.573        0.012      332.680        1.497      850.699
01/28/2021  01:59:00       92.472     -101.175        6.488       69.514       89.260       48.770     4832.242     7967.410     2378.495        1.700        0.759      137.067       49.128        0.128      332.595        1.358      850.704
01/28/2021  02:00:00      180.244     -180.871       14.475       80.602      105.906       50.190     6496.623    11216.171     2519.062        4.282        1.012      255.348       44.564        0.030      332.469        1.149      850.727
01/28/2021  02:01:00      119.276     -229.495        3.720      154.199       82.612       83.542    23777.321     6824.725     6979.224        5.224        1.879      258.640       95.187        0.135      332.585        1.342      850.740
01/28/2021  02:02:00      119.271     -109.861      -25.855      144.270       62.392       71.109    20813.876     3892.811     5056.476        2.836        1.488      162.157       96.064        0.351      332.804        1.705      850.728
01/28/2021  02:03:00      159.423     -179.748      -14.441      245.577       98.634      123.277    60307.886     9728.715    15197.259        7.156        4.262      240.260      162.742        0.459      332.778        1.662      850.728
01/28/2021  02:04:00      102.209     -175.807      -35.215      179.546       66.488       86.526    32236.630     4420.705     7486.784        4.336        2.207      203.358      120.739        0.353      332.990        2.011      850.739
01/28/2021  02:05:00       47.240      -78.650      -12.806       23.574       46.798       21.074      555.747     2190.097      444.099        0.589        0.159       91.747       11.446        0.016      332.854        1.788      850.735
01/28/2021  02:06:00      103.238      -22.131      -27.536      273.832       51.114      132.421    74983.955     2612.597    17535.430        5.350        4.757      105.583      188.756        3.196      333.028        2.077      850.705
01/28/2021  02:07:00       98.681      -82.265      -39.275      310.480       80.287      149.655    96397.782     6445.951    22396.582        7.162        6.262      128.473      214.121        2.778      333.056        2.125      850.697
01/28/2021  02:08:00      252.641      -94.662      -90.826      526.315       75.082      253.278   277007.487     5637.349    64149.891       21.385       17.340      269.793      363.620        1.816      333.637        3.092      850.677
01/28/2021  02:09:00      895.290       -1.202     -399.490     1172.511       34.385      557.620  1374783.055     1182.303   310939.675      132.370       84.345      895.291      807.886        0.814      336.262        7.490      850.644
01/28/2021  02:10:00      843.277      -42.698     -403.685     1118.927       39.428      532.818  1251996.910     1554.550   283894.764      120.639       76.872      844.357      771.482        0.835      336.539        7.947      850.612
01/28/2021  02:11:00      149.000      -40.000     -102.000        0.000        0.000        0.000        0.000        0.000        0.000        1.710        0.000      154.276        0.000        0.000      334.000        3.680      850.600
01/28/2021  02:12:00      149.000      -40.000     -102.000        0.000        0.000        0.000        0.000        0.000        0.000        1.710        0.000      154.276        0.000        0.000      334.000        3.680      850.600
01/28/2021  02:13:00      149.000      -40.000     -102.000        0.000        0.000        0.000        0.000        0.000        0.000        1.710        0.000      154.276        0.000        0.000      334.000        3.680      850.600
01/28/2021  02:14:00      149.000      -40.000     -102.000        0.000        0.000        0.000        0.000        0.000        0.000        1.710        0.000      154.276        0.000        0.000      334.000        3.680      850.600
01/28/2021  02:15:00      149.000      -40.000     -102.000        0.000        0.000        0.000        0.000        0.000        0.000        1.710        0.000      154.276        0.000        0.000      334.000        3.680      850.600
01/28/2021  02:16:00      149.000      -40.000     -102.000        0.000        0.000        0.000        0.000        0.000        0.000        1.710        0.000      154.276        0.000        0.000      334.000        3.680      850.600
01/28/2021  02:17:00      149.000      -40.000     -102.000        0.000        0.000        0.000        0.000        0.000        0.000        1.710        0.000      154.276        0.000        0.000      334.000        3.680      850.600
01/28/2021  02:18:00      149.000      -40.000     -102.000        0.000        0.000        0.000        0.000        0.000        0.000        1.710        0.000      154.276        0.000        0.000      334.000        3.680      850.600
01/28/2021  02:19:00      149.000      -40.000     -102.000        0.000        0.000        0.000        0.000        0.000        0.000        1.710        0.000      154.276        0.000        0.000      334.000        3.680      850.600
01/28/2021  02:20:00      149.000      -40.000     -102.000        0.000        0.000        0.000        0.000        0.000        0.000        1.710        0.000      154.276        0.000        0.000      334.000        3.680      850.600
01/28/2021  02:21:00      149.000      -40.000     -102.000        0.000        0.000        0.000        0.000        0.000        0.000        1.710        0.000      154.276        0.000        0.000      334.000        3.680      850.600
01/28/2021  02:22:00      149.000      -40.000     -102.000        0.000        0.000        0.000        0.000        0.000        0.000        1.710        0.000      154.276        0.000        0.000      334.000        3.680      850.600
01/28/2021  02:23:00      149.000      -40.000     -102.000        0.000        0.000        0.000        0.000        0.000        0.000        1.710        0.000      154.276        0.000        0.000      334.000        3.680      850.600
01/28/2021  02:24:00      149.000      -40.000     -102.000        0.000        0.000        0.000        0.000        0.000        0.000        1.710        0.000      154.276        0.000        0.000      334.000        3.680      850.600
01/28/2021  02:25:00      149.000      -40.000     -102.000        0.000        0.000        0.000        0.000        0.000        0.000        1.710        0.000      154.276        0.000        0.000      334.000        3.680      850.600
01/28/2021  02:26:00      149.000      -40.000     -102.000        0.000        0.000        0.000        0.000        0.000        0.000        1.710        0.000      154.276        0.000        0.000      334.000        3.680      850.600
01/28/2021  02:27:00      149.000      -40.000     -102.000        0.000        0.000        0.000        0.000        0.000        0.000        1.710        0.000      154.276        0.000        0.000      334.000        3.680      850.600
01/28/2021  02:28:00      149.000      -40.000     -102.000        0.000        0.000        0.000        0.000        0.000        0.000        1.710        0.000      154.276        0.000        0.000      334.000        3.680      850.600
01/28/2021  02:29:00      149.000      -40.000     -102.000        0.000        0.000        0.000        0.000        0.000        0.000        1.710        0.000      154.276        0.000        0.000      334.000        3.680      850.600
01/28/2021  02:30:00      149.000      -40.000     -102.000        0.000        0.000        0.000        0.000        0.000        0.000        1.710        0.000      154.276        0.000        0.000      334.000        3.680      850.600
01/28/2021  02:31:00      149.000      -40.000     -102.000        0.000        0.000        0.000        0.000        0.000        0.000        1.710        0.000      154.276        0.000        0.000      334.000        3.680      850.600
01/28/2021  02:32:00      149.000      -40.000     -102.000        0.000        0.000        0.000        0.000        0.000        0.000        1.710        0.000      154.276        0.000        0.000      334.000        3.680      850.600
01/28/2021  02:33:00      149.000      -40.000     -102.000        0.000        0.000        0.000        0.000        0.000        0.000        1.710        0.000      154.276        0.000        0.000      334.000        3.680      850.600
01/28/2021  02:34:00      149.000      -40.000     -102.000        0.000        0.000        0.000        0.000        0.000        0.000        1.710        0.000      154.276        0.000        0.000      334.000        3.680      850.600
01/28/2021  02:35:00      149.000      -40.000     -102.000        0.000        0.000        0.000        0.000        0.000        0.000        1.710        0.000      154.276        0.000        0.000      334.000        3.680      850.600
01/28/2021  02:36:00      149.000      -40.000     -102.000        0.000        0.000        0.000        0.000        0.000        0.000        1.710        0.000      154.276        0.000        0.000      334.000        3.680      850.600
01/28/2021  02:37:00      149.000      -40.000     -102.000        0.000        0.000        0.000        0.000        0.000        0.000        1.710        0.000      154.276        0.000        0.000      334.000        3.680      850.600
01/28/2021  02:38:00      149.000      -40.000     -102.000        0.000        0.000        0.000        0.000        0.000        0.000        1.710        0.000      154.276        0.000        0.000      334.000        3.680      850.600
01/28/2021  02:39:00      149.000      -40.000     -102.000        0.000        0.000        0.000        0.000        0.000        0.000        1.710        0.000      154.276        0.000        0.000      334.000        3.680      850.600
01/28/2021  02:40:00      149.000      -40.000     -102.000        0.000        0.000        0.000        0.000        0.000        0.000        1.710        0.000      154.276        0.000        0.000      334.000        3.680      850.600
01/28/2021  02:41:00      149.000      -40.000     -102.000        0.000        0.000        0.000        0.000        0.000        0.000        1.710        0.000      154.276        0.000        0.000      334.000        3.680      850.600
01/28/2021  02:42:00      149.000      -40.000     -102.000        0.000        0.000        0.000        0.000        0.000        0.000        1.710        0.000      154.276        0.000        0.000      334.000        3.680      850.600
01/28/2021  02:43:00      149.000      -40.000     -102.000        0.000        0.000        0.000        0.000        0.000        0.000        1.710        0.000      154.276        0.000        0.000      334.000        3.680      850.600
01/28/2021  02:44:00      149.000      -40.000     -102.000        0.000        0.000        0.000        0.000        0.000        0.000        1.710        0.000      154.276        0.000        0.000      334.000        3.680      850.600
01/28/2021  02:45:00      149.000      -40.000     -102.000        0.000        0.000        0.000        0.000        0.000        0.000        1.710        0.000      154.276        0.000        0.000      334.000        3.680      850.600
01/28/2021  02:46:00      149.000      -40.000     -102.000        0.000        0.000        0.000        0.000        0.000        0.000        1.710        0.000      154.276        0.000        0.000      334.000        3.680      850.600
01/28/2021  02:47:00      149.000      -40.000     -102.000        0.000        0.000        0.000        0.000        0.000        0.000        1.710        0.000      154.276        0.000        0.000      334.000        3.680      850.600
01/28/2021  02:48:00      149.000      -40.000     -102.000        0.000        0.000        0.000        0.000        0.000        0.000        1.710        0.000      154.276        0.000        0.000      334.000        3.680      850.600
01/28/2021  02:49:00      149.000      -40.000     -102.000        0.000        0.000        0.000        0.000        0.000        0.000        1.710        0.000      154.276        0.000        0.000      334.000        3.680      850.600
01/28/2021  02:50:00      149.000      -40.000     -102.000        0.000        0.000        0.000        0.000        0.000        0.000        1.710        0.000      154.276        0.000        0.000      334.000        3.680      850.600
01/28/2021  02:51:00      149.000      -40.000     -102.000        0.000        0.000        0.000        0.000        0.000        0.000        1.710        0.000      154.276        0.000        0.000      334.000        3.680      850.600
01/28/2021  02:52:00      149.000      -40.000     -102.000        0.000        0.000        0.000        0.000        0.000        0.000        1.710        0.000      154.276        0.000        0.000      334.000        3.680      850.600
01/28/2021  02:53:00      149.000      -40.000     -102.000        0.000        0.000        0.000        0.000        0.000        0.000        1.710        0.000      154.276        0.000        0.000      334.000        3.680      850.600
01/28/2021  02:54:00      149.000      -40.000     -102.000        0.000        0.000        0.000        0.000        0.000        0.000        1.710        0.000      154.276        0.000        0.000      334.000        3.680      850.600
01/28/2021  02:55:00      149.000      -40.000     -102.000        0.000        0.000        0.000        0.000        0.000        0.000        1.710        0.000      154.276        0.000        0.000      334.000        3.680      850.600
01/28/2021  02:56:00      149.000      -40.000     -102.000        0.000        0.000        0.000        0.000        0.000        0.000        1.710        0.000      154.276        0.000        0.000      334.000        3.680      850.600
01/28/2021  02:57:00      149.000      -40.000     -102.000        0.000        0.000        0.000        0.000        0.000        0.000        1.710        0.000      154.276        0.000        0.000      334.000        3.680      850.600
01/28/2021  02:58:00      149.000      -40.000     -102.000        0.000        0.000        0.000        0.000        0.000        0.000        1.710        0.000      154.276        0.000        0.000      334.000        3.680      850.600
01/28/2021  02:59:00      149.000      -40.000     -102.000        0.000        0.000        0.000        0.000        0.000        0.000        1.710        0.000      154.276        0.000        0.000      334.000        3.680      850.600
01/28/2021  03:00:00      149.000      -40.000     -102.000        0.000        0.000        0.000        0.000        0.000        0.000        1.710        0.000      154.276        0.000        0.000      334.000        3.680      850.600
01/28/2021  03:01:00      149.000      -40.000     -102.000        0.000        0.000        0.000        0.000        0.000        0.000        1.710        0.000      154.276        0.000        0.000      334.000        3.680      850.600
01/28/2021  03:02:00      149.000      -40.000     -102.000        0.000        0.000        0.000        0.000        0.000        0.000        1.710        0.000      154.276        0.000        0.000      334.000        3.680      850.600
01/28/2021  03:03:00      251.822     -123.117      -41.008      206.729      119.439      118.117    42737.071    14265.626    13951.604        7.559        3.548      280.307      108.294        0.149      332.436        1.098      850.512
01/28/2021  03:04:00      195.458     -129.429      -57.481      434.820      122.248      209.395   189068.609    14944.661    43846.450       15.301       12.393      234.427      296.286        1.597      332.171        0.663      850.476
01/28/2021  03:05:00      265.174     -142.556      -74.469      436.116      103.581      209.625   190197.007    10729.054    43942.749       17.047       12.243      301.063      289.611        0.925      332.503        1.212      850.468
01/28/2021  03:06:00      225.249     -184.364      -56.080      425.565      136.707      207.639   181105.549    18688.712    43113.923       16.534       12.145      291.079      284.100        0.953      333.294        2.519      850.440
01/28/2021  03:07:00      196.111     -191.471      -48.114       97.719      160.787       63.939     9549.064    25852.538     4088.216        5.845        1.974      274.081       63.820        0.054      333.151        2.274      850.411
01/28/2021  03:08:00      164.519      -97.356      -10.454      154.463      145.676       93.420    23858.945    21221.476     8727.273        4.522        2.690      191.167       95.409        0.249      333.095        2.184      850.420
01/28/2021  03:09:00      203.170     -205.561      -63.280      398.761      114.678      187.951   159009.961    13151.090    35325.695       14.747       10.374      289.022      269.675        0.871      333.415        2.718      850.371
01/28/2021  03:10:00      247.877     -226.280      -88.938      452.258       93.874      213.900   204537.362     8812.407    45753.360       18.977       12.955      335.628      308.628        0.846      333.481        2.829      850.427
01/28/2021  03:11:00      122.665     -127.758      -38.566      382.763       80.406      184.026   146507.888     6465.187    33865.569       10.981        9.342      177.112      261.611        2.182      333.380        2.661      850.490
01/28/2021  03:12:00      196.440     -111.527      -76.562      469.411       99.201      225.209   220346.487     9840.913    50718.963       16.884       14.045      225.891      321.402        2.024      333.469        2.810      850.509
01/28/2021  03:13:00       91.714      -68.512      -21.310      215.624      127.525      124.254    46493.805    16262.548    15439.084        4.586        3.910      114.479      144.525        1.594      333.379        2.655      850.475
01/28/2021  03:14:00      133.699     -207.760      -56.146      243.012      174.561      120.416    59054.974    30471.488    14500.081        8.409        5.201      247.062      160.807        0.424      333.264        2.466      850.440
01/28/2021  03:15:00      212.120     -268.684      -60.760      255.200       98.577      124.043    65127.155     9717.349    15386.704       10.554        4.512      342.325      172.758        0.255      333.193        2.347      850.440
01/28/2021  03:16:00      212.672     -286.842      -78.585      376.555       95.870      176.530   141793.323     9191.081    31162.754       15.788        9.107      357.082      253.491        0.504      333.302        2.528      850.440
01/28/2021  03:17:00      189.315     -120.459      -45.645      204.705       73.874       98.825    41904.247     5457.356     9766.307        5.477        2.856      224.389      132.327        0.348      333.152        2.277      850.447
01/28/2021  03:18:00      224.191     -241.574      -87.595      414.212       82.743      198.791   171571.252     6846.357    39517.714       16.707       10.897      329.575      284.922        0.747      333.307        2.539      850.466
01/28/2021  03:19:00      155.667     -262.798      -53.570      225.685      100.871      108.615    50933.747    10174.965    11797.213        8.452        3.645      305.443      151.640        0.246      333.150        2.275      850.442
01/28/2021  03:20:00      187.692     -256.809      -61.221      287.411       77.682      141.471    82605.029     6034.488    20014.148       10.677        5.433      318.087      197.287        0.385      333.185        2.334      850.427
01/28/2021  03:21:00      168.210     -154.231      -56.655      234.810       79.485      111.023    55135.577     6317.923    12326.083        6.452        3.689      228.214      156.920        0.473      333.145        2.269      850.418
01/28/2021  03:22:00      127.821     -143.666      -33.932      187.090       72.529       88.359    35002.777     5260.456     7807.250        4.309        2.404      192.297      123.951        0.415      333.123        2.233      850.426
01/28/2021  03:23:00      190.876     -190.306      -62.104      305.098       85.984      146.086    93084.661     7393.228    21341.246        9.914        6.091      269.536      207.449        0.592      333.244        2.433      850.412
01/28/2021  03:24:00       99.530      -33.172      -23.929      216.384       73.517      100.247    46822.048     5404.766    10049.441        3.691        3.114      104.912      139.753        1.774      333.255        2.450      850.405
01/28/2021  03:25:00       79.970      -47.300      -12.583      186.241       62.116       87.913    34685.713     3858.347     7728.682        2.752        2.314       92.911      121.757        1.717      333.153        2.283      850.420
01/28/2021  03:26:00       57.740      -27.349      -17.445       40.986       77.211       29.757     1679.852     5961.605      885.496        0.645        0.426       63.890       16.972        0.071      333.260        2.457      850.410
01/28/2021  03:27:00      164.552     -113.983      -41.213      216.247       94.457      103.698    46762.595     8922.127    10753.195        5.409        3.322      200.174      141.935        0.503      333.224        2.397      850.404
01/28/2021  03:28:00      162.316     -141.252      -50.059      169.312      108.729       81.380    28666.662    11821.978     6622.669        4.795        2.356      215.172      108.115        0.252      333.132        2.245      850.401
01/28/2021  03:29:00      107.381      -48.906      -23.585      342.993       90.337      162.197   117644.362     8160.746    26307.886        8.326        7.606      117.994      230.574        3.819      333.255        2.453      850.378
01/28/2021  03:30:00      109.565     -186.337      -36.770       63.256       80.473       34.708     4001.264     6475.902     1204.626        2.988        0.584      216.161       33.307        0.024      333.087        2.171      850.412
01/28/2021  03:31:00      167.640     -178.718      -58.423      402.033       77.967      190.121   161630.549     6078.853    36145.986       13.361       10.193      245.037      274.451        1.254      333.295        2.519      850.423
01/28/2021  03:32:00      125.142     -175.421      -26.461      310.599       76.880      151.856    96471.971     5910.587    23060.296        8.626        6.272      215.484      209.594        0.946      333.167        2.306      850.415
01/28/2021  03:33:00      156.211     -148.205      -24.068      194.341       85.018       95.337    37768.573     7228.065     9089.234        5.050        2.704      215.329      125.104        0.338      333.027        2.071      850.446
01/28/2021  03:34:00      127.280     -171.083      -42.366      271.561       78.163      133.912    73745.124     6109.446    17932.446        7.250        4.889      213.236      186.423        0.764      333.193        2.349      850.454
01/28/2021  03:35:00      163.649     -159.226      -47.875      204.826       81.186       96.872    41953.533     6591.088     9384.243        5.616        2.896      228.328      138.426        0.368      333.147        2.270      850.435
01/28/2021  03:36:00       85.537     -135.164      -23.923      124.497       92.823       62.459    15499.606     8616.076     3901.111        2.708        1.401      159.956       80.657        0.254      333.160        2.291      850.411
01/28/2021  03:37:00      209.601     -171.060      -71.948      423.505       78.512      201.787   179356.463     6164.093    40717.964       15.226       11.312      270.544      290.772        1.155      333.306        2.536      850.438
01/28/2021  03:38:00       91.097     -155.499      -25.178      161.974       65.414       82.069    26235.542     4278.944     6735.339        3.517        1.862      180.218      107.463        0.356      333.075        2.153      850.470
01/28/2021  03:39:00      199.402     -281.398      -55.975      177.436       98.360       87.112    31483.412     9674.733     7588.582        8.540        2.437      344.886      118.117        0.117      333.107        2.204      850.510
01/28/2021  03:40:00      158.633     -145.615      -40.123       91.234       93.900       44.453     8323.707     8817.239     1976.111        3.354        0.956      215.333       45.523        0.045      333.060        2.127      850.532
01/28/2021  03:41:00       58.430      -25.742      -40.097      265.745       64.521      126.238    70620.395     4162.899    15936.028        4.818        4.536       63.849      178.263        7.795      333.166        2.307      850.516
01/28/2021  03:42:00      109.114     -151.431      -41.239      229.826       88.702      112.029    52820.195     7868.073    12550.461        5.487        3.662      186.647      154.715        0.687      333.139        2.259      850.491
01/28/2021  03:43:00       71.100      -65.974       -2.647      184.302       66.622       93.695    33967.177     4438.495     8778.763        2.829        2.359       96.994      126.039        1.689      333.146        2.271      850.462
01/28/2021  03:44:00       66.517     -103.182      -32.634      276.703       57.101      134.178    76564.353     3260.495    18003.815        5.696        4.891      122.764      190.354        2.404      333.293        2.515      850.478
01/28/2021  03:45:00      125.066     -120.251      -37.281      318.588       45.538      152.728   101498.274     2073.755    23325.729        7.917        6.345      173.499      219.226        1.597      333.224        2.400      850.488
01/28/2021  03:46:00      135.465     -101.298      -32.685      307.390      104.581      146.541    94488.634    10937.081    21474.130        7.826        6.345      169.151      208.107        1.514      333.189        2.343      850.524
01/28/2021  03:47:00      138.447      -72.725      -59.535      480.174       72.393      222.547   230566.733     5240.769    49527.078       15.661       14.267      156.386      322.380        4.250      333.441        2.766      850.548
01/28/2021  03:48:00       22.796      -52.495      -31.117      253.317       50.475      123.962    64169.544     2547.751    15366.547        4.315        4.104       57.231      174.983        9.348      333.249        2.441      850.570
01/28/2021  03:49:00       68.494      -47.544      -24.594       89.905       33.673       42.843     8082.878     1133.842     1835.500        0.930        0.553       83.378       57.886        0.482      333.172        2.313      850.585
01/28/2021  03:50:00       54.120      -30.266      -12.767      182.991       55.214       90.093    33485.721     3048.603     8116.817        2.432        2.233       62.008      125.674        4.108      333.174        2.318      850.569
01/28/2021  03:51:00      155.364      -60.699      -55.857      480.576       43.394      230.022   230952.981     1882.997    52910.247       15.828       14.287      166.800      331.807        3.957      333.425        2.739      850.517
01/28/2021  03:52:00       69.593      -46.017       -3.132       51.046       43.705       34.753     2605.715     1910.133     1207.796        0.635        0.286       83.431       31.279        0.141      333.087        2.174      850.485
01/28/2021  03:53:00       53.878      -43.455      -33.181      308.256       32.762      147.381    95021.832     1073.352    21721.141        6.183        5.891       69.219      212.238        9.401      333.254        2.450      850.496
01/28/2021  03:54:00       68.048      -75.989      -26.365      243.845       40.228      116.559    59460.162     1618.320    13586.083        4.287        3.733      102.004      165.355        2.628      333.219        2.392      850.501
01/28/2021  03:55:00       40.703      -65.543      -30.663      277.004       33.211      131.725    76731.070     1102.966    17351.510        5.102        4.759       77.153      187.644        5.915      333.194        2.352      850.484
01/28/2021  03:56:00      -11.299       22.248        2.124      143.932       28.771       66.977    20716.518      827.787     4485.900        1.332        1.302       24.953       90.040       13.021      333.041        2.098      850.456
01/28/2021  03:57:00       69.245       -6.488      -27.114      257.795       40.609      125.317    66458.340     1649.108    15704.367        4.467        4.191       69.549      178.275        6.571      333.192        2.347      850.434
01/28/2021  03:58:00       22.766        6.931      -14.984      231.743       19.393      108.772    53704.818      376.099    11831.400        3.334        3.296       23.798      158.270       44.231      333.058        2.126      850.461
01/28/2021  03:59:00       10.726       23.220       -0.177       21.646       21.171       12.715      468.531      448.218      161.679        0.087        0.054       25.578       11.428        0.200      332.984        2.001      850.479
01/28/2021  04:00:00       22.769      -37.775       -3.436       37.686       61.422       22.318     1420.269     3772.698      498.088        0.382        0.285       44.107       31.747        0.518      333.064        2.134      850.500
01/28/2021  04:01:00      113.169      -75.687      -33.071      260.064       49.106      126.073    67633.509     2411.436    15894.506        5.277        4.297      136.146      180.044        1.749      333.153        2.283      850.503
01/28/2021  04:02:00       74.434      -76.960      -19.702       30.464       43.383       25.006      928.086     1882.098      625.310        0.764        0.172      107.067        8.082        0.006      333.052        2.115      850.501
01/28/2021  04:03:00      120.647      -55.904      -41.753      312.051       42.402      149.375    97375.758     1797.890    22312.777        7.043        6.074      132.970      214.597        2.605      333.177        2.325      850.473
01/28/2021  04:04:00       46.053      -78.681      -19.123      160.738       61.275       78.780    25836.770     3754.669     6206.282        2.223        1.790       91.168      110.586        1.471      333.165        2.304      850.459
01/28/2021  04:05:00       -1.858      -34.097       -4.292       32.066       42.732       28.972     1028.220     1826.065      839.398        0.244        0.185       34.147       17.851        0.273      333.170        2.308      850.475
01/28/2021  04:06:00       66.434      -67.022      -13.052       44.995       43.071       26.174     2024.582     1855.152      685.061        0.682        0.228       94.368       28.546        0.092      333.080        2.160      850.476
01/28/2021  04:07:00       80.386      -83.926      -20.254      129.148       38.146       64.237    16679.092     1455.089     4126.408        1.808        1.113      116.213       88.272        0.577      333.060        2.127      850.464
01/28/2021  04:08:00       57.113      -96.294      -15.842      100.123       54.016       50.315    10024.647     2917.769     2531.571        1.413        0.774      111.958       66.629        0.354      333.132        2.246      850.450
01/28/2021  04:09:00      111.728     -129.135      -26.521      140.217       59.270       70.295    19660.804     3512.980     4941.355        2.898        1.406      170.760       95.144        0.310      333.131        2.246      850.464
01/28/2021  04:10:00       53.287      -42.421      -20.170       33.550       59.458       16.480     1125.604     3535.284      271.588        0.499        0.247       68.111       17.128        0.063      333.083        2.165      850.462
01/28/2021  04:11:00       83.452      -56.739      -22.393      331.991       56.264      159.669   110217.927     3165.655    25494.148        7.475        6.944      100.914      227.699        5.091      333.305        2.537      850.432
01/28/2021  04:12:00       18.484      -16.298      -14.694       38.834       35.869       19.747     1508.049     1286.607      389.954        0.200        0.159       24.643       12.932        0.275      332.978        1.993      850.393
01/28/2021  04:13:00       59.893       -3.322      -19.351       46.763       65.492       26.067     2186.816     4289.180      679.467        0.556        0.358       59.985       19.020        0.101      333.156        2.285      850.360
01/28/2021  04:14:00       86.474      -31.240      -19.986       49.231       80.149       26.230     2423.651     6423.825      687.991        0.919        0.477       91.944       20.466        0.050      333.195        2.351      850.352
01/28/2021  04:15:00       91.031        9.158       -9.475       53.306       47.676       29.252     2841.520     2272.957      855.692        0.721        0.299       91.490       22.979        0.063      333.072        2.148      850.361
01/28/2021  04:16:00       88.631      -37.100       -9.027       49.601       43.997       22.272     2460.300     1935.726      496.063        0.710        0.245       96.083       14.985        0.024      333.097        2.188      850.359
01/28/2021  04:17:00       82.406      -45.755      -20.022      111.437       57.454       56.068    12418.240     3300.913     3143.572        1.407        0.943       94.257       72.348        0.589      333.115        2.218      850.360
01/28/2021  04:18:00       71.019      -61.504      -20.091       49.457       47.691       26.251     2445.965     2274.443      689.107        0.732        0.270       93.949       24.594        0.069      333.135        2.252      850.359
01/28/2021  04:19:00       44.314      -13.953      -15.577      168.701       41.897       81.616    28460.132     1755.362     6661.250        1.963        1.844       46.459      115.721        6.204      333.036        2.088      850.356
01/28/2021  04:20:00       42.359      -21.472       -4.145       47.196       59.430       26.210     2227.444     3531.876      686.960        0.436        0.322       47.490       28.923        0.371      333.085        2.168      850.370
01/28/2021  04:21:00       96.491      -92.094      -17.923       28.271       61.797       30.833      799.245     3818.914      950.686        1.184        0.278      133.386       26.496        0.039      332.914        1.885      850.392
01/28/2021  04:22:00       86.382      -86.023      -17.771       52.759       54.034       40.828     2783.509     2919.666     1666.917        1.127        0.369      121.909       27.206        0.050      333.059        2.124      850.395
01/28/2021  04:23:00       86.006      -55.268      -15.664       49.206       68.457       32.608     2421.204     4686.369     1063.269        0.943        0.409      102.233       31.785        0.097      333.062        2.131      850.400
01/28/2021  04:24:00      123.364      -76.495      -36.651      161.231       71.502       75.766    25995.367     5112.572     5740.474        2.962        1.842      145.155      101.579        0.490      333.103        2.200      850.384
01/28/2021  04:25:00      121.328     -189.840      -39.290      181.262       81.372       90.943    32856.007     6621.361     8270.701        5.002        2.387      225.299      124.894        0.307      333.082        2.163      850.387
01/28/2021  04:26:00      114.102     -123.696      -37.965      181.551       43.216       85.361    32960.849     1867.661     7286.578        3.593        2.106      168.286      121.037        0.517      333.127        2.239      850.376
01/28/2021  04:27:00      118.763     -104.408      -21.957       86.258      109.814       49.048     7440.377    12059.100     2405.676        2.369        1.095      158.132       55.803        0.125      333.019        2.057      850.360
01/28/2021  04:28:00       93.267     -111.246      -33.049      161.879       90.758       77.939    26204.845     8236.998     6074.439        3.133        2.026      145.170      105.696        0.530      333.096        2.185      850.350
01/28/2021  04:29:00       99.904     -187.337      -36.108       76.350       69.541       40.380     5829.283     4835.908     1630.579        2.934        0.615      212.311       36.212        0.029      333.087        2.170      850.373
01/28/2021  04:30:00      140.009     -141.369      -41.483      238.387       64.182      115.199    56828.233     4119.391    13270.732        5.775        3.711      198.967      161.457        0.658      333.049        2.108      850.362
01/28/2021  04:31:00       50.678      -37.733      -12.889      155.678       64.397       84.602    24235.489     4146.985     7157.484        1.984        1.777       63.183      108.606        2.955      333.134        2.250      850.352
01/28/2021  04:32:00      151.292     -218.572      -56.899      229.618       74.088      107.991    52724.338     5488.991    11662.086        7.187        3.494      265.825      152.565        0.329      333.117        2.220      850.348
01/28/2021  04:33:00       80.161     -163.106      -30.986      193.045      101.678       89.826    37266.466    10338.348     8068.671        4.482        2.784      181.740      126.371        0.483      333.153        2.282      850.374
01/28/2021  04:34:00       98.796      -87.545      -24.973       40.122       47.949       34.737     1609.791     2299.139     1206.650        1.158        0.256      132.003       21.639        0.027      333.044        2.100      850.371
01/28/2021  04:35:00       76.036     -136.013      -20.274       44.482       48.317       31.603     1978.679     2334.490      998.730        1.500        0.266      155.823       29.559        0.036      333.010        2.045      850.359
01/28/2021  04:36:00       58.699     -112.882      -16.993       38.478       60.069       34.389     1480.559     3608.290     1182.573        1.137        0.314      127.232       22.338        0.031      333.025        2.068      850.346
01/28/2021  04:37:00       78.271     -108.604      -23.516      173.464       70.585       78.099    30089.775     4982.258     6099.432        2.981        2.059      133.870      111.301        0.691      333.030        2.079      850.343
01/28/2021  04:38:00       85.304     -139.980      -22.944      153.855       50.273       76.300    23671.232     2527.336     5821.663        2.970        1.601      163.925      102.463        0.391      333.082        2.163      850.349
01/28/2021  04:39:00      169.374     -192.758      -49.436      210.209       95.442      105.114    44187.987     9109.172    11048.892        6.630        3.217      256.599      144.336        0.316      333.004        2.033      850.361
01/28/2021  04:40:00      162.860     -183.120      -29.209       74.423       73.564       46.171     5538.848     5411.724     2131.741        3.699        0.654      245.064       31.782        0.017      332.846        1.770      850.343
01/28/2021  04:41:00      172.403     -211.935      -53.151      140.945       97.661       69.997    19865.411     9537.645     4899.616        5.588        1.715      273.202       93.098        0.116      332.943        1.931      850.311
01/28/2021  04:42:00      120.776     -104.106      -31.238       63.138       99.457       37.426     3986.376     9891.634     1400.737        2.084        0.764      159.451       25.353        0.025      332.940        1.928      850.295
01/28/2021  04:43:00      130.883     -171.683      -34.917      175.726       57.157       85.467    30879.613     3266.946     7304.578        4.463        2.073      215.883      118.185        0.300      333.014        2.051      850.317
01/28/2021  04:44:00      146.613     -150.210      -32.737      155.912       98.376       75.519    24308.618     9677.922     5703.156        4.240        1.984      209.901      104.823        0.249      332.937        1.924      850.381
01/28/2021  04:45:00      175.623     -224.405      -47.489      223.161       59.227      104.673    49800.682     3507.896    10956.459        7.385        3.213      284.958      150.083        0.277      332.967        1.974      850.401
01/28/2021  04:46:00      283.492     -144.990      -79.860      602.745      112.793      298.555   363301.179    12722.162    89135.246       28.638       23.258      318.417      422.830        1.763      333.590        3.014      850.422
01/28/2021  04:47:00      196.772      -53.280      -65.395      459.719       70.495      212.400   211341.284     4969.563    45113.585       15.358       13.071      203.858      310.697        2.323      333.633        3.083      850.431
01/28/2021  04:48:00      105.084      -70.114      -25.236      208.307       77.934       99.874    43391.771     6073.661     9974.809        3.801        2.972      126.327      138.645        1.205      333.133        2.248      850.418
01/28/2021  04:49:00      147.611     -165.729      -21.814       73.050      100.334       40.147     5336.232    10066.860     1611.760        3.337        0.851      221.935       40.217        0.033      332.956        1.952      850.392
01/28/2021  04:50:00      148.576     -210.306      -43.488      171.622       88.523       86.773    29454.274     7836.405     7529.519        5.650        2.241      257.494      117.555        0.208      332.989        2.007      850.377
01/28/2021  04:51:00      154.793     -161.739      -34.602       67.419      131.382       41.869     4545.277    17261.119     1753.026        3.743        1.178      223.876       41.903        0.035      332.936        1.920      850.387
01/28/2021  04:52:00      126.603     -185.386      -20.862       65.564       67.379       31.361     4298.575     4539.987      983.534        3.032        0.491      224.491       26.951        0.014      332.973        1.980      850.412
01/28/2021  04:53:00      177.064     -233.965      -43.999       72.586      125.712       48.537     5268.783    15803.489     2355.802        5.572        1.171      293.413       48.120        0.027      332.964        1.965      850.401
01/28/2021  04:54:00      136.421     -118.561      -37.250       83.642      108.746       45.310     6996.056    11825.757     2053.036        2.746        1.044      180.741       40.211        0.049      332.962        1.963      850.430
01/28/2021  04:55:00      143.568     -135.220      -35.146      177.673      102.769       84.900    31567.660    10561.479     7208.066        4.472        2.467      197.221      115.588        0.343      333.043        2.098      850.438
01/28/2021  04:56:00      103.140     -148.822      -34.316       83.160       89.483       46.372     6915.629     8007.212     2150.405        2.551        0.854      181.068       38.712        0.046      333.039        2.091      850.473
01/28/2021  04:57:00       75.532     -116.960      -21.637       95.471      122.550       51.417     9114.646    15018.541     2643.739        2.331        1.339      139.229       60.998        0.192      333.041        2.094      850.512
01/28/2021  04:58:00      137.310     -198.666      -41.707       78.852       61.657       33.909     6217.600     3801.526     1149.795        3.561        0.558      241.499       32.767        0.018      333.066        2.134      850.528
01/28/2021  04:59:00      247.495     -303.476      -70.106      277.831      121.862      130.965    77190.191    14850.368    17151.880       13.371        5.460      391.601      182.125        0.216      333.089        2.175      850.506
01/28/2021  05:00:00      136.038     -129.951      -54.932      208.583      125.153      100.447    43506.825    15663.318    10089.649        5.382        3.463      188.132      134.289        0.510      333.024        2.068      850.509
01/28/2021  05:01:00       22.496     -114.452      -41.372      190.260       94.714       85.557    36198.896     8970.800     7319.980        3.389        2.624      116.642      103.039        0.780      333.122        2.231      850.507
01/28/2021  05:02:00      129.535     -178.283      -38.236      308.278       87.558      147.510    95035.162     7666.467    21759.055        8.722        6.223      220.373      209.259        0.902      333.228        2.407      850.518
01/28/2021  05:03:00       55.685     -103.526      -25.761      179.202      102.657       80.820    32113.428    10538.396     6531.819        3.182        2.459      117.551      112.908        0.923      333.150        2.276      850.505
01/28/2021  05:04:00       24.048      -59.084      -15.461       82.287       57.938       46.142     6771.095     3356.788     2129.110        0.828        0.613       63.790       36.766        0.332      333.179        2.323      850.496
01/28/2021  05:05:00       48.674      -56.771       -2.736       71.407       76.928       43.008     5098.891     5917.983     1849.704        0.923        0.643       74.780       36.967        0.244      333.203        2.364      850.465
01/28/2021  05:06:00      119.980      -92.643      -18.890      224.203       79.050      112.585    50267.208     6248.910    12675.387        4.625        3.460      151.585      152.254        1.009      333.156        2.286      850.431
01/28/2021  05:07:00      125.012     -174.044      -29.543      179.968      163.295       90.765    32388.348    26665.139     8238.260        5.703        3.365      214.288      117.957        0.303      333.110        2.208      850.428
01/28/2021  05:08:00       40.840      -26.727      -34.609      199.600       70.751      102.495    39839.986     5005.749    10505.304        2.945        2.768       48.809      134.549        7.599      333.168        2.308      850.378
01/28/2021  05:09:00      102.148     -105.888      -28.021      153.966      111.693       71.733    23705.508    12475.384     5145.681        3.187        2.066      147.127       93.907        0.407      333.118        2.223      850.365
01/28/2021  05:10:00       41.536      -72.086      -19.704       68.393      145.967       43.174     4677.550    21306.334     1864.008        1.757        1.392       83.196       37.420        0.202      333.178        2.322      850.347
01/28/2021  05:11:00      143.917     -115.942      -34.686      123.431      103.789       43.537    15235.093    10772.147     1895.452        3.162        1.395      184.810       59.527        0.104      333.093        2.180      850.325
01/28/2021  05:12:00      124.582     -126.531      -33.805      231.964       88.224      115.214    53807.237     7783.513    13274.372        5.375        3.743      177.569      158.393        0.796      333.102        2.198      850.328
01/28/2021  05:13:00      106.219     -107.904      -23.172      179.492      103.146       81.456    32217.374    10639.035     6635.013        3.647        2.475      151.413      110.856        0.536      333.001        2.029      850.316
01/28/2021  05:14:00       59.378      -62.087      -25.759       56.973       80.458       34.019     3245.891     6473.542     1157.326        0.946        0.544       85.910       28.521        0.110      333.080        2.159      850.328
01/28/2021  05:15:00       87.812      -62.700      -23.777      178.584       63.351       87.012    31892.163     4013.303     7571.126        2.783        2.174      107.899      118.019        1.196      333.141        2.262      850.320
01/28/2021  05:16:00      132.877     -143.097      -36.752      279.648       56.335      127.622    78202.752     3173.619    16287.364        6.855        4.883      195.277      185.674        0.904      333.283        2.497      850.326
01/28/2021  05:17:00       68.221     -136.176      -23.438      106.097       85.597       38.677    11256.561     7326.804     1495.927        2.191        1.004      152.309       49.091        0.104      333.045        2.101      850.321
01/28/2021  05:18:00      138.151     -161.908      -46.080      301.974      118.407      150.624    91188.270    14020.288    22687.580        8.763        6.395      212.838      204.518        0.923      333.098        2.191      850.296
01/28/2021  05:19:00      -23.880      -50.315      -26.063      163.029       60.879       84.846    26578.500     3706.261     7198.759        2.062        1.874       55.695      100.340        3.246      333.075        2.152      850.302
01/28/2021  05:20:00      146.956     -108.951      -59.523      122.067      154.776       67.062    14900.427    23955.603     4497.258        4.017        2.168      182.939       66.860        0.134      332.957        1.955      850.263
01/28/2021  05:21:00      137.847     -180.081      -42.900      309.654       72.730      149.324    95885.870     5289.705    22297.727        8.835        6.174      226.784      211.771        0.872      333.132        2.247      850.267
01/28/2021  05:22:00      178.697      -73.500      -56.833      469.294       97.004      227.679   220237.068     9409.863    51837.632       16.096       14.074      193.222      324.350        2.818      333.305        2.540      850.243
01/28/2021  05:23:00      142.440     -169.103      -46.654      261.761      136.106      135.619    68518.801    18524.828    18392.579        7.823        5.272      221.099      177.644        0.646      333.048        2.109      850.213
01/28/2021  05:24:00      257.047     -308.875      -67.992      247.160      138.022      125.620    61088.103    19050.145    15780.509       13.099        4.796      401.842      168.783        0.176      333.001        2.028      850.159
01/28/2021  05:25:00      158.835     -165.545      -37.330      163.060       86.182       88.008    26588.442     7427.281     7745.484        4.789        2.088      229.421      106.660        0.216      332.984        1.999      850.156
01/28/2021  05:26:00      180.671     -165.187      -62.772      258.312      108.250      121.342    66725.319    11718.000    14723.776        7.850        4.658      244.804      171.815        0.493      333.020        2.060      850.167
01/28/2021  05:27:00       99.733     -108.375      -51.782      359.672       91.717      176.103   129364.130     8411.990    31012.186        9.654        8.439      147.282      243.329        2.730      333.177        2.324      850.223
01/28/2021  05:28:00       43.195     -123.796      -11.633       86.858       83.815       33.728     7544.256     7024.939     1137.565        1.651        0.785      131.116       42.591        0.106      333.119        2.225      850.273
01/28/2021  05:29:00       50.168      -56.896      -49.960      294.344       86.522      145.554    86638.563     7486.119    21186.028        6.176        5.766       75.855      195.772        6.661      333.261        2.462      850.276
01/28/2021  05:30:00      125.974     -154.790      -25.812      159.991       82.623       85.950    25597.232     6826.583     7387.344        4.014        1.991      199.573      108.252        0.294      333.083        2.164      850.295
01/28/2021  05:31:00      137.368     -110.517      -47.198      325.547       72.749      154.208   105980.981     5292.488    23779.999        8.415        6.753      176.307      218.897        1.541      333.189        2.344      850.310
01/28/2021  05:32:00      173.607     -171.843      -39.127      286.256       88.504      141.053    81942.577     7832.966    19896.080        8.541        5.484      244.273      194.705        0.635      333.086        2.172      850.296
01/28/2021  05:33:00       98.220     -137.062      -31.202      255.311      118.416      120.131    65183.935    14022.283    14431.415        6.150        4.682      168.621      159.588        0.896      333.127        2.239      850.292
01/28/2021  05:34:00       53.997      -62.716      -32.101      327.337       80.292      154.801   107149.837     6446.757    23963.493        7.269        6.878       82.759      220.763        7.116      333.287        2.508      850.289
01/28/2021  05:35:00      101.147      -93.500      -27.652      263.118       81.489      122.759    69231.048     6640.460    15069.696        5.532        4.547      137.743      170.344        1.529      333.110        2.210      850.292
01/28/2021  05:36:00      151.966     -149.831      -45.090      278.764       99.611      132.706    77709.299     9922.284    17610.921        7.639        5.262      213.408      186.770        0.766      333.114        2.215      850.272
01/28/2021  05:37:00       64.516     -127.374      -25.971      154.380       97.138       87.899    23833.311     9435.751     7726.267        3.102        2.050      142.781       91.982        0.415      333.041        2.095      850.232
01/28/2021  05:38:00       43.448     -123.751      -16.884       93.025       93.410       46.571     8653.658     8725.453     2168.832        1.851        0.977      131.157       28.962        0.049      333.174        2.315      850.233
01/28/2021  05:39:00       17.412     -113.771      -16.614       99.742       95.833       49.600     9948.491     9184.053     2460.149        1.755        1.080      115.095       42.950        0.139      333.146        2.269      850.259
01/28/2021  05:40:00       75.508     -107.320      -22.117      119.434       96.946       63.266    14264.520     9398.607     4002.644        2.268        1.383      131.221       72.773        0.308      333.062        2.130      850.269
01/28/2021  05:41:00      101.812     -226.287      -46.843      251.250      129.406      119.503    63126.740    16745.860    14281.046        7.894        4.708      248.136      157.178        0.401      333.152        2.280      850.269
01/28/2021  05:42:00       95.505     -120.750      -44.474      307.243      102.703      147.030    94397.973    10547.910    21617.905        7.609        6.328      153.954      205.567        1.783      333.159        2.292      850.278
01/28/2021  05:43:00       41.173     -146.290      -35.639       88.257      111.877       39.422     7789.212    12516.423     1554.120        2.311        1.093      151.973       31.939        0.044      333.026        2.068      850.300
01/28/2021  05:44:00       71.109      -73.700      -38.499      382.959      114.536      163.782   146657.275    13118.591    26824.523        9.925        9.330      102.412      240.036        5.493      333.195        2.354      850.312
01/28/2021  05:45:00       85.875     -174.525      -17.201       90.906      106.170       51.493     8263.878    11272.095     2651.537        3.015        1.109      194.508       54.530        0.079      333.024        2.065      850.360
01/28/2021  05:46:00      139.128     -239.527      -37.809       87.629       91.068       44.258     7678.866     8293.313     1958.778        4.804        0.897      277.001       52.100        0.035      332.993        2.014      850.403
01/28/2021  05:47:00      -11.599     -152.530      -18.331      123.101       79.270       44.245    15153.839     6283.800     1957.664        2.356        1.170      152.971       49.999        0.107      333.176        2.317      850.445
01/28/2021  05:48:00      143.429     -223.008      -39.039      100.949      121.491       47.794    10190.727    14759.980     2284.294        4.953        1.362      265.150       47.773        0.032      333.037        2.086      850.454
01/28/2021  05:49:00       -0.233      -81.394      -23.307       67.102       91.889       53.823     4502.643     8443.672     2896.952        1.150        0.792       81.395       28.647        0.124      333.066        2.138      850.415
01/28/2021  05:50:00       95.798     -137.021      -29.906      182.376       93.911       91.480    33260.978     8819.300     8368.579        3.964        2.522      167.189      123.830        0.549      333.142        2.262      850.428
01/28/2021  05:51:00       37.042     -132.092        4.718      170.463       97.085       90.752    29057.676     9425.432     8236.016        3.277        2.336      137.188      102.902        0.563      333.190        2.344      850.453
01/28/2021  05:52:00      147.263     -241.203      -47.639      231.375      186.474      113.025    53534.428    34772.515    12774.676        9.159        5.054      282.604      132.385        0.219      333.206        2.366      850.442
01/28/2021  05:53:00       33.962     -112.080      -22.406      266.197      114.323      128.750    70860.853    13069.855    16576.566        5.734        5.025      117.113      166.281        2.016      333.218        2.389      850.457
01/28/2021  05:54:00       61.184     -174.766      -29.208      258.134       91.283      133.446    66633.076     8332.554    17807.825        6.394        4.639      185.167      171.561        0.858      333.297        2.518      850.500
01/28/2021  05:55:00      146.612     -240.678      -47.586      177.478      128.148       90.295    31498.608    16421.866     8153.234        6.887        2.804      281.818      112.434        0.159      333.194        2.348      850.504
01/28/2021  05:56:00      146.492     -146.871      -43.767      183.542       94.302       90.736    33687.710     8892.797     8232.986        4.787        2.541      207.439      121.899        0.345      333.138        2.257      850.524
01/28/2021  05:57:00      124.434     -136.388      -46.200      265.401      103.000      134.472    70437.723    10609.041    18082.853        6.765        4.956      184.623      180.551        0.956      333.148        2.275      850.527
01/28/2021  05:58:00       60.942     -137.227       -0.554       74.429       77.890       50.612     5539.716     6066.812     2561.576        1.835        0.708      150.151       43.946        0.086      333.203        2.363      850.574
01/28/2021  05:59:00      112.031     -122.363      -37.153      114.407      111.712       62.820    13089.009    12479.647     3946.319        2.920        1.476      165.903       62.402        0.141      333.141        2.259      850.599
01/28/2021  06:00:00      136.154     -165.556      -48.329      221.194       95.929      105.139    48926.702     9202.460    11054.247        5.872        3.459      214.352      137.355        0.411      333.178        2.321      850.618
01/28/2021  06:01:00      156.075     -255.051      -49.608      228.525      105.138      113.526    52223.627    11054.007    12888.167        8.400        3.808      299.016      149.712        0.251      333.189        2.339      850.627
01/28/2021  06:02:00       28.647      -52.670      -22.301      196.931       69.918       89.912    38781.868     4888.519     8084.136        2.791        2.588       59.956      123.608        4.250      333.162        2.296      850.652
01/28/2021  06:03:00      135.665     -151.230      -38.088      108.766      132.204       49.310    11830.146    17478.021     2431.489        3.723        1.587      203.164       35.183        0.030      333.019        2.058      850.622
01/28/2021  06:04:00       35.438      -66.188      -16.075       57.874       67.760       50.213     3349.416     4591.350     2521.384        0.818        0.523       75.077       30.089        0.161      333.029        2.076      850.616
01/28/2021  06:05:00       82.901     -167.167      -27.601       56.020       93.491       38.866     3138.258     8740.572     1510.540        2.448        0.669      186.594       17.837        0.009      333.091        2.178      850.598
01/28/2021  06:06:00      147.398     -163.038      -35.463       85.127       77.868       45.607     7246.603     6063.447     2080.026        3.247        0.770      219.790       46.635        0.045      332.937        1.921      850.564
01/28/2021  06:07:00       -8.109      -64.074      -27.960      249.660       80.454      116.536    62330.210     6472.826    13580.643        4.365        4.119       64.585      158.085        5.991      333.036        2.088      850.581
01/28/2021  06:08:00       26.131      -39.178       -7.311      229.494       48.247      111.146    52667.492     2327.749    12353.456        3.480        3.367       47.093      156.954       11.108      333.169        2.309      850.585
01/28/2021  06:09:00      103.088      -74.133      -23.322       64.433       59.448       34.429     4151.642     3534.029     1185.340        1.277        0.444      126.976       29.904        0.055      333.127        2.238      850.592
01/28/2021  06:10:00       62.510     -104.911      -25.880      282.876       95.953      127.601    80018.959     9207.055    16281.946        6.052        5.275      122.122      173.458        2.017      333.174        2.317      850.608
01/28/2021  06:11:00      231.881     -198.804      -69.119      310.495      151.122      146.548    96407.065    22837.915    21476.238       11.937        7.036      305.437      204.000        0.446      333.085        2.171      850.605
01/28/2021  06:12:00      170.030     -224.435      -56.455      345.779      136.459      164.203   119563.362    18620.928    26962.607       12.377        8.257      281.570      228.717        0.660      333.054        2.118      850.607
01/28/2021  06:13:00      113.190      -59.794      -56.076      300.723       83.714      144.623    90434.179     7007.999    20915.675        6.892        5.918      128.013      204.686        2.557      333.119        2.228      850.618
01/28/2021  06:14:00       81.295     -100.814      -56.336      351.682       76.871      172.301   123680.542     5909.173    29687.570        8.958        7.964      129.508      242.978        3.520      333.199        2.361      850.604
01/28/2021  06:15:00      137.497     -193.508      -42.276      280.251       79.221      139.264    78540.396     6275.961    19394.352        8.115        5.211      237.383      191.921        0.654      333.080        2.160      850.605
01/28/2021  06:16:00      183.865      -90.969      -41.410      390.832       55.022      185.816   152749.297     3027.461    34527.529       11.701        9.515      205.138      265.684        1.677      333.097        2.194      850.582
01/28/2021  06:17:00      178.621     -140.095      -49.368      325.925      116.365      151.865   106227.154    13540.862    23063.078        9.837        7.142      227.006      216.189        0.907      333.010        2.047      850.572
01/28/2021  06:18:00      212.779     -203.024      -43.011      216.900       96.828      104.560    47045.408     9375.567    10932.818        7.783        3.368      294.098      142.416        0.234      332.875        1.822      850.547
01/28/2021  06:19:00      120.513     -135.041      -43.176      278.708       99.994      135.976    77677.977     9998.834    18489.594        7.037        5.308      180.996      186.729        1.064      332.943        1.935      850.535
01/28/2021  06:20:00      129.192     -109.709      -32.383      220.021      118.062      108.865    48409.178    13938.525    11851.512        5.197        3.710      169.489      147.874        0.761      332.981        1.997      850.511
01/28/2021  06:21:00      114.238     -174.491      -35.569      169.307       92.283       85.147    28664.735     8516.199     7249.976        4.459        2.222      208.561      112.569        0.291      332.924        1.902      850.493
01/28/2021  06:22:00      242.873     -242.553      -73.094      276.775      122.760      131.659    76604.424    15069.898    17333.971       11.606        5.450      343.248      183.498        0.286      332.870        1.814      850.471
01/28/2021  06:23:00      118.659     -166.055      -25.532       94.818      107.709       58.469     8990.398    11601.166     3418.627        3.315        1.201      204.094       60.126        0.087      332.856        1.788      850.469
01/28/2021  06:24:00      136.443     -188.790      -26.846      177.356      135.641       90.808    31455.318    18398.433     8246.009        5.653        2.905      232.934      119.528        0.263      332.803        1.702      850.485
01/28/2021  06:25:00      241.389     -263.793      -70.147      252.665      128.213      118.946    63839.456    16438.565    14148.202       11.358        4.721      357.569      168.810        0.223      332.840        1.764      850.485
01/28/2021  06:26:00      181.314     -176.970      -75.533      364.855      153.676      174.538   133118.822    23616.187    30463.555       12.851        9.360      253.364      245.175        0.936      332.933        1.920      850.485
01/28/2021  06:27:00      206.792     -310.351      -61.898      280.970      124.013      132.560    78944.410    15379.333    17572.129       12.738        5.595      372.935      187.806        0.254      332.805        1.706      850.495
01/28/2021  06:28:00      136.728     -202.027      -37.634       77.098      109.055       48.904     5944.133    11892.939     2391.569        4.057        1.011      243.945       46.538        0.036      332.729        1.577      850.489
01/28/2021  06:29:00      134.095     -135.526      -27.892       68.220       51.770       28.038     4653.911     2680.122      786.108        2.262        0.406      190.653       24.890        0.017      332.746        1.608      850.485
01/28/2021  06:30:00       95.770      -84.529      -19.355      197.794       79.792      102.892    39122.642     6366.712    10586.768        3.637        2.804      127.738      136.416        1.140      332.889        1.846      850.476
01/28/2021  06:31:00      133.036     -168.618      -39.149      231.246       76.870      112.988    53474.883     5908.984    12766.362        5.989        3.608      214.780      158.816        0.547      332.891        1.849      850.493
01/28/2021  06:32:00      201.818     -214.153      -70.325      276.657       77.348      132.726    76539.233     5982.771    17616.063        9.582        5.007      294.265      188.477        0.410      332.843        1.768      850.492
01/28/2021  06:33:00      195.780     -203.495      -72.349      359.612       81.167      172.477   129320.793     6588.135    29748.151       12.528        8.283      282.382      247.320        0.767      332.873        1.819      850.529
01/28/2021  06:34:00      202.251     -225.988      -63.545      189.977       72.368       90.145    36091.354     5237.165     8126.099        7.272        2.473      303.276      124.268        0.168      332.751        1.615      850.562
01/28/2021  06:35:00      145.627     -173.527      -48.579      273.351       75.693      131.857    74720.814     5729.491    17386.226        7.574        4.892      226.537      185.378        0.670      332.905        1.872      850.607
01/28/2021  06:36:00      109.544      -36.667      -37.842      311.929       76.783      151.460    97299.807     5895.638    22939.994        7.043        6.307      115.518      211.384        3.348      332.933        1.920      850.652
01/28/2021  06:37:00      168.378     -248.112      -50.349       46.579       74.385       37.512     2169.645     5533.150     1407.133        5.078        0.455      299.851       25.094        0.007      332.744        1.601      850.667
01/28/2021  06:38:00     1621.269     -251.202     -753.160     1327.119      144.577      615.503  1761244.189    20902.387   378843.771      270.952      108.050     1640.614      902.852        0.303      338.517       11.278      850.673
01/28/2021  06:39:00     1090.963     -122.749     -496.756     1336.448      111.283      650.036  1786092.557    12383.886   422547.381      183.611      111.051     1097.847      930.153        0.718      336.765        8.349      850.696
01/28/2021  06:40:00      487.199     -212.499     -196.120      936.756       94.665      445.044   877512.263     8961.448   198064.184       70.254       54.227      531.525      644.008        1.468      334.055        3.801      850.709
01/28/2021  06:41:00      183.631      -90.832      -46.430      269.663       60.296      126.353    72718.241     3635.579    15965.122        6.820        4.616      204.867      178.733        0.761      332.916        1.890      850.740
01/28/2021  06:42:00      116.988     -138.787      -31.466      214.954       61.965      103.469    46205.306     3839.648    10705.831        4.733        3.038      181.516      145.568        0.643      332.877        1.827      850.754
01/28/2021  06:43:00      140.695     -110.623      -48.765      330.558      120.473      160.749   109268.592    14513.683    25840.296        9.198        7.481      178.976      226.422        1.600      332.882        1.834      850.738
01/28/2021  06:44:00      157.705     -178.517      -64.035      369.800       91.164      174.315   136751.990     8310.809    30385.667       11.811        8.772      238.199      251.805        1.117      332.893        1.854      850.730
01/28/2021  06:45:00      161.469     -199.904      -50.735      302.501       98.608      146.387    91506.572     9723.632    21429.122        9.561        6.133      256.971      206.473        0.646      332.868        1.810      850.722
01/28/2021  06:46:00      212.279     -181.292      -64.597      381.812       50.722      181.153   145780.387     2572.771    32816.375       13.160        9.058      279.158      261.235        0.876      332.905        1.873      850.715
01/28/2021  06:47:00      135.389     -106.305      -42.601      378.373       73.476      180.554   143166.184     5398.693    32599.910       10.627        9.058      172.136      259.969        2.281      332.961        1.967      850.707
01/28/2021  06:48:00      193.030     -124.509      -53.550      401.369       86.980      194.344   161097.124     7565.574    37769.690       13.099       10.322      229.702      277.176        1.456      332.969        1.979      850.695
01/28/2021  06:49:00      144.777     -134.886      -42.056      376.891       67.374      181.921   142046.452     4539.302    33095.334       11.026        8.984      197.875      259.158        1.715      332.886        1.843      850.708
01/28/2021  06:50:00      139.374     -149.142      -39.049      323.853       65.041      155.511   104880.869     4230.275    24183.636        8.822        6.665      204.128      222.126        1.184      332.894        1.856      850.740
01/28/2021  06:51:00      114.894     -189.763      -42.944      187.524       72.862       89.947    35165.157     5308.816     8090.396        4.980        2.428      221.835      123.278        0.309      332.748        1.610      850.742
01/28/2021  06:52:00      139.824     -217.962      -40.610       60.063       79.679       33.244     3607.506     6348.703     1105.168        3.988        0.553      258.955       30.543        0.014      332.722        1.565      850.734
01/28/2021  06:53:00      141.549     -111.117      -30.653      300.845      119.403      144.836    90507.820    14257.030    20977.512        7.951        6.287      179.953      200.133        1.237      332.888        1.845      850.715
01/28/2021  06:54:00     1221.529      -48.091     -590.146     1291.209       75.136      610.556  1667221.345     5645.397   372779.067      194.379      102.282     1222.475      887.345        0.527      337.571        9.689      850.745
01/28/2021  06:55:00     1024.888     -208.681     -468.738     1225.382       76.655      582.340  1501560.138     5876.010   339119.896      157.975       92.328     1045.917      843.686        0.651      336.285        7.537      850.803
01/28/2021  06:56:00      275.367     -262.254      -94.109      482.507       86.497      230.292   232812.756     7481.665    53034.200       22.333       14.666      380.268      332.110        0.763      333.100        2.199      850.844
01/28/2021  06:57:00      705.500     -174.894     -294.596     1019.037       62.097      491.106  1038436.471     3855.992   241185.149       94.904       64.174      726.855      706.218        0.944      334.836        5.103      850.869
01/28/2021  06:58:00     1098.737     -126.811     -507.114     1290.699       97.840      618.464  1665902.619     9572.585   382497.695      176.882      102.899     1106.030      892.706        0.651      336.531        7.953      850.872
01/28/2021  06:59:00      802.479     -129.218     -364.855     1138.548      103.046      566.273  1296291.309    10618.524   320665.128      121.037       81.379      812.816      802.094        0.974      335.836        6.778      850.858
01/28/2021  07:00:00     1471.397     -210.902     -672.946     1244.625       71.915      610.842  1549092.624     5171.714   373127.876      229.451       96.370     1486.435      871.134        0.343      338.423       11.112      850.863
01/28/2021  07:01:00     1295.134     -121.181     -596.404     1298.325       87.119      602.840  1685647.025     7589.682   363415.592      205.181      102.833     1300.791      883.716        0.462      337.509        9.587      850.878
01/28/2021  07:02:00      944.375     -162.169     -426.273     1304.999       69.580      607.056  1703021.869     4841.326   368517.069      158.772      103.819      958.197      889.497        0.862      336.618        8.101      850.908
01/28/2021  07:03:00      811.943      -91.445     -368.463     1228.313       55.833      591.472  1508753.836     3117.354   349838.559      133.218       93.085      817.076      851.392        1.086      335.438        6.121      850.938
01/28/2021  07:04:00      490.643     -104.214     -213.728      998.904       31.750      480.781   997810.129     1008.053   231150.061       76.338       61.498      501.589      692.010        1.903      334.577        4.676      850.965
01/28/2021  07:05:00      145.891      -95.786      -57.216      444.984       47.373      216.024   198011.137     2244.159    46666.238       14.028       12.346      174.525      307.792        3.110      333.091        2.186      850.963
01/28/2021  07:06:00      105.672      -73.038      -31.920      310.402       61.001      151.486    96349.385     3721.132    22948.114        7.024        6.151      128.456      213.506        2.763      332.908        1.881      850.962
01/28/2021  07:07:00       65.574      -75.171      -20.906      200.386      106.496      100.900    40154.609    11341.410    10180.860        3.602        3.084       99.753      137.275        1.894      332.884        1.838      850.959
01/28/2021  07:08:00       99.582      -57.184      -34.129      302.589       70.937      147.181    91559.950     5032.106    21662.166        6.628        5.913      114.833      206.804        3.243      332.918        1.898      850.967
01/28/2021  07:09:00      136.090      -69.243      -49.877      427.421       54.501      206.189   182688.536     2970.327    42513.933       12.694       11.409      152.693      294.554        3.721      333.070        2.150      850.999
01/28/2021  07:10:00       96.306     -128.520      -20.120      145.787       57.347       72.963    21253.721     3288.699     5323.672        2.803        1.493      160.600       98.053        0.373      332.785        1.674      851.043
01/28/2021  07:11:00      121.224     -154.695      -34.929      151.438       51.147       72.912    22933.391     2616.023     5316.158        3.535        1.543      196.535      101.956        0.269      332.747        1.610      851.058
01/28/2021  07:12:00      150.991     -203.486      -39.480      143.207       71.615       73.245    20508.276     5128.661     5364.820        4.838        1.550      253.387       96.044        0.144      332.775        1.652      851.068
01/28/2021  07:13:00      100.399     -194.161      -37.437       42.329       53.849       22.438     1791.764     2899.736      503.450        2.719        0.260      218.583       20.597        0.009      332.755        1.619      851.064
01/28/2021  07:14:00      131.494     -134.348      -39.272      232.814       72.275      110.324    54202.383     5223.651    12171.418        5.422        3.580      187.989      157.914        0.706      332.825        1.739      851.057
01/28/2021  07:15:00      507.761     -195.588     -232.043      929.943       70.030      434.187   864794.525     4904.264   188517.944       70.386       52.911      544.128      634.616        1.360      334.458        4.470      851.058
01/28/2021  07:16:00      374.265     -116.668     -157.064      769.983       46.326      369.130   592873.473     2146.104   136256.787       45.467       36.564      392.028      532.173        1.843      333.905        3.545      851.048
01/28/2021  07:17:00      299.283     -195.513     -137.278      711.561       54.479      338.301   506319.467     2967.995   114447.374       38.506       31.187      357.485      489.674        1.876      333.597        3.033      851.047
01/28/2021  07:18:00      251.440     -113.481      -92.098      642.691       54.979      309.144   413051.944     3022.666    95569.787       29.801       25.582      275.863      444.931        2.601      333.347        2.617      851.066
01/28/2021  07:19:00      217.311     -130.207      -79.507      504.747      111.790      235.563   254769.813    12497.090    55489.917       19.656       16.138      253.334      342.932        1.832      333.153        2.286      851.091
01/28/2021  07:20:00      159.224     -170.176      -48.015      321.714       91.375      157.018   103499.942     8349.393    24654.648        9.653        6.825      233.049      220.845        0.898      332.939        1.929      851.094
01/28/2021  07:21:00      156.318     -150.201      -58.427      396.305       61.687      190.818   157058.043     3805.236    36411.524       12.380        9.864      216.785      273.228        1.589      333.025        2.074      851.088
01/28/2021  07:22:00      160.167     -132.198      -69.812      485.168       73.559      228.310   235387.795     5410.881    52125.665       17.040       14.646      207.677      331.907        2.554      333.137        2.262      851.074
01/28/2021  07:23:00      105.050     -200.562      -40.968      176.997       34.255       86.733    31327.765     1173.380     7522.655        4.647        2.001      226.408      120.991        0.286      332.769        1.645      851.065
01/28/2021  07:24:00       27.922      -87.811        5.345      293.114       50.976      142.035    85915.525     2598.560    20173.996        5.858        5.434       92.144      200.363        4.728      332.690        1.517      851.054
01/28/2021  07:25:00       71.326      -30.551      -29.704      523.596       51.501      249.064   274152.992     2652.393    62033.056       17.280       16.942       77.594      359.481       21.463      332.882        1.844      851.043
01/28/2021  07:26:00      217.302      -74.413      -70.672      607.256       41.649      292.263   368759.986     1734.671    85417.699       25.674       22.796      229.689      420.429        3.350      332.922        1.912      851.029
01/28/2021  07:27:00      123.226      -92.734      -36.368      485.656       40.926      230.172   235862.071     1674.927    52979.311       15.775       14.526      154.221      333.625        4.680      332.656        1.468      851.029
01/28/2021  07:28:00      480.037      -65.217     -190.961      888.846       44.834      428.885   790047.655     2010.110   183942.158       62.338       48.800      484.447      616.563        1.620      333.282        2.524      851.013
01/28/2021  07:29:00      430.360     -126.920     -180.159      901.286       50.314      429.338   812316.671     2531.484   184330.851       61.628       49.959      448.685      621.095        1.916      333.228        2.435      850.995
01/28/2021  07:30:00       94.694      -44.928      -48.329      301.046       53.048      145.652    90628.601     2814.088    21214.403        6.397        5.733      104.812      204.519        3.808      333.050        2.111      850.981
01/28/2021  07:31:00       81.000      -82.000      -88.000        0.000        0.000        0.000        0.000        0.000        0.000        1.051        0.000      115.261        0.000        0.000      333.020        2.050      850.980
01/28/2021  07:32:00       81.000      -82.000      -88.000        0.000        0.000        0.000        0.000        0.000        0.000        1.051        0.000      115.261        0.000        0.000      333.020        2.050      850.980
01/28/2021  07:33:00       81.000      -82.000      -88.000        0.000        0.000        0.000        0.000        0.000        0.000        1.051        0.000      115.261        0.000        0.000      333.020        2.050      850.980
01/28/2021  07:34:00       81.000      -82.000      -88.000        0.000        0.000        0.000        0.000        0.000        0.000        1.051        0.000      115.261        0.000        0.000      333.020        2.050      850.980
01/28/2021  07:35:00      295.566      -91.915     -173.836      749.295       29.890      319.775   561443.695      893.412   102255.885       39.519       33.230      309.528      488.941        2.495      333.653        3.116      850.991
01/28/2021  07:36:00       23.059     -166.063      -10.780       59.979       25.138       45.426     3597.534      631.941     2063.486        1.726        0.315      167.657       54.343        0.105      332.401        1.041      851.075
01/28/2021  07:37:00       62.983     -117.092      -26.322      274.395       72.622      134.355    75292.670     5273.940    18051.285        5.848        4.931      132.957      187.156        1.981      332.704        1.540      851.096
01/28/2021  07:38:00      289.057      -71.704     -111.733      801.642       59.974      383.713   642630.420     3596.916   147235.683       44.717       39.673      297.818      553.622        3.456      332.808        1.734      851.161
01/28/2021  07:39:00      153.777      -39.388      -58.822      655.283      100.778      307.743   429396.065    10156.113    94706.003       28.135       26.713      158.741      447.361        7.942      332.480        1.185      851.179
01/28/2021  07:40:00      870.536      -34.871     -409.072     1325.376       50.617      633.877  1756621.313     2562.113   401800.051      154.327      108.049      871.234      915.741        1.105      335.191        5.722      851.170
01/28/2021  07:41:00      516.369      -51.064     -238.636     1092.020       62.364      528.775  1192507.618     3889.292   279602.741       90.079       73.800      518.888      759.423        2.142      334.174        4.017      851.154
01/28/2021  07:42:00      817.972       17.483     -391.991     1161.856       37.216      557.022  1349909.860     1385.029   310274.016      124.198       83.078      818.159      803.698        0.965      335.042        5.460      851.143
01/28/2021  07:43:00      373.248       16.911     -158.834      919.315       44.122      438.337   845140.065     1946.724   192138.928       60.181       51.961      373.631      634.125        2.880      333.983        3.680      851.134
01/28/2021  07:44:00       56.112        9.999        3.543      324.011       51.333      158.688   104983.113     2635.078    25181.958        6.800        6.640       56.996      224.473       15.511      332.830        1.749      851.135
01/28/2021  07:45:00       70.460       -2.508      -23.903      509.294       56.794      241.976   259380.315     3225.580    58552.150       16.328       16.058       70.504      349.573       24.584      332.975        1.996      851.139
01/28/2021  07:46:00       41.932       16.182      -18.048      478.958       53.474      227.897   229400.329     2859.464    51937.017       14.321       14.210       44.946      328.992       53.579      332.932        1.925      851.148
01/28/2021  07:47:00       66.088      -25.269      -40.463      627.971       47.965      299.543   394347.119     2300.654    89726.023       24.641       24.319       70.754      432.975       37.447      333.211        2.391      851.151
01/28/2021  07:48:00       32.342       -6.943       -2.382       99.704       48.310       44.299     9940.843     2333.820     1962.417        0.767        0.712       33.079       59.999        3.290      332.728        1.580      851.152
01/28/2021  07:49:00       93.963       38.123      -11.458      269.544       38.256      128.553    72653.724     1463.554    16525.866        5.051        4.532      101.402      184.176        3.299      332.720        1.568      851.113
01/28/2021  07:50:00       72.266        6.725       -2.049      306.271       37.638      146.217    93801.757     1416.656    21379.310        6.091        5.830       72.579      209.038        8.295      332.840        1.768      851.070
01/28/2021  07:51:00      164.821       39.411      -31.708      392.761       43.035      186.315   154261.317     1852.045    34713.308       11.023        9.541      169.468      269.218        2.524      332.763        1.642      851.044
01/28/2021  07:52:00      148.831       45.579      -25.071      358.849       26.551      170.739   128772.453      704.967    29151.742        9.171        7.931      155.653      246.376        2.505      332.647        1.450      851.039
01/28/2021  07:53:00      109.694       35.909      -18.168      166.270       48.350       79.958    27645.641     2337.732     6393.345        2.501        1.819      115.422      109.611        0.902      332.659        1.465      851.058
01/28/2021  07:54:00       58.484       26.833       -0.434       55.631       40.554       21.448     3094.822     1644.599      460.018        0.467        0.260       64.346       18.571        0.083      332.568        1.315      851.050
01/28/2021  07:55:00       87.733       29.763       -9.208       35.829       51.557       21.886     1283.728     2658.113      478.979        0.654        0.221       92.644       23.411        0.064      332.666        1.476      851.042
01/28/2021  07:56:00      120.374       74.416      -20.582      278.765       54.317      134.410    77709.773     2950.340    18066.177        5.957        4.936      141.519      189.046        1.784      332.630        1.420      851.057
01/28/2021  07:57:00       90.559       27.276       -6.696      126.166       38.778       63.811    15917.901     1503.746     4071.834        1.524        1.075       94.578       86.315        0.833      332.609        1.383      851.085
01/28/2021  07:58:00      153.540       64.119      -22.615      376.700       37.213      179.506   141903.233     1384.816    32222.428       10.182        8.776      166.391      257.827        2.401      332.626        1.415      851.115
01/28/2021  07:59:00      240.051       42.088      -63.451      566.223       41.840      271.342   320608.284     1750.568    73626.574       22.962       19.799      243.713      390.646        2.569      332.952        1.958      851.145
01/28/2021  08:00:00      303.838       61.620     -103.775      709.258       52.918      334.784   503046.313     2800.361   112080.634       36.228       30.896      310.023      485.922        2.457      333.317        2.568      851.150
01/28/2021  08:01:00      110.323        7.996      -20.157      380.801       50.483      180.008   145009.476     2548.523    32402.780        9.627        8.998      110.613      258.525        5.463      332.838        1.765      851.136
01/28/2021  08:02:00      295.675       20.698     -100.911      686.696       53.019      327.679   471552.066     2811.024   107373.346       33.977       29.087      296.398      472.947        2.546      333.330        2.592      851.104
01/28/2021  08:03:00      319.327       59.400      -91.710      622.025       39.936      293.148   386914.603     1594.902    85935.718       29.408       23.722      324.805      425.022        1.712      333.119        2.235      851.088
01/28/2021  08:04:00      246.161       72.935      -51.009      528.708       40.843      251.774   279532.274     1668.168    63390.122       20.648       17.230      256.739      363.115        2.000      332.796        1.702      851.069
01/28/2021  08:05:00      145.846       55.649       -3.879       53.548       66.215       33.259     2867.368     4384.454     1106.143        1.637        0.418      156.102       34.093        0.048      332.579        1.333      851.082
01/28/2021  08:06:00      148.885       69.419       -8.167       33.098       48.752       26.842     1095.483     2376.759      720.469        1.562        0.210      164.273       29.278        0.032      332.441        1.105      851.097
01/28/2021  08:07:00      156.183       53.174      -11.999      284.444       45.158      134.413    80908.241     2039.264    18066.963        6.417        5.051      164.987      192.106        1.356      332.611        1.387      851.131
01/28/2021  08:08:00      164.368       48.077      -19.941      350.326       52.186      168.418   122728.008     2723.407    28364.686        9.174        7.691      171.255      240.402        1.971      332.655        1.463      851.149
01/28/2021  08:09:00      142.441       54.200      -14.027      226.966       35.789      111.141    51513.578     1280.847    12352.404        4.427        3.257      152.405      156.191        1.050      332.560        1.303      851.175
01/28/2021  08:10:00      163.415       51.643      -25.354      332.237       36.888      156.552   110381.347     1360.726    24508.560        8.310        6.813      171.381      226.343        1.744      332.682        1.508      851.225
01/28/2021  08:11:00      165.792       56.483      -24.058      298.057       36.912      143.807    88837.802     1362.517    20680.402        7.105        5.544      175.150      204.872        1.368      332.801        1.702      851.257
01/28/2021  08:12:00      144.992       42.591      -30.406      327.143       37.850      152.207   107022.647     1432.607    23166.917        7.766        6.581      151.118      220.823        2.135      332.721        1.572      851.266
01/28/2021  08:13:00      143.345       22.544      -14.465       41.880       46.278       27.805     1753.939     2141.625      773.106        1.297        0.233      145.107       19.556        0.018      332.619        1.398      851.274
01/28/2021  08:14:00      111.574       39.858      -29.485      309.650       57.269      148.696    95883.201     3279.764    22110.370        6.806        6.064      118.480      210.752        3.164      332.735        1.595      851.285
01/28/2021  08:15:00       66.674        1.189      -28.532       59.155       64.418       30.101     3499.336     4149.685      906.084        0.691        0.428       66.684       27.586        0.171      332.792        1.685      851.275
01/28/2021  08:16:00      133.799       63.073      -22.223      251.289       66.890      123.013    63146.348     4474.315    15132.279        5.255        4.138      147.920      170.551        1.329      332.763        1.639      851.242
01/28/2021  08:17:00       80.167       40.316      -19.086      251.626       58.292      121.929    63315.535     3397.904    14866.660        4.498        4.079       89.734      171.580        3.656      332.762        1.637      851.210
01/28/2021  08:18:00       98.516       35.180      -19.216      179.697       43.470       89.277    32291.039     1889.622     7970.300        2.672        2.108      104.609      120.629        1.330      332.694        1.525      851.220
01/28/2021  08:19:00       48.417        5.340      -19.457      158.512       53.030       77.203    25125.945     2812.218     5960.258        1.832        1.695       48.711      107.391        4.861      332.798        1.695      851.261
01/28/2021  08:20:00      136.641       44.548      -16.998      249.797       48.745      122.420    62398.523     2376.032    14986.697        5.034        3.988      143.719      170.945        1.415      332.821        1.734      851.290
01/28/2021  08:21:00      125.714       61.433      -23.521      296.741       48.416      141.898    88055.451     2344.086    20135.064        6.531        5.527      139.921      201.983        2.084      332.900        1.866      851.320
01/28/2021  08:22:00      119.733       17.674      -41.253      395.063       59.730      188.461   156075.087     3567.619    35517.471       10.571        9.758      121.031      269.508        4.959      332.990        2.019      851.346
01/28/2021  08:23:00       13.039      -17.588        0.836       38.718       33.939       21.781     1499.113     1151.836      474.424        0.180        0.156       21.894       18.241        0.694      333.033        2.082      851.381
01/28/2021  08:24:00      -10.351      -31.602        0.963       28.095       33.930       31.015      789.345     1151.220      961.942        0.200        0.145       33.254       20.945        0.397      333.173        2.315      851.402
01/28/2021  08:25:00       26.476      -43.621      -16.306      163.514       33.618       77.364    26736.707     1130.157     5985.134        1.835        1.693       51.027      108.419        4.515      333.182        2.330      851.392
01/28/2021  08:26:00       51.626      -18.164      -20.326      153.645       52.261       68.909    23606.812     2731.263     4748.518        1.724        1.554       54.729       96.935        3.137      333.164        2.300      851.372
01/28/2021  08:27:00      116.716      -70.938      -43.494      323.703       61.809      156.497   104783.795     3820.341    24491.389        7.679        6.655      136.582      222.737        2.659      333.247        2.438      851.359
01/28/2021  08:28:00      169.152     -138.826      -45.612      303.703       51.130      143.312    92235.546     2614.291    20538.334        8.265        5.769      218.826      205.803        0.885      333.198        2.357      851.346
01/28/2021  08:29:00       95.116     -148.923      -20.912       49.599       55.792       29.259     2460.057     3112.735      856.067        1.904        0.321      176.706       25.160        0.020      333.094        2.181      851.337
01/28/2021  08:30:00      110.431      -95.975      -29.662      154.783       47.586       74.197    23957.733     2264.421     5505.165        2.700        1.586      146.308      103.355        0.499      333.090        2.178      851.305
01/28/2021  08:31:00       47.089      -63.649      -14.260       48.864       57.039       32.963     2387.733     3253.433     1086.567        0.660        0.336       79.175       33.508        0.179      333.190        2.342      851.284
01/28/2021  08:32:00      -15.976      -34.100       -5.320      231.345       32.405      113.708    53520.501     1050.066    12929.443        3.446        3.375       37.657      158.371       17.687      333.327        2.569      851.302
01/28/2021  08:33:00       57.463      -14.927      -21.377      153.108       51.474       76.459    23442.180     2649.592     5845.911        1.795        1.597       59.370      102.737        2.994      333.334        2.580      851.335
01/28/2021  08:34:00       42.596      -36.670      -12.519       36.735       46.676       21.652     1349.465     2178.637      468.810        0.366        0.200       56.206       17.074        0.092      333.279        2.491      851.377
01/28/2021  08:35:00       63.149      -20.121      -28.881      271.427       56.502      127.945    73672.713     3192.514    16369.861        4.921        4.662       66.277      182.874        7.613      333.262        2.463      851.400
01/28/2021  08:36:00      173.904      -68.472      -13.815      184.620       71.704       92.943    34084.369     5141.461     8638.403        4.148        2.393      186.899      120.477        0.416      333.204        2.365      851.392
01/28/2021  08:37:00      169.116     -115.794      -41.485      197.860       75.095       94.993    39148.462     5639.231     9023.602        4.876        2.691      204.960      128.801        0.395      333.195        2.349      851.393
01/28/2021  08:38:00      130.214     -182.127      -37.703       47.648       69.342       35.705     2270.296     4808.331     1274.839        2.995        0.418      223.888       17.482        0.006      333.080        2.158      851.396
01/28/2021  08:39:00       99.843     -141.498      -26.339       36.648       40.358       26.219     1343.077     1628.738      687.454        1.717        0.183      173.177       23.046        0.018      333.119        2.224      851.408
01/28/2021  08:40:00       97.079     -109.007      -26.238       26.959       41.157       27.914      726.811     1693.893      779.213        1.260        0.160      145.969        9.482        0.004      333.122        2.229      851.422
01/28/2021  08:41:00      101.798      -85.410      -24.947      156.194       47.935       76.352    24396.466     2297.778     5829.586        2.539        1.626      132.882      105.519        0.631      333.192        2.346      851.434
01/28/2021  08:42:00       73.157      -23.009      -19.367       42.744       69.594       33.103     1827.055     4843.363     1095.788        0.701        0.388       76.690       27.667        0.130      333.192        2.345      851.444
01/28/2021  08:43:00       77.854       -0.721       -4.751      169.330       61.032       84.490    28672.722     3724.883     7138.619        2.280        1.977       77.857      110.035        1.997      333.388        2.670      851.441
01/28/2021  08:44:00       92.634      -35.328      -22.677      206.858       84.989      106.131    42790.239     7223.118    11263.733        3.580        3.064       99.142      143.409        2.092      333.450        2.773      851.432
01/28/2021  08:45:00      115.443      -67.323      -27.731       66.230      111.677       46.255     4386.378    12471.743     2139.499        1.881        0.950      133.639       46.468        0.121      333.192        2.343      851.411
01/28/2021  08:46:00      100.308      -69.252      -29.187      125.097       85.497       68.380    15649.173     7309.793     4675.864        2.167        1.382      121.892       77.238        0.402      333.206        2.368      851.396
01/28/2021  08:47:00      136.336      -50.531      -10.420       84.677       94.999       46.127     7170.262     9024.755     2127.724        1.978        0.916      145.399       56.117        0.149      333.217        2.386      851.389
01/28/2021  08:48:00      125.088     -132.583      -25.986       67.379       73.925       35.159     4539.969     5464.901     1236.159        2.257        0.562      182.278       31.730        0.030      333.182        2.327      851.378
01/28/2021  08:49:00       79.111      -96.130      -19.991       55.998       59.575       34.559     3135.757     3549.215     1194.291        1.189        0.394      124.497       33.852        0.074      333.316        2.550      851.376
01/28/2021  08:50:00       42.055      -40.173      -19.468      126.654       49.275       64.883    16041.130     2428.066     4209.846        1.322        1.134       58.159       82.180        1.997      333.314        2.548      851.367
01/28/2021  08:51:00      102.828      -73.668      -21.650       80.635       93.178       50.843     6502.064     8682.069     2585.016        1.712        0.888      126.494       39.991        0.100      333.274        2.480      851.361
01/28/2021  08:52:00       97.404      -43.429      -18.991       85.339       83.103       54.874     7282.775     6906.124     3011.153        1.446        0.860      106.647       49.438        0.215      333.365        2.631      851.349
01/28/2021  08:53:00      204.704     -132.651      -46.522      139.677      116.663       69.418    19509.651    13610.323     4818.891        4.979        1.897      243.927       81.374        0.111      333.175        2.315      851.347
01/28/2021  08:54:00      126.706     -127.351      -27.877       82.101       94.731       38.386     6740.581     8973.938     1473.482        2.512        0.859      179.646       35.978        0.040      333.163        2.296      851.332
01/28/2021  08:55:00      112.475     -132.343      -38.570       42.574       78.507       29.952     1812.570     6163.424      897.100        2.026        0.444      173.682       18.611        0.011      333.155        2.284      851.319
01/28/2021  08:56:00       34.425      -15.730       -2.795      162.842       73.124       85.118    26517.628     5347.047     7244.991        2.027        1.955       37.849      108.925        8.282      333.210        2.376      851.309
01/28/2021  08:57:00       20.307      -28.933       -3.661       71.402       72.780       44.090     5098.214     5296.881     1943.907        0.680        0.617       35.348       32.067        0.823      333.291        2.509      851.304
01/28/2021  08:58:00       57.682      -88.091      -24.307      173.411       85.146       85.740    30071.368     7249.853     7351.419        2.817        2.234      105.296      117.275        1.240      333.365        2.634      851.325
01/28/2021  08:59:00      116.358     -115.090      -22.908      173.125       81.178       83.031    29972.128     6589.898     6894.083        3.537        2.173      163.661      111.479        0.464      333.311        2.542      851.333
01/28/2021  09:00:00      170.957     -204.549      -41.784       77.994      111.703       46.820     6083.005    12477.478     2192.142        4.678        1.038      266.584       41.992        0.025      333.097        2.187      851.345
01/28/2021  09:01:00      138.156     -198.137      -42.295      192.598       95.449       93.964    37094.169     9110.476     8829.275        5.757        2.752      241.548      127.816        0.280      333.212        2.376      851.358
01/28/2021  09:02:00      130.300     -125.132      -35.150       90.328      109.845       49.440     8159.154    12065.959     2444.278        2.827        1.133      180.654       52.405        0.084      333.180        2.321      851.388
01/28/2021  09:03:00      192.535     -229.058      -58.469       87.292      104.083       41.850     7619.960    10833.252     1751.415        5.658        1.010      299.228       43.161        0.021      333.148        2.270      851.402
01/28/2021  09:04:00      132.906     -150.774      -36.199       88.676      137.195       47.041     7863.378    18822.582     2212.885        3.530        1.445      200.989       56.553        0.079      333.178        2.321      851.422
01/28/2021  09:05:00      136.302     -162.447      -43.434       81.973       82.014       38.188     6719.580     6726.334     1458.318        3.088        0.745      212.055       41.592        0.038      333.189        2.337      851.439
01/28/2021  09:06:00      146.521     -147.374      -33.920       55.942       62.038       31.295     3129.561     3848.703      979.372        2.615        0.398      207.816       30.497        0.022      333.234        2.413      851.457
01/28/2021  09:07:00      165.470     -104.741      -36.240       90.702       88.410       42.488     8226.888     7816.360     1805.190        2.875        0.892      195.834       38.926        0.040      333.218        2.385      851.455
01/28/2021  09:08:00      147.872     -186.256      -32.703      102.973       76.652       48.912    10603.461     5875.575     2392.418        3.825        0.944      237.818       61.632        0.067      333.202        2.360      851.436
01/28/2021  09:09:00       83.386     -136.891      -29.628       68.593       68.811       37.472     4705.056     4734.954     1404.136        1.870        0.542      160.289       43.616        0.074      333.210        2.375      851.401
01/28/2021  09:10:00      212.384     -161.696      -53.991      186.117       72.544       85.545    34639.702     5262.660     7318.013        6.068        2.361      266.932      114.918        0.185      333.252        2.443      851.358
01/28/2021  09:11:00      127.909     -127.254      -32.075       76.635      135.632       51.920     5872.931    18395.921     2695.681        3.027        1.348      180.428       59.929        0.110      333.231        2.407      851.337
01/28/2021  09:12:00       93.899     -127.291      -24.426       48.523      126.857       39.640     2354.484    16092.653     1571.315        2.281        1.001      158.177       37.062        0.055      333.266        2.465      851.361
01/28/2021  09:13:00      104.820     -145.947      -23.647       56.483       75.409       33.217     3190.375     5686.563     1103.360        2.141        0.499      179.688       31.517        0.031      333.243        2.428      851.372
01/28/2021  09:14:00      161.537     -131.323      -35.395       68.732       78.693       36.647     4724.070     6192.524     1342.982        2.842        0.613      208.182       41.965        0.041      333.213        2.377      851.380
01/28/2021  09:15:00      131.433     -152.242      -34.372       76.138       80.988       36.123     5796.992     6559.001     1304.892        2.764        0.683      201.127       33.563        0.028      333.230        2.407      851.376
01/28/2021  09:16:00       95.368      -61.703      -17.536       66.442       89.125       40.112     4414.486     7943.346     1608.979        1.359        0.698      113.589       45.044        0.157      333.300        2.524      851.361
01/28/2021  09:17:00       66.158     -146.070      -25.212       79.675       82.257       45.982     6348.056     6766.169     2114.349        2.079        0.761      160.353       46.177        0.083      333.313        2.543      851.350
01/28/2021  09:18:00      115.358     -188.497      -22.153       55.248       58.516       31.020     3052.370     3424.121      962.238        2.838        0.372      220.995       24.496        0.012      333.205        2.363      851.338
01/28/2021  09:19:00       70.979      -48.439      -15.385       65.508       69.417       46.348     4291.263     4818.782     2148.169        0.944        0.563       85.932       34.742        0.163      333.385        2.666      851.332
01/28/2021  09:20:00       66.587       -3.072       -4.808      149.169       51.600       70.563    22251.539     2662.585     4979.189        1.717        1.495       66.657       92.415        1.922      333.537        2.916      851.321
01/28/2021  09:21:00       52.188      -68.717      -11.431       64.563       69.368       38.478     4168.435     4811.988     1480.564        0.902        0.523       86.288       34.224        0.157      333.406        2.700      851.322
01/28/2021  09:22:00       76.215      -31.111      -23.287       59.985       80.863       45.257     3598.152     6538.841     2048.181        0.975        0.609       82.320       29.148        0.125      333.355        2.616      851.294
01/28/2021  09:23:00      168.018      -81.960      -34.089      249.217       84.583      102.599    62109.189     7154.324    10526.454        5.793        3.989      186.942      148.296        0.629      333.447        2.767      851.248
01/28/2021  09:24:00       51.991      -43.348       -3.644       62.427       79.646       38.146     3897.122     6343.430     1455.137        0.814        0.585       67.691       30.322        0.201      333.404        2.696      851.221
01/28/2021  09:25:00      113.926      -19.836       -6.433      113.902       89.794       60.207    12973.671     8062.886     3624.926        1.903        1.233      115.640       50.612        0.192      333.253        2.445      851.174
01/28/2021  09:26:00       95.172      -67.714      -24.612       88.608       84.788       48.111     7851.434     7188.959     2314.685        1.580        0.868      116.803       49.337        0.178      333.349        2.603      851.164
01/28/2021  09:27:00      180.084     -104.306      -34.071      133.046       97.774       60.937    17701.335     9559.750     3713.297        3.772        1.549      208.110       61.196        0.086      333.282        2.492      851.165
01/28/2021  09:28:00      107.860     -154.628      -27.218       80.414      126.876       38.393     6466.492    16097.584     1474.015        3.016        1.202      188.530       36.450        0.037      333.325        2.563      851.206
01/28/2021  09:29:00      149.481     -175.360      -43.204       64.876      116.401       43.920     4208.836    13549.139     1928.939        3.732        0.984      230.425       47.426        0.042      333.261        2.456      851.254
01/28/2021  09:30:00      146.871     -179.625      -38.712       63.208      108.323       45.289     3995.250    11733.796     2051.083        3.655        0.889      232.026       44.312        0.036      333.303        2.527      851.300
01/28/2021  09:31:00      107.971     -157.491      -34.178       61.508       82.899       33.827     3783.191     6872.197     1144.288        2.471        0.590      190.948       29.843        0.024      333.269        2.472      851.343
01/28/2021  09:32:00      142.512     -149.608      -39.846      149.852       72.158       76.475    22455.731     5206.792     5848.481        3.889        1.676      206.621      100.091        0.235      333.273        2.477      851.371
01/28/2021  09:33:00      107.372     -100.271      -24.289       89.252       87.341       40.216     7965.934     7628.418     1617.313        1.969        0.861      146.912       45.494        0.096      333.321        2.558      851.402
01/28/2021  09:34:00       97.522     -117.467      -26.990       65.943       66.586       31.815     4348.506     4433.732     1012.204        1.691        0.490      152.673       32.144        0.044      333.323        2.562      851.435
01/28/2021  09:35:00      137.413     -252.369      -40.650       63.748       70.217       32.043     4063.775     4930.477     1026.746        4.712        0.501      287.354       25.600        0.008      333.189        2.338      851.448
01/28/2021  09:36:00      118.426     -116.708      -19.161       68.980      120.692       36.515     4758.247    14566.489     1333.314        2.433        1.033      166.269       33.366        0.040      333.259        2.454      851.466
01/28/2021  09:37:00      100.283      -94.904      -24.423       52.736       92.244       34.621     2781.050     8508.869     1198.639        1.607        0.624      138.071       40.757        0.087      333.277        2.486      851.468
01/28/2021  09:38:00      126.924      -82.588      -27.151       99.891       90.763       51.741     9978.202     8237.962     2677.181        2.228        1.045      151.428       48.164        0.101      333.324        2.563      851.460
01/28/2021  09:39:00      136.669     -192.494      -30.587       79.495      107.668       42.128     6319.494    11592.486     1774.806        3.817        0.984      236.077       45.606        0.037      333.195        2.348      851.476
01/28/2021  09:40:00      174.099     -178.106      -53.130       62.593       97.377       49.973     3917.901     9482.240     2497.350        4.037        0.795      249.063       37.486        0.023      333.154        2.280      851.495
01/28/2021  09:41:00       94.878     -130.501      -10.060       68.276       72.646       42.587     4661.664     5277.393     1813.641        1.894        0.588      161.346       45.382        0.079      333.212        2.377      851.518
01/28/2021  09:42:00       88.600     -121.292      -18.314       49.102       74.013       35.759     2411.016     5477.961     1278.720        1.603        0.458      150.206       35.103        0.055      333.216        2.383      851.539
01/28/2021  09:43:00      138.988     -148.231      -24.767       54.708       68.774       37.873     2992.971     4729.877     1434.380        2.553        0.458      203.200       33.807        0.028      333.181        2.324      851.529
01/28/2021  09:44:00      111.772     -109.728      -21.733       61.840       78.499       35.833     3824.137     6162.110     1284.026        1.814        0.564      156.630       33.453        0.046      333.240        2.423      851.517
01/28/2021  09:45:00      176.655     -190.477      -53.213       55.012       83.808       28.870     3026.332     7023.753      833.454        4.060        0.544      259.786       20.112        0.006      333.164        2.297      851.517
01/28/2021  09:46:00      146.620     -141.264      -38.236       47.005       56.498       30.215     2209.440     3192.070      912.967        2.461        0.316      203.600       27.952        0.019      333.191        2.341      851.521
01/28/2021  09:47:00      107.280     -116.949      -23.261       43.696       62.542       28.238     1909.318     3911.443      797.399        1.617        0.331      158.701       11.688        0.005      333.192        2.345      851.545
01/28/2021  09:48:00       93.786      -47.705       -7.607       70.131       68.171       46.454     4918.295     4647.259     2157.984        1.142        0.586      105.222       53.859        0.262      333.213        2.379      851.542
01/28/2021  09:49:00       19.170      -13.536        7.386       36.661       41.945       34.294     1344.012     1759.380     1176.092        0.244        0.214       23.468       20.598        0.770      333.312        2.544      851.552
01/28/2021  09:50:00       59.011     -101.502      -19.575      147.589       64.336       68.722    21782.435     4139.141     4722.717        2.240        1.532      117.409       95.407        0.660      333.332        2.576      851.559
01/28/2021  09:51:00       59.311      -56.699      -17.437       50.599       78.469       31.600     2560.265     6157.323      998.582        0.837        0.486       82.053       21.154        0.066      333.247        2.437      851.566
01/28/2021  09:52:00       69.764      -85.629      -32.540       44.774       74.664       34.196     2004.683     5574.647     1169.377        1.100        0.437      110.451       25.493        0.053      333.297        2.519      851.582
01/28/2021  09:53:00       58.069       17.561        3.008       53.446       68.756       43.774     2856.428     4727.361     1916.205        0.659        0.475       60.666       31.685        0.273      333.259        2.455      851.585
01/28/2021  09:54:00      112.435      -10.103      -19.195       73.859       61.567       34.706     5455.199     3790.448     1204.518        1.178        0.523      112.888       33.431        0.088      333.264        2.465      851.568
01/28/2021  09:55:00       46.135        4.324      -10.350       53.709       71.404       42.793     2884.684     5098.462     1831.278        0.603        0.491       46.338       30.022        0.420      333.297        2.519      851.542
01/28/2021  09:56:00       13.679     -149.314      -25.356       95.453       79.769       36.511     9111.298     6363.086     1333.063        1.996        0.840      149.939       34.502        0.053      333.351        2.606      851.532
01/28/2021  09:57:00      136.701      -35.349      -15.644       91.138       92.201       45.541     8306.215     8500.972     2073.942        1.953        0.944      141.198       43.570        0.095      333.271        2.474      851.545
01/28/2021  09:58:00      115.108      -25.600      -12.700      113.138       73.079       37.500    12800.118     5340.591     1406.253        1.680        0.977      117.921       38.614        0.107      333.276        2.484      851.552
01/28/2021  09:59:00       41.944      -40.450       -0.534       64.448       65.787       38.048     4153.503     4327.935     1447.671        0.666        0.496       58.271       25.732        0.195      333.311        2.542      851.563
01/28/2021  10:00:00      106.006     -176.911      -20.676      145.528      107.781       69.211    21178.373    11616.768     4790.136        4.027        1.879      206.240       96.152        0.217      333.327        2.567      851.580
01/28/2021  10:01:00      148.494     -246.656      -46.031       61.863       61.842       34.931     3826.983     3824.494     1220.174        4.694        0.444      287.906       23.709        0.007      333.264        2.460      851.580
01/28/2021  10:02:00       81.154      -89.474      -28.430       74.139       56.534       26.443     5496.549     3196.064      699.250        1.239        0.470      120.796       27.776        0.053      333.308        2.538      851.570
01/28/2021  10:03:00       -2.974      -78.797      -18.572       54.284       46.500       29.677     2946.744     2162.288      880.736        0.627        0.299       78.853       27.835        0.125      333.356        2.617      851.573
01/28/2021  10:04:00       81.520      -92.413      -17.062       51.024       58.652       32.059     2603.413     3440.010     1027.802        1.127        0.354      123.230       33.204        0.073      333.327        2.568      851.581
01/28/2021  10:05:00       99.102      -68.009      -26.449       43.991       54.644       29.060     1935.175     2986.021      844.495        1.045        0.288      120.193        8.253        0.005      333.314        2.547      851.552
01/28/2021  10:06:00        7.425       -6.499       11.005       97.026       61.424       49.215     9414.090     3772.966     2422.101        0.791        0.780        9.868       57.781       34.288      333.370        2.642      851.526
01/28/2021  10:07:00      137.657     -187.106      -34.183       69.144       77.636       41.233     4780.947     6027.293     1700.144        3.381        0.625      232.289       28.708        0.015      333.300        2.521      851.535
01/28/2021  10:08:00      101.709     -124.851      -27.098       51.445      110.942       33.512     2646.610    12308.036     1123.057        2.137        0.804      161.036       29.745        0.034      333.308        2.535      851.585
01/28/2021  10:09:00      153.652      -66.837      -26.424       92.704       80.514       40.749     8594.016     6482.512     1660.492        2.275        0.837      167.560       27.468        0.027      333.291        2.509      851.581
01/28/2021  10:10:00       23.031      -20.436        4.034       48.840       73.926       27.964     2385.299     5465.092      781.984        0.480        0.432       30.791       14.502        0.222      333.343        2.596      851.597
01/28/2021  10:11:00       54.339      -55.011      -10.061       91.982       86.458       42.823     8460.610     7475.020     1833.845        1.192        0.888       77.324       48.378        0.391      333.388        2.668      851.618
01/28/2021  10:12:00      127.883     -155.913      -28.794       63.073       80.216       35.921     3978.234     6434.573     1290.352        2.660        0.585      201.651       30.332        0.023      333.365        2.628      851.621
01/28/2021  10:13:00      186.300     -197.898      -39.669       73.348       98.802       44.866     5379.929     9761.929     2012.961        4.630        0.858      271.793       43.228        0.025      333.303        2.525      851.639
01/28/2021  10:14:00      145.845     -147.709      -27.140       51.776       78.587       42.860     2680.712     6175.879     1837.007        2.726        0.535      207.578       40.014        0.037      333.326        2.563      851.659
01/28/2021  10:15:00      139.369     -147.520      -36.074       60.113       97.672       39.850     3613.532     9539.768     1588.014        2.861        0.737      202.943       46.971        0.054      333.331        2.574      851.665
01/28/2021  10:16:00      182.572     -276.083      -49.793       71.005       78.019       43.769     5041.659     6087.018     1915.689        6.254        0.652      330.989       37.864        0.013      333.300        2.521      851.672
01/28/2021  10:17:00      138.194     -217.427      -44.604       49.035       57.564       26.741     2404.410     3313.614      715.077        3.740        0.322      257.628       20.713        0.006      333.343        2.591      851.678
01/28/2021  10:18:00      102.993     -167.048      -36.282       39.902       53.425       23.016     1592.180     2854.257      529.716        2.240        0.249      196.246       19.061        0.009      333.363        2.628      851.682
01/28/2021  10:19:00      122.013     -132.061      -32.738       48.962       67.526       36.494     2397.294     4559.705     1331.842        2.084        0.414      179.797       24.682        0.019      333.352        2.610      851.687
01/28/2021  10:20:00       92.364     -166.355      -10.246       70.917      111.182       47.899     5029.243    12361.439     2294.315        2.799        0.984      190.276       61.421        0.104      333.365        2.630      851.713
01/28/2021  10:21:00       92.936     -115.841      -23.939      103.543      110.047       56.172    10721.188    12110.361     3155.348        2.430        1.299      148.513       64.996        0.192      333.396        2.682      851.743
01/28/2021  10:22:00      100.926      -78.361      -40.383       70.115       86.452       48.506     4916.156     7473.983     2352.796        1.635        0.737      127.775       40.663        0.101      333.393        2.678      851.756
01/28/2021  10:23:00       92.013     -160.350      -34.182       67.142      104.369       38.654     4508.009    10892.937     1494.097        2.612        0.845      184.874       32.927        0.032      333.428        2.734      851.777
01/28/2021  10:24:00       98.545     -185.801      -29.233       68.268       93.827       35.950     4660.484     8803.588     1292.373        2.992        0.738      210.317       36.152        0.030      333.368        2.634      851.789
01/28/2021  10:25:00      105.249     -199.657      -30.618      162.488       55.106       81.356    26402.434     3036.698     6618.721        4.396        1.803      225.699      108.281        0.230      333.450        2.772      851.822
01/28/2021  10:26:00       48.476      -60.062      -14.996      112.391       64.459       43.112    12631.763     4154.959     1858.635        1.241        0.932       77.184       48.614        0.397      333.416        2.716      851.832
01/28/2021  10:27:00       74.138     -139.511      -11.649       90.016      126.813       50.155     8102.809    16081.590     2515.535        2.589        1.335      157.987       63.135        0.160      333.451        2.772      851.857
01/28/2021  10:28:00       37.829     -137.172      -16.081      202.308       81.480      102.618    40928.440     6638.922    10530.411        3.929        2.905      142.293      135.597        0.908      333.640        3.087      851.848
01/28/2021  10:29:00       -8.282      -85.577      -20.547       61.250       63.372       31.216     3751.548     4015.947      974.455        0.828        0.437       85.977       11.577        0.018      333.508        2.870      851.863
01/28/2021  10:30:00       39.188     -107.977      -16.462       78.428      101.971       47.649     6150.952    10398.069     2270.381        1.614        0.941      114.869       39.823        0.120      333.442        2.759      851.888
01/28/2021  10:31:00      -36.046      -42.540        2.354       72.442       56.596       31.899     5247.828     3203.124     1017.515        0.629        0.473       55.759       37.686        0.457      333.519        2.887      851.906
01/28/2021  10:32:00       38.361      -70.634      -26.119       81.620       83.158       36.655     6661.794     6915.227     1343.615        1.103        0.746       80.379       30.521        0.144      333.498        2.852      851.937
01/28/2021  10:33:00      -67.286     -163.797      -20.792       99.886       95.880       48.647     9977.134     9192.966     2366.561        2.666        1.077      177.078       25.442        0.021      333.554        2.943      851.929
01/28/2021  10:34:00      -34.482      -36.523      -12.707       59.117       62.442       29.273     3494.785     3899.065      856.897        0.547        0.413       50.229       26.704        0.283      333.562        2.958      851.934
01/28/2021  10:35:00      -52.607     -152.161       -7.091       79.286       80.094       53.535     6286.293     6415.024     2866.020        2.077        0.778      160.999       37.508        0.054      333.556        2.948      851.923
01/28/2021  10:36:00       31.692     -150.347       -8.891       78.465       59.242       41.312     6156.702     3509.646     1706.692        1.753        0.569      153.651       23.733        0.024      333.575        2.979      851.905
01/28/2021  10:37:00       46.375     -124.460      -45.677      210.139       66.937       99.398    44158.269     4480.562     9879.917        3.911        2.926      132.819      138.756        1.091      333.470        2.807      851.914
01/28/2021  10:38:00        4.014      -75.331      -25.735       71.984       72.715       35.513     5181.692     5287.436     1261.138        0.904        0.587       75.438       22.006        0.085      333.434        2.746      851.929
01/28/2021  10:39:00       -8.021       -7.534      -10.233       45.955       74.259       23.872     2111.879     5514.337      569.856        0.421        0.410       11.005       18.598        2.856      333.489        2.837      851.943
01/28/2021  10:40:00       86.464     -102.232      -25.249       53.145       70.295       33.465     2824.398     4941.350     1119.917        1.372        0.444      133.893       33.524        0.063      333.387        2.668      851.951
01/28/2021  10:41:00       69.568     -105.568      -18.274       49.419       66.285       31.938     2442.243     4393.759     1020.037        1.209        0.393      126.429       24.022        0.036      333.304        2.532      851.956
01/28/2021  10:42:00      116.375     -159.153      -17.394       59.512       56.648       39.722     3541.719     3208.947     1577.807        2.375        0.416      197.162       32.230        0.027      333.217        2.384      851.959
01/28/2021  10:43:00       64.103      -66.214      -24.454       71.807       89.658       46.442     5156.220     8038.487     2156.899        1.222        0.768       92.160       47.217        0.262      333.223        2.397      851.948
01/28/2021  10:44:00       68.108     -101.913      -11.985      110.246       99.314       46.518    12154.271     9863.179     2163.898        1.967        1.209      122.576       57.392        0.219      333.290        2.506      851.952
01/28/2021  10:45:00      112.346     -128.328      -25.279       58.491      102.793       37.965     3421.166    10566.384     1441.375        2.258        0.771      170.557       38.208        0.050      333.245        2.432      851.955
01/28/2021  10:46:00        8.680      -86.907       -8.643       90.908       75.489       39.849     8264.198     5698.562     1587.909        1.162        0.778       87.340       43.172        0.244      333.357        2.617      851.958
01/28/2021  10:47:00       19.945      -35.605      -12.849       49.146       61.900       33.736     2415.366     3831.571     1138.128        0.461        0.369       40.811       34.308        0.707      333.374        2.648      851.977
01/28/2021  10:48:00       43.213      -50.346       -3.927       40.199       41.817       30.792     1615.979     1748.647      948.171        0.436        0.216       66.348       16.202        0.060      333.450        2.774      851.990
01/28/2021  10:49:00       91.918      -76.444      -21.367       61.996       69.460       28.357     3843.477     4824.643      804.131        1.211        0.474      119.552       25.680        0.046      333.330        2.573      852.006
01/28/2021  10:50:00       58.320      -69.713      -21.608       44.838       63.377       27.540     2010.447     4016.660      758.456        0.776        0.339       90.890       28.432        0.098      333.285        2.500      852.005
01/28/2021  10:51:00       95.042     -125.536      -22.519       32.168       35.048       17.758     1034.765     1228.363      315.342        1.394        0.129      157.456       15.348        0.010      333.292        2.509      851.992
01/28/2021  10:52:00      113.040      -90.797      -17.835       57.169       49.047       30.328     3268.330     2405.587      919.792        1.397        0.330      144.990       33.489        0.053      333.238        2.421      851.954
01/28/2021  10:53:00      114.347      -83.792      -21.072       53.031       61.392       38.187     2812.276     3769.036     1458.240        1.429        0.402      141.762       29.453        0.043      333.189        2.340      851.920
01/28/2021  10:54:00       68.352     -114.614      -18.397       64.373       68.133       28.662     4143.831     4642.123      821.503        1.387        0.480      133.447       21.142        0.025      333.233        2.413      851.882
01/28/2021  10:55:00       93.001      -85.972      -21.643       77.741       66.983       36.143     6043.740     4486.784     1306.284        1.417        0.592      126.650       37.834        0.089      333.221        2.392      851.827
01/28/2021  10:56:00      106.692      -91.177      -20.789       53.584       56.323       34.402     2871.296     3172.290     1183.524        1.368        0.361      140.344       30.206        0.046      333.220        2.391      851.782
01/28/2021  10:57:00      124.873     -163.691      -39.021       27.863       42.787       17.179      776.321     1830.739      295.127        2.341        0.145      205.883       13.255        0.004      333.257        2.451      851.767
01/28/2021  10:58:00       47.739      -89.172      -19.032       51.847       51.780       28.782     2688.131     2681.139      828.416        0.839        0.310      101.147       22.365        0.049      333.409        2.706      851.767
01/28/2021  10:59:00       63.525      -84.156      -12.291       38.897       39.567       21.633     1512.960     1565.548      468.004        0.741        0.177      105.440       21.843        0.043      333.365        2.631      851.783
01/28/2021  11:00:00       91.779     -116.676      -27.610       34.461       48.298       25.039     1187.589     2332.666      626.956        1.347        0.207      148.448       20.225        0.019      333.343        2.596      851.797
01/28/2021  11:01:00       91.239      -70.338      -14.272      134.280       41.383       67.091    18031.127     1712.549     4501.200        1.885        1.212      115.204       90.696        0.620      333.364        2.632      851.802
01/28/2021  11:02:00       93.337     -113.907      -24.654      140.582       66.084       68.701    19763.378     4367.082     4719.822        2.557        1.443      147.264       95.427        0.420      333.336        2.584      851.802
01/28/2021  11:03:00       94.312     -107.960      -26.773       27.374       27.471       20.676      749.330      754.672      427.514        1.160        0.097      143.353       18.120        0.016      333.370        2.641      851.808
01/28/2021  11:04:00       67.648      -55.369      -18.435       36.109       70.044       26.808     1303.874     4906.092      718.676        0.745        0.346       87.418       20.613        0.056      333.463        2.793      851.798
01/28/2021  11:05:00       58.948      -79.388      -13.093       52.524       56.334       25.741     2758.728     3173.490      662.609        0.827        0.330       98.880       27.421        0.077      333.484        2.829      851.785
01/28/2021  11:06:00       94.178      -88.026      -18.101       39.584       53.075       30.144     1566.864     2816.924      908.645        1.112        0.265      128.911       20.116        0.024      333.456        2.783      851.741
01/28/2021  11:07:00       89.081     -108.903      -27.949       48.581       78.772       31.019     2360.087     6204.972      962.160        1.505        0.476      140.696       28.065        0.040      333.545        2.929      851.673
01/28/2021  11:08:00       86.191     -143.265      -33.203       40.013       59.961       30.397     1601.029     3595.275      923.996        1.759        0.306      167.194       30.756        0.034      333.538        2.918      851.610
01/28/2021  11:09:00       44.126      -83.419      -23.920      104.586       80.582       44.618    10938.202     6493.523     1990.809        1.445        0.971       94.370       49.811        0.279      333.462        2.791      851.601
01/28/2021  11:10:00       17.931     -115.144      -14.626       76.551       59.929       44.573     5859.998     3591.442     1986.746        1.261        0.572      116.532       34.205        0.086      333.755        3.279      851.634
01/28/2021  11:11:00       81.410     -157.107      -22.140       86.144       79.962       51.265     7420.874     6393.988     2628.110        2.412        0.822      176.947       51.716        0.085      333.589        3.001      851.669
01/28/2021  11:12:00      155.181     -250.378      -42.143       50.751      106.181       36.992     2575.704    11274.504     1368.415        5.188        0.761      294.568       29.731        0.010      333.441        2.754      851.668
01/28/2021  11:13:00      125.949     -200.823      -37.011       76.205       67.744       33.182     5807.130     4589.303     1101.013        3.453        0.575      237.051       39.327        0.028      333.521        2.888      851.686
01/28/2021  11:14:00      100.580     -122.878      -26.935       58.370       65.163       37.030     3407.073     4246.273     1371.249        1.748        0.451      158.794       35.583        0.050      333.532        2.908      851.702
01/28/2021  11:15:00      144.065     -125.172      -32.519       69.296       69.609       40.617     4801.940     4845.377     1649.756        2.439        0.565      190.847       38.464        0.041      333.495        2.844      851.700
01/28/2021  11:16:00       36.616      -91.665      -32.272       79.289       67.934       38.054     6286.818     4614.999     1448.114        1.156        0.617       98.708       31.385        0.101      333.623        3.058      851.656
01/28/2021  11:17:00       83.520     -131.232      -18.642       52.340       77.955       32.324     2739.501     6076.949     1044.832        1.720        0.493      155.556       26.530        0.029      333.558        2.951      851.616
01/28/2021  11:18:00       91.983     -112.855      -23.078       36.361       40.336       28.215     1322.115     1626.986      796.111        1.274        0.187      145.593       21.403        0.022      333.607        3.033      851.575
01/28/2021  11:19:00       43.683      -63.269      -15.392       59.760       63.099       28.984     3571.216     3981.544      840.100        0.727        0.420       76.884       22.840        0.088      333.648        3.100      851.557
01/28/2021  11:20:00       15.854       -8.961      -11.734       38.670       45.677       28.354     1495.359     2086.356      803.925        0.243        0.219       18.211        9.101        0.250      333.723        3.226      851.550
01/28/2021  11:21:00       14.854       12.089       -1.053       36.550       25.392       15.975     1335.903      644.775      255.187        0.130        0.112       19.152       13.493        0.496      333.650        3.105      851.532
01/28/2021  11:22:00       36.334      -18.253      -19.349       33.930       58.758       17.089     1151.222     3452.522      292.018        0.346        0.245       40.661        9.616        0.056      333.658        3.118      851.499
01/28/2021  11:23:00       76.042      -75.026      -20.757       29.900       37.135       19.842      893.986     1379.010      393.705        0.725        0.133      106.824       19.721        0.034      333.650        3.104      851.476
01/28/2021  11:24:00      105.015     -140.383      -35.323       55.192       54.600       22.635     3046.175     2981.137      512.340        1.926        0.327      175.316       28.408        0.026      333.649        3.101      851.477
01/28/2021  11:25:00       83.942     -184.266      -25.554       53.840       56.792       34.244     2898.701     3225.275     1172.653        2.447        0.365      202.485       34.896        0.030      333.645        3.093      851.469
01/28/2021  11:26:00       -9.219      -74.067      -17.433       70.372       57.183       19.484     4952.204     3269.881      379.611        0.724        0.430       74.638       11.206        0.023      333.795        3.345      851.500
01/28/2021  11:27:00        5.528      -30.032        0.448       29.652       48.679       25.630      879.217     2369.681      656.873        0.242        0.195       30.537       25.845        0.716      333.758        3.283      851.495
01/28/2021  11:28:00       26.543      -37.460       -2.889       64.007       50.938       37.672     4096.936     2594.671     1419.158        0.511        0.406       45.911       31.633        0.475      333.674        3.143      851.522
01/28/2021  11:29:00      -18.071      -50.700       -5.026       50.680       37.369       20.131     2568.468     1396.438      405.269        0.365        0.219       53.825       23.757        0.195      333.799        3.352      851.543
01/28/2021  11:30:00       48.086      -70.141      -24.346       65.248       34.469       14.860     4257.297     1188.119      220.808        0.674        0.283       85.042       14.766        0.030      333.812        3.373      851.533
01/28/2021  11:31:00      -39.142      -33.801       -4.755       36.858       50.961       24.580     1358.509     2597.023      604.194        0.363        0.228       51.717       27.337        0.279      333.841        3.421      851.494
01/28/2021  11:32:00      -27.936      -24.231       -8.403       56.547       35.726       26.628     3197.545     1276.339      709.043        0.331        0.259       36.980       22.337        0.365      333.770        3.302      851.450
01/28/2021  11:33:00       67.255      -39.028      -22.927       51.519       51.114       37.015     2654.258     2612.622     1370.086        0.660        0.332       77.759       29.926        0.148      333.903        3.523      851.466
01/28/2021  11:34:00      -23.686      -22.437      -23.317       98.994      102.420       37.760     9799.806    10489.810     1425.829        1.166        1.086       32.626       33.884        1.079      333.779        3.316      851.459
01/28/2021  11:35:00       22.075      -51.562        7.561       73.713       76.796       45.943     5433.652     5897.586     2110.754        0.832        0.672       56.088       39.105        0.486      333.756        3.279      851.461
01/28/2021  11:36:00      102.063     -154.694      -32.038       50.139       61.687       30.418     2513.875     3805.256      925.238        2.131        0.362      185.330       30.438        0.027      333.654        3.109      851.465
01/28/2021  11:37:00       71.125      -74.020      -27.231       79.004       88.476       40.562     6241.623     7828.048     1645.268        1.349        0.786      102.653       53.756        0.274      333.696        3.179      851.464
01/28/2021  11:38:00       64.472      -90.468      -23.343       60.216       97.498       38.184     3625.963     9505.773     1457.993        1.373        0.729      111.090       28.748        0.067      333.653        3.107      851.466
01/28/2021  11:39:00       97.660     -223.752      -37.491      109.216      124.943       44.185    11928.096    15610.756     1952.331        4.524        1.475      244.136       48.599        0.040      333.670        3.134      851.451
01/28/2021  11:40:00      137.583     -213.514      -40.733      134.852      132.382       55.675    18184.931    17525.009     3099.723        5.248        1.940      254.003       80.817        0.101      333.611        3.037      851.436
01/28/2021  11:41:00       86.833     -158.342      -32.401      113.309      121.728       64.143    12838.984    14817.659     4114.372        3.271        1.589      180.589       60.940        0.114      333.666        3.128      851.435
01/28/2021  11:42:00      165.031     -193.430      -53.525      124.105      106.384       57.872    15402.074    11317.512     3349.219        4.879        1.503      254.264       56.168        0.049      333.613        3.039      851.412
01/28/2021  11:43:00      114.367     -234.966      -35.060       97.227      111.945       55.706     9453.053    12531.756     3103.177        4.730        1.254      261.321       48.979        0.035      333.611        3.037      851.397
01/28/2021  11:44:00       18.569     -114.529      -17.318       65.718      101.496       53.116     4318.868    10301.484     2821.303        1.560        0.872      116.025       51.758        0.199      333.782        3.322      851.396
01/28/2021  11:45:00      108.241     -137.756      -47.281      143.147       85.983       55.317    20490.946     7393.039     3059.992        3.193        1.547      175.194       67.292        0.148      333.708        3.196      851.404
01/28/2021  11:46:00       30.710      -88.791      -30.281      111.516       94.291       52.545    12435.832     8890.855     2760.952        1.691        1.204       93.952       64.248        0.468      333.659        3.118      851.390
01/28/2021  11:47:00       83.540     -116.295      -23.984       86.399       66.623       38.303     7464.774     4438.581     1467.085        1.722        0.669      143.190       27.204        0.036      333.622        3.057      851.406
01/28/2021  11:48:00       80.918      -73.583      -34.757       76.038       81.114       32.814     5781.787     6579.458     1076.751        1.330        0.672      109.371       20.568        0.035      333.621        3.056      851.391
01/28/2021  11:49:00       76.315     -148.095      -41.075       90.241       98.727       46.515     8143.368     9747.036     2163.658        2.474        1.003      166.602       53.508        0.103      333.640        3.085      851.381
01/28/2021  11:50:00       89.232     -134.180      -27.423       60.251       72.013       31.905     3630.209     5185.889     1017.954        1.827        0.492      161.141       21.264        0.017      333.735        3.245      851.373
01/28/2021  11:51:00       81.413     -102.776      -26.406       74.356      136.843       44.475     5528.883    18725.980     1978.050        2.205        1.312      131.115       40.332        0.095      333.607        3.031      851.349
01/28/2021  11:52:00       86.296     -123.018      -41.854       82.545      114.007       40.395     6813.605    12997.708     1631.755        2.288        1.072      150.268       36.175        0.058      333.560        2.954      851.330
01/28/2021  11:53:00       71.918      -71.232      -24.054       61.483       96.922       55.153     3780.213     9393.864     3041.812        1.352        0.811      101.223       41.457        0.168      333.634        3.077      851.312
01/28/2021  11:54:00       57.140      -81.861      -27.825       52.178       92.243       31.097     2722.591     8508.681      967.006        1.147        0.610       99.831       33.339        0.112      333.624        3.060      851.292
01/28/2021  11:55:00       90.608     -100.788      -20.321       78.655       92.139       40.058     6186.661     8489.610     1604.613        1.753        0.814      135.529       38.325        0.080      333.612        3.041      851.292
01/28/2021  11:56:00      175.839     -273.627      -46.211       79.496      115.549       55.092     6319.685    13351.547     3035.076        6.531        1.135      325.256       50.645        0.024      333.576        2.978      851.304
01/28/2021  11:57:00      158.523     -204.737      -66.540      109.620      127.293       44.900    12016.465    16203.633     2016.031        5.085        1.512      258.934       33.204        0.016      333.575        2.974      851.297
01/28/2021  11:58:00      145.758     -251.499      -56.819       98.711       96.123       52.761     9743.895     9239.598     2783.734        5.474        1.088      290.684       36.484        0.016      333.540        2.917      851.285
01/28/2021  11:59:00      103.720     -248.335      -26.382       78.659       97.454       44.298     6187.211     9497.375     1962.357        4.538        0.882      269.125       26.436        0.010      333.635        3.076      851.289
01/28/2021  12:00:00      152.420     -199.206      -57.604       53.412      118.925       38.089     2852.851    14143.237     1450.735        4.234        0.922      250.828       18.516        0.005      333.622        3.053      851.286
01/28/2021  12:01:00       18.176      -65.424       -4.532       65.419       73.223       42.173     4279.648     5361.546     1778.531        0.802        0.571       67.902       51.412        0.573      333.667        3.132      851.254
01/28/2021  12:02:00       15.352      -37.533      -22.240       70.114       79.423       40.034     4916.018     6308.047     1602.723        0.748        0.641       40.552       37.657        0.862      333.657        3.117      851.233
01/28/2021  12:03:00      172.994     -276.027      -44.012       93.651      100.231       47.594     8770.585    10046.233     2265.183        6.456        1.054      325.757       47.551        0.021      333.519        2.883      851.209
01/28/2021  12:04:00      207.852     -312.840      -60.032       90.862      129.401       63.747     8255.907    16744.748     4063.638        8.686        1.453      375.595       59.606        0.025      333.430        2.737      851.211
01/28/2021  12:05:00      195.809     -236.493      -57.226      149.621       98.198       77.389    22386.379     9642.782     5989.072        6.777        1.901      307.034       98.491        0.103      333.488        2.832      851.226
01/28/2021  12:06:00       62.283     -194.293       -3.885       96.538      101.742       56.174     9319.525    10351.513     3155.572        3.223        1.141      204.032       50.973        0.062      333.670        3.134      851.249
01/28/2021  12:07:00       84.745     -200.565      -24.231       86.487       98.735       45.342     7480.047     9748.628     2055.940        3.364        0.964      217.734       52.359        0.058      333.604        3.024      851.263
01/28/2021  12:08:00      123.857     -103.672      -41.300      198.143      125.464       89.260    39260.770    15741.220     7967.325        4.537        3.148      161.519      118.232        0.536      333.570        2.970      851.248
01/28/2021  12:09:00      -14.320     -140.919      -27.107       82.108       70.446       42.343     6741.760     4962.638     1792.952        1.714        0.675      141.645       29.929        0.045      333.718        3.215      851.248
01/28/2021  12:10:00      140.728     -194.428      -46.636      105.316      134.569       54.945    11091.429    18108.737     3018.969        4.599        1.611      240.014       61.060        0.065      333.576        2.979      851.240
01/28/2021  12:11:00      178.108     -251.047      -55.004       86.557       88.141       43.942     7492.133     7768.780     1930.914        5.748        0.860      307.811       39.630        0.017      333.490        2.835      851.220
01/28/2021  12:12:00      -23.768      -72.825      -16.446       67.740       71.232       41.149     4588.725     5074.057     1693.269        0.875        0.568       76.605       23.686        0.096      333.704        3.194      851.231
01/28/2021  12:13:00      102.065     -115.677      -31.978       90.031      122.892       45.642     8105.597    15102.339     2083.197        2.505        1.265      154.267       46.081        0.089      333.657        3.112      851.221
01/28/2021  12:14:00       56.835     -147.926      -19.430       70.505       70.470       34.321     4970.891     4966.087     1177.926        1.830        0.556      158.469       29.365        0.034      333.582        2.990      851.229
01/28/2021  12:15:00       67.735      -50.363      -13.032       83.124       67.601       45.865     6909.672     4569.953     2103.640        1.044        0.679       84.406       40.238        0.227      333.573        2.976      851.233
01/28/2021  12:16:00       85.301     -194.798      -29.151       63.088       89.116       41.602     3980.125     7941.639     1730.697        2.986        0.683      212.656       28.364        0.018      333.555        2.944      851.173
01/28/2021  12:17:00      133.678     -183.245      -56.584       91.057      106.318       39.284     8291.321    11303.613     1543.223        3.789        1.057      226.823       35.774        0.025      333.553        2.940      851.154
01/28/2021  12:18:00       22.263     -117.317      -46.109      112.606      107.299       47.934    12680.169    11513.100     2297.649        2.143        1.325      119.411       42.170        0.125      333.585        2.995      851.124
01/28/2021  12:19:00      143.172     -214.007      -41.571      140.479      160.772       65.833    19734.243    25847.756     4333.934        5.896        2.496      257.482       91.024        0.125      333.595        3.011      851.169
01/28/2021  12:20:00       68.406     -198.180      -21.968       91.114       94.967       40.069     8301.785     9018.655     1605.499        3.168        0.946      209.654       41.433        0.039      333.625        3.060      851.177
01/28/2021  12:21:00      140.366     -147.060      -33.079      112.742      146.300       80.383    12710.779    21403.798     6461.486        4.149        2.029      203.297       69.738        0.118      333.550        2.936      851.161
01/28/2021  12:22:00      110.472      -88.687      -44.024       75.747      116.213       48.207     5737.663    13505.394     2323.937        2.178        1.078      141.666       32.213        0.052      333.554        2.943      851.166
01/28/2021  12:23:00       20.248     -240.966      -25.439      144.709      143.789       72.619    20940.663    20675.190     5273.463        5.300        2.344      241.815       70.368        0.085      333.668        3.131      851.127
01/28/2021  12:24:00       87.208     -120.692      -37.639       99.806      126.336       49.511     9961.303    15960.865     2451.293        2.597        1.419      148.902       37.932        0.065      333.650        3.103      851.091
01/28/2021  12:25:00        2.166      -58.175       -9.592       73.403       72.113       34.398     5387.929     5200.292     1183.256        0.762        0.589       58.215       30.035        0.266      333.698        3.183      851.063
01/28/2021  12:26:00       86.109     -144.389      -32.951       84.839      132.938       51.121     7197.621    17672.615     2613.336        2.841        1.374      168.116       54.653        0.106      333.633        3.073      851.071
01/28/2021  12:27:00      107.816     -236.528      -35.051       96.386      140.639       57.249     9290.219    19779.269     3277.501        5.057        1.617      259.942       53.667        0.043      333.548        2.933      851.065
01/28/2021  12:28:00      195.823     -420.830      -69.069       90.057       94.556       57.953     8110.327     8940.837     3358.547       12.031        1.020      464.160       17.445        0.001      333.545        2.926      851.075
01/28/2021  12:29:00      135.247     -258.982      -32.424       97.956      168.101       68.155     9595.309    28257.798     4645.160        6.445        2.125      292.171       55.569        0.036      333.635        3.078      851.098
01/28/2021  12:30:00      109.631     -206.899      -26.600      131.966      142.598       84.585    17414.917    20334.198     7154.556        5.021        2.245      234.150       87.715        0.140      333.591        3.003      851.039
01/28/2021  12:31:00       16.163      -55.401      -27.864       82.006       94.717       46.207     6724.975     8971.280     2135.104        1.097        0.892       57.711       45.385        0.618      333.579        2.987      851.038
01/28/2021  12:32:00       47.642     -216.287       -2.964      100.645      109.099       55.639    10129.380    11902.672     3095.643        3.709        1.256      221.472       53.388        0.058      333.682        3.154      851.045
01/28/2021  12:33:00       -4.725     -103.490       -5.369      129.031      160.495       60.476    16648.964    25758.660     3657.377        2.840        2.303      103.598       33.864        0.107      333.665        3.128      851.056
01/28/2021  12:34:00       42.416     -179.054       -8.335      111.390      154.655       52.478    12407.704    23918.151     2753.938        3.650        1.954      184.010       58.763        0.102      333.681        3.153      851.066
01/28/2021  12:35:00       58.986      -51.078      -24.786      101.276       83.817       44.789    10256.765     7025.320     2006.024        1.299        0.964       78.028       54.888        0.495      333.709        3.202      851.080
01/28/2021  12:36:00      129.973     -250.545      -34.433       88.515       99.315       56.425     7834.870     9863.389     3183.747        5.086        1.044      282.251       56.395        0.040      333.596        3.011      851.059
01/28/2021  12:37:00      119.203     -180.243      -34.576       70.145       85.646       47.569     4920.368     7335.231     2262.793        3.120        0.726      216.095       40.016        0.034      333.632        3.071      851.024
01/28/2021  12:38:00      -80.632     -117.031       -5.539      116.588       80.265       60.760    13592.650     6442.469     3691.766        2.197        1.186      142.119       55.083        0.150      333.697        3.181      851.046
01/28/2021  12:39:00        8.183     -110.603       -8.096       99.210       92.715       57.952     9842.564     8596.117     3358.443        1.708        1.090      110.905       54.741        0.244      333.788        3.331      851.023
01/28/2021  12:40:00       83.654      -44.952      -15.446       72.133       93.308       40.425     5203.200     8706.414     1634.165        1.240        0.777       94.967       24.049        0.064      333.706        3.196      851.021
01/28/2021  12:41:00      147.088     -213.226      -39.129       87.621       93.235       49.914     7677.502     8692.788     2491.362        4.374        0.943      259.038       46.072        0.032      333.569        2.966      850.991
01/28/2021  12:42:00       47.638     -203.050      -40.823      130.143      117.556       46.929    16937.308    13819.393     2202.286        3.906        1.648      208.564       45.234        0.047      333.576        2.979      851.000
01/28/2021  12:43:00       18.681      -57.287      -25.273       71.222      132.251       46.990     5072.508    17490.313     2208.107        1.451        1.239       60.256       54.390        0.815      333.669        3.136      850.992
01/28/2021  12:44:00      135.387     -191.890      -22.825       92.185       98.247       50.390     8498.119     9652.475     2539.115        3.818        1.034      234.844       45.126        0.037      333.584        2.992      850.957
01/28/2021  12:45:00       72.304     -115.722      -34.386       80.702       90.449       40.489     6512.771     8181.059     1639.353        1.806        0.817      136.453       39.932        0.086      333.626        3.062      850.917
01/28/2021  12:46:00      108.192     -158.092      -36.674       71.194       75.275       50.664     5068.556     5666.363     2566.861        2.567        0.665      191.569       45.340        0.056      333.594        3.010      850.898
01/28/2021  12:47:00        0.185      -14.818        3.535       52.254       62.804       30.172     2730.442     3944.330      910.367        0.391        0.379       14.819       31.581        4.542      333.754        3.277      850.888
01/28/2021  12:48:00       53.917      -71.860      -24.713       74.635       98.611       43.949     5570.359     9724.082     1931.481        1.295        0.861       89.838       26.194        0.085      333.715        3.210      850.882
01/28/2021  12:49:00      119.905     -173.176      -31.321       56.065       49.186       34.531     3143.295     2419.246     1192.407        2.605        0.338      210.635       32.183        0.023      333.654        3.108      850.899
01/28/2021  12:50:00      117.865     -199.759      -41.874       98.935       81.505       59.303     9788.206     6643.056     3516.822        3.774        0.997      231.939       47.897        0.043      333.643        3.090      850.888
01/28/2021  12:51:00      121.564     -218.150      -26.233       57.332      120.912       42.091     3286.929    14619.690     1771.615        4.136        0.984      249.734       28.870        0.013      333.584        2.991      850.887
01/28/2021  12:52:00      112.163     -144.770      -23.007       86.303       78.948       47.755     7448.157     6232.829     2280.554        2.501        0.798      183.137       52.337        0.082      333.666        3.129      850.899
01/28/2021  12:53:00      144.627     -216.621      -47.852       78.842      135.194       38.141     6216.003    18277.352     1454.716        4.803        1.297      260.464       41.775        0.026      333.593        3.007      850.893
01/28/2021  12:54:00      142.761     -326.985      -43.576      148.395       85.356       74.826    22021.037     7285.614     5598.964        8.204        1.745      356.791       86.930        0.059      333.665        3.127      850.886
01/28/2021  12:55:00      136.207     -186.732      -31.763       56.995       86.684       42.631     3248.455     7514.171     1817.414        3.350        0.629      231.130       29.625        0.016      333.592        3.006      850.877
01/28/2021  12:56:00       99.987     -134.905      -43.345       60.337       84.332       46.767     3640.607     7111.931     2187.147        2.150        0.647      167.919       27.376        0.027      333.736        3.244      850.887
01/28/2021  12:57:00       75.979     -187.001      -34.523       81.516       67.183       39.631     6644.840     4513.566     1570.591        2.733        0.636      201.847       38.843        0.037      333.808        3.363      850.874
01/28/2021  12:58:00      -20.646     -107.252       -9.429      102.473       70.019       44.478    10500.808     4902.634     1978.263        1.470        0.869      109.221       39.088        0.128      333.973        3.639      850.872
01/28/2021  12:59:00       50.730      -62.569      -18.538       75.047       86.109       49.780     5632.026     7414.843     2478.068        1.118        0.776       80.551       46.999        0.340      333.798        3.348      850.831
01/28/2021  13:00:00       60.657      -95.053       -9.401       56.831       85.860       34.165     3229.742     7372.019     1167.220        1.228        0.588      112.758       34.767        0.095      333.799        3.350      850.814
01/28/2021  13:01:00       94.865     -131.638      -24.785       66.363       97.980       38.722     4404.001     9600.011     1499.410        2.122        0.775      162.259       37.433        0.053      333.665        3.126      850.797
01/28/2021  13:02:00      110.180     -104.080      -21.960      195.949       99.618       88.871    38396.013     9923.679     7898.105        3.982        2.811      151.565      123.908        0.668      333.723        3.225      850.795
01/28/2021  13:03:00      -74.457      -50.727      -11.348       71.707       61.925       32.701     5141.926     3834.692     1069.380        0.914        0.502       90.095       28.848        0.103      333.971        3.636      850.812
01/28/2021  13:04:00       96.167      -70.528      -13.028      194.579       64.057       94.037    37860.805     4103.357     8843.039        3.259        2.540      119.257      130.808        1.203      333.927        3.563      850.810
01/28/2021  13:05:00        8.289      -97.171      -41.701       84.441       61.062       31.250     7130.331     3728.614      976.587        1.154        0.592       97.524       29.789        0.093      333.810        3.367      850.787
01/28/2021  13:06:00       65.767      -52.357      -26.270      175.821       74.518       85.940    30913.140     5552.997     7385.684        2.579        2.193       84.063      116.732        1.928      333.983        3.657      850.770
01/28/2021  13:07:00        2.263     -118.865      -22.876      115.544       94.170       48.764    13350.429     8867.987     2377.958        1.962        1.230      118.887       50.921        0.183      333.896        3.509      850.763
01/28/2021  13:08:00       23.664     -136.004       -0.256       97.983       94.160       38.429     9600.748     8866.158     1476.751        1.950        0.997      138.047       34.212        0.061      333.996        3.675      850.782
01/28/2021  13:09:00      113.860     -178.029      -27.535       63.334       78.092       45.586     4011.141     6098.310     2078.052        2.880        0.609      211.325       29.672        0.020      333.801        3.352      850.803
01/28/2021  13:10:00       62.014     -203.103      -30.508      112.877      104.631       54.395    12741.260    10947.664     2958.808        3.633        1.332      212.360       58.160        0.075      333.937        3.578      850.826
01/28/2021  13:11:00       13.512      -46.450        0.218       84.617      107.522       41.401     7159.990    11561.085     1714.084        1.138        1.022       48.376       41.820        0.747      333.964        3.624      850.820
01/28/2021  13:12:00       61.471      -97.848      -30.715       83.871       91.723       42.519     7034.416     8413.046     1807.833        1.577        0.863      115.555       42.652        0.136      333.895        3.508      850.814
01/28/2021  13:13:00      -80.492     -157.280      -12.398       77.782      126.276       62.200     6049.967    15945.636     3868.786        2.861        1.293      176.681       68.092        0.149      333.981        3.651      850.818
01/28/2021  13:14:00       39.426      -87.870      -20.868       65.308       80.954       42.592     4265.101     6553.590     1814.054        1.117        0.632       96.309       31.371        0.106      334.007        3.694      850.826
01/28/2021  13:15:00      145.064     -295.498      -45.645      101.940      152.466       63.855    10391.782    23245.961     4077.433        7.407        1.886      329.185       52.691        0.026      333.825        3.391      850.836
01/28/2021  13:16:00      165.961     -328.843      -57.053       84.077      106.745       47.077     7068.974    11394.429     2216.235        7.980        1.034      368.349       31.724        0.007      333.725        3.223      850.791
01/28/2021  13:17:00       53.924     -218.044      -32.623      128.456      151.479       50.422    16500.852    22945.761     2542.331        4.674        2.099      224.613       58.664        0.068      333.782        3.320      850.771
01/28/2021  13:18:00      -70.845     -160.395      -26.980      111.959      131.171       59.330    12534.752    17205.845     3520.098        3.236        1.663      175.344       54.611        0.097      333.890        3.501      850.776
01/28/2021  13:19:00      -14.155     -198.165      -22.990      126.296       88.326       70.353    15950.639     7801.557     4949.508        3.434        1.435      198.670       55.173        0.077      333.910        3.533      850.766
01/28/2021  13:20:00       30.543      -78.169       -7.942       83.966      104.871       43.331     7050.348    10997.947     1877.538        1.351        0.996       83.924       47.273        0.317      333.837        3.411      850.769
01/28/2021  13:21:00       57.652     -193.868      -38.476       79.481       79.393       43.478     6317.287     6303.233     1890.304        2.845        0.726      202.258       28.970        0.021      333.852        3.436      850.748
01/28/2021  13:22:00       32.063      -47.645      -11.805       60.124       58.746       39.652     3614.935     3451.118     1572.277        0.604        0.432       57.429       38.397        0.447      333.830        3.402      850.720
01/28/2021  13:23:00       61.038      -72.001      -12.702       52.698       80.920       44.354     2777.059     6548.113     1967.264        1.018        0.565       94.392       36.714        0.151      333.795        3.344      850.696
01/28/2021  13:24:00      -24.658     -124.973      -23.017       84.871       88.244       44.121     7203.135     7786.927     1946.623        1.684        0.847      127.383       40.724        0.102      333.930        3.569      850.703
01/28/2021  13:25:00       96.263     -171.473      -33.426       89.813       88.650       41.738     8066.362     7858.900     1742.067        2.872        0.883      196.645       45.832        0.054      333.727        3.228      850.731
01/28/2021  13:26:00      -71.974      -19.454      -11.497       46.423       65.837       27.514     2155.114     4334.548      756.997        0.647        0.362       74.557       32.950        0.195      333.919        3.551      850.767
01/28/2021  13:27:00      -21.947      -84.949      -16.227       74.833       66.831       44.852     5600.019     4466.385     2011.714        1.002        0.604       87.738       37.021        0.178      333.939        3.584      850.782
01/28/2021  13:28:00        1.940     -139.873       -3.640       73.519       88.449       47.596     5405.018     7823.222     2265.355        1.753        0.775      139.887       44.443        0.101      334.035        3.740      850.770
01/28/2021  13:29:00      -17.184     -141.581      -11.564      108.222      106.527       54.036    11712.106    11348.075     2919.942        2.322        1.299      142.620       46.916        0.108      333.964        3.624      850.730
01/28/2021  13:30:00       31.683     -107.537      -21.282      108.482      132.434       55.317    11768.403    17538.723     3059.940        2.269        1.618      112.107       30.346        0.073      333.915        3.542      850.702
01/28/2021  13:31:00      -62.130      -80.573      -10.079       77.424       83.002       26.197     5994.544     6889.377      686.275        1.201        0.679      101.745       25.648        0.064      333.938        3.579      850.706
01/28/2021  13:32:00       13.501      -59.221       -5.091       70.961       63.048       38.728     5035.406     3975.099     1499.868        0.711        0.526       60.741       43.579        0.515      333.997        3.680      850.711
01/28/2021  13:33:00      -61.835     -171.226      -24.988      126.577      106.794       48.104    16021.639    11404.873     2314.019        3.175        1.487      182.049       36.434        0.040      333.915        3.540      850.702
01/28/2021  13:34:00       14.605     -105.069      -25.547       61.272       74.318       48.624     3754.272     5523.125     2364.253        1.177        0.582      106.079       42.697        0.162      334.040        3.750      850.692
01/28/2021  13:35:00      -42.174      -85.539      -20.709       84.979       67.797       36.671     7221.470     4596.466     1344.797        1.134        0.658       95.371       35.606        0.139      334.037        3.746      850.681
01/28/2021  13:36:00      -50.264      -96.242      -21.529       82.254       79.122       39.593     6765.793     6260.227     1567.643        1.342        0.730      108.577       36.282        0.112      334.044        3.756      850.669
01/28/2021  13:37:00      -41.326      -84.834      -11.336       69.681      103.053       38.850     4855.416    10619.998     1509.308        1.301        0.849       94.364       24.890        0.070      334.023        3.721      850.650
01/28/2021  13:38:00       14.506      -77.939      -32.219       75.423      103.001       30.058     5688.584    10609.302      903.507        1.226        0.860       79.277       17.358        0.048      333.965        3.625      850.663
01/28/2021  13:39:00      -47.940      -69.987      -19.044       73.865       57.542       42.982     5456.098     3311.061     1847.450        0.908        0.531       84.831       34.195        0.162      334.061        3.786      850.691
01/28/2021  13:40:00       30.586      -49.572      -18.283      113.863       89.070       46.123    12964.863     7933.465     2127.299        1.337        1.151       58.249       48.901        0.705      333.918        3.548      850.693
01/28/2021  13:41:00      -35.142     -157.371      -33.933      105.699       84.388       36.550    11172.182     7121.400     1335.915        2.339        0.981      161.247       25.458        0.025      333.939        3.582      850.678
01/28/2021  13:42:00       -3.047      -85.809      -20.639      106.633       53.836       41.693    11370.531     2898.357     1738.334        1.190        0.800       85.863       30.967        0.130      334.081        3.819      850.689
01/28/2021  13:43:00       69.033      -33.284      -19.351       80.077       52.309       36.578     6412.339     2736.215     1337.959        0.836        0.524       76.638       22.188        0.084      333.955        3.610      850.643
01/28/2021  13:44:00      -35.734      -25.861        2.436       42.208       48.241       28.314     1781.517     2327.183      801.682        0.343        0.246       44.110       17.045        0.149      334.073        3.805      850.614
01/28/2021  13:45:00        7.213      -52.840      -10.149       43.267       52.620       35.225     1872.007     2768.886     1240.791        0.441        0.294       53.330       23.243        0.190      334.099        3.849      850.603
01/28/2021  13:46:00      -28.609      -28.845       -7.941       55.200       49.518       24.708     3047.059     2452.054      610.473        0.391        0.305       40.626       11.500        0.080      334.097        3.845      850.577
01/28/2021  13:47:00      -15.140       -1.583       -6.843       31.068       24.526       11.267      965.234      601.511      126.935        0.099        0.085       15.223       11.667        0.587      334.027        3.728      850.596
01/28/2021  13:48:00        9.130        9.049      -19.620       52.465       46.323       29.745     2752.567     2145.803      884.762        0.317        0.289       12.855       26.617        4.287      333.968        3.630      850.600
01/28/2021  13:49:00       22.160      -61.882      -20.465       62.909       50.109       38.632     3957.575     2510.923     1492.417        0.635        0.398       65.730       17.626        0.072      333.863        3.457      850.619
01/28/2021  13:50:00        3.401      -11.939      -14.170       40.187       53.601       21.017     1615.031     2873.024      441.699        0.264        0.246       12.414       11.910        0.921      333.961        3.620      850.635
01/28/2021  13:51:00       32.570      -25.804      -15.685       38.037       57.026       32.872     1446.841     3251.946     1080.548        0.387        0.289       41.553       23.455        0.319      334.000        3.683      850.618
01/28/2021  13:52:00      -15.241      -77.244      -19.853       72.972       40.163       24.210     5324.924     1613.104      586.118        0.706        0.376       78.733       19.990        0.064      334.072        3.804      850.596
01/28/2021  13:53:00       25.787      -17.575       16.905       41.481       40.781       30.200     1720.692     1663.085      912.037        0.278        0.215       31.207       20.118        0.416      333.930        3.569      850.550
01/28/2021  13:54:00      -19.437      -30.486      -15.533       37.631       75.859       29.003     1416.112     5754.569      841.203        0.478        0.401       36.156       39.557        1.197      334.013        3.705      850.559
01/28/2021  13:55:00       73.356     -205.232      -22.028      112.803       93.452       59.173    12724.486     8733.360     3501.435        3.647        1.248      217.947       37.912        0.030      333.978        3.645      850.566
01/28/2021  13:56:00      -16.403      -43.766        1.097       61.818       57.294       37.963     3821.476     3282.584     1441.215        0.536        0.427       46.739       28.531        0.373      334.093        3.838      850.573
01/28/2021  13:57:00       24.437      -79.917      -15.254       57.704       48.683       35.182     3329.791     2370.044     1237.788        0.708        0.347       83.570       26.197        0.098      334.021        3.719      850.579
01/28/2021  13:58:00       10.541      -80.327       -6.438       65.710       46.941       42.166     4317.763     2203.461     1777.967        0.745        0.415       81.016       37.645        0.216      334.063        3.788      850.595
01/28/2021  13:59:00       62.771      -69.620       -8.579       59.040       67.360       25.349     3485.770     4537.410      642.574        0.876        0.433       93.739       30.993        0.109      333.820        3.385      850.578
01/28/2021  14:00:00       79.970      -24.131      -25.242       72.028       87.198       36.272     5187.971     7603.429     1315.659        1.086        0.705       83.532       28.068        0.113      333.908        3.531      850.577
01/28/2021  14:01:00       11.596     -128.236      -14.241      108.643       80.700       56.166    11803.264     6512.446     3154.611        1.912        1.074      128.759       58.045        0.203      334.027        3.728      850.576
01/28/2021  14:02:00      -40.544      -30.654       -8.722       46.706       48.169       34.679     2181.437     2320.299     1202.659        0.418        0.285       50.828       12.549        0.061      334.127        3.893      850.555
01/28/2021  14:03:00      -72.304      -43.903       -5.268       71.161       63.101       35.428     5063.892     3981.737     1255.168        0.874        0.515       84.589       31.472        0.138      333.938        3.582      850.558
01/28/2021  14:04:00       -1.812      -18.819      -13.810       48.744       49.466       26.144     2375.987     2446.914      683.524        0.303        0.275       18.906       24.425        1.669      334.041        3.753      850.568
01/28/2021  14:05:00      -60.698        0.242       -8.124       39.971       30.414       20.213     1597.646      925.029      408.577        0.334        0.147       60.699       12.551        0.043      333.960        3.620      850.552
01/28/2021  14:06:00      -17.360      -13.674       -7.064       35.452       21.402       20.853     1256.845      458.045      434.848        0.134        0.107       22.099       18.645        0.712      334.038        3.746      850.549
01/28/2021  14:07:00      -31.479       18.380       -0.770       48.866       44.165       29.582     2387.839     1950.551      875.068        0.327        0.261       36.452       15.716        0.186      334.032        3.736      850.538
01/28/2021  14:08:00       48.557      -55.446      -16.210       55.101       66.015       33.628     3036.143     4358.007     1130.858        0.711        0.426       73.703       35.467        0.232      334.071        3.801      850.542
01/28/2021  14:09:00       51.947     -108.753      -24.470      126.941      134.646       47.557    16113.936    18129.440     2261.689        2.581        1.825      120.523       25.142        0.044      333.854        3.441      850.505
01/28/2021  14:10:00      -22.426      -68.267        6.452       68.939       52.370       43.741     4752.561     2742.627     1913.257        0.730        0.470       71.856       28.232        0.154      334.064        3.791      850.519
01/28/2021  14:11:00      -78.359     -137.807      -17.490       64.185       62.823       45.434     4119.712     3946.701     2064.217        1.778        0.507      158.527       37.063        0.055      334.021        3.719      850.514
01/28/2021  14:12:00      -28.519      -10.027       -0.023       38.893       45.096       20.239     1512.704     2033.616      409.636        0.243        0.198       30.231       24.172        0.639      333.947        3.597      850.511
01/28/2021  14:13:00       -5.742      -15.005        4.639       53.324       45.772       27.352     2843.495     2095.071      748.128        0.298        0.284       16.066       19.735        1.509      334.264        4.121      850.529
01/28/2021  14:14:00      -32.254      -64.068      -10.733       80.893       58.641       30.900     6543.673     3438.781      954.805        0.810        0.547       71.729       27.630        0.148      334.090        3.833      850.518
01/28/2021  14:15:00        6.086      -71.449        3.624       82.172       60.168       40.831     6752.163     3620.143     1667.202        0.859        0.602       71.708       31.752        0.196      334.130        3.898      850.570
01/28/2021  14:16:00        9.352     -116.297      -21.146      106.053      122.440       42.009    11247.247    14991.511     1764.789        2.103        1.400      116.672       23.863        0.042      333.970        3.635      850.590
01/28/2021  14:17:00     -104.671      -81.232       -8.121       75.753       89.933       43.289     5738.532     8087.989     1873.957        1.666        0.785      132.494       38.210        0.083      334.012        3.702      850.620
01/28/2021  14:18:00      -66.794      -86.229      -10.687       70.164       84.459       39.198     4923.009     7133.256     1536.507        1.280        0.680      109.073       37.041        0.115      334.041        3.751      850.655
01/28/2021  14:19:00      -16.704      -69.718      -15.202       64.649       62.620       38.139     4179.496     3921.311     1454.559        0.746        0.478       71.691       28.144        0.154      334.002        3.689      850.634
01/28/2021  14:20:00      -16.100      -51.613      -18.655       38.003       39.204       22.769     1444.200     1536.974      518.442        0.338        0.175       54.066       10.085        0.035      334.172        3.969      850.601
01/28/2021  14:21:00      -50.512      -75.131       -9.243       59.255       39.777       32.858     3511.192     1582.184     1079.618        0.723        0.309       90.533       22.445        0.061      334.178        3.980      850.599
01/28/2021  14:22:00        9.732      -30.777       -9.114       81.679       65.406       35.774     6671.540     4277.938     1279.807        0.667        0.611       32.279       21.541        0.445      334.129        3.897      850.575
01/28/2021  14:23:00       40.573     -169.788      -25.308      113.736      103.999       55.047    12935.850    10815.837     3030.145        2.894        1.339      174.569       60.667        0.121      334.003        3.687      850.568
01/28/2021  14:24:00        9.373     -107.927      -18.702      109.959       75.654       53.008    12090.974     5723.544     2809.872        1.635        1.031      108.333       49.145        0.206      334.159        3.948      850.589
01/28/2021  14:25:00      -56.364      -15.900        7.553       64.209       49.332       29.703     4122.780     2433.599      882.240        0.546        0.372       58.564       21.969        0.141      334.170        3.966      850.580
01/28/2021  14:26:00      -39.109      -72.220      -11.266       74.737       97.038       40.353     5585.643     9416.293     1628.347        1.175        0.832       82.130       39.406        0.230      334.199        4.015      850.608
01/28/2021  14:27:00      -40.010      -27.242       -6.869       42.057       41.677       26.618     1768.750     1736.972      708.499        0.330        0.211       48.404       20.309        0.176      334.131        3.901      850.630
01/28/2021  14:28:00      -81.270     -140.051      -22.033      153.086      102.536       54.415    23435.390    10513.700     2961.005        3.180        1.846      161.923       36.066        0.050      334.172        3.966      850.624
01/28/2021  14:29:00      -92.027     -213.254      -30.079      102.010      103.516       55.554    10406.067    10715.663     3086.216        3.952        1.210      232.263       43.109        0.034      334.135        3.904      850.600
01/28/2021  14:30:00      -67.264     -121.469      -17.897       95.102      104.157       57.305     9044.378    10848.726     3283.906        2.138        1.159      138.849       53.020        0.146      334.111        3.867      850.618
01/28/2021  14:31:00      102.596     -199.427      -45.158      112.992       99.185       65.132    12767.240     9837.642     4242.223        3.959        1.342      224.270       57.457        0.066      334.006        3.691      850.608
01/28/2021  14:32:00      -33.382      -43.436       -9.528       50.490       49.058       32.424     2549.228     2406.736     1051.292        0.455        0.300       54.781       25.233        0.212      334.107        3.861      850.625
01/28/2021  14:33:00      -25.844     -107.601       -1.629      125.183      121.544       43.422    15670.673    14772.913     1885.507        2.228        1.616      110.661       31.640        0.082      334.133        3.902      850.658
01/28/2021  14:34:00      -74.461     -108.440      -19.663      121.016       82.036       51.368    14644.920     6729.858     2638.704        2.085        1.201      131.544       44.771        0.116      334.106        3.857      850.625
01/28/2021  14:35:00      -89.892     -223.534      -35.569      138.465      136.429       52.958    19172.514    18613.000     2804.531        4.994        2.030      240.932       48.937        0.041      334.079        3.813      850.640
01/28/2021  14:36:00     -124.334     -210.148      -29.405      115.055      117.705       49.557    13237.556    13854.413     2455.926        4.501        1.477      244.175       42.620        0.030      334.060        3.779      850.622
01/28/2021  14:37:00      -80.794     -113.607      -42.255      146.846       98.347       42.591    21563.774     9672.204     1813.988        2.713        1.652      139.407       23.246        0.028      334.053        3.771      850.607
01/28/2021  14:38:00      -79.819      -34.483        0.662       98.838       79.712       51.687     9769.004     6353.989     2671.566        1.317        0.940       86.949       34.085        0.154      334.014        3.705      850.613
01/28/2021  14:39:00       -1.311      -50.991      -26.654       66.074       57.308       40.523     4365.717     3284.187     1642.132        0.630        0.465       51.008       24.551        0.232      334.022        3.721      850.607
01/28/2021  14:40:00      -20.547      -51.186      -11.107       77.758       76.127       30.640     6046.321     5795.328      938.810        0.797        0.639       55.156       32.042        0.337      334.198        4.014      850.630
01/28/2021  14:41:00      -48.195      -67.660      -15.429       93.582       64.250       40.322     8757.613     4128.106     1625.882        1.082        0.726       83.070       34.403        0.172      334.147        3.927      850.625
01/28/2021  14:42:00        2.381     -115.399      -19.683      116.366       61.934       45.571    13541.130     3835.873     2076.682        1.658        0.973      115.424       35.166        0.093      334.143        3.921      850.644
01/28/2021  14:43:00      -27.992     -165.394      -42.391      138.931       80.304       43.386    19301.938     6448.746     1882.335        2.878        1.382      167.746       37.411        0.050      334.080        3.812      850.638
01/28/2021  14:44:00       -9.695     -102.411      -41.026      136.152      102.367       50.232    18537.374    10478.955     2523.238        2.190        1.577      102.869       52.015        0.256      334.023        3.720      850.613
01/28/2021  14:45:00      -15.064      -34.345      -19.738       49.785       40.847       32.001     2478.533     1668.440     1024.069        0.348        0.259       37.503       19.634        0.274      334.034        3.741      850.649
01/28/2021  14:46:00      -19.112     -115.412      -32.504      117.134       84.075       48.567    13720.368     7068.627     2358.767        1.894        1.157      116.983       33.459        0.082      334.088        3.829      850.664
01/28/2021  14:47:00       69.183     -124.108      -26.414      118.491       93.268       48.847    14040.061     8699.003     2386.030        2.300        1.256      142.088       51.411        0.131      334.037        3.743      850.689
01/28/2021  14:48:00      -57.583     -163.976      -25.633       96.646      102.847       62.440     9340.376    10577.427     3898.746        2.733        1.191      173.793       44.761        0.066      334.097        3.841      850.707
01/28/2021  14:49:00        9.130      -44.558       -1.095       59.175       83.844       48.603     3501.650     7029.866     2362.273        0.748        0.645       45.484       46.546        1.047      334.040        3.750      850.697
01/28/2021  14:50:00      -61.844      -62.143       -4.966       76.132       46.699       39.097     5796.037     2180.804     1528.539        0.861        0.475       87.672       19.836        0.051      334.006        3.693      850.712
01/28/2021  14:51:00       -6.571      -69.788      -24.593       86.660       74.445       39.895     7509.997     5541.992     1591.596        1.008        0.732       70.097       39.782        0.322      334.037        3.746      850.709
01/28/2021  14:52:00       56.789      -54.686      -18.363      116.007       85.526       43.083    13457.717     7314.671     1856.111        1.459        1.131       78.839       40.509        0.264      333.953        3.606      850.673
01/28/2021  14:53:00       15.290      -79.910      -22.124       83.644       71.854       43.461     6996.363     5162.971     1888.875        1.058        0.702       81.360       19.934        0.060      334.014        3.705      850.664
01/28/2021  14:54:00       45.208     -262.120      -49.881      128.843       95.298       61.469    16600.482     9081.758     3778.486        5.134        1.473      265.990       55.816        0.044      333.940        3.582      850.654
01/28/2021  14:55:00      -13.499     -164.935      -34.938      115.435       95.081       56.824    13325.213     9040.484     3228.956        2.710        1.280      165.486       43.496        0.069      334.031        3.734      850.633
01/28/2021  14:56:00        8.139      -80.839      -25.369       94.941       63.049       39.413     9013.771     3975.141     1553.389        1.089        0.727       81.248       33.428        0.169      333.974        3.641      850.634
01/28/2021  14:57:00       -0.345      -31.169      -10.749       75.535       68.632       29.868     5705.465     4710.383      892.084        0.620        0.565       31.171       23.696        0.578      333.984        3.658      850.640
01/28/2021  14:58:00       25.032     -106.475        0.853       67.334       76.718       38.587     4533.905     5885.703     1488.972        1.193        0.595      109.378       37.456        0.117      334.049        3.763      850.647
01/28/2021  14:59:00       14.571      -87.801      -19.777       61.520       67.091       38.718     3784.723     4501.221     1499.091        0.905        0.489       89.002       32.177        0.131      334.068        3.798      850.654
01/28/2021  15:00:00      -19.188      -29.711      -18.817       54.272       38.800       26.964     2945.472     1505.459      727.076        0.339        0.259       35.369       12.856        0.132      334.033        3.740      850.664
01/28/2021  15:01:00      -82.720     -118.414      -21.155       59.829       95.194       33.654     3579.455     9061.917     1132.624        1.754        0.689      144.446       16.304        0.013      333.973        3.639      850.690
01/28/2021  15:02:00      -36.417      -47.852       -6.241       84.433       63.466       34.785     7128.964     4027.905     1209.993        0.801        0.618       60.134       32.137        0.286      333.914        3.543      850.705
01/28/2021  15:03:00      -11.337     -101.877      -36.142       84.828       66.329       34.474     7195.719     4399.507     1188.428        1.230        0.639      102.506       28.435        0.077      334.094        3.838      850.738
01/28/2021  15:04:00      -68.018     -158.908      -29.680      112.533       86.555       49.023    12663.732     7491.764     2403.256        2.665        1.128      172.853       30.177        0.030      334.065        3.790      850.759
01/28/2021  15:05:00      -90.790     -131.280      -28.073       59.764       54.303       36.887     3571.751     2948.848     1360.619        1.707        0.394      159.616       18.912        0.014      334.123        3.887      850.759
01/28/2021  15:06:00      -37.977      -80.948      -10.700       60.064       62.052       41.817     3607.657     3850.436     1748.692        0.866        0.460       89.414       21.778        0.059      334.098        3.846      850.738
01/28/2021  15:07:00      -44.769     -126.659      -19.497       83.938       64.991       31.238     7045.525     4223.876      975.843        1.533        0.612      134.338       30.339        0.051      334.077        3.810      850.700
01/28/2021  15:08:00      -14.004      -77.847      -27.959       68.735       67.214       32.151     4724.474     4517.723     1033.678        0.865        0.514       79.096       29.810        0.142      334.090        3.835      850.699
01/28/2021  15:09:00       57.722      -54.635      -12.448       48.124       45.730       27.613     2315.882     2091.238      762.493        0.582        0.258       79.478       21.632        0.074      334.062        3.787      850.731
01/28/2021  15:10:00       88.543     -105.752      -15.288       79.370      110.962       43.050     6299.574    12312.640     1853.273        1.986        1.023      137.925       57.858        0.176      334.019        3.713      850.744
01/28/2021  15:11:00       66.848     -229.477      -26.764      110.518       91.849       59.274    12214.128     8436.256     3513.402        4.100        1.208      239.016       53.893        0.051      334.032        3.733      850.722
01/28/2021  15:12:00     -121.013     -139.160      -31.286       60.272       81.332       35.962     3632.720     6614.951     1293.268        2.326        0.577      184.418       29.975        0.026      334.042        3.752      850.735
01/28/2021  15:13:00      -33.489      -76.949      -22.604       58.737       39.517       24.020     3450.025     1561.571      576.949        0.657        0.279       83.920       26.864        0.102      334.079        3.816      850.721
01/28/2021  15:14:00      -49.234      -67.416       -0.386       52.397       69.538       33.941     2745.483     4835.586     1151.997        0.785        0.437       83.480       29.790        0.127      334.088        3.831      850.740
01/28/2021  15:15:00      -30.191      -88.274      -23.079       50.253       46.915       34.519     2525.329     2201.060     1191.572        0.758        0.296       93.294       23.959        0.066      334.115        3.873      850.722
01/28/2021  15:16:00      -43.712      -26.860       -4.725       87.032       62.414       38.214     7574.512     3895.451     1460.331        0.779        0.647       51.305       35.846        0.488      334.085        3.824      850.719
01/28/2021  15:17:00      -53.140      -93.294      -24.866       73.279       79.035       43.500     5369.850     6246.566     1892.222        1.282        0.675      107.366       35.541        0.110      334.160        3.949      850.740
01/28/2021  15:18:00       27.356     -160.044      -39.554      136.570      120.929       40.678    18651.488    14623.859     1654.738        3.142        1.747      162.365       22.195        0.019      334.172        3.966      850.737
01/28/2021  15:19:00       70.215      -41.870      -25.399       72.879       74.118       38.268     5311.407     5493.526     1464.414        0.980        0.613       81.751       35.099        0.184      334.019        3.715      850.734
01/28/2021  15:20:00       69.627     -137.368      -30.055      108.823       93.752       42.766    11842.491     8789.414     1828.937        2.354        1.123      154.006       48.393        0.099      333.999        3.682      850.729
01/28/2021  15:21:00      111.519     -144.622      -33.824       83.969       77.167       43.707     7050.739     5954.774     1910.327        2.470        0.746      182.625       48.785        0.071      334.022        3.719      850.746
01/28/2021  15:22:00       94.150     -150.980      -40.883      117.238      112.335       46.837    13744.798    12619.231     2193.736        3.094        1.428      177.930       33.971        0.036      334.055        3.773      850.729
01/28/2021  15:23:00      129.482     -302.989      -43.271       71.128       94.395       48.484     5059.173     8910.486     2350.747        6.338        0.816      329.496       39.238        0.014      334.097        3.841      850.740
01/28/2021  15:24:00       21.453     -164.874       -8.343      100.147       78.872       52.909    10029.336     6220.767     2799.403        2.338        0.952      166.263       36.717        0.049      334.230        4.064      850.791
01/28/2021  15:25:00        8.609      -37.489       -9.231       70.036       65.122       37.275     4905.086     4240.937     1389.423        0.605        0.527       38.465       14.705        0.146      334.227        4.060      850.814
01/28/2021  15:26:00      -36.338     -211.175      -11.030      125.813      146.681       65.755    15828.927    21515.295     4323.709        4.384        2.083      214.279       71.738        0.112      334.191        3.999      850.839
01/28/2021  15:27:00       49.967     -117.883        3.803       55.992       94.621       47.158     3135.102     8953.200     2223.888        1.536        0.716      128.036       34.784        0.074      334.207        4.025      850.820
01/28/2021  15:28:00      -33.910      -78.525      -16.007       51.521       64.842       46.727     2654.369     4204.510     2183.369        0.831        0.452       85.534       24.108        0.079      334.185        3.989      850.842
01/28/2021  15:29:00       41.870      -91.050      -14.754      117.543      110.104       55.016    13816.436    12122.847     3026.766        1.961        1.448      100.216       42.982        0.184      334.079        3.814      850.839
01/28/2021  15:30:00      -49.681     -160.949      -16.230       76.757      121.726       54.030     5891.587    14817.333     2919.261        2.613        1.181      168.442       46.788        0.077      334.206        4.023      850.836
01/28/2021  15:31:00       58.061     -116.758      -31.679       80.818       83.172       48.294     6531.562     6917.571     2332.301        1.689        0.789      130.397       31.656        0.059      334.145        3.924      850.841
01/28/2021  15:32:00       70.559     -135.857      -33.753       93.480      101.729       58.607     8738.529    10348.882     3434.722        2.354        1.126      153.087       39.020        0.065      334.075        3.806      850.831
01/28/2021  15:33:00       91.563     -200.860      -54.964      108.118      116.599       59.710    11689.468    13595.421     3565.343        4.029        1.443      220.746       47.630        0.047      334.038        3.744      850.812
01/28/2021  15:34:00       47.102     -165.357      -23.761       68.391       84.846       43.854     4677.337     7198.773     1923.171        2.196        0.690      171.935       38.613        0.050      334.127        3.893      850.799
01/28/2021  15:35:00        4.976      -56.727      -27.154       88.247       59.376       36.379     7787.448     3525.536     1323.467        0.831        0.632       56.945       34.377        0.364      334.090        3.833      850.778
01/28/2021  15:36:00      -26.713       -6.415      -11.716       48.105       62.556       31.097     2314.113     3913.211      967.045        0.404        0.360       27.473       25.070        0.833      334.076        3.810      850.735
01/28/2021  15:37:00      -30.851      -81.417       -4.267       62.714       79.907       49.280     3933.089     6385.177     2428.523        1.017        0.637       87.066       40.771        0.219      334.048        3.763      850.739
01/28/2021  15:38:00      -42.735     -140.467      -25.252      109.587       78.599       44.126    12009.391     6177.740     1947.091        2.116        1.007      146.824       18.874        0.017      334.172        3.968      850.763
01/28/2021  15:39:00     -103.673      -82.914      -10.855       59.431      107.415       38.460     3531.999    11537.911     1479.160        1.714        0.827      132.751       47.316        0.127      334.087        3.827      850.787
01/28/2021  15:40:00      -70.636     -168.549      -40.396      153.373       94.667       53.499    23523.152     8961.889     2862.112        3.518        1.767      182.752       52.502        0.083      334.082        3.818      850.791
01/28/2021  15:41:00      -32.906     -265.779      -48.393      152.318      174.310       68.949    23200.691    30384.008     4753.984        6.619        2.917      267.808       60.461        0.051      334.139        3.911      850.776
01/28/2021  15:42:00      154.201     -329.934      -54.555      119.287      174.061       83.741    14229.280    30297.299     7012.586        9.356        2.577      364.190       89.139        0.060      333.990        3.663      850.759
01/28/2021  15:43:00      -50.460     -246.544      -38.966      166.675      138.522       66.386    27780.566    19188.225     4407.095        5.810        2.569      251.654       76.014        0.091      334.053        3.769      850.772
01/28/2021  15:44:00      -73.311     -214.850      -21.010      136.597      128.149       76.858    18658.854    16422.076     5907.112        4.647        2.049      227.013       69.286        0.093      334.076        3.807      850.765
01/28/2021  15:45:00      -27.460     -216.533      -21.627      147.306      136.448       61.922    21699.086    18618.012     3834.309        4.612        2.208      218.267       62.006        0.081      334.018        3.712      850.764
01/28/2021  15:46:00       -8.514     -271.730      -24.403      127.560      131.823       68.849    16271.528    17377.237     4740.227        5.644        1.919      271.863       61.470        0.051      334.120        3.880      850.780
01/28/2021  15:47:00     -119.326     -295.494      -20.069      119.522      132.982       72.639    14285.538    17684.123     5276.380        6.959        1.862      318.678       72.309        0.051      334.071        3.798      850.782
01/28/2021  15:48:00      -35.003     -136.041      -28.265      142.634       74.476       57.625    20344.542     5546.691     3320.594        2.487        1.461      140.472       43.725        0.097      334.097        3.844      850.818
01/28/2021  15:49:00       41.290     -196.641      -13.942      103.818      149.200       67.916    10778.090    22260.504     4612.581        3.910        1.883      200.929       61.391        0.093      334.073        3.803      850.820
01/28/2021  15:50:00      -57.296     -289.146      -35.032      147.961      155.117       72.873    21892.502    24061.306     5310.526        6.968        2.563      294.769       58.787        0.040      334.125        3.889      850.842
01/28/2021  15:51:00      -21.026     -360.752      -51.788      167.562      171.362       78.830    28077.090    29364.876     6214.233        9.845        3.183      361.364       74.084        0.042      333.969        3.629      850.876
01/28/2021  15:52:00       68.893     -289.102      -26.783      157.842      157.972       88.455    24914.106    24955.128     7824.207        7.336        2.885      297.197       98.739        0.110      333.954        3.603      850.879
01/28/2021  15:53:00      -59.156     -192.589      -24.546      123.351      101.057       71.528    15215.364    10212.575     5116.321        3.586        1.527      201.469       54.551        0.073      334.011        3.700      850.892
01/28/2021  15:54:00       42.506     -162.582      -29.463      150.296      109.595       65.147    22589.029    12011.009     4244.190        3.397        1.942      168.047       70.452        0.176      333.957        3.611      850.896
01/28/2021  15:55:00      -47.785     -178.842       -1.893      122.290      122.331       63.156    14954.905    14964.963     3988.692        3.408        1.695      185.116       51.672        0.078      334.029        3.731      850.898
01/28/2021  15:56:00      -46.799     -110.099      -25.517      124.396       92.516       47.676    15474.421     8559.190     2272.977        2.063        1.315      119.633       47.796        0.160      333.987        3.661      850.905
01/28/2021  15:57:00      -35.968     -172.523       -2.146      100.148      130.310       54.066    10029.686    16980.574     2923.185        3.049        1.497      176.232       41.345        0.055      334.021        3.717      850.897
01/28/2021  15:58:00       87.545     -199.445      -27.728      105.979      109.866       55.655    11231.522    12070.616     3097.496        3.730        1.320      217.813       54.015        0.061      333.906        3.524      850.869
01/28/2021  15:59:00       -9.026      -64.588       -6.030       66.290       49.808       40.003     4394.403     2480.795     1600.243        0.638        0.424       65.216       39.756        0.372      334.052        3.771      850.883
01/28/2021  16:00:00      -39.517     -104.342      -26.254      112.156       77.543       45.069    12579.033     6012.924     2031.174        1.688        1.031      111.575       33.750        0.091      334.056        3.777      850.874
01/28/2021  16:01:00      -16.767     -140.120      -25.239      119.649       86.442       54.598    14315.911     7472.213     2980.947        2.266        1.238      141.120       43.061        0.093      333.996        3.677      850.875
01/28/2021  16:02:00      -48.476     -121.547      -18.948      118.073       74.248       60.636    13941.133     5512.801     3676.731        2.030        1.157      130.857       43.388        0.110      334.022        3.721      850.885
01/28/2021  16:03:00      -11.591     -208.069       -1.072       95.317      112.998       69.683     9085.375    12768.504     4855.781        3.506        1.335      208.392       53.291        0.065      334.109        3.861      850.882
01/28/2021  16:04:00     -104.012     -193.684      -21.902      119.473      104.849       46.400    14273.698    10993.277     2152.964        3.811        1.371      219.845       38.404        0.031      334.043        3.752      850.883
01/28/2021  16:05:00      -93.990     -146.718      -23.655       92.323       78.762       47.790     8523.613     6203.403     2283.911        2.396        0.851      174.242       34.809        0.040      334.038        3.745      850.885
01/28/2021  16:06:00       27.275     -127.935      -34.741       94.423      102.826       49.939     8915.691    10573.282     2493.922        2.015        1.099      130.810       59.433        0.206      334.021        3.717      850.891
01/28/2021  16:07:00      -54.062     -152.711      -31.200      111.701       80.298       38.268    12477.156     6447.837     1464.435        2.380        1.019      161.998       32.731        0.041      334.018        3.713      850.913
01/28/2021  16:08:00      -62.726     -128.965      -22.804       90.535      100.005       53.144     8196.651    10000.921     2824.275        2.105        1.051      143.411       24.068        0.028      333.990        3.666      850.935
01/28/2021  16:09:00       -7.630     -129.026      -39.800      282.183      115.692      132.630    79627.489    13384.650    17590.711        6.442        5.530      129.251      183.850        2.023      334.056        3.778      850.925
01/28/2021  16:10:00        7.480      -64.726      -22.174       72.771       82.587       51.487     5295.560     6820.622     2650.955        0.975        0.738       65.157       35.134        0.291      333.915        3.542      850.925
01/28/2021  16:11:00      -86.977     -158.074       -5.745       68.957       81.805       62.499     4755.017     6692.025     3906.128        2.397        0.768      180.423       27.397        0.023      333.944        3.589      850.932
01/28/2021  16:12:00      -40.146     -176.055      -34.607      103.012      103.774       50.080    10611.424    10769.013     2508.012        2.884        1.194      180.574       50.491        0.078      334.010        3.698      850.936
01/28/2021  16:13:00      -43.357     -131.148      -21.809       92.310       80.685       42.265     8521.094     6510.031     1786.341        1.818        0.841      138.129       33.494        0.059      333.930        3.566      850.952
01/28/2021  16:14:00     -136.522      -90.257       -6.022       85.703      112.654       47.312     7344.951    12690.948     2238.416        2.454        1.114      163.660       41.244        0.064      333.885        3.491      850.926
01/28/2021  16:15:00       51.096     -151.772      -42.549      155.523      105.151       46.126    24187.249    11056.741     2127.571        3.241        1.869      160.142       42.702        0.071      333.925        3.557      850.882
01/28/2021  16:16:00       -4.097      -81.001      -23.133       65.753       83.191       50.241     4323.501     6920.732     2524.177        1.044        0.688       81.105       41.302        0.259      333.945        3.592      850.855
01/28/2021  16:17:00       51.390      -96.227      -39.545       97.398       79.616       41.856     9486.466     6338.780     1751.905        1.552        0.879      109.090       37.861        0.120      333.905        3.526      850.809
01/28/2021  16:18:00       59.731     -145.106      -16.414      106.210      123.493       51.820    11280.464    15250.416     2685.293        2.705        1.461      156.919       61.861        0.155      333.994        3.672      850.801
01/28/2021  16:19:00      -15.811     -107.793      -35.094       71.651       78.349       41.267     5133.866     6138.509     1702.987        1.304        0.649      108.947       27.676        0.065      333.936        3.578      850.786
01/28/2021  16:20:00      -20.483      -44.718      -21.047       52.841       78.746       29.542     2792.161     6200.887      872.715        0.636        0.493       49.186       30.968        0.396      333.924        3.559      850.812
01/28/2021  16:21:00      -78.786     -195.376      -34.204       77.924      111.798       41.830     6072.088    12498.706     1749.720        3.293        1.016      210.663       34.617        0.027      333.927        3.560      850.818
01/28/2021  16:22:00      -31.284      -83.158      -18.169       68.776       52.943       34.346     4730.117     2802.914     1179.625        0.847        0.436       88.848       27.088        0.093      333.984        3.658      850.810
01/28/2021  16:23:00      -52.181      -19.185        2.059       39.252       49.909       30.804     1540.719     2490.881      948.858        0.404        0.249       55.596       17.644        0.101      333.929        3.567      850.788
01/28/2021  16:24:00      -85.476      -24.123       -3.683       57.342       46.324       28.701     3288.135     2145.891      823.763        0.708        0.313       88.815       16.122        0.033      333.925        3.562      850.757
01/28/2021  16:25:00      -71.235      -42.957      -15.365       58.798       46.463       35.670     3457.193     2158.816     1272.345        0.702        0.344       83.185       18.279        0.048      333.840        3.418      850.713
01/28/2021  16:26:00      -40.310      -39.924       -1.676       54.011       38.832       27.528     2917.140     1507.939      757.809        0.420        0.259       56.735       23.021        0.165      333.880        3.486      850.679
01/28/2021  16:27:00        0.959      -52.147      -14.112       64.748       55.294       32.613     4192.329     3057.456     1063.606        0.561        0.416       52.156       25.909        0.247      333.990        3.666      850.691
01/28/2021  16:28:00      -21.205      -38.083        7.434       36.000       30.618       29.767     1295.997      937.463      886.088        0.254        0.156       43.589       21.314        0.239      334.009        3.699      850.676
01/28/2021  16:29:00      -33.957       -7.869       -9.194       59.815       28.061       26.214     3577.843      787.405      687.156        0.317        0.253       34.857       15.768        0.205      333.894        3.509      850.680
01/28/2021  16:30:00      -36.219      -15.512       -1.369       61.527       33.222       31.126     3785.625     1103.692      968.834        0.370        0.293       39.401       13.871        0.124      333.882        3.488      850.677
01/28/2021  16:31:00      -48.825     -127.572      -24.466       92.253       82.137       41.878     8510.621     6746.496     1753.778        1.813        0.851      136.596       32.705        0.057      334.037        3.743      850.673
01/28/2021  16:32:00       -5.488      -48.314       -8.264      102.586       57.714       35.428    10523.933     3330.955     1255.169        0.877        0.756       48.625       31.575        0.422      333.978        3.648      850.651
01/28/2021  16:33:00       -0.025      -54.631      -27.239       44.080       34.232       24.575     1943.062     1171.859      603.914        0.372        0.186       54.631       23.627        0.187      333.916        3.545      850.658
01/28/2021  16:34:00      -63.195      -69.962      -11.609       66.098       44.304       36.247     4368.962     1962.807     1313.831        0.833        0.382       94.278       24.206        0.066      334.007        3.696      850.682
01/28/2021  16:35:00      -30.196      -54.087      -19.874       48.481       32.869       30.478     2350.396     1080.350      928.894        0.429        0.218       61.945       21.005        0.115      333.932        3.571      850.705
01/28/2021  16:36:00      -35.806      -64.408      -16.135       77.056       43.834       32.067     5937.658     1921.392     1028.317        0.729        0.444       73.692       31.252        0.180      334.026        3.725      850.704
01/28/2021  16:37:00      -84.908      -23.309      -10.290       72.057       36.338       31.849     5192.257     1320.442     1014.352        0.769        0.376       88.049       15.848        0.032      333.940        3.586      850.699
01/28/2021  16:38:00        6.151      -32.422       -4.060       53.380       47.846       28.658     2849.384     2289.255      821.305        0.353        0.298       33.000       30.795        0.871      333.992        3.671      850.656
01/28/2021  16:39:00      -42.098      -12.709       -8.970       34.034       47.764       27.906     1158.297     2281.447      778.735        0.312        0.211       43.975       24.645        0.314      333.940        3.585      850.647
01/28/2021  16:40:00      -86.357     -134.414      -22.395       76.705       82.507       48.676     5883.592     6807.347     2369.379        2.054        0.753      159.765       21.918        0.019      333.967        3.627      850.638
01/28/2021  16:41:00      -23.383      -72.620       -7.362       64.958       50.185       32.955     4219.599     2518.484     1086.041        0.685        0.391       76.292       33.675        0.195      333.994        3.674      850.646
01/28/2021  16:42:00      -15.574      -28.115      -10.800       46.241       43.630       35.179     2138.226     1903.580     1237.591        0.321        0.264       32.141       31.798        0.979      334.001        3.687      850.678
01/28/2021  16:43:00       -1.285      -66.625       -7.894       52.587       45.276       34.035     2765.414     2049.875     1158.391        0.524        0.299       66.637       26.957        0.164      333.979        3.649      850.673
01/28/2021  16:44:00      -29.327      -20.932        0.199       30.891       28.673       19.611      954.284      822.151      384.607        0.173        0.108       36.031        7.303        0.041      333.935        3.578      850.621
01/28/2021  16:45:00      -11.844      -32.469       -3.038       37.051       47.046       32.699     1372.757     2213.298     1069.214        0.293        0.233       34.562       25.552        0.547      333.950        3.601      850.593
01/28/2021  16:46:00      -47.626      -21.402       -5.152       48.663       44.674       22.143     2368.081     1995.741      490.316        0.380        0.243       52.214       15.809        0.092      333.955        3.610      850.566
01/28/2021  16:47:00      -62.562       29.043      -22.020       63.313       35.330       33.218     4008.576     1248.235     1103.456        0.580        0.318       68.974       32.054        0.216      333.862        3.456      850.549
01/28/2021  16:48:00       12.406      -82.406       -8.987       68.497       53.992       34.666     4691.878     2915.109     1201.705        0.792        0.440       83.335       28.596        0.118      333.988        3.665      850.535
01/28/2021  16:49:00      -11.088      -19.791      -15.547       52.422       51.572       18.149     2748.045     2659.674      329.391        0.325        0.287       22.686       17.617        0.603      333.914        3.541      850.509
01/28/2021  16:50:00      -15.063       23.221       -2.383       22.865       19.865       17.543      522.813      394.619      307.766        0.100        0.061       27.679       11.546        0.174      333.842        3.422      850.470
01/28/2021  16:51:00      -15.704      -22.624      -23.292       43.778       49.504       27.279     1916.513     2450.653      744.117        0.321        0.256       27.541       22.550        0.670      333.933        3.573      850.460
01/28/2021  16:52:00       -0.087      -53.221      -17.969       53.430       54.738       28.419     2854.749     2996.215      807.628        0.491        0.333       53.221       28.672        0.290      333.908        3.531      850.461
01/28/2021  16:53:00      -12.171      -15.342       -4.535       29.327       24.457       22.636      860.059      598.144      512.372        0.119        0.099       19.583       11.572        0.349      333.883        3.491      850.477
01/28/2021  16:54:00       -1.930      -20.576      -13.449       31.941       36.145       19.633     1020.220     1306.458      385.451        0.166        0.136       20.666       16.883        0.667      333.915        3.543      850.489
01/28/2021  16:55:00     -148.073      -26.787       -3.174       87.802       43.459       33.770     7709.226     1888.727     1140.419        1.669        0.537      150.477       25.238        0.028      333.714        3.207      850.499
01/28/2021  16:56:00     -190.500       12.349       -4.317       66.280       46.312       35.287     4393.105     2144.782     1245.139        2.212        0.389      190.900       20.273        0.011      333.423        2.725      850.465
01/28/2021  16:57:00     -112.035      -22.531      -14.570       68.469       45.009       22.074     4688.013     2025.840      487.260        1.023        0.360      114.278       15.336        0.018      333.475        2.813      850.411
01/28/2021  16:58:00      -68.802      -42.373      -13.758       68.861       52.092       21.518     4741.771     2713.600      463.016        0.732        0.396       80.803       20.795        0.066      333.627        3.066      850.385
01/28/2021  16:59:00      -33.074      -25.849       -6.787       43.426       34.979       24.153     1885.800     1223.545      583.391        0.275        0.185       41.977       15.295        0.133      333.723        3.226      850.367
01/28/2021  17:00:00     -106.501      -33.152      -20.555       53.566       32.031       22.544     2869.350     1025.996      508.252        0.863        0.220      111.542       14.627        0.017      333.487        2.834      850.359
01/28/2021  17:01:00      -41.643      -21.350        0.282       51.500       35.685       25.753     2652.301     1273.421      663.204        0.339        0.229       46.797       24.207        0.268      333.515        2.881      850.331
01/28/2021  17:02:00      -73.857      -19.045      -11.039       38.572       39.176       21.343     1487.833     1534.739      455.539        0.471        0.174       76.273       17.139        0.050      333.501        2.858      850.303
01/28/2021  17:03:00      -82.681      -48.749      -12.327       50.603       41.805       23.433     2560.621     1747.691      549.094        0.711        0.243       95.982       14.271        0.022      333.442        2.758      850.280
01/28/2021  17:04:00      -86.978       -0.824      -22.356       40.829       35.730       25.569     1666.967     1276.615      653.768        0.583        0.180       86.982       15.686        0.033      333.376        2.650      850.273
01/28/2021  17:05:00      -62.754      -20.729       -4.411       45.482       30.392       19.898     2068.648      923.688      395.938        0.389        0.169       66.089       15.453        0.055      333.402        2.693      850.288
01/28/2021  17:06:00      -32.924      -16.163       -4.217       40.267       38.644       19.573     1621.449     1493.350      383.097        0.243        0.175       36.677       17.438        0.226      333.436        2.749      850.311
01/28/2021  17:07:00      -70.860      -83.536       -9.362       40.875       52.383       26.724     1670.783     2743.945      714.189        0.861        0.256      109.542       24.965        0.052      333.284        2.498      850.331
01/28/2021  17:08:00      -76.183       -9.929        5.745       55.299       37.337       26.297     3058.017     1394.058      691.529        0.554        0.257       76.827       26.285        0.117      333.290        2.508      850.363
01/28/2021  17:09:00     -119.311      -28.071      -13.368       43.058       26.511       22.282     1853.976      702.848      496.487        0.913        0.153      122.569       12.608        0.011      333.229        2.407      850.373
01/28/2021  17:10:00      -61.432      -17.328       -8.099       53.634       44.991       30.767     2876.630     2024.200      946.617        0.499        0.292       63.829       27.288        0.183      333.330        2.574      850.394
01/28/2021  17:11:00      -81.027      -16.123       -5.013       67.072       56.275       42.190     4498.636     3166.846     1779.975        0.815        0.472       82.616       40.446        0.240      333.276        2.484      850.427
01/28/2021  17:12:00     -117.411      -17.697       -2.442       62.401       43.394       33.741     3893.901     1883.023     1138.460        1.051        0.346      118.737       24.792        0.044      333.212        2.379      850.434
01/28/2021  17:13:00     -105.509       -9.012        2.983       47.027       45.886       25.947     2211.507     2105.526      673.244        0.811        0.250      105.894       25.264        0.057      333.207        2.370      850.428
01/28/2021  17:14:00      -73.853        0.975       -4.057       50.028       42.850       23.365     2502.826     1836.105      545.917        0.518        0.244       73.860       22.421        0.092      333.216        2.385      850.412
01/28/2021  17:15:00      -79.763       12.136       -0.755       47.081       34.487       22.327     2216.590     1189.322      498.474        0.521        0.195       80.681       19.054        0.056      333.175        2.318      850.398
01/28/2021  17:16:00      -86.139       -9.619        0.058       63.981       36.682       25.449     4093.616     1345.598      647.666        0.680        0.304       86.674       23.454        0.073      333.194        2.349      850.394
01/28/2021  17:17:00     -108.961       18.994        1.971       49.930       29.539       29.082     2493.032      872.571      845.790        0.822        0.211      110.604       32.047        0.084      333.169        2.307      850.380
01/28/2021  17:18:00     -113.389       22.156        0.840       53.897       39.843       25.804     2904.917     1587.462      665.822        0.925        0.258      115.533       14.305        0.015      333.173        2.316      850.371
01/28/2021  17:19:00      -88.827      -17.010       -3.767       73.611       40.001       31.916     5418.618     1600.048     1018.614        0.811        0.402       90.441       27.543        0.093      333.237        2.420      850.390
01/28/2021  17:20:00     -132.495      -26.911        0.796      101.984       62.583       41.429    10400.805     3916.636     1716.393        1.715        0.802      135.200       46.310        0.117      333.162        2.294      850.397
01/28/2021  17:21:00      -75.332       23.227        1.258       67.291       40.659       28.334     4528.120     1653.161      802.811        0.660        0.349       78.832       24.913        0.100      333.142        2.263      850.374
01/28/2021  17:22:00      -68.777      -26.492        6.113       64.830       46.711       32.518     4202.927     2181.906     1057.415        0.645        0.372       73.703       36.181        0.241      333.143        2.263      850.370
01/28/2021  17:23:00      -78.341       16.045        8.829       90.287       56.611       36.103     8151.683     3204.756     1303.462        0.956        0.633       79.967       35.228        0.194      333.192        2.345      850.349
01/28/2021  17:24:00      -74.027       11.856       13.456       67.331       48.160       32.023     4533.486     2319.381     1025.499        0.684        0.394       74.970       31.141        0.173      333.227        2.405      850.353
01/28/2021  17:25:00      -52.867      -27.374       -0.119       79.112       46.000       36.333     6258.643     2115.968     1320.069        0.662        0.485       59.534       33.163        0.310      333.217        2.386      850.385
01/28/2021  17:26:00     -167.018      -25.026      -13.301      227.216       49.969      107.955    51626.904     2496.869    11654.264        4.722        3.289      168.882      142.812        0.715      333.184        2.333      850.403
01/28/2021  17:27:00     -186.403      -12.679       -3.937       51.861       37.257       29.600     2689.591     1388.084      876.187        1.994        0.248      186.834       27.345        0.021      333.149        2.274      850.416
01/28/2021  17:28:00      -56.992       -9.311        8.594       73.317       37.591       41.075     5375.396     1413.096     1687.135        0.594        0.424       57.748       40.196        0.485      333.246        2.435      850.445
01/28/2021  17:29:00      -69.055       -5.023        5.357       98.832       43.085       45.420     9767.684     1856.321     2063.005        0.925        0.684       69.238       54.964        0.630      333.189        2.340      850.446
01/28/2021  17:30:00      -22.466        0.301       15.782       66.262       44.716       23.769     4390.690     1999.499      564.979        0.385        0.348       22.468       20.751        0.853      333.272        2.479      850.441
01/28/2021  17:31:00      -34.035      -10.948       -1.877      161.501       44.344       76.007    26082.488     1966.358     5777.114        1.755        1.691       35.752      102.709        8.253      333.350        2.610      850.482
01/28/2021  17:32:00     -151.277      -79.587      -17.329       58.189       40.998       23.005     3385.902     1680.799      529.229        1.756        0.280      170.935       22.410        0.017      333.230        2.407      850.503
01/28/2021  17:33:00      -89.030      -67.617       -8.826       55.175       36.497       23.637     3044.261     1331.997      558.692        0.875        0.247      111.796       14.187        0.016      333.397        2.684      850.504
01/28/2021  17:34:00      -28.019       -7.402       -9.731       41.363       31.036       18.045     1710.874      963.222      325.620        0.197        0.150       28.980       15.614        0.290      333.425        2.731      850.508
01/28/2021  17:35:00      -41.626      -17.082        8.355       43.805       34.935       24.858     1918.893     1220.431      617.915        0.292        0.188       44.995       23.049        0.262      333.423        2.728      850.499
01/28/2021  17:36:00      -80.932      -47.727       -2.975       47.880       54.537       26.741     2292.477     2974.333      715.073        0.741        0.299       93.957       18.720        0.040      333.234        2.414      850.492
01/28/2021  17:37:00     -166.384      -33.091      -21.990       53.207       47.406       25.534     2831.006     2247.291      651.967        1.750        0.287      169.643        8.016        0.002      333.171        2.311      850.495
01/28/2021  17:38:00     -200.337      -66.325      -22.854       67.121       37.018       39.347     4505.293     1370.342     1548.153        2.624        0.371      211.030       42.190        0.040      333.188        2.336      850.509
01/28/2021  17:39:00     -194.189      -23.858      -11.858      181.281       52.327       93.717    32862.660     2738.130     8782.839        4.139        2.219      195.649      112.579        0.331      333.253        2.444      850.536
01/28/2021  17:40:00     -189.417       -4.880       -5.544       72.592       65.929       37.144     5269.553     4346.697     1379.707        2.346        0.550      189.479       40.005        0.045      333.225        2.397      850.571
01/28/2021  17:41:00     -246.415       -6.957        0.611       91.396       63.097       44.013     8353.185     3981.178     1937.162        3.752        0.714      246.513       44.127        0.032      333.253        2.443      850.607
01/28/2021  17:42:00     -138.527      -32.954        3.664      115.056       81.118       58.537    13237.905     6580.150     3426.598        2.176        1.162      142.393       65.994        0.215      333.244        2.431      850.652
01/28/2021  17:43:00     -173.280      -42.544       -3.354      119.574       72.266       57.055    14297.870     5222.381     3255.309        2.731        1.139      178.426       57.469        0.104      333.261        2.458      850.666
01/28/2021  17:44:00     -109.626       -8.741        8.827      134.103       65.335       54.469    17983.710     4268.638     2966.850        1.869        1.261      109.974       64.871        0.348      333.278        2.487      850.703
01/28/2021  17:45:00     -342.984      -26.413      -22.165      174.524       92.937       69.370    30458.638     8637.319     4812.145        8.136        2.195      343.999       77.940        0.051      333.227        2.401      850.754
01/28/2021  17:46:00     -110.255       14.547        7.369      230.541       90.324      110.562    53149.192     8158.511    12223.946        4.296        3.677      111.211      114.115        1.053      333.289        2.505      850.825
01/28/2021  17:47:00     -270.437      -47.170      -14.435      165.162       87.256       84.308    27278.428     7613.695     7107.789        5.878        2.100      274.520       85.027        0.096      333.211        2.374      850.871
01/28/2021  17:48:00     -184.835      -65.966       -6.648      154.199       84.132       72.983    23777.393     7078.143     5326.473        3.736        1.809      196.253       73.583        0.141      333.214        2.378      850.877
01/28/2021  17:49:00      -81.048      -19.488       11.123      133.756       99.167       65.049    17890.598     9834.053     4231.382        1.951        1.598       83.358       60.522        0.527      333.253        2.445      850.895
01/28/2021  17:50:00     -281.311      -23.737      -11.528      201.201       85.086      103.868    40481.969     7239.629    10788.556        6.916        2.926      282.311      112.364        0.158      333.254        2.445      850.907
01/28/2021  17:51:00     -336.401      -24.804      -15.385       94.851       58.367       53.306     8996.633     3406.719     2841.477        6.463        0.762      337.314       38.941        0.013      333.214        2.377      850.904
01/28/2021  17:52:00     -247.229      -24.536      -15.680      319.573      111.464      144.171   102126.831    12424.210    20785.162        9.862        6.767      248.444      133.678        0.290      333.286        2.501      850.885
01/28/2021  17:53:00     -308.565        9.722      -10.024      172.832       96.291       65.710    29870.909     9272.031     4317.836        6.942        2.173      308.718       76.222        0.061      333.152        2.279      850.881
01/28/2021  17:54:00     -145.852      -47.997      -11.441      260.720      116.270      104.652    67975.095    13518.722    10952.103        5.806        4.622      153.547      107.067        0.486      333.195        2.349      850.886
01/28/2021  17:55:00     -220.889      -16.226      -10.688      133.621      102.836       65.380    17854.613    10575.241     4274.594        4.093        1.635      221.484       58.956        0.071      333.078        2.155      850.883
01/28/2021  17:56:00     -200.838       -2.356        0.277      194.600       95.429       73.733    37869.270     9106.698     5436.590        4.637        2.621      200.852       77.339        0.148      333.016        2.054      850.858
01/28/2021  17:57:00     -231.931       72.773        8.066      127.339       83.302       49.471    16215.243     6939.196     2447.350        4.237        1.280      243.080       52.435        0.047      332.948        1.939      850.850
01/28/2021  17:58:00     -176.651        4.577      -11.758      117.343       83.690       38.989    13769.401     7003.963     1520.127        2.682        1.115      176.711       31.105        0.031      332.947        1.938      850.848
01/28/2021  17:59:00     -228.222       85.100      -21.849      160.086       65.833       69.073    25627.456     4333.966     4771.040        4.726        1.737      243.572       68.921        0.080      332.906        1.871      850.864
01/28/2021  18:00:00     -281.375       96.290       -7.331       77.275       51.003       45.471     5971.422     2601.283     2067.590        4.957        0.532      297.395       35.636        0.014      332.858        1.790      850.860
01/28/2021  18:01:00     -179.256       34.510       -7.485      162.332       69.253       72.802    26351.777     4795.948     5300.140        3.491        1.822      182.547       86.436        0.224      332.900        1.863      850.836
01/28/2021  18:02:00     -198.221        9.261        2.162      193.635       67.984       97.084    37494.416     4621.862     9425.234        4.545        2.577      198.437      116.798        0.346      332.864        1.803      850.831
01/28/2021  18:03:00     -106.188       -5.238       -2.705      115.914       62.076       38.999    13436.133     3853.475     1520.911        1.506        0.941      106.317       43.158        0.165      332.846        1.774      850.854
01/28/2021  18:04:00     -153.586      -22.206        1.237       81.809       43.139       37.692     6692.769     1860.951     1420.662        1.703        0.499      155.183       40.826        0.069      332.838        1.761      850.896
01/28/2021  18:05:00     -145.706        7.952       -5.217       59.688       44.016       29.335     3562.671     1937.376      860.551        1.384        0.318      145.923       23.685        0.026      332.827        1.742      850.944
01/28/2021  18:06:00     -140.326      -24.342       -3.906      133.529       57.903       61.519    17829.887     3352.768     3784.562        2.263        1.248      142.421       43.091        0.092      332.833        1.752      850.941
01/28/2021  18:07:00     -185.992      -17.847       -2.849      171.365       66.590       73.785    29365.980     4434.206     5444.211        3.707        1.962      186.846       66.288        0.126      332.805        1.703      850.955
01/28/2021  18:08:00     -209.402      -61.118      -12.317       72.073       62.573       39.474     5194.538     3915.394     1558.228        2.920        0.533      218.138       34.661        0.025      332.759        1.626      850.963
01/28/2021  18:09:00      -64.599        5.464       -1.635      178.963       62.815       84.700    32027.838     3945.699     7174.028        2.367        2.157       64.830       98.939        2.329      332.847        1.776      850.943
01/28/2021  18:10:00     -131.567       10.250        5.431      105.448       69.281       51.585    11119.288     4799.844     2661.031        1.801        0.929      131.966       39.734        0.091      332.788        1.677      850.939
01/28/2021  18:11:00     -125.998       -7.565       -4.774       58.205       80.486       43.103     3387.781     6478.016     1857.885        1.384        0.586      126.225       32.225        0.065      332.754        1.620      850.913
01/28/2021  18:12:00     -135.754       35.730        6.236       68.090       48.666       35.740     4636.245     2368.376     1277.316        1.401        0.414      140.377       36.360        0.067      332.747        1.610      850.892
01/28/2021  18:13:00     -142.410      -16.642       -3.380       49.618       58.170       29.199     2461.957     3383.733      852.569        1.363        0.335      143.379       25.578        0.032      332.763        1.637      850.880
01/28/2021  18:14:00     -119.137       11.957       -6.902      189.351       74.264       91.141    35853.925     5515.077     8306.608        3.202        2.484      119.735      114.855        0.920      332.771        1.650      850.895
01/28/2021  18:15:00     -129.905       45.201       -7.256       52.094       74.881       34.773     2713.825     5607.121     1209.177        1.425        0.477      137.544       24.189        0.031      332.739        1.595      850.931
01/28/2021  18:16:00     -119.214       26.094       -7.090      204.466       48.930       98.996    41806.377     2394.130     9800.244        3.446        2.700      122.036      133.368        1.194      332.825        1.739      850.928
01/28/2021  18:17:00      -93.220       39.404       -2.487      179.525       43.364       85.874    32229.345     1880.457     7374.325        2.586        2.074      101.206      116.031        1.314      332.767        1.644      850.885
01/28/2021  18:18:00     -155.642       69.379        1.049       60.869       43.905       37.492     3705.031     1927.676     1405.614        1.804        0.352      170.405       26.743        0.025      332.722        1.567      850.806
01/28/2021  18:19:00      -80.493       64.811      -14.629      199.109       36.180       95.766    39644.523     1309.028     9171.205        3.050        2.506      103.342      133.992        1.681      332.790        1.683      850.750
01/28/2021  18:20:00      -85.337       23.428        3.947       63.755       30.802       22.378     4064.701      948.746      500.784        0.668        0.276       88.494       17.754        0.040      332.777        1.661      850.714
01/28/2021  18:21:00     -135.661       95.498       -9.029       32.226       33.367       23.484     1038.534     1113.327      551.511        1.515        0.135      165.903       15.463        0.009      332.685        1.509      850.700
01/28/2021  18:22:00      -58.975       44.941      -25.277      294.523       37.235      140.959    86743.544     1386.432    19869.322        5.704        5.400       74.147      200.862        7.339      332.856        1.793      850.692
01/28/2021  18:23:00      -67.628       32.817      -16.293      232.870       55.942      113.311    54228.605     3129.472    12839.370        3.804        3.510       75.170      158.156        4.427      332.816        1.727      850.692
01/28/2021  18:24:00     -125.830       41.094      -12.484      156.381       45.319       77.582    24454.932     2053.775     6018.993        2.510        1.626      132.371       99.211        0.562      332.743        1.606      850.704
01/28/2021  18:25:00      -42.799        5.445       -1.999       46.928       37.614       22.848     2202.243     1414.788      522.033        0.300        0.207       43.144       14.171        0.108      332.755        1.624      850.725
01/28/2021  18:26:00      -50.460       -7.177      -13.014      284.956       29.001      138.123    81199.958      841.046    19078.032        5.192        5.056       50.968      192.502       14.265      332.819        1.734      850.750
01/28/2021  18:27:00      -34.342        8.888      -13.951      202.736       28.291       96.054    41101.713      800.384     9226.396        2.628        2.556       35.473      135.686       14.631      332.796        1.693      850.803
01/28/2021  18:28:00       22.186       -2.014       -5.663      181.815       31.321       89.137    33056.548      980.985     7945.431        2.125        2.099       22.277      124.047       31.007      332.813        1.721      850.827
01/28/2021  18:29:00       -2.837        7.811       -0.437       19.506       20.585       14.602      380.476      423.748      213.212        0.054        0.051        8.311       11.337        1.861      332.825        1.740      850.848
01/28/2021  18:30:00      -20.076       14.832       -5.753      219.390       27.362      103.481    48132.061      748.703    10708.275        3.011        2.979       24.961      147.709       35.018      332.869        1.815      850.869
01/28/2021  18:31:00     -102.877        4.821       -0.317       31.493       60.029       22.935      991.809     3603.499      526.027        0.786        0.256      102.990       19.450        0.036      332.728        1.579      850.891
01/28/2021  18:32:00      -81.208       15.692       -3.601       44.711       47.669       30.618     1999.035     2272.332      937.491        0.603        0.260       82.710       25.888        0.098      332.752        1.620      850.912
01/28/2021  18:33:00      -49.280        0.374       -4.705       33.656       28.515       15.857     1132.742      813.119      251.452        0.232        0.110       49.281       15.137        0.094      332.780        1.666      850.927
01/28/2021  18:34:00      -67.922       32.200       -0.574       37.785       31.688       10.141     1427.714     1004.159      102.840        0.409        0.127       75.168        8.044        0.011      332.724        1.572      850.922
01/28/2021  18:35:00      -93.590       16.720       -8.514      165.805       29.423       81.963    27491.356      865.714     6718.012        2.209        1.754       95.072      113.193        1.418      332.781        1.669      850.923
01/28/2021  18:36:00      -48.161       21.955        0.032       22.805       15.657       15.066      520.059      245.142      226.973        0.190        0.050       52.929        5.285        0.010      332.767        1.645      850.935
01/28/2021  18:37:00      -55.099       12.343       -5.407       25.622       25.992       12.121      656.472      675.562      146.918        0.235        0.074       56.464       12.231        0.047      332.833        1.753      850.963
01/28/2021  18:38:00      -12.903       -9.758        8.981       21.709       44.653       16.235      471.259     1993.906      263.586        0.153        0.136       16.178       12.266        0.575      332.872        1.818      850.988
01/28/2021  18:39:00      -20.539       30.744       -8.567      227.523       26.010      107.202    51766.645      676.543    11492.371        3.267        3.197       36.974      155.397       17.665      332.837        1.759      850.999
01/28/2021  18:40:00      -50.183       11.980        0.942       27.036       20.115        9.838      730.937      404.595       96.788        0.195        0.062       51.593        8.209        0.025      332.830        1.749      851.001
01/28/2021  18:41:00      -29.807       -0.595       -0.091       23.311       18.950       10.164      543.413      359.109      103.299        0.095        0.050       29.813        5.865        0.039      332.948        1.941      851.000
01/28/2021  18:42:00      -16.209        5.847       -3.086      179.547       28.824       86.670    32237.104      830.809     7511.750        2.043        2.029       17.231      121.550       49.760      332.944        1.937      851.006
01/28/2021  18:43:00      -18.146       -1.440       -2.105       18.311       21.183       11.823      335.278      448.737      139.791        0.063        0.046       18.203       10.677        0.344      332.922        1.899      851.038
01/28/2021  18:44:00      -25.366      -13.899        4.435       57.541       39.467       27.253     3311.019     1557.660      742.748        0.323        0.281       28.924       21.176        0.536      332.900        1.864      851.081
01/28/2021  18:45:00      -60.395       -0.828        0.603       68.872       30.332       25.346     4743.301      920.027      642.423        0.498        0.315       60.401       21.862        0.131      332.843        1.771      851.121
01/28/2021  18:46:00      -94.960       13.435        3.590       59.803       32.609       20.854     3576.420     1063.350      434.885        0.714        0.254       95.906       22.674        0.056      332.853        1.786      851.166
01/28/2021  18:47:00      -71.000      -10.157       -6.742      187.366       49.261       87.247    35105.991     2426.690     7612.059        2.516        2.257       71.723      112.499        2.460      332.963        1.968      851.197
01/28/2021  18:48:00     -140.911       10.415      -14.083      216.692       43.778      103.799    46955.545     1916.492    10774.261        3.989        2.982      141.296      143.730        1.035      332.915        1.892      851.223
01/28/2021  18:49:00     -148.548       21.003        2.438       75.871       45.215       29.040     5756.452     2044.393      843.309        1.558        0.432      150.026       31.539        0.044      332.851        1.782      851.227
01/28/2021  18:50:00      -33.158        7.565       12.200      184.203       67.743       94.577    33930.812     4589.147     8944.890        2.438        2.373       34.010      118.735       12.188      332.938        1.929      851.206
01/28/2021  18:51:00     -172.856       44.295       -9.358       54.017       41.314       35.861     2917.811     1706.842     1285.982        1.892        0.296      178.441       23.867        0.018      332.795        1.689      851.190
01/28/2021  18:52:00     -194.868       43.502       -0.581       71.147       49.209       31.523     5061.840     2421.518      993.671        2.417        0.424      199.664       27.161        0.019      332.771        1.647      851.157
01/28/2021  18:53:00     -144.888       17.595      -17.643       65.395       44.778       32.463     4276.524     2005.081     1053.842        1.447        0.367      145.953       12.858        0.008      332.833        1.752      851.138
01/28/2021  18:54:00     -167.604       46.356      -14.031       47.372       41.829       29.952     2244.094     1749.705      897.099        1.766        0.245      173.896       23.057        0.018      332.801        1.699      851.128
01/28/2021  18:55:00     -111.016       11.772      -18.820       86.756       40.198       28.949     7526.544     1615.857      838.016        1.140        0.499      111.639       21.694        0.038      332.828        1.744      851.122
01/28/2021  18:56:00      -53.199       13.478       -1.252       42.411       47.207       38.936     1798.681     2228.506     1516.001        0.428        0.277       54.879       32.388        0.348      332.843        1.771      851.102
01/28/2021  18:57:00     -181.925       32.984       -8.465       75.006       44.357       27.567     5625.826     1967.587      759.917        2.130        0.418      184.891       22.374        0.015      332.829        1.744      851.080
01/28/2021  18:58:00     -165.129       43.783      -11.240       68.179       51.732       30.058     4648.371     2676.164      903.500        1.877        0.411      170.835       23.139        0.018      332.810        1.711      851.070
01/28/2021  18:59:00     -186.378       33.791      -13.031       48.379       46.528       27.462     2340.549     2164.864      754.145        2.065        0.263      189.417       19.125        0.010      332.807        1.709      851.081
01/28/2021  19:00:00     -154.263       41.895      -15.405       59.624       40.449       31.437     3554.972     1636.116      988.275        1.598        0.309      159.851       17.502        0.012      332.819        1.730      851.095
01/28/2021  19:01:00     -126.834       59.239       -9.842       40.429       27.704       19.903     1634.537      767.521      396.144        1.124        0.140      139.986       23.265        0.028      332.793        1.688      851.111
01/28/2021  19:02:00     -114.249       35.827       -7.571       40.857       31.875       25.222     1669.304     1016.009      636.143        0.886        0.166      119.734       17.338        0.021      332.781        1.666      851.134
01/28/2021  19:03:00      -90.085       33.793       -9.543       37.408       38.174       20.197     1399.371     1457.273      407.923        0.631        0.163       96.215       15.195        0.025      332.824        1.740      851.161
01/28/2021  19:04:00     -122.555       66.597      -25.725       43.252       26.672       23.880     1870.753      711.422      570.269        1.163        0.158      139.480       11.619        0.007      332.836        1.758      851.183
01/28/2021  19:05:00     -105.545       71.332      -13.796       46.169       42.706       25.514     2131.531     1823.806      650.981        1.051        0.230      127.389       19.505        0.023      332.801        1.699      851.190
01/28/2021  19:06:00      -68.830       33.549       -2.949       36.061       39.417       19.987     1300.383     1553.729      399.491        0.456        0.163       76.571       17.633        0.053      332.869        1.813      851.194
01/28/2021  19:07:00      -47.387        0.796       -3.095       50.965       42.815       25.053     2597.432     1833.113      627.658        0.366        0.253       47.394       25.660        0.293      332.907        1.873      851.210
01/28/2021  19:08:00      -75.169       48.990      -16.290       50.913       29.035       36.023     2592.126      843.015     1297.660        0.652        0.237       89.724       27.214        0.092      332.899        1.863      851.233
01/28/2021  19:09:00      -26.871       20.661       -0.363       36.311       36.317       20.721     1318.476     1318.899      429.367        0.211        0.153       33.896       19.700        0.338      332.925        1.903      851.244
01/28/2021  19:10:00      -52.167       14.906      -12.142       52.819       47.268       19.917     2789.890     2234.262      396.693        0.425        0.271       54.255       20.006        0.136      332.890        1.848      851.262
01/28/2021  19:11:00      -45.124       21.129        1.102       38.138       47.922       31.542     1454.529     2296.518      994.901        0.361        0.237       49.826       27.623        0.307      332.852        1.785      851.279
01/28/2021  19:12:00      -33.783       21.877        2.070       39.624       44.707       27.382     1570.036     1998.746      749.779        0.297        0.216       40.247       11.201        0.077      332.842        1.769      851.302
01/28/2021  19:13:00      -43.793       45.774       -0.338       33.767       29.118       16.259     1140.239      847.860      264.345        0.313        0.113       63.349       11.901        0.035      332.894        1.854      851.335
01/28/2021  19:14:00      -75.682       39.703      -13.069       18.635       27.730       22.766      347.281      768.952      518.298        0.455        0.082       85.464       13.412        0.025      332.843        1.769      851.363
01/28/2021  19:15:00      -29.614       35.184       -0.136       25.709       14.600       15.430      660.934      213.147      238.093        0.161        0.056       45.988        4.692        0.010      332.852        1.785      851.388
01/28/2021  19:16:00      -41.666       25.782       -2.183      152.614       19.727       75.551    23291.170      389.140     5707.977        1.589        1.469       48.997      104.489        4.548      332.956        1.959      851.382
01/28/2021  19:17:00      -34.729       57.831       -4.422       33.712       40.221       15.852     1136.478     1617.711      251.271        0.379        0.150       67.458       14.398        0.046      332.946        1.941      851.374
01/28/2021  19:18:00      -18.459       52.287       -8.790      220.153       33.425      105.884    48467.473     1117.251    11211.399        3.196        3.040       55.450      151.084        7.424      333.063        2.132      851.370
01/28/2021  19:19:00        9.860       88.093      -10.947      180.704       49.843       86.908    32653.839     2484.358     7552.977        2.533        2.135       88.643      122.879        1.922      333.038        2.091      851.352
01/28/2021  19:20:00      -16.835       91.549       -3.959      133.933       22.587       63.896    17938.097      510.183     4082.665        1.560        1.127       93.084       89.925        0.933      333.010        2.045      851.323
01/28/2021  19:21:00      -11.164       70.040       -3.521       18.308       29.671       14.618      335.194      880.353      213.695        0.324        0.071       70.925       10.710        0.023      332.993        2.017      851.302
01/28/2021  19:22:00       23.500       70.021        8.715       33.681       34.861       19.815     1134.409     1215.318      392.627        0.414        0.137       73.859       11.418        0.024      332.955        1.955      851.288
01/28/2021  19:23:00       30.822       85.048        8.189       35.509       38.916       21.454     1260.867     1514.484      460.260        0.574        0.162       90.461        9.155        0.010      332.970        1.980      851.272
01/28/2021  19:24:00       47.862      112.362      -14.429      163.100       34.053       76.292    26601.482     1159.630     5820.446        2.435        1.679      122.131      109.210        0.800      332.985        2.004      851.262
01/28/2021  19:25:00       79.926       70.235      -21.477      334.750       37.065      163.759   112057.731     1373.842    26817.065        7.599        7.012      106.401      232.377        4.770      333.044        2.107      851.244
01/28/2021  19:26:00       37.024       29.878       -2.212       27.484       30.453       16.058      755.359      927.400      257.846        0.210        0.097       47.576        8.173        0.030      332.826        1.742      851.237
01/28/2021  19:27:00       75.236       78.439       -1.156       39.859       32.799       25.601     1588.750     1075.797      655.396        0.757        0.166      108.689       15.265        0.020      332.869        1.814      851.243
01/28/2021  19:28:00       66.908       70.917      -14.599      165.189       33.271       80.080    27287.502     1106.942     6412.834        2.226        1.740       97.499      113.498        1.355      332.855        1.791      851.230
01/28/2021  19:29:00       37.584       35.387       -3.151       30.710       19.451       14.263      943.096      378.339      203.436        0.210        0.076       51.622        8.495        0.027      332.777        1.659      851.218
01/28/2021  19:30:00       34.349       79.788       -3.597      165.989       29.580       80.445    27552.339      874.950     6471.332        2.122        1.745       86.868      112.374        1.673      332.813        1.720      851.229
01/28/2021  19:31:00       50.612       73.662       -5.374       35.580       33.925       18.804     1265.914     1150.874      353.575        0.539        0.139       89.374       15.373        0.030      332.813        1.720      851.249
01/28/2021  19:32:00       20.200       55.240       -9.628      268.674       33.470      129.244    72185.844     1120.234    16704.018        4.676        4.501       58.817      184.346        9.823      332.942        1.936      851.281
01/28/2021  19:33:00       -6.347       87.353       -7.247       35.321       43.220       20.793     1247.571     1867.997      432.364        0.563        0.177       87.583       13.368        0.023      332.855        1.789      851.326
01/28/2021  19:34:00      -36.768       67.402       -8.395       20.581       22.683       15.008      423.561      514.510      225.232        0.356        0.058       76.778        6.195        0.007      332.845        1.774      851.340
01/28/2021  19:35:00      -35.952       93.132       -5.597       24.591       22.822       15.967      604.716      520.864      254.942        0.569        0.069       99.831       10.897        0.012      332.799        1.697      851.328
01/28/2021  19:36:00      -44.346       41.383        3.852       37.491       26.700       16.612     1405.609      712.871      275.944        0.304        0.120       60.656        9.991        0.027      332.840        1.766      851.310
01/28/2021  19:37:00      -28.356       44.986        2.949       15.434       25.643       13.982      238.203      657.548      195.483        0.196        0.055       53.177        8.609        0.026      332.811        1.717      851.287
01/28/2021  19:38:00      -27.167       52.549        0.317       19.223       24.381       15.729      369.515      594.444      247.395        0.236        0.061       59.156        6.475        0.012      332.797        1.696      851.272
01/28/2021  19:39:00      -97.995       24.305       -8.743       39.937       24.221       18.736     1594.953      586.657      351.037        0.640        0.127      100.964       18.329        0.033      332.770        1.651      851.263
01/28/2021  19:40:00       -2.994       75.378        2.041       76.661       26.367       40.537     5876.865      695.217     1643.245        0.695        0.411       75.438       49.401        0.429      332.952        1.949      851.244
01/28/2021  19:41:00      -19.523       67.819       -3.523       88.417       33.767       43.544     7817.549     1140.204     1896.039        0.792        0.543       70.574       56.005        0.630      333.006        2.041      851.231
01/28/2021  19:42:00      -89.149       35.221       -6.935       93.220       19.884       49.698     8690.004      395.393     2469.864        1.039        0.578       95.854       62.673        0.428      333.011        2.047      851.233
01/28/2021  19:43:00      -34.390        4.692      -28.762      109.479       27.562       62.243    11985.557      759.682     3874.138        0.932        0.831       34.708       76.400        4.845      333.103        2.199      851.242
01/28/2021  19:44:00     -113.696       40.803        3.942       99.674       17.105       42.230     9935.003      292.564     1783.350        1.331        0.601      120.796       60.905        0.254      332.940        1.930      851.236
01/28/2021  19:45:00      -51.286       41.943      -11.944       79.172       33.404       45.235     6268.206     1115.857     2046.197        0.698        0.472       66.253       55.639        0.705      333.016        2.059      851.218
01/28/2021  19:46:00       11.857       30.679      -45.746      370.090       32.068      172.697   136966.853     1028.331    29824.305        8.546        8.391       32.890      251.070       58.272      333.098        2.196      851.183
01/28/2021  19:47:00      -61.324       23.557      -14.972      235.355       17.245      112.968    55392.038      297.384    12761.792        3.648        3.423       65.693      160.735        5.987      332.879        1.830      851.152
01/28/2021  19:48:00       57.350       38.938      -28.985      455.413       23.553      220.691   207401.318      554.767    48704.417       13.110       12.833       69.320      315.976       20.778      333.138        2.266      851.145
01/28/2021  19:49:00       -0.940       30.786      -15.565      322.134       20.937      153.401   103770.481      438.370    23531.978        6.444        6.387       30.800      221.293       51.621      333.017        2.061      851.149
01/28/2021  19:50:00      -26.494       46.069        7.112       42.945       23.078       20.930     1844.315      532.580      438.085        0.284        0.141       53.144       21.924        0.170      332.807        1.711      851.155
01/28/2021  19:51:00      -51.092       31.454        3.922       50.012       22.118       25.534     2501.248      489.214      651.990        0.363        0.182       59.998       32.424        0.292      332.793        1.687      851.155
01/28/2021  19:52:00      -60.600       19.251        0.538      260.562       14.445      123.398    67892.509      208.663    15227.148        4.367        4.166       63.584      177.808        7.820      332.843        1.771      851.133
01/28/2021  19:53:00       30.634       73.541      -32.233      396.882       37.691      189.724   157515.661     1420.643    35995.090       10.112        9.747       79.667      273.182       11.758      333.057        2.129      851.105
01/28/2021  19:54:00      -53.685      119.446        0.667       57.889       36.090       29.597     3351.100     1302.492      875.958        1.134        0.276      130.956       35.370        0.073      332.728        1.579      851.081
01/28/2021  19:55:00      -31.032      120.254      -10.396      184.144       32.385       88.054    33909.083     1048.776     7753.475        2.911        2.136      124.194      125.049        1.014      332.841        1.768      851.060
01/28/2021  19:56:00      -30.704      132.447      -11.384      228.984       27.010      111.392    52433.763      729.545    12408.157        4.208        3.279      135.959      158.562        1.360      332.853        1.788      851.053
01/28/2021  19:57:00       20.805       74.134        3.264       44.152       40.194       20.874     1949.420     1615.540      435.716        0.497        0.200       76.998        8.241        0.011      332.782        1.669      851.049
01/28/2021  19:58:00        7.779       43.381       10.762       38.245       19.191       17.715     1462.662      368.282      313.832        0.210        0.107       44.073       12.427        0.079      332.722        1.572      851.048
01/28/2021  19:59:00       22.556      112.143        1.563       31.340       58.570       27.088      982.176     3430.400      733.755        0.912        0.257      114.389       19.877        0.030      332.865        1.805      851.046
01/28/2021  20:00:00       69.627       54.947       -1.306      207.979       37.226      101.273    43255.271     1385.808    10256.149        3.137        2.745       88.696      141.548        2.547      332.755        1.625      851.032
01/28/2021  20:01:00       49.203       46.666        7.863       32.811       25.761       22.806     1076.557      663.639      520.122        0.346        0.113       67.813       15.377        0.051      332.695        1.524      851.006
01/28/2021  20:02:00       49.591       46.262        6.542       39.257       24.178       19.255     1541.106      584.589      370.739        0.357        0.125       67.819       17.415        0.066      332.635        1.426      850.960
01/28/2021  20:03:00      101.574       56.402      -13.884      200.087       32.985       97.264    40034.965     1088.001     9460.211        3.213        2.529      116.182      137.800        1.407      332.659        1.467      850.915
01/28/2021  20:04:00       73.982       54.594      -11.005      326.285       21.194      157.056   106461.887      449.201    24666.578        7.005        6.579       91.945      225.691        6.025      333.016        2.057      850.893
01/28/2021  20:05:00       90.062       37.395      -11.272      206.843       32.614       96.768    42784.024     1063.647     9364.129        3.141        2.661       97.517      139.327        2.041      332.821        1.737      850.892
01/28/2021  20:06:00       98.139       67.110      -14.196       39.098       29.954       23.292     1528.625      897.215      542.526        0.865        0.148      118.891       21.383        0.032      332.628        1.417      850.889
01/28/2021  20:07:00      105.339       69.405      -15.591       22.472       32.178       17.387      504.979     1035.414      302.310        0.900        0.092      126.149       15.012        0.014      332.597        1.365      850.890
01/28/2021  20:08:00      120.921       35.375        2.804       48.416       45.643       26.731     2344.073     2083.325      714.573        1.051        0.257      125.989       14.188        0.013      332.555        1.293      850.882
01/28/2021  20:09:00      140.520       42.497        4.675       44.715       41.991       30.962     1999.446     1763.255      958.623        1.315        0.236      146.805       18.439        0.016      332.485        1.177      850.869
01/28/2021  20:10:00       89.134       24.222        1.813       49.087       41.407       25.172     2409.544     1714.545      633.636        0.665        0.238       92.366       25.159        0.074      332.476        1.162      850.863
01/28/2021  20:11:00       74.520       53.860        8.830       45.049       52.249       28.823     2029.375     2730.009      830.767        0.706        0.280       91.946       33.493        0.133      332.412        1.058      850.873
01/28/2021  20:12:00       80.923       35.476        5.509       33.914       50.098       27.879     1150.131     2509.837      777.231        0.614        0.222       88.357       30.304        0.118      332.432        1.090      850.883
01/28/2021  20:13:00       79.188       41.679       -1.547       40.930       39.262       23.564     1675.285     1541.481      555.261        0.589        0.189       89.487       19.525        0.048      332.470        1.153      850.894
01/28/2021  20:14:00       97.742       41.569        3.982       43.184       43.146       25.778     1864.817     1861.564      664.489        0.784        0.220      106.214       26.173        0.061      332.444        1.111      850.893
01/28/2021  20:15:00       90.311       41.762       -3.818       57.461       47.154       30.087     3301.817     2223.546      905.236        0.817        0.322       99.499       20.048        0.041      332.454        1.129      850.884
01/28/2021  20:16:00       87.616       68.388       -0.657       39.724       43.325       33.180     1578.005     1877.092     1100.900        0.845        0.228      111.146       25.221        0.051      332.441        1.106      850.873
01/28/2021  20:17:00       94.024       76.756       -2.715       31.970       50.934       30.450     1022.050     2594.274      927.195        0.964        0.227      121.375       34.531        0.081      332.431        1.091      850.859
01/28/2021  20:18:00      107.153       61.163        3.458       43.918       50.205       22.657     1928.832     2520.567      513.329        1.010        0.248      123.380       26.787        0.047      332.424        1.078      850.839
01/28/2021  20:19:00      106.964       83.897       -0.271       53.938       50.724       28.316     2909.294     2572.926      801.770        1.238        0.314      135.941       29.414        0.047      332.409        1.052      850.804
01/28/2021  20:20:00      114.446       70.428        3.859       44.213       51.259       27.162     1954.827     2627.472      737.766        1.170        0.266      134.380       23.997        0.032      332.458        1.132      850.777
01/28/2021  20:21:00      149.835       95.808       -1.165       45.347       44.791       28.108     2056.356     2006.215      790.045        1.824        0.243      177.847       21.714        0.015      332.436        1.098      850.767
01/28/2021  20:22:00      103.093       79.816       -3.902       42.934       53.826       25.712     1843.359     2897.243      661.096        1.121        0.270      130.380       26.198        0.040      332.479        1.165      850.782
01/28/2021  20:23:00      121.630       98.023       -1.382       34.406       44.930       30.522     1183.798     2018.719      931.566        1.427        0.207      156.213       30.181        0.037      332.446        1.112      850.804
01/28/2021  20:24:00       93.305       63.958        1.509       32.085       43.559       26.356     1029.453     1897.383      694.617        0.821        0.181      113.121       26.250        0.054      332.453        1.124      850.807
01/28/2021  20:25:00       54.425       45.195       -0.418       44.950       46.569       25.010     2020.491     2168.660      625.511        0.491        0.241       70.744       22.989        0.106      332.575        1.326      850.808
01/28/2021  20:26:00      116.031       85.653      -11.805       31.622       46.174       28.041      999.970     2132.019      786.287        1.243        0.196      144.221       31.353        0.047      332.509        1.216      850.822
01/28/2021  20:27:00       67.514       28.400        3.034       45.683       45.867       28.023     2086.945     2103.811      785.308        0.517        0.249       73.244       22.569        0.095      332.561        1.303      850.864
01/28/2021  20:28:00       50.148       15.914       11.805       41.157       40.465       28.077     1693.936     1637.455      788.306        0.351        0.206       52.613       23.820        0.205      332.598        1.364      850.905
01/28/2021  20:29:00      146.941       56.969       11.626       61.105       50.648       32.093     3733.882     2565.228     1029.952        1.615        0.366      157.598       32.872        0.044      332.509        1.217      850.926
01/28/2021  20:30:00      112.288       54.352       -0.968       67.566       54.177       29.640     4565.198     2935.098      878.521        1.197        0.419      124.750       25.543        0.042      332.555        1.294      850.945
01/28/2021  20:31:00       29.202        5.671        1.632       40.207       37.437       27.337     1616.590     1401.563      747.309        0.233        0.188       29.748       21.394        0.517      332.597        1.365      850.974
01/28/2021  20:32:00       46.666       19.300        9.038       43.261       40.723       29.632     1871.497     1658.322      878.080        0.352        0.220       50.499       21.522        0.182      332.605        1.377      850.992
01/28/2021  20:33:00       44.392       18.104        7.447       40.500       41.724       21.832     1640.239     1740.906      476.625        0.310        0.193       47.942       14.003        0.085      332.590        1.351      851.022
01/28/2021  20:34:00       75.627       35.229       -6.144       65.390       58.798       31.539     4275.820     3457.228      994.722        0.786        0.436       83.430       24.410        0.086      332.680        1.500      851.043
01/28/2021  20:35:00       93.134       51.146       -0.284       56.659       54.134       30.360     3210.208     2930.490      921.748        0.917        0.353      106.254       21.596        0.041      332.640        1.435      851.044
01/28/2021  20:36:00       58.145        2.547        2.103       48.024       38.821       23.140     2306.327     1507.082      535.440        0.387        0.217       58.201       16.756        0.083      332.616        1.395      851.045
01/28/2021  20:37:00       54.376       -1.536        4.360       57.425       56.575       29.120     3297.604     3200.733      847.979        0.516        0.367       54.397       25.829        0.225      332.585        1.344      851.043
01/28/2021  20:38:00       52.457       14.052        5.062       32.847       67.910       27.862     1078.930     4611.786      776.271        0.472        0.323       54.306       30.033        0.306      332.554        1.293      851.042
01/28/2021  20:39:00       50.064       14.334       -2.716       35.311       61.768       24.042     1246.896     3815.224      577.994        0.418        0.282       52.076       30.469        0.342      332.584        1.342      851.042
01/28/2021  20:40:00       55.501        2.243        5.538       38.624       37.798       24.963     1491.848     1428.696      623.169        0.333        0.177       55.546       20.614        0.138      332.593        1.356      851.035
01/28/2021  20:41:00       57.472       22.721       -4.677       42.988       44.391       29.341     1847.990     1970.546      860.865        0.426        0.234       61.800       21.662        0.123      332.630        1.418      851.038
01/28/2021  20:42:00       52.677       12.963        5.528       51.780       59.386       38.486     2681.140     3526.642     1481.136        0.533        0.384       54.249       21.430        0.156      332.716        1.560      851.035
01/28/2021  20:43:00       69.646       17.740        1.287      117.475       55.995       58.631    13800.304     3135.408     3437.613        1.277        1.019       71.870       75.164        1.094      332.688        1.513      851.029
01/28/2021  20:44:00       58.504        6.513        3.851       39.300       41.107       28.305     1544.474     1689.801      801.160        0.376        0.202       58.866       16.003        0.074      332.632        1.420      851.025
01/28/2021  20:45:00       50.310       -5.856       -2.150      134.448       39.132       69.580    18076.247     1531.329     4841.338        1.350        1.222       50.649       92.186        3.313      332.614        1.391      851.011
01/28/2021  20:46:00       47.867       -2.328       -2.187       45.102       51.615       33.706     2034.153     2664.123     1136.063        0.407        0.292       47.923       28.760        0.360      332.576        1.328      850.988
01/28/2021  20:47:00       87.275        5.595        4.601       54.735       44.272       32.643     2995.877     1960.035     1065.561        0.684        0.301       87.454       26.246        0.090      332.581        1.336      850.982
01/28/2021  20:48:00       66.765       -2.467        8.019      178.364       38.452       87.370    31813.786     1478.521     7633.443        2.272        2.046       66.810      121.084        3.285      332.622        1.406      850.967
01/28/2021  20:49:00      111.263       25.043       -0.730       36.965       41.463       23.997     1366.413     1719.213      575.877        0.833        0.183      114.046       18.182        0.025      332.547        1.281      850.947
01/28/2021  20:50:00       42.433       23.192       -0.039       39.821       55.386       28.483     1585.716     3067.555      811.299        0.390        0.273       48.357       27.547        0.325      332.634        1.425      850.938
01/28/2021  20:51:00       59.367       24.829        4.165       53.626       55.448       29.168     2875.757     3074.529      850.783        0.548        0.340       64.350       27.413        0.181      332.671        1.485      850.947
01/28/2021  20:52:00       36.097       26.454        5.481       49.984       61.844       30.928     2498.413     3824.646      956.518        0.465        0.364       44.752       23.395        0.273      332.642        1.437      850.972
01/28/2021  20:53:00       71.400       13.903        0.276       37.559       39.508       22.810     1410.653     1560.872      520.315        0.439        0.175       72.741       18.781        0.067      332.580        1.335      850.987
01/28/2021  20:54:00       45.631       16.051        2.128       50.610       36.459       23.974     2561.347     1329.290      574.750        0.340        0.223       48.371       17.172        0.126      332.605        1.375      850.992
01/28/2021  20:55:00       81.314       19.272       -2.673       34.206       26.144       20.377     1170.049      683.526      415.237        0.463        0.113       83.567       17.472        0.044      332.546        1.278      850.994
01/28/2021  20:56:00       35.299       -0.253        6.073       20.511       29.373       16.430      420.719      862.802      269.946        0.142        0.078       35.300        9.861        0.078      332.595        1.360      850.991
01/28/2021  20:57:00       52.656       15.332        4.441       42.722       29.888       23.638     1825.201      893.310      558.750        0.315        0.164       54.843       19.002        0.120      332.598        1.367      850.999
01/28/2021  20:58:00       68.249       10.457        3.134       29.266       35.259       22.795      856.498     1243.183      519.633        0.370        0.131       69.046       13.413        0.038      332.528        1.249      851.016
01/28/2021  20:59:00        4.356        1.186      -12.165       36.080       37.692       20.502     1301.733     1420.662      420.344        0.165        0.157        4.514       12.594        7.783      332.605        1.377      851.036
01/28/2021  21:00:00       52.218      -29.247      -10.750       39.433       47.487       29.121     1554.926     2255.000      848.023        0.418        0.233       59.851       14.919        0.062      332.697        1.529      851.031
01/28/2021  21:01:00       31.625        1.585      -11.895       33.595       40.824       24.863     1128.620     1666.608      618.159        0.228        0.171       31.665       13.695        0.187      332.670        1.482      851.042
01/28/2021  21:02:00       24.854        1.395        3.774       31.741       31.907       23.257     1007.489     1018.050      540.872        0.160        0.128       24.893       16.077        0.417      332.573        1.322      851.061
01/28/2021  21:03:00       53.482       -9.138        1.143       23.002       24.988       13.568      529.072      624.417      184.084        0.214        0.067       54.257        9.941        0.034      332.545        1.277      851.079
01/28/2021  21:04:00       48.972       16.220       -3.301       18.713       26.652       13.955      350.180      710.344      194.755        0.196        0.063       51.589        6.373        0.015      332.578        1.330      851.078
01/28/2021  21:05:00       37.637      -14.666        0.639       28.743       24.435       14.328      826.159      597.087      205.277        0.163        0.081       40.393       13.752        0.116      332.546        1.279      851.093
01/28/2021  21:06:00       31.155       27.062       -2.216       18.060       21.040       13.959      326.179      442.696      194.859        0.134        0.048       41.267       10.609        0.066      332.575        1.328      851.093
01/28/2021  21:07:00       12.900       -3.399        4.988       24.160       28.846       18.063      583.710      832.081      326.279        0.097        0.087       13.340       11.968        0.805      332.588        1.348      851.094
01/28/2021  21:08:00       37.150       -1.972       -1.455       24.859       27.510       12.428      617.983      756.823      154.448        0.146        0.076       37.202       13.691        0.135      332.566        1.312      851.078
01/28/2021  21:09:00       17.882       13.963       -4.376       25.665       32.863       16.312      658.703     1079.958      266.097        0.127        0.100       22.688       16.222        0.511      332.580        1.336      851.042
01/28/2021  21:10:00       31.735       36.277       -4.832      105.502       33.756       50.986    11130.656     1139.474     2599.584        0.860        0.743       48.198       68.979        2.048      332.583        1.339      850.991
01/28/2021  21:11:00       51.415       48.583       -3.246       20.884       26.976       15.184      436.162      727.690      230.551        0.320        0.070       70.738       17.807        0.063      332.493        1.191      850.944
01/28/2021  21:12:00       51.463       13.733       -5.397       32.821       34.406       17.392     1077.192     1183.766      302.474        0.271        0.128       53.264       12.836        0.058      332.524        1.242      850.898
01/28/2021  21:13:00       39.274       -2.665       -2.566       32.190       28.982       20.901     1036.185      839.970      436.838        0.193        0.116       39.364       21.441        0.297      332.560        1.302      850.869
01/28/2021  21:14:00       50.846       -7.231       -4.341       20.291       21.369       14.177      411.739      456.644      200.991        0.186        0.053       51.357        9.635        0.035      332.522        1.238      850.855
01/28/2021  21:15:00       44.522      -14.347      -14.090       19.773       26.496       11.529      390.975      702.037      132.916        0.181        0.061       46.777       10.505        0.050      332.570        1.319      850.867
01/28/2021  21:16:00       51.253      -19.841       -5.459       25.596       24.675       15.892      655.174      608.853      252.568        0.228        0.076       54.960       13.711        0.062      332.543        1.274      850.899
01/28/2021  21:17:00       65.018      -13.679       -9.104      140.662       28.286       69.889    19785.806      800.097     4884.498        1.498        1.274       66.441       97.311        2.145      332.555        1.293      850.928
01/28/2021  21:18:00       20.877      -21.327       -0.731       38.762       22.722       19.099     1502.480      516.268      364.789        0.164        0.119       29.845       16.266        0.297      332.657        1.462      850.937
01/28/2021  21:19:00       18.595      -17.498       -3.452       18.627       23.605       16.955      346.951      557.201      287.483        0.093        0.060       25.533        7.145        0.078      332.722        1.570      850.926
01/28/2021  21:20:00       36.223        5.566       -7.994       33.151       35.314       19.618     1098.997     1247.107      384.852        0.207        0.137       36.648       15.430        0.177      332.629        1.414      850.906
01/28/2021  21:21:00       29.255       -2.136        1.116       24.045       24.932       14.351      578.140      621.606      205.957        0.113        0.070       29.333       12.797        0.190      332.573        1.323      850.884
01/28/2021  21:22:00       27.730       -2.176        1.565       24.927       21.458       17.812      621.336      460.434      317.271        0.109        0.070       27.815       15.373        0.305      332.542        1.273      850.871
01/28/2021  21:23:00       10.019       -4.152        1.834       16.800       15.136       12.446      282.242      229.090      154.894        0.039        0.033       10.845       11.470        1.119      332.539        1.267      850.870
01/28/2021  21:24:00       17.580        1.400        5.806       16.406       22.357       10.891      269.171      499.826      118.618        0.062        0.044       17.636       11.334        0.413      332.542        1.273      850.894
01/28/2021  21:25:00       41.862       20.480       -2.043       17.952       19.232       10.857      322.257      369.868      117.882        0.149        0.041       46.603       10.031        0.046      332.546        1.278      850.938
01/28/2021  21:26:00       68.679       31.241       -1.457       80.715       26.855       40.770     6514.935      721.181     1662.154        0.729        0.445       75.451       53.827        0.509      332.586        1.346      850.969
01/28/2021  21:27:00       82.274       27.443        0.826       20.630       22.203       15.708      425.598      492.994      246.752        0.434        0.058       86.730        9.773        0.013      332.536        1.264      850.981
01/28/2021  21:28:00       51.731       44.352        3.832       44.097       46.160       27.362     1944.579     2130.715      748.692        0.474        0.241       68.141       17.272        0.064      332.654        1.457      850.985
01/28/2021  21:29:00       91.876       75.232       -7.585       51.172       38.506       25.315     2618.601     1482.723      640.867        0.945        0.237      118.748       23.133        0.038      332.589        1.350      850.996
01/28/2021  21:30:00       83.543       42.134      -17.353       32.554       36.025       22.598     1059.782     1297.766      510.673        0.596        0.143       93.566       14.022        0.022      332.562        1.306      851.009
01/28/2021  21:31:00       68.219       33.675       -8.412       32.958       27.021       22.466     1086.247      730.119      504.710        0.409        0.116       76.078       17.727        0.054      332.552        1.290      851.018
01/28/2021  21:32:00       63.952       46.271        0.329       41.186       33.003       22.540     1696.283     1089.192      508.043        0.476        0.165       78.936       18.111        0.053      332.554        1.291      851.013
01/28/2021  21:33:00       66.825       43.457        1.703       36.857       28.933       22.914     1358.422      837.135      525.058        0.454        0.136       79.713       10.462        0.017      332.549        1.284      850.990
01/28/2021  21:34:00       53.557       32.847       -0.325       36.811       34.181       20.185     1355.068     1168.318      407.436        0.344        0.147       62.828       18.157        0.084      332.548        1.281      850.958
01/28/2021  21:35:00       41.281       14.905        4.267       31.616       29.102       19.364      999.566      846.929      374.953        0.208        0.111       43.889       11.954        0.074      332.608        1.382      850.945
01/28/2021  21:36:00       -0.991       32.086       10.020       22.946       26.798       17.524      526.504      718.141      307.085        0.134        0.078       32.101        5.338        0.028      332.622        1.405      850.935
01/28/2021  21:37:00        4.023       55.506       -0.294       24.109       25.497       13.395      581.228      650.086      179.423        0.225        0.071       55.651        9.679        0.030      332.638        1.432      850.940
01/28/2021  21:38:00       -7.529       38.724        2.561       24.714       27.023       14.210      610.770      730.216      201.918        0.155        0.077       39.449       15.986        0.164      332.616        1.395      850.943
01/28/2021  21:39:00      -10.982       54.619       -0.623       19.794       26.333       20.573      391.793      693.419      423.260        0.231        0.075       55.712       13.895        0.062      332.695        1.525      850.973
01/28/2021  21:40:00       13.587       39.398        9.411       24.906       47.532       21.994      620.300     2259.311      483.721        0.259        0.168       41.675       15.304        0.135      332.636        1.427      851.003
01/28/2021  21:41:00       48.562       49.109       -6.032      146.660       28.712       69.631    21509.123      824.350     4848.496        1.599        1.359       69.064       96.477        1.951      332.628        1.415      851.027
01/28/2021  21:42:00       40.968       33.559        2.338       22.642       17.938       13.678      512.647      321.763      187.100        0.192        0.051       52.958        5.668        0.011      332.545        1.276      851.044
01/28/2021  21:43:00       43.862       29.891        4.637       15.405       14.276       11.723      237.310      203.792      137.422        0.171        0.029       53.079        5.671        0.011      332.573        1.322      851.039
01/28/2021  21:44:00       18.486       26.604        2.275       27.254       14.749       12.516      742.766      217.543      156.651        0.109        0.056       32.396        9.543        0.087      332.557        1.298      851.022
01/28/2021  21:45:00      -11.909       60.152       -5.852       30.586       27.738       11.627      935.521      769.402      135.178        0.282        0.092       61.320        6.634        0.012      332.624        1.406      850.994
01/28/2021  21:46:00       15.432       18.435        9.323       24.230       20.949       15.625      587.116      438.847      244.145        0.097        0.064       24.042       12.511        0.271      332.592        1.354      850.960
01/28/2021  21:47:00       57.206       64.487       -5.352       34.164       33.346       25.974     1167.154     1111.929      674.642        0.521        0.148       86.204       15.414        0.032      332.639        1.433      850.931
01/28/2021  21:48:00       17.090       61.206       -2.444       29.506       37.142       23.284      870.606     1379.542      542.150        0.342        0.140       63.547       22.141        0.121      332.702        1.537      850.898
01/28/2021  21:49:00       82.543       56.364       -6.611       26.159       27.991       23.593      684.297      783.492      556.636        0.603        0.101       99.951       13.417        0.018      332.617        1.396      850.878
01/28/2021  21:50:00       48.173       30.819        4.004       19.477       28.829       17.943      379.357      831.128      321.937        0.241        0.077       57.188       10.807        0.036      332.586        1.345      850.866
01/28/2021  21:51:00       28.877       55.761        2.666       34.478       34.199       23.107     1188.707     1169.570      533.914        0.342        0.145       62.795       19.943        0.101      332.623        1.407      850.875
01/28/2021  21:52:00       51.706       55.242       -2.571      134.060       31.427       64.331    17971.961      987.641     4138.524        1.441        1.155       75.665       89.753        1.407      332.615        1.392      850.893
01/28/2021  21:53:00       35.571       33.644        7.506       29.426       33.065       17.848      865.877     1093.307      318.542        0.237        0.114       48.961        9.379        0.037      332.567        1.313      850.921
01/28/2021  21:54:00       27.132       34.107       -0.857       22.028       34.074       21.173      485.250     1161.070      448.300        0.200        0.105       43.582       13.331        0.094      332.607        1.381      850.957
01/28/2021  21:55:00       53.434       38.903        1.354       19.312       28.404       15.636      372.937      806.777      244.481        0.290        0.071       66.095       18.838        0.081      332.552        1.289      851.005
01/28/2021  21:56:00       32.338       25.863        5.952       25.538       22.873       16.152      652.183      523.197      260.873        0.159        0.072       41.408       14.608        0.124      332.581        1.338      851.031
01/28/2021  21:57:00       65.220       58.662      -11.872       27.506       25.954       17.238      756.567      673.591      297.135        0.478        0.086       87.720        7.932        0.008      332.555        1.294      851.034
01/28/2021  21:58:00       36.471       67.258        5.446       25.062       32.814       20.013      628.090     1076.759      400.518        0.399        0.105       76.510       15.041        0.039      332.618        1.396      851.000
01/28/2021  21:59:00       75.703       40.979       -9.889       24.049       30.075       16.814      578.349      904.505      282.727        0.464        0.088       86.082       14.446        0.028      332.547        1.280      850.945
01/28/2021  22:00:00       51.530       27.366       -1.948       22.237       23.259       14.585      494.495      540.983      212.709        0.233        0.062       58.346       12.405        0.045      332.579        1.334      850.887
01/28/2021  22:01:00       25.841        8.006        0.145       22.806       28.431       15.326      520.130      808.342      234.882        0.115        0.078       27.053       15.830        0.342      332.583        1.339      850.840
01/28/2021  22:02:00       53.565       35.474        0.138       36.809       31.098       15.721     1354.874      967.059      247.142        0.335        0.128       64.246        5.793        0.008      332.577        1.331      850.801
01/28/2021  22:03:00       70.129       44.098        2.393       22.075       25.960       18.198      487.309      673.941      331.180        0.418        0.075       82.841       10.793        0.017      332.540        1.268      850.774
01/28/2021  22:04:00       31.735       44.636        7.832       25.552       27.199       16.028      652.910      739.806      256.905        0.235        0.082       54.768        8.003        0.021      332.548        1.282      850.738
01/28/2021  22:05:00       17.897       78.013       -2.456       23.373       54.094       20.377      546.277     2926.134      415.208        0.515        0.194       80.040       19.496        0.059      332.592        1.354      850.708
01/28/2021  22:06:00        1.445       81.159       -3.306       29.583       51.890       16.471      875.126     2692.534      271.308        0.522        0.192       81.171       14.804        0.033      332.640        1.434      850.688
01/28/2021  22:07:00       43.896      109.943        5.624       30.865       53.744       27.732      952.658     2888.469      769.081        0.933        0.231      118.382       15.269        0.017      332.636        1.428      850.690
01/28/2021  22:08:00      -11.976       94.911       -2.666      182.033       46.219       87.320    33135.947     2136.174     7624.771        2.602        2.145       95.663      119.156        1.551      332.752        1.619      850.703
01/28/2021  22:09:00       45.228      159.082       -4.115       35.550       56.919       27.504     1263.776     3239.731      756.497        1.631        0.263      165.387       18.742        0.013      332.702        1.536      850.744
01/28/2021  22:10:00      -15.551      112.690        3.404       37.172       52.132       22.838     1381.778     2717.700      521.594        0.879        0.231      113.758       14.464        0.016      332.695        1.525      850.800
01/28/2021  22:11:00       25.320       81.796       -0.067       28.836       50.155       18.552      831.542     2515.569      344.180        0.551        0.185       85.626       11.287        0.017      332.696        1.526      850.862
01/28/2021  22:12:00      -31.219        9.143        4.720       30.107       16.855       15.022      906.422      284.089      225.654        0.125        0.071       32.530       16.484        0.257      332.721        1.568      850.897
01/28/2021  22:13:00      -17.066       44.043       -0.563       23.447       17.979       13.394      549.743      323.259      179.398        0.164        0.053       47.234        6.411        0.018      332.659        1.465      850.934
01/28/2021  22:14:00       12.791       26.154       -5.406       20.432       21.328       13.551      417.451      454.891      183.638        0.097        0.053       29.114        6.365        0.048      332.644        1.440      850.954
01/28/2021  22:15:00       -0.615       16.928        1.152       12.345       15.917       10.715      152.393      253.352      114.812        0.040        0.026       16.939        7.240        0.183      332.704        1.542      850.972
01/28/2021  22:16:00      -62.278       17.044       -0.859       18.697       27.046       10.594      349.591      731.508      112.222        0.268        0.060       64.568        9.163        0.020      332.646        1.445      850.991
01/28/2021  22:17:00       -6.421        7.121        6.666       22.534       21.678       15.938      507.782      469.947      254.017        0.068        0.062        9.588       13.005        1.840      332.694        1.523      850.996
01/28/2021  22:18:00        0.891       11.020        2.292       17.620       46.724       17.428      310.469     2183.116      303.752        0.146        0.140       11.056        9.937        0.808      332.700        1.534      850.993
01/28/2021  22:19:00       19.149      118.079       -2.842       36.712       45.605       20.677     1347.804     2079.780      427.538        0.909        0.193      119.622       16.975        0.020      332.720        1.567      850.968
01/28/2021  22:20:00      -32.476      148.049      -11.980       32.585       37.263       22.059     1061.809     1388.557      486.610        1.303        0.147      151.569       16.124        0.011      332.676        1.494      850.918
01/28/2021  22:21:00        1.463      135.510        2.494       49.412       38.853       24.898     2441.560     1509.550      619.909        1.147        0.229      135.518       15.854        0.014      332.684        1.507      850.866
01/28/2021  22:22:00       16.098      161.297      -12.177       39.342       37.274       21.544     1547.794     1389.382      464.141        1.491        0.170      162.099       12.141        0.006      332.654        1.457      850.812
01/28/2021  22:23:00       26.589      151.324      -14.649      179.991       45.565       84.976    32396.728     2076.145     7220.889        3.275        2.085      153.642      120.092        0.611      332.701        1.536      850.759
01/28/2021  22:24:00       -6.187      123.784       -2.154       57.859       56.429       27.698     3347.645     3184.228      767.173        1.133        0.365      123.939       20.591        0.028      332.657        1.461      850.724
01/28/2021  22:25:00      -18.642      107.105        3.616       43.244       44.586       23.471     1870.061     1987.929      550.884        0.812        0.220      108.716       23.089        0.045      332.663        1.472      850.714
01/28/2021  22:26:00        1.653      136.510       -6.905       38.280       53.885       23.220     1465.328     2903.581      539.159        1.180        0.245      136.520       20.129        0.022      332.649        1.449      850.712
01/28/2021  22:27:00      -18.987      101.074       -6.635       28.812       26.100       17.748      830.118      681.209      314.985        0.622        0.091      102.842       13.796        0.018      332.653        1.455      850.724
01/28/2021  22:28:00      -12.960      118.540       -8.084       31.133       37.854       22.306      969.240     1432.934      497.561        0.859        0.145      119.247       13.603        0.013      332.672        1.486      850.737
01/28/2021  22:29:00      -28.676       74.611       -0.680       22.746       24.150       18.403      517.386      583.206      338.657        0.391        0.072       79.932        9.277        0.013      332.656        1.460      850.745
01/28/2021  22:30:00      -49.917       27.477       -1.257       35.220       23.230       23.137     1240.425      539.647      535.344        0.278        0.116       56.980       16.581        0.085      332.623        1.407      850.761
01/28/2021  22:31:00      -54.190       46.624       -3.344       33.564       19.859       14.331     1126.552      394.383      205.384        0.342        0.086       71.487       11.626        0.026      332.571        1.319      850.770
01/28/2021  22:32:00      -23.152       66.182        3.641       36.025       26.064       23.302     1297.831      679.314      543.004        0.372        0.126       70.114       17.387        0.061      332.608        1.381      850.772
01/28/2021  22:33:00       23.223      141.327      -15.177       42.114       42.529       24.842     1773.606     1808.707      617.141        1.247        0.210      143.222       21.968        0.024      332.641        1.435      850.757
01/28/2021  22:34:00      -15.873       66.443        4.387       23.575       29.238       18.309      555.798      854.864      335.208        0.322        0.087       68.313       16.844        0.061      332.636        1.426      850.745
01/28/2021  22:35:00       -1.323       77.293        5.752       42.458       23.685       17.987     1802.696      560.984      323.541        0.435        0.134       77.304       10.472        0.018      332.630        1.417      850.724
01/28/2021  22:36:00       13.993      115.144       -8.721       50.625       47.076       26.128     2562.911     2216.118      682.677        0.949        0.273      115.991       26.958        0.054      332.618        1.399      850.684
01/28/2021  22:37:00      -36.783      118.506       -5.657       39.068       41.514       23.262     1526.293     1723.387      541.111        0.961        0.190      124.083       19.567        0.025      332.527        1.246      850.634
01/28/2021  22:38:00       -5.143       79.468       -1.316       38.280       36.860       21.225     1465.374     1358.656      450.496        0.481        0.164       79.634       19.766        0.062      332.590        1.352      850.588
01/28/2021  22:39:00       12.747      103.284       -5.168       30.934       33.393       19.374      956.890     1115.066      375.333        0.665        0.122      104.067       15.019        0.021      332.557        1.298      850.571
01/28/2021  22:40:00       -6.499       78.645       -0.990       35.479       28.728       20.261     1258.788      825.279      410.488        0.436        0.125       78.913       18.303        0.054      332.570        1.318      850.592
01/28/2021  22:41:00        7.055       63.310       -4.115      153.846       29.449       74.772    23668.709      867.232     5590.832        1.709        1.506       63.702      105.390        2.737      332.635        1.425      850.613
01/28/2021  22:42:00      -26.902       68.732       -1.167       29.594       20.457       15.889      875.830      418.505      252.459        0.350        0.077       73.809        9.486        0.017      332.581        1.337      850.637
01/28/2021  22:43:00      -34.978       75.835       -9.029       31.720       30.969       18.159     1006.134      959.062      329.747        0.467        0.115       83.513       19.976        0.057      332.540        1.268      850.657
01/28/2021  22:44:00      -47.440      114.705       -5.651       36.788       30.977       18.523     1353.393      959.597      343.106        0.905        0.133      124.128       16.697        0.018      332.560        1.303      850.673
01/28/2021  22:45:00      -25.004       66.064       -8.635      169.159       35.051       80.296    28614.883     1228.567     6447.452        2.067        1.815       70.637      114.841        2.643      332.642        1.437      850.682
01/28/2021  22:46:00      -35.177       41.983       -2.813       29.083       24.849       15.986      845.830      617.472      255.537        0.236        0.086       54.772       14.586        0.071      332.558        1.299      850.684
01/28/2021  22:47:00      -12.826       45.171       -2.761       31.761       31.979       16.169     1008.770     1022.675      261.449        0.225        0.115       46.957       16.234        0.120      332.572        1.320      850.707
01/28/2021  22:48:00        1.908       77.205        4.198       32.728       26.673       17.937     1071.108      711.463      321.745        0.404        0.105       77.229       10.665        0.019      332.578        1.333      850.722
01/28/2021  22:49:00       -5.710       52.626        1.704       29.506       22.096       16.040      870.614      488.245      257.270        0.221        0.081       52.935       13.032        0.061      332.669        1.482      850.741
01/28/2021  22:50:00       -5.483       48.480       -6.141      145.569       14.247       69.386    21190.339      202.965     4814.352        1.431        1.310       48.789       99.245        4.138      332.638        1.431      850.758
01/28/2021  22:51:00      -14.436       27.171       -5.726      209.235       16.646       98.345    43779.401      277.087     9671.818        2.734        2.686       30.768      142.147       21.345      332.647        1.447      850.787
01/28/2021  22:52:00       10.735       28.349       -7.965      234.159       16.209      109.990    54830.283      262.734    12097.733        3.407        3.360       30.313      159.923       27.833      332.624        1.410      850.800
01/28/2021  22:53:00       12.442       28.862        3.565       20.477       11.526       11.686      419.307      132.846      136.567        0.084        0.034       31.429       11.083        0.124      332.540        1.267      850.825
01/28/2021  22:54:00       -9.364       13.865        7.199       20.488       12.095       11.202      419.750      146.294      125.489        0.051        0.035       16.731        9.388        0.315      332.533        1.256      850.858
01/28/2021  22:55:00        9.660        5.924        2.435       20.729        7.724       11.341      429.680       59.655      128.621        0.038        0.031       11.332       12.856        1.287      332.554        1.290      850.898
01/28/2021  22:56:00       29.560       -4.924       -5.045      165.271        7.088       79.494    27314.462       50.241     6319.307        1.730        1.684       29.967      114.263       14.539      332.639        1.432      850.936
01/28/2021  22:57:00      -16.930        4.155        0.459       10.202        7.004        7.606      104.080       49.050       57.846        0.026        0.011       17.433        5.612        0.104      332.547        1.280      850.961
01/28/2021  22:58:00       -8.528       -5.731        1.342       15.135        9.060       11.720      229.079       82.088      137.362        0.028        0.022       10.274        5.957        0.336      332.527        1.248      850.969
01/28/2021  22:59:00      -16.393       16.899        0.493       15.906       13.660        5.740      252.987      186.603       32.946        0.051        0.024       23.544        6.509        0.076      332.519        1.234      850.965
01/28/2021  23:00:00       -8.439       14.967        2.239       16.929        6.848        7.471      286.583       46.901       55.813        0.034        0.019       17.182        5.258        0.094      332.487        1.181      850.967
01/28/2021  23:01:00      -49.946       19.457       -3.113       22.213       10.966       12.874      493.429      120.253      165.748        0.183        0.039       53.602       13.684        0.065      332.521        1.238      850.989
01/28/2021  23:02:00      -72.667       25.395      -11.443       12.110        8.966        9.530      146.650       80.387       90.823        0.319        0.016       76.977        6.473        0.007      332.470        1.152      851.012
01/28/2021  23:03:00      -62.796        4.848       -2.921       18.784       16.541       12.378      352.854      273.603      153.209        0.238        0.039       62.983        8.406        0.018      332.505        1.209      851.010
01/28/2021  23:04:00      -81.028       30.577        0.776       22.205       16.120       15.110      493.069      259.860      228.324        0.424        0.049       86.605       10.577        0.015      332.444        1.111      850.978
01/28/2021  23:05:00      -63.696       27.865       -2.471       23.930       17.356       15.273      572.624      301.244      233.261        0.297        0.055       69.525       11.884        0.029      332.484        1.177      850.928
01/28/2021  23:06:00      -66.298       19.180        0.656       33.596       16.846       19.720     1128.672      283.801      388.863        0.328        0.090       69.017        9.875        0.020      332.446        1.113      850.900
01/28/2021  23:07:00      -29.101       25.389       -5.886      146.119       17.607       69.044    21350.651      310.013     4767.106        1.397        1.321       38.620       97.556        6.381      332.580        1.335      850.902
01/28/2021  23:08:00        0.600       -2.311       -7.043      166.120       20.317       81.146    27595.846      412.762     6584.680        1.732        1.730        2.388      114.071     2282.254      332.563        1.308      850.920
01/28/2021  23:09:00      -14.023        6.846        7.678       19.270       20.562       14.158      371.326      422.801      200.459        0.065        0.050       15.605       10.740        0.474      332.536        1.262      850.923
01/28/2021  23:10:00      -35.720       -8.366       -2.365       43.653       31.863       19.846     1905.582     1015.227      393.881        0.233        0.166       36.687       23.225        0.401      332.536        1.263      850.901
01/28/2021  23:11:00      -66.496       11.920      -14.562      146.557       19.082       70.536    21479.022      364.112     4975.388        1.579        1.341       67.556       99.996        2.191      332.485        1.180      850.866
01/28/2021  23:12:00      -42.916       15.959       -6.896      147.968       22.174       72.187    21894.566      491.707     5210.940        1.486        1.380       45.788      101.732        4.937      332.519        1.235      850.838
01/28/2021  23:13:00      -32.060       58.728       -4.847       18.930       22.007       12.909      358.340      484.324      166.648        0.275        0.050       66.909        9.745        0.021      332.503        1.208      850.817
01/28/2021  23:14:00      -18.647       26.378      -16.474      168.718       19.500       81.191    28465.677      380.268     6591.920        1.837        1.772       32.303      115.496       12.784      332.526        1.247      850.812
01/28/2021  23:15:00      -41.889       24.025       -5.487       29.289       27.048       13.907      857.844      731.578      193.417        0.207        0.089       48.290       11.722        0.059      332.531        1.255      850.823
01/28/2021  23:16:00      -56.283       16.341      -12.374       28.166       21.904       11.862      793.333      479.772      140.700        0.250        0.071       58.607        7.169        0.015      332.534        1.259      850.870
01/28/2021  23:17:00      -96.457       30.665       -6.543       15.351       16.607       10.781      235.652      275.794      116.240        0.546        0.031      101.214        6.478        0.004      332.425        1.080      850.912
01/28/2021  23:18:00      -80.562       15.811      -11.144       18.104       24.912       11.803      327.768      620.600      139.315        0.398        0.054       82.099       12.264        0.022      332.429        1.086      850.941
01/28/2021  23:19:00      -53.657       17.647      -18.852      210.106       19.666      101.349    44144.663      386.741    10271.620        2.916        2.740       56.485      144.542        6.548      332.555        1.295      850.942
01/28/2021  23:20:00      -57.152       36.747       -4.754       18.497       14.408       16.082      342.124      207.579      258.643        0.272        0.040       67.946        7.624        0.013      332.459        1.136      850.930
01/28/2021  23:21:00      -53.174       32.924       -5.828       18.381       22.070       15.273      337.855      487.079      233.257        0.250        0.053       62.542       11.457        0.034      332.445        1.111      850.918
01/28/2021  23:22:00      -37.588       23.170       -5.929      158.444       22.088       75.445    25104.512      487.871     5691.907        1.663        1.564       44.155      105.501        5.709      332.540        1.268      850.910
01/28/2021  23:23:00      -45.497       43.820      -14.650       22.324       14.144       11.007      498.344      200.046      121.153        0.251        0.041       63.168        4.058        0.004      332.445        1.111      850.874
01/28/2021  23:24:00      -20.592        8.546       -1.921       17.738       22.958       16.650      314.635      527.082      277.223        0.081        0.056       22.295       11.499        0.266      332.477        1.164      850.829
01/28/2021  23:25:00      -50.383        0.401       -3.148       38.294       27.712       20.517     1466.441      767.977      420.949        0.260        0.133       50.385       19.156        0.145      332.459        1.135      850.799
01/28/2021  23:26:00      -39.261        7.104       -0.037       59.181       27.702       21.085     3502.364      767.400      444.560        0.315        0.236       39.899       29.519        0.547      332.474        1.160      850.793
01/28/2021  23:27:00      -85.543       24.621      -14.152       23.377       24.856       20.421      546.486      617.830      417.028        0.485        0.079       89.015       13.592        0.023      332.481        1.172      850.792
01/28/2021  23:28:00      -24.796      -10.615       -5.892       35.144       28.360       18.608     1235.103      804.265      346.250        0.157        0.119       26.973       15.201        0.318      332.513        1.223      850.789
01/28/2021  23:29:00       -7.874       20.406        1.170       24.397       16.979       20.255      595.201      288.279      410.270        0.089        0.065       21.872       11.882        0.295      332.565        1.309      850.789
01/28/2021  23:30:00      -48.080       44.476      -19.003      125.695       24.989       60.097    15799.173      624.425     3611.692        1.234        1.002       65.496       80.137        1.497      332.561        1.303      850.788
01/28/2021  23:31:00      -67.420       15.708      -10.962       32.187       43.376       24.225     1036.012     1881.454      586.867        0.421        0.175       69.226       19.805        0.082      332.520        1.235      850.796
01/28/2021  23:32:00      -37.813        5.780       -1.997       21.502       14.109       13.636      462.356      199.056      185.932        0.116        0.042       38.252        7.620        0.040      332.531        1.255      850.819
01/28/2021  23:33:00      -43.544       15.905       -2.921       20.478       19.539       12.898      419.367      381.789      166.346        0.156        0.048       46.357        9.909        0.046      332.470        1.154      850.827
01/28/2021  23:34:00      -10.741       51.248        4.550       17.535       15.458       10.506      307.472      238.960      110.382        0.171        0.033       52.361        8.679        0.027      332.521        1.238      850.815
01/28/2021  23:35:00      -18.161       81.887       -1.287       28.903       30.012       15.787      835.391      900.718      249.216        0.451        0.099       83.876       14.629        0.030      332.517        1.230      850.784
01/28/2021  23:36:00      -36.483       99.085       -2.907       16.195       22.758       18.013      262.263      517.915      324.451        0.613        0.055      105.588       12.794        0.015      332.562        1.305      850.744
01/28/2021  23:37:00      -17.429       43.032       -0.530       40.640       23.995       20.482     1651.641      575.778      419.528        0.240        0.132       46.427       15.535        0.112      332.535        1.261      850.723
01/28/2021  23:38:00      -15.843       64.257      -14.466       43.435       63.581       38.513     1886.590     4042.603     1483.227        0.600        0.371       66.181       51.890        0.615      332.692        1.522      850.711
01/28/2021  23:39:00       45.550       62.470      -14.716       41.234       63.099       31.550     1700.279     3981.497      995.407        0.643        0.334       77.313       44.519        0.332      332.577        1.329      850.729
01/28/2021  23:40:00       19.088       39.672       -9.235       48.435       58.497       39.000     2345.928     3421.941     1520.971        0.465        0.364       44.025       45.140        1.051      332.669        1.480      850.781
01/28/2021  23:41:00        7.015       13.763       -7.443       38.060       61.854       33.109     1448.597     3825.968     1096.180        0.333        0.319       15.447       46.337        8.998      332.595        1.358      850.827
01/28/2021  23:42:00       34.939       55.700      -18.556      148.141       56.707       72.790    21945.816     3215.672     5298.393        1.756        1.523       65.752       91.552        1.939      332.651        1.451      850.861
01/28/2021  23:43:00        1.831       64.075      -14.663       39.912       64.556       32.671     1593.000     4167.456     1067.378        0.557        0.341       64.101       47.063        0.539      332.577        1.332      850.858
01/28/2021  23:44:00       11.477       49.265       -7.501       40.244       66.337       36.702     1619.608     4400.561     1347.019        0.499        0.368       50.584       50.182        0.984      332.560        1.304      850.829
01/28/2021  23:45:00        3.112       99.691       -6.030       39.634       73.372       38.319     1570.823     5383.475     1468.366        0.920        0.421       99.739       51.406        0.266      332.608        1.380      850.797
01/28/2021  23:46:00       -3.177      103.980      -11.892       35.775       73.132       36.202     1279.843     5348.351     1310.559        0.945        0.397      104.028       48.785        0.220      332.622        1.404      850.782
01/28/2021  23:47:00        5.246      127.184      -16.192       43.710       71.308       42.162     1910.542     5084.835     1777.620        1.262        0.439      127.292       51.511        0.164      332.707        1.542      850.769
01/28/2021  23:48:00      -13.294      150.026      -22.300       49.353       70.423       42.261     2435.723     4959.378     1786.013        1.618        0.459      150.614       52.058        0.119      332.609        1.385      850.773
01/28/2021  23:49:00        2.825      128.548      -18.563       37.695       52.884       36.598     1420.923     2796.704     1339.404        1.122        0.278      128.579       42.053        0.107      332.669        1.481      850.793
01/28/2021  23:50:00       21.649      113.743      -24.909      217.916       76.101      109.636    47487.217     5791.415    12020.072        3.965        3.265      115.785      141.190        1.487      332.859        1.795      850.823
01/28/2021  23:51:00       45.658        7.016       35.804       53.331       86.378       46.402     2844.236     7461.237     2153.143        0.793        0.623       46.194       65.060        1.984      332.888        1.844      850.855
01/28/2021  23:52:00       14.063       12.484       19.703       49.772       83.816       50.669     2477.251     7025.081     2567.314        0.640        0.603       18.805       68.416       13.237      332.921        1.901      850.877
01/28/2021  23:53:00       24.101       -1.291       12.861       49.146       80.406       48.318     2415.296     6465.128     2334.592        0.598        0.561       24.135       66.649        7.626      332.743        1.602      850.897
01/28/2021  23:54:00        9.899       32.224       10.432       54.174       95.695       52.058     2934.832     9157.530     2710.020        0.802        0.740       33.710       74.725        4.914      332.878        1.829      850.910
01/28/2021  23:55:00        5.985       15.297        4.330       64.214      107.901       59.164     4123.491    11642.619     3500.437        0.977        0.963       16.426       85.060       26.814      332.846        1.774      850.921
01/28/2021  23:56:00      -12.389       11.808       14.592       53.331       83.138       48.619     2844.235     6911.896     2363.788        0.631        0.606       17.115       67.664       15.631      332.730        1.582      850.924
01/28/2021  23:57:00        4.927      -19.204        9.772       59.071       88.636       48.543     3489.362     7856.366     2356.401        0.709        0.685       19.826       68.922       12.085      332.939        1.929      850.912
01/28/2021  23:58:00       -2.813       -8.426       21.127       59.984       78.509       47.941     3598.043     6163.706     2298.350        0.629        0.603        8.883       63.811       51.606      332.791        1.685      850.892
01/28/2021  23:59:00      -73.315       33.709      -11.263       45.877       80.269       44.516     2104.686     6443.117     1981.715        0.858        0.526       80.693       61.131        0.574      332.762        1.635      850.872
01/29/2021  00:00:00      -21.721      -28.418       13.627       53.701       81.802       45.893     2883.825     6691.578     2106.149        0.657        0.584       35.768       65.226        3.325      332.761        1.636      850.848
01/29/2021  00:01:00      -62.841        3.478       -3.129       41.803       60.913       40.236     1747.478     3710.381     1618.968        0.552        0.354       62.937       51.595        0.672      332.626        1.411      850.826
01/29/2021  00:02:00      -34.213       -9.371        6.895       44.702       69.999       40.502     1998.272     4899.891     1640.407        0.492        0.427       35.473       52.611        2.200      332.645        1.443      850.817
01/29/2021  00:03:00      -47.086       -3.038        4.992       59.857       67.003       42.610     3582.852     4489.372     1815.611        0.607        0.494       47.184       57.380        1.479      332.678        1.495      850.803
01/29/2021  00:04:00      -50.306       -4.490        8.526       37.648       63.304       38.002     1417.372     4007.420     1444.170        0.474        0.343       50.506       49.823        0.973      332.665        1.476      850.793
01/29/2021  00:05:00      -29.636        3.147       12.324       38.221       60.735       40.631     1460.845     3688.796     1650.871        0.392        0.340       29.802       49.764        2.788      332.656        1.460      850.779
01/29/2021  00:06:00      -23.690        2.113       -9.192       39.116       64.225       37.071     1530.072     4124.808     1374.242        0.384        0.351       23.784       51.053        4.608      332.566        1.314      850.777
01/29/2021  00:07:00      -39.935       12.308       -1.604       45.855       62.333       39.466     2102.677     3885.378     1557.570        0.465        0.377       41.789       50.242        1.446      332.556        1.293      850.793
01/29/2021  00:08:00      -52.248       -3.393        2.114       32.907       55.182       32.501     1082.884     3045.100     1056.346        0.396        0.259       52.358       39.149        0.559      332.578        1.331      850.814
01/29/2021  00:09:00      -30.057       -0.261       -1.395       40.492       46.849       30.808     1639.608     2194.806      949.114        0.284        0.239       30.058       34.676        1.331      332.512        1.224      850.828
01/29/2021  00:10:00        1.963        2.303        8.475       31.637       44.876       22.085     1000.889     2013.870      487.759        0.179        0.175        3.026       23.886       62.312      332.504        1.210      850.831
01/29/2021  00:11:00       23.818       -1.284       17.673       28.333       44.390       25.181      802.765     1970.451      634.091        0.214        0.170       23.853       20.470        0.736      332.445        1.114      850.816
01/29/2021  00:12:00      -33.156       -6.248        5.209       38.739       41.077       23.833     1500.678     1687.282      568.023        0.246        0.188       33.740       22.510        0.445      332.384        1.011      850.779
01/29/2021  00:13:00      -96.616       38.733        1.389       44.898       36.414       23.679     2015.788     1325.971      560.708        0.737        0.195      104.090       25.895        0.062      332.266        0.817      850.740
01/29/2021  00:14:00     -108.134       25.618        2.173       35.369       32.778       22.276     1250.946     1074.391      496.220        0.759        0.141      111.127       21.757        0.038      332.286        0.851      850.706
01/29/2021  00:15:00      -82.239       25.362       -7.330       48.265       30.462       20.376     2329.502      927.954      415.192        0.557        0.184       86.061       12.979        0.023      332.239        0.774      850.677
01/29/2021  00:16:00     -127.917       39.948      -12.000       34.589       22.549       18.675     1196.430      508.479      348.774        1.008        0.103      134.010       15.134        0.013      332.135        0.599      850.661
01/29/2021  00:17:00      -95.798       33.529      -10.372       33.754       24.515       20.608     1139.333      600.974      424.688        0.629        0.108      101.496       15.310        0.023      332.153        0.629      850.648
01/29/2021  00:18:00     -121.202       24.007       -9.518       32.763       29.977       20.248     1073.440      898.616      409.990        0.887        0.119      123.557       15.203        0.015      332.133        0.597      850.635
01/29/2021  00:19:00     -115.513       39.084      -16.347       33.156       17.390        9.248     1099.323      302.416       85.525        0.831        0.074      121.946       10.762        0.008      332.041        0.447      850.625
01/29/2021  00:20:00      -86.157       25.460      -24.838       31.015       24.144       16.224      961.946      582.909      263.232        0.525        0.090       89.840        7.134        0.006      332.122        0.579      850.620
01/29/2021  00:21:00      -55.583       25.403      -24.679      195.849       14.661       92.888    38356.866      214.952     8628.264        2.576        2.360       61.113      133.612        4.780      332.118        0.576      850.605
01/29/2021  00:22:00      -47.551       18.912      -19.418       21.798       22.395       13.809      475.170      501.543      190.675        0.208        0.058       51.174        8.959        0.031      332.095        0.537      850.581
01/29/2021  00:23:00      -52.217       -5.509       -3.851       49.352       18.158       16.945     2435.633      329.703      287.143        0.291        0.153       52.506       19.651        0.140      332.077        0.503      850.558
01/29/2021  00:24:00      -33.079      -17.086        1.439       37.815       53.857       26.523     1429.937     2900.552      703.452        0.321        0.252       37.231       28.135        0.571      332.061        0.479      850.534
01/29/2021  00:25:00      -29.225      -19.398       -8.659       57.883       64.096       37.610     3350.480     4108.278     1414.549        0.509        0.444       35.077       46.017        1.721      331.984        0.353      850.511
01/29/2021  00:26:00      -95.270      -20.530      -22.758       55.137       62.237       34.670     3040.069     3873.459     1202.008        0.906        0.406       97.457       46.229        0.225      331.837        0.108      850.501
01/29/2021  00:27:00      -92.229      -23.351      -26.687       54.584       75.484       44.858     2979.458     5697.892     2012.282        1.022        0.534       95.139       48.331        0.258      331.794        0.038      850.478
01/29/2021  00:28:00      -29.506      -32.288      -10.442       52.656       82.248       50.103     2772.678     6764.685     2510.288        0.703        0.602       43.740       60.046        1.885      331.797        0.043      850.462
01/29/2021  00:29:00      -22.587      -33.360      -15.465       61.196       85.989       52.571     3744.931     7394.152     2763.699        0.788        0.695       40.287       61.489        2.330      331.785        0.024      850.441
01/29/2021  00:30:00       -8.024      -81.715       -4.686       67.659      107.425       61.767     4577.708    11540.222     3815.122        1.334        0.997       82.108       63.043        0.590      331.097       -1.107      850.425
01/29/2021  00:31:00      -38.441      -71.222      -18.136       71.425      113.387       56.967     5101.485    12856.499     3245.211        1.404        1.060       80.934       58.721        0.526      330.686       -1.783      850.398
01/29/2021  00:32:00        6.600      -56.544      -24.354       59.154       96.654       54.564     3499.140     9342.019     2977.265        0.982        0.791       56.928       54.888        0.930      330.613       -1.903      850.382
01/29/2021  00:33:00      -25.952      -22.957       -5.781       48.780       68.043       38.487     2379.452     4629.901     1481.260        0.486        0.425       34.649       36.852        1.131      330.654       -1.836      850.370
01/29/2021  00:34:00      -48.060       17.261       -5.696       29.117       32.504       22.093      847.815     1056.530      488.102        0.252        0.120       51.066       21.098        0.171      330.628       -1.877      850.365
01/29/2021  00:35:00       -0.901       -6.899        8.373       25.831       41.548       23.059      667.247     1726.209      531.738        0.152        0.146        6.958       25.617       13.555      330.670       -1.809      850.362
01/29/2021  00:36:00      -62.823       21.252       -9.187       35.825       38.944       30.501     1283.460     1516.600      930.321        0.411        0.187       66.320       29.461        0.197      330.615       -1.900      850.350
01/29/2021  00:37:00        2.496      -36.029       10.790       26.013       38.432       26.043      676.660     1476.982      678.212        0.213        0.142       36.115       20.366        0.318      330.738       -1.698      850.341
01/29/2021  00:38:00       11.082       -6.871        5.480       27.908       42.115       24.147      778.850     1773.708      583.054        0.167        0.157       13.039       23.154        3.153      330.744       -1.687      850.350
01/29/2021  00:39:00      -26.478       10.219       -0.820       23.209       33.149       21.290      538.668     1098.843      453.261        0.145        0.105       28.382       16.419        0.335      330.642       -1.854      850.361
01/29/2021  00:40:00      -13.855        6.946       -8.009       24.228       29.994       18.317      586.992      899.633      335.503        0.106        0.091       15.499       20.995        1.835      330.584       -1.950      850.369
01/29/2021  00:41:00       10.568       -0.174       -4.262       23.852       34.026       18.030      568.894     1157.764      325.077        0.109        0.103       10.569       17.630        2.783      330.631       -1.873      850.387
01/29/2021  00:42:00       24.027       20.866        3.381       15.985       23.144       12.936      255.534      535.639      167.341        0.099        0.048       31.822       15.857        0.248      330.594       -1.934      850.397
01/29/2021  00:43:00       13.069       21.881        6.028       18.549       26.036       13.746      344.062      677.883      188.951        0.095        0.061       25.487       16.511        0.420      330.540       -2.023      850.420
01/29/2021  00:44:00       23.986       60.101       31.352       34.388       61.881       34.751     1182.527     3829.257     1207.612        0.569        0.311       64.711       48.061        0.552      330.400       -2.252      850.443
01/29/2021  00:45:00       37.639       57.356       43.691       45.102       69.150       37.611     2034.170     4781.772     1414.614        0.742        0.412       68.603       51.939        0.573      330.340       -2.350      850.460
01/29/2021  00:46:00       27.820       48.525       33.550       43.089       77.929       40.303     1856.661     6072.964     1624.306        0.690        0.478       55.934       55.699        0.992      330.323       -2.377      850.463
01/29/2021  00:47:00       -1.801       73.755       33.273       46.586       74.109       39.929     2170.283     5492.142     1594.331        0.790        0.463       73.777       57.164        0.600      330.333       -2.362      850.466
01/29/2021  00:48:00       -7.495       90.765       34.415       43.623       81.028       42.689     1902.936     6565.556     1822.340        0.988        0.515       91.074       58.050        0.406      330.290       -2.433      850.468
01/29/2021  00:49:00       15.731       68.202       35.150      200.904       86.084      107.189    40362.294     7410.403    11489.439        3.269        2.963       69.992      130.594        3.481      330.449       -2.170      850.489
01/29/2021  00:50:00       51.897       71.423       58.093       55.757       88.464       46.382     3108.805     7825.908     2151.315        1.212        0.654       88.287       52.083        0.348      330.404       -2.246      850.516
01/29/2021  00:51:00       53.581       84.184       80.307       57.960       92.042       51.810     3359.357     8471.676     2684.304        1.546        0.726       99.789       49.874        0.250      330.396       -2.258      850.551
01/29/2021  00:52:00       70.028       12.132      106.044       70.096      108.354       64.255     4913.471    11740.529     4128.664        1.854        1.039       71.071       61.337        0.745      330.807       -1.584      850.569
01/29/2021  00:53:00       41.730       20.962       98.018       80.111      100.602       72.248     6417.823    10120.846     5219.790        1.677        1.088       46.699       57.870        1.536      330.848       -1.515      850.585
01/29/2021  00:54:00       37.077        2.388       98.559       85.987      106.900       67.373     7393.706    11427.510     4539.072        1.722        1.168       37.154       47.871        1.660      330.980       -1.302      850.596
01/29/2021  00:55:00       54.043       -5.559       91.360       95.512      120.669       60.710     9122.615    14560.941     3685.653        1.933        1.368       54.328       34.534        0.404      330.926       -1.389      850.602
01/29/2021  00:56:00       84.404       54.419       89.409      212.592      110.447      119.834    45195.168    12198.455    14360.190        4.490        3.588      100.427      123.836        1.521      330.628       -1.876      850.616
01/29/2021  00:57:00      106.994       41.898      110.854       84.215       98.909       61.952     7092.186     9783.034     3838.039        2.310        1.036      114.905       53.031        0.213      330.556       -1.999      850.633
01/29/2021  00:58:00      147.983       34.751       81.023      231.217       92.071      114.880    53461.427     8477.140    13197.490        5.239        3.757      152.009      130.858        0.741      330.763       -1.656      850.651
01/29/2021  00:59:00      139.142       34.342       72.783       72.293      114.968       66.222     5226.346    13217.601     4385.390        2.433        1.141      143.317       55.136        0.148      330.549       -2.009      850.662
01/29/2021  01:00:00      184.291       46.465       38.445      448.626      117.757      217.253   201265.461    13866.818    47198.985       14.991       13.117      190.058      299.012        2.475      330.783       -1.618      850.665
01/29/2021  01:01:00       87.716       42.333       78.783      190.579      104.958      108.285    36320.272    11016.141    11725.664        3.737        2.953       97.397       96.814        0.988      330.662       -1.822      850.660
01/29/2021  01:02:00       98.174        6.541       81.733      219.562      121.297      126.571    48207.534    14712.873    16020.280        4.764        3.947       98.391      141.949        2.081      330.684       -1.786      850.660
01/29/2021  01:03:00       96.895       25.705       77.852       65.505      120.338       51.223     4290.898    14481.197     2623.809        1.875        1.070      100.246       43.969        0.192      330.531       -2.037      850.649
01/29/2021  01:04:00       79.256       84.890       66.126       57.065      100.635       57.602     3256.362    10127.345     3318.008        1.728        0.835      116.137       54.468        0.220      330.248       -2.500      850.627
01/29/2021  01:05:00       79.132       84.518       61.539       64.358       94.372       62.084     4141.949     8906.094     3854.463        1.704        0.845      115.780       52.892        0.209      330.331       -2.365      850.596
01/29/2021  01:06:00       69.346       69.096       76.516       70.436       90.431       65.409     4961.214     8177.732     4278.285        1.642        0.871       97.893       53.545        0.299      330.437       -2.191      850.571
01/29/2021  01:07:00       29.100       67.499       43.608       56.701       95.878       51.118     3215.012     9192.590     2613.082        1.116        0.751       73.505       48.846        0.442      330.458       -2.156      850.542
01/29/2021  01:08:00       25.904      107.192       50.699       69.689       95.133       64.611     4856.599     9050.270     4174.612        1.640        0.904      110.277       61.007        0.306      330.488       -2.108      850.515
01/29/2021  01:09:00       34.811       85.825       57.720       64.668      112.549       61.591     4181.947    12667.337     3793.451        1.627        1.032       92.616       60.500        0.427      330.528       -2.042      850.500
01/29/2021  01:10:00       61.448       34.474       60.658       61.119      117.735       57.056     3735.568    13861.610     3255.335        1.474        1.043       70.458       49.033        0.484      330.496       -2.093      850.473
01/29/2021  01:11:00       67.246       57.351       87.526       68.246      117.015       65.487     4657.553    13692.593     4288.590        1.905        1.132       88.381       58.316        0.435      330.604       -1.916      850.449
01/29/2021  01:12:00       20.949       82.932       58.440       63.450       93.314       56.642     4025.892     8707.542     3208.260        1.333        0.797       85.537       57.124        0.446      331.187       -0.958      850.430
01/29/2021  01:13:00       -6.228       65.961       28.153       55.933       94.576       50.010     3128.472     8944.627     2500.960        0.988        0.729       66.254       48.590        0.538      331.367       -0.664      850.418
01/29/2021  01:14:00       11.551       99.803       34.848       55.072       86.610       44.588     3032.901     7501.313     1988.080        1.191        0.626      100.470       49.253        0.240      331.433       -0.555      850.409
01/29/2021  01:15:00       17.440      112.704       37.626       59.840       90.752       44.092     3580.788     8235.927     1944.085        1.409        0.688      114.045       48.274        0.179      331.478       -0.482      850.407
01/29/2021  01:16:00        3.736      115.867       49.377       54.072       94.641       44.212     2923.789     8956.840     1954.700        1.485        0.692      115.928       50.117        0.187      331.319       -0.743      850.405
01/29/2021  01:17:00       36.403       91.389       59.409       59.958      101.616       58.390     3595.008    10325.737     3409.450        1.526        0.867       98.372       51.109        0.270      331.292       -0.787      850.402
01/29/2021  01:18:00       58.238       22.482       76.912       66.533      110.343       56.857     4426.638    12175.688     3232.665        1.482        0.992       62.427       48.825        0.612      331.189       -0.959      850.404
01/29/2021  01:19:00       79.170       -4.462       84.470       60.822      113.523       59.361     3699.270    12887.465     3523.695        1.676        1.006       79.296       53.153        0.449      331.163       -0.999      850.396
01/29/2021  01:20:00       32.851       25.418       75.070       67.193      121.129       58.008     4514.947    14672.117     3364.908        1.495        1.128       41.537       59.400        2.045      331.006       -1.255      850.395
01/29/2021  01:21:00       62.736       50.832       31.821      313.105      101.210      155.684    98034.795    10243.505    24237.375        7.000        6.626       80.744      207.513        6.605      331.386       -0.628      850.402
01/29/2021  01:22:00       54.652       56.232       50.693       53.178       91.238       48.569     2827.912     8324.319     2358.993        1.111        0.676       78.415       44.524        0.322      331.333       -0.721      850.406
01/29/2021  01:23:00       76.891       81.500       62.606       61.603       97.137       54.847     3794.967     9435.674     3008.179        1.635        0.812      112.047       49.148        0.192      331.289       -0.791      850.421
01/29/2021  01:24:00       84.188       83.648       62.121       64.625       97.411       49.947     4176.408     9488.856     2494.662        1.705        0.808      118.679       44.537        0.141      331.193       -0.951      850.420
01/29/2021  01:25:00       75.337       56.030       66.988       59.562       91.892       55.524     3547.578     8444.137     3082.873        1.419        0.754       93.888       49.060        0.273      331.177       -0.975      850.414
01/29/2021  01:26:00      163.804       48.801       19.061      433.140       92.641      185.330   187610.436     8582.358    34347.079       13.001       11.527      170.919      274.214        2.574      331.475       -0.482      850.403
01/29/2021  01:27:00      104.951       51.708       31.350       59.098       82.116       48.715     3492.544     6743.043     2373.117        1.364        0.630      116.998       39.390        0.113      331.302       -0.772      850.392
01/29/2021  01:28:00       79.406       29.905       36.148       57.641       87.972       46.915     3322.490     7739.139     2201.054        1.088        0.663       84.850       47.707        0.316      331.286       -0.797      850.384
01/29/2021  01:29:00      106.307       88.648       32.352       56.896       82.309       53.141     3237.158     6774.827     2823.982        1.652        0.642      138.418       47.980        0.120      331.242       -0.870      850.385
01/29/2021  01:30:00      120.522       77.686       26.155       59.377       92.668       50.232     3525.639     8587.335     2523.264        1.794        0.732      143.390       48.392        0.114      331.249       -0.857      850.373
01/29/2021  01:31:00      173.448       37.690        4.109      380.844       84.721      188.124   145041.906     7177.723    35390.766       10.953        9.381      177.496      257.884        2.111      331.536       -0.380      850.379
01/29/2021  01:32:00       48.454       52.763       30.190       75.089       78.503       51.277     5638.325     6162.671     2629.352        1.023        0.722       71.636       54.685        0.583      331.391       -0.623      850.381
01/29/2021  01:33:00      156.908       84.437       16.593      291.008       74.387      138.184    84685.900     5533.358    19094.903        7.065        5.466      178.185      191.438        1.154      331.395       -0.618      850.378
01/29/2021  01:34:00       76.477       27.200       21.629       53.169       92.415       43.798     2826.942     8540.497     1918.236        1.017        0.664       81.170       39.144        0.233      331.278       -0.812      850.383
01/29/2021  01:35:00      113.669       31.926       10.323      380.740       77.183      184.208   144962.687     5957.206    33932.719        9.941        9.243      118.067      255.514        4.683      331.425       -0.564      850.390
01/29/2021  01:36:00      100.332        4.707       39.121       58.147       85.727       50.225     3381.059     7349.144     2522.586        1.243        0.663      100.442       47.759        0.226      331.132       -1.051      850.391
01/29/2021  01:37:00       51.232       19.010       31.183       52.252       73.442       44.010     2730.224     5393.736     1936.920        0.701        0.503       54.645       35.413        0.420      331.240       -0.871      850.385
01/29/2021  01:38:00       80.477       47.921        2.099      168.765       73.773       86.632    28481.601     5442.405     7505.140        2.509        2.071       93.665      107.952        1.328      331.288       -0.793      850.380
01/29/2021  01:39:00      170.329       53.071      -47.748      524.754       57.348      254.597   275367.109     3288.844    64819.714       18.872       17.174      178.405      362.223        4.122      331.662       -0.168      850.363
01/29/2021  01:40:00       65.213       28.084        0.804      171.420       53.181       86.153    29384.852     2828.215     7422.382        2.233        1.982       71.003      113.611        2.560      331.363       -0.668      850.358
01/29/2021  01:41:00       58.672       41.693        8.470      145.319       60.849       77.126    21117.728     3702.551     5948.378        1.800        1.538       71.977       94.724        1.732      331.289       -0.792      850.366
01/29/2021  01:42:00       54.783        9.333       20.549       55.632       66.304       43.053     3094.954     4396.176     1853.528        0.643        0.467       55.572       38.583        0.482      331.244       -0.865      850.373
01/29/2021  01:43:00       86.252       23.376       18.384      280.875       74.462      144.524    78890.630     5544.635    20887.217        5.680        5.266       89.364      187.676        4.411      331.264       -0.832      850.374
01/29/2021  01:44:00       63.409       30.568       22.535      195.159       73.744       99.702    38086.885     5438.242     9940.423        2.945        2.673       70.392      124.503        3.128      331.270       -0.823      850.378
01/29/2021  01:45:00       66.414       40.869       21.351       46.137       66.048       39.151     2128.664     4362.303     1532.800        0.728        0.401       77.982       43.868        0.316      331.232       -0.886      850.383
01/29/2021  01:46:00       89.561       27.994       21.893      180.522       74.486       95.518    32588.271     5548.220     9123.677        2.826        2.363       93.834      112.335        1.433      331.215       -0.914      850.381
01/29/2021  01:47:00       84.934       33.454       18.268      207.606       74.819      109.478    43100.412     5597.905    11985.448        3.466        3.034       91.285      138.247        2.294      331.244       -0.864      850.377
01/29/2021  01:48:00      152.771      -16.081       55.709      201.798       92.764      110.630    40722.606     8605.138    12238.986        4.412        3.078      153.615      131.506        0.733      330.849       -1.514      850.381
01/29/2021  01:49:00      118.822      -55.476       74.566       53.614       79.418       47.660     2874.510     6307.178     2271.481        1.710        0.573      131.134       39.468        0.091      330.808       -1.582      850.386
01/29/2021  01:50:00      129.859      -57.301       69.540       54.827       78.647       47.203     3005.986     6185.409     2228.139        1.820        0.571      141.940       40.936        0.083      330.819       -1.565      850.394
01/29/2021  01:51:00      131.907      -93.048       87.074       53.593       67.456       43.158     2872.160     4550.289     1862.604        2.146        0.464      161.423       34.265        0.045      330.722       -1.722      850.399
01/29/2021  01:52:00      113.740      -27.474       61.628       60.202       90.870       51.144     3624.221     8257.279     2615.707        1.599        0.725      117.011       45.509        0.151      330.836       -1.537      850.407
01/29/2021  01:53:00      124.191       -8.937       58.485       59.738       87.111       51.389     3568.579     7588.241     2640.824        1.636        0.690      124.512       51.386        0.170      330.889       -1.450      850.412
01/29/2021  01:54:00      120.699      -47.117       38.248      264.486       81.319      129.494    69952.799     6612.717    16768.594        5.577        4.667      129.569      172.652        1.776      331.061       -1.165      850.421
01/29/2021  01:55:00      107.785      -47.069       51.309      242.074       83.517      122.162    58599.830     6975.133    14923.478        4.846        4.025      117.614      153.646        1.707      330.990       -1.281      850.443
01/29/2021  01:56:00      118.890      -17.248       50.314       61.297       85.428       49.084     3757.302     7297.995     2409.273        1.521        0.673      120.134       49.937        0.173      330.884       -1.457      850.457
01/29/2021  01:57:00      117.184      -46.045       56.796       53.310       82.001       42.423     2841.962     6724.168     1799.720        1.522        0.568      125.906       43.650        0.120      330.830       -1.547      850.466
01/29/2021  01:58:00      133.393      -69.289       59.529       46.394       72.402       42.125     2152.395     5242.099     1774.513        1.765        0.458      150.315       48.759        0.105      330.874       -1.475      850.476
01/29/2021  01:59:00      128.610      -96.969       56.245      165.630       69.284       87.710    27433.388     4800.300     7693.051        3.451        1.996      161.070      104.779        0.423      330.917       -1.403      850.476
01/29/2021  02:00:00      154.761      -75.931       65.111       42.245       73.391       40.092     1784.668     5386.182     1607.381        2.137        0.439      172.385       47.790        0.077      330.796       -1.604      850.479
01/29/2021  02:01:00      132.873      -54.671       50.709       49.879       85.431       43.061     2487.891     7298.411     1854.243        1.743        0.582      143.681       53.882        0.141      330.913       -1.411      850.471
01/29/2021  02:02:00       81.311      -20.238       24.404       50.292       74.226       44.527     2529.248     5509.564     1982.675        0.882        0.501       83.791       49.245        0.345      331.113       -1.082      850.461
01/29/2021  02:03:00       69.963      -34.034       22.186      140.080       73.588       76.929    19622.500     5415.143     5918.087        1.874        1.548       77.802       81.883        1.108      331.160       -1.003      850.456
01/29/2021  02:04:00       59.987        6.537       12.460       39.791       70.507       37.959     1583.345     4971.207     1440.869        0.589        0.400       60.342       37.846        0.393      331.193       -0.950      850.458
01/29/2021  02:05:00       61.672       14.302       -0.730      233.526       56.944      116.366    54534.344     3242.634    13541.119        3.765        3.566       63.309      157.904        6.221      331.331       -0.721      850.462
01/29/2021  02:06:00       14.214        1.966       10.301       44.507       53.955       36.691     1980.837     2911.105     1346.205        0.327        0.312       14.350       28.702        4.001      331.276       -0.813      850.464
01/29/2021  02:07:00       53.042       36.539        6.467      176.913       52.355       89.650    31298.238     2741.016     8037.119        2.312        2.104       64.409      116.755        3.286      331.333       -0.718      850.469
01/29/2021  02:08:00       34.089        9.109        8.653       31.423       42.705       26.010      987.387     1823.759      676.507        0.240        0.174       35.285       25.112        0.506      331.312       -0.754      850.470
01/29/2021  02:09:00       72.304       28.031        1.430       41.308       39.730       22.588     1706.389     1578.438      510.219        0.490        0.190       77.547       19.294        0.062      331.220       -0.905      850.472
01/29/2021  02:10:00       58.597        8.913        0.822      196.558       44.816       95.318    38634.890     2008.518     9085.452        2.661        2.486       59.271      131.305        4.908      331.320       -0.739      850.475
01/29/2021  02:11:00       63.165        6.014        4.550       34.314       41.644       25.816     1177.430     1734.182      666.480        0.381        0.179       63.451       24.558        0.150      331.236       -0.878      850.478
01/29/2021  02:12:00       43.040       -2.866        5.799       35.702       37.667       24.633     1274.602     1418.807      606.794        0.260        0.165       43.135       19.784        0.210      331.261       -0.838      850.487
01/29/2021  02:13:00       49.761       11.605        0.160      185.236       45.672       91.433    34312.345     2085.898     8360.062        2.367        2.238       51.096      125.699        6.052      331.324       -0.733      850.498
01/29/2021  02:14:00       78.100       -3.802        3.159      236.704       56.160      119.106    56028.690     3153.955    14186.205        3.973        3.668       78.193      161.674        4.275      331.259       -0.839      850.498
01/29/2021  02:15:00       78.624      -18.918      -16.763      310.086       61.247      151.578    96153.150     3751.246    22975.761        6.482        6.144       80.868      211.621        6.848      331.329       -0.723      850.499
01/29/2021  02:16:00       88.601      -54.438      -11.744      261.397       81.363      130.799    68328.147     6619.932    17108.257        5.148        4.603      103.988      173.935        2.798      331.241       -0.869      850.506
01/29/2021  02:17:00       56.886        4.932        9.000      163.687       54.570       84.801    26793.470     2977.906     7191.154        2.014        1.848       57.100      108.125        3.586      331.238       -0.876      850.508
01/29/2021  02:18:00       74.712       -7.931       11.702       45.158       63.718       39.122     2039.203     4060.004     1530.524        0.670        0.381       75.132       30.737        0.167      331.098       -1.105      850.509
01/29/2021  02:19:00      106.885      -32.228       11.205      317.898       70.772      153.672   101058.853     5008.653    23615.059        7.111        6.484      111.639      212.187        3.613      331.143       -1.029      850.510
01/29/2021  02:20:00       68.703      -42.384       42.956       52.610       86.370       43.097     2767.787     7459.824     1857.374        1.022        0.604       80.725       48.901        0.367      330.965       -1.324      850.510
01/29/2021  02:21:00       82.627      -66.761       53.862       58.675       87.251       48.145     3442.762     7612.691     2317.955        1.378        0.669      106.227       54.115        0.260      330.837       -1.534      850.508
01/29/2021  02:22:00      120.998      -60.591       19.547      336.206       96.223      157.428   113034.304     9258.835    24783.687        8.286        7.354      135.321      219.637        2.634      331.059       -1.165      850.502
01/29/2021  02:23:00       85.329      -50.718       46.448       60.542      109.765       63.238     3665.385    12048.452     3999.069        1.586        0.986       99.264       70.054        0.498      330.654       -1.834      850.495
01/29/2021  02:24:00       37.231      -62.540       58.240       93.267      105.661       66.218     8698.759    11164.217     4384.806        1.646        1.212       72.783       74.386        1.045      330.530       -2.041      850.497
01/29/2021  02:25:00       24.366      -27.862        8.322      202.663      131.236      108.041    41072.304    17222.927    11672.856        3.569        3.498       37.014      121.844       10.836      330.678       -1.798      850.497
01/29/2021  02:26:00       60.197      -63.534       22.089       74.548      161.337       58.301     5557.366    26029.642     3398.961        2.156        1.749       87.523       83.189        0.903      330.591       -1.942      850.502
01/29/2021  02:27:00        0.933       28.062      -36.900       46.295       74.102       45.548     2143.194     5491.135     2074.658        0.593        0.485       28.077       62.055        4.885      330.709       -1.747      850.511
01/29/2021  02:28:00      -52.866        8.960       42.152       41.339       35.215        3.368     1708.931     1240.088       11.346        0.381        0.148       53.620       13.522        0.064      330.873       -1.480      850.529
01/29/2021  02:29:00      129.767       58.259     -106.465       72.088      130.252      109.584     5196.612    16965.661    12008.736        3.286        1.709      142.244      118.379        0.693      330.202       -2.582      850.549
01/29/2021  02:30:00      294.417     -119.023      -28.724      126.315      121.221       56.152    15955.359    14694.491     3153.090        6.773        1.690      317.565       73.428        0.053      330.000       -2.914      850.568
01/29/2021  02:31:00      149.944      148.051     -123.419       34.762        0.220        6.820     1208.374        0.048       46.517        3.044        0.063      210.719       15.395        0.005      329.965       -2.966      850.580
01/29/2021  02:32:00      117.478       69.934     -127.799       69.377       83.396       39.456     4813.103     6954.840     1556.814        2.417        0.666      136.718       60.923        0.199      328.984       -4.564      850.602
01/29/2021  02:33:00       73.000       74.000     -147.000        0.000        0.000        0.000        0.000        0.000        0.000        1.621        0.000      103.947        0.000        0.000      328.420       -5.480      850.610
01/29/2021  02:34:00      803.090       23.617     -413.431     1206.749       74.330      589.865  1456243.765     5524.927   347940.875      131.274       90.485      803.437      840.662        1.095      332.218        0.798      850.619
01/29/2021  02:35:00       24.220        7.185      -40.621        3.211       33.714       19.036       10.310     1136.623      362.358        0.190        0.075       25.264       25.386        1.010      329.964       -2.974      850.630
01/29/2021  02:36:00      142.155       16.944      -42.842       94.804      110.855       57.066     8987.804    12288.742     3256.536        2.343        1.227      143.161       30.032        0.044      329.570       -3.612      850.625
01/29/2021  02:37:00      109.688      -26.021      -26.771      110.854       95.603       51.805    12288.515     9140.013     2683.763        1.876        1.206      112.733       48.359        0.184      329.744       -3.319      850.636
01/29/2021  02:38:00      143.882        0.362      -25.094       85.022      124.692       86.654     7228.670    15548.103     7508.836        2.580        1.514      143.883       88.320        0.377      329.416       -3.859      850.638
01/29/2021  02:39:00      136.196      -29.457      -18.276       83.885       76.846       65.117     7036.632     5905.358     4240.249        1.846        0.859      139.345       62.822        0.203      329.302       -4.049      850.637
01/29/2021  02:40:00      165.800       22.558      -41.004       88.954       83.376       57.766     7912.845     6951.624     3336.944        2.394        0.910      167.328       42.010        0.063      329.153       -4.295      850.630
01/29/2021  02:41:00      203.495       50.146      -51.503      140.258      102.638       76.045    19672.351    10534.567     5782.805        4.128        1.799      209.582       82.763        0.156      329.143       -4.311      850.614
01/29/2021  02:42:00      148.000     -203.000       69.000        0.000        0.000        0.000        0.000        0.000        0.000        3.394        0.000      251.223        0.000        0.000      329.340       -4.000      850.610
01/29/2021  02:43:00      148.000     -203.000       69.000        0.000        0.000        0.000        0.000        0.000        0.000        3.394        0.000      251.223        0.000        0.000      329.340       -4.000      850.610
01/29/2021  02:44:00      148.000     -203.000       69.000        0.000        0.000        0.000        0.000        0.000        0.000        3.394        0.000      251.223        0.000        0.000      329.340       -4.000      850.610
01/29/2021  02:45:00      148.000     -203.000       69.000        0.000        0.000        0.000        0.000        0.000        0.000        3.394        0.000      251.223        0.000        0.000      329.340       -4.000      850.610
01/29/2021  02:46:00      148.000     -203.000       69.000        0.000        0.000        0.000        0.000        0.000        0.000        3.394        0.000      251.223        0.000        0.000      329.340       -4.000      850.610
01/29/2021  02:47:00      148.000     -203.000       69.000        0.000        0.000        0.000        0.000        0.000        0.000        3.394        0.000      251.223        0.000        0.000      329.340       -4.000      850.610
01/29/2021  02:48:00      148.000     -203.000       69.000        0.000        0.000        0.000        0.000        0.000        0.000        3.394        0.000      251.223        0.000        0.000      329.340       -4.000      850.610
01/29/2021  02:49:00      148.000     -203.000       69.000        0.000        0.000        0.000        0.000        0.000        0.000        3.394        0.000      251.223        0.000        0.000      329.340       -4.000      850.610
01/29/2021  02:50:00      148.000     -203.000       69.000        0.000        0.000        0.000        0.000        0.000        0.000        3.394        0.000      251.223        0.000        0.000      329.340       -4.000      850.610
01/29/2021  02:51:00      148.000     -203.000       69.000        0.000        0.000        0.000        0.000        0.000        0.000        3.394        0.000      251.223        0.000        0.000      329.340       -4.000      850.610
01/29/2021  02:52:00      148.000     -203.000       69.000        0.000        0.000        0.000        0.000        0.000        0.000        3.394        0.000      251.223        0.000        0.000      329.340       -4.000      850.610
01/29/2021  02:53:00      148.000     -203.000       69.000        0.000        0.000        0.000        0.000        0.000        0.000        3.394        0.000      251.223        0.000        0.000      329.340       -4.000      850.610
01/29/2021  02:54:00      148.000     -203.000       69.000        0.000        0.000        0.000        0.000        0.000        0.000        3.394        0.000      251.223        0.000        0.000      329.340       -4.000      850.610
01/29/2021  02:55:00      148.000     -203.000       69.000        0.000        0.000        0.000        0.000        0.000        0.000        3.394        0.000      251.223        0.000        0.000      329.340       -4.000      850.610
01/29/2021  02:56:00      148.000     -203.000       69.000        0.000        0.000        0.000        0.000        0.000        0.000        3.394        0.000      251.223        0.000        0.000      329.340       -4.000      850.610
01/29/2021  02:57:00      148.000     -203.000       69.000        0.000        0.000        0.000        0.000        0.000        0.000        3.394        0.000      251.223        0.000        0.000      329.340       -4.000      850.610
01/29/2021  02:58:00      148.000     -203.000       69.000        0.000        0.000        0.000        0.000        0.000        0.000        3.394        0.000      251.223        0.000        0.000      329.340       -4.000      850.610
01/29/2021  02:59:00      148.000     -203.000       69.000        0.000        0.000        0.000        0.000        0.000        0.000        3.394        0.000      251.223        0.000        0.000      329.340       -4.000      850.610
01/29/2021  03:00:00      148.000     -203.000       69.000        0.000        0.000        0.000        0.000        0.000        0.000        3.394        0.000      251.223        0.000        0.000      329.340       -4.000      850.610
01/29/2021  03:01:00      148.000     -203.000       69.000        0.000        0.000        0.000        0.000        0.000        0.000        3.394        0.000      251.223        0.000        0.000      329.340       -4.000      850.610
01/29/2021  03:02:00      148.000     -203.000       69.000        0.000        0.000        0.000        0.000        0.000        0.000        3.394        0.000      251.223        0.000        0.000      329.340       -4.000      850.610
01/29/2021  03:03:00      148.000     -203.000       69.000        0.000        0.000        0.000        0.000        0.000        0.000        3.394        0.000      251.223        0.000        0.000      329.340       -4.000      850.610
01/29/2021  03:04:00      148.000     -203.000       69.000        0.000        0.000        0.000        0.000        0.000        0.000        3.394        0.000      251.223        0.000        0.000      329.340       -4.000      850.610
01/29/2021  03:05:00      148.000     -203.000       69.000        0.000        0.000        0.000        0.000        0.000        0.000        3.394        0.000      251.223        0.000        0.000      329.340       -4.000      850.610
01/29/2021  03:06:00      148.000     -203.000       69.000        0.000        0.000        0.000        0.000        0.000        0.000        3.394        0.000      251.223        0.000        0.000      329.340       -4.000      850.610
01/29/2021  03:07:00      148.000     -203.000       69.000        0.000        0.000        0.000        0.000        0.000        0.000        3.394        0.000      251.223        0.000        0.000      329.340       -4.000      850.610
01/29/2021  03:08:00      148.000     -203.000       69.000        0.000        0.000        0.000        0.000        0.000        0.000        3.394        0.000      251.223        0.000        0.000      329.340       -4.000      850.610
01/29/2021  03:09:00      148.000     -203.000       69.000        0.000        0.000        0.000        0.000        0.000        0.000        3.394        0.000      251.223        0.000        0.000      329.340       -4.000      850.610
01/29/2021  03:10:00      148.000     -203.000       69.000        0.000        0.000        0.000        0.000        0.000        0.000        3.394        0.000      251.223        0.000        0.000      329.340       -4.000      850.610
01/29/2021  03:11:00      148.000     -203.000       69.000        0.000        0.000        0.000        0.000        0.000        0.000        3.394        0.000      251.223        0.000        0.000      329.340       -4.000      850.610
01/29/2021  03:12:00      148.000     -203.000       69.000        0.000        0.000        0.000        0.000        0.000        0.000        3.394        0.000      251.223        0.000        0.000      329.340       -4.000      850.610
01/29/2021  03:13:00      148.000     -203.000       69.000        0.000        0.000        0.000        0.000        0.000        0.000        3.394        0.000      251.223        0.000        0.000      329.340       -4.000      850.610
01/29/2021  03:14:00      148.000     -203.000       69.000        0.000        0.000        0.000        0.000        0.000        0.000        3.394        0.000      251.223        0.000        0.000      329.340       -4.000      850.610
01/29/2021  03:15:00      148.000     -203.000       69.000        0.000        0.000        0.000        0.000        0.000        0.000        3.394        0.000      251.223        0.000        0.000      329.340       -4.000      850.610
01/29/2021  03:16:00      148.000     -203.000       69.000        0.000        0.000        0.000        0.000        0.000        0.000        3.394        0.000      251.223        0.000        0.000      329.340       -4.000      850.610
01/29/2021  03:17:00      148.000     -203.000       69.000        0.000        0.000        0.000        0.000        0.000        0.000        3.394        0.000      251.223        0.000        0.000      329.340       -4.000      850.610
01/29/2021  03:18:00      148.000     -203.000       69.000        0.000        0.000        0.000        0.000        0.000        0.000        3.394        0.000      251.223        0.000        0.000      329.340       -4.000      850.610
01/29/2021  03:19:00      148.000     -203.000       69.000        0.000        0.000        0.000        0.000        0.000        0.000        3.394        0.000      251.223        0.000        0.000      329.340       -4.000      850.610
01/29/2021  03:20:00      148.000     -203.000       69.000        0.000        0.000        0.000        0.000        0.000        0.000        3.394        0.000      251.223        0.000        0.000      329.340       -4.000      850.610
01/29/2021  03:21:00      148.000     -203.000       69.000        0.000        0.000        0.000        0.000        0.000        0.000        3.394        0.000      251.223        0.000        0.000      329.340       -4.000      850.610
01/29/2021  03:22:00      148.000     -203.000       69.000        0.000        0.000        0.000        0.000        0.000        0.000        3.394        0.000      251.223        0.000        0.000      329.340       -4.000      850.610
01/29/2021  03:23:00      148.000     -203.000       69.000        0.000        0.000        0.000        0.000        0.000        0.000        3.394        0.000      251.223        0.000        0.000      329.340       -4.000      850.610
01/29/2021  03:24:00      148.000     -203.000       69.000        0.000        0.000        0.000        0.000        0.000        0.000        3.394        0.000      251.223        0.000        0.000      329.340       -4.000      850.610
01/29/2021  03:25:00      148.000     -203.000       69.000        0.000        0.000        0.000        0.000        0.000        0.000        3.394        0.000      251.223        0.000        0.000      329.340       -4.000      850.610
01/29/2021  03:26:00      148.000     -203.000       69.000        0.000        0.000        0.000        0.000        0.000        0.000        3.394        0.000      251.223        0.000        0.000      329.340       -4.000      850.610
01/29/2021  03:27:00      148.000     -203.000       69.000        0.000        0.000        0.000        0.000        0.000        0.000        3.394        0.000      251.223        0.000        0.000      329.340       -4.000      850.610
01/29/2021  03:28:00      148.000     -203.000       69.000        0.000        0.000        0.000        0.000        0.000        0.000        3.394        0.000      251.223        0.000        0.000      329.340       -4.000      850.610
01/29/2021  03:29:00      148.000     -203.000       69.000        0.000        0.000        0.000        0.000        0.000        0.000        3.394        0.000      251.223        0.000        0.000      329.340       -4.000      850.610
01/29/2021  03:30:00      148.000     -203.000       69.000        0.000        0.000        0.000        0.000        0.000        0.000        3.394        0.000      251.223        0.000        0.000      329.340       -4.000      850.610
01/29/2021  03:31:00      148.000     -203.000       69.000        0.000        0.000        0.000        0.000        0.000        0.000        3.394        0.000      251.223        0.000        0.000      329.340       -4.000      850.610
01/29/2021  03:32:00      148.000     -203.000       69.000        0.000        0.000        0.000        0.000        0.000        0.000        3.394        0.000      251.223        0.000        0.000      329.340       -4.000      850.610
01/29/2021  03:33:00      148.000     -203.000       69.000        0.000        0.000        0.000        0.000        0.000        0.000        3.394        0.000      251.223        0.000        0.000      329.340       -4.000      850.610
01/29/2021  03:34:00      148.000     -203.000       69.000        0.000        0.000        0.000        0.000        0.000        0.000        3.394        0.000      251.223        0.000        0.000      329.340       -4.000      850.610
01/29/2021  03:35:00      148.000     -203.000       69.000        0.000        0.000        0.000        0.000        0.000        0.000        3.394        0.000      251.223        0.000        0.000      329.340       -4.000      850.610
01/29/2021  03:36:00      148.000     -203.000       69.000        0.000        0.000        0.000        0.000        0.000        0.000        3.394        0.000      251.223        0.000        0.000      329.340       -4.000      850.610
01/29/2021  03:37:00      148.000     -203.000       69.000        0.000        0.000        0.000        0.000        0.000        0.000        3.394        0.000      251.223        0.000        0.000      329.340       -4.000      850.610
01/29/2021  03:38:00      148.000     -203.000       69.000        0.000        0.000        0.000        0.000        0.000        0.000        3.394        0.000      251.223        0.000        0.000      329.340       -4.000      850.610
01/29/2021  03:39:00      148.000     -203.000       69.000        0.000        0.000        0.000        0.000        0.000        0.000        3.394        0.000      251.223        0.000        0.000      329.340       -4.000      850.610
01/29/2021  03:40:00      148.000     -203.000       69.000        0.000        0.000        0.000        0.000        0.000        0.000        3.394        0.000      251.223        0.000        0.000      329.340       -4.000      850.610
01/29/2021  03:41:00      148.000     -203.000       69.000        0.000        0.000        0.000        0.000        0.000        0.000        3.394        0.000      251.223        0.000        0.000      329.340       -4.000      850.610
01/29/2021  03:42:00      148.000     -203.000       69.000        0.000        0.000        0.000        0.000        0.000        0.000        3.394        0.000      251.223        0.000        0.000      329.340       -4.000      850.610
01/29/2021  03:43:00      148.000     -203.000       69.000        0.000        0.000        0.000        0.000        0.000        0.000        3.394        0.000      251.223        0.000        0.000      329.340       -4.000      850.610
01/29/2021  03:44:00      148.000     -203.000       69.000        0.000        0.000        0.000        0.000        0.000        0.000        3.394        0.000      251.223        0.000        0.000      329.340       -4.000      850.610
01/29/2021  03:45:00      148.000     -203.000       69.000        0.000        0.000        0.000        0.000        0.000        0.000        3.394        0.000      251.223        0.000        0.000      329.340       -4.000      850.610
01/29/2021  03:46:00      148.000     -203.000       69.000        0.000        0.000        0.000        0.000        0.000        0.000        3.394        0.000      251.223        0.000        0.000      329.340       -4.000      850.610
01/29/2021  03:47:00      148.000     -203.000       69.000        0.000        0.000        0.000        0.000        0.000        0.000        3.394        0.000      251.223        0.000        0.000      329.340       -4.000      850.610
01/29/2021  03:48:00      148.000     -203.000       69.000        0.000        0.000        0.000        0.000        0.000        0.000        3.394        0.000      251.223        0.000        0.000      329.340       -4.000      850.610
01/29/2021  03:49:00      148.000     -203.000       69.000        0.000        0.000        0.000        0.000        0.000        0.000        3.394        0.000      251.223        0.000        0.000      329.340       -4.000      850.610
01/29/2021  03:50:00      148.000     -203.000       69.000        0.000        0.000        0.000        0.000        0.000        0.000        3.394        0.000      251.223        0.000        0.000      329.340       -4.000      850.610
01/29/2021  03:51:00      148.000     -203.000       69.000        0.000        0.000        0.000        0.000        0.000        0.000        3.394        0.000      251.223        0.000        0.000      329.340       -4.000      850.610
01/29/2021  03:52:00      148.000     -203.000       69.000        0.000        0.000        0.000        0.000        0.000        0.000        3.394        0.000      251.223        0.000        0.000      329.340       -4.000      850.610
01/29/2021  03:53:00      148.000     -203.000       69.000        0.000        0.000        0.000        0.000        0.000        0.000        3.394        0.000      251.223        0.000        0.000      329.340       -4.000      850.610
01/29/2021  03:54:00      148.000     -203.000       69.000        0.000        0.000        0.000        0.000        0.000        0.000        3.394        0.000      251.223        0.000        0.000      329.340       -4.000      850.610
01/29/2021  03:55:00      148.000     -203.000       69.000        0.000        0.000        0.000        0.000        0.000        0.000        3.394        0.000      251.223        0.000        0.000      329.340       -4.000      850.610
01/29/2021  03:56:00      148.000     -203.000       69.000        0.000        0.000        0.000        0.000        0.000        0.000        3.394        0.000      251.223        0.000        0.000      329.340       -4.000      850.610
01/29/2021  03:57:00      148.000     -203.000       69.000        0.000        0.000        0.000        0.000        0.000        0.000        3.394        0.000      251.223        0.000        0.000      329.340       -4.000      850.610
01/29/2021  03:58:00      148.000     -203.000       69.000        0.000        0.000        0.000        0.000        0.000        0.000        3.394        0.000      251.223        0.000        0.000      329.340       -4.000      850.610
01/29/2021  03:59:00      148.000     -203.000       69.000        0.000        0.000        0.000        0.000        0.000        0.000        3.394        0.000      251.223        0.000        0.000      329.340       -4.000      850.610
01/29/2021  04:00:00      148.000     -203.000       69.000        0.000        0.000        0.000        0.000        0.000        0.000        3.394        0.000      251.223        0.000        0.000      329.340       -4.000      850.610
01/29/2021  04:01:00      148.000     -203.000       69.000        0.000        0.000        0.000        0.000        0.000        0.000        3.394        0.000      251.223        0.000        0.000      329.340       -4.000      850.610
01/29/2021  04:02:00      148.000     -203.000       69.000        0.000        0.000        0.000        0.000        0.000        0.000        3.394        0.000      251.223        0.000        0.000      329.340       -4.000      850.610
01/29/2021  04:03:00      148.000     -203.000       69.000        0.000        0.000        0.000        0.000        0.000        0.000        3.394        0.000      251.223        0.000        0.000      329.340       -4.000      850.610
01/29/2021  04:04:00      148.000     -203.000       69.000        0.000        0.000        0.000        0.000        0.000        0.000        3.394        0.000      251.223        0.000        0.000      329.340       -4.000      850.610
01/29/2021  04:05:00      148.000     -203.000       69.000        0.000        0.000        0.000        0.000        0.000        0.000        3.394        0.000      251.223        0.000        0.000      329.340       -4.000      850.610
01/29/2021  04:06:00      148.000     -203.000       69.000        0.000        0.000        0.000        0.000        0.000        0.000        3.394        0.000      251.223        0.000        0.000      329.340       -4.000      850.610
01/29/2021  04:07:00      148.000     -203.000       69.000        0.000        0.000        0.000        0.000        0.000        0.000        3.394        0.000      251.223        0.000        0.000      329.340       -4.000      850.610
01/29/2021  04:08:00      148.000     -203.000       69.000        0.000        0.000        0.000        0.000        0.000        0.000        3.394        0.000      251.223        0.000        0.000      329.340       -4.000      850.610
01/29/2021  04:09:00      148.000     -203.000       69.000        0.000        0.000        0.000        0.000        0.000        0.000        3.394        0.000      251.223        0.000        0.000      329.340       -4.000      850.610
01/29/2021  04:10:00      148.000     -203.000       69.000        0.000        0.000        0.000        0.000        0.000        0.000        3.394        0.000      251.223        0.000        0.000      329.340       -4.000      850.610
01/29/2021  04:11:00      148.000     -203.000       69.000        0.000        0.000        0.000        0.000        0.000        0.000        3.394        0.000      251.223        0.000        0.000      329.340       -4.000      850.610
01/29/2021  04:12:00      148.000     -203.000       69.000        0.000        0.000        0.000        0.000        0.000        0.000        3.394        0.000      251.223        0.000        0.000      329.340       -4.000      850.610
01/29/2021  04:13:00      148.000     -203.000       69.000        0.000        0.000        0.000        0.000        0.000        0.000        3.394        0.000      251.223        0.000        0.000      329.340       -4.000      850.610
01/29/2021  04:14:00      148.000     -203.000       69.000        0.000        0.000        0.000        0.000        0.000        0.000        3.394        0.000      251.223        0.000        0.000      329.340       -4.000      850.610
01/29/2021  04:15:00      148.000     -203.000       69.000        0.000        0.000        0.000        0.000        0.000        0.000        3.394        0.000      251.223        0.000        0.000      329.340       -4.000      850.610
01/29/2021  04:16:00      148.000     -203.000       69.000        0.000        0.000        0.000        0.000        0.000        0.000        3.394        0.000      251.223        0.000        0.000      329.340       -4.000      850.610
01/29/2021  04:17:00      148.000     -203.000       69.000        0.000        0.000        0.000        0.000        0.000        0.000        3.394        0.000      251.223        0.000        0.000      329.340       -4.000      850.610
01/29/2021  04:18:00      148.000     -203.000       69.000        0.000        0.000        0.000        0.000        0.000        0.000        3.394        0.000      251.223        0.000        0.000      329.340       -4.000      850.610
01/29/2021  04:19:00      148.000     -203.000       69.000        0.000        0.000        0.000        0.000        0.000        0.000        3.394        0.000      251.223        0.000        0.000      329.340       -4.000      850.610
01/29/2021  04:20:00      148.000     -203.000       69.000        0.000        0.000        0.000        0.000        0.000        0.000        3.394        0.000      251.223        0.000        0.000      329.340       -4.000      850.610
01/29/2021  04:21:00      148.000     -203.000       69.000        0.000        0.000        0.000        0.000        0.000        0.000        3.394        0.000      251.223        0.000        0.000      329.340       -4.000      850.610
01/29/2021  04:22:00      148.000     -203.000       69.000        0.000        0.000        0.000        0.000        0.000        0.000        3.394        0.000      251.223        0.000        0.000      329.340       -4.000      850.610
01/29/2021  04:23:00      148.000     -203.000       69.000        0.000        0.000        0.000        0.000        0.000        0.000        3.394        0.000      251.223        0.000        0.000      329.340       -4.000      850.610
01/29/2021  04:24:00      148.000     -203.000       69.000        0.000        0.000        0.000        0.000        0.000        0.000        3.394        0.000      251.223        0.000        0.000      329.340       -4.000      850.610
01/29/2021  04:25:00      148.000     -203.000       69.000        0.000        0.000        0.000        0.000        0.000        0.000        3.394        0.000      251.223        0.000        0.000      329.340       -4.000      850.610
01/29/2021  04:26:00      148.000     -203.000       69.000        0.000        0.000        0.000        0.000        0.000        0.000        3.394        0.000      251.223        0.000        0.000      329.340       -4.000      850.610
01/29/2021  04:27:00      148.000     -203.000       69.000        0.000        0.000        0.000        0.000        0.000        0.000        3.394        0.000      251.223        0.000        0.000      329.340       -4.000      850.610
01/29/2021  04:28:00      148.000     -203.000       69.000        0.000        0.000        0.000        0.000        0.000        0.000        3.394        0.000      251.223        0.000        0.000      329.340       -4.000      850.610
01/29/2021  04:29:00      148.000     -203.000       69.000        0.000        0.000        0.000        0.000        0.000        0.000        3.394        0.000      251.223        0.000        0.000      329.340       -4.000      850.610
01/29/2021  04:30:00      148.000     -203.000       69.000        0.000        0.000        0.000        0.000        0.000        0.000        3.394        0.000      251.223        0.000        0.000      329.340       -4.000      850.610
01/29/2021  04:31:00      148.000     -203.000       69.000        0.000        0.000        0.000        0.000        0.000        0.000        3.394        0.000      251.223        0.000        0.000      329.340       -4.000      850.610
01/29/2021  04:32:00      148.000     -203.000       69.000        0.000        0.000        0.000        0.000        0.000        0.000        3.394        0.000      251.223        0.000        0.000      329.340       -4.000      850.610
01/29/2021  04:33:00      148.000     -203.000       69.000        0.000        0.000        0.000        0.000        0.000        0.000        3.394        0.000      251.223        0.000        0.000      329.340       -4.000      850.610
01/29/2021  04:34:00      148.000     -203.000       69.000        0.000        0.000        0.000        0.000        0.000        0.000        3.394        0.000      251.223        0.000        0.000      329.340       -4.000      850.610
01/29/2021  04:35:00      148.000     -203.000       69.000        0.000        0.000        0.000        0.000        0.000        0.000        3.394        0.000      251.223        0.000        0.000      329.340       -4.000      850.610
01/29/2021  04:36:00      148.000     -203.000       69.000        0.000        0.000        0.000        0.000        0.000        0.000        3.394        0.000      251.223        0.000        0.000      329.340       -4.000      850.610
01/29/2021  04:37:00      148.000     -203.000       69.000        0.000        0.000        0.000        0.000        0.000        0.000        3.394        0.000      251.223        0.000        0.000      329.340       -4.000      850.610
01/29/2021  04:38:00      148.000     -203.000       69.000        0.000        0.000        0.000        0.000        0.000        0.000        3.394        0.000      251.223        0.000        0.000      329.340       -4.000      850.610
01/29/2021  04:39:00      148.000     -203.000       69.000        0.000        0.000        0.000        0.000        0.000        0.000        3.394        0.000      251.223        0.000        0.000      329.340       -4.000      850.610
01/29/2021  04:40:00      148.000     -203.000       69.000        0.000        0.000        0.000        0.000        0.000        0.000        3.394        0.000      251.223        0.000        0.000      329.340       -4.000      850.610
01/29/2021  04:41:00      148.000     -203.000       69.000        0.000        0.000        0.000        0.000        0.000        0.000        3.394        0.000      251.223        0.000        0.000      329.340       -4.000      850.610
01/29/2021  04:42:00      148.000     -203.000       69.000        0.000        0.000        0.000        0.000        0.000        0.000        3.394        0.000      251.223        0.000        0.000      329.340       -4.000      850.610
01/29/2021  04:43:00      148.000     -203.000       69.000        0.000        0.000        0.000        0.000        0.000        0.000        3.394        0.000      251.223        0.000        0.000      329.340       -4.000      850.610
01/29/2021  04:44:00      148.000     -203.000       69.000        0.000        0.000        0.000        0.000        0.000        0.000        3.394        0.000      251.223        0.000        0.000      329.340       -4.000      850.610
01/29/2021  04:45:00      148.000     -203.000       69.000        0.000        0.000        0.000        0.000        0.000        0.000        3.394        0.000      251.223        0.000        0.000      329.340       -4.000      850.610
01/29/2021  04:46:00      148.000     -203.000       69.000        0.000        0.000        0.000        0.000        0.000        0.000        3.394        0.000      251.223        0.000        0.000      329.340       -4.000      850.610
01/29/2021  04:47:00      148.000     -203.000       69.000        0.000        0.000        0.000        0.000        0.000        0.000        3.394        0.000      251.223        0.000        0.000      329.340       -4.000      850.610
01/29/2021  04:48:00      148.000     -203.000       69.000        0.000        0.000        0.000        0.000        0.000        0.000        3.394        0.000      251.223        0.000        0.000      329.340       -4.000      850.610
01/29/2021  04:49:00      148.000     -203.000       69.000        0.000        0.000        0.000        0.000        0.000        0.000        3.394        0.000      251.223        0.000        0.000      329.340       -4.000      850.610
01/29/2021  04:50:00      148.000     -203.000       69.000        0.000        0.000        0.000        0.000        0.000        0.000        3.394        0.000      251.223        0.000        0.000      329.340       -4.000      850.610
01/29/2021  04:51:00      148.000     -203.000       69.000        0.000        0.000        0.000        0.000        0.000        0.000        3.394        0.000      251.223        0.000        0.000      329.340       -4.000      850.610
01/29/2021  04:52:00      148.000     -203.000       69.000        0.000        0.000        0.000        0.000        0.000        0.000        3.394        0.000      251.223        0.000        0.000      329.340       -4.000      850.610
01/29/2021  04:53:00      148.000     -203.000       69.000        0.000        0.000        0.000        0.000        0.000        0.000        3.394        0.000      251.223        0.000        0.000      329.340       -4.000      850.610
01/29/2021  04:54:00      148.000     -203.000       69.000        0.000        0.000        0.000        0.000        0.000        0.000        3.394        0.000      251.223        0.000        0.000      329.340       -4.000      850.610
01/29/2021  04:55:00      148.000     -203.000       69.000        0.000        0.000        0.000        0.000        0.000        0.000        3.394        0.000      251.223        0.000        0.000      329.340       -4.000      850.610
01/29/2021  04:56:00      148.000     -203.000       69.000        0.000        0.000        0.000        0.000        0.000        0.000        3.394        0.000      251.223        0.000        0.000      329.340       -4.000      850.610
01/29/2021  04:57:00      148.000     -203.000       69.000        0.000        0.000        0.000        0.000        0.000        0.000        3.394        0.000      251.223        0.000        0.000      329.340       -4.000      850.610
01/29/2021  04:58:00      148.000     -203.000       69.000        0.000        0.000        0.000        0.000        0.000        0.000        3.394        0.000      251.223        0.000        0.000      329.340       -4.000      850.610
01/29/2021  04:59:00      148.000     -203.000       69.000        0.000        0.000        0.000        0.000        0.000        0.000        3.394        0.000      251.223        0.000        0.000      329.340       -4.000      850.610
01/29/2021  05:00:00      148.000     -203.000       69.000        0.000        0.000        0.000        0.000        0.000        0.000        3.394        0.000      251.223        0.000        0.000      329.340       -4.000      850.610
01/29/2021  05:01:00      148.000     -203.000       69.000        0.000        0.000        0.000        0.000        0.000        0.000        3.394        0.000      251.223        0.000        0.000      329.340       -4.000      850.610
01/29/2021  05:02:00      148.000     -203.000       69.000        0.000        0.000        0.000        0.000        0.000        0.000        3.394        0.000      251.223        0.000        0.000      329.340       -4.000      850.610
01/29/2021  05:03:00      148.000     -203.000       69.000        0.000        0.000        0.000        0.000        0.000        0.000        3.394        0.000      251.223        0.000        0.000      329.340       -4.000      850.610
01/29/2021  05:04:00      148.000     -203.000       69.000        0.000        0.000        0.000        0.000        0.000        0.000        3.394        0.000      251.223        0.000        0.000      329.340       -4.000      850.610
01/29/2021  05:05:00      148.000     -203.000       69.000        0.000        0.000        0.000        0.000        0.000        0.000        3.394        0.000      251.223        0.000        0.000      329.340       -4.000      850.610
01/29/2021  05:06:00      148.000     -203.000       69.000        0.000        0.000        0.000        0.000        0.000        0.000        3.394        0.000      251.223        0.000        0.000      329.340       -4.000      850.610
01/29/2021  05:07:00      148.000     -203.000       69.000        0.000        0.000        0.000        0.000        0.000        0.000        3.394        0.000      251.223        0.000        0.000      329.340       -4.000      850.610
01/29/2021  05:08:00      148.000     -203.000       69.000        0.000        0.000        0.000        0.000        0.000        0.000        3.394        0.000      251.223        0.000        0.000      329.340       -4.000      850.610
01/29/2021  05:09:00      148.000     -203.000       69.000        0.000        0.000        0.000        0.000        0.000        0.000        3.394        0.000      251.223        0.000        0.000      329.340       -4.000      850.610
01/29/2021  05:10:00      148.000     -203.000       69.000        0.000        0.000        0.000        0.000        0.000        0.000        3.394        0.000      251.223        0.000        0.000      329.340       -4.000      850.610
01/29/2021  05:11:00      148.000     -203.000       69.000        0.000        0.000        0.000        0.000        0.000        0.000        3.394        0.000      251.223        0.000        0.000      329.340       -4.000      850.610
01/29/2021  05:12:00      148.000     -203.000       69.000        0.000        0.000        0.000        0.000        0.000        0.000        3.394        0.000      251.223        0.000        0.000      329.340       -4.000      850.610
01/29/2021  05:13:00      148.000     -203.000       69.000        0.000        0.000        0.000        0.000        0.000        0.000        3.394        0.000      251.223        0.000        0.000      329.340       -4.000      850.610
01/29/2021  05:14:00      148.000     -203.000       69.000        0.000        0.000        0.000        0.000        0.000        0.000        3.394        0.000      251.223        0.000        0.000      329.340       -4.000      850.610
01/29/2021  05:15:00      148.000     -203.000       69.000        0.000        0.000        0.000        0.000        0.000        0.000        3.394        0.000      251.223        0.000        0.000      329.340       -4.000      850.610
01/29/2021  05:16:00      148.000     -203.000       69.000        0.000        0.000        0.000        0.000        0.000        0.000        3.394        0.000      251.223        0.000        0.000      329.340       -4.000      850.610
01/29/2021  05:17:00      148.000     -203.000       69.000        0.000        0.000        0.000        0.000        0.000        0.000        3.394        0.000      251.223        0.000        0.000      329.340       -4.000      850.610
01/29/2021  05:18:00      148.000     -203.000       69.000        0.000        0.000        0.000        0.000        0.000        0.000        3.394        0.000      251.223        0.000        0.000      329.340       -4.000      850.610
01/29/2021  05:19:00      148.000     -203.000       69.000        0.000        0.000        0.000        0.000        0.000        0.000        3.394        0.000      251.223        0.000        0.000      329.340       -4.000      850.610
01/29/2021  05:20:00      148.000     -203.000       69.000        0.000        0.000        0.000        0.000        0.000        0.000        3.394        0.000      251.223        0.000        0.000      329.340       -4.000      850.610
01/29/2021  05:21:00      148.000     -203.000       69.000        0.000        0.000        0.000        0.000        0.000        0.000        3.394        0.000      251.223        0.000        0.000      329.340       -4.000      850.610
01/29/2021  05:22:00      148.000     -203.000       69.000        0.000        0.000        0.000        0.000        0.000        0.000        3.394        0.000      251.223        0.000        0.000      329.340       -4.000      850.610
01/29/2021  05:23:00      148.000     -203.000       69.000        0.000        0.000        0.000        0.000        0.000        0.000        3.394        0.000      251.223        0.000        0.000      329.340       -4.000      850.610
01/29/2021  05:24:00      148.000     -203.000       69.000        0.000        0.000        0.000        0.000        0.000        0.000        3.394        0.000      251.223        0.000        0.000      329.340       -4.000      850.610
01/29/2021  05:25:00      148.000     -203.000       69.000        0.000        0.000        0.000        0.000        0.000        0.000        3.394        0.000      251.223        0.000        0.000      329.340       -4.000      850.610
01/29/2021  05:26:00      148.000     -203.000       69.000        0.000        0.000        0.000        0.000        0.000        0.000        3.394        0.000      251.223        0.000        0.000      329.340       -4.000      850.610
01/29/2021  05:27:00      148.000     -203.000       69.000        0.000        0.000        0.000        0.000        0.000        0.000        3.394        0.000      251.223        0.000        0.000      329.340       -4.000      850.610
01/29/2021  05:28:00      148.000     -203.000       69.000        0.000        0.000        0.000        0.000        0.000        0.000        3.394        0.000      251.223        0.000        0.000      329.340       -4.000      850.610
01/29/2021  05:29:00      148.000     -203.000       69.000        0.000        0.000        0.000        0.000        0.000        0.000        3.394        0.000      251.223        0.000        0.000      329.340       -4.000      850.610
01/29/2021  05:30:00      148.000     -203.000       69.000        0.000        0.000        0.000        0.000        0.000        0.000        3.394        0.000      251.223        0.000        0.000      329.340       -4.000      850.610
01/29/2021  05:31:00      148.000     -203.000       69.000        0.000        0.000        0.000        0.000        0.000        0.000        3.394        0.000      251.223        0.000        0.000      329.340       -4.000      850.610
01/29/2021  05:32:00      148.000     -203.000       69.000        0.000        0.000        0.000        0.000        0.000        0.000        3.394        0.000      251.223        0.000        0.000      329.340       -4.000      850.610
01/29/2021  05:33:00      148.000     -203.000       69.000        0.000        0.000        0.000        0.000        0.000        0.000        3.394        0.000      251.223        0.000        0.000      329.340       -4.000      850.610
01/29/2021  05:34:00      148.000     -203.000       69.000        0.000        0.000        0.000        0.000        0.000        0.000        3.394        0.000      251.223        0.000        0.000      329.340       -4.000      850.610
01/29/2021  05:35:00      148.000     -203.000       69.000        0.000        0.000        0.000        0.000        0.000        0.000        3.394        0.000      251.223        0.000        0.000      329.340       -4.000      850.610
01/29/2021  05:36:00      148.000     -203.000       69.000        0.000        0.000        0.000        0.000        0.000        0.000        3.394        0.000      251.223        0.000        0.000      329.340       -4.000      850.610
01/29/2021  05:37:00      148.000     -203.000       69.000        0.000        0.000        0.000        0.000        0.000        0.000        3.394        0.000      251.223        0.000        0.000      329.340       -4.000      850.610
01/29/2021  05:38:00      148.000     -203.000       69.000        0.000        0.000        0.000        0.000        0.000        0.000        3.394        0.000      251.223        0.000        0.000      329.340       -4.000      850.610
01/29/2021  05:39:00      148.000     -203.000       69.000        0.000        0.000        0.000        0.000        0.000        0.000        3.394        0.000      251.223        0.000        0.000      329.340       -4.000      850.610
01/29/2021  05:40:00      148.000     -203.000       69.000        0.000        0.000        0.000        0.000        0.000        0.000        3.394        0.000      251.223        0.000        0.000      329.340       -4.000      850.610
01/29/2021  05:41:00      148.000     -203.000       69.000        0.000        0.000        0.000        0.000        0.000        0.000        3.394        0.000      251.223        0.000        0.000      329.340       -4.000      850.610
01/29/2021  05:42:00      148.000     -203.000       69.000        0.000        0.000        0.000        0.000        0.000        0.000        3.394        0.000      251.223        0.000        0.000      329.340       -4.000      850.610
01/29/2021  05:43:00      148.000     -203.000       69.000        0.000        0.000        0.000        0.000        0.000        0.000        3.394        0.000      251.223        0.000        0.000      329.340       -4.000      850.610
01/29/2021  05:44:00      148.000     -203.000       69.000        0.000        0.000        0.000        0.000        0.000        0.000        3.394        0.000      251.223        0.000        0.000      329.340       -4.000      850.610
01/29/2021  05:45:00      148.000     -203.000       69.000        0.000        0.000        0.000        0.000        0.000        0.000        3.394        0.000      251.223        0.000        0.000      329.340       -4.000      850.610
01/29/2021  05:46:00      148.000     -203.000       69.000        0.000        0.000        0.000        0.000        0.000        0.000        3.394        0.000      251.223        0.000        0.000      329.340       -4.000      850.610
01/29/2021  05:47:00      148.000     -203.000       69.000        0.000        0.000        0.000        0.000        0.000        0.000        3.394        0.000      251.223        0.000        0.000      329.340       -4.000      850.610
01/29/2021  05:48:00      148.000     -203.000       69.000        0.000        0.000        0.000        0.000        0.000        0.000        3.394        0.000      251.223        0.000        0.000      329.340       -4.000      850.610
01/29/2021  05:49:00      148.000     -203.000       69.000        0.000        0.000        0.000        0.000        0.000        0.000        3.394        0.000      251.223        0.000        0.000      329.340       -4.000      850.610
01/29/2021  05:50:00      148.000     -203.000       69.000        0.000        0.000        0.000        0.000        0.000        0.000        3.394        0.000      251.223        0.000        0.000      329.340       -4.000      850.610
01/29/2021  05:51:00      148.000     -203.000       69.000        0.000        0.000        0.000        0.000        0.000        0.000        3.394        0.000      251.223        0.000        0.000      329.340       -4.000      850.610
01/29/2021  05:52:00      148.000     -203.000       69.000        0.000        0.000        0.000        0.000        0.000        0.000        3.394        0.000      251.223        0.000        0.000      329.340       -4.000      850.610
01/29/2021  05:53:00      148.000     -203.000       69.000        0.000        0.000        0.000        0.000        0.000        0.000        3.394        0.000      251.223        0.000        0.000      329.340       -4.000      850.610
01/29/2021  05:54:00      148.000     -203.000       69.000        0.000        0.000        0.000        0.000        0.000        0.000        3.394        0.000      251.223        0.000        0.000      329.340       -4.000      850.610
01/29/2021  05:55:00      148.000     -203.000       69.000        0.000        0.000        0.000        0.000        0.000        0.000        3.394        0.000      251.223        0.000        0.000      329.340       -4.000      850.610
01/29/2021  05:56:00      148.000     -203.000       69.000        0.000        0.000        0.000        0.000        0.000        0.000        3.394        0.000      251.223        0.000        0.000      329.340       -4.000      850.610
01/29/2021  05:57:00      148.000     -203.000       69.000        0.000        0.000        0.000        0.000        0.000        0.000        3.394        0.000      251.223        0.000        0.000      329.340       -4.000      850.610
01/29/2021  05:58:00      148.000     -203.000       69.000        0.000        0.000        0.000        0.000        0.000        0.000        3.394        0.000      251.223        0.000        0.000      329.340       -4.000      850.610
01/29/2021  05:59:00      148.000     -203.000       69.000        0.000        0.000        0.000        0.000        0.000        0.000        3.394        0.000      251.223        0.000        0.000      329.340       -4.000      850.610
01/29/2021  06:00:00      148.000     -203.000       69.000        0.000        0.000        0.000        0.000        0.000        0.000        3.394        0.000      251.223        0.000        0.000      329.340       -4.000      850.610
01/29/2021  06:01:00      148.000     -203.000       69.000        0.000        0.000        0.000        0.000        0.000        0.000        3.394        0.000      251.223        0.000        0.000      329.340       -4.000      850.610
01/29/2021  06:02:00      148.000     -203.000       69.000        0.000        0.000        0.000        0.000        0.000        0.000        3.394        0.000      251.223        0.000        0.000      329.340       -4.000      850.610
01/29/2021  06:03:00      148.000     -203.000       69.000        0.000        0.000        0.000        0.000        0.000        0.000        3.394        0.000      251.223        0.000        0.000      329.340       -4.000      850.610
01/29/2021  06:04:00      148.000     -203.000       69.000        0.000        0.000        0.000        0.000        0.000        0.000        3.394        0.000      251.223        0.000        0.000      329.340       -4.000      850.610
01/29/2021  06:05:00      148.000     -203.000       69.000        0.000        0.000        0.000        0.000        0.000        0.000        3.394        0.000      251.223        0.000        0.000      329.340       -4.000      850.610
01/29/2021  06:06:00      148.000     -203.000       69.000        0.000        0.000        0.000        0.000        0.000        0.000        3.394        0.000      251.223        0.000        0.000      329.340       -4.000      850.610
01/29/2021  06:07:00      148.000     -203.000       69.000        0.000        0.000        0.000        0.000        0.000        0.000        3.394        0.000      251.223        0.000        0.000      329.340       -4.000      850.610
01/29/2021  06:08:00      148.000     -203.000       69.000        0.000        0.000        0.000        0.000        0.000        0.000        3.394        0.000      251.223        0.000        0.000      329.340       -4.000      850.610
01/29/2021  06:09:00      148.000     -203.000       69.000        0.000        0.000        0.000        0.000        0.000        0.000        3.394        0.000      251.223        0.000        0.000      329.340       -4.000      850.610
01/29/2021  06:10:00      148.000     -203.000       69.000        0.000        0.000        0.000        0.000        0.000        0.000        3.394        0.000      251.223        0.000        0.000      329.340       -4.000      850.610
01/29/2021  06:11:00      148.000     -203.000       69.000        0.000        0.000        0.000        0.000        0.000        0.000        3.394        0.000      251.223        0.000        0.000      329.340       -4.000      850.610
01/29/2021  06:12:00      148.000     -203.000       69.000        0.000        0.000        0.000        0.000        0.000        0.000        3.394        0.000      251.223        0.000        0.000      329.340       -4.000      850.610
01/29/2021  06:13:00      148.000     -203.000       69.000        0.000        0.000        0.000        0.000        0.000        0.000        3.394        0.000      251.223        0.000        0.000      329.340       -4.000      850.610
01/29/2021  06:14:00      148.000     -203.000       69.000        0.000        0.000        0.000        0.000        0.000        0.000        3.394        0.000      251.223        0.000        0.000      329.340       -4.000      850.610
01/29/2021  06:15:00      148.000     -203.000       69.000        0.000        0.000        0.000        0.000        0.000        0.000        3.394        0.000      251.223        0.000        0.000      329.340       -4.000      850.610
01/29/2021  06:16:00      148.000     -203.000       69.000        0.000        0.000        0.000        0.000        0.000        0.000        3.394        0.000      251.223        0.000        0.000      329.340       -4.000      850.610
01/29/2021  06:17:00      148.000     -203.000       69.000        0.000        0.000        0.000        0.000        0.000        0.000        3.394        0.000      251.223        0.000        0.000      329.340       -4.000      850.610
01/29/2021  06:18:00      148.000     -203.000       69.000        0.000        0.000        0.000        0.000        0.000        0.000        3.394        0.000      251.223        0.000        0.000      329.340       -4.000      850.610
01/29/2021  06:19:00      148.000     -203.000       69.000        0.000        0.000        0.000        0.000        0.000        0.000        3.394        0.000      251.223        0.000        0.000      329.340       -4.000      850.610
01/29/2021  06:20:00      148.000     -203.000       69.000        0.000        0.000        0.000        0.000        0.000        0.000        3.394        0.000      251.223        0.000        0.000      329.340       -4.000      850.610
01/29/2021  06:21:00      148.000     -203.000       69.000        0.000        0.000        0.000        0.000        0.000        0.000        3.394        0.000      251.223        0.000        0.000      329.340       -4.000      850.610
01/29/2021  06:22:00      148.000     -203.000       69.000        0.000        0.000        0.000        0.000        0.000        0.000        3.394        0.000      251.223        0.000        0.000      329.340       -4.000      850.610
01/29/2021  06:23:00      148.000     -203.000       69.000        0.000        0.000        0.000        0.000        0.000        0.000        3.394        0.000      251.223        0.000        0.000      329.340       -4.000      850.610
01/29/2021  06:24:00      148.000     -203.000       69.000        0.000        0.000        0.000        0.000        0.000        0.000        3.394        0.000      251.223        0.000        0.000      329.340       -4.000      850.610
01/29/2021  06:25:00      148.000     -203.000       69.000        0.000        0.000        0.000        0.000        0.000        0.000        3.394        0.000      251.223        0.000        0.000      329.340       -4.000      850.610
01/29/2021  06:26:00      148.000     -203.000       69.000        0.000        0.000        0.000        0.000        0.000        0.000        3.394        0.000      251.223        0.000        0.000      329.340       -4.000      850.610
01/29/2021  06:27:00      148.000     -203.000       69.000        0.000        0.000        0.000        0.000        0.000        0.000        3.394        0.000      251.223        0.000        0.000      329.340       -4.000      850.610
01/29/2021  06:28:00      148.000     -203.000       69.000        0.000        0.000        0.000        0.000        0.000        0.000        3.394        0.000      251.223        0.000        0.000      329.340       -4.000      850.610
01/29/2021  06:29:00      148.000     -203.000       69.000        0.000        0.000        0.000        0.000        0.000        0.000        3.394        0.000      251.223        0.000        0.000      329.340       -4.000      850.610
01/29/2021  06:30:00      148.000     -203.000       69.000        0.000        0.000        0.000        0.000        0.000        0.000        3.394        0.000      251.223        0.000        0.000      329.340       -4.000      850.610
01/29/2021  06:31:00      148.000     -203.000       69.000        0.000        0.000        0.000        0.000        0.000        0.000        3.394        0.000      251.223        0.000        0.000      329.340       -4.000      850.610
01/29/2021  06:32:00      148.000     -203.000       69.000        0.000        0.000        0.000        0.000        0.000        0.000        3.394        0.000      251.223        0.000        0.000      329.340       -4.000      850.610
01/29/2021  06:33:00      148.000     -203.000       69.000        0.000        0.000        0.000        0.000        0.000        0.000        3.394        0.000      251.223        0.000        0.000      329.340       -4.000      850.610
01/29/2021  06:34:00      148.000     -203.000       69.000        0.000        0.000        0.000        0.000        0.000        0.000        3.394        0.000      251.223        0.000        0.000      329.340       -4.000      850.610
01/29/2021  06:35:00      148.000     -203.000       69.000        0.000        0.000        0.000        0.000        0.000        0.000        3.394        0.000      251.223        0.000        0.000      329.340       -4.000      850.610
01/29/2021  06:36:00      148.000     -203.000       69.000        0.000        0.000        0.000        0.000        0.000        0.000        3.394        0.000      251.223        0.000        0.000      329.340       -4.000      850.610
01/29/2021  06:37:00      148.000     -203.000       69.000        0.000        0.000        0.000        0.000        0.000        0.000        3.394        0.000      251.223        0.000        0.000      329.340       -4.000      850.610
01/29/2021  06:38:00      148.000     -203.000       69.000        0.000        0.000        0.000        0.000        0.000        0.000        3.394        0.000      251.223        0.000        0.000      329.340       -4.000      850.610
01/29/2021  06:39:00      148.000     -203.000       69.000        0.000        0.000        0.000        0.000        0.000        0.000        3.394        0.000      251.223        0.000        0.000      329.340       -4.000      850.610
01/29/2021  06:40:00      148.000     -203.000       69.000        0.000        0.000        0.000        0.000        0.000        0.000        3.394        0.000      251.223        0.000        0.000      329.340       -4.000      850.610
01/29/2021  06:41:00      148.000     -203.000       69.000        0.000        0.000        0.000        0.000        0.000        0.000        3.394        0.000      251.223        0.000        0.000      329.340       -4.000      850.610
01/29/2021  06:42:00      148.000     -203.000       69.000        0.000        0.000        0.000        0.000        0.000        0.000        3.394        0.000      251.223        0.000        0.000      329.340       -4.000      850.610
01/29/2021  06:43:00      148.000     -203.000       69.000        0.000        0.000        0.000        0.000        0.000        0.000        3.394        0.000      251.223        0.000        0.000      329.340       -4.000      850.610
01/29/2021  06:44:00      148.000     -203.000       69.000        0.000        0.000        0.000        0.000        0.000        0.000        3.394        0.000      251.223        0.000        0.000      329.340       -4.000      850.610
01/29/2021  06:45:00      148.000     -203.000       69.000        0.000        0.000        0.000        0.000        0.000        0.000        3.394        0.000      251.223        0.000        0.000      329.340       -4.000      850.610
01/29/2021  06:46:00      148.000     -203.000       69.000        0.000        0.000        0.000        0.000        0.000        0.000        3.394        0.000      251.223        0.000        0.000      329.340       -4.000      850.610
01/29/2021  06:47:00      148.000     -203.000       69.000        0.000        0.000        0.000        0.000        0.000        0.000        3.394        0.000      251.223        0.000        0.000      329.340       -4.000      850.610
01/29/2021  06:48:00      148.000     -203.000       69.000        0.000        0.000        0.000        0.000        0.000        0.000        3.394        0.000      251.223        0.000        0.000      329.340       -4.000      850.610
01/29/2021  06:49:00      148.000     -203.000       69.000        0.000        0.000        0.000        0.000        0.000        0.000        3.394        0.000      251.223        0.000        0.000      329.340       -4.000      850.610
01/29/2021  06:50:00      148.000     -203.000       69.000        0.000        0.000        0.000        0.000        0.000        0.000        3.394        0.000      251.223        0.000        0.000      329.340       -4.000      850.610
01/29/2021  06:51:00      148.000     -203.000       69.000        0.000        0.000        0.000        0.000        0.000        0.000        3.394        0.000      251.223        0.000        0.000      329.340       -4.000      850.610
01/29/2021  06:52:00      148.000     -203.000       69.000        0.000        0.000        0.000        0.000        0.000        0.000        3.394        0.000      251.223        0.000        0.000      329.340       -4.000      850.610
01/29/2021  06:53:00      148.000     -203.000       69.000        0.000        0.000        0.000        0.000        0.000        0.000        3.394        0.000      251.223        0.000        0.000      329.340       -4.000      850.610
01/29/2021  06:54:00      148.000     -203.000       69.000        0.000        0.000        0.000        0.000        0.000        0.000        3.394        0.000      251.223        0.000        0.000      329.340       -4.000      850.610
01/29/2021  06:55:00      148.000     -203.000       69.000        0.000        0.000        0.000        0.000        0.000        0.000        3.394        0.000      251.223        0.000        0.000      329.340       -4.000      850.610
01/29/2021  06:56:00      148.000     -203.000       69.000        0.000        0.000        0.000        0.000        0.000        0.000        3.394        0.000      251.223        0.000        0.000      329.340       -4.000      850.610
01/29/2021  06:57:00      148.000     -203.000       69.000        0.000        0.000        0.000        0.000        0.000        0.000        3.394        0.000      251.223        0.000        0.000      329.340       -4.000      850.610
01/29/2021  06:58:00      148.000     -203.000       69.000        0.000        0.000        0.000        0.000        0.000        0.000        3.394        0.000      251.223        0.000        0.000      329.340       -4.000      850.610
01/29/2021  06:59:00      148.000     -203.000       69.000        0.000        0.000        0.000        0.000        0.000        0.000        3.394        0.000      251.223        0.000        0.000      329.340       -4.000      850.610
01/29/2021  07:00:00      148.000     -203.000       69.000        0.000        0.000        0.000        0.000        0.000        0.000        3.394        0.000      251.223        0.000        0.000      329.340       -4.000      850.610
01/29/2021  07:01:00      148.000     -203.000       69.000        0.000        0.000        0.000        0.000        0.000        0.000        3.394        0.000      251.223        0.000        0.000      329.340       -4.000      850.610
01/29/2021  07:02:00      148.000     -203.000       69.000        0.000        0.000        0.000        0.000        0.000        0.000        3.394        0.000      251.223        0.000        0.000      329.340       -4.000      850.610
01/29/2021  07:03:00      148.000     -203.000       69.000        0.000        0.000        0.000        0.000        0.000        0.000        3.394        0.000      251.223        0.000        0.000      329.340       -4.000      850.610
01/29/2021  07:04:00      148.000     -203.000       69.000        0.000        0.000        0.000        0.000        0.000        0.000        3.394        0.000      251.223        0.000        0.000      329.340       -4.000      850.610
01/29/2021  07:05:00      148.000     -203.000       69.000        0.000        0.000        0.000        0.000        0.000        0.000        3.394        0.000      251.223        0.000        0.000      329.340       -4.000      850.610
01/29/2021  07:06:00      148.000     -203.000       69.000        0.000        0.000        0.000        0.000        0.000        0.000        3.394        0.000      251.223        0.000        0.000      329.340       -4.000      850.610
01/29/2021  07:07:00      148.000     -203.000       69.000        0.000        0.000        0.000        0.000        0.000        0.000        3.394        0.000      251.223        0.000        0.000      329.340       -4.000      850.610
01/29/2021  07:08:00      148.000     -203.000       69.000        0.000        0.000        0.000        0.000        0.000        0.000        3.394        0.000      251.223        0.000        0.000      329.340       -4.000      850.610
01/29/2021  07:09:00      148.000     -203.000       69.000        0.000        0.000        0.000        0.000        0.000        0.000        3.394        0.000      251.223        0.000        0.000      329.340       -4.000      850.610
01/29/2021  07:10:00      148.000     -203.000       69.000        0.000        0.000        0.000        0.000        0.000        0.000        3.394        0.000      251.223        0.000        0.000      329.340       -4.000      850.610
01/29/2021  07:11:00      148.000     -203.000       69.000        0.000        0.000        0.000        0.000        0.000        0.000        3.394        0.000      251.223        0.000        0.000      329.340       -4.000      850.610
01/29/2021  07:12:00      148.000     -203.000       69.000        0.000        0.000        0.000        0.000        0.000        0.000        3.394        0.000      251.223        0.000        0.000      329.340       -4.000      850.610
01/29/2021  07:13:00      148.000     -203.000       69.000        0.000        0.000        0.000        0.000        0.000        0.000        3.394        0.000      251.223        0.000        0.000      329.340       -4.000      850.610
01/29/2021  07:14:00      148.000     -203.000       69.000        0.000        0.000        0.000        0.000        0.000        0.000        3.394        0.000      251.223        0.000        0.000      329.340       -4.000      850.610
01/29/2021  07:15:00      148.000     -203.000       69.000        0.000        0.000        0.000        0.000        0.000        0.000        3.394        0.000      251.223        0.000        0.000      329.340       -4.000      850.610
01/29/2021  07:16:00      148.000     -203.000       69.000        0.000        0.000        0.000        0.000        0.000        0.000        3.394        0.000      251.223        0.000        0.000      329.340       -4.000      850.610
01/29/2021  07:17:00      148.000     -203.000       69.000        0.000        0.000        0.000        0.000        0.000        0.000        3.394        0.000      251.223        0.000        0.000      329.340       -4.000      850.610
01/29/2021  07:18:00      148.000     -203.000       69.000        0.000        0.000        0.000        0.000        0.000        0.000        3.394        0.000      251.223        0.000        0.000      329.340       -4.000      850.610
01/29/2021  07:19:00      148.000     -203.000       69.000        0.000        0.000        0.000        0.000        0.000        0.000        3.394        0.000      251.223        0.000        0.000      329.340       -4.000      850.610
01/29/2021  07:20:00      148.000     -203.000       69.000        0.000        0.000        0.000        0.000        0.000        0.000        3.394        0.000      251.223        0.000        0.000      329.340       -4.000      850.610
01/29/2021  07:21:00      148.000     -203.000       69.000        0.000        0.000        0.000        0.000        0.000        0.000        3.394        0.000      251.223        0.000        0.000      329.340       -4.000      850.610
01/29/2021  07:22:00      148.000     -203.000       69.000        0.000        0.000        0.000        0.000        0.000        0.000        3.394        0.000      251.223        0.000        0.000      329.340       -4.000      850.610
01/29/2021  07:23:00      148.000     -203.000       69.000        0.000        0.000        0.000        0.000        0.000        0.000        3.394        0.000      251.223        0.000        0.000      329.340       -4.000      850.610
01/29/2021  07:24:00      148.000     -203.000       69.000        0.000        0.000        0.000        0.000        0.000        0.000        3.394        0.000      251.223        0.000        0.000      329.340       -4.000      850.610
01/29/2021  07:25:00      148.000     -203.000       69.000        0.000        0.000        0.000        0.000        0.000        0.000        3.394        0.000      251.223        0.000        0.000      329.340       -4.000      850.610
01/29/2021  07:26:00      148.000     -203.000       69.000        0.000        0.000        0.000        0.000        0.000        0.000        3.394        0.000      251.223        0.000        0.000      329.340       -4.000      850.610
01/29/2021  07:27:00      148.000     -203.000       69.000        0.000        0.000        0.000        0.000        0.000        0.000        3.394        0.000      251.223        0.000        0.000      329.340       -4.000      850.610
01/29/2021  07:28:00      148.000     -203.000       69.000        0.000        0.000        0.000        0.000        0.000        0.000        3.394        0.000      251.223        0.000        0.000      329.340       -4.000      850.610
01/29/2021  07:29:00      148.000     -203.000       69.000        0.000        0.000        0.000        0.000        0.000        0.000        3.394        0.000      251.223        0.000        0.000      329.340       -4.000      850.610
01/29/2021  07:30:00      148.000     -203.000       69.000        0.000        0.000        0.000        0.000        0.000        0.000        3.394        0.000      251.223        0.000        0.000      329.340       -4.000      850.610
01/29/2021  07:31:00      148.000     -203.000       69.000        0.000        0.000        0.000        0.000        0.000        0.000        3.394        0.000      251.223        0.000        0.000      329.340       -4.000      850.610
01/29/2021  07:32:00      148.000     -203.000       69.000        0.000        0.000        0.000        0.000        0.000        0.000        3.394        0.000      251.223        0.000        0.000      329.340       -4.000      850.610
01/29/2021  07:33:00      148.000     -203.000       69.000        0.000        0.000        0.000        0.000        0.000        0.000        3.394        0.000      251.223        0.000        0.000      329.340       -4.000      850.610
01/29/2021  07:34:00      148.000     -203.000       69.000        0.000        0.000        0.000        0.000        0.000        0.000        3.394        0.000      251.223        0.000        0.000      329.340       -4.000      850.610
01/29/2021  07:35:00      148.000     -203.000       69.000        0.000        0.000        0.000        0.000        0.000        0.000        3.394        0.000      251.223        0.000        0.000      329.340       -4.000      850.610
01/29/2021  07:36:00      148.000     -203.000       69.000        0.000        0.000        0.000        0.000        0.000        0.000        3.394        0.000      251.223        0.000        0.000      329.340       -4.000      850.610
01/29/2021  07:37:00      148.000     -203.000       69.000        0.000        0.000        0.000        0.000        0.000        0.000        3.394        0.000      251.223        0.000        0.000      329.340       -4.000      850.610
01/29/2021  07:38:00      148.000     -203.000       69.000        0.000        0.000        0.000        0.000        0.000        0.000        3.394        0.000      251.223        0.000        0.000      329.340       -4.000      850.610
01/29/2021  07:39:00      148.000     -203.000       69.000        0.000        0.000        0.000        0.000        0.000        0.000        3.394        0.000      251.223        0.000        0.000      329.340       -4.000      850.610
01/29/2021  07:40:00      148.000     -203.000       69.000        0.000        0.000        0.000        0.000        0.000        0.000        3.394        0.000      251.223        0.000        0.000      329.340       -4.000      850.610
01/29/2021  07:41:00      148.000     -203.000       69.000        0.000        0.000        0.000        0.000        0.000        0.000        3.394        0.000      251.223        0.000        0.000      329.340       -4.000      850.610
01/29/2021  07:42:00      148.000     -203.000       69.000        0.000        0.000        0.000        0.000        0.000        0.000        3.394        0.000      251.223        0.000        0.000      329.340       -4.000      850.610
01/29/2021  07:43:00      148.000     -203.000       69.000        0.000        0.000        0.000        0.000        0.000        0.000        3.394        0.000      251.223        0.000        0.000      329.340       -4.000      850.610
01/29/2021  07:44:00      148.000     -203.000       69.000        0.000        0.000        0.000        0.000        0.000        0.000        3.394        0.000      251.223        0.000        0.000      329.340       -4.000      850.610
01/29/2021  07:45:00      148.000     -203.000       69.000        0.000        0.000        0.000        0.000        0.000        0.000        3.394        0.000      251.223        0.000        0.000      329.340       -4.000      850.610
01/29/2021  07:46:00      148.000     -203.000       69.000        0.000        0.000        0.000        0.000        0.000        0.000        3.394        0.000      251.223        0.000        0.000      329.340       -4.000      850.610
01/29/2021  07:47:00      148.000     -203.000       69.000        0.000        0.000        0.000        0.000        0.000        0.000        3.394        0.000      251.223        0.000        0.000      329.340       -4.000      850.610
01/29/2021  07:48:00      148.000     -203.000       69.000        0.000        0.000        0.000        0.000        0.000        0.000        3.394        0.000      251.223        0.000        0.000      329.340       -4.000      850.610
01/29/2021  07:49:00      148.000     -203.000       69.000        0.000        0.000        0.000        0.000        0.000        0.000        3.394        0.000      251.223        0.000        0.000      329.340       -4.000      850.610
01/29/2021  07:50:00      148.000     -203.000       69.000        0.000        0.000        0.000        0.000        0.000        0.000        3.394        0.000      251.223        0.000        0.000      329.340       -4.000      850.610
01/29/2021  07:51:00      148.000     -203.000       69.000        0.000        0.000        0.000        0.000        0.000        0.000        3.394        0.000      251.223        0.000        0.000      329.340       -4.000      850.610
01/29/2021  07:52:00      148.000     -203.000       69.000        0.000        0.000        0.000        0.000        0.000        0.000        3.394        0.000      251.223        0.000        0.000      329.340       -4.000      850.610
01/29/2021  07:53:00      148.000     -203.000       69.000        0.000        0.000        0.000        0.000        0.000        0.000        3.394        0.000      251.223        0.000        0.000      329.340       -4.000      850.610
01/29/2021  07:54:00      148.000     -203.000       69.000        0.000        0.000        0.000        0.000        0.000        0.000        3.394        0.000      251.223        0.000        0.000      329.340       -4.000      850.610
01/29/2021  07:55:00      148.000     -203.000       69.000        0.000        0.000        0.000        0.000        0.000        0.000        3.394        0.000      251.223        0.000        0.000      329.340       -4.000      850.610
01/29/2021  07:56:00      148.000     -203.000       69.000        0.000        0.000        0.000        0.000        0.000        0.000        3.394        0.000      251.223        0.000        0.000      329.340       -4.000      850.610
01/29/2021  07:57:00      148.000     -203.000       69.000        0.000        0.000        0.000        0.000        0.000        0.000        3.394        0.000      251.223        0.000        0.000      329.340       -4.000      850.610
01/29/2021  07:58:00      148.000     -203.000       69.000        0.000        0.000        0.000        0.000        0.000        0.000        3.394        0.000      251.223        0.000        0.000      329.340       -4.000      850.610
01/29/2021  07:59:00      148.000     -203.000       69.000        0.000        0.000        0.000        0.000        0.000        0.000        3.394        0.000      251.223        0.000        0.000      329.340       -4.000      850.610
01/29/2021  08:00:00      148.000     -203.000       69.000        0.000        0.000        0.000        0.000        0.000        0.000        3.394        0.000      251.223        0.000        0.000      329.340       -4.000      850.610
01/29/2021  08:01:00      148.000     -203.000       69.000        0.000        0.000        0.000        0.000        0.000        0.000        3.394        0.000      251.223        0.000        0.000      329.340       -4.000      850.610
01/29/2021  08:02:00      148.000     -203.000       69.000        0.000        0.000        0.000        0.000        0.000        0.000        3.394        0.000      251.223        0.000        0.000      329.340       -4.000      850.610
01/29/2021  08:03:00      148.000     -203.000       69.000        0.000        0.000        0.000        0.000        0.000        0.000        3.394        0.000      251.223        0.000        0.000      329.340       -4.000      850.610
01/29/2021  08:04:00      148.000     -203.000       69.000        0.000        0.000        0.000        0.000        0.000        0.000        3.394        0.000      251.223        0.000        0.000      329.340       -4.000      850.610
01/29/2021  08:05:00      148.000     -203.000       69.000        0.000        0.000        0.000        0.000        0.000        0.000        3.394        0.000      251.223        0.000        0.000      329.340       -4.000      850.610
01/29/2021  08:06:00      148.000     -203.000       69.000        0.000        0.000        0.000        0.000        0.000        0.000        3.394        0.000      251.223        0.000        0.000      329.340       -4.000      850.610
01/29/2021  08:07:00      148.000     -203.000       69.000        0.000        0.000        0.000        0.000        0.000        0.000        3.394        0.000      251.223        0.000        0.000      329.340       -4.000      850.610
01/29/2021  08:08:00      148.000     -203.000       69.000        0.000        0.000        0.000        0.000        0.000        0.000        3.394        0.000      251.223        0.000        0.000      329.340       -4.000      850.610
01/29/2021  08:09:00      148.000     -203.000       69.000        0.000        0.000        0.000        0.000        0.000        0.000        3.394        0.000      251.223        0.000        0.000      329.340       -4.000      850.610
01/29/2021  08:10:00      148.000     -203.000       69.000        0.000        0.000        0.000        0.000        0.000        0.000        3.394        0.000      251.223        0.000        0.000      329.340       -4.000      850.610
01/29/2021  08:11:00      148.000     -203.000       69.000        0.000        0.000        0.000        0.000        0.000        0.000        3.394        0.000      251.223        0.000        0.000      329.340       -4.000      850.610
01/29/2021  08:12:00      148.000     -203.000       69.000        0.000        0.000        0.000        0.000        0.000        0.000        3.394        0.000      251.223        0.000        0.000      329.340       -4.000      850.610
01/29/2021  08:13:00      148.000     -203.000       69.000        0.000        0.000        0.000        0.000        0.000        0.000        3.394        0.000      251.223        0.000        0.000      329.340       -4.000      850.610
01/29/2021  08:14:00      148.000     -203.000       69.000        0.000        0.000        0.000        0.000        0.000        0.000        3.394        0.000      251.223        0.000        0.000      329.340       -4.000      850.610
01/29/2021  08:15:00      148.000     -203.000       69.000        0.000        0.000        0.000        0.000        0.000        0.000        3.394        0.000      251.223        0.000        0.000      329.340       -4.000      850.610
01/29/2021  08:16:00      148.000     -203.000       69.000        0.000        0.000        0.000        0.000        0.000        0.000        3.394        0.000      251.223        0.000        0.000      329.340       -4.000      850.610
01/29/2021  08:17:00      148.000     -203.000       69.000        0.000        0.000        0.000        0.000        0.000        0.000        3.394        0.000      251.223        0.000        0.000      329.340       -4.000      850.610
01/29/2021  08:18:00      148.000     -203.000       69.000        0.000        0.000        0.000        0.000        0.000        0.000        3.394        0.000      251.223        0.000        0.000      329.340       -4.000      850.610
01/29/2021  08:19:00      148.000     -203.000       69.000        0.000        0.000        0.000        0.000        0.000        0.000        3.394        0.000      251.223        0.000        0.000      329.340       -4.000      850.610
01/29/2021  08:20:00      148.000     -203.000       69.000        0.000        0.000        0.000        0.000        0.000        0.000        3.394        0.000      251.223        0.000        0.000      329.340       -4.000      850.610
01/29/2021  08:21:00      148.000     -203.000       69.000        0.000        0.000        0.000        0.000        0.000        0.000        3.394        0.000      251.223        0.000        0.000      329.340       -4.000      850.610
01/29/2021  08:22:00      148.000     -203.000       69.000        0.000        0.000        0.000        0.000        0.000        0.000        3.394        0.000      251.223        0.000        0.000      329.340       -4.000      850.610
01/29/2021  08:23:00      148.000     -203.000       69.000        0.000        0.000        0.000        0.000        0.000        0.000        3.394        0.000      251.223        0.000        0.000      329.340       -4.000      850.610
01/29/2021  08:24:00      148.000     -203.000       69.000        0.000        0.000        0.000        0.000        0.000        0.000        3.394        0.000      251.223        0.000        0.000      329.340       -4.000      850.610
01/29/2021  08:25:00      -57.422       83.222      -13.923      102.968      163.258       97.118    10602.459    26653.290     9431.864        2.854        2.334      101.109      134.139        1.760      328.867       -4.763      852.792
01/29/2021  08:26:00        8.732      -74.406       47.945       57.570       83.891       46.272     3314.302     7037.627     2141.108        1.020        0.625       74.917       62.453        0.695      329.338       -3.990      852.850
01/29/2021  08:27:00        0.138      -64.333       -0.697      132.375       64.535       73.637    17523.101     4164.732     5422.359        1.562        1.356       64.333       87.717        1.859      329.755       -3.309      852.848
01/29/2021  08:28:00       49.936      -12.247      -38.385      133.308       43.232       76.055    17771.099     1868.999     5784.404        1.477        1.271       51.416       92.752        3.254      329.693       -3.409      852.843
01/29/2021  08:29:00      325.000       -9.000     -185.000        0.000        0.000        0.000        0.000        0.000        0.000        6.997        0.000      325.125        0.000        0.000      328.720       -5.000      852.840
01/29/2021  08:30:00      -61.275      -12.427       76.717      235.714       67.716      148.874    55560.930     4585.487    22163.409        4.604        4.115       62.523      177.938        8.100      327.800       -6.493      852.832
01/29/2021  08:31:00       41.994      -58.178       57.057       48.811       76.371       44.400     2382.489     5832.476     1971.367        0.929        0.509       71.751       57.222        0.636      329.705       -3.390      852.834
01/29/2021  08:32:00      -20.460       14.436       34.034       58.240       69.856       45.913     3391.952     4879.849     2107.997        0.608        0.519       25.040       57.162        5.211      330.390       -2.268      852.838
01/29/2021  08:33:00      -62.561       -6.562        2.394       46.350       51.940       30.629     2148.300     2697.790      938.153        0.487        0.289       62.904       41.244        0.430      331.419       -0.577      852.853
01/29/2021  08:34:00      -34.244      -13.074       12.703       34.869       47.933       33.142     1215.877     2297.566     1098.421        0.306        0.231       36.655       37.437        1.043      331.446       -0.534      852.862
01/29/2021  08:35:00        8.759       -7.203       20.757       30.059       41.487       27.229      903.516     1721.146      741.420        0.196        0.168       11.340       34.758        9.394      331.623       -0.243      852.882
01/29/2021  08:36:00       -6.708      -16.845        2.516       42.506       42.679       29.788     1806.753     1821.480      887.343        0.242        0.226       18.131       33.272        3.368      331.707       -0.105      852.902
01/29/2021  08:37:00     -107.581       14.043      -15.827       55.203       30.297       20.612     3047.391      917.900      424.849        0.820        0.220      108.493       15.610        0.021      331.474       -0.488      852.929
01/29/2021  08:38:00     -113.523       19.580       -6.101       37.367       36.723       27.954     1396.277     1348.580      781.412        0.842        0.176      115.199       27.429        0.057      331.408       -0.596      852.959
01/29/2021  08:39:00      -29.816       10.302       13.363       51.966       79.580       44.751     2700.461     6332.902     2002.658        0.610        0.552       31.545       49.342        2.447      330.925       -1.388      852.994
01/29/2021  08:40:00      -21.815       -7.555       11.188       56.470       53.050       37.550     3188.895     2814.353     1410.034        0.403        0.371       23.086       48.051        4.332      331.353       -0.687      853.021
01/29/2021  08:41:00      -50.486       -6.591       -4.865       43.953       45.472       21.912     1931.884     2067.672      480.115        0.355        0.224       50.914       20.718        0.166      331.725       -0.075      853.057
01/29/2021  08:42:00      -98.719       33.296      -11.821       20.054       25.601       15.585      402.151      655.393      242.888        0.615        0.065      104.183       10.395        0.010      331.590       -0.296      853.079
01/29/2021  08:43:00      -76.506       34.938       -3.787       21.822       14.565       17.385      476.210      212.132      302.244        0.404        0.050       84.106       12.895        0.024      331.596       -0.286      853.098
01/29/2021  08:44:00      -24.204       23.111        2.425       40.708       34.166       22.560     1657.163     1167.313      508.954        0.223        0.167       33.466       26.741        0.638      331.678       -0.151      853.102
01/29/2021  08:45:00      -23.003       13.876        7.104       16.937       28.356       14.946      286.855      804.069      223.398        0.104        0.066       26.864       17.165        0.408      331.759       -0.016      853.110
01/29/2021  08:46:00      -36.997       43.314       -2.841       30.524       21.190       18.236      931.739      449.026      332.543        0.248        0.086       56.964       14.800        0.068      331.639       -0.215      853.105
01/29/2021  08:47:00      -57.533       12.343       -9.143       30.183       21.889       12.833      911.029      479.108      164.685        0.255        0.078       58.842        7.708        0.017      331.609       -0.264      853.097
01/29/2021  08:48:00      -62.693       29.213       -3.350       32.082       25.950       15.835     1029.277      673.392      250.757        0.337        0.098       69.166       11.093        0.026      331.635       -0.223      853.082
01/29/2021  08:49:00     -101.952       10.712       -3.006       24.053       19.713       18.195      578.568      388.621      331.074        0.591        0.065      102.513       14.353        0.020      331.579       -0.315      853.065
01/29/2021  08:50:00      -45.195       12.686        1.786       49.109       45.818       23.943     2411.718     2099.304      573.273        0.364        0.254       46.942       29.996        0.408      331.741       -0.048      853.049
01/29/2021  08:51:00      -72.141       34.894       -7.486       17.582       29.032       12.343      309.130      842.854      152.343        0.389        0.065       80.137        9.344        0.014      331.701       -0.114      853.043
01/29/2021  08:52:00      -37.740       -7.440        4.064       31.647       48.792       26.376     1001.508     2380.676      695.701        0.279        0.204       38.466       37.394        0.945      331.230       -0.890      853.039
01/29/2021  08:53:00      -35.000        2.000        8.000        0.000        0.000        0.000        0.000        0.000        0.000        0.065        0.000       35.057        0.000        0.000      330.580       -1.960      853.040
01/29/2021  08:54:00      -35.000        2.000        8.000        0.000        0.000        0.000        0.000        0.000        0.000        0.065        0.000       35.057        0.000        0.000      330.580       -1.960      853.040
01/29/2021  08:55:00      -35.000        2.000        8.000        0.000        0.000        0.000        0.000        0.000        0.000        0.065        0.000       35.057        0.000        0.000      330.580       -1.960      853.040
01/29/2021  08:56:00      -35.000        2.000        8.000        0.000        0.000        0.000        0.000        0.000        0.000        0.065        0.000       35.057        0.000        0.000      330.580       -1.960      853.040
01/29/2021  08:57:00      -35.000        2.000        8.000        0.000        0.000        0.000        0.000        0.000        0.000        0.065        0.000       35.057        0.000        0.000      330.580       -1.960      853.040
01/29/2021  08:58:00      -35.000        2.000        8.000        0.000        0.000        0.000        0.000        0.000        0.000        0.065        0.000       35.057        0.000        0.000      330.580       -1.960      853.040
01/29/2021  08:59:00      -35.000        2.000        8.000        0.000        0.000        0.000        0.000        0.000        0.000        0.065        0.000       35.057        0.000        0.000      330.580       -1.960      853.040
01/29/2021  09:00:00      -84.671      208.107      -74.818       13.448       41.479       17.579      180.858     1720.482      309.018        2.914        0.111      224.673       27.231        0.015      331.446       -0.529      852.896
01/29/2021  09:01:00      -88.000      217.000      -79.000        0.000        0.000        0.000        0.000        0.000        0.000        3.054        0.000      234.164        0.000        0.000      331.500       -0.440      852.890
01/29/2021  09:02:00      -58.454      172.498      -85.664       43.720       76.424       39.672     1911.424     5840.613     1573.892        2.492        0.466      182.133       46.636        0.066      331.439       -0.546      852.871
01/29/2021  09:03:00       76.857      -17.859       -8.897       83.591       81.531       51.746     6987.440     6647.359     2677.624        1.131        0.816       78.905       60.786        0.593      331.134       -1.045      852.849
01/29/2021  09:04:00       88.682      -99.001       43.874       67.769       82.800       42.596     4592.600     6855.765     1814.461        1.642        0.663      132.912       51.748        0.152      331.643       -0.211      852.859
01/29/2021  09:05:00       61.750      -12.260      -16.610       38.962       48.174       18.929     1517.999     2320.692      358.300        0.422        0.210       62.956       15.690        0.062      332.294        0.863      852.895
01/29/2021  09:06:00      124.375      -77.409        6.143       62.673       66.526       50.185     3927.962     4425.687     2518.515        1.618        0.544      146.497       41.250        0.079      331.856        0.140      852.928
01/29/2021  09:07:00      123.533     -106.833       42.365       74.777       96.016       49.793     5591.590     9219.065     2479.365        2.288        0.865      163.321       53.315        0.107      331.418       -0.580      852.958
01/29/2021  09:08:00       94.121      -15.427       -6.607       63.457       69.549       37.192     4026.741     4837.118     1383.265        0.969        0.512       95.377       41.084        0.186      332.159        0.640      853.000
01/29/2021  09:09:00       80.132       -4.503      -10.366       53.511       91.823       35.276     2863.411     8431.372     1244.384        0.954        0.627       80.258       29.311        0.133      332.279        0.838      853.029
01/29/2021  09:10:00       13.877       21.789       -4.439       50.075       58.059       25.050     2507.473     3370.905      627.507        0.360        0.325       25.833       17.770        0.473      332.222        0.744      853.060
01/29/2021  09:11:00        5.006      -64.193      -11.118       67.276       35.707       23.250     4526.034     1274.988      540.568        0.530        0.317       64.388       21.836        0.115      332.409        1.051      853.093
01/29/2021  09:12:00       30.684      -96.068      -17.710       48.904       46.844       23.436     2391.567     2194.387      549.225        0.781        0.257      100.849       19.784        0.038      332.278        0.838      853.120
01/29/2021  09:13:00       48.293      -34.619       -9.117       41.827       43.677       23.798     1749.508     1907.658      566.331        0.392        0.211       59.420       20.014        0.113      332.324        0.912      853.133
01/29/2021  09:14:00       49.619      -94.430      -20.614       41.223       37.372       24.231     1699.304     1396.665      587.144        0.774        0.184      106.673       24.533        0.053      332.298        0.869      853.153
01/29/2021  09:15:00       19.568      -48.041      -13.403       37.873       45.269       20.043     1434.369     2049.283      401.726        0.338        0.194       51.873       23.299        0.202      332.516        1.228      853.172
01/29/2021  09:16:00      -18.906      -11.599        1.263       20.975       26.396       11.587      439.953      696.767      134.267        0.088        0.064       22.180        6.666        0.090      332.618        1.397      853.192
01/29/2021  09:17:00       -6.162       41.989        3.229       22.644       12.420       16.226      512.740      154.245      263.273        0.137        0.047       42.439       11.087        0.068      332.228        0.753      853.201
01/29/2021  09:18:00        9.187       33.789       -9.164       25.018       30.292       11.743      625.883      917.592      137.898        0.150        0.084       35.016       14.414        0.169      332.191        0.693      853.204
01/29/2021  09:19:00      -50.027      -18.038        2.304       64.083       32.192       28.940     4106.581     1036.331      837.515        0.441        0.299       53.179       32.453        0.372      332.457        1.133      853.212
01/29/2021  09:20:00      -79.648       -2.567       -5.726       30.573       28.859       14.333      934.680      832.861      205.432        0.418        0.099       79.689       13.197        0.027      332.175        0.666      853.232
01/29/2021  09:21:00      -54.409      -16.754        2.177       51.759       32.595       27.089     2678.963     1062.404      733.810        0.386        0.224       56.930       27.351        0.231      332.347        0.951      853.250
01/29/2021  09:22:00     -158.775      -54.900      -22.119       55.713       52.705       34.348     3103.943     2777.859     1179.796        1.789        0.353      167.999       18.500        0.012      332.184        0.682      853.260
01/29/2021  09:23:00     -181.473      -12.229       -6.356       87.991       53.439       42.459     7742.443     2855.712     1802.763        2.276        0.620      181.884       39.644        0.048      332.203        0.710      853.270
01/29/2021  09:24:00     -122.750       23.791      -15.016       49.187       29.462       18.224     2419.403      868.020      332.123        0.974        0.181      125.035       10.859        0.008      332.039        0.442      853.275
01/29/2021  09:25:00      -73.079       29.891        2.112       30.237       29.028       20.605      914.252      842.616      424.566        0.421        0.109       78.956       15.413        0.038      332.128        0.589      853.265
01/29/2021  09:26:00      -26.985       33.453        6.750       20.794       25.196       12.970      432.377      634.853      168.214        0.156        0.062       42.980       10.489        0.060      332.203        0.712      853.245
01/29/2021  09:27:00        4.748       29.472       -0.900       25.280       20.062       20.655      639.079      402.499      426.624        0.118        0.073       29.852       12.537        0.176      332.389        1.020      853.244
01/29/2021  09:28:00      -29.007       14.728       -8.274       29.629       23.539       17.166      877.862      554.090      294.681        0.143        0.086       32.532       10.682        0.108      332.447        1.115      853.235
01/29/2021  09:29:00      -47.862        0.039       -4.724       27.952       21.494       18.340      781.299      461.987      336.369        0.195        0.079       47.862       11.755        0.060      332.465        1.147      853.236
01/29/2021  09:30:00      -22.255        7.714       -2.663       33.945       28.879       25.858     1152.282      834.022      668.629        0.161        0.133       23.554       22.128        0.883      332.625        1.410      853.230
01/29/2021  09:31:00      -30.077       10.959       -9.840       27.040       35.938       15.316      731.176     1291.523      234.577        0.169        0.113       32.011       11.845        0.137      332.714        1.556      853.225
01/29/2021  09:32:00      -34.534      -64.791      -19.782       66.514       45.986       34.357     4424.154     2114.697     1180.432        0.675        0.386       73.420       40.293        0.301      332.768        1.645      853.214
01/29/2021  09:33:00      -69.417      -41.896       -5.538       53.589       53.532       35.104     2871.757     2865.682     1232.267        0.679        0.348       81.080       25.522        0.099      332.770        1.648      853.212
01/29/2021  09:34:00      -61.304      -54.935       -4.096       44.977       58.538       30.629     2022.914     3426.723      938.121        0.659        0.319       82.317       30.911        0.141      332.703        1.538      853.205
01/29/2021  09:35:00      -67.722      -35.316       -9.729       47.166       45.768       33.247     2224.652     2094.664     1105.334        0.568        0.271       76.377       18.294        0.057      332.583        1.340      853.196
01/29/2021  09:36:00      -15.739       45.901      -16.062       39.542       36.398       23.345     1563.592     1324.823      545.011        0.302        0.172       48.524       21.805        0.202      332.370        0.989      853.182
01/29/2021  09:37:00      -45.278       24.636        6.042       28.602       32.362       18.422      818.067     1047.284      339.361        0.245        0.110       51.546        6.891        0.018      332.555        1.294      853.182
01/29/2021  09:38:00      -39.793        4.785       -4.268       26.858       29.171       17.640      721.378      850.924      311.175        0.175        0.094       40.079       13.164        0.108      332.572        1.321      853.179
01/29/2021  09:39:00      -80.301       28.538        1.144       42.991       45.733       23.256     1848.206     2091.544      540.819        0.587        0.224       85.221       23.641        0.077      332.395        1.030      853.191
01/29/2021  09:40:00     -115.332       58.320      -11.407       32.530       30.022       20.925     1058.219      901.320      437.837        0.961        0.120      129.240       19.193        0.022      332.208        0.723      853.208
01/29/2021  09:41:00     -139.923       40.923       -0.605       49.240       32.129       24.637     2424.559     1032.292      607.005        1.266        0.203      145.785       26.643        0.033      332.279        0.839      853.221
01/29/2021  09:42:00      -49.379      -15.752       10.509       56.837       47.274       30.396     3230.499     2234.791      923.916        0.459        0.319       51.831       32.672        0.397      332.496        1.194      853.250
01/29/2021  09:43:00      -45.546      -11.790       12.353      101.027       69.476       50.773    10206.542     4826.982     2577.877        0.998        0.881       47.047       45.499        0.935      332.491        1.186      853.281
01/29/2021  09:44:00     -197.043       30.322      -12.907       73.980       60.662       41.553     5472.978     3679.909     1726.643        2.539        0.544      199.363       36.909        0.034      332.160        0.639      853.324
01/29/2021  09:45:00     -180.139       24.799       -7.491       69.127       48.157       33.659     4778.551     2319.106     1132.944        2.067        0.412      181.838       31.619        0.030      332.268        0.817      853.348
01/29/2021  09:46:00     -169.465       35.306       -6.834       56.599       40.396       25.485     3203.491     1631.798      649.499        1.775        0.274      173.103       12.188        0.005      332.159        0.640      853.376
01/29/2021  09:47:00     -143.990       15.929       -3.023       65.066       45.066       34.031     4233.567     2030.947     1158.098        1.421        0.371      144.868       26.798        0.034      332.230        0.757      853.400
01/29/2021  09:48:00     -122.324      -20.940        4.637       75.493       48.267       40.367     5699.150     2329.709     1629.457        1.254        0.483      124.104       35.133        0.080      332.310        0.889      853.428
01/29/2021  09:49:00     -125.848       -2.662       -3.603       61.318       43.166       30.627     3759.900     1863.313      938.006        1.121        0.328      125.876       27.970        0.049      332.252        0.796      853.450
01/29/2021  09:50:00     -131.546      -43.246      -28.065       49.752       33.019       23.431     2475.224     1090.238      548.994        1.204        0.206      138.472       14.222        0.011      332.206        0.719      853.475
01/29/2021  09:51:00      -61.442       21.629       -2.236       57.979       40.426       22.363     3361.558     1634.238      500.121        0.487        0.275       65.138       23.554        0.131      332.339        0.937      853.486
01/29/2021  09:52:00      -98.639       -6.593       -4.668       72.002       33.125       26.088     5184.337     1097.265      680.569        0.838        0.348       98.859       19.155        0.038      332.369        0.987      853.510
01/29/2021  09:53:00     -101.645       11.256       -0.175       60.789       38.130       31.762     3695.273     1453.879     1008.838        0.831        0.308      102.266       25.563        0.062      332.388        1.019      853.493
01/29/2021  09:54:00     -134.919      -41.729      -19.576       59.543       90.920       35.198     3545.333     8266.393     1238.890        1.669        0.653      141.225       30.630        0.047      332.271        0.825      853.497
01/29/2021  09:55:00     -122.683       -5.220        0.960       77.710       75.065       44.880     6038.885     5634.813     2014.208        1.438        0.684      122.794       45.331        0.136      332.318        0.901      853.501
01/29/2021  09:56:00      -58.657      -29.204        5.459       54.198       55.846       30.030     2937.453     3118.736      901.810        0.564        0.348       65.525       18.716        0.082      332.429        1.087      853.510
01/29/2021  09:57:00     -128.238      -47.589      -23.054       60.310       29.250       21.582     3637.290      855.565      465.791        1.210        0.248      136.784       17.916        0.017      332.372        0.992      853.511
01/29/2021  09:58:00      -87.171       26.078        4.848       55.580       47.431       28.314     3089.110     2249.741      801.694        0.722        0.307       90.988       23.116        0.065      332.415        1.063      853.509
01/29/2021  09:59:00     -123.704       20.651        8.596       88.764       63.152       40.824     7879.058     3988.149     1666.566        1.467        0.677      125.416       35.824        0.082      332.350        0.956      853.495
01/29/2021  10:00:00      -90.830       17.499        4.424       58.376       41.741       29.595     3407.738     1742.340      875.868        0.730        0.301       92.500       22.377        0.059      332.407        1.050      853.498
01/29/2021  10:01:00      -20.877       -3.767        2.655       53.513       40.540       25.723     2863.624     1643.530      661.689        0.281        0.258       21.214       17.163        0.655      332.516        1.230      853.511
01/29/2021  10:02:00      -12.541       -3.336        0.168       33.576       20.087       16.293     1127.358      403.496      265.456        0.098        0.090       12.977        7.789        0.360      332.598        1.366      853.517
01/29/2021  10:03:00      -42.389        0.701       -1.759       51.329       37.099       26.544     2634.698     1376.302      704.588        0.326        0.236       42.395       22.569        0.283      332.625        1.410      853.528
01/29/2021  10:04:00     -140.569        1.707       -1.377       48.100       38.817       27.154     2313.595     1506.778      737.323        1.216        0.228      140.580       12.643        0.008      332.257        0.802      853.538
01/29/2021  10:05:00     -109.493        5.227      -11.436       64.228       29.211       31.779     4125.219      853.310     1009.887        0.907        0.299      109.617       31.402        0.082      332.307        0.886      853.557
01/29/2021  10:06:00      -99.195       47.068        6.365       55.189       27.980       27.619     3045.831      782.905      762.821        0.834        0.230      109.796       26.556        0.058      332.367        0.985      853.569
01/29/2021  10:07:00     -105.997      -37.417        6.013       77.162       58.188       39.855     5953.975     3385.857     1588.432        1.180        0.546      112.408       46.305        0.170      332.563        1.308      853.579
01/29/2021  10:08:00      -43.510      -25.198        1.177       41.582       52.147       26.951     1729.102     2719.276      726.348        0.385        0.259       50.280       16.231        0.104      332.543        1.275      853.577
01/29/2021  10:09:00      -76.802      -60.104      -12.742       46.876       52.189       29.238     2197.322     2723.687      854.878        0.772        0.289       97.524       22.056        0.051      332.582        1.339      853.594
01/29/2021  10:10:00      -85.856      -33.872      -11.828       53.738       41.188       28.759     2887.728     1696.485      827.058        0.703        0.271       92.296       20.687        0.050      332.617        1.396      853.606
01/29/2021  10:11:00      -40.400      -10.119        9.627       99.640       50.741       41.832     9928.057     2574.678     1749.909        0.804        0.713       41.648       40.621        0.951      332.615        1.392      853.617
01/29/2021  10:12:00     -172.795      -19.812        3.559       88.795       44.821       30.674     7884.548     2008.944      940.886        2.055        0.542      173.927       35.602        0.042      332.242        0.776      853.635
01/29/2021  10:13:00      -80.147      -16.673       -3.016       73.641       48.149       32.397     5422.981     2318.365     1049.574        0.775        0.440       81.862       19.597        0.057      332.379        1.004      853.638
01/29/2021  10:14:00      -57.646       27.551        0.499       65.581       84.621       33.577     4300.808     7160.687     1127.386        0.833        0.629       63.892       33.243        0.271      332.356        0.966      853.635
01/29/2021  10:15:00      -68.572       -9.052       -2.153       60.024       47.509       27.447     3602.940     2257.142      753.348        0.570        0.331       69.167       13.742        0.039      332.469        1.151      853.644
01/29/2021  10:16:00     -116.930     -105.700      -11.482       49.586       58.613       30.671     2458.722     3435.438      940.734        1.590        0.342      157.623       17.604        0.012      332.278        0.837      853.653
01/29/2021  10:17:00     -107.762      -56.416      -18.015       64.867       63.171       32.251     4207.783     3990.614     1040.110        1.218        0.462      121.636       17.900        0.022      332.360        0.972      853.667
01/29/2021  10:18:00     -147.801      -15.059      -15.344       63.145       32.727       31.053     3987.257     1071.076      964.263        1.416        0.301      148.566       19.528        0.017      332.294        0.862      853.690
01/29/2021  10:19:00      -99.890      -11.881      -23.570       47.990       29.288       23.461     2303.040      857.800      550.418        0.719        0.186      100.594       16.934        0.028      332.148        0.623      853.702
01/29/2021  10:20:00      -68.396       50.243       -7.426       28.181       40.495       17.983      794.173     1639.853      323.395        0.501        0.138       84.866        7.347        0.007      332.177        0.672      853.706
01/29/2021  10:21:00      -27.715       92.329       -6.500       35.241       26.676       18.947     1241.918      711.612      359.001        0.582        0.116       96.399       18.174        0.036      332.206        0.718      853.707
01/29/2021  10:22:00      -54.950       64.670       -7.822       31.689       23.872       15.501     1004.164      569.870      240.283        0.454        0.091       84.863       13.472        0.025      332.236        0.767      853.699
01/29/2021  10:23:00      -70.748       -3.351       -6.932       47.717       61.949       21.691     2276.869     3837.658      470.497        0.582        0.329       70.828       20.330        0.082      332.302        0.877      853.708
01/29/2021  10:24:00     -118.336      -53.611       -7.112       55.363       65.682       30.322     3065.095     4314.116      919.447        1.261        0.415      129.913       20.020        0.024      332.337        0.935      853.718
01/29/2021  10:25:00     -141.433      -28.055        0.533       99.335       59.028       46.643     9867.477     3484.270     2175.612        1.816        0.776      144.189       44.954        0.097      332.409        1.053      853.731
01/29/2021  10:26:00     -223.974      -48.508      -13.776       84.363       54.335       41.772     7117.156     2952.253     1744.898        3.226        0.591      229.167       41.420        0.033      332.206        0.713      853.751
01/29/2021  10:27:00     -133.211      -35.467       -8.936      100.567       65.353       45.110    10113.712     4271.042     2034.901        1.775        0.821      137.852       37.092        0.072      332.311        0.889      853.761
01/29/2021  10:28:00     -124.542       14.813       -9.614       58.955       47.048       29.819     3475.649     2213.518      889.183        1.120        0.329      125.420       25.882        0.043      332.364        0.978      853.778
01/29/2021  10:29:00     -139.741       57.272       -3.793       47.601       34.326       25.176     2265.859     1178.298      633.827        1.345        0.204      151.022       26.524        0.031      332.390        1.021      853.789
01/29/2021  10:30:00     -132.867       31.126      -20.581       38.145       27.257       20.943     1455.012      742.931      438.606        1.084        0.132      136.464       13.410        0.010      332.364        0.980      853.791
01/29/2021  10:31:00     -114.075       23.857      -15.966       40.158       29.648       19.623     1612.688      879.001      385.058        0.836        0.144      116.543       18.657        0.026      332.454        1.128      853.802
01/29/2021  10:32:00     -100.639        3.687       -3.827       48.709       43.362       26.703     2372.557     1880.221      713.040        0.756        0.248      100.707       23.581        0.055      332.562        1.305      853.808
01/29/2021  10:33:00     -123.435       21.694       -2.554       58.725       39.079       23.706     3448.606     1527.139      561.997        1.062        0.277      125.327       15.393        0.015      332.543        1.274      853.821
01/29/2021  10:34:00      -92.417        2.340       -6.861       68.139       57.744       30.634     4642.985     3334.364      938.420        0.875        0.446       92.446       20.932        0.051      332.516        1.228      853.831
01/29/2021  10:35:00     -130.160       68.205      -10.913       72.334       45.670       28.949     5232.165     2085.746      838.023        1.493        0.408      146.947       25.128        0.029      332.462        1.140      853.849
01/29/2021  10:36:00      -92.428       46.962       -7.825       40.766       31.264       20.291     1661.881      977.461      411.707        0.693        0.153      103.674       18.205        0.031      332.430        1.087      853.869
01/29/2021  10:37:00      -46.750        3.330       -8.188       88.324       74.338       37.431     7801.184     5526.126     1401.057        0.849        0.736       46.868       30.640        0.427      332.555        1.294      853.880
01/29/2021  10:38:00     -244.152       10.030       -3.277       80.446       66.704       32.914     6471.575     4449.386     1083.352        3.586        0.600      244.358       30.665        0.016      332.355        0.959      853.898
01/29/2021  10:39:00     -154.679       11.978        0.314       73.386       43.620       29.678     5385.486     1902.689      880.779        1.612        0.408      155.142       25.140        0.026      332.384        1.010      853.914
01/29/2021  10:40:00      -77.538       11.030        3.648       69.392       47.998       26.818     4815.195     2303.826      719.224        0.699        0.392       78.319       15.861        0.041      332.535        1.260      853.920
01/29/2021  10:41:00     -119.854        9.627       -5.799       54.972       57.112       26.163     3021.901     3261.801      684.510        1.073        0.348      120.240        8.374        0.005      332.374        0.995      853.926
01/29/2021  10:42:00      -78.641       65.293      -11.349       45.505       33.699       20.269     2070.725     1135.647      410.824        0.710        0.181      102.214       14.034        0.019      332.365        0.979      853.927
01/29/2021  10:43:00      -69.466      -27.764       -7.088       43.147       48.915       22.904     1861.702     2392.663      524.584        0.521        0.239       74.809       22.161        0.088      332.386        1.013      853.930
01/29/2021  10:44:00      -83.552      -58.950        0.807       34.595       39.961       19.955     1196.824     1596.852      398.200        0.682        0.160      102.254       16.956        0.027      332.511        1.221      853.917
01/29/2021  10:45:00      -40.067       -7.023       -1.006       34.914       26.831       17.951     1219.021      719.886      322.233        0.196        0.113       40.678       14.055        0.119      332.819        1.730      853.917
01/29/2021  10:46:00      -38.517       12.197        9.110      136.260       59.127       36.238    18566.763     3495.999     1313.209        1.254        1.169       40.402       27.360        0.459      332.775        1.654      853.924
01/29/2021  10:47:00     -199.602      -14.348      -13.296       74.307       72.374       31.137     5521.604     5238.032      969.517        2.597        0.586      200.117       13.686        0.005      332.583        1.338      853.924
01/29/2021  10:48:00     -155.527      -12.084        2.146      101.837       77.129       35.721    10370.871     5948.838     1275.977        2.096        0.880      155.996       34.610        0.049      332.550        1.284      853.935
01/29/2021  10:49:00     -177.648       36.608        4.500       71.153       61.031       36.898     5062.705     3724.802     1361.436        2.153        0.507      181.381       36.530        0.041      332.500        1.202      853.938
01/29/2021  10:50:00      -91.111       -0.881        2.942       55.852       37.564       25.938     3119.414     1411.044      672.767        0.676        0.260       91.115       15.473        0.029      332.704        1.540      853.935
01/29/2021  10:51:00     -131.731      -72.874      -13.586       49.662       37.993       25.471     2466.349     1443.489      648.769        1.370        0.228      150.544       19.142        0.016      332.587        1.345      853.936
01/29/2021  10:52:00     -126.626       44.463      -14.896       61.372       36.709       22.279     3766.565     1347.585      496.359        1.192        0.281      134.206       21.648        0.026      332.514        1.227      853.931
01/29/2021  10:53:00      -96.558      -33.407       -9.724       50.418       50.601       31.885     2541.965     2560.464     1016.672        0.833        0.306      102.174       30.258        0.088      332.741        1.600      853.935
01/29/2021  10:54:00     -146.828      -53.022       -9.308       66.399       59.361       37.167     4408.773     3523.755     1381.396        1.688        0.466      156.108       24.603        0.025      332.676        1.492      853.945
01/29/2021  10:55:00      -78.387      -23.283        2.005       58.355       42.596       29.038     3405.300     1814.452      843.212        0.638        0.303       81.772       22.933        0.079      332.864        1.805      853.962
01/29/2021  10:56:00      -86.258      -60.413       -3.748       62.274       46.067       33.598     3877.991     2122.211     1128.851        0.912        0.356      105.310       35.865        0.116      332.844        1.771      853.973
01/29/2021  10:57:00      -49.366       20.818        5.932       38.804       35.476       22.170     1505.766     1258.577      491.496        0.308        0.163       53.576       21.767        0.165      332.791        1.684      853.986
01/29/2021  10:58:00      -31.131       32.786        0.557       52.691       28.635       21.025     2776.394      819.950      442.049        0.304        0.202       45.211       20.381        0.203      332.823        1.737      854.012
01/29/2021  10:59:00      -13.581       14.211        1.518       33.860       35.917       19.766     1146.505     1290.032      390.710        0.161        0.141       19.657       13.480        0.470      332.976        1.989      854.024
01/29/2021  11:00:00      -26.554      -26.439      -12.194       44.178       33.718       24.296     1951.689     1136.919      590.287        0.262        0.184       37.472       15.930        0.181      333.187        2.337      854.027
01/29/2021  11:01:00      -70.074      -38.205       -1.022       52.636       33.230       27.329     2770.514     1104.222      746.856        0.550        0.231       79.812        5.176        0.004      332.987        2.008      854.044
01/29/2021  11:02:00      -58.177      -25.794       -6.931       58.559       38.851       33.030     3429.147     1509.364     1091.012        0.506        0.301       63.639       21.971        0.119      333.002        2.033      854.034
01/29/2021  11:03:00      -69.348      -13.595       -9.841       36.188       48.052       24.110     1309.571     2309.022      581.304        0.464        0.210       70.668       21.103        0.089      332.994        2.019      854.035
01/29/2021  11:04:00      -41.955       16.727       -1.256       24.834       40.048       17.711      616.704     1603.876      313.696        0.229        0.127       45.166        9.023        0.040      332.869        1.813      854.029
01/29/2021  11:05:00      -59.448      -24.337      -18.170       36.483       34.220       24.119     1331.016     1171.011      581.738        0.377        0.154       64.236       15.007        0.055      333.151        2.278      854.020
01/29/2021  11:06:00      -88.436      -18.220       -9.228       27.665       35.000       20.982      765.369     1225.011      440.255        0.533        0.122       90.293       17.264        0.037      332.976        1.988      854.024
01/29/2021  11:07:00      -56.902      -61.015       -3.552       43.335       65.084       34.531     1877.957     4235.885     1192.413        0.714        0.365       83.431       28.361        0.116      333.006        2.038      854.013
01/29/2021  11:08:00      -95.074      -32.800       -7.247       44.775       42.762       29.398     2004.778     1828.581      864.247        0.743        0.235      100.573       15.485        0.024      332.932        1.917      854.007
01/29/2021  11:09:00     -101.472     -142.279       -8.892       48.026       61.320       34.639     2306.498     3760.169     1199.858        1.894        0.363      174.757       32.142        0.034      332.873        1.818      854.006
01/29/2021  11:10:00     -122.486      -45.540      -15.776       71.562       44.990       39.165     5121.080     2024.131     1533.886        1.300        0.434      130.678       33.557        0.066      332.921        1.898      853.999
01/29/2021  11:11:00      -86.064      -88.657       -5.890       45.557       67.355       31.217     2075.481     4536.762      974.531        1.144        0.379      123.560       12.996        0.011      332.844        1.772      854.006
01/29/2021  11:12:00      -94.494        5.906       -9.860       61.938       52.955       30.853     3836.271     2804.230      951.919        0.833        0.380       94.679       18.383        0.038      332.918        1.893      854.014
01/29/2021  11:13:00      -70.852       15.538       -3.625       47.551       32.492       25.529     2261.105     1055.702      651.730        0.462        0.198       72.536       17.086        0.055      332.938        1.925      854.022
01/29/2021  11:14:00      -56.700        5.735        9.709       44.082       41.407       25.283     1943.225     1714.503      639.251        0.382        0.215       56.990       18.696        0.108      332.911        1.882      854.030
01/29/2021  11:15:00      -67.711      -49.963        3.418       57.052       54.594       29.007     3254.943     2980.538      841.427        0.708        0.354       84.149       29.153        0.120      333.059        2.126      854.034
01/29/2021  11:16:00     -128.985      -28.794       -9.342       70.494       35.559       28.317     4969.370     1264.420      801.850        1.229        0.352      132.160       34.489        0.068      332.970        1.980      854.037
01/29/2021  11:17:00      -77.904      -41.847      -11.590       53.277       40.565       25.747     2838.452     1645.488      662.903        0.655        0.257       88.432       25.218        0.081      332.932        1.916      854.040
01/29/2021  11:18:00      -43.593       -9.824      -13.929       20.435       42.777       16.616      417.603     1829.880      276.075        0.236        0.126       44.687       22.552        0.255      332.762        1.635      854.038
01/29/2021  11:19:00      -57.728       26.836       -3.783       26.868       17.544       14.618      721.871      307.775      213.684        0.265        0.062       63.661       10.193        0.026      332.879        1.828      854.031
01/29/2021  11:20:00      -43.110      -56.985       -8.089       31.033       21.990       18.477      963.022      483.572      341.383        0.348        0.089       71.455       17.061        0.057      332.986        2.005      854.019
01/29/2021  11:21:00      -60.191      -21.065       -4.167       33.753       43.948       25.119     1139.296     1931.468      630.957        0.389        0.185       63.771       18.622        0.085      332.973        1.985      854.012
01/29/2021  11:22:00      -85.171       10.439       -3.110       70.879       58.232       31.298     5023.813     3391.022      979.559        0.838        0.470       85.809       30.185        0.124      333.107        2.204      854.004
01/29/2021  11:23:00     -128.545      -49.920      -21.044       49.855       31.391       22.661     2485.519      985.405      513.535        1.172        0.199      137.898       19.845        0.021      332.913        1.885      854.001
01/29/2021  11:24:00      -94.422      -56.876      -23.720       53.971       25.149       20.467     2912.873      632.463      418.888        0.834        0.198      110.228       25.228        0.052      332.975        1.988      853.993
01/29/2021  11:25:00      -94.676       33.847        0.130       50.726       51.008       24.901     2573.127     2601.772      620.037        0.795        0.290      100.544       20.898        0.043      333.115        2.217      853.991
01/29/2021  11:26:00      -50.458       10.974        3.120       37.635       44.224       22.936     1416.430     1955.763      526.054        0.329        0.195       51.637       19.137        0.137      333.238        2.420      853.987
01/29/2021  11:27:00      -42.631      -59.372      -11.798       39.761       49.425       24.428     1580.941     2442.814      596.720        0.505        0.231       73.092       13.291        0.033      333.055        2.119      853.976
01/29/2021  11:28:00      -24.164      -10.678       -6.074       33.796       28.298       20.772     1142.147      800.784      431.465        0.155        0.119       26.418        4.987        0.036      333.278        2.488      853.981
01/29/2021  11:29:00      -54.173      -32.169        0.539       62.286       29.052       25.646     3879.592      844.040      657.715        0.467        0.269       63.005       15.354        0.059      333.444        2.763      853.986
01/29/2021  11:30:00      -37.044       -3.638        9.500       46.954       31.111       22.779     2204.651      967.900      518.893        0.258        0.185       37.223       20.735        0.310      333.483        2.826      853.986
01/29/2021  11:31:00      -41.278        4.479        7.497       34.754       25.499       19.077     1207.812      650.192      363.933        0.200        0.111       41.520       14.842        0.128      333.366        2.635      853.981
01/29/2021  11:32:00      -56.995       -4.850      -17.710       33.103       28.042       29.730     1095.786      786.328      883.868        0.318        0.138       57.201       14.937        0.068      333.309        2.539      853.978
01/29/2021  11:33:00      -38.572      -44.273       -4.147       38.792       28.794       20.721     1504.838      829.117      429.358        0.311        0.138       58.718       15.059        0.066      333.305        2.534      853.974
01/29/2021  11:34:00      -19.203       25.101        0.713       21.245       40.893       18.491      451.342     1672.249      341.907        0.173        0.123       31.604       22.057        0.487      333.356        2.617      853.967
01/29/2021  11:35:00        3.920      -13.109        6.266       17.709       24.808       15.542      313.613      615.458      241.557        0.070        0.059       13.682        7.021        0.263      333.677        3.149      853.969
01/29/2021  11:36:00       -9.697       42.862       -5.640       29.429       37.683       20.619      866.073     1420.023      425.150        0.234        0.136       43.945        7.632        0.030      333.521        2.890      853.960
01/29/2021  11:37:00      -40.320       14.345        8.393       71.685       53.509       32.612     5138.683     2863.173     1063.540        0.548        0.453       42.796       37.535        0.769      333.249        2.440      853.955
01/29/2021  11:38:00      -48.554      -53.089       -1.829       45.220       62.362       21.203     2044.831     3889.015      449.562        0.578        0.319       71.944       17.653        0.060      333.103        2.197      853.938
01/29/2021  11:39:00      -81.386      -83.303       -7.133       65.293       69.182       33.215     4263.228     4786.172     1103.252        1.188        0.508      116.460       26.256        0.051      333.047        2.107      853.906
01/29/2021  11:40:00     -126.074        0.058        0.950       70.046       51.963       35.749     4906.382     2700.118     1277.981        1.239        0.444      126.074       35.555        0.080      333.062        2.130      853.893
01/29/2021  11:41:00     -139.734      -11.467      -16.917       80.836       49.793       29.702     6534.396     2479.311      882.197        1.492        0.495      140.203       33.350        0.057      332.985        2.004      853.904
01/29/2021  11:42:00     -107.698      -32.578      -15.451       28.320       31.719       21.053      802.041     1006.078      443.245        0.757        0.113      112.518       18.087        0.026      332.945        1.939      853.926
01/29/2021  11:43:00      -54.896      -43.564       -5.568       15.373       24.664       13.422      236.342      608.323      180.150        0.298        0.051       70.081        3.617        0.003      332.982        1.999      853.926
01/29/2021  11:44:00     -102.762       -3.623       -0.083       61.431       42.351       31.131     3773.820     1793.621      969.158        0.855        0.327      102.826       25.856        0.063      333.221        2.394      853.925
01/29/2021  11:45:00     -146.655       38.245       -0.807       56.371       46.263       31.691     3177.635     2140.240     1004.300        1.465        0.316      151.560       26.964        0.032      333.073        2.150      853.925
01/29/2021  11:46:00     -117.087       48.356        0.203       53.447       43.924       29.271     2856.598     1929.282      856.811        1.084        0.282      126.680       23.985        0.036      333.067        2.139      853.926
01/29/2021  11:47:00      -47.035       11.548        2.345       59.046       47.258       29.816     3486.404     2233.281      889.012        0.448        0.330       48.431       26.378        0.297      333.206        2.367      853.925
01/29/2021  11:48:00      -77.701       -1.131       -8.604       54.651       21.738       27.409     2986.780      472.543      751.235        0.516        0.211       77.709       22.877        0.087      333.244        2.432      853.916
01/29/2021  11:49:00      -68.796      -39.404       -5.708       47.093       46.252       24.322     2217.704     2139.246      591.555        0.563        0.247       79.282       21.711        0.075      333.334        2.580      853.913
01/29/2021  11:50:00      -98.618       -0.552       -2.460       46.982       32.442       28.794     2207.299     1052.507      829.117        0.691        0.204       98.619       21.147        0.046      333.167        2.305      853.901
01/29/2021  11:51:00      -82.345        5.421       -7.271       43.361       30.159       23.978     1880.138      909.583      574.925        0.511        0.168       82.523       12.337        0.022      333.187        2.338      853.889
01/29/2021  11:52:00      -15.865      -14.315        5.364       29.687       23.357       22.286      881.342      545.551      496.680        0.120        0.096       21.369       19.229        0.810      333.595        3.013      853.886
01/29/2021  11:53:00      -86.273      -11.451       -2.365      103.045       36.778       22.048    10618.246     1352.587      486.128        1.002        0.623       87.030       32.975        0.144      333.467        2.801      853.882
01/29/2021  11:54:00     -177.029      -51.131      -19.903       33.364       24.530       20.482     1113.166      601.734      419.496        1.824        0.107      184.265        9.411        0.003      332.944        1.937      853.887
01/29/2021  11:55:00     -123.095      -45.195      -26.639       31.937       14.362       15.672     1019.967      206.274      245.611        0.969        0.074      131.130       12.429        0.009      332.990        2.009      853.888
01/29/2021  11:56:00      -67.215      -12.841      -12.020       45.142       28.540       21.985     2037.831      814.507      483.353        0.408        0.167       68.431       11.169        0.027      333.086        2.173      853.896
01/29/2021  11:57:00      -12.161       26.950      -10.473       34.495       20.311       19.873     1189.886      412.533      394.924        0.149        0.100       29.567       17.721        0.359      333.201        2.360      853.884
01/29/2021  11:58:00        1.732        0.275       -1.962       22.984       15.985       13.198      528.245      255.525      174.190        0.048        0.048        1.754       14.325       66.698      333.467        2.801      853.873
01/29/2021  11:59:00       -0.533       20.289       -2.460       24.683       20.151       16.000      609.243      406.054      255.984        0.084        0.064       20.296       13.581        0.448      333.567        2.967      853.851
01/29/2021  12:00:00      -11.759       42.057       -4.938       34.541       21.470       18.752     1193.065      460.977      351.644        0.197        0.100       43.670       18.137        0.172      333.524        2.895      853.836
01/29/2021  12:01:00      -82.388        2.074       -6.485       69.506       48.293       30.457     4831.061     2332.228      927.640        0.746        0.405       82.414       25.490        0.096      333.472        2.808      853.823
01/29/2021  12:02:00      -70.655       60.307        5.068       52.340       43.620       31.669     2739.439     1902.699     1002.928        0.715        0.282       92.893       28.914        0.097      333.480        2.822      853.802
01/29/2021  12:03:00     -122.729       -5.090       -5.490       62.229       47.991       32.526     3872.420     2303.163     1057.929        1.117        0.362      122.835       20.164        0.027      333.445        2.765      853.791
01/29/2021  12:04:00     -103.602        1.554        5.389       64.599       40.348       29.697     4172.968     1627.946      881.887        0.872        0.334      103.613       30.463        0.086      333.533        2.911      853.794
01/29/2021  12:05:00      -95.045       20.189       -8.352       41.851       24.465       17.474     1751.527      598.554      305.330        0.608        0.133       97.165       14.433        0.022      333.272        2.477      853.798
01/29/2021  12:06:00      -69.764       21.081        0.781       37.524       40.957       30.401     1408.015     1677.483      924.201        0.466        0.200       72.880       22.630        0.096      333.431        2.740      853.800
01/29/2021  12:07:00        1.989       -7.080       -8.638       26.962       23.004       16.658      726.926      529.196      277.486        0.083        0.077        7.354       12.855        3.055      333.644        3.094      853.851
01/29/2021  12:08:00      -74.035      -48.387       -9.522       43.557       47.353       19.849     1897.229     2242.322      393.982        0.622        0.227       88.445       10.827        0.015      333.358        2.620      853.838
01/29/2021  12:09:00      -18.770      -55.969      -17.547       32.637       17.983       14.460     1065.171      323.389      209.093        0.269        0.080       59.033        7.708        0.017      333.296        2.516      853.831
01/29/2021  12:10:00       -3.379       -5.512        4.597       11.033       16.950       12.479      121.734      287.296      155.716        0.031        0.028        6.465        6.411        0.983      334.115        3.875      853.814
01/29/2021  12:11:00      -16.206      -14.291      -10.769       33.977       42.780       24.415     1154.463     1830.094      596.087        0.208        0.179       21.607       21.233        0.966      333.953        3.607      853.806
01/29/2021  12:12:00      -32.141      -48.102      -18.132       28.841       28.588       19.526      831.825      817.247      381.275        0.285        0.102       57.852       11.330        0.038      333.682        3.156      853.800
01/29/2021  12:13:00      -51.701      -25.699        1.479       42.912       51.017       23.671     1841.441     2602.763      560.321        0.417        0.250       57.736       29.734        0.265      333.660        3.121      853.813
01/29/2021  12:14:00      -33.274      -18.433        4.021       27.965       23.068       18.707      782.038      532.149      349.944        0.156        0.083       38.039       15.175        0.159      334.093        3.840      853.814
01/29/2021  12:15:00      -39.963       -3.995       -5.418       28.665       26.465       21.541      821.667      700.390      464.006        0.181        0.099       40.162       19.454        0.235      333.857        3.448      853.819
01/29/2021  12:16:00       -0.208       20.987        2.736       21.381       22.934       13.872      457.150      525.973      192.424        0.081        0.059       20.988       11.880        0.320      334.066        3.795      853.819
01/29/2021  12:17:00      -39.595       -3.598       -5.603       36.328       46.989       24.065     1319.695     2207.921      579.124        0.286        0.205       39.758       19.228        0.234      334.053        3.771      853.822
01/29/2021  12:18:00      -29.236      -42.192       -9.518       52.111       24.547       16.019     2715.546      602.543      256.611        0.315        0.179       51.331       15.593        0.092      333.683        3.159      853.837
01/29/2021  12:19:00      -46.970      -10.602        4.461       37.541       30.488       22.394     1409.363      929.503      501.475        0.259        0.142       48.152       11.476        0.057      333.787        3.331      853.845
01/29/2021  12:20:00      -33.895       21.377       -5.441       24.064       25.723       15.147      579.093      661.655      229.423        0.155        0.074       40.073        9.323        0.054      333.569        2.969      853.851
01/29/2021  12:21:00       -6.339       -9.318       -6.548       29.132       24.036       18.957      848.653      577.731      359.378        0.098        0.089       11.269       10.638        0.891      333.881        3.488      853.861
01/29/2021  12:22:00      -35.051       -4.283        2.281       33.817       35.420       19.787     1143.620     1254.551      391.509        0.202        0.139       35.311       11.294        0.102      333.713        3.210      853.854
01/29/2021  12:23:00      -54.548       -7.379       -1.502       40.894       23.321       15.329     1672.282      543.880      234.965        0.274        0.123       55.044       15.884        0.083      333.570        2.971      853.854
01/29/2021  12:24:00      -43.393      -11.289      -14.425       26.290       17.500       13.212      691.164      306.236      174.544        0.169        0.059       44.837        7.303        0.027      333.331        2.575      853.847
01/29/2021  12:25:00      -24.802        6.526       -4.792       17.158       12.348       14.760      294.405      152.475      217.871        0.067        0.033       25.646       10.045        0.153      333.444        2.763      853.838
01/29/2021  12:26:00      -17.444        5.704       -1.782       23.837       21.931       15.285      568.180      480.985      233.632        0.081        0.064       18.353       13.446        0.537      333.651        3.106      853.827
01/29/2021  12:27:00      -43.441       53.675        0.631       31.557       18.866       19.451      995.854      355.922      378.335        0.325        0.087       69.051        8.341        0.015      333.537        2.918      853.830
01/29/2021  12:28:00      -39.841       27.965      -10.126       28.088       17.987       15.599      788.908      323.538      243.314        0.191        0.068       48.676       12.695        0.068      333.397        2.685      853.813
01/29/2021  12:29:00      -42.767       31.051      -11.349       19.040       18.052       12.908      362.520      325.868      166.620        0.189        0.043       52.851        8.492        0.026      333.441        2.759      853.813
01/29/2021  12:30:00      -44.371       18.530      -10.435       39.949       38.193       22.552     1595.920     1458.725      508.576        0.299        0.178       48.085       23.985        0.249      333.560        2.955      853.808
01/29/2021  12:31:00      -27.369       19.043      -12.180       27.494       18.437       15.529      755.901      339.938      241.136        0.130        0.067       33.342        5.658        0.029      333.466        2.799      853.801
01/29/2021  12:32:00        6.705       11.006       -7.502       23.281       11.729       16.279      542.001      137.576      265.011        0.058        0.047       12.888       16.706        1.680      333.602        3.025      853.792
01/29/2021  12:33:00       10.567       43.677       -7.417       34.179       20.841       20.336     1168.236      434.339      413.537        0.204        0.101       44.937       19.810        0.194      333.417        2.719      853.784
01/29/2021  12:34:00       44.705       44.323        8.373       36.176       32.833       21.063     1308.727     1078.025      443.665        0.343        0.142       62.953       19.055        0.092      333.551        2.939      853.786
01/29/2021  12:35:00       49.581       48.618       -3.681       24.999       19.286       16.339      624.957      371.934      266.966        0.305        0.063       69.441       13.908        0.040      333.416        2.717      853.784
01/29/2021  12:36:00       28.807       33.125        0.849       29.030       30.320       17.035      842.717      919.278      290.207        0.199        0.103       43.899       19.077        0.189      333.533        2.910      853.794
01/29/2021  12:37:00       21.722       23.575        7.158       32.924       25.209       16.376     1083.983      635.514      268.168        0.153        0.099       32.057       17.444        0.296      333.586        2.998      853.793
01/29/2021  12:38:00      -51.095       29.782      -11.015       40.412       32.966       20.078     1633.097     1086.780      403.127        0.337        0.156       59.141       18.152        0.094      333.574        2.977      853.780
01/29/2021  12:39:00      -38.970        0.319        2.561       47.548       30.861       22.203     2260.778      952.395      492.952        0.261        0.185       38.971       15.406        0.156      333.695        3.178      853.769
01/29/2021  12:40:00       19.209      -18.688        3.129       32.594       32.823       22.969     1062.381     1077.342      527.586        0.170        0.133       26.800       18.477        0.475      333.830        3.400      853.760
01/29/2021  12:41:00       16.236      -38.603       -6.135       46.923       38.482       26.447     2201.777     1480.838      699.440        0.309        0.219       41.879       19.177        0.210      333.919        3.550      853.756
01/29/2021  12:42:00      -35.845      -62.236       -9.313       50.282       35.280       30.646     2528.279     1244.690      939.154        0.498        0.236       71.821       24.804        0.119      333.574        2.979      853.760
01/29/2021  12:43:00      -29.873      -24.511       -3.972       34.643       35.053       24.018     1200.123     1228.686      576.875        0.226        0.150       38.642       19.106        0.244      333.591        3.005      853.765
01/29/2021  12:44:00      -14.912       -9.280      -15.964       33.438       21.117       18.305     1118.085      445.922      335.064        0.123        0.095       17.564       20.586        1.374      333.702        3.189      853.764
01/29/2021  12:45:00        9.198       21.213      -16.224       47.737       36.208       26.113     2278.809     1311.011      681.910        0.253        0.214       23.121       24.593        1.131      333.773        3.309      853.755
01/29/2021  12:46:00       79.642       -4.651      -38.886       46.786       67.034       38.910     2188.940     4493.580     1513.966        0.803        0.410       79.778       24.189        0.092      333.670        3.137      853.738
01/29/2021  12:47:00       80.468       -9.329       -4.500       64.970       40.541       33.587     4221.105     1643.583     1128.066        0.679        0.350       81.007       40.173        0.246      333.682        3.157      853.722
01/29/2021  12:48:00       63.993       16.689       -6.288       49.839       50.347       29.153     2483.915     2534.837      849.923        0.514        0.293       66.133       24.942        0.142      333.706        3.198      853.713
01/29/2021  12:49:00       65.237       -4.297       -7.919       50.293       49.479       29.070     2529.381     2448.209      845.064        0.508        0.291       65.378       23.756        0.132      333.717        3.215      853.697
01/29/2021  12:50:00      106.504       25.650      -17.384       66.948       41.117       26.481     4482.013     1690.638      701.242        0.959        0.344      109.549       31.642        0.083      333.556        2.948      853.697
01/29/2021  12:51:00       81.220       67.896       -8.647       33.402       26.909       21.498     1115.690      724.087      462.183        0.679        0.115      105.861       16.166        0.023      333.555        2.948      853.694
01/29/2021  12:52:00       47.172        0.877      -19.201       54.208       70.576       36.486     2938.520     4980.985     1331.232        0.592        0.463       47.181       33.403        0.501      334.063        3.788      853.679
01/29/2021  12:53:00      127.412      -11.621      -17.278       86.468       60.591       39.451     7476.786     3671.307     1556.390        1.468        0.635      127.941       33.872        0.070      333.893        3.506      853.667
01/29/2021  12:54:00       78.914        0.945      -10.471       61.373       61.837       42.108     3766.617     3823.840     1773.122        0.785        0.468       78.920       40.303        0.261      333.960        3.618      853.655
01/29/2021  12:55:00       72.612        7.436       -9.988       69.807       67.491       42.002     4873.034     4554.976     1764.156        0.831        0.560       72.992       32.874        0.203      334.134        3.908      853.642
01/29/2021  12:56:00      128.371      -65.247      -23.851       81.218       79.962       54.087     6596.371     6393.867     2925.407        1.861        0.796      144.001       53.723        0.139      333.886        3.493      853.640
01/29/2021  12:57:00      125.704      -15.058      -22.507       68.120       62.189       43.152     4640.269     3867.484     1862.078        1.345        0.518      126.602       37.759        0.089      333.869        3.466      853.634
01/29/2021  12:58:00      132.510      -37.016      -14.868       65.645       50.062       39.598     4309.250     2506.231     1567.996        1.376        0.419      137.583       39.095        0.081      333.758        3.281      853.646
01/29/2021  12:59:00       79.926      -33.049      -20.004       74.744       71.174       42.551     5586.714     5065.744     1810.614        1.017        0.623       86.490       37.463        0.188      333.808        3.366      853.654
01/29/2021  13:00:00      116.214      -91.507      -27.933       43.505       52.295       28.549     1892.651     2734.765      815.024        1.405        0.272      147.916       33.471        0.051      333.567        2.965      853.652
01/29/2021  13:01:00      102.706      -39.356       -8.189       59.173       91.600       31.877     3501.471     8390.485     1016.142        1.253        0.645      109.988       24.115        0.048      333.582        2.991      853.662
01/29/2021  13:02:00      229.895       56.940      -12.954       49.635       43.775       35.064     2463.599     1916.264     1229.483        3.093        0.280      236.841       25.763        0.012      333.497        2.846      853.657
01/29/2021  13:03:00      157.912       34.617      -19.987       66.438       35.748       21.544     4414.022     1277.950      464.165        1.634        0.308      161.662       18.724        0.013      333.501        2.857      853.666
01/29/2021  13:04:00       77.768       80.622      -14.987       48.083       57.072       24.318     2311.957     3257.210      591.343        0.947        0.308      112.016       17.598        0.025      333.994        3.675      853.654
01/29/2021  13:05:00       78.585       14.963       -8.482       53.952       86.249       36.230     2910.768     7438.819     1312.633        0.906        0.583       79.997       42.053        0.276      334.124        3.890      853.636
01/29/2021  13:06:00       67.981      -63.529      -25.258       57.457       91.048       32.853     3301.317     8289.652     1079.352        1.098        0.634       93.045       29.972        0.104      333.986        3.662      853.616
01/29/2021  13:07:00        4.426      -48.985        1.064       32.305       64.018       30.858     1043.610     4098.251      952.243        0.426        0.305       49.185       31.565        0.412      333.941        3.586      853.631
01/29/2021  13:08:00       62.221       17.804      -21.799       53.539       74.268       28.956     2866.458     5515.712      838.474        0.694        0.461       64.718       23.201        0.129      334.126        3.894      853.637
01/29/2021  13:09:00      -16.416       26.940       10.391       50.422       67.098       34.292     2542.349     4502.154     1175.911        0.466        0.411       31.548       24.797        0.618      334.077        3.813      853.651
01/29/2021  13:10:00       28.076      -40.337       -9.416       66.932       97.630       41.009     4479.843     9531.655     1681.697        0.910        0.785       49.146       35.442        0.520      334.108        3.863      853.657
01/29/2021  13:11:00       72.917        8.036      -19.247       64.352       58.710       44.534     4141.188     3446.852     1983.244        0.766        0.479       73.358       34.836        0.226      333.965        3.626      853.657
01/29/2021  13:12:00      119.748      -85.055      -36.687       66.076       59.779       33.742     4366.089     3573.511     1138.522        1.600        0.454      146.881       32.129        0.048      333.835        3.410      853.650
01/29/2021  13:13:00      134.215      -67.040      -40.979       67.362       65.094       33.080     4537.659     4237.179     1094.289        1.703        0.493      150.027       36.613        0.060      333.873        3.473      853.639
01/29/2021  13:14:00       69.982      -33.469      -10.268       67.903       51.246       39.930     4610.773     2626.198     1594.441        0.748        0.442       77.574       36.721        0.224      334.019        3.715      853.638
01/29/2021  13:15:00       65.395      -20.248      -13.802       59.360       48.325       36.411     3523.641     2335.336     1325.751        0.603        0.359       68.458       35.548        0.270      334.138        3.913      853.646
01/29/2021  13:16:00       48.152      -27.491        2.381       69.126       70.345       48.014     4778.440     4948.478     2305.339        0.755        0.602       55.447       44.134        0.634      334.161        3.951      853.635
01/29/2021  13:17:00      136.661      -83.828      -33.473       63.497       71.197       49.853     4031.867     5068.985     2485.303        1.920        0.579      160.322       46.934        0.086      334.029        3.731      853.635
01/29/2021  13:18:00      114.471      -70.828      -25.769       78.662       68.894       39.966     6187.737     4746.439     1597.249        1.566        0.627      134.611       45.346        0.113      333.992        3.670      853.639
01/29/2021  13:19:00       48.980      -63.633      -12.300       37.102       62.905       35.662     1376.569     3957.030     1271.769        0.660        0.330       80.301       30.960        0.149      333.828        3.398      853.644
01/29/2021  13:20:00       87.347      -24.258      -25.806       58.519       62.967       42.899     3424.477     3964.904     1840.289        0.905        0.461       90.653       38.687        0.182      333.918        3.550      853.645
01/29/2021  13:21:00       74.220      -12.958      -10.280       50.517      103.997       41.717     2551.947    10815.377     1740.267        1.044        0.755       75.343       48.940        0.422      333.764        3.292      853.665
01/29/2021  13:22:00       12.599       26.892      -12.213       62.073       51.183       32.663     3853.025     2619.676     1066.876        0.428        0.377       29.697       32.555        1.202      334.092        3.837      853.690
01/29/2021  13:23:00       46.142       31.574       -7.221       44.377       48.868       31.200     1969.333     2388.126      973.448        0.425        0.267       55.911       25.134        0.202      334.004        3.691      853.709
01/29/2021  13:24:00      139.600       29.385      -29.637       66.271       51.804       29.784     4391.863     2683.679      887.060        1.459        0.398      142.659       19.168        0.018      333.857        3.447      853.725
01/29/2021  13:25:00      123.908       64.427      -15.405       43.180       38.360       22.445     1864.534     1471.519      503.787        1.179        0.192      139.657       20.808        0.022      333.713        3.208      853.731
01/29/2021  13:26:00      100.131       35.043      -16.995       70.648       58.582       35.680     4991.207     3431.898     1273.098        1.062        0.485      106.086       41.254        0.151      333.841        3.420      853.727
01/29/2021  13:27:00      134.144      107.311      -29.224       50.028       44.594       29.471     2502.819     1988.599      868.556        1.786        0.268      171.786       23.900        0.019      333.710        3.202      853.736
01/29/2021  13:28:00       38.418        9.945      -18.057       62.347       70.367       28.978     3887.187     4951.544      839.726        0.579        0.484       39.684       27.567        0.483      333.766        3.297      853.738
01/29/2021  13:29:00       47.049       33.792       -9.184       55.414       49.187       27.709     3070.708     2419.336      767.782        0.485        0.313       57.927       22.646        0.153      333.796        3.346      853.767
01/29/2021  13:30:00       60.944       55.281      -10.132       42.402       25.990       19.795     1797.898      675.459      391.854        0.487        0.143       82.281       21.577        0.069      333.709        3.202      853.781
01/29/2021  13:31:00       36.989       36.536      -12.939       40.104       38.376       24.595     1608.301     1472.708      604.934        0.328        0.184       51.991       21.924        0.178      333.901        3.521      853.794
01/29/2021  13:32:00       38.284        5.713      -17.847       46.254       35.257       27.222     2139.403     1243.073      741.042        0.297        0.206       38.708       23.248        0.361      334.025        3.727      853.805
01/29/2021  13:33:00      101.546       97.915      -13.713       39.608       29.815       25.221     1568.792      888.939      636.086        1.159        0.155      141.064       22.146        0.025      333.847        3.430      853.816
01/29/2021  13:34:00       46.079       12.008       -8.188       55.643       39.623       30.143     3096.096     1570.016      908.595        0.395        0.279       47.618       28.300        0.353      333.918        3.548      853.822
01/29/2021  13:35:00       10.751       54.084      -14.230       40.202       29.157       24.963     1616.211      850.152      623.156        0.317        0.154       55.143       24.719        0.201      333.831        3.405      853.833
01/29/2021  13:36:00      -45.737       42.437       -8.192       45.647       22.717       23.314     2083.659      516.044      543.525        0.355        0.157       62.392       17.479        0.078      333.746        3.263      853.848
01/29/2021  13:37:00       28.999       66.391       -2.212       76.752       34.000       28.713     5890.866     1155.982      824.427        0.656        0.394       72.448       37.565        0.269      333.798        3.349      853.865
01/29/2021  13:38:00       75.417       73.121       -9.894       42.075       24.500       26.350     1770.294      600.250      694.339        0.710        0.153      105.045       25.443        0.059      333.677        3.148      853.890
01/29/2021  13:39:00       92.657       88.647      -17.859       52.001       28.306       32.871     2704.141      801.209     1080.521        1.067        0.229      128.232       28.373        0.049      333.630        3.069      853.921
01/29/2021  13:40:00       17.082       68.143        2.513       43.840       49.019       33.149     1921.934     2402.866     1098.883        0.518        0.271       70.252       32.824        0.218      333.800        3.351      853.942
01/29/2021  13:41:00       58.644       96.916      -11.138       60.833       40.919       28.661     3700.674     1674.331      821.427        0.957        0.310      113.277       23.138        0.042      333.750        3.270      853.964
01/29/2021  13:42:00        4.481      186.093      -18.326       55.647       89.158       25.263     3096.625     7949.182      638.226        2.333        0.584      186.147       27.028        0.021      333.559        2.950      853.983
01/29/2021  13:43:00      -31.588      164.717      -19.044       63.080       40.842       24.957     3979.069     1668.073      622.845        1.738        0.313      167.719       20.171        0.014      333.517        2.883      853.989
01/29/2021  13:44:00        2.528      138.986      -19.725       50.844       33.699       23.815     2585.124     1135.591      567.149        1.200        0.214      139.009       21.864        0.025      333.770        3.302      853.986
01/29/2021  13:45:00      -29.488       74.502       -7.109       52.635       42.404       25.653     2770.403     1798.134      658.094        0.585        0.261       80.125       26.022        0.105      333.823        3.392      853.987
01/29/2021  13:46:00      -56.268      136.448      -10.937       69.449       56.999       33.103     4823.166     3248.869     1095.791        1.553        0.458      147.595       16.890        0.013      333.775        3.310      853.997
01/29/2021  13:47:00      -77.711       66.308       -9.976       90.126       59.622       34.411     8122.769     3554.769     1184.091        1.170        0.643      102.156       24.439        0.057      333.721        3.221      853.998
01/29/2021  13:48:00      -32.849       57.778      -15.503       83.498       41.432       40.699     6971.888     1716.582     1656.427        0.750        0.517       66.464       18.819        0.080      333.927        3.563      853.990
01/29/2021  13:49:00      -40.662      159.771      -11.358       50.686       34.725       27.865     2569.035     1205.819      776.486        1.593        0.228      164.864       15.238        0.009      333.669        3.136      853.989
01/29/2021  13:50:00       41.307      157.791       -8.198       46.183      105.588       30.665     2132.843    11148.818      940.331        2.044        0.711      163.108       37.251        0.052      333.775        3.312      853.999
01/29/2021  13:51:00       21.037      233.038      -19.091       47.848       67.145       30.665     2289.435     4508.474      940.317        3.142        0.387      233.985       27.775        0.014      333.510        2.869      854.022
01/29/2021  13:52:00       31.258      221.911      -23.457       73.011       81.643       37.558     5330.557     6665.545     1410.629        3.209        0.670      224.102       25.208        0.013      333.597        3.015      854.032
01/29/2021  13:53:00      -39.812      227.008      -16.719       70.988       49.950       29.186     5039.278     2494.966      851.810        3.089        0.419      230.472       24.447        0.011      333.553        2.939      854.042
01/29/2021  13:54:00       -4.200      147.840      -20.248       47.083       57.700       31.419     2216.825     3329.293      987.133        1.441        0.327      147.900       19.103        0.017      333.638        3.084      854.044
01/29/2021  13:55:00       40.342      142.252      -10.827       47.414       79.446       30.364     2248.125     6311.661      921.994        1.573        0.474      147.862       38.406        0.067      333.780        3.317      854.040
01/29/2021  13:56:00      -31.096      111.493      -10.539       63.873       57.219       28.903     4079.698     3274.001      835.357        1.085        0.409      115.748       24.625        0.045      333.915        3.543      854.042
01/29/2021  13:57:00      -48.364       57.558      -11.793       60.816       31.047       32.319     3698.616      963.897     1044.494        0.575        0.285       75.180       25.383        0.114      333.974        3.642      854.040
01/29/2021  13:58:00      -76.222       53.806       -5.221       90.219       55.576       39.915     8139.434     3088.738     1593.235        1.077        0.641       93.300       32.379        0.120      333.841        3.420      854.039
01/29/2021  13:59:00      -79.433      180.498      -16.630       71.474       68.401       38.729     5108.553     4678.657     1499.942        2.522        0.564      197.203       25.509        0.017      333.618        3.047      854.049
01/29/2021  14:00:00      -78.003      189.341      -21.641       53.296       63.381       31.812     2840.478     4017.152     1012.030        2.513        0.393      204.779       12.980        0.004      333.553        2.941      854.056
01/29/2021  14:01:00      -51.581      181.730      -21.364       52.475       56.145       36.468     2753.631     3152.278     1329.912        2.169        0.362      188.908       32.972        0.030      333.649        3.099      854.053
01/29/2021  14:02:00      -13.324      125.260       -7.787       45.726       40.425       29.820     2090.889     1634.197      889.224        1.027        0.231      125.966       20.834        0.027      333.746        3.262      854.065
01/29/2021  14:03:00      -28.729       90.341      -10.204       52.008       60.904       32.555     2704.854     3709.254     1059.804        0.828        0.374       94.799       13.989        0.022      333.939        3.585      854.059
01/29/2021  14:04:00       82.065      253.128      -21.244       35.812       78.712       21.972     1282.479     6195.634      482.763        3.961        0.398      266.099       25.470        0.009      333.535        2.910      854.075
01/29/2021  14:05:00       57.419      237.446      -15.200       63.357       70.154       35.732     4014.150     4921.628     1276.784        3.506        0.511      244.290       36.463        0.022      333.658        3.112      854.102
01/29/2021  14:06:00      -96.968      175.323      -21.871       58.057       53.604       38.304     3370.659     2873.407     1467.172        2.416        0.386      200.352       27.722        0.019      333.796        3.344      854.126
01/29/2021  14:07:00      -54.210       83.866      -23.180       68.324       87.260       34.143     4668.203     7614.351     1165.737        1.198        0.672       99.861       34.426        0.119      333.985        3.659      854.145
01/29/2021  14:08:00      -23.875      101.082      -19.614       51.389       48.158       38.641     2640.860     2319.161     1493.145        0.881        0.323      103.863       26.043        0.063      333.886        3.496      854.145
01/29/2021  14:09:00      -54.459      156.680      -15.601       70.787       55.417       39.530     5010.803     3071.024     1562.592        1.870        0.482      165.875       21.340        0.017      333.633        3.074      854.125
01/29/2021  14:10:00      -71.723      212.215      -16.011       78.904      102.662       36.150     6225.865    10539.527     1306.787        3.425        0.904      224.007       34.275        0.023      333.587        2.999      854.096
01/29/2021  14:11:00      -88.918      151.249      -11.287       53.824       75.204       33.552     2897.027     5655.695     1125.754        2.029        0.484      175.450       17.054        0.009      333.700        3.185      854.079
01/29/2021  14:12:00      -53.439      198.065      -19.644       82.748       75.748       31.424     6847.312     5737.727      987.487        2.802        0.679      205.147       23.542        0.013      333.573        2.974      854.089
01/29/2021  14:13:00      -26.896      176.737       -4.120       64.811       72.336       33.204     4200.472     5232.516     1102.530        2.125        0.527      178.772       17.622        0.010      333.612        3.040      854.106
01/29/2021  14:14:00      -27.967      121.754      -10.839       44.135       81.399       33.836     1947.869     6625.827     1144.865        1.272        0.486      124.925       29.702        0.057      333.685        3.161      854.104
01/29/2021  14:15:00      -32.264      193.107       -2.040       76.868       50.464       34.766     5908.643     2546.639     1208.678        2.400        0.483      195.784       37.144        0.036      333.600        3.018      854.086
01/29/2021  14:16:00       61.447      235.165      -13.697       47.697       89.217       41.193     2275.051     7959.715     1696.882        3.560        0.597      243.061       44.678        0.034      333.581        2.987      854.084
01/29/2021  14:17:00      -33.501      196.422      -16.714       58.460       65.737       40.065     3417.627     4321.323     1605.238        2.466        0.467      199.258       30.111        0.023      333.693        3.172      854.127
01/29/2021  14:18:00       -2.254      189.992       -7.322       61.900       78.284       33.721     3831.593     6128.363     1137.109        2.362        0.555      190.006       25.719        0.018      333.716        3.211      854.158
01/29/2021  14:19:00       16.452      146.183       -3.650       47.190       35.982       29.379     2226.875     1294.721      863.144        1.302        0.219      147.106       15.575        0.011      333.804        3.358      854.196
01/29/2021  14:20:00      -34.783      145.492      -15.075       60.479       60.238       32.268     3657.756     3628.621     1041.200        1.546        0.416      149.592       12.107        0.007      333.893        3.505      854.219
01/29/2021  14:21:00     -114.486      109.221      -16.193       56.438       60.655       30.271     3185.299     3678.992      916.308        1.654        0.389      158.228       19.892        0.016      333.712        3.207      854.241
01/29/2021  14:22:00      -51.274      104.497      -10.535       64.682       83.313       35.070     4183.785     6940.976     1229.893        1.300        0.618      116.399       27.019        0.054      333.844        3.424      854.249
01/29/2021  14:23:00      -29.482      157.593      -15.474       53.660       69.294       28.070     2879.388     4801.644      787.907        1.720        0.423      160.327       19.631        0.015      333.697        3.181      854.260
01/29/2021  14:24:00      -75.184      189.854      -14.061       55.750       69.265       26.148     3108.096     4797.670      683.709        2.524        0.429      204.198       18.335        0.008      333.773        3.305      854.268
01/29/2021  14:25:00       14.164      162.513       -9.085       60.799       71.021       35.146     3696.534     5044.006     1235.274        1.833        0.499      163.129       29.391        0.032      333.807        3.363      854.282
01/29/2021  14:26:00      -65.411      183.411      -18.087       56.609       45.649       29.453     3204.627     2083.804      867.480        2.220        0.308      194.726       16.118        0.007      333.850        3.434      854.312
01/29/2021  14:27:00      -70.159      156.061      -19.781       91.517       74.406       39.026     8375.381     5536.265     1523.037        2.255        0.772      171.106       25.066        0.021      333.820        3.382      854.332
01/29/2021  14:28:00      -49.103      124.571       -5.008       71.854       55.122       31.017     5163.020     3038.464      962.083        1.356        0.458      133.900       29.417        0.048      334.000        3.682      854.340
01/29/2021  14:29:00       23.682      168.642       -7.409       63.285       65.256       36.798     4004.996     4258.397     1354.061        1.933        0.481      170.297       30.940        0.033      333.955        3.607      854.331
01/29/2021  14:30:00      -11.976      183.417      -12.972       65.797       92.562       39.968     4329.224     8567.690     1597.430        2.422        0.725      183.807       37.712        0.042      333.954        3.606      854.328
01/29/2021  14:31:00       -6.477      166.727       -9.909       72.473       90.939       29.783     5252.407     8269.839      887.035        2.117        0.720      166.852       23.267        0.019      333.820        3.382      854.328
01/29/2021  14:32:00      -25.508      220.368       -8.649       82.578      100.028       47.194     6819.088    10005.555     2227.273        3.417        0.953      221.840       40.812        0.034      333.846        3.425      854.328
01/29/2021  14:33:00      -27.318      243.895      -26.362       72.001      106.092       51.707     5184.134    11255.472     2673.629        4.002        0.956      245.420       22.327        0.008      333.802        3.354      854.336
01/29/2021  14:34:00      -31.674      283.748      -15.539       75.563       92.948       43.538     5709.813     8639.414     1895.544        4.900        0.812      285.511       30.474        0.011      333.692        3.170      854.340
01/29/2021  14:35:00      -31.683      220.881      -20.005      107.120       76.775       47.328    11474.686     5894.391     2239.910        3.490        0.980      223.142       41.789        0.035      333.747        3.262      854.349
01/29/2021  14:36:00      -43.615      125.637       -7.598       70.090       94.894       47.789     4912.650     9004.796     2283.808        1.697        0.810      132.993       27.782        0.044      333.892        3.504      854.358
01/29/2021  14:37:00     -101.141      133.905      -22.967       96.628       86.300       39.646     9336.874     7447.736     1571.786        2.352        0.918      167.809       26.211        0.024      333.780        3.317      854.384
01/29/2021  14:38:00      -52.771      135.861      -14.903       54.404       69.397       31.239     2959.793     4815.899      975.903        1.511        0.438      145.749       23.006        0.025      333.898        3.516      854.386
01/29/2021  14:39:00      -69.546      107.016      -14.872       73.184       76.993       35.416     5355.880     5927.931     1254.267        1.452        0.627      127.629       19.994        0.025      333.849        3.433      854.389
01/29/2021  14:40:00      -56.799      141.615      -16.952       60.352       74.005       35.265     3642.322     5476.743     1243.650        1.696        0.518      152.581       25.419        0.028      333.812        3.371      854.399
01/29/2021  14:41:00      -72.519      272.432      -15.536       74.057       92.257       44.518     5484.394     8511.378     1981.865        4.785        0.799      281.919       45.532        0.026      333.563        2.956      854.412
01/29/2021  14:42:00     -154.389      220.523      -19.719       92.388       76.775       44.025     8535.496     5894.429     1938.220        4.461        0.818      269.196       32.396        0.014      333.512        2.870      854.427
01/29/2021  14:43:00      -60.879      187.433       -2.280       60.874       89.367       42.254     3705.672     7986.390     1785.377        2.616        0.674      197.072       40.491        0.042      333.668        3.133      854.434
01/29/2021  14:44:00      -91.187       86.781       -5.301       79.906       64.390       33.211     6384.932     4146.062     1102.946        1.375        0.582      125.881       30.186        0.058      333.760        3.285      854.436
01/29/2021  14:45:00      -47.581      235.150      -15.796       75.224       84.902       38.420     5658.662     7208.372     1476.062        3.607        0.717      239.915       34.353        0.021      333.641        3.086      854.431
01/29/2021  14:46:00       48.575      308.316      -12.096       76.144       88.905       42.911     5797.889     7904.152     1841.314        5.655        0.777      312.119       41.142        0.017      333.535        2.909      854.425
01/29/2021  14:47:00      -23.772      249.299      -11.056       66.727       89.103       39.639     4452.548     7939.301     1571.219        3.840        0.698      250.430       37.841        0.023      333.569        2.965      854.426
01/29/2021  14:48:00      -35.231      224.818      -11.401       90.076       75.841       40.303     8113.690     5751.798     1624.322        3.370        0.774      227.562       39.254        0.030      333.567        2.964      854.431
01/29/2021  14:49:00      -29.928      178.537       -6.458       54.326       79.524       36.139     2951.284     6324.098     1306.057        2.169        0.529      181.028       36.905        0.042      333.735        3.244      854.421
01/29/2021  14:50:00       17.153      169.774       -3.491       58.157       90.289       34.959     3382.223     8152.135     1222.113        2.094        0.638      170.638       40.435        0.056      333.816        3.377      854.417
01/29/2021  14:51:00     -103.411      206.461      -13.869       75.079       74.859       39.177     5636.836     5603.941     1534.816        3.314        0.639      230.911       32.082        0.019      333.763        3.288      854.417
01/29/2021  14:52:00      -53.328      211.255      -12.030       60.958       84.936       37.143     3715.853     7214.120     1379.573        2.996        0.615      217.882       31.023        0.020      333.685        3.160      854.443
01/29/2021  14:53:00      -80.796      199.741      -17.889       72.194       65.679       29.232     5212.040     4313.789      854.538        2.856        0.519      215.463       24.584        0.013      333.751        3.268      854.468
01/29/2021  14:54:00      -47.762      127.193       -8.499       63.821       49.883       33.050     4073.084     2488.342     1092.294        1.309        0.383      135.865       23.236        0.029      333.835        3.410      854.499
01/29/2021  14:55:00      -85.854      139.572      -15.307       55.350       59.459       33.399     3063.626     3535.330     1115.494        1.740        0.386      163.864       12.835        0.006      333.772        3.304      854.513
01/29/2021  14:56:00      -14.661      114.158       -6.774       46.903       66.222       24.908     2199.935     4385.386      620.384        1.025        0.360      115.096       24.158        0.044      333.936        3.578      854.522
01/29/2021  14:57:00      -31.870      133.324       -0.490       49.271       56.635       35.237     2427.656     3207.480     1241.636        1.283        0.344      137.080       29.243        0.046      333.875        3.477      854.536
01/29/2021  14:58:00       -0.455      183.221       -7.654       44.001       38.991       31.155     1936.089     1520.295      970.613        1.903        0.221      183.222       19.531        0.011      333.701        3.188      854.554
01/29/2021  14:59:00       21.026      100.491       -4.425       38.291       41.131       31.261     1466.173     1691.777      977.224        0.735        0.207      102.667       23.291        0.051      333.824        3.392      854.583
01/29/2021  15:00:00       82.779      105.447      -15.656       38.642       51.784       24.766     1493.202     2681.588      613.343        1.150        0.239      134.058       18.451        0.019      333.800        3.352      854.567
01/29/2021  15:01:00      117.431      105.765       -6.643       51.022       44.102       25.654     2603.208     1944.993      658.118        1.511        0.260      158.038       20.506        0.017      333.778        3.315      854.551
01/29/2021  15:02:00       72.613      104.232      -11.104       73.008       79.840       34.541     5330.199     6374.456     1193.114        1.458        0.645      127.031       33.709        0.070      333.823        3.390      854.532
01/29/2021  15:03:00       57.213       83.854        0.626       62.927       54.741       32.250     3959.859     2996.530     1040.067        0.915        0.400      101.513       30.728        0.092      333.749        3.268      854.539
01/29/2021  15:04:00       44.207      150.883       -7.264       40.093       85.292       30.739     1607.440     7274.744      944.916        1.730        0.491      157.226       31.668        0.041      333.728        3.231      854.552
01/29/2021  15:05:00       49.168      102.542        3.322       47.255       52.894       31.496     2233.037     2797.802      991.981        0.948        0.301      113.720       24.714        0.047      333.647        3.098      854.573
01/29/2021  15:06:00        2.796      120.521      -11.444       30.800       39.020       23.206      948.625     1522.557      538.504        0.884        0.150      120.553        5.376        0.002      333.711        3.205      854.590
01/29/2021  15:07:00      -11.278      149.438      -16.716       48.769       46.170       29.723     2378.407     2131.643      883.430        1.406        0.270      149.863       23.434        0.024      333.723        3.225      854.596
01/29/2021  15:08:00       62.520      166.464      -14.100       47.686       43.777       28.475     2273.934     1916.394      810.813        1.841        0.250      177.818       21.776        0.015      333.653        3.108      854.598
01/29/2021  15:09:00       85.803      129.037      -10.030       58.980       59.220       35.147     3478.632     3507.046     1235.284        1.617        0.411      154.961       30.154        0.038      333.675        3.144      854.597
01/29/2021  15:10:00       89.143      123.441      -11.113       55.290       55.321       32.717     3056.997     3060.392     1070.393        1.525        0.359      152.263       29.020        0.036      333.686        3.163      854.593
01/29/2021  15:11:00       78.858      124.907      -14.065       50.268       49.744       31.237     2526.899     2474.485      975.747        1.400        0.299      147.718       24.877        0.028      333.648        3.100      854.610
01/29/2021  15:12:00      116.291       44.631      -15.346       52.358       60.037       27.346     2741.348     3604.476      747.800        1.142        0.355      124.561       17.726        0.020      333.659        3.119      854.624
01/29/2021  15:13:00       89.304       91.143      -11.352       51.541       33.983       25.678     2656.425     1154.815      659.360        1.044        0.224      127.602       23.705        0.035      333.498        2.851      854.645
01/29/2021  15:14:00       40.453       83.337       -6.658       38.783       53.306       22.106     1504.124     2841.544      488.671        0.673        0.242       92.636       17.169        0.034      333.652        3.107      854.666
01/29/2021  15:15:00       -5.847       82.979        1.213       37.110       40.617       24.176     1377.150     1649.732      584.484        0.527        0.181       83.185       15.693        0.036      333.830        3.402      854.692
01/29/2021  15:16:00      -15.995      100.897       -2.178       30.196       40.069       19.845      911.780     1605.555      393.843        0.668        0.146      102.157       20.297        0.039      333.918        3.549      854.722
01/29/2021  15:17:00       33.142       95.480      -11.397       70.827       35.293       24.761     5016.519     1245.613      613.099        0.861        0.344      101.069       22.945        0.052      333.826        3.396      854.733
01/29/2021  15:18:00       96.339       69.971      -14.519       63.761       43.551       32.666     4065.444     1896.717     1067.086        1.071        0.351      119.068       34.411        0.084      333.796        3.344      854.731
01/29/2021  15:19:00       76.047       53.622      -10.377       46.779       33.908       26.814     2188.291     1149.762      718.980        0.641        0.203       93.051       20.039        0.046      333.854        3.442      854.719
01/29/2021  15:20:00        7.853      113.992       -6.823       36.932       44.972       25.753     1363.966     2022.521      663.223        0.858        0.202      114.262       24.168        0.045      333.937        3.580      854.727
01/29/2021  15:21:00       50.245       50.470       -5.993       44.599       37.329       21.242     1989.092     1393.432      451.243        0.447        0.192       71.216       10.940        0.024      333.935        3.578      854.739
01/29/2021  15:22:00       50.514       32.506        0.230       53.161       28.301       21.369     2826.118      800.975      456.651        0.385        0.204       60.069       14.566        0.059      333.888        3.499      854.760
01/29/2021  15:23:00       11.997       56.014       -9.786       29.234       36.843       20.251      854.633     1357.433      410.108        0.300        0.131       57.284       13.371        0.054      334.019        3.716      854.775
01/29/2021  15:24:00       11.101      126.790       -9.520       31.521       34.106       23.278      993.581     1163.233      541.886        0.949        0.135      127.275       17.629        0.019      333.833        3.407      854.789
01/29/2021  15:25:00       13.623       47.388       -1.867       38.121       30.512       20.239     1453.211      931.012      409.635        0.261        0.140       49.307       13.880        0.079      333.947        3.597      854.785
01/29/2021  15:26:00       27.941       75.776        1.599       36.989       37.208       23.291     1368.199     1384.440      542.477        0.491        0.165       80.764       13.646        0.029      333.887        3.497      854.790
01/29/2021  15:27:00       77.136      105.230       -9.787       42.147       39.759       31.363     1776.381     1580.758      983.639        1.073        0.217      130.474       24.204        0.034      333.712        3.208      854.798
01/29/2021  15:28:00       74.198       94.087      -14.960       31.834       41.481       27.513     1013.387     1720.705      756.952        0.904        0.175      119.824       17.631        0.022      333.754        3.276      854.803
01/29/2021  15:29:00       73.213       51.313       -7.802       35.433       23.407       18.726     1255.467      547.880      350.678        0.510        0.108       89.404        9.669        0.012      333.718        3.218      854.840
01/29/2021  15:30:00       35.717       66.947      -10.786       57.366       41.684       27.643     3290.828     1737.545      764.118        0.583        0.290       75.879       31.285        0.170      333.745        3.262      854.869
01/29/2021  15:31:00       95.617       38.703        2.360       84.204       70.320       36.334     7090.333     4944.853     1320.167        1.200        0.668      103.153       32.719        0.101      333.766        3.296      854.880
01/29/2021  15:32:00        1.693       57.476        0.931       44.782       55.963       35.929     2005.391     3131.842     1290.891        0.487        0.321       57.500       29.986        0.272      334.310        4.197      854.911
01/29/2021  15:33:00        8.167      143.421       -9.058       62.310       81.966       26.962     3882.526     6718.444      726.947        1.602        0.566      143.653       27.956        0.038      333.771        3.303      854.920
01/29/2021  15:34:00       43.934      125.889       -7.264       56.764       45.165       25.622     3222.112     2039.869      656.488        1.187        0.296      133.335       18.235        0.019      333.785        3.327      854.938
01/29/2021  15:35:00       57.773      103.583       -0.463       90.387       63.506       27.982     8169.801     4032.967      783.004        1.352        0.649      118.605       24.315        0.042      333.716        3.212      854.966
01/29/2021  15:36:00       87.554      110.822       -7.380       52.403      115.776       31.608     2746.095    13404.008      999.056        1.857        0.857      141.235       41.713        0.087      333.716        3.213      854.979
01/29/2021  15:37:00       32.628      167.559      -12.569       64.146       53.545       36.301     4114.714     2867.105     1317.742        1.880        0.415      170.707       29.102        0.029      333.695        3.177      854.991
01/29/2021  15:38:00       60.892      132.982      -13.192       60.694       52.977       31.889     3683.736     2806.521     1016.902        1.453        0.375      146.260       30.983        0.045      333.762        3.289      854.984
01/29/2021  15:39:00       94.250       95.858       -6.905       67.421       57.190       34.795     4545.634     3270.663     1210.664        1.357        0.451      134.432       26.083        0.038      333.697        3.180      854.995
01/29/2021  15:40:00       10.478      140.205      -18.155       61.492       65.746       29.378     3781.278     4322.540      863.062        1.453        0.448      140.596       33.352        0.056      333.817        3.379      855.026
01/29/2021  15:41:00       31.478      120.752       -7.768       66.447       70.470       32.996     4415.250     4966.015     1088.752        1.305        0.524      124.787       28.517        0.052      333.844        3.426      855.063
01/29/2021  15:42:00       92.712      216.864      -14.155       52.910       92.634       42.203     2799.444     8580.992     1781.106        3.449        0.658      235.850       45.042        0.036      333.673        3.140      855.093
01/29/2021  15:43:00       48.917      180.162      -16.067       38.942       69.104       34.633     1516.468     4775.412     1199.461        2.130        0.375      186.684       33.559        0.032      333.620        3.052      855.104
01/29/2021  15:44:00       89.223      171.832      -18.967       51.742       51.569       30.523     2677.251     2659.351      931.636        2.206        0.313      193.615       18.426        0.009      333.690        3.168      855.099
01/29/2021  15:45:00       35.938       89.282       -8.569       42.115       55.092       26.255     1773.652     3035.141      689.326        0.742        0.275       96.243       23.237        0.058      333.749        3.266      855.093
01/29/2021  15:46:00       90.577      112.270      -15.929       49.916       50.293       30.937     2491.622     2529.339      957.128        1.352        0.299      144.252       18.857        0.017      333.751        3.270      855.087
01/29/2021  15:47:00      127.957      110.233      -11.622       72.859       51.533       44.769     5308.366     2655.676     2004.284        1.931        0.498      168.892       40.208        0.057      333.641        3.087      855.074
01/29/2021  15:48:00       62.879       79.435       -3.635       67.057       54.232       30.534     4496.665     2941.120      932.296        0.932        0.419      101.310       21.728        0.046      333.777        3.313      855.062
01/29/2021  15:49:00       79.941      101.445        5.910       69.623       67.570       44.723     4847.425     4565.719     2000.129        1.406        0.571      129.158       43.410        0.113      333.838        3.415      855.079
01/29/2021  15:50:00      165.660      134.735      -13.728       92.440       61.987       45.467     8545.083     3842.364     2067.250        3.012        0.723      213.534       35.439        0.028      333.661        3.119      855.094
01/29/2021  15:51:00       67.287      130.522       -7.916       78.955       76.707       41.142     6233.896     5884.002     1692.677        1.772        0.691      146.845       34.977        0.057      333.802        3.353      855.122
01/29/2021  15:52:00       62.274      130.593      -13.341       56.917       61.508       33.846     3239.538     3783.233     1145.576        1.464        0.408      144.681       32.953        0.052      333.751        3.271      855.154
01/29/2021  15:53:00       89.517      147.844      -12.117       48.391       56.628       36.296     2341.659     3206.763     1317.371        1.844        0.343      172.833       31.509        0.033      333.775        3.311      855.161
01/29/2021  15:54:00       91.021       86.019       -9.080       57.631       60.766       34.718     3321.357     3692.507     1205.333        1.199        0.411      125.236       21.115        0.028      333.868        3.463      855.151
01/29/2021  15:55:00      157.699      120.148      -17.902       64.236       46.547       30.722     4126.204     2166.607      943.828        2.343        0.362      198.253       22.942        0.013      333.649        3.101      855.141
01/29/2021  15:56:00      158.260       83.031      -11.867       50.441       45.960       32.912     2544.275     2112.295     1083.174        1.891        0.287      178.719       20.989        0.014      333.688        3.165      855.129
01/29/2021  15:57:00      119.551       71.456      -14.626       57.420       46.085       27.546     3297.006     2123.843      758.790        1.289        0.309      139.278       23.461        0.028      333.817        3.380      855.134
01/29/2021  15:58:00      107.163       73.768      -16.326       69.695       56.708       29.711     4857.410     3215.762      882.729        1.307        0.448      130.099       18.138        0.019      333.803        3.357      855.141
01/29/2021  15:59:00      224.192       71.649      -21.621       45.447       45.617       21.730     2065.392     2080.907      472.173        3.024        0.231      235.362       12.400        0.003      333.684        3.157      855.139
01/29/2021  16:00:00      152.557       33.484      -18.841       56.975       57.790       31.116     3246.192     3339.631      968.195        1.615        0.378      156.188       27.240        0.030      333.799        3.350      855.147
01/29/2021  16:01:00      121.413       58.177       -6.702       44.335       34.649       25.129     1965.590     1200.545      631.449        1.098        0.190      134.632       19.878        0.022      333.737        3.247      855.166
01/29/2021  16:02:00       30.579       53.517       -1.777       42.038       26.384       20.566     1767.227      696.109      422.942        0.334        0.144       61.637       19.241        0.097      333.835        3.410      855.213
01/29/2021  16:03:00       35.254       65.459       -7.561       59.775       27.185       20.361     3573.066      739.002      414.568        0.515        0.236       74.349       15.280        0.042      333.894        3.508      855.249
01/29/2021  16:04:00       34.638       92.309       -2.315       41.984       30.526       28.457     1762.657      931.853      809.783        0.661        0.175       98.594       25.180        0.065      334.085        3.824      855.255
01/29/2021  16:05:00       17.189      124.636       -3.526       52.447       45.141       29.149     2750.667     2037.715      849.642        1.074        0.282      125.816       23.459        0.035      333.882        3.489      855.254
01/29/2021  16:06:00       55.008      134.527       -7.492       32.581       33.701       23.135     1061.498     1135.759      535.219        1.196        0.137      145.339       14.658        0.010      333.856        3.444      855.237
01/29/2021  16:07:00       97.950       83.010      -14.693       53.023       46.388       24.058     2811.392     2151.853      578.811        1.112        0.277      128.393       21.987        0.029      333.777        3.314      855.227
01/29/2021  16:08:00      107.243       74.012       -3.803       72.103       40.832       30.835     5198.855     1667.256      950.781        1.240        0.391      130.302       28.792        0.049      333.668        3.134      855.217
01/29/2021  16:09:00       72.499       46.152       12.599       84.322       42.723       31.214     7110.254     1825.289      974.308        0.873        0.495       85.942       30.160        0.123      333.739        3.251      855.231
01/29/2021  16:10:00       66.648       46.438       -2.163       73.128       58.489       33.810     5347.651     3420.921     1143.140        0.826        0.496       81.231       30.343        0.140      333.952        3.605      855.242
01/29/2021  16:11:00       91.408       56.481      -11.977       73.639       81.232       36.554     5422.717     6598.562     1336.210        1.252        0.668      107.450       25.367        0.056      333.872        3.471      855.274
01/29/2021  16:12:00       53.483        0.773      -16.686       46.716       43.945       35.123     2182.381     1931.154     1233.610        0.424        0.267       53.489       30.536        0.326      333.963        3.622      855.327
01/29/2021  16:13:00       35.048       -9.028      -14.379       37.545       39.084       18.694     1409.662     1527.523      349.482        0.240        0.164       36.192       12.562        0.120      333.995        3.676      855.386
01/29/2021  16:14:00       93.670      -20.931      -17.538       59.133       52.773       27.631     3496.653     2784.942      763.445        0.828        0.352       95.980       12.196        0.016      333.872        3.473      855.396
01/29/2021  16:15:00       58.469        3.470       -0.946       58.227       83.164       57.792     3390.357     6916.281     3339.866        0.854        0.682       58.572       43.809        0.559      333.892        3.505      855.369
01/29/2021  16:16:00       57.328      -14.773       -7.582       66.034       69.658       49.866     4360.464     4852.225     2486.603        0.763        0.585       59.201       47.800        0.652      333.953        3.605      855.372
01/29/2021  16:17:00       67.412      -44.825      -16.561       63.918       57.699       45.499     4085.469     3329.169     2070.193        0.815        0.474       80.954       42.727        0.279      333.801        3.354      855.393
01/29/2021  16:18:00       90.603      -27.472      -12.510       43.122       39.106       29.368     1859.465     1529.275      862.480        0.668        0.213       94.677       13.598        0.021      333.891        3.504      855.426
01/29/2021  16:19:00       68.730      -82.789      -14.914       58.280       60.557       37.051     3396.562     3667.103     1372.777        1.012        0.422      107.600       39.214        0.133      334.067        3.796      855.432
01/29/2021  16:20:00       76.695      -63.257      -20.268       69.955       71.805       49.493     4893.724     5155.889     2449.518        1.139        0.625       99.416       28.337        0.081      333.957        3.613      855.402
01/29/2021  16:21:00       66.082      -28.178       -2.258       58.747       58.318       37.506     3451.261     3401.041     1406.717        0.671        0.413       71.839       33.555        0.218      333.830        3.404      855.405
01/29/2021  16:22:00       40.483      -20.393      -11.333       40.776       57.215       25.447     1662.699     3273.610      647.553        0.388        0.279       45.330       20.649        0.208      333.921        3.553      855.459
01/29/2021  16:23:00       15.799      -28.585       -9.135       47.196       47.400       19.351     2227.458     2246.742      374.456        0.300        0.242       32.660       17.763        0.296      333.920        3.552      855.516
01/29/2021  16:24:00       55.978      -12.508       -7.796       71.025       45.920       30.168     5044.577     2108.668      910.103        0.571        0.403       57.359       32.156        0.314      333.837        3.413      855.543
01/29/2021  16:25:00      103.653     -102.029      -19.525       65.849       48.240       28.454     4336.088     2327.084      809.645        1.450        0.374      145.444       27.264        0.035      333.795        3.344      855.530
01/29/2021  16:26:00      102.421      -79.276      -18.994       61.245       91.910       40.623     3750.948     8447.535     1650.233        1.549        0.692      129.518       38.751        0.090      333.853        3.440      855.510
01/29/2021  16:27:00       56.214      -36.080       -6.843       81.061       59.035       43.006     6570.828     3485.087     1849.550        0.820        0.595       66.797       39.166        0.344      333.989        3.665      855.510
01/29/2021  16:28:00       73.829      -20.422      -14.540       58.174       67.975       42.846     3384.271     4620.666     1835.750        0.796        0.492       76.602       39.370        0.264      334.149        3.930      855.508
01/29/2021  16:29:00       82.752      -72.195      -14.119       53.036       50.104       34.351     2812.853     2510.410     1180.022        0.938        0.325      109.818       19.707        0.032      334.025        3.725      855.531
01/29/2021  16:30:00       71.481       -8.701        1.531       48.546       48.504       31.087     2356.709     2352.637      966.396        0.543        0.284       72.009       28.950        0.162      333.956        3.612      855.543
01/29/2021  16:31:00      113.320      -85.326      -28.708       60.679       72.843       37.611     3681.917     5306.121     1414.614        1.567        0.520      141.852       35.601        0.063      333.955        3.608      855.522
01/29/2021  16:32:00       85.866      -39.178      -35.222       55.598       79.809       34.888     3091.127     6369.473     1217.193        1.041        0.534       94.381       32.645        0.120      333.838        3.415      855.508
01/29/2021  16:33:00      123.272      -82.242      -27.100       85.953       71.211       40.301     7387.895     5070.977     1624.152        1.839        0.704      148.188       38.701        0.068      333.791        3.336      855.500
01/29/2021  16:34:00       44.509       -6.806       -0.478       52.885       59.797       41.765     2796.783     3575.676     1744.345        0.507        0.406       45.026       33.471        0.553      333.998        3.681      855.485
01/29/2021  16:35:00       88.107      -37.318      -13.007       74.567       64.317       44.767     5560.294     4136.663     2004.093        1.051        0.585       95.684       46.524        0.236      333.951        3.603      855.484
01/29/2021  16:36:00       63.886      -38.032       -4.880       77.769       67.371       39.370     6048.068     4538.793     1550.013        0.884        0.607       74.349       41.566        0.313      333.778        3.316      855.509
01/29/2021  16:37:00       50.920      -89.306      -21.405       51.375       32.261       22.933     2639.432     1040.783      525.937        0.762        0.210      102.803       18.453        0.032      333.789        3.333      855.535
01/29/2021  16:38:00       -5.874      -45.310       -3.022       81.048       48.608       30.417     6568.826     2362.771      925.195        0.597        0.493       45.689       29.568        0.419      333.771        3.303      855.543
01/29/2021  16:39:00       33.726      -54.230      -14.538       42.187       42.599       21.119     1779.760     1814.664      446.012        0.416        0.202       63.862       21.936        0.118      333.771        3.305      855.549
01/29/2021  16:40:00      126.460      -86.734      -29.033       53.674       33.374       25.943     2880.849     1113.823      673.042        1.451        0.233      153.346       22.325        0.021      333.497        2.849      855.567
01/29/2021  16:41:00      101.611       22.648       -5.997       38.811       52.365       29.443     1506.291     2742.063      866.881        0.799        0.256      104.105       18.412        0.031      333.642        3.090      855.597
01/29/2021  16:42:00       93.596       77.317      -16.606       31.034       22.655       19.484      963.081      513.251      379.636        0.843        0.093      121.401       18.547        0.023      333.514        2.879      855.635
01/29/2021  16:43:00       76.384        6.696      -15.355       53.073       42.111       22.341     2816.714     1773.358      499.107        0.560        0.254       76.677       21.443        0.078      333.587        3.000      855.620
01/29/2021  16:44:00      126.481      -12.893      -22.598       54.563       55.381       35.576     2977.124     3067.016     1265.659        1.199        0.365      127.136       14.806        0.014      333.661        3.122      855.576
01/29/2021  16:45:00      121.066      -96.459      -31.956       53.119       48.512       30.433     2821.649     2353.399      926.182        1.554        0.305      154.795       33.068        0.046      333.577        2.984      855.593
01/29/2021  16:46:00      143.397     -120.831      -42.304       47.566       38.129       25.962     2262.547     1453.850      674.037        2.067        0.220      187.518       23.463        0.016      333.504        2.863      855.612
01/29/2021  16:47:00      118.446      -28.966      -39.760       63.963       79.786       44.514     4091.209     6365.779     1981.530        1.444        0.622      121.936       29.617        0.059      333.666        3.130      855.582
01/29/2021  16:48:00       81.118       -0.637        7.653      115.379       82.934       69.300    13312.372     6878.046     4802.427        1.581        1.250       81.120       66.716        0.676      333.726        3.228      855.538
01/29/2021  16:49:00       98.393       -8.180      -22.504      177.117       63.163       83.620    31370.299     3989.567     6992.263        2.629        2.118       98.732      114.261        1.339      333.879        3.483      855.565
01/29/2021  16:50:00       20.982      -37.648      -11.777       40.754       39.719       21.684     1660.862     1577.626      470.184        0.285        0.185       43.100       16.720        0.150      333.731        3.237      855.609
01/29/2021  16:51:00       67.910      -55.740      -12.710       48.952       44.758       27.401     2396.314     2003.237      750.810        0.651        0.258       87.856       23.138        0.069      333.613        3.043      855.646
01/29/2021  16:52:00       52.285      -27.553      -19.335      135.673       45.333       67.065    18407.214     2055.099     4497.698        1.441        1.248       59.101       92.918        2.472      333.664        3.129      855.673
01/29/2021  16:53:00       -8.382       33.678       -1.247      160.821       28.918       79.752    25863.361      836.239     6360.417        1.713        1.653       34.705      110.148       10.073      333.881        3.488      855.692
01/29/2021  16:54:00      -45.256       27.787       -3.217       40.569       27.718       17.084     1645.811      768.315      291.870        0.277        0.135       53.106       15.491        0.085      333.773        3.307      855.717
01/29/2021  16:55:00      -61.155       18.212       -7.083       22.331       27.774       18.031      498.693      771.412      325.113        0.286        0.080       63.809        7.643        0.014      333.741        3.255      855.722
01/29/2021  16:56:00       20.174       19.054       -6.906      287.823       20.743      139.164    82841.952      430.258    19366.677        5.171        5.132       27.750      198.126       50.974      333.877        3.482      855.730
01/29/2021  16:57:00      -21.557       51.056       -1.532       40.496       26.065       14.065     1639.890      679.410      197.815        0.279        0.126       55.420        4.650        0.007      333.602        3.023      855.724
01/29/2021  16:58:00       46.980       63.783       -9.089      225.434       35.842      104.053    50820.566     1284.675    10827.009        3.463        3.147       79.217      149.089        3.542      333.523        2.895      855.722
01/29/2021  16:59:00        9.160       43.141       -6.805      224.172       18.975      110.356    50252.962      360.039    12178.359        3.238        3.140       44.102      154.361       12.250      333.610        3.039      855.738
01/29/2021  17:00:00       55.334      116.019        7.445       89.638       46.015       37.497     8034.950     2117.336     1406.024        1.407        0.578      128.539       36.275        0.080      333.518        2.885      855.729
01/29/2021  17:01:00      122.906       67.885      -13.660       35.436       40.556       19.489     1255.720     1644.782      379.823        1.159        0.164      140.407        8.615        0.004      333.438        2.752      855.718
01/29/2021  17:02:00      189.906      123.454      -21.116      208.473       36.328      100.053    43460.790     1319.712    10010.569        5.326        2.740      226.507      141.051        0.388      333.478        2.818      855.691
01/29/2021  17:03:00      223.587      111.047      -16.642       45.876       56.344       38.120     2104.619     3174.646     1453.097        3.466        0.337      249.645       21.712        0.008      333.474        2.808      855.687
01/29/2021  17:04:00      235.597       38.441      -30.241      324.420       55.582      152.771   105248.174     3089.322    23338.835        9.476        6.584      238.712      219.392        0.845      333.613        3.044      855.702
01/29/2021  17:05:00       93.110       24.419        3.621       73.502       41.808       35.664     5402.555     1747.896     1271.931        0.885        0.421       96.259       30.253        0.099      333.501        2.857      855.719
01/29/2021  17:06:00      150.091       13.832       -8.894      188.860       44.932       92.171    35668.043     2018.868     8495.531        3.448        2.309      150.727      127.678        0.718      333.496        2.849      855.715
01/29/2021  17:07:00      136.833       29.542       -7.535       27.702       25.535       23.604      767.397      652.044      557.128        1.081        0.099      139.986       14.727        0.011      333.375        2.649      855.709
01/29/2021  17:08:00      118.187       13.167      -34.891      257.703       52.717      127.903    66410.921     2779.075    16359.295        5.044        4.277      118.918      177.910        2.238      333.514        2.881      855.700
01/29/2021  17:09:00       91.886      -40.875      -47.412      358.722       38.707      172.365   128681.246     1498.247    29709.608        8.609        7.994      100.567      247.423        6.053      333.781        3.325      855.718
01/29/2021  17:10:00       87.350     -143.924      -21.958      178.614       59.678       88.229    31902.947     3561.463     7784.403        3.603        2.162      168.357      122.626        0.531      333.534        2.910      855.723
01/29/2021  17:11:00      108.324     -139.440      -34.614      309.668       51.508      150.255    95894.428     2653.095    22576.505        7.672        6.056      176.572      213.350        1.460      333.680        3.156      855.739
01/29/2021  17:12:00       42.659      -93.354      -17.269      166.570       43.238       79.180    27745.563     1869.551     6269.446        2.335        1.794      102.639      110.631        1.162      333.722        3.223      855.758
01/29/2021  17:13:00       -1.130      -74.492      -17.669       68.592       32.793       29.837     4704.815     1075.353      890.221        0.627        0.334       74.501       15.160        0.041      333.676        3.148      855.765
01/29/2021  17:14:00       38.459      -46.537      -27.673      388.790       40.875      188.943   151157.488     1670.761    35699.335        9.643        9.426       60.372      268.562       19.789      333.858        3.454      855.757
01/29/2021  17:15:00       -7.671      -27.896      -11.243      172.660       34.022       85.174    29811.558     1157.513     7254.602        1.959        1.911       28.932      117.124       16.389      333.742        3.257      855.756
01/29/2021  17:16:00       41.982      -18.773       -8.820      273.739       35.459      131.246    74932.775     1257.351    17225.628        4.778        4.671       45.989      187.336       16.594      333.809        3.371      855.778
01/29/2021  17:17:00       32.604      -24.571      -19.653      387.766       35.653      181.909   150362.491     1271.135    33091.007        9.335        9.236       40.826      262.895       41.466      333.899        3.522      855.812
01/29/2021  17:18:00      -57.352      -31.205        3.004      195.020       46.404       90.490    38032.896     2153.311     8188.493        2.631        2.419       65.292      123.363        3.570      333.734        3.244      855.852
01/29/2021  17:19:00      -23.644       -9.659       -1.219      226.272       47.048      107.259    51198.963     2213.507    11504.463        3.277        3.246       25.541      149.194       34.121      333.734        3.244      855.887
01/29/2021  17:20:00      -67.012      -24.516      -21.499      375.393       47.989      179.850   140919.969     2302.924    32346.060        9.052        8.778       71.355      256.188       12.890      333.781        3.326      855.907
01/29/2021  17:21:00      -91.813      -75.713      -27.385      287.704       49.033      142.701    82773.538     2404.272    20363.523        6.020        5.277      119.004      197.862        2.764      333.752        3.276      855.939
01/29/2021  17:22:00     -120.638      -86.756      -28.967      308.146       47.853      149.193    94953.918     2289.920    22258.581        7.119        5.975      148.594      208.276        1.965      333.746        3.265      855.972
01/29/2021  17:23:00      -36.284      -33.226       -6.186      314.370       58.422      146.955    98828.271     3413.128    21595.840        6.312        6.192       49.199      204.644       17.302      333.666        3.132      855.997
01/29/2021  17:24:00       47.241      -45.338      -42.115      363.462       41.038      175.445   132104.843     1684.139    30780.889        8.528        8.228       65.477      250.906       14.684      333.889        3.503      855.980
01/29/2021  17:25:00       48.576      -41.404      -23.570      282.631       51.566      134.745    79880.421     2659.028    18156.125        5.264        5.035       63.827      191.959        9.045      333.717        3.219      855.967
01/29/2021  17:26:00       54.843      -66.137      -30.293      363.050       52.701      171.162   131805.013     2777.369    29296.480        8.605        8.194       85.918      247.177        8.277      333.898        3.520      855.965
01/29/2021  17:27:00       44.410      -65.213      -39.956      304.722       44.606      146.295    92855.219     1989.734    21402.085        6.201        5.812       78.899      208.842        7.006      333.843        3.427      855.998
01/29/2021  17:28:00     -112.427      -38.407       -0.564      108.956       66.369       41.654    11871.400     4404.828     1735.022        1.606        0.901      118.806       30.169        0.064      333.593        3.009      856.050
01/29/2021  17:29:00     -116.946      -21.097      -28.833      401.749       79.289      196.108   161402.201     6286.739    38458.431       11.051       10.307      118.834      271.460        5.218      333.620        3.057      856.082
01/29/2021  17:30:00      -50.632       -1.109      -12.578      316.665       63.894      156.804   100276.894     4082.463    24587.630        6.581        6.447       50.644      210.813       17.328      333.460        2.793      856.071
01/29/2021  17:31:00       36.167       -6.313      -16.133      385.506       33.377      188.021   148615.015     1114.026    35351.845        9.330        9.254       36.714      266.280       52.604      333.465        2.802      856.062
01/29/2021  17:32:00       12.118       -9.843       -2.124      188.739       16.597       90.457    35622.235      275.451     8182.407        2.215        2.204       15.612      129.755       69.076      333.492        2.844      856.037
01/29/2021  17:33:00       -5.229      -42.981      -34.642      266.770       38.849      131.048    71166.421     1509.206    17173.461        4.644        4.492       43.298      184.494       18.157      333.647        3.100      856.041
01/29/2021  17:34:00       26.669      -66.833      -39.085      423.386       62.305      203.082   179255.725     3881.946    41242.496       11.549       11.219       71.957      291.203       16.377      333.801        3.359      856.085
01/29/2021  17:35:00      104.309      -46.179      -66.663      237.331       89.985      123.423    56326.126     8097.222    15233.292        4.854        3.983      114.074      160.449        1.978      333.493        2.844      856.047
01/29/2021  17:36:00      100.311     -137.677      -61.159      448.121       81.087      219.426   200812.111     6575.166    48147.645       14.409       12.777      170.345      309.488        3.301      333.755        3.283      856.057
01/29/2021  17:37:00        2.065      -79.963      -43.468      149.634       52.612       67.162    22390.375     2768.027     4510.776        1.897        1.483       79.990       94.523        1.396      333.569        2.971      856.092
01/29/2021  17:38:00      -30.348      -60.974      -10.628      242.525       72.283      115.417    58818.199     5224.769    13321.155        4.104        3.868       68.109      163.312        5.749      333.728        3.235      856.106
01/29/2021  17:39:00      -14.951      -62.688      -34.263      328.324       35.248      158.665   107796.962     1242.445    25174.450        6.974        6.711       64.446      224.742       12.161      333.778        3.320      856.112
01/29/2021  17:40:00       32.584        2.140      -11.631      316.462       35.671      154.136   100148.054     1272.389    23757.913        6.316        6.259       32.655      217.881       44.520      333.679        3.156      856.132
01/29/2021  17:41:00      -21.041        1.428      -10.218      169.932       37.050       84.146    28877.038     1372.723     7080.593        1.893        1.867       21.090      115.894       30.198      333.582        2.992      856.153
01/29/2021  17:42:00      -68.323      -12.670       -8.916      248.832       45.021      116.603    61917.576     2026.908    13596.166        4.121        3.877       69.488      165.558        5.677      333.589        3.005      856.183
01/29/2021  17:43:00      -49.836       16.004        1.310      286.496       39.106      133.481    82079.859     1529.260    17817.078        5.206        5.071       52.342      189.051       13.045      333.531        2.909      856.194
01/29/2021  17:44:00     -119.662      -16.055      -11.939      299.485       43.968      148.535    89691.046     1933.153    22062.547        6.418        5.684      120.734      204.844        2.879      333.365        2.633      856.208
01/29/2021  17:45:00      -94.177       -9.519       -4.668      208.539       35.741      100.365    43488.453     1277.443    10073.215        3.190        2.742       94.657      136.753        2.087      333.313        2.547      856.216
01/29/2021  17:46:00       15.187      -18.611      -30.123      418.680       37.924      200.701   175292.879     1438.240    40280.893       10.920       10.851       24.021      287.137      142.890      333.577        2.989      856.221
01/29/2021  17:47:00      -57.173        2.104       -8.838      303.417       48.858      148.463    92061.681     2387.147    22041.271        5.990        5.825       57.211      206.885       13.077      333.465        2.802      856.217
01/29/2021  17:48:00      -32.798      -16.438       -2.180      364.283       40.880      169.121   132702.428     1671.174    28601.882        8.213        8.149       36.687      243.251       43.963      333.435        2.753      856.212
01/29/2021  17:49:00      -88.405      -19.888       -2.271       38.672       40.971       24.622     1495.504     1678.583      606.264        0.600        0.189       90.614       23.797        0.069      333.439        2.755      856.218
01/29/2021  17:50:00      -24.180      -15.599      -16.950      312.241       46.033      149.289    97494.520     2119.042    22287.311        6.148        6.095       28.775      208.973       52.742      333.566        2.967      856.239
01/29/2021  17:51:00      -22.154      -31.673      -34.354      407.077       54.403      191.086   165711.299     2959.678    36513.804       10.389       10.259       38.652      274.405       50.402      333.649        3.108      856.257
01/29/2021  17:52:00     -102.124      -40.541       -1.039       55.117       58.686       32.329     3037.832     3444.016     1045.140        0.980        0.376      109.876       26.108        0.056      333.419        2.723      856.286
01/29/2021  17:53:00      -36.965      -71.757      -19.373      384.582       53.892      181.966   147903.308     2904.387    33111.753        9.537        9.196       80.718      258.433       10.251      333.563        2.964      856.302
01/29/2021  17:54:00      -23.573      -38.022      -28.990      330.420       59.446      158.377   109177.223     3533.865    25083.326        7.029        6.890       44.737      224.439       25.169      333.564        2.965      856.303
01/29/2021  17:55:00       33.935        0.574      -17.778      340.496       32.919      166.521   115937.627     1083.638    27729.315        7.308        7.238       33.939      236.630       48.610      333.685        3.164      856.311
01/29/2021  17:56:00       43.600      -32.599      -28.211      355.199       37.126      171.331   126166.672     1378.353    29354.257        8.030        7.845       54.440      242.334       19.815      333.688        3.171      856.331
01/29/2021  17:57:00      -94.136      -12.699       -7.567      280.073       49.510      136.331    78441.066     2451.207    18586.102        5.426        4.974       94.989      181.676        3.658      333.453        2.779      856.341
01/29/2021  17:58:00     -127.506       -3.950       -3.405      201.588       42.785      100.474    40637.607     1830.546    10094.941        3.441        2.628      127.568      131.143        1.057      333.366        2.636      856.340
01/29/2021  17:59:00      -92.193        5.017        0.660      193.118       49.614       93.204    37294.494     2461.533     8687.030        2.847        2.422       92.329      126.850        1.888      333.395        2.684      856.336
01/29/2021  18:00:00       29.533      -34.027      -39.805      463.385       52.625      223.367   214725.798     2769.375    49892.775       13.544       13.369       45.055      319.445       50.268      333.706        3.204      856.332
01/29/2021  18:01:00       31.945       -9.915      -25.480      378.009       41.907      181.757   142891.178     1756.213    33035.508        8.969        8.884       33.449      259.670       60.268      333.570        2.977      856.315
01/29/2021  18:02:00      112.803      -33.880      -50.235      458.983       64.343      224.366   210664.994     4140.067    50339.900       14.071       13.257      117.781      316.788        7.234      333.773        3.315      856.287
01/29/2021  18:03:00       -6.499      -26.879      -20.741       31.255       52.049       26.430      976.896     2709.124      698.545        0.279        0.219       27.653       12.391        0.201      333.468        2.804      856.296
01/29/2021  18:04:00      -18.528      -18.228       -7.321      150.692       42.299       77.245    22708.165     1789.203     5966.811        1.559        1.523       25.991      102.162       15.450      333.546        2.933      856.306
01/29/2021  18:05:00       12.748      -62.413      -22.404      265.100       45.372      124.761    70277.994     2058.612    15565.307        4.621        4.395       63.702      178.045        7.812      333.627        3.068      856.312
01/29/2021  18:06:00       21.230       -8.157      -25.865      366.490       33.139      175.804   134314.728     1098.169    30906.930        8.372        8.316       22.743      251.065      121.868      333.753        3.278      856.328
01/29/2021  18:07:00       26.911       -8.469      -18.113      280.327       30.155      135.437    78583.463      909.301    18343.221        4.946        4.892       28.212      192.783       46.693      333.593        3.011      856.342
01/29/2021  18:08:00       -4.549       -5.851      -18.685      343.165       44.762      161.799   117762.270     2003.621    26178.859        7.314        7.297        7.411      232.170      981.397      333.515        2.884      856.352
01/29/2021  18:09:00       -2.278       -4.269      -11.907      324.707       30.757      157.124   105434.340      946.005    24687.895        6.559        6.553        4.839      221.979     2104.627      333.402        2.697      856.359
01/29/2021  18:10:00       -3.844       -9.320      -10.016      316.805       31.110      152.533   100365.421      967.814    23266.230        6.237        6.230       10.081      216.939      463.083      333.421        2.728      856.367
01/29/2021  18:11:00       -6.401      -12.165        0.223      160.668       42.131       81.481    25814.306     1775.062     6639.083        1.720        1.711       13.746      109.843       63.856      333.419        2.721      856.377
01/29/2021  18:12:00       33.699       -5.167      -29.569      396.119       33.517      188.560   156910.151     1123.416    35554.912        9.777        9.679       34.093      271.459       63.400      333.587        3.006      856.387
01/29/2021  18:13:00      -15.037       -8.776       -1.706      213.905       47.430      108.255    45755.411     2249.582    11719.069        3.000        2.986       17.410      148.254       72.509      333.517        2.885      856.391
01/29/2021  18:14:00        4.970       -9.124       -8.083      289.917       36.601      138.116    84051.878     1339.628    19075.910        5.230        5.223       10.390      197.900      362.784      333.607        3.035      856.398
01/29/2021  18:15:00       -9.556       -5.452       -7.757      267.668       44.095      129.940    71646.258     1944.328    16884.441        4.531        4.524       11.001      183.408      277.937      333.523        2.896      856.402
01/29/2021  18:16:00       -0.767       -2.611      -16.588      296.797       30.315      139.182    88088.338      918.982    19371.574        5.431        5.419        2.721      200.014     5403.634      333.549        2.939      856.418
01/29/2021  18:17:00       68.442        8.844      -35.182      438.755       37.764      208.728   192505.878     1426.108    43567.326       12.170       11.875       69.011      299.218       18.799      333.426        2.740      856.442
01/29/2021  18:18:00      -43.849      102.423      -27.807      404.466       44.224      191.193   163592.869     1955.734    36554.710       10.760       10.105      111.415      275.431        6.111      333.107        2.211      856.464
01/29/2021  18:19:00      -26.883       62.483      -21.814      378.421       54.414      174.358   143202.380     2960.838    30400.607        9.080        8.828       68.020      253.505       13.890      333.173        2.319      856.475
01/29/2021  18:20:00      -33.766        8.868      -39.992      405.262       44.082      194.118   164237.316     1943.200    37681.697       10.330       10.193       34.911      276.027       62.514      333.178        2.329      856.472
01/29/2021  18:21:00      -40.822       17.460        9.818       60.356       46.855       31.375     3642.829     2195.414      984.387        0.444        0.341       44.400       32.739        0.544      332.975        1.988      856.476
01/29/2021  18:22:00     -133.762       38.990      -10.924      228.716       48.522      113.330    52310.876     2354.379    12843.657        4.351        3.375      139.329      153.127        1.208      332.843        1.771      856.481
01/29/2021  18:23:00      -68.471       44.734      -33.062      462.652       59.027      218.550   214046.906     3484.203    47764.316       13.648       13.265       81.789      311.243       14.481      332.767        1.650      856.473
01/29/2021  18:24:00     -132.376       35.759      -16.282      203.200       42.869       98.579    41290.413     1837.773     9717.887        3.595        2.642      137.120      134.071        0.956      332.551        1.287      856.470
01/29/2021  18:25:00      -33.102       59.276      -41.804      429.859       49.193      204.698   184778.368     2419.961    41901.265       11.768       11.455       67.892      293.121       18.640      332.872        1.824      856.471
01/29/2021  18:26:00      -24.630        4.357      -18.376      231.171       50.883      113.293    53439.901     2589.064    12835.352        3.490        3.443       25.012      155.116       38.459      332.675        1.494      856.489
01/29/2021  18:27:00        2.385       24.219      -34.259      446.819       45.745      214.767   199647.057     2092.630    46125.025       12.476       12.393       24.336      306.819      158.954      332.912        1.888      856.504
01/29/2021  18:28:00       -7.351       15.991       -6.008      243.861       48.340      112.148    59468.102     2336.756    12577.148        3.735        3.719       17.600      157.521       80.105      332.778        1.664      856.523
01/29/2021  18:29:00       52.704       18.340      -20.127      432.914       43.939      204.393   187414.822     1930.594    41776.549       11.727       11.556       55.804      294.102       27.776      332.930        1.919      856.527
01/29/2021  18:30:00       -7.321       33.224      -13.619      337.624       46.048      162.291   113990.214     2120.456    26338.378        7.187        7.122       34.022      230.217       45.790      332.813        1.723      856.525
01/29/2021  18:31:00      -11.004       22.045      -22.396      334.746       40.501      160.194   112055.101     1640.309    25662.151        7.020        6.968       24.639      226.295       84.353      332.891        1.852      856.539
01/29/2021  18:32:00      -78.608       26.375      -15.567      346.527       43.554      166.080   120081.150     1896.958    27582.411        7.831        7.478       82.914      235.651        8.078      332.836        1.762      856.531
01/29/2021  18:33:00      -44.481       10.842        8.000       59.531       51.698       30.679     3543.935     2672.695      941.223        0.466        0.358       45.784       33.459        0.534      332.656        1.460      856.522
01/29/2021  18:34:00      -17.305       15.352      -11.583      349.198       46.579      165.408   121938.954     2169.636    27359.750        7.604        7.573       23.134      235.512      103.642      332.801        1.704      856.514
01/29/2021  18:35:00      -24.990        7.517      -10.566      296.562       42.060      145.558    87948.826     1769.067    21187.225        5.583        5.545       26.096      202.411       60.162      332.894        1.856      856.519
01/29/2021  18:36:00      -37.135        3.298        0.818      269.090       47.411      133.099    72409.324     2247.832    17715.434        4.686        4.619       37.281      182.478       23.958      332.863        1.804      856.555
01/29/2021  18:37:00      -54.963       19.590       -3.388      307.468       42.438      149.782    94536.537     1800.968    22434.583        6.107        5.939       58.350      210.459       13.009      332.858        1.798      856.616
01/29/2021  18:38:00      -58.659       38.959      -23.196      401.304       46.130      190.123   161045.064     2127.938    36146.759       10.236        9.966       70.418      273.611       15.097      332.866        1.814      856.672
01/29/2021  18:39:00      -71.318       40.283      -14.034      365.519       52.137      177.272   133604.361     2718.222    31425.429        8.729        8.387       81.908      249.730        9.296      332.806        1.712      856.713
01/29/2021  18:40:00      -97.175       41.008       -5.736      235.865       36.981      115.679    55632.301     1367.582    13381.673        4.075        3.519      105.473      158.658        2.263      332.639        1.433      856.747
01/29/2021  18:41:00      -49.514       32.284      -25.653      449.799       46.718      206.543   202319.530     2182.587    42660.167       12.560       12.358       59.109      301.691       26.050      332.889        1.853      856.781
01/29/2021  18:42:00      -15.441       19.503      -13.874      390.129       45.650      184.622   152200.479     2083.902    34085.284        9.455        9.418       24.876      263.781      112.443      332.795        1.695      856.816
01/29/2021  18:43:00       22.042       12.116      -20.152      409.186       49.870      193.830   167433.157     2486.973    37570.131       10.422       10.375       25.152      277.257      121.508      332.985        2.009      856.853
01/29/2021  18:44:00      -34.798      -13.399       -7.219      296.377       64.164      140.413    87839.157     4117.019    19715.722        5.653        5.584       37.289      197.626       28.089      332.876        1.826      856.856
01/29/2021  18:45:00      -42.847     -110.824      -36.176      456.095       78.099      222.267   208022.333     6099.444    49402.495       13.942       13.176      118.819      312.632        6.923      333.087        2.177      856.826
01/29/2021  18:46:00     -135.344      -68.605      -24.128      261.549       80.772      121.997    68407.996     6524.184    14883.334        5.669        4.491      151.738      170.262        1.259      332.907        1.874      856.838
01/29/2021  18:47:00      -87.719      -23.999      -33.941      467.602       44.791      223.842   218651.632     2006.214    50105.256       14.004       13.538       90.943      319.136       12.314      332.997        2.029      856.843
01/29/2021  18:48:00        6.631      -21.762      -27.020      411.671       48.098      199.381   169473.336     2313.425    39752.727       10.635       10.577       22.750      280.927      152.486      333.020        2.068      856.840
01/29/2021  18:49:00      -56.133      -77.275      -35.269      380.311       44.249      184.177   144636.245     1958.010    33921.302        9.540        9.026       95.511      261.141        7.476      333.043        2.104      856.837
01/29/2021  18:50:00      -21.598      -35.401      -12.346      314.814       54.944      149.443    99107.761     3018.836    22333.121        6.314        6.223       41.469      212.205       26.185      333.036        2.093      856.832
01/29/2021  18:51:00      -46.486      -20.095      -19.829      289.219       61.719      141.256    83647.842     3809.291    19953.306        5.516        5.371       50.643      194.217       14.707      333.049        2.114      856.837
01/29/2021  18:52:00      -54.150      -14.318      -20.308      418.810       66.291      204.958   175402.017     4394.434    42007.687       11.263       11.090       56.011      283.707       25.656      333.023        2.072      856.847
01/29/2021  18:53:00      -82.606      -21.363       -7.258      323.750       62.362      155.034   104813.870     3889.081    24035.404        7.001        6.637       85.324      215.147        6.358      332.926        1.911      856.847
01/29/2021  18:54:00      -87.493      -25.451      -27.871      409.807       60.111      197.059   167942.148     3613.378    38832.270       10.969       10.519       91.120      278.900        9.369      332.968        1.981      856.867
01/29/2021  18:55:00      -92.534      -19.692      -21.300      327.670       52.792      153.179   107367.432     2787.016    23463.653        7.148        6.681       94.606      216.554        5.240      332.954        1.955      856.897
01/29/2021  18:56:00      -29.772       -7.270      -11.563      392.121       54.783      186.726   153758.742     3001.224    34866.610        9.631        9.581       30.647      266.362       75.539      333.014        2.058      856.928
01/29/2021  18:57:00     -109.143      -14.145      -31.391      363.403       46.651      176.614   132061.988     2176.322    31192.505        8.923        8.272      110.056      249.009        5.119      332.968        1.978      856.952
01/29/2021  18:58:00      -28.383      -18.899      -26.339      458.868       48.850      212.126   210559.947     2386.329    44997.570       12.985       12.897       34.099      308.233       81.710      333.038        2.099      856.970
01/29/2021  18:59:00      -13.529       -9.438      -22.221      444.938       52.295      211.654   197969.770     2734.731    44797.524       12.308       12.275       16.496      302.300      335.835      333.105        2.208      856.984
01/29/2021  19:00:00        8.506        1.203       -8.006      328.477       46.844      157.547   107896.813     2194.396    24821.175        6.750        6.746        8.591      222.340      669.795      332.918        1.896      857.000
01/29/2021  19:01:00      -80.838       27.574      -20.189      334.146       49.096      158.701   111653.370     2410.389    25185.935        7.345        6.962       85.412      225.626        6.978      332.917        1.895      857.001
01/29/2021  19:02:00       -3.705      -22.047       -5.128      309.301       62.330      148.407    95666.980     3885.086    22024.550        6.103        6.079       22.356      209.436       87.765      332.924        1.906      857.000
01/29/2021  19:03:00       43.905      -21.526      -44.433      570.593       52.256      269.675   325576.297     2730.690    72724.817       20.261       20.052       48.898      389.809       63.550      333.250        2.453      857.026
01/29/2021  19:04:00      -70.354       18.685       -0.265      235.124       47.859      111.742    55283.423     2290.517    12486.166        3.766        3.503       72.793      156.257        4.608      332.953        1.953      857.056
01/29/2021  19:05:00      -27.970       -8.975      -25.417      405.113       49.929      197.153   164116.914     2492.893    38869.460       10.345       10.274       29.374      278.732       90.040      333.026        2.077      857.092
01/29/2021  19:06:00      -37.499      -12.468      -37.719      470.342       47.340      225.905   221221.219     2241.116    51032.930       13.868       13.725       39.517      323.039       66.826      333.092        2.187      857.124
01/29/2021  19:07:00      -91.991       -1.529       -7.535      196.900       48.110       93.111    38769.738     2314.571     8669.744        2.913        2.488       92.003      126.363        1.886      332.907        1.877      857.143
01/29/2021  19:08:00       -0.896      -46.711      -20.880      372.517       45.464      175.771   138768.613     2066.990    30895.331        8.714        8.587       46.720      251.995       29.093      333.101        2.200      857.145
01/29/2021  19:09:00      -30.325      -30.254       -2.031      347.274       75.726      166.411   120599.395     5734.426    27692.607        7.790        7.701       42.836      235.880       30.322      332.972        1.987      857.144
01/29/2021  19:10:00       -2.340      -26.950       -5.738      319.143       55.167      154.659   101852.292     3043.346    23919.297        6.476        6.441       27.052      216.641       64.134      332.994        2.023      857.148
01/29/2021  19:11:00      -41.519       19.851       -4.313      293.235       51.267      140.497    85986.878     2628.308    19739.339        5.522        5.418       46.021      197.682       18.451      332.924        1.906      857.152
01/29/2021  19:12:00      -37.690       27.288      -13.817      299.249       55.486      145.202    89550.163     3078.671    21083.646        5.801        5.686       46.531      203.385       19.105      332.954        1.955      857.167
01/29/2021  19:13:00      -34.344       17.547      -19.297      386.895       44.570      181.455   149687.469     1986.463    32925.906        9.319        9.230       38.567      260.577       45.649      332.994        2.025      857.191
01/29/2021  19:14:00      -71.138       15.382       -7.222      326.095       48.848      158.034   106338.118     2386.097    24974.726        6.950        6.685       72.782      221.939        9.299      332.978        1.994      857.221
01/29/2021  19:15:00      -39.400       26.253        2.753      335.950       50.425      159.957   112862.660     2542.653    25586.082        7.159        7.050       47.345      224.560       22.497      333.122        2.234      857.245
01/29/2021  19:16:00      -90.753      -11.610      -19.729      355.517       62.837      172.155   126392.047     3948.486    29637.449        8.433        7.999       91.493      241.344        6.958      333.264        2.469      857.255
01/29/2021  19:17:00     -153.116      -98.169      -42.989      410.325       52.898      200.723   168366.579     2798.226    40289.722       12.315       10.573      181.883      281.283        2.392      333.430        2.742      857.249
01/29/2021  19:18:00      -59.337        1.984      -43.240      517.761       60.650      242.735   268076.002     3678.408    58920.120       16.796       16.534       59.370      348.458       34.448      333.475        2.822      857.218
01/29/2021  19:19:00     -173.230       39.674       -5.521      258.432       56.405      123.658    66787.172     3181.492    15291.271        5.842        4.263      177.715      169.204        0.907      333.167        2.306      857.185
01/29/2021  19:20:00     -106.166       26.409       -1.626      263.318       72.263      128.457    69336.618     5221.987    16501.125        5.150        4.553      109.402      172.812        2.495      333.106        2.204      857.135
01/29/2021  19:21:00      -21.076       24.856       -6.792      294.845       46.080      136.001    86933.351     2123.327    18496.397        5.431        5.378       32.589      196.757       36.452      333.140        2.264      857.092
01/29/2021  19:22:00      -36.094       39.859      -21.979      381.314       36.640      180.959   145400.425     1342.506    32746.043        9.139        8.974       53.773      259.520       23.292      333.080        2.167      857.071
01/29/2021  19:23:00      -80.034       70.135       -5.296      185.795       41.185       87.650    34519.804     1696.184     7682.532        2.762        2.195      106.416      119.972        1.271      333.038        2.093      857.082
01/29/2021  19:24:00      -43.487       35.798      -10.918      333.070       46.227      156.622   110935.314     2136.941    24530.413        7.042        6.880       56.326      225.213       15.987      333.109        2.213      857.112
01/29/2021  19:25:00      -61.529       21.446       -9.848      332.571       51.101      160.616   110603.558     2611.319    25797.393        7.165        6.951       65.159      225.424       11.969      333.132        2.250      857.143
01/29/2021  19:26:00     -102.623       32.369      -28.777      446.123       60.281      213.193   199026.150     3633.833    45451.321       13.021       12.406      107.607      303.303        7.945      333.200        2.364      857.174
01/29/2021  19:27:00      -72.572       18.122        1.901      276.419       49.392      136.111    76407.625     2439.558    18526.290        5.147        4.869       74.801      185.716        6.164      333.003        2.036      857.206
01/29/2021  19:28:00       54.863        0.590      -43.568      517.932       55.744      246.275   268253.354     3107.362    60651.369       16.839       16.601       54.867      351.605       41.067      333.282        2.505      857.209
01/29/2021  19:29:00        3.107      -23.666      -34.729      438.426       56.567      211.048   192217.387     3199.773    44541.180       12.082       11.998       23.869      295.027      152.778      333.179        2.333      857.203
01/29/2021  19:30:00      -57.283       18.817      -25.158      387.794       56.408      176.747   150384.225     3181.844    31239.662        9.450        9.240       60.294      257.075       18.179      333.097        2.194      857.189
01/29/2021  19:31:00        8.016       35.178      -16.171      413.116       46.386      194.072   170665.117     2151.647    37663.766       10.598       10.524       36.080      279.722       60.108      333.025        2.076      857.165
01/29/2021  19:32:00      100.166       20.152      -48.870      529.536       55.053      245.517   280407.995     3030.826    60278.726       17.820       17.186      102.173      357.738       12.259      333.231        2.420      857.162
01/29/2021  19:33:00       -6.968       -2.483      -45.247      545.819       61.574      249.797   297918.229     3791.408    62398.772       18.303       18.205        7.397      363.936     2420.388      333.163        2.307      857.169
01/29/2021  19:34:00      -56.665       18.568      -20.624      362.078       57.821      169.498   131100.515     3343.303    28729.737        8.354        8.159       59.630      239.876       16.183      332.937        1.928      857.186
01/29/2021  19:35:00      -51.525       11.731      -15.411      245.218       48.452      114.970    60131.833     2347.593    13218.088        3.935        3.785       52.844      161.108        9.295      332.894        1.857      857.211
01/29/2021  19:36:00      -16.061       10.181      -17.848      409.667       48.268      199.524   167826.986     2329.790    39809.885       10.528       10.498       19.016      279.079      215.387      332.992        2.020      857.244
01/29/2021  19:37:00      -31.992       35.792      -23.526      404.132       50.577      195.971   163322.754     2558.020    38404.788       10.353       10.214       48.005      277.983       33.532      332.995        2.025      857.269
01/29/2021  19:38:00      -47.289       41.676      -24.037      415.352       46.052      202.673   172517.305     2120.756    41076.474       11.009       10.786       63.032      286.460       20.654      333.003        2.039      857.286
01/29/2021  19:39:00      -56.465        7.881       -4.681      342.432       42.414      165.034   117259.715     1798.954    27236.208        7.475        7.315       57.012      230.831       16.393      333.037        2.094      857.282
01/29/2021  19:40:00      -54.811        2.979      -11.875      323.193       45.949      153.172   104453.835     2111.293    23461.786        6.656        6.501       54.892      215.026       15.345      333.040        2.099      857.275
01/29/2021  19:41:00      -94.609       33.612      -29.645      411.563       44.466      198.417   169384.201     1977.258    39369.502       11.080       10.537      100.403      281.112        7.839      333.063        2.138      857.274
01/29/2021  19:42:00      -84.334       27.200      -28.208      410.405       46.721      199.712   168432.517     2182.849    39884.809       10.953       10.525       88.612      283.516       10.237      332.949        1.951      857.278
01/29/2021  19:43:00      -88.733        1.131        5.693      228.930       61.079      111.972    52408.745     3730.683    12537.664        3.828        3.434       88.741      148.788        2.811      332.855        1.792      857.274
01/29/2021  19:44:00      -90.821        0.271      -13.544      319.949       52.305      142.640   102367.679     2735.778    20346.283        6.691        6.272       90.821      202.262        4.960      332.888        1.844      857.286
01/29/2021  19:45:00     -160.651       17.979       -4.499      262.020       62.186      128.958    68654.570     3867.068    16630.062        5.763        4.458      161.654      170.250        1.109      332.832        1.751      857.285
01/29/2021  19:46:00      -44.329       19.584       -6.620      306.389       61.770      150.462    93874.148     3815.544    22638.807        6.133        6.016       48.462      209.908       18.761      332.867        1.812      857.288
01/29/2021  19:47:00      -71.695       21.478      -18.847      437.464       65.704      209.095   191374.511     4317.029    43720.811       12.263       11.971       74.843      295.044       15.541      333.215        2.388      857.290
01/29/2021  19:48:00      -78.844       18.901      -30.544      464.401       69.508      221.500   215668.285     4831.429    49062.382       13.848       13.478       81.078      313.957       14.995      333.263        2.469      857.291
01/29/2021  19:49:00     -130.638      -67.440      -45.892      429.261       62.708      205.229   184265.064     3932.258    42118.997       12.697       11.516      147.019      291.008        3.918      333.387        2.671      857.282
01/29/2021  19:50:00     -143.322        3.790      -23.904      300.358       62.416      139.762    90214.796     3895.740    19533.471        6.736        5.682      143.372      195.462        1.859      333.226        2.403      857.267
01/29/2021  19:51:00     -125.707       19.479      -11.230      245.252       45.682      121.464    60148.643     2086.840    14753.481        4.663        3.849      127.208      165.234        1.687      332.968        1.978      857.262
01/29/2021  19:52:00      -43.872       17.129      -17.685      410.546       54.364      192.491   168547.717     2955.401    37052.847       10.550       10.428       47.097      274.514       33.973      333.026        2.076      857.257
01/29/2021  19:53:00      -16.252      -34.161      -22.459      421.406       61.437      198.233   177583.157     3774.544    39296.151       11.125       11.033       37.830      283.285       56.076      333.264        2.473      857.268
01/29/2021  19:54:00      -66.073      -38.157      -22.874      389.582      112.188      193.724   151774.464    12586.120    37528.837       10.407       10.094       76.299      266.933       12.240      333.248        2.444      857.259
01/29/2021  19:55:00      -42.610      -96.055      -17.950      354.714       72.560      168.039   125821.749     5264.932    28237.072        8.531        7.966      105.082      238.041        5.132      333.374        2.653      857.254
01/29/2021  19:56:00     -135.050     -117.525      -27.369      305.891       85.185      148.090    93569.102     7256.446    21930.776        7.775        6.138      179.027      202.696        1.282      333.298        2.522      857.247
01/29/2021  19:57:00      -84.254      -41.347      -25.214      352.863       62.334      173.901   124512.274     3885.489    30241.417        8.401        7.932       93.853      241.549        6.624      333.213        2.384      857.246
01/29/2021  19:58:00      -48.256       26.769      -39.929      422.979       50.154      203.215   178910.907     2515.445    41296.230       11.363       11.136       55.183      290.752       27.761      333.202        2.369      857.248
01/29/2021  19:59:00       33.299        8.743      -28.475      500.200       52.040      237.113   250200.358     2708.209    56222.721       15.550       15.457       34.428      339.933       97.493      333.235        2.424      857.270
01/29/2021  20:00:00       80.561       13.847      -14.286      451.658       51.043      213.250   203995.194     2605.346    45475.670       12.943       12.604       81.743      307.160       14.120      333.176        2.327      857.293
01/29/2021  20:01:00       81.586      -14.345      -36.136      460.325       40.956      220.861   211898.923     1677.426    48779.458       13.521       13.118       82.838      316.957       14.640      333.252        2.452      857.288
01/29/2021  20:02:00       47.811       14.144      -34.648      520.585       43.669      250.580   271009.201     1906.986    62790.453       16.963       16.785       49.860      358.616       51.732      333.259        2.466      857.265
01/29/2021  20:03:00        5.489       26.068      -27.650      467.806       42.945      223.604   218842.391     1844.237    49998.682       13.602       13.534       26.640      319.671      143.993      333.197        2.362      857.265
01/29/2021  20:04:00       39.173       -0.731      -19.464      407.269       45.744      197.355   165868.226     2092.495    38948.821       10.437       10.345       39.180      279.302       50.819      333.144        2.273      857.255
01/29/2021  20:05:00      -11.743       -3.837        2.676       30.300       47.396       26.937      918.067     2246.383      725.591        0.202        0.195       12.354       34.548        7.821      333.017        2.056      857.253
01/29/2021  20:06:00       54.253       -6.435      -26.742      425.654       33.800      204.069   181181.530     1142.422    41644.351       11.379       11.198       54.633      293.198       28.801      333.195        2.358      857.253
01/29/2021  20:07:00        5.010      -21.660      -16.152      186.861       48.322       93.009    34917.078     2334.970     8650.627        2.332        2.295       22.232      126.920       32.591      333.021        2.064      857.238
01/29/2021  20:08:00       21.785       -9.551      -18.396      331.202       48.899      151.118   109694.975     2391.113    22836.553        6.788        6.746       23.786      220.134       85.648      333.071        2.150      857.239
01/29/2021  20:09:00       -0.234      -29.563      -10.980      227.830       48.604      110.635    51906.599     2362.357    12240.214        3.374        3.325       29.564      154.222       27.213      333.094        2.185      857.243
01/29/2021  20:10:00        0.030      -12.857      -30.001      321.305       42.699      151.494   103236.775     1823.196    22950.418        6.451        6.401       12.857      216.897      284.614      333.220        2.396      857.246
01/29/2021  20:11:00       63.814       17.852      -40.227      452.186       35.549      217.310   204471.790     1263.738    47223.784       12.943       12.648       66.263      311.696       22.127      333.328        2.578      857.251
01/29/2021  20:12:00       58.568       28.488      -23.130      435.471       41.645      204.399   189635.322     1734.300    41778.802       11.891       11.657       65.129      296.174       20.679      333.229        2.413      857.249
01/29/2021  20:13:00       44.496      -75.161      -60.015      598.772       61.026      284.759   358528.212     3724.198    81087.736       22.719       22.167       87.344      410.060       22.041      333.540        2.933      857.229
01/29/2021  20:14:00      -56.404       -3.074      -10.726      274.276       58.482      132.525    75227.389     3420.139    17562.889        4.974        4.811       56.488      181.487       10.322      333.175        2.320      857.209
01/29/2021  20:15:00       44.814      -77.185      -39.620      415.975       59.744      204.285   173035.026     3569.354    41732.447       11.389       10.917       89.252      288.529       10.451      333.378        2.659      857.206
01/29/2021  20:16:00       76.458      -66.710      -30.790      325.161       40.986      158.270   105729.707     1679.848    25049.427        7.182        6.623      101.470      223.794        4.864      333.286        2.506      857.221
01/29/2021  20:17:00       70.049      -32.711      -51.603      437.652       53.841      212.025   191539.612     2898.907    44954.594       12.397       11.970       77.310      301.788       15.238      333.343        2.603      857.221
01/29/2021  20:18:00       45.466      -34.809      -25.422      426.482       51.443      200.217   181886.641     2646.383    40086.756       11.423       11.231       57.261      289.097       25.490      333.411        2.714      857.214
01/29/2021  20:19:00       64.043      -14.105      -29.185      416.980       55.310      199.801   173872.439     3059.248    39920.546       11.096       10.843       65.578      284.253       18.789      333.275        2.489      857.199
01/29/2021  20:20:00       45.437      -17.327      -24.073      340.877       45.384      163.069   116197.386     2059.741    26591.566        7.387        7.242       48.629      232.971       22.952      333.218        2.392      857.196
01/29/2021  20:21:00       16.760      -23.906      -27.070      356.641       41.950      170.733   127192.662     1759.823    29149.720        7.981        7.905       29.196      244.095       69.900      333.361        2.630      857.206
01/29/2021  20:22:00       18.526      -12.293      -19.868      346.652       38.267      163.448   120167.686     1464.357    26715.410        7.459        7.417       22.234      235.656      112.338      333.156        2.290      857.236
01/29/2021  20:23:00       87.219      -40.099      -57.649      544.583       38.383      257.303   296570.836     1473.218    66204.638       18.832       18.212       95.995      372.602       15.066      333.442        2.768      857.281
01/29/2021  20:24:00      126.311      -17.470      -56.203      503.765       48.095      243.783   253778.751     2313.150    59430.017       16.740       15.776      127.514      348.415        7.466      333.390        2.682      857.319
01/29/2021  20:25:00      114.230      -25.836      -41.179      448.582       53.083      214.950   201225.807     2817.762    46203.590       13.278       12.512      117.115      307.710        6.903      333.331        2.584      857.321
01/29/2021  20:26:00       94.541      -38.495      -37.633      294.893       66.875      142.366    86961.742     4472.294    20268.185        6.175        5.585      102.078      201.963        3.915      333.165        2.305      857.314
01/29/2021  20:27:00      101.686      -75.398      -27.875      357.826       52.999      174.749   128039.199     2808.933    30537.222        8.906        8.069      126.589      245.557        3.763      333.145        2.273      857.336
01/29/2021  20:28:00       33.469      -23.408       -6.798      202.023       47.421      101.713    40813.161     2248.719    10345.541        2.755        2.670       40.843      139.502       11.666      332.955        1.957      857.376
01/29/2021  20:29:00      108.819        4.747      -47.780      525.574       42.606      254.324   276228.033     1815.243    64680.870       17.836       17.136      108.922      363.686       11.149      333.211        2.387      857.417
01/29/2021  20:30:00      136.883       54.362      -24.717      466.002       47.625      222.266   217158.226     2268.165    49402.073       14.551       13.441      147.282      319.099        4.694      332.951        1.954      857.463
01/29/2021  20:31:00       12.443       32.914       -7.347      236.701       41.468      115.304    56027.420     1719.564    13295.120        3.615        3.552       35.187      161.677       21.112      332.666        1.479      857.501
01/29/2021  20:32:00       25.065       23.248        4.630      191.012       44.281       94.452    36485.455     1960.777     8921.142        2.427        2.368       34.187      129.354       14.317      332.634        1.426      857.542
01/29/2021  20:33:00       98.014       26.596      -41.023      504.591       43.470      237.744   254612.251     1889.624    56522.178       16.245       15.651      101.559      344.543       11.509      332.863        1.811      857.572
01/29/2021  20:34:00       89.179       41.272        1.392       66.456       42.391       27.035     4416.455     1796.957      730.865        0.830        0.347       98.267       23.071        0.055      332.416        1.063      857.585
01/29/2021  20:35:00      128.662       52.691       -6.138      270.844       58.666      131.808    73356.610     3441.726    17373.477        5.675        4.709      139.033      183.005        1.733      332.524        1.245      857.582
01/29/2021  20:36:00      286.368       25.099      -68.483      604.219       70.885      279.752   365080.111     5024.619    78261.362       26.775       22.418      287.466      405.980        1.995      332.885        1.848      857.584
01/29/2021  20:37:00      155.892       24.123      -11.381      285.755       71.170      138.552    81655.978     5065.111    19196.669        6.544        5.296      157.747      192.373        1.487      332.301        0.876      857.614
01/29/2021  20:38:00      171.325       15.888      -24.156      429.607       59.961      199.828   184562.384     3595.303    39931.219       12.909       11.404      172.060      289.436        2.830      332.379        1.008      857.639
01/29/2021  20:39:00      236.215       60.052      -46.390      512.189       51.585      243.557   262337.822     2660.998    59320.026       19.287       16.216      243.729      350.912        2.073      332.532        1.265      857.675
01/29/2021  20:40:00      216.355       84.307      -48.603      524.707       44.120      245.901   275317.845     1946.562    60467.254       19.694       16.887      232.201      357.055        2.365      332.572        1.330      857.707
01/29/2021  20:41:00       95.298       69.136       -9.916      171.332       43.799       84.844    29354.490     1918.332     7198.572        2.621        1.924      117.735      115.712        0.966      332.183        0.681      857.715
01/29/2021  20:42:00      104.618       72.120       -4.191      191.003       45.475       94.499    36481.978     2067.958     8930.010        3.181        2.374      127.068      128.480        1.022      332.193        0.697      857.718
01/29/2021  20:43:00      128.892       22.784      -37.268      384.947       60.836      189.988   148184.139     3701.057    36095.509       10.321        9.399      130.890      267.120        4.165      332.445        1.116      857.702
01/29/2021  20:44:00      145.979       46.268      -36.242      378.299       78.843      179.103   143109.924     6216.225    32077.762       10.305        9.070      153.136      255.970        2.794      332.319        0.910      857.675
01/29/2021  20:45:00      171.901        4.390      -55.032      528.088       67.999      254.587   278877.396     4623.841    64814.330       19.038       17.416      171.957      363.332        4.464      332.558        1.307      857.657
01/29/2021  20:46:00      167.022      -60.845      -62.828      516.739       54.878      247.090   267018.681     3011.590    61053.350       18.324       16.554      177.759      355.030        3.989      332.637        1.437      857.654
01/29/2021  20:47:00      205.230      -96.541      -64.612      435.666       73.232      208.898   189804.761     5362.882    43638.476       14.716       11.940      226.803      298.971        1.738      332.439        1.109      857.652
01/29/2021  20:48:00      228.339      -45.359      -77.351      523.687       79.029      246.423   274247.695     6245.661    60724.275       20.063       17.061      232.801      355.789        2.336      332.700        1.541      857.651
01/29/2021  20:49:00      157.059      -43.593      -54.294      509.585       63.288      242.885   259676.650     4005.421    58993.310       17.603       16.134      162.996      348.215        4.564      332.883        1.844      857.670
01/29/2021  20:50:00      106.625       17.130      -32.560      383.358       66.851      181.734   146963.325     4469.094    33027.231        9.855        9.223      107.992      260.042        5.798      332.452        1.129      857.701
01/29/2021  20:51:00      221.381       16.681      -45.436      420.340       66.445      201.329   176685.835     4415.001    40533.342       13.645       11.082      222.009      286.882        1.670      332.673        1.493      857.690
01/29/2021  20:52:00      175.638       24.334      -42.580      543.652       84.837      261.305   295557.726     7197.319    68280.317       20.207       18.552      177.315      374.861        4.469      332.796        1.702      857.654
01/29/2021  20:53:00      145.049       94.328      -14.146      344.657       56.910      166.866   118788.119     3238.767    27844.404        8.997        7.494      173.023      234.938        1.844      332.449        1.122      857.619
01/29/2021  20:54:00      117.248       30.902      -19.807      371.857       50.781      177.473   138277.266     2578.660    31496.520        9.369        8.618      121.252      254.023        4.389      332.410        1.059      857.601
01/29/2021  20:55:00      183.987       39.612      -34.447      530.702       46.759      254.134   281644.102     2186.447    64584.166       19.244       17.421      188.203      364.670        3.754      332.640        1.444      857.606
01/29/2021  20:56:00      227.873       23.715      -54.192      576.640       61.550      268.353   332513.797     3788.444    72013.517       23.178       20.416      229.104      390.492        2.905      332.760        1.644      857.628
01/29/2021  20:57:00      179.421       17.595      -40.403      489.417       64.569      232.418   239529.330     4169.165    54018.128       16.586       14.886      180.282      334.657        3.446      332.666        1.485      857.657
01/29/2021  20:58:00       68.387      -21.080      -21.620      417.613       37.252      202.585   174400.286     1387.699    41040.769       11.116       10.841       71.562      288.834       16.290      332.651        1.459      857.708
01/29/2021  20:59:00       90.355        5.975      -11.742      343.415       43.853      162.798   117933.939     1923.057    26503.147        7.732        7.318       90.552      232.745        6.606      332.556        1.299      857.741
01/29/2021  21:00:00      111.908       27.136      -25.327      494.836       45.832      234.351   244863.006     2100.529    54920.622       15.783       15.094      115.151      338.302        8.631      332.602        1.380      857.748
01/29/2021  21:01:00      103.142        5.097      -44.022      507.410       49.744      239.206   257464.497     2474.436    57219.502       16.481       15.858      103.268      345.294       11.180      332.767        1.652      857.791
01/29/2021  21:02:00      149.574      -64.308      -32.086      338.183       59.250      163.824   114367.886     3510.550    26838.384        8.610        7.236      162.812      231.576        2.023      332.682        1.507      857.829
01/29/2021  21:03:00       -3.101      -37.797        7.309      251.007       41.244      125.261    63004.522     1701.075    15690.232        4.093        4.020       37.924      171.921       20.551      332.545        1.280      857.854
01/29/2021  21:04:00       37.778       23.600      -12.494      380.453       61.348      185.608   144744.803     3763.606    34450.294        9.251        9.148       44.544      261.922       34.575      332.762        1.638      857.869
01/29/2021  21:05:00       73.647       50.790      -20.436      385.498       42.292      183.877   148608.919     1788.655    33810.734        9.628        9.210       89.463      263.800        8.695      332.639        1.438      857.866
01/29/2021  21:06:00      117.531       48.923      -24.610      453.054       41.273      216.403   205258.294     1703.425    46830.213       13.525       12.690      127.307      311.169        5.974      332.822        1.742      857.859
01/29/2021  21:07:00       63.457       24.664      -12.047      415.471       53.228      202.286   172616.288     2833.193    40919.436       11.053       10.818       68.082      286.400       17.696      332.702        1.542      857.841
01/29/2021  21:08:00       12.202       16.088      -13.436      337.460       41.385      161.859   113879.008     1712.742    26198.395        7.116        7.090       20.192      230.406      130.208      332.496        1.200      857.834
01/29/2021  21:09:00       85.029       19.205      -40.097      499.887       42.064      241.815   249886.654     1769.353    58474.689       15.960       15.507       87.171      345.650       15.723      332.794        1.697      857.824
01/29/2021  21:10:00       81.004       46.203      -14.407      325.579       37.594      155.774   106001.390     1413.323    24265.687        7.027        6.584       93.254      223.197        5.728      332.723        1.575      857.811
01/29/2021  21:11:00       79.728       11.867      -32.618      426.007       54.312      203.263   181482.224     2949.756    41315.772       11.661       11.287       80.607      291.741       13.100      332.863        1.807      857.809
01/29/2021  21:12:00       98.394      -16.216      -57.027      547.740       45.383      257.417   300018.856     2059.659    66263.527       19.069       18.417       99.721      373.283       14.012      332.989        2.022      857.821
01/29/2021  21:13:00        0.410       16.880      -14.912      321.194       41.109      155.425   103165.364     1689.968    24157.019        6.473        6.451       16.885      220.249      170.149      332.760        1.635      857.826
01/29/2021  21:14:00       61.910       12.168      -22.758      387.585       40.594      183.858   150221.752     1647.903    33803.833        9.505        9.284       63.094      264.678       17.598      332.787        1.682      857.847
01/29/2021  21:15:00       84.227       29.558      -24.749      434.772       40.487      206.626   189026.353     1639.163    42694.326       12.092       11.668       89.263      297.734       11.125      332.785        1.681      857.874
01/29/2021  21:16:00       78.374       25.670      -24.442      429.520       38.916      207.395   184487.394     1514.452    43012.561       11.816       11.451       82.471      296.639       12.938      332.718        1.570      857.912
01/29/2021  21:17:00       -0.263       37.722      -19.145      412.902       53.665      198.376   170488.251     2879.904    39352.912       10.721       10.636       37.722      282.111       55.929      332.741        1.608      857.968
01/29/2021  21:18:00      -28.224       56.089      -37.035      398.242       49.494      192.019   158597.003     2449.640    36871.232       10.157        9.896       62.790      273.386       18.957      332.358        0.972      858.003
01/29/2021  21:19:00       55.833       31.168      -25.112      407.788       50.242      196.621   166290.987     2524.303    38659.672       10.605       10.374       63.944      280.467       19.238      332.429        1.092      858.004
01/29/2021  21:20:00       60.762       27.874       -6.184      332.037       51.158      156.435   110248.265     2617.140    24471.935        7.089        6.867       66.850      224.086       11.236      332.562        1.307      857.991
01/29/2021  21:21:00       41.908       -7.415      -12.546      328.007       51.475      157.408   107588.327     2649.627    24777.127        6.846        6.751       42.559      223.465       27.570      332.703        1.541      858.002
01/29/2021  21:22:00       59.656       19.254      -12.688      346.868       38.424      169.394   120317.487     1476.433    28694.472        7.726        7.524       62.686      239.978       14.656      332.642        1.441      858.034
01/29/2021  21:23:00      109.869       13.486      -15.398      323.433       51.465      154.782   104608.699     2648.647    23957.423        7.182        6.561      110.693      220.080        3.953      332.623        1.409      858.048
01/29/2021  21:24:00      148.304       13.798      -17.105      484.208       75.196      230.861   234457.817     5654.387    53296.701       15.788       14.670      148.945      330.674        4.929      332.784        1.678      858.027
01/29/2021  21:25:00      147.166        8.785      -47.312      516.198       75.618      248.507   266460.771     5718.011    61755.873       17.888       16.697      147.428      354.979        5.798      332.666        1.487      858.020
01/29/2021  21:26:00      126.063       23.740      -25.816      277.903       61.355      138.694    77230.091     3764.390    19236.064        5.866        5.012      128.279      190.950        2.216      332.423        1.079      858.027
01/29/2021  21:27:00      157.754      -16.598      -48.998      498.096       47.838      235.901   248100.009     2288.470    55649.164       16.673       15.302      158.625      340.150        4.598      332.754        1.631      858.043
01/29/2021  21:28:00      131.902      -16.845      -48.611      463.728       59.927      220.654   215043.217     3591.202    48688.322       14.363       13.366      132.974      317.323        5.695      332.873        1.826      858.059
01/29/2021  21:29:00      140.395       -6.003      -46.330      459.971       67.943      221.950   211573.236     4616.273    49261.945       14.362       13.273      140.523      315.744        5.049      333.023        2.075      858.069
01/29/2021  21:30:00      128.408      -17.564      -32.989      426.412       63.157      200.141   181827.511     3988.869    40056.563       12.183       11.294      129.603      289.266        4.982      333.061        2.134      858.085
01/29/2021  21:31:00      112.697      -18.010      -27.305      438.700       56.279      213.733   192457.409     3167.362    45681.915       12.749       12.065      114.127      303.149        7.056      332.965        1.979      858.121
01/29/2021  21:32:00       88.072      -18.511      -26.369      382.814       52.104      181.825   146546.618     2714.796    33060.279        9.552        9.116       89.996      261.259        8.427      332.829        1.751      858.153
01/29/2021  21:33:00       81.001      -24.989      -35.315      476.486       45.820      230.063   227039.198     2099.497    52928.846       14.519       14.103       84.768      328.371       15.006      332.804        1.712      858.180
01/29/2021  21:34:00      118.665      -78.121      -44.059      350.571       55.402      171.597   122899.977     3069.425    29445.515        8.874        7.771      142.071      242.272        2.908      332.551        1.290      858.203
01/29/2021  21:35:00       72.523      -75.896      -38.495      370.900       56.080      174.757   137566.557     3144.966    30539.969        9.184        8.563      104.975      250.862        5.711      332.591        1.356      858.213
01/29/2021  21:36:00      149.603      -92.036      -44.987      354.001       63.363      170.138   125316.657     4014.855    28946.883        9.554        7.914      175.646      242.342        1.904      332.445        1.117      858.219
01/29/2021  21:37:00      150.837     -112.921      -44.478      394.018       46.655      189.586   155250.563     2176.643    35942.779       11.538        9.668      188.423      270.903        2.067      332.543        1.280      858.219
01/29/2021  21:38:00       35.090      -47.571      -12.010      295.774       46.266      140.760    87482.070     2140.541    19813.280        5.651        5.472       59.112      200.259       11.477      332.565        1.312      858.242
01/29/2021  21:39:00       71.880        9.436      -21.708      494.966       45.403      242.610   244991.077     2061.411    58859.472       15.576       15.296       72.496      343.422       22.440      332.784        1.679      858.260
01/29/2021  21:40:00        7.857       -7.268       -8.926      307.494       41.773      143.401    94552.548     1744.946    20563.801        5.850        5.843       10.704      204.598      365.372      332.522        1.242      858.261
01/29/2021  21:41:00       -0.896       -3.064      -22.595      406.334       40.459      198.077   165107.565     1636.916    39234.582       10.321       10.299        3.193      277.736     7567.306      332.581        1.342      858.251
01/29/2021  21:42:00      -44.759      -50.059      -10.270      271.173       50.759      124.449    73534.753     2576.440    15487.518        4.809        4.580       67.151      178.800        7.090      332.479        1.170      858.240
01/29/2021  21:43:00       13.426        4.260      -11.264      351.637       58.602      166.482   123648.573     3434.144    27716.282        7.753        7.740       14.086      236.041      280.820      332.621        1.407      858.219
01/29/2021  21:44:00       65.094       32.208      -30.683      287.294       67.994      141.549    82537.732     4623.149    20036.089        5.668        5.360       72.627      195.227        7.226      332.703        1.541      858.178
01/29/2021  21:45:00       17.164      -25.392      -51.251      425.807       48.002      205.456   181311.391     2304.189    42212.080       11.465       11.291       30.649      293.272       91.561      332.809        1.719      858.214
01/29/2021  21:46:00       49.486       -8.683      -14.495      291.844       48.725      143.150    85173.012     2374.157    20491.829        5.536        5.402       50.242      201.737       16.122      332.617        1.400      858.270
01/29/2021  21:47:00        7.039      -10.889      -18.527      260.840       50.492      125.894    68037.400     2549.477    15849.292        4.346        4.322       12.966      177.542      187.485      332.579        1.336      858.302
01/29/2021  21:48:00      104.413       -1.008      -36.096      505.130       50.325      241.825   255156.086     2532.616    58479.389       16.412       15.808      104.418      347.666       11.086      332.789        1.688      858.300
01/29/2021  21:49:00      167.564      -60.200      -60.770      512.722       53.906      245.403   262883.861     2905.882    60222.772       18.063       16.301      178.050      351.887        3.906      332.812        1.726      858.298
01/29/2021  21:50:00      136.620      -26.568      -39.617      440.373       63.465      215.643   193928.122     4027.778    46501.920       13.265       12.223      139.179      304.696        4.793      332.946        1.946      858.296
01/29/2021  21:51:00      100.179      -30.924      -38.334      342.381       71.078      158.651   117224.465     5052.063    25170.159        7.992        7.372      104.844      228.716        4.759      332.864        1.808      858.274
01/29/2021  21:52:00      144.652      -24.098      -49.059      393.788       77.772      189.242   155068.823     6048.548    35812.603       11.038        9.846      146.646      269.322        3.373      332.843        1.775      858.277
01/29/2021  21:53:00      180.308      -15.350      -46.979      413.936       62.527      196.749   171342.606     3909.657    38710.074       12.441       10.698      180.960      281.833        2.426      332.775        1.662      858.296
01/29/2021  21:54:00      202.129      -22.271      -64.089      590.295       59.960      285.059   348447.916     3595.235    81258.861       23.929       21.665      203.352      407.675        4.019      333.106        2.215      858.313
01/29/2021  21:55:00       93.234      -14.433      -24.987      222.167       63.471      112.159    49358.182     4028.534    12579.590        3.773        3.298       94.344      150.993        2.561      332.743        1.605      858.331
01/29/2021  21:56:00       70.199       37.298       -9.770       49.427       61.545       29.797     2442.985     3787.843      887.856        0.677        0.356       79.492       26.843        0.114      332.481        1.171      858.348
01/29/2021  21:57:00      186.862       72.704      -42.030      450.721       40.999      215.587   203149.299     1680.895    46477.896       14.659       12.565      200.507      309.981        2.390      332.585        1.350      858.350
01/29/2021  21:58:00      140.565       14.455      -15.749      264.998       56.499      126.695    70223.931     3192.082    16051.655        5.482        4.473      141.306      180.456        1.631      332.433        1.095      858.348
01/29/2021  21:59:00      188.541       36.330      -48.473      508.072       56.844      244.427   258137.453     3231.203    59744.653       18.010       16.056      192.009      350.081        3.324      332.695        1.535      858.334
01/29/2021  22:00:00       68.370      -35.028      -24.588      321.687       59.739      154.096   103482.367     3568.762    23745.581        6.862        6.540       76.821      219.127        8.136      332.716        1.563      858.341
01/29/2021  22:01:00       99.373      -32.826      -35.150      388.379       63.694      186.751   150838.292     4056.931    34876.090       10.094        9.489      104.655      265.520        6.437      332.934        1.924      858.355
01/29/2021  22:02:00       76.465        8.633      -35.011      474.117       42.105      224.961   224786.493     1772.836    50607.335       14.210       13.858       76.950      323.861       17.713      332.756        1.633      858.364
01/29/2021  22:03:00       90.230       38.828      -24.043      493.062       40.791      233.933   243110.523     1663.906    54724.773       15.480       14.975       98.229      337.508       11.806      332.887        1.850      858.363
01/29/2021  22:04:00      127.732       57.982      -33.765      473.492       39.233      224.418   224194.468     1539.246    50363.656       14.840       13.805      140.277      324.240        5.343      332.901        1.874      858.345
01/29/2021  22:05:00       43.414       27.152        1.546      213.030       47.757       97.990    45381.729     2280.710     9601.975        2.993        2.863       51.205      139.543        7.427      332.615        1.396      858.334
01/29/2021  22:06:00       88.667        8.019      -31.113      492.810       45.187      236.839   242862.166     2041.888    56092.479       15.488       15.050       89.028      339.582       14.549      333.131        2.253      858.338
01/29/2021  22:07:00       32.488      -10.411      -34.211      362.018       49.014      165.848   131057.287     2402.339    27505.537        8.162        8.048       34.115      241.918       50.286      332.854        1.792      858.335
01/29/2021  22:08:00       47.750       -7.819      -12.869      398.262       49.307      192.081   158613.003     2431.157    36895.002       10.018        9.897       48.386      273.946       32.055      332.966        1.978      858.326
01/29/2021  22:09:00       30.332      -23.345       -3.315      150.229       43.592       78.301    22568.610     1900.279     6130.984        1.603        1.530       38.276      102.488        7.170      332.842        1.770      858.313
01/29/2021  22:10:00       52.639        0.796      -12.622      283.507       46.041      138.287    80375.961     2119.804    19123.298        5.225        5.081       52.645      195.479       13.787      332.675        1.494      858.295
01/29/2021  22:11:00      137.490      -54.744      -40.674      383.306       37.031      181.402   146923.725     1371.258    32906.634       10.234        9.060      147.988      262.258        3.141      332.765        1.646      858.289
01/29/2021  22:12:00       74.340       -5.889      -18.186      283.347       31.543      135.965    80285.615      994.983    18486.416        5.281        4.988       74.573      195.001        6.838      332.653        1.458      858.313
01/29/2021  22:13:00       21.377       -0.525        0.707       20.105       32.576       18.752      404.218     1061.203      351.622        0.114        0.091       21.384       22.644        1.121      332.448        1.118      858.334
01/29/2021  22:14:00       72.997        4.958      -21.548      430.074       39.426      208.827   184964.014     1554.436    43608.556       11.792       11.506       73.165      298.111       16.602      332.781        1.672      858.358
01/29/2021  22:15:00       82.748       10.669      -45.034      482.276       37.335      229.462   232589.881     1393.872    52652.752       14.775       14.332       83.433      331.160       15.754      332.903        1.876      858.395
01/29/2021  22:16:00       44.615       27.505      -21.392      361.048       31.834      173.610   130355.843     1013.420    30140.572        8.232        8.075       52.412      248.909       22.554      332.625        1.413      858.432
01/29/2021  22:17:00       49.850       38.451      -19.170      344.548       33.464      163.269   118713.075     1119.855    26656.803        7.538        7.324       62.957      235.311       13.970      332.548        1.287      858.437
01/29/2021  22:18:00       77.440        2.701      -22.068      328.100       52.681      160.613   107649.654     2775.261    25796.675        7.133        6.811       77.487      226.928        8.577      332.651        1.454      858.397
01/29/2021  22:19:00       96.717      -28.828      -40.168      351.105       49.205      172.275   123275.061     2421.114    29678.775        8.355        7.769      100.922      243.291        5.811      332.701        1.539      858.387
01/29/2021  22:20:00      134.933      -56.873      -45.941      441.195       59.519      212.028   194653.275     3542.536    44955.930       13.330       12.158      146.429      303.626        4.300      332.686        1.517      858.368
01/29/2021  22:21:00      143.849      -85.694      -41.637      384.324       43.218      185.989   147705.079     1867.763    34591.799       10.693        9.208      167.440      265.212        2.509      332.659        1.470      858.351
01/29/2021  22:22:00      103.227      -59.641      -39.742      367.417       49.638      178.381   134995.422     2463.968    31819.953        9.250        8.464      119.217      252.922        4.501      332.630        1.421      858.347
01/29/2021  22:23:00       55.359      -74.040      -26.618      292.804       55.626      135.553    85734.425     3094.208    18374.487        5.821        5.360       92.448      195.012        4.450      332.517        1.232      858.388
01/29/2021  22:24:00       56.500       11.359      -17.736      374.410       57.925      176.681   140182.530     3355.361    31216.166        8.916        8.738       57.630      254.229       19.460      332.660        1.473      858.417
01/29/2021  22:25:00      168.028      -81.274      -55.927      349.869       95.674      170.214   122408.432     9153.508    28972.785        9.922        8.027      186.652      240.588        1.661      332.546        1.283      858.426
01/29/2021  22:26:00      113.788      -30.067      -45.440      305.900       60.491      143.454    93575.095     3659.173    20578.984        6.684        5.891      117.694      205.044        3.035      332.711        1.555      858.400
01/29/2021  22:27:00       63.529      -23.782      -28.861      356.346       51.436      167.638   126982.628     2645.661    28102.435        8.155        7.887       67.834      240.438       12.563      332.584        1.346      858.405
01/29/2021  22:28:00       86.084       -8.063      -26.749      342.591       37.435      163.703   117368.441     1401.399    26798.751        7.685        7.278       86.460      234.720        7.370      332.691        1.523      858.415
01/29/2021  22:29:00       84.136      -14.556      -28.958      447.650       44.557      210.361   200390.341     1985.322    44251.785       12.733       12.331       85.386      305.066       12.765      332.836        1.764      858.423
01/29/2021  22:30:00       38.205      -25.584      -20.860      350.338       36.566      166.212   122736.650     1337.055    27626.388        7.709        7.585       45.980      239.527       27.138      332.681        1.505      858.435
01/29/2021  22:31:00      117.535      -51.827      -38.388      398.122       44.846      190.949   158500.892     2011.128    36461.577       10.743        9.849      128.455      273.655        4.538      332.607        1.385      858.438
01/29/2021  22:32:00      134.693       15.776      -54.800      445.545       64.909      213.119   198510.248     4213.234    45419.685       13.472       12.407      135.613      305.180        5.064      332.785        1.681      858.425
01/29/2021  22:33:00       57.766       15.834      -14.244      235.576       51.866      116.877    55496.119     2690.134    13660.299        3.780        3.592       59.897      162.263        7.339      332.512        1.225      858.429
01/29/2021  22:34:00      125.533      -32.695      -47.135      385.946       56.493      178.866   148953.937     3191.414    31993.208       10.155        9.207      129.721      259.975        4.016      332.909        1.884      858.460
01/29/2021  22:35:00       85.143      -64.037      -32.880      193.857       75.979       91.734    37580.564     5772.767     8415.104        3.209        2.588      106.536      127.916        1.442      332.579        1.335      858.457
01/29/2021  22:36:00      109.059     -111.048      -41.459      402.644       47.956      184.960   162122.401     2299.775    34210.363       11.225        9.932      155.645      270.330        3.017      332.664        1.479      858.475
01/29/2021  22:37:00       31.392       -0.190      -15.770      301.945       40.388      142.068    91170.772     1631.158    20183.400        5.709        5.649       31.393      203.407       41.982      332.621        1.404      858.490
01/29/2021  22:38:00     -103.436      -65.231       -2.141      196.798       82.085      100.360    38729.332     6737.974    10072.104        3.524        2.777      122.287      127.847        1.093      332.417        1.065      858.515
01/29/2021  22:39:00      -52.169      -76.179      -23.084      259.727       55.255      124.734    67458.242     3053.064    15558.483        4.755        4.303       92.330      172.389        3.486      332.517        1.233      858.518
01/29/2021  22:40:00       76.945      -89.190      -60.824      478.223       52.202      231.396   228696.772     2725.082    53544.316       15.121       14.248      117.794      328.901        7.796      333.084        2.175      858.507
01/29/2021  22:41:00       41.820      -14.529      -53.566      478.024       52.529      235.418   228506.490     2759.297    55421.623       14.570       14.334       44.272      329.863       55.515      333.393        2.686      858.484
01/29/2021  22:42:00       48.806     -107.043      -25.954       87.844       94.046       39.463     7716.535     8844.637     1557.315        1.631        0.906      117.644       56.763        0.233      332.731        1.584      858.493
01/29/2021  22:43:00      185.444     -141.290      -64.141      261.102       64.015      125.904    68174.420     4097.899    15851.825        7.328        4.406      233.136      177.653        0.581      332.495        1.193      858.494
01/29/2021  22:44:00      154.572     -117.301      -62.340      431.561       61.596      205.999   186244.483     3794.071    42435.578       13.696       11.624      194.041      295.927        2.326      332.549        1.289      858.494
01/29/2021  22:45:00       20.776      -27.057      -22.302      287.919       49.336      135.246    82897.523     2434.025    18291.495        5.262        5.181       34.113      194.045       32.356      332.610        1.387      858.535
01/29/2021  22:46:00       18.098      -17.404       -9.162      152.409       28.596       74.704    23228.532      817.738     5580.667        1.516        1.481       25.109      104.567       17.343      332.560        1.303      858.564
01/29/2021  22:47:00      -13.275        8.953      -11.598      337.061       42.051      162.170   113610.059     1768.316    26299.034        7.100        7.084       16.012      228.771      204.125      332.677        1.500      858.590
01/29/2021  22:48:00       19.826        7.546      -20.595      404.929       41.503      192.580   163967.673     1722.523    37087.100       10.178       10.139       21.214      277.023      170.531      332.790        1.686      858.605
01/29/2021  22:49:00      190.727      -86.427      -68.636      491.281       48.028      231.728   241357.231     2306.660    53697.774       17.290       14.868      209.395      336.056        2.576      333.018        2.066      858.592
01/29/2021  22:50:00      132.311     -127.333      -44.626      348.532       55.630      166.664   121474.445     3094.664    27776.889        9.400        7.617      183.630      238.864        1.692      332.721        1.572      858.623
01/29/2021  22:51:00       68.610      -34.112      -27.580      281.939       51.259      135.750    79489.435     2627.535    18428.047        5.357        5.027       76.622      189.212        6.098      332.777        1.663      858.630
01/29/2021  22:52:00      246.065      -64.530      -78.500      494.958       63.112      235.359   244982.957     3983.072    55393.784       18.755       15.218      254.386      339.408        1.780      333.174        2.323      858.600
01/29/2021  22:53:00      199.252      -88.731      -90.049      488.705      108.394      236.840   238832.179    11749.354    56093.333       18.111       15.334      218.116      337.445        2.393      333.132        2.254      858.588
01/29/2021  22:54:00      184.958     -106.601      -60.317      353.211       99.336      166.227   124757.922     9867.707    27631.503       10.570        8.113      213.479      239.115        1.255      332.825        1.741      858.599
01/29/2021  22:55:00      176.185     -125.331      -50.168      230.480       95.998      113.119    53121.122     9215.562    12795.980        6.218        3.757      216.215      157.273        0.529      332.583        1.337      858.614
01/29/2021  22:56:00      125.512      -51.817      -44.985       65.507       98.424       55.140     4291.195     9687.359     3040.377        1.874        0.851      135.787       44.450        0.107      332.564        1.308      858.619
01/29/2021  22:57:00      140.446      -13.728      -50.238      378.950       94.921      188.021   143603.400     9010.001    35351.833       10.516        9.398      141.115      260.075        3.397      333.058        2.129      858.626
01/29/2021  22:58:00      137.682      -58.076      -46.288      405.319       79.118      196.655   164283.303     6259.703    38673.051       11.680       10.461      149.429      278.532        3.474      333.096        2.193      858.675
01/29/2021  22:59:00       36.771      -42.101       -7.801      141.065       63.017       81.147    19899.394     3971.165     6584.822        1.681        1.523       55.898       96.337        2.970      332.664        1.475      858.714
01/29/2021  23:00:00       88.142      -25.086      -33.600      363.000       76.341      173.205   131768.765     5827.965    29999.953        8.853        8.380       91.643      245.823        7.195      332.761        1.639      858.753
01/29/2021  23:01:00       42.325      -18.199       -9.844      258.043       66.220      126.242    66586.325     4385.026    15937.052        4.455        4.345       46.072      176.454       14.669      332.711        1.555      858.787
01/29/2021  23:02:00       69.221       -6.067      -28.808      347.829       43.143      169.051   120985.137     1861.334    28578.231        7.851        7.571       69.486      240.459       11.975      332.616        1.398      858.818
01/29/2021  23:03:00      -25.798       22.366      -14.488      267.547       59.924      131.446    71581.175     3590.919    17278.099        4.689        4.623       34.143      181.007       28.105      332.558        1.300      858.871
01/29/2021  23:04:00     -127.152       77.907      -44.624      358.945       52.364      172.955   128841.743     2741.989    29913.357        9.283        8.075      149.121      244.291        2.684      332.600        1.370      858.929
01/29/2021  23:05:00      -21.406       39.871      -29.465      499.164       50.580      229.232   249164.666     2558.351    52547.335       15.353       15.214       45.254      330.828       53.443      332.848        1.784      858.964
01/29/2021  23:06:00       37.463       88.216      -53.156      501.324       44.717      230.857   251325.803     1999.590    53295.171       15.925       15.331       95.841      337.860       12.427      333.080        2.170      858.970
01/29/2021  23:07:00      108.901       19.986      -27.619      370.970       28.879      176.662   137618.909      833.996    31209.331        9.131        8.483      110.720      255.023        5.305      332.988        2.014      858.960
01/29/2021  23:08:00       66.641       29.333      -12.697      378.127       29.580      180.604   142980.118      874.991    32617.851        9.093        8.824       72.811      260.076       12.759      332.872        1.823      858.968
01/29/2021  23:09:00       54.708       25.773      -51.738      495.322       44.668      235.347   245343.887     1995.263    55388.414       15.447       15.136       60.475      339.428       31.502      333.066        2.147      859.019
01/29/2021  23:10:00       -4.001       33.955      -15.099      281.120       28.242      133.292    79028.552      797.612    17766.661        4.947        4.880       34.190      191.907       31.506      332.774        1.659      859.025
01/29/2021  23:11:00       41.316       53.327      -34.347      397.314       28.112      188.086   157858.721      790.257    35376.293        9.984        9.701       67.460      271.993       16.256      332.992        2.021      859.016
01/29/2021  23:12:00       62.210      139.879      -36.386      395.261       41.627      186.454   156231.321     1732.787    34765.180       10.870        9.636      153.089      270.017        3.111      332.901        1.870      859.013
01/29/2021  23:13:00      140.544      118.922      -45.115      393.779       53.308      185.552   155061.898     2841.773    34429.397       11.409        9.617      184.106      266.085        2.089      332.811        1.721      859.010
01/29/2021  23:14:00       76.538      -64.891      -36.565      335.353       60.696      155.553   112461.816     3683.957    24196.658        7.584        7.017      100.344      225.608        5.055      333.005        2.040      859.026
01/29/2021  23:15:00      102.550       19.214      -45.308      440.832       50.635      211.094   194332.867     2563.929    44560.865       12.715       12.073      104.335      302.315        8.396      333.200        2.364      859.028
01/29/2021  23:16:00       -8.192        9.749      -32.277      332.914       35.645      157.840   110831.807     1270.551    24913.414        6.908        6.851       12.734      227.517      319.248      333.195        2.355      859.048
01/29/2021  23:17:00       65.776       47.831      -20.948      354.300       31.441      169.139   125528.479      988.535    28607.858        8.106        7.756       81.329      243.427        8.959      333.067        2.143      859.071
01/29/2021  23:18:00       37.184      -19.874      -30.836      425.368       40.153      199.167   180937.900     1612.302    39667.464       11.243       11.111       42.162      289.118       47.023      333.101        2.202      859.109
01/29/2021  23:19:00       54.361       -7.541      -50.322      480.161       58.703      227.301   230554.703     3446.083    51665.634       14.554       14.283       54.881      327.121       35.528      333.137        2.263      859.171
01/29/2021  23:20:00       44.180      -10.470      -36.832      465.478       51.137      224.160   216670.042     2614.989    50247.919       13.642       13.477       45.403      320.670       49.881      333.343        2.603      859.210
01/29/2021  23:21:00       46.235      -69.960      -28.514      312.240       35.254      149.710    97493.720     1242.849    22413.018        6.447        6.057       83.857      212.015        6.392      333.051        2.115      859.235
01/29/2021  23:22:00       28.143      -51.391      -42.676      423.962       30.874      201.127   179744.085      953.201    40451.945       11.315       11.057       58.592      290.609       24.600      333.190        2.349      859.261
01/29/2021  23:23:00       75.639      -13.104      -49.412      487.085       26.701      231.883   237251.854      712.923    53769.677       14.997       14.587       76.766      334.850       19.027      333.390        2.681      859.278
01/29/2021  23:24:00       38.072       -3.290       -9.767      244.085       73.714      116.888    59577.632     5433.712    13662.840        4.010        3.934       38.213      166.646       19.018      332.919        1.897      859.276
01/29/2021  23:25:00      170.994      -91.300      -56.240      356.756       46.401      172.050   127274.947     2153.096    29601.106        9.985        7.951      193.841      245.653        1.606      333.189        2.344      859.278
01/29/2021  23:26:00      151.199      -34.810      -56.169      380.333       57.683      184.699   144653.154     3327.382    34113.662       10.462        9.105      155.155      262.302        2.858      333.314        2.551      859.288
01/29/2021  23:27:00      103.161       11.477      -22.720      363.443       51.464      174.580   132090.906     2648.586    30478.094        8.822        8.261      103.797      248.820        5.746      333.243        2.435      859.316
01/29/2021  23:28:00      148.483      -25.958      -42.014      337.000       60.957      161.934   113568.923     3715.703    26222.563        8.397        7.175      150.735      231.902        2.367      333.046        2.109      859.312
01/29/2021  23:29:00      159.236      -50.856      -52.743      389.328       54.808      183.972   151576.241     3003.936    33845.676       10.953        9.421      167.160      264.948        2.512      333.047        2.111      859.306
01/29/2021  23:30:00       65.155      -71.614      -15.521      233.136       82.645      119.961    54352.502     6830.229    14390.574        4.258        3.779       96.818      161.740        2.791      333.044        2.102      859.301
01/29/2021  23:31:00       94.020       10.630      -19.345      231.170       65.064      105.691    53439.692     4233.263    11170.557        3.907        3.442       94.618      148.151        2.452      333.173        2.316      859.322
01/29/2021  23:32:00       92.292        0.062      -32.814      350.038       59.732      167.423   122526.449     3567.855    28030.625        8.183        7.706       92.292      239.645        6.742      333.297        2.524      859.360
01/29/2021  23:33:00       80.149       31.642      -21.205      256.914       25.181      125.082    66004.753      634.061    15645.483        4.506        4.114       86.168      176.549        4.198      333.092        2.183      859.390
01/29/2021  23:34:00       84.993        2.309      -48.625      383.938       54.233      184.995   147408.694     2941.228    34223.158        9.704        9.229       85.024      264.705        9.693      333.226        2.407      859.384
01/29/2021  23:35:00       71.101       29.886      -21.088      276.485       41.133      132.953    76443.777     1691.947    17676.432        5.108        4.791       77.127      189.730        6.051      332.904        1.875      859.380
01/29/2021  23:36:00       92.321        6.049      -17.200      310.066       39.633      145.456    96141.012     1570.737    21157.524        6.384        5.943       92.519      210.239        5.164      333.044        2.104      859.401
01/29/2021  23:37:00       21.394      -18.139      -19.715      334.842       28.140      160.492   112119.335      791.868    25757.651        6.989        6.933       28.049      231.035       67.847      333.160        2.297      859.434
01/29/2021  23:38:00       23.430       14.577       -8.908      288.064       19.516      137.909    82980.757      380.861    19019.004        5.159        5.119       27.595      198.333       51.658      333.020        2.064      859.453
01/29/2021  23:39:00       40.570       18.297      -14.953      299.790       19.485      144.157    89873.938      379.653    20781.303        5.660        5.552       44.505      206.905       21.614      332.994        2.023      859.448
01/29/2021  23:40:00       -1.784      -27.981      -23.870      233.822       35.209      111.843    54672.842     1239.657    12508.864        3.487        3.421       28.038      160.561       32.794      333.058        2.126      859.465
01/29/2021  23:41:00       76.892      -26.116      -34.436      456.225       24.858      222.410   208141.449      617.915    49466.214       13.295       12.911       81.206      317.394       15.276      333.264        2.472      859.526
01/29/2021  23:42:00       13.029      -13.392        7.571      216.539       25.188      106.624    46889.019      634.433    11368.651        2.964        2.945       18.684      148.012       62.757      332.976        1.992      859.589
01/29/2021  23:43:00       39.813      -23.760      -26.598      371.833       34.003      175.081   138259.800     1156.203    30653.373        8.643        8.503       46.364      253.433       29.878      333.111        2.217      859.592
01/29/2021  23:44:00       90.837      -39.413      -45.045      221.646       56.298      106.817    49127.074     3169.452    11409.842        3.776        3.185       99.019      150.945        2.324      333.079        2.161      859.572
01/29/2021  23:45:00        9.387      -21.475      -33.022      265.985       42.348      128.127    70748.086     1793.360    16416.542        4.528        4.448       23.437      182.297       60.499      333.095        2.188      859.586
01/29/2021  23:46:00       55.570      -36.592      -27.851      335.196       41.357      159.026   112356.680     1710.438    25289.239        7.225        6.968       66.536      230.089       11.959      333.123        2.236      859.620
01/29/2021  23:47:00       63.469      -51.248      -29.832      364.826       50.067      170.671   133098.177     2506.732    29128.682        8.610        8.237       81.576      247.342        9.193      333.171        2.314      859.619
01/29/2021  23:48:00      -48.260      -26.126      -11.261      156.041       36.692       73.960    24348.671     1346.310     5470.146        1.715        1.558       54.878      103.345        3.546      332.992        2.016      859.625
01/29/2021  23:49:00        8.480       14.721       -5.470      214.953       42.076      104.522    46204.807     1770.356    10924.788        2.960        2.945       16.989      147.379       75.259      333.056        2.122      859.640
01/29/2021  23:50:00     -123.388       55.634      -14.750      259.116       62.401      125.685    67141.012     3893.869    15796.820        5.267        4.342      135.350      170.724        1.591      333.062        2.132      859.624
01/29/2021  23:51:00     -118.042       27.544      -16.980      301.242       48.632      141.902    90746.584     2365.084    20136.117        6.409        5.662      121.213      200.477        2.735      332.968        1.978      859.585
01/29/2021  23:52:00       53.806      -77.362      -58.409      425.572       71.070      202.060   181111.732     5050.919    40828.368       11.959       11.350       94.234      286.956        9.273      333.257        2.458      859.579
01/29/2021  23:53:00       87.006     -115.486      -58.125      380.929       80.956      184.601   145106.533     6553.811    34077.557       10.497        9.287      144.593      260.072        3.235      333.271        2.481      859.570
01/29/2021  23:54:00      -18.500      -32.772      -23.903      309.185       44.684      149.851    95595.559     1996.677    22455.352        6.099        6.002       37.633      210.569       31.308      333.243        2.433      859.583
01/29/2021  23:55:00        9.557       26.765      -14.564      302.613       42.449      142.828    91574.382     1801.933    20399.737        5.737        5.689       28.420      202.563       50.800      333.099        2.195      859.593
01/29/2021  23:56:00      -27.597      -97.548      -41.773      392.497       49.524      184.867   154054.169     2452.641    34175.929       10.131        9.534      101.377      267.222        6.948      333.198        2.360      859.552
01/29/2021  23:57:00      -27.878      -57.529      -25.405      303.154       56.072      142.018    91902.194     3144.116    20169.148        5.995        5.761       63.927      201.549        9.940      333.164        2.302      859.547
01/29/2021  23:58:00       32.339      -53.629      -53.505      522.993       44.433      248.378   273521.683     1974.314    61691.507       17.192       16.859       62.625      358.221       32.719      333.341        2.601      859.522
01/29/2021  23:59:00      -10.327      -52.853      -25.551      326.299       63.685      157.167   106470.910     4055.754    24701.428        6.936        6.761       53.852      223.940       17.292      333.232        2.417      859.505
01/30/2021  00:00:00       22.142      -33.277      -38.764      393.231       48.532      188.752   154630.920     2355.376    35627.382        9.782        9.631       39.970      270.432       45.777      333.344        2.603      859.508
01/30/2021  00:01:00        5.276      -20.632      -27.408      404.141       36.593      192.078   163330.212     1339.013    36893.927       10.134       10.078       21.295      275.505      167.374      333.165        2.306      859.505
01/30/2021  00:02:00       -5.483      -83.704      -31.341      344.698       36.262      165.940   118816.962     1314.913    27536.047        7.781        7.383       83.883      234.826        7.837      333.281        2.496      859.486
01/30/2021  00:03:00      -11.753      -69.593      -33.493      343.109       35.454      162.985   117723.947     1257.020    26564.002        7.579        7.277       70.579      233.336       10.930      333.277        2.491      859.467
01/30/2021  00:04:00       43.052      -77.915      -50.840      365.095       48.121      173.695   133294.164     2315.616    30169.977        8.811        8.289       89.019      249.015        7.825      333.221        2.397      859.441
01/30/2021  00:05:00      -29.818        8.390       -0.282       45.848       38.508       23.274     2102.021     1482.864      541.701        0.254        0.206       30.976       26.776        0.747      332.992        2.014      859.436
01/30/2021  00:06:00       47.025      -18.852      -32.723      413.087       55.798      197.585   170641.196     3113.370    39039.828       10.817       10.640       50.663      283.607       31.337      333.200        2.365      859.457
01/30/2021  00:07:00      -28.335       21.782      -33.166      426.028       59.215      204.077   181500.212     3506.386    41647.530       11.447       11.333       35.740      292.128       66.811      333.114        2.223      859.464
01/30/2021  00:08:00     -113.515      -24.931      -29.018      353.268       88.531      165.490   124798.478     7837.776    27386.780        8.715        8.001      116.221      229.898        3.913      333.059        2.128      859.447
01/30/2021  00:09:00      -98.796     -142.405      -35.339      370.529      125.015      182.107   137291.840    15628.634    33162.795       10.865        9.304      173.320      245.587        2.008      333.228        2.406      859.396
01/30/2021  00:10:00     -167.062      -77.904      -35.203      353.265       97.660      173.334   124796.264     9537.487    30044.666        9.976        8.219      184.333      228.519        1.537      333.125        2.234      859.355
01/30/2021  00:11:00     -135.815      -26.674      -31.441      385.502       62.485      177.666   148611.545     3904.345    31565.299       10.207        9.204      138.410      248.009        3.211      333.111        2.215      859.347
01/30/2021  00:12:00     -124.215      -10.269      -38.378      419.684       79.487      204.544   176134.298     6318.181    41838.431       12.060       11.215      124.639      283.161        5.161      333.079        2.161      859.340
01/30/2021  00:13:00     -240.445      -51.988      -31.873      311.744       82.264      134.952    97184.380     6767.437    18212.076        9.182        6.108      246.001      159.468        0.420      332.962        1.967      859.309
01/30/2021  00:14:00     -242.095      -59.723      -13.430      403.949      156.338      179.128   163175.060    24441.706    32086.689       14.098       10.985      249.353      235.684        0.893      333.028        2.076      859.290
01/30/2021  00:15:00     -317.065      -43.928      -33.564      406.233      126.505      206.167   165025.491    16003.591    42504.794       16.351       11.177      320.094      261.309        0.666      333.107        2.207      859.245
01/30/2021  00:16:00     -493.393     -111.197      -17.606      250.441      120.661      133.122    62720.605    14559.086    17721.405       17.554        4.750      505.768       84.193        0.028      332.916        1.889      859.229
01/30/2021  00:17:00     -314.783      -64.458      -13.923      396.738      112.140      189.807   157400.718    12575.371    36026.811       15.468       10.300      321.315      225.588        0.493      332.952        1.949      859.256
01/30/2021  00:18:00     -183.386      -15.333       -7.364      221.721      114.374       85.064    49160.054    13081.467     7235.855        5.168        3.474      184.026       66.107        0.129      332.801        1.698      859.286
01/30/2021  00:19:00     -185.380      -97.301      -30.525      220.662      121.225      109.551    48691.869    14695.463    12001.506        6.006        3.769      209.364      124.632        0.354      332.912        1.882      859.240
01/30/2021  00:20:00      -85.899      -58.168      -63.113      614.143       98.921      284.857   377171.835     9785.330    81143.428       24.132       23.405      103.740      409.703       15.597      333.351        2.621      859.216
01/30/2021  00:21:00     -246.290      -76.766      -44.483      443.351      101.367      202.330   196560.549    10275.301    40937.491       15.810       12.389      257.977      279.158        1.171      333.084        2.172      859.221
01/30/2021  00:22:00     -142.796      -72.739      -28.019      298.392      102.728      149.234    89037.913    10553.042    22270.874        7.414        6.093      160.256      196.643        1.506      333.012        2.049      859.236
01/30/2021  00:23:00     -153.671     -128.780      -37.973      330.765      108.810      156.666   109405.480    11839.721    24544.298        9.368        7.289      200.497      210.430        1.102      333.020        2.063      859.218
01/30/2021  00:24:00     -143.855     -116.027      -28.476      227.066       82.002      108.081    51559.003     6724.371    11681.509        5.245        3.498      184.815      143.325        0.601      332.951        1.946      859.202
01/30/2021  00:25:00     -192.367     -135.704      -47.188      323.171      110.576      156.363   104439.319    12226.976    24449.463        9.935        7.056      235.415      212.863        0.818      332.980        1.995      859.192
01/30/2021  00:26:00      -96.387      -79.087      -15.219      186.940       77.175       90.161    34946.406     5955.918     8128.963        3.239        2.452      124.680      113.841        0.834      332.925        1.906      859.190
01/30/2021  00:27:00       55.677     -101.055      -55.268      505.821       51.365      243.381   255855.217     2638.350    59234.389       16.698       15.886      115.378      348.069        9.101      333.258        2.464      859.202
01/30/2021  00:28:00       47.279     -123.307      -40.813      215.630       55.381      103.743    46496.111     3067.108    10762.568        3.970        3.016      132.060      141.482        1.148      332.966        1.974      859.217
01/30/2021  00:29:00      190.910     -182.706      -73.188      505.224       84.735      242.518   255251.631     7179.940    58815.112       19.815       16.062      264.250      347.673        1.731      333.255        2.456      859.251
01/30/2021  00:30:00      153.615     -245.459      -55.090      408.860       77.090      197.411   167166.537     5942.888    38971.123       14.944       10.604      289.565      280.591        0.939      332.996        2.022      859.278
01/30/2021  00:31:00      185.999     -228.436      -68.569      427.141       66.376      204.645   182449.850     4405.806    41879.639       16.006       11.437      294.582      292.663        0.987      332.949        1.947      859.310
01/30/2021  00:32:00      202.930     -108.692      -90.377      511.924       91.547      244.387   262066.479     8380.826    59724.811       19.560       16.509      230.205      352.019        2.338      333.052        2.122      859.277
01/30/2021  00:33:00       12.280      -56.194      -24.820       65.554       76.487       39.765     4297.385     5850.236     1581.251        0.782        0.586       57.520       34.098        0.351      332.807        1.711      859.292
01/30/2021  00:34:00       44.642      -85.725      -20.271      283.715       77.338      132.623    80494.401     5981.217    17588.827        5.689        5.203       96.653      190.350        3.879      332.863        1.805      859.354
01/30/2021  00:35:00      118.983      -96.544      -36.295      302.775       71.452      145.825    91672.912     5105.362    21264.880        7.139        5.902      153.224      207.773        1.839      332.812        1.721      859.434
01/30/2021  00:36:00      151.735     -122.537      -55.375      472.144       38.081      225.190   222919.871     1450.131    50710.362       15.803       13.754      195.036      324.620        2.770      332.973        1.991      859.493
01/30/2021  00:37:00       43.561      -41.261      -21.269      238.796       23.474      113.347    57023.734      551.020    12847.539        3.722        3.521       60.000      163.390        7.416      332.829        1.749      859.573
01/30/2021  00:38:00       60.346      -19.077      -39.357      367.895       38.155      176.513   135346.683     1455.832    31156.803        8.672        8.398       63.290      253.618       16.058      333.032        2.088      859.627
01/30/2021  00:39:00       64.251        1.479      -16.571      268.728       52.894      131.721    72214.524     2797.744    17350.315        4.836        4.618       64.268      184.580        8.249      332.909        1.881      859.635
01/30/2021  00:40:00      114.414      -80.808      -36.352      308.567       53.808      146.831    95213.687     2895.294    21559.304        7.028        5.983      140.073      210.980        2.269      332.968        1.978      859.601
01/30/2021  00:41:00       75.416     -106.138      -22.952       37.454       26.093       25.826     1402.797      680.825      666.970        1.011        0.138      130.203       24.249        0.035      332.646        1.446      859.586
01/30/2021  00:42:00       87.605     -117.859      -39.373      397.877       39.023      187.648   158306.368     1522.795    35211.673       10.904        9.752      146.851      269.630        3.371      332.891        1.854      859.612
01/30/2021  00:43:00        8.093      -38.769      -30.146      362.439       45.683      178.960   131362.070     2086.936    32026.564        8.394        8.274       39.605      251.849       40.437      333.082        2.168      859.624
01/30/2021  00:44:00       89.894      -22.735      -19.229      211.921       41.419      104.355    44910.441     1715.553    10889.862        3.323        2.876       92.725      145.432        2.460      332.966        1.973      859.629
01/30/2021  00:45:00      113.785      -63.153      -49.878      430.624       24.848      204.434   185437.024      617.415    41793.130       12.359       11.392      130.136      295.815        5.167      333.055        2.126      859.622
01/30/2021  00:46:00       41.044      -12.353      -20.329      368.627       39.987      175.027   135885.775     1598.989    30634.501        8.515        8.406       42.863      252.368       34.666      333.003        2.040      859.621
01/30/2021  00:47:00       -7.975       22.051      -31.474      422.965       34.365      204.723   178899.099     1180.963    41911.422       11.172       11.100       23.449      292.079      155.150      332.955        1.961      859.652
01/30/2021  00:48:00      -15.464       46.668      -34.928      394.895       25.782      192.450   155942.164      664.722    37037.068        9.860        9.682       49.163      274.609       31.200      332.945        1.941      859.672
01/30/2021  00:49:00       72.731       53.086      -43.388      498.804       33.593      236.343   248805.470     1128.481    55857.898       15.783       15.290       90.044      341.630       14.395      333.033        2.092      859.695
01/30/2021  00:50:00       64.147       52.381      -15.687      266.836       30.017      128.497    71201.243      901.032    16511.388        4.784        4.431       82.816      183.652        4.918      332.737        1.596      859.726
01/30/2021  00:51:00       26.030       47.169      -23.912      382.130       31.465      184.273   146023.471      990.016    33956.447        9.218        9.048       53.875      263.180       23.863      332.897        1.863      859.746
01/30/2021  00:52:00      -46.678       58.205      -26.173      339.169       44.061      159.577   115035.419     1941.400    25464.903        7.432        7.122       74.610      230.242        9.523      332.854        1.792      859.761
01/30/2021  00:53:00       41.731       26.617      -43.403      480.846       58.144      229.859   231212.619     3380.735    52834.935       14.582       14.371       49.497      327.832       43.868      333.001        2.038      859.756
01/30/2021  00:54:00       97.675      102.118      -39.178      469.259       44.330      226.883   220204.212     1965.145    51475.914       14.752       13.682      141.310      324.908        5.287      333.134        2.259      859.753
01/30/2021  00:55:00      -11.877      125.647      -23.868      359.383       68.294      172.025   129155.981     4664.049    29592.477        8.992        8.171      126.207      247.089        3.833      332.931        1.918      859.776
01/30/2021  00:56:00       37.705       12.832      -14.687      362.996       46.729      169.025   131765.765     2183.598    28569.365        8.213        8.126       39.829      245.547       38.008      332.969        1.982      859.782
01/30/2021  00:57:00       -3.370      -33.283      -35.876      228.700       44.618      110.227    52303.888     1990.751    12149.930        3.441        3.322       33.453      156.364       21.848      332.931        1.916      859.810
01/30/2021  00:58:00       40.525       11.769      -22.354      375.253       30.379      179.130   140814.934      922.865    32087.529        8.802        8.691       42.200      257.493       37.231      333.021        2.068      859.829
01/30/2021  00:59:00       76.826        4.569      -46.455      506.718       33.043      238.900   256763.142     1091.844    57073.041       16.144       15.746       76.961      345.931       20.204      333.129        2.251      859.845
01/30/2021  01:00:00       26.380       -7.665      -26.638      389.829       30.440      185.150   151966.284      926.610    34280.390        9.428        9.359       27.471      266.833       94.349      332.951        1.952      859.857
01/30/2021  01:01:00       31.963       27.315      -16.667      219.227       47.305      105.182    48060.691     2237.798    11063.246        3.169        3.068       42.045      149.401       12.626      332.790        1.683      859.845
01/30/2021  01:02:00       -6.765      -29.896      -14.810      232.772       31.451      113.908    54182.994      989.143    12974.935        3.464        3.407       30.652      158.311       26.676      332.838        1.761      859.846
01/30/2021  01:03:00      -11.371      -30.582       -3.867      163.951       41.102       74.045    26879.903     1689.373     5482.590        1.756        1.703       32.628      104.441       10.246      332.774        1.655      859.853
01/30/2021  01:04:00      -35.893        3.721       -3.045      146.865       37.442       71.132    21569.204     1401.883     5059.814        1.466        1.402       36.086       96.514        7.153      332.648        1.448      859.846
01/30/2021  01:05:00      -46.119      -52.654      -29.564      268.553       37.864      127.364    72120.739     1433.701    16221.689        4.776        4.489       69.996      180.811        6.673      332.779        1.667      859.861
01/30/2021  01:06:00       27.108       -0.543      -33.385      440.990       45.164      208.491   194471.966     2039.802    43468.420       12.086       11.999       27.113      300.488      122.828      332.912        1.889      859.898
01/30/2021  01:07:00       16.069      -19.655      -14.955      293.789       34.269      133.829    86311.886     1174.374    17910.158        5.311        5.270       25.387      193.578       58.141      332.613        1.393      859.920
01/30/2021  01:08:00       31.072      -14.014      -21.335      361.898       37.754      175.631   130970.092     1425.381    30846.110        8.239        8.162       34.086      250.256       53.903      332.687        1.516      859.898
01/30/2021  01:09:00       19.498        5.029      -11.749      291.090       46.570      140.217    84733.620     2168.742    19660.838        5.353        5.328       20.136      199.747       98.401      332.556        1.297      859.895
01/30/2021  01:10:00       -5.694      -62.263      -20.888      276.001       47.755      130.031    76176.331     2280.534    16908.133        4.984        4.768       62.523      184.556        8.713      332.612        1.390      859.917
01/30/2021  01:11:00       23.490      -57.804      -42.141      437.995       44.505      215.162   191839.852     1980.679    46294.702       12.284       12.006       62.395      304.048       23.746      332.884        1.843      859.934
01/30/2021  01:12:00       56.806      -10.047      -58.908      508.548       33.309      244.270   258621.488     1109.507    59667.661       16.303       15.970       57.688      351.600       37.148      332.894        1.863      859.971
01/30/2021  01:13:00        6.657        1.275      -14.392      298.668       29.900      140.055    89202.842      893.983    19615.534        5.496        5.486        6.778      202.890      895.933      332.615        1.396      860.016
01/30/2021  01:14:00       61.642      -30.600      -32.972      484.723       41.989      231.977   234956.535     1763.081    53813.259       14.812       14.527       68.819      332.953       23.407      332.787        1.684      860.063
01/30/2021  01:15:00       35.832      -26.297      -43.020      457.069       36.912      214.704   208912.233     1362.491    46097.793       13.004       12.819       44.446      312.112       49.312      332.745        1.614      860.083
01/30/2021  01:16:00       50.470       11.859      -24.360      351.063       36.226      165.886   123244.991     1312.318    27518.158        7.765        7.604       51.845      239.055       21.261      332.592        1.360      860.065
01/30/2021  01:17:00       78.698       18.578      -39.591      451.542       34.530      217.285   203890.420     1192.334    47212.612       13.015       12.615       80.861      311.261       14.817      332.693        1.528      860.082
01/30/2021  01:18:00       16.236       25.048      -24.500      343.438       30.874      163.801   117949.610      953.197    26830.689        7.358        7.287       29.850      235.541       62.266      332.479        1.172      860.095
01/30/2021  01:19:00       34.567       -1.566      -20.566      341.883       30.347      160.913   116884.214      920.967    25893.030        7.263        7.185       34.603      233.194       45.416      332.468        1.155      860.128
01/30/2021  01:20:00       93.473       27.471      -33.880      399.375       34.088      179.920   159500.058     1162.008    32371.039       10.180        9.652       97.426      266.413        7.478      332.616        1.398      860.152
01/30/2021  01:21:00      109.187       -1.931      -36.400      456.876       40.615      220.389   208736.054     1649.569    48571.424       13.605       12.948      109.204      315.355        8.339      332.697        1.534      860.161
01/30/2021  01:22:00       31.462       -4.846      -14.109      222.199       40.962      106.795    49372.449     1677.896    11405.170        3.182        3.123       31.833      151.123       22.537      332.519        1.236      860.154
01/30/2021  01:23:00      126.807      -55.930      -58.036      391.419       64.253      191.061   153208.841     4128.423    36504.357       10.817        9.692      138.593      271.301        3.832      332.703        1.543      860.124
01/30/2021  01:24:00       52.907      -39.817      -22.998      415.793       38.741      198.018   172883.851     1500.863    39211.085       10.921       10.680       66.216      284.812       18.501      332.837        1.765      860.126
01/30/2021  01:25:00      125.948        6.510      -46.314      475.673       43.715      229.903   226265.195     1911.029    52855.161       14.948       14.052      126.116      328.873        6.800      332.864        1.810      860.122
01/30/2021  01:26:00      109.562      -34.430      -47.235      435.936       52.226      209.776   190039.800     2727.580    44006.081       12.605       11.839      114.844      300.305        6.838      332.949        1.949      860.124
01/30/2021  01:27:00      163.877       12.281      -56.816      519.653       60.754      247.162   270039.385     3691.023    61089.296       18.245       16.741      164.337      356.592        4.708      332.796        1.700      860.146
01/30/2021  01:28:00      106.529       23.777      -24.849      306.879       50.910      146.383    94174.640     2591.798    21427.910        6.534        5.910      109.150      210.035        3.703      332.302        0.880      860.194
01/30/2021  01:29:00      140.456       43.834      -25.998      392.365       48.485      185.428   153950.287     2350.765    34383.386       10.646        9.534      147.137      267.717        3.311      332.269        0.826      860.195
01/30/2021  01:30:00      157.489       14.038      -26.504      299.769       47.228      142.586    89861.266     2230.449    20330.879        6.904        5.621      158.114      203.024        1.649      332.264        0.816      860.185
01/30/2021  01:31:00      127.871       -3.667      -14.051      238.254       53.248      110.562    56765.079     2835.381    12223.949        4.418        3.591      127.923      156.853        1.503      332.241        0.778      860.201
01/30/2021  01:32:00      157.618       18.722      -35.595      475.882       56.010      224.481   226463.597     3137.131    50391.672       15.317       14.000      158.726      324.562        4.181      332.474        1.167      860.239
01/30/2021  01:33:00      272.243       43.030      -74.939      626.317       34.961      293.198   392273.370     1222.239    85964.871       28.042       23.973      275.623      427.270        2.403      332.635        1.439      860.250
01/30/2021  01:34:00      136.388       19.118      -17.600      354.631       54.780      171.565   125763.188     3000.866    29434.416        8.870        7.910      137.721      244.343        3.148      332.430        1.091      860.247
01/30/2021  01:35:00      124.974       46.263      -22.259      380.464       56.597      177.638   144753.230     3203.201    31555.208        9.884        8.976      133.262      257.007        3.719      332.508        1.222      860.251
01/30/2021  01:36:00      161.369       64.061      -33.698      465.191       37.983      220.323   216402.925     1442.692    48542.157       14.878       13.319      173.620      318.646        3.368      332.595        1.366      860.270
01/30/2021  01:37:00      116.022       52.112      -26.245      353.092       26.573      168.556   124673.699      706.107    28411.076        8.530        7.690      127.188      242.787        3.644      332.419        1.072      860.291
01/30/2021  01:38:00       28.138       55.977      -12.817      296.127       33.779      141.939    87691.239     1141.027    20146.812        5.651        5.449       62.651      202.773       10.475      332.423        1.080      860.334
01/30/2021  01:39:00      -22.564       10.615      -20.068      229.623       51.166      104.944    52726.686     2617.966    11013.341        3.368        3.318       24.937      149.664       36.021      332.413        1.062      860.361
01/30/2021  01:40:00       99.267      -17.692      -49.873      473.071       42.082      222.088   223796.588     1770.932    49322.927       14.371       13.745      100.831      322.081       10.203      332.740        1.607      860.319
01/30/2021  01:41:00       89.550        8.768      -31.931      417.999       37.613      197.545   174723.530     1414.767    39024.049       11.209       10.758       89.978      285.724       10.084      332.715        1.565      860.283
01/30/2021  01:42:00       61.775        5.538      -27.247      403.604       38.570      193.577   162895.962     1487.646    37472.090       10.318       10.093       62.023      277.673       20.043      332.707        1.550      860.267
01/30/2021  01:43:00      -42.349       27.168      -25.308      344.851       66.723      158.213   118922.054     4451.926    25031.381        7.576        7.420       50.314      221.259       19.338      332.814        1.724      860.248
01/30/2021  01:44:00       40.596      -57.169      -25.598      259.693       61.577      125.317    67440.546     3791.697    15704.441        4.624        4.347       70.116      175.323        6.252      332.701        1.537      860.249
01/30/2021  01:45:00      124.541       39.947      -48.536      484.070       56.382      235.838   234323.348     3178.941    55619.532       15.623       14.656      130.790      335.897        6.596      333.018        2.066      860.262
01/30/2021  01:46:00       72.019      -58.341      -42.850      462.550       86.399      216.424   213952.640     7464.714    46839.440       13.928       13.413       92.684      311.730       11.312      333.004        2.042      860.291
01/30/2021  01:47:00      -24.816     -110.559      -27.370      323.831       72.053      149.596   104866.754     5191.595    22378.996        7.298        6.622      113.310      211.214        3.475      332.936        1.926      860.322
01/30/2021  01:48:00       49.238       -0.674      -28.100      328.766       44.477      154.372   108086.912     1978.175    23830.572        6.853        6.695       49.243      222.642       20.442      332.826        1.745      860.335
01/30/2021  01:49:00       86.405      -24.839      -35.714      302.543       59.139      145.901    91532.036     3497.380    21287.071        6.281        5.816       89.905      204.591        5.179      332.724        1.576      860.317
01/30/2021  01:50:00       68.336       -1.555      -25.164      335.777       56.669      159.934   112746.352     3211.389    25578.810        7.339        7.077       68.354      228.630       11.188      332.741        1.605      860.310
01/30/2021  01:51:00       73.036       10.969      -28.523      437.640       34.775      209.814   191529.146     1209.322    44021.953       12.146       11.838       73.855      300.968       16.607      332.570        1.327      860.347
01/30/2021  01:52:00      144.093       55.370      -34.562      411.083       44.043      200.716   168989.564     1939.813    40287.020       11.807       10.561      154.365      285.203        3.414      332.325        0.920      860.340
01/30/2021  01:53:00      139.252       20.702      -46.902      308.005       71.989      147.792    94867.173     5182.464    21842.535        7.193        6.095      140.783      208.871        2.201      332.341        0.943      860.362
01/30/2021  01:54:00      125.954        9.580      -31.946      349.929       69.292      168.396   122450.138     4801.450    28357.251        8.626        7.780      126.318      238.455        3.564      332.632        1.426      860.417
01/30/2021  01:55:00      169.838       12.087      -45.375      413.638       58.340      196.260   171096.466     3403.542    38517.987       12.199       10.651      170.267      281.239        2.728      332.522        1.244      860.489
01/30/2021  01:56:00      119.203       27.666      -20.955      366.145       57.439      175.275   134062.162     3299.210    30721.425        9.171        8.404      122.372      249.947        4.172      332.367        0.987      860.552
01/30/2021  01:57:00      194.144       29.074      -30.951      428.419       43.485      204.860   183542.548     1890.978    41967.430       13.340       11.370      196.309      294.232        2.246      332.413        1.064      860.622
01/30/2021  01:58:00      225.573       31.345      -35.956      519.221       60.482      241.066   269590.551     3658.116    58112.908       19.219       16.568      227.740      350.906        2.374      332.557        1.305      860.630
01/30/2021  01:59:00      230.498       16.233      -27.123      394.290       56.184      192.199   155464.497     3156.679    36940.556       12.480        9.778      231.069      270.199        1.367      332.443        1.112      860.590
01/30/2021  02:00:00      175.656        9.708      -26.650      469.246       74.692      223.809   220192.255     5578.945    50090.684       15.370       13.793      175.925      320.598        3.321      332.593        1.364      860.586
01/30/2021  02:01:00      162.608      -65.796      -41.781      302.487       67.576      148.714    91498.177     4566.567    22115.920        7.532        5.909      175.415      207.757        1.403      332.524        1.245      860.612
01/30/2021  02:02:00      135.184      -15.665      -31.707      392.404       61.280      194.365   153980.518     3755.214    37777.842       10.748        9.776      136.089      272.084        3.997      332.646        1.449      860.645
01/30/2021  02:03:00      141.180      -31.249      -47.718      562.090       67.737      271.263   315945.069     4588.297    73583.864       20.857       19.706      144.597      388.652        7.224      332.989        2.020      860.674
01/30/2021  02:04:00      190.133      -38.812      -57.945      522.815       55.238      251.810   273335.524     3051.245    63408.324       19.033       16.990      194.054      360.295        3.447      332.730        1.593      860.665
01/30/2021  02:05:00      125.171        2.975      -15.838      350.031       77.404      168.198   122521.445     5991.354    28290.570        8.633        7.840      125.207      239.325        3.654      332.593        1.358      860.620
01/30/2021  02:06:00      164.175      -31.167      -38.017      436.695       58.968      209.215   190702.499     3477.225    43771.037       13.361       11.898      167.107      297.706        3.174      332.736        1.599      860.608
01/30/2021  02:07:00       95.171      -20.836       -8.810      314.630       54.134      153.955    98991.937     2930.455    23702.138        6.757        6.281       97.425      216.699        4.947      332.646        1.447      860.612
01/30/2021  02:08:00      137.974      -57.876      -47.400      467.901       60.776      224.041   218931.488     3693.764    50194.245       14.867       13.641      149.621      321.554        4.619      332.811        1.724      860.627
01/30/2021  02:09:00       87.467      -92.074      -28.631      217.574       49.819      102.557    47338.339     2481.902    10517.970        3.863        3.017      126.996      141.776        1.246      332.501        1.206      860.620
01/30/2021  02:10:00      186.828      -92.667      -65.819      480.571       56.614      231.472   230948.896     3205.197    53579.106       16.772       14.387      208.547      331.215        2.522      332.902        1.877      860.604
01/30/2021  02:11:00      142.440      -95.421      -46.378      372.896       36.035      176.089   139051.364     1298.521    31007.305       10.142        8.568      171.448      254.542        2.204      332.696        1.532      860.593
01/30/2021  02:12:00      117.860      -83.994      -34.983      335.819       41.322      162.045   112774.165     1707.519    26258.478        8.143        7.037      144.727      230.894        2.545      332.583        1.344      860.589
01/30/2021  02:13:00       55.365      -26.994      -42.947      478.618       55.186      231.599   229075.379     3045.471    53637.941       14.564       14.288       61.595      330.364       28.767      332.774        1.663      860.596
01/30/2021  02:14:00       42.414       20.416      -19.748      376.246       49.835      182.673   141561.295     2483.568    33369.418        8.997        8.871       47.072      259.024       30.280      332.651        1.458      860.589
01/30/2021  02:15:00       73.161       -5.781      -27.844      438.804       39.161      211.050   192548.551     1533.561    44542.297       12.234       11.931       73.389      302.523       16.993      332.828        1.751      860.565
01/30/2021  02:16:00        9.696       -2.290        2.530      194.193       40.753       94.781    37710.952     1660.838     8983.346        2.422        2.418        9.963      130.056      170.418      332.611        1.388      860.551
01/30/2021  02:17:00       -5.105       -2.003       -5.810      307.584       35.909      148.413    94607.805     1289.468    22026.278        5.897        5.896        5.484      210.338     1471.365      332.578        1.335      860.551
01/30/2021  02:18:00       92.778       -4.614      -35.819      521.474       47.689      253.618   271935.009     2274.268    64322.031       17.415       16.927       92.893      362.073       15.193      332.858        1.803      860.551
01/30/2021  02:19:00      -26.255      -31.107      -26.950      394.108       42.346      187.568   155320.818     1793.168    35181.888        9.730        9.615       40.706      268.131       43.389      332.784        1.676      860.568
01/30/2021  02:20:00        1.318      -14.338      -39.378      471.677       41.963      225.325   222479.625     1760.907    50771.466       13.833       13.751       14.398      322.712      502.356      332.879        1.836      860.595
01/30/2021  02:21:00      -29.734      -18.117      -34.072      474.127       65.183      227.299   224796.299     4248.793    51664.950       14.148       14.036       34.819      325.297       87.284      332.795        1.698      860.602
01/30/2021  02:22:00      -99.359      -15.090       -0.974      186.963       64.728       95.579    34955.120     4189.766     9135.288        2.918        2.414      100.499      119.203        1.407      332.524        1.244      860.613
01/30/2021  02:23:00      -78.888       25.358       -4.289      303.288       68.386      146.408    91983.499     4676.669    21435.247        6.247        5.905       82.863      201.914        5.938      332.543        1.276      860.621
01/30/2021  02:24:00      -26.017       20.446      -35.493      421.864       42.354      195.996   177968.923     1793.874    38414.436       11.022       10.909       33.090      285.338       74.359      332.672        1.493      860.639
01/30/2021  02:25:00        3.587        7.955      -54.013      507.583       43.853      244.008   257640.276     1923.078    59539.771       16.098       15.955        8.726      349.499     1604.066      332.761        1.642      860.658
01/30/2021  02:26:00      -33.925      -11.122      -10.067      292.557       56.470      143.869    85589.745     3188.872    20698.308        5.540        5.474       35.701      197.383       30.567      332.575        1.329      860.689
01/30/2021  02:27:00       58.990      -33.096      -41.971      506.875       44.413      241.395   256921.982     1972.548    58271.626       16.168       15.858       67.640      348.169       26.496      332.795        1.699      860.695
01/30/2021  02:28:00       22.315      -21.807      -51.776      555.427       47.415      262.848   308498.864     2248.139    69089.191       19.166       18.992       31.201      378.807      147.398      332.870        1.825      860.690
01/30/2021  02:29:00      -12.679      -54.868      -25.631      340.768       42.148      160.451   116122.949     1776.441    25744.547        7.371        7.182       56.314      231.561       16.908      332.678        1.501      860.664
01/30/2021  02:30:00       25.839      -36.060      -26.457      415.250       63.112      200.843   172432.419     3983.150    40337.866       10.967       10.838       44.362      286.012       41.566      332.838        1.765      860.648
01/30/2021  02:31:00       26.982      -29.977      -28.300      412.608       58.056      200.932   170245.408     3370.489    40373.665       10.816       10.699       40.331      283.696       49.480      332.866        1.811      860.647
01/30/2021  02:32:00       70.412       25.662      -16.873      401.201       45.245      192.981   160962.497     2047.093    37241.653       10.303       10.013       74.942      275.535       13.518      332.850        1.788      860.654
01/30/2021  02:33:00       36.822      -12.532      -27.548      360.121       39.728      174.886   129687.382     1578.337    30585.097        8.203        8.093       38.896      246.825       40.269      332.800        1.702      860.653
01/30/2021  02:34:00       -9.841      -43.323      -27.470      202.482       48.995       96.252    40998.762     2400.532     9264.484        2.768        2.633       44.427      133.670        9.053      332.592        1.356      860.660
01/30/2021  02:35:00        2.578        2.419      -11.886      317.341       40.200      153.423   100705.300     1616.016    23538.497        6.298        6.293        3.536      218.115     3805.895      332.677        1.499      860.690
01/30/2021  02:36:00       42.753        3.077      -11.010      392.905       37.111      186.109   154374.487     1377.208    34636.590        9.613        9.519       42.863      267.842       39.047      332.696        1.531      860.709
01/30/2021  02:37:00       26.991       17.100      -39.522      395.816       45.023      188.525   156670.694     2027.091    35541.495        9.837        9.712       31.952      270.920       71.894      332.721        1.574      860.714
01/30/2021  02:38:00      134.218        2.483      -59.018      608.543       42.157      292.255   370324.468     1777.226    85412.899       23.941       22.876      134.241      420.360        9.806      333.060        2.140      860.714
01/30/2021  02:39:00       -2.525      -14.775       -6.526      180.460       48.775       91.730    32565.786     2379.047     8414.473        2.180        2.168       14.990      121.545       65.750      332.571        1.321      860.702
01/30/2021  02:40:00      155.153       36.390      -38.259      413.898       49.445      197.695   171311.544     2444.786    39083.377       11.980       10.642      159.364      281.481        3.120      332.496        1.202      860.704
01/30/2021  02:41:00      145.325       17.946      -11.011      322.429       52.343      151.726   103960.536     2739.800    23020.884        7.561        6.486      146.428      217.718        2.211      332.246        0.786      860.706
01/30/2021  02:42:00      196.784       24.778      -26.888      424.187       43.892      198.182   179934.703     1926.524    39276.186       13.055       11.057      198.338      287.141        2.096      332.326        0.922      860.719
01/30/2021  02:43:00      117.503       19.745      -18.002      387.510       58.016      184.073   150164.134     3365.812    33882.890       10.093        9.371      119.150      264.140        4.914      332.388        1.024      860.727
01/30/2021  02:44:00      231.266       46.149      -66.160      533.865       49.599      256.061   285012.014     2460.012    65567.194       20.644       17.652      235.825      368.297        2.439      332.539        1.277      860.724
01/30/2021  02:45:00      213.082       23.291      -45.989      537.963       49.310      258.027   289404.112     2431.499    66578.085       20.316       17.921      214.351      370.787        2.992      332.506        1.222      860.726
01/30/2021  02:46:00      179.817       35.947      -19.764      353.731       52.509      170.705   125125.269     2757.150    29140.036        9.549        7.851      183.374      242.871        1.754      332.197        0.709      860.748
01/30/2021  02:47:00      257.184       14.394      -36.775      524.638       53.354      255.557   275245.039     2846.651    65309.334       20.548       17.170      257.587      363.721        1.994      332.507        1.223      860.772
01/30/2021  02:48:00      113.429       26.650      -21.429      443.136       53.907      213.651   196369.730     2905.924    45646.916       12.943       12.246      116.518      304.665        6.837      332.561        1.310      860.791
01/30/2021  02:49:00      182.773      -15.302      -62.369      546.059       57.246      255.688   298179.908     3277.106    65376.111       20.210       18.342      183.412      371.677        4.107      332.653        1.466      860.826
01/30/2021  02:50:00      141.069       21.225      -48.535      518.491       58.852      246.501   268833.233     3463.509    60762.500       17.781       16.653      142.657      355.356        6.205      332.518        1.241      860.854
01/30/2021  02:51:00      186.894      -22.580      -61.374      514.316       62.307      246.030   264520.506     3882.136    60530.567       18.400       16.447      188.253      353.489        3.526      332.687        1.520      860.867
01/30/2021  02:52:00      112.543      -18.505      -19.009      309.647       70.141      147.823    95881.159     4919.769    21851.649        6.799        6.133      114.054      208.267        3.334      332.708        1.549      860.887
01/30/2021  02:53:00      217.680      -64.957      -70.403      460.401       72.700      220.907   211968.838     5285.293    48799.862       16.125       13.303      227.165      315.759        1.932      332.848        1.784      860.893
01/30/2021  02:54:00      170.806      -83.564      -62.118      375.835       56.210      179.836   141251.988     3159.607    32340.886       10.835        8.838      190.151      257.965        1.840      332.508        1.220      860.896
01/30/2021  02:55:00      237.369     -162.315      -81.543      495.691       64.832      238.616   245709.236     4203.147    56937.579       19.803       15.342      287.559      341.278        1.409      332.676        1.498      860.895
01/30/2021  02:56:00      217.518     -230.642      -70.042      453.192       70.148      213.429   205382.908     4920.805    45552.055       18.058       12.793      317.033      308.947        0.950      332.519        1.238      860.900
01/30/2021  02:57:00      146.011     -155.652      -52.458      445.796       66.126      210.405   198733.883     4372.629    44270.105       14.779       12.369      213.417      303.150        2.018      332.525        1.250      860.911
01/30/2021  02:58:00      125.435     -119.790      -35.956      224.598      126.723      113.377    50444.296    16058.736    12854.328        5.535        3.968      173.447      151.596        0.764      332.321        0.906      860.927
01/30/2021  02:59:00      182.527      -53.151      -56.675      433.944       73.885      213.400   188307.444     5458.955    45539.501       13.928       11.965      190.108      300.651        2.501      332.627        1.419      860.916
01/30/2021  03:00:00       50.762      -40.330      -32.452      295.276       55.002      135.465    87187.895     3025.168    18350.673        5.689        5.428       64.833      195.670        9.109      332.500        1.205      860.908
01/30/2021  03:01:00       48.524      -16.646      -17.704      401.239       50.927      189.179   160992.445     2593.595    35788.740       10.112        9.969       51.300      272.936       28.307      332.647        1.452      860.901
01/30/2021  03:02:00       44.791      -42.288      -41.616      440.046       50.952      211.347   193640.718     2596.075    44667.537       12.316       12.045       61.599      302.261       24.078      332.755        1.631      860.889
01/30/2021  03:03:00       66.901      -17.529      -35.690      412.445       56.043      192.750   170110.821     3140.813    37152.498       10.819       10.520       69.160      278.270       16.189      332.735        1.597      860.897
01/30/2021  03:04:00       81.547      -15.733      -43.348      536.140       47.834      260.015   287446.100     2288.103    67608.021       18.298       17.867       83.051      370.012       19.849      332.732        1.595      860.919
01/30/2021  03:05:00       37.927      -14.294      -26.554      494.139       52.216      234.965   244173.226     2726.526    55208.651       15.216       15.105       40.532      336.317       68.851      332.530        1.260      860.946
01/30/2021  03:06:00      -60.172      -15.784      -13.852      338.231       56.239      158.306   114400.375     3162.829    25060.703        7.331        7.131       62.207      225.846       13.181      332.302        0.880      860.970
01/30/2021  03:07:00       10.158      -13.243      -30.166      509.679       54.645      245.478   259772.596     2986.115    60259.628       16.203       16.151       16.690      348.675      436.427      332.517        1.240      860.998
01/30/2021  03:08:00       -9.395       23.474      -12.290      338.439       52.621      159.393   114540.783     2768.927    25406.268        7.172        7.136       25.284      225.170       79.309      332.306        0.887      860.994
01/30/2021  03:09:00       57.331       53.676      -13.671      415.257       61.075      192.484   172438.554     3730.146    37049.977       10.974       10.661       78.536      275.310       12.289      332.434        1.098      860.948
01/30/2021  03:10:00     -112.507        6.528      -62.141      510.016       49.365      242.084   260115.918     2436.881    58604.656       16.879       16.058      112.696      345.699        9.410      332.620        1.407      860.956
01/30/2021  03:11:00       24.626        5.888      -37.423      504.603       53.625      241.624   254624.018     2875.592    58382.038       15.889       15.794       25.320      345.649      186.359      332.612        1.396      860.969
01/30/2021  03:12:00      -69.651       -8.333      -23.086      389.057       54.617      185.609   151365.230     2983.070    34450.844        9.709        9.440       70.148      263.341       14.093      332.490        1.192      860.981
01/30/2021  03:13:00       26.768      -13.683      -48.136      507.852       44.121      238.658   257914.012     1946.671    56957.825       15.995       15.841       30.063      345.441      132.037      332.645        1.451      860.958
01/30/2021  03:14:00      -33.843       18.309       -7.715      358.747       72.609      174.778   128699.104     5272.045    30547.180        8.300        8.226       38.478      243.297       39.980      332.655        1.463      860.949
01/30/2021  03:15:00     -123.386       31.377      -28.507      453.609       84.499      219.544   205761.459     7140.078    48199.485       13.901       13.055      127.313      306.266        5.787      332.763        1.639      860.970
01/30/2021  03:16:00      -98.498      -53.797      -53.501      523.466       89.857      256.496   274016.527     8074.224    65790.322       18.159       17.394      112.232      358.840       10.223      332.950        1.952      860.981
01/30/2021  03:17:00       72.618      -14.854      -48.445      618.266       67.056      287.655   382253.065     4496.561    82745.548       23.857       23.475       74.121      415.372       31.404      332.941        1.943      861.016
01/30/2021  03:18:00      -27.395       49.034       -5.828      302.496       54.588      145.443    91504.081     2979.878    21153.545        5.939        5.782       56.168      204.046       13.197      332.519        1.237      861.025
01/30/2021  03:19:00       39.931       14.587      -68.815      585.447       58.189      283.553   342748.371     3385.952    80402.063       21.645       21.327       42.512      404.955       90.738      333.017        2.069      861.011
01/30/2021  03:20:00      105.311        0.916      -51.910      606.159       72.367      283.030   367428.722     5236.987    80105.864       23.318       22.639      105.315      410.842       15.218      332.909        1.890      860.980
01/30/2021  03:21:00       80.564      -23.263      -36.337      432.343       60.312      210.872   186920.746     3637.521    44466.865       12.164       11.751       83.855      296.688       12.518      332.818        1.735      860.963
01/30/2021  03:22:00      -72.118     -104.745      -43.625      497.247      105.509      229.714   247255.070    11132.082    52768.437       16.455       15.558      127.171      329.587        6.717      332.875        1.828      860.957
01/30/2021  03:23:00     -174.455      -25.387      -12.762      235.505       62.980      124.426    55462.719     3966.488    15481.847        5.306        3.746      176.292      157.016        0.793      332.586        1.344      860.996
01/30/2021  03:24:00      -80.500      -49.299      -63.221      536.351       59.561      260.800   287672.165     3547.496    68016.634       18.599       17.962       94.396      368.157       15.211      332.849        1.786      861.036
01/30/2021  03:25:00      -50.192       -7.709      -50.568      549.538       81.146      257.998   301992.030     6584.725    66562.744       19.006       18.757       50.781      370.177       53.139      332.686        1.517      861.089
01/30/2021  03:26:00      -96.055      -14.033       -7.426      339.126       48.181      157.799   115006.442     2321.420    24900.397        7.582        7.111       97.075      221.129        5.189      332.447        1.119      861.138
01/30/2021  03:27:00       33.022      -49.823      -43.370      478.953       78.477      234.053   229396.371     6158.640    54780.882       14.783       14.517       59.773      331.832       30.819      332.812        1.726      861.152
01/30/2021  03:28:00       26.917        4.309       -4.113      335.576       60.699      162.630   112610.967     3684.346    26448.654        7.172        7.137       27.259      230.011       71.197      332.587        1.350      861.166
01/30/2021  03:29:00       80.066       74.877      -38.974      519.260       45.907      245.740   269630.922     2107.479    60388.054       17.276       16.606      109.623      354.383       10.451      332.814        1.732      861.223
01/30/2021  03:30:00      125.529       68.459      -42.368      444.513       47.563      217.119   197591.811     2262.207    47140.678       13.456       12.350      142.983      307.420        4.623      332.743        1.611      861.249
01/30/2021  03:31:00      155.294      -45.075      -48.793      471.012       62.184      225.378   221852.659     3866.828    50795.468       15.246       13.826      161.704      323.545        4.003      332.693        1.529      861.252
01/30/2021  03:32:00      198.554      -10.567      -58.116      541.878       83.304      260.758   293632.263     6939.606    67994.684       20.566       18.428      198.835      373.595        3.530      332.580        1.345      861.267
01/30/2021  03:33:00      209.178       42.345      -42.656      481.026       51.512      231.015   231385.645     2653.495    53367.967       16.733       14.370      213.421      331.045        2.406      332.448        1.125      861.285
01/30/2021  03:34:00      170.435       23.649      -28.054      412.205       54.928      195.652   169913.256     3017.135    38279.755       12.076       10.561      172.068      280.736        2.662      332.353        0.966      861.303
01/30/2021  03:35:00      215.420       53.843      -45.380      491.840       54.953      238.063   241906.932     3019.887    56673.998       17.642       15.080      222.047      339.101        2.332      332.185        0.692      861.327
01/30/2021  03:36:00      215.499       56.873      -59.617      581.426       62.620      280.646   338056.718     3921.273    78762.249       23.690       21.037      222.877      401.186        3.240      332.294        0.874      861.342
01/30/2021  03:37:00      232.428       67.480      -85.204      677.675       43.485      324.321   459242.861     1890.903   105184.055       31.596       28.316      242.026      467.232        3.727      332.414        1.078      861.354
01/30/2021  03:38:00      345.351       68.993     -121.423      805.558       46.033      379.908   648924.406     2119.024   144329.890       46.691       39.769      352.175      551.518        2.452      332.704        1.561      861.360
01/30/2021  03:39:00      167.918       37.018      -31.768      418.968       40.127      202.569   175534.473     1610.183    41034.323       12.433       10.909      171.950      288.881        2.823      331.868        0.167      861.350
01/30/2021  03:40:00      269.868       24.816      -67.070      631.075       50.821      307.076   398255.398     2582.810    94295.720       28.644       24.757      271.006      438.063        2.613      332.269        0.835      861.354
01/30/2021  03:41:00      253.474       43.858      -69.803      671.258       49.846      318.523   450587.601     2484.619   101456.787       31.267       27.726      257.241      460.235        3.201      332.224        0.762      861.376
01/30/2021  03:42:00      255.157       71.352      -86.537      715.285       48.165      340.935   511632.294     2319.833   116236.833       35.381       31.509      264.945      491.440        3.441      332.366        0.998      861.408
01/30/2021  03:43:00      296.187      102.747      -98.700      758.738       60.096      361.319   575683.619     3611.469   130551.680       40.879       35.492      313.502      521.539        2.768      332.553        1.309      861.423
01/30/2021  03:44:00      168.525      159.068      -37.579      511.572       57.357      246.137   261706.185     3289.776    60583.273       19.028       16.279      231.739      351.798        2.305      332.443        1.116      861.425
01/30/2021  03:45:00      130.045      210.220      -49.534      473.679       48.714      227.664   224371.603     2373.033    51830.763       17.101       13.929      247.192      326.267        1.742      332.196        0.707      861.438
01/30/2021  03:46:00       67.230      173.552      -37.501      504.814       56.303      241.066   254837.653     3170.010    58113.054       17.602       15.806      186.119      345.901        3.454      332.174        0.674      861.464
01/30/2021  03:47:00      128.346      174.484      -57.423      581.964       50.714      277.175   338682.573     2571.913    76826.025       23.406       20.904      216.604      399.964        3.410      332.317        0.912      861.468
01/30/2021  03:48:00      146.368      141.720      -62.033      562.070       50.747      271.238   315923.076     2575.294    73569.975       21.863       19.603      203.736      388.528        3.637      332.455        1.137      861.476
01/30/2021  03:49:00       34.821      106.957      -28.603      427.156       64.572      205.809   182462.415     4169.582    42357.234       12.118       11.449      112.482      291.088        6.697      332.070        0.499      861.467
01/30/2021  03:50:00       29.246       79.582      -28.292      351.350       69.910      164.801   123446.899     4887.394    27159.286        8.171        7.775       84.786      235.531        7.717      331.964        0.322      861.470
01/30/2021  03:51:00      124.560      244.973      -37.313      414.132       80.742      197.402   171505.014     6519.282    38967.606       14.691       10.850      274.822      282.968        1.060      332.440        1.107      861.462
01/30/2021  03:52:00      162.752       99.341      -55.607      560.807       63.478      273.773   314504.915     4029.497    74951.699       21.638       19.674      190.675      386.906        4.117      332.719        1.574      861.468
01/30/2021  03:53:00       25.786       48.294        4.395      205.930       60.396       98.831    42407.170     3647.705     9767.582        2.941        2.791       54.747      126.515        5.340      332.042        0.449      861.469
01/30/2021  03:54:00      143.133      146.574      -46.037      500.479       68.192      238.604   250479.523     4650.140    56931.766       17.801       15.603      204.868      341.412        2.777      332.555        1.301      861.450
01/30/2021  03:55:00      116.448       45.125      -49.309      512.304       55.324      245.393   262455.872     3060.709    60217.575       17.181       16.287      124.886      352.475        7.966      332.620        1.410      861.472
01/30/2021  03:56:00       86.467       12.223      -46.838      567.530       51.668      278.111   322090.461     2669.572    77345.688       20.588       20.105       87.327      392.642       20.216      332.633        1.433      861.486
01/30/2021  03:57:00       71.798        3.386      -28.918      529.813       48.564      250.077   280702.176     2358.417    62538.482       17.573       17.280       71.878      360.055       25.092      332.553        1.300      861.495
01/30/2021  03:58:00      -41.778        1.624      -24.581      512.783       67.312      250.424   262946.632     4530.839    62712.282       16.620       16.509       41.809      348.344       69.418      332.450        1.129      861.512
01/30/2021  03:59:00       -1.386        0.639      -19.868      455.900       66.087      217.145   207844.806     4367.503    47151.963       12.983       12.968        1.526      305.501    40067.977      332.317        0.907      861.528
01/30/2021  04:00:00      -15.601        1.044      -34.146      495.048       60.605      231.778   245072.125     3673.000    53720.926       15.187       15.123       15.636      326.941      437.212      332.321        0.914      861.550
01/30/2021  04:01:00      -96.667      -45.678      -43.870      486.922       72.136      239.475   237093.453     5203.590    57348.469       15.644       14.982      106.916      327.303        9.372      332.190        0.696      861.571
01/30/2021  04:02:00      -51.497      -11.496      -19.341      425.536       62.334      204.157   181080.763     3885.509    41680.188       11.486       11.332       52.764      285.727       29.324      332.118        0.579      861.596
01/30/2021  04:03:00      -55.844       -6.358      -44.336      531.406       64.457      253.182   282392.626     4154.661    64101.091       17.781       17.532       56.205      360.847       41.219      332.331        0.933      861.619
01/30/2021  04:04:00      -86.639       30.938       -6.571      363.740       55.896      172.316   132306.622     3124.322    29692.813        8.678        8.256       91.997      244.323        7.053      332.040        0.449      861.631
01/30/2021  04:05:00       38.581       13.791      -39.247      563.527       51.080      267.334   317562.670     2609.141    71467.696       19.735       19.582       40.972      383.362       87.546      332.270        0.834      861.647
01/30/2021  04:06:00      -51.757       -2.712      -21.134      419.243       51.652      200.147   175764.855     2667.931    40058.811       11.077       10.925       51.828      283.699       29.963      332.089        0.532      861.655
01/30/2021  04:07:00      -18.782       -4.499      -40.177      463.782       46.896      224.481   215093.809     2199.202    50391.882       13.478       13.384       19.313      319.161      273.096      332.202        0.717      861.657
01/30/2021  04:08:00       33.652       -8.709      -27.198      451.102       58.789      215.298   203493.382     3456.191    46353.379       12.757       12.665       34.761      307.470       78.240      332.194        0.704      861.665
01/30/2021  04:09:00       66.452      -14.226      -53.426      586.565       66.314      284.457   344058.515     4397.589    80915.836       21.833       21.469       67.958      405.961       35.685      332.358        0.979      861.688
01/30/2021  04:10:00       82.776      -30.637      -87.473      632.055       59.382      304.765   399493.893     3526.230    92881.562       25.557       24.795       88.264      436.190       24.422      332.484        1.189      861.717
01/30/2021  04:11:00       80.927        0.823      -50.919      598.974       66.581      283.267   358770.271     4433.013    80240.126       22.620       22.172       80.931      407.973       25.411      332.327        0.931      861.729
01/30/2021  04:12:00      160.823       11.841      -67.902      699.306       54.107      332.384   489029.354     2927.576   110479.426       31.640       30.122      161.258      478.410        8.801      332.502        1.224      861.735
01/30/2021  04:13:00       97.945      -28.051      -50.180      578.614       50.337      279.966   334794.215     2533.823    78381.103       21.422       20.785      101.882      399.742       15.394      332.316        0.911      861.723
01/30/2021  04:14:00      180.145        1.631      -70.914      701.650       52.357      338.985   492312.266     2741.249   114910.494       32.360       30.498      180.153      485.537        7.264      332.577        1.346      861.736
01/30/2021  04:15:00       59.352        3.038      -31.275      450.410      138.463      222.631   202869.193    19172.129    49564.618       13.800       13.580       59.430      296.154       24.833      332.151        0.635      861.769
01/30/2021  04:16:00      199.231        1.733      -77.029      705.656       49.140      334.951   497950.419     2414.730   112192.365       32.897       30.628      199.239      483.520        5.890      332.594        1.374      861.813
01/30/2021  04:17:00      169.934       18.474      -72.316      655.057       42.623      308.170   429100.270     1816.739    94968.703       28.006       26.294      170.936      447.622        6.857      332.462        1.155      861.855
01/30/2021  04:18:00      194.487       -6.955      -97.033      745.002       47.945      355.533   555027.787     2298.681   126403.773       36.537       34.187      194.611      512.701        6.941      332.666        1.495      861.885
01/30/2021  04:19:00      139.473       18.503      -34.998      558.081       51.014      262.195   311454.904     2602.445    68746.282       20.183       19.140      140.695      380.182        7.302      332.290        0.866      861.904
01/30/2021  04:20:00      152.368       51.403      -37.885      585.463       52.459      282.623   342766.441     2751.931    79875.491       22.625       21.270      160.805      404.240        6.319      332.140        0.620      861.907
01/30/2021  04:21:00      232.798       14.323      -75.022      675.907       58.263      325.942   456850.664     3394.601   106238.253       31.314       28.324      233.238      467.086        4.010      332.132        0.610      861.912
01/30/2021  04:22:00      332.732       21.757      -95.239      743.577       54.873      352.002   552907.090     3011.022   123905.523       39.990       33.991      333.443      509.318        2.333      332.033        0.453      861.919
01/30/2021  04:23:00      306.578       44.348      -70.285      679.088       60.496      327.247   461160.839     3659.733   107090.799       33.628       28.596      309.769      468.559        2.288      331.857        0.157      861.930
01/30/2021  04:24:00      227.661       30.081      -43.310      552.761       48.904      269.570   305544.775     2391.650    72667.777       21.753       19.030      229.640      383.620        2.791      331.680       -0.138      861.951
01/30/2021  04:25:00      244.801       31.839      -50.787      631.639       50.423      305.481   398967.884     2542.516    93318.693       27.907       24.741      246.863      437.064        3.135      331.770        0.014      861.969
01/30/2021  04:26:00      163.899       41.623       -5.264      431.120       50.673      207.793   185864.853     2567.737    43178.017       13.007       11.581      169.102      296.004        3.064      331.506       -0.427      861.987
01/30/2021  04:27:00      243.009       52.589      -46.592      554.631       56.063      262.649   307615.731     3143.031    68984.274       22.179       18.987      248.634      377.955        2.311      331.839        0.124      862.001
01/30/2021  04:28:00      232.911       48.561      -65.064      652.102       67.329      311.552   425236.553     4533.185    97064.463       29.373       26.342      237.920      448.002        3.546      332.085        0.532      862.027
01/30/2021  04:29:00      488.507       93.584     -161.527      962.482       61.164      461.479   926370.957     3741.057   212962.967       70.805       57.154      497.390      664.459        1.785      332.754        1.653      862.054
01/30/2021  04:30:00      281.183       42.799      -87.807      784.204       58.563      380.365   614975.678     3429.658   144677.153       42.569       38.154      284.421      543.739        3.655      332.305        0.903      862.066
01/30/2021  04:31:00      168.148      -11.699      -53.865      566.332       49.029      271.585   320732.175     2403.798    73758.400       21.402       19.845      168.554      390.004        5.354      332.109        0.569      862.072
01/30/2021  04:32:00      228.037       26.654      -87.779      715.620       56.477      339.077   512111.961     3189.612   114973.427       34.522       31.514      229.590      490.071        4.556      332.402        1.058      862.093
01/30/2021  04:33:00      230.839        6.603     -101.297      777.193       50.058      375.711   604028.605     2505.816   141158.422       40.549       37.385      230.934      538.788        5.443      332.397        1.054      862.110
01/30/2021  04:34:00      147.958       20.062      -64.839      652.991       50.102      314.517   426397.247     2510.176    98921.056       27.705       26.391      149.312      450.918        9.120      332.003        0.399      862.120
01/30/2021  04:35:00       62.760      -20.145      -59.583      549.731       42.485      265.955   302204.427     1804.990    70732.136       19.124       18.737       65.914      379.224       33.101      331.671       -0.154      862.122
01/30/2021  04:36:00       85.777      -14.571      -80.613      676.414       38.486      327.588   457536.241     1481.136   107313.671       29.008       28.317       87.006      468.335       28.975      332.097        0.554      862.119
01/30/2021  04:37:00       60.823        6.418      -23.957      466.321       51.932      224.995   217455.581     2696.916    50622.861       13.749       13.539       61.161      318.951       27.195      331.796        0.049      862.124
01/30/2021  04:38:00      251.454        5.288     -115.777      806.285       52.597      381.065   650095.953     2766.428   145210.845       43.720       39.904      251.509      551.366        4.806      332.567        1.336      862.134
01/30/2021  04:39:00      189.969        6.485      -64.036      651.324       40.360      316.308   424223.250     1628.953   100050.774       28.296       26.295      190.079      452.187        5.659      332.319        0.918      862.140
01/30/2021  04:40:00      220.162       16.573      -79.135      670.813       44.325      322.750   449990.529     1964.727   104167.763       30.545       27.806      220.785      463.582        4.409      332.346        0.964      862.146
01/30/2021  04:41:00      129.233       17.323      -41.803      523.742       43.986      253.984   274305.743     1934.809    64507.623       17.968       17.037      130.389      362.802        7.742      332.067        0.498      862.163
01/30/2021  04:42:00      254.446       32.062     -103.981      741.463       46.589      357.949   549766.983     2170.555   128127.369       37.818       34.003      256.458      513.598        4.011      332.495        1.214      862.172
01/30/2021  04:43:00      310.994       31.572     -137.792      844.232       38.907      399.758   712728.098     1513.788   159806.134       49.519       43.702      312.593      579.912        3.442      332.607        1.404      862.189
01/30/2021  04:44:00      279.247        8.052      -93.309      663.629       52.579      320.953   440403.978     2764.536   103010.592       31.635       27.309      279.363      457.523        2.682      332.038        0.454      862.206
01/30/2021  04:45:00      279.730        9.438      -86.697      697.517       75.160      341.050   486530.109     5649.071   116315.261       34.705       30.425      279.889      484.910        3.002      331.731       -0.048      862.211
01/30/2021  04:46:00      271.318       56.948      -77.374      668.223       72.408      320.887   446522.302     5242.952   102968.410       31.867       27.737      277.230      459.851        2.751      331.701       -0.099      862.216
01/30/2021  04:47:00      305.025       -7.756     -100.517      703.970       46.290      342.257   495573.848     2142.785   117139.932       35.890       30.743      305.123      489.155        2.570      331.980        0.363      862.228
01/30/2021  04:48:00      428.157       12.478     -165.854      953.532       46.560      453.481   909223.130     2167.855   205645.290       66.378       55.852      428.339      656.426        2.349      332.729        1.613      862.235
01/30/2021  04:49:00      319.870       27.354     -167.158      929.688      153.643      447.044   864319.968    23606.118   199848.018       60.916       54.389      321.037      630.943        3.863      332.524        1.272      862.246
01/30/2021  04:50:00        2.678       14.884      -38.392      439.515       36.658      208.766   193173.494     1343.780    43583.359       11.985       11.905       15.123      301.316      397.003      331.209       -0.917      862.252
01/30/2021  04:51:00      109.655       -5.737      -98.755      730.178      137.998      351.913   533159.251    19043.425   123842.895       34.879       33.802      109.805      493.046       20.162      331.713       -0.078      862.259
01/30/2021  04:52:00      123.369       20.529      -48.847      622.992       47.671      298.468   388119.235     2272.570    89083.206       24.865       23.974      125.065      429.257       11.780      331.413       -0.574      862.256
01/30/2021  04:53:00      187.398       23.332      -93.944      750.566       47.224      363.777   563349.701     2230.123   132333.458       37.105       34.896      188.845      520.178        7.587      331.879        0.198      862.247
01/30/2021  04:54:00      242.982        0.754     -139.121      868.589       75.611      412.331   754446.009     5717.038   170016.771       50.409       46.509      242.983      593.850        5.973      332.162        0.670      862.233
01/30/2021  04:55:00      205.929       43.595     -154.439      924.637       90.042      453.065   854954.220     8107.622   205267.832       56.802       53.416      210.493      642.663        9.322      332.066        0.519      862.222
01/30/2021  04:56:00      172.049        4.374     -112.504      805.730       57.869      385.178   649201.357     3348.799   148362.153       42.143       40.046      172.105      554.681       10.387      331.785        0.046      862.221
01/30/2021  04:57:00      291.267        6.204     -126.421      846.143       38.090      395.338   715957.292     1450.832   156292.331       48.710       43.685      291.333      576.341        3.914      332.002        0.406      862.229
01/30/2021  04:58:00      190.496        5.429      -97.764      758.260       38.656      360.942   574958.157     1494.312   130279.450       37.616       35.337      190.573      521.383        7.485      331.960        0.333      862.249
01/30/2021  04:59:00      310.973       -4.821     -156.880      934.756       35.662      449.814   873768.028     1271.752   202332.914       59.913       53.869      311.011      647.163        4.330      332.327        0.947      862.275
01/30/2021  05:00:00      119.667       38.581      -79.041      678.404       40.141      320.246   460232.250     1611.274   102557.541       29.311       28.220      125.733      463.980       13.618      331.568       -0.318      862.301
01/30/2021  05:01:00      177.953       44.100     -118.366      744.605       30.557      354.594   554436.057      933.727   125736.992       36.422       34.055      183.336      513.135        7.834      331.728       -0.052      862.320
01/30/2021  05:02:00      164.243       32.616     -119.860      802.263       32.571      382.511   643625.806     1060.889   146314.581       41.654       39.550      167.450      553.221       10.915      331.717       -0.067      862.330
01/30/2021  05:03:00      106.965       18.950      -91.583      695.489       35.925      331.205   483705.062     1290.621   109697.061       30.732       29.735      108.631      478.230       19.381      331.610       -0.248      862.327
01/30/2021  05:04:00      149.776       25.225     -122.280      833.195       38.652      394.139   694214.328     1493.997   155345.655       44.436       42.553      151.885      571.531       14.160      331.835        0.131      862.332
01/30/2021  05:05:00       57.723       11.084      -69.732      615.978       37.145      296.015   379429.418     1379.779    87624.644       23.828       23.422       58.778      425.544       52.415      331.426       -0.552      862.341
01/30/2021  05:06:00      196.168       12.943     -109.996      779.303       38.253      369.699   607312.556     1463.254   136677.370       39.794       37.273      196.595      535.425        7.417      331.853        0.157      862.354
01/30/2021  05:07:00      150.459       14.840      -92.980      717.807       39.065      342.867   515246.789     1526.110   117557.452       33.279       31.717      151.189      494.504       10.698      331.705       -0.090      862.355
01/30/2021  05:08:00      217.184       24.422     -142.539      859.161       40.925      411.531   738158.267     1674.827   169358.079       48.845       45.460      218.552      593.335        7.370      332.042        0.473      862.357
01/30/2021  05:09:00      268.881       10.574     -142.470      922.962       35.322      442.524   851858.404     1247.619   195827.761       57.060       52.447      269.089      637.608        5.615      332.203        0.742      862.350
01/30/2021  05:10:00      246.125        3.175     -128.483      809.582       34.555      385.773   655423.724     1194.018   148820.684       44.110       40.272      246.145      557.642        5.132      331.950        0.318      862.356
01/30/2021  05:11:00      128.142        5.996      -70.579      632.549       29.083      302.556   400118.132      845.830    91540.420       25.687       24.625      128.282      436.568       11.582      331.407       -0.582      862.365
01/30/2021  05:12:00      184.776       16.764     -121.458      772.300       35.026      371.173   596447.270     1226.799   137769.442       39.216       36.772      185.535      534.354        8.295      331.714       -0.072      862.391
01/30/2021  05:13:00      214.019       26.199     -158.438      872.314       28.162      417.980   760931.431      793.109   174707.337       50.382       46.822      215.617      603.284        7.829      331.936        0.298      862.402
01/30/2021  05:14:00      209.817       13.179     -117.394      758.698       31.556      363.882   575622.793      995.757   132409.755       38.335       35.451      210.230      524.036        6.213      331.729       -0.049      862.400
01/30/2021  05:15:00      282.187        2.116     -144.942      852.468       38.201      403.055   726701.323     1459.281   162453.471       49.544       44.531      282.195      584.649        4.292      331.923        0.277      862.395
01/30/2021  05:16:00      104.204      -10.850      -44.829      515.251       34.821      247.743   265483.571     1212.523    61376.743       17.046       16.404      104.768      356.312       11.567      331.211       -0.911      862.377
01/30/2021  05:17:00      211.555       11.268     -111.731      759.401       30.149      361.573   576690.081      908.974   130735.221       38.270       35.417      211.855      522.889        6.092      331.666       -0.152      862.386
01/30/2021  05:18:00      368.380       14.475     -200.007      990.739       33.579      473.194   981563.130     1127.525   223912.576       69.101       60.330      368.664      683.845        3.441      332.219        0.772      862.401
01/30/2021  05:19:00      147.601       21.992     -104.529      758.398       35.983      359.245   575166.941     1294.812   129057.044       36.921       35.276      149.231      520.065       12.145      331.371       -0.638      862.422
01/30/2021  05:20:00      183.314       48.663     -149.570      846.744       36.093      405.882   716976.022     1302.693   164740.276       47.049       44.151      189.663      585.148        9.518      331.667       -0.145      862.441
01/30/2021  05:21:00      226.016       39.245     -133.708      851.870       44.386      405.858   725682.690     1970.156   164720.745       48.125       44.619      229.398      586.801        6.543      331.608       -0.243      862.456
01/30/2021  05:22:00      224.882        5.555     -140.954      838.629       49.318      405.094   703297.892     2432.235   164100.903       46.997       43.492      224.951      581.077        6.673      331.472       -0.467      862.470
01/30/2021  05:23:00      261.435       20.894     -172.017      947.124       63.724      454.608   897044.789     4060.803   206668.594       60.284       55.389      262.269      653.713        6.213      331.534       -0.358      862.480
01/30/2021  05:24:00      148.052       23.954     -125.117      799.147       47.444      382.379   638636.457     2250.900   146213.678       41.246       39.355      149.977      549.979       13.447      331.075       -1.122      862.477
01/30/2021  05:25:00      211.792       20.051     -157.093      896.300       36.085      428.259   803352.884     1302.096   183406.043       52.879       49.403      212.739      618.312        8.447      331.345       -0.673      862.486
01/30/2021  05:26:00      300.645        9.266     -158.739      925.096      191.529      450.210   855803.366    36683.194   202689.363       60.519       54.759      300.788      624.114        4.305      331.519       -0.384      862.483
01/30/2021  05:27:00      134.923       21.769      -64.030      673.286       45.636      323.468   453313.870     2082.676   104631.611       29.128       28.001      136.668      464.550       11.554      330.792       -1.594      862.492
01/30/2021  05:28:00      187.324        8.679      -66.839      606.205       41.155      293.628   367484.976     1693.744    86217.542       24.742       22.770      187.525      419.943        5.015      330.741       -1.680      862.510
01/30/2021  05:29:00      148.436       20.529      -89.012      680.788       38.363      327.993   463472.247     1471.721   107579.166       30.133       28.626      149.849      469.991        9.837      330.937       -1.355      862.537
01/30/2021  05:30:00      279.325       25.121     -178.983      945.240       37.293      451.645   893478.637     1390.764   203983.428       60.453       54.943      280.452      651.917        5.403      331.660       -0.153      862.555
01/30/2021  05:31:00      219.792       -3.006     -130.825      821.573       41.763      392.477   674982.882     1744.135   154038.276       44.792       41.538      219.813      565.429        6.617      331.280       -0.784      862.575
01/30/2021  05:32:00      188.235       10.966     -146.950      883.311       45.978      422.771   780238.243     2113.988   178734.899       50.892       48.054      188.554      607.946       10.396      331.288       -0.769      862.597
01/30/2021  05:33:00      219.470       38.211     -184.782      964.813       51.120      464.007   930863.273     2613.265   215302.361       61.603       57.439      222.772      666.681        8.956      331.466       -0.471      862.612
01/30/2021  05:34:00      159.934       65.380     -160.647      890.459       45.166      429.632   792917.907     2039.985   184583.791       51.740       48.977      172.782      616.279       12.722      331.172       -0.959      862.625
01/30/2021  05:35:00      287.781       68.946     -216.529     1023.993       63.669      495.844  1048561.527     4053.710   245861.463       71.619       64.924      295.925      710.428        5.763      331.648       -0.166      862.630
01/30/2021  05:36:00      188.221       16.308     -141.070      847.734       50.581      402.461   718653.670     2558.470   161974.577       46.920       44.159      188.926      578.663        9.381      331.110       -1.062      862.631
01/30/2021  05:37:00      250.647       22.763     -181.760      973.206      183.249      505.360   947129.500    33580.164   255389.156       66.598       61.805      251.678      686.080        7.431      331.438       -0.508      862.641
01/30/2021  05:38:00      335.179       14.690     -180.993      951.821       37.112      450.484   905963.658     1377.296   202935.389       62.756       55.514      335.500      652.683        3.785      331.502       -0.411      862.656
01/30/2021  05:39:00      206.860       12.814     -138.293      824.113       42.250      395.537   679162.946     1785.044   156449.409       44.956       41.870      207.257      568.470        7.523      331.095       -1.087      862.666
01/30/2021  05:40:00      320.108       41.719     -211.923      982.866       29.873      468.403   966026.434      892.390   219401.565       66.747       59.316      322.816      677.751        4.408      331.651       -0.164      862.678
01/30/2021  05:41:00      222.389       54.909     -160.831      904.581       31.441      431.276   818266.839      988.523   185998.705       54.158       50.263      229.068      623.780        7.415      331.281       -0.779      862.694
01/30/2021  05:42:00      324.733       38.022     -213.988     1023.721       31.096      487.408  1048004.488      966.944   237566.147       71.935       64.327      326.951      705.723        4.659      331.814        0.108      862.716
01/30/2021  05:43:00      328.683       40.527     -216.932      981.269       27.428      469.542   962888.607      752.303   220469.671       67.017       59.206      331.172      678.187        4.194      331.842        0.150      862.744
01/30/2021  05:44:00      347.963       12.365     -224.469      998.578      166.558      498.003   997158.372    27741.651   248006.560       72.199       63.645      348.182      691.290        3.942      331.977        0.377      862.770
01/30/2021  05:45:00      398.870       15.799     -225.889     1015.192      140.996      481.353  1030614.253    19879.902   231700.885       74.601       64.110      399.183      687.768        2.969      331.873        0.204      862.790
01/30/2021  05:46:00      332.783       16.585     -160.123      934.730       65.102      451.330   873719.590     4238.315   203698.772       60.893       54.083      333.196      647.544        3.777      331.391       -0.594      862.801
01/30/2021  05:47:00      365.232        0.477     -185.005      952.063       47.001      457.446   906423.763     2209.076   209256.841       64.252       55.894      365.232      658.417        3.250      331.543       -0.345      862.790
01/30/2021  05:48:00      243.749       -2.337     -108.364      794.952       44.480      379.899   631948.734     1978.441   144322.935       42.454       38.913      243.760      547.918        5.053      330.943       -1.339      862.796
01/30/2021  05:49:00      268.234        1.135     -137.651      807.695       43.759      391.244   652371.697     1914.855   153071.704       44.896       40.368      268.237      560.467        4.366      331.102       -1.077      862.811
01/30/2021  05:50:00      311.530       -3.037     -224.027     1057.952      182.280      505.273  1119261.645    33225.864   255300.662       77.722       70.389      311.544      714.033        5.253      331.682       -0.107      862.841
01/30/2021  05:51:00      325.925       20.641     -185.104      992.872       42.456      472.249   985794.209     1802.551   223019.556       67.551       60.531      326.578      682.706        4.370      331.475       -0.453      862.877
01/30/2021  05:52:00      291.268       40.882     -186.732      993.720       42.146      476.970   987479.597     1776.260   227500.625       66.881       60.838      294.123      686.937        5.455      331.466       -0.466      862.907
01/30/2021  05:53:00      342.113       67.609     -228.589     1060.404       34.364      501.342  1124456.998     1180.905   251343.500       77.514       68.849      348.730      728.069        4.359      331.662       -0.141      862.925
01/30/2021  05:54:00      199.551       55.594     -153.177      862.935       44.078      415.279   744656.715     1942.863   172457.011       49.252       45.953      207.151      597.305        8.314      331.140       -1.011      862.943
01/30/2021  05:55:00      340.324       18.057     -203.431     1013.320       41.093      484.848  1026818.416     1688.663   235077.260       71.029       63.179      340.802      699.332        4.211      331.685       -0.107      862.957
01/30/2021  05:56:00      362.079       53.846     -256.707     1066.426      184.671      512.551  1137264.061    34103.407   262708.830       81.669       71.704      366.060      721.349        3.883      331.933        0.307      862.990
01/30/2021  05:57:00      283.966       59.841     -190.500      981.782       41.612      465.882   963896.467     1731.597   217045.867       65.134       59.134      290.203      675.556        5.419      331.466       -0.468      863.022
01/30/2021  05:58:00      265.905       23.074     -157.554      896.872       38.668      426.127   804379.221     1495.210   181583.921       54.155       49.373      266.904      616.672        5.338      331.341       -0.680      863.046
01/30/2021  05:59:00      371.271       79.594     -187.694      947.196       27.437      451.702   897180.192      752.768   204035.076       64.045       55.098      379.707      653.458        2.962      331.670       -0.134      863.068
01/30/2021  06:00:00      385.588       63.276     -195.783      948.962       32.444      451.562   900528.684     1052.627   203907.957       64.802       55.274      390.745      654.008        2.801      331.808        0.093      863.085
01/30/2021  06:01:00      337.945       49.881     -134.950      844.792       37.846      403.870   713673.436     1432.306   163111.311       50.637       43.911      341.607      583.250        2.915      331.158       -0.982      863.101
01/30/2021  06:02:00      360.548       26.111     -144.914      903.828       39.512      432.993   816904.322     1561.168   187482.886       57.860       50.297      361.492      624.889        2.988      331.311       -0.728      863.121
01/30/2021  06:03:00      420.277       69.186     -188.659      943.610       42.718      453.282   890399.758     1824.812   205464.508       65.712       54.884      425.934      653.395        2.353      331.632       -0.198      863.145
01/30/2021  06:04:00      459.611       61.966     -217.100      978.284       26.156      465.387   957038.959      684.133   216585.230       71.801       58.715      463.770      674.076        2.113      331.871        0.198      863.178
01/30/2021  06:05:00      372.883       15.834     -195.062      930.987       24.083      441.682   866737.673      579.975   195083.000       61.965       53.120      373.219      640.884        2.949      331.701       -0.083      863.211
01/30/2021  06:06:00      465.643        9.794     -229.560     1058.223       20.950      505.511  1119835.801      438.900   255541.237       82.243       68.791      465.746      731.002        2.463      332.000        0.416      863.227
01/30/2021  06:07:00      405.676       15.035     -218.764     1040.770       20.330      494.152  1083202.232      413.296   244186.055       76.995       66.390      405.955      716.769        3.117      331.864        0.192      863.245
01/30/2021  06:08:00      272.293       21.314     -162.244      889.371       28.872      423.975   790979.970      833.593   179754.394       53.604       48.578      273.125      613.370        5.043      331.498       -0.420      863.248
01/30/2021  06:09:00      528.591        5.756     -318.949     1193.490      147.006      569.557  1424417.448    21610.885   324394.877      107.542       88.521      528.622      815.140        2.378      332.628        1.464      863.251
01/30/2021  06:10:00      362.074       -1.766     -196.654      976.768       38.032      462.415   954075.382     1446.413   213827.244       66.931       58.467      362.078      670.714        3.431      331.709       -0.069      863.257
01/30/2021  06:11:00      243.221      -12.638     -166.302      928.593       40.077      440.677   862285.295     1606.169   194196.215       57.231       52.904      243.549      637.644        6.855      331.495       -0.424      863.252
01/30/2021  06:12:00      327.789      -20.666     -207.886      997.745      183.704      477.767   995494.627    33747.170   228261.564       70.403       62.875      328.440      674.180        4.213      331.884        0.221      863.249
01/30/2021  06:13:00      201.281        3.380     -123.949      787.992       47.971      378.165   620931.037     2301.216   143008.658       41.090       38.312      201.309      543.186        7.281      331.334       -0.698      863.255
01/30/2021  06:14:00      241.504      -17.093     -156.331      911.556      163.821      438.927   830933.587    26837.162   192656.783       56.652       52.521      242.108      617.502        6.505      331.741       -0.020      863.262
01/30/2021  06:15:00      304.954       12.304     -186.670      982.099       39.448      466.465   964517.924     1556.163   217589.560       65.558       59.183      305.203      675.060        4.892      332.085        0.552      863.277
01/30/2021  06:16:00      297.989       33.395     -183.390      945.332       28.374      449.826   893652.637      805.071   202343.253       60.994       54.840      299.854      651.477        4.720      331.953        0.330      863.296
01/30/2021  06:17:00      300.712       27.241     -182.154      942.982       31.043      449.410   889214.326      963.644   201969.077       60.802       54.607      301.943      650.210        4.637      331.955        0.335      863.323
01/30/2021  06:18:00      398.632       15.081     -231.212     1047.554       32.840      500.994  1097369.633     1078.459   250994.572       78.073       67.472      398.917      723.507        3.289      332.304        0.917      863.338
01/30/2021  06:19:00      152.671       12.285     -132.496      806.243      127.136      387.963   650028.080    16163.460   150515.177       42.869       40.835      153.165      549.467       12.870      331.533       -0.370      863.360
01/30/2021  06:20:00      293.783        5.898     -157.021      895.625      178.784      432.140   802143.577    31963.746   186744.891       56.571       51.043      293.842      604.420        4.231      331.611       -0.234      863.387
01/30/2021  06:21:00      323.798      -33.961     -193.692      942.567      231.511      505.390   888432.015    53597.312   255418.732       67.023       59.872      325.574      670.319        4.239      331.722       -0.041      863.398
01/30/2021  06:22:00      292.166       68.820     -180.812      954.789       43.878      454.991   911621.334     1925.244   207016.775       62.144       56.028      300.162      657.684        4.801      331.384       -0.606      863.412
01/30/2021  06:23:00      356.347       82.505     -211.896     1035.789       41.305      495.530  1072858.890     1706.117   245550.332       74.912       66.006      365.774      715.130        3.822      331.627       -0.200      863.416
01/30/2021  06:24:00      337.112       58.342     -187.292      939.111       40.815      452.268   881929.610     1665.891   204546.257       61.991       54.407      342.123      650.672        3.617      331.422       -0.544      863.419
01/30/2021  06:25:00      334.119       33.105     -182.113      937.895       35.927      449.335   879646.954     1290.721   201902.218       61.414       54.142      335.755      648.202        3.727      331.443       -0.509      863.428
01/30/2021  06:26:00      259.295       81.635     -184.549      952.283       29.685      451.579   906842.650      881.208   203923.785       60.956       55.582      271.842      654.875        5.803      331.251       -0.823      863.442
01/30/2021  06:27:00      317.895       76.132     -247.109     1021.137      188.135      515.207  1042721.643    35394.925   265437.979       75.545       67.178      326.884      710.757        4.728      331.742       -0.007      863.458
01/30/2021  06:28:00      167.588       52.681     -160.825      912.570      167.068      441.175   832784.818    27911.770   194635.265       55.580       52.767      175.673      618.649       12.402      331.196       -0.918      863.469
01/30/2021  06:29:00      116.288       67.174     -133.025      818.739       48.029      388.976   670333.783     2306.799   151302.681       42.966       41.197      134.295      561.709       17.495      331.012       -1.227      863.484
01/30/2021  06:30:00      192.134       48.083     -150.211      927.569       53.957      445.275   860383.632     2911.354   198269.608       56.145       53.078      198.059      639.605       10.429      331.215       -0.885      863.488
01/30/2021  06:31:00      360.596       44.513     -220.846     1076.520       39.710      511.953  1158895.835     1576.906   262095.754       80.137       71.128      363.332      740.486        4.154      331.673       -0.121      863.475
01/30/2021  06:32:00      161.393       44.790     -117.198      785.258       45.989      376.248   616630.431     2114.963   141562.453       40.089       38.015      167.493      540.959       10.431      330.867       -1.465      863.464
01/30/2021  06:33:00      317.674       35.953     -193.306      958.815       41.564      453.172   919327.110     1727.558   205364.667       63.276       56.321      319.702      657.223        4.226      331.435       -0.521      863.450
01/30/2021  06:34:00      332.785       12.032     -193.959      986.048       56.058      470.880   972289.748     3142.490   221727.894       67.258       59.858      333.002      679.359        4.162      331.445       -0.502      863.447
01/30/2021  06:35:00      472.224        6.163     -242.795     1099.482       46.090      522.959  1208861.234     2124.288   273485.648       88.292       74.224      472.264      756.149        2.564      331.983        0.392      863.457
01/30/2021  06:36:00      405.542        7.672     -207.208     1026.953       35.891      488.478  1054632.787     1288.155   238610.549       75.072       64.727      405.614      706.146        3.031      331.676       -0.121      863.475
01/30/2021  06:37:00      307.618       55.286     -192.962      998.315       47.509      474.615   996631.874     2257.101   225259.443       67.928       61.207      312.547      686.221        4.821      331.473       -0.456      863.493
01/30/2021  06:38:00      420.644       27.465     -226.162     1047.611       31.537      504.350  1097488.189      994.557   254368.649       79.057       67.643      421.540      725.821        2.965      331.749        0.002      863.506
01/30/2021  06:39:00      413.879       25.757     -220.803     1033.492       32.451      492.768  1068106.386     1053.069   242819.870       76.607       65.599      414.680      712.733        2.954      331.768        0.031      863.514
01/30/2021  06:40:00      319.411       33.415     -167.139      937.191       35.621      443.577   878327.832     1268.849   196760.961       60.349       53.818      321.154      643.956        4.021      331.438       -0.518      863.521
01/30/2021  06:41:00      473.526       29.623     -261.288     1071.874      158.085      512.574  1148914.941    24990.846   262732.323       86.471       71.832      474.451      729.059        2.361      332.244        0.820      863.543
01/30/2021  06:42:00      264.795       32.032     -174.963      916.751       30.763      441.295   840432.914      946.361   194741.715       56.872       51.806      266.726      635.029        5.668      331.568       -0.304      863.573
01/30/2021  06:43:00      218.209       14.435     -159.118      838.838       34.767      400.748   703649.521     1208.777   160598.842       46.912       43.273      218.686      578.206        6.991      331.381       -0.618      863.609
01/30/2021  06:44:00      279.427        9.108     -174.938      940.211       38.285      446.927   883997.197     1465.773   199743.851       59.675       54.260      279.575      646.628        5.349      331.577       -0.288      863.640
01/30/2021  06:45:00      142.910       19.838     -113.395      755.190       41.789      361.613   570311.865     1746.339   130763.926       36.810       35.141      144.280      520.638       13.021      331.100       -1.083      863.651
01/30/2021  06:46:00      427.861       35.850     -259.234     1082.704       34.142      517.430  1172247.660     1165.680   267733.738       84.605       72.057      429.360      747.638        3.032      332.171        0.699      863.648
01/30/2021  06:47:00      432.960       13.678     -228.707     1046.653       38.293      503.185  1095483.111     1466.382   253194.906       79.476       67.507      433.176      724.170        2.795      332.092        0.568      863.655
01/30/2021  06:48:00      287.897       16.489     -163.402      910.118       32.831      434.737   828315.658     1077.851   188995.844       56.391       50.919      288.369      628.204        4.746      331.574       -0.295      863.668
01/30/2021  06:49:00      328.892       16.668     -173.533      939.953       39.207      450.745   883511.452     1537.161   203170.959       61.316       54.411      329.314      649.501        3.890      331.721       -0.051      863.691
01/30/2021  06:50:00      261.277       25.277     -168.431      889.889       40.448      420.938   791903.158     1636.021   177188.880       53.380       48.536      262.497      610.783        5.414      331.604       -0.247      863.720
01/30/2021  06:51:00      223.565       32.485     -176.243      899.321       35.619      427.650   808778.833     1268.709   182884.753       53.731       49.647      225.913      618.819        7.503      331.604       -0.248      863.739
01/30/2021  06:52:00      139.362       48.406     -129.777      797.838       43.514      380.660   636545.453     1893.495   144901.665       41.081       39.167      147.529      548.298       13.813      331.222       -0.879      863.765
01/30/2021  06:53:00      272.052       37.575     -165.934      955.518      138.858      434.002   913014.092    19281.577   188357.413       61.157       56.033      274.635      634.657        5.340      331.670       -0.132      863.782
01/30/2021  06:54:00      297.353       49.801     -201.727      966.159       38.263      459.535   933463.038     1464.021   211172.285       63.860       57.305      301.495      665.284        4.869      331.813        0.101      863.801
01/30/2021  06:55:00      203.003       59.036     -123.082      785.736       42.920      375.471   617380.821     1842.134   140978.268       40.986       38.010      211.413      541.465        6.560      331.311       -0.736      863.819
01/30/2021  06:56:00      167.454       19.383      -99.640      714.163       43.855      343.388   510028.251     1923.244   117915.402       33.397       31.493      168.572      493.878        8.584      331.207       -0.908      863.840
01/30/2021  06:57:00      367.915       44.347     -204.079      985.893       52.048      468.581   971984.103     2708.969   219568.580       68.637       59.713      370.578      678.108        3.348      331.988        0.392      863.855
01/30/2021  06:58:00      213.288       17.931     -131.027      808.190       34.602      387.120   653170.606     1197.332   149862.101       43.343       40.212      214.040      558.129        6.800      331.441       -0.520      863.872
01/30/2021  06:59:00      299.182       -1.329     -181.475      930.098      188.861      445.637   865082.246    35668.642   198592.619       61.066       54.967      299.185      623.451        4.342      331.937        0.302      863.893
01/30/2021  07:00:00      371.390       28.115     -204.347     1010.775       34.769      481.375  1021667.041     1208.866   231721.498       71.728       62.730      372.452      696.567        3.498      332.080        0.546      863.909
01/30/2021  07:01:00      308.229       16.149     -161.603      927.742       36.083      446.740   860705.722     1301.987   199576.428       59.126       53.079      308.652      642.968        4.340      331.844        0.152      863.935
01/30/2021  07:02:00      378.033       21.428     -209.182     1002.969       30.437      479.023  1005945.895      926.423   229462.771       71.146       61.817      378.640      692.348        3.343      332.103        0.583      863.963
01/30/2021  07:03:00      152.490       38.486      -99.524      692.334       35.868      332.737   479327.019     1286.528   110713.709       31.286       29.566      157.272      478.800        9.268      331.180       -0.955      863.992
01/30/2021  07:04:00      311.517       22.740     -193.330      914.138       34.426      439.611   835648.634     1185.127   193257.399       58.230       51.505      312.346      633.170        4.109      331.761        0.013      864.011
01/30/2021  07:05:00      252.022       40.433     -171.125      892.810       36.374      426.206   797109.001     1323.080   181651.525       53.705       49.004      255.245      615.802        5.821      331.582       -0.284      864.027
01/30/2021  07:06:00      253.626       39.027     -178.341      921.584       41.188      440.629   849317.345     1696.439   194154.310       57.119       52.258      256.611      635.954        6.142      331.702       -0.084      864.040
01/30/2021  07:07:00      236.446       48.579     -155.336      896.380       35.464      430.530   803497.318     1257.730   185355.706       53.605       49.506      241.385      620.096        6.599      331.575       -0.293      864.047
01/30/2021  07:08:00      117.352       46.436     -112.493      743.031       36.137      355.271   552094.689     1305.913   126217.257       35.395       33.981      126.206      512.409       16.485      331.153       -0.997      864.054
01/30/2021  07:09:00      203.821       17.502     -134.524      839.118       46.797      406.418   704119.551     2189.965   165175.760       46.553       43.574      204.571      582.481        8.107      331.454       -0.496      864.063
01/30/2021  07:10:00      341.477       27.862     -189.581      969.258       36.506      458.024   939461.918     1332.656   209785.989       65.171       57.529      342.612      665.201        3.770      331.787        0.060      864.073
01/30/2021  07:11:00      186.198       29.609     -135.865      813.665       48.640      387.851   662051.342     2365.822   150428.597       43.425       40.742      188.537      559.666        8.812      331.264       -0.810      864.084
01/30/2021  07:12:00      223.989        0.733     -140.646      848.607       41.654      406.508   720134.265     1735.034   165249.070       47.835       44.356      223.991      584.805        6.817      331.358       -0.654      864.094
01/30/2021  07:13:00      201.429       17.650     -121.055      792.035       45.374      374.251   627319.522     2058.800   140063.898       41.233       38.472      202.200      541.071        7.161      331.203       -0.912      864.109
01/30/2021  07:14:00      115.318        4.713     -145.771      801.690      217.225      416.927   642706.152    47186.749   173827.782       44.896       43.186      115.415      553.514       23.000      331.326       -0.706      864.125
01/30/2021  07:15:00      367.375       -1.440     -203.004      992.194       57.451      472.873   984448.871     3300.663   223608.946       69.351       60.568      367.378      682.074        3.447      331.785        0.056      864.137
01/30/2021  07:16:00      204.817       14.981     -121.393      820.055       60.618      386.490   672489.592     3674.484   149374.651       44.105       41.277      205.364      560.075        7.438      331.185       -0.939      864.152
01/30/2021  07:17:00       72.220        5.506      -81.694      704.377       63.093      342.967   496146.706     3980.748   117626.644       31.471       30.888       72.430      488.975       45.576      330.874       -1.457      864.169
01/30/2021  07:18:00      221.516       27.562     -144.803      869.488       56.885      411.719   756009.480     3235.920   169512.784       49.958       46.438      223.224      595.588        7.119      331.428       -0.538      864.207
01/30/2021  07:19:00      250.332      -10.286     -160.573      873.893       54.331      421.687   763688.103     2951.820   177820.138       51.631       47.223      250.543      604.659        5.824      331.581       -0.286      864.234
01/30/2021  07:20:00       96.822       42.085     -128.369      868.658       46.973      413.359   754567.085     2206.491   170865.298       47.744       46.382      105.573      596.820       31.958      331.277       -0.787      864.266
01/30/2021  07:21:00      107.026       60.519     -101.823      778.311       47.263      365.381   605768.678     2233.763   133503.318       38.334       37.075      122.952      530.362       18.607      330.984       -1.273      864.286
01/30/2021  07:22:00      111.361       70.504     -127.527      815.845       50.756      393.100   665602.696     2576.136   154527.657       42.800       41.135      131.803      563.691       18.291      331.032       -1.192      864.300
01/30/2021  07:23:00      156.400       52.425     -137.021      879.561       56.646      417.133   773628.178     3208.775   174000.106       49.821       47.542      164.952      602.691       13.350      331.194       -0.924      864.315
01/30/2021  07:24:00      166.285       32.147     -169.136      929.817       50.372      440.947   864560.172     2537.388   194433.984       55.918       53.077      169.364      638.484       14.212      331.311       -0.728      864.318
01/30/2021  07:25:00       89.895       25.834     -111.377      745.818       59.957      362.446   556244.614     3594.792   131367.006       35.603       34.560       93.533      517.438       30.605      330.921       -1.379      864.323
01/30/2021  07:26:00      194.203       24.354     -127.218      806.524       65.673      376.045   650481.730     4312.890   141409.768       42.518       39.810      195.724      547.716        7.831      331.134       -1.025      864.316
01/30/2021  07:27:00      145.033       33.345     -137.892      859.467      130.153      412.518   738683.760    16939.745   170171.496       48.328       46.290      148.817      584.750       15.439      331.151       -0.994      864.326
01/30/2021  07:28:00       89.623       41.079      -81.072      682.529       54.144      330.160   465845.277     2931.567   109005.781       29.691       28.889       98.589      470.776       22.802      330.805       -1.572      864.342
01/30/2021  07:29:00      117.875       14.689      -99.203      772.865       60.861      367.076   597319.755     3704.057   134744.608       37.971       36.788      118.787      528.747       19.813      330.937       -1.350      864.351
01/30/2021  07:30:00      134.823       19.401     -104.628      765.742       44.390      365.044   586361.435     1970.509   133257.304       37.539       36.079      136.211      525.938       14.909      330.957       -1.318      864.375
01/30/2021  07:31:00      278.077       19.974     -139.537      886.851       48.759      424.995   786504.207     2377.473   180620.568       53.315       48.475      278.793      611.200        4.806      331.358       -0.652      864.392
01/30/2021  07:32:00      185.691       39.108      -96.475      717.661       60.926      342.530   515036.806     3711.924   117326.605       34.056       31.804      189.765      492.906        6.747      331.105       -1.077      864.417
01/30/2021  07:33:00      258.867        1.521     -137.017      813.688      175.968      424.900   662087.438    30964.692   180539.640       47.950       43.680      258.872      572.474        4.890      331.356       -0.654      864.432
01/30/2021  07:34:00      184.554       22.317     -102.562      756.311       46.329      354.595   572006.757     2146.384   125737.968       37.234       34.995      185.898      516.338        7.715      331.148       -1.003      864.453
01/30/2021  07:35:00      323.607        9.501     -168.649      911.000       42.478      435.164   829920.576     1804.355   189367.480       57.696       51.055      323.747      628.672        3.771      331.719       -0.057      864.471
01/30/2021  07:36:00      187.208        6.434      -98.576      697.612       50.855      335.851   486662.515     2586.253   112795.894       32.330       30.102      187.319      481.798        6.616      331.193       -0.935      864.481
01/30/2021  07:37:00      194.649       21.288     -102.736      716.147       41.465      341.912   512866.896     1719.374   116904.074       34.006       31.575      195.810      492.911        6.337      331.289       -0.774      864.479
01/30/2021  07:38:00      134.416       17.299      -96.898      697.975       43.760      334.586   487168.451     1914.977   111947.959       31.427       30.052      135.524      481.456       12.621      331.195       -0.930      864.471
01/30/2021  07:39:00      231.611        5.918     -100.529      740.918       44.612      351.280   548959.483     1990.224   123397.382       36.892       33.717      231.686      508.698        4.821      331.464       -0.485      864.451
01/30/2021  07:40:00      206.474       13.258     -107.862      718.803       24.074      345.299   516678.467      579.544   119231.347       34.533       31.824      206.899      497.312        5.777      331.381       -0.623      864.440
01/30/2021  07:41:00      200.914       -1.169     -117.461      787.315       28.037      375.471   619865.546      786.063   140978.695       40.774       38.082      200.918      543.141        7.308      331.398       -0.591      864.438
01/30/2021  07:42:00      194.192       -9.248      -96.751      719.673       28.148      341.334   517929.698      792.283   116509.102       34.106       31.762      194.413      494.447        6.468      331.434       -0.536      864.454
01/30/2021  07:43:00      174.918       13.053      -88.553      706.789       29.420      338.122   499551.138      865.530   114326.590       32.654       30.737      175.404      487.767        7.733      331.318       -0.726      864.470
01/30/2021  07:44:00      259.641        7.501     -115.767      800.554       26.536      384.390   640886.860      704.157   147755.985       43.494       39.467      259.750      554.264        4.553      331.757        0.000      864.497
01/30/2021  07:45:00      130.913        5.621      -59.590      573.148       34.370      272.896   328498.857     1181.311    74472.291       21.235       20.208      131.034      394.652        9.071      331.361       -0.663      864.512
01/30/2021  07:46:00       92.049       11.488      -61.864      606.632       16.303      289.308   368002.649      265.795    83698.862       23.210       22.598       92.763      418.163       20.321      331.312       -0.741      864.527
01/30/2021  07:47:00      178.749       12.604     -111.905      769.002      112.235      368.976   591364.456    12596.661   136143.105       39.221       37.005      179.193      523.869        8.547      331.655       -0.169      864.542
01/30/2021  07:48:00      132.890       29.924      -77.710      643.745       17.710      306.551   414407.884      313.632    93973.562       26.654       25.435      136.217      443.909       10.620      331.393       -0.606      864.560
01/30/2021  07:49:00      105.310       42.907      -66.377      631.228       17.469      300.354   398448.917      305.182    90212.253       25.305       24.448      113.715      435.198       14.647      331.407       -0.585      864.581
01/30/2021  07:50:00      128.542       55.269      -92.508      693.515       18.377      327.408   480962.554      337.725   107196.085       30.819       29.425      139.921      476.098       11.578      331.602       -0.259      864.589
01/30/2021  07:51:00       13.546       19.150      -56.588      502.941       14.528      238.257   252949.661      211.067    56766.223       15.677       15.496       23.457      345.680      217.170      331.253       -0.842      864.595
01/30/2021  07:52:00       15.157       19.398      -56.962      515.932       17.803      244.464   266185.321      316.929    59762.472       16.499       16.313       24.617      354.624      207.516      331.273       -0.810      864.604
01/30/2021  07:53:00      -15.665       10.895      -43.553      435.600       16.255      208.005   189747.329      264.240    43266.088       11.772       11.664       19.081      300.674      248.305      331.180       -0.964      864.606
01/30/2021  07:54:00       -4.826       13.588      -22.357      331.486       17.470      156.991   109883.172      305.202    24646.247        6.774        6.742       14.420      227.447      248.795      331.291       -0.784      864.606
01/30/2021  07:55:00      107.740      -16.193      -49.667      540.129       16.646      259.859   291738.815      277.076    67526.642       18.686       17.977      108.950      373.927       11.779      331.623       -0.231      864.616
01/30/2021  07:56:00       33.509      -29.056      -29.776      385.442       15.317      183.744   148565.382      234.598    33761.786        9.267        9.128       44.352      265.669       35.881      331.437       -0.543      864.620
01/30/2021  07:57:00       14.434      -44.912      -27.580      340.394       16.495      164.383   115868.305      272.093    27021.755        7.304        7.158       47.175      235.419       24.904      331.354       -0.681      864.622
01/30/2021  07:58:00       87.827        3.313      -63.985      554.333       22.871      264.311   307285.610      523.101    69860.514       19.466       18.883       87.889      382.436       18.934      331.663       -0.167      864.625
01/30/2021  07:59:00      114.161       23.829      -63.880      571.454       10.887      272.611   326560.142      118.526    74316.562       20.925       20.050      116.621      394.404       11.437      331.709       -0.090      864.624
01/30/2021  08:00:00       78.354       -0.045      -38.078      469.244        6.511      223.571   220190.069       42.388    49983.776       13.885       13.511       78.354      323.723       17.069      331.880        0.190      864.624
01/30/2021  08:01:00       72.861       13.158      -32.948      409.383       14.125      194.896   167594.227      199.520    37984.357       10.613       10.289       74.040      282.215       14.529      331.724       -0.068      864.630
01/30/2021  08:02:00       64.562        9.543      -39.028      487.424       21.749      235.073   237582.318      472.998    55259.449       14.949       14.666       65.264      337.818       26.793      331.781        0.026      864.656
01/30/2021  08:03:00       41.273      -18.374      -25.097      321.097       15.945      153.944   103103.561      254.244    23698.883        6.484        6.353       45.178      221.511       24.040      331.705       -0.104      864.680
01/30/2021  08:04:00      -33.035       -7.093       -0.759      148.566       29.469       75.458    22071.780      868.424     5693.889        1.488        1.432       33.788       98.382        8.479      331.457       -0.516      864.704
01/30/2021  08:05:00        4.508        2.502      -13.300      261.382       35.074      124.209    68320.791     1230.196    15427.840        4.257        4.249        5.156      176.814     1176.028      331.553       -0.355      864.719
01/30/2021  08:06:00      -47.029      -32.731       -9.663      188.635       29.394       86.844    35583.060      864.008     7541.844        2.367        2.199       57.298      120.440        4.418      331.416       -0.582      864.736
01/30/2021  08:07:00      -89.775      -30.078      -10.425       36.540       22.569       21.767     1335.136      509.371      473.814        0.570        0.116       94.680       18.582        0.039      331.268       -0.826      864.744
01/30/2021  08:08:00      -27.557      -24.654      -20.193      304.631       21.810      141.295    92800.293      475.665    19964.150        5.748        5.662       36.976      203.137       30.182      331.435       -0.547      864.752
01/30/2021  08:09:00      -73.132       -9.295       -5.903      167.444       22.816       82.021    28037.447      520.552     6727.374        2.037        1.764       73.720      111.654        2.294      331.349       -0.693      864.765
01/30/2021  08:10:00      -83.182       13.601      -14.777       32.164       12.570       12.219     1034.511      157.996      149.296        0.433        0.067       84.286       10.710        0.016      331.219       -0.907      864.771
01/30/2021  08:11:00      -52.108        8.270       -0.005       37.325       25.463       19.859     1393.141      648.343      394.380        0.261        0.122       52.760        9.451        0.032      331.307       -0.762      864.771
01/30/2021  08:12:00      -76.114       29.549       -7.975      135.519       28.802       66.620    18365.401      829.580     4438.266        1.518        1.182       81.648       92.001        1.270      331.350       -0.691      864.762
01/30/2021  08:13:00      -51.196       32.313      -16.210      209.651       32.273      100.120    43953.568     1041.542    10023.934        2.946        2.751       60.541      143.998        5.657      331.393       -0.617      864.758
01/30/2021  08:14:00      -69.418        7.114       -8.873      172.576       27.142       82.909    29782.569      736.706     6873.963        2.116        1.870       69.782      117.938        2.856      331.500       -0.444      864.746
01/30/2021  08:15:00      -23.392       -3.903      -22.618      255.833       18.424      121.820    65450.354      339.440    14840.229        4.083        4.032       23.716      174.911       54.396      331.536       -0.383      864.744
01/30/2021  08:16:00       -4.246       19.525      -20.281      278.488       11.894      133.289    77555.537      141.475    17766.044        4.812        4.773       19.981      192.177       92.502      331.427       -0.561      864.740
01/30/2021  08:17:00      -36.769       10.038      -12.050      206.687       13.297       99.293    42719.332      176.815     9859.141        2.717        2.638       38.115      142.745       14.026      331.351       -0.688      864.736
01/30/2021  08:18:00      -45.537        4.025       -6.109       17.546       13.656        8.022      307.877      186.474       64.351        0.134        0.028       45.715        4.719        0.011      331.381       -0.641      864.743
01/30/2021  08:19:00      -31.128       -4.277      -12.115      152.395       15.865       73.812    23224.127      251.691     5448.215        1.502        1.446       31.421      104.429       11.046      331.500       -0.444      864.745
01/30/2021  08:20:00      -25.881       27.120      -17.946      233.470       22.768      109.861    54508.162      518.384    12069.385        3.440        3.355       37.488      159.214       18.038      331.491       -0.458      864.750
01/30/2021  08:21:00      -29.663       32.600      -11.195      222.514       17.962      109.485    49512.294      322.617    11986.992        3.193        3.091       44.075      155.190       12.397      331.487       -0.465      864.763
01/30/2021  08:22:00      -25.673       55.203      -15.710      254.249       18.464      120.569    64642.668      340.914    14536.803        4.172        3.976       60.881      174.178        8.185      331.495       -0.449      864.769
01/30/2021  08:23:00      -28.371       18.320      -21.427      259.138       15.835      124.463    67152.628      250.732    15491.030        4.223        4.145       33.772      178.653       27.984      331.577       -0.314      864.764
01/30/2021  08:24:00      -72.510       13.542       -6.159       30.192       24.320       16.668      911.566      591.474      277.820        0.363        0.089       73.764       11.887        0.026      331.554       -0.356      864.742
01/30/2021  08:25:00      -45.826       20.086       -3.010       39.431       16.320       11.778     1554.772      266.345      138.720        0.224        0.098       50.034       15.115        0.091      331.471       -0.493      864.730
01/30/2021  08:26:00      -63.885       23.752      -16.134      170.883       21.860       81.357    29200.965      477.860     6618.914        2.059        1.815       68.157      116.789        2.936      331.566       -0.336      864.715
01/30/2021  08:27:00      -60.135       25.749      -16.233      212.607       14.191      101.207    45201.836      201.397    10242.938        3.008        2.782       65.416      145.681        4.960      331.566       -0.334      864.705
01/30/2021  08:28:00      -53.553       16.813      -12.570      191.060       31.671       91.770    36503.946     1003.048     8421.802        2.461        2.296       56.131      129.732        5.342      331.663       -0.175      864.702
01/30/2021  08:29:00      -41.268       -3.218       -9.962      171.790       13.478       82.824    29511.741      181.643     6859.745        1.917        1.828       41.393      117.806        8.100      331.612       -0.258      864.706
01/30/2021  08:30:00        0.354       -6.782       -3.502      176.232       15.050       86.445    31057.823      226.491     7472.676        1.940        1.938        6.791      121.772      321.545      331.897        0.210      864.714
01/30/2021  08:31:00      -21.195        0.411       -3.616       31.604       24.465       16.701      998.814      598.527      278.925        0.117        0.094       21.199        8.574        0.164      331.707       -0.105      864.728
01/30/2021  08:32:00      -57.699      -29.366      -10.970      159.460       23.743       77.726    25427.535      563.748     6041.389        1.817        1.602       64.742      105.553        2.658      331.717       -0.086      864.750
01/30/2021  08:33:00      -77.588       13.495       -9.253       30.669       14.300       13.777      940.582      204.500      189.816        0.381        0.067       78.753        9.537        0.015      331.586       -0.302      864.774
01/30/2021  08:34:00      -67.484       22.886       -9.549      175.969       23.714       82.773    30965.232      562.334     6851.303        2.177        1.919       71.259      119.440        2.809      331.627       -0.235      864.798
01/30/2021  08:35:00      -43.860       26.966      -15.501       20.834       17.585       13.697      434.072      309.240      187.599        0.191        0.047       51.487        7.979        0.024      331.652       -0.194      864.816
01/30/2021  08:36:00      -60.217        3.351       -9.666       17.579       13.218       19.072      309.006      174.709      363.725        0.229        0.042       60.311       12.394        0.042      331.705       -0.107      864.831
01/30/2021  08:37:00      -33.795        2.386       -1.861      166.493        9.900       79.432    27720.071       98.013     6309.404        1.763        1.706       33.880      113.800       11.283      331.800        0.051      864.837
01/30/2021  08:38:00      -29.811       11.213        4.267       22.838       10.951       14.709      521.559      119.930      216.353        0.095        0.043       31.850       11.775        0.137      331.864        0.153      864.841
01/30/2021  08:39:00      -20.420       14.059      -16.524      221.765        7.938      105.910    49179.890       63.008    11217.020        3.066        3.023       24.792      152.991       38.082      331.787        0.029      864.838
01/30/2021  08:40:00       10.799       13.336      -11.573      212.052       12.070       99.976    44966.119      145.696     9995.207        2.776        2.755       17.159      145.243       71.645      331.912        0.234      864.835
01/30/2021  08:41:00       -6.405       25.739       -7.949       16.280       10.870       11.070      265.023      118.165      122.541        0.064        0.025       26.524       10.051        0.144      331.907        0.225      864.837
01/30/2021  08:42:00       16.073       33.333      -17.637      317.990       17.754      149.585   101117.512      315.191    22375.820        6.272        6.190       37.006      217.808       34.642      332.046        0.458      864.832
01/30/2021  08:43:00       10.954       32.417       14.936       54.531       22.416       27.558     2973.657      502.471      759.444        0.281        0.212       34.217       32.010        0.875      331.917        0.242      864.844
01/30/2021  08:44:00       50.789       34.566       -2.950       15.485       17.662       10.179      239.799      311.956      103.609        0.222        0.033       61.436        8.673        0.020      331.838        0.112      864.850
01/30/2021  08:45:00       38.245        5.351       -8.318      159.525       39.816       79.537    25448.198     1585.327     6326.078        1.745        1.668       38.617      110.013        8.116      332.163        0.648      864.856
01/30/2021  08:46:00       25.201       12.638      -11.270      177.243       30.374       86.000    31414.955      922.560     7396.011        2.032        1.987       28.192      121.441       18.556      332.231        0.760      864.867
01/30/2021  08:47:00      -19.808       -3.702       -6.524       25.017       12.277       12.083      625.848      150.726      145.990        0.069        0.046       20.151       11.499        0.326      332.088        0.524      864.876
01/30/2021  08:48:00      -17.647        8.488       -0.666       18.350        8.663        9.546      336.713       75.042       91.132        0.044        0.025       19.582        8.907        0.207      332.106        0.554      864.889
01/30/2021  08:49:00       15.671       36.515       -3.928       27.409       26.753       16.126      751.246      715.699      260.058        0.166        0.086       39.735        9.927        0.062      332.050        0.461      864.895
01/30/2021  08:50:00       -8.436       11.942        5.434       27.641       19.671       19.743      764.014      386.943      389.803        0.089        0.077       14.622       13.292        0.826      332.005        0.388      864.907
01/30/2021  08:51:00       10.666       44.635        8.229       38.999       19.673       20.892     1520.897      387.023      436.478        0.226        0.117       45.891       16.110        0.123      332.044        0.450      864.909
01/30/2021  08:52:00      -11.950       58.757       10.670       27.079       21.818       18.082      733.257      476.025      326.961        0.262        0.077       59.959       13.103        0.048      331.925        0.255      864.913
01/30/2021  08:53:00       -3.992       79.068        1.104       39.655       33.609       20.988     1572.491     1129.578      440.493        0.471        0.157       79.169       19.895        0.063      331.911        0.232      864.916
01/30/2021  08:54:00      -28.097       67.353       -9.310       36.417       33.716       14.959     1326.168     1136.750      223.767        0.405        0.134       72.979       10.605        0.021      331.827        0.094      864.926
01/30/2021  08:55:00      -31.186       19.062        3.188       33.439       42.962       18.589     1118.166     1845.710      345.534        0.233        0.165       36.550       12.306        0.113      331.918        0.243      864.922
01/30/2021  08:56:00       -5.861      -12.544        2.351       17.738       14.152       14.646      314.634      200.271      214.516        0.046        0.036       13.845        9.961        0.518      332.252        0.794      864.916
01/30/2021  08:57:00       -8.530      -22.561       -9.268       26.733       22.883       21.499      714.674      523.628      462.191        0.118        0.085       24.120        6.630        0.076      332.253        0.796      864.915
01/30/2021  08:58:00       34.457       31.375       -2.780       32.275       28.524       22.524     1041.687      813.640      507.348        0.227        0.118       46.601       19.206        0.170      332.191        0.693      864.916
01/30/2021  08:59:00       43.947       77.434        9.742       40.207       41.360       22.116     1616.634     1710.658      489.115        0.592        0.191       89.036       17.005        0.036      332.156        0.636      864.923
01/30/2021  09:00:00      -13.517      -28.327      -10.236       47.865       44.034       25.177     2291.038     1939.036      633.859        0.298        0.243       31.387       19.817        0.399      332.421        1.072      864.939
01/30/2021  09:01:00       50.575      -18.079      -10.036       47.759       44.172       25.725     2280.947     1951.206      661.790        0.394        0.245       53.709       18.459        0.118      332.307        0.885      864.956
01/30/2021  09:02:00       67.151      -36.009      -19.223       49.944       41.525       30.221     2494.408     1724.295      913.331        0.565        0.257       76.196       16.556        0.047      332.326        0.917      864.976
01/30/2021  09:03:00       30.706      -11.332       -5.062       42.972       35.681       28.725     1846.590     1273.101      825.132        0.252        0.197       32.730       19.426        0.352      332.372        0.992      864.992
01/30/2021  09:04:00       69.184       -4.314       -5.875       43.758       42.134       28.637     1914.773     1775.295      820.092        0.467        0.226       69.318       23.176        0.112      332.371        0.990      865.013
01/30/2021  09:05:00       93.485       41.176       -9.795       31.409       33.334       20.125      986.545     1111.174      405.005        0.652        0.125      102.152       18.121        0.031      331.969        0.328      865.024
01/30/2021  09:06:00       88.956       66.045       -5.483       32.452       35.124       17.195     1053.163     1233.723      295.652        0.744        0.129      110.793       12.803        0.013      331.997        0.374      865.025
01/30/2021  09:07:00       68.673       20.567      -15.680       41.544       42.666       20.384     1725.879     1820.357      415.506        0.467        0.198       71.687       20.975        0.086      332.191        0.695      865.026
01/30/2021  09:08:00       36.585       20.929      -12.286       34.003       34.639       21.227     1156.171     1199.875      450.586        0.237        0.140       42.149       14.121        0.112      332.385        1.013      865.037
01/30/2021  09:09:00      -33.434      -25.080      -10.614       43.306       21.131       24.390     1875.391      446.533      594.858        0.239        0.146       41.795       17.054        0.167      332.527        1.249      865.058
01/30/2021  09:10:00        8.103      -28.403        3.517       62.424       32.753       28.714     3896.816     1072.756      824.476        0.334        0.290       29.536       29.350        0.987      332.499        1.202      865.066
01/30/2021  09:11:00       20.344      -28.479       -8.021      137.010       34.203       68.186    18771.635     1169.864     4649.300        1.293        1.230       34.999       93.756        7.176      332.771        1.650      865.075
01/30/2021  09:12:00       60.433     -122.442      -30.167       88.533       86.988       35.387     7838.068     7566.912     1252.212        1.810        0.833      136.544       57.020        0.174      332.310        0.887      865.071
01/30/2021  09:13:00      116.559     -190.484      -41.161       26.316       29.029       20.529      692.519      842.694      421.427        2.676        0.098      223.316       12.761        0.003      332.029        0.424      865.062
01/30/2021  09:14:00       96.404     -154.453      -29.431       30.391       38.220       20.113      923.593     1460.753      404.515        1.840        0.139      182.069       13.325        0.005      332.244        0.781      865.054
01/30/2021  09:15:00      106.488      -98.282      -24.706       42.709       41.395       20.045     1824.044     1713.510      401.813        1.277        0.197      144.910       11.779        0.007      332.207        0.719      865.050
01/30/2021  09:16:00       78.930      -52.295      -22.041       65.015       66.192       29.405     4226.924     4381.425      864.659        0.946        0.474       94.682       34.576        0.133      332.317        0.901      865.050
01/30/2021  09:17:00        8.952      -41.740      -14.146       58.157       55.856       33.426     3382.225     3119.865     1117.289        0.482        0.381       42.690       36.217        0.720      332.509        1.218      865.052
01/30/2021  09:18:00       38.320     -138.959      -20.383       53.009       44.008       32.078     2809.932     1936.665     1028.971        1.348        0.289      144.146       31.749        0.049      332.445        1.112      865.063
01/30/2021  09:19:00       67.229      -53.074      -19.839       37.408       51.410       19.039     1399.378     2643.010      362.492        0.607        0.220       85.654       19.368        0.051      332.245        0.783      865.075
01/30/2021  09:20:00        6.507      -22.294       -2.223       40.100       41.010       21.422     1608.031     1681.827      458.907        0.215        0.187       23.224       12.904        0.309      332.595        1.361      865.086
01/30/2021  09:21:00      -26.848      -12.681      -10.037       32.246       27.025       16.960     1039.809      730.340      287.639        0.152        0.103       29.692       13.771        0.215      332.590        1.351      865.104
01/30/2021  09:22:00       28.616      -65.207      -20.567       37.436       50.217       24.021     1401.480     2521.728      577.024        0.500        0.225       71.210       23.233        0.106      332.599        1.366      865.122
01/30/2021  09:23:00       54.747      -65.435      -16.596       74.285       48.166       35.666     5518.189     2319.947     1272.035        0.833        0.456       85.316       39.316        0.212      332.370        0.988      865.129
01/30/2021  09:24:00       81.348      -97.920      -20.202       43.790       49.286       25.546     1917.539     2429.137      652.575        1.081        0.250      127.302       22.290        0.031      332.355        0.964      865.137
01/30/2021  09:25:00        9.325      -78.062      -21.258       60.446       42.902       28.812     3653.767     1840.602      830.146        0.648        0.316       78.617       28.955        0.136      332.517        1.231      865.144
01/30/2021  09:26:00      -25.019       -1.034       -2.683       36.588       30.376       20.133     1338.708      922.682      405.351        0.165        0.133       25.040       16.240        0.421      332.590        1.351      865.152
01/30/2021  09:27:00      -27.854      -19.623       -2.172       32.162       22.729       21.772     1034.385      516.611      474.038        0.159        0.101       34.073       10.655        0.098      332.598        1.365      865.163
01/30/2021  09:28:00      -47.094      -58.351      -25.648       42.446       32.292       25.404     1801.634     1042.745      645.358        0.488        0.174       74.984       23.417        0.098      332.665        1.475      865.180
01/30/2021  09:29:00       69.362      -94.993      -27.222       44.269       57.340       31.033     1959.787     3287.930      963.035        1.039        0.311      117.621       25.179        0.046      332.462        1.141      865.203
01/30/2021  09:30:00       20.055      -96.321      -27.422       69.039       52.693       33.368     4766.426     2776.560     1113.421        0.954        0.433       98.387        8.895        0.008      332.452        1.125      865.218
01/30/2021  09:31:00      105.839     -113.938      -36.727       38.113       56.244       20.932     1452.567     3163.362      438.153        1.529        0.253      155.512       17.432        0.013      332.396        1.031      865.235
01/30/2021  09:32:00       79.483      -73.676      -26.120       34.658       58.156       25.379     1201.164     3382.105      644.099        0.883        0.261      108.378       17.320        0.026      332.419        1.070      865.242
01/30/2021  09:33:00       78.797      -73.957      -24.307       37.655       56.973       20.048     1417.916     3245.871      401.907        0.867        0.253      108.068       20.955        0.038      332.350        0.956      865.251
01/30/2021  09:34:00       45.903      -70.656      -14.750       41.335       43.542       24.732     1708.620     1895.942      611.678        0.577        0.211       84.258       27.908        0.110      332.472        1.156      865.245
01/30/2021  09:35:00       32.418      -62.743      -13.156       54.476       47.194       30.312     2967.589     2227.260      918.847        0.564        0.306       70.623       26.368        0.139      332.800        1.698      865.242
01/30/2021  09:36:00      108.064     -138.485      -37.994       33.320       35.486       19.705     1110.206     1259.239      388.302        1.753        0.138      175.658       19.294        0.012      332.349        0.952      865.243
01/30/2021  09:37:00       50.986      -60.259      -12.542       36.493       70.478       28.937     1331.708     4967.179      837.328        0.676        0.357       78.935       36.435        0.213      332.550        1.285      865.256
01/30/2021  09:38:00       60.966       12.227       -6.258       46.184       52.938       32.789     2132.934     2802.396     1075.092        0.496        0.301       62.180       32.866        0.279      332.587        1.347      865.257
01/30/2021  09:39:00       44.626       -7.420       -2.135       41.459       52.599       33.720     1718.831     2766.642     1137.033        0.384        0.281       45.239       33.018        0.533      332.783        1.671      865.261
01/30/2021  09:40:00       67.050       -0.332       -3.244       67.888       52.631       41.930     4608.717     2770.005     1758.108        0.682        0.457       67.051       37.701        0.316      332.618        1.396      865.273
01/30/2021  09:41:00       96.844       -3.391       -3.482       78.892       56.771       49.694     6223.914     3222.973     2469.500        1.066        0.596       96.904       49.847        0.265      332.597        1.363      865.279
01/30/2021  09:42:00       82.138       -2.238      -15.980       70.138       58.824       45.402     4919.392     3460.319     2061.369        0.872        0.522       82.168       36.466        0.197      332.599        1.365      865.307
01/30/2021  09:43:00       55.934       -3.224       -6.216       63.567       45.106       37.146     4040.719     2034.590     1379.790        0.531        0.373       56.026       40.000        0.510      332.715        1.557      865.337
01/30/2021  09:44:00       85.432       -9.050      -16.150       55.249       58.431       29.184     3052.480     3414.151      851.681        0.748        0.366       85.910       19.599        0.052      332.675        1.493      865.349
01/30/2021  09:45:00       88.766        8.923       -8.036       72.975       71.260       34.077     5325.314     5078.003     1161.274        0.979        0.578       89.214       25.423        0.081      332.647        1.446      865.352
01/30/2021  09:46:00       85.282       -4.586       11.048      109.490       86.181       61.940    11987.969     7427.246     3836.566        1.533        1.163       85.406       58.963        0.477      332.595        1.359      865.334
01/30/2021  09:47:00      145.688      -18.549      -19.595       98.497       77.303       45.196     9701.738     5975.780     2042.651        1.983        0.886      146.864       43.178        0.086      332.517        1.230      865.336
01/30/2021  09:48:00       97.507       -8.200      -16.053       82.183       77.413       53.734     6754.001     5992.714     2887.396        1.273        0.782       97.851       46.745        0.228      332.678        1.495      865.332
01/30/2021  09:49:00       92.485      -24.141      -11.205       64.445       55.175       33.948     4153.097     3044.330     1152.449        0.880        0.417       95.584       34.252        0.128      332.653        1.456      865.330
01/30/2021  09:50:00       70.022      -52.828      -17.508       56.091       83.512       30.316     3146.229     6974.248      919.059        0.952        0.552       87.715       23.582        0.072      332.828        1.744      865.323
01/30/2021  09:51:00       89.968     -153.503      -39.116       29.776       41.340       20.988      886.618     1708.976      440.517        1.811        0.152      177.925       19.247        0.012      332.334        0.927      865.323
01/30/2021  09:52:00      101.865      -75.028      -29.999       25.124       47.157       18.070      631.237     2223.807      326.511        1.004        0.159      126.514       21.539        0.029      332.470        1.153      865.320
01/30/2021  09:53:00       68.698       -3.327      -12.724       36.077       50.966       28.524     1301.558     2597.579      813.620        0.480        0.236       68.779       22.184        0.104      332.853        1.785      865.320
01/30/2021  09:54:00       55.736       -9.413      -16.936       47.954       56.027       32.664     2299.622     3139.000     1066.938        0.499        0.325       56.525       25.639        0.206      332.978        1.991      865.318
01/30/2021  09:55:00       47.471      -26.520       11.382       61.492       66.431       45.924     3781.278     4413.022     2109.021        0.669        0.515       54.377       33.574        0.381      333.015        2.053      865.317
01/30/2021  09:56:00       72.529      -59.938      -20.252       77.745       73.856       41.365     6044.349     5454.770     1711.037        1.123        0.661       94.090       37.734        0.161      332.937        1.923      865.320
01/30/2021  09:57:00       45.941      -12.926       -5.141       65.437       61.364       46.661     4281.962     3765.575     2177.269        0.626        0.511       47.725       38.098        0.637      333.034        2.085      865.331
01/30/2021  09:58:00       35.254      -56.725      -17.384       74.269       55.120       35.055     5515.943     3038.215     1228.836        0.727        0.489       66.787       36.546        0.299      333.085        2.169      865.336
01/30/2021  09:59:00       53.971      -18.986       -7.821       43.905       27.231       25.925     1927.613      741.548      672.089        0.334        0.167       57.213       26.765        0.219      332.838        1.762      865.346
01/30/2021  10:00:00       20.245        5.818      -18.346       48.431       45.314       25.701     2345.578     2053.370      660.538        0.292        0.253       21.065       23.835        1.280      333.152        2.279      865.355
01/30/2021  10:01:00      120.211     -157.997      -41.286       59.115       53.747       30.409     3494.597     2888.775      924.712        2.421        0.365      198.529       36.806        0.034      332.542        1.271      865.363
01/30/2021  10:02:00      151.067     -132.442      -51.129       30.009       34.496       18.451      900.565     1189.947      340.440        2.270        0.122      200.903       16.201        0.007      332.443        1.106      865.367
01/30/2021  10:03:00      144.568     -147.466      -38.050       28.474       60.832       24.171      810.747     3700.509      584.257        2.459        0.255      206.509       27.249        0.017      332.485        1.176      865.376
01/30/2021  10:04:00       69.683      -33.199      -18.108       56.104       50.488       30.630     3147.611     2549.044      938.183        0.646        0.332       77.188       27.846        0.130      332.824        1.739      865.392
01/30/2021  10:05:00       53.699      -35.906      -12.887       46.079       73.377       27.543     2123.235     5384.153      758.599        0.630        0.413       64.598       17.937        0.077      332.928        1.910      865.399
01/30/2021  10:06:00      115.285     -144.845      -45.569       51.921       51.412       26.095     2695.741     2643.166      680.960        2.118        0.301      185.123       24.607        0.018      332.831        1.748      865.420
01/30/2021  10:07:00       90.637      -30.849      -22.622       56.848       70.542       34.455     3231.730     4976.158     1187.121        0.953        0.470       95.743       31.191        0.106      333.041        2.097      865.433
01/30/2021  10:08:00       88.200     -118.203      -30.069       33.618       48.443       25.775     1130.155     2346.764      664.357        1.340        0.207      147.482       21.682        0.022      332.691        1.518      865.441
01/30/2021  10:09:00      103.032      -50.894      -25.987       39.053       41.142       26.603     1525.159     1692.635      707.723        0.890        0.196      114.917       21.673        0.036      332.645        1.442      865.437
01/30/2021  10:10:00       78.716     -124.545      -30.386       50.387       44.721       27.599     2538.859     1999.935      761.690        1.396        0.265      147.336       22.217        0.023      332.926        1.907      865.424
01/30/2021  10:11:00      118.520     -134.591      -42.095       44.518       44.797       22.347     1981.841     2006.769      499.373        1.921        0.224      179.337       23.304        0.017      332.815        1.723      865.405
01/30/2021  10:12:00      129.155     -127.944      -42.226       39.385       56.495       26.912     1551.141     3191.673      724.261        2.015        0.273      181.798       22.141        0.015      332.572        1.321      865.406
01/30/2021  10:13:00      116.470     -102.488      -32.347       37.923       42.962       25.692     1438.162     1845.710      660.098        1.453        0.197      155.142       26.024        0.028      332.607        1.380      865.410
01/30/2021  10:14:00       94.887     -117.996      -36.967       52.402       41.738       25.498     2746.016     1742.025      650.168        1.471        0.257      151.415       21.818        0.021      332.899        1.862      865.414
01/30/2021  10:15:00      100.372     -104.218      -36.596       44.666       54.544       22.649     1995.050     2975.034      512.961        1.388        0.274      144.692       21.780        0.023      332.710        1.549      865.425
01/30/2021  10:16:00       70.283     -107.297      -27.744       44.351       52.944       34.980     1966.988     2803.088     1223.598        1.161        0.300      128.267       27.069        0.045      332.955        1.954      865.438
01/30/2021  10:17:00       -1.777      -51.044      -22.278       46.619       38.044       28.917     2173.317     1447.353      836.210        0.378        0.223       51.075       22.383        0.192      333.037        2.089      865.445
01/30/2021  10:18:00      -32.171       12.353       -8.636       24.881       17.110       19.914      619.080      292.749      396.558        0.128        0.065       34.461       11.641        0.114      332.808        1.711      865.449
01/30/2021  10:19:00       -9.350       11.510       -8.334       28.667       15.083       17.592      821.797      227.511      309.484        0.082        0.068       14.829        9.589        0.418      332.935        1.923      865.454
01/30/2021  10:20:00      -18.138      -22.990      -12.710       39.723       36.794       22.974     1577.886     1353.834      527.820        0.224        0.173       29.283       14.255        0.237      333.072        2.149      865.459
01/30/2021  10:21:00      -26.303      -57.533      -16.091       35.896       39.608       23.410     1288.514     1568.771      548.040        0.383        0.170       63.260       13.651        0.047      332.953        1.952      865.471
01/30/2021  10:22:00        8.647      -64.521      -12.197       40.487       28.839       25.165     1639.190      831.702      633.285        0.374        0.155       65.097       19.907        0.094      332.850        1.779      865.476
01/30/2021  10:23:00      -27.943       -0.117       -0.635       40.687       20.223       19.717     1655.446      408.988      388.755        0.162        0.123       27.944        6.601        0.056      332.984        2.001      865.492
01/30/2021  10:24:00        2.582        9.976       -6.953       29.182       17.450       19.645      851.571      304.495      385.919        0.085        0.077       10.305       14.912        2.094      333.136        2.254      865.505
01/30/2021  10:25:00       38.400       16.271        2.384       49.200       40.752       36.919     2420.614     1660.691     1362.976        0.359        0.272       41.705       27.382        0.431      333.074        2.152      865.502
01/30/2021  10:26:00       53.382       -1.872      -26.626       95.702       62.057       36.515     9158.894     3851.057     1333.378        0.895        0.717       53.415       30.460        0.325      333.085        2.170      865.502
01/30/2021  10:27:00       93.301     -109.570      -43.104       73.329       76.856       50.121     5377.138     5906.879     2512.099        1.818        0.690      143.912       43.192        0.090      333.040        2.092      865.498
01/30/2021  10:28:00      130.116     -142.454      -43.379       55.303       36.219       28.038     3058.375     1311.790      786.157        2.213        0.258      192.933       33.148        0.030      332.850        1.780      865.496
01/30/2021  10:29:00      107.790     -124.932      -40.765       55.395       43.681       28.637     3068.581     1908.045      820.080        1.734        0.290      165.005       32.026        0.038      333.037        2.088      865.496
01/30/2021  10:30:00      119.621      -80.449      -36.697       67.953       79.127       35.942     4617.591     6261.055     1291.849        1.715        0.609      144.157       37.806        0.069      332.956        1.954      865.479
01/30/2021  10:31:00      153.129      -88.147      -35.321       54.944       46.319       32.060     3018.797     2145.462     1027.874        1.933        0.310      176.687       34.193        0.037      332.986        2.005      865.463
01/30/2021  10:32:00      112.101     -107.859      -34.391       52.498       61.881       28.117     2756.025     3829.303      790.570        1.638        0.369      155.564       35.946        0.053      332.983        2.000      865.448
01/30/2021  10:33:00      142.056      -33.522      -39.529       75.614       50.162       34.671     5717.501     2516.237     1202.059        1.615        0.472      145.958       37.040        0.064      332.958        1.958      865.432
01/30/2021  10:34:00      104.266     -100.711      -41.903       76.418       55.317       41.980     5839.776     3059.994     1762.305        1.671        0.533      144.963       46.487        0.103      332.964        1.970      865.437
01/30/2021  10:35:00      123.349     -132.113      -42.514       57.237       43.233       32.422     3276.058     1869.112     1051.201        2.033        0.310      180.745       35.510        0.039      332.851        1.780      865.442
01/30/2021  10:36:00      109.788      -58.624      -40.529       59.015       65.834       30.815     3482.756     4334.170      949.536        1.295        0.438      124.460       32.173        0.067      332.882        1.834      865.438
01/30/2021  10:37:00       -0.967      -53.185      -23.673       77.698       53.680       36.665     6036.949     2881.496     1344.322        0.682        0.513       53.194       42.294        0.632      333.040        2.095      865.426
01/30/2021  10:38:00      -19.253      -27.549       -9.119       37.987       35.969       29.928     1442.981     1293.754      895.682        0.242        0.182       33.610       20.866        0.385      333.253        2.446      865.418
01/30/2021  10:39:00      -32.677       43.196       13.313       35.429       36.775       22.133     1255.247     1352.428      489.859        0.310        0.155       54.164       12.544        0.054      332.890        1.847      865.412
01/30/2021  10:40:00      -60.980       52.870       -0.609       34.687       28.306       20.553     1203.204      801.232      422.419        0.447        0.121       80.708       16.488        0.042      332.841        1.767      865.412
01/30/2021  10:41:00       -3.593       47.064        3.878       29.504       19.533       17.666      870.482      381.548      312.078        0.190        0.078       47.201        8.276        0.031      333.066        2.137      865.411
01/30/2021  10:42:00      -17.552       20.409        3.376       18.613       30.373       18.937      346.452      922.526      358.628        0.118        0.081       26.918        9.114        0.115      333.277        2.488      865.410
01/30/2021  10:43:00       68.405       -0.760       -1.223       85.256       48.052       35.079     7268.525     2309.008     1230.552        0.774        0.540       68.410       32.674        0.228      333.427        2.736      865.407
01/30/2021  10:44:00      145.604        3.405       -8.941       90.687       73.184       57.860     8224.113     5355.861     3347.776        1.911        0.846      145.644       53.527        0.135      333.098        2.190      865.396
01/30/2021  10:45:00      101.164       19.331       -3.162       75.599       74.716       44.157     5715.249     5582.475     1949.865        1.193        0.662      102.994       47.426        0.212      333.024        2.069      865.397
01/30/2021  10:46:00      103.712        8.034      -32.333       69.697       67.021       34.931     4857.706     4491.802     1220.186        1.122        0.528      104.023       35.754        0.118      333.285        2.500      865.401
01/30/2021  10:47:00       87.084      -36.959      -21.217       84.181       74.801       47.615     7086.512     5595.191     2267.188        1.217        0.747       94.602       51.954        0.302      333.475        2.813      865.397
01/30/2021  10:48:00      134.289        1.214       -7.467       84.698       45.841       41.918     7173.755     2101.416     1757.104        1.456        0.552      134.295       46.792        0.121      333.002        2.033      865.411
01/30/2021  10:49:00       77.165       28.405       -5.313       63.948       43.255       30.699     4089.332     1871.008      942.418        0.684        0.345       82.227       38.270        0.217      333.048        2.108      865.414
01/30/2021  10:50:00      173.201       14.323      -18.050       80.378       63.098       42.380     6460.676     3981.312     1796.091        2.138        0.612      173.792       36.912        0.045      333.277        2.486      865.400
01/30/2021  10:51:00      105.768      -15.341      -17.127       94.919       69.814       51.493     9009.586     4874.005     2651.557        1.412        0.827      106.875       48.304        0.204      333.407        2.702      865.387
01/30/2021  10:52:00       88.776      -68.451      -21.559       70.453       94.574       47.617     4963.582     8944.209     2267.347        1.460        0.809      112.101       52.142        0.216      333.446        2.765      865.378
01/30/2021  10:53:00      137.561       49.538      -13.874       78.959       59.739       43.220     6234.488     3568.701     1867.975        1.662        0.584      146.209       39.212        0.072      333.300        2.523      865.368
01/30/2021  10:54:00      195.648       82.813      -24.362       57.692       43.825       29.352     3328.318     1920.606      861.558        2.592        0.306      212.453       27.953        0.017      332.909        1.877      865.353
01/30/2021  10:55:00      165.428       70.488      -29.643       51.805       46.804       30.604     2683.791     2190.585      936.580        1.951        0.291      179.820       25.836        0.021      333.040        2.095      865.337
01/30/2021  10:56:00       87.055      -19.623      -32.939       62.099       89.901       38.226     3856.339     8082.156     1461.215        1.122        0.670       89.239       36.026        0.163      333.358        2.620      865.316
01/30/2021  10:57:00       60.555      -71.051      -30.941       65.148       88.196       39.398     4244.247     7778.604     1552.237        1.162        0.679       93.355       44.847        0.231      333.350        2.607      865.300
01/30/2021  10:58:00       51.047      -20.971       -9.952       73.769       54.627       38.799     5441.819     2984.110     1505.395        0.654        0.497       55.187       41.128        0.555      333.333        2.580      865.287
01/30/2021  10:59:00       42.050       44.150       -3.272       82.280       65.794       34.902     6769.952     4328.821     1218.154        0.802        0.616       60.970       40.853        0.449      333.384        2.665      865.285
01/30/2021  11:00:00       88.673       35.915      -21.054       54.424       51.566       30.187     2961.942     2659.043      911.266        0.806        0.327       95.670       22.100        0.053      333.310        2.540      865.289
01/30/2021  11:01:00      143.434       54.913      -28.138       73.759       34.720       26.128     5440.415     1205.500      682.670        1.585        0.366      153.586       36.460        0.056      333.144        2.266      865.301
01/30/2021  11:02:00       79.445       28.531      -22.615       66.784       38.366       33.790     4460.122     1471.974     1141.761        0.735        0.354       84.413       30.940        0.134      333.413        2.714      865.311
01/30/2021  11:03:00      -28.482      -52.467      -22.238       58.193       46.729       33.450     3386.408     2183.558     1118.911        0.537        0.334       59.699       27.571        0.213      333.662        3.125      865.301
01/30/2021  11:04:00      -56.943      -24.553      -15.323       49.121       41.960       29.259     2412.864     1760.659      856.106        0.455        0.251       62.011       22.502        0.132      333.555        2.948      865.315
01/30/2021  11:05:00       20.026      -16.162       -6.702       63.989       39.932       30.375     4094.563     1594.572      922.627        0.366        0.331       25.734       29.567        1.320      333.493        2.845      865.307
01/30/2021  11:06:00      116.875       20.290      -29.422       55.821       57.693       31.043     3115.975     3328.499      963.667        1.117        0.370      118.623       29.253        0.061      333.142        2.262      865.303
01/30/2021  11:07:00       85.586      -41.022      -19.542       46.593       25.162       24.780     2170.948      633.135      614.044        0.640        0.171       94.909       25.764        0.074      333.079        2.161      865.300
01/30/2021  11:08:00       63.531       26.433       -7.371       54.211       45.131       35.178     2938.821     2036.802     1237.509        0.550        0.311       68.810       36.662        0.284      333.357        2.620      865.285
01/30/2021  11:09:00       46.645      -23.383      -14.409       59.489       66.268       38.531     3538.965     4391.438     1484.660        0.617        0.471       52.178       41.784        0.641      333.491        2.841      865.274
01/30/2021  11:10:00      150.599       86.044      -20.373       64.729       46.234       32.551     4189.830     2137.598     1059.545        1.894        0.369      173.446       33.386        0.037      333.128        2.240      865.282
01/30/2021  11:11:00       64.788       70.104       -8.565       52.213       30.399       31.655     2726.208      924.071     1002.017        0.692        0.233       95.458       34.341        0.129      333.191        2.344      865.291
01/30/2021  11:12:00       87.360       85.885      -16.157       59.734       39.228       35.323     3568.159     1538.872     1247.747        1.081        0.318      122.507       35.516        0.084      333.262        2.462      865.287
01/30/2021  11:13:00       78.745       22.957      -20.128       76.435      101.195       38.995     5842.350    10240.392     1520.646        1.236        0.880       82.023       39.424        0.231      333.416        2.717      865.295
01/30/2021  11:14:00       49.561       17.328      -11.332       63.425       71.218       34.513     4022.683     5071.951     1191.167        0.658        0.514       52.503       34.286        0.426      333.528        2.902      865.289
01/30/2021  11:15:00      114.558       60.019      -18.415       50.634       24.263       24.844     2563.852      588.706      617.238        1.042        0.188      129.328       31.105        0.058      332.974        1.987      865.292
01/30/2021  11:16:00       63.214       15.394      -17.416       53.905       38.636       28.515     2905.783     1492.747      813.133        0.487        0.261       65.061       30.054        0.213      333.275        2.483      865.284
01/30/2021  11:17:00       80.845      -40.779      -18.628       57.607       62.288       29.595     3318.515     3879.840      875.842        0.831        0.404       90.547       31.135        0.118      333.579        2.985      865.272
01/30/2021  11:18:00       96.330       35.008        5.101       68.747       54.917       45.973     4726.096     3015.920     2113.521        1.019        0.493      102.494       45.043        0.193      333.553        2.943      865.272
01/30/2021  11:19:00      111.030       63.785      -18.309       62.534       41.500       37.199     3910.451     1722.276     1383.766        1.187        0.351      128.048       38.168        0.089      333.415        2.715      865.277
01/30/2021  11:20:00      140.638       98.284      -22.673       56.774       39.281       35.504     3223.243     1542.995     1260.553        1.799        0.301      171.577       34.991        0.042      333.286        2.500      865.271
01/30/2021  11:21:00      102.252       82.274      -20.648       55.715       23.816       28.975     3104.210      567.185      839.566        1.108        0.226      131.242       33.501        0.065      333.140        2.259      865.270
01/30/2021  11:22:00      103.050       19.735      -18.338       70.257       64.538       26.761     4936.010     4165.181      716.166        1.058        0.491      104.922       28.702        0.075      333.568        2.968      865.270
01/30/2021  11:23:00      109.547      -31.169      -44.856      102.508       62.540       48.233    10507.951     3911.286     2326.383        1.586        0.837      113.895       56.312        0.244      333.503        2.859      865.313
01/30/2021  11:24:00      165.670      -15.688      -41.959       65.957       43.982       31.341     4350.322     1934.374      982.277        1.836        0.363      166.411       28.390        0.029      333.144        2.267      865.346
01/30/2021  11:25:00       93.297       20.193      -18.194       49.622       35.217       24.901     2462.354     1240.211      620.039        0.688        0.216       95.458       19.895        0.043      333.147        2.270      865.353
01/30/2021  11:26:00       97.624       57.168       -6.500       47.871       43.196       28.989     2291.585     1865.930      840.388        0.892        0.250      113.131       25.396        0.050      333.266        2.467      865.336
01/30/2021  11:27:00       58.749      -52.772      -18.659       52.688       57.655       33.076     2776.014     3324.110     1094.022        0.689        0.360       78.971       30.721        0.151      333.655        3.111      865.337
01/30/2021  11:28:00       12.794      -39.528       -6.823       97.883       87.194       43.072     9581.155     7602.854     1855.187        1.040        0.952       41.547       44.360        1.140      333.821        3.386      865.327
01/30/2021  11:29:00       61.293      -77.331      -39.935       79.399       80.520       34.029     6304.234     6483.475     1158.005        1.264        0.697       98.676       26.002        0.069      333.772        3.306      865.331
01/30/2021  11:30:00       22.612      -64.401      -31.795       82.885       71.388       27.260     6869.942     5096.305      743.105        0.919        0.635       68.255       33.848        0.246      333.515        2.882      865.336
01/30/2021  11:31:00      114.818     -185.747      -40.702       59.716       89.656       27.962     3566.038     8038.115      781.855        3.086        0.619      218.369       34.496        0.025      333.182        2.328      865.341
01/30/2021  11:32:00      115.948     -193.687      -39.547       53.196       36.365       25.717     2829.849     1322.403      661.382        2.867        0.241      225.740       29.800        0.017      333.181        2.325      865.328
01/30/2021  11:33:00      107.571     -104.272      -30.536       53.929       30.059       29.628     2908.352      903.560      877.810        1.403        0.234      149.814       33.020        0.049      333.237        2.419      865.326
01/30/2021  11:34:00       94.929      -74.950      -26.157       52.091       60.752       30.298     2713.463     3690.846      917.979        1.132        0.366      120.950       35.162        0.085      333.608        3.035      865.310
01/30/2021  11:35:00       56.883     -135.840      -32.776       70.099       42.898       36.456     4913.872     1840.255     1329.050        1.542        0.404      147.269       17.749        0.015      333.669        3.134      865.296
01/30/2021  11:36:00       87.917      -93.388      -27.571       48.874       54.428       27.036     2388.631     2962.405      730.952        1.165        0.304      128.260       25.371        0.039      333.553        2.944      865.286
01/30/2021  11:37:00       55.099      -78.396      -16.315       37.408       38.430       28.758     1399.357     1476.902      827.016        0.657        0.185       95.822       25.725        0.072      333.405        2.697      865.264
01/30/2021  11:38:00       33.527      -48.982      -12.647       64.606       48.644       31.348     4173.930     2366.237      982.671        0.560        0.376       59.358       35.107        0.350      333.945        3.593      865.244
01/30/2021  11:39:00       58.315       65.469       -0.488       58.776       31.697       30.486     3454.621     1004.730      929.389        0.654        0.269       87.674       29.564        0.114      333.804        3.360      865.232
01/30/2021  11:40:00       34.706      -54.359      -18.297       76.176       92.408       47.010     5802.837     8539.268     2209.931        1.052        0.828       64.493       50.645        0.617      333.744        3.260      865.218
01/30/2021  11:41:00       78.075      -70.225      -19.064       44.940       34.711       25.803     2019.617     1204.885      665.801        0.764        0.195      105.011       31.037        0.087      333.496        2.849      865.219
01/30/2021  11:42:00      121.852       -4.468      -14.237       67.083       68.574       34.849     4500.120     4702.359     1214.433        1.274        0.521      121.934       27.650        0.051      333.709        3.201      865.215
01/30/2021  11:43:00       77.625      -10.685      -18.000       73.128       86.808       35.381     5347.747     7535.542     1251.801        1.030        0.707       78.357       17.118        0.048      333.886        3.495      865.214
01/30/2021  11:44:00       66.032      -14.527       -7.222       91.561       53.296       44.288     8383.335     2840.489     1961.440        0.890        0.659       67.611       45.672        0.456      333.810        3.369      865.221
01/30/2021  11:45:00       64.264     -121.273      -23.548       78.985       63.872       39.656     6238.571     4079.575     1572.622        1.564        0.595      137.248       47.590        0.120      333.817        3.380      865.232
01/30/2021  11:46:00      104.506      -83.632      -37.898       63.296       54.053       29.955     4006.355     2921.761      897.330        1.359        0.391      133.850       35.875        0.072      333.576        2.981      865.244
01/30/2021  11:47:00      110.082     -181.245      -36.047       58.118       39.527       29.555     3377.654     1562.396      873.520        2.604        0.291      212.056       31.561        0.022      333.505        2.861      865.242
01/30/2021  11:48:00       69.141     -120.415      -43.748       75.545       57.651       35.824     5707.010     3323.621     1283.359        1.575        0.516      138.853       35.208        0.064      333.677        3.149      865.227
01/30/2021  11:49:00       85.943      -91.076      -39.380       63.426       45.484       28.720     4022.846     2068.822      824.841        1.207        0.346      125.224       23.671        0.036      333.701        3.188      865.214
01/30/2021  11:50:00       14.203      -18.515      -17.804       70.275       39.540       30.004     4938.553     1563.391      900.217        0.413        0.370       23.335       31.858        1.864      333.904        3.525      865.204
01/30/2021  11:51:00       37.642       23.713      -15.014       60.143       44.885       27.851     3617.153     2014.701      775.689        0.430        0.320       44.489       32.155        0.522      333.971        3.635      865.202
01/30/2021  11:52:00       30.865       45.776        0.010       45.445       33.030       26.775     2065.288     1090.997      716.878        0.346        0.194       55.209       27.296        0.244      333.848        3.432      865.200
01/30/2021  11:53:00       44.142        9.799       -5.056       43.911       32.365       27.353     1928.216     1047.497      748.209        0.290        0.186       45.216       25.384        0.315      333.918        3.548      865.208
01/30/2021  11:54:00       63.154      -26.418      -14.556       50.253       67.726       30.905     2525.407     4586.761      955.146        0.648        0.403       68.457       34.168        0.249      333.937        3.579      865.201
01/30/2021  11:55:00       62.934       -8.459      -26.955       38.610       71.572       24.188     1490.700     5122.556      585.036        0.598        0.360       63.500       23.932        0.142      334.000        3.683      865.190
01/30/2021  11:56:00       39.039      -55.221      -15.250       59.095       48.856       32.287     3492.258     2386.922     1042.466        0.586        0.346       67.627       34.046        0.253      334.094        3.841      865.176
01/30/2021  11:57:00       69.787      -73.530      -13.269       69.942       65.996       40.327     4891.944     4355.410     1626.228        1.066        0.544      101.375       40.128        0.157      334.032        3.736      865.169
01/30/2021  11:58:00       97.312     -156.224      -24.111       30.304       42.786       31.663      918.314     1830.647     1002.547        1.910        0.188      184.053       21.758        0.014      333.517        2.881      865.154
01/30/2021  11:59:00       -6.022      -79.800      -11.709       69.754       56.374       43.008     4865.562     3178.074     1849.702        0.822        0.495       80.027       33.602        0.176      333.908        3.532      865.136
01/30/2021  12:00:00       44.522      -77.007      -21.830       51.334       54.090       26.956     2635.230     2925.775      726.619        0.734        0.314       88.952       19.584        0.048      333.788        3.333      865.116
01/30/2021  12:01:00       32.851      -63.317      -11.157       72.607       39.446       30.879     5271.753     1555.969      953.503        0.650        0.389       71.332       21.323        0.089      333.936        3.578      865.090
01/30/2021  12:02:00       -4.938      -11.204      -14.290       45.092       36.384       33.771     2033.329     1323.812     1140.462        0.242        0.225       12.244       14.849        1.471      334.056        3.777      865.064
01/30/2021  12:03:00       45.814      -15.715      -17.077       51.555       42.233       31.260     2657.881     1783.622      977.197        0.403        0.271       48.434       31.387        0.420      334.053        3.771      865.049
01/30/2021  12:04:00       39.333       32.156       -8.525       53.188       44.986       32.086     2828.985     2023.769     1029.509        0.427        0.294       50.804       32.273        0.404      333.982        3.655      865.040
01/30/2021  12:05:00       52.741       39.460      -20.291       38.217       36.112       27.062     1460.558     1304.073      732.330        0.412        0.175       65.868       20.071        0.093      333.908        3.532      865.023
01/30/2021  12:06:00       35.473        8.709        7.850       69.367       54.730       30.322     4811.778     2995.361      919.437        0.506        0.436       36.526       34.482        0.891      334.044        3.758      865.010
01/30/2021  12:07:00       59.972       60.486       -9.187       51.578       44.598       32.013     2660.312     1988.993     1024.801        0.651        0.284       85.177       21.086        0.061      333.954        3.608      865.009
01/30/2021  12:08:00       77.928        0.539      -12.764       50.412       57.920       26.598     2541.356     3354.782      707.449        0.642        0.330       77.930       32.964        0.179      333.751        3.272      864.992
01/30/2021  12:09:00       45.542     -121.509      -14.297       58.551       59.191       34.514     3428.204     3503.583     1191.217        1.258        0.406      129.764       41.250        0.101      333.730        3.235      864.980
01/30/2021  12:10:00       96.879      -36.622      -14.848       50.994       42.932       30.360     2600.401     1843.189      921.737        0.816        0.268      103.570       19.960        0.037      333.888        3.500      864.970
01/30/2021  12:11:00       70.259      -42.126      -19.466       45.183       31.679       22.112     2041.487     1003.567      488.933        0.531        0.177       81.920       18.810        0.053      333.474        2.813      864.968
01/30/2021  12:12:00       31.714      -31.770      -14.413       37.378       28.429       23.836     1397.142      808.189      568.136        0.250        0.139       44.890       21.796        0.236      333.889        3.500      864.961
01/30/2021  12:13:00       19.688        5.994       -9.481       33.061       39.308       24.022     1093.054     1545.120      577.065        0.186        0.161       20.581       18.806        0.835      333.948        3.598      864.958
01/30/2021  12:14:00       40.568       17.871      -16.900       27.578       38.492       13.452      760.531     1481.656      180.964        0.234        0.121       44.330       10.952        0.061      333.568        2.969      864.939
01/30/2021  12:15:00      116.779       41.961      -15.502       54.018       46.580       16.552     2917.944     2169.662      273.961        1.050        0.268      124.089       13.003        0.011      333.504        2.863      864.919
01/30/2021  12:16:00       29.539       16.529      -10.210       48.033       32.317       25.109     2307.213     1044.366      630.451        0.262        0.199       33.849       26.096        0.594      333.676        3.147      864.904
01/30/2021  12:17:00       61.792       34.021       -8.832       62.450       45.625       26.467     3899.947     2081.621      700.478        0.587        0.334       70.539       24.616        0.122      333.981        3.652      864.875
01/30/2021  12:18:00      115.640      -38.451      -29.744       43.830       78.399       25.165     1921.044     6146.374      633.256        1.222        0.435      121.865       17.951        0.022      333.651        3.105      864.851
01/30/2021  12:19:00      116.664      -32.048      -14.020       41.396       63.104       29.246     1713.626     3982.070      855.333        1.069        0.328      120.986       23.421        0.037      333.824        3.392      864.817
01/30/2021  12:20:00      155.121       51.121      -23.678       87.199       69.874       36.744     7603.626     4882.444     1350.131        2.053        0.692      163.327       36.838        0.051      334.025        3.723      864.793
01/30/2021  12:21:00      223.540       66.902      -31.777       44.648       49.389       34.297     1993.431     2439.289     1176.295        3.053        0.280      233.336       18.869        0.007      333.653        3.106      864.783
01/30/2021  12:22:00      139.143       70.995      -22.357       55.538       63.755       35.448     3084.441     4064.692     1256.526        1.665        0.420      156.209       24.849        0.025      334.004        3.689      864.763
01/30/2021  12:23:00      108.932       33.253        0.167       85.186       71.699       43.011     7256.613     5140.716     1849.936        1.361        0.712      113.895       46.203        0.165      333.916        3.544      864.756
01/30/2021  12:24:00      134.605       72.646      -22.329       54.993       29.800       27.343     3024.227      888.060      747.657        1.428        0.233      152.957       26.319        0.030      333.591        3.006      864.759
01/30/2021  12:25:00      130.177       69.186      -31.524       65.484       60.749       31.378     4288.190     3690.462      984.559        1.584        0.448      147.420       21.763        0.022      334.136        3.908      864.755
01/30/2021  12:26:00      104.140      -23.057      -28.283       68.422       69.700       40.840     4681.634     4858.077     1667.909        1.169        0.560      106.662       34.483        0.105      334.079        3.815      864.742
01/30/2021  12:27:00      118.227       32.342      -20.655       37.838       45.348       21.387     1431.743     2056.459      457.387        0.970        0.197      122.571       20.556        0.028      333.698        3.185      864.737
01/30/2021  12:28:00       66.357       -6.192      -24.727       44.787       30.577       25.418     2005.877      934.941      646.063        0.432        0.179       66.645       24.135        0.131      333.744        3.261      864.713
01/30/2021  12:29:00       49.642        9.841      -29.624       63.580       57.357       35.436     4042.477     3289.841     1255.693        0.601        0.429       50.608       28.636        0.320      334.140        3.916      864.687
01/30/2021  12:30:00       56.078        7.296      -20.473       55.526       55.117       32.520     3083.103     3037.901     1057.540        0.540        0.359       56.550       29.866        0.279      334.020        3.719      864.674
01/30/2021  12:31:00       48.591      -29.600      -18.129       40.382       28.976       17.570     1630.701      839.636      308.691        0.317        0.139       56.897       19.835        0.122      333.965        3.626      864.654
01/30/2021  12:32:00       41.415       -5.911        1.484       26.610       30.690       22.770      708.099      941.851      518.487        0.196        0.108       41.835       16.656        0.159      333.955        3.609      864.631
01/30/2021  12:33:00      130.619       30.788       -6.272       62.986       64.857       36.027     3967.275     4206.461     1297.944        1.376        0.474      134.199       36.439        0.074      334.097        3.845      864.612
01/30/2021  12:34:00      133.328       57.353      -22.759       69.751       67.039       31.070     4865.181     4494.223      965.336        1.595        0.516      145.141       23.791        0.027      333.996        3.677      864.597
01/30/2021  12:35:00      127.394      -22.725      -23.659       89.538       69.076       53.283     8016.988     4771.523     2839.057        1.646        0.781      129.405       40.164        0.096      333.929        3.564      864.593
01/30/2021  12:36:00      152.545       63.161      -18.337       49.721       49.334       29.512     2472.143     2433.852      870.959        1.668        0.289      165.104       16.549        0.010      333.738        3.248      864.595
01/30/2021  12:37:00       55.175       15.341       -4.341       71.791       56.772       36.625     5153.999     3223.039     1341.369        0.651        0.486       57.268       36.847        0.414      334.214        4.039      864.583
01/30/2021  12:38:00      100.522       72.507      -14.330       56.431       45.627       26.887     3184.488     2081.822      722.907        1.078        0.299      123.943       27.162        0.048      333.964        3.625      864.574
01/30/2021  12:39:00       93.331       56.956      -20.294       56.963       68.162       32.847     3244.780     4646.070     1078.936        1.067        0.448      109.337       29.801        0.074      334.092        3.837      864.554
01/30/2021  12:40:00       42.742      -63.112      -29.677       51.593       73.054       41.846     2661.797     5336.935     1751.090        0.822        0.487       76.224       23.858        0.098      334.427        4.394      864.533
01/30/2021  12:41:00       85.965      -33.275       -3.703       62.643       57.799       40.068     3924.179     3340.674     1605.409        0.869        0.444       92.180       39.514        0.184      334.271        4.134      864.518
01/30/2021  12:42:00       26.031      -31.454        2.965       70.590       39.173       28.256     4982.906     1534.550      798.426        0.449        0.366       40.828       26.681        0.427      334.453        4.436      864.510
01/30/2021  12:43:00       41.428      -22.310       -0.886       50.383       30.887       31.542     2538.436      954.006      994.920        0.335        0.224       47.053       26.325        0.313      334.260        4.116      864.501
01/30/2021  12:44:00       44.671      -29.758        0.878       54.706       23.266       29.416     2992.795      541.306      865.296        0.364        0.220       53.675       27.252        0.258      334.205        4.024      864.500
01/30/2021  12:45:00        9.561      -12.425       -4.730       48.890       29.082       17.865     2390.271      845.773      319.169        0.191        0.178       15.678        6.627        0.179      334.179        3.982      864.501
01/30/2021  12:46:00      -99.318        3.829       -6.327       50.934       41.544       26.781     2594.269     1725.881      717.210        0.748        0.252       99.392       21.905        0.049      334.004        3.690      864.503
01/30/2021  12:47:00      -10.491      -24.114       -4.209       32.371       37.553       24.221     1047.889     1410.221      586.671        0.188        0.152       26.297        4.909        0.035      334.316        4.209      864.492
01/30/2021  12:48:00       -6.884       10.503        2.148       24.629       22.647       21.501      606.593      512.908      462.311        0.087        0.079       12.558       14.734        1.377      334.158        3.946      864.483
01/30/2021  12:49:00       -9.903        8.316       -2.453       24.417       25.214       18.378      596.195      635.729      337.764        0.087        0.078       12.931       12.917        0.998      334.298        4.178      864.470
01/30/2021  12:50:00       -8.197        6.076        2.343       34.708       38.357       16.309     1204.629     1471.285      265.980        0.153        0.147       10.203       13.847        1.842      334.222        4.052      864.460
01/30/2021  12:51:00       -9.104       18.477        1.979       35.785       16.885       14.004     1280.584      285.094      196.110        0.109        0.088       20.598        8.083        0.154      334.249        4.097      864.437
01/30/2021  12:52:00      -34.719       47.413       -4.236       22.296       17.569       20.043      497.100      308.659      401.737        0.234        0.060       58.766        9.390        0.026      333.913        3.542      864.428
01/30/2021  12:53:00      -38.383       -3.194       -3.058       33.278       27.316       15.524     1107.415      746.139      240.987        0.179        0.105       38.515       11.725        0.093      333.949        3.600      864.418
01/30/2021  12:54:00       37.706       34.570       -8.314       50.263       46.739       16.261     2526.326     2184.497      264.423        0.383        0.249       51.155       20.075        0.154      334.352        4.268      864.405
01/30/2021  12:55:00       53.521       51.259       -4.747       26.119       40.888       19.267      682.211     1671.844      371.208        0.412        0.136       74.108       17.343        0.055      334.242        4.086      864.397
01/30/2021  12:56:00      122.362       89.845      -18.069       49.998       43.922       25.045     2499.808     1929.167      627.246        1.421        0.253      151.804       11.999        0.006      334.264        4.121      864.380
01/30/2021  12:57:00       95.120       37.778      -22.568       45.527       48.497       28.152     2072.678     2352.002      792.541        0.810        0.261      102.348       21.775        0.045      334.038        3.747      864.365
01/30/2021  12:58:00      135.948      -83.141      -42.024       99.191      101.722       48.623     9838.939    10347.404     2364.219        2.485        1.128      159.355       45.597        0.082      334.248        4.092      864.320
01/30/2021  12:59:00      173.622     -227.614      -52.528       56.174       72.268       28.432     3155.481     5222.595      808.401        4.695        0.459      286.274       21.730        0.006      334.077        3.807      864.298
01/30/2021  13:00:00       86.643     -110.000      -27.774       57.313       95.907       30.205     3284.793     9198.209      912.328        1.688        0.670      140.026       38.024        0.074      334.446        4.422      864.284
01/30/2021  13:01:00       25.622       -6.453        2.865       53.619       64.794       32.388     2874.987     4198.306     1048.994        0.441        0.406       26.422       24.904        0.888      334.794        5.001      864.284
01/30/2021  13:02:00      109.309      -30.640      -23.930       82.802       52.959       46.772     6856.234     2804.635     2187.621        1.265        0.592      113.522       49.606        0.191      334.111        3.867      864.274
01/30/2021  13:03:00       95.925      -37.494      -12.286       98.986       66.121       47.331     9798.264     4371.942     2240.191        1.358        0.821      102.992       53.084        0.266      334.249        4.095      864.259
01/30/2021  13:04:00       66.001      -14.408      -11.878       70.572       67.699       43.648     4980.346     4583.157     1905.125        0.808        0.573       67.556       39.242        0.337      334.427        4.392      864.271
01/30/2021  13:05:00       45.374      -57.234       -8.224       60.903       58.927       29.612     3709.217     3472.447      876.874        0.673        0.403       73.038       31.661        0.188      334.415        4.374      864.282
01/30/2021  13:06:00      140.646       24.106      -11.473      114.343       74.429       37.242    13074.312     5539.643     1386.966        2.024        1.000      142.697       43.532        0.093      334.387        4.326      864.286
01/30/2021  13:07:00      231.894       80.966       -5.763       83.039       77.047       52.135     6895.518     5936.302     2718.092        3.795        0.777      245.622       43.700        0.032      334.109        3.861      864.280
01/30/2021  13:08:00      180.638       70.344      -15.082       82.241       67.005       38.420     6763.539     4489.665     1476.117        2.526        0.636      193.852       38.601        0.040      334.185        3.989      864.293
01/30/2021  13:09:00      174.320        4.224       -1.775       95.622       65.964       44.186     9143.602     4351.260     1952.397        2.292        0.772      174.371       42.561        0.060      334.323        4.217      864.295
01/30/2021  13:10:00      192.872       28.738       -8.055       61.991       64.732       39.604     3842.907     4190.224     1568.510        2.384        0.480      195.002       35.120        0.032      334.074        3.803      864.280
01/30/2021  13:11:00      101.640        7.166       -7.305       69.272       66.459       38.932     4798.642     4416.744     1515.730        1.058        0.537      101.892       38.355        0.142      334.406        4.356      864.259
01/30/2021  13:12:00       98.916      -28.833      -21.749       65.216       94.808       47.058     4253.180     8988.516     2214.485        1.327        0.773      103.032       34.903        0.115      334.557        4.608      864.242
01/30/2021  13:13:00      124.014      -75.303      -26.615       71.977       62.488       38.553     5180.629     3904.771     1486.304        1.616        0.529      145.086       34.401        0.056      334.378        4.310      864.230
01/30/2021  13:14:00       75.740       -6.395      -12.963       75.032       60.626       50.237     5629.762     3675.521     2523.775        0.888        0.591       76.009       41.816        0.303      334.525        4.555      864.218
01/30/2021  13:15:00      124.037      -24.482      -10.883       75.170       52.263       32.742     5650.591     2731.402     1072.026        1.278        0.473      126.430       34.190        0.073      334.328        4.228      864.213
01/30/2021  13:16:00      106.354      -11.871      -35.331       84.925       87.985       58.303     7212.339     7741.291     3399.266        1.552        0.918      107.015       51.603        0.233      334.353        4.269      864.194
01/30/2021  13:17:00      143.475       -7.777      -33.369       84.173       80.273       61.535     7085.117     6443.697     3786.504        1.953        0.866      143.685       44.717        0.097      334.237        4.076      864.177
01/30/2021  13:18:00       74.774       -0.392       -2.432       78.368       71.937       37.271     6141.589     5174.887     1389.157        0.915        0.635       74.776       32.297        0.187      334.517        4.541      864.189
01/30/2021  13:19:00       52.490        3.050       -9.312       63.441       50.458       31.884     4024.712     2546.029     1016.567        0.522        0.379       52.578       14.450        0.076      334.517        4.542      864.181
01/30/2021  13:20:00       75.813      -99.568      -28.438       54.724       51.490       29.144     2994.698     2651.268      849.344        1.148        0.325      125.146       29.333        0.055      334.578        4.644      864.181
01/30/2021  13:21:00       43.281     -116.178      -28.974       76.159       79.945       37.710     5800.145     6391.222     1422.041        1.491        0.681      123.978       24.675        0.040      334.714        4.868      864.179
01/30/2021  13:22:00      146.760     -150.036      -31.747       87.449       78.052       49.058     7647.359     6092.153     2406.718        3.060        0.807      209.879       43.028        0.042      334.580        4.641      864.176
01/30/2021  13:23:00      197.934      -88.712      -24.887       71.562       65.932       46.156     5121.097     4347.072     2130.353        2.963        0.580      216.904       40.753        0.035      334.196        4.005      864.167
01/30/2021  13:24:00       75.914      -51.599      -33.830       68.669       83.244       37.905     4715.388     6929.594     1436.783        1.132        0.654       91.789       17.328        0.036      334.416        4.373      864.162
01/30/2021  13:25:00       58.702     -137.822      -21.145       64.369       98.274       41.236     4143.328     9657.800     1700.444        1.919        0.775      149.802       46.563        0.097      334.545        4.587      864.149
01/30/2021  13:26:00      105.145     -231.024      -43.168       42.821       46.788       29.520     1833.642     2189.085      871.436        3.559        0.245      253.826       25.126        0.010      334.232        4.065      864.133
01/30/2021  13:27:00      105.221     -140.643      -26.310       53.795       66.919       31.424     2893.916     4478.218      987.455        1.995        0.418      175.647       41.430        0.056      334.314        4.204      864.111
01/30/2021  13:28:00       95.820      -99.554      -22.420       47.574       70.758       39.027     2263.279     5006.695     1523.116        1.419        0.440      138.176       31.674        0.053      334.545        4.587      864.094
01/30/2021  13:29:00      123.048     -201.979      -39.586       35.330       40.118       23.147     1248.199     1609.447      535.794        3.045        0.170      236.509       21.287        0.008      334.110        3.863      864.075
01/30/2021  13:30:00       88.747     -127.260      -20.885       42.962       66.829       25.779     1845.763     4466.125      664.552        1.574        0.349      155.149       18.720        0.015      334.425        4.389      864.059
01/30/2021  13:31:00       32.013      -82.657       -6.971       47.913       76.945       32.381     2295.663     5920.517     1048.499        0.858        0.463       88.640       23.119        0.068      334.620        4.712      864.043
01/30/2021  13:32:00      114.948       -4.675      -22.091       70.268       67.339       41.669     4937.650     4534.501     1736.316        1.246        0.560      115.043       33.606        0.085      334.534        4.570      864.026
01/30/2021  13:33:00      162.761      -89.182      -36.114       78.003       84.357       34.137     6084.529     7116.157     1165.354        2.505        0.718      185.592       25.219        0.018      334.397        4.339      864.022
01/30/2021  13:34:00       43.491      -40.580      -12.820       42.730       64.833       29.915     1825.859     4203.309      894.930        0.531        0.346       59.483       22.625        0.145      334.675        4.804      864.023
01/30/2021  13:35:00       64.546     -127.773      -31.225       60.472       67.977       29.134     3656.877     4620.912      848.798        1.529        0.456      143.151       32.409        0.051      334.674        4.803      864.016
01/30/2021  13:36:00       89.053     -126.657      -26.773       39.871       66.946       24.080     1589.718     4481.808      579.867        1.567        0.333      154.830       26.342        0.029      334.413        4.370      864.040
01/30/2021  13:37:00      109.285     -178.026      -35.041       53.954       60.777       25.752     2911.058     3693.903      663.173        2.606        0.363      208.894       27.831        0.018      334.369        4.292      864.047
01/30/2021  13:38:00      118.562     -189.644      -33.850       43.649       44.545       28.502     1905.255     1984.256      812.340        2.793        0.235      223.655       31.150        0.019      334.281        4.146      864.054
01/30/2021  13:39:00      100.223      -97.605      -25.393       36.102       43.384       22.083     1303.381     1882.150      487.675        1.194        0.184      139.898       19.042        0.019      334.351        4.265      864.062
01/30/2021  13:40:00        4.280      -39.979       -9.513       47.278       51.265       29.801     2235.239     2628.132      888.094        0.373        0.288       40.208       32.834        0.667      334.614        4.704      864.062
01/30/2021  13:41:00       34.107      -56.739      -22.572       50.651       59.217       19.748     2565.526     3506.705      389.981        0.568        0.323       66.201       26.018        0.154      334.655        4.771      864.053
01/30/2021  13:42:00       28.096      -25.138      -10.980       59.983       49.907       32.822     3597.972     2490.722     1077.264        0.435        0.358       37.700       26.718        0.502      334.787        4.990      864.046
01/30/2021  13:43:00       53.584      -24.120      -10.763       52.407       30.075       22.937     2746.494      904.508      526.118        0.387        0.209       58.763       21.110        0.129      334.452        4.436      864.049
01/30/2021  13:44:00       27.239       -1.346        1.561       57.195       29.251       20.916     3271.317      855.629      437.475        0.265        0.228       27.272       19.505        0.512      334.790        4.996      864.053
01/30/2021  13:45:00       71.043       40.910      -11.077       54.735       51.810       24.212     2995.946     2684.292      586.223        0.655        0.313       81.980       26.994        0.108      334.700        4.846      864.056
01/30/2021  13:46:00       45.170       83.351       -3.970       27.966       33.659       19.125      782.094     1132.927      365.782        0.564        0.114       94.804       13.926        0.022      334.302        4.186      864.068
01/30/2021  13:47:00       -4.246       29.062       -8.330       33.692       13.900       18.795     1135.135      193.213      353.234        0.131        0.084       29.371       20.738        0.499      334.426        4.391      864.063
01/30/2021  13:48:00       69.694       41.761      -13.767       32.550       25.624       15.871     1059.489      656.570      251.900        0.438        0.098       81.248       16.816        0.043      334.331        4.233      864.056
01/30/2021  13:49:00       35.953       -2.089       -8.192       32.917       26.208       19.866     1083.534      686.851      394.652        0.176        0.108       36.014       19.901        0.305      334.633        4.734      864.053
01/30/2021  13:50:00       36.274       21.022       -9.802       29.842       40.197       24.477      890.557     1615.763      599.107        0.248        0.155       41.925       22.414        0.286      334.442        4.419      864.045
01/30/2021  13:51:00       18.331       25.155       -4.837       22.117       20.859       15.734      489.183      435.080      247.560        0.108        0.059       31.126       10.810        0.121      334.606        4.689      864.036
01/30/2021  13:52:00       41.931       25.096       -3.105       49.109       50.391       28.287     2411.686     2539.238      800.137        0.407        0.288       48.868       17.688        0.131      334.732        4.898      864.033
01/30/2021  13:53:00       37.450       -0.501      -14.744       70.136       58.435       38.000     4919.012     3414.634     1443.975        0.570        0.489       37.453       30.452        0.661      334.925        5.219      864.027
01/30/2021  13:54:00       32.245        0.823      -22.939       60.358       55.772       32.231     3643.120     3110.531     1038.836        0.468        0.390       32.255       23.792        0.544      334.823        5.051      864.016
01/30/2021  13:55:00      -15.446      -33.218      -14.347       60.220       74.210       41.395     3626.454     5507.101     1713.567        0.620        0.542       36.633       17.673        0.233      335.120        5.542      864.016
01/30/2021  13:56:00       21.548      -55.704       -0.109       59.157       56.569       42.292     3499.560     3200.089     1788.655        0.603        0.424       59.726       36.337        0.370      335.053        5.432      864.023
01/30/2021  13:57:00       10.883        9.272       -3.505       37.019       17.393       17.569     1370.430      302.501      308.666        0.110        0.099       14.297       12.873        0.811      335.140        5.576      864.022
01/30/2021  13:58:00       33.554       15.416       -8.478       33.672       46.014       17.288     1133.774     2117.278      298.876        0.249        0.177       36.926       14.564        0.156      334.800        5.011      864.015
01/30/2021  13:59:00       65.295       60.257       -2.979       38.159       28.687       19.054     1456.112      822.921      363.043        0.527        0.132       88.850       19.715        0.049      334.579        4.645      864.015
01/30/2021  14:00:00      101.027       57.958       -9.535       30.689       21.892       15.750      941.832      479.243      248.074        0.766        0.083      116.472       11.122        0.009      334.468        4.461      864.015
01/30/2021  14:01:00       95.048       47.990       -2.973       37.541       44.866       24.622     1409.360     2012.925      606.263        0.769        0.201      106.476       19.702        0.034      334.594        4.669      864.016
01/30/2021  14:02:00       74.477       64.875      -12.364       32.334       24.585       18.407     1045.459      604.432      338.818        0.595        0.099       98.770       13.273        0.018      334.612        4.698      864.018
01/30/2021  14:03:00       17.981       44.655       -3.187       57.368       39.097       24.694     3291.102     1528.572      609.785        0.388        0.271       48.140       16.430        0.116      334.849        5.094      864.021
01/30/2021  14:04:00      -26.951      -15.458       -6.738       53.843       50.576       31.824     2899.028     2557.938     1012.783        0.374        0.323       31.069       22.255        0.513      335.297        5.838      864.013
01/30/2021  14:05:00       40.547        6.187       -3.216       52.410       65.631       43.743     2746.790     4307.375     1913.462        0.533        0.448       41.016       29.778        0.527      334.969        5.293      864.016
01/30/2021  14:06:00       48.409       12.331      -10.903       50.977       56.756       26.706     2598.697     3221.293      713.208        0.457        0.327       49.954       23.398        0.219      334.854        5.101      864.016
01/30/2021  14:07:00       56.101      -70.467      -16.108       41.484       56.279       29.245     1720.909     3167.342      855.275        0.706        0.287       90.071       24.825        0.076      334.902        5.180      864.014
01/30/2021  14:08:00       23.668       -5.314       -0.709       19.662       20.693       18.364      386.598      428.193      337.234        0.087        0.058       24.257        9.968        0.169      334.904        5.186      864.028
01/30/2021  14:09:00        9.606       33.585       -0.817       27.017       16.714       13.867      729.930      279.346      192.286        0.121        0.060       34.931       10.136        0.084      334.592        4.666      864.031
01/30/2021  14:10:00      -22.111        5.950       -2.538       59.357       55.574       25.694     3523.285     3088.500      660.171        0.390        0.364       22.897       26.712        1.361      334.920        5.210      864.015
01/30/2021  14:11:00       15.925      -75.260      -13.571       72.337       81.541       31.522     5232.578     6648.984      993.627        0.949        0.644       76.926       29.063        0.143      335.063        5.449      864.007
01/30/2021  14:12:00      100.023     -167.768      -34.997       77.368       75.474       34.308     5985.859     5696.365     1177.019        2.611        0.643      195.321       42.052        0.046      334.837        5.071      864.012
01/30/2021  14:13:00      122.582     -160.589      -35.590       26.212       57.362       19.568      687.079     3290.352      382.899        2.322        0.218      202.028       19.034        0.009      334.579        4.643      863.995
01/30/2021  14:14:00       18.188     -131.257      -26.561       74.135       46.878       36.615     5495.967     2197.590     1340.644        1.365        0.452      132.511       32.011        0.058      334.895        5.170      863.971
01/30/2021  14:15:00      -31.778       13.267      -13.976       46.949       42.422       22.778     2204.182     1799.620      518.835        0.295        0.226       34.436       17.676        0.263      334.989        5.326      863.963
01/30/2021  14:16:00       11.247       34.587        1.746       53.871       34.174       26.441     2902.049     1167.881      699.133        0.305        0.238       36.370       18.693        0.264      335.201        5.679      863.943
01/30/2021  14:17:00       -5.942        6.504       -0.223       60.510       35.550       26.731     3661.425     1263.800      714.520        0.286        0.282        8.810       29.445       11.171      335.142        5.579      863.923
01/30/2021  14:18:00      -39.874       18.531        8.386       44.767       29.344       25.727     2004.062      861.047      661.889        0.276        0.176       43.970       14.880        0.115      335.015        5.371      863.922
01/30/2021  14:19:00       -7.718      -53.532      -12.668       60.806       51.214       29.090     3697.382     2622.861      846.204        0.512        0.358       54.085       31.087        0.330      335.221        5.710      863.914
01/30/2021  14:20:00      -72.879      -87.828       -9.045       47.594       51.964       29.374     2265.179     2700.286      862.860        0.947        0.291      114.127       22.305        0.038      335.091        5.495      863.911
01/30/2021  14:21:00       -8.297      -50.455      -20.349       77.080       67.118       26.377     5941.316     4504.853      695.728        0.708        0.557       51.133       28.923        0.320      335.305        5.849      863.909
01/30/2021  14:22:00       55.233     -111.141      -22.617       49.138       60.363       27.455     2414.532     3643.667      753.785        1.136        0.341      124.109       14.414        0.013      335.243        5.747      863.907
01/30/2021  14:23:00       70.878     -136.077      -22.436       51.226       39.812       32.717     2624.143     1585.024     1070.375        1.466        0.264      153.430       29.193        0.036      335.156        5.604      863.909
01/30/2021  14:24:00       25.440      -52.874       -9.161       60.138       60.114       38.524     3616.548     3613.663     1484.087        0.612        0.436       58.676       35.275        0.361      335.332        5.894      863.921
01/30/2021  14:25:00      141.480     -162.082      -38.586       44.685       37.824       28.766     1996.757     1430.676      827.510        2.601        0.213      215.144       21.427        0.010      334.773        4.965      863.932
01/30/2021  14:26:00       59.971     -130.719      -41.878       68.231       48.300       27.678     4655.443     2332.892      766.071        1.509        0.388      143.820        8.350        0.003      334.968        5.291      863.936
01/30/2021  14:27:00      -10.389      -57.566      -20.631       67.632       48.158       36.662     4574.146     2319.238     1344.068        0.604        0.412       58.496       23.055        0.155      335.334        5.898      863.942
01/30/2021  14:28:00      113.498     -171.107      -42.754       46.710       35.160       26.715     2181.848     1236.248      713.673        2.406        0.207      205.328       25.869        0.016      334.761        4.944      863.949
01/30/2021  14:29:00       77.012     -105.620      -35.889       53.754       62.218       26.592     2889.543     3871.141      707.150        1.292        0.373      130.715       28.118        0.046      334.917        5.207      863.958
01/30/2021  14:30:00       65.698     -131.153      -26.376       56.255       60.253       30.188     3164.582     3630.420      911.291        1.496        0.385      146.687       37.961        0.067      334.919        5.208      863.951
01/30/2021  14:31:00       71.507      -70.470      -14.038       58.255       78.274       36.000     3393.588     6126.801     1296.031        1.054        0.541      100.396       37.425        0.139      334.806        5.021      863.943
01/30/2021  14:32:00      110.031      -84.985      -29.345       46.571       58.875       28.592     2168.899     3466.255      817.492        1.332        0.323      139.030       29.232        0.044      334.711        4.865      863.922
01/30/2021  14:33:00      115.790      -50.479      -15.077       41.601       29.854       22.994     1730.671      891.236      528.720        0.967        0.158      126.315       22.360        0.031      334.692        4.834      863.908
01/30/2021  14:34:00       46.932       37.908       -5.732       26.716       28.728       26.065      713.739      825.280      679.380        0.294        0.111       60.329       19.374        0.103      334.795        5.004      863.894
01/30/2021  14:35:00       -1.749       15.069       -3.383       26.433       26.928       18.690      698.681      725.108      349.320        0.101        0.089       15.170       15.976        1.109      334.926        5.221      863.897
01/30/2021  14:36:00      -43.299      -59.436      -32.021       37.949       39.828       22.213     1440.134     1586.291      493.420        0.498        0.176       73.535       13.440        0.033      335.152        5.596      863.911
01/30/2021  14:37:00      -27.015      -24.656      -23.366       36.327       38.627       24.613     1319.670     1492.029      605.790        0.265        0.171       36.575       14.617        0.160      335.374        5.967      863.922
01/30/2021  14:38:00      -24.889      -48.494      -25.252       41.049       30.193       25.961     1684.991      911.615      673.978        0.344        0.164       54.508        9.901        0.033      335.357        5.938      863.932
01/30/2021  14:39:00      -12.486      -89.298      -15.826       72.043       51.171       28.453     5190.138     2618.502      809.590        0.850        0.431       90.167       18.497        0.042      335.133        5.566      863.949
01/30/2021  14:40:00       82.566     -146.197      -28.536       55.110       67.832       26.284     3037.133     4601.155      690.835        1.867        0.416      167.901       33.253        0.039      335.169        5.624      863.949
01/30/2021  14:41:00       85.152     -122.306      -29.015       54.054       74.223       40.716     2921.820     5509.012     1657.778        1.657        0.504      149.029       37.458        0.063      335.087        5.488      863.968
01/30/2021  14:42:00      135.023     -231.010      -44.862       31.161       41.824       30.090      970.990     1749.258      905.389        3.862        0.181      267.576       26.597        0.010      334.645        4.748      863.970
01/30/2021  14:43:00       97.467     -247.782      -44.748       37.187       46.434       25.655     1382.867     2156.103      658.188        3.855        0.210      266.262       20.679        0.006      334.832        5.060      863.965
01/30/2021  14:44:00      134.764     -233.740      -41.030       44.016       52.164       26.424     1937.393     2721.108      698.204        3.992        0.268      269.807       27.552        0.010      334.816        5.033      863.971
01/30/2021  14:45:00      119.506     -111.125      -27.326       58.379       69.846       31.375     3408.159     4878.468      984.367        1.832        0.464      163.188       35.840        0.048      334.750        4.924      863.977
01/30/2021  14:46:00       81.758     -184.416      -34.278       49.936       40.739       25.436     2493.608     1659.677      646.997        2.333        0.240      201.726       18.756        0.009      334.865        5.117      863.984
01/30/2021  14:47:00       48.873     -103.161      -20.793       42.883       41.579       28.034     1838.909     1728.795      785.899        0.891        0.218      114.152       19.096        0.028      334.970        5.293      863.995
01/30/2021  14:48:00       55.045     -117.755      -33.739       52.762       73.305       25.476     2783.859     5373.675      649.041        1.342        0.440      129.986       23.537        0.033      335.089        5.489      864.008
01/30/2021  14:49:00      165.201     -137.912      -47.776       64.605       90.244       36.121     4173.840     8144.013     1304.692        3.111        0.681      215.200       38.845        0.033      334.902        5.178      864.009
01/30/2021  14:50:00       48.618     -109.555      -24.730      115.055      124.305       40.194    13237.563    15451.720     1615.536        2.263        1.515      119.859       60.840        0.258      335.145        5.582      864.017
01/30/2021  14:51:00       37.847      -70.200      -26.075       58.796       56.553       25.538     3457.020     3198.230      652.184        0.717        0.365       79.752       30.579        0.147      335.266        5.786      864.034
01/30/2021  14:52:00       79.744      -63.808      -26.315       49.792       54.693       25.034     2479.235     2991.357      626.690        0.861        0.305      102.130       24.033        0.055      335.013        5.365      864.026
01/30/2021  14:53:00      135.692     -128.481      -39.744       79.125      111.712       49.502     6260.742    12479.656     2450.451        2.884        1.060      186.868       55.940        0.090      334.936        5.235      864.001
01/30/2021  14:54:00       11.233     -154.726      -27.960       74.472       88.322       47.627     5546.067     7800.742     2268.329        2.023        0.781      155.133       25.229        0.026      335.171        5.628      863.997
01/30/2021  14:55:00       40.553     -112.506      -27.612       79.586       66.089       43.274     6333.918     4367.774     1872.603        1.382        0.629      119.591       27.123        0.051      335.402        6.011      864.005
01/30/2021  14:56:00       58.172      -34.105      -24.293       63.480       70.623       33.412     4029.705     4987.574     1116.384        0.763        0.507       67.432       34.497        0.262      335.282        5.812      864.015
01/30/2021  14:57:00      166.993     -171.496      -50.251       69.898       77.269       29.789     4885.665     5970.504      887.370        3.578        0.587      239.369       41.265        0.030      334.854        5.096      864.014
01/30/2021  14:58:00      137.252     -132.575      -37.477       51.890       49.409       35.515     2692.577     2441.211     1261.289        2.211        0.320      190.825       37.567        0.039      334.761        4.945      864.017
01/30/2021  14:59:00       93.273      -85.385      -26.154       51.985       63.721       30.329     2702.420     4060.308      919.823        1.218        0.384      126.453       24.428        0.037      334.890        5.162      864.020
01/30/2021  15:00:00       26.934      -49.658      -17.800       48.346       68.578       23.241     2337.332     4702.911      540.160        0.554        0.379       56.492       20.170        0.127      334.924        5.218      864.010
01/30/2021  15:01:00       10.294       10.021       -3.459       28.917       26.708       17.119      836.210      713.341      293.059        0.103        0.092       14.367       17.691        1.516      335.094        5.501      863.995
01/30/2021  15:02:00        6.270      -16.334       -8.971       37.593       37.827       19.668     1413.209     1430.854      386.841        0.181        0.162       17.497       14.605        0.697      335.364        5.948      863.990
01/30/2021  15:03:00       25.725      -25.493      -12.811       28.742       34.508       21.389      826.124     1190.799      457.503        0.197        0.124       36.217       14.410        0.158      335.230        5.726      863.997
01/30/2021  15:04:00       82.959     -165.101      -23.052       72.849      115.432       34.923     5306.937    13324.504     1219.614        2.726        0.993      184.772       54.456        0.087      334.974        5.298      864.009
01/30/2021  15:05:00      152.904     -206.887      -45.665       39.582       38.586       24.312     1566.730     1488.899      591.062        3.596        0.182      257.259       20.976        0.007      334.753        4.928      864.025
01/30/2021  15:06:00      119.881     -202.624      -42.689       51.247       54.280       32.774     2626.242     2946.347     1074.116        3.195        0.332      235.431       36.186        0.024      334.790        4.992      864.046
01/30/2021  15:07:00      135.735      -94.875      -33.548       85.324       69.654       37.886     7280.241     4851.653     1435.361        2.106        0.678      165.605       46.385        0.078      334.871        5.129      864.068
01/30/2021  15:08:00       -4.235      -23.672       -0.655       41.329       37.783       31.373     1708.072     1427.582      984.242        0.235        0.206       24.048       20.886        0.754      335.242        5.746      864.090
01/30/2021  15:09:00       -0.431      -49.289      -14.564       59.317       50.671       27.391     3518.535     2567.549      750.245        0.474        0.342       49.291       26.998        0.300      335.307        5.854      864.093
01/30/2021  15:10:00       71.660      -65.380      -20.991       24.387       34.427       18.924      594.736     1185.200      358.120        0.599        0.107       97.004       15.009        0.024      334.933        5.233      864.089
01/30/2021  15:11:00       45.980     -109.903      -17.777       71.645       67.013       41.906     5132.996     4490.686     1756.114        1.294        0.569      119.133       35.584        0.089      335.120        5.542      864.059
01/30/2021  15:12:00       93.542      -83.501      -32.244       48.156       80.343       31.141     2318.977     6454.964      969.785        1.325        0.487      125.390       28.071        0.050      335.028        5.391      864.042
01/30/2021  15:13:00      155.049     -178.134      -50.838       48.209       87.072       29.167     2324.156     7581.610      850.699        3.455        0.538      236.161       25.969        0.012      335.269        5.786      864.042
01/30/2021  15:14:00      149.895     -212.829      -50.709       56.484      103.596       38.221     3190.400    10732.165     1460.873        4.286        0.769      260.316       34.180        0.017      335.189        5.654      864.027
01/30/2021  15:15:00      135.113     -210.498      -51.297       58.218       67.021       30.237     3389.287     4491.841      914.273        3.699        0.440      250.129       25.418        0.010      335.089        5.488      864.014
01/30/2021  15:16:00      153.651     -161.466      -51.515       64.496       73.250       37.909     4159.732     5365.571     1437.118        3.165        0.548      222.890       39.346        0.031      335.031        5.394      864.009
01/30/2021  15:17:00      118.046     -181.913      -39.700       54.836       79.186       38.479     3006.944     6270.368     1480.652        2.968        0.538      216.857       29.681        0.019      334.976        5.302      863.998
01/30/2021  15:18:00       89.918     -148.490      -24.402       61.233       82.143       39.635     3749.514     6747.451     1570.933        2.140        0.603      173.593       38.707        0.050      335.083        5.480      863.993
01/30/2021  15:19:00      120.934     -214.846      -43.294       60.322       40.349       33.123     3638.770     1628.013     1097.102        3.451        0.318      246.544       36.717        0.022      334.843        5.079      864.007
01/30/2021  15:20:00      130.600     -112.328      -36.525       41.247       58.964       28.011     1701.297     3476.705      784.629        1.848        0.298      172.261       29.987        0.030      334.877        5.139      864.019
01/30/2021  15:21:00       66.334     -111.565      -24.964       41.182       28.976       19.774     1695.974      839.582      391.029        1.020        0.146      129.796       22.833        0.031      334.941        5.248      864.026
01/30/2021  15:22:00       50.583     -162.176      -23.534       59.192       42.378       31.373     3503.699     1795.871      984.240        1.785        0.314      169.881       30.854        0.033      335.044        5.417      864.032
01/30/2021  15:23:00       65.345     -154.234      -34.606       63.386       47.322       31.553     4017.760     2239.371      995.609        1.825        0.363      167.505       31.100        0.034      335.183        5.647      864.039
01/30/2021  15:24:00      -75.473     -124.370       -0.796       70.642       70.800       38.822     4990.319     5012.681     1507.149        1.633        0.576      145.479       20.920        0.021      335.372        5.960      864.060
01/30/2021  15:25:00      -81.473     -105.497      -18.944       91.762       57.069       43.264     8420.317     3256.826     1871.763        1.583        0.677      133.295       37.277        0.078      335.356        5.933      864.072
01/30/2021  15:26:00      -10.477      -82.007      -19.130       89.318       49.329       33.830     7977.651     2433.359     1144.468        0.938        0.578       82.674       25.523        0.095      335.418        6.039      864.080
01/30/2021  15:27:00       90.967      -54.277      -22.659       76.281       65.660       47.707     5818.770     4311.209     2275.928        1.207        0.620      105.929       46.026        0.189      335.079        5.476      864.086
01/30/2021  15:28:00       92.298      -96.253      -18.953       60.081       55.235       39.627     3609.714     3050.936     1570.330        1.319        0.412      133.356       40.019        0.090      335.006        5.353      864.100
01/30/2021  15:29:00       80.174     -176.446      -34.958       47.665       35.786       24.856     2271.955     1280.616      617.827        2.148        0.209      193.807       22.317        0.013      335.088        5.488      864.118
01/30/2021  15:30:00       98.748     -140.692      -29.101       23.396       64.749       18.797      547.368     4192.409      353.345        1.774        0.255      171.888       21.650        0.016      334.841        5.078      864.137
01/30/2021  15:31:00       18.578       -4.599       13.950       73.605       49.338       34.058     5417.685     2434.263     1159.927        0.478        0.451       19.138       30.325        2.511      335.350        5.925      864.150
01/30/2021  15:32:00      -29.364      -36.109       -8.974       51.614       41.219       30.988     2664.022     1699.009      960.248        0.378        0.266       46.541       23.832        0.262      335.520        6.209      864.164
01/30/2021  15:33:00       60.753     -134.147      -19.965       64.850       65.327       35.279     4205.577     4267.567     1244.620        1.590        0.486      147.263       39.311        0.071      335.051        5.427      864.183
01/30/2021  15:34:00      136.303     -171.037      -41.796       49.560       47.743       28.190     2456.160     2279.406      794.704        2.755        0.277      218.706       27.555        0.016      334.974        5.299      864.193
01/30/2021  15:35:00       32.735      -92.052      -14.093       93.779       85.454       48.731     8794.577     7302.310     2374.685        1.410        0.924       97.700       48.831        0.250      335.319        5.872      864.207
01/30/2021  15:36:00      -76.687      -76.117      -17.475       76.666       52.452       31.730     5877.614     2751.206     1006.813        1.081        0.482      108.049       32.181        0.089      335.282        5.813      864.217
01/30/2021  15:37:00      -52.629      -72.144       -8.626       96.529       58.211       37.672     9317.808     3388.552     1419.190        1.108        0.706       89.300       23.585        0.070      335.460        6.108      864.221
01/30/2021  15:38:00        6.933      -44.533       -2.943       43.811       40.480       31.333     1919.432     1638.658      981.786        0.329        0.227       45.070       28.746        0.407      335.470        6.124      864.218
01/30/2021  15:39:00       59.966      -69.891      -25.884       75.378       50.626       31.351     5681.816     2563.015      982.882        0.919        0.461       92.091       24.378        0.070      335.174        5.632      864.214
01/30/2021  15:40:00       95.985     -174.337      -26.960       57.575       82.535       43.338     3314.935     6812.024     1878.180        2.617        0.600      199.014       32.822        0.027      335.041        5.409      864.194
01/30/2021  15:41:00      136.027     -165.322      -49.076       77.897       64.415       35.904     6067.942     4149.244     1289.102        2.987        0.575      214.090       30.047        0.020      334.943        5.245      864.170
01/30/2021  15:42:00       75.231     -102.760      -31.696       69.974       78.683       43.259     4896.365     6191.027     1871.310        1.509        0.648      127.355       47.618        0.140      335.063        5.449      864.159
01/30/2021  15:43:00        6.157      -38.774       -9.159       34.623       58.904       32.319     1198.758     3469.639     1044.530        0.367        0.286       39.260       18.720        0.227      335.337        5.904      864.143
01/30/2021  15:44:00      -49.419      -69.864       -3.167       70.482       65.246       41.818     4967.646     4257.001     1748.727        0.915        0.549       85.576       24.834        0.084      335.404        6.016      864.117
01/30/2021  15:45:00      -37.020      -57.152       -9.833       50.566       41.427       32.696     2556.877     1716.234     1069.018        0.504        0.267       68.094       21.247        0.097      335.527        6.220      864.099
01/30/2021  15:46:00       15.928      -47.450      -19.559       61.221       35.859       27.615     3747.955     1285.874      762.588        0.434        0.290       50.052       28.800        0.331      335.385        5.984      864.092
01/30/2021  15:47:00        4.815      -30.250      -12.857       60.123       66.898       23.330     3614.771     4475.301      544.296        0.487        0.432       30.630       17.954        0.344      335.350        5.926      864.082
01/30/2021  15:48:00        1.776      -18.120       -9.513       41.203       44.779       20.255     1697.646     2005.147      410.258        0.227        0.206       18.207       19.264        1.120      335.555        6.266      864.064
01/30/2021  15:49:00      -12.576      -38.605       -3.544       41.842       37.466       29.537     1750.732     1403.724      872.440        0.284        0.201       40.602       20.553        0.256      335.383        5.980      864.055
01/30/2021  15:50:00      -63.668      -57.670      -17.469       37.874       28.635       25.933     1434.438      819.992      672.524        0.531        0.146       85.904       13.310        0.024      335.339        5.906      864.052
01/30/2021  15:51:00      -51.680      -38.342      -13.883       39.939       54.212       24.234     1595.148     2938.977      587.306        0.473        0.256       64.350        9.628        0.022      335.388        5.990      864.044
01/30/2021  15:52:00       -0.858      -75.047       -8.097       57.462       41.338       29.718     3301.936     1708.862      883.163        0.579        0.295       75.052       19.819        0.070      335.404        6.014      864.042
01/30/2021  15:53:00      -23.109      -73.199      -16.901       79.542       56.298       45.684     6326.854     3169.500     2087.015        0.888        0.579       76.761       42.378        0.305      335.348        5.921      864.052
01/30/2021  15:54:00      -45.455     -154.144      -40.435       90.830       69.933       32.783     8250.117     4890.585     1074.737        2.084        0.711      160.706       35.678        0.049      335.293        5.829      864.051
01/30/2021  15:55:00      -28.307     -104.500      -22.096      111.468       62.092       42.669    12425.006     3855.411     1820.649        1.515        0.905      108.266       41.497        0.147      335.344        5.914      864.058
01/30/2021  15:56:00     -103.119     -139.612      -36.304       71.151       60.319       40.516     5062.456     3638.338     1641.520        2.089        0.517      173.566       23.702        0.019      335.419        6.038      864.060
01/30/2021  15:57:00      -29.416      -49.796      -16.608       89.223       57.163       37.101     7960.770     3267.554     1376.494        0.811        0.630       57.835       28.792        0.248      335.472        6.128      864.070
01/30/2021  15:58:00      -43.400      -54.666      -21.782       67.508       51.496       40.646     4557.382     2651.818     1652.113        0.710        0.443       69.799       21.612        0.096      335.447        6.087      864.070
01/30/2021  15:59:00      -73.914     -101.770      -15.605       72.546       63.613       40.303     5262.944     4046.568     1624.334        1.350        0.547      125.779       35.438        0.079      335.517        6.202      864.077
01/30/2021  16:00:00       26.419     -129.409      -39.564      121.852       80.422       44.006    14847.986     6467.753     1936.553        2.113        1.163      132.079       48.699        0.136      335.388        5.987      864.067
01/30/2021  16:01:00      137.912     -105.875      -46.686       56.583       83.251       38.002     3201.669     6930.796     1444.189        2.199        0.579      173.866       30.967        0.032      335.001        5.344      864.061
01/30/2021  16:02:00      149.993     -183.348      -45.772       48.140       62.651       34.757     2317.478     3925.175     1208.031        3.283        0.373      236.884       27.511        0.013      334.968        5.288      864.054
01/30/2021  16:03:00      142.471     -199.465      -46.541       59.042       56.219       32.915     3485.967     3160.613     1083.367        3.499        0.386      245.121       35.809        0.021      334.901        5.176      864.041
01/30/2021  16:04:00       83.427      -98.165      -35.861       50.993       55.403       30.717     2600.290     3069.452      943.528        1.225        0.331      128.827       29.142        0.051      335.072        5.463      864.044
01/30/2021  16:05:00       12.031      -82.756      -22.054       42.746       67.467       31.156     1827.245     4551.842      970.685        0.741        0.367       83.626       35.044        0.176      335.221        5.710      864.035
01/30/2021  16:06:00      168.711     -248.544      -54.115       83.010       62.524       42.613     6890.673     3909.200     1815.842        5.289        0.631      300.395       46.809        0.024      334.969        5.289      864.025
01/30/2021  16:07:00      136.967     -212.918      -41.779       62.495       69.721       35.531     3905.592     4861.061     1262.439        3.793        0.501      253.168       40.186        0.025      334.865        5.116      864.031
01/30/2021  16:08:00       72.253      -88.075      -16.663       57.234       67.173       37.967     3275.676     4512.175     1441.489        1.124        0.461      113.920       35.870        0.099      335.062        5.448      864.031
01/30/2021  16:09:00       54.443      -83.087      -12.140       50.802       64.904       33.099     2580.886     4212.480     1095.534        0.895        0.394       99.335       33.219        0.112      335.170        5.626      864.031
01/30/2021  16:10:00       89.723      -85.061      -26.140       33.356       56.314       17.093     1112.649     3171.228      292.156        1.027        0.229      123.635       14.254        0.013      334.950        5.261      864.034
01/30/2021  16:11:00       29.340      -56.971      -12.913       31.602       67.205       22.527      998.688     4516.546      507.458        0.515        0.301       64.082       24.574        0.147      335.104        5.517      864.021
01/30/2021  16:12:00      114.501     -183.396      -33.613       38.950       41.941       23.814     1517.131     1759.013      567.113        2.586        0.192      216.205       21.152        0.010      334.930        5.224      864.018
01/30/2021  16:13:00      106.362      -85.681      -27.085       35.640       50.027       22.301     1270.192     2502.746      497.318        1.183        0.214      136.580       24.119        0.031      334.938        5.241      864.005
01/30/2021  16:14:00       91.923     -114.035      -24.216       43.353       67.313       26.232     1879.477     4531.017      688.095        1.457        0.355      146.472       22.835        0.024      334.994        5.335      863.986
01/30/2021  16:15:00       16.704      -53.790      -19.791       55.452       64.858       34.421     3074.871     4206.606     1184.818        0.601        0.423       56.324       14.040        0.062      335.233        5.732      863.965
01/30/2021  16:16:00      123.581     -154.707      -38.328       51.502       70.913       25.149     2652.492     5028.705      632.487        2.449        0.416      198.006       32.882        0.028      334.997        5.336      863.969
01/30/2021  16:17:00      119.117     -178.295      -34.092       48.451       66.798       28.936     2347.472     4461.922      837.303        2.739        0.382      214.424       34.370        0.026      334.834        5.065      863.971
01/30/2021  16:18:00       50.594     -102.959      -20.253       55.720       56.575       38.172     3104.724     3200.748     1457.139        1.066        0.388      114.719       31.487        0.075      334.982        5.314      863.979
01/30/2021  16:19:00      -13.869      -88.578      -41.749       40.624       43.958       19.814     1650.291     1932.283      392.585        0.688        0.199       89.657       14.021        0.024      335.163        5.614      863.992
01/30/2021  16:20:00       45.452     -129.009      -17.118       68.591       78.399       38.283     4704.722     6146.362     1465.623        1.566        0.616      136.781       52.464        0.147      335.142        5.578      863.999
01/30/2021  16:21:00      113.759     -157.118      -30.060       27.930       54.298       26.728      780.065     2948.327      714.369        2.149        0.222      193.977       20.832        0.012      334.820        5.043      863.993
01/30/2021  16:22:00      114.466     -101.947      -32.206       43.410       42.367       22.382     1884.469     1794.993      500.948        1.436        0.209      153.283       19.054        0.015      334.980        5.312      863.998
01/30/2021  16:23:00       80.860     -102.300      -17.980       45.983       56.800       41.372     2114.391     3226.212     1711.666        1.219        0.353      130.398       31.373        0.058      334.992        5.330      863.999
01/30/2021  16:24:00       40.229     -128.448      -21.491       43.305       46.596       33.362     1875.290     2171.151     1113.033        1.187        0.258      134.600       24.031        0.032      334.929        5.227      864.011
01/30/2021  16:25:00       71.504      -46.029       -0.758       56.336       75.935       34.076     3173.788     5766.149     1161.168        0.866        0.505       85.038       32.443        0.146      335.013        5.365      864.027
01/30/2021  16:26:00       32.046     -104.805      -43.010       78.590       57.957       33.004     6176.370     3359.053     1089.254        1.224        0.531      109.595       23.913        0.048      335.207        5.688      864.040
01/30/2021  16:27:00       21.228      -63.290      -24.344       45.521       36.898       21.607     2072.124     1361.484      466.863        0.447        0.195       66.756       16.924        0.064      335.238        5.739      864.052
01/30/2021  16:28:00       12.622      -99.854      -27.135       66.021       53.315       32.884     4358.814     2842.475     1081.376        0.957        0.414      100.648       17.034        0.029      335.194        5.666      864.054
01/30/2021  16:29:00       35.823     -123.829      -16.318       97.428       89.713       32.064     9492.219     8048.478     1028.077        1.772        0.928      128.906       42.592        0.109      335.078        5.472      864.048
01/30/2021  16:30:00      -43.825      -99.813       -7.819       85.103       68.650       28.851     7242.441     4712.812      832.402        1.236        0.639      109.011       34.126        0.098      335.189        5.656      864.040
01/30/2021  16:31:00       -1.348      -52.293       -8.842       91.192       71.541       30.524     8315.997     5118.069      931.723        0.859        0.718       52.310       33.681        0.415      335.167        5.622      864.039
01/30/2021  16:32:00       37.398      -85.195      -33.362       79.202       75.080       28.665     6272.950     5637.056      821.688        1.125        0.637       93.042       26.693        0.082      335.196        5.669      864.034
01/30/2021  16:33:00       22.581      -66.219      -14.161       67.995       76.312       34.808     4623.331     5823.557     1211.603        0.837        0.583       69.964       29.482        0.178      335.044        5.417      864.035
01/30/2021  16:34:00       96.237     -163.307      -24.942       48.405       53.642       34.493     2343.026     2877.499     1189.793        2.148        0.321      189.554       30.875        0.027      334.870        5.125      864.045
01/30/2021  16:35:00       80.790     -115.763      -17.407       48.371       79.691       42.188     2339.730     6350.637     1779.795        1.535        0.524      141.167       34.805        0.061      334.859        5.108      864.046
01/30/2021  16:36:00      124.978     -196.879      -42.003       67.948       72.991       40.715     4616.912     5327.702     1657.717        3.387        0.580      233.197       37.613        0.026      334.797        5.003      864.052
01/30/2021  16:37:00       73.736      -65.235      -13.122       51.029       76.513       40.044     2604.005     5854.195     1603.525        0.996        0.503       98.450       30.915        0.099      334.870        5.128      864.060
01/30/2021  16:38:00       31.613      -90.089      -32.452       92.314       66.960       35.408     8521.808     4483.663     1253.757        1.221        0.713       95.475       20.078        0.044      334.994        5.334      864.070
01/30/2021  16:39:00      122.001     -182.515      -38.716       40.016       45.326       23.828     1601.257     2054.483      567.758        2.696        0.211      219.536       15.048        0.005      334.799        5.007      864.083
01/30/2021  16:40:00       59.994     -131.274      -13.060       48.438       67.571       28.936     2346.200     4565.792      837.316        1.437        0.387      144.334       17.420        0.015      334.978        5.306      864.087
01/30/2021  16:41:00       71.870     -143.596      -25.581       55.966       62.350       30.858     3132.227     3887.565      952.222        1.720        0.399      160.577       22.293        0.019      334.870        5.128      864.101
01/30/2021  16:42:00      100.330     -147.002      -21.771       51.601       81.080       33.764     2662.676     6573.944     1140.032        2.126        0.519      177.976       33.552        0.036      334.765        4.952      864.102
01/30/2021  16:43:00      139.630     -175.732      -43.566       52.374       68.281       25.862     2743.040     4662.238      668.866        3.017        0.404      224.451       21.318        0.009      334.715        4.867      864.102
01/30/2021  16:44:00       62.027      -90.459      -23.536       67.038       65.189       32.598     4494.096     4249.628     1062.658        1.119        0.490      109.682       29.650        0.073      334.787        4.989      864.110
01/30/2021  16:45:00        8.758      -54.140      -10.595       46.603       47.697       32.625     2171.831     2275.017     1064.364        0.431        0.276       54.844       26.834        0.239      334.995        5.336      864.133
01/30/2021  16:46:00       53.032      -97.209       -9.631       70.884       64.482       43.852     5024.498     4157.907     1923.036        1.173        0.555      110.734       34.282        0.096      334.954        5.268      864.138
01/30/2021  16:47:00       21.564     -104.250      -41.275       66.264       52.688       32.579     4390.874     2776.032     1061.415        1.063        0.411      106.457       13.398        0.016      334.982        5.315      864.149
01/30/2021  16:48:00       22.334      -62.253       -5.135       35.819       44.692       28.511     1283.028     1997.362      812.889        0.425        0.205       66.138       26.801        0.164      335.050        5.428      864.161
01/30/2021  16:49:00       22.041      -79.129      -13.806       62.232       43.520       30.357     3872.775     1893.956      921.570        0.681        0.334       82.141       17.960        0.048      335.026        5.387      864.156
01/30/2021  16:50:00        0.958      -40.524      -18.323       41.709       54.080       23.151     1739.639     2924.612      535.991        0.359        0.260       40.536       18.080        0.199      334.954        5.269      864.161
01/30/2021  16:51:00      -20.317      -42.781      -15.905       41.272       35.396       18.771     1703.384     1252.884      352.362        0.290        0.165       47.361       12.524        0.070      335.013        5.367      864.168
01/30/2021  16:52:00      -20.820      -31.167      -10.203       60.749       37.233       26.343     3690.399     1386.259      693.967        0.364        0.289       37.482       21.354        0.325      335.054        5.434      864.181
01/30/2021  16:53:00      -31.531      -28.119       -8.719       46.687       40.200       25.545     2179.720     1616.070      652.522        0.315        0.222       42.248       20.223        0.229      334.962        5.281      864.198
01/30/2021  16:54:00      -33.774      -55.668       -7.064       44.125       32.677       34.416     1947.039     1067.797     1184.462        0.424        0.210       65.113       16.729        0.066      335.047        5.422      864.208
01/30/2021  16:55:00      -27.299      -90.425      -34.851       69.438       46.147       32.949     4821.604     2129.507     1085.657        0.908        0.402       94.455       33.930        0.129      334.973        5.299      864.222
01/30/2021  16:56:00      -91.587     -138.895      -20.370       54.279       65.064       31.553     2946.218     4233.323      995.611        1.813        0.409      166.373       26.185        0.025      335.013        5.365      864.232
01/30/2021  16:57:00      -42.095      -96.874      -20.291       42.819       45.716       36.183     1833.503     2089.930     1309.227        0.840        0.262      105.624       22.038        0.044      334.963        5.282      864.234
01/30/2021  16:58:00      -33.628      -45.815      -14.955       47.888       28.592       24.065     2293.234      817.528      579.119        0.357        0.184       56.832       19.065        0.113      334.848        5.092      864.227
01/30/2021  16:59:00       21.702      -30.000       -8.791       45.004       32.368       20.061     2025.346     1047.659      402.446        0.246        0.174       37.027       17.560        0.225      334.793        5.000      864.223
01/30/2021  17:00:00       -7.101      -69.698      -11.037       65.790       62.684       27.390     4328.286     3929.298      750.207        0.702        0.450       70.059       26.466        0.143      334.946        5.255      864.220
01/30/2021  17:01:00       70.113     -120.971       -9.694       44.842       62.625       39.325     2010.786     3921.870     1546.480        1.356        0.374      139.820       34.324        0.060      334.758        4.941      864.211
01/30/2021  17:02:00        2.228      -54.919      -12.939       54.591       40.714       33.463     2980.198     1657.664     1119.768        0.447        0.288       54.964       19.601        0.127      334.696        4.838      864.214
01/30/2021  17:03:00       59.615      -95.403      -24.863       46.495       66.850       31.439     2161.753     4468.897      988.431        1.044        0.381      112.497       25.816        0.053      334.708        4.859      864.212
01/30/2021  17:04:00        8.540      -56.031      -24.626       58.733       74.764       33.335     3449.576     5589.645     1111.254        0.698        0.508       56.678       31.964        0.318      334.749        4.928      864.216
01/30/2021  17:05:00       10.561      -39.339       -5.336       56.944       62.989       38.538     3242.623     3967.635     1485.170        0.519        0.435       40.732       37.886        0.865      334.850        5.096      864.221
01/30/2021  17:06:00        7.551      -30.501      -18.494       41.262       44.879       24.776     1702.518     2014.100      613.844        0.283        0.217       31.422       25.172        0.642      334.738        4.910      864.230
01/30/2021  17:07:00      -13.583      -27.479        1.809       29.020       27.423       19.955      842.178      752.046      398.216        0.147        0.100       30.653       12.109        0.156      334.769        4.960      864.223
01/30/2021  17:08:00      -18.994      -30.467      -12.912       31.158       26.504       13.170      970.828      702.476      173.441        0.165        0.092       35.903       10.576        0.087      334.829        5.061      864.210
01/30/2021  17:09:00       50.303      -36.181       -4.388       30.852       30.260       19.064      951.876      915.652      363.418        0.304        0.112       61.963       16.568        0.071      334.634        4.736      864.200
01/30/2021  17:10:00      -31.361      -37.337      -13.648       29.556       29.159       16.301      873.535      850.226      265.708        0.228        0.099       48.761       16.209        0.111      334.917        5.206      864.198
01/30/2021  17:11:00       -9.404      -35.756       -8.734       27.948       22.763       21.025      781.119      518.171      442.040        0.159        0.087       36.972       17.350        0.220      334.747        4.923      864.194
01/30/2021  17:12:00      -55.930      -44.193      -15.648       29.536       35.134       17.287      872.354     1234.394      298.856        0.387        0.120       71.283       11.739        0.027      334.834        5.068      864.188
01/30/2021  17:13:00      -14.197      -15.801       -5.367       33.888       23.057       15.181     1148.367      531.611      230.476        0.119        0.096       21.242        9.433        0.197      334.801        5.013      864.190
01/30/2021  17:14:00       -6.369      -42.429      -21.610       35.044       35.728       13.095     1228.100     1276.498      171.471        0.249        0.134       42.905        8.280        0.037      334.710        4.862      864.195
01/30/2021  17:15:00      -11.458      -25.181       -8.408       27.773       28.457       16.213      771.335      809.829      262.870        0.134        0.092       27.665       10.418        0.142      334.706        4.856      864.197
01/30/2021  17:16:00       -8.285       -9.822       -2.924       28.633       26.086       16.400      819.876      680.457      268.950        0.097        0.088       12.849       11.921        0.861      334.635        4.738      864.199
01/30/2021  17:17:00      -31.827      -31.753        0.698       52.717       42.187       21.822     2779.091     1779.784      476.219        0.353        0.252       44.958       10.349        0.053      334.612        4.699      864.201
01/30/2021  17:18:00      -51.377      -53.219       -8.155       50.047       68.609       25.139     2504.672     4707.177      631.944        0.669        0.392       73.972       22.089        0.089      334.425        4.391      864.201
01/30/2021  17:19:00      -38.210      -63.207       -0.926       34.067       55.724       23.193     1160.548     3105.122      537.914        0.513        0.240       73.859       21.805        0.087      334.329        4.230      864.194
01/30/2021  17:20:00      -67.680      -85.994       -6.084       25.348       48.119       25.314      642.531     2315.413      640.795        0.780        0.180      109.432       11.552        0.011      334.257        4.112      864.184
01/30/2021  17:21:00      -24.168        0.345       -4.656       42.194       17.316       19.862     1780.339      299.849      394.485        0.154        0.124       24.170       19.174        0.629      334.378        4.311      864.183
01/30/2021  17:22:00      -64.467      -31.204       -2.559       43.448       30.958       22.092     1887.748      958.373      488.069        0.423        0.167       71.621        5.816        0.007      334.456        4.439      864.178
01/30/2021  17:23:00      -32.935       -2.402        2.198       36.655       27.726       19.695     1343.582      768.710      387.906        0.180        0.125       33.023       14.083        0.182      334.469        4.463      864.178
01/30/2021  17:24:00      -31.045      -12.186        5.897       37.842       31.061       17.604     1432.002      964.762      309.888        0.193        0.135       33.351       11.474        0.118      334.418        4.378      864.178
01/30/2021  17:25:00      -61.699      -13.819        2.314       49.198       28.168       25.923     2420.401      793.460      671.992        0.394        0.194       63.227       25.883        0.168      334.418        4.377      864.183
01/30/2021  17:26:00      -32.509      -14.603       13.360      210.048       46.334      100.015    44120.105     2146.822    10002.913        2.885        2.813       35.638      139.493       15.321      334.353        4.270      864.181
01/30/2021  17:27:00      -65.254      -32.404       -7.306       73.354       80.220       32.084     5380.768     6435.170     1029.385        0.910        0.642       72.857       31.777        0.190      334.215        4.041      864.183
01/30/2021  17:28:00      -99.494      -33.016      -17.159      197.536       38.062       97.901    39020.522     1448.750     9584.657        3.066        2.503      104.829      130.936        1.560      334.272        4.136      864.186
01/30/2021  17:29:00      -34.257       -8.326        9.148       39.990       42.805       26.723     1599.215     1832.251      714.094        0.274        0.207       35.254       17.601        0.249      334.201        4.016      864.192
01/30/2021  17:30:00      -61.286      -48.598       -3.681       31.413       52.873       21.550      986.792     2795.509      464.398        0.519        0.212       78.216       19.676        0.063      334.115        3.875      864.196
01/30/2021  17:31:00      -96.372      -25.912      -13.312      187.948       37.532       86.993    35324.347     1408.656     7567.800        2.721        2.215       99.794      120.786        1.465      334.144        3.923      864.208
01/30/2021  17:32:00      -84.005      -27.765      -14.591      215.230       32.256      100.531    46324.168     1040.468    10106.388        3.274        2.874       88.474      142.269        2.586      334.211        4.036      864.218
01/30/2021  17:33:00      -37.094      -29.547       -6.003      213.154       32.921      101.768    45434.432     1083.785    10356.648        2.957        2.844       47.424      141.946        8.959      334.310        4.200      864.228
01/30/2021  17:34:00      -79.151      -33.043      -16.912      270.043       26.237      129.135    72923.343      688.379    16675.880        4.895        4.514       85.771      183.737        4.589      334.288        4.165      864.247
01/30/2021  17:35:00      -39.093      -22.880      -12.007      249.162       26.379      120.887    62081.757      695.876    14613.735        3.978        3.870       45.296      170.493       14.167      334.224        4.058      864.255
01/30/2021  17:36:00       -5.229       -7.612       -6.580      274.857       31.216      132.946    75546.126      974.424    17674.727        4.714        4.710        9.235      188.499      416.668      334.301        4.184      864.259
01/30/2021  17:37:00      -54.709      -23.415      -18.901      243.942       24.246      114.965    59507.643      587.864    13216.910        3.859        3.666       59.509      164.828        7.672      334.308        4.196      864.275
01/30/2021  17:38:00      -35.493      -16.282      -11.699      213.881       28.391      103.435    45744.945      806.065    10698.727        2.944        2.862       39.049      144.966       13.782      334.268        4.129      864.298
01/30/2021  17:39:00      -47.661      -21.378      -22.464      292.080       40.491      142.481    85310.554     1639.515    20300.810        5.522        5.363       52.236      200.968       14.802      334.301        4.185      864.325
01/30/2021  17:40:00      -62.110      -29.541      -10.406      186.568       29.545       85.990    34807.453      872.878     7394.242        2.395        2.154       68.777      119.190        3.003      334.210        4.032      864.346
01/30/2021  17:41:00       14.152      -33.507      -48.018      469.961       38.547      221.289   220863.594     1485.862    48969.042       13.741       13.566       36.373      320.817       77.794      334.513        4.543      864.366
01/30/2021  17:42:00      -22.612      -26.010      -33.006      354.379       24.227      168.323   125584.429      586.958    28332.634        7.836        7.725       34.465      242.934       49.684      334.449        4.434      864.375
01/30/2021  17:43:00        7.169      -15.593      -10.740      255.967       29.080      121.796    65519.269      845.635    14834.210        4.079        4.060       17.162      172.169      100.639      334.281        4.151      864.385
01/30/2021  17:44:00      -86.152       -2.222      -11.542      200.715       35.967       96.181    40286.551     1293.639     9250.865        2.918        2.542       86.181      131.195        2.317      334.130        3.901      864.400
01/30/2021  17:45:00      -48.439      -28.638       -4.165      229.799       44.204      113.239    52807.545     1953.974    12822.969        3.537        3.379       56.271      153.606        7.451      334.056        3.779      864.408
01/30/2021  17:46:00      -19.469       -4.267       -6.280      297.671       45.646      140.697    88607.830     2083.528    19795.519        5.544        5.524       19.931      197.863       98.553      333.900        3.520      864.439
01/30/2021  17:47:00      -34.349       -4.581      -14.837      270.279       36.810      130.612    73050.622     1355.008    17059.610        4.642        4.573       34.653      184.171       28.246      333.625        3.065      864.457
01/30/2021  17:48:00      -68.341      -16.833      -13.171      207.394       38.824       93.899    43012.189     1507.292     8817.022        2.922        2.667       70.384      130.799        3.454      333.607        3.034      864.467
01/30/2021  17:49:00     -134.608      -90.977      -10.363       43.749       49.587       25.036     1913.966     2458.876      626.777        1.575        0.250      162.468       21.763        0.018      333.616        3.048      864.481
01/30/2021  17:50:00     -163.838      -29.194      -35.645      292.057       36.563      138.689    85297.205     1336.853    19234.634        6.739        5.293      166.419      197.095        1.403      333.587        3.000      864.481
01/30/2021  17:51:00      -26.267      -19.364      -32.817      365.456       55.753      172.257   133557.846     3108.414    29672.422        8.420        8.317       32.633      246.723       57.162      333.738        3.253      864.482
01/30/2021  17:52:00      -17.641      -22.837      -14.474      304.116       41.633      142.202    92486.418     1733.318    20221.306        5.772        5.722       28.857      202.327       49.159      333.786        3.331      864.486
01/30/2021  17:53:00       12.253        7.846      -25.840      388.511       32.738      181.513   150940.669     1071.781    32946.859        9.288        9.248       14.550      261.309      322.554      333.747        3.269      864.480
01/30/2021  17:54:00       23.593      -27.553       -8.028      259.514       29.960      127.253    67347.741      897.590    16193.337        4.289        4.222       36.274      179.340       24.443      333.655        3.114      864.480
01/30/2021  17:55:00       55.796      -33.947      -41.232      459.594       32.064      217.383   211226.751     1028.115    47255.237       13.268       12.976       65.312      314.076       23.125      333.808        3.373      864.483
01/30/2021  17:56:00       11.749      -14.061      -19.018      273.046       27.817      132.612    74554.371      773.813    17586.049        4.679        4.646       18.324      189.004      106.395      333.707        3.201      864.489
01/30/2021  17:57:00       13.964      -27.619       -4.821      189.706       32.323       93.660    35988.535     1044.772     8772.178        2.338        2.290       30.948      131.839       18.147      333.618        3.053      864.498
01/30/2021  17:58:00        6.079      -11.554      -13.563      288.224       33.114      137.408    83072.884     1096.570    18880.918        5.168        5.153       13.056      196.310      226.097      333.660        3.124      864.510
01/30/2021  17:59:00      -22.304      -13.354        3.238      134.702       32.504       61.601    18144.564     1056.526     3794.645        1.184        1.150       25.996       82.744       10.131      333.575        2.981      864.508
01/30/2021  18:00:00      -22.726      -16.847      -22.378      393.154       44.261      183.936   154569.957     1959.032    33832.284        9.579        9.518       28.289      264.580       87.472      333.601        3.029      864.507
01/30/2021  18:01:00      -16.655      -25.149       -5.331      295.628       41.453      139.571    87396.086     1718.365    19480.098        5.474        5.430       30.164      200.028       43.975      333.491        2.843      864.505
01/30/2021  18:02:00      -39.299      -46.076      -11.564      235.126       43.476      113.906    55284.076     1890.143    12974.532        3.696        3.507       60.559      158.836        6.879      333.336        2.586      864.512
01/30/2021  18:03:00       24.723      -31.181      -36.556      417.859       43.103      196.476   174606.534     1857.880    38602.840       10.895       10.753       39.793      284.070       50.960      333.619        3.059      864.515
01/30/2021  18:04:00      -33.171      -13.154       -3.843       49.948       41.418       26.800     2494.765     1715.455      718.214        0.311        0.246       35.683       23.112        0.420      333.360        2.624      864.532
01/30/2021  18:05:00      -30.982      -31.480      -17.790      335.330       40.047      157.912   112446.279     1603.757    24936.237        7.060        6.949       44.169      227.053       26.426      333.355        2.620      864.539
01/30/2021  18:06:00        4.690      -30.207      -35.681      413.098       34.711      196.727   170650.101     1204.882    38701.444       10.634       10.528       30.569      281.759       84.955      333.439        2.761      864.554
01/30/2021  18:07:00      -46.259      -33.264      -18.796      341.809       33.345      165.243   116833.732     1111.860    27305.142        7.439        7.263       56.978      234.170       16.891      333.403        2.700      864.562
01/30/2021  18:08:00      -41.907      -26.015      -29.396      398.105       34.290      185.256   158487.298     1175.775    34319.913        9.860        9.699       49.326      266.785       29.253      333.402        2.698      864.559
01/30/2021  18:09:00      -33.018      -13.201      -13.446      317.299       48.539      155.972   100678.419     2356.017    24327.200        6.438        6.368       35.559      216.849       37.189      333.361        2.628      864.559
01/30/2021  18:10:00      -26.993      -10.841      -20.739      354.920       44.762      169.363   125968.045     2003.676    28683.689        7.893        7.833       29.088      241.741       69.065      333.407        2.705      864.574
01/30/2021  18:11:00      -58.607      -17.742      -46.628      474.627       48.228      217.627   225270.510     2325.917    47361.390       14.038       13.748       61.234      318.232       27.009      333.321        2.566      864.584
01/30/2021  18:12:00      -61.905      -21.253       -5.524      209.408       32.613       99.961    43851.766     1063.627     9992.127        2.960        2.745       65.451      133.757        4.176      333.174        2.318      864.598
01/30/2021  18:13:00      -10.212        9.968       -0.349      155.255       33.169       81.175    24104.049     1100.167     6589.331        1.599        1.590       14.271      106.046       55.221      333.186        2.338      864.612
01/30/2021  18:14:00        0.242       -7.460       -9.881      315.478       42.794      154.940    99526.485     1831.318    24006.487        6.273        6.268        7.464      217.025      845.432      333.292        2.514      864.629
01/30/2021  18:15:00      -27.752       28.731      -11.149      271.337       43.003      127.798    73623.987     1849.248    16332.369        4.674        4.590       39.946      182.229       20.811      333.265        2.467      864.654
01/30/2021  18:16:00       37.125        7.691      -34.197      488.697       34.104      231.049   238824.786     1163.062    53383.729       14.793       14.669       37.913      333.194       77.234      333.367        2.645      864.676
01/30/2021  18:17:00       23.560        0.144      -31.424      459.558       36.192      213.215   211193.636     1309.831    45460.798       12.970       12.898       23.560      308.543      171.506      333.367        2.642      864.697
01/30/2021  18:18:00       81.342      -11.799      -29.585      457.853       32.909      215.670   209629.123     1083.030    46513.582       13.237       12.861       82.193      311.902       14.400      333.362        2.634      864.709
01/30/2021  18:19:00       37.678       -6.407      -14.732      330.982       32.302      154.345   109549.111     1043.398    23822.427        6.802        6.721       38.219      223.917       34.325      333.205        2.372      864.712
01/30/2021  18:20:00       -3.053      -11.191      -11.842      303.884       33.220      144.293    92345.766     1103.569    20820.327        5.725        5.713       11.600      207.190      319.004      333.249        2.445      864.712
01/30/2021  18:21:00       12.541        1.066       -0.177      308.643       34.815      149.410    95260.241     1212.083    22323.204        5.945        5.940       12.586      212.765      285.760      333.158        2.293      864.709
01/30/2021  18:22:00      -58.434       36.785        2.618       40.578       42.562       23.996     1646.536     1811.536      575.820        0.440        0.202       69.049       24.125        0.122      332.851        1.784      864.705
01/30/2021  18:23:00      -45.054       29.964      -14.237      328.391       50.061      153.009   107840.772     2506.102    23411.710        6.842        6.688       54.108      218.597       16.322      332.675        1.496      864.713
01/30/2021  18:24:00      -38.968       23.455       -8.983      329.319       51.970      156.870   108451.036     2700.923    24608.276        6.893        6.788       45.483      221.371       23.689      332.655        1.462      864.716
01/30/2021  18:25:00      -14.131       13.937      -11.256      381.352       49.312      186.035   145429.338     2431.686    34609.132        9.146        9.124       19.848      261.748      173.920      332.750        1.620      864.725
01/30/2021  18:26:00       31.616       -1.969      -40.256      448.211       50.134      210.014   200893.451     2513.419    44106.038       12.502       12.376       31.677      301.139       90.372      332.949        1.952      864.738
01/30/2021  18:27:00       45.260        5.288      -49.373      568.476       50.576      275.685   323165.110     2557.959    76002.381       20.303       20.086       45.568      392.617       74.238      333.069        2.156      864.746
01/30/2021  18:28:00      -16.958       12.992      -18.512      437.594       52.850      210.353   191488.686     2793.174    44248.435       11.961       11.927       21.363      299.578      196.654      332.833        1.760      864.774
01/30/2021  18:29:00      -74.515       35.088      -19.069      318.171       47.724      146.757   101232.774     2277.626    21537.688        6.607        6.252       82.363      212.362        6.648      332.620        1.406      864.793
01/30/2021  18:30:00       -0.289        8.437      -26.354      403.507       45.494      197.648   162817.675     2069.721    39064.877       10.232       10.198        8.442      278.993     1092.081      332.682        1.510      864.816
01/30/2021  18:31:00      -50.644       41.945      -22.556      286.976       39.519      139.280    82355.239     1561.772    19398.979        5.405        5.166       65.758      196.949        8.970      332.538        1.270      864.804
01/30/2021  18:32:00       29.828       26.968      -29.254      396.667       36.591      190.551   157344.459     1338.904    36309.612        9.869        9.750       40.212      273.087       46.119      332.755        1.628      864.786
01/30/2021  18:33:00       83.272       -4.008      -28.414      439.647       35.943      208.677   193289.397     1291.894    43546.032       12.289       11.906       83.369      301.300       13.062      332.704        1.546      864.800
01/30/2021  18:34:00      104.824       14.924      -41.439      486.358       35.262      233.866   236543.789     1243.411    54693.357       15.264       14.624      105.881      335.948       10.067      332.787        1.685      864.807
01/30/2021  18:35:00      111.923       15.675      -39.998      527.906       43.304      253.536   278684.519     1875.195    64280.705       17.953       17.242      113.015      364.114       10.380      332.747        1.620      864.816
01/30/2021  18:36:00       99.165       18.786      -24.826      453.459       45.999      214.662   205625.192     2115.897    46079.871       13.226       12.691      100.929      309.432        9.399      332.718        1.569      864.828
01/30/2021  18:37:00       57.302       19.033       -7.074      356.882       40.363      172.430   127364.529     1629.145    29732.167        8.118        7.936       60.380      245.542       16.537      332.548        1.284      864.844
01/30/2021  18:38:00       73.881        4.675      -10.938      440.388       52.728      209.312   193941.213     2780.224    43811.656       12.302       12.027       74.029      299.939       16.416      332.667        1.485      864.859
01/30/2021  18:39:00       88.639       19.875      -34.309      501.358       47.858      239.651   251360.066     2290.361    57432.673       16.019       15.554       90.840      344.362       14.371      332.823        1.743      864.874
01/30/2021  18:40:00       49.681       32.416      -36.655      464.516      110.408      228.355   215774.828    12190.012    52145.981       14.243       14.006       59.321      312.154       27.690      332.849        1.788      864.887
01/30/2021  18:41:00       76.167       39.414      -44.469      549.826       47.845      261.734   302308.395     2289.127    68504.484       19.114       18.655       85.760      377.336       19.359      332.919        1.905      864.900
01/30/2021  18:42:00       67.088       20.344      -32.848      467.859       46.746      227.692   218891.818     2185.198    51843.520       13.940       13.646       70.105      323.903       21.347      332.805        1.713      864.901
01/30/2021  18:43:00       56.228       29.780      -47.396      556.937       48.928      269.799   310179.032     2393.930    72791.400       19.575       19.268       63.627      385.154       36.642      332.929        1.922      864.897
01/30/2021  18:44:00       -2.525       39.880      -27.759      418.148       41.532      200.874   174848.053     1724.867    40350.342       10.960       10.846       39.960      287.273       51.683      332.735        1.596      864.886
01/30/2021  18:45:00      -11.709       33.783      -30.113      397.539       47.084      186.045   158036.862     2216.906    34612.606        9.848        9.743       35.755      268.951       56.582      332.698        1.536      864.881
01/30/2021  18:46:00      -61.253       48.926      -16.561      291.562       41.689      134.754    85008.266     1737.995    18158.575        5.564        5.245       78.394      195.205        6.200      332.379        1.007      864.877
01/30/2021  18:47:00      -26.346       56.850      -29.795      452.727       45.712      220.985   204961.401     2089.586    48834.529       13.030       12.794       62.659      313.654       25.058      332.481        1.179      864.875
01/30/2021  18:48:00      -18.253       43.155      -32.500      454.166       51.221      217.093   206266.899     2623.548    47129.403       12.958       12.801       46.856      311.489       44.193      332.529        1.257      864.873
01/30/2021  18:49:00      -46.186       34.988       -9.504      287.581       44.187      135.295    82702.618     1952.480    18304.675        5.318        5.148       57.942      192.861       11.079      332.494        1.196      864.873
01/30/2021  18:50:00       65.442       51.468      -63.825      627.894       38.971      299.516   394250.956     1518.709    89709.769       24.814       24.274       83.256      432.110       26.938      332.753        1.634      864.873
01/30/2021  18:51:00      -24.028       62.690      -24.181      410.158       45.981      196.696   168229.475     2114.282    38689.122       10.702       10.452       67.137      281.321       17.558      332.469        1.158      864.862
01/30/2021  18:52:00        4.876       53.989      -48.245      512.747       41.400      245.218   262909.225     1713.951    60131.672       16.494       16.238       54.209      352.825       42.362      332.644        1.450      864.845
01/30/2021  18:53:00       21.584       30.738      -39.769      534.913       49.503      259.942   286132.327     2450.568    67569.746       17.950       17.808       37.559      369.382       96.720      332.641        1.447      864.817
01/30/2021  18:54:00       20.137       34.634      -51.258      542.358       43.631      258.933   294152.514     1903.703    67046.060       18.359       18.155       40.063      372.606       86.500      332.659        1.474      864.811
01/30/2021  18:55:00      -82.881       39.622      -14.309      217.651       47.547      106.777    47371.803     2260.706    11401.305        3.483        3.052       91.865      147.025        2.561      332.099        0.545      864.825
01/30/2021  18:56:00      -21.196       26.895      -12.557      352.257       54.634      169.665   124084.946     2984.852    28786.196        7.856        7.793       34.243      239.282       48.828      332.334        0.933      864.840
01/30/2021  18:57:00       99.107       16.349      -42.857      558.304       50.824      268.433   311702.979     2583.051    72056.135       19.905       19.317      100.447      384.047       14.618      332.557        1.308      864.862
01/30/2021  18:58:00       88.490       17.740      -24.117      463.988       55.007      224.857   215284.921     3025.715    50560.854       13.874       13.444       90.250      320.068       12.577      332.463        1.149      864.877
01/30/2021  18:59:00      116.471       22.653      -35.092      552.959       82.439      269.156   305764.128     6796.229    72445.174       20.008       19.250      118.653      379.400       10.224      332.577        1.342      864.895
01/30/2021  19:00:00      134.867       21.554      -38.560      551.713       50.614      264.028   304387.349     2561.739    69711.005       19.832       18.833      136.578      379.180        7.708      332.524        1.254      864.917
01/30/2021  19:01:00      -15.129       43.571      -23.863      483.561       57.052      231.747   233830.788     3254.910    53706.812       14.668       14.540       46.123      329.375       50.998      332.374        1.003      864.936
01/30/2021  19:02:00       27.484       19.094      -21.795      447.208       48.603      214.304   199995.061     2362.247    45926.003       12.489       12.414       33.466      306.421       83.837      332.560        1.309      864.949
01/30/2021  19:03:00       56.320       13.030      -36.549      483.446       47.326      231.020   233720.129     2239.724    53370.395       14.694       14.467       57.807      331.236       32.833      332.615        1.400      864.961
01/30/2021  19:04:00      -32.689        8.761        6.082      123.920       51.807       63.006    15356.251     2683.988     3969.801        1.159        1.101       33.843       76.684        5.134      332.392        1.025      864.963
01/30/2021  19:05:00      113.585      -13.217      -38.143      541.191       45.920      259.916   292887.768     2108.651    67556.146       18.847       18.128      114.351      372.746       10.625      332.898        1.871      864.966
01/30/2021  19:06:00       84.751        5.383      -28.283      489.819       46.370      232.218   239922.444     2150.223    53924.973       15.194       14.800       84.922      335.096       15.570      332.761        1.642      864.972
01/30/2021  19:07:00       22.564      -11.340      -29.841      450.667       50.242      219.910   203100.891     2524.275    48360.360       12.770       12.699       25.254      311.366      152.016      332.666        1.485      864.978
01/30/2021  19:08:00       97.626       15.822      -22.850      455.129       53.902      216.390   207142.729     2905.470    46824.837       13.353       12.844       98.900      310.688        9.869      332.713        1.562      864.978
01/30/2021  19:09:00      158.486       14.207      -58.986      656.310       45.988      313.519   430742.774     2114.903    98294.111       27.986       26.558      159.122      450.727        8.024      332.963        1.981      864.973
01/30/2021  19:10:00       81.735       18.392      -14.360      476.562       48.706      227.684   227110.875     2372.233    51839.929       14.422       14.066       83.778      326.577       15.195      332.648        1.456      864.965
01/30/2021  19:11:00       80.643       17.972      -43.292      573.220       48.320      265.357   328580.883     2334.845    70414.240       20.493       20.066       82.621      386.694       21.905      332.691        1.530      864.953
01/30/2021  19:12:00       50.880       26.485      -45.914      546.206       48.634      251.092   298341.456     2365.272    63047.252       18.450       18.188       57.360      366.327       40.787      332.682        1.513      864.927
01/30/2021  19:13:00       53.360       35.795      -69.649      631.950       61.754      297.103   399360.922     3813.537    88270.458       25.011       24.572       64.254      430.637       44.918      332.745        1.622      864.911
01/30/2021  19:14:00       53.147       14.624      -44.102      510.856       48.494      245.959   260974.122     2351.649    60496.042       16.434       16.191       55.122      350.604       40.456      332.507        1.225      864.909
01/30/2021  19:15:00      -60.374       52.981      -32.193      447.368       54.269      207.940   200138.062     2945.091    43239.067       12.685       12.316       80.324      300.627       14.008      332.259        0.811      864.914
01/30/2021  19:16:00       22.425       26.320      -33.790      481.890       52.339      226.113   232217.916     2739.340    51127.299       14.415       14.304       34.578      323.281       87.411      332.325        0.922      864.933
01/30/2021  19:17:00       93.928       18.425      -28.375      536.627       63.335      254.314   287969.073     4011.354    64675.787       18.324       17.833       95.718      362.760       14.363      332.444        1.121      864.948
01/30/2021  19:18:00      -30.489       38.996       -4.478      293.684       53.054      136.558    86250.167     2814.778    18648.184        5.507        5.386       49.501      187.908       14.410      332.078        0.508      864.959
01/30/2021  19:19:00       58.356       46.842      -44.456      566.627       52.780      270.605   321065.879     2785.772    73226.814       20.224       19.854       74.830      384.923       26.460      332.425        1.090      864.969
01/30/2021  19:20:00      -66.445       65.215      -29.097      401.279       57.706      195.308   161024.594     3329.950    38145.030       10.596       10.125       93.102      274.559        8.697      332.160        0.648      864.972
01/30/2021  19:21:00       79.509       -6.731      -39.456      493.122       51.082      229.538   243168.867     2609.417    52687.526       15.313       14.923       79.793      332.610       17.376      332.296        0.875      864.979
01/30/2021  19:22:00       51.663       27.786      -48.399      529.671       59.451      247.930   280551.226     3534.453    61469.106       17.560       17.278       58.661      358.308       37.309      332.293        0.870      864.980
01/30/2021  19:23:00       -0.335       14.249       -5.656      193.405       53.918       96.241    37405.381     2907.110     9262.289        2.489        2.479       14.253      126.464       78.730      331.957        0.308      864.976
01/30/2021  19:24:00       12.718       16.058      -35.038      486.538       53.186      225.006   236719.681     2828.754    50627.852       14.585       14.509       20.484      326.264      253.693      332.190        0.700      864.960
01/30/2021  19:25:00       47.520       24.065      -29.476      501.081       53.051      239.593   251081.765     2814.454    57404.912       15.744       15.565       53.266      341.502       41.104      332.150        0.635      864.937
01/30/2021  19:26:00      -16.879       23.200       -4.424      323.635       50.862      145.008   104739.437     2586.956    21027.218        6.457        6.418       28.690      206.934       52.023      331.921        0.252      864.917
01/30/2021  19:27:00       50.387       23.212      -24.072      428.814       49.189      207.278   183881.578     2419.543    42964.198       11.641       11.463       55.477      294.382       28.158      332.081        0.518      864.909
01/30/2021  19:28:00       76.927       19.672      -55.797      560.210       42.543      266.515   313835.670     1809.881    71030.149       19.797       19.334       79.403      384.576       23.458      332.227        0.765      864.901
01/30/2021  19:29:00       89.835       29.378      -24.598      499.139       58.041      243.587   249139.507     3368.723    59334.734       16.063       15.592       94.517      344.424       13.279      332.224        0.757      864.895
01/30/2021  19:30:00       77.615       22.805      -44.782      484.605       62.480      237.405   234841.966     3903.722    56361.340       15.177       14.755       80.896      335.635       17.214      332.220        0.750      864.883
01/30/2021  19:31:00       95.367       39.680      -33.814      504.616       58.791      242.338   254636.834     3456.380    58727.929       16.425       15.841      103.293      345.023       11.157      332.314        0.905      864.886
01/30/2021  19:32:00       36.058       23.682        1.871      291.890       64.596      144.857    85199.841     4172.611    20983.434        5.609        5.518       43.139      198.155       21.099      331.926        0.260      864.874
01/30/2021  19:33:00       91.126       49.926      -19.562      475.655       59.312      228.955   226247.370     3517.960    52420.400       14.662       14.109      103.906      325.080        9.788      332.099        0.548      864.874
01/30/2021  19:34:00      126.475       44.307      -69.144      634.914       52.460      302.491   403116.338     2752.016    91500.523       25.995       24.868      134.011      435.366       10.554      332.405        1.057      864.874
01/30/2021  19:35:00       41.362       45.985      -34.282      503.836       56.613      241.431   253850.311     3205.070    58288.784       16.011       15.767       61.850      344.265       30.981      332.105        0.561      864.883
01/30/2021  19:36:00       12.176       48.402      -52.148      521.561       52.089      243.805   272025.709     2713.236    59440.726       16.963       16.709       49.910      353.689       50.218      332.099        0.551      864.896
01/30/2021  19:37:00       87.092       34.912      -76.151      661.693       44.975      312.085   437837.052     2022.747    97397.176       27.582       26.863       93.829      451.008       23.105      332.310        0.905      864.906
01/30/2021  19:38:00      115.633       38.554      -59.917      625.343       51.577      299.988   391054.132     2660.204    89992.979       25.097       24.185      121.891      430.565       12.478      332.279        0.851      864.910
01/30/2021  19:39:00      112.581       37.297      -63.777      626.370       66.269      291.964   392338.870     4391.573    85243.162       24.995       24.099      118.598      423.884       12.774      332.223        0.759      864.901
01/30/2021  19:40:00      117.432       33.861      -83.668      702.598       54.032      333.698   493644.382     2919.427   111354.623       31.480       30.396      122.217      480.695       15.470      332.349        0.972      864.882
01/30/2021  19:41:00       52.657       31.000      -64.126      588.714       63.579      288.509   346584.346     4042.349    83237.726       22.076       21.693       61.104      408.687       44.734      332.166        0.663      864.859
01/30/2021  19:42:00        4.250       39.863      -24.542      372.269       50.865      175.245   138583.963     2587.228    30710.901        8.701        8.594       40.089      250.991       39.199      331.831        0.106      864.850
01/30/2021  19:43:00      172.292       27.253      -54.058      654.713       50.876      313.118   428648.482     2588.399    98042.972       28.120       26.464      174.434      450.559        6.672      332.176        0.682      864.838
01/30/2021  19:44:00       79.685        6.494      -30.920      461.524       54.706      225.216   213004.851     2992.793    50722.321       13.698       13.336       79.949      318.489       15.870      331.847        0.134      864.833
01/30/2021  19:45:00       71.724        3.937      -51.753      539.450       40.707      260.049   291006.445     1657.049    67625.373       18.399       18.014       71.832      371.077       26.686      331.984        0.361      864.835
01/30/2021  19:46:00       85.104        6.473      -55.944      590.179       49.007      281.295   348311.110     2401.691    79127.060       22.004       21.492       85.350      404.324       22.441      332.146        0.631      864.841
01/30/2021  19:47:00       95.176       31.948      -40.561      503.667       53.782      243.257   253680.477     2892.554    59174.106       16.367       15.787      100.394      345.178       11.821      331.987        0.364      864.851
01/30/2021  19:48:00      141.634        4.692      -60.469      649.635       55.283      322.013   422025.178     3056.227   103692.354       27.614       26.439      141.711      452.565       10.199      332.140        0.624      864.856
01/30/2021  19:49:00      175.806       -2.752     -119.650      804.416       57.770      377.647   647085.703     3337.335   142617.214       41.897       39.652      175.827      547.184        9.685      332.389        1.042      864.863
01/30/2021  19:50:00       33.175       36.075      -13.953      384.941       65.119      188.760   148179.236     4240.458    35630.158        9.528        9.402       49.010      263.673       28.945      331.770        0.005      864.865
01/30/2021  19:51:00      -17.859       39.763      -14.859      312.036       61.454      151.219    97366.545     3776.598    22867.104        6.304        6.201       43.590      211.791       23.607      331.738       -0.049      864.876
01/30/2021  19:52:00      194.481       -8.319      -71.652      693.448       60.599      340.684   480869.580     3672.215   116065.648       32.169       30.030      194.658      483.288        6.164      332.308        0.902      864.888
01/30/2021  19:53:00      222.333       17.754      -70.903      720.667       73.451      348.995   519360.494     5395.028   121797.216       35.053       32.328      223.040      498.870        5.003      332.410        1.072      864.900
01/30/2021  19:54:00      102.353       22.593      -35.170      506.762       50.089      238.940   256807.829     2508.869    57092.493       16.425       15.820      104.817      344.746       10.818      331.922        0.259      864.913
01/30/2021  19:55:00       58.802      -10.123      -58.516      547.692       54.627      267.016   299966.656     2984.141    71297.404       19.054       18.712       59.667      378.906       40.327      331.984        0.362      864.921
01/30/2021  19:56:00       -6.393        9.944      -36.430      510.460       56.485      246.488   260568.926     3190.521    60756.557       16.292       16.226       11.822      350.770      880.416      331.931        0.274      864.932
01/30/2021  19:57:00       78.433       14.008      -73.847      670.103       60.344      324.551   449038.427     3641.443   105333.587       28.479       27.901       79.674      463.048       33.777      332.240        0.790      864.936
01/30/2021  19:58:00       81.011        2.238      -50.518      601.148       62.703      285.224   361379.182     3931.722    81352.535       22.780       22.333       81.042      408.443       25.400      332.249        0.802      864.942
01/30/2021  19:59:00      100.698        6.908      -58.913      619.005       53.992      292.796   383167.567     2915.114    85729.680       24.264       23.591      100.935      422.214       17.498      332.489        1.198      864.940
01/30/2021  20:00:00       38.406        8.881      -37.108      545.483       54.078      256.369   297551.406     2924.411    65725.226       18.449       18.310       39.419      369.515       87.870      332.247        0.794      864.939
01/30/2021  20:01:00       44.831       -6.805      -47.989      608.032       57.082      285.433   369703.334     3258.348    81471.986       22.930       22.722       45.344      411.314       82.281      332.275        0.844      864.943
01/30/2021  20:02:00      -33.965       24.425       -0.031      340.159       50.807      162.952   115708.387     2581.348    26553.194        7.327        7.242       41.836      224.193       28.718      331.889        0.200      864.958
01/30/2021  20:03:00       14.648       -3.492      -39.951      545.697       57.968      256.955   297785.015     3360.264    66025.988       18.442       18.359       15.059      369.922      603.455      332.059        0.486      864.974
01/30/2021  20:04:00      121.558        0.769      -53.136      637.711      155.940      305.916   406674.695    24317.426    93584.603       27.098       26.229      121.560      419.691       11.920      332.257        0.817      864.984
01/30/2021  20:05:00      155.763       32.609      -58.817      656.439       51.475      313.062   430912.030     2649.660    98007.804       28.007       26.578      159.139      450.435        8.011      332.216        0.750      864.986
01/30/2021  20:06:00       45.223       16.226      -20.214      486.338       55.906      235.403   236524.842     3125.434    55414.359       14.883       14.753       48.045      332.537       47.904      331.939        0.285      864.994
01/30/2021  20:07:00        9.664       17.521      -38.134      529.980       43.430      253.239   280879.251     1886.173    64129.964       17.430       17.345       20.010      363.060      329.214      331.968        0.335      865.002
01/30/2021  20:08:00       13.810       11.809      -28.198      429.918       50.350      207.051   184829.668     2535.112    42870.291       11.563       11.512       18.170      295.000      263.584      331.821        0.090      865.009
01/30/2021  20:09:00       82.817       24.755      -47.537      570.724       62.031      271.784   325725.322     3847.819    73866.381       20.650       20.172       86.438      391.022       20.464      332.114        0.577      865.019
01/30/2021  20:10:00       60.376       11.509      -17.297      418.654       49.384      200.556   175271.477     2438.822    40222.905       11.096       10.897       61.463      284.958       21.495      331.873        0.176      865.013
01/30/2021  20:11:00      114.809       -1.017      -65.923      694.699       54.458      330.697   482607.093     2965.657   109360.403       30.611       29.747      114.813      475.418       17.146      332.264        0.831      865.017
01/30/2021  20:12:00      114.694       -2.917      -92.927      715.811      147.218      344.532   512386.006    21673.271   118702.252       33.714       32.638      114.731      480.338       17.528      332.370        1.006      865.013
01/30/2021  20:13:00       94.554       -3.749      -72.797      670.655      103.577      323.235   449778.357    10728.213   104481.075       28.950       28.249       94.628      456.537       23.276      332.213        0.745      865.005
01/30/2021  20:14:00       98.300       15.487      -57.691      597.081       54.786      283.837   356505.220     3001.517    80563.358       22.656       22.004       99.512      407.257       16.749      332.153        0.644      865.001
01/30/2021  20:15:00        7.102       39.368      -38.484      551.291       55.729      251.417   303922.248     3105.769    63210.589       18.658       18.512       40.004      368.898       85.038      331.977        0.351      864.992
01/30/2021  20:16:00      156.146       25.011      -79.240      724.702       53.784      347.138   525192.765     2892.683   120505.032       33.980       32.430      158.136      498.223        9.926      332.319        0.921      864.990
01/30/2021  20:17:00      145.783        7.221      -97.448      782.053       50.174      379.352   611607.480     2517.476   143907.787       39.426       37.902      145.962      542.414       13.810      332.452        1.146      864.985
01/30/2021  20:18:00      103.650       23.632      -73.023      708.054       50.083      336.132   501340.651     2508.279   112984.615       31.660       30.842      106.310      483.305       20.668      332.258        0.819      864.985
01/30/2021  20:19:00       51.579       22.397      -63.662      659.579       52.385      314.646   435043.959     2744.197    99001.842       27.189       26.839       56.232      452.460       64.743      332.155        0.647      864.990
01/30/2021  20:20:00       38.895       29.793      -37.174      530.267       52.450      255.908   281183.149     2751.032    65488.964       17.653       17.471       48.994      362.984       54.890      331.972        0.342      865.001
01/30/2021  20:21:00       28.328       24.186      -59.884      602.515       60.991      286.787   363024.873     3719.899    82246.550       22.689       22.450       37.248      411.972      122.329      331.994        0.381      864.994
01/30/2021  20:22:00       -9.037       23.390      -19.552      454.079       56.502      213.954   206188.139     3192.435    45776.459       12.803       12.758       25.075      305.158      148.099      331.859        0.153      864.987
01/30/2021  20:23:00       83.209       19.815      -88.017      755.560       53.031      359.977   570870.312     2812.249   129583.579       35.902       35.163       85.535      516.584       36.475      332.261        0.826      864.988
01/30/2021  20:24:00      141.333       -0.085      -91.280      744.799       54.025      353.819   554724.915     2918.720   125188.162       35.543       34.142      141.333      509.323       12.987      332.261        0.827      864.989
01/30/2021  20:25:00      170.131       14.682     -102.791      759.538       48.672      363.020   576897.398     2368.944   131783.774       37.524       35.553      170.763      522.224        9.352      332.285        0.868      864.982
01/30/2021  20:26:00      -77.554       25.562      -29.460      408.295       43.810      196.577   166704.617     1919.293    38642.643       10.736       10.363       81.658      279.608       11.725      331.633       -0.219      864.975
01/30/2021  20:27:00       55.241       17.497      -52.382      606.982       56.222      282.720   368426.555     3160.921    79930.712       22.871       22.576       57.946      408.376       49.668      331.924        0.265      864.978
01/30/2021  20:28:00      152.397       12.219      -67.139      689.009       51.456      325.794   474732.744     2647.741   106141.613       30.558       29.176      152.886      468.130        9.376      332.064        0.499      864.992
01/30/2021  20:29:00       65.818       34.983      -63.070      584.880      146.874      290.330   342084.087    21572.062    84291.308       22.864       22.397       74.538      393.784       27.910      331.865        0.170      865.006
01/30/2021  20:30:00      135.179       20.516      -68.128      690.611       50.714      324.485   476943.490     2571.917   105290.486       30.394       29.240      136.727      470.249       11.829      331.923        0.267      865.027
01/30/2021  20:31:00      188.821       -5.507      -70.468      693.351       56.378      329.804   480736.130     3178.449   108770.902       31.655       29.634      188.901      474.818        6.318      332.009        0.410      865.041
01/30/2021  20:32:00       68.333        7.187      -28.620      481.579       48.220      233.562   231918.698     2325.164    54551.379       14.711       14.440       68.710      331.583       23.289      331.660       -0.173      865.048
01/30/2021  20:33:00      116.601       26.381      -82.036      723.060       50.959      345.498   522816.458     2596.784   119368.605       33.276       32.239      119.548      496.737       17.265      332.087        0.540      865.053
01/30/2021  20:34:00       70.933       17.922      -70.719      686.313       55.866      332.007   471025.231     3121.054   110228.870       29.724       29.219       73.162      474.272       42.022      331.948        0.308      865.064
01/30/2021  20:35:00       47.274       12.619      -67.600      639.506       44.039      306.787   408967.331     1939.414    94118.529       25.589       25.251       48.929      440.778       81.153      331.884        0.202      865.085
01/30/2021  20:36:00       25.689       19.918      -56.202      587.670       50.060      285.512   345355.568     2506.018    81517.004       21.671       21.469       32.507      407.340      157.026      331.820        0.096      865.113
01/30/2021  20:37:00      103.324       32.414      -19.858      507.161       56.900      242.624   257212.373     3237.570    58866.423       16.565       15.966      108.289      346.246       10.223      331.716       -0.081      865.136
01/30/2021  20:38:00      179.570       26.743      -68.851      675.641       55.760      322.548   456490.652     3109.164   104037.467       30.055       28.182      181.551      463.734        6.524      331.991        0.378      865.157
01/30/2021  20:39:00      233.015       13.310     -125.314      845.070       44.810      400.964   714143.400     2007.957   160771.755       47.337       43.846      233.395      579.336        6.161      332.361        0.997      865.159
01/30/2021  20:40:00      133.385        9.417      -75.389      734.151       47.975      347.412   538977.282     2301.618   120695.371       34.263       33.099      133.717      502.036       14.096      332.021        0.432      865.158
01/30/2021  20:41:00       36.509       14.680      -60.494      612.116       46.177      292.654   374685.715     2132.346    85646.399       23.374       23.123       39.350      419.414      113.606      331.740       -0.038      865.157
01/30/2021  20:42:00       16.943       56.838      -63.461      633.111       49.808      303.519   400829.988     2480.868    92123.591       25.138       24.772       59.310      435.654       53.955      331.651       -0.182      865.148
01/30/2021  20:43:00       67.632       25.388      -56.373      600.796       60.417      288.830   360955.995     3650.161    83422.632       22.812       22.401       72.240      411.998       32.526      331.596       -0.276      865.134
01/30/2021  20:44:00      121.639       59.101     -114.716      838.323       46.246      398.634   702785.905     2138.685   158909.441       44.746       43.192      135.237      575.420       18.104      331.903        0.243      865.119
01/30/2021  20:45:00       83.017       31.234      -96.133      676.848       52.932      328.325   458122.718     2801.755   107797.629       29.279       28.436       88.698      469.037       27.963      331.797        0.058      865.109
01/30/2021  20:46:00       25.870       55.592      -97.470      698.178       41.657      334.723   487451.934     1735.335   112039.259       30.712       30.061       61.317      481.572       61.683      331.606       -0.255      865.104
01/30/2021  20:47:00       63.028       29.598      -94.435      663.170       44.910      314.555   439794.536     2016.927    98945.053       27.715       27.038       69.632      454.285       42.564      331.694       -0.111      865.091
01/30/2021  20:48:00       25.392       25.607      -65.502      595.442       45.504      287.119   354551.020     2070.593    82437.416       22.223       21.953       36.062      410.883      129.815      331.487       -0.455      865.077
01/30/2021  20:49:00      127.423       26.055      -91.262      726.408       35.980      347.874   527668.624     1294.579   121016.446       33.747       32.499      130.059      500.518       14.810      331.758       -0.004      865.067
01/30/2021  20:50:00      218.294        4.282     -106.381      795.158       46.701      373.795   632275.574     2181.005   139722.479       41.642       38.709      218.336      542.919        6.183      332.023        0.436      865.065
01/30/2021  20:51:00      237.329        7.943     -116.184      791.149       31.313      379.595   625917.392      980.506   144092.476       42.028       38.550      237.462      546.980        5.306      332.053        0.487      865.075
01/30/2021  20:52:00      139.598       16.123      -96.725      743.550       33.996      356.816   552866.815     1155.741   127317.401       35.508       34.067      140.526      513.627       13.359      331.889        0.214      865.086
01/30/2021  20:53:00       84.289       17.252      -74.166      636.480       37.864      300.111   405106.950     1433.665    90066.722       25.465       24.830       86.037      435.325       25.601      331.720       -0.069      865.096
01/30/2021  20:54:00      131.429       12.847     -113.103      759.854       29.359      360.435   577377.960      861.960   129913.256       36.904       35.408      132.055      522.446       15.652      332.045        0.472      865.116
01/30/2021  20:55:00       46.389       22.850      -65.489      626.294       32.531      302.303   392244.255     1058.285    91387.406       24.572       24.234       51.711      433.816       70.378      331.686       -0.125      865.134
01/30/2021  20:56:00      113.440       15.966      -82.019      670.483       41.523      318.520   449547.302     1724.195   101454.776       28.617       27.636      114.558      459.456       16.086      331.881        0.197      865.159
01/30/2021  20:57:00       22.296       11.260      -37.041      532.952       38.966      253.609   284037.743     1518.363    64317.332       17.586       17.494       24.978      364.838      213.341      331.593       -0.282      865.184
01/30/2021  20:58:00      -15.296       22.251      -56.283      548.964       32.139      262.582   301361.671     1032.924    68949.539       18.754       18.567       27.002      377.131      195.073      331.486       -0.458      865.191
01/30/2021  20:59:00      107.853       24.393     -109.037      779.094       39.602      373.097   606987.133     1568.321   139201.272       38.578       37.388      110.577      537.287       23.609      332.016        0.425      865.201
01/30/2021  21:00:00       77.412        5.213      -69.957      630.434       42.952      303.593   397446.729     1844.856    92168.660       25.108       24.573       77.587      433.696       31.246      331.720       -0.069      865.184
01/30/2021  21:01:00      173.534        3.672      -96.924      751.040       50.599      361.833   564061.571     2560.209   130922.904       36.839       34.877      173.573      519.232        8.949      331.876        0.193      865.195
01/30/2021  21:02:00      105.207       21.771      -97.242      760.460       40.920      363.601   578299.282     1674.439   132205.485       36.644       35.609      107.435      524.225       23.809      331.820        0.102      865.221
01/30/2021  21:03:00      165.324       36.366     -101.608      740.744       45.482      351.968   548701.312     2068.578   123881.705       35.667       33.733      169.276      506.772        8.963      331.844        0.139      865.236
01/30/2021  21:04:00       93.977       28.817      -69.459      639.270       34.096      299.880   408665.731     1162.556    89927.925       25.701       24.988       98.296      435.006       19.585      331.506       -0.422      865.240
01/30/2021  21:05:00      158.309        4.179     -119.298      805.447       37.409      377.696   648744.384     1399.445   142654.448       41.589       39.640      158.364      549.888       12.057      331.789        0.053      865.251
01/30/2021  21:06:00      205.030       28.265     -137.997      838.249       35.480      404.378   702661.341     1258.841   163521.540       46.448       43.372      206.969      580.446        7.865      331.865        0.179      865.251
01/30/2021  21:07:00      266.323        1.044     -139.572      816.690       42.856      388.975   666982.333     1836.634   151301.513       45.509       41.006      266.325      562.061        4.454      331.870        0.187      865.252
01/30/2021  21:08:00      162.246       -9.941     -105.242      748.622       50.381      360.057   560435.288     2538.286   129640.757       36.491       34.631      162.551      517.229       10.125      331.623       -0.223      865.240
01/30/2021  21:09:00      215.705       -2.575     -128.752      822.705       34.923      393.430   676844.070     1219.593   154786.844       44.781       41.643      215.720      566.423        6.894      331.785        0.047      865.235
01/30/2021  21:10:00      171.405       -1.406     -123.111      765.328       38.669      365.719   585726.631     1495.319   133750.332       38.260       36.049      171.410      527.366        9.466      331.671       -0.143      865.233
01/30/2021  21:11:00       37.708        5.455      -82.917      606.884       31.513      290.532   368307.998      993.046    84408.650       23.092       22.685       38.100      418.670      120.750      331.379       -0.631      865.236
01/30/2021  21:12:00       94.047       20.743     -112.087      760.174       31.225      367.725   577864.319      975.001   135221.601       36.780       35.703       96.307      527.383       29.987      331.659       -0.164      865.226
01/30/2021  21:13:00      124.211        5.560     -117.946      757.204       37.730      360.587   573357.235     1423.551   130022.753       36.694       35.240      124.336      521.150       17.569      331.764        0.009      865.210
01/30/2021  21:14:00       90.515        7.507      -85.406      652.480       39.162      309.388   425729.546     1533.674    95720.681       26.915       26.149       90.826      447.174       24.240      331.647       -0.190      865.198
01/30/2021  21:15:00      187.679        3.201     -121.335      775.649       34.302      375.950   601631.784     1176.656   141338.676       39.690       37.207      187.706      537.986        8.215      331.877        0.196      865.184
01/30/2021  21:16:00      273.228        8.036     -145.799      892.257       33.743      420.567   796123.243     1138.606   176876.748       53.485       48.707      273.347      611.280        5.001      332.127        0.615      865.183
01/30/2021  21:17:00      224.554       10.270     -124.232      818.619       26.720      387.278   670137.697      713.946   149984.483       44.323       41.042      224.789      561.573        6.241      331.951        0.319      865.189
01/30/2021  21:18:00      163.016       21.076     -128.381      828.060       31.484      396.119   685683.195      991.273   156910.135       44.336       42.179      164.373      571.742       12.099      332.033        0.456      865.194
01/30/2021  21:19:00      150.764        0.648     -125.918      816.181       35.003      391.879   666151.839     1225.216   153569.209       42.959       41.047      150.766      564.013       13.995      331.964        0.342      865.195
01/30/2021  21:20:00       52.552        4.733      -75.388      633.635       25.433      304.518   401493.324      646.826    92730.953       25.156       24.744       52.765      437.771       68.834      331.572       -0.314      865.195
01/30/2021  21:21:00      269.775      -21.937     -166.345      931.082      148.805      447.571   866914.359    22142.810   200320.092       59.493       54.469      270.665      631.804        5.449      332.348        0.982      865.200
01/30/2021  21:22:00       31.151        4.970      -56.048      573.799       37.279      273.482   329245.439     1389.758    74792.422       20.470       20.271       31.545      392.384      154.726      331.444       -0.526      865.194
01/30/2021  21:23:00       44.587       30.147      -86.233      687.474       27.876      329.976   472620.851      777.092   108883.858       29.618       29.114       53.822      474.414       77.696      331.619       -0.235      865.202
01/30/2021  21:24:00       17.282       12.335      -48.308      560.460       38.453      262.711   314115.181     1478.618    69017.018       19.362       19.231       21.233      379.624      319.667      331.389       -0.617      865.222
01/30/2021  21:25:00      175.161       -6.051     -130.184      823.561      143.187      417.987   678253.541    20502.537   174713.501       46.038       43.673      175.266      574.525       10.745      331.972        0.359      865.246
01/30/2021  21:26:00       66.018       -6.258      -54.854      589.678       44.891      280.267   347720.419     2015.214    78549.479       21.776       21.414       66.314      403.383       37.002      331.475       -0.474      865.260
01/30/2021  21:27:00      153.863       14.434     -109.311      790.774       42.195      374.954   625323.845     1780.458   140590.529       40.160       38.385      154.539      541.114       12.260      331.851        0.155      865.273
01/30/2021  21:28:00      230.632      -11.626     -155.051      907.365       55.201      426.684   823310.946     3047.142   182058.873       54.267       50.421      230.925      619.250        7.191      332.184        0.709      865.272
01/30/2021  21:29:00       13.594      -17.033      -95.560      701.329       43.026      336.615   491861.742     1851.253   113309.856       30.818       30.351       21.793      483.972      493.193      331.578       -0.299      865.270
01/30/2021  21:30:00      187.509      -13.988     -133.597      828.114       45.338      391.406   685772.804     2055.552   153198.472       44.694       42.051      188.030      567.453        9.108      332.025        0.443      865.274
01/30/2021  21:31:00       88.498      -29.802      -84.804      721.917       47.619      340.966   521163.770     2267.597   116257.767       32.766       31.984       93.381      493.249       27.901      331.605       -0.255      865.284
01/30/2021  21:32:00      105.721       -0.459     -114.496      803.397       35.509      381.108   645446.805     1260.885   145243.514       40.795       39.598      105.722      550.549       27.118      331.716       -0.068      865.298
01/30/2021  21:33:00       79.031       -8.442      -91.949      700.643       42.394      330.673   490901.226     1797.229   109344.888       30.828       30.102       79.480      479.354       36.374      331.563       -0.324      865.304
01/30/2021  21:34:00       -1.112       34.712      -70.471      593.272       43.756      282.597   351971.765     1914.562    79860.922       21.987       21.687       34.730      407.496      137.671      331.323       -0.723      865.311
01/30/2021  21:35:00       77.817       18.400      -76.745      667.918       56.573      317.241   446114.220     3200.506   100641.732       28.100       27.498       79.963      456.313       32.565      331.433       -0.541      865.307
01/30/2021  21:36:00      132.660        9.044     -116.458      747.111       38.491      359.714   558174.459     1481.554   129394.210       36.000       34.453      132.968      516.578       15.093      331.707       -0.085      865.304
01/30/2021  21:37:00      100.851       22.105      -79.752      660.254       36.069      312.102   435935.994     1301.008    97407.387       27.572       26.732      103.245      451.564       19.129      331.465       -0.487      865.313
01/30/2021  21:38:00      158.196       -3.637      -94.953      724.381       36.466      345.860   524727.228     1329.796   119619.065       33.973       32.284      158.238      497.967        9.903      331.539       -0.362      865.338
01/30/2021  21:39:00      139.901       19.479     -113.579      752.362       99.784      373.847   566049.271     9956.806   139761.656       37.416       35.788      141.251      523.767       13.750      331.684       -0.122      865.360
01/30/2021  21:40:00      161.533        5.872     -114.792      794.939       41.199      380.954   631927.317     1697.330   145125.651       40.886       38.938      161.640      548.717       11.524      331.703       -0.089      865.383
01/30/2021  21:41:00      173.104       24.514     -150.143      865.172       32.085      414.872   748522.330     1029.431   172119.056       48.719       46.084      174.831      598.166       11.706      331.838        0.136      865.397
01/30/2021  21:42:00      223.076       -5.059     -136.150      876.718       33.768      417.819   768634.863     1140.249   174572.456       50.614       47.217      223.133      603.653        7.319      331.822        0.113      865.413
01/30/2021  21:43:00      104.769       31.641      -95.323      730.774       29.541      349.756   534030.175      872.659   122329.022       33.901       32.862      109.442      503.654       21.179      331.404       -0.584      865.429
01/30/2021  21:44:00      267.377        8.444     -140.629      887.919       33.126      425.216   788399.421     1097.357   180808.986       53.062       48.515      267.510      613.059        5.252      331.832        0.128      865.433
01/30/2021  21:45:00      302.338      -17.728     -150.969      853.576       35.881      404.866   728592.766     1287.480   163916.591       50.397       44.690      302.858      586.595        3.751      331.923        0.275      865.434
01/30/2021  21:46:00      247.707        3.717     -125.179      862.895       37.782      410.605   744587.392     1427.450   168596.206       49.564       45.731      247.735      592.273        5.716      331.719       -0.060      865.436
01/30/2021  21:47:00      153.389       12.167     -122.154      804.162       47.324      386.583   646675.931     2239.589   149446.727       41.831       39.918      153.870      555.801       13.048      331.714       -0.071      865.441
01/30/2021  21:48:00       71.424       18.785     -103.468      785.218       34.836      371.457   616567.723     1213.544   137980.197       38.580       37.788       73.853      538.328       53.133      331.498       -0.427      865.445
01/30/2021  21:49:00      123.880       -1.839     -112.829      785.425      121.176      379.425   616892.731    14683.698   143963.648       40.164       38.777      123.894      536.041       18.720      331.706       -0.086      865.448
01/30/2021  21:50:00       61.629        1.753      -88.416      699.873       38.906      333.920   489822.331     1513.683   111502.856       30.710       30.142       61.654      481.779       61.063      331.445       -0.519      865.449
01/30/2021  21:51:00      203.819       15.869     -132.711      850.955       39.063      405.910   724124.126     1525.884   164762.684       47.472       44.521      204.436      585.755        8.210      331.820        0.106      865.443
01/30/2021  21:52:00       94.529      -11.393      -84.308      694.378       45.522      333.004   482160.674     2072.246   110891.438       30.552       29.756       95.213      478.864       25.295      331.420       -0.559      865.437
01/30/2021  21:53:00      126.093       -3.513     -102.778      744.218       42.717      352.859   553860.799     1824.750   124509.144       35.319       34.010      126.142      510.464       16.376      331.499       -0.428      865.434
01/30/2021  21:54:00      217.764      -18.735     -155.681      871.195      165.848      450.803   758981.013    27505.497   203223.717       53.065       49.486      218.569      611.228        7.820      331.935        0.302      865.418
01/30/2021  21:55:00      247.693       14.377     -142.182      847.565       40.245      404.487   718366.284     1619.668   163609.700       48.250       44.180      248.110      584.095        5.542      331.774        0.030      865.402
01/30/2021  21:56:00      118.869       16.085     -117.759      753.464       43.412      357.093   567707.985     1884.593   127515.252       36.253       34.855      119.953      516.917       18.571      331.598       -0.265      865.396
01/30/2021  21:57:00      250.617       -7.904     -136.565      858.423       43.745      407.790   736890.247     1913.618   166292.681       49.312       45.255      250.741      589.389        5.525      331.754       -0.003      865.392
01/30/2021  21:58:00      358.242       11.125     -191.801      981.963       43.315      460.752   964250.607     1876.169   212292.381       67.159       58.921      358.415      670.141        3.496      332.095        0.568      865.379
01/30/2021  21:59:00      103.413       20.080     -111.925      740.215      163.025      354.438   547918.110    26577.276   125626.266       36.173       35.006      105.345      493.658       21.960      331.404       -0.585      865.366
01/30/2021  22:00:00      220.864       24.706     -147.471      918.568       46.087      434.632   843766.632     2123.980   188905.332       55.275       51.740      222.242      629.596        8.026      331.669       -0.139      865.354
01/30/2021  22:01:00      289.847       23.448     -152.944      887.643       36.073      420.236   787909.260     1301.227   176598.153       53.668       48.290      290.794      608.229        4.375      331.709       -0.074      865.352
01/30/2021  22:02:00      146.834        5.328     -126.913      813.150      124.083      406.060   661212.813    15396.469   164884.775       43.942       42.075      146.931      564.610       14.766      331.525       -0.378      865.360
01/30/2021  22:03:00      154.578       24.929     -127.130      823.438       44.494      394.354   678050.036     1979.679   155515.239       43.794       41.777      156.575      568.324       13.175      331.456       -0.495      865.372
01/30/2021  22:04:00      431.222        5.051     -214.489     1000.140       36.836      477.288  1000280.341     1356.927   227803.692       73.045       61.472      431.252      689.896        2.559      332.116        0.603      865.378
01/30/2021  22:05:00      271.780        0.343     -159.907      917.753       37.396      438.142   842271.135     1398.428   191968.143       56.732       51.782      271.780      632.816        5.421      331.751       -0.003      865.387
01/30/2021  22:06:00      215.381        7.333     -159.959      907.022       28.876      432.392   822689.415      833.826   186962.868       54.104       50.524      215.506      625.432        8.423      331.748       -0.008      865.382
01/30/2021  22:07:00      157.531        9.445     -132.605      809.263       25.790      387.502   654906.356      665.139   150158.122       42.394       40.286      157.814      559.263       12.559      331.549       -0.341      865.375
01/30/2021  22:08:00      177.175       17.127     -123.975      810.032       29.585      386.006   656151.116      875.254   149000.828       42.637       40.301      178.000      558.316        9.838      331.543       -0.352      865.371
01/30/2021  22:09:00      218.474        7.769     -148.135      832.550       30.480      400.490   693140.333      929.003   160392.307       46.192       42.723      218.612      576.671        6.958      331.701       -0.092      865.365
01/30/2021  22:10:00      367.337        8.706     -192.380      976.068       28.965      463.926   952708.439      838.971   215227.474       67.015       58.439      367.440      672.295        3.348      332.140        0.641      865.366
01/30/2021  22:11:00      354.118       -7.244     -204.442      970.894      151.205      464.686   942635.582    22862.962   215932.717       67.409       59.072      354.192      658.941        3.461      332.221        0.774      865.367
01/30/2021  22:12:00      149.670       19.859     -101.866      706.675       24.876      338.516   499389.104      618.822   114593.346       32.376       30.730      150.982      487.939       10.444      331.330       -0.708      865.363
01/30/2021  22:13:00      236.858       13.067     -162.629      882.440       37.158      422.575   778699.549     1380.729   178569.795       52.048       47.933      237.218      609.716        6.606      331.777        0.038      865.360
01/30/2021  22:14:00      197.071        7.392     -134.359      806.591       32.453      383.237   650589.508     1053.167   146870.466       42.756       39.926      197.210      554.596        7.909      331.561       -0.322      865.356
01/30/2021  22:15:00      190.687        7.732     -108.217      766.896       24.734      360.530   588129.819      611.776   129982.089       38.328       35.936      190.844      524.911        7.565      331.445       -0.517      865.358
01/30/2021  22:16:00      303.331        6.200     -167.035      950.518       31.451      452.819   903485.354      989.184   205044.666       61.450       55.476      303.395      654.909        4.660      331.824        0.120      865.365
01/30/2021  22:17:00      306.698       16.013     -181.344      940.815       31.830      445.978   885132.419     1013.144   198896.036       60.590       54.252      307.116      646.901        4.437      331.898        0.240      865.359
01/30/2021  22:18:00      371.952        7.349     -197.495      989.016       32.578      472.257   978152.634     1061.335   223026.313       68.957       60.112      372.024      682.625        3.367      332.065        0.520      865.354
01/30/2021  22:19:00      162.533        7.114     -107.484      712.080       32.596      337.107   507057.897     1062.471   113641.332       32.976       31.088      162.689      488.999        9.034      331.302       -0.753      865.339
01/30/2021  22:20:00      353.467      -21.102     -188.948      906.426       27.759      437.208   821608.940      770.566   191150.944       58.709       50.677      354.096      628.790        3.153      331.906        0.252      865.330
01/30/2021  22:21:00      332.643      -26.334     -155.104      889.920       24.593      424.389   791957.787      604.814   180105.910       55.383       48.633      333.684      614.003        3.386      331.779        0.040      865.328
01/30/2021  22:22:00      204.638       10.754      -92.576      715.139       22.620      340.764   511423.440      511.653   116119.985       33.918       31.403      204.921      493.205        5.793      331.333       -0.703      865.330
01/30/2021  22:23:00      456.030       29.986     -209.102     1025.464       25.791      491.925  1051577.109      665.196   241990.577       77.314       64.712      457.014      709.773        2.412      332.438        1.136      865.328
01/30/2021  22:24:00      259.836       51.927     -108.943      768.376       32.468      367.140   590401.482     1054.197   134791.462       40.401       36.312      264.974      530.688        4.011      331.801        0.070      865.329
01/30/2021  22:25:00      282.666       29.841     -118.230      807.742       23.556      385.706   652447.810      554.884   148769.464       44.810       40.089      284.237      557.853        3.852      331.739       -0.030      865.331
01/30/2021  22:26:00      343.063        9.571     -151.062      872.045       32.673      418.540   760462.232     1067.529   175175.596       53.845       46.835      343.197      603.477        3.092      331.925        0.281      865.345
01/30/2021  22:27:00      386.616      -14.699     -181.696      939.039       24.221      449.798   881793.467      586.677   202317.855       63.347       54.235      386.895      649.414        2.817      332.175        0.697      865.375
01/30/2021  22:28:00      289.622       -2.456     -136.510      802.457       26.683      384.853   643937.290      711.966   148112.100       44.748       39.638      289.633      555.081        3.673      331.938        0.299      865.402
01/30/2021  22:29:00      249.547        6.457     -112.316      789.046      125.324      378.394   622592.938    15706.116   143182.145       42.804       39.074      249.630      536.211        4.614      331.873        0.188      865.416
01/30/2021  22:30:00      262.374      -17.406     -123.601      793.801       22.475      378.973   630120.436      505.124   143620.791       42.917       38.712      262.951      548.003        4.343      331.932        0.288      865.430
01/30/2021  22:31:00      329.920      -29.527     -153.643      893.369       33.500      428.757   798107.954     1122.265   183832.942       55.799       49.153      331.238      618.092        3.482      332.152        0.655      865.450
01/30/2021  22:32:00      287.606      -21.252     -125.528      788.957       23.243      377.796   622453.013      540.216   142730.024       43.216       38.286      288.390      545.576        3.579      331.942        0.305      865.475
01/30/2021  22:33:00      345.420      -29.127     -179.995      912.790       33.967      434.045   833186.463     1153.741   188395.210       58.743       51.137      346.646      628.752        3.290      332.307        0.912      865.507
01/30/2021  22:34:00      204.890       -9.217     -123.172      772.295       31.515      368.159   596439.774      993.224   135541.086       39.495       36.649      205.097      532.213        6.734      331.764        0.010      865.559
01/30/2021  22:35:00      126.920      -30.890      -73.562      658.962       39.233      308.627   434231.404     1539.195    95250.392       27.663       26.551      130.625      447.358       11.729      331.482       -0.458      865.597
01/30/2021  22:36:00      109.626      -28.118      -97.901      734.527       48.825      340.921   539529.435     2383.902   116226.884       34.013       32.907      113.174      496.803       19.270      331.594       -0.273      865.640
01/30/2021  22:37:00       83.322      -24.591     -120.296      809.415       55.224      384.777   655153.384     3049.745   148053.142       41.397       40.313       86.875      554.885       40.796      331.623       -0.222      865.691
01/30/2021  22:38:00      -15.601       11.214      -81.863      676.171       57.842      329.202   457207.695     3345.657   108374.053       28.788       28.446       19.213      468.724      595.163      331.263       -0.818      865.737
01/30/2021  22:39:00       10.574      -22.576      -52.748      606.904       67.997      290.264   368331.947     4623.560    84253.275       23.021       22.860       24.930      413.656      275.321      331.012       -1.235      865.759
01/30/2021  22:40:00      262.482      -24.590     -173.923      957.585       39.486      456.377   916969.883     1559.177   208279.817       61.304       56.340      263.631      659.301        6.254      331.807        0.093      865.770
01/30/2021  22:41:00      129.472        3.857     -119.289      818.767       44.613      391.439   670379.091     1990.299   153224.348       42.812       41.280      129.529      564.476       18.991      331.420       -0.555      865.771
01/30/2021  22:42:00      203.043       -8.100     -119.906      815.206       53.501      383.184   664561.346     2862.399   146829.826       43.479       40.713      203.204      554.564        7.448      331.590       -0.275      865.769
01/30/2021  22:43:00       47.300      -22.670      -98.831      714.726       41.355      345.681   510833.098     1710.240   119495.298       32.214       31.602       52.451      494.198       88.774      331.226       -0.878      865.775
01/30/2021  22:44:00       31.573      -27.192      -81.482      641.073       41.487      305.346   410974.756     1721.155    93236.375       25.705       25.297       41.669      440.004      111.504      331.120       -1.056      865.780
01/30/2021  22:45:00      328.783       -3.119     -164.402      937.375       35.043      450.475   878671.625     1228.011   202927.561       60.875       54.141      328.798      648.335        3.888      331.908        0.257      865.762
01/30/2021  22:46:00      298.800       13.535     -148.676      904.831       28.497      432.487   818719.103      812.065   187045.337       55.886       50.329      299.106      624.929        4.365      331.797        0.073      865.744
01/30/2021  22:47:00      169.067       23.417     -129.262      812.084       37.525      390.594   659480.441     1408.126   152564.050       42.947       40.673      170.681      562.108       10.846      331.652       -0.172      865.725
01/30/2021  22:48:00      137.402        9.738      -95.576      751.660       31.373      352.000   564992.109      984.252   123903.718       35.885       34.494      137.747      512.836       13.861      331.398       -0.594      865.714
01/30/2021  22:49:00      158.848        4.463      -99.462      755.264       31.199      359.500   570423.028      973.364   129240.441       36.774       35.032      158.910      519.230       10.676      331.481       -0.456      865.710
01/30/2021  22:50:00      129.578        5.197     -101.286      754.719       30.593      358.961   569600.061      935.922   128852.697       36.309       34.969      129.682      519.409       16.042      331.495       -0.433      865.700
01/30/2021  22:51:00       71.064        6.749      -75.097      610.281       37.485      291.046   372442.858     1405.113    84707.641       23.455       22.928       71.384      419.879       34.598      331.192       -0.939      865.683
01/30/2021  22:52:00      139.141       13.256     -107.608      757.953       43.920      362.900   574492.185     1928.969   131696.616       36.947       35.406      139.771      523.137       14.009      331.479       -0.460      865.674
01/30/2021  22:53:00       92.720       24.869      -85.957      671.914       31.631      316.350   451468.926     1000.511   100077.282       28.446       27.627       95.997      458.218       22.784      331.279       -0.793      865.669
01/30/2021  22:54:00      115.164        7.031     -105.851      698.901      161.960      339.040   488462.690    26231.178   114948.198       32.695       31.482      115.378      465.884       16.305      331.452       -0.507      865.668
01/30/2021  22:55:00       84.367       24.290      -91.865      671.341       31.092      322.676   450698.117      966.740   104119.934       28.585       27.789       87.794      464.448       27.986      331.357       -0.665      865.674
01/30/2021  22:56:00      194.049       12.950     -133.036      811.356       31.909      384.380   658298.102     1018.160   147748.178       43.112       40.353      194.481      557.363        8.213      331.796        0.064      865.685
01/30/2021  22:57:00      230.809       27.269     -150.063      870.140       35.990      418.948   757144.099     1295.245   175517.402       50.505       46.698      232.414      602.783        6.727      331.880        0.208      865.697
01/30/2021  22:58:00       83.571       18.059      -86.850      641.850       32.209      305.437   411971.755     1037.416    93291.759       26.047       25.315       85.500      441.788       26.699      331.467       -0.487      865.710
01/30/2021  22:59:00      176.390        7.375      -93.857      728.621       31.749      350.244   530887.988     1008.004   122671.138       34.713       32.728      176.544      504.301        8.160      331.744       -0.025      865.707
01/30/2021  23:00:00      225.495       -1.348     -106.883      740.445       29.908      354.236   548258.511      894.488   125483.239       36.831       33.732      225.499      511.466        5.144      331.859        0.166      865.700
01/30/2021  23:01:00      210.124       24.713      -89.700      681.969       28.615      324.291   465081.913      818.828   105164.459       31.182       28.553      211.573      469.581        4.926      331.786        0.040      865.693
01/30/2021  23:02:00      192.568        3.124      -81.040      690.453       28.826      331.099   476725.726      830.959   109626.678       31.530       29.359      192.594      477.466        6.146      331.877        0.191      865.694
01/30/2021  23:03:00      306.613       -7.353     -139.503      870.661       35.028      416.404   758051.305     1226.938   173392.174       52.290       46.634      306.701      601.337        3.844      332.165        0.677      865.707
01/30/2021  23:04:00      328.765       16.752     -141.617      846.508       39.016      405.375   716576.199     1522.275   164328.791       50.524       44.121      329.191      584.844        3.156      332.056        0.495      865.702
01/30/2021  23:05:00      224.480       33.923      -97.658      746.269       32.310      358.191   556917.084     1043.949   128301.016       37.352       34.313      227.029      516.171        5.169      331.590       -0.277      865.704
01/30/2021  23:06:00      230.642        6.182     -108.026      781.422       37.517      372.710   610620.708     1407.504   138912.638       40.776       37.547      230.724      538.739        5.452      331.701       -0.091      865.711
01/30/2021  23:07:00      225.203        8.083      -86.855      714.548       34.418      339.620   510578.295     1184.600   115341.667       34.258       31.355      225.348      491.808        4.763      331.598       -0.267      865.713
01/30/2021  23:08:00      233.982        3.913     -117.972      785.422       31.649      379.806   616887.180     1001.635   144252.672       41.525       38.107      234.015      544.850        5.421      331.726       -0.051      865.714
01/30/2021  23:09:00       80.112        3.579      -57.914      590.993       45.785      282.422   349273.084     2096.230    79762.326       22.037       21.557       80.192      405.739       25.600      331.343       -0.691      865.709
01/30/2021  23:10:00      182.478       28.087     -111.613      809.504       45.437      392.762   655296.117     2064.509   154262.150       42.891       40.581      184.627      562.414        9.279      331.697       -0.099      865.698
01/30/2021  23:11:00      133.702       36.326      -92.660      725.755       48.138      348.594   526720.102     2317.282   121517.864       33.903       32.528      138.549      500.878       13.069      331.434       -0.535      865.698
01/30/2021  23:12:00      152.964       30.283     -107.331      762.684       45.669      364.956   581686.149     2085.628   133192.674       37.625       35.848      155.933      525.665       11.364      331.412       -0.571      865.705
01/30/2021  23:13:00       32.997        4.001      -75.504      650.848      121.708      309.092   423603.667    14812.858    95537.849       27.027       26.698       33.239      435.074      171.327      331.201       -0.922      865.716
01/30/2021  23:14:00      115.482       -1.202      -72.641      697.328       49.279      328.018   486266.460     2428.441   107595.560       30.733       29.815      115.489      475.405       16.945      331.250       -0.839      865.717
01/30/2021  23:15:00      135.432        8.647      -63.522      641.301       37.562      305.787   411266.869     1410.879    93505.860       26.421       25.309      135.708      439.236       10.476      331.249       -0.845      865.738
01/30/2021  23:16:00      146.462        8.950     -100.405      765.550       40.420      366.784   586066.826     1633.787   134530.429       37.677       36.112      146.735      527.947       12.945      331.488       -0.445      865.770
01/30/2021  23:17:00      179.493      -12.645     -120.721      855.546       36.900      412.220   731958.780     1361.592   169925.572       47.491       45.162      179.938      592.021       10.825      331.624       -0.215      865.782
01/30/2021  23:18:00      159.276      -10.381     -125.542      800.368       45.711      380.788   640588.142     2089.535   144999.640       41.429       39.384      159.614      550.289       11.886      331.634       -0.201      865.780
01/30/2021  23:19:00       75.618        5.121      -82.474      648.179       41.331      309.747   420135.659     1708.214    95943.049       26.506       25.889       75.792      446.465       34.700      331.229       -0.877      865.766
01/30/2021  23:20:00      188.026       -4.696      -91.814      727.786       39.203      345.810   529672.133     1536.844   119584.746       34.716       32.540      188.084      499.889        7.064      331.518       -0.397      865.760
01/30/2021  23:21:00      137.790        1.509      -74.102      690.782       46.405      333.451   477180.441     2153.416   111189.748       30.738       29.526      137.798      478.056       12.036      331.416       -0.566      865.769
01/30/2021  23:22:00      231.364       -7.975     -124.835      806.010       97.106      393.614   649651.389     9429.568   154931.905       44.142       40.701      231.502      556.308        5.775      331.734       -0.037      865.777
01/30/2021  23:23:00      241.982       -5.580     -125.347      846.035       45.945      399.881   715775.750     2110.942   159905.119       47.586       43.890      242.046      579.424        5.731      331.711       -0.073      865.784
01/30/2021  23:24:00      165.608        6.100      -97.771      764.086       53.922      361.918   583826.955     2907.559   130984.898       37.722       35.886      165.720      523.790        9.990      331.484       -0.452      865.784
01/30/2021  23:25:00      354.499        1.239     -168.061      946.693       40.559      451.654   896227.598     1645.033   203991.373       62.766       55.093      354.501      652.772        3.391      332.017        0.437      865.781
01/30/2021  23:26:00      295.116       23.190     -152.078      881.602       35.626      423.591   777222.616     1269.197   179429.660       53.414       47.896      296.026      609.871        4.244      331.915        0.264      865.796
01/30/2021  23:27:00      363.611       20.625     -196.135      965.844       38.350      462.142   932854.442     1470.741   213575.298       65.926       57.395      364.196      666.921        3.353      332.302        0.908      865.819
01/30/2021  23:28:00      119.511       28.349      -86.428      691.618       49.676      332.272   478336.073     2467.728   110404.660       30.676       29.560      122.827      477.658       15.123      331.446       -0.518      865.827
01/30/2021  23:29:00       77.439       52.003      -82.850      683.964       37.182      329.380   467806.809     1382.510   108491.321       29.650       28.884       93.279      473.138       25.728      331.170       -0.971      865.832
01/30/2021  23:30:00      107.007       11.588      -97.448      761.777       46.467      368.219   580304.545     2159.201   135585.007       36.941       35.902      107.633      527.956       24.061      331.318       -0.726      865.842
01/30/2021  23:31:00      234.236       12.834     -108.159      825.648       41.057      394.428   681694.566     1685.701   155573.621       45.266       41.948      234.587      568.971        5.883      331.532       -0.368      865.858
01/30/2021  23:32:00      163.036       12.397      -99.256      708.502       44.986      344.374   501974.529     2023.749   118593.310       32.946       31.130      163.507      491.187        9.024      331.429       -0.545      865.870
01/30/2021  23:33:00      140.686        9.447      -75.358      666.781       48.746      321.866   444596.470     2376.126   103597.717       28.795       27.529      141.003      461.207       10.699      331.298       -0.762      865.887
01/30/2021  23:34:00      173.556       32.644     -102.698      755.023       48.208      369.024   570059.886     2324.032   136178.557       37.500       35.428      176.599      525.794        8.865      331.516       -0.399      865.915
01/30/2021  23:35:00       55.918       37.023      -62.669      648.507       49.079      310.801   420560.738     2408.707    96597.119       26.388       25.978       67.064      445.249       44.078      331.084       -1.116      865.944
01/30/2021  23:36:00      140.623       35.482     -104.004      779.246       48.354      369.910   607224.195     2338.113   136833.614       38.897       37.320      145.031      534.576       13.586      331.242       -0.849      865.942
01/30/2021  23:37:00      131.802       64.367     -133.076      817.376      143.337      388.207   668103.550    20545.604   150704.446       43.911       41.968      146.679      549.791       14.049      331.345       -0.677      865.935
01/30/2021  23:38:00       80.299       57.295      -94.858      728.432       51.126      343.524   530612.968     2613.875   118008.657       33.485       32.562       98.644      497.637       25.450      331.076       -1.124      865.917
01/30/2021  23:39:00      111.248       24.792      -97.122      727.155       45.126      347.506   528754.602     2036.389   120760.483       33.685       32.578      113.977      499.853       19.233      331.110       -1.068      865.910
01/30/2021  23:40:00      136.274       56.763     -102.752      742.063       50.727      350.964   550657.961     2573.254   123175.761       35.423       33.820      147.624      508.950       11.886      331.182       -0.950      865.909
01/30/2021  23:41:00       97.800       55.796      -85.871      713.574       38.129      340.201   509187.420     1453.837   115736.965       32.308       31.319      112.597      490.691       18.992      330.938       -1.351      865.905
01/30/2021  23:42:00      264.528       47.665     -148.527      882.122       45.978      420.761   778138.483     2113.998   177039.578       52.560       47.865      268.788      607.639        5.111      331.557       -0.324      865.902
01/30/2021  23:43:00      384.082       24.040     -183.055      938.869       34.669      449.194   881475.813     1201.934   201775.614       63.280       54.223      384.833      648.669        2.841      332.035        0.466      865.878
01/30/2021  23:44:00      360.747       38.032     -152.126      888.544       43.402      424.487   789510.404     1883.743   180189.507       56.295       48.579      362.746      612.982        2.856      331.978        0.369      865.870
01/30/2021  23:45:00      233.386       -0.498     -102.632      697.620       35.935      335.769   486674.207     1291.296   112740.891       33.273       30.035      233.386      483.017        4.283      331.363       -0.652      865.867
01/30/2021  23:46:00      451.949       38.489     -209.178      972.855       31.093      463.517   946446.420      966.759   214847.969       70.563       58.113      453.585      670.787        2.187      332.112        0.596      865.884
01/30/2021  23:47:00      266.675       25.042     -130.560      837.083       38.390      402.728   700708.763     1473.789   162189.916       47.640       43.219      267.848      579.742        4.685      331.675       -0.132      865.901
01/30/2021  23:48:00      163.711       32.168     -107.776      725.079       35.821      347.566   525738.902     1283.166   120802.335       34.350       32.391      166.841      500.950        9.015      331.522       -0.390      865.903
01/30/2021  23:49:00      198.586       37.849     -110.351      776.669       42.063      375.748   603215.073     1769.298   141186.319       39.945       37.309      202.161      538.742        7.102      331.595       -0.268      865.902
01/30/2021  23:50:00       81.522       23.522      -77.612      634.476      106.053      305.965   402559.699    11247.204    93614.406       26.022       25.371       84.848      431.673       25.884      331.101       -1.087      865.892
01/30/2021  23:51:00      175.412       26.529      -95.689      767.057       46.812      367.007   588376.154     2191.362   134694.287       38.279       36.263      177.406      529.151        8.897      331.409       -0.576      865.869
01/30/2021  23:52:00      167.122        6.983      -90.709      731.056       91.676      348.024   534443.444     8404.556   121120.647       34.995       33.198      167.268      498.111        8.868      331.420       -0.558      865.848
01/30/2021  23:53:00      317.147       20.375     -155.189      924.603       39.854      441.676   854891.355     1588.339   195077.720       58.810       52.578      317.801      637.785        4.028      332.004        0.414      865.817
01/30/2021  23:54:00      289.945       17.985     -125.753      828.600       37.836      396.589   686578.349     1431.548   157282.678       47.257       42.265      290.503      572.155        3.879      331.822        0.108      865.786
01/30/2021  23:55:00      204.334       31.557      -76.948      654.428       38.728      314.889   428275.913     1499.829    99155.158       28.869       26.447      206.757      452.758        4.795      331.411       -0.576      865.757
01/30/2021  23:56:00      332.354       10.189     -130.237      824.840       36.152      396.103   680361.769     1306.961   156897.246       48.287       41.928      332.510      570.471        2.943      331.810        0.088      865.742
01/30/2021  23:57:00      338.308       50.425     -125.038      891.288       49.224      428.897   794393.855     2422.957   183952.261       55.649       49.038      342.045      617.023        3.254      331.825        0.118      865.753
01/30/2021  23:58:00      178.347       28.716      -69.506      697.516       41.083      326.755   486529.218     1687.804   106768.571       31.610       29.749      180.644      476.104        6.946      331.344       -0.682      865.771
01/30/2021  23:59:00      276.141       17.008     -119.678      827.741       40.429      399.000   685154.355     1634.506   159200.847       46.825       42.299      276.664      573.608        4.299      331.991        0.386      865.793
01/31/2021  00:00:00      169.103       26.609      -83.306      684.453       38.856      331.049   468475.780     1509.790   109593.681       30.779       28.979      171.184      474.627        7.687      331.583       -0.291      865.809
01/31/2021  00:01:00      194.174       15.743      -78.609      689.528       50.026      330.376   475449.272     2502.633   109148.265       31.549       29.355      194.811      475.482        5.957      331.607       -0.254      865.798
01/31/2021  00:02:00      229.848       12.759      -79.814      735.427       44.728      349.870   540853.561     2000.598   122409.156       36.217       33.263      230.202      505.652        4.825      331.763        0.007      865.761
01/31/2021  00:03:00      154.429       21.728      -58.124      644.050       43.558      313.122   414799.860     1897.293    98045.497       27.111       25.737      155.950      447.406        8.231      331.611       -0.248      865.726
01/31/2021  00:04:00      120.571       39.432      -80.186      697.221       41.792      334.720   486117.161     1746.558   112037.575       31.108       29.995      126.855      481.618       14.414      331.644       -0.191      865.700
01/31/2021  00:05:00       86.759       26.677      -72.429      645.817       44.108      312.721   417080.196     1945.536    97794.583       26.504       25.841       90.768      447.237       24.278      331.587       -0.288      865.708
01/31/2021  00:06:00       61.446       27.327      -43.343      585.213       51.492      277.363   342473.867     2651.405    76930.393       21.414       21.103       67.249      398.518       35.118      331.423       -0.559      865.732
01/31/2021  00:07:00      139.478       21.189      -86.972      684.880       46.259      325.482   469060.615     2139.922   105938.469       30.218       28.857      141.079      469.620       11.081      331.536       -0.370      865.743
01/31/2021  00:08:00       84.027       37.686      -78.701      709.981       46.547      340.220   504073.311     2166.619   115749.619       31.820       31.099       92.090      488.754       28.168      331.434       -0.537      865.721
01/31/2021  00:09:00      102.799       10.044      -56.829      601.584       47.795      285.865   361903.024     2284.350    81718.688       22.981       22.295      103.288      412.173       15.924      331.448       -0.518      865.698
01/31/2021  00:10:00       84.196       23.885      -43.853      550.341       43.816      263.131   302874.874     1919.884    69237.858       19.173       18.702       87.518      378.782       18.732      331.220       -0.895      865.694
01/31/2021  00:11:00      381.868       17.409     -172.610      966.647       46.083      464.042   934407.072     2123.684   215334.606       66.365       57.593      382.265      668.130        3.055      332.340        0.971      865.715
01/31/2021  00:12:00      199.030       -9.908      -94.950      725.941       38.426      350.337   526990.142     1476.581   122736.287       34.983       32.560      199.276      502.983        6.371      331.769        0.016      865.741
01/31/2021  00:13:00      160.848       42.242      -60.810      684.340       51.855      324.058   468321.025     2688.894   105013.421       30.357       28.801      166.302      468.259        7.928      331.560       -0.331      865.767
01/31/2021  00:14:00      116.720       11.990      -59.042      590.887       49.879      287.423   349146.903     2487.957    82611.863       22.566       21.712      117.334      408.758       12.136      331.343       -0.691      865.782
01/31/2021  00:15:00      247.576       18.471     -108.715      751.377       44.902      357.315   564567.723     2016.229   127673.876       38.371       34.713      248.264      516.375        4.326      331.777        0.031      865.801
01/31/2021  00:16:00       60.344       34.991      -58.228      639.995       52.398      305.268   409593.877     2745.518    93188.445       25.679       25.276       69.755      438.913       39.592      331.456       -0.503      865.814
01/31/2021  00:17:00      136.117       45.954      -85.087      728.219       56.138      347.587   530302.196     3151.521   120816.945       34.094       32.714      143.664      500.865       12.155      331.553       -0.340      865.810
01/31/2021  00:18:00      118.803       41.156      -65.429      659.551       50.096      319.245   435007.789     2509.586   101917.326       27.965       26.972      125.730      456.842       13.202      331.484       -0.457      865.780
01/31/2021  00:19:00      258.591      -14.381     -123.931      798.376       44.614      384.723   637403.454     1990.394   148011.487       43.475       39.370      258.990      552.742        4.555      331.869        0.183      865.747
01/31/2021  00:20:00      306.762      -17.839     -140.449      850.446       46.255      409.460   723259.051     2139.542   167657.273       50.342       44.653      307.280      588.382        3.666      332.113        0.590      865.737
01/31/2021  00:21:00      185.159       -1.896      -74.932      656.242       51.256      318.130   430653.290     2627.200   101206.685       28.708       26.724      185.169      454.757        6.031      331.723       -0.064      865.738
01/31/2021  00:22:00      232.848       14.119      -95.567      790.142       50.185      375.356   624324.017     2518.573   140891.759       41.548       38.387      233.276      542.983        5.418      331.977        0.362      865.742
01/31/2021  00:23:00      126.180       34.629      -73.360      654.710       41.012      311.353   428645.366     1681.989    96940.459       27.477       26.363      130.846      450.051       11.831      331.631       -0.215      865.740
01/31/2021  00:24:00      213.975       28.501      -81.732      737.593       54.860      356.624   544043.032     3009.666   127180.582       36.362       33.712      215.865      510.457        5.592      331.821        0.102      865.728
01/31/2021  00:25:00      232.169       18.076      -89.192      767.610       47.915      363.561   589224.787     2295.839   132176.697       39.279       36.185      232.871      526.619        5.114      331.852        0.156      865.733
01/31/2021  00:26:00      254.429       19.125     -109.660      803.562       43.326      380.418   645711.963     1877.116   144717.985       43.455       39.615      255.147      551.402        4.670      332.031        0.451      865.743
01/31/2021  00:27:00      192.831       15.036      -80.065      699.091       48.952      336.106   488728.757     2396.256   112967.034       32.383       30.205      193.417      482.942        6.235      331.845        0.138      865.754
01/31/2021  00:28:00      228.941       23.610     -113.080      806.456       41.763      388.580   650371.040     1744.145   150994.083       43.426       40.155      230.155      558.096        5.880      331.999        0.398      865.758
01/31/2021  00:29:00      132.778       18.767      -67.515      627.136       45.827      303.568   393300.097     2100.127    92153.242       25.494       24.378      134.097      434.151       10.482      331.547       -0.354      865.744
01/31/2021  00:30:00       88.796       23.088      -43.447      542.209       51.063      260.584   293990.164     2607.419    67903.841       18.733       18.225       91.748      372.700       16.501      331.444       -0.527      865.724
01/31/2021  00:31:00      190.633       43.320      -94.922      761.225       52.628      366.880   579464.259     2769.736   134600.680       38.188       35.842      195.493      526.816        7.262      331.796        0.063      865.681
01/31/2021  00:32:00      178.467       43.899      -74.257      666.714       50.665      323.472   444507.683     2566.902   104633.828       29.538       27.585      183.787      462.359        6.329      331.675       -0.142      865.633
01/31/2021  00:33:00      183.606       51.319      -73.589      662.637       49.781      318.016   439088.334     2478.110   101134.086       29.211       27.135      190.643      457.073        5.748      331.575       -0.306      865.608
01/31/2021  00:34:00      217.848       46.111     -104.857      784.584       49.383      375.782   615572.011     2438.681   141211.997       40.974       37.961      222.674      541.276        5.909      331.877        0.197      865.621
01/31/2021  00:35:00      133.734        9.598      -65.822      620.604       44.699      297.470   385149.082     1998.037    88488.173       24.887       23.782      134.078      428.153       10.197      331.571       -0.315      865.662
01/31/2021  00:36:00      198.934        7.645      -69.587      713.488       49.588      341.145   509065.671     2458.994   116379.876       33.606       31.395      199.080      490.580        6.072      331.848        0.145      865.714
01/31/2021  00:37:00      127.532      -15.375      -84.669      708.248      227.577      350.297   501614.602    51791.313   122708.301       34.975       33.806      128.455      461.658       12.916      331.800        0.066      865.742
01/31/2021  00:38:00       99.722       -1.083      -89.456      686.649       50.621      328.326   471486.793     2562.442   107798.233       29.977       29.092       99.728      471.699       22.372      331.762        0.002      865.748
01/31/2021  00:39:00       96.641       14.194      -71.443      702.960       53.959      336.671   494152.481     2911.606   113347.479       31.240       30.521       97.677      483.533       24.505      331.672       -0.145      865.742
01/31/2021  00:40:00      210.479       30.506     -108.347      853.574       45.740      402.397   728588.568     2092.159   161922.981       47.460       44.630      212.679      583.799        7.535      332.026        0.446      865.745
01/31/2021  00:41:00      129.486       -7.330      -70.335      673.315       41.047      320.790   453353.301     1684.863   102906.152       28.974       27.897      129.694      463.016       12.745      331.742       -0.031      865.761
01/31/2021  00:42:00      221.874       13.900      -91.742      760.364       41.875      363.136   578153.611     1753.548   131867.426       38.466       35.589      222.309      523.945        5.555      332.052        0.484      865.761
01/31/2021  00:43:00      250.448       39.648     -100.639      814.595       42.892      391.874   663564.378     1839.692   153565.501       44.653       40.948      253.567      563.798        4.944      332.098        0.562      865.762
01/31/2021  00:44:00      179.624       20.897      -86.870      710.390       48.134      340.170   504654.436     2316.913   115715.625       33.134       31.134      180.836      489.579        7.330      331.976        0.354      865.776
01/31/2021  00:45:00      142.076       -0.871      -57.294      587.175       49.429      280.938   344774.176     2443.211    78925.921       22.472       21.307      142.078      403.795        8.077      331.795        0.053      865.801
01/31/2021  00:46:00       21.129        1.072      -55.529      583.699       66.559      277.148   340704.830     4430.167    76811.123       21.265       21.097       21.156      397.296      352.663      331.583       -0.297      865.822
01/31/2021  00:47:00       43.063        1.220      -51.932      603.425       52.268      297.006   364121.729     2731.951    88212.422       22.971       22.753       43.081      419.678       94.900      331.566       -0.324      865.835
01/31/2021  00:48:00       34.227      -13.037      -55.913      584.772       57.805      279.570   341958.766     3341.458    78159.309       21.388       21.173       36.626      399.996      119.274      331.554       -0.344      865.849
01/31/2021  00:49:00       41.944      -53.528      -63.779      621.741       69.856      296.950   386561.294     4879.814    88179.147       24.406       23.981       68.004      425.585       39.165      331.484       -0.458      865.871
01/31/2021  00:50:00      -54.821      -34.410      -40.768      506.836       65.781      240.872   256883.025     4327.205    58019.316       16.247       15.961       64.725      340.816       27.726      331.153       -1.008      865.896
01/31/2021  00:51:00       25.304      -15.219      -78.059      663.808       58.320      319.752   440640.497     3401.258   102241.539       27.651       27.314       29.528      456.770      239.293      331.462       -0.493      865.946
01/31/2021  00:52:00      179.123        5.250     -104.092      787.448       61.075      372.418   620074.498     3730.173   138695.107       40.256       38.125      179.200      537.390        8.993      331.812        0.087      866.009
01/31/2021  00:53:00       72.931       11.795      -50.414      609.036       64.830      296.752   370924.869     4202.978    88061.803       23.550       23.159       73.879      420.839       32.448      331.474       -0.476      866.057
01/31/2021  00:54:00       15.427      -34.016      -88.747      696.446       55.843      333.528   485036.335     3118.467   111240.620       30.421       29.970       37.351      477.801      163.640      331.570       -0.315      866.094
01/31/2021  00:55:00       16.962      -38.731      -99.957      710.985       81.053      342.377   505499.507     6569.542   117221.870       32.040       31.465       42.283      487.083      132.704      331.624       -0.227      866.122
01/31/2021  00:56:00       52.939      -34.988      -80.014      683.502       53.766      326.692   467175.626     2890.744   106727.689       29.349       28.840       63.457      468.101       54.416      331.468       -0.481      866.115
01/31/2021  00:57:00      122.895        1.000      -85.537      682.074       60.635      327.507   465224.459     3676.648   107260.782       29.917       28.808      122.899      470.221       14.639      331.599       -0.266      866.072
01/31/2021  00:58:00      188.875       43.893      -76.514      691.037       51.128      333.167   477532.304     2614.032   111000.428       31.718       29.557      193.908      477.923        6.075      331.645       -0.189      866.004
01/31/2021  00:59:00      240.675       22.293     -122.859      796.261       49.874      381.474   634031.499     2487.403   145522.159       42.762       39.102      241.705      549.555        5.170      332.015        0.423      866.000
01/31/2021  01:00:00      303.739        8.010     -121.512      857.300       52.424      405.289   734962.905     2748.266   164259.427       50.434       45.099      303.844      587.550        3.739      332.132        0.621      866.034
01/31/2021  01:01:00      158.081       -1.154      -86.702      700.635       47.223      334.762   490889.005     2229.978   112065.655       31.872       30.259      158.085      481.626        9.282      331.760        0.000      866.060
01/31/2021  01:02:00      167.685       -1.580      -80.982      693.778       48.683      333.963   481327.979     2370.004   111531.393       31.483       29.761      167.693      478.785        8.152      331.852        0.150      866.077
01/31/2021  01:03:00      101.170      -22.687      -90.594      686.001       62.184      334.546   470597.980     3866.815   111920.982       30.255       29.319      103.683      475.970       21.074      331.762        0.002      866.112
01/31/2021  01:04:00       32.353      -14.867      -69.630      614.176       63.301      289.512   377211.924     4007.027    83817.010       23.548       23.252       35.605      414.027      135.217      331.412       -0.577      866.147
01/31/2021  01:05:00      126.765        0.767      -82.370      724.933       52.146      340.384   525527.420     2719.161   115861.308       33.334       32.205      126.767      493.946       15.183      331.720       -0.065      866.137
01/31/2021  01:06:00       50.407       -8.424      -88.391      712.143       49.420      341.891   507147.853     2442.301   116889.398       31.832       31.324       51.106      490.393       92.077      331.598       -0.266      866.110
01/31/2021  01:07:00       30.954      -31.274     -116.035      744.486       55.455      358.163   554259.870     3075.312   128280.380       35.036       34.281       44.002      512.172      135.481      331.599       -0.265      866.101
01/31/2021  01:08:00      129.484      -36.926     -112.920      742.179      159.041      377.907   550829.878    25294.106   142813.492       37.476       35.947      134.646      513.932       14.569      331.670       -0.145      866.101
01/31/2021  01:09:00      316.491       -4.982     -153.321      912.399       47.336      444.858   832472.834     2240.718   197898.287       57.794       51.631      316.531      635.712        4.034      332.065        0.515      866.051
01/31/2021  01:10:00      366.122       65.795     -140.103      868.867       46.959      415.212   754929.072     2205.165   172400.663       54.357       46.477      371.987      599.157        2.594      331.979        0.369      865.955
01/31/2021  01:11:00      294.176       66.765      -91.247      744.244       55.135      358.572   553899.805     3039.833   128574.002       39.228       34.276      301.658      514.306        2.907      331.646       -0.186      865.906
01/31/2021  01:12:00      422.503       37.550     -168.872      969.862       44.351      460.271   940633.034     1967.021   211849.761       68.120       57.722      424.168      666.983        2.473      332.258        0.835      865.953
01/31/2021  01:13:00      514.368       39.249     -222.360     1059.813       49.177      510.234  1123204.358     2418.333   260339.056       85.047       69.298      515.864      734.121        2.025      332.614        1.430      866.004
01/31/2021  01:14:00      264.841       32.587     -116.473      798.201       42.526      383.918   637125.248     1808.419   147393.029       43.538       39.316      266.839      552.336        4.285      331.733       -0.039      866.021
01/31/2021  01:15:00      205.131       37.123     -104.459      782.273       41.992      375.558   611950.649     1763.288   141043.584       40.440       37.738      208.463      540.656        6.726      331.737       -0.033      866.007
01/31/2021  01:16:00      172.954       21.977      -98.018      710.898       43.217      339.780   505376.352     1867.697   115450.697       33.122       31.135      174.345      490.031        7.900      331.760       -0.001      865.992
01/31/2021  01:17:00      361.088       36.371     -169.945      962.692       42.656      458.310   926775.563     1819.500   210047.752       64.937       56.932      362.915      663.139        3.339      332.302        0.908      866.000
01/31/2021  01:18:00      219.617       41.034      -91.820      691.830       37.728      330.345   478629.133     1423.379   109127.861       32.364       29.459      223.417      476.839        4.555      331.525       -0.388      865.992
01/31/2021  01:19:00      214.690       29.405      -85.438      644.660       32.173      310.137   415587.100     1035.126    96184.729       28.342       25.640      216.694      446.187        4.240      331.453       -0.509      865.968
01/31/2021  01:20:00      184.752       27.082      -95.356      680.154       48.363      330.562   462609.130     2339.007   109271.453       30.897       28.711      186.727      471.528        6.377      331.663       -0.161      865.983
01/31/2021  01:21:00      131.125       -7.765      -66.487      655.651       53.948      313.869   429878.153     2910.438    98513.799       27.638       26.565      131.355      449.724       11.722      331.488       -0.452      866.064
01/31/2021  01:22:00       91.920      -29.574      -84.623      704.277       68.690      334.276   496005.890     4718.317   111740.749       31.435       30.623       96.560      479.219       24.630      331.466       -0.486      866.157
01/31/2021  01:23:00        5.818      -30.011      -70.631      614.947       61.527      294.752   378159.300     3785.631    86879.036       23.727       23.441       30.569      421.050      189.711      331.381       -0.629      866.183
01/31/2021  01:24:00       72.863      -72.886      -73.260      595.511       57.927      288.622   354632.756     3355.517    83302.760       22.855       22.065      103.060      411.452       15.939      331.546       -0.357      866.144
01/31/2021  01:25:00      151.819       12.616      -67.845      696.023       46.445      330.660   484447.754     2157.124   109336.279       31.175       29.797      152.342      478.434        9.863      331.692       -0.112      866.068
01/31/2021  01:26:00      210.452       43.332      -88.807      718.617       46.969      340.970   516410.782     2206.120   116260.287       34.433       31.744      214.866      493.317        5.271      331.809        0.081      865.994
01/31/2021  01:27:00      172.477       37.800      -65.936      659.729       46.816      310.160   435242.120     2191.714    96199.470       28.447       26.682      176.570      450.727        6.516      331.639       -0.200      865.947
01/31/2021  01:28:00      257.849       53.931     -106.312      802.885       50.071      384.869   644624.254     2507.091   148123.902       43.781       39.763      263.429      554.389        4.429      331.858        0.168      865.944
01/31/2021  01:29:00      228.659       67.015      -89.303      741.987       48.957      356.222   550544.915     2396.810   126894.000       37.215       33.992      238.277      512.271        4.622      331.736       -0.035      865.932
01/31/2021  01:30:00      137.955       64.546      -65.036      632.369       46.834      299.162   399890.640     2193.416    89497.948       25.940       24.579      152.309      432.648        8.069      331.497       -0.436      865.916
01/31/2021  01:31:00      129.695        6.086      -72.556      645.350       94.333      311.294   416476.639     8898.696    96903.894       27.209       26.114      129.838      438.375       11.400      331.641       -0.200      865.972
01/31/2021  01:32:00      226.583        7.135     -106.245      829.400       57.620      388.976   687904.897     3320.060   151302.331       45.242       42.126      226.696      564.742        6.206      332.015        0.425      866.051
01/31/2021  01:33:00      118.849       41.548      -71.710      652.466       54.216      307.102   425712.506     2939.325    94311.542       27.187       26.148      125.902      445.355       12.513      331.678       -0.137      866.052
01/31/2021  01:34:00      136.311       22.615      -84.340      710.591       54.519      342.209   504939.519     2972.371   117107.177       32.548       31.251      138.174      491.211       12.638      331.786        0.044      866.001
01/31/2021  01:35:00      204.363       12.041      -88.091      735.816       51.555      352.815   541425.828     2657.903   124478.160       35.897       33.428      204.718      507.788        6.153      332.027        0.441      865.975
01/31/2021  01:36:00      188.898       14.446      -77.888      718.746       50.414      340.519   516595.292     2541.590   115953.028       33.839       31.754      189.449      493.251        6.779      331.781        0.035      865.960
01/31/2021  01:37:00      325.997       43.951     -127.564      879.837       47.351      422.869   774112.592     2242.105   178817.771       53.963       47.759      328.947      608.612        3.423      332.118        0.601      865.896
01/31/2021  01:38:00      231.752       52.681     -106.003      779.972       45.480      373.729   608356.465     2068.471   139673.013       40.875       37.505      237.665      538.589        5.136      331.805        0.081      865.918
01/31/2021  01:39:00      164.140       18.610      -60.926      615.178       61.406      300.831   378443.697     3770.711    90499.162       25.176       23.636      165.191      427.336        6.692      331.626       -0.225      866.079
01/31/2021  01:40:00      189.507       11.070      -76.108      736.098       50.198      344.050   541840.892     2519.847   118370.258       35.214       33.137      189.830      499.563        6.926      331.826        0.109      866.238
01/31/2021  01:41:00      104.694       17.008      -77.515      696.693       58.428      329.918   485380.696     3413.824   108845.650       30.732       29.882      106.067      476.148       20.152      331.642       -0.195      866.276
01/31/2021  01:42:00       60.427       58.686      -40.559      555.641       48.404      263.400   308737.265     2342.911    69379.298       19.452       19.023       84.235      379.100       20.255      331.376       -0.638      866.202
01/31/2021  01:43:00      134.545       65.417      -61.367      622.850       42.922      296.165   387941.530     1842.305    87713.461       25.172       23.875      149.605      427.668        8.172      331.520       -0.400      866.069
01/31/2021  01:44:00      210.798       78.567     -100.615      731.799       48.540      349.861   535529.195     2356.179   122402.678       36.037       33.014      224.964      504.378        5.027      331.811        0.085      865.991
01/31/2021  01:45:00      174.064        7.549      -77.086      683.781       55.068      329.677   467556.256     3032.521   108686.767       30.767       28.964      174.227      472.920        7.368      331.752       -0.014      866.041
01/31/2021  01:46:00      198.914       -1.056      -82.035      677.413       49.628      330.243   458888.248     2462.908   109060.431       30.824       28.521      198.917      471.026        5.607      331.761        0.002      866.142
01/31/2021  01:47:00      259.936        6.979      -95.403      763.271       50.373      368.404   582582.724     2537.414   135721.279       39.863       36.042      260.030      527.887        4.121      331.981        0.366      866.202
01/31/2021  01:48:00       47.519       19.636      -49.490      590.607       60.349      280.050   348816.093     3641.987    78427.749       21.790       21.544       51.416      399.611       60.406      331.454       -0.511      866.221
01/31/2021  01:49:00      104.854        3.335      -97.102      806.637       53.652      380.066   650664.027     2878.528   144450.309       40.905       39.900      104.908      549.975       27.484      331.594       -0.269      866.201
01/31/2021  01:50:00       56.725      -11.887      -45.545      522.114       53.702      240.905   272602.673     2883.860    58035.405       16.941       16.676       57.957      349.945       36.457      331.159       -0.995      866.156
01/31/2021  01:51:00      190.357      -10.464      -81.681      689.863       51.778      328.488   475910.834     2680.931   107904.135       31.463       29.325      190.645      473.965        6.181      331.630       -0.216      866.111
01/31/2021  01:52:00      154.680        8.557      -52.955      533.364       61.098      257.463   284477.287     3732.950    66287.430       19.058       17.725      154.917      367.272        5.621      331.422       -0.564      866.066
01/31/2021  01:53:00      215.966        8.180      -89.647      749.632       46.573      362.957   561947.812     2169.017   131737.525       37.515       34.793      216.121      520.079        5.791      331.864        0.173      866.080
01/31/2021  01:54:00       71.282       21.915      -38.355      488.177      175.428      246.871   238317.066    30774.910    60945.217       16.846       16.502       74.575      316.003       17.956      331.495       -0.444      866.134
01/31/2021  01:55:00       98.566       25.137      -49.928      561.471       45.469      271.308   315249.665     2067.435    73607.857       20.180       19.546      101.720      388.174       14.563      331.503       -0.430      866.200
01/31/2021  01:56:00      117.112       15.999      -60.341      621.544       45.656      299.692   386317.284     2084.473    89815.579       24.782       23.911      118.200      428.127       13.119      331.605       -0.259      866.217
01/31/2021  01:57:00      181.535       14.135      -81.991      715.800       49.807      339.671   512369.366     2480.692   115376.420       33.492       31.511      182.085      490.526        7.257      331.866        0.176      866.209
01/31/2021  01:58:00      124.168       47.517      -50.180      582.503       45.491      281.099   339309.863     2069.465    79016.699       22.021       21.020      132.950      402.715        9.175      331.463       -0.495      866.124
01/31/2021  01:59:00      160.989       75.197      -43.855      526.886       48.905      252.098   277608.651     2391.734    63553.188       18.845       17.178      177.685      361.915        4.149      331.396       -0.606      865.974
01/31/2021  02:00:00      192.577       52.825      -78.482      694.425       44.862      335.640   482226.331     2012.567   112654.511       32.134       29.845      199.691      480.880        5.799      331.631       -0.213      865.912
01/31/2021  02:01:00      104.053       30.229      -41.056      486.398       60.631      233.171   236582.593     3676.077    54368.870       15.396       14.731      108.355      333.711        9.485      331.398       -0.605      865.990
01/31/2021  02:02:00       87.372       -5.478      -41.773      594.151       60.099      283.967   353015.211     3611.882    80637.268       22.325       21.863       87.544      403.633       21.258      331.486       -0.457      866.085
01/31/2021  02:03:00       97.556       18.616      -67.744      661.396       58.267      307.222   437445.019     3395.014    94385.362       27.473       26.761       99.316      446.368       20.200      331.530       -0.380      866.115
01/31/2021  02:04:00      168.426       21.838      -46.376      582.327       41.939      279.079   339104.282     1758.896    77884.959       22.479       20.937      169.836      401.255        5.582      331.494       -0.443      866.042
01/31/2021  02:05:00      164.925       44.202      -49.116      491.456       70.549      233.326   241529.417     4977.177    54440.992       16.619       15.047      170.746      334.870        3.846      331.378       -0.637      865.895
01/31/2021  02:06:00      212.209       70.505      -51.713      539.807       68.299      260.712   291391.116     4664.820    67970.818       20.828       18.201      223.615      370.561        2.746      331.496       -0.443      865.784
01/31/2021  02:07:00      159.458        7.701      -57.695      564.859       66.919      269.393   319065.761     4478.195    72572.695       21.238       19.806      159.644      386.610        5.865      331.548       -0.357      865.813
01/31/2021  02:08:00      126.808       64.663      -80.100      716.390       57.662      339.401   513213.972     3324.865   115192.998       32.907       31.587      142.343      489.485       11.825      331.865        0.175      865.902
01/31/2021  02:09:00      162.109       25.420     -106.570      765.947       53.312      367.538   586674.599     2842.207   135083.992       38.129       36.230      164.090      527.433       10.332      331.934        0.288      866.003
01/31/2021  02:10:00      101.410       -2.570      -44.336      559.911      167.364      280.017   313500.285    28010.686    78409.273       21.600       20.996      101.443      368.137       13.170      331.631       -0.218      866.068
01/31/2021  02:11:00       66.206       30.465      -31.505      499.568       49.653      235.585   249568.286     2465.390    55500.443       15.685       15.377       72.879      339.377       21.685      331.530       -0.386      866.055
01/31/2021  02:12:00      127.163       44.315      -58.321      666.548       45.931      312.761   444286.538     2109.618    97819.660       28.276       27.211      134.664      454.656       11.399      331.748       -0.022      865.998
01/31/2021  02:13:00      210.871       25.097      -86.948      747.378       42.298      354.847   558573.452     1789.151   125916.640       36.932       34.314      212.359      513.661        5.851      332.010        0.413      865.991
01/31/2021  02:14:00      116.841      -11.359      -56.576      551.556       45.391      258.897   304214.136     2060.358    67027.616       19.506       18.665      117.392      376.147       10.267      331.893        0.212      866.048
01/31/2021  02:15:00      176.459       -1.203      -68.102      704.323       53.753      334.487   496071.185     2889.429   111881.830       32.318       30.542      176.463      482.593        7.479      332.080        0.527      866.110
01/31/2021  02:16:00       29.456       19.898      -10.078      388.583       68.053      184.154   150996.720     4631.200    33912.820        9.541        9.477       35.547      262.534       54.547      331.516       -0.414      866.123
01/31/2021  02:17:00        6.360       65.550      -26.045      427.885       57.127      201.097   183085.376     3263.511    40440.022       11.586       11.339       65.858      288.574       19.200      331.339       -0.705      866.089
01/31/2021  02:18:00      -10.224       45.424      -44.932      485.901       43.161      230.367   236099.663     1862.875    53069.179       14.755       14.552       46.560      331.540       50.705      331.395       -0.609      866.076
01/31/2021  02:19:00       -5.594      -14.679      -47.993      506.756       76.255      243.451   256802.084     5814.875    59268.397       16.215       16.094       15.709      341.771      473.356      331.528       -0.392      866.088
01/31/2021  02:20:00      -22.180       -6.904      -42.239      567.486       74.481      268.240   322040.464     5547.444    71952.856       20.085       19.977       23.230      384.144      273.462      331.437       -0.538      866.116
01/31/2021  02:21:00       40.022      -14.295      -34.871      595.534       62.218      278.873   354660.997     3871.121    77770.276       21.957       21.815       42.498      400.766       88.928      331.545       -0.361      866.148
01/31/2021  02:22:00        4.650      -70.399      -15.099      377.577       71.356      184.159   142564.613     5091.697    33914.383        9.335        9.079       70.553      258.578       13.432      331.378       -0.641      866.164
01/31/2021  02:23:00      124.114        5.169      -45.979      630.424       49.659      303.060   397434.959     2466.036    91845.595       25.454       24.587      124.221      434.676       12.244      331.657       -0.173      866.149
01/31/2021  02:24:00      102.789       -9.846      -46.823      566.276       59.511      271.151   320668.247     3541.583    73522.598       20.521       19.887      103.259      387.896       14.111      331.608       -0.257      866.126
01/31/2021  02:25:00       16.893        0.041      -31.402      498.423       58.687      237.998   248425.596     3444.210    56642.896       15.483       15.426       16.893      339.269      403.321      331.366       -0.656      866.112
01/31/2021  02:26:00       35.450       10.630      -36.309      427.443       59.181      212.322   182707.752     3502.408    45080.625       11.694       11.565       37.009      296.327       64.109      331.331       -0.717      866.100
01/31/2021  02:27:00       32.248       11.898      -63.045      551.845       54.210      267.627   304532.421     2938.726    71624.093       19.205       18.955       34.373      380.827      122.750      331.438       -0.537      866.110
01/31/2021  02:28:00       91.656       -0.085      -85.240      707.014       44.759      339.819   499868.771     2003.399   115476.934       31.638       30.867       91.656      487.645       28.306      331.734       -0.044      866.145
01/31/2021  02:29:00      -44.031        7.097      -35.286      497.390       57.349      238.491   247396.526     3288.960    56877.967       15.533       15.378       44.599      340.264       58.208      331.293       -0.776      866.172
01/31/2021  02:30:00       52.538       50.284      -36.942      481.330       57.172      231.234   231678.965     3268.656    53469.026       14.747       14.421       72.724      329.472       20.525      331.196       -0.938      866.167
01/31/2021  02:31:00      115.026       68.737      -36.701      519.394       51.853      248.782   269769.705     2688.721    61892.667       17.676       16.718      133.999      357.176        7.105      331.291       -0.780      866.121
01/31/2021  02:32:00      168.157       78.082      -50.086      594.587       51.867      290.089   353534.240     2690.226    84151.615       23.854       22.019      185.401      413.013        4.963      331.504       -0.427      866.090
01/31/2021  02:33:00      141.241       54.036      -49.735      562.486       51.506      272.711   316390.485     2652.824    74371.029       20.930       19.671      151.224      389.397        6.630      331.425       -0.558      866.133
01/31/2021  02:34:00       80.148       14.991      -30.091      494.220      131.124      241.278   244253.336    17193.612    58215.014       16.354       15.983       81.538      327.009       16.084      331.368       -0.655      866.235
01/31/2021  02:35:00      129.291      -12.074     -105.460      765.122       57.586      365.645   585411.700     3316.182   133696.598       37.505       36.121      129.853      523.997       16.284      331.879        0.198      866.274
01/31/2021  02:36:00      167.440       54.632      -66.959      685.447       52.121      326.491   469837.885     2716.585   106596.462       30.721       28.958      176.128      470.987        7.151      331.728       -0.054      866.199
01/31/2021  02:37:00      111.078      104.263       -9.037      282.742       59.222      138.759    79943.123     3507.275    19254.002        6.298        5.135      152.345      192.140        1.591      331.146       -1.026      866.050
01/31/2021  02:38:00      235.208       83.968      -49.940      570.640       60.619      274.786   325630.546     3674.608    75507.406       23.476       20.241      249.747      393.056        2.477      331.517       -0.405      865.949
01/31/2021  02:39:00      241.241       42.354      -78.230      711.502       49.962      339.390   506235.105     2496.162   115185.742       34.488       31.196      244.931      489.412        3.993      331.775        0.024      865.949
01/31/2021  02:40:00      224.174       17.769      -93.776      694.883       45.244      335.092   482862.391     2046.980   112286.623       32.816       29.860      224.877      481.011        4.575      331.758       -0.005      866.020
01/31/2021  02:41:00      104.929      -45.293      -59.149      555.184       47.867      264.783   308229.172     2291.252    70110.112       19.852       19.032      114.287      380.815       11.103      331.712       -0.084      866.102
01/31/2021  02:42:00      216.227      -25.934     -125.931      784.823       62.395      372.877   615946.949     3893.138   139037.625       41.092       37.944      217.777      539.133        6.129      332.164        0.668      866.136
01/31/2021  02:43:00      172.512       56.488      -68.354      672.116       45.702      324.129   451740.528     2088.686   105059.769       29.814       27.944      181.525      465.350        6.572      331.817        0.090      866.089
01/31/2021  02:44:00      175.384      -18.422      -62.347      613.945       59.791      292.527   376928.190     3574.972    85571.979       25.043       23.304      176.349      421.480        5.712      331.800        0.062      866.017
01/31/2021  02:45:00      165.649      -42.916      -93.603      622.563       60.303      297.474   387584.470     3636.488    88491.000       25.878       23.986      171.118      428.121        6.260      331.912        0.246      865.985
01/31/2021  02:46:00      203.956        9.946      -88.056      738.646       51.445      357.199   545598.012     2646.628   127590.998       36.250       33.792      204.198      511.645        6.278      332.067        0.507      866.011
01/31/2021  02:47:00      140.492       24.201      -54.867      594.592       55.100      282.813   353539.376     3035.972    79983.332       22.986       21.828      142.561      407.760        8.181      331.813        0.083      865.997
01/31/2021  02:48:00      297.734       95.855      -96.217      710.507       55.118      338.380   504820.305     3037.984   114500.831       36.460       31.118      312.783      487.915        2.433      332.031        0.446      865.922
01/31/2021  02:49:00      251.771       37.447      -86.804      673.781       80.644      323.809   453981.231     6503.499   104852.555       31.871       28.267      254.541      464.134        3.325      331.942        0.300      865.834
01/31/2021  02:50:00      225.367       51.292      -62.010      635.039       66.923      301.952   403274.882     4478.642    91174.986       27.799       24.946      231.130      434.918        3.541      331.660       -0.170      865.804
01/31/2021  02:51:00      141.076      -24.814      -49.940      604.637       58.085      285.421   365586.217     3373.916    81465.385       23.662       22.521      143.242      412.859        8.307      331.572       -0.315      865.870
01/31/2021  02:52:00      130.205       12.473      -29.314      538.016       50.721      257.681   289461.159     2572.662    66399.317       18.813       17.922      130.802      369.423        7.977      331.698       -0.110      865.952
01/31/2021  02:53:00      136.449       25.646      -53.166      581.603       47.509      277.468   338262.268     2257.090    76988.354       21.972       20.875      138.838      399.768        8.291      331.727       -0.060      865.969
01/31/2021  02:54:00      170.521       65.725      -45.369      594.060       51.610      284.597   352907.418     2663.601    80995.626       23.592       21.828      182.748      408.432        4.995      331.722       -0.069      865.921
01/31/2021  02:55:00      177.059       27.583      -43.935      546.945       56.607      261.515   299148.859     3204.386    68390.089       20.231       18.537      179.194      374.800        4.375      331.683       -0.134      865.848
01/31/2021  02:56:00      233.825       24.744      -76.371      698.060       62.009      336.133   487287.246     3845.143   112985.071       33.249       30.206      235.131      482.117        4.204      331.785        0.041      865.814
01/31/2021  02:57:00      163.896        2.446      -41.784      524.839       57.310      258.088   275456.026     3284.478    66609.339       18.691       17.267      163.915      365.068        4.960      331.397       -0.606      865.810
01/31/2021  02:58:00      213.593       12.305      -68.148      618.921      141.185      299.561   383062.923    19933.209    89737.053       27.147       24.637      213.947      414.506        3.754      331.637       -0.205      865.811
01/31/2021  02:59:00      181.877       -8.500      -58.550      597.293       68.845      279.333   356758.478     4739.650    78027.184       23.796       21.976      182.075      405.723        4.965      331.754       -0.015      865.814
01/31/2021  03:00:00      217.230       19.304      -80.628      671.401       54.517      320.541   450779.823     2972.054   102746.261       30.517       27.825      218.086      461.802        4.484      331.762        0.001      865.845
01/31/2021  03:01:00      144.095       30.556      -56.696      606.435       53.373      290.124   367763.263     2848.659    84171.892       23.975       22.739      147.300      417.301        8.026      331.610       -0.251      865.884
01/31/2021  03:02:00      231.334       55.820      -91.352      727.692       49.017      342.899   529535.260     2402.706   117580.000       35.711       32.476      237.973      497.452        4.370      331.980        0.362      865.879
01/31/2021  03:03:00      191.289       27.444      -65.623      572.860       52.231      279.324   328169.001     2728.121    78021.872       22.520       20.446      193.248      398.072        4.243      331.643       -0.198      865.836
01/31/2021  03:04:00      326.524       14.420     -111.095      845.760       62.188      403.007   715309.778     3867.398   162414.725       50.020       44.080      326.843      581.695        3.167      332.092        0.555      865.789
01/31/2021  03:05:00      213.349       27.084      -59.395      601.393       61.569      286.672   361673.756     3790.740    82180.779       24.862       22.382      215.061      411.215        3.656      331.600       -0.270      865.761
01/31/2021  03:06:00      251.231        5.293     -101.583      753.374       50.420      358.407   567572.018     2542.226   128455.323       38.587       34.928      251.286      517.849        4.247      331.923        0.269      865.777
01/31/2021  03:07:00      149.258       28.887      -45.785      576.943       54.954      276.535   332863.037     3019.945    76471.571       21.870       20.618      152.028      396.049        6.787      331.620       -0.236      865.805
01/31/2021  03:08:00      216.518        0.322      -82.738      662.241       50.484      312.778   438563.103     2548.651    97830.263       29.622       26.947      216.518      453.048        4.378      331.983        0.365      865.819
01/31/2021  03:09:00      210.272       31.394      -55.270      593.521       55.825      283.743   352266.822     3116.378    80510.369       24.198       21.795      212.603      407.572        3.675      331.726       -0.062      865.812
01/31/2021  03:10:00      278.343       35.274      -68.617      688.373       49.904      331.709   473857.644     2490.447   110030.878       33.478       29.319      280.570      476.059        2.879      331.708       -0.086      865.809
01/31/2021  03:11:00      110.517       26.568      -19.546      385.310       52.523      189.925   148463.823     2758.620    36071.645       10.026        9.365      113.666      266.883        5.513      331.349       -0.689      865.806
01/31/2021  03:12:00      162.013       59.509      -31.791      507.121       61.695      245.384   257172.186     3806.284    60213.108       17.593       16.060      172.596      349.434        4.099      331.513       -0.415      865.823
01/31/2021  03:13:00      126.396       26.905      -25.346      469.373       51.324      219.125   220310.550     2634.185    48015.608       14.409       13.548      129.228      317.900        6.052      331.367       -0.656      865.842
01/31/2021  03:14:00      278.992       46.386      -90.819      752.890       52.709      350.176   566843.157     2778.209   122623.067       39.010       34.612      282.822      511.608        3.272      331.880        0.199      865.852
01/31/2021  03:15:00      109.102       15.302      -33.361      485.329       53.242      235.773   235544.058     2834.695    55588.872       15.355       14.698      110.170      334.930        9.242      331.601       -0.270      865.865
01/31/2021  03:16:00      161.958       50.026      -45.308      583.029       53.087      279.721   339922.888     2818.224    78244.112       22.580       21.049      169.508      401.148        5.601      331.607       -0.259      865.871
01/31/2021  03:17:00      211.468       79.729      -51.978      616.587       52.252      296.399   380179.214     2730.261    87852.412       26.217       23.538      225.999      424.786        3.533      331.633       -0.212      865.863
01/31/2021  03:18:00      199.336       60.637      -42.087      502.736       55.504      239.914   252742.997     3080.706    57558.874       17.922       15.669      208.354      344.396        2.732      331.483       -0.464      865.862
01/31/2021  03:19:00      138.283       20.001      -41.091      564.037       55.192      271.700   318137.409     3046.169    73821.053       20.803       19.750      139.722      389.177        7.758      331.607       -0.258      865.855
01/31/2021  03:20:00      168.247       30.197      -45.968      568.793       56.310      271.065   323525.493     3170.870    73476.425       21.567       20.009      170.935      390.226        5.212      331.593       -0.281      865.818
01/31/2021  03:21:00      161.492       26.060      -41.485      548.474       57.365      262.283   300824.121     3290.712    68792.197       20.062       18.645      163.581      376.695        5.303      331.539       -0.371      865.793
01/31/2021  03:22:00      181.402       17.063      -50.272      614.289       52.839      295.984   377351.070     2791.941    87606.251       25.164       23.387      182.203      424.124        5.418      331.595       -0.278      865.800
01/31/2021  03:23:00      265.314       12.421      -94.737      731.148       43.589      351.707   534577.644     1899.973   123697.564       36.971       33.009      265.605      505.554        3.623      331.864        0.174      865.821
01/31/2021  03:24:00      114.507       29.176      -20.820      428.039       48.343      205.836   183217.088     2337.009    42368.376       12.111       11.396      118.165      293.695        6.178      331.449       -0.522      865.825
01/31/2021  03:25:00      171.750       48.011      -48.088      568.213       61.994      272.267   322865.919     3843.237    74129.410       21.739       20.042      178.335      390.608        4.797      331.625       -0.230      865.798
01/31/2021  03:26:00      182.447       78.022      -35.676      461.160       61.402      220.699   212668.846     3770.263    48708.264       15.284       13.257      198.430      315.052        2.521      331.358       -0.672      865.746
01/31/2021  03:27:00      206.928       82.083      -25.442      387.498       54.761      184.812   150154.488     2998.741    34155.522       11.872        9.365      222.613      263.438        1.400      331.167       -0.989      865.714
01/31/2021  03:28:00      237.080       93.445      -40.711      560.742       61.527      267.666   314431.598     3785.591    71645.314       22.815       19.493      254.831      383.882        2.269      331.357       -0.669      865.707
01/31/2021  03:29:00      175.595       79.068      -41.917      634.404       67.739      309.677   402468.462     4588.540    95899.574       27.079       25.148      192.576      439.639        5.212      331.520       -0.398      865.749
01/31/2021  03:30:00      105.576       34.167      -62.592      626.748       57.674      303.791   392813.605     3326.258    92288.923       25.223       24.421      110.967      433.523       15.263      331.672       -0.147      865.815
01/31/2021  03:31:00       81.542       18.242      -27.826      501.508       60.891      238.634   251509.850     3707.734    56946.380       15.989       15.608       83.557      341.224       16.677      331.488       -0.457      865.859
01/31/2021  03:32:00      -35.916       40.851      -58.823      544.357      107.502      260.135   296324.503    11556.583    67670.064       19.091       18.778       54.394      364.906       45.005      331.502       -0.432      865.852
01/31/2021  03:33:00       -8.530       70.182      -49.761      544.078       51.572      261.892   296021.028     2659.700    68587.532       18.729       18.363       70.698      372.912       27.822      331.413       -0.578      865.834
01/31/2021  03:34:00      218.713       64.249     -102.790      742.997       53.258      364.166   552044.508     2836.370   132616.779       37.487       34.375      227.954      517.461        5.153      331.935        0.291      865.838
01/31/2021  03:35:00      108.308       60.588      -35.687      482.275       48.055      233.743   232588.886     2309.287    54635.809       15.304       14.477      124.103      333.227        7.210      331.444       -0.530      865.850
01/31/2021  03:36:00      206.279       34.038      -80.930      707.295       57.239      338.878   500266.642     3276.299   114838.487       33.419       30.919      209.069      487.252        5.432      331.846        0.141      865.834
01/31/2021  03:37:00      245.414       31.296     -128.854      817.178      265.781      408.555   667779.716    70639.279   166916.826       49.138       45.267      247.402      535.412        4.683      332.199        0.730      865.790
01/31/2021  03:38:00      227.675       55.115     -104.392      764.301       46.056      365.021   584155.355     2121.196   133240.227       39.249       35.976      234.251      526.859        5.059      331.975        0.357      865.772
01/31/2021  03:39:00      135.635       72.680      -43.634      559.550       49.759      265.742   313096.085     2475.968    70619.044       20.580       19.310      153.881      383.330        6.206      331.585       -0.293      865.751
01/31/2021  03:40:00      276.116       75.775      -75.459      742.557       59.535      351.605   551391.576     3544.402   123626.178       38.298       33.928      286.324      508.618        3.155      331.836        0.125      865.725
01/31/2021  03:41:00      177.622       32.305      -53.324      585.052       45.295      276.844   342285.626     2051.594    76642.491       22.812       21.049      180.536      400.610        4.924      331.607       -0.259      865.699
01/31/2021  03:42:00      242.634       35.970      -72.719      637.409       54.821      301.628   406290.639     3005.335    90979.202       28.276       25.014      245.286      435.902        3.158      331.676       -0.142      865.707
01/31/2021  03:43:00      216.011       20.208      -93.198      694.723       45.090      336.290   482640.030     2033.073   113090.945       32.663       29.888      216.954      481.717        4.930      331.780        0.032      865.738
01/31/2021  03:44:00       89.345       30.047      -67.053      609.620      144.688      297.586   371636.734    20934.535    88557.312       24.715       24.056       94.262      408.725       18.801      331.793        0.050      865.763
01/31/2021  03:45:00      122.887        4.854      -64.739      637.383      138.929      308.504   406257.442    19301.174    95174.629       26.991       26.037      122.983      426.303       12.016      331.789        0.045      865.757
01/31/2021  03:46:00       54.272       16.056      -41.814      555.338       45.824      263.392   308399.836     2099.856    69375.287       19.233       18.994       56.597      378.434       44.709      331.578       -0.306      865.729
01/31/2021  03:47:00       60.299        7.924      -60.453      617.944       50.978      295.557   381854.671     2598.756    87353.656       23.948       23.590       60.817      424.620       48.747      331.660       -0.167      865.712
01/31/2021  03:48:00      110.201        3.026      -72.730      685.110       46.272      324.882   469375.854     2141.139   105548.369       29.713       28.853      110.242      469.629       18.147      331.780        0.031      865.707
01/31/2021  03:49:00      -40.266       13.589       -7.125      298.266       46.998      143.404    88962.503     2208.806    20564.813        5.677        5.587       42.497      201.846       22.559      331.356       -0.679      865.704
01/31/2021  03:50:00       90.449       20.245      -21.878      509.715       44.483      241.772   259808.949     1978.720    58453.459       16.459       16.012       92.687      347.326       14.042      331.576       -0.312      865.694
01/31/2021  03:51:00       81.140       34.488      -35.795      489.140       45.754      233.512   239257.645     2093.455    54527.745       15.241       14.794       88.165      335.496       14.481      331.480       -0.470      865.675
01/31/2021  03:52:00      125.117       23.514      -37.856      584.330       49.975      283.683   341441.793     2497.481    80476.223       22.094       21.221      127.308      405.082       10.125      331.647       -0.191      865.651
01/31/2021  03:53:00      184.840       18.717      -81.427      710.209       43.350      337.705   504397.176     1879.186   114044.638       33.060       31.016      185.786      488.391        6.911      332.031        0.447      865.648
01/31/2021  03:54:00      168.884       56.945      -47.091      641.345       53.817      308.628   411323.590     2896.272    95251.523       27.162       25.474      178.226      442.661        6.169      331.745       -0.027      865.636
01/31/2021  03:55:00      193.239       40.505      -71.943      631.988       44.813      303.264   399408.490     2008.247    91969.310       26.867       24.669      197.439      436.249        4.882      331.663       -0.163      865.612
01/31/2021  03:56:00      264.884       42.688      -99.137      758.123       43.642      364.670   574750.267     1904.593   132984.359       39.558       35.482      268.301      524.525        3.822      331.975        0.356      865.579
01/31/2021  03:57:00      136.611       37.496      -49.081      560.556       44.360      264.838   314223.198     1967.773    70139.213       20.432       19.317      141.663      383.328        7.322      331.578       -0.306      865.571
01/31/2021  03:58:00      218.585       33.179     -104.577      771.798       50.080      371.697   595671.417     2507.960   138158.772       39.792       36.817      221.089      533.989        5.834      332.091        0.547      865.590
01/31/2021  03:59:00      179.283       14.734      -61.388      639.829       51.144      302.731   409381.616     2615.663    91646.083       26.978       25.182      179.887      437.996        5.928      331.901        0.229      865.628
01/31/2021  04:00:00      224.489       10.587     -107.637      794.667       46.176      375.881   631495.616     2132.210   141286.520       41.834       38.746      224.739      543.825        5.855      332.210        0.746      865.650
01/31/2021  04:01:00      -21.604       16.280      -44.509      575.496       52.908      273.579   331195.314     2799.300    74845.451       20.569       20.442       27.051      393.408      211.502      331.585       -0.293      865.641
01/31/2021  04:02:00       47.377       50.114      -51.832      549.921       56.706      269.316   302413.139     3215.536    72531.331       19.272       18.908       68.964      380.022       30.365      331.584       -0.296      865.621
01/31/2021  04:03:00      -34.438       48.580      -29.851      399.994       43.377      191.829   159994.805     1881.550    36798.295       10.151        9.934       59.548      273.477       21.091      331.225       -0.892      865.602
01/31/2021  04:04:00       14.294       47.454      -49.340      512.542       44.235      245.103   262699.636     1956.766    60075.689       16.474       16.237       49.560      351.847       50.401      331.389       -0.618      865.589
01/31/2021  04:05:00       76.145       47.531      -56.243      579.416       41.330      276.690   335723.088     1708.200    76557.115       21.252       20.699       89.762      398.842       19.743      331.472       -0.480      865.575
01/31/2021  04:06:00      142.048       37.111      -84.171      660.753       46.433      313.327   436594.680     2156.061    98174.043       28.267       26.846      146.816      452.964        9.519      331.853        0.149      865.556
01/31/2021  04:07:00      133.550       43.757      -83.223      669.268       47.747      317.584   447919.891     2279.815   100859.660       28.875       27.553      140.536      459.564       10.693      331.867        0.175      865.536
01/31/2021  04:08:00      145.054       50.855      -65.595      667.415       48.150      322.951   445442.363     2318.392   104297.570       28.988       27.603      153.710      462.258        9.044      331.887        0.206      865.520
01/31/2021  04:09:00       97.864       36.802      -54.364      608.498       55.682      290.899   370269.406     3100.513    84622.223       23.584       22.900      104.555      418.052       15.987      331.839        0.128      865.521
01/31/2021  04:10:00      125.321       19.552      -69.735      653.696       44.448      310.109   427318.440     1975.627    96167.296       27.309       26.273      126.837      448.237       12.489      331.897        0.223      865.534
01/31/2021  04:11:00      235.998       23.770      -92.181      775.709       52.084      371.170   601725.176     2712.697   137766.870       40.332       37.110      237.192      534.369        5.076      332.051        0.482      865.553
01/31/2021  04:12:00      202.126       11.510      -78.674      657.609       51.908      317.537   432449.479     2694.461   100830.047       29.146       26.799      202.454      454.522        5.040      331.930        0.277      865.561
01/31/2021  04:13:00      130.892        3.089      -68.208      674.414       53.092      319.516   454833.835     2818.711   102090.251       29.065       27.987      130.928      460.171       12.353      331.827        0.108      865.555
01/31/2021  04:14:00      171.664       14.564      -97.242      766.013       63.662      365.459   586775.491     4052.889   133560.346       38.161       36.219      172.280      526.200        9.329      332.038        0.459      865.537
01/31/2021  04:15:00      195.559       30.877     -127.697      875.751       49.460      407.815   766940.215     2446.297   166313.101       49.540       46.785      197.981      594.102        9.005      332.155        0.660      865.529
01/31/2021  04:16:00       93.008       35.377     -104.886      801.559       45.742      378.711   642497.310     2092.368   143422.107       40.429       39.401       99.509      547.993       30.327      331.878        0.198      865.520
01/31/2021  04:17:00       85.860       29.446      -89.440      765.468       52.301      367.793   585941.647     2735.446   135271.336       36.994       36.197       90.769      527.882       33.822      331.787        0.048      865.532
01/31/2021  04:18:00       98.829       24.880      -90.889      751.225       50.353      354.385   564339.556     2535.459   125588.986       35.541       34.623      101.913      513.991       25.436      331.786        0.045      865.541
01/31/2021  04:19:00      268.933        0.548     -127.435      875.107      101.439      409.683   765813.012    10289.804   167840.137       51.606       47.197      268.933      591.561        4.838      332.215        0.757      865.569
01/31/2021  04:20:00      129.943       37.851      -77.427      702.644       49.976      336.728   493708.175     2497.557   113385.802       31.682       30.480      135.344      483.511       12.763      331.792        0.052      865.602
01/31/2021  04:21:00       96.521       37.164      -77.129      690.844       55.940      335.419   477265.691     3129.335   112505.854       30.465       29.645      103.429      478.868       21.436      331.646       -0.188      865.627
01/31/2021  04:22:00       75.014       31.805      -89.332      645.352       43.959      313.969   416479.046     1932.366    98576.652       26.569       25.849       81.478      448.274       30.270      331.658       -0.170      865.642
01/31/2021  04:23:00      233.102       65.059     -150.381      916.824       50.909      433.792   840565.547     2591.712   188175.739       55.604       51.567      242.011      628.978        6.755      332.139        0.636      865.668
01/31/2021  04:24:00      139.500       52.907     -129.348      864.732       51.558      419.471   747762.146     2658.243   175955.916       48.249       46.319      149.196      600.266       16.187      331.910        0.254      865.679
01/31/2021  04:25:00      111.535       21.832      -90.150      737.890       38.580      340.930   544482.099     1488.413   116232.985       34.148       33.110      113.651      498.495       19.239      331.670       -0.147      865.707
01/31/2021  04:26:00      258.611       24.232     -117.813      839.639       48.567      408.575   704993.857     2358.775   166933.208       47.763       43.714      259.744      583.128        5.040      332.053        0.490      865.710
01/31/2021  04:27:00      126.578        7.638      -62.131      636.650       57.221      301.877   405322.612     3274.270    91129.972       25.973       24.986      126.808      435.723       11.807      331.598       -0.272      865.693
01/31/2021  04:28:00       76.676       75.491      -76.907      632.940       49.809      301.261   400613.565     2480.939    90758.118       25.557       24.693      107.601      433.299       16.216      331.564       -0.325      865.644
01/31/2021  04:29:00      105.371      106.466      -67.881      627.707       53.299      299.205   394015.813     2840.799    89523.662       25.661       24.319      149.793      430.804        8.271      331.625       -0.229      865.585
01/31/2021  04:30:00      197.071       90.732      -93.479      691.667       53.703      332.385   478403.097     2884.050   110479.718       32.366       29.588      216.955      477.162        4.837      331.898        0.228      865.526
01/31/2021  04:31:00       84.181      113.164      -40.975      479.888       48.039      230.649   230292.920     2307.711    53199.155       15.363       14.290      141.041      329.952        5.473      331.457       -0.508      865.485
01/31/2021  04:32:00      175.945       69.749     -100.745      706.171       51.088      341.556   498677.607     2609.948   116660.509       33.183       30.897      189.266      489.243        6.682      331.908        0.242      865.471
01/31/2021  04:33:00      169.197       21.076      -82.155      718.987       45.369      332.809   516941.976     2058.381   110761.596       33.266       31.488      170.505      487.094        8.161      331.934        0.287      865.488
01/31/2021  04:34:00      138.619       35.829      -94.977      714.368       53.887      344.354   510322.321     2903.809   118579.485       33.053       31.590      143.174      494.211       11.915      331.894        0.222      865.510
01/31/2021  04:35:00      206.343       15.163      -96.448      730.362       49.960      350.323   533428.137     2495.990   122726.349       35.524       32.933      206.900      503.361        5.919      332.042        0.466      865.537
01/31/2021  04:36:00       73.090       18.730      -50.911      531.150       45.501      255.392   282120.098     2070.315    65225.135       17.878       17.471       75.452      365.133       23.419      331.652       -0.185      865.562
01/31/2021  04:37:00      107.474       18.137      -89.202      674.751      157.962      327.415   455289.151    24951.844   107200.681       30.352       29.372      108.994      450.973       17.120      331.834        0.121      865.583
01/31/2021  04:38:00       68.739       34.746      -51.021      535.144       49.781      253.793   286378.594     2478.138    64410.900       18.083       17.663       77.022      366.363       22.625      331.561       -0.335      865.601
01/31/2021  04:39:00       67.100       27.753      -48.587      531.313       43.584      255.789   282293.078     1899.526    65428.167       17.855       17.481       72.613      366.594       25.489      331.645       -0.197      865.640
01/31/2021  04:40:00      118.549       23.835      -47.360      595.845       57.175      286.759   355031.610     3268.942    82230.663       22.860       22.027      120.922      410.261       11.511      331.758       -0.008      865.681
01/31/2021  04:41:00      126.440       20.306      -52.950      602.891       54.975      294.350   363478.140     3022.296    86641.634       23.608       22.657      128.061      418.562       10.683      331.755       -0.013      865.685
01/31/2021  04:42:00      320.339       21.947     -119.398      865.965       49.777      419.034   749895.858     2477.783   175589.648       52.247       46.398      321.090      600.485        3.497      332.395        1.054      865.665
01/31/2021  04:43:00      230.445       31.053      -92.807      720.854       41.716      348.420   519630.667     1740.238   121396.210       35.259       32.138      232.528      499.717        4.618      331.959        0.328      865.645
01/31/2021  04:44:00      209.952       18.668      -86.601      703.059       41.623      334.620   494292.058     1732.509   111970.661       32.983       30.400      210.780      483.735        5.267      331.873        0.185      865.636
01/31/2021  04:45:00      130.428       22.011      -44.325      523.481       45.029      252.760   274032.815     2027.646    63887.533       17.963       16.997      132.272      361.828        7.483      331.527       -0.394      865.624
01/31/2021  04:46:00      306.595       29.320     -122.929      822.486       45.739      397.628   676482.412     2092.076   158107.984       47.315       41.834      307.993      570.808        3.435      331.950        0.319      865.605
01/31/2021  04:47:00      238.275       31.399     -100.336      718.638       52.269      344.595   516440.271     2732.066   118745.660       35.274       31.896      240.335      495.713        4.254      331.625       -0.221      865.591
01/31/2021  04:48:00      259.530       18.980     -110.689      752.700       56.519      358.994   566557.333     3194.373   128876.504       38.915       34.931      260.223      518.100        3.964      331.758       -0.001      865.576
01/31/2021  04:49:00      326.720       11.969     -133.793      856.228       52.304      410.107   733126.956     2735.677   168187.996       51.423       45.203      326.939      591.043        3.268      332.012        0.425      865.565
01/31/2021  04:50:00      348.645       11.437     -144.574      864.830       48.050      416.770   747930.618     2308.756   173696.881       53.307       46.197      348.833      598.979        2.948      332.015        0.428      865.554
01/31/2021  04:51:00      313.155       12.994     -120.541      839.926       45.424      406.436   705475.736     2063.368   165189.977       49.256       43.636      313.425      583.064        3.461      332.114        0.591      865.552
01/31/2021  04:52:00      157.679       43.476      -72.727      659.847       44.126      316.273   435398.053     1947.099   100028.920       28.460       26.869      163.563      455.375        7.751      331.600       -0.265      865.560
01/31/2021  04:53:00      144.244       26.554      -75.155      687.966       53.368      330.625   473297.552     2848.121   109312.997       30.619       29.273      146.668      474.550       10.469      331.693       -0.112      865.594
01/31/2021  04:54:00      108.668       -2.862      -81.878      686.262       47.058      329.463   470955.643     2214.439   108545.784       30.000       29.086      108.706      471.489       18.812      331.761        0.000      865.610
01/31/2021  04:55:00      187.986        8.680     -124.803      855.067       43.636      411.909   731138.944     1904.091   169668.712       47.666       45.136      188.186      590.961        9.861      332.138        0.631      865.612
01/31/2021  04:56:00      201.890       -2.372     -105.802      784.789       58.048      375.000   615893.793     3369.515   140624.791       40.576       37.994      201.904      540.493        7.166      331.998        0.396      865.597
01/31/2021  04:57:00      261.279       -0.823     -124.341      782.198       45.534      375.998   611833.698     2073.363   141374.254       41.934       37.764      261.280      540.916        4.286      332.120        0.598      865.565
01/31/2021  04:58:00      324.222       -2.351     -151.433      898.516       38.723      430.804   807331.077     1499.465   185591.759       56.103       49.721      324.231      620.977        3.668      332.402        1.068      865.529
01/31/2021  04:59:00      393.857      -10.172     -178.663      924.643       44.686      445.082   854965.498     1996.841   198097.638       62.089       52.753      393.988      640.067        2.639      332.613        1.419      865.516
01/31/2021  05:00:00      272.224      -33.129     -149.730      843.291       41.379      403.951   711140.305     1712.254   163176.304       48.664       43.801      274.233      582.404        4.510      332.241        0.799      865.524
01/31/2021  05:01:00      215.071      -10.009     -100.776      769.955       55.254      370.517   592830.873     3052.992   137282.493       39.469       36.658      215.304      531.649        6.097      332.050        0.481      865.535
01/31/2021  05:02:00      208.195       -5.666     -102.626      768.722       58.323      377.006   590934.007     3401.593   142133.196       39.503       36.823      208.272      536.159        6.627      332.065        0.506      865.548
01/31/2021  05:03:00      226.448       13.650      -79.815      715.131       60.923      344.079   511412.615     3711.555   118390.281       34.554       31.676      226.859      493.309        4.729      331.987        0.375      865.545
01/31/2021  05:04:00      173.198        6.142      -78.897      713.144       47.061      340.014   508574.508     2214.744   115609.299       33.120       31.320      173.307      490.557        8.012      331.963        0.333      865.531
01/31/2021  05:05:00      315.747        0.270     -140.266      887.845       44.754      424.694   788267.968     2002.920   180365.166       54.480       48.532      315.747      612.401        3.762      332.435        1.123      865.510
01/31/2021  05:06:00      277.304      -11.656     -130.613      856.899       39.443      409.555   734276.174     1555.735   167735.621       49.864       45.178      277.549      591.018        4.534      332.311        0.915      865.501
01/31/2021  05:07:00      221.807       23.563      -95.012      737.736       46.873      353.118   544254.445     2197.058   124692.210       36.482       33.557      223.055      508.671        5.201      332.089        0.543      865.506
01/31/2021  05:08:00      301.687       54.187     -109.276      751.046       59.835      358.276   564070.423     3580.170   128361.496       40.081       34.801      306.515      516.022        2.834      331.873        0.187      865.507
01/31/2021  05:09:00      244.965       47.195      -54.126      611.888       67.182      297.943   374407.432     4513.404    88769.955       26.633       23.385      249.470      422.130        2.863      331.352       -0.677      865.505
01/31/2021  05:10:00      424.272       60.944     -106.413      773.980       62.093      367.176   599045.519     3855.559   134818.258       46.623       36.886      428.627      530.235        1.530      331.627       -0.216      865.506
01/31/2021  05:11:00      399.966       51.968     -100.466      769.522       55.748      369.791   592163.355     3107.848   136745.087       45.224       36.601      403.328      531.128        1.734      331.509       -0.411      865.509
01/31/2021  05:12:00      508.166       77.769     -156.395      953.108       58.426      447.694   908414.602     3413.577   200430.172       70.027       55.613      514.083      651.617        1.607      331.910        0.262      865.530
01/31/2021  05:13:00      332.114       73.134      -96.881      716.657       47.017      341.912   513596.783     2210.585   116903.893       37.874       31.636      340.071      493.352        2.105      331.307       -0.744      865.547
01/31/2021  05:14:00      374.484       71.275     -125.277      778.811       58.472      372.432   606546.624     3418.986   138705.732       45.469       37.434      381.207      536.287        1.979      331.612       -0.240      865.560
01/31/2021  05:15:00      510.896       71.331     -179.159      934.145       54.827      447.331   872626.438     3006.020   200105.337       68.675       53.787      515.852      644.522        1.561      332.078        0.537      865.577
01/31/2021  05:16:00      451.641       35.917     -158.539      918.624       42.478      438.201   843870.810     1804.351   192020.191       63.384       51.885      453.067      633.086        1.953      331.886        0.219      865.590
01/31/2021  05:17:00      290.507       39.745      -87.167      710.351       45.938      341.259   504598.689     2110.287   116457.976       35.824       31.158      293.213      490.650        2.800      331.318       -0.727      865.599
01/31/2021  05:18:00      348.991       44.072     -116.937      792.189       47.917      379.379   627563.559     2296.054   143928.270       45.544       38.689      351.762      546.676        2.415      331.606       -0.248      865.624
01/31/2021  05:19:00      302.738       44.604     -101.334      787.580       57.368      382.673   620282.936     3291.049   146438.860       43.680       38.501      306.006      547.204        3.198      331.609       -0.245      865.656
01/31/2021  05:20:00      321.163       34.795     -122.928      834.500       55.412      403.208   696389.969     3070.530   162576.655       49.057       43.102      323.042      578.249        3.204      331.813        0.094      865.702
01/31/2021  05:21:00      279.432       29.687      -87.162      681.702       55.646      323.124   464718.185     3096.496   104409.330       32.927       28.611      281.005      467.137        2.764      331.502       -0.426      865.729
01/31/2021  05:22:00      274.385       27.750      -92.908      773.863       52.803      369.771   598863.932     2788.121   136730.394       41.138       36.919      275.785      533.351        3.740      331.608       -0.246      865.741
01/31/2021  05:23:00      291.637       27.781     -111.930      743.730       54.783      352.269   553134.296     3001.221   124093.697       38.915       34.011      292.957      510.312        3.034      331.704       -0.090      865.713
01/31/2021  05:24:00      226.768       11.310      -82.524      690.253       55.952      330.731   476449.663     3130.629   109382.907       32.354       29.448      227.050      475.496        4.386      331.558       -0.333      865.681
01/31/2021  05:25:00      412.174        3.445     -165.362      920.315       42.149      444.682   846980.479     1776.533   197742.421       62.166       52.325      412.188      638.525        2.400      332.174        0.693      865.651
01/31/2021  05:26:00      391.199       16.047     -142.914      883.697       49.815      425.560   780921.164     2481.488   181101.106       56.891       48.225      391.528      611.610        2.440      332.027        0.449      865.635
01/31/2021  05:27:00      376.624        7.983     -134.439      852.387       50.874      406.544   726564.413     2588.189   165278.204       52.702       44.722      376.708      587.066        2.429      331.919        0.270      865.651
01/31/2021  05:28:00      394.088       26.368     -153.443      875.664       54.654      421.054   766787.487     2987.089   177286.593       56.311       47.353      394.969      605.376        2.349      332.131        0.618      865.678
01/31/2021  05:29:00      358.195       20.691     -123.940      843.974       65.947      405.834   712292.528     4348.956   164701.591       51.253       44.067      358.792      583.025        2.641      331.993        0.390      865.692
01/31/2021  05:30:00      285.906       -0.868      -96.963      776.529       55.973      373.193   602997.844     3132.958   139272.870       41.812       37.270      285.908      536.610        3.523      331.761        0.006      865.669
01/31/2021  05:31:00      482.030       55.483     -185.820     1001.882       63.289      475.607  1003767.700     4005.506   226202.475       75.171       61.699      485.212      688.663        2.014      332.399        1.071      865.640
01/31/2021  05:32:00      259.761       53.004      -85.023      687.874       66.843      330.764   473170.339     4468.021   109404.557       33.216       29.352      265.113      474.798        3.207      331.544       -0.357      865.614
01/31/2021  05:33:00      382.341       63.729     -133.910      812.140       61.037      391.885   659571.162     3725.536   153573.532       49.235       40.844      387.616      561.505        2.098      331.836        0.130      865.590
01/31/2021  05:34:00      389.501       46.752     -123.564      810.192       59.422      381.007   656410.783     3531.026   145166.435       48.697       40.255      392.297      553.249        1.989      331.725       -0.052      865.583
01/31/2021  05:35:00      370.341       55.241     -127.702      821.329       48.879      394.824   674581.700     2389.147   155886.356       49.451       41.643      374.438      567.681        2.299      331.746       -0.018      865.595
01/31/2021  05:36:00      288.583       79.678      -77.137      703.892       55.810      336.571   495463.605     3114.740   113280.146       35.359       30.593      299.380      484.450        2.618      331.470       -0.478      865.627
01/31/2021  05:37:00      253.127       60.551      -83.940      679.427       54.699      325.151   461621.027     2991.988   105723.425       32.244       28.517      260.269      467.474        3.226      331.520       -0.397      865.654
01/31/2021  05:38:00      311.684       48.418     -110.014      797.558       50.990      385.902   636098.028     2600.028   148920.239       44.944       39.381      315.422      553.104        3.075      331.653       -0.171      865.672
01/31/2021  05:39:00      230.869       58.712      -70.998      673.327       46.178      317.648   453369.707     2132.409   100900.434       30.898       27.820      238.217      460.640        3.739      331.431       -0.542      865.678
01/31/2021  05:40:00      206.507       44.023      -68.412      642.651       52.564      308.759   413000.662     2762.963    95332.161       28.007       25.555      211.147      443.372        4.409      331.355       -0.670      865.679
01/31/2021  05:41:00      169.557       62.536      -53.377      631.203       51.648      302.888   398416.818     2667.484    91741.043       26.407       24.641      180.721      434.920        5.792      331.369       -0.648      865.676
01/31/2021  05:42:00      215.407       53.744      -66.581      653.248       49.582      314.112   426732.598     2458.410    98666.647       29.068       26.393      222.010      450.910        4.125      331.467       -0.485      865.654
01/31/2021  05:43:00      238.906       71.040      -66.441      689.344       57.234      336.646   475195.673     3275.679   113330.832       32.905       29.590      249.244      479.143        3.696      331.500       -0.430      865.634
01/31/2021  05:44:00      289.133       84.674     -100.494      786.571       58.289      375.622   618693.227     3397.580   141091.543       43.187       38.159      301.277      541.914        3.235      331.717       -0.065      865.635
01/31/2021  05:45:00      131.477      101.303      -53.016      587.824       44.213      282.654   345536.900     1954.822    79893.442       22.878       21.369      165.978      405.810        5.978      331.408       -0.585      865.684
01/31/2021  05:46:00      108.487       86.082      -62.684      626.719       58.076      296.006   392777.314     3372.863    87619.835       25.334       24.189      138.490      427.865        9.545      331.505       -0.423      865.739
01/31/2021  05:47:00      112.340       66.134      -76.222      650.095       54.883      315.231   422623.600     3012.128    99370.728       27.379       26.250      130.362      450.435       11.939      331.508       -0.417      865.783
01/31/2021  05:48:00      118.703       55.736      -73.987      633.796       47.919      305.741   401696.935     2296.235    93477.671       25.997       24.874      131.137      438.231       11.167      331.505       -0.422      865.803
01/31/2021  05:49:00      267.838       73.054     -102.283      796.794       60.402      382.004   634880.297     3648.414   145926.921       43.583       39.223      277.622      549.561        3.919      331.885        0.211      865.803
01/31/2021  05:50:00      279.950      100.611      -87.106      697.971       54.357      330.874   487163.471     2954.722   109477.678       34.771       29.980      297.480      478.491        2.587      331.708       -0.086      865.778
01/31/2021  05:51:00      246.942       57.539      -83.847      681.698       59.195      324.947   464712.320     3504.038   105590.381       32.244       28.690      253.557      467.301        3.397      331.764        0.005      865.731
01/31/2021  05:52:00      371.932       52.582     -127.309      855.684       64.044      407.235   732195.062     4101.648   165840.598       52.953       45.107      375.631      588.076        2.451      332.023        0.441      865.708
01/31/2021  05:53:00      209.347       39.953      -61.694      691.731       55.033      334.450   478491.794     3028.682   111856.809       32.118       29.669      213.126      479.023        5.052      331.603       -0.258      865.749
01/31/2021  05:54:00      235.789       28.008     -107.652      766.311       48.324      370.559   587232.357     2335.222   137314.035       39.727       36.344      237.446      530.943        5.000      331.822        0.106      865.858
01/31/2021  05:55:00      114.504       42.868      -35.457      483.893       48.692      230.538   234152.290     2370.866    53147.611       15.288       14.484      122.266      331.424        7.348      331.324       -0.726      865.985
01/31/2021  05:56:00      166.646       24.974      -40.870      592.341       50.248      284.079   350867.911     2524.888    80701.104       23.199       21.705      168.507      407.985        5.862      331.698       -0.109      866.068
01/31/2021  05:57:00      194.634       15.205      -84.159      722.221       50.750      346.571   521603.350     2575.529   120111.276       34.461       32.215      195.227      497.959        6.506      331.935        0.290      866.095
01/31/2021  05:58:00       34.189       -2.696      -52.461      557.738       47.944      266.914   311071.943     2298.652    71243.235       19.419       19.231       34.295      382.372      124.313      331.574       -0.312      866.094
01/31/2021  05:59:00       84.389        7.604      -54.920      594.688       61.190      287.461   353653.567     3744.178    82633.664       22.502       22.002       84.731      409.347       23.340      331.661       -0.168      866.089
01/31/2021  06:00:00       85.028       36.526      -49.923      593.857       54.216      280.081   352666.391     2939.404    78445.377       22.246       21.703       92.541      404.778       19.132      331.764        0.002      866.079
01/31/2021  06:01:00      101.800       42.744      -46.424      567.723       61.064      277.372   322309.401     3728.842    76935.317       20.857       20.149      110.410      393.708       12.715      331.648       -0.190      866.049
01/31/2021  06:02:00      145.296       15.556      -54.260      551.598       50.224      266.793   304260.465     2522.449    71178.361       20.105       18.898      146.126      381.213        6.806      331.612       -0.250      865.993
01/31/2021  06:03:00      130.923        8.277      -38.537      454.653       50.451      218.688   206708.988     2545.343    47824.506       13.783       12.854      131.184      312.476        5.674      331.528       -0.392      865.902
01/31/2021  06:04:00      239.562       70.754      -72.472      677.443       48.553      325.044   458928.386     2357.393   105653.360       31.717       28.347      249.792      466.753        3.492      331.814        0.088      865.802
01/31/2021  06:05:00      332.677       23.178     -110.220      805.868       70.237      386.863   649422.855     4933.212   149662.740       46.352       40.201      333.484      555.895        2.779      332.084        0.540      865.742
01/31/2021  06:06:00      226.130       13.761      -57.026      631.120       56.117      301.777   398311.920     3149.083    91069.482       27.345       24.627      226.549      434.193        3.673      331.587       -0.288      865.743
01/31/2021  06:07:00      213.400       22.384      -65.930      662.949      158.565      319.336   439501.099    25142.897   101975.393       30.838       28.331      214.571      441.290        4.230      331.657       -0.171      865.780
01/31/2021  06:08:00      197.505       73.077      -41.366      491.620       60.317      232.724   241690.265     3638.128    54160.296       17.271       14.974      210.591      334.609        2.525      331.313       -0.744      865.813
01/31/2021  06:09:00      367.058       71.552     -139.468      883.839       46.599      423.503   781171.117     2171.451   179354.406       56.080       48.135      373.967      610.345        2.664      332.038        0.469      865.844
01/31/2021  06:10:00      220.059       60.544      -68.841      643.567       41.543      305.737   414177.950     1725.799    93475.032       28.300       25.469      228.236      441.750        3.746      331.556       -0.338      865.861
01/31/2021  06:11:00      213.117       46.383      -72.907      730.422       47.936      350.956   533516.875     2297.884   123170.195       35.580       32.949      218.106      504.451        5.349      331.662       -0.158      865.851
01/31/2021  06:12:00      232.871       72.374      -94.861      747.726       54.854      350.713   559094.030     3009.007   122999.264       37.664       34.255      243.858      510.312        4.379      331.879        0.198      865.826
01/31/2021  06:13:00      312.989       48.389     -106.341      794.513       49.925      382.198   631250.837     2492.513   146075.408       44.555       38.991      316.708      549.360        3.009      332.016        0.427      865.813
01/31/2021  06:14:00      210.176       21.032      -72.661      686.146       58.727      332.547   470796.038     3448.815   110587.279       31.724       29.242      211.226      475.450        5.067      331.774        0.021      865.819
01/31/2021  06:15:00      314.401       39.811     -126.599      901.643       54.586      431.515   812960.104     2979.636   186205.335       55.909       50.107      316.912      622.238        3.855      332.113        0.594      865.835
01/31/2021  06:16:00      234.936       16.321      -88.631      770.877       57.424      364.589   594251.033     3297.486   132924.952       39.674       36.524      235.502      528.014        5.027      331.795        0.060      865.869
01/31/2021  06:17:00      202.125        3.446      -75.030      651.159       55.651      309.042   424007.824     3096.999    95506.879       28.444       26.131      202.154      446.117        4.870      331.548       -0.352      865.922
01/31/2021  06:18:00      317.183      -13.636     -136.464      832.438       45.644      401.004   692953.320     2083.357   160803.960       48.745       42.792      317.476      576.252        3.295      332.061        0.504      865.968
01/31/2021  06:19:00      321.226       48.280     -116.000      799.882       67.248      386.040   639810.568     4522.325   149026.731       45.600       39.668      324.834      553.847        2.907      331.931        0.288      865.994
01/31/2021  06:20:00      308.774       24.647      -94.346      753.113       50.049      361.082   567179.331     2504.859   130380.558       40.231       35.003      309.756      519.670        2.815      331.776        0.028      866.006
01/31/2021  06:21:00      357.631       -3.693     -123.299      846.138       49.445      407.933   715949.869     2444.791   166409.499       51.377       44.240      357.650      585.757        2.682      331.941        0.306      865.990
01/31/2021  06:22:00      351.278       16.933     -126.590      859.254       51.751      412.529   738317.731     2678.169   170180.372       52.525       45.559      351.686      593.602        2.849      331.971        0.359      865.984
01/31/2021  06:23:00      261.467       33.391      -85.040      689.944       46.317      332.632   476022.035     2145.291   110643.957       33.264       29.441      263.591      477.372        3.280      331.589       -0.281      865.979
01/31/2021  06:24:00      306.563       44.603     -100.476      767.953       52.017      364.834   589751.643     2705.754   133103.819       41.566       36.278      309.791      527.329        2.898      331.769        0.019      865.995
01/31/2021  06:25:00      324.191       46.743     -112.769      790.761       50.590      378.250   625302.275     2559.326   143072.880       44.531       38.547      327.543      545.001        2.769      331.859        0.167      866.023
01/31/2021  06:26:00      372.115       54.783     -135.075      798.093       48.742      377.712   636952.721     2375.787   142666.657       47.069       39.100      376.126      547.266        2.117      331.945        0.309      866.041
01/31/2021  06:27:00      482.472       69.531     -190.229      942.128       52.924      450.169   887605.391     2800.990   202651.984       68.320       54.653      487.456      649.657        1.776      332.459        1.165      866.038
01/31/2021  06:28:00      329.126       53.124     -122.005      825.504       60.523      388.698   681457.017     3663.066   151085.848       48.094       41.810      333.386      564.386        2.866      331.968        0.350      866.037
01/31/2021  06:29:00      274.394       52.117     -100.847      775.844       50.986      375.325   601934.266     2599.569   140869.079       41.663       37.270      279.299      538.235        3.714      331.752       -0.008      866.040
01/31/2021  06:30:00      467.299       52.006     -184.539      991.256       49.136      477.831   982588.040     2414.349   228322.425       73.397       60.666      470.184      686.851        2.134      332.375        1.028      866.073
01/31/2021  06:31:00      275.165       54.981      -99.128      779.093       52.468      376.407   606985.297     2752.909   141681.873       41.983       37.571      280.604      539.557        3.697      331.797        0.065      866.122
01/31/2021  06:32:00      283.209       44.985     -122.799      841.751       45.070      401.553   708545.095     2031.298   161244.635       48.438       43.591      286.760      580.026        4.091      331.903        0.243      866.157
01/31/2021  06:33:00      127.503       50.777      -74.984      669.447       47.998      322.939   448158.802     2303.837   104289.770       28.949       27.738      137.242      463.241       11.393      331.652       -0.180      866.185
01/31/2021  06:34:00      213.308       40.187     -120.973      825.279       47.953      397.683   681085.725     2299.536   158151.857       45.147       42.077      217.060      571.374        6.929      332.043        0.472      866.183
01/31/2021  06:35:00      156.632       19.982      -70.440      699.956       48.186      334.749   489938.230     2321.881   112057.187       31.698       30.216      157.902      481.868        9.313      331.839        0.129      866.168
01/31/2021  06:36:00      159.142       23.958      -67.920      660.256       43.248      315.387   435937.608     1870.417    99469.011       28.378       26.864      160.935      454.334        7.970      331.785        0.040      866.149
01/31/2021  06:37:00      170.246       -1.931      -74.174      694.618       46.451      332.077   482494.814     2157.667   110275.101       31.458       29.746      170.256      478.328        7.893      331.890        0.212      866.147
01/31/2021  06:38:00      247.583       11.551     -118.093      815.503       43.138      390.608   665045.299     1860.900   152574.922       44.725       40.974      247.852      563.063        5.161      332.200        0.731      866.172
01/31/2021  06:39:00      260.316       24.316     -116.452      854.355       45.141      407.081   729922.788     2037.734   165715.154       48.960       44.884      261.449      588.261        5.063      332.255        0.823      866.207
01/31/2021  06:40:00      177.824        2.320      -91.462      720.082       50.643      343.118   518517.553     2564.743   117729.658       33.927       31.941      177.839      494.836        7.742      331.936        0.291      866.223
01/31/2021  06:41:00      221.292       12.600     -103.750      799.047       49.630      380.494   638475.915     2463.180   144776.031       42.264       39.286      221.651      548.732        6.129      332.035        0.458      866.225
01/31/2021  06:42:00      237.828       34.499      -95.556      815.088       42.551      387.032   664367.898     1810.577   149794.123       44.126       40.799      240.317      559.244        5.415      331.970        0.352      866.218
01/31/2021  06:43:00       54.762       46.847      -66.148      648.151       52.164      305.082   420099.905     2721.043    93074.856       26.262       25.795       72.066      441.465       37.526      331.608       -0.253      866.211
01/31/2021  06:44:00       71.020       38.679      -69.351      630.055       51.219      304.496   396969.620     2623.425    92717.567       25.173       24.616       80.869      434.728       28.898      331.602       -0.263      866.202
01/31/2021  06:45:00       17.655       48.729      -53.168      502.600       44.780      241.063   252606.653     2005.262    58111.466       15.905       15.636       51.829      345.589       44.461      331.353       -0.679      866.203
01/31/2021  06:46:00      195.644       13.392      -76.513      707.335       46.744      339.537   500322.510     2184.971   115285.239       33.092       30.890      196.101      487.357        6.176      331.713       -0.079      866.215
01/31/2021  06:47:00      183.997       33.515     -104.328      781.716       47.761      378.340   611080.457     2281.132   143141.472       40.102       37.825      187.025      541.483        8.382      331.888        0.215      866.214
01/31/2021  06:48:00      154.652       22.755      -91.671      774.693       58.519      372.080   600149.343     3424.421   138443.473       38.727       37.101      156.317      533.836       11.663      331.848        0.148      866.204
01/31/2021  06:49:00      -16.578       63.738      -46.874      529.808       48.367      256.766   280696.262     2339.382    65928.571       17.768       17.448       65.858      365.667       30.828      331.354       -0.676      866.199
01/31/2021  06:50:00      107.254       43.143     -104.321      754.571       53.644      357.583   569377.210     2877.698   127865.801       36.204       35.006      115.606      516.919       19.993      331.777        0.031      866.218
01/31/2021  06:51:00      110.011       21.152      -93.125      686.737       54.609      322.997   471607.449     2982.168   104327.325       29.995       28.946      112.026      468.329       17.477      331.639       -0.201      866.245
01/31/2021  06:52:00      173.489       42.523     -124.685      818.981       43.839      395.484   670729.882     1921.887   156407.841       43.808       41.453      178.624      567.916       10.109      331.746       -0.017      866.257
01/31/2021  06:53:00      302.353       53.555     -148.849      935.310       48.791      449.636   874805.424     2380.594   202172.358       59.768       53.968      307.059      647.078        4.441      332.126        0.617      866.258
01/31/2021  06:54:00      113.004       52.632      -82.864      693.042       54.986      332.034   480307.713     3023.472   110246.542       30.787       29.679      124.659      477.511       14.673      331.608       -0.251      866.265
01/31/2021  06:55:00      152.318       25.610     -121.560      793.888       45.992      382.021   630258.374     2115.294   145940.367       40.831       38.916      154.456      548.530       12.612      331.880        0.203      866.285
01/31/2021  06:56:00       73.266       27.618      -72.950      672.666       52.193      324.253   452478.878     2724.144   105140.061       28.578       28.017       78.298      463.224       35.001      331.619       -0.234      866.323
01/31/2021  06:57:00       22.296       26.879      -67.404      621.294       48.563      297.630   386006.529     2358.410    88583.459       24.126       23.847       34.923      426.666      149.264      331.552       -0.346      866.352
01/31/2021  06:58:00      310.254       41.072     -145.561      934.047       52.289      444.425   872443.357     2734.156   197513.424       59.569       53.635      312.961      641.131        4.197      332.336        0.961      866.363
01/31/2021  06:59:00      134.608       32.619      -93.267      743.093       43.054      354.252   552186.675     1853.674   125494.744       35.357       33.977      138.504      511.401       13.633      331.699       -0.098      866.348
01/31/2021  07:00:00      114.159       54.132      -76.185      676.742       51.268      324.983   457979.315     2628.397   105613.850       29.387       28.311      126.343      466.690       13.644      331.683       -0.129      866.345
01/31/2021  07:01:00       93.345       42.315      -71.047      650.664       46.819      310.658   423363.147     2192.024    96508.688       26.870       26.103      102.488      447.588       19.073      331.725       -0.060      866.361
01/31/2021  07:02:00       25.512       49.903      -38.919      556.050       46.674      265.862   309191.380     2178.433    70682.405       19.327       19.103       56.046      382.034       46.464      331.454       -0.510      866.377
01/31/2021  07:03:00      119.676       46.225      -74.039      695.800       48.589      332.927   484138.021     2360.858   110840.368       30.951       29.867      128.293      479.040       13.942      331.731       -0.048      866.400
01/31/2021  07:04:00      124.780       32.944      -93.499      732.899       40.260      348.138   537141.535     1620.852   121200.238       34.254       32.998      129.056      503.705       15.233      331.810        0.084      866.421
01/31/2021  07:05:00       49.977       25.295      -58.357      602.956       48.099      284.254   363555.400     2313.549    80800.574       22.651       22.333       56.013      411.706       54.025      331.664       -0.163      866.446
01/31/2021  07:06:00        8.485       15.499      -43.317      493.989       39.899      237.991   244025.250     1591.912    56639.728       15.216       15.113       17.669      340.857      372.147      331.465       -0.494      866.482
01/31/2021  07:07:00      164.864       25.145      -82.845      697.217       49.661      336.209   486112.200     2466.234   113036.736       31.802       30.081      166.771      482.324        8.364      331.928        0.275      866.503
01/31/2021  07:08:00       78.132       16.707      -12.211      402.192       44.746      196.575   161758.436     2002.214    38641.762       10.443       10.120       79.898      278.384       12.140      331.512       -0.420      866.496
01/31/2021  07:09:00      189.058       31.498      -68.083      671.385       46.163      324.822   450758.394     2131.019   105509.566       29.977       27.920      191.664      465.318        5.894      331.793        0.054      866.496
01/31/2021  07:10:00      172.102       -4.032      -66.389      610.178       49.932      296.095   372316.977     2493.244    87672.480       24.817       23.124      172.150      423.178        6.043      331.833        0.117      866.521
01/31/2021  07:11:00      102.551       -6.968      -41.144      499.798       49.305      238.414   249798.372     2430.972    56841.317       16.060       15.454      102.787      342.536       11.105      331.700       -0.104      866.527
01/31/2021  07:12:00      130.574       19.931      -51.438      607.621       45.726      289.474   369203.780     2090.898    83795.217       23.750       22.754      132.086      417.946       10.012      331.817        0.090      866.516
01/31/2021  07:13:00      241.420        8.285     -105.166      799.651       47.050      386.066   639441.935     2213.657   149046.638       42.989       39.535      241.562      553.921        5.258      332.250        0.812      866.498
01/31/2021  07:14:00      154.891       10.611      -60.965      644.659       44.977      311.850   415585.563     2022.929    97250.623       27.123       25.743      155.254      446.673        8.277      331.912        0.248      866.490
01/31/2021  07:15:00      142.781       14.674      -61.383      623.674       40.410      298.093   388969.555     1632.964    88859.673       25.182       23.973      143.533      429.790        8.966      332.036        0.451      866.487
01/31/2021  07:16:00      235.627       -2.489      -84.494      754.049       43.320      360.516   568590.160     1876.661   129972.105       38.140       35.022      235.640      519.891        4.868      332.085        0.538      866.471
01/31/2021  07:17:00      204.559       28.540      -77.435      673.302       46.327      319.140   453335.904     2146.193   101850.591       30.287       27.867      206.541      462.012        5.004      331.845        0.138      866.446
01/31/2021  07:18:00      162.110       27.331      -56.605      607.983       48.121      292.903   369643.510     2315.678    85791.909       24.389       22.888      164.398      420.130        6.531      331.597       -0.273      866.423
01/31/2021  07:19:00      180.222        1.364      -66.432      671.055       39.879      320.752   450315.339     1590.315   102882.070       29.572       27.739      180.227      462.717        6.592      331.731       -0.049      866.427
01/31/2021  07:20:00      166.071      -13.755      -74.263      663.002       39.918      315.406   439571.371     1593.417    99481.134       28.685       27.032      166.640      456.077        7.491      331.804        0.070      866.465
01/31/2021  07:21:00      149.863        0.962      -71.927      603.354       35.444      290.095   364036.610     1256.250    84155.345       23.844       22.472      149.866      417.249        7.751      331.757       -0.009      866.483
01/31/2021  07:22:00      209.325       28.685      -82.450      678.402       41.843      323.897   460229.916     1750.874   104909.127       30.905       28.344      211.281      467.298        4.892      331.941        0.297      866.462
01/31/2021  07:23:00      114.575       47.975      -19.218      350.869       41.495      168.806   123108.777     1721.835    28495.329        8.453        7.666      124.213      241.082        3.767      331.257       -0.841      866.437
01/31/2021  07:24:00      132.344       74.277      -20.784      352.917       39.967      168.680   124550.626     1597.363    28452.972        8.900        7.730      151.763      241.625        2.535      331.158       -1.004      866.412
01/31/2021  07:25:00      120.836       64.926      -25.269      399.114       40.494      191.946   159291.823     1639.756    36843.332       10.857        9.889      137.174      274.820        4.014      331.235       -0.875      866.398
01/31/2021  07:26:00      235.279       37.379      -79.790      666.106       31.266      316.072   443697.088      977.577    99901.703       30.373       27.229      238.229      458.010        3.696      331.583       -0.293      866.392
01/31/2021  07:27:00      133.486       44.630      -29.275      454.631       42.287      221.122   206688.992     1788.168    48894.750       13.897       12.869      140.750      314.825        5.003      331.298       -0.771      866.382
01/31/2021  07:28:00      149.842        3.515      -35.567      449.269       55.807      217.348   201843.006     3114.406    47240.134       13.791       12.610      149.883      310.521        4.292      331.281       -0.798      866.342
01/31/2021  07:29:00      204.159       32.396      -56.488      580.533       44.722      276.904   337018.500     2000.065    76675.903       23.072       20.785      206.714      399.218        3.730      331.337       -0.702      866.281
01/31/2021  07:30:00      189.512       45.499      -54.857      475.608       55.831      223.819   226202.826     3117.055    50094.906       16.015       13.971      194.897      323.912        2.762      331.241       -0.864      866.253
01/31/2021  07:31:00      131.252       -4.894      -41.393      462.117       43.454      225.404   213552.430     1888.213    50806.917       14.255       13.312      131.344      320.939        5.971      331.259       -0.834      866.286
01/31/2021  07:32:00      136.612       27.340      -45.303      542.051       55.927      262.268   293819.434     3127.839    68784.648       19.352       18.287      139.321      375.504        7.264      331.402       -0.596      866.317
01/31/2021  07:33:00      143.930       64.015      -34.914      513.001       39.135      244.934   263170.444     1531.543    59992.677       17.529       16.235      157.524      353.094        5.024      331.256       -0.838      866.314
01/31/2021  07:34:00      103.232       53.742      -28.427      404.322       34.422      190.978   163476.464     1184.843    36472.780       10.770       10.057      116.383      276.460        5.643      331.115       -1.072      866.304
01/31/2021  07:35:00       97.042       33.375      -19.608      448.861       36.991      213.263   201476.602     1368.344    45481.216       12.957       12.416      102.621      307.424        8.974      331.201       -0.930      866.333
01/31/2021  07:36:00      119.803       25.868      -44.787      527.820       40.389      249.814   278593.545     1631.277    62407.118       17.976       17.132      122.564      361.325        8.691      331.378       -0.635      866.389
01/31/2021  07:37:00      166.988       36.373      -58.768      542.980       32.109      261.512   294827.585     1030.995    68388.435       19.838       18.212      170.904      375.555        4.829      331.415       -0.576      866.414
01/31/2021  07:38:00      118.750       21.648      -32.421      476.942       37.631      221.725   227473.715     1416.056    49162.100       14.678       13.903      120.707      323.837        7.198      331.343       -0.696      866.403
01/31/2021  07:39:00      154.796        6.758      -67.910      618.348       33.830      296.733   382354.296     1144.475    88050.316       24.998       23.577      154.944      427.340        7.607      331.596       -0.274      866.411
01/31/2021  07:40:00      114.277       20.304      -35.740      511.835       32.771      245.239   261975.518     1073.961    60142.056       16.890       16.160      116.067      353.219        9.261      331.427       -0.556      866.421
01/31/2021  07:41:00      175.783       26.684      -72.048      644.867       29.655      308.518   415853.130      879.395    95183.194       27.425       25.596      177.797      445.206        6.270      331.621       -0.231      866.458
01/31/2021  07:42:00      160.607       43.388      -84.638      718.320       31.502      342.973   515984.032      992.348   117630.382       33.459       31.730      166.364      495.469        8.870      331.791        0.051      866.477
01/31/2021  07:43:00       65.468       24.831      -35.416      448.295       30.921      215.753   200968.525      956.087    46549.150       12.726       12.424       70.019      309.695       19.563      331.509       -0.424      866.451
01/31/2021  07:44:00      147.902       41.313      -49.981      507.220       25.261      241.222   257272.614      638.127    58187.974       17.102       15.805      153.564      349.058        5.167      331.431       -0.550      866.418
01/31/2021  07:45:00      237.295       31.413      -96.574      717.453       28.071      340.571   514738.638      788.008   115988.813       34.893       31.576      239.365      493.631        4.253      331.807        0.077      866.414
01/31/2021  07:46:00      185.229       37.410      -72.119      621.853       28.254      298.214   386700.604      798.268    88931.561       25.857       23.822      188.969      429.927        5.176      331.600       -0.269      866.425
01/31/2021  07:47:00      162.173       -2.322      -64.727      607.130       31.850      290.800   368607.350     1014.442    84564.768       24.224       22.709      162.189      419.411        6.687      331.780        0.029      866.440
01/31/2021  07:48:00      168.243      -16.005      -84.222      612.113       33.543      293.267   374682.935     1125.120    86005.414       24.864       23.091      169.003      422.986        6.264      331.802        0.064      866.456
01/31/2021  07:49:00      105.080      -14.105      -47.273      438.527       33.423      209.505   192306.357     1117.069    43892.185       12.535       11.866      106.023      302.228        8.126      331.484       -0.465      866.468
01/31/2021  07:50:00      110.876      -24.895      -58.325      520.001      151.609      253.579   270400.841    22985.440    64302.197       18.693       17.884      113.637      341.467        9.029      331.713       -0.085      866.487
01/31/2021  07:51:00       90.150        9.367      -45.311      521.756       24.503      248.951   272229.361      600.404    61976.775       17.246       16.740       90.635      359.915       15.769      331.735       -0.047      866.501
01/31/2021  07:52:00       46.585       -2.234      -39.265      443.023       16.900      211.670   196269.146      285.600    44804.356       12.249       12.068       46.638      305.869       43.012      331.769        0.003      866.519
01/31/2021  07:53:00       62.389        0.846      -22.673      390.810       27.046      187.678   152732.637      731.508    35223.215        9.651        9.434       62.394      269.749       18.691      331.708       -0.097      866.509
01/31/2021  07:54:00       67.686      -29.695      -34.570      307.047       41.371      145.247    94277.842     1711.571    21096.641        6.185        5.854       73.914      210.011        8.073      331.548       -0.363      866.484
01/31/2021  07:55:00       98.462      -10.116      -66.903      634.466       27.558      302.613   402547.152      759.445    91574.640       25.447       24.744       98.980      437.102       19.502      331.990        0.376      866.468
01/31/2021  07:56:00        2.183       -5.229      -29.881      378.975       31.365      180.098   143622.368      983.779    32435.417        8.895        8.852        5.666      259.797     2102.044      331.513       -0.419      866.478
01/31/2021  07:57:00      132.179      -24.507      -78.183      636.800       41.595      307.457   405514.776     1730.118    94529.507       26.287       25.089      134.431      441.280       10.775      332.012        0.412      866.535
01/31/2021  07:58:00       19.133      -10.753      -32.079      404.886       38.044      194.396   163932.778     1447.312    37789.925       10.230       10.159       21.947      279.293      161.946      331.693       -0.123      866.610
01/31/2021  07:59:00       88.397       -9.614      -36.960      466.166       37.343      223.693   217311.079     1394.494    50038.368       13.895       13.437       88.919      321.699       13.089      331.893        0.210      866.646
01/31/2021  08:00:00       64.938      -48.446      -58.723      583.777       30.490      273.916   340795.512      929.668    75030.010       21.330       20.838       81.018      397.686       24.094      331.825        0.104      866.649
01/31/2021  08:01:00       76.218      -18.722      -50.552      501.747       27.031      238.994   251750.500      730.655    57118.136       15.909       15.480       78.484      345.722       19.404      331.821        0.092      866.653
01/31/2021  08:02:00       30.720        9.990       -6.599      253.545       36.568      121.518    64285.135     1337.198    14766.698        4.072        4.019       32.303      174.664       29.236      331.575       -0.319      866.646
01/31/2021  08:03:00      139.986       -3.149      -64.519      606.740       33.792      289.629   368133.431     1141.924    83884.890       23.837       22.658      140.021      418.828        8.947      331.980        0.359      866.624
01/31/2021  08:04:00       53.008      -12.700      -20.677      242.242       43.965      115.214    58681.250     1932.929    13274.378        3.863        3.694       54.508      166.313        9.309      331.535       -0.385      866.641
01/31/2021  08:05:00      101.630      -68.873      -30.302      243.247       28.235      115.213    59169.277      797.222    13274.136        4.460        3.662      122.769      166.363        1.836      331.388       -0.627      866.697
01/31/2021  08:06:00      126.545       20.475      -56.339      537.847       47.739      260.087   289278.868     2279.058    67644.997       18.933       17.960      128.191      373.393        8.484      331.754       -0.016      866.743
01/31/2021  08:07:00       45.379       11.660      -25.969      366.396       30.981      174.693   134246.085      959.835    30517.483        8.426        8.286       46.853      251.658       28.850      331.640       -0.210      866.731
01/31/2021  08:08:00       58.420        1.369      -35.305      412.202       16.267      198.392   169910.703      264.614    39359.361       10.705       10.477       58.436      285.120       23.806      331.814        0.078      866.710
01/31/2021  08:09:00       43.268      -15.966      -36.316      472.341       32.694      222.150   223106.341     1068.917    49350.719       13.843       13.676       46.120      322.231       48.815      331.861        0.157      866.685
01/31/2021  08:10:00       19.250        2.370      -15.608      374.605       21.634      179.897   140328.670      468.016    32362.796        8.685        8.658       19.395      257.671      176.501      331.640       -0.210      866.657
01/31/2021  08:11:00        8.906       30.740        2.963      183.385       23.725       87.121    33629.913      562.854     7590.124        2.140        2.089       32.004      124.919       15.235      331.571       -0.327      866.626
01/31/2021  08:12:00      146.581       61.167      -48.207      509.499       21.367      239.974   259589.312      456.555    57587.554       17.252       15.882      158.831      349.004        4.828      331.715       -0.081      866.604
01/31/2021  08:13:00      121.412       15.981      -41.408      427.399       36.291      201.540   182669.585     1317.031    40618.247       12.061       11.230      122.459      292.562        5.708      331.745       -0.036      866.592
01/31/2021  08:14:00      209.364       31.609      -56.501      458.884       28.689      219.904   210574.586      823.074    48357.785       15.383       12.988      211.736      316.463        2.234      331.502       -0.433      866.610
01/31/2021  08:15:00      104.633       20.009      -32.621      381.421       50.690      181.585   145482.025     2569.453    32973.250        9.668        9.051      106.529      262.102        6.053      331.593       -0.288      866.638
01/31/2021  08:16:00      166.374       25.626      -56.070      509.875       23.898      241.840   259972.363      571.111    58486.403       17.519       15.951      168.336      350.783        4.342      331.619       -0.241      866.675
01/31/2021  08:17:00      124.866       60.223      -41.329      436.270       18.568      209.165   190331.709      344.775    43749.896       12.763       11.721      138.630      301.725        4.737      331.489       -0.456      866.701
01/31/2021  08:18:00      173.204       53.465      -57.383      506.774       11.530      240.684   256819.464      132.946    57928.691       17.545       15.744      181.268      348.964        3.706      331.554       -0.349      866.673
01/31/2021  08:19:00       88.954       -1.136      -30.568      369.611       40.739      176.087   136612.644     1659.687    31006.720        8.903        8.464       88.961      253.443        8.116      331.677       -0.147      866.616
01/31/2021  08:20:00       79.494      -20.874      -43.534      437.447       49.193      205.416   191360.071     2419.919    42195.673       12.226       11.799       82.189      298.019       13.148      331.881        0.190      866.629
01/31/2021  08:21:00       64.248      -28.158      -21.257      323.442       57.064      156.359   104614.518     3256.333    24447.983        6.882        6.616       70.147      223.203       10.125      331.708       -0.098      866.672
01/31/2021  08:22:00      120.181       71.817      -31.538      291.780       35.739      139.866    85135.420     1277.311    19562.608        6.326        5.299      140.004      199.460        2.030      331.477       -0.481      866.648
01/31/2021  08:23:00       74.917      -28.253      -24.447      283.940       44.025      135.499    80621.737     1938.219    18360.065        5.394        5.046       80.067      194.149        5.880      331.644       -0.204      866.622
01/31/2021  08:24:00       81.588      -31.412      -24.299      246.209       32.845      119.948    60619.093     1078.795    14387.615        4.214        3.804       87.426      169.585        3.763      331.598       -0.281      866.666
01/31/2021  08:25:00      145.147       -0.095      -57.823      539.041       20.925      258.274   290564.670      437.861    66705.530       19.098       17.885      145.147      372.662        6.592      331.938        0.285      866.698
01/31/2021  08:26:00      124.203       30.379      -36.012      376.661       39.859      179.641   141873.640     1588.722    32270.865        9.665        8.787      127.864      259.388        4.115      331.585       -0.301      866.696
01/31/2021  08:27:00      105.205      -10.507      -35.051      466.783       47.917      222.352   217886.141     2296.086    49440.507       14.096       13.481      105.728      321.105        9.224      331.785        0.032      866.699
01/31/2021  08:28:00      131.330       41.243      -30.534      407.895       51.411      193.762   166378.111     2643.065    37543.855       11.318       10.328      137.654      279.627        4.127      331.654       -0.186      866.703
01/31/2021  08:29:00      167.633       34.330      -46.173      441.752       39.525      209.193   195145.077     1562.214    43761.580       13.589       12.023      171.112      303.090        3.137      331.624       -0.235      866.730
01/31/2021  08:30:00      130.375       54.674      -37.502      428.284       13.952      203.428   183426.919      194.660    41383.031       12.315       11.250      141.375      294.743        4.347      331.465       -0.494      866.735
01/31/2021  08:31:00      143.653       45.468      -34.707      423.892       16.200      202.585   179684.428      262.425    41040.869       12.240       11.049      150.677      292.548        3.770      331.473       -0.483      866.713
01/31/2021  08:32:00       87.532        7.047      -22.225      290.216       18.668      138.149    84225.599      348.502    19085.082        5.591        5.183       87.815      199.579        5.165      331.340       -0.705      866.712
01/31/2021  08:33:00      136.201       18.023      -38.905      404.380       15.683      192.621   163523.423      245.972    37103.024       11.059       10.044      137.388      278.761        4.117      331.472       -0.485      866.689
01/31/2021  08:34:00      157.528       15.465      -46.353      466.752       33.691      222.999   217856.987     1135.055    49728.556       14.790       13.436      158.286      321.776        4.133      331.643       -0.202      866.622
01/31/2021  08:35:00      118.181        0.220      -41.942      487.462       56.081      238.231   237619.387     3145.094    56753.925       15.656       14.876      118.181      338.283        8.193      331.885        0.197      866.555
01/31/2021  08:36:00      146.502      -11.365      -43.446      461.358       37.294      218.947   212851.415     1390.829    47937.574       14.277       13.109      146.942      316.416        4.637      331.730       -0.059      866.512
01/31/2021  08:37:00       76.590      -19.353      -30.628      464.635       38.355      223.818   215885.858     1471.071    50094.710       13.726       13.373       78.998      321.671       16.580      331.994        0.376      866.541
01/31/2021  08:38:00       69.764      -20.276      -40.806      466.861       29.837      220.434   217959.110      890.251    48591.192       13.713       13.372       72.651      320.107       19.414      331.990        0.369      866.616
01/31/2021  08:39:00       26.126       31.967      -24.573      399.034       17.930      191.666   159228.280      321.491    36735.808        9.926        9.814       41.286      275.295       44.463      331.684       -0.137      866.693
01/31/2021  08:40:00       23.344       18.680      -25.342      386.630       23.403      184.272   149482.795      547.718    33956.066        9.272        9.199       29.898      265.385       78.790      331.754       -0.023      866.737
01/31/2021  08:41:00       28.240       22.539      -18.660      317.439       16.424      152.772   100767.754      269.739    23339.145        6.299        6.219       36.131      219.108       36.774      331.739       -0.047      866.717
01/31/2021  08:42:00       54.808       14.299      -31.035      372.330       20.878      178.743   138629.956      435.889    31949.049        8.756        8.551       56.643      257.457       20.659      331.852        0.139      866.678
01/31/2021  08:43:00       30.862       -7.071      -20.693      358.635       19.452      173.152   128618.855      378.379    29981.731        8.017        7.949       31.662      248.586       61.643      331.949        0.299      866.664
01/31/2021  08:44:00       92.943       40.918      -21.848      302.770       29.461      143.416    91669.418      867.961    20568.090        6.192        5.655      101.551      206.915        4.152      331.677       -0.150      866.628
01/31/2021  08:45:00      141.007       43.069      -31.218      351.544       44.132      167.189   123583.375     1947.673    27952.118        8.806        7.674      147.438      241.140        2.675      331.746       -0.035      866.573
01/31/2021  08:46:00       64.507        1.171      -16.472      266.670       45.277      127.266    71112.818     2050.045    16196.655        4.688        4.468       64.518      181.867        7.946      331.783        0.022      866.632
01/31/2021  08:47:00       37.984      -54.056      -46.665      389.167       24.245      184.139   151450.734      587.804    33907.318        9.620        9.297       66.067      266.902       16.321      332.024        0.423      866.774
01/31/2021  08:48:00       72.906      -20.505      -25.984      385.647       21.790      184.062   148723.823      474.814    33878.967        9.470        9.154       75.735      265.495       12.289      332.109        0.564      866.839
01/31/2021  08:49:00       32.116       10.768      -16.226      305.021       18.688      145.078    93037.938      349.243    21047.748        5.790        5.722       33.873      209.800       38.362      331.948        0.295      866.773
01/31/2021  08:50:00      129.225       66.661      -52.401      500.376       38.993      242.575   250376.322     1520.443    58842.652       16.725       15.537      145.406      346.982        5.694      332.222        0.754      866.642
01/31/2021  08:51:00       13.565      -26.170       -7.317       47.475       67.513       29.833     2253.839     4557.963      890.030        0.431        0.385       29.477       17.146        0.338      331.796        0.042      866.588
01/31/2021  08:52:00       75.853      -48.229      -43.444      424.339       30.519      204.401   180063.554      931.434    41779.911       11.632       11.139       89.887      293.550       10.665      332.098        0.546      866.647
01/31/2021  08:53:00       68.960      -66.931      -42.124      366.085       47.446      176.830   134018.478     2251.123    31268.773        8.924        8.377       96.100      253.249        6.945      332.099        0.546      866.739
01/31/2021  08:54:00      -28.419      -15.590      -19.292      327.260       39.682      151.950   107098.986     1574.689    23088.875        6.656        6.588       32.415      219.735       45.953      332.030        0.431      866.778
01/31/2021  08:55:00      -47.928       -1.542      -10.666      294.050       54.187      136.804    86465.153     2936.269    18715.421        5.524        5.406       47.953      197.349       16.937      331.925        0.257      866.763
01/31/2021  08:56:00      -37.162        1.305      -28.126      374.240       32.840      178.607   140055.947     1078.461    31900.318        8.757        8.652       37.185      256.268       47.495      332.023        0.421      866.736
01/31/2021  08:57:00       -2.243       -4.064      -28.374      395.037       11.390      189.661   156054.445      129.741    35971.327        9.645        9.608        4.642      272.568     3447.711      331.947        0.296      866.709
01/31/2021  08:58:00       56.924       11.591      -24.378      378.980       11.988      182.128   143625.740      143.721    33170.618        9.042        8.847       58.093      262.315       20.389      332.058        0.479      866.650
01/31/2021  08:59:00       29.562       37.790       -1.069      166.643       40.975       82.453    27769.898     1678.991     6798.428        1.927        1.812       47.979      114.705        5.716      331.914        0.238      866.602
01/31/2021  09:00:00       48.174       18.700       -9.177      144.407       37.433       68.801    20853.360     1401.204     4733.538        1.487        1.349       51.676       95.958        3.448      331.893        0.204      866.626
01/31/2021  09:01:00       66.580       25.617      -22.277      355.073       14.936      170.334   126076.539      223.095    29013.747        8.042        7.766       71.338      245.298       11.823      332.006        0.393      866.670
01/31/2021  09:02:00       39.444       30.669      -11.133      274.139       15.551      129.957    75152.188      241.826    16888.787        4.743        4.614       49.964      188.272       14.199      331.859        0.150      866.682
01/31/2021  09:03:00       84.485       27.424      -39.383      462.505       11.594      220.384   213910.452      134.415    48569.114       13.597       13.131       88.824      319.058       12.903      332.047        0.463      866.685
01/31/2021  09:04:00       43.183       28.835      -11.275      340.689       15.603      161.602   116068.689      243.448    26115.297        7.259        7.121       51.926      234.235       20.349      332.051        0.467      866.685
01/31/2021  09:05:00       47.051        8.603      -27.754      397.473       20.948      191.226   157985.125      438.799    36567.551        9.898        9.750       47.831      275.300       33.128      332.244        0.784      866.655
01/31/2021  09:06:00       46.469       26.328      -12.645      227.080       17.276      107.612    51565.216      298.464    11580.393        3.321        3.172       53.409      155.889        8.519      331.958        0.311      866.604
01/31/2021  09:07:00       58.019       26.159      -11.044      218.875       17.189      106.141    47906.140      295.448    11265.971        3.181        2.973       63.644      151.403        5.659      331.975        0.339      866.604
01/31/2021  09:08:00       35.918       20.103      -10.478      245.512       30.115      118.118    60276.058      906.938    13951.959        3.845        3.757       41.162      169.100       16.877      332.159        0.643      866.646
01/31/2021  09:09:00       99.777       43.507      -29.570      415.930       14.974      197.449   172998.103      224.208    38986.124       11.242       10.610      108.850      286.253        6.916      332.118        0.579      866.668
01/31/2021  09:10:00      113.708       23.192      -34.343      390.713       12.961      187.928   152656.890      167.977    35316.960       10.135        9.407      116.049      270.659        5.440      332.002        0.386      866.642
01/31/2021  09:11:00       71.694       -4.943      -17.118      290.851       17.427      140.214    84594.049      303.713    19660.089        5.499        5.228       71.864      201.471        7.860      332.165        0.652      866.608
01/31/2021  09:12:00       14.106       20.233       -1.041       17.506       17.666       12.998      306.469      312.080      168.941        0.070        0.039       24.665       10.941        0.197      332.045        0.453      866.591
01/31/2021  09:13:00       48.495       59.181      -14.715      249.581       21.251      119.924    62290.855      451.616    14381.785        4.158        3.856       76.512      172.153        5.063      332.009        0.395      866.573
01/31/2021  09:14:00       20.308       54.104      -24.711      320.434       20.609      154.829   102678.172      424.743    23971.932        6.549        6.354       57.790      221.508       14.692      332.235        0.771      866.551
01/31/2021  09:15:00       33.179       48.799      -14.087      241.746       16.873      114.388    58441.299      284.714    13084.612        3.773        3.591       59.010      165.213        7.839      332.245        0.783      866.566
01/31/2021  09:16:00       20.319       20.019      -10.901      243.345       12.675      113.767    59216.989      160.662    12942.902        3.661        3.616       28.524      164.428       33.231      332.112        0.565      866.571
01/31/2021  09:17:00       65.418       18.181      -35.599      433.885       13.181      207.842   188256.162      173.739    43198.294       11.870       11.581       67.897      300.043       19.528      332.390        1.029      866.552
01/31/2021  09:18:00       30.187       34.324      -11.764      240.311       18.082      116.214    57749.147      326.941    13505.601        3.689        3.579       45.710      166.590       13.282      332.252        0.794      866.540
01/31/2021  09:19:00       15.525       13.713      -34.866      295.113       30.196      138.412    87091.817      911.802    19157.979        5.438        5.358       20.714      200.622       93.808      332.430        1.091      866.567
01/31/2021  09:20:00       54.420      -38.084      -34.323      383.817       21.675      185.793   147315.676      469.824    34518.974        9.391        9.115       66.423      265.783       16.011      332.526        1.252      866.572
01/31/2021  09:21:00       -8.076      -20.299      -18.204      142.168       20.184       69.215    20211.731      407.385     4790.708        1.310        1.270       21.847       98.540       20.344      332.200        0.708      866.536
01/31/2021  09:22:00       26.898       -3.248       -8.070      255.486       33.470      124.702    65273.261     1120.241    15550.494        4.135        4.097       27.093      177.458       42.902      332.490        1.187      866.514
01/31/2021  09:23:00        0.175      -46.365      -16.950      212.638       32.642      101.390    45215.015     1065.497    10280.029        2.949        2.828       46.365      143.116        9.528      332.478        1.168      866.517
01/31/2021  09:24:00       -4.063       -3.781      -15.653      193.340       11.972       93.127    37380.467      143.330     8672.636        2.323        2.310        5.550      133.054      574.739      332.517        1.232      866.510
01/31/2021  09:25:00       52.743       22.724      -15.757      218.802       28.553      103.266    47874.501      815.281    10663.805        3.144        2.968       57.430      149.098        6.740      332.192        0.696      866.559
01/31/2021  09:26:00       18.664       -8.714      -10.134      182.386       15.976       85.510    33264.804      255.224     7311.988        2.067        2.042       20.598      124.027       36.255      332.360        0.973      866.613
01/31/2021  09:27:00       -1.388       11.697        0.117       17.281       32.976       14.213      298.649     1087.443      201.999        0.086        0.079       11.779       10.185        0.748      332.295        0.866      866.588
01/31/2021  09:28:00       -1.972       34.944       -1.692      132.535       18.627       61.859    17565.630      346.983     3826.521        1.148        1.087       34.999       88.303        6.365      332.339        0.938      866.538
01/31/2021  09:29:00        8.980       -3.724       -4.214       88.657       19.161       45.069     7860.025      367.154     2031.182        0.518        0.513        9.722       61.352       39.826      332.426        1.080      866.551
01/31/2021  09:30:00      -31.675       -9.512       -3.634       56.091       10.827       27.695     3146.173      117.216      767.026        0.257        0.202       33.072       36.130        1.193      332.322        0.909      866.582
01/31/2021  09:31:00       -2.065        2.202       -9.283       29.646       13.631       12.539      878.895      185.795      157.232        0.066        0.061        3.019        7.941        6.920      332.438        1.101      866.583
01/31/2021  09:32:00       14.379      -29.362      -14.858      182.169       19.051       87.212    33185.604      362.922     7605.912        2.121        2.058       32.694      125.231       14.672      332.454        1.128      866.582
01/31/2021  09:33:00       -3.141      -10.038        4.748       23.515       31.448       15.517      552.951      988.993      240.774        0.096        0.089       10.518        6.672        0.402      332.516        1.229      866.601
01/31/2021  09:34:00        2.480      -36.086       -0.633       36.181       20.586       15.922     1309.046      423.784      253.498        0.165        0.099       36.171        8.529        0.056      332.494        1.192      866.591
01/31/2021  09:35:00      -31.394      -11.395      -14.326       40.538       19.679       22.003     1643.295      387.247      484.142        0.192        0.126       33.398       23.586        0.499      332.341        0.940      866.565
01/31/2021  09:36:00      -23.305       25.694        1.425       16.086       15.094       12.703      258.759      227.842      161.369        0.093        0.032       34.688        6.506        0.035      332.286        0.849      866.565
01/31/2021  09:37:00       14.653      -16.992       -5.177      166.397       23.659       79.913    27688.002      559.737     6386.051        1.757        1.732       22.437      114.313       25.958      332.444        1.111      866.602
01/31/2021  09:38:00      -50.243       50.723       -5.404       24.520       22.711       11.053      601.251      515.782      122.169        0.318        0.062       71.394        4.816        0.005      332.257        0.803      866.647
01/31/2021  09:39:00       -8.576       19.636       -7.677       28.480        9.635       10.617      811.104       92.830      112.718        0.077        0.051       21.427        3.820        0.032      332.237        0.768      866.641
01/31/2021  09:40:00       45.114       18.853       -8.572       26.368       24.909       15.140      695.296      620.455      229.209        0.200        0.077       48.895       13.812        0.080      332.373        0.994      866.586
01/31/2021  09:41:00       70.042       34.458       -1.358       38.936       43.881       19.378     1516.011     1925.580      375.519        0.496        0.191       78.059       14.717        0.036      332.376        0.998      866.535
01/31/2021  09:42:00       12.884      -14.093        7.941       37.802       46.475       27.889     1429.001     2159.941      777.807        0.240        0.218       19.095       15.554        0.663      332.626        1.412      866.536
01/31/2021  09:43:00       60.399       34.724      -11.810       24.659       28.055       15.106      608.057      787.083      228.190        0.331        0.081       69.669        8.378        0.014      332.284        0.847      866.571
01/31/2021  09:44:00       55.262       36.936       -5.818       28.393       16.068       16.600      806.180      258.185      275.546        0.290        0.067       66.469       17.290        0.068      332.340        0.938      866.578
01/31/2021  09:45:00       40.783       27.176       -2.181       20.695       14.159       11.202      428.293      200.481      125.483        0.158        0.038       49.008       10.387        0.045      332.342        0.943      866.591
01/31/2021  09:46:00       17.370       29.792       -0.899       21.670       18.283       14.420      469.591      334.254      207.926        0.110        0.051       34.486       13.960        0.164      332.548        1.281      866.658
01/31/2021  09:47:00        2.942        6.564       -4.295       23.292       10.008       13.538      542.515      100.159      183.287        0.045        0.041        7.193       13.684        3.619      332.782        1.669      866.707
01/31/2021  09:48:00      -28.535       15.985       -5.672       35.866       31.456       18.385     1286.396      989.477      338.012        0.186        0.131       32.707       15.371        0.221      332.703        1.538      866.705
01/31/2021  09:49:00      -46.150       16.719       -8.605       35.968       28.995       21.849     1293.703      840.682      477.371        0.255        0.131       49.085       13.795        0.079      332.473        1.157      866.653
01/31/2021  09:50:00       82.308       57.081      -19.957       42.236       33.042       22.678     1783.919     1091.781      514.296        0.691        0.169      100.164       15.506        0.024      332.389        1.021      866.596
01/31/2021  09:51:00       70.672       35.258      -12.186       51.114       45.398       24.500     2612.680     2060.997      600.229        0.583        0.264       78.979       23.587        0.089      332.434        1.094      866.564
01/31/2021  09:52:00       87.096       10.206      -12.749       52.470       49.084       18.316     2753.087     2409.232      335.484        0.667        0.275       87.692       14.819        0.029      332.521        1.238      866.582
01/31/2021  09:53:00       32.995        2.162       -8.985       42.663       16.320       26.589     1820.164      266.344      706.970        0.198        0.140       33.066       19.867        0.361      332.558        1.299      866.635
01/31/2021  09:54:00        3.153       -9.102        2.907       24.085       37.973       13.553      580.090     1441.964      183.675        0.115        0.110        9.633       11.464        1.416      332.622        1.405      866.670
01/31/2021  09:55:00       28.590       -5.736       -9.624       35.281       33.576       15.432     1244.771     1127.323      238.158        0.178        0.131       29.160        7.723        0.070      332.644        1.442      866.713
01/31/2021  09:56:00       57.689       37.213       -5.481       28.230       17.561       12.576      796.942      308.374      158.148        0.300        0.063       68.650       10.465        0.023      332.407        1.048      866.747
01/31/2021  09:57:00       58.761       48.612      -11.336       35.464       15.760       20.639     1257.729      248.384      425.957        0.394        0.097       76.262       18.033        0.056      332.489        1.184      866.756
01/31/2021  09:58:00       85.042       44.613      -10.959       35.430       12.085       17.314     1255.277      146.044      299.765        0.552        0.085       96.034       21.282        0.049      332.353        0.959      866.731
01/31/2021  09:59:00       67.977       47.937      -13.530       24.389       24.135       14.156      594.832      582.476      200.394        0.424        0.069       83.180       15.348        0.034      332.358        0.967      866.704
01/31/2021  10:00:00      128.816       85.825      -25.231       34.105       21.689       18.194     1163.145      470.431      331.023        1.328        0.098      154.788       15.252        0.010      332.442        1.107      866.678
01/31/2021  10:01:00       72.940       32.141      -14.779       36.144       51.198       24.936     1306.355     2621.265      621.816        0.556        0.227       79.707       14.845        0.035      332.699        1.531      866.668
01/31/2021  10:02:00       78.464       68.107      -11.762       45.835       47.445       19.457     2100.861     2251.060      378.563        0.783        0.237      103.899       13.332        0.016      332.627        1.412      866.678
01/31/2021  10:03:00       31.162        2.921      -13.501       44.039       41.118       20.894     1939.395     1690.725      436.573        0.261        0.203       31.298       24.305        0.603      332.687        1.512      866.708
01/31/2021  10:04:00       -1.295      -60.244      -18.906       43.748       31.991       20.650     1913.871     1023.423      426.415        0.368        0.168       60.258       19.588        0.106      332.836        1.758      866.761
01/31/2021  10:05:00       -5.209      -57.684       -8.583       32.251       25.432       24.959     1040.130      646.799      622.931        0.287        0.115       57.919       12.309        0.045      332.774        1.656      866.819
01/31/2021  10:06:00       -7.947      -12.639       -3.876       29.647       22.106       24.433      878.957      488.689      596.987        0.110        0.098       14.929       17.403        1.359      333.001        2.030      866.842
01/31/2021  10:07:00      -56.714       20.727       -8.258       19.904       19.150       17.621      396.165      366.705      310.505        0.239        0.054       60.383       15.262        0.064      332.555        1.293      866.845
01/31/2021  10:08:00      -25.188        1.991      -14.740       31.953       14.632       13.110     1020.999      214.106      171.869        0.113        0.070       25.267        8.761        0.120      332.609        1.382      866.852
01/31/2021  10:09:00       -8.312      -15.821       -9.331       17.681       17.525       13.248      312.617      307.142      175.517        0.060        0.040       17.872       10.727        0.360      332.828        1.744      866.849
01/31/2021  10:10:00      -22.355      -28.206       -5.590       44.162       30.013       22.061     1950.266      900.804      486.703        0.233        0.167       35.991       19.868        0.305      332.914        1.886      866.834
01/31/2021  10:11:00      -16.533       -5.431      -14.309       29.650       25.974       13.994      879.146      674.666      195.832        0.113        0.087       17.403       10.863        0.390      332.895        1.854      866.833
01/31/2021  10:12:00      -28.014       11.934       -5.039       26.816       14.571       12.650      719.075      212.321      160.017        0.102        0.055       30.450        7.572        0.062      332.927        1.907      866.849
01/31/2021  10:13:00      -23.908        2.059       -0.709       26.561       13.480       10.932      705.491      181.707      119.502        0.079        0.050       23.997        7.721        0.104      333.072        2.148      866.834
01/31/2021  10:14:00      -21.236      -19.220       -5.661       34.258       23.647       18.679     1173.604      559.185      348.888        0.147        0.104       28.642       18.161        0.402      333.091        2.179      866.834
01/31/2021  10:15:00       29.998       31.648       -3.317       25.644       24.265       15.047      657.619      588.774      226.399        0.169        0.074       43.606       14.287        0.107      332.859        1.796      866.844
01/31/2021  10:16:00        7.575       22.760       -8.447       24.166        7.985       10.024      583.972       63.754      100.489        0.070        0.037       23.987        8.689        0.131      332.745        1.608      866.848
01/31/2021  10:17:00       17.551       45.432       -0.443       21.635       15.928       11.813      468.052      253.690      139.537        0.162        0.043       48.704        9.733        0.040      332.781        1.668      866.846
01/31/2021  10:18:00       -5.754       34.866        1.388       20.277       14.268       13.141      411.154      203.587      172.690        0.102        0.039       35.338        3.420        0.009      332.835        1.756      866.876
01/31/2021  10:19:00      -13.877       37.990       -0.627       27.947       21.900       14.010      781.051      479.603      196.290        0.155        0.073       40.445        7.476        0.034      333.003        2.034      866.930
01/31/2021  10:20:00      -10.877        6.411        2.782       40.039       30.270       20.377     1603.146      916.244      415.231        0.155        0.147       12.626       14.748        1.364      333.076        2.154      866.975
01/31/2021  10:21:00      -11.281      -25.891       -2.436       38.021       26.004       19.609     1445.591      676.210      384.494        0.165        0.125       28.242       13.482        0.228      333.091        2.178      866.951
01/31/2021  10:22:00       -7.637       20.928      -15.858       20.914       13.666       11.842      437.392      186.756      140.239        0.076        0.038       22.278        6.746        0.092      332.974        1.985      866.906
01/31/2021  10:23:00      -39.446      -53.041      -13.283       33.360       29.537       16.933     1112.909      872.455      286.741        0.341        0.114       66.101       13.856        0.044      333.130        2.244      866.919
01/31/2021  10:24:00     -116.782      -47.920       -8.434       54.923       51.101       29.415     3016.513     2611.307      865.237        1.125        0.325      126.232       18.782        0.022      332.907        1.876      866.978
01/31/2021  10:25:00      -41.537       -3.621        2.598       47.276       47.673       32.451     2234.987     2272.700     1053.051        0.365        0.278       41.695       26.489        0.404      333.092        2.180      866.975
01/31/2021  10:26:00      -49.951       -0.298       -5.835       39.433       31.593       23.258     1554.947      998.134      540.931        0.281        0.155       49.952       20.662        0.171      333.007        2.040      866.902
01/31/2021  10:27:00      -22.959        4.796       -3.622       29.522       21.483       15.477      871.541      461.509      239.527        0.107        0.079       23.454       12.865        0.301      333.061        2.129      866.823
01/31/2021  10:28:00      -10.961      -14.460        2.199       27.743       19.427       19.819      769.664      377.426      392.774        0.094        0.077       18.145        9.892        0.297      333.128        2.242      866.806
01/31/2021  10:29:00      -16.765      -12.232        3.918       32.056       24.423       21.379     1027.558      596.469      457.056        0.126        0.104       20.753       15.989        0.594      333.232        2.412      866.841
01/31/2021  10:30:00       -8.782      -12.062        1.733       43.328       23.536       18.137     1877.307      553.934      328.938        0.149        0.138       14.921        9.222        0.382      333.305        2.533      866.916
01/31/2021  10:31:00      -53.058      -22.195        1.131       63.836       37.136       27.430     4075.070     1379.094      752.408        0.476        0.310       57.513       15.148        0.069      333.140        2.260      866.997
01/31/2021  10:32:00      -50.008       -6.674        6.393       46.879       28.215       26.880     2197.644      796.078      722.558        0.315        0.186       50.452       23.022        0.208      333.159        2.292      866.973
01/31/2021  10:33:00        4.392       -4.405       -8.265       28.543       27.376       22.361      814.722      749.441      500.036        0.109        0.103        6.221        9.218        2.196      333.288        2.504      866.844
01/31/2021  10:34:00       49.527      -34.195      -26.109       57.027       72.171       38.906     3252.051     5208.679     1513.693        0.714        0.499       60.185       37.547        0.389      333.407        2.701      866.722
01/31/2021  10:35:00       46.381      -82.549      -14.520       42.730       33.564       26.136     1825.895     1126.568      683.071        0.641        0.182       94.687       21.944        0.054      333.100        2.194      866.694
01/31/2021  10:36:00       -6.733        0.860       -5.556       33.673       38.625       15.363     1133.861     1491.888      236.015        0.147        0.143        6.788       11.126        2.687      333.323        2.564      866.768
01/31/2021  10:37:00        0.022       -6.551       -2.538       28.896       27.435       24.037      834.962      752.702      577.767        0.111        0.108        6.551       14.047        4.598      333.523        2.893      866.865
01/31/2021  10:38:00      -53.624       -6.499      -13.011       49.702       40.222       26.710     2470.313     1617.826      713.444        0.394        0.240       54.016       18.494        0.117      333.268        2.472      866.892
01/31/2021  10:39:00      -10.438       33.630        3.526       40.698       23.805       19.253     1656.293      566.677      370.670        0.192        0.130       35.213       16.414        0.217      333.184        2.333      866.864
01/31/2021  10:40:00       -0.620      -19.513       -4.746       27.585       24.694       19.739      760.926      609.810      389.632        0.108        0.088       19.523       15.824        0.657      333.450        2.773      866.834
01/31/2021  10:41:00        7.031      -64.121      -10.792       78.356       40.072       29.367     6139.596     1605.731      862.433        0.644        0.430       64.505       35.098        0.296      333.361        2.624      866.824
01/31/2021  10:42:00       87.091      -51.746      -13.438       40.870       53.851       27.984     1670.353     2899.956      783.130        0.790        0.268      101.304       26.874        0.070      333.119        2.226      866.825
01/31/2021  10:43:00       66.264        4.202      -21.598       50.849       34.349       25.795     2585.621     1179.851      665.372        0.465        0.222       66.397       29.420        0.196      333.105        2.201      866.800
01/31/2021  10:44:00       -3.253      -35.228        3.695       28.655       23.323       22.653      821.123      543.942      513.136        0.157        0.094       35.378       15.908        0.202      333.301        2.526      866.759
01/31/2021  10:45:00       20.171       37.438       10.446       65.557       50.489       27.740     4297.782     2549.178      769.491        0.477        0.381       42.526       21.539        0.257      333.332        2.576      866.780
01/31/2021  10:46:00      -27.659       14.768       -9.174       44.277       27.437       19.932     1960.444      752.786      397.281        0.209        0.156       31.355       12.854        0.168      333.325        2.566      866.809
01/31/2021  10:47:00      -20.245       18.192       -3.399       26.657       20.697       19.758      710.603      428.351      390.388        0.114        0.076       27.218       12.279        0.204      333.375        2.648      866.794
01/31/2021  10:48:00       74.266       59.902      -13.394       58.036       19.264       13.476     3368.145      371.101      181.602        0.660        0.196       95.413       17.460        0.033      333.155        2.282      866.739
01/31/2021  10:49:00       92.944       33.593      -11.288       52.986       47.308       21.190     2807.511     2238.047      449.026        0.769        0.275       98.829       19.277        0.038      333.200        2.360      866.691
01/31/2021  10:50:00       78.824       19.741      -24.362       41.589       48.887       26.256     1729.685     2389.982      689.401        0.600        0.240       81.258       23.397        0.083      333.319        2.555      866.649
01/31/2021  10:51:00       92.999      -53.973      -21.555       67.842       44.677       33.273     4602.565     1996.027     1107.123        0.986        0.385      107.526       28.551        0.071      333.354        2.614      866.610
01/31/2021  10:52:00        0.999      -55.272      -18.373       27.500       49.107       27.905      756.227     2411.452      778.712        0.367        0.197       55.281       30.091        0.296      333.575        2.980      866.593
01/31/2021  10:53:00       -1.256      -75.054      -33.396       52.992       39.472       19.155     2808.203     1558.037      366.933        0.574        0.237       75.064       17.906        0.057      333.624        3.062      866.575
01/31/2021  10:54:00       16.750       20.487       -0.810       43.949       32.295       26.565     1931.484     1042.998      705.695        0.219        0.184       26.463       23.233        0.771      333.633        3.077      866.542
01/31/2021  10:55:00       21.453      -64.315      -10.169       57.793       65.117       34.705     3340.074     4240.262     1204.459        0.674        0.439       67.799       37.082        0.299      333.694        3.177      866.490
01/31/2021  10:56:00      103.497      -87.218      -36.314       55.705       38.395       30.105     3103.018     1474.170      906.288        1.256        0.274      135.346       26.441        0.038      333.436        2.749      866.460
01/31/2021  10:57:00      109.830     -127.743      -31.549       29.491       34.206       22.341      869.736     1170.034      499.126        1.596        0.127      168.467       18.133        0.012      333.278        2.487      866.500
01/31/2021  10:58:00       19.359      -37.682      -16.663       72.814       53.957       20.834     5301.873     2911.370      434.042        0.536        0.432       42.364       24.105        0.324      333.495        2.848      866.575
01/31/2021  10:59:00       36.116      -10.403      -13.565       41.839       27.784       16.723     1750.464      771.949      279.651        0.220        0.140       37.584       20.098        0.286      333.432        2.742      866.605
01/31/2021  11:00:00       42.557        1.979       -4.600       40.523       29.324       22.949     1642.111      859.903      526.669        0.243        0.151       42.603       24.354        0.327      333.536        2.914      866.540
01/31/2021  11:01:00       41.800       10.325       -2.435       35.915       36.292       21.904     1289.913     1317.119      479.768        0.247        0.154       43.056       15.412        0.128      333.725        3.229      866.444
01/31/2021  11:02:00      -21.362        5.532        5.678       36.586       23.186       21.294     1338.501      537.567      453.438        0.142        0.116       22.067       16.082        0.531      333.844        3.424      866.423
01/31/2021  11:03:00        1.270       32.896        7.264       27.651       35.726       14.973      764.587     1276.345      224.186        0.170        0.113       32.921       14.621        0.197      333.639        3.086      866.454
01/31/2021  11:04:00       55.746       48.295       -5.937       60.554       33.483       27.689     3666.832     1121.094      766.706        0.551        0.278       73.756       28.731        0.152      333.624        3.060      866.468
01/31/2021  11:05:00       95.487       64.369       -7.815       59.716       31.876       32.386     3566.035     1016.073     1048.839        0.948        0.282      115.157       22.565        0.038      333.614        3.046      866.440
01/31/2021  11:06:00       62.715       -4.943      -31.283       42.801       74.569       34.967     1831.902     5560.473     1222.698        0.677        0.431       62.910       19.915        0.100      333.855        3.444      866.439
01/31/2021  11:07:00       47.010       10.965      -19.275       42.160       61.486       27.436     1777.488     3780.549      752.722        0.450        0.316       48.272       23.229        0.232      333.614        3.045      866.485
01/31/2021  11:08:00       56.064       36.431      -10.192       36.189       37.545       25.182     1309.674     1409.616      634.130        0.396        0.168       66.861       24.028        0.129      333.623        3.059      866.515
01/31/2021  11:09:00       81.837       40.654       -8.262       51.871       26.214       21.801     2690.570      687.187      475.263        0.613        0.193       91.378       23.351        0.065      333.699        3.185      866.467
01/31/2021  11:10:00      114.783       49.397       -7.261       38.193       30.064       26.549     1458.701      903.816      704.871        0.937        0.153      124.961       28.305        0.051      333.446        2.765      866.396
01/31/2021  11:11:00      102.245       51.832      -10.343       60.779       45.919       25.859     3694.095     2108.568      668.692        0.986        0.324      114.632       25.714        0.050      333.662        3.124      866.396
01/31/2021  11:12:00       17.117        3.571       -3.452       57.216       46.515       39.793     3273.645     2163.619     1583.517        0.367        0.351       17.485       29.284        2.805      333.950        3.601      866.452
01/31/2021  11:13:00      -39.258        8.480       -7.531       23.834       27.813       19.681      568.076      773.565      387.334        0.170        0.086       40.163        9.381        0.055      334.138        3.912      866.462
01/31/2021  11:14:00       -9.446      -40.709      -14.420       60.243       53.566       20.489     3629.198     2869.312      419.800        0.443        0.346       41.790       27.587        0.436      334.051        3.767      866.394
01/31/2021  11:15:00       51.205      -19.929      -13.633       65.704       68.214       34.493     4316.958     4653.154     1189.766        0.668        0.508       54.946       36.949        0.452      333.910        3.535      866.319
01/31/2021  11:16:00      166.226       43.309      -16.289       60.294       30.996       22.693     3635.308      960.759      514.980        1.744        0.256      171.776       21.144        0.015      333.454        2.778      866.269
01/31/2021  11:17:00       65.818       34.065      -18.512       45.559       30.970       21.985     2075.577      959.120      483.337        0.468        0.176       74.111       26.688        0.130      333.551        2.940      866.287
01/31/2021  11:18:00        8.208       22.777        6.744       44.340       19.195       20.183     1966.056      368.466      407.360        0.169        0.137       24.211       23.483        0.941      333.761        3.288      866.305
01/31/2021  11:19:00       47.507       13.155      -15.045       74.381       41.171       29.507     5532.591     1695.082      870.657        0.538        0.405       49.294       35.956        0.532      334.197        4.011      866.237
01/31/2021  11:20:00      153.176       51.739       -9.652       72.967       56.384       32.094     5324.235     3179.201     1030.010        1.788        0.477      161.678       29.152        0.033      333.761        3.287      866.179
01/31/2021  11:21:00       97.274        2.393      -16.451       61.197       67.148       35.122     3745.037     4508.897     1233.557        0.961        0.474       97.304       34.779        0.128      334.059        3.782      866.211
01/31/2021  11:22:00       26.243      -46.240      -16.564       41.150       32.702       24.617     1693.339     1069.444      606.021        0.323        0.168       53.167       23.290        0.192      334.167        3.961      866.289
01/31/2021  11:23:00      -11.638       -6.291        6.659       29.408       28.924       20.780      864.807      836.589      431.788        0.118        0.107       13.229       13.470        1.037      334.367        4.292      866.355
01/31/2021  11:24:00       24.169       48.090        3.658       40.396       33.358       18.647     1631.854     1112.772      347.729        0.300        0.155       53.822       19.005        0.125      334.052        3.771      866.327
01/31/2021  11:25:00       79.219       58.833      -15.443       56.127       41.886       27.644     3150.207     1754.476      764.213        0.782        0.283       98.676       25.426        0.066      334.136        3.909      866.200
01/31/2021  11:26:00       44.851        9.650      -17.321       53.829       58.713       31.710     2897.516     3447.158     1005.543        0.488        0.368       45.878       28.366        0.382      334.290        4.165      866.111
01/31/2021  11:27:00       18.965        0.384       -8.582       38.431       66.167       26.978     1476.913     4378.060      727.811        0.351        0.329       18.969       18.477        0.949      334.081        3.817      866.168
01/31/2021  11:28:00       33.432      -89.915      -31.355       36.474       30.783       17.119     1330.343      947.609      293.060        0.638        0.129       95.929       15.125        0.025      333.868        3.467      866.247
01/31/2021  11:29:00       56.388      -22.821      -16.119       56.361       33.300       24.163     3176.570     1108.899      583.836        0.441        0.243       60.830       21.463        0.124      333.918        3.549      866.220
01/31/2021  11:30:00      105.958       20.968       -8.897       71.563       34.638       32.716     5121.321     1199.769     1070.356        0.957        0.370      108.013       29.165        0.073      333.925        3.559      866.135
01/31/2021  11:31:00      127.596       32.470      -25.058       47.931       57.396       25.514     2297.378     3294.298      650.970        1.210        0.312      131.663       17.474        0.018      333.866        3.462      866.107
01/31/2021  11:32:00       71.031       61.319       -0.483       49.732       63.312       32.889     2473.320     4008.362     1081.702        0.818        0.378       93.838       26.454        0.079      333.917        3.545      866.122
01/31/2021  11:33:00       88.720       91.842       -5.297       48.609       42.879       30.638     2362.789     1838.597      938.673        1.074        0.257      127.696       25.491        0.040      334.003        3.688      866.130
01/31/2021  11:34:00       96.620       71.391      -11.340       55.310       46.754       28.517     3059.188     2185.893      813.208        1.031        0.303      120.134       28.931        0.058      334.078        3.812      866.100
01/31/2021  11:35:00      113.565      108.653      -15.772       59.207       31.900       30.534     3505.461     1017.614      932.330        1.520        0.273      157.170       31.912        0.041      333.781        3.319      866.077
01/31/2021  11:36:00       83.362       83.056      -12.841       56.035       38.703       26.087     3139.908     1497.906      680.528        0.966        0.266      117.675       20.764        0.031      333.809        3.366      866.071
01/31/2021  11:37:00       84.842       80.637      -21.332       37.348       17.675       18.475     1394.854      312.411      341.322        0.810        0.102      117.050       19.666        0.028      333.672        3.141      866.083
01/31/2021  11:38:00       92.689       64.681      -15.137       45.443       22.188       16.253     2065.044      492.291      264.163        0.791        0.141      113.026       13.390        0.014      333.765        3.295      866.067
01/31/2021  11:39:00       96.825       45.426       -6.548       93.159       48.414       34.760     8678.584     2343.876     1208.227        1.185        0.612      106.951       35.618        0.111      334.264        4.122      865.996
01/31/2021  11:40:00       84.609      103.797      -10.237       56.273       56.954       36.850     3166.655     3243.752     1357.919        1.290        0.388      133.912       26.921        0.040      333.918        3.548      865.949
01/31/2021  11:41:00       76.687      132.140      -12.372       47.451       45.518       29.090     2251.582     2071.922      846.247        1.433        0.258      152.781       28.670        0.035      333.971        3.636      865.946
01/31/2021  11:42:00       74.290       71.474      -28.462       44.645       40.827       19.519     1993.189     1666.829      380.988        0.774        0.202      103.090       14.564        0.020      333.826        3.395      865.981
01/31/2021  11:43:00        2.363       45.167      -10.039       37.358       20.308       16.284     1395.625      412.398      265.164        0.211        0.104       45.228        6.564        0.021      334.133        3.905      866.006
01/31/2021  11:44:00       30.037       50.956        1.116       20.330       27.194       19.519      413.314      739.491      381.001        0.252        0.077       59.150       12.856        0.047      334.186        3.993      866.016
01/31/2021  11:45:00       20.904       75.531        0.859       31.683       49.242       30.887     1003.793     2424.737      954.017        0.526        0.219       78.370       30.045        0.147      334.085        3.825      866.005
01/31/2021  11:46:00       96.436       67.279       -6.306       76.666       63.486       27.698     5877.743     4030.452      767.187        1.227        0.534      117.586       29.063        0.061      334.349        4.263      865.916
01/31/2021  11:47:00       89.371       24.334       -7.807       53.909       67.741       34.643     2906.191     4588.807     1200.125        0.867        0.435       92.625       29.781        0.103      334.540        4.581      865.810
01/31/2021  11:48:00       67.365       25.329      -11.593       77.222       57.415       24.983     5963.232     3296.497      624.155        0.760        0.494       71.969       27.616        0.147      334.464        4.453      865.795
01/31/2021  11:49:00       50.876       45.573        9.814       61.274       60.223       23.541     3754.547     3626.849      554.201        0.635        0.397       68.303       26.247        0.148      334.169        3.965      865.879
01/31/2021  11:50:00       32.721      -58.696      -16.987       40.625       52.113       24.071     1650.351     2715.773      579.389        0.487        0.247       67.200       26.803        0.159      334.286        4.159      865.915
01/31/2021  11:51:00       46.801        6.274       -1.030       42.682       72.688       29.802     1821.740     5283.542      888.147        0.511        0.400       47.219       26.396        0.312      334.447        4.426      865.834
01/31/2021  11:52:00      129.914       53.301      -28.496       65.018       59.784       31.563     4227.322     3574.156      996.196        1.466        0.440      140.423       31.645        0.051      334.416        4.373      865.706
01/31/2021  11:53:00       50.199       48.871       -4.140       49.338       53.827       27.550     2434.286     2897.354      759.023        0.551        0.305       70.059       22.672        0.105      334.497        4.509      865.671
01/31/2021  11:54:00      -18.487        8.865        3.678       44.123       30.097       22.389     1946.861      905.816      501.261        0.189        0.168       20.503       18.629        0.826      334.752        4.932      865.739
01/31/2021  11:55:00       36.189       51.846       -4.503       19.891       31.108       14.727      395.638      967.685      216.878        0.280        0.079       63.227        8.111        0.016      334.158        3.948      865.842
01/31/2021  11:56:00       28.152       13.952       -6.180       44.683       45.579       22.815     1996.585     2077.412      520.545        0.281        0.230       31.420       23.313        0.551      334.553        4.601      865.854
01/31/2021  11:57:00      119.053      120.370      -16.630       54.770       45.367       32.792     2999.741     2058.183     1075.330        1.753        0.307      169.300       22.554        0.018      334.458        4.443      865.785
01/31/2021  11:58:00       65.066       19.022      -10.884       72.649       77.039       44.393     5277.853     5934.941     1970.716        0.895        0.659       67.789       40.687        0.360      334.750        4.930      865.706
01/31/2021  11:59:00       99.900       62.193      -17.425       61.963       78.241       38.080     3839.358     6121.648     1450.064        1.278        0.571      117.677       31.673        0.072      334.296        4.175      865.685
01/31/2021  12:00:00      128.731       83.219      -15.383       48.029       40.476       20.972     2306.776     1638.268      439.811        1.406        0.219      153.287       18.076        0.014      333.977        3.645      865.684
01/31/2021  12:01:00       65.488       72.242      -12.234       32.700       36.433       19.328     1069.313     1327.332      373.568        0.621        0.139       97.507       12.502        0.016      334.184        3.990      865.718
01/31/2021  12:02:00      -19.667       56.332      -16.064       31.099       28.861       18.458      967.145      832.975      340.690        0.298        0.107       59.667       17.753        0.089      334.030        3.736      865.769
01/31/2021  12:03:00        0.160       36.314      -11.334       37.158       33.307       23.717     1380.752     1109.356      562.479        0.225        0.153       36.315       23.651        0.424      334.289        4.163      865.759
01/31/2021  12:04:00       10.798       95.700        1.158       48.918       44.940       28.741     2392.986     2019.598      826.041        0.726        0.262       96.308       29.739        0.095      334.333        4.238      865.672
01/31/2021  12:05:00       97.615       49.008      -13.504       47.463       54.471       23.161     2252.769     2967.134      536.423        0.893        0.288      109.226       18.384        0.028      334.313        4.203      865.596
01/31/2021  12:06:00      112.961       26.945      -28.940       41.594       64.491       25.822     1730.101     4159.075      666.779        1.044        0.328      116.130       20.041        0.030      334.164        3.957      865.624
01/31/2021  12:07:00       20.960       12.315       -6.262       30.772       25.586       25.853      946.933      654.644      668.378        0.145        0.113       24.310       17.517        0.519      334.412        4.368      865.671
01/31/2021  12:08:00      -13.903       -4.209        5.825       37.062       38.970       20.700     1373.615     1518.673      428.483        0.178        0.166       14.526       10.450        0.518      334.734        4.903      865.676
01/31/2021  12:09:00       94.767       80.534      -14.282       65.240       60.265       32.828     4256.322     3631.897     1077.666        1.232        0.448      124.364       38.914        0.098      334.443        4.418      865.635
01/31/2021  12:10:00      120.789       82.359      -24.093       33.917       27.774       23.116     1150.335      771.398      534.344        1.220        0.123      146.195       19.693        0.018      334.277        4.143      865.595
01/31/2021  12:11:00       65.467       67.213       -1.148       40.441       60.049       30.018     1635.467     3605.900      901.086        0.747        0.307       93.827       20.168        0.046      334.574        4.636      865.574
01/31/2021  12:12:00       44.575       26.492       -7.489       46.806       41.824       24.243     2190.798     1749.281      587.735        0.364        0.226       51.853       19.384        0.140      334.761        4.946      865.571
01/31/2021  12:13:00      131.506       74.085      -11.460       67.812       48.912       27.874     4598.500     2392.373      776.971        1.534        0.388      150.938       29.136        0.037      334.313        4.203      865.560
01/31/2021  12:14:00      149.451       60.909      -22.247       63.237       41.443       26.219     3998.889     1717.501      687.440        1.647        0.320      161.386       17.662        0.012      334.339        4.246      865.519
01/31/2021  12:15:00      104.962       82.396      -12.582       53.079       57.375       34.392     2817.400     3291.867     1182.807        1.263        0.365      133.439       32.078        0.058      334.464        4.455      865.512
01/31/2021  12:16:00      155.282       64.348      -20.606       33.019       17.512       17.113     1090.231      306.663      292.864        1.518        0.084      168.086       17.325        0.011      334.131        3.900      865.539
01/31/2021  12:17:00       94.860       56.198      -18.936       43.350       55.426       29.707     1879.234     3072.048      882.521        0.917        0.292      110.257       20.614        0.035      334.625        4.721      865.549
01/31/2021  12:18:00      146.663       63.486      -13.031       68.439       56.163       27.348     4683.957     3154.277      747.904        1.715        0.429      159.814       27.438        0.029      334.485        4.488      865.534
01/31/2021  12:19:00      129.462       76.981      -22.727       76.534       56.995       38.162     5857.518     3248.474     1456.363        1.688        0.528      150.621       28.721        0.036      334.595        4.671      865.476
01/31/2021  12:20:00      139.251       89.809      -21.301       34.010       34.391       22.070     1156.664     1182.745      487.079        1.537        0.141      165.700       15.517        0.009      334.409        4.361      865.382
01/31/2021  12:21:00       23.866       42.300       -3.510       39.493       32.662       19.433     1559.702     1066.812      377.659        0.269        0.150       48.568       20.234        0.174      334.394        4.337      865.353
01/31/2021  12:22:00       -5.890       32.799      -10.103       19.184       36.133       17.957      368.029     1305.616      322.447        0.160        0.100       33.323       13.787        0.171      334.581        4.649      865.408
01/31/2021  12:23:00       35.231       36.482      -10.619       28.412       28.157       22.635      807.222      792.841      512.351        0.240        0.106       50.716       15.532        0.094      334.835        5.070      865.462
01/31/2021  12:24:00       89.930       55.573      -11.073       58.876       29.088       22.157     3466.340      846.086      490.914        0.805        0.240      105.715       24.878        0.055      334.472        4.468      865.439
01/31/2021  12:25:00      101.549       49.249       -9.777       47.059       41.064       32.331     2214.546     1686.247     1045.273        0.889        0.247      112.862       25.385        0.051      334.793        5.000      865.362
01/31/2021  12:26:00       83.642       97.873       -7.427       54.218       47.136       30.464     2939.645     2221.808      928.069        1.136        0.304      128.744       27.247        0.045      334.548        4.593      865.285
01/31/2021  12:27:00       84.689       60.615      -11.001       52.245       46.847       30.593     2729.583     2194.636      935.933        0.841        0.293      104.146       18.318        0.031      334.756        4.939      865.279
01/31/2021  12:28:00       22.044       24.965       -3.354       34.650       38.093       27.192     1200.613     1451.072      739.416        0.226        0.170       33.304       18.127        0.296      334.975        5.302      865.308
01/31/2021  12:29:00       90.309       69.491       -3.026       77.249       43.100       25.532     5967.389     1857.644      651.894        1.073        0.424      113.950       33.428        0.086      334.582        4.650      865.305
01/31/2021  12:30:00       44.783       26.623        8.626       52.905       56.241       28.976     2798.955     3163.034      839.590        0.479        0.340       52.099       22.808        0.192      334.869        5.128      865.266
01/31/2021  12:31:00      104.739        9.393      -14.407       68.396       66.682       35.587     4677.989     4446.522     1266.421        1.083        0.520      105.159       32.380        0.095      334.813        5.032      865.214
01/31/2021  12:32:00       93.186      -55.589      -26.989       48.383       82.248       33.582     2340.946     6764.740     1127.754        1.137        0.512      108.507       33.385        0.095      334.651        4.765      865.158
01/31/2021  12:33:00       64.606       -2.224      -14.297       80.817       95.061       32.249     6531.371     9036.687     1039.974        1.049        0.830       64.644       31.733        0.241      334.896        5.171      865.138
01/31/2021  12:34:00      105.439     -119.932      -23.260       78.621       67.133       44.996     6181.338     4506.833     2024.671        1.937        0.636      159.690       49.089        0.094      334.757        4.939      865.140
01/31/2021  12:35:00       50.432      -18.553       -6.615       53.570       98.311       37.964     2869.706     9664.957     1441.275        0.845        0.699       53.737       26.964        0.252      334.900        5.179      865.137
01/31/2021  12:36:00       81.657       28.789      -16.249       91.566       50.673       39.216     8384.375     2567.804     1537.891        1.012        0.625       86.583       35.088        0.164      334.833        5.067      865.113
01/31/2021  12:37:00       93.509       94.484       -4.966       64.519       43.911       26.992     4162.646     1928.215      728.558        1.226        0.341      132.933       31.667        0.057      334.601        4.680      865.068
01/31/2021  12:38:00       25.198        7.719       -9.442       62.788       62.091       34.892     3942.277     3855.348     1217.467        0.490        0.451       26.353       29.451        1.249      335.141        5.579      865.055
01/31/2021  12:39:00       34.388      -84.238      -14.297       62.959       55.113       42.149     3963.873     3037.448     1776.538        0.863        0.439       90.987       37.719        0.172      335.048        5.423      865.099
01/31/2021  12:40:00        5.512      -68.757       -3.748       36.094       34.621       28.712     1302.752     1198.587      824.376        0.405        0.166       68.978       14.125        0.042      335.304        5.849      865.133
01/31/2021  12:41:00      -16.320      -40.821       -1.195       41.805       45.766       23.717     1747.649     2094.497      562.511        0.317        0.220       43.963       19.300        0.193      335.401        6.011      865.129
01/31/2021  12:42:00       62.549      -12.042       -8.445       55.634       41.060       32.543     3095.089     1685.889     1059.026        0.498        0.292       63.698       28.227        0.196      334.995        5.335      865.107
01/31/2021  12:43:00       -0.580       47.939      -14.257       35.572       28.171       25.969     1265.377      793.609      674.383        0.262        0.137       47.942       19.523        0.166      335.076        5.470      865.079
01/31/2021  12:44:00        4.138       80.636       -5.436       24.821       39.077       19.987      616.095     1527.048      399.483        0.455        0.127       80.742       10.486        0.017      334.795        5.002      865.099
01/31/2021  12:45:00      -20.542       18.100       -8.038       34.648       22.659       17.380     1200.497      513.436      302.048        0.141        0.101       27.379        8.569        0.098      335.316        5.869      865.124
01/31/2021  12:46:00        9.064       40.286        7.486       34.771       37.480       21.704     1209.054     1404.730      471.069        0.242        0.154       41.293       16.272        0.155      335.067        5.456      865.146
01/31/2021  12:47:00       12.831       67.693        7.327       26.445       32.865       18.507      699.317     1080.090      342.514        0.346        0.106       68.898       13.683        0.039      335.041        5.412      865.161
01/31/2021  12:48:00        2.512       50.877       -7.420       20.779       33.438       13.000      431.759     1118.077      168.999        0.218        0.086       50.939        9.877        0.038      335.128        5.557      865.124
01/31/2021  12:49:00       69.106       73.631      -10.353       49.615       39.477       24.593     2461.660     1558.452      604.815        0.746        0.231      100.981       25.703        0.065      334.960        5.277      865.038
01/31/2021  12:50:00       76.603       21.817       -3.366       70.324       67.151       39.808     4945.523     4509.213     1584.694        0.870        0.552       79.650       24.529        0.095      335.332        5.897      864.946
01/31/2021  12:51:00      106.420       19.661      -18.022       63.986       67.852       43.948     4094.263     4603.839     1931.467        1.133        0.531      108.221       28.616        0.070      335.245        5.752      864.891
01/31/2021  12:52:00        0.268       29.766       -7.428       84.661       51.535       29.755     7167.416     2655.820      885.354        0.582        0.535       29.767       15.889        0.285      335.413        6.031      864.901
01/31/2021  12:53:00        8.071       13.428        0.758       46.440       36.617       29.488     2156.670     1340.768      869.530        0.231        0.218       15.667       27.729        3.133      335.511        6.194      864.967
01/31/2021  12:54:00      -40.994      -52.166        2.029       44.325       46.776       29.946     1964.688     2187.982      896.771        0.473        0.252       66.345       20.823        0.099      335.405        6.018      864.999
01/31/2021  12:55:00      -27.640      -52.414      -21.551       49.195       44.498       32.862     2420.110     1980.028     1079.933        0.473        0.274       59.255       21.133        0.127      335.409        6.022      865.014
01/31/2021  12:56:00      -43.307       -8.988      -16.154       37.992       25.229       22.992     1443.354      636.485      528.628        0.241        0.130       44.230       18.300        0.171      335.484        6.148      865.005
01/31/2021  12:57:00      -50.627        0.430       -1.100       43.760       22.135       20.849     1914.967      489.975      434.685        0.270        0.142       50.629       14.832        0.086      335.388        5.990      864.989
01/31/2021  12:58:00     -144.437       38.865       -4.091       66.868       41.362       34.278     4471.370     1710.785     1174.967        1.487        0.368      149.575       23.732        0.025      334.974        5.300      864.966
01/31/2021  12:59:00     -176.121       29.929       -8.431       56.332       40.789       28.389     3173.300     1663.765      805.951        1.881        0.282      178.646       26.218        0.022      334.934        5.233      864.956
01/31/2021  13:00:00      -66.794       20.067       -2.190       50.645       34.605       21.456     2564.873     1197.537      460.360        0.454        0.211       69.743       22.306        0.102      335.200        5.677      864.955
01/31/2021  13:01:00      -24.391       21.860       -4.512       25.010       25.393       18.452      625.499      644.813      340.478        0.135        0.081       32.753        8.789        0.072      335.369        5.957      864.967
01/31/2021  13:02:00      -18.441       12.164        3.268       19.448       24.582       21.628      378.240      604.293      467.750        0.097        0.073       22.091       11.816        0.286      335.398        6.006      864.973
01/31/2021  13:03:00      -66.286       33.716        2.501       64.854       50.437       20.187     4205.978     2543.853      407.503        0.635        0.358       74.369       21.267        0.082      335.505        6.183      864.972
01/31/2021  13:04:00      -37.430      -40.818       -5.650       48.765       67.022       29.110     2378.069     4492.002      847.396        0.541        0.386       55.381       26.923        0.236      335.530        6.225      864.967
01/31/2021  13:05:00      -88.248       27.935        2.597       43.371       34.411       27.471     1881.019     1184.149      754.632        0.620        0.191       92.564       20.860        0.051      335.004        5.350      864.972
01/31/2021  13:06:00      -33.292       25.594        4.862       25.117       36.864       17.235      630.877     1358.945      297.038        0.204        0.114       41.993       12.839        0.093      335.312        5.864      864.954
01/31/2021  13:07:00      -37.902      -24.968       -7.606       34.178       38.187       19.431     1168.135     1458.216      377.572        0.256        0.150       45.387       10.038        0.049      335.783        6.645      864.893
01/31/2021  13:08:00      -67.598      -43.347       -5.006       45.531       43.572       29.142     2073.036     1898.506      849.280        0.565        0.241       80.302       21.634        0.073      335.504        6.182      864.845
01/31/2021  13:09:00      -53.116      -38.052       -8.916       76.228       59.416       46.542     5810.687     3530.256     2166.132        0.793        0.575       65.339       29.290        0.201      335.317        5.868      864.784
01/31/2021  13:10:00      -73.887      -60.542       -0.598       57.208       62.886       33.950     3272.745     3954.696     1152.601        0.875        0.419       95.523       15.016        0.025      335.219        5.708      864.742
01/31/2021  13:11:00      -49.203      -28.970       -2.043       52.686       38.406       30.577     2775.806     1475.038      934.953        0.422        0.259       57.098       23.663        0.172      335.441        6.077      864.741
01/31/2021  13:12:00      -58.687      -60.987      -19.290       66.110       77.246       43.513     4370.496     5966.885     1893.396        0.988        0.612       84.638       27.767        0.108      335.516        6.203      864.760
01/31/2021  13:13:00      -60.533      -66.211      -20.343       69.836       36.195       36.795     4877.058     1310.100     1353.841        0.800        0.377       89.711       13.068        0.021      335.502        6.180      864.753
01/31/2021  13:14:00      -35.336     -103.961      -47.515       75.156       47.769       35.525     5648.407     2281.855     1262.019        1.175        0.460      109.802       29.608        0.073      335.367        5.954      864.722
01/31/2021  13:15:00      -27.552      -11.811        0.675       65.300       61.882       38.143     4264.034     3829.401     1454.852        0.522        0.477       29.977       37.129        1.534      335.284        5.816      864.654
01/31/2021  13:16:00        3.947       -8.765      -18.185       66.888       55.421       28.061     4474.006     3071.542      787.413        0.438        0.417        9.613       20.156        4.396      335.406        6.018      864.612
01/31/2021  13:17:00        4.221      -21.486      -12.231       48.621       27.085       21.439     2363.968      733.608      459.639        0.209        0.178       21.896       10.350        0.223      335.408        6.023      864.635
01/31/2021  13:18:00       17.275      -12.182      -21.852       39.218       63.072       26.952     1538.018     3978.033      726.391        0.358        0.312       21.138       26.672        1.592      335.273        5.799      864.686
01/31/2021  13:19:00        0.334      -39.461      -17.485       33.026       44.178       33.329     1090.739     1951.666     1110.799        0.301        0.208       39.462       20.837        0.279      335.536        6.237      864.700
01/31/2021  13:20:00       -5.435      -13.132       -6.583       37.457       34.070       22.656     1403.041     1160.786      513.280        0.166        0.154       14.212       12.281        0.747      335.533        6.229      864.641
01/31/2021  13:21:00      -33.429       30.352       15.005       37.346       53.814       23.801     1394.736     2895.933      566.508        0.356        0.243       45.153       21.203        0.221      335.615        6.366      864.536
01/31/2021  13:22:00       21.859      -53.002      -18.031       42.377       55.470       21.321     1795.814     3076.930      454.580        0.447        0.266       57.333       17.755        0.096      335.584        6.315      864.469
01/31/2021  13:23:00      -32.450        1.481        3.059       27.960       33.972       36.113      781.779     1154.104     1304.126        0.215        0.162       32.484       23.825        0.538      336.006        7.018      864.502
01/31/2021  13:24:00      -21.312      -11.338       -7.752       38.272       44.240       32.484     1464.780     1957.146     1055.221        0.256        0.224       24.140       33.420        1.917      335.716        6.536      864.568
01/31/2021  13:25:00      -11.443      -10.749      -14.638       35.877       46.540       23.158     1287.147     2165.951      536.311        0.222        0.199       15.700       22.126        1.986      335.663        6.446      864.617
01/31/2021  13:26:00      -33.034       -0.403       -0.182       64.826       52.057       31.095     4202.380     2709.947      966.898        0.448        0.394       33.036       28.915        0.766      335.585        6.317      864.606
01/31/2021  13:27:00      -14.361      -24.169       -5.596       63.582       71.776       36.663     4042.610     5151.741     1344.172        0.568        0.527       28.113       20.404        0.527      335.559        6.272      864.530
01/31/2021  13:28:00      108.720      -76.164      -26.855       38.423       36.160       28.746     1476.289     1307.520      826.351        1.098        0.181      132.744       19.565        0.022      335.172        5.629      864.470
01/31/2021  13:29:00       22.720     -116.549      -14.965       48.947       47.594       33.103     2395.826     2265.160     1095.785        1.004        0.288      118.743       27.746        0.055      335.463        6.114      864.507
01/31/2021  13:30:00      -39.570      -91.167      -36.307       94.701       52.414       36.407     8968.286     2747.227     1325.443        1.212        0.652       99.384       19.828        0.040      335.362        5.945      864.597
01/31/2021  13:31:00     -220.375      -63.587      -32.798       72.273       49.563       49.376     5223.367     2456.536     2437.968        3.190        0.506      229.366       28.853        0.016      335.194        5.664      864.654
01/31/2021  13:32:00     -162.655      -51.441      -16.470       42.345       87.153       32.950     1793.111     7595.615     1085.730        1.992        0.524      170.595       23.346        0.019      335.297        5.834      864.669
01/31/2021  13:33:00      -67.614      -27.298        1.247       56.034       82.762       36.436     3139.787     6849.623     1327.568        0.832        0.566       72.917       39.916        0.300      335.510        6.192      864.632
01/31/2021  13:34:00      -20.536      -19.582       -2.267       71.881       55.406       33.918     5166.933     3069.832     1150.464        0.510        0.469       28.376       20.629        0.529      335.575        6.299      864.538
01/31/2021  13:35:00      -66.853      -34.950      -19.133       48.025       49.241       30.179     2306.360     2424.693      910.769        0.585        0.282       75.438       27.652        0.134      335.484        6.148      864.425
01/31/2021  13:36:00      -37.033      -10.447       12.249       40.754       54.521       35.427     1660.859     2972.552     1255.105        0.376        0.294       38.478       22.272        0.335      335.714        6.532      864.375
01/31/2021  13:37:00      -36.848      -33.593       -2.962       67.377       39.017       30.428     4539.627     1522.291      925.873        0.474        0.349       49.863       13.336        0.072      335.783        6.648      864.440
01/31/2021  13:38:00      -34.723      -33.763        4.709       84.638       58.897       39.406     7163.635     3468.861     1552.842        0.727        0.609       48.431       25.660        0.281      335.731        6.559      864.499
01/31/2021  13:39:00     -151.321      -59.912       -6.496       96.583       58.144       44.717     9328.360     3380.685     1999.599        2.062        0.735      162.750       46.135        0.080      335.278        5.804      864.536
01/31/2021  13:40:00     -117.530      -13.725        0.875      101.407       54.266       41.853    10283.413     2944.786     1751.636        1.449        0.749      118.328       43.928        0.138      335.078        5.472      864.534
01/31/2021  13:41:00       -5.110       45.750        1.554       65.225       53.934       30.574     4254.254     2908.837      934.784        0.511        0.405       46.034       15.661        0.116      335.602        6.345      864.465
01/31/2021  13:42:00      -28.469       75.883       -3.489       57.493       45.087       28.703     3305.429     2032.806      823.886        0.637        0.308       81.048       21.373        0.070      335.496        6.168      864.384
01/31/2021  13:43:00      -36.226       21.873       -3.209       53.248       55.683       31.569     2835.374     3100.542      996.590        0.437        0.347       42.317       17.765        0.176      335.564        6.284      864.375
01/31/2021  13:44:00     -174.367       -9.432      -10.210       93.818       50.790       38.499     8801.756     2579.647     1482.210        2.173        0.643      174.622       38.992        0.050      335.198        5.673      864.446
01/31/2021  13:45:00     -193.701       -1.405      -18.607       77.958       45.780       36.269     6077.378     2095.846     1315.428        2.368        0.474      193.706       23.111        0.014      335.022        5.379      864.492
01/31/2021  13:46:00     -134.288       16.096       -3.125       83.566       73.141       42.389     6983.331     5349.588     1796.804        1.621        0.706      135.249       42.781        0.100      335.186        5.651      864.478
01/31/2021  13:47:00     -115.582      -29.320       -6.408       70.967       58.637       33.189     5036.313     3438.252     1101.485        1.192        0.479      119.243       32.203        0.073      335.149        5.591      864.441
01/31/2021  13:48:00      -28.688       -3.915       -7.692       43.222       41.562       27.783     1868.133     1727.393      771.914        0.263        0.218       28.954       16.558        0.327      335.240        5.742      864.379
01/31/2021  13:49:00      -14.755       31.296       -6.225       29.364       32.526       22.125      862.233     1057.928      489.524        0.182        0.120       34.600        8.249        0.057      335.345        5.918      864.329
01/31/2021  13:50:00      -58.074      -60.811      -16.316       31.409       21.008       20.707      986.546      441.319      428.763        0.460        0.093       84.086       17.572        0.044      335.101        5.513      864.312
01/31/2021  13:51:00      -30.289      -22.514      -11.813       29.106       33.720       20.655      847.143     1137.051      426.610        0.199        0.121       37.740       11.786        0.098      335.301        5.844      864.377
01/31/2021  13:52:00      -80.784      -18.473       -3.313       98.847       39.195       24.662     9770.782     1536.271      608.207        0.939        0.596       82.869       23.190        0.078      335.340        5.909      864.455
01/31/2021  13:53:00     -136.389      -21.270       -3.042       50.492       42.969       31.302     2549.469     1846.374      979.832        1.222        0.269      138.037       23.590        0.029      335.466        6.118      864.510
01/31/2021  13:54:00      -87.076      -48.178       -9.941       53.142       51.934       29.736     2824.065     2697.118      884.256        0.820        0.320       99.515       26.411        0.070      335.656        6.435      864.504
01/31/2021  13:55:00      -21.538      -26.146       -1.994       30.750       42.498       21.766      945.543     1806.051      473.773        0.219        0.161       33.875       16.473        0.236      335.595        6.333      864.441
01/31/2021  13:56:00      -34.472       40.781       -6.205       42.837       17.401       21.715     1834.967      302.794      471.562        0.275        0.130       53.399        9.338        0.031      335.636        6.402      864.338
01/31/2021  13:57:00      -74.016       18.712       -5.571       48.524       40.411       25.797     2354.598     1633.010      665.500        0.526        0.233       76.345       24.480        0.103      335.365        5.951      864.265
01/31/2021  13:58:00      -76.710       22.094       -9.604       65.821       38.751       23.655     4332.375     1501.656      559.557        0.643        0.320       79.829       19.657        0.061      335.652        6.428      864.305
01/31/2021  13:59:00      -75.112        7.027       -4.379       98.012       41.267       39.841     9606.352     1702.954     1587.285        0.930        0.645       75.440       40.235        0.284      335.606        6.353      864.398
01/31/2021  14:00:00      -79.100       41.268        8.727       65.192       43.090       36.544     4249.963     1856.761     1335.497        0.774        0.372       89.218       35.904        0.162      335.660        6.441      864.463
01/31/2021  14:01:00      -64.041       23.363      -13.029       53.481       45.454       23.183     2860.210     2066.067      537.465        0.514        0.273       68.169       19.167        0.079      335.878        6.805      864.439
01/31/2021  14:02:00      -42.957       18.300      -13.513       63.577       24.495       25.292     4042.097      600.026      639.692        0.382        0.264       46.693       15.636        0.112      335.632        6.396      864.374
01/31/2021  14:03:00      -16.056      163.939      -13.695       50.930       60.137       26.184     2593.865     3616.461      685.585        1.711        0.345      164.724       21.032        0.016      335.401        6.008      864.336
01/31/2021  14:04:00       45.758      187.955      -14.449       30.149       43.301       18.888      908.976     1874.960      356.741        2.038        0.157      193.445       15.291        0.006      335.171        5.626      864.344
01/31/2021  14:05:00       51.185      161.781      -19.866       25.651       38.066       22.690      657.980     1449.021      514.839        1.590        0.131      169.685       16.535        0.009      335.217        5.706      864.373
01/31/2021  14:06:00      -34.456      161.914      -24.751       33.872       33.491       19.885     1147.345     1121.639      395.408        1.534        0.133      165.540        5.170        0.001      335.249        5.759      864.370
01/31/2021  14:07:00      -23.120      100.200      -10.932       43.844       67.445       19.885     1922.311     4548.779      395.423        0.878        0.343      102.833       12.398        0.015      335.423        6.048      864.354
01/31/2021  14:08:00       17.638      146.344      -13.974       45.277       34.024       23.628     2050.017     1157.615      558.264        1.284        0.188      147.403       26.798        0.033      335.644        6.414      864.346
01/31/2021  14:09:00       11.511       48.120       -7.384       65.346       57.842       24.082     4270.099     3345.708      579.939        0.535        0.410       49.478       14.540        0.086      335.940        6.908      864.354
01/31/2021  14:10:00      -54.836       11.336      -14.626       51.815       44.304       31.302     2684.776     1962.858      979.836        0.449        0.281       55.996       17.321        0.096      335.745        6.584      864.342
01/31/2021  14:11:00       58.987       61.967       -1.776       72.200       30.972       26.082     5212.902      959.247      680.294        0.709        0.343       85.554       27.291        0.102      335.519        6.206      864.272
01/31/2021  14:12:00       85.229       88.259      -11.350       67.560       43.951       29.427     4564.332     1931.706      865.926        1.127        0.368      122.693       16.176        0.017      335.489        6.156      864.194
01/31/2021  14:13:00       52.735       87.756      -12.180       52.600       44.083       31.148     2766.791     1943.278      970.179        0.815        0.284      102.383       23.206        0.051      335.510        6.190      864.197
01/31/2021  14:14:00       33.271        7.140       -9.166       31.251       27.612       19.645      976.646      762.407      385.930        0.168        0.106       34.028       12.367        0.132      335.464        6.114      864.241
01/31/2021  14:15:00       20.326      -51.115        5.654       45.406       69.812       34.711     2061.698     4873.718     1204.851        0.560        0.407       55.008       30.981        0.317      335.909        6.857      864.281
01/31/2021  14:16:00       10.618      -38.924       -0.683       43.330       48.028       33.188     1877.515     2306.704     1101.436        0.346        0.264       40.346       16.776        0.173      335.981        6.976      864.296
01/31/2021  14:17:00      -13.806        6.379       -8.046       51.626       59.107       25.354     2665.198     3493.621      642.843        0.355        0.340       15.208       22.975        2.282      335.680        6.476      864.254
01/31/2021  14:18:00       38.577      106.424      -17.256       48.589       33.313       19.539     2360.915     1109.781      381.783        0.848        0.193      113.200       15.698        0.019      335.551        6.260      864.177
01/31/2021  14:19:00       27.091       16.518       -2.579       46.949       36.612       24.125     2204.203     1340.441      582.008        0.257        0.206       31.730       21.251        0.449      335.678        6.471      864.122
01/31/2021  14:20:00       -6.878       -9.762        9.878       30.382       26.763       26.800      923.079      716.252      718.223        0.130        0.118       11.942       18.795        2.477      336.041        7.076      864.148
01/31/2021  14:21:00      -21.455      -79.243      -23.577       52.061       34.141       26.430     2710.330     1165.610      698.528        0.593        0.229       82.096       21.688        0.070      335.927        6.888      864.251
01/31/2021  14:22:00      -86.931        9.112       -6.876       65.042       38.536       32.910     4230.499     1484.990     1083.049        0.724        0.340       87.407       26.235        0.090      336.036        7.069      864.330
01/31/2021  14:23:00      -29.554       -2.041       -1.654       61.287       34.582       25.815     3756.141     1195.914      666.435        0.325        0.281       29.624       20.322        0.471      336.189        7.323      864.339
01/31/2021  14:24:00      -24.098       18.518       -9.754       35.382       41.857       29.438     1251.853     1752.023      866.619        0.244        0.194       30.391       23.055        0.575      335.905        6.851      864.273
01/31/2021  14:25:00       29.669       15.095        9.196       39.794       37.819       26.901     1583.550     1430.285      723.659        0.246        0.187       33.288       23.096        0.481      335.814        6.699      864.203
01/31/2021  14:26:00       12.815       12.644        3.044       40.324       23.900       23.203     1625.996      571.219      538.390        0.153        0.137       18.003       20.672        1.318      335.888        6.824      864.205
01/31/2021  14:27:00       -8.513        2.504       -9.607       51.893       35.744       26.896     2692.934     1277.628      723.412        0.243        0.235        8.874       15.849        3.190      336.144        7.249      864.279
01/31/2021  14:28:00      -72.941       -0.394        6.587       81.299       46.372       38.085     6609.527     2150.359     1450.477        0.778        0.511       72.942       27.004        0.137      335.944        6.914      864.352
01/31/2021  14:29:00      -99.369      -80.533       -1.487       54.127       66.488       29.766     2929.723     4420.680      886.000        1.230        0.412      127.905       21.706        0.029      335.653        6.428      864.386
01/31/2021  14:30:00     -124.411      -95.462      -27.554       47.538       62.280       34.781     2259.860     3878.825     1209.697        1.635        0.367      156.816       28.718        0.034      335.652        6.427      864.341
01/31/2021  14:31:00     -158.498       30.888      -12.187       61.978       48.971       31.329     3841.222     2398.142      981.504        1.672        0.361      161.479       17.395        0.012      335.539        6.239      864.293
01/31/2021  14:32:00     -167.396       81.214      -10.505       45.735       37.390       31.406     2091.698     1397.980      986.326        1.960        0.224      186.057       23.565        0.016      335.612        6.361      864.262
01/31/2021  14:33:00      -91.374       -5.576        6.702       69.646       58.753       34.654     4850.616     3451.878     1200.920        0.896        0.475       91.544       28.873        0.099      336.067        7.118      864.273
01/31/2021  14:34:00      -34.590       -9.608        8.365       55.343       59.364       35.409     3062.845     3524.043     1253.820        0.460        0.392       35.900       21.305        0.352      335.926        6.885      864.308
01/31/2021  14:35:00     -110.703      -39.459      -19.581       60.771       62.685       31.801     3693.160     3929.351     1011.306        1.141        0.432      117.526       19.432        0.027      335.837        6.737      864.345
01/31/2021  14:36:00     -107.210      -46.725      -11.112       56.481       60.048       29.035     3190.141     3605.821      843.057        1.072        0.382      116.949       22.881        0.038      335.957        6.937      864.367
01/31/2021  14:37:00     -130.294       -7.401      -12.068       70.481       50.382       34.474     4967.590     2538.312     1188.451        1.293        0.435      130.504       26.285        0.041      335.752        6.595      864.356
01/31/2021  14:38:00     -112.706      -50.493       -3.706       50.311       64.310       27.266     2531.146     4135.813      743.460        1.134        0.371      123.500       24.605        0.040      335.583        6.313      864.311
01/31/2021  14:39:00      -67.211      -47.432      -10.121       68.370       52.790       31.798     4674.431     2786.808     1011.093        0.767        0.424       82.262       22.625        0.076      335.704        6.515      864.267
01/31/2021  14:40:00      -60.081      -44.914      -17.511       43.073       56.000       24.719     1855.290     3135.971      611.034        0.577        0.280       75.013       22.512        0.090      335.588        6.321      864.248
01/31/2021  14:41:00      -15.655      -39.487      -12.771       57.932       43.820       30.199     3356.069     1920.157      911.993        0.408        0.309       42.477       18.049        0.181      335.910        6.858      864.266
01/31/2021  14:42:00      -59.080      -70.819      -24.899       50.299       43.347       26.760     2530.017     1878.988      716.074        0.712        0.256       92.227       17.515        0.036      335.771        6.626      864.293
01/31/2021  14:43:00      -56.249      -20.528      -14.487       61.240       56.194       38.270     3750.303     3157.815     1464.625        0.608        0.419       59.878       24.289        0.165      336.032        7.062      864.318
01/31/2021  14:44:00     -134.851      -34.747       -1.075       91.823       58.369       41.170     8431.403     3406.958     1695.008        1.646        0.677      139.255       36.007        0.067      335.665        6.450      864.343
01/31/2021  14:45:00     -115.003      -50.895       -7.884       58.233       50.481       27.301     3391.085     2548.306      745.335        1.128        0.334      125.761       28.882        0.053      335.556        6.267      864.335
01/31/2021  14:46:00      -73.075        5.315       -7.278       46.027       37.099       28.730     2118.497     1376.316      825.386        0.487        0.216       73.268       19.957        0.074      335.811        6.695      864.291
01/31/2021  14:47:00      -92.749       28.819       -5.058       54.849       38.508       28.287     3008.447     1482.864      800.176        0.737        0.265       97.123       21.089        0.047      335.775        6.634      864.246
01/31/2021  14:48:00      -66.680       10.906        7.421       60.568       60.787       40.521     3668.493     3695.108     1641.976        0.681        0.450       67.566       37.517        0.308      336.163        7.278      864.224
01/31/2021  14:49:00      -55.377       -5.402        4.711       58.427       57.292       34.774     3413.752     3282.319     1209.232        0.551        0.395       55.640       25.357        0.208      335.910        6.859      864.236
01/31/2021  14:50:00      -58.221       -2.974        3.937       75.940       54.808       36.552     5766.906     3003.917     1336.065        0.676        0.505       58.297       31.830        0.298      335.879        6.806      864.265
01/31/2021  14:51:00       -8.258        9.821       -2.035       38.515       34.592       26.789     1483.415     1196.607      717.670        0.178        0.170       12.831       18.127        1.996      335.985        6.984      864.287
01/31/2021  14:52:00      -75.780        2.404       -5.515       86.572       48.836       38.668     7494.760     2384.924     1495.226        0.857        0.569       75.818       36.844        0.236      335.862        6.777      864.281
01/31/2021  14:53:00      -30.754      -18.779        1.548       50.709       42.047       23.716     2571.352     1767.956      562.463        0.310        0.245       36.034       10.107        0.079      336.003        7.012      864.265
01/31/2021  14:54:00     -100.608     -115.585      -13.251       46.227       23.882       19.501     2136.954      570.355      380.283        1.337        0.154      153.238        5.548        0.001      335.498        6.172      864.236
01/31/2021  14:55:00      -45.968      -61.288       -6.728       53.023       56.514       30.735     2811.405     3193.848      944.654        0.643        0.347       76.611       23.728        0.096      335.986        6.986      864.201
01/31/2021  14:56:00      -75.666        9.464       -1.451       53.206       37.322       27.997     2830.852     1392.968      783.860        0.541        0.250       76.255       20.169        0.070      335.906        6.853      864.192
01/31/2021  14:57:00      -94.195      -47.670      -15.355       63.231       54.506       35.179     3998.098     2970.950     1237.570        0.979        0.410      105.570       13.067        0.015      335.895        6.834      864.243
01/31/2021  14:58:00      -65.457      -76.305       -7.650       66.013       66.668       39.993     4357.659     4444.668     1599.440        1.028        0.520      100.534       32.610        0.105      335.739        6.572      864.308
01/31/2021  14:59:00     -137.491      -55.909      -15.592       72.554       57.791       34.960     5264.084     3339.785     1222.212        1.605        0.491      148.423       37.166        0.063      335.662        6.444      864.314
01/31/2021  15:00:00     -139.015       -7.818      -18.478       74.960       73.576       38.654     5618.998     5413.398     1494.162        1.612        0.626      139.235       20.554        0.022      335.696        6.501      864.254
01/31/2021  15:01:00      -48.791      -11.180        1.227       56.115       44.975       33.436     3148.898     2022.736     1117.992        0.440        0.314       50.056       23.290        0.216      336.055        7.100      864.212
01/31/2021  15:02:00      -29.010      -11.815      -15.017       41.664       37.454       31.013     1735.889     1402.781      961.823        0.265        0.205       31.324       22.883        0.534      336.019        7.039      864.238
01/31/2021  15:03:00      -29.375       -4.345       -2.893       58.002       35.160       29.244     3364.276     1236.233      855.195        0.317        0.273       29.695       16.830        0.321      335.942        6.912      864.297
01/31/2021  15:04:00      -92.300      -68.690      -10.509       63.464       57.475       41.721     4027.739     3303.355     1740.673        1.121        0.454      115.054       13.027        0.013      335.724        6.548      864.326
01/31/2021  15:05:00      -42.671      -63.082       -6.983       64.276       67.791       35.290     4131.413     4595.647     1245.409        0.791        0.499       76.159       15.244        0.040      335.819        6.705      864.294
01/31/2021  15:06:00      -13.583      -37.738      -18.918       51.087       31.561       29.581     2609.903      996.114      875.058        0.322        0.224       40.108       16.137        0.162      335.864        6.783      864.230
01/31/2021  15:07:00       -6.373       -3.790        7.048       58.201       48.714       33.545     3387.342     2373.071     1125.265        0.349        0.344        7.415       24.292       10.733      336.026        7.051      864.185
01/31/2021  15:08:00      -44.630        8.407       -6.888       43.584       24.972       24.841     1899.553      623.602      617.100        0.262        0.157       45.415       16.096        0.126      335.719        6.541      864.199
01/31/2021  15:09:00     -100.812       -5.363        3.416       79.283       55.313       40.247     6285.769     3059.517     1619.810        1.058        0.548      100.955       32.480        0.104      335.857        6.769      864.228
01/31/2021  15:10:00      -81.923       -7.397        3.807      100.582       49.438       37.428    10116.672     2444.160     1400.888        1.037        0.698       82.256       45.809        0.310      335.805        6.683      864.241
01/31/2021  15:11:00      -28.582       -3.301       -4.042       75.972       45.461       24.919     5771.687     2066.703      620.951        0.465        0.423       28.772        6.840        0.057      335.999        7.006      864.219
01/31/2021  15:12:00      -16.145      -30.848      -10.344       44.401       35.142       25.698     1971.437     1234.974      660.389        0.259        0.193       34.818       17.648        0.257      336.132        7.229      864.185
01/31/2021  15:13:00      -24.782       -9.957        5.435       54.071       31.176       24.695     2923.710      971.972      609.863        0.262        0.225       26.707       17.624        0.435      336.174        7.298      864.177
01/31/2021  15:14:00        2.773      -29.651      -10.981       65.004       54.904       32.620     4225.474     3014.430     1064.074        0.465        0.415       29.780       20.067        0.454      336.024        7.049      864.183
01/31/2021  15:15:00      -29.015      -66.611      -19.927       59.346       35.557       29.547     3521.930     1264.326      873.006        0.567        0.283       72.656       25.237        0.121      335.980        6.974      864.164
01/31/2021  15:16:00      -39.791      -41.906      -12.129       45.461       51.941       30.603     2066.661     2697.874      936.574        0.459        0.285       57.788       23.997        0.172      335.936        6.901      864.155
01/31/2021  15:17:00      -14.971      -28.060       -5.610       46.909       34.692       26.918     2200.483     1203.524      724.588        0.258        0.206       31.804       11.574        0.132      336.076        7.135      864.138
01/31/2021  15:18:00      -24.060      -14.348      -20.636       42.352       38.851       21.545     1793.727     1509.417      464.173        0.249        0.188       28.014       14.087        0.253      336.104        7.181      864.114
01/31/2021  15:19:00      -16.719        1.064      -10.674       50.158       38.190       22.592     2515.867     1458.499      510.410        0.244        0.224       16.753        8.408        0.252      336.159        7.274      864.083
01/31/2021  15:20:00        0.587       -6.428       -3.218       30.405       22.751       18.146      924.464      517.622      329.294        0.091        0.089        6.455       11.552        3.203      336.248        7.421      864.068
01/31/2021  15:21:00        9.052       -6.560       -1.319       37.060       20.181       24.231     1373.475      407.293      587.136        0.125        0.118       11.179       20.099        3.233      336.431        7.728      864.073
01/31/2021  15:22:00      -53.297       -4.116       -3.984       45.162       37.491       31.848     2039.629     1405.593     1014.298        0.367        0.223       53.456       19.158        0.128      335.970        6.959      864.072
01/31/2021  15:23:00      -32.011       -6.011        5.152       63.231       39.571       26.056     3998.172     1565.829      678.902        0.366        0.312       32.571        4.515        0.019      336.128        7.222      864.076
01/31/2021  15:24:00      -59.674      -16.882       -0.971       81.556       54.534       36.687     6651.338     2973.911     1345.924        0.741        0.549       62.016       32.924        0.282      336.047        7.087      864.062
01/31/2021  15:25:00      -79.818       23.220        7.099       73.547       42.832       29.596     5409.161     1834.568      875.903        0.754        0.406       83.127       30.573        0.135      335.993        6.997      864.052
01/31/2021  15:26:00      -86.860       19.193       -5.438       56.520       45.690       30.826     3194.493     2087.561      950.251        0.709        0.312       88.955       22.741        0.065      335.932        6.896      864.028
01/31/2021  15:27:00      -85.936       27.312       -0.654       53.843       42.101       29.991     2899.016     1772.524      899.477        0.685        0.279       90.172       18.690        0.043      335.940        6.909      864.019
01/31/2021  15:28:00      -78.585      -18.050      -13.693       62.005       42.964       28.411     3844.609     1845.941      807.161        0.659        0.325       80.631       18.160        0.051      336.181        7.311      864.031
01/31/2021  15:29:00      -77.864      -14.338       -6.698       78.187       44.961       36.389     6113.259     2021.482     1324.185        0.788        0.473       79.173       33.293        0.177      336.088        7.155      864.051
01/31/2021  15:30:00     -142.374        1.286       -0.630      101.534       54.020       43.741    10309.254     2918.184     1913.256        1.770        0.757      142.380       49.835        0.123      335.841        6.742      864.053
01/31/2021  15:31:00      -83.389      -28.321      -12.855       60.292       58.641       32.277     3635.155     3438.817     1041.825        0.802        0.406       88.067       13.545        0.024      336.005        7.016      864.028
01/31/2021  15:32:00      -84.715        2.103      -13.701       45.387       38.761       20.512     2059.991     1502.404      420.757        0.568        0.199       84.741       12.819        0.023      335.618        6.372      864.001
01/31/2021  15:33:00     -131.011       -4.876      -12.101       66.143       41.951       31.000     4374.888     1759.858      961.030        1.221        0.355      131.102       25.837        0.039      335.892        6.827      863.982
01/31/2021  15:34:00     -112.078       19.900      -15.977       47.888       41.655       26.216     2293.244     1735.143      687.300        0.896        0.236      113.831       25.808        0.051      335.853        6.763      863.980
01/31/2021  15:35:00        4.122      -30.583       -5.081       51.754       33.733       26.732     2678.521     1137.936      714.625        0.275        0.227       30.860       17.142        0.309      336.039        7.074      863.983
01/31/2021  15:36:00      -64.023      -44.808      -21.269       56.630       43.489       25.409     3207.010     1891.329      645.641        0.615        0.287       78.145       21.171        0.073      335.986        6.987      864.004
01/31/2021  15:37:00      -61.000      -43.811      -15.987       54.805       43.917       24.165     3003.619     1928.738      583.959        0.570        0.276       75.103       17.741        0.056      335.946        6.919      864.030
01/31/2021  15:38:00       -0.423      -39.681        5.772       46.423       32.878       28.959     2155.068     1080.993      838.645        0.284        0.204       39.683       12.206        0.095      336.153        7.263      864.011
01/31/2021  15:39:00      -28.394      -30.882      -16.611       38.625       37.634       27.652     1491.901     1416.332      764.609        0.285        0.184       41.952       22.776        0.295      336.034        7.066      863.971
01/31/2021  15:40:00      -34.747      -16.459      -14.033       39.046       37.531       20.130     1524.564     1408.598      405.208        0.251        0.167       38.448       18.794        0.239      336.194        7.332      863.948
01/31/2021  15:41:00      -52.986      -18.779       -6.704       60.847       37.403       28.645     3702.320     1399.020      820.529        0.456        0.296       56.215       15.890        0.080      336.277        7.470      863.934
01/31/2021  15:42:00     -105.010      -17.475       -1.035       80.648       43.590       31.577     6504.134     1900.102      997.111        1.037        0.470      106.455       30.604        0.083      336.021        7.044      863.938
01/31/2021  15:43:00      -63.150       -8.200        6.195       68.452       43.217       22.111     4685.657     1867.716      488.881        0.557        0.352       63.680       10.930        0.029      336.045        7.083      863.973
01/31/2021  15:44:00      -58.844      -13.583       -7.628       68.616       58.676       35.997     4708.144     3442.821     1295.754        0.657        0.472       60.391       16.691        0.076      336.237        7.405      863.980
01/31/2021  15:45:00     -102.522      -10.581        4.985       68.599       51.848       32.847     4705.840     2688.215     1078.904        0.956        0.424      103.066       25.895        0.063      336.019        7.039      863.970
01/31/2021  15:46:00      -82.054      -48.573       -8.996       50.382       43.561       29.605     2538.334     1897.568      876.466        0.724        0.266       95.353       16.313        0.029      336.158        7.272      863.955
01/31/2021  15:47:00     -137.641      -36.075      -11.881       95.942       50.529       37.346     9204.907     2553.137     1394.755        1.677        0.658      142.290       42.029        0.087      336.032        7.063      863.958
01/31/2021  15:48:00     -141.580      -31.960        3.617      114.861       61.536       46.038    13192.976     3786.737     2119.504        2.009        0.955      145.143       48.167        0.110      335.963        6.944      863.971
01/31/2021  15:49:00     -207.808      -67.852      -24.784       52.512       43.253       31.718     2757.460     1870.789     1006.040        2.702        0.282      218.605       16.176        0.005      335.676        6.465      863.967
01/31/2021  15:50:00      -97.974      -20.473      -11.753       65.181       39.290       31.565     4248.527     1543.695      996.339        0.847        0.339      100.091       26.214        0.069      336.025        7.050      863.936
01/31/2021  15:51:00      -63.013        1.819      -11.420       44.826       40.379       20.368     2009.329     1630.437      414.847        0.408        0.203       63.040        6.094        0.009      335.979        6.974      863.913
01/31/2021  15:52:00     -120.768       35.121      -27.108       34.872       26.761       19.449     1216.025      716.155      378.261        0.943        0.116      125.771       14.886        0.014      335.797        6.670      863.898
01/31/2021  15:53:00      -65.449       -1.483      -14.561       40.223       35.711       17.512     1617.887     1275.249      306.657        0.385        0.160       65.466       13.859        0.045      336.109        7.191      863.882
01/31/2021  15:54:00      -16.820       13.653       -1.751       62.578       47.494       36.754     3916.043     2255.637     1350.829        0.400        0.376       21.663       28.132        1.686      336.271        7.459      863.873
01/31/2021  15:55:00      -60.757       13.783        2.639       59.542       32.526       28.989     3545.207     1057.950      840.383        0.466        0.272       62.300       16.841        0.073      336.086        7.152      863.860
01/31/2021  15:56:00      -37.973      -24.558      -12.499       61.174       45.602       27.628     3742.222     2079.514      763.310        0.439        0.329       45.222       12.017        0.071      336.041        7.076      863.849
01/31/2021  15:57:00      -82.748      -34.376      -16.192       51.893       41.798       28.623     2692.839     1747.085      819.271        0.677        0.263       89.604       20.924        0.055      336.050        7.092      863.843
01/31/2021  15:58:00      -21.792       -7.928      -12.453       69.158       79.229       42.485     4782.810     6277.214     1804.960        0.678        0.643       23.189       38.377        2.739      336.046        7.084      863.847
01/31/2021  15:59:00       24.308      -14.505       11.409       36.799       43.069       32.321     1354.160     1854.920     1044.618        0.259        0.213       28.307       21.246        0.563      336.287        7.489      863.860
01/31/2021  16:00:00      -39.335        4.371       -2.650       58.055       52.514       28.846     3370.367     2757.732      832.090        0.427        0.348       39.577       17.320        0.192      336.238        7.405      863.862
01/31/2021  16:01:00      -61.419       -3.657        1.584       82.344       43.220       34.011     6780.487     1867.970     1156.754        0.679        0.490       61.528       39.909        0.421      336.032        7.063      863.854
01/31/2021  16:02:00      -46.167      -16.411        3.529       86.934       47.491       31.444     7557.451     2255.427      988.742        0.661        0.540       48.997       22.062        0.203      336.047        7.088      863.852
01/31/2021  16:03:00      -34.253       11.751        6.930       51.542       45.632       34.394     2656.628     2082.238     1182.971        0.364        0.296       36.213       23.955        0.438      336.200        7.343      863.856
01/31/2021  16:04:00      -81.893       13.530        4.690       69.016       56.656       33.457     4763.168     3209.946     1119.365        0.800        0.455       83.003       28.705        0.120      336.052        7.095      863.866
01/31/2021  16:05:00     -105.608      -35.173      -15.536       67.533       36.105       30.204     4560.719     1303.557      912.271        0.970        0.339      111.311       26.440        0.056      336.102        7.178      863.866
01/31/2021  16:06:00     -175.391      -42.216      -19.940       89.462       40.500       33.130     8003.450     1640.248     1097.569        2.184        0.537      180.400       31.619        0.031      335.825        6.713      863.857
01/31/2021  16:07:00      -81.570      -25.178      -14.360       70.337       65.823       31.590     4947.287     4332.624      997.957        0.888        0.514       85.367       28.995        0.115      335.877        6.803      863.832
01/31/2021  16:08:00      -65.345      -11.696        5.651       74.710       45.620       26.342     5581.634     2081.207      693.920        0.640        0.418       66.384       16.301        0.060      335.928        6.889      863.773
01/31/2021  16:09:00      -34.074      -33.994       -7.275       39.650       52.857       25.915     1572.132     2793.891      671.608        0.370        0.252       48.132       12.603        0.069      336.026        7.051      863.749
01/31/2021  16:10:00      -46.201      -45.746       -1.296       58.489       58.015       24.029     3420.928     3365.753      577.382        0.579        0.368       65.017       21.020        0.105      336.008        7.022      863.761
01/31/2021  16:11:00     -100.535      -61.518      -11.819       43.524       35.698       25.799     1894.325     1274.366      665.597        0.893        0.192      117.864       14.307        0.015      335.886        6.818      863.771
01/31/2021  16:12:00      -17.632      -31.165        1.549       71.931       44.650       27.920     5174.003     1993.580      779.531        0.461        0.397       35.808       27.543        0.592      336.168        7.289      863.776
01/31/2021  16:13:00     -101.656      -81.642      -13.554       56.112       68.929       29.609     3148.518     4751.228      876.703        1.298        0.439      130.382       27.565        0.045      335.973        6.962      863.769
01/31/2021  16:14:00     -104.870      -34.993       -9.290       49.578       63.373       33.291     2457.952     4016.173     1108.285        0.994        0.379      110.554       31.364        0.080      335.875        6.800      863.767
01/31/2021  16:15:00      -43.904      -22.476        2.571       54.898       50.382       31.725     3013.773     2538.302     1006.459        0.450        0.328       49.322       22.572        0.209      335.990        6.991      863.774
01/31/2021  16:16:00      -88.304      -35.092      -21.018       56.318       48.278       25.203     3171.772     2330.775      635.195        0.780        0.307       95.021       11.977        0.016      335.914        6.865      863.774
01/31/2021  16:17:00      -72.548      -18.744       -3.057       52.653       54.969       28.814     2772.299     3021.613      830.257        0.612        0.331       74.930       23.438        0.098      336.136        7.235      863.772
01/31/2021  16:18:00     -110.327       -8.840       -6.916       58.209       53.583       27.824     3388.303     2871.165      774.166        0.966        0.352      110.680       20.435        0.034      336.032        7.062      863.790
01/31/2021  16:19:00      -64.886       -6.838       -3.869       63.739       44.342       31.516     4062.682     1966.225      993.271        0.565        0.351       65.245       33.486        0.263      336.100        7.174      863.808
01/31/2021  16:20:00     -111.203      -31.824       -8.358       52.990       47.181       25.301     2807.962     2226.012      640.141        0.956        0.284      115.667       27.635        0.057      335.891        6.826      863.817
01/31/2021  16:21:00      -32.602       -5.516       11.472       45.273       40.391       24.470     2049.604     1631.403      598.771        0.275        0.214       33.066       19.253        0.339      336.015        7.033      863.819
01/31/2021  16:22:00      -92.194      -27.574        1.458       79.392       35.748       27.360     6303.111     1277.943      748.572        0.879        0.416       96.229       31.746        0.109      336.016        7.036      863.833
01/31/2021  16:23:00      -66.736      -33.679        5.087       39.745       43.101       26.038     1579.699     1857.731      677.968        0.486        0.206       74.752       21.544        0.083      336.075        7.134      863.854
01/31/2021  16:24:00      -76.878      -38.041       -6.953       58.939       58.966       30.187     3473.754     3477.025      911.270        0.763        0.393       85.775       33.993        0.157      336.011        7.028      863.874
01/31/2021  16:25:00      -20.913      -14.462        7.785       43.259       40.550       20.496     1871.325     1644.315      420.084        0.232        0.197       25.427       16.245        0.408      336.163        7.279      863.912
01/31/2021  16:26:00     -121.546     -141.519      -20.489       30.516       37.232       19.009      931.199     1386.232      361.334        1.895        0.134      186.551        7.896        0.002      335.756        6.602      863.929
01/31/2021  16:27:00      -69.949      -14.466        5.479       68.499       51.614       27.094     4692.088     2663.960      734.107        0.661        0.405       71.429       24.204        0.115      336.039        7.072      863.950
01/31/2021  16:28:00     -109.447       22.615       -7.266       56.655       58.258       25.921     3209.810     3393.974      671.882        0.991        0.364      111.759       14.773        0.017      335.884        6.814      863.958
01/31/2021  16:29:00      -58.197      -36.173       -2.821       58.773       35.876       25.252     3454.298     1287.065      637.672        0.504        0.269       68.523       28.515        0.173      335.927        6.886      863.968
01/31/2021  16:30:00     -130.240     -100.118      -17.331       43.048       52.134       25.973     1853.109     2717.914      674.619        1.626        0.262      164.274       20.440        0.015      335.841        6.743      863.980
01/31/2021  16:31:00     -110.987     -137.494      -13.986      120.710       69.596       60.835    14570.845     4843.663     3700.925        2.726        1.156      176.699       72.742        0.169      335.795        6.665      863.987
01/31/2021  16:32:00     -136.611      -51.406      -12.013       40.815       69.891       25.740     1665.902     4884.732      662.558        1.433        0.361      145.963       29.730        0.041      335.809        6.690      863.995
01/31/2021  16:33:00      -81.579      -82.884       -0.276       57.360       73.479       35.339     3290.173     5399.184     1248.831        1.173        0.497      116.297       32.434        0.078      335.875        6.799      863.999
01/31/2021  16:34:00     -110.501     -130.903       -5.339       59.067       92.737       36.948     3488.873     8600.099     1365.146        2.141        0.673      171.307       44.541        0.068      335.736        6.565      863.993
01/31/2021  16:35:00     -158.489      -47.608      -19.550       70.308       64.950       33.915     4943.281     4218.439     1150.229        1.904        0.516      165.485       40.874        0.061      335.756        6.600      864.016
01/31/2021  16:36:00     -107.555      -38.209       -9.704       49.479       51.085       29.399     2448.168     2609.629      864.326        0.952        0.296      114.140       24.598        0.046      335.878        6.806      864.058
01/31/2021  16:37:00     -123.320        6.211       -3.865       61.971       50.842       29.393     3840.410     2584.944      863.955        1.127        0.364      123.476       11.381        0.008      335.863        6.781      864.090
01/31/2021  16:38:00     -122.892      -13.092       -9.967       51.440       49.141       26.044     2646.068     2414.806      678.280        1.055        0.287      123.588       15.992        0.017      335.782        6.644      864.093
01/31/2021  16:39:00      -50.681      -16.522        1.641       50.528       46.145       23.303     2553.069     2129.317      543.010        0.403        0.261       53.306       12.447        0.055      335.882        6.813      864.104
01/31/2021  16:40:00      -87.520      -39.633       -4.581       36.278       40.961       19.311     1316.125     1677.837      372.901        0.631        0.168       96.075       13.482        0.020      335.874        6.800      864.113
01/31/2021  16:41:00      -71.320      -28.752       -8.488       49.117       52.752       26.544     2412.443     2782.731      704.600        0.594        0.295       76.897       16.473        0.046      335.788        6.655      864.114
01/31/2021  16:42:00      -90.567       -8.810       -2.708       44.402       36.948       25.221     1971.527     1365.179      636.079        0.613        0.199       90.994       15.829        0.030      335.860        6.776      864.105
01/31/2021  16:43:00      -68.680      -16.399       -1.081       72.602       35.840       31.425     5271.080     1284.537      987.541        0.626        0.377       70.610       31.383        0.198      335.856        6.767      864.099
01/31/2021  16:44:00      -30.744        2.936       14.755       55.831       40.062       32.069     3117.062     1604.943     1028.396        0.346        0.288       30.884       26.006        0.709      335.764        6.615      864.104
01/31/2021  16:45:00     -173.858       12.041        1.204      101.499       72.900       43.537    10302.036     5314.396     1895.495        2.394        0.876      174.275       49.161        0.080      335.577        6.302      864.130
01/31/2021  16:46:00     -152.183        7.065       -8.460       41.252       55.294       35.177     1701.763     3057.414     1237.417        1.464        0.300      152.347       24.860        0.027      335.664        6.449      864.137
01/31/2021  16:47:00      -90.081       -0.304        5.250       63.417       61.097       31.501     4021.658     3732.857      992.338        0.844        0.437       90.081       25.660        0.081      335.583        6.313      864.123
01/31/2021  16:48:00     -110.150       43.899      -12.106       59.472       51.261       28.457     3536.880     2627.653      809.810        1.059        0.349      118.576       19.674        0.028      335.710        6.524      864.088
01/31/2021  16:49:00      -86.096      -12.081       -6.239       50.118       38.234       27.143     2511.859     1461.867      736.717        0.615        0.236       86.939       18.313        0.044      335.855        6.767      864.067
01/31/2021  16:50:00      -80.127      -13.800        0.973       63.545       42.495       28.255     4038.021     1805.793      798.349        0.663        0.332       81.307       34.843        0.184      335.786        6.652      864.068
01/31/2021  16:51:00      -89.709       -4.653       -5.196      146.102       45.218       73.746    21345.659     2044.680     5438.408        1.846        1.441       89.829       91.545        1.039      335.840        6.744      864.069
01/31/2021  16:52:00     -108.866       20.073       -2.934       45.350       42.223       25.625     2056.589     1782.759      656.619        0.838        0.225      110.701       19.282        0.030      335.655        6.435      864.070
01/31/2021  16:53:00      -78.220        5.486        3.704       47.684       35.784       20.734     2273.720     1280.492      429.916        0.507        0.199       78.412       18.700        0.057      335.755        6.599      864.078
01/31/2021  16:54:00     -113.968       18.695        3.875       58.289       47.603       28.269     3397.608     2266.027      799.144        0.991        0.323      115.491       27.159        0.055      335.699        6.508      864.108
01/31/2021  16:55:00      -78.136        5.788      -10.777      207.605       43.761       98.264    43099.803     1915.050     9655.798        3.045        2.734       78.350      133.369        2.898      335.722        6.546      864.142
01/31/2021  16:56:00      -68.294      -32.091       -3.500       51.168       40.713       26.346     2618.214     1657.540      694.099        0.534        0.248       75.458       19.168        0.065      335.748        6.589      864.183
01/31/2021  16:57:00     -114.907     -117.032      -15.278      182.205       75.246       86.206    33198.729     5661.979     7431.532        3.670        2.315      164.012      114.699        0.489      335.610        6.357      864.200
01/31/2021  16:58:00      -88.049      -45.884       -1.189       66.800       49.154       26.012     4462.298     2416.104      676.628        0.871        0.378       99.287       24.790        0.062      335.575        6.299      864.184
01/31/2021  16:59:00      -83.714      -36.924       10.502       51.856       54.339       34.718     2689.057     2952.748     1205.366        0.766        0.342       91.496       30.044        0.108      335.579        6.306      864.143
01/31/2021  17:00:00      -96.711      -61.798       -5.998       61.859       65.040       29.722     3826.552     4230.249      883.390        1.107        0.447      114.770       22.767        0.039      335.583        6.312      864.146
01/31/2021  17:01:00      -92.375      -77.366        3.427       46.473       63.635       31.948     2159.729     4049.408     1020.701        1.088        0.361      120.494       19.715        0.027      335.547        6.253      864.165
01/31/2021  17:02:00      -82.075      -74.726      -21.881      179.602       64.808       86.865    32256.898     4200.069     7545.545        2.839        2.200      110.997      118.797        1.145      335.636        6.403      864.176
01/31/2021  17:03:00     -101.977      -82.230      -13.086       56.070       55.739       29.461     3143.881     3106.793      867.974        1.222        0.356      131.001       27.497        0.044      335.614        6.365      864.183
01/31/2021  17:04:00      -53.057      -14.001       -5.254       43.711       49.327       31.137     1910.658     2433.182      969.506        0.417        0.266       54.874       22.835        0.173      335.599        6.341      864.193
01/31/2021  17:05:00      -66.612      -38.449      -11.967       43.234       41.643       24.558     1869.159     1734.113      603.082        0.513        0.210       76.912       22.622        0.087      335.640        6.409      864.214
01/31/2021  17:06:00      -99.389       -4.852       -8.045       76.776       36.189       25.417     5894.561     1309.658      646.037        0.891        0.393       99.507       31.582        0.101      335.644        6.415      864.244
01/31/2021  17:07:00     -104.197      -25.723        1.613      135.758       46.924       67.040    18430.152     2201.849     4494.405        1.832        1.256      107.325       76.494        0.508      335.640        6.410      864.275
01/31/2021  17:08:00     -135.530      -34.753       -4.970       63.139       50.914       34.836     3986.563     2592.231     1213.516        1.369        0.390      139.915       31.300        0.050      335.562        6.277      864.290
01/31/2021  17:09:00      -66.976      -17.303       -7.569      233.675       41.587      109.534    54603.923     1729.455    11997.674        3.657        3.417       69.175      154.262        4.973      335.628        6.390      864.299
01/31/2021  17:10:00     -119.387      -10.046        0.782       58.196       46.291       33.858     3386.727     2142.863     1146.357        1.051        0.334      119.808       30.977        0.067      335.584        6.313      864.305
01/31/2021  17:11:00     -166.095       -6.779       -3.970       92.369       57.174       40.857     8532.012     3268.919     1669.295        2.056        0.674      166.233       33.187        0.040      335.413        6.028      864.305
01/31/2021  17:12:00     -120.276       -8.772      -14.601      202.429       43.988       94.377    40977.501     1934.929     8907.029        3.328        2.591      120.595      126.251        1.096      335.466        6.117      864.298
01/31/2021  17:13:00     -146.209       -9.587      -13.265      198.309       45.303       83.447    39326.490     2052.329     6963.478        3.498        2.417      146.523      106.427        0.528      335.402        6.009      864.288
01/31/2021  17:14:00     -172.710      -14.854       -6.790       47.349       33.295       32.838     2241.960     1108.583     1078.358        1.726        0.221      173.348       29.928        0.030      335.344        5.914      864.269
01/31/2021  17:15:00     -156.437      -19.238      -15.698      161.497       36.834       79.200    26081.224     1356.745     6272.587        2.939        1.686      157.616       94.457        0.359      335.373        5.963      864.260
01/31/2021  17:16:00     -208.150       -6.681       -5.354       57.893       33.275       30.043     3351.613     1107.240      902.599        2.438        0.268      208.257       19.188        0.008      335.271        5.790      864.270
01/31/2021  17:17:00     -148.775      -18.285       -6.699      160.265       49.217       84.484    25685.019     2422.341     7137.592        2.887        1.762      149.894      106.652        0.506      335.308        5.856      864.268
01/31/2021  17:18:00     -100.238      -12.517        3.447       68.526       38.369       31.690     4695.829     1472.197     1004.286        0.869        0.359      101.016       33.243        0.108      335.283        5.813      864.254
01/31/2021  17:19:00     -161.425      -30.035       -2.635       73.570       42.872       33.662     5412.538     1838.016     1133.104        1.767        0.419      164.196       38.945        0.056      335.173        5.632      864.238
01/31/2021  17:20:00     -106.596      -32.211        0.633       60.682       41.689       33.578     3682.343     1738.004     1127.475        0.947        0.327      111.357       25.280        0.052      335.188        5.657      864.222
01/31/2021  17:21:00      -96.678      -13.393       -2.560       49.839       39.750       25.145     2483.923     1580.059      632.262        0.711        0.235       97.601       27.871        0.082      335.230        5.724      864.216
01/31/2021  17:22:00      -77.983       18.451       -2.744       60.117       47.133       28.712     3614.049     2221.536      824.378        0.654        0.333       80.136       33.116        0.171      335.332        5.896      864.205
01/31/2021  17:23:00      -55.545       24.862       -2.146      221.686       39.886      102.335    49144.663     1590.929    10472.478        3.244        3.060       60.856      143.124        5.531      335.381        5.979      864.186
01/31/2021  17:24:00      -74.603       -4.094       -3.537       48.709       29.523       23.555     2372.586      871.605      554.825        0.470        0.190       74.715       23.940        0.103      335.263        5.781      864.174
01/31/2021  17:25:00      -52.273        7.279       -1.425      135.270       34.308       64.764    18298.061     1177.045     4194.440        1.322        1.183       52.777       88.333        2.801      335.337        5.903      864.159
01/31/2021  17:26:00      -59.637      -11.532       -1.310       41.978       34.161       21.604     1762.132     1167.004      466.733        0.354        0.170       60.742       19.047        0.098      335.257        5.770      864.130
01/31/2021  17:27:00       -5.504        7.466       -3.420      194.398       27.130       93.687    37790.555      736.027     8777.278        2.369        2.365        9.275      130.538      198.066      335.236        5.736      864.091
01/31/2021  17:28:00      -57.558      -27.026       -0.813       39.658       30.142       22.791     1572.739      908.536      519.421        0.352        0.150       63.587       16.528        0.068      335.249        5.756      864.067
01/31/2021  17:29:00      -84.302      -46.205       -9.915      145.836       32.770       71.612    21268.031     1073.892     5128.341        1.840        1.374       96.134       93.817        0.952      335.196        5.671      864.059
01/31/2021  17:30:00      -70.655      -80.752      -13.545      176.440       53.469       83.756    31131.236     2858.929     7015.017        2.634        2.050      107.299      116.976        1.189      335.178        5.641      864.059
01/31/2021  17:31:00      -86.532      -49.336       -3.518       44.815       62.607       27.964     2008.351     3919.671      782.006        0.832        0.336       99.608       33.944        0.116      335.076        5.472      864.055
01/31/2021  17:32:00      -44.109      -45.410       -6.520      132.954       41.618       65.056    17676.854     1732.096     4232.222        1.384        1.182       63.306       84.291        1.773      335.143        5.583      864.039
01/31/2021  17:33:00      -76.595      -49.847      -21.928      256.149       33.839      118.916    65612.132     1145.107    14140.910        4.485        4.045       91.386      168.902        3.416      335.181        5.648      864.038
01/31/2021  17:34:00     -108.905      -38.962       -9.167      191.379       35.074       90.599    36625.927     1230.174     8208.103        2.975        2.303      115.664      126.024        1.187      335.062        5.450      864.044
01/31/2021  17:35:00     -115.171      -47.141      -13.664       55.295       35.468       24.372     3057.561     1258.014      593.972        1.029        0.245      124.445       23.127        0.035      334.994        5.334      864.065
01/31/2021  17:36:00      -51.291      -28.022      -20.612      292.511       34.815      135.974    85562.484     1212.067    18489.016        5.453        5.263       58.446      193.735       10.988      335.210        5.695      864.097
01/31/2021  17:37:00      -71.739      -34.642       -9.429      189.304       32.222       91.644    35835.825     1038.253     8398.537        2.584        2.264       79.665      129.832        2.656      335.105        5.522      864.122
01/31/2021  17:38:00      -47.000       -2.737      -14.299      251.547       51.787      120.661    63275.916     2681.940    14558.977        4.145        4.026       47.080      168.978       12.882      335.175        5.637      864.141
01/31/2021  17:39:00      -64.567      -32.225      -11.315      236.557       43.917      111.339    55959.031     1928.696    12396.390        3.779        3.514       72.162      159.210        4.868      335.015        5.371      864.143
01/31/2021  17:40:00      -38.599        4.725      -18.997      225.488       29.634      108.490    50844.943      878.197    11770.167        3.267        3.175       38.887      155.123       15.913      335.147        5.589      864.127
01/31/2021  17:41:00      -17.807      -14.479       -2.996      173.765       25.796       82.117    30194.166      665.419     6743.220        1.906        1.880       22.951      117.484       26.204      335.165        5.620      864.122
01/31/2021  17:42:00      -22.082      -17.740       -9.397      143.109       48.105       69.749    20480.236     2314.108     4864.938        1.427        1.383       28.326       97.507       11.850      334.985        5.321      864.144
01/31/2021  17:43:00      -70.958      -59.620      -21.966      281.897       58.690      138.164    79466.088     3444.493    19089.395        5.551        5.100       92.680      191.874        4.286      335.027        5.391      864.156
01/31/2021  17:44:00      -73.241      -44.613       -6.511       37.286       35.052       24.567     1390.211     1228.655      603.527        0.531        0.161       85.759       18.268        0.045      334.961        5.280      864.152
01/31/2021  17:45:00      -29.272      -51.204      -24.329      344.086       45.444      164.512   118394.976     2065.185    27064.072        7.577        7.376       58.981      234.405       15.795      335.083        5.488      864.146
01/31/2021  17:46:00      -47.419      -46.958      -26.374      321.052       65.716      152.772   103074.608     4318.626    23339.239        6.791        6.537       66.735      217.952       10.666      334.964        5.288      864.127
01/31/2021  17:47:00      -57.856      -64.186        2.600       38.213       52.724       26.125     1460.262     2779.842      682.537        0.620        0.246       86.412       20.035        0.054      334.805        5.020      864.124
01/31/2021  17:48:00      -69.258       -7.240       -8.507      283.304       40.880      135.428    80261.196     1671.154    18340.697        5.258        5.014       69.635      190.411        7.477      334.902        5.185      864.135
01/31/2021  17:49:00      -78.868       -5.401        5.366       49.745       29.937       26.169     2474.599      896.220      684.837        0.517        0.203       79.053       21.874        0.077      334.760        4.946      864.133
01/31/2021  17:50:00      -45.319      -14.613      -11.222      304.110       32.325      141.702    92482.909     1044.904    20079.387        5.798        5.680       47.617      203.502       18.265      334.850        5.098      864.139
01/31/2021  17:51:00      -39.908      -52.094      -27.750      313.971       61.328      148.455    98577.877     3761.112    22038.816        6.470        6.219       65.623      212.623       10.498      334.895        5.173      864.149
01/31/2021  17:52:00      -83.033      -22.248      -14.145      190.746       36.049       88.327    36384.178     1299.536     7801.710        2.653        2.274       85.962      125.514        2.132      334.814        5.038      864.150
01/31/2021  17:53:00      -57.220      -27.970        1.844       34.016       54.991       22.852     1157.055     3024.009      522.201        0.438        0.235       63.690       22.703        0.127      334.743        4.918      864.142
01/31/2021  17:54:00      -32.610      -19.327        1.200       41.159       40.251       24.970     1694.097     1620.180      623.480        0.269        0.197       37.907       18.948        0.250      334.686        4.822      864.147
01/31/2021  17:55:00      -49.816      -51.810      -36.540      354.472       31.921      169.850   125650.386     1018.952    28849.011        8.098        7.776       71.874      241.113       11.254      334.855        5.107      864.171
01/31/2021  17:56:00      -47.549      -42.349      -22.817      311.803       45.290      154.623    97221.237     2051.193    23908.208        6.385        6.159       63.673      214.422       11.340      334.793        5.003      864.213
01/31/2021  17:57:00      -78.702      -37.189      -31.189      318.078       48.489      154.333   101173.851     2351.228    23818.592        6.792        6.367       87.046      216.713        6.198      334.776        4.975      864.242
01/31/2021  17:58:00      -34.747      -45.922      -13.894      235.858       51.735      112.087    55629.040     2676.524    12563.562        3.717        3.543       57.586      158.209        7.548      334.697        4.844      864.244
01/31/2021  17:59:00      -42.041      -44.779      -33.577      384.118       48.298      179.814   147546.672     2332.675    32333.121        9.352        9.111       61.422      259.454       17.843      334.760        4.950      864.237
01/31/2021  18:00:00      -47.483      -13.284       -4.802      200.479       31.635       95.255    40191.822     1000.775     9073.522        2.635        2.513       49.306      134.402        7.430      334.683        4.819      864.243
01/31/2021  18:01:00     -102.420      -30.357      -22.517      239.836       31.405      115.896    57521.070      986.288    13431.769        4.191        3.597      106.824      158.965        2.214      334.616        4.706      864.259
01/31/2021  18:02:00      -76.020      -48.507      -29.363      351.671       38.165      168.577   123672.628     1456.592    28418.050        8.124        7.677       90.178      241.181        7.153      334.716        4.876      864.269
01/31/2021  18:03:00      -78.759      -36.698      -14.053      205.582       24.889       98.286    42263.901      619.484     9660.081        3.013        2.627       86.889      136.280        2.460      334.647        4.757      864.269
01/31/2021  18:04:00      -20.837        1.701      -16.225      258.391       41.218      124.303    66765.846     1698.924    15451.306        4.229        4.196       20.906      177.481       72.071      334.739        4.914      864.267
01/31/2021  18:05:00       31.096       -2.563      -14.512      330.676       37.884      162.568   109346.511     1435.204    26428.454        6.917        6.861       31.201      229.295       54.006      334.771        4.967      864.253
01/31/2021  18:06:00      -32.963      -16.055       -7.660      145.025       39.777       71.026    21032.256     1582.195     5044.707        1.453        1.383       36.665       92.295        6.337      334.646        4.756      864.242
01/31/2021  18:07:00      -70.882        1.556      -16.946      355.817       39.884      162.784   126605.895     1590.762    26498.554        7.997        7.735       70.899      235.046       10.991      334.594        4.674      864.240
01/31/2021  18:08:00      -57.609      -14.534      -14.264      281.189       37.226      131.263    79067.193     1385.771    17229.948        5.069        4.884       59.414      186.744        9.879      334.587        4.661      864.236
01/31/2021  18:09:00      -41.486       -2.876      -15.549      303.784       20.186      142.392    92284.929      407.477    20275.358        5.745        5.648       41.586      206.494       24.656      334.579        4.649      864.235
01/31/2021  18:10:00       -5.757        6.754      -15.723      284.840       27.886      135.278    81134.066      777.657    18300.095        5.025        5.011        8.874      193.490      475.403      334.744        4.922      864.253
01/31/2021  18:11:00      -28.657       -4.571      -13.257      236.476       28.650      115.570    55920.927      820.835    13356.338        3.554        3.505       29.019      163.010       31.555      334.700        4.847      864.286
01/31/2021  18:12:00      -39.315      -13.627        2.942      171.191       29.721       80.508    29306.411      883.338     6481.494        1.920        1.834       41.609      111.753        7.213      334.619        4.712      864.306
01/31/2021  18:13:00       -3.164        6.000      -15.827      285.102       26.922      134.811    81282.940      724.796    18173.949        5.022        5.009        6.783      192.606      806.216      334.659        4.779      864.314
01/31/2021  18:14:00      -29.393       36.326      -20.765      362.793       29.192      170.516   131618.412      852.145    29075.575        8.205        8.077       46.728      247.622       28.081      334.535        4.576      864.293
01/31/2021  18:15:00      -70.543       30.671       -9.043      180.220       28.471       84.563    32479.391      810.599     7150.874        2.321        2.022       76.923      119.848        2.427      334.324        4.222      864.261
01/31/2021  18:16:00      -79.205       23.600       -8.849      216.987       21.325      103.559    47083.252      454.749    10724.486        3.257        2.913       82.646      146.899        3.159      334.335        4.243      864.242
01/31/2021  18:17:00      -52.525       23.907      -29.691      345.843       29.597      165.506   119607.598      875.996    27392.159        7.601        7.394       57.710      236.935       16.856      334.428        4.398      864.222
01/31/2021  18:18:00     -113.370       26.092       -1.990       34.741       22.609       17.645     1206.927      511.147      311.346        0.778        0.101      116.333       13.943        0.014      334.149        3.931      864.223
01/31/2021  18:19:00      -69.332        9.966      -10.740      226.329       26.103      110.123    51224.966      681.372    12127.076        3.451        3.202       70.045      153.454        4.800      334.317        4.212      864.223
01/31/2021  18:20:00      -33.318        1.556      -21.388      392.057       34.376      184.236   153709.079     1181.689    33942.952        9.516        9.442       33.355      266.478       63.828      334.421        4.387      864.228
01/31/2021  18:21:00      -82.772       -4.285       -3.656      206.896       27.837       97.619    42805.756      774.872     9529.534        2.999        2.656       82.883      138.881        2.808      334.233        4.071      864.256
01/31/2021  18:22:00      -28.203        4.142        1.606      149.480       21.460       69.263    22344.302      460.540     4797.350        1.420        1.380       28.505       99.170       12.103      334.263        4.122      864.286
01/31/2021  18:23:00      -45.337       11.835      -22.101      322.510       18.410      151.113   104012.920      338.912    22835.028        6.491        6.359       46.857      218.580       21.761      334.316        4.211      864.297
01/31/2021  18:24:00      -69.349       27.167       -2.748       16.785       18.174       13.111      281.743      330.288      171.895        0.317        0.039       74.480       10.648        0.020      334.252        4.101      864.310
01/31/2021  18:25:00      -29.191        0.367        0.459      147.513       22.287       67.189    21760.023      496.698     4514.399        1.381        1.339       29.193       92.970       10.142      334.296        4.173      864.318
01/31/2021  18:26:00      -19.427        7.554       -3.281      151.194       24.931       73.714    22859.688      621.544     5433.823        1.467        1.446       20.844      102.810       24.327      334.342        4.253      864.330
01/31/2021  18:27:00      -49.085       12.998      -18.701      307.308       24.514      146.231    94438.294      600.930    21383.569        5.965        5.821       50.777      209.197       16.974      334.441        4.419      864.345
01/31/2021  18:28:00      -60.667       27.168       -9.970      229.846       19.781      110.106    52829.292      391.308    12123.371        3.492        3.267       66.472      156.587        5.549      334.293        4.172      864.347
01/31/2021  18:29:00      -39.021        6.586      -21.082      330.583       23.383      156.906   109285.423      546.745    24619.480        6.820        6.723       39.573      226.338       32.713      334.377        4.312      864.329
01/31/2021  18:30:00       -1.903        1.299       -7.178      307.610       21.654      143.173    94623.982      468.905    20498.628        5.780        5.780        2.304      206.495     8032.266      334.352        4.271      864.333
01/31/2021  18:31:00      -22.293        8.967        0.925      190.827       37.374       91.682    36414.827     1396.781     8405.662        2.339        2.311       24.028      127.151       28.002      334.213        4.039      864.332
01/31/2021  18:32:00       41.771       -0.927      -44.653      501.046       37.369      236.400   251047.277     1396.446    55885.184       15.597       15.416       41.781      341.980       66.995      334.571        4.639      864.315
01/31/2021  18:33:00       12.697        5.506      -18.280      333.925       21.245      158.192   111505.812      451.352    25024.588        6.872        6.849       13.839      227.055      269.172      334.288        4.166      864.306
01/31/2021  18:34:00      -63.590       -7.192       -5.559      148.709       34.896       70.467    22114.303     1217.736     4965.594        1.621        1.415       63.995       97.684        2.330      334.157        3.945      864.297
01/31/2021  18:35:00      -67.201       -5.335      -12.371      181.935       35.935       88.228    33100.515     1291.346     7784.182        2.343        2.109       67.412      120.179        3.178      334.129        3.900      864.297
01/31/2021  18:36:00      -67.351       26.957       -3.935      209.988       29.115      100.718    44094.879      847.686    10144.094        3.017        2.754       72.546      140.672        3.760      334.048        3.765      864.295
01/31/2021  18:37:00      -44.182       24.835      -20.897      324.882       33.666      155.346   105548.264     1133.370    24132.371        6.688        6.541       50.683      222.380       19.251      334.192        4.006      864.272
01/31/2021  18:38:00      -52.307       11.184       -9.225      217.264       25.204      105.967    47203.448      635.241    11229.016        3.099        2.953       53.490      148.281        7.685      334.076        3.811      864.254
01/31/2021  18:39:00      -25.887       12.720      -26.563      394.958       30.208      191.869   155991.996      912.518    36813.650        9.759        9.686       28.844      273.027       89.601      334.204        4.027      864.262
01/31/2021  18:40:00       31.641        8.966      -24.154      386.467       22.507      183.269   149356.865      506.547    33587.609        9.252        9.173       32.887      264.344       64.610      334.253        4.107      864.289
01/31/2021  18:41:00       -0.498        1.471       -1.431      190.409       33.027       91.929    36255.516     1090.772     8450.929        2.289        2.290        1.553      129.017     6904.676      334.074        3.808      864.315
01/31/2021  18:42:00      -40.111       -5.634      -17.035      276.307       24.682      132.868    76345.369      609.195    17653.853        4.825        4.730       40.505      185.065       20.875      334.031        3.737      864.327
01/31/2021  18:43:00      -11.782        4.933      -60.329      547.101       32.555      260.903   299319.643     1059.826    68070.376       18.605       18.422       12.773      376.233      867.601      334.321        4.226      864.333
01/31/2021  18:44:00      -81.643        0.627       -4.123      148.083       33.302       66.179    21928.721     1109.007     4379.613        1.704        1.371       81.646       91.191        1.247      333.992        3.672      864.346
01/31/2021  18:45:00       -8.623        4.419      -37.939      425.059       39.193      206.715   180675.476     1536.074    42730.929       11.319       11.247        9.689      293.864      919.923      334.205        4.030      864.369
01/31/2021  18:46:00        2.230       -7.393      -19.985      238.974       39.016      114.028    57108.366     1522.231    13002.397        3.603        3.582        7.721      161.599      438.003      334.035        3.745      864.395
01/31/2021  18:47:00      -40.081      -18.529      -25.369      360.421       39.105      170.227   129903.077     1529.165    28977.265        8.147        8.020       44.157      243.009       30.286      334.080        3.821      864.421
01/31/2021  18:48:00      -95.034        9.939       -8.340      211.498       39.361       99.617    44731.589     1549.325     9923.535        3.269        2.810       95.553      139.901        2.144      333.968        3.633      864.439
01/31/2021  18:49:00        9.104      -13.125       -2.439      290.498       34.373      140.945    84388.925     1181.469    19865.502        5.283        5.272       15.974      196.637      151.534      334.026        3.730      864.451
01/31/2021  18:50:00      -34.994       15.616       -7.378      201.002       23.019       94.466    40401.882      529.866     8923.744        2.568        2.493       38.320      132.885       12.025      333.993        3.673      864.458
01/31/2021  18:51:00      -56.087       10.171       -6.888       36.506       26.633       21.457     1332.690      709.322      460.406        0.290        0.125       57.001       17.106        0.090      333.924        3.560      864.458
01/31/2021  18:52:00      -73.069       27.150       -3.987       34.344       24.748       20.820     1179.504      612.463      433.478        0.416        0.111       77.950       20.281        0.068      333.826        3.396      864.453
01/31/2021  18:53:00      -46.397        4.917      -30.152      361.397       30.418      172.752   130607.700      925.277    29843.374        8.220        8.069       46.657      247.456       28.129      334.060        3.788      864.458
01/31/2021  18:54:00      -13.586       10.131       -5.541      277.637       34.191      132.700    77082.124     1169.021    17609.234        4.807        4.793       16.947      188.910      124.250      333.951        3.603      864.457
01/31/2021  18:55:00      -17.981       32.727       -3.606      221.055       32.760      102.668    48865.284     1073.247    10540.706        3.093        3.024       37.341      146.986       15.494      333.889        3.503      864.454
01/31/2021  18:56:00      -32.922       12.391      -12.325      270.361       22.441      130.156    73095.026      503.600    16940.627        4.594        4.527       35.177      184.180       27.414      333.948        3.601      864.440
01/31/2021  18:57:00        9.683       17.722      -17.372      260.187       30.966      126.034    67697.130      958.922    15884.539        4.261        4.227       20.195      178.515       78.139      333.987        3.666      864.415
01/31/2021  18:58:00      -17.978       -1.357      -20.311      297.363       33.159      139.140    88424.748     1099.527    19359.928        5.479        5.444       18.029      200.310      123.444      334.015        3.711      864.411
01/31/2021  18:59:00      -11.151        3.523      -28.363      409.318       23.610      194.119   167541.566      557.430    37682.124       10.332       10.289       11.694      280.043      573.490      334.127        3.900      864.412
01/31/2021  19:00:00      -47.155        1.211      -18.189      280.235       27.520      133.799    78531.881      757.330    17902.133        4.985        4.860       47.170      191.772       16.528      333.954        3.611      864.429
01/31/2021  19:01:00      -22.597        4.351      -20.137      340.637       22.690      163.387   116033.836      514.834    26695.283        7.206        7.162       23.012      234.516      103.861      334.044        3.761      864.443
01/31/2021  19:02:00       26.178      -14.323        9.289      239.384       21.634      117.340    57304.841      468.027    13768.600        3.624        3.577       29.840      165.239       30.664      333.932        3.574      864.437
01/31/2021  19:03:00       73.655        5.704      -31.970      477.211       24.843      231.124   227730.805      617.187    53418.329       14.406       14.088       73.876      331.055       20.082      334.182        3.994      864.428
01/31/2021  19:04:00      -23.973       11.793       -9.007      253.402       25.139      121.828    64212.675      631.992    14842.059        4.022        3.984       26.717      172.362       41.621      333.935        3.578      864.427
01/31/2021  19:05:00       39.178      -23.662      -53.728      544.625       32.885      260.197   296616.260     1081.399    67702.511       18.511       18.270       45.769      375.238       67.215      334.248        4.106      864.418
01/31/2021  19:06:00      -16.555       13.371      -35.558      429.818       36.657      205.414   184743.865     1343.753    42194.902       11.495       11.414       21.280      295.134      192.354      334.104        3.862      864.412
01/31/2021  19:07:00      -17.468       11.666      -30.209      428.284       28.902      200.169   183427.402      835.306    40067.545       11.279       11.217       21.005      290.319      191.032      333.970        3.640      864.421
01/31/2021  19:08:00       25.575      -12.596      -29.878      422.140       41.635      201.502   178202.487     1733.486    40603.046       11.107       11.027       28.509      290.025      103.492      334.115        3.882      864.440
01/31/2021  19:09:00       29.462        9.644      -39.911      503.336       33.451      238.172   253347.073     1118.986    56726.056       15.681       15.560       31.000      343.919      123.082      334.168        3.971      864.459
01/31/2021  19:10:00       24.062       -7.808      -16.810      346.822       38.231      167.409   120285.285     1461.614    28025.851        7.532        7.489       25.298      237.951       88.475      333.920        3.555      864.461
01/31/2021  19:11:00        2.155       -2.469        3.289      184.315       46.086       91.868    33971.926     2123.954     8439.814        2.227        2.227        3.277      124.313     1439.039      333.773        3.308      864.463
01/31/2021  19:12:00       15.675        6.615      -18.764      367.789       37.741      170.066   135268.693     1424.388    28922.571        8.309        8.281       17.014      246.835      210.483      333.934        3.579      864.458
01/31/2021  19:13:00     -102.464       -5.770      -12.639       53.688       38.445       24.261     2882.385     1478.052      588.600        0.782        0.247      102.626       21.674        0.045      333.844        3.426      864.426
01/31/2021  19:14:00      -57.928       13.455      -16.692      337.962       31.967      155.000   114218.611     1021.862    24025.079        7.151        6.963       59.470      223.448       14.118      333.811        3.373      864.412
01/31/2021  19:15:00      -76.603        7.855       -4.682      225.820       34.621      107.287    50994.839     1198.594    11510.605        3.481        3.185       77.004      148.743        3.731      333.754        3.278      864.418
01/31/2021  19:16:00      -25.859      -12.048       -5.782      203.321       32.965       92.341    41339.341     1086.706     8526.805        2.589        2.548       28.528      131.631       21.290      333.854        3.443      864.417
01/31/2021  19:17:00      -37.426       -8.200       -5.978      140.057       37.509       66.057    19616.062     1406.894     4363.557        1.344        1.269       38.313       88.125        5.290      333.819        3.384      864.427
01/31/2021  19:18:00       49.592        2.636      -27.216      437.372       32.882      210.212   191294.464     1081.213    44189.158       11.984       11.828       49.662      301.571       36.875      333.999        3.689      864.437
01/31/2021  19:19:00        8.472        5.020      -10.695      302.025       25.865      144.916    91219.040      668.993    21000.655        5.653        5.644        9.848      207.539      444.138      333.914        3.543      864.434
01/31/2021  19:20:00      -48.195        5.305        4.075       37.165       22.421       19.510     1381.273      502.697      380.655        0.232        0.113       48.487       20.760        0.183      333.787        3.331      864.432
01/31/2021  19:21:00      -32.417       17.842      -23.286      363.505       35.209      172.232   132136.161     1239.674    29663.796        8.244        8.152       37.002      247.555       44.760      333.908        3.536      864.429
01/31/2021  19:22:00      -64.938       12.125      -15.203      284.780       32.937      132.608    81099.594     1084.855    17584.900        5.216        4.988       66.060      190.772        8.340      333.846        3.430      864.426
01/31/2021  19:23:00      -65.336        0.856      -13.625      262.246       30.369      121.638    68772.794      922.255    14795.920        4.445        4.225       65.342      175.010        7.174      333.828        3.400      864.414
01/31/2021  19:24:00      -97.668       24.043       -5.529      178.343       30.251       87.339    31806.192      915.130     7628.176        2.524        2.017      100.583      120.974        1.447      333.736        3.247      864.391
01/31/2021  19:25:00      -48.877       13.254      -19.718      324.922       29.441      156.501   105573.998      866.754    24492.453        6.692        6.547       50.642      222.320       19.272      333.801        3.357      864.371
01/31/2021  19:26:00       -1.808       -1.048      -22.065      387.813       28.482      181.559   150399.262      811.235    32963.720        9.229        9.209        2.090      263.063    15841.896      333.807        3.368      864.344
01/31/2021  19:27:00       41.846       -9.208      -17.161      410.236       37.441      193.480   168293.522     1401.794    37434.409       10.459       10.356       42.847      279.968       42.694      333.893        3.513      864.330
01/31/2021  19:28:00       50.118        0.777      -27.061      427.258       31.363      202.268   182549.293      983.662    40912.207       11.380       11.222       50.124      292.215       33.987      333.909        3.540      864.331
01/31/2021  19:29:00      -67.123        7.884       -8.307      184.255       32.755       86.610    33949.878     1072.894     7501.358        2.357        2.126       67.584      122.009        3.259      333.813        3.376      864.326
01/31/2021  19:30:00      -13.790      -20.468      -12.073      353.744       30.517      171.309   125134.780      931.272    29346.872        7.805        7.771       24.680      241.738       95.938      333.882        3.491      864.320
01/31/2021  19:31:00      -25.218        7.875       -3.152      199.529       29.963       90.790    39811.947      897.771     8242.912        2.482        2.448       26.419      127.144       23.161      333.773        3.308      864.322
01/31/2021  19:32:00       33.784       -6.371      -29.079      365.099       28.555      173.970   133296.946      815.409    30265.559        8.317        8.219       34.379      250.408       53.052      333.819        3.388      864.314
01/31/2021  19:33:00       -6.190       -3.142      -13.393      282.855       47.137      135.276    80006.917     2221.879    18299.540        5.036        5.026        6.942      192.158      766.261      333.826        3.399      864.302
01/31/2021  19:34:00        5.177       -1.633      -21.963      355.028       35.724      170.695   126044.670     1276.172    29136.762        7.845        7.823        5.428      242.968     2003.561      333.816        3.384      864.305
01/31/2021  19:35:00        2.416        8.457       -3.395       33.386       26.481       21.244     1114.650      701.232      451.313        0.118        0.113        8.795       17.064        3.764      333.560        2.954      864.302
01/31/2021  19:36:00       56.384        9.529      -47.137      462.543       33.650      217.033   213946.166     1132.335    47103.498       13.378       13.109       57.183      315.139       30.371      333.929        3.574      864.293
01/31/2021  19:37:00       45.248      -18.997      -41.153      436.845       26.426      207.965   190833.765      698.342    43249.297       11.939       11.739       49.074      299.987       37.368      333.919        3.556      864.282
01/31/2021  19:38:00      -35.599        8.257      -15.963      283.022       32.822      134.975    80101.347     1077.267    18218.279        5.047        4.970       36.544      191.580       27.483      333.682        3.161      864.254
01/31/2021  19:39:00        9.923        2.720       -8.561      316.639       40.409      150.539   100260.449     1632.864    22661.988        6.234        6.228       10.289      213.271      429.636      333.615        3.049      864.250
01/31/2021  19:40:00      -32.185       -8.448       -2.046      228.087       35.903      112.579    52023.472     1289.048    12673.985        3.353        3.299       33.275      155.627       21.874      333.522        2.893      864.283
01/31/2021  19:41:00      -80.160        2.579       -9.112      178.232       34.414       83.323    31766.759     1184.304     6942.787        2.320        1.995       80.202      113.394        1.999      333.585        2.996      864.343
01/31/2021  19:42:00      -25.455        9.668      -31.397      431.907       42.899      207.669   186543.726     1840.316    43126.469       11.657       11.576       27.229      294.846      117.251      333.838        3.422      864.388
01/31/2021  19:43:00        6.935       -4.185      -12.924      376.303       50.683      177.904   141604.175     2568.779    31649.795        8.799        8.791        8.100      253.753      981.482      333.637        3.086      864.402
01/31/2021  19:44:00       59.996        8.729      -30.158      426.218       42.163      203.742   181661.888     1777.684    41510.688       11.472       11.248       60.628      291.511       23.119      333.666        3.136      864.382
01/31/2021  19:45:00      -31.171       20.328      -25.952      376.525       39.773      179.904   141771.108     1581.914    32365.346        8.885        8.786       37.214      257.389       47.837      333.594        3.017      864.365
01/31/2021  19:46:00       21.895       11.223      -34.277      467.844       41.221      222.832   218877.922     1699.191    49654.224       13.595       13.512       24.604      320.712      169.908      333.683        3.165      864.331
01/31/2021  19:47:00      -48.828       36.461      -14.195      241.029       32.728      116.919    58094.979     1071.140    13670.080        3.836        3.642       60.939      165.573        7.382      333.403        2.697      864.288
01/31/2021  19:48:00       71.159       19.812      -29.663      470.521       33.855      228.437   221390.078     1146.181    52183.375       14.047       13.736       73.866      325.722       19.445      333.520        2.896      864.259
01/31/2021  19:49:00       35.111       25.264      -17.545      355.700       39.112      173.473   126522.736     1529.744    30092.870        8.013        7.907       43.255      246.493       32.474      333.464        2.802      864.245
01/31/2021  19:50:00       42.068       15.278      -29.259      423.872       35.321      201.712   179667.788     1247.588    40687.589       11.218       11.080       44.757      290.881       42.240      333.478        2.824      864.237
01/31/2021  19:51:00       35.990      -28.272      -18.689      314.510       49.627      150.496    98916.430     2462.848    22649.020        6.321        6.201       45.766      214.586       21.984      333.491        2.845      864.232
01/31/2021  19:52:00       35.076      -13.950      -28.341      336.651       34.424      161.254   113333.856     1185.040    26002.869        7.135        7.026       37.748      231.003       37.450      333.544        2.932      864.240
01/31/2021  19:53:00      -12.859      -30.282       -4.555      102.958       38.078       51.749    10600.377     1449.938     2677.962        0.791        0.736       32.899       67.181        4.170      333.394        2.682      864.253
01/31/2021  19:54:00       43.575        3.458      -30.899      433.234       41.892      206.265   187691.370     1754.980    42545.364       11.738       11.600       43.712      297.256       46.244      333.637        3.089      864.271
01/31/2021  19:55:00       37.801        5.792      -23.768      411.972       48.449      197.435   169721.249     2347.278    38980.599       10.649       10.552       38.242      283.272       54.868      333.682        3.162      864.283
01/31/2021  19:56:00      -27.772       -7.242      -20.644      337.323       41.862      165.417   113787.113     1752.468    27362.922        7.205        7.145       28.701      232.715       65.746      333.588        3.004      864.288
01/31/2021  19:57:00        9.039        5.503      -13.224      346.471       37.280      164.745   120042.141     1389.806    27141.035        7.440        7.429       10.583      236.404      499.028      333.655        3.116      864.282
01/31/2021  19:58:00      -11.909       17.489      -42.635      464.940       31.686      221.743   216169.202     1004.011    49169.824       13.425       13.317       21.159      319.553      228.094      333.831        3.410      864.288
01/31/2021  19:59:00      -14.002       10.634      -23.289      419.546       37.474      200.129   176018.521     1404.282    40051.789       10.912       10.874       17.582      287.130      266.697      333.669        3.141      864.308
01/31/2021  20:00:00      -18.761       14.096      -19.036      366.482       36.158      174.481   134308.754     1307.404    30443.584        8.345        8.303       23.467      250.248      113.719      333.589        3.007      864.326
01/31/2021  20:01:00        7.122       -8.313      -23.469      363.264       41.041      172.675   131960.718     1684.399    29816.762        8.203        8.173       10.947      247.580      511.492      333.662        3.128      864.325
01/31/2021  20:02:00       -6.345      -46.494      -18.923      364.963       55.389      168.705   133197.747     3067.959    28461.507        8.361        8.236       46.925      242.735       26.758      333.608        3.039      864.315
01/31/2021  20:03:00      -87.146        1.228       -4.120      197.097       42.466       97.070    38847.383     1803.402     9422.493        2.883        2.504       87.154      130.649        2.247      333.385        2.667      864.299
01/31/2021  20:04:00      -38.262        6.933      -15.742      347.605       39.755      164.304   120829.275     1580.483    26995.733        7.555        7.470       38.885      235.722       36.748      333.536        2.918      864.276
01/31/2021  20:05:00       12.405       -4.230      -14.786      377.366       38.375      180.695   142405.056     1472.638    32650.744        8.842        8.826       13.107      256.616      383.344      333.592        3.014      864.259
01/31/2021  20:06:00       -9.984        5.429       -5.439      307.076       38.101      147.340    94295.766     1451.682    21708.936        5.878        5.873       11.365      207.326      332.797      333.469        2.806      864.241
01/31/2021  20:07:00       23.203      -20.552       -9.756      373.090       39.890      177.258   139196.002     1591.177    31420.467        8.659        8.610       30.997      252.646       66.434      333.583        2.999      864.241
01/31/2021  20:08:00      -33.309      -20.577      -16.266      360.634       50.921      169.323   130057.137     2592.973    28670.157        8.152        8.066       39.152      244.175       38.895      333.548        2.939      864.241
01/31/2021  20:09:00      -52.488       -0.110      -43.116      467.833       39.689      227.218   218868.027     1575.213    51627.997       13.828       13.604       52.488      323.894       38.079      333.622        3.065      864.216
01/31/2021  20:10:00       -4.702       10.470      -27.901      387.455      140.193      196.744   150121.169    19654.166    38708.313       10.465       10.424       11.478      249.853      473.877      333.697        3.186      864.165
01/31/2021  20:11:00      -43.158       10.397       -7.592      157.158       41.716       77.192    24698.516     1740.224     5958.637        1.721        1.620       44.393      103.917        5.480      333.545        2.931      864.138
01/31/2021  20:12:00      -20.551        7.560       -9.536      238.130       42.509      114.941    56706.085     1807.048    13211.544        3.613        3.586       21.898      159.857       53.293      333.471        2.809      864.150
01/31/2021  20:13:00       22.169        1.991      -22.632      393.377       38.402      189.429   154745.251     1474.707    35883.366        9.651        9.605       22.258      269.886      147.026      333.538        2.924      864.169
01/31/2021  20:14:00      -18.371        4.693       -2.735      280.777       35.610      131.365    78835.774     1268.037    17256.723        4.884        4.868       18.961      187.416       97.697      333.521        2.894      864.187
01/31/2021  20:15:00      -66.339       -0.159      -25.829      382.485       43.744      180.908   146294.902     1913.538    32727.619        9.296        9.047       66.339      257.956       15.120      333.554        2.951      864.213
01/31/2021  20:16:00      -21.977        1.168      -35.228      463.837       50.134      220.134   215144.779     2513.411    48458.803       13.386       13.306       22.008      315.115      205.004      333.613        3.051      864.242
01/31/2021  20:17:00      -34.196       17.746        7.064      246.745       49.003      123.648    60883.302     2401.288    15288.901        4.004        3.929       38.526      166.060       18.579      333.347        2.604      864.277
01/31/2021  20:18:00      -86.843       14.311       -6.004      334.083       51.272      157.114   111611.439     2628.862    24684.943        7.332        6.946       88.014      221.816        6.352      333.337        2.588      864.298
01/31/2021  20:19:00      -88.810       -3.106      -30.853      423.345       53.317      204.448   179220.638     2842.701    41798.851       11.631       11.193       88.864      289.857       10.639      333.394        2.686      864.328
01/31/2021  20:20:00      -46.644       21.134      -17.352      320.518       46.508      154.059   102731.629     2163.011    23734.246        6.575        6.431       51.208      216.416       17.861      333.281        2.496      864.362
01/31/2021  20:21:00      -54.583      -12.218      -21.898      343.596       49.895      165.329   118058.083     2489.464    27333.768        7.571        7.394       55.933      232.814       17.325      333.280        2.495      864.374
01/31/2021  20:22:00       10.343       -4.064      -40.597      529.369       50.732      250.862   280231.166     2573.738    62931.618       17.368       17.287       11.113      360.420     1051.847      333.387        2.678      864.373
01/31/2021  20:23:00       41.954       12.331      -53.401      565.394       41.542      267.428   319669.810     1725.718    71517.947       19.875       19.646       43.728      385.039       77.534      333.601        3.034      864.370
01/31/2021  20:24:00       41.492       -7.615      -43.846      509.324       51.236      241.666   259411.242     2625.157    58402.400       16.200       16.022       42.185      348.245       68.148      333.451        2.783      864.384
01/31/2021  20:25:00       -2.043       14.279      -46.067      501.709       39.923      243.198   251711.797     1593.873    59145.040       15.732       15.623       14.424      346.377      576.658      333.463        2.802      864.394
01/31/2021  20:26:00      -31.412      -38.195      -30.379      462.757       47.013      217.597   214144.352     2210.180    47348.642       13.348       13.185       49.453      312.879       40.029      333.407        2.710      864.402
01/31/2021  20:27:00      -42.518      -13.520      -21.044      389.299      132.163      192.843   151554.070    17467.133    37188.297       10.428       10.310       44.616      249.897       31.372      333.294        2.520      864.398
01/31/2021  20:28:00       10.732       33.106      -38.762      504.319       49.042      239.534   254337.826     2405.138    57376.509       15.835       15.706       34.802      342.879       97.067      333.390        2.682      864.393
01/31/2021  20:29:00      -34.793       27.596      -30.787      430.921       43.292      208.235   185692.798     1874.202    43361.627       11.687       11.546       44.408      296.913       44.703      333.403        2.701      864.375
01/31/2021  20:30:00       55.702       17.463       -8.160      410.236       47.470      196.603   168293.752     2253.412    38652.730       10.629       10.460       58.375      281.049       23.180      333.392        2.683      864.366
01/31/2021  20:31:00       30.806       13.859       -8.510      351.346       47.321      165.215   123444.297     2239.301    27295.858        7.706        7.649       33.779      236.724       49.111      333.314        2.552      864.379
01/31/2021  20:32:00       -6.626       13.208      -24.011      412.965       41.972      198.528   170540.216     1761.634    39413.381       10.621       10.586       14.777      282.502      365.508      333.377        2.657      864.383
01/31/2021  20:33:00      -19.743       29.734      -33.949      494.903       40.666      238.485   244929.347     1653.730    56874.909       15.288       15.173       35.691      341.364       91.478      333.419        2.728      864.370
01/31/2021  20:34:00      -21.958       29.225      -35.059      472.928       40.172      227.983   223660.561     1613.753    51976.470       13.985       13.863       36.555      325.372       79.227      333.442        2.768      864.343
01/31/2021  20:35:00      -22.473        2.238      -33.355      473.685       41.261      227.709   224377.006     1702.475    51851.597       13.972       13.897       22.584      325.110      207.239      333.410        2.714      864.314
01/31/2021  20:36:00       10.927       17.344      -13.004      334.265       49.020      160.026   111733.191     2402.933    25608.388        7.014        6.987       20.499      226.097      121.654      333.198        2.358      864.306
01/31/2021  20:37:00       23.416       -3.846      -17.297      393.388       45.825      185.353   154753.814     2099.915    34355.903        9.600        9.560       23.730      264.473      124.211      333.300        2.530      864.309
01/31/2021  20:38:00        4.851       12.360      -32.418      470.169       51.465      224.527   221059.328     2648.664    50412.263       13.762       13.706       13.278      320.739      583.483      333.298        2.529      864.335
01/31/2021  20:39:00       44.683        2.393      -64.579      610.109       40.924      286.630   372232.441     1674.758    82156.840       23.102       22.803       44.747      415.098       86.056      333.528        2.915      864.354
01/31/2021  20:40:00       44.585       34.757      -27.763      436.033       50.180      203.215   190125.141     2518.025    41296.307       11.890       11.697       56.532      292.048       26.688      333.325        2.572      864.354
01/31/2021  20:41:00      -57.091       34.775      -21.517      296.873       50.741      145.702    88133.586     2574.690    21229.088        5.841        5.597       66.848      203.690        9.284      333.221        2.396      864.350
01/31/2021  20:42:00       -9.271        4.338      -28.865      399.037       47.621      186.056   159230.220     2267.775    34616.695        9.848        9.806       10.235      267.084      680.895      333.243        2.435      864.332
01/31/2021  20:43:00      -52.785       11.019      -19.686      365.483       44.648      175.323   133577.570     1993.488    30737.991        8.477        8.315       53.923      249.104       21.341      333.101        2.200      864.332
01/31/2021  20:44:00        2.039       -7.346        4.571      270.456       45.113      130.060    73146.513     2035.139    16915.678        4.607        4.605        7.623      179.140      552.218      332.927        1.912      864.331
01/31/2021  20:45:00       77.848       18.974      -23.524      485.892       53.126      229.890   236090.557     2822.374    52849.187       14.931       14.588       80.127      331.314       17.097      333.153        2.289      864.326
01/31/2021  20:46:00       80.103       19.987      -28.612      515.479       33.282      246.416   265718.585     1107.704    60721.031       16.752       16.377       82.559      354.252       18.412      333.217        2.397      864.328
01/31/2021  20:47:00       30.919       14.324       -4.568      281.960       40.990      131.082    79501.464     1680.174    17182.613        4.975        4.918       34.075      188.683       30.661      332.960        1.966      864.326
01/31/2021  20:48:00        1.452       28.349      -17.290      361.490       44.586      173.603   130674.789     1987.879    30137.892        8.192        8.140       28.386      245.890       75.038      332.983        2.006      864.318
01/31/2021  20:49:00       12.654       35.228      -46.926      474.278       40.410      228.317   224939.150     1632.934    52128.634       14.109       13.935       37.431      327.085       76.357      332.993        2.025      864.299
01/31/2021  20:50:00      -34.446       16.754       -5.741      174.703       48.210       88.153    30521.156     2324.211     7771.037        2.105        2.031       38.304      118.191        9.521      332.801        1.700      864.290
01/31/2021  20:51:00       73.083       19.293      -10.236      415.610       47.250      201.215   172731.362     2232.566    40487.412       11.059       10.773       75.586      286.658       14.383      332.961        1.970      864.302
01/31/2021  20:52:00       55.294       31.047      -36.433      491.176       45.728      238.832   241253.530     2091.050    57040.812       15.280       15.019       63.414      339.479       28.658      333.044        2.110      864.329
01/31/2021  20:53:00      -35.331       44.911       -8.690      246.271       44.595      116.717    60649.355     1988.715    13622.915        3.978        3.813       57.143      165.490        8.387      332.836        1.760      864.324
01/31/2021  20:54:00       12.798       29.513      -29.094      401.323       43.451      190.955   161060.440     1887.967    36463.697       10.061        9.971       32.168      274.396       72.762      333.030        2.084      864.329
01/31/2021  20:55:00       -2.144       22.626       -6.052      267.377       46.598      129.449    71490.245     2171.392    16756.962        4.547        4.521       22.728      182.173       64.248      332.970        1.981      864.353
01/31/2021  20:56:00       65.343       24.273      -22.075      399.291       37.414      193.496   159433.542     1399.817    37440.883       10.177        9.914       69.706      275.952       15.672      333.032        2.086      864.387
01/31/2021  20:57:00       91.004       14.782      -28.542      488.216       46.173      237.855   238354.764     2131.954    56575.025       15.313       14.853       92.197      337.807       13.425      333.209        2.382      864.399
01/31/2021  20:58:00       26.304       24.876      -29.095      472.695       39.669      229.109   223440.400     1573.667    52491.129       13.977       13.875       36.204      326.806       81.484      333.200        2.369      864.393
01/31/2021  20:59:00       27.145       25.240      -10.730      391.405       47.747      190.350   153197.553     2279.773    36233.176        9.656        9.586       37.067      269.475       52.853      333.154        2.288      864.387
01/31/2021  21:00:00       33.556       15.211      -34.566      504.172       48.342      242.193   254189.060     2336.955    58657.545       15.880       15.759       36.843      346.641       88.521      333.339        2.597      864.377
01/31/2021  21:01:00      -43.768        3.730       -9.055      183.957       44.384       91.000    33840.099     1969.912     8281.080        2.304        2.205       43.926      124.108        7.983      333.069        2.144      864.380
01/31/2021  21:02:00       68.841       11.682      -35.239      454.639       40.005      221.201   206696.504     1600.431    48929.873       13.162       12.861       69.825      315.094       20.364      333.407        2.708      864.398
01/31/2021  21:03:00       56.129       34.827      -34.744      495.555       51.923      240.401   245574.683     2695.994    57792.869       15.575       15.303       66.056      342.265       26.847      333.413        2.718      864.404
01/31/2021  21:04:00      -11.189       18.356      -28.401      447.553       37.931      217.011   200303.504     1438.738    47093.823       12.500       12.442       21.498      309.142      206.792      333.215        2.391      864.399
01/31/2021  21:05:00       -2.513       26.529      -25.344      435.057       50.527      211.762   189274.254     2552.978    44842.967       11.896       11.834       26.648      299.261      126.116      333.096        2.193      864.391
01/31/2021  21:06:00       -4.860       29.485      -18.582      388.854       42.507      181.992   151207.752     1806.867    33120.925        9.365        9.307       29.883      263.133       77.538      332.962        1.972      864.378
01/31/2021  21:07:00      -15.233       42.243      -17.155      394.329       50.761      191.874   155495.137     2576.633    36815.698        9.856        9.744       44.906      271.616       36.585      332.983        2.006      864.359
01/31/2021  21:08:00      -76.726       33.236       -8.257      290.059       44.569      138.206    84134.041     1986.401    19100.890        5.612        5.261       83.615      195.773        5.482      332.914        1.890      864.345
01/31/2021  21:09:00      -18.226       10.219       -6.983      328.352       50.085      162.108   107814.780     2508.554    26279.105        6.851        6.830       20.896      225.399      116.358      332.963        1.973      864.332
01/31/2021  21:10:00      -46.143       -0.066       -5.697      307.858       52.718      152.093    94776.392     2779.178    23132.288        6.140        6.034       46.143      209.904       20.693      332.834        1.757      864.295
01/31/2021  21:11:00      -13.386        2.873      -23.462      480.111       43.757      230.909   230506.829     1914.632    53318.839       14.318       14.287       13.690      328.437      575.535      333.026        2.080      864.266
01/31/2021  21:12:00       38.899       10.673      -10.452      413.691       55.200      201.655   171140.647     3046.992    40664.583       10.825       10.743       40.337      283.972       49.562      332.970        1.983      864.291
01/31/2021  21:13:00        6.256       -0.858       -7.630      404.083       52.848      195.568   163282.835     2792.926    38246.654       10.217       10.216        6.315      275.265     1900.098      333.005        2.042      864.292
01/31/2021  21:14:00       35.085      -13.606      -56.992      591.374       50.013      278.031   349723.684     2501.346    77300.978       21.701       21.476       37.631      401.742      113.973      333.182        2.342      864.277
01/31/2021  21:15:00      -61.578      -19.780      -29.270      418.591       49.659      205.644   175218.272     2466.056    42289.479       11.246       10.999       64.677      289.122       19.983      332.940        1.936      864.291
01/31/2021  21:16:00       42.913       12.768       -2.423      326.016       44.545      157.834   106286.638     1984.287    24911.605        6.757        6.659       44.772      221.043       24.375      332.898        1.864      864.303
01/31/2021  21:17:00       59.027       18.639      -43.963      524.916       52.438      257.263   275537.008     2749.787    66184.290       17.505       17.224       61.900      363.236       34.435      333.159        2.302      864.311
01/31/2021  21:18:00      -54.308       11.914      -16.935      385.788       54.358      186.837   148832.503     2954.752    34907.907        9.500        9.335       55.599      262.498       22.290      332.780        1.669      864.286
01/31/2021  21:19:00       17.601       31.123      -20.579      434.527       51.234      207.730   188813.747     2624.939    43151.874       11.810       11.730       35.756      296.441       68.737      332.934        1.926      864.245
01/31/2021  21:20:00      -28.285       16.531      -18.877      382.595       46.002      180.254   146378.698     2116.173    32491.623        9.117        9.049       32.761      257.035       61.554      332.850        1.786      864.222
01/31/2021  21:21:00      -54.902        0.084      -16.678      338.129       47.475      160.529   114330.990     2253.830    25769.583        7.279        7.118       54.902      226.235       16.980      332.707        1.548      864.218
01/31/2021  21:22:00       21.526       60.317      -21.946      483.458       49.343      223.705   233731.487     2434.723    50044.138       14.534       14.311       64.043      323.568       25.526      332.850        1.788      864.229
01/31/2021  21:23:00       24.354       31.218      -44.743      578.913       54.902      272.183   335140.521     3014.211    74083.410       20.782       20.612       39.594      391.338       97.688      332.941        1.941      864.231
01/31/2021  21:24:00       12.214       14.187      -25.139      410.239       42.834      187.939   168295.743     1834.721    35321.228       10.317       10.273       18.721      272.335      211.627      332.675        1.496      864.223
01/31/2021  21:25:00      -31.915       56.974      -17.894      334.680       60.541      162.603   112010.810     3665.244    26439.881        7.332        7.106       65.304      226.603       12.041      332.655        1.462      864.226
01/31/2021  21:26:00       73.872       22.791      -40.255      556.411       69.031      264.962   309592.932     4765.327    70205.112       19.600       19.228       77.307      380.173       24.184      332.864        1.813      864.214
01/31/2021  21:27:00       91.405       34.963      -40.539      573.314       49.935      281.816   328688.463     2493.537    79420.228       21.083       20.530       97.863      399.222       16.641      332.888        1.854      864.211
01/31/2021  21:28:00      242.233      -18.117      -94.571      763.339       36.869      364.850   582686.337     1359.309   133115.324       39.241       35.858      242.909      526.733        4.702      333.323        2.583      864.216
01/31/2021  21:29:00      209.405       13.341      -76.678      663.413       56.641      317.509   440116.244     3208.218   100812.237       29.691       27.207      209.830      456.799        4.739      333.230        2.425      864.204
01/31/2021  21:30:00      231.924       31.252      -78.839      711.499       60.723      335.694   506230.419     3687.319   112690.525       34.167       31.130      234.020      486.591        4.323      333.245        2.450      864.189
01/31/2021  21:31:00      231.642      -20.925      -86.334      696.162       43.146      335.144   484640.943     1861.610   112321.474       33.006       29.941      232.585      481.341        4.283      333.356        2.633      864.173
01/31/2021  21:32:00      147.264       21.569      -43.540      588.165       56.363      279.187   345937.738     3176.750    77945.113       22.546       21.353      148.835      401.757        7.286      333.215        2.397      864.167
01/31/2021  21:33:00      170.425       -1.242      -72.280      646.105       38.980      311.707   417451.803     1519.406    97161.339       27.509       25.807      170.429      446.934        6.877      333.239        2.438      864.170
01/31/2021  21:34:00      143.219       19.761      -42.124      589.555       49.973      280.979   347575.083     2497.306    78949.164       22.576       21.451      144.576      404.698        7.836      333.131        2.257      864.173
01/31/2021  21:35:00      109.568       12.988      -48.267      529.310       50.894      255.309   280169.089     2590.191    65182.801       18.115       17.397      110.336      364.920       10.939      332.986        2.016      864.156
01/31/2021  21:36:00       27.287       13.693      -24.666      461.409       45.424      221.367   212898.090     2063.321    49003.336       13.270       13.198       30.529      316.784      107.668      332.955        1.961      864.131
01/31/2021  21:37:00      124.414       26.833      -51.173      589.950       50.585      282.978   348041.269     2558.890    80076.806       22.466       21.534      127.275      405.504       10.151      333.287        2.514      864.096
01/31/2021  21:38:00       18.770       24.794        5.167      273.976       48.846      136.389    75063.099     2385.959    18601.889        4.850        4.803       31.098      186.966       36.146      332.865        1.809      864.087
01/31/2021  21:39:00       82.618       27.973      -41.441      567.277       52.735      272.338   321802.952     2780.968    74167.881       20.395       19.938       87.225      390.621       20.055      333.178        2.334      864.085
01/31/2021  21:40:00       45.401       -3.950       -7.837      349.583       51.237      163.990   122208.427     2625.209    26892.623        7.690        7.586       45.573      234.877       26.563      332.844        1.775      864.088
01/31/2021  21:41:00       64.436        9.220      -35.559      519.480       53.559      248.660   269859.749     2868.547    61831.977       16.996       16.728       65.092      356.047       29.920      333.070        2.153      864.095
01/31/2021  21:42:00       62.575        8.156      -37.012      523.191       66.523      248.903   273728.914     4425.276    61952.942       17.266       17.005       63.104      356.902       31.987      332.962        1.975      864.097
01/31/2021  21:43:00       39.259      -18.679      -53.944      514.099       69.541      247.989   264297.621     4835.942    61498.523       16.765       16.532       43.476      351.808       65.480      332.969        1.987      864.089
01/31/2021  21:44:00      -14.419       -4.791       -0.386      233.162       63.801      114.944    54364.325     4070.514    13212.043        3.592        3.582       15.194      155.993      105.405      332.673        1.490      864.071
01/31/2021  21:45:00       83.109      -14.577      -54.636      550.471       46.928      256.794   303018.071     2202.281    65942.942       19.056       18.558       84.378      372.829       19.524      333.042        2.108      864.062
01/31/2021  21:46:00        6.623      -14.078       -4.480      250.262       55.763      119.817    62631.202     3109.521    14356.100        4.016        4.005       15.558      165.501      113.163      332.707        1.547      864.057
01/31/2021  21:47:00       86.626       12.352      -27.973      482.854       56.116      231.771   233147.634     3148.958    53717.901       14.917       14.501       87.503      331.075       14.316      332.973        1.992      864.063
01/31/2021  21:48:00       85.082       -7.906      -64.458      608.638       67.107      288.604   370439.733     4503.338    83292.233       23.475       22.912       85.448      414.154       23.492      333.044        2.113      864.085
01/31/2021  21:49:00       -0.307      -43.959      -20.546      356.017       57.944      171.271   126747.846     3357.451    29333.590        8.086        7.972       43.960      239.616       29.710      332.713        1.558      864.132
01/31/2021  21:50:00       11.195        2.358      -26.277      424.910       75.957      205.214   180548.322     5769.508    42112.804       11.458       11.422       11.441      290.449      644.521      332.758        1.635      864.178
01/31/2021  21:51:00       56.078       -5.372      -50.581      557.377       54.393      263.034   310668.812     2958.601    69186.675       19.419       19.141       56.335      379.378       45.352      332.975        1.997      864.193
01/31/2021  21:52:00       91.721      -16.305      -82.282      694.637       50.471      339.563   482520.046     2547.287   115302.717       30.778       30.019       93.159      482.874       26.867      333.150        2.294      864.198
01/31/2021  21:53:00      -19.638      -40.278      -30.081      417.194       73.235      203.699   174050.719     5363.427    41493.280       11.186       11.045       44.810      285.902       40.708      332.659        1.472      864.211
01/31/2021  21:54:00       93.615        3.554      -51.918      611.579       60.291      297.725   374029.181     3635.051    88639.996       23.879       23.315       93.682      422.859       20.374      332.964        1.982      864.222
01/31/2021  21:55:00       88.389        6.659      -69.735      643.680       65.644      305.461   414324.032     4309.090    93306.453       26.222       25.597       88.639      437.764       24.391      332.985        2.017      864.215
01/31/2021  21:56:00      -34.789        4.722      -24.002      510.224       59.567      243.599   260328.469     3548.251    59340.303       16.244       16.161       35.108      347.185       97.792      332.779        1.673      864.213
01/31/2021  21:57:00      -93.533       -9.403      -16.679      366.769       63.201      178.154   134519.687     3994.304    31738.916        8.965        8.513       94.005      245.871        6.841      332.493        1.195      864.233
01/31/2021  21:58:00      -34.365       11.919      -44.561      517.174       57.031      247.153   267468.808     3252.484    61084.783       16.749       16.590       36.374      354.803       95.148      332.664        1.482      864.239
01/31/2021  21:59:00      125.959       15.031      -81.372      713.521       57.248      341.468   509111.719     3277.357   116600.120       32.572       31.449      126.853      490.750       14.967      333.117        2.240      864.225
01/31/2021  22:00:00      166.961       18.689      -63.179      697.388       55.312      334.335   486349.942     3059.451   111779.862       31.658       30.059      168.003      480.363        8.175      333.148        2.289      864.215
01/31/2021  22:01:00        1.869       39.316      -10.941      359.559       54.481      169.170   129282.519     2968.213    28618.642        8.124        8.043       39.360      241.139       37.534      332.600        1.372      864.202
01/31/2021  22:02:00       89.719       30.299      -75.230      702.357       54.357      336.093   493304.942     2954.711   112958.254       31.180       30.461       94.697      483.325       26.050      333.009        2.060      864.207
01/31/2021  22:03:00       44.288       23.700      -29.219      523.136       54.769      250.821   273671.285     2999.697    62911.028       17.141       16.979       50.231      358.451       50.923      332.714        1.566      864.225
01/31/2021  22:04:00      149.237       34.609      -74.870      723.930       47.235      342.560   524074.730     2231.109   117347.382       33.623       32.183      153.197      494.596       10.423      332.968        1.995      864.213
01/31/2021  22:05:00      -12.855       34.460      -30.168      454.080       54.857      217.981   206188.855     3009.281    47515.619       12.943       12.836       36.779      310.155       71.112      332.434        1.102      864.198
01/31/2021  22:06:00       41.731       42.000      -38.977      560.044       55.246      265.695   313649.510     3052.102    70593.731       19.608       19.365       59.207      382.518       41.741      332.611        1.398      864.184
01/31/2021  22:07:00       63.829       46.114      -50.053      620.121       56.300      295.970   384550.617     3169.648    87598.507       24.191       23.766       78.744      424.778       29.100      332.800        1.711      864.178
01/31/2021  22:08:00       -1.756       49.511      -13.295      392.644       60.248      191.849   154169.027     3629.804    36806.028        9.858        9.730       49.543      269.524       29.596      332.468        1.156      864.188
01/31/2021  22:09:00      132.457       50.430      -88.103      750.823       45.345      357.425   563734.782     2056.167   127752.443       36.055       34.677      141.733      516.186       13.264      332.891        1.866      864.189
01/31/2021  22:10:00       72.600       48.567      -48.851      579.554       63.510      277.507   335883.051     4033.535    77010.245       21.338       20.846       87.347      397.453       20.705      332.758        1.639      864.171
01/31/2021  22:11:00       40.199       33.023      -31.606      515.200       56.909      246.500   265430.638     3238.610    60762.171       16.650       16.472       52.024      352.853       46.002      332.684        1.517      864.142
01/31/2021  22:12:00      121.827       30.320      -78.974      716.246       51.962      339.810   513008.482     2700.024   115470.867       32.646       31.559      125.543      491.408       15.321      332.981        2.016      864.121
01/31/2021  22:13:00      138.926        3.180      -60.570      673.866       49.255      323.134   454095.829     2426.088   104415.527       29.184       28.047      138.963      463.944       11.146      332.943        1.951      864.107
01/31/2021  22:14:00      270.946       13.704     -105.699      787.392       51.395      375.279   619985.399     2641.429   140834.275       42.396       38.173      271.292      541.535        3.985      333.299        2.543      864.098
01/31/2021  22:15:00       57.535       27.525      -25.924      495.157       53.845      229.012   245180.545     2899.258    52446.498       15.257       15.026       63.780      331.348       26.990      332.618        1.405      864.095
01/31/2021  22:16:00      175.742       22.791      -78.771      679.178       50.713      326.332   461282.764     2571.782   106492.490       30.386       28.517      177.213      468.175        6.979      332.965        1.987      864.090
01/31/2021  22:17:00       29.407       36.105       -2.046      336.863       50.610      155.181   113476.889     2561.323    24081.081        7.112        7.006       46.565      224.021       23.145      332.387        1.020      864.108
01/31/2021  22:18:00      137.896       29.374      -53.355      575.841       46.439      274.652   331592.422     2156.609    75433.749       21.587       20.459      140.990      395.508        7.869      332.751        1.628      864.144
01/31/2021  22:19:00      174.617       23.374      -59.346      626.779       58.312      305.111   392851.589     3400.238    93092.478       26.185       24.467      176.174      434.866        6.093      332.782        1.681      864.134
01/31/2021  22:20:00        5.354       57.640      -30.538      499.327       55.109      241.354   249327.324     3036.994    58251.967       15.739       15.531       57.888      343.733       35.258      332.481        1.181      864.121
01/31/2021  22:21:00       53.192       45.882      -50.468      607.940       54.838      292.626   369591.292     3007.247    85630.171       23.276       22.911       70.246      419.248       35.620      332.621        1.415      864.104
01/31/2021  22:22:00      101.128       35.961      -69.250      668.816       51.908      324.610   447315.207     2694.452   105371.339       28.573       27.769      107.332      463.513       18.649      332.904        1.887      864.100
01/31/2021  22:23:00       63.472       34.047      -78.597      669.843       58.769      318.522   448689.749     3453.805   101456.500       28.237       27.680       72.027      459.297       40.663      332.748        1.627      864.073
01/31/2021  22:24:00      131.864       43.302      -80.814      721.109       54.874      345.286   519998.674     3011.186   119222.453       33.388       32.112      138.792      496.322       12.788      332.742        1.620      864.038
01/31/2021  22:25:00       45.648       47.378      -74.336      672.941       44.347      323.965   452849.304     1966.638   104953.077       28.469       27.988       65.791      465.093       49.975      332.647        1.461      864.036
01/31/2021  22:26:00      -32.884       31.960      -55.521      534.301       52.694      255.026   285477.946     2776.673    65038.495       17.916       17.665       45.856      365.960       63.690      332.401        1.050      864.049
01/31/2021  22:27:00      141.537       18.402     -104.156      801.537       53.311      383.129   642461.919     2842.076   146787.813       41.149       39.605      142.728      551.305       14.920      332.902        1.889      864.055
01/31/2021  22:28:00       22.590       40.286      -20.642      428.257       46.581      205.205   183403.916     2169.826    42109.057       11.507       11.384       46.187      291.632       39.868      332.155        0.641      864.043
01/31/2021  22:29:00      118.253       63.466      -71.607      690.484       55.470      327.344   476768.220     3076.923   107154.003       30.495       29.350      134.208      471.691       12.353      332.585        1.357      864.011
01/31/2021  22:30:00      100.732       33.335      -74.605      694.163       53.367      333.859   481861.912     2848.023   111461.989       30.637       29.809      106.104      478.327       20.323      332.631        1.434      863.989
01/31/2021  22:31:00      143.535       34.436      -74.075      723.421       55.484      345.432   523338.208     3078.477   119323.405       33.637       32.287      147.608      497.334       11.352      332.717        1.578      863.977
01/31/2021  22:32:00       90.297       14.941      -64.770      653.950       59.392      314.582   427650.695     3527.445    98961.744       27.124       26.507       91.524      450.494       24.227      332.587        1.360      863.982
01/31/2021  22:33:00      194.699       10.256      -62.973      707.467       46.116      336.584   500510.045     2126.648   113288.621       32.883       30.796      194.969      485.179        6.193      332.684        1.523      863.992
01/31/2021  22:34:00       98.249       42.177      -84.839      692.588       55.779      324.933   479677.965     3111.250   105581.405       30.338       29.419      106.919      471.135       19.417      332.654        1.474      863.991
01/31/2021  22:35:00        9.599       40.702      -40.630      528.239       60.790      255.633   279036.176     3695.444    65348.287       17.567       17.404       41.819      363.564       75.582      332.383        1.019      864.006
01/31/2021  22:36:00       17.684       66.754      -50.789      586.864       55.850      280.374   344408.847     3119.266    78609.735       21.665       21.307       69.057      402.459       33.965      332.310        0.901      864.027
01/31/2021  22:37:00      111.549       40.167      -74.527      691.531       50.767      327.834   478215.212     2577.283   107475.228       30.382       29.413      118.560      473.166       15.927      332.554        1.308      864.033
01/31/2021  22:38:00       85.975       28.708      -55.398      641.820       50.498      302.932   411933.386     2550.027    91767.981       25.866       25.313       90.642      438.167       23.368      332.434        1.107      864.023
01/31/2021  22:39:00      144.946       34.887      -86.434      720.984       41.356      346.578   519817.230     1710.290   120116.378       33.554       32.082      149.085      497.875       11.152      332.582        1.355      864.014
01/31/2021  22:40:00       85.012       30.813      -75.697      637.459       50.186      309.297   406354.017     2518.611    95664.619       25.912       25.227       90.424      441.934       23.886      332.566        1.325      864.003
01/31/2021  22:41:00       92.445       19.585      -74.126      645.325       91.131      305.210   416443.819     8304.782    93152.948       26.606       25.895       94.497      436.704       21.357      332.612        1.401      863.992
01/31/2021  22:42:00      175.788       22.292      -52.477      589.084       56.529      283.239   347020.519     3195.478    80224.478       23.221       21.522      177.196      405.686        5.242      332.575        1.338      863.987
01/31/2021  22:43:00      240.140       10.809      -95.986      750.809       55.749      365.103   563714.660     3107.966   133300.011       38.341       35.006      240.383      521.307        4.703      332.914        1.906      863.981
01/31/2021  22:44:00      178.207       19.031      -91.692      744.594       56.898      347.255   554420.547     3237.328   120586.270       35.924       33.912      179.220      506.265        7.980      332.804        1.722      863.960
01/31/2021  22:45:00      176.092       38.731      -80.385      753.786       53.836      356.034   568193.456     2898.273   126760.150       36.827       34.893      180.301      515.086        8.161      332.790        1.701      863.957
01/31/2021  22:46:00      182.499        9.141      -72.995      711.676       47.424      342.763   506482.823     2249.001   117486.309       33.234       31.311      182.727      491.402        7.232      332.788        1.696      863.986
01/31/2021  22:47:00      305.365       40.390     -156.717      925.713       57.854      445.074   856943.948     3347.044   198090.816       58.869       52.919      308.025      640.142        4.319      333.267        2.499      863.996
01/31/2021  22:48:00      103.933       42.239      -63.034      617.726       66.580      296.906   381584.989     4432.913    88153.006       24.527       23.709      112.188      424.666       14.329      332.491        1.200      864.000
01/31/2021  22:49:00       44.466       22.406      -44.965      529.534      126.672      291.247   280406.351    16045.718    84824.534       19.281       19.064       49.792      382.237       58.930      332.383        1.021      864.013
01/31/2021  22:50:00       79.688       34.973      -58.622      587.215       50.242      283.322   344821.960     2524.217    80271.093       21.922       21.381       87.025      405.224       21.682      332.482        1.185      864.030
01/31/2021  22:51:00      145.697       43.386      -68.528      680.145       49.202      320.255   462597.884     2420.803   102563.516       29.758       28.379      152.020      464.797        9.348      332.610        1.401      864.047
01/31/2021  22:52:00      166.461       49.745      -75.543      709.701       52.435      341.090   503675.166     2749.415   116342.440       32.920       31.138      173.735      490.112        7.958      332.716        1.577      864.048
01/31/2021  22:53:00      188.234       34.228     -108.477      813.035       50.624      388.237   661025.542     2562.834   150728.216       43.117       40.716      191.321      560.076        8.570      332.846        1.795      864.036
01/31/2021  22:54:00      221.203       34.769      -85.360      718.436       48.568      337.976   516149.914     2358.888   114227.984       34.495       31.637      223.919      490.013        4.789      332.774        1.673      864.013
01/31/2021  22:55:00      369.867       42.281     -152.193      911.743       55.030      443.525   831274.950     3028.307   196714.424       59.617       51.551      372.276      633.706        2.898      333.470        2.833      863.994
01/31/2021  22:56:00      197.847       32.936      -70.003      716.165       51.151      337.959   512892.113     2616.394   114216.264       33.730       31.486      200.569      489.250        5.950      332.745        1.624      863.984
01/31/2021  22:57:00      186.360       15.550     -123.749      842.396       53.956      398.416   709630.188     2911.225   158735.269       46.060       43.564      187.008      576.922        9.517      333.011        2.070      863.970
01/31/2021  22:58:00       36.221       20.490      -36.458      507.835       51.782      238.712   257896.172     2681.335    56983.264       16.024       15.878       41.615      344.360       68.473      332.342        0.951      863.969
01/31/2021  22:59:00       55.987       38.307      -63.688      638.267       44.163      308.624   407384.674     1950.407    95248.609       25.651       25.229       67.837      441.552       42.367      332.552        1.304      863.958
01/31/2021  23:00:00       30.711       38.558      -43.999      547.753       48.180      264.729   300033.848     2321.326    70081.507       18.832       18.622       49.294      378.439       58.940      332.439        1.111      863.961
01/31/2021  23:01:00       -6.923       48.922      -25.104      474.797       50.773      225.190   225432.496     2577.893    50710.354       14.084       13.936       49.410      323.872       42.966      332.317        0.909      863.949
01/31/2021  23:02:00       66.451       35.254      -78.676      662.164       43.342      313.925   438461.463     1878.490    98548.979       27.526       26.944       75.224      454.155       36.450      332.593        1.371      863.948
01/31/2021  23:03:00      -10.359       37.914      -33.389      481.180       50.689      232.609   231534.013     2569.372    54107.179       14.538       14.411       39.303      331.779       71.259      332.322        0.917      863.959
01/31/2021  23:04:00      -32.132       45.482      -34.490      427.217       42.854      206.865   182514.012     1836.474    42793.034       11.567       11.357       55.687      294.766       28.018      332.197        0.709      863.968
01/31/2021  23:05:00       54.935       32.247      -64.675      566.491       44.403      273.062   320911.539     1971.583    74562.760       20.276       19.872       63.701      391.373       37.748      332.466        1.158      863.973
01/31/2021  23:06:00       30.598       41.079      -49.273      537.488       43.384      258.033   288892.896     1882.177    66581.216       18.113       17.868       51.222      370.248       52.247      332.380        1.015      863.968
01/31/2021  23:07:00      138.978       21.790      -95.581      752.161       45.724      366.511   565746.686     2090.729   134330.590       36.540       35.108      140.675      523.098       13.827      332.772        1.671      863.965
01/31/2021  23:08:00       85.211       48.198      -65.291      622.945       53.334      294.880   388060.761     2844.518    86954.471       24.576       23.893       97.898      425.961       18.932      332.503        1.220      863.973
01/31/2021  23:09:00      154.596       29.028      -98.576      756.640       51.381      366.931   572503.388     2639.961   134638.270       37.197       35.489      157.298      525.167       11.147      332.752        1.637      863.986
01/31/2021  23:10:00      111.889       22.975      -44.294      562.416       62.531      267.917   316311.621     3910.112    71779.727       20.342       19.600      114.223      384.941       11.357      332.435        1.105      863.995
01/31/2021  23:11:00       23.535       42.106      -50.935      590.575       53.945      286.889   348778.592     2910.114    82305.181       21.937       21.700       48.236      408.658       71.774      332.411        1.067      864.003
01/31/2021  23:12:00      125.741       42.064      -95.954      750.643       48.701      351.991   563465.342     2371.804   123897.467       35.812       34.487      132.590      511.501       14.882      332.760        1.652      863.994
01/31/2021  23:13:00       43.525       39.748      -49.517      534.250       48.148      254.930   285423.071     2318.194    64989.269       17.925       17.637       58.943      366.802       38.726      332.385        1.022      863.983
01/31/2021  23:14:00       90.891       25.143      -68.686      644.984       56.549      307.792   416004.090     3197.841    94736.176       26.367       25.697       94.304      443.394       22.106      332.606        1.391      863.961
01/31/2021  23:15:00       69.399       33.455      -55.498      602.311       46.616      286.133   362779.077     2173.096    81872.218       22.783       22.341       77.042      413.120       28.754      332.413        1.072      863.942
01/31/2021  23:16:00      138.949       55.222      -86.282      723.698       52.549      339.483   523738.716     2761.437   115248.432       33.564       32.087      149.520      493.053       10.874      332.659        1.481      863.923
01/31/2021  23:17:00       86.073       26.548      -67.709      649.099       40.260      309.714   421329.509     1620.887    95922.479       26.568       25.944       90.074      446.435       24.565      332.396        1.048      863.908
01/31/2021  23:18:00      116.044       38.392      -97.435      750.601       45.155      357.742   563402.416     2038.996   127979.695       35.878       34.671      122.230      516.612       17.864      332.562        1.325      863.912
01/31/2021  23:19:00      153.985       22.290      -94.175      724.149       47.004      349.534   524391.638     2209.330   122173.912       34.079       32.439      155.590      501.062       10.371      332.569        1.334      863.929
01/31/2021  23:20:00      108.777       39.613      -67.242      631.952       46.018      307.923   399362.922     2117.644    94816.555       25.701       24.815      115.765      439.435       14.409      332.403        1.056      863.941
01/31/2021  23:21:00      190.424       47.725      -90.866      757.310       52.163      358.225   573517.743     2720.961   128325.346       37.553       35.228      196.313      518.711        6.982      332.755        1.643      863.930
01/31/2021  23:22:00       68.695       45.024      -37.504      509.632       56.083      248.372   259724.553     3145.306    61688.690       16.629       16.228       82.135      352.662       18.436      332.303        0.887      863.921
01/31/2021  23:23:00      104.406       33.077      -72.206      605.232       45.243      286.074   366305.925     2046.884    81838.344       23.361       22.510      109.520      414.162       14.301      332.464        1.156      863.908
01/31/2021  23:24:00      131.166       19.018      -84.167      681.726       50.339      329.443   464750.378     2533.980   108532.863       30.012       28.791      132.538      471.702       12.666      332.606        1.394      863.915
01/31/2021  23:25:00      265.853        9.601     -120.891      841.987       59.553      398.409   708941.836     3546.573   158729.656       47.812       43.561      266.026      576.756        4.700      332.921        1.921      863.930
01/31/2021  23:26:00      155.255       10.154      -90.277      733.210       44.002      357.728   537596.916     1936.201   127969.045       34.979       33.375      155.587      510.545       10.768      332.604        1.392      863.951
01/31/2021  23:27:00       18.759       37.672      -53.426      565.779       45.713      274.239   320106.013     2089.693    75207.008       20.093       19.870       42.084      391.827       86.687      332.225        0.761      863.951
01/31/2021  23:28:00      185.238       53.629     -117.253      825.145       58.715      396.545   680864.306     3447.479   157247.587       44.607       42.078      192.845      569.689        8.727      332.814        1.744      863.944
01/31/2021  23:29:00       22.048       24.760      -36.527      504.330       47.688      242.663   254349.101     2274.102    58885.416       15.891       15.775       33.153      346.054      108.952      332.282        0.852      863.935
01/31/2021  23:30:00      168.065       23.132      -76.255      712.887       57.159      340.933   508207.280     3267.151   116235.406       33.102       31.385      169.649      490.130        8.347      332.605        1.393      863.930
01/31/2021  23:31:00       84.667       30.491      -45.382      578.698       52.544      278.098   334890.876     2760.846    77338.373       21.249       20.750       89.990      398.096       19.570      332.400        1.049      863.945
01/31/2021  23:32:00      126.817       16.312      -69.696      668.785       53.144      323.594   447273.986     2824.324   104712.837       28.789       27.741      127.862      461.175       13.009      332.525        1.260      863.968
01/31/2021  23:33:00      165.830       10.609      -59.913      685.749       50.627      329.506   470251.287     2563.078   108574.230       30.618       29.069      166.169      471.806        8.062      332.553        1.306      863.979
01/31/2021  23:34:00       54.505        9.490      -32.891      548.567       54.519      264.755   300925.734     2972.271    70095.233       18.899       18.700       55.324      377.097       46.459      332.349        0.963      863.996
01/31/2021  23:35:00       60.883        5.828      -62.297      658.851       44.665      314.011   434085.257     1994.979    98603.173       27.104       26.734       61.162      451.891       54.590      332.466        1.162      864.018
01/31/2021  23:36:00        5.863        4.015      -33.506      498.366       47.134      241.204   248368.969     2221.587    58179.141       15.491       15.438        7.106      342.823     2327.814      332.205        0.727      864.031
01/31/2021  23:37:00      127.344       11.142      -60.054      616.445       48.868      302.693   380005.017     2388.063    91623.165       24.688       23.701      127.830      429.820       11.306      332.506        1.226      864.026
01/31/2021  23:38:00      149.622       14.587      -84.643      718.092      109.000      343.991   515656.438    11881.008   118330.147       33.768       32.293      150.332      487.683       10.524      332.745        1.623      864.034
01/31/2021  23:39:00      206.915       19.713     -113.587      826.102       50.366      396.005   682445.073     2536.712   156819.640       44.878       42.090      207.852      570.231        7.527      332.960        1.986      864.046
01/31/2021  23:40:00      148.809       12.390      -84.334      742.502       48.071      355.934   551308.857     2310.832   126688.926       35.472       34.015      149.324      512.124       11.762      332.715        1.575      864.043
01/31/2021  23:41:00      132.403       11.649      -67.976      685.659       50.980      327.849   470128.566     2598.914   107484.732       30.113       29.011      132.915      471.932       12.607      332.542        1.289      864.034
01/31/2021  23:42:00       65.103       18.567      -51.147      586.155       54.182      281.031   343577.976     2935.727    78978.186       21.626       21.275       67.699      402.159       35.288      332.429        1.097      864.038
01/31/2021  23:43:00      104.503       10.533      -62.035      701.904       52.221      336.103   492669.331     2727.085   112965.248       31.149       30.418      105.032      483.156       21.161      332.624        1.426      864.033
01/31/2021  23:44:00      104.450       19.777      -75.658      699.094       48.663      333.737   488731.909     2368.069   111380.649       30.963       30.124      106.305      480.638       20.442      332.584        1.357      864.021
01/31/2021  23:45:00      162.437       44.007     -101.852      793.845       46.196      382.021   630189.358     2134.111   145940.070       40.832       38.913      168.293      549.094       10.645      332.794        1.710      863.995
01/31/2021  23:46:00      154.613       46.779      -96.991      792.970       50.935      376.213   628801.110     2594.354   141536.561       40.406       38.647      161.534      544.242       11.352      332.689        1.535      863.981
01/31/2021  23:47:00      106.835       22.133      -80.651      703.164       53.512      337.481   494440.117     2863.535   113893.214       31.468       30.560      109.103      484.560       19.725      332.648        1.465      863.985
01/31/2021  23:48:00      125.264       -3.804      -72.560      681.167       55.162      325.389   463989.097     3042.888   105878.308       29.682       28.646      125.321      465.499       13.797      332.452        1.139      863.992
01/31/2021  23:49:00      118.859       16.693      -36.444      574.423       57.101      274.572   329962.267     3260.478    75389.652       21.209       20.431      120.026      391.881       10.660      332.246        0.794      863.971
01/31/2021  23:50:00      186.397       33.448      -88.032      721.171       58.745      340.835   520087.197     3450.998   116168.232       34.153       31.985      189.374      493.233        6.784      332.567        1.331      863.926
01/31/2021  23:51:00      169.187       43.391     -101.129      767.369       59.972      365.801   588854.512     3596.627   133810.026       38.334       36.313      174.662      526.667        9.092      332.625        1.430      863.903
01/31/2021  23:52:00       14.820       22.933      -89.563      629.696       92.795      301.009   396517.108     8610.870    90606.560       25.214       24.787       27.305      427.714      245.369      332.221        0.757      863.904
01/31/2021  23:53:00      213.542       27.488     -122.362      848.696       47.001      404.993   720284.783     2209.060   164019.299       47.374       44.326      215.304      583.529        7.345      332.697        1.552      863.906
01/31/2021  23:54:00      339.765       37.022     -139.941      907.946       49.518      434.366   824365.754     2452.036   188673.635       57.573       50.775      341.776      626.061        3.355      332.995        2.050      863.910
01/31/2021  23:55:00      331.574        9.904     -142.616      884.747       54.270      415.745   782776.940     2945.243   172843.626       54.427       47.928      331.722      604.691        3.323      332.997        2.051      863.938
01/31/2021  23:56:00      290.300       18.225     -112.988      815.487       56.429      394.578   665019.254     3184.235   155691.830       46.047       41.195      290.872      564.769        3.770      332.794        1.710      863.971
01/31/2021  23:57:00      180.297       12.011      -76.783      674.546       52.922      318.080   455012.106     2800.694   101175.088       29.865       27.949      180.696      461.362        6.519      332.472        1.174      864.007
01/31/2021  23:58:00      166.195       37.756      -89.114      783.885       60.319      364.422   614476.370     3638.344   132803.096       39.380       37.546      170.430      531.630        9.730      332.613        1.412      864.016
01/31/2021  23:59:00       63.692       34.740      -82.073      680.398       50.633      327.077   462941.462     2563.686   106979.273       29.212       28.624       72.550      468.667       41.731      332.449        1.135      864.002
